/* DATA DESCRIPTION:
Citation:	Vuilleumier, Laurent (2026): Radiosonde measurements from station Payerne (2025-08) [dataset]. Federal Office of Meteorology and Climatology MeteoSwiss, Payerne, PANGAEA, https://doi.org/10.1594/PANGAEA.992972
Other version:	Vuilleumier, Laurent (2026): BSRN Station-to-archive file for station Payerne (2025-08) [dataset]. ftp://ftp.bsrn.awi.de/pay/pay0825.dat.gz
Project(s):	Baseline Surface Radiation Network (BSRN) (URI: https://bsrn.awi.de/)
Coverage:	LATITUDE: 46.812300 * LONGITUDE: 6.942200
	DATE/TIME START: 2025-08-01T00:00:00 * DATE/TIME END: 2025-08-31T12:00:00
	MINIMUM ALTITUDE: 491 m * MAXIMUM ALTITUDE: 38900 m
Event(s):	PAY (Payerne) * LATITUDE: 46.812300 * LONGITUDE: 6.942200 * DATE/TIME: 1992-09-01T00:00:00 * ELEVATION: 491.0 m * LOCATION: Switzerland * METHOD/DEVICE: Monitoring station (MONS) * COMMENT: BSRN station no: 21; Surface type: cultivated; Topography type: hilly, rural; Horizon: doi:10.1594/PANGAEA.947035; Station scientist: Laurent Vuilleumier (laurent.vuilleumier@meteoswiss.ch)
Parameter(s):	DATE/TIME (Date/Time) * GEOCODE * PI: Vuilleumier, Laurent (https://orcid.org/0000-0003-0222-2566, laurent.vuilleumier@meteoswiss.ch)
	ALTITUDE [m] (Altitude) * GEOCODE * PI: Vuilleumier, Laurent (https://orcid.org/0000-0003-0222-2566, laurent.vuilleumier@meteoswiss.ch)
	Pressure, at given altitude [hPa] (PPPP) * PI: Vuilleumier, Laurent (https://orcid.org/0000-0003-0222-2566, laurent.vuilleumier@meteoswiss.ch) * METHOD/DEVICE: Radiosonde, Vaisala, RS41 (URI: http://www.vaisala.com/en/products/soundingsystemsandradiosondes/radiosondes/Pages/RS41.aspx)
	Temperature, air [°C] (TTT) * PI: Vuilleumier, Laurent (https://orcid.org/0000-0003-0222-2566, laurent.vuilleumier@meteoswiss.ch) * METHOD/DEVICE: Radiosonde, Vaisala, RS41 (URI: http://www.vaisala.com/en/products/soundingsystemsandradiosondes/radiosondes/Pages/RS41.aspx)
	Dew/frost point [°C] (TdTdTd) * PI: Vuilleumier, Laurent (https://orcid.org/0000-0003-0222-2566, laurent.vuilleumier@meteoswiss.ch) * METHOD/DEVICE: Radiosonde, Vaisala, RS41 (URI: http://www.vaisala.com/en/products/soundingsystemsandradiosondes/radiosondes/Pages/RS41.aspx)
	Wind direction [deg] (dd) * PI: Vuilleumier, Laurent (https://orcid.org/0000-0003-0222-2566, laurent.vuilleumier@meteoswiss.ch) * METHOD/DEVICE: Radiosonde, Vaisala, RS41 (URI: http://www.vaisala.com/en/products/soundingsystemsandradiosondes/radiosondes/Pages/RS41.aspx)
	Wind speed [m/s] (ff) * PI: Vuilleumier, Laurent (https://orcid.org/0000-0003-0222-2566, laurent.vuilleumier@meteoswiss.ch) * METHOD/DEVICE: Radiosonde, Vaisala, RS41 (URI: http://www.vaisala.com/en/products/soundingsystemsandradiosondes/radiosondes/Pages/RS41.aspx)
	Ozone, partial pressure [mPa] (pO3) * PI: Vuilleumier, Laurent (https://orcid.org/0000-0003-0222-2566, laurent.vuilleumier@meteoswiss.ch) * METHOD/DEVICE: Radiosonde, Vaisala, RS41 (URI: http://www.vaisala.com/en/products/soundingsystemsandradiosondes/radiosondes/Pages/RS41.aspx)
License:	Baseline Surface Radiation Network License 1.0 (BSRN-1.0) (URI: https://bsrn.awi.de/data/conditions-of-data-release/)
Status:	Curation Level: Enhanced curation (URI: https://wiki.pangaea.de/wiki/Curation_levels)
Size:	312725 data points
*/
Date/Time	Altitude [m]	PPPP [hPa]	TTT [°C]	TdTdTd [°C]	dd [deg]	ff [m/s]	pO3 [mPa]
2025-08-01T00:00	491	960	16.6	14.2	110	0	
2025-08-01T00:00	501	958	17.6	13.8	178	1	
2025-08-01T00:00	520	957	17.9	13.4	184	1	
2025-08-01T00:00	540	955	18.2	12.9	185	1	
2025-08-01T00:00	560	952	18.5	12.5	185	1	
2025-08-01T00:00	580	950	19.1	12.3	182	1	
2025-08-01T00:00	600	948	19.2	12.3	177	1	
2025-08-01T00:00	620	946	19.1	12.3	167	1	
2025-08-01T00:00	640	944	18.9	12.4	159	1	
2025-08-01T00:00	660	941	19.0	12.3	152	2	
2025-08-01T00:00	680	939	19.0	12.2	148	2	
2025-08-01T00:00	700	937	19.0	11.9	146	2	
2025-08-01T00:00	720	935	18.8	11.9	147	2	
2025-08-01T00:00	740	933	18.7	11.8	150	2	
2025-08-01T00:00	760	931	18.5	11.6	154	2	
2025-08-01T00:00	780	928	18.4	11.5	161	2	
2025-08-01T00:00	800	926	18.2	11.4	173	2	
2025-08-01T00:00	820	924	18.1	11.3	187	2	
2025-08-01T00:00	840	922	17.9	11.3	204	1	
2025-08-01T00:00	860	920	17.7	11.3	226	1	
2025-08-01T00:00	880	917	17.6	11.2	252	1	
2025-08-01T00:00	900	915	17.5	10.8	273	1	
2025-08-01T00:00	920	913	17.4	10.6	284	2	
2025-08-01T00:00	940	911	17.3	10.4	286	2	
2025-08-01T00:00	960	909	17.2	10.0	283	2	
2025-08-01T00:00	980	907	17.0	10.0	279	3	
2025-08-01T00:00	1000	905	16.8	9.9	275	3	
2025-08-01T00:00	1020	903	16.6	10.2	270	3	
2025-08-01T00:00	1040	901	16.5	10.2	264	3	
2025-08-01T00:00	1060	899	16.4	10.1	260	3	
2025-08-01T00:00	1080	896	16.2	10.0	255	3	
2025-08-01T00:00	1100	894	16.1	10.0	253	3	
2025-08-01T00:00	1120	892	15.9	10.0	252	3	
2025-08-01T00:00	1140	890	15.7	9.9	253	3	
2025-08-01T00:00	1160	888	15.6	9.9	254	3	
2025-08-01T00:00	1180	886	15.4	9.9	254	3	
2025-08-01T00:00	1200	884	15.2	9.9	252	3	
2025-08-01T00:00	1220	882	15.1	9.8	250	3	
2025-08-01T00:00	1240	880	14.9	9.7	246	3	
2025-08-01T00:00	1260	878	14.7	9.7	242	4	
2025-08-01T00:00	1280	875	14.5	9.6	240	4	
2025-08-01T00:00	1300	873	14.3	9.3	237	4	
2025-08-01T00:00	1320	871	14.2	9.2	234	3	
2025-08-01T00:00	1340	869	14.0	9.2	231	3	
2025-08-01T00:00	1360	867	13.8	9.3	230	3	
2025-08-01T00:00	1380	865	13.7	9.1	228	3	
2025-08-01T00:00	1400	863	13.5	9.0	227	3	
2025-08-01T00:00	1420	861	13.3	8.9	227	3	
2025-08-01T00:00	1440	859	13.2	8.8	227	3	
2025-08-01T00:00	1460	857	13.0	8.8	227	3	
2025-08-01T00:00	1480	855	12.7	9.4	228	3	
2025-08-01T00:00	1500	853	12.5	9.7	229	3	
2025-08-01T00:00	1520	851	12.3	9.3	230	3	
2025-08-01T00:00	1540	849	12.2	8.8	232	3	
2025-08-01T00:00	1560	847	12.0	8.9	237	2	
2025-08-01T00:00	1580	845	11.9	8.6	242	3	
2025-08-01T00:00	1600	843	11.7	8.4	247	3	
2025-08-01T00:00	1620	841	11.5	8.1	253	3	
2025-08-01T00:00	1640	839	11.4	7.9	258	3	
2025-08-01T00:00	1660	837	11.2	7.9	260	4	
2025-08-01T00:00	1680	835	11.0	7.8	262	4	
2025-08-01T00:00	1700	833	10.7	7.7	261	4	
2025-08-01T00:00	1720	831	10.6	7.7	260	5	
2025-08-01T00:00	1740	829	10.4	7.7	259	5	
2025-08-01T00:00	1760	827	10.2	7.5	258	5	
2025-08-01T00:00	1780	825	10.1	7.2	257	6	
2025-08-01T00:00	1800	823	10.0	6.8	256	6	
2025-08-01T00:00	1820	821	9.9	6.6	255	7	
2025-08-01T00:00	1840	819	9.8	6.4	254	7	
2025-08-01T00:00	1860	817	9.7	6.5	253	7	
2025-08-01T00:00	1880	815	9.5	6.8	253	7	
2025-08-01T00:00	1900	813	9.4	7.5	253	7	
2025-08-01T00:00	1920	811	9.2	7.9	253	7	
2025-08-01T00:00	1940	809	9.1	8.0	252	7	
2025-08-01T00:00	1960	807	8.9	8.1	251	7	
2025-08-01T00:00	1980	805	8.7	8.1	250	7	
2025-08-01T00:00	2000	803	8.5	7.9	249	7	
2025-08-01T00:00	2020	801	8.4	7.7	248	7	
2025-08-01T00:00	2040	800	8.3	7.7	246	7	
2025-08-01T00:00	2060	798	8.1	7.6	244	7	
2025-08-01T00:00	2080	796	7.9	7.5	242	7	
2025-08-01T00:00	2100	794	7.8	7.5	240	7	
2025-08-01T00:00	2120	792	7.6	7.4	238	8	
2025-08-01T00:00	2140	790	7.4	7.2	237	8	
2025-08-01T00:00	2160	788	7.3	7.1	236	8	
2025-08-01T00:00	2180	786	7.1	6.8	235	8	
2025-08-01T00:00	2200	784	7.1	6.3	233	8	
2025-08-01T00:00	2220	782	6.9	6.2	232	8	
2025-08-01T00:00	2240	780	6.7	6.1	231	9	
2025-08-01T00:00	2260	779	6.6	5.8	231	9	
2025-08-01T00:00	2280	776	6.4	5.7	230	9	
2025-08-01T00:00	2300	775	6.3	5.4	230	9	
2025-08-01T00:00	2320	773	6.1	5.3	230	9	
2025-08-01T00:00	2340	771	5.9	5.2	232	9	
2025-08-01T00:00	2360	769	5.8	5.2	233	9	
2025-08-01T00:00	2380	767	5.6	5.0	234	9	
2025-08-01T00:00	2400	765	5.4	4.7	234	9	
2025-08-01T00:00	2420	763	5.3	4.5	236	9	
2025-08-01T00:00	2440	761	5.2	4.5	237	9	
2025-08-01T00:00	2460	760	5.1	4.2	238	9	
2025-08-01T00:00	2480	758	5.0	4.1	240	9	
2025-08-01T00:00	2500	756	4.9	4.1	241	9	
2025-08-01T00:00	2520	754	4.7	3.9	242	9	
2025-08-01T00:00	2540	752	4.6	3.9	244	9	
2025-08-01T00:00	2560	750	4.4	3.8	245	9	
2025-08-01T00:00	2580	749	4.2	3.7	246	9	
2025-08-01T00:00	2600	747	4.1	3.6	247	9	
2025-08-01T00:00	2620	745	3.9	3.5	249	9	
2025-08-01T00:00	2640	743	3.6	3.6	251	10	
2025-08-01T00:00	2660	741	3.5	3.5	251	10	
2025-08-01T00:00	2680	739	3.3	3.3	250	10	
2025-08-01T00:00	2700	738	3.2	3.2	249	10	
2025-08-01T00:00	2720	736	3.3	2.9	248	10	
2025-08-01T00:00	2740	734	3.3	2.9	247	10	
2025-08-01T00:00	2760	732	3.1	2.7	246	10	
2025-08-01T00:00	2780	730	3.2	1.5	245	10	
2025-08-01T00:00	2800	729	3.2	1.4	244	10	
2025-08-01T00:00	2820	727	2.9	2.3	244	10	
2025-08-01T00:00	2840	725	2.7	1.7	243	10	
2025-08-01T00:00	2860	723	2.6	1.5	242	10	
2025-08-01T00:00	2880	721	2.5	1.2	241	10	
2025-08-01T00:00	2900	719	2.4	0.9	240	10	
2025-08-01T00:00	2920	718	2.2	1.1	239	9	
2025-08-01T00:00	2940	716	2.2	0.3	238	9	
2025-08-01T00:00	2960	714	2.1	0.2	238	8	
2025-08-01T00:00	2980	712	2.1	-0.4	239	8	
2025-08-01T00:00	3000	711	2.4	-2.2	242	7	
2025-08-01T00:00	3020	709	3.1	-3.3	247	7	
2025-08-01T00:00	3040	707	3.0	-3.4	253	6	
2025-08-01T00:00	3060	706	3.1	-5.6	261	6	
2025-08-01T00:00	3080	704	3.6	-15.1	266	6	
2025-08-01T00:00	3100	702	4.3	-21.0	267	6	
2025-08-01T00:00	3120	700	4.5	-19.3	268	6	
2025-08-01T00:00	3140	699	4.4	-17.9	267	6	
2025-08-01T00:00	3160	697	4.3	-16.5	266	6	
2025-08-01T00:00	3180	695	4.2	-13.2	264	5	
2025-08-01T00:00	3200	694	4.1	-12.7	263	5	
2025-08-01T00:00	3220	692	3.9	-12.3	261	5	
2025-08-01T00:00	3240	690	3.8	-11.3	260	5	
2025-08-01T00:00	3260	688	3.6	-10.8	260	5	
2025-08-01T00:00	3280	687	3.5	-10.6	261	5	
2025-08-01T00:00	3300	685	3.5	-10.9	262	5	
2025-08-01T00:00	3320	683	3.4	-10.7	265	5	
2025-08-01T00:00	3340	682	3.3	-10.4	266	5	
2025-08-01T00:00	3360	680	3.1	-10.1	267	5	
2025-08-01T00:00	3380	678	2.9	-9.5	268	5	
2025-08-01T00:00	3400	677	2.7	-8.3	267	5	
2025-08-01T00:00	3420	675	2.5	-7.8	266	5	
2025-08-01T00:00	3440	673	2.3	-7.7	264	5	
2025-08-01T00:00	3460	672	2.1	-7.4	261	5	
2025-08-01T00:00	3480	670	1.9	-7.2	259	5	
2025-08-01T00:00	3500	668	1.7	-6.9	257	5	
2025-08-01T00:00	3520	667	1.5	-5.0	255	5	
2025-08-01T00:00	3540	665	1.2	-5.0	253	5	
2025-08-01T00:00	3560	663	1.1	-5.1	252	5	
2025-08-01T00:00	3580	662	0.9	-5.1	252	4	
2025-08-01T00:00	3600	660	0.7	-5.3	252	4	
2025-08-01T00:00	3620	658	0.6	-5.3	252	4	
2025-08-01T00:00	3640	657	0.4	-5.3	253	5	
2025-08-01T00:00	3660	655	0.2	-5.3	253	5	
2025-08-01T00:00	3680	653	0.0	-5.3	253	6	
2025-08-01T00:00	3700	652	-0.1	-5.6	254	6	
2025-08-01T00:00	3720	650	-0.2	-5.7	256	6	
2025-08-01T00:00	3740	649	-0.3	-5.9	257	7	
2025-08-01T00:00	3760	647	-0.4	-6.3	258	7	
2025-08-01T00:00	3780	645	-0.6	-6.6	258	7	
2025-08-01T00:00	3800	644	-0.8	-6.7	258	7	
2025-08-01T00:00	3820	642	-0.9	-7.1	257	7	
2025-08-01T00:00	3840	640	-1.1	-7.4	257	7	
2025-08-01T00:00	3860	639	-1.2	-7.5	257	7	
2025-08-01T00:00	3880	637	-1.3	-7.6	259	7	
2025-08-01T00:00	3900	636	-1.5	-7.8	262	7	
2025-08-01T00:00	3920	634	-1.7	-7.9	264	7	
2025-08-01T00:00	3940	633	-1.8	-8.0	266	7	
2025-08-01T00:00	3960	631	-2.0	-8.0	267	7	
2025-08-01T00:00	3980	629	-2.2	-8.0	266	7	
2025-08-01T00:00	4000	628	-2.4	-8.1	266	7	
2025-08-01T00:00	4020	626	-2.6	-8.1	266	7	
2025-08-01T00:00	4040	625	-2.7	-8.3	265	7	
2025-08-01T00:00	4060	623	-2.9	-8.2	265	7	
2025-08-01T00:00	4080	622	-3.1	-8.4	266	7	
2025-08-01T00:00	4100	620	-3.2	-8.7	266	7	
2025-08-01T00:00	4120	618	-3.4	-8.9	267	8	
2025-08-01T00:00	4140	617	-3.5	-9.0	267	8	
2025-08-01T00:00	4160	615	-3.7	-9.1	267	8	
2025-08-01T00:00	4180	614	-3.9	-9.1	266	8	
2025-08-01T00:00	4200	612	-4.1	-9.2	265	7	
2025-08-01T00:00	4220	611	-4.2	-9.2	264	7	
2025-08-01T00:00	4240	609	-4.4	-9.2	262	7	
2025-08-01T00:00	4260	607	-4.6	-9.2	261	7	
2025-08-01T00:00	4280	606	-4.8	-9.3	261	7	
2025-08-01T00:00	4300	605	-4.9	-9.4	261	7	
2025-08-01T00:00	4320	603	-5.1	-9.5	262	7	
2025-08-01T00:00	4340	601	-5.3	-9.9	263	8	
2025-08-01T00:00	4360	600	-5.4	-10.0	264	8	
2025-08-01T00:00	4380	598	-5.6	-9.7	265	8	
2025-08-01T00:00	4400	597	-5.8	-9.6	267	9	
2025-08-01T00:00	4420	595	-5.9	-9.8	268	9	
2025-08-01T00:00	4440	594	-6.1	-9.9	270	9	
2025-08-01T00:00	4460	592	-6.3	-9.9	272	9	
2025-08-01T00:00	4480	591	-6.4	-9.6	274	9	
2025-08-01T00:00	4500	589	-6.6	-9.5	275	9	
2025-08-01T00:00	4520	588	-6.7	-9.7	275	9	
2025-08-01T00:00	4540	586	-6.9	-9.7	275	9	
2025-08-01T00:00	4560	585	-7.1	-9.7	274	9	
2025-08-01T00:00	4580	583	-7.2	-9.6	274	9	
2025-08-01T00:00	4600	582	-7.4	-9.7	274	9	
2025-08-01T00:00	4620	580	-7.6	-9.7	275	8	
2025-08-01T00:00	4640	579	-7.8	-9.7	277	8	
2025-08-01T00:00	4660	577	-8.0	-9.6	279	8	
2025-08-01T00:00	4680	576	-8.1	-9.5	282	8	
2025-08-01T00:00	4700	574	-8.2	-9.7	283	8	
2025-08-01T00:00	4720	573	-8.4	-10.2	283	8	
2025-08-01T00:00	4740	571	-8.5	-10.0	283	8	
2025-08-01T00:00	4760	570	-8.7	-10.1	281	9	
2025-08-01T00:00	4780	568	-8.8	-10.4	280	9	
2025-08-01T00:00	4800	567	-8.9	-10.8	277	9	
2025-08-01T00:00	4820	566	-9.0	-11.0	275	9	
2025-08-01T00:00	4840	564	-9.1	-11.8	274	9	
2025-08-01T00:00	4860	563	-9.2	-12.7	273	9	
2025-08-01T00:00	4880	561	-9.3	-12.9	273	9	
2025-08-01T00:00	4900	560	-9.5	-12.2	273	9	
2025-08-01T00:00	4920	558	-9.6	-12.1	274	10	
2025-08-01T00:00	4940	557	-9.7	-12.5	276	10	
2025-08-01T00:00	4960	555	-9.8	-12.3	276	10	
2025-08-01T00:00	4980	554	-9.9	-12.4	277	10	
2025-08-01T00:00	5000	552	-10.0	-12.3	276	10	
2025-08-01T00:00	5020	551	-10.1	-12.3	276	10	
2025-08-01T00:00	5040	550	-10.3	-11.7	275	11	
2025-08-01T00:00	5060	548	-10.3	-12.5	275	11	
2025-08-01T00:00	5080	547	-10.3	-14.6	275	12	
2025-08-01T00:00	5100	545	-10.4	-14.7	275	12	
2025-08-01T00:00	5120	544	-10.6	-15.0	276	12	
2025-08-01T00:00	5140	542	-10.7	-15.4	276	12	
2025-08-01T00:00	5160	541	-10.8	-15.8	277	12	
2025-08-01T00:00	5180	540	-10.9	-16.0	277	12	
2025-08-01T00:00	5200	538	-11.0	-16.1	278	12	
2025-08-01T00:00	5220	537	-11.1	-16.5	278	12	
2025-08-01T00:00	5240	536	-11.3	-16.5	279	12	
2025-08-01T00:00	5260	534	-11.4	-16.7	279	12	
2025-08-01T00:00	5280	533	-11.6	-17.2	280	13	
2025-08-01T00:00	5300	531	-11.7	-18.0	281	13	
2025-08-01T00:00	5320	530	-11.7	-18.9	282	13	
2025-08-01T00:00	5340	528	-11.8	-19.0	282	13	
2025-08-01T00:00	5360	527	-11.8	-19.2	282	13	
2025-08-01T00:00	5380	526	-12.0	-17.9	281	13	
2025-08-01T00:00	5400	524	-12.2	-17.8	280	13	
2025-08-01T00:00	5420	523	-12.4	-17.5	280	13	
2025-08-01T00:00	5440	522	-12.6	-17.3	279	13	
2025-08-01T00:00	5460	520	-12.8	-17.0	279	13	
2025-08-01T00:00	5480	519	-13.0	-17.0	279	13	
2025-08-01T00:00	5500	518	-13.2	-17.2	279	13	
2025-08-01T00:00	5520	516	-13.4	-17.3	279	14	
2025-08-01T00:00	5540	515	-13.6	-17.4	279	14	
2025-08-01T00:00	5560	513	-13.7	-17.3	278	14	
2025-08-01T00:00	5580	512	-13.9	-17.5	278	14	
2025-08-01T00:00	5600	511	-14.0	-17.5	278	14	
2025-08-01T00:00	5620	509	-14.2	-17.5	277	14	
2025-08-01T00:00	5640	508	-14.4	-17.7	277	14	
2025-08-01T00:00	5660	507	-14.5	-17.9	276	14	
2025-08-01T00:00	5680	505	-14.7	-18.1	275	14	
2025-08-01T00:00	5700	504	-14.8	-18.4	274	13	
2025-08-01T00:00	5720	503	-14.9	-19.1	273	13	
2025-08-01T00:00	5740	501	-15.0	-19.6	271	13	
2025-08-01T00:00	5760	500	-15.1	-19.8	269	13	
2025-08-01T00:00	5780	499	-15.2	-19.4	268	13	
2025-08-01T00:00	5800	497	-15.4	-19.6	266	13	
2025-08-01T00:00	5820	496	-15.5	-20.0	266	13	
2025-08-01T00:00	5840	495	-15.7	-20.2	265	13	
2025-08-01T00:00	5860	494	-15.7	-21.8	265	13	
2025-08-01T00:00	5880	492	-15.8	-23.1	266	13	
2025-08-01T00:00	5900	491	-15.9	-21.5	266	13	
2025-08-01T00:00	5920	490	-16.1	-19.5	267	13	
2025-08-01T00:00	5940	489	-16.2	-19.8	267	13	
2025-08-01T00:00	5960	487	-16.4	-20.3	268	13	
2025-08-01T00:00	5980	486	-16.5	-20.8	268	13	
2025-08-01T00:00	6000	485	-16.6	-21.3	268	12	
2025-08-01T00:00	6020	483	-16.7	-22.8	268	12	
2025-08-01T00:00	6040	482	-16.8	-22.9	268	12	
2025-08-01T00:00	6060	481	-16.9	-22.6	268	12	
2025-08-01T00:00	6080	479	-17.0	-23.7	267	12	
2025-08-01T00:00	6100	478	-17.1	-24.7	267	12	
2025-08-01T00:00	6120	477	-17.2	-26.2	266	12	
2025-08-01T00:00	6140	476	-17.3	-27.2	266	12	
2025-08-01T00:00	6160	474	-17.4	-28.8	266	12	
2025-08-01T00:00	6180	473	-17.4	-31.5	266	12	
2025-08-01T00:00	6200	472	-17.5	-28.9	266	12	
2025-08-01T00:00	6220	470	-17.6	-24.6	266	12	
2025-08-01T00:00	6240	469	-17.7	-23.9	267	12	
2025-08-01T00:00	6260	468	-17.9	-22.3	267	12	
2025-08-01T00:00	6280	467	-18.1	-20.1	267	12	
2025-08-01T00:00	6300	465	-18.3	-19.9	266	12	
2025-08-01T00:00	6320	464	-18.5	-20.0	266	12	
2025-08-01T00:00	6340	463	-18.7	-19.8	266	12	
2025-08-01T00:00	6360	462	-18.9	-19.7	266	13	
2025-08-01T00:00	6380	460	-19.0	-19.8	266	13	
2025-08-01T00:00	6400	459	-19.2	-20.0	267	13	
2025-08-01T00:00	6420	458	-19.3	-20.6	268	13	
2025-08-01T00:00	6440	457	-19.3	-23.0	269	14	
2025-08-01T00:00	6460	456	-19.5	-24.1	270	14	
2025-08-01T00:00	6480	454	-19.5	-22.2	270	14	
2025-08-01T00:00	6500	453	-19.4	-25.8	270	14	
2025-08-01T00:00	6520	452	-19.4	-27.4	269	14	
2025-08-01T00:00	6540	451	-19.5	-26.7	268	14	
2025-08-01T00:00	6560	449	-19.6	-26.5	268	14	
2025-08-01T00:00	6580	448	-19.7	-24.7	268	14	
2025-08-01T00:00	6600	447	-19.9	-23.3	268	14	
2025-08-01T00:00	6620	446	-20.0	-23.1	268	14	
2025-08-01T00:00	6640	445	-20.2	-22.8	268	14	
2025-08-01T00:00	6660	443	-20.4	-23.5	267	14	
2025-08-01T00:00	6680	442	-20.5	-23.5	267	14	
2025-08-01T00:00	6700	441	-20.7	-23.2	266	14	
2025-08-01T00:00	6720	440	-20.9	-22.9	265	14	
2025-08-01T00:00	6740	439	-21.1	-22.7	265	14	
2025-08-01T00:00	6760	438	-21.2	-22.7	265	14	
2025-08-01T00:00	6780	436	-21.4	-22.9	265	14	
2025-08-01T00:00	6800	435	-21.6	-23.3	266	14	
2025-08-01T00:00	6820	434	-21.7	-23.7	266	14	
2025-08-01T00:00	6840	433	-21.8	-24.0	267	14	
2025-08-01T00:00	6860	432	-22.0	-24.2	267	14	
2025-08-01T00:00	6880	430	-22.1	-24.5	267	14	
2025-08-01T00:00	6900	429	-22.3	-24.6	267	14	
2025-08-01T00:00	6920	428	-22.4	-24.3	266	14	
2025-08-01T00:00	6940	427	-22.5	-24.6	266	14	
2025-08-01T00:00	6960	426	-22.6	-25.3	265	14	
2025-08-01T00:00	6980	425	-22.7	-25.4	265	14	
2025-08-01T00:00	7000	423	-22.9	-25.4	265	14	
2025-08-01T00:00	7020	422	-23.1	-25.5	265	14	
2025-08-01T00:00	7040	421	-23.3	-25.5	265	14	
2025-08-01T00:00	7060	420	-23.5	-25.6	264	14	
2025-08-01T00:00	7080	419	-23.7	-25.5	265	14	
2025-08-01T00:00	7100	418	-23.8	-25.6	265	14	
2025-08-01T00:00	7120	417	-24.0	-25.5	265	14	
2025-08-01T00:00	7140	415	-24.3	-25.7	266	14	
2025-08-01T00:00	7160	414	-24.5	-25.7	267	15	
2025-08-01T00:00	7180	413	-24.7	-25.8	268	15	
2025-08-01T00:00	7200	412	-24.8	-25.8	269	15	
2025-08-01T00:00	7220	411	-25.0	-26.0	269	15	
2025-08-01T00:00	7240	410	-25.2	-26.1	269	15	
2025-08-01T00:00	7260	409	-25.4	-26.0	269	15	
2025-08-01T00:00	7280	407	-25.6	-25.9	268	16	
2025-08-01T00:00	7300	406	-25.8	-26.0	268	16	
2025-08-01T00:00	7320	405	-26.0	-26.1	267	16	
2025-08-01T00:00	7340	404	-26.2	-26.4	267	16	
2025-08-01T00:00	7360	403	-26.3	-26.4	266	17	
2025-08-01T00:00	7380	402	-26.6	-26.6	266	17	
2025-08-01T00:00	7400	401	-26.7	-26.8	265	17	
2025-08-01T00:00	7420	400	-26.7	-28.1	264	17	
2025-08-01T00:00	7440	399	-26.4	-29.4	264	17	
2025-08-01T00:00	7460	398	-26.5	-29.4	263	17	
2025-08-01T00:00	7480	396	-26.7	-33.0	263	17	
2025-08-01T00:00	7500	395	-26.6	-34.3	263	17	
2025-08-01T00:00	7520	394	-26.5	-31.1	263	17	
2025-08-01T00:00	7540	393	-26.6	-27.8	263	17	
2025-08-01T00:00	7560	392	-26.7	-27.6	262	17	
2025-08-01T00:00	7580	391	-26.9	-28.1	262	17	
2025-08-01T00:00	7600	390	-27.1	-28.1	262	17	
2025-08-01T00:00	7620	389	-27.2	-28.8	262	17	
2025-08-01T00:00	7640	388	-27.4	-29.9	262	17	
2025-08-01T00:00	7660	387	-27.6	-30.1	261	17	
2025-08-01T00:00	7680	386	-27.7	-29.7	261	17	
2025-08-01T00:00	7700	384	-27.9	-30.0	261	17	
2025-08-01T00:00	7720	383	-28.1	-30.5	261	17	
2025-08-01T00:00	7740	382	-28.2	-30.4	261	17	
2025-08-01T00:00	7760	381	-28.3	-29.2	262	17	
2025-08-01T00:00	7780	380	-28.5	-30.1	262	17	
2025-08-01T00:00	7800	379	-28.6	-30.1	263	17	
2025-08-01T00:00	7820	378	-28.8	-30.2	263	18	
2025-08-01T00:00	7840	377	-29.0	-30.5	263	18	
2025-08-01T00:00	7860	376	-29.1	-30.6	263	18	
2025-08-01T00:00	7880	375	-29.2	-31.0	262	18	
2025-08-01T00:00	7900	374	-29.3	-33.4	261	18	
2025-08-01T00:00	7920	373	-29.4	-35.0	260	19	
2025-08-01T00:00	7940	372	-29.6	-35.2	259	19	
2025-08-01T00:00	7960	371	-29.7	-36.2	259	19	
2025-08-01T00:00	7980	370	-29.9	-36.9	258	19	
2025-08-01T00:00	8000	369	-30.0	-36.3	258	19	
2025-08-01T00:00	8020	368	-30.2	-34.9	259	18	
2025-08-01T00:00	8040	367	-30.3	-34.2	259	18	
2025-08-01T00:00	8060	366	-30.5	-33.2	260	18	
2025-08-01T00:00	8080	365	-30.7	-32.9	260	18	
2025-08-01T00:00	8100	363	-30.8	-33.0	260	18	
2025-08-01T00:00	8120	363	-31.0	-33.7	260	18	
2025-08-01T00:00	8140	362	-31.1	-34.2	260	19	
2025-08-01T00:00	8160	361	-31.3	-33.8	260	19	
2025-08-01T00:00	8180	359	-31.5	-33.5	259	19	
2025-08-01T00:00	8200	358	-31.6	-33.8	258	19	
2025-08-01T00:00	8220	357	-31.8	-34.0	257	19	
2025-08-01T00:00	8240	356	-32.0	-33.8	256	20	
2025-08-01T00:00	8260	355	-32.2	-34.1	255	20	
2025-08-01T00:00	8280	354	-32.2	-37.6	255	20	
2025-08-01T00:00	8300	353	-32.3	-38.5	254	20	
2025-08-01T00:00	8320	352	-32.4	-37.9	254	20	
2025-08-01T00:00	8340	351	-32.5	-40.7	253	21	
2025-08-01T00:00	8360	350	-32.5	-43.6	253	21	
2025-08-01T00:00	8380	349	-32.7	-43.0	253	21	
2025-08-01T00:00	8400	348	-32.8	-44.3	253	21	
2025-08-01T00:00	8420	347	-32.9	-46.3	253	21	
2025-08-01T00:00	8440	346	-33.0	-46.5	253	21	
2025-08-01T00:00	8460	345	-33.1	-46.3	253	21	
2025-08-01T00:00	8480	344	-33.2	-46.6	253	21	
2025-08-01T00:00	8500	344	-33.4	-46.7	254	21	
2025-08-01T00:00	8520	343	-33.5	-46.7	254	21	
2025-08-01T00:00	8540	342	-33.6	-46.4	254	21	
2025-08-01T00:00	8560	341	-33.8	-41.8	253	21	
2025-08-01T00:00	8580	340	-34.0	-39.0	253	21	
2025-08-01T00:00	8600	339	-34.2	-40.8	252	21	
2025-08-01T00:00	8620	338	-34.4	-43.2	251	21	
2025-08-01T00:00	8640	337	-34.5	-44.5	250	21	
2025-08-01T00:00	8660	336	-34.7	-44.3	249	21	
2025-08-01T00:00	8680	335	-34.8	-45.2	248	22	
2025-08-01T00:00	8700	334	-34.8	-46.1	247	22	
2025-08-01T00:00	8720	333	-34.8	-46.6	246	22	
2025-08-01T00:00	8740	332	-34.9	-45.7	245	22	
2025-08-01T00:00	8760	331	-35.0	-44.8	245	22	
2025-08-01T00:00	8780	330	-35.2	-44.6	244	22	
2025-08-01T00:00	8800	329	-35.3	-43.6	244	22	
2025-08-01T00:00	8820	328	-35.5	-43.4	244	22	
2025-08-01T00:00	8840	327	-35.5	-46.9	244	22	
2025-08-01T00:00	8860	326	-35.6	-48.7	244	22	
2025-08-01T00:00	8880	325	-35.7	-48.3	245	22	
2025-08-01T00:00	8900	324	-35.8	-46.7	245	22	
2025-08-01T00:00	8920	323	-36.0	-45.5	245	22	
2025-08-01T00:00	8940	323	-36.2	-44.0	246	23	
2025-08-01T00:00	8960	322	-36.3	-43.8	246	23	
2025-08-01T00:00	8980	321	-36.4	-45.0	247	23	
2025-08-01T00:00	9000	320	-36.6	-46.0	247	23	
2025-08-01T00:00	9020	319	-36.6	-48.0	247	23	
2025-08-01T00:00	9040	318	-36.7	-47.7	247	23	
2025-08-01T00:00	9060	317	-36.8	-48.6	247	23	
2025-08-01T00:00	9080	316	-37.0	-51.1	248	24	
2025-08-01T00:00	9100	315	-37.2	-53.1	248	24	
2025-08-01T00:00	9120	314	-37.3	-53.4	248	24	
2025-08-01T00:00	9140	313	-37.5	-50.7	249	24	
2025-08-01T00:00	9160	312	-37.6	-46.4	249	24	
2025-08-01T00:00	9180	312	-37.8	-47.1	250	24	
2025-08-01T00:00	9200	311	-38.0	-47.2	250	24	
2025-08-01T00:00	9220	310	-38.2	-46.4	250	24	
2025-08-01T00:00	9240	309	-38.4	-46.7	250	24	
2025-08-01T00:00	9260	308	-38.6	-47.1	250	24	
2025-08-01T00:00	9280	307	-38.8	-47.5	250	24	
2025-08-01T00:00	9300	306	-38.9	-47.2	250	24	
2025-08-01T00:00	9320	305	-39.1	-46.5	250	24	
2025-08-01T00:00	9340	304	-39.2	-45.5	250	24	
2025-08-01T00:00	9360	303	-39.4	-45.5	250	23	
2025-08-01T00:00	9380	302	-39.6	-46.0	250	23	
2025-08-01T00:00	9400	302	-39.8	-46.2	250	23	
2025-08-01T00:00	9420	301	-40.0	-45.9	250	23	
2025-08-01T00:00	9440	300	-40.2	-45.7	250	23	
2025-08-01T00:00	9460	299	-40.4	-45.8	250	23	
2025-08-01T00:00	9480	298	-40.6	-45.7	250	23	
2025-08-01T00:00	9500	297	-40.7	-45.6	250	23	
2025-08-01T00:00	9520	296	-40.9	-45.9	250	23	
2025-08-01T00:00	9540	295	-41.1	-46.4	250	23	
2025-08-01T00:00	9560	295	-41.3	-46.3	250	23	
2025-08-01T00:00	9580	294	-41.5	-46.3	250	23	
2025-08-01T00:00	9600	293	-41.6	-46.4	249	24	
2025-08-01T00:00	9620	292	-41.8	-46.5	249	24	
2025-08-01T00:00	9640	291	-42.0	-46.5	248	24	
2025-08-01T00:00	9660	290	-42.2	-46.6	248	24	
2025-08-01T00:00	9680	290	-42.3	-46.8	248	24	
2025-08-01T00:00	9700	289	-42.5	-46.9	248	24	
2025-08-01T00:00	9720	288	-42.7	-46.8	249	24	
2025-08-01T00:00	9740	287	-42.9	-46.6	250	24	
2025-08-01T00:00	9760	286	-43.0	-46.5	251	25	
2025-08-01T00:00	9780	285	-43.2	-46.6	252	25	
2025-08-01T00:00	9800	284	-43.3	-46.9	252	25	
2025-08-01T00:00	9820	284	-43.4	-46.9	253	25	
2025-08-01T00:00	9840	283	-43.6	-47.0	253	25	
2025-08-01T00:00	9860	282	-43.8	-46.9	254	25	
2025-08-01T00:00	9880	281	-43.9	-47.0	254	25	
2025-08-01T00:00	9900	280	-44.1	-47.1	254	25	
2025-08-01T00:00	9920	279	-44.2	-47.7	254	25	
2025-08-01T00:00	9940	279	-44.2	-48.9	254	25	
2025-08-01T00:00	9960	278	-44.2	-50.0	254	25	
2025-08-01T00:00	9980	277	-44.3	-50.4	254	25	
2025-08-01T00:00	10000	276	-44.3	-50.4	255	26	
2025-08-01T00:00	10018	275	-44.4	-50.4	255	26	
2025-08-01T00:00	10050	274	-44.6	-50.5	256	26	
2025-08-01T00:00	10100	272	-45.0	-50.5	256	27	
2025-08-01T00:00	10150	270	-45.4	-50.7	255	27	
2025-08-01T00:00	10200	268	-45.8	-50.9	253	26	
2025-08-01T00:00	10250	266	-46.0	-51.7	253	26	
2025-08-01T00:00	10300	264	-46.3	-52.4	254	27	
2025-08-01T00:00	10350	262	-46.6	-51.8	255	27	
2025-08-01T00:00	10400	260	-47.0	-51.3	254	27	
2025-08-01T00:00	10450	258	-47.4	-52.7	253	27	
2025-08-01T00:00	10500	256	-47.8	-51.9	253	28	
2025-08-01T00:00	10550	254	-48.3	-51.8	252	28	
2025-08-01T00:00	10600	252	-48.7	-52.7	252	27	
2025-08-01T00:00	10650	250	-49.1	-53.6	252	27	
2025-08-01T00:00	10700	248	-49.4	-54.5	252	27	
2025-08-01T00:00	10750	246	-49.8	-55.5	253	28	
2025-08-01T00:00	10800	245	-50.1	-55.9	253	28	
2025-08-01T00:00	10850	243	-50.5	-55.5	253	28	
2025-08-01T00:00	10900	241	-51.0	-55.4	253	28	
2025-08-01T00:00	10950	239	-51.4	-55.8	254	28	
2025-08-01T00:00	11000	237	-51.5	-56.9	254	28	
2025-08-01T00:00	11050	235	-51.7	-58.9	254	28	
2025-08-01T00:00	11100	234	-51.7	-60.3	254	28	
2025-08-01T00:00	11150	232	-52.0	-59.8	254	28	
2025-08-01T00:00	11200	230	-52.4	-59.7	255	29	
2025-08-01T00:00	11250	228	-52.6	-60.4	256	29	
2025-08-01T00:00	11300	226	-52.6	-61.7	257	29	
2025-08-01T00:00	11350	225	-52.6	-62.2	258	29	
2025-08-01T00:00	11400	223	-52.7	-62.8	260	29	
2025-08-01T00:00	11450	221	-52.6	-63.9	261	29	
2025-08-01T00:00	11500	220	-52.8	-64.1	261	29	
2025-08-01T00:00	11550	218	-53.0	-64.5	262	29	
2025-08-01T00:00	11600	216	-52.5	-66.0	263	29	
2025-08-01T00:00	11650	214	-52.2	-66.9	264	27	
2025-08-01T00:00	11700	213	-52.3	-67.1	264	26	
2025-08-01T00:00	11750	211	-52.3	-68.0	263	24	
2025-08-01T00:00	11800	210	-51.3	-70.2	262	22	
2025-08-01T00:00	11850	208	-50.6	-71.3	260	21	
2025-08-01T00:00	11900	206	-50.7	-71.3	257	21	
2025-08-01T00:00	11950	205	-50.5	-71.6	256	21	
2025-08-01T00:00	12000	203	-50.6	-72.2	256	22	
2025-08-01T00:00	12050	202	-50.8	-72.7	255	23	
2025-08-01T00:00	12100	200	-51.1	-72.7	256	24	
2025-08-01T00:00	12150	199	-51.2	-73.1	257	25	
2025-08-01T00:00	12200	197	-50.8	-73.8	259	25	
2025-08-01T00:00	12250	196	-50.3	-74.5	261	26	
2025-08-01T00:00	12300	194	-50.4	-74.7	262	26	
2025-08-01T00:00	12350	193	-50.7	-74.8	263	25	
2025-08-01T00:00	12400	191	-50.9	-74.9	263	25	
2025-08-01T00:00	12450	190	-50.9	-75.2	262	24	
2025-08-01T00:00	12500	188	-50.8	-75.5	264	23	
2025-08-01T00:00	12550	187	-50.9	-75.8	265	23	
2025-08-01T00:00	12600	185	-50.9	-76.1	267	22	
2025-08-01T00:00	12650	184	-50.8	-76.3	266	22	
2025-08-01T00:00	12700	182	-50.9	-76.4	265	21	
2025-08-01T00:00	12750	181	-51.1	-77.0	264	21	
2025-08-01T00:00	12800	180	-51.2	-77.4	265	21	
2025-08-01T00:00	12850	178	-50.9	-78.0	267	20	
2025-08-01T00:00	12900	177	-50.9	-78.4	269	20	
2025-08-01T00:00	12950	176	-51.1	-78.5	270	20	
2025-08-01T00:00	13000	174	-51.0	-78.6	270	20	
2025-08-01T00:00	13050	173	-51.1	-78.7	271	20	
2025-08-01T00:00	13100	172	-50.9	-78.7	272	21	
2025-08-01T00:00	13150	170	-50.8	-78.9	272	21	
2025-08-01T00:00	13200	169	-51.0	-78.9	273	21	
2025-08-01T00:00	13250	168	-51.4	-79.0	273	21	
2025-08-01T00:00	13300	166	-51.7	-79.2	273	21	
2025-08-01T00:00	13350	165	-51.8	-79.3	273	21	
2025-08-01T00:00	13400	164	-51.7	-79.5	272	20	
2025-08-01T00:00	13450	163	-51.4	-79.6	270	20	
2025-08-01T00:00	13500	161	-51.5	-79.8	267	21	
2025-08-01T00:00	13550	160	-51.3	-79.9	266	21	
2025-08-01T00:00	13600	159	-51.4	-79.9	267	22	
2025-08-01T00:00	13650	158	-51.4	-80.1	271	22	
2025-08-01T00:00	13700	156	-51.4	-80.2	275	22	
2025-08-01T00:00	13750	155	-51.5	-80.2	278	22	
2025-08-01T00:00	13800	154	-51.7	-80.3	281	21	
2025-08-01T00:00	13850	153	-52.1	-80.4	283	20	
2025-08-01T00:00	13900	152	-52.4	-80.5	283	19	
2025-08-01T00:00	13950	150	-52.6	-80.7	282	17	
2025-08-01T00:00	14000	149	-52.7	-80.8	280	17	
2025-08-01T00:00	14050	148	-52.5	-80.8	277	16	
2025-08-01T00:00	14100	147	-52.4	-80.8	275	16	
2025-08-01T00:00	14150	146	-52.6	-80.8	273	15	
2025-08-01T00:00	14200	145	-52.6	-81.0	270	15	
2025-08-01T00:00	14250	144	-52.5	-81.0	266	15	
2025-08-01T00:00	14300	143	-52.5	-81.1	264	15	
2025-08-01T00:00	14350	141	-52.9	-81.3	264	16	
2025-08-01T00:00	14400	140	-53.2	-81.5	263	16	
2025-08-01T00:00	14450	139	-53.0	-81.5	262	16	
2025-08-01T00:00	14500	138	-53.0	-81.6	262	16	
2025-08-01T00:00	14550	137	-53.3	-81.6	262	16	
2025-08-01T00:00	14600	136	-53.4	-81.4	263	16	
2025-08-01T00:00	14650	135	-53.0	-81.4	265	16	
2025-08-01T00:00	14700	134	-52.7	-81.5	267	16	
2025-08-01T00:00	14750	133	-52.7	-81.7	270	16	
2025-08-01T00:00	14800	132	-52.9	-81.7	273	16	
2025-08-01T00:00	14850	131	-52.9	-81.6	275	15	
2025-08-01T00:00	14900	130	-52.8	-81.7	276	14	
2025-08-01T00:00	14950	129	-52.8	-81.6	274	12	
2025-08-01T00:00	15000	128	-53.0	-81.8	270	11	
2025-08-01T00:00	15050	127	-52.8	-81.7	264	11	
2025-08-01T00:00	15100	126	-52.7	-81.8	258	12	
2025-08-01T00:00	15150	125	-52.4	-81.9	253	12	
2025-08-01T00:00	15200	124	-52.1	-81.9	251	13	
2025-08-01T00:00	15250	123	-52.2	-82.0	250	14	
2025-08-01T00:00	15300	122	-52.1	-81.8	252	15	
2025-08-01T00:00	15350	121	-52.2	-81.9	254	15	
2025-08-01T00:00	15400	120	-52.3	-81.9	255	16	
2025-08-01T00:00	15450	119	-52.3	-81.9	256	16	
2025-08-01T00:00	15500	118	-52.6	-81.9	258	16	
2025-08-01T00:00	15550	117	-53.0	-82.0	261	16	
2025-08-01T00:00	15600	117	-53.3	-82.1	265	16	
2025-08-01T00:00	15650	116	-53.5	-82.3	270	15	
2025-08-01T00:00	15700	115	-53.4	-82.3	274	14	
2025-08-01T00:00	15750	114	-53.6	-82.4	277	13	
2025-08-01T00:00	15800	113	-53.9	-82.6	280	12	
2025-08-01T00:00	15850	112	-54.3	-82.7	282	11	
2025-08-01T00:00	15900	111	-54.5	-82.8	282	9	
2025-08-01T00:00	15950	110	-54.5	-82.8	279	8	
2025-08-01T00:00	16000	110	-54.7	-83.0	273	7	
2025-08-01T00:00	16050	109	-55.0	-83.1	266	8	
2025-08-01T00:00	16100	108	-55.3	-83.3	260	9	
2025-08-01T00:00	16150	107	-55.5	-83.4	258	10	
2025-08-01T00:00	16200	106	-55.4	-83.4	258	11	
2025-08-01T00:00	16250	105	-55.4	-83.5	259	11	
2025-08-01T00:00	16300	104	-55.4	-83.7	261	11	
2025-08-01T00:00	16350	104	-55.0	-83.7	263	11	
2025-08-01T00:00	16400	103	-54.6	-83.6	266	11	
2025-08-01T00:00	16450	102	-54.5	-83.5	270	11	
2025-08-01T00:00	16500	101	-54.6	-83.4	275	10	
2025-08-01T00:00	16550	100	-54.6	-83.4	278	10	
2025-08-01T00:00	16600	100	-54.8	-83.5	278	10	
2025-08-01T00:00	16650	99	-54.8	-83.5	278	9	
2025-08-01T00:00	16700	98	-55.0	-83.7	280	9	
2025-08-01T00:00	16750	97	-55.0	-83.8	284	9	
2025-08-01T00:00	16800	97	-54.7	-83.9	287	8	
2025-08-01T00:00	16850	96	-54.4	-83.7	289	7	
2025-08-01T00:00	16900	95	-54.5	-83.8	286	6	
2025-08-01T00:00	16950	94	-54.6	-83.7	279	5	
2025-08-01T00:00	17000	94	-54.7	-83.7	270	5	
2025-08-01T00:00	17050	93	-55.0	-83.8	270	5	
2025-08-01T00:00	17100	92	-55.1	-83.9	283	6	
2025-08-01T00:00	17150	91	-54.8	-84.1	301	5	
2025-08-01T00:00	17200	91	-54.5	-84.0	309	4	
2025-08-01T00:00	17250	90	-54.2	-83.8	300	4	
2025-08-01T00:00	17300	89	-54.2	-83.9	279	4	
2025-08-01T00:00	17350	89	-54.0	-83.8	265	5	
2025-08-01T00:00	17400	88	-53.9	-83.9	260	6	
2025-08-01T00:00	17450	87	-53.1	-83.6	256	5	
2025-08-01T00:00	17500	87	-53.1	-83.4	252	5	
2025-08-01T00:00	17550	86	-53.4	-83.5	248	5	
2025-08-01T00:00	17600	85	-53.5	-83.6	245	5	
2025-08-01T00:00	17650	85	-53.1	-83.6	244	6	
2025-08-01T00:00	17700	84	-52.8	-83.6	245	6	
2025-08-01T00:00	17750	83	-52.2	-83.3	243	5	
2025-08-01T00:00	17800	83	-52.3	-83.3	241	6	
2025-08-01T00:00	17850	82	-52.4	-83.2	240	6	
2025-08-01T00:00	17900	81	-52.8	-83.2	243	6	
2025-08-01T00:00	17950	81	-53.3	-83.3	251	6	
2025-08-01T00:00	18000	80	-53.7	-83.5	262	6	
2025-08-01T00:00	18050	80	-54.0	-83.7	277	6	
2025-08-01T00:00	18100	79	-54.0	-83.8	292	5	
2025-08-01T00:00	18150	78	-53.9	-83.8	306	5	
2025-08-01T00:00	18200	78	-54.2	-83.9	316	4	
2025-08-01T00:00	18250	77	-53.9	-83.9	322	3	
2025-08-01T00:00	18300	76	-53.9	-83.8	326	2	
2025-08-01T00:00	18350	76	-54.2	-83.8	322	1	
2025-08-01T00:00	18400	75	-54.6	-84.0	253	1	
2025-08-01T00:00	18450	75	-55.0	-84.1	226	2	
2025-08-01T00:00	18500	74	-55.2	-84.3	233	3	
2025-08-01T00:00	18550	74	-55.3	-84.6	239	3	
2025-08-01T00:00	18600	73	-54.4	-84.4	243	3	
2025-08-01T00:00	18650	72	-53.9	-84.3	256	3	
2025-08-01T00:00	18700	72	-54.1	-84.2	292	2	
2025-08-01T00:00	18750	71	-54.3	-84.2	328	3	
2025-08-01T00:00	18800	71	-54.2	-84.2	349	3	
2025-08-01T00:00	18850	70	-54.0	-84.2	11	3	
2025-08-01T00:00	18900	70	-53.8	-84.1	41	2	
2025-08-01T00:00	18950	69	-54.0	-84.1	81	1	
2025-08-01T00:00	19000	69	-54.3	-84.1	117	1	
2025-08-01T00:00	19050	68	-54.6	-84.2	152	1	
2025-08-01T00:00	19100	68	-54.7	-84.3	199	1	
2025-08-01T00:00	19150	67	-54.8	-84.4	229	2	
2025-08-01T00:00	19200	66	-54.9	-84.5	243	2	
2025-08-01T00:00	19250	66	-54.8	-84.5	249	3	
2025-08-01T00:00	19300	65	-54.7	-84.5	249	2	
2025-08-01T00:00	19350	65	-54.7	-84.5	239	2	
2025-08-01T00:00	19400	64	-54.8	-84.5	212	2	
2025-08-01T00:00	19450	64	-54.8	-84.5	178	2	
2025-08-01T00:00	19500	63	-54.9	-84.5	170	3	
2025-08-01T00:00	19550	63	-54.9	-84.6	182	2	
2025-08-01T00:00	19600	62	-54.8	-84.7	198	2	
2025-08-01T00:00	19650	62	-54.6	-84.6	188	2	
2025-08-01T00:00	19700	61	-54.4	-84.5	166	2	
2025-08-01T00:00	19750	61	-54.4	-84.5	158	3	
2025-08-01T00:00	19800	61	-54.6	-84.5	160	2	
2025-08-01T00:00	19850	60	-54.5	-84.6	174	1	
2025-08-01T00:00	19900	60	-54.2	-84.7	296	1	
2025-08-01T00:00	19950	59	-53.5	-84.4	296	2	
2025-08-01T00:00	20000	59	-53.6	-84.3	302	2	
2025-08-01T00:00	20050	58	-53.7		320	3	
2025-08-01T00:00	20100	58	-53.8		333	3	
2025-08-01T00:00	20150	57	-53.9		339	4	
2025-08-01T00:00	20200	57	-53.9		350	4	
2025-08-01T00:00	20250	56	-53.7		3	5	
2025-08-01T00:00	20300	56	-53.6		9	6	
2025-08-01T00:00	20350	56	-53.4		15	5	
2025-08-01T00:00	20400	55	-53.5		26	5	
2025-08-01T00:00	20450	55	-53.7		44	4	
2025-08-01T00:00	20500	54	-53.9		63	4	
2025-08-01T00:00	20550	54	-53.8		78	4	
2025-08-01T00:00	20600	53	-53.7		84	3	
2025-08-01T00:00	20650	53	-53.3		79	2	
2025-08-01T00:00	20700	53	-53.1		58	2	
2025-08-01T00:00	20750	52	-52.9		41	3	
2025-08-01T00:00	20800	52	-53.0		36	4	
2025-08-01T00:00	20850	51	-52.9		44	4	
2025-08-01T00:00	20900	51	-52.7		65	3	
2025-08-01T00:00	20950	51	-52.4		83	3	
2025-08-01T00:00	21000	50	-52.1		98	3	
2025-08-01T00:00	21050	50	-51.9		116	3	
2025-08-01T00:00	21100	49	-52.0		130	3	
2025-08-01T00:00	21150	49	-52.0		133	3	
2025-08-01T00:00	21200	49	-52.0		118	2	
2025-08-01T00:00	21250	48	-52.1		88	2	
2025-08-01T00:00	21300	48	-52.3		68	3	
2025-08-01T00:00	21350	48	-52.6		63	5	
2025-08-01T00:00	21400	47	-52.8		61	6	
2025-08-01T00:00	21450	47	-53.1		60	7	
2025-08-01T00:00	21500	46	-53.2		60	8	
2025-08-01T00:00	21550	46	-53.2		60	8	
2025-08-01T00:00	21600	46	-53.4		62	8	
2025-08-01T00:00	21650	45	-53.7		65	9	
2025-08-01T00:00	21700	45	-53.8		70	10	
2025-08-01T00:00	21750	45	-53.7		75	11	
2025-08-01T00:00	21800	44	-53.8		80	12	
2025-08-01T00:00	21850	44	-53.6		85	11	
2025-08-01T00:00	21900	44	-53.5		90	11	
2025-08-01T00:00	21950	43	-53.6		96	10	
2025-08-01T00:00	22000	43	-53.7		102	9	
2025-08-01T00:00	22050	43	-53.7		109	8	
2025-08-01T00:00	22100	42	-53.6		112	7	
2025-08-01T00:00	22150	42	-53.3		108	7	
2025-08-01T00:00	22200	42	-53.1		100	8	
2025-08-01T00:00	22250	41	-53.1		90	8	
2025-08-01T00:00	22300	41	-52.8		83	9	
2025-08-01T00:00	22350	41	-52.8		83	10	
2025-08-01T00:00	22400	40	-52.5		90	10	
2025-08-01T00:00	22450	40	-52.6		98	9	
2025-08-01T00:00	22500	40	-52.7		106	9	
2025-08-01T00:00	22550	39	-52.9		112	8	
2025-08-01T00:00	22600	39	-53.0		113	8	
2025-08-01T00:00	22650	39	-52.8		111	7	
2025-08-01T00:00	22700	39	-52.3		112	6	
2025-08-01T00:00	22750	38	-52.0		115	6	
2025-08-01T00:00	22800	38	-52.0		114	6	
2025-08-01T00:00	22850	38	-52.1		111	6	
2025-08-01T00:00	22900	37	-52.0		112	6	
2025-08-01T00:00	22950	37	-52.0		116	5	
2025-08-01T00:00	23000	37	-52.0		120	5	
2025-08-01T00:00	23050	37	-52.3		119	4	
2025-08-01T00:00	23100	36	-52.4		112	4	
2025-08-01T00:00	23150	36	-52.4		102	4	
2025-08-01T00:00	23200	36	-52.4		94	4	
2025-08-01T00:00	23250	35	-52.5		87	4	
2025-08-01T00:00	23300	35	-52.6		82	4	
2025-08-01T00:00	23350	35	-52.6		80	4	
2025-08-01T00:00	23400	35	-52.6		80	4	
2025-08-01T00:00	23450	34	-52.6		81	4	
2025-08-01T00:00	23500	34	-52.4		83	3	
2025-08-01T00:00	23550	34	-52.3		83	4	
2025-08-01T00:00	23600	34	-52.2		78	5	
2025-08-01T00:00	23650	33	-52.3		77	5	
2025-08-01T00:00	23700	33	-52.4		80	6	
2025-08-01T00:00	23750	33	-52.3		84	7	
2025-08-01T00:00	23800	33	-52.0		87	8	
2025-08-01T00:00	23850	32	-51.9		92	8	
2025-08-01T00:00	23900	32	-51.6		99	7	
2025-08-01T00:00	23950	32	-51.6		107	6	
2025-08-01T00:00	24000	32	-51.6		114	5	
2025-08-01T00:00	24050	31	-51.5		123	4	
2025-08-01T00:00	24100	31	-51.2		125	2	
2025-08-01T00:00	24150	31	-51.1		91	2	
2025-08-01T00:00	24200	31	-50.8		60	3	
2025-08-01T00:00	24250	30	-50.6		60	5	
2025-08-01T00:00	24300	30	-50.5		66	7	
2025-08-01T00:00	24350	30	-50.2		71	8	
2025-08-01T00:00	24400	30	-49.9		70	8	
2025-08-01T00:00	24450	29	-49.5		67	8	
2025-08-01T00:00	24500	29	-49.3		68	8	
2025-08-01T00:00	24550	29	-49.2		70	10	
2025-08-01T00:00	24600	29	-48.7		73	11	
2025-08-01T00:00	24650	29	-48.5		78	12	
2025-08-01T00:00	24700	28	-48.7		86	12	
2025-08-01T00:00	24750	28	-48.9		93	13	
2025-08-01T00:00	24800	28	-49.1		101	13	
2025-08-01T00:00	24850	28	-49.3		108	13	
2025-08-01T00:00	24900	27	-49.5		111	12	
2025-08-01T00:00	24950	27	-49.6		110	11	
2025-08-01T00:00	25000	27	-49.2		105	10	
2025-08-01T00:00	25050	27	-49.2		98	10	
2025-08-01T00:00	25100	27	-49.2		91	10	
2025-08-01T00:00	25150	26	-49.3		88	11	
2025-08-01T00:00	25200	26	-48.9		89	11	
2025-08-01T00:00	25250	26	-48.6		94	12	
2025-08-01T00:00	25300	26	-48.6		100	12	
2025-08-01T00:00	25350	26	-48.7		106	11	
2025-08-01T00:00	25400	25	-48.7		110	11	
2025-08-01T00:00	25450	25	-48.3		108	10	
2025-08-01T00:00	25500	25	-48.0		102	9	
2025-08-01T00:00	25550	25	-47.9		96	9	
2025-08-01T00:00	25600	25	-47.9		91	9	
2025-08-01T00:00	25650	25	-47.9		89	9	
2025-08-01T00:00	25700	24	-47.8		91	9	
2025-08-01T00:00	25750	24	-48.0		95	10	
2025-08-01T00:00	25800	24	-48.1		99	11	
2025-08-01T00:00	25850	24	-48.0		103	11	
2025-08-01T00:00	25900	24	-47.9		107	11	
2025-08-01T00:00	25950	23	-48.1		109	10	
2025-08-01T00:00	26000	23	-48.2		106	9	
2025-08-01T00:00	26050	23	-48.2		100	8	
2025-08-01T00:00	26100	23	-48.3		93	7	
2025-08-01T00:00	26150	23	-48.4		86	7	
2025-08-01T00:00	26200	23	-48.3		81	6	
2025-08-01T00:00	26250	22	-48.3		77	6	
2025-08-01T00:00	26300	22	-48.1		75	7	
2025-08-01T00:00	26350	22	-48.0		76	7	
2025-08-01T00:00	26400	22	-48.1		78	8	
2025-08-01T00:00	26450	22	-48.0		79	8	
2025-08-01T00:00	26500	22	-47.9		78	8	
2025-08-01T00:00	26550	21	-48.1		76	9	
2025-08-01T00:00	26600	21	-48.2		77	9	
2025-08-01T00:00	26650	21	-48.2		79	9	
2025-08-01T00:00	26700	21	-48.4		80	9	
2025-08-01T00:00	26750	21	-48.5		82	10	
2025-08-01T00:00	26800	21	-48.2		86	12	
2025-08-01T00:00	26850	20	-48.0		89	13	
2025-08-01T00:00	26900	20	-48.0		91	13	
2025-08-01T00:00	26950	20	-47.9		91	12	
2025-08-01T00:00	27000	20	-47.9		90	12	
2025-08-01T00:00	27050	20	-47.9		90	12	
2025-08-01T00:00	27100	20	-47.9		91	12	
2025-08-01T00:00	27150	20	-47.7		93	13	
2025-08-01T00:00	27200	19	-47.7		96	13	
2025-08-01T00:00	27250	19	-47.7		100	14	
2025-08-01T00:00	27300	19	-47.7		103	15	
2025-08-01T00:00	27350	19	-47.8		106	16	
2025-08-01T00:00	27400	19	-47.7		109	15	
2025-08-01T00:00	27450	19	-47.4		111	14	
2025-08-01T00:00	27500	19	-47.3		111	13	
2025-08-01T00:00	27550	18	-47.4		107	12	
2025-08-01T00:00	27600	18	-47.2		102	11	
2025-08-01T00:00	27650	18	-47.0		99	12	
2025-08-01T00:00	27700	18	-46.5		98	12	
2025-08-01T00:00	27750	18	-46.0		99	12	
2025-08-01T00:00	27800	18	-45.9		100	11	
2025-08-01T00:00	27850	18	-45.8		99	11	
2025-08-01T00:00	27900	17	-45.5		96	10	
2025-08-01T00:00	27950	17	-45.1		95	11	
2025-08-01T00:00	28000	17	-44.8		95	11	
2025-08-01T00:00	28050	17	-44.7		94	11	
2025-08-01T00:00	28100	17	-44.6		89	10	
2025-08-01T00:00	28150	17	-44.6		82	10	
2025-08-01T00:00	28200	17	-44.6		75	11	
2025-08-01T00:00	28250	17	-44.5		69	11	
2025-08-01T00:00	28300	16	-44.6		65	12	
2025-08-01T00:00	28350	16	-44.7		64	13	
2025-08-01T00:00	28400	16	-44.6		67	14	
2025-08-01T00:00	28450	16	-44.5		71	15	
2025-08-01T00:00	28500	16	-44.8		75	16	
2025-08-01T00:00	28550	16	-45.1		80	17	
2025-08-01T00:00	28600	16	-45.3		86	17	
2025-08-01T00:00	28650	16	-45.4		92	17	
2025-08-01T00:00	28700	15	-45.6		95	17	
2025-08-01T00:00	28750	15	-45.7		97	16	
2025-08-01T00:00	28800	15	-45.6		96	14	
2025-08-01T00:00	28850	15	-45.3		94	13	
2025-08-01T00:00	28900	15	-45.3		94	12	
2025-08-01T00:00	28950	15	-45.3		93	11	
2025-08-01T00:00	29000	15	-45.2		94	12	
2025-08-01T00:00	29050	15	-44.9		96	12	
2025-08-01T00:00	29100	15	-44.5		97	13	
2025-08-01T00:00	29150	14	-44.5		95	13	
2025-08-01T00:00	29200	14	-44.4		92	12	
2025-08-01T00:00	29250	14	-44.0		87	11	
2025-08-01T00:00	29300	14	-43.8		82	11	
2025-08-01T00:00	29350	14	-43.7		80	12	
2025-08-01T00:00	29400	14	-43.4		79	13	
2025-08-01T00:00	29450	14	-43.1		80	14	
2025-08-01T00:00	29500	14	-43.0		81	14	
2025-08-01T00:00	29550	14	-43.0		81	15	
2025-08-01T00:00	29600	14	-43.1		83	15	
2025-08-01T00:00	29650	13	-43.2		87	15	
2025-08-01T00:00	29700	13	-43.4		91	14	
2025-08-01T00:00	29750	13	-43.6		94	14	
2025-08-01T00:00	29800	13	-43.8		95	13	
2025-08-01T00:00	29850	13	-43.7		94	13	
2025-08-01T00:00	29900	13	-43.8		92	12	
2025-08-01T00:00	29950	13	-43.7		88	12	
2025-08-01T00:00	30000	13	-43.5		85	12	
2025-08-01T00:00	30050	13	-43.4		84	12	
2025-08-01T00:00	30100	13	-43.4		85	12	
2025-08-01T00:00	30150	12	-43.4		87	12	
2025-08-01T00:00	30200	12	-43.3		88	13	
2025-08-01T00:00	30250	12	-43.1		89	14	
2025-08-01T00:00	30300	12	-42.8		89	15	
2025-08-01T00:00	30350	12	-42.7		88	14	
2025-08-01T00:00	30400	12	-42.6		87	14	
2025-08-01T00:00	30450	12	-42.3		88	13	
2025-08-01T00:00	30500	12	-42.2		90	12	
2025-08-01T00:00	30550	12	-42.3		91	12	
2025-08-01T00:00	30600	12	-42.2		92	12	
2025-08-01T00:00	30650	12	-41.9		91	13	
2025-08-01T00:00	30700	11	-41.8		89	14	
2025-08-01T00:00	30750	11	-41.8		87	15	
2025-08-01T00:00	30800	11	-41.8		87	15	
2025-08-01T00:00	30850	11	-41.8		88	14	
2025-08-01T00:00	30900	11	-42.0		91	12	
2025-08-01T00:00	30950	11	-41.9		94	10	
2025-08-01T00:00	31000	11	-41.8		93	10	
2025-08-01T00:00	31050	11	-41.6		90	12	
2025-08-01T00:00	31100	11	-41.3		87	13	
2025-08-01T00:00	31150	11	-41.1		85	15	
2025-08-01T00:00	31200	11	-41.1		85	16	
2025-08-01T00:00	31250	11	-41.0		86	16	
2025-08-01T00:00	31300	11	-40.9		86	15	
2025-08-01T00:00	31350	10	-40.9		85	14	
2025-08-01T00:00	31400	10	-40.6		84	13	
2025-08-01T00:00	31450	10	-40.3		82	13	
2025-08-01T00:00	31500	10	-40.0		81	14	
2025-08-01T00:00	31550	10	-39.8		81	15	
2025-08-01T00:00	31600	10	-39.5		82	17	
2025-08-01T00:00	31650	10	-39.3		83	18	
2025-08-01T00:00	31700	10	-39.3		84	18	
2025-08-01T00:00	31750	10	-39.4		85	18	
2025-08-01T00:00	31800	10	-39.5		86	18	
2025-08-01T00:00	31850	10	-39.6		86	17	
2025-08-01T00:00	31900	10	-39.7		83	17	
2025-08-01T00:00	31950	10	-39.6		81	17	
2025-08-01T00:00	32000	9	-39.6		80	17	
2025-08-01T00:00	32050	9	-39.6		81	18	
2025-08-01T00:00	32100	9	-39.4		83	18	
2025-08-01T00:00	32150	9	-39.3		85	19	
2025-08-01T00:00	32200	9	-39.2		87	19	
2025-08-01T00:00	32250	9	-38.9		89	19	
2025-08-01T00:00	32300	9	-38.8		91	18	
2025-08-01T00:00	32350	9	-38.4		90	17	
2025-08-01T00:00	32400	9	-38.0		88	17	
2025-08-01T00:00	32450	9	-37.6		88	16	
2025-08-01T00:00	32500	9	-37.3		91	16	
2025-08-01T00:00	32550	9	-37.2		95	16	
2025-08-01T00:00	32600	9	-37.3		96	16	
2025-08-01T00:00	32650	9	-37.4		95	16	
2025-08-01T00:00	32700	9	-37.2		92	15	
2025-08-01T00:00	32750	9	-37.1		88	15	
2025-08-01T00:00	32800	8	-37.1		86	15	
2025-08-01T00:00	32850	8	-37.0		85	15	
2025-08-01T00:00	32900	8	-36.5		84	15	
2025-08-01T00:00	32950	8	-36.4		83	14	
2025-08-01T00:00	33000	8	-36.4		83	14	
2025-08-01T00:00	33050	8	-36.4		83	14	
2025-08-01T00:00	33100	8	-36.3		85	14	
2025-08-01T00:00	33150	8	-36.1		87	15	
2025-08-01T00:00	33200	8	-36.0		90	16	
2025-08-01T00:00	33250	8	-35.9		93	17	
2025-08-01T00:00	33300	8	-36.0		96	17	
2025-08-01T00:00	33350	8	-36.0		98	18	
2025-08-01T00:00	33400	8	-36.1		97	18	
2025-08-01T00:00	33450	8	-36.0		96	18	
2025-08-01T00:00	33500	8	-35.4		95	17	
2025-08-01T00:00	33550	8	-35.0		97	16	
2025-08-01T00:00	33600	8	-35.2		98	16	
2025-08-01T00:00	33650	7	-35.2		99	15	
2025-08-01T00:00	33700	7	-34.6		98	15	
2025-08-01T00:00	33750	7	-34.5		95	14	
2025-08-01T00:00	33800	7	-34.4		92	14	
2025-08-01T00:00	33850	7	-33.8		90	15	
2025-08-01T00:00	33900	7	-33.4		91	16	
2025-08-01T00:00	33950	7	-32.8		92	16	
2025-08-01T00:00	34000	7	-32.0		92	16	
2025-08-01T00:00	34050	7	-31.5		90	16	
2025-08-01T00:00	34100	7	-31.2		87	17	
2025-08-01T00:00	34150	7	-31.1		84	17	
2025-08-01T00:00	34200	7	-31.0		83	17	
2025-08-01T00:00	34250	7	-31.1		82	17	
2025-08-01T00:00	34300	7	-31.1		83	16	
2025-08-01T00:00	34350	7	-31.4		86	15	
2025-08-01T00:00	34400	7	-31.6		90	13	
2025-08-01T00:00	34450	7	-31.9		95	12	
2025-08-01T00:00	34500	7	-32.0		102	12	
2025-08-01T00:00	34550	7	-32.0		106	11	
2025-08-01T00:00	34600	7	-32.1		106	11	
2025-08-01T00:00	34650	6	-32.1		103	11	
2025-08-01T00:00	34700	6	-31.6		98	12	
2025-08-01T00:00	34750	6	-31.2		93	13	
2025-08-01T00:00	34800	6	-31.1		89	14	
2025-08-01T00:00	34850	6	-31.0		88	15	
2025-08-01T00:00	34900	6	-30.9		87	14	
2025-08-01T00:00	34950	6	-30.9		85	14	
2025-08-01T00:00	35000	6	-30.8		84	13	
2025-08-01T00:00	35050	6	-30.6		86	12	
2025-08-01T00:00	35100	6	-30.3		88	12	
2025-08-01T00:00	35150	6	-30.1		88	12	
2025-08-01T00:00	35200	6	-29.9		83	12	
2025-08-01T00:00	35250	6	-29.6		78	12	
2025-08-01T00:00	35300	6	-29.2		77	13	
2025-08-01T00:00	35350	6	-28.9		79	15	
2025-08-01T00:00	35400	6	-28.6		82	17	
2025-08-01T00:00	35450	6	-28.7		84	18	
2025-08-01T00:00	35500	6	-28.7		84	19	
2025-08-01T00:00	35550	6	-28.5		83	19	
2025-08-01T00:00	35600	6	-28.4		82	18	
2025-08-01T00:00	35650	6	-28.4		82	17	
2025-08-01T00:00	35700	6	-28.3		81	15	
2025-08-01T00:00	35750	6	-28.3		81	14	
2025-08-01T00:00	35800	6	-28.2		78	13	
2025-08-01T00:00	35850	5	-28.3		75	13	
2025-08-01T00:00	35900	5	-28.0		73	12	
2025-08-01T00:00	35950	5	-27.6		73	11	
2025-08-01T00:00	36000	5	-27.5		73	10	
2025-08-01T00:00	36050	5	-27.2		73	8	
2025-08-01T00:00	36100	5	-26.9		75	8	
2025-08-01T00:00	36150	5	-26.6		77	9	
2025-08-01T00:00	36200	5	-26.1		77	10	
2025-08-01T00:00	36250	5	-26.0		75	12	
2025-08-01T00:00	36300	5	-26.1		71	14	
2025-08-01T00:00	36350	5	-26.3		67	15	
2025-08-01T00:00	36400	5	-26.2		65	17	
2025-08-01T00:00	36450	5	-26.4		65	18	
2025-08-01T00:00	36500	5	-26.5		66	18	
2025-08-01T12:00	491	958	22.2	11.3	278	2	
2025-08-01T12:00	501	956	21.8	11.5	272	2	
2025-08-01T12:00	520	955	21.5	11.4	269	2	
2025-08-01T12:00	540	952	21.3	11.2	267	3	
2025-08-01T12:00	560	950	21.1	11.1	263	3	
2025-08-01T12:00	580	948	20.9	11.0	259	4	
2025-08-01T12:00	600	946	20.7	10.8	256	4	
2025-08-01T12:00	620	943	20.5	10.7	252	4	
2025-08-01T12:00	640	941	20.3	10.6	250	5	
2025-08-01T12:00	660	939	20.1	10.7	251	5	
2025-08-01T12:00	680	937	19.9	10.7	254	5	
2025-08-01T12:00	700	935	19.7	10.6	256	5	
2025-08-01T12:00	720	933	19.5	10.5	257	5	
2025-08-01T12:00	740	931	19.3	10.5	258	5	
2025-08-01T12:00	760	928	19.1	10.6	258	4	
2025-08-01T12:00	780	926	18.9	10.5	260	4	
2025-08-01T12:00	800	924	18.7	10.6	262	4	
2025-08-01T12:00	820	922	18.5	10.6	263	5	
2025-08-01T12:00	840	920	18.3	10.5	262	5	
2025-08-01T12:00	860	918	18.2	10.5	260	5	
2025-08-01T12:00	880	916	18.0	10.4	257	5	
2025-08-01T12:00	900	913	17.8	10.3	252	5	
2025-08-01T12:00	920	911	17.6	10.3	249	5	
2025-08-01T12:00	940	909	17.4	10.2	245	5	
2025-08-01T12:00	960	907	17.3	10.1	241	5	
2025-08-01T12:00	980	905	17.1	10.1	239	5	
2025-08-01T12:00	1000	903	16.9	10.0	237	5	
2025-08-01T12:00	1020	901	16.7	9.9	236	5	
2025-08-01T12:00	1040	899	16.5	9.9	235	5	
2025-08-01T12:00	1060	897	16.4	9.8	233	5	
2025-08-01T12:00	1080	894	16.2	9.7	229	6	
2025-08-01T12:00	1100	892	16.0	9.7	226	6	
2025-08-01T12:00	1120	890	15.8	9.7	222	6	
2025-08-01T12:00	1140	888	15.6	9.7	221	6	
2025-08-01T12:00	1160	886	15.5	9.7	222	6	
2025-08-01T12:00	1180	884	15.3	9.5	224	6	
2025-08-01T12:00	1200	882	15.1	9.5	229	6	
2025-08-01T12:00	1220	880	14.9	9.5	233	6	
2025-08-01T12:00	1240	878	14.7	9.5	236	6	
2025-08-01T12:00	1260	876	14.6	9.4	237	6	
2025-08-01T12:00	1280	874	14.4	9.4	236	7	
2025-08-01T12:00	1300	872	14.2	9.4	235	7	
2025-08-01T12:00	1320	869	14.0	9.4	233	7	
2025-08-01T12:00	1340	867	13.8	9.3	231	6	
2025-08-01T12:00	1360	865	13.6	9.2	230	6	
2025-08-01T12:00	1380	863	13.4	9.3	228	6	
2025-08-01T12:00	1400	861	13.2	9.2	227	6	
2025-08-01T12:00	1420	859	13.0	9.2	226	6	
2025-08-01T12:00	1440	857	12.8	9.1	228	6	
2025-08-01T12:00	1460	855	12.6	9.1	230	6	
2025-08-01T12:00	1480	853	12.4	9.2	233	7	
2025-08-01T12:00	1500	851	12.2	9.1	235	7	
2025-08-01T12:00	1520	849	12.0	9.1	238	8	
2025-08-01T12:00	1540	847	11.8	9.0	239	8	
2025-08-01T12:00	1560	845	11.6	8.9	240	9	
2025-08-01T12:00	1580	843	11.5	8.5	241	9	
2025-08-01T12:00	1600	841	11.4	8.1	243	9	
2025-08-01T12:00	1620	839	11.4	7.5	245	9	
2025-08-01T12:00	1640	837	11.4	6.7	247	8	
2025-08-01T12:00	1660	835	11.4	6.4	250	8	
2025-08-01T12:00	1680	833	11.2	6.5	253	8	
2025-08-01T12:00	1700	831	11.0	6.4	255	8	
2025-08-01T12:00	1720	829	10.8	6.3	257	8	
2025-08-01T12:00	1740	827	10.7	6.3	258	8	
2025-08-01T12:00	1760	825	10.5	6.2	258	8	
2025-08-01T12:00	1780	823	10.2	6.3	258	8	
2025-08-01T12:00	1800	821	10.0	6.5	259	8	
2025-08-01T12:00	1820	819	9.8	6.6	259	8	
2025-08-01T12:00	1840	817	9.5	6.5	260	8	
2025-08-01T12:00	1860	815	9.4	6.3	261	8	
2025-08-01T12:00	1880	813	9.2	6.4	261	8	
2025-08-01T12:00	1900	811	9.0	6.2	262	8	
2025-08-01T12:00	1920	809	8.9	5.9	262	7	
2025-08-01T12:00	1940	807	9.0	5.0	262	7	
2025-08-01T12:00	1960	805	8.9	4.9	261	7	
2025-08-01T12:00	1980	803	8.8	4.7	260	7	
2025-08-01T12:00	2000	801	8.6	4.7	259	7	
2025-08-01T12:00	2020	799	8.3	4.7	260	7	
2025-08-01T12:00	2040	798	8.2	4.6	263	7	
2025-08-01T12:00	2060	796	8.0	4.6	264	8	
2025-08-01T12:00	2080	794	7.8	4.5	263	8	
2025-08-01T12:00	2100	792	7.6	4.5	259	8	
2025-08-01T12:00	2120	790	7.4	4.4	253	8	
2025-08-01T12:00	2140	788	7.2	4.3	249	8	
2025-08-01T12:00	2160	786	7.0	4.3	252	8	
2025-08-01T12:00	2180	784	6.9	4.3	258	8	
2025-08-01T12:00	2200	782	6.7	4.2	263	9	
2025-08-01T12:00	2220	780	6.6	3.3	266	9	
2025-08-01T12:00	2240	779	6.4	4.1	268	9	
2025-08-01T12:00	2260	776	6.2	3.9	268	8	
2025-08-01T12:00	2280	775	6.0	3.9	268	8	
2025-08-01T12:00	2300	773	5.9	3.9	267	8	
2025-08-01T12:00	2320	771	5.7	3.8	266	8	
2025-08-01T12:00	2340	769	5.6	3.7	265	8	
2025-08-01T12:00	2360	767	5.4	2.8	264	9	
2025-08-01T12:00	2380	765	5.3	2.9	264	9	
2025-08-01T12:00	2400	764	5.1	2.9	265	9	
2025-08-01T12:00	2420	762	4.9	3.0	266	9	
2025-08-01T12:00	2440	760	4.7	2.9	266	9	
2025-08-01T12:00	2460	758	4.6	2.7	266	9	
2025-08-01T12:00	2480	756	4.4	1.7	263	8	
2025-08-01T12:00	2500	754	4.2	1.8	259	8	
2025-08-01T12:00	2520	752	4.0	2.1	253	7	
2025-08-01T12:00	2540	750	3.9	3.4	246	7	
2025-08-01T12:00	2560	749	3.7	3.4	240	6	
2025-08-01T12:00	2580	747	3.5	3.4	236	6	
2025-08-01T12:00	2600	745	3.3	3.3	236	6	
2025-08-01T12:00	2620	743	3.2	3.2	237	6	
2025-08-01T12:00	2640	741	3.2	3.0	238	6	
2025-08-01T12:00	2660	739	3.2	2.6	241	7	
2025-08-01T12:00	2680	738	3.4	2.4	243	7	
2025-08-01T12:00	2700	736	3.2	2.4	246	8	
2025-08-01T12:00	2720	734	3.0	2.2	248	9	
2025-08-01T12:00	2740	732	3.0	1.6	249	10	
2025-08-01T12:00	2760	730	3.0	0.9	250	10	
2025-08-01T12:00	2780	729	3.2	0.1	250	10	
2025-08-01T12:00	2800	727	3.2	-0.5	250	10	
2025-08-01T12:00	2820	725	3.1	-0.7	250	9	
2025-08-01T12:00	2840	723	3.0	-0.9	251	8	
2025-08-01T12:00	2860	722	2.8	-1.1	252	8	
2025-08-01T12:00	2880	720	2.7	-1.5	253	7	
2025-08-01T12:00	2900	718	2.6	-0.7	256	7	
2025-08-01T12:00	2920	716	2.3	-0.4	259	6	
2025-08-01T12:00	2940	714	2.1	0.1	259	7	
2025-08-01T12:00	2960	713	1.9	0.1	258	7	
2025-08-01T12:00	2980	711	1.8	0.2	256	7	
2025-08-01T12:00	3000	709	1.7	0.0	252	7	
2025-08-01T12:00	3020	707	1.6	-0.2	249	8	
2025-08-01T12:00	3040	705	1.4	-0.2	247	7	
2025-08-01T12:00	3060	704	1.3	-0.4	246	7	
2025-08-01T12:00	3080	702	1.1	-0.6	248	7	
2025-08-01T12:00	3100	700	1.0	-0.6	252	7	
2025-08-01T12:00	3120	699	0.9	-1.2	257	7	
2025-08-01T12:00	3140	697	0.8	-1.8	260	7	
2025-08-01T12:00	3160	695	0.6	-2.4	262	8	
2025-08-01T12:00	3180	693	0.4	-2.3	263	8	
2025-08-01T12:00	3200	692	0.2	-2.6	263	8	
2025-08-01T12:00	3220	690	0.1	-2.6	263	8	
2025-08-01T12:00	3240	688	0.1	-2.1	263	8	
2025-08-01T12:00	3260	686	0.0	-2.7	263	9	
2025-08-01T12:00	3280	685	0.0	-3.1	264	9	
2025-08-01T12:00	3300	683	-0.2	-3.2	265	9	
2025-08-01T12:00	3320	681	-0.4	-2.8	266	10	
2025-08-01T12:00	3340	680	-0.5	-2.7	267	10	
2025-08-01T12:00	3360	678	-0.6	-2.8	268	10	
2025-08-01T12:00	3380	676	-0.7	-2.6	268	10	
2025-08-01T12:00	3400	675	-0.9	-2.5	269	9	
2025-08-01T12:00	3420	673	-1.0	-2.5	269	9	
2025-08-01T12:00	3440	671	-1.2	-2.5	269	9	
2025-08-01T12:00	3460	670	-1.4	-2.7	269	9	
2025-08-01T12:00	3480	668	-1.5	-2.6	268	9	
2025-08-01T12:00	3500	666	-1.6	-2.8	267	9	
2025-08-01T12:00	3520	664	-1.7	-2.9	266	9	
2025-08-01T12:00	3540	663	-1.9	-2.9	265	9	
2025-08-01T12:00	3560	661	-2.0	-3.0	265	9	
2025-08-01T12:00	3580	660	-2.2	-3.0	266	9	
2025-08-01T12:00	3600	658	-2.4	-3.0	267	9	
2025-08-01T12:00	3620	656	-2.6	-3.2	269	9	
2025-08-01T12:00	3640	655	-2.8	-3.2	271	9	
2025-08-01T12:00	3660	653	-2.9	-3.3	272	9	
2025-08-01T12:00	3680	651	-3.1	-3.3	272	9	
2025-08-01T12:00	3700	650	-3.2	-3.5	270	9	
2025-08-01T12:00	3720	648	-3.4	-3.7	268	9	
2025-08-01T12:00	3740	646	-3.4	-4.0	267	9	
2025-08-01T12:00	3760	645	-3.6	-4.2	265	10	
2025-08-01T12:00	3780	643	-3.8	-4.1	265	10	
2025-08-01T12:00	3800	641	-4.0	-4.3	264	10	
2025-08-01T12:00	3820	640	-4.1	-4.5	264	11	
2025-08-01T12:00	3840	638	-4.3	-4.7	264	11	
2025-08-01T12:00	3860	636	-4.4	-5.2	264	11	
2025-08-01T12:00	3880	635	-4.5	-5.5	262	11	
2025-08-01T12:00	3900	633	-4.5	-6.0	260	11	
2025-08-01T12:00	3920	632	-4.6	-6.2	258	11	
2025-08-01T12:00	3940	630	-4.8	-6.2	256	11	
2025-08-01T12:00	3960	629	-5.0	-6.3	254	11	
2025-08-01T12:00	3980	627	-5.1	-6.7	252	11	
2025-08-01T12:00	4000	625	-5.2	-7.0	252	11	
2025-08-01T12:00	4020	624	-5.4	-7.0	251	11	
2025-08-01T12:00	4040	622	-5.6	-7.1	251	11	
2025-08-01T12:00	4060	621	-5.7	-7.2	250	12	
2025-08-01T12:00	4080	619	-5.9	-7.3	249	12	
2025-08-01T12:00	4100	617	-6.0	-7.7	248	12	
2025-08-01T12:00	4120	616	-6.1	-7.8	247	12	
2025-08-01T12:00	4140	614	-6.3	-8.1	248	11	
2025-08-01T12:00	4160	613	-6.5	-8.2	249	11	
2025-08-01T12:00	4180	611	-6.6	-8.8	251	11	
2025-08-01T12:00	4200	610	-6.7	-9.0	254	11	
2025-08-01T12:00	4220	608	-6.9	-9.2	257	11	
2025-08-01T12:00	4240	607	-7.0	-9.4	259	11	
2025-08-01T12:00	4260	605	-7.2	-9.7	260	11	
2025-08-01T12:00	4280	603	-7.3	-9.8	260	12	
2025-08-01T12:00	4300	602	-7.5	-10.0	259	12	
2025-08-01T12:00	4320	600	-7.7	-10.1	258	12	
2025-08-01T12:00	4340	599	-7.8	-10.5	257	12	
2025-08-01T12:00	4360	597	-7.9	-10.8	257	12	
2025-08-01T12:00	4380	596	-8.1	-11.1	257	12	
2025-08-01T12:00	4400	594	-8.1	-11.9	258	13	
2025-08-01T12:00	4420	593	-8.0	-13.3	259	12	
2025-08-01T12:00	4440	591	-8.0	-14.0	260	12	
2025-08-01T12:00	4460	590	-8.1	-13.3	261	12	
2025-08-01T12:00	4480	588	-8.2	-12.6	262	12	
2025-08-01T12:00	4500	587	-8.1	-13.8	261	11	
2025-08-01T12:00	4520	585	-8.0	-16.3	259	11	
2025-08-01T12:00	4540	583	-8.1	-16.0	257	11	
2025-08-01T12:00	4560	582	-8.2	-15.7	257	11	
2025-08-01T12:00	4580	581	-8.3	-15.4	257	12	
2025-08-01T12:00	4600	579	-8.5	-15.4	259	12	
2025-08-01T12:00	4620	578	-8.7	-14.9	263	12	
2025-08-01T12:00	4640	576	-8.9	-13.3	266	12	
2025-08-01T12:00	4660	575	-9.1	-12.6	269	13	
2025-08-01T12:00	4680	573	-9.2	-12.6	271	13	
2025-08-01T12:00	4700	572	-9.3	-13.0	272	13	
2025-08-01T12:00	4720	570	-9.4	-13.3	274	14	
2025-08-01T12:00	4740	569	-9.5	-13.9	275	14	
2025-08-01T12:00	4760	567	-9.7	-14.2	276	14	
2025-08-01T12:00	4780	566	-9.8	-14.9	277	14	
2025-08-01T12:00	4800	564	-10.0	-15.2	276	14	
2025-08-01T12:00	4820	563	-10.2	-15.1	275	14	
2025-08-01T12:00	4840	561	-10.4	-14.9	272	14	
2025-08-01T12:00	4860	560	-10.3	-19.6	270	14	
2025-08-01T12:00	4880	559	-10.1	-26.1	268	14	
2025-08-01T12:00	4900	557	-10.2	-27.0	266	13	
2025-08-01T12:00	4920	556	-10.3	-27.7	265	13	
2025-08-01T12:00	4940	554	-10.4	-27.7	266	13	
2025-08-01T12:00	4960	553	-10.6	-29.1	268	13	
2025-08-01T12:00	4980	551	-10.6	-33.7	270	13	
2025-08-01T12:00	5000	550	-10.7	-41.1	272	13	
2025-08-01T12:00	5020	548	-10.7	-42.6	273	13	
2025-08-01T12:00	5040	547	-10.9	-42.2	273	13	
2025-08-01T12:00	5060	546	-11.0	-42.0	274	13	
2025-08-01T12:00	5080	544	-11.1	-41.8	273	13	
2025-08-01T12:00	5100	543	-11.3	-41.3	273	13	
2025-08-01T12:00	5120	541	-11.4	-41.6	274	13	
2025-08-01T12:00	5140	540	-11.4	-42.5	275	13	
2025-08-01T12:00	5160	538	-11.5	-41.9	276	14	
2025-08-01T12:00	5180	537	-11.6	-41.2	276	14	
2025-08-01T12:00	5200	536	-11.7	-38.2	277	14	
2025-08-01T12:00	5220	534	-11.7	-31.4	277	14	
2025-08-01T12:00	5240	533	-11.8	-26.4	278	14	
2025-08-01T12:00	5260	531	-12.0	-24.3	278	14	
2025-08-01T12:00	5280	530	-12.2	-24.2	278	13	
2025-08-01T12:00	5300	529	-12.4	-24.3	278	13	
2025-08-01T12:00	5320	527	-12.6	-24.3	277	13	
2025-08-01T12:00	5340	526	-12.7	-24.8	277	13	
2025-08-01T12:00	5360	525	-12.8	-25.4	277	13	
2025-08-01T12:00	5380	523	-13.0	-25.4	277	14	
2025-08-01T12:00	5400	522	-13.1	-26.6	279	14	
2025-08-01T12:00	5420	520	-13.3	-27.5	280	14	
2025-08-01T12:00	5440	519	-13.4	-27.9	282	15	
2025-08-01T12:00	5460	518	-13.5	-27.8	283	15	
2025-08-01T12:00	5480	516	-13.6	-27.4	285	15	
2025-08-01T12:00	5500	515	-13.7	-28.4	287	15	
2025-08-01T12:00	5520	514	-13.7	-29.4	289	15	
2025-08-01T12:00	5540	512	-13.9	-30.9	290	15	
2025-08-01T12:00	5560	511	-14.0	-32.3	291	15	
2025-08-01T12:00	5580	510	-14.0	-32.8	291	14	
2025-08-01T12:00	5600	508	-14.2	-24.8	291	14	
2025-08-01T12:00	5620	507	-14.4	-20.4	291	15	
2025-08-01T12:00	5640	506	-14.6	-19.6	290	15	
2025-08-01T12:00	5660	504	-14.8	-19.6	290	15	
2025-08-01T12:00	5680	503	-15.0	-19.4	289	15	
2025-08-01T12:00	5700	502	-15.1	-19.1	289	15	
2025-08-01T12:00	5720	500	-15.4	-18.9	288	15	
2025-08-01T12:00	5740	499	-15.5	-19.1	288	15	
2025-08-01T12:00	5760	498	-15.7	-19.2	288	15	
2025-08-01T12:00	5780	496	-15.9	-19.3	288	15	
2025-08-01T12:00	5800	495	-16.1	-19.6	288	15	
2025-08-01T12:00	5820	494	-16.2	-20.1	288	15	
2025-08-01T12:00	5840	492	-16.4	-19.2	288	15	
2025-08-01T12:00	5860	491	-16.6	-18.6	288	15	
2025-08-01T12:00	5880	490	-16.8	-18.7	287	14	
2025-08-01T12:00	5900	488	-16.9	-19.3	287	14	
2025-08-01T12:00	5920	487	-17.0	-20.2	286	14	
2025-08-01T12:00	5940	486	-17.1	-20.5	285	14	
2025-08-01T12:00	5960	485	-17.2	-20.8	285	15	
2025-08-01T12:00	5980	483	-17.3	-21.4	285	15	
2025-08-01T12:00	6000	482	-17.4	-22.0	285	15	
2025-08-01T12:00	6020	481	-17.5	-22.4	285	15	
2025-08-01T12:00	6040	479	-17.7	-22.5	285	15	
2025-08-01T12:00	6060	478	-17.8	-23.0	285	15	
2025-08-01T12:00	6080	477	-18.0	-23.2	285	15	
2025-08-01T12:00	6100	476	-18.1	-23.3	285	15	
2025-08-01T12:00	6120	474	-18.2	-23.7	286	15	
2025-08-01T12:00	6140	473	-18.3	-24.3	286	15	
2025-08-01T12:00	6160	472	-18.5	-24.3	287	14	
2025-08-01T12:00	6180	470	-18.6	-24.6	287	14	
2025-08-01T12:00	6200	469	-18.7	-25.4	287	14	
2025-08-01T12:00	6220	468	-18.9	-25.7	287	14	
2025-08-01T12:00	6240	467	-19.0	-25.8	287	15	
2025-08-01T12:00	6260	466	-19.2	-25.8	287	15	
2025-08-01T12:00	6280	464	-19.4	-25.9	286	15	
2025-08-01T12:00	6300	463	-19.6	-26.0	286	15	
2025-08-01T12:00	6320	462	-19.8	-26.5	287	15	
2025-08-01T12:00	6340	460	-20.0	-26.9	287	15	
2025-08-01T12:00	6360	459	-20.1	-27.1	287	15	
2025-08-01T12:00	6380	458	-20.2	-28.2	287	16	
2025-08-01T12:00	6400	457	-20.4	-29.0	287	16	
2025-08-01T12:00	6420	455	-20.4	-30.7	287	16	
2025-08-01T12:00	6440	454	-20.5	-31.7	286	16	
2025-08-01T12:00	6460	453	-20.5	-32.9	286	16	
2025-08-01T12:00	6480	452	-20.5	-34.6	286	16	
2025-08-01T12:00	6500	451	-20.5	-37.1	286	16	
2025-08-01T12:00	6520	449	-20.6	-38.2	287	16	
2025-08-01T12:00	6540	448	-20.7	-38.7	288	16	
2025-08-01T12:00	6560	447	-20.8	-39.0	289	16	
2025-08-01T12:00	6580	446	-20.9	-39.0	290	16	
2025-08-01T12:00	6600	445	-21.1	-39.0	292	16	
2025-08-01T12:00	6620	443	-21.3	-39.0	293	16	
2025-08-01T12:00	6640	442	-21.5	-39.2	293	16	
2025-08-01T12:00	6660	441	-21.7	-39.2	294	16	
2025-08-01T12:00	6680	440	-21.8	-39.2	294	16	
2025-08-01T12:00	6700	439	-22.0	-39.3	294	16	
2025-08-01T12:00	6720	437	-22.2	-39.3	295	16	
2025-08-01T12:00	6740	436	-22.4	-39.4	295	16	
2025-08-01T12:00	6760	435	-22.7	-39.4	295	16	
2025-08-01T12:00	6780	434	-22.8	-39.5	296	17	
2025-08-01T12:00	6800	433	-23.0	-39.8	296	17	
2025-08-01T12:00	6820	431	-23.2	-39.7	297	17	
2025-08-01T12:00	6840	430	-23.4	-39.9	297	17	
2025-08-01T12:00	6860	429	-23.5	-40.0	297	17	
2025-08-01T12:00	6880	428	-23.6	-40.3	297	17	
2025-08-01T12:00	6900	427	-23.7	-40.1	297	17	
2025-08-01T12:00	6920	426	-23.9	-39.9	297	17	
2025-08-01T12:00	6940	425	-24.1	-39.8	297	17	
2025-08-01T12:00	6960	423	-24.3	-39.9	296	17	
2025-08-01T12:00	6980	422	-24.4	-40.0	296	18	
2025-08-01T12:00	7000	421	-24.6	-40.1	296	18	
2025-08-01T12:00	7020	420	-24.8	-40.2	295	18	
2025-08-01T12:00	7040	419	-25.0	-40.3	295	18	
2025-08-01T12:00	7060	417	-25.2	-40.5	294	18	
2025-08-01T12:00	7080	416	-25.3	-40.5	294	18	
2025-08-01T12:00	7100	415	-25.5	-40.5	293	19	
2025-08-01T12:00	7120	414	-25.6	-40.7	293	19	
2025-08-01T12:00	7140	413	-25.8	-40.9	292	18	
2025-08-01T12:00	7160	412	-25.9	-41.0	292	18	
2025-08-01T12:00	7180	411	-26.1	-41.3	292	18	
2025-08-01T12:00	7200	410	-26.3	-41.3	292	18	
2025-08-01T12:00	7220	408	-26.5	-41.6	293	19	
2025-08-01T12:00	7240	407	-26.7	-41.8	293	19	
2025-08-01T12:00	7260	406	-26.8	-42.3	294	19	
2025-08-01T12:00	7280	405	-27.0	-42.6	295	19	
2025-08-01T12:00	7300	404	-27.1	-43.0	295	19	
2025-08-01T12:00	7320	403	-27.3	-43.0	296	19	
2025-08-01T12:00	7340	402	-27.5	-41.0	296	18	
2025-08-01T12:00	7360	400	-27.6	-39.8	296	18	
2025-08-01T12:00	7380	400	-27.7	-43.0	296	18	
2025-08-01T12:00	7400	398	-27.9	-44.1	296	18	
2025-08-01T12:00	7420	397	-28.0	-43.0	296	18	
2025-08-01T12:00	7440	396	-28.1	-46.5	297	18	
2025-08-01T12:00	7460	395	-28.2	-47.4	298	18	
2025-08-01T12:00	7480	394	-28.4	-46.7	300	18	
2025-08-01T12:00	7500	393	-28.6	-46.2	301	18	
2025-08-01T12:00	7520	392	-28.7	-45.7	302	18	
2025-08-01T12:00	7540	391	-28.9	-44.9	303	19	
2025-08-01T12:00	7560	389	-29.0	-44.6	303	19	
2025-08-01T12:00	7580	388	-29.1	-44.1	302	18	
2025-08-01T12:00	7600	387	-29.3	-42.8	302	18	
2025-08-01T12:00	7620	386	-29.5	-42.3	300	19	
2025-08-01T12:00	7640	385	-29.7	-40.2	299	19	
2025-08-01T12:00	7660	384	-29.9	-37.2	298	19	
2025-08-01T12:00	7680	383	-30.1	-37.3	297	19	
2025-08-01T12:00	7700	382	-30.2	-37.5	297	19	
2025-08-01T12:00	7720	381	-30.4	-37.1	296	20	
2025-08-01T12:00	7740	380	-30.6	-36.8	296	20	
2025-08-01T12:00	7760	379	-30.8	-38.1	297	20	
2025-08-01T12:00	7780	378	-30.9	-40.5	297	20	
2025-08-01T12:00	7800	377	-31.0	-42.5	297	21	
2025-08-01T12:00	7820	376	-31.2	-44.9	298	21	
2025-08-01T12:00	7840	375	-31.3	-46.9	299	21	
2025-08-01T12:00	7860	373	-31.4	-49.0	299	21	
2025-08-01T12:00	7880	372	-31.4	-50.1	300	21	
2025-08-01T12:00	7900	371	-31.6	-48.6	300	21	
2025-08-01T12:00	7920	370	-31.7	-47.9	300	21	
2025-08-01T12:00	7940	369	-31.9	-47.3	301	21	
2025-08-01T12:00	7960	368	-32.1	-47.1	301	21	
2025-08-01T12:00	7980	367	-32.2	-48.0	301	21	
2025-08-01T12:00	8000	366	-32.4	-48.0	300	21	
2025-08-01T12:00	8020	365	-32.6	-48.0	300	21	
2025-08-01T12:00	8040	364	-32.7	-48.1	300	21	
2025-08-01T12:00	8060	363	-32.9	-48.4	299	21	
2025-08-01T12:00	8080	362	-33.0	-48.6	299	21	
2025-08-01T12:00	8100	361	-33.1	-49.0	299	21	
2025-08-01T12:00	8120	360	-33.3	-49.4	299	21	
2025-08-01T12:00	8140	359	-33.4	-49.6	299	21	
2025-08-01T12:00	8160	358	-33.5	-49.6	299	22	
2025-08-01T12:00	8180	357	-33.6	-49.8	299	22	
2025-08-01T12:00	8200	356	-33.8	-49.8	298	22	
2025-08-01T12:00	8220	355	-33.9	-49.6	298	22	
2025-08-01T12:00	8240	354	-34.1	-50.2	298	23	
2025-08-01T12:00	8260	353	-34.3	-50.9	297	23	
2025-08-01T12:00	8280	352	-34.4	-51.3	297	23	
2025-08-01T12:00	8300	351	-34.4	-50.9	297	23	
2025-08-01T12:00	8320	350	-34.5	-50.1	297	23	
2025-08-01T12:00	8340	349	-34.6	-49.9	297	23	
2025-08-01T12:00	8360	348	-34.7	-49.8	297	23	
2025-08-01T12:00	8380	347	-34.9	-49.8	297	23	
2025-08-01T12:00	8400	346	-35.0	-50.1	297	23	
2025-08-01T12:00	8420	345	-35.1	-50.1	297	23	
2025-08-01T12:00	8440	344	-35.2	-49.9	297	23	
2025-08-01T12:00	8460	343	-35.4	-49.9	297	23	
2025-08-01T12:00	8480	342	-35.5	-49.8	296	23	
2025-08-01T12:00	8500	341	-35.7	-49.8	296	23	
2025-08-01T12:00	8520	340	-35.9	-49.9	296	23	
2025-08-01T12:00	8540	339	-36.0	-50.4	296	22	
2025-08-01T12:00	8560	338	-36.2	-51.2	295	22	
2025-08-01T12:00	8580	337	-36.4	-52.0	295	22	
2025-08-01T12:00	8600	336	-36.6	-53.3	296	22	
2025-08-01T12:00	8620	335	-36.7	-53.4	296	22	
2025-08-01T12:00	8640	334	-36.9	-53.5	296	21	
2025-08-01T12:00	8660	333	-37.1	-53.4	296	21	
2025-08-01T12:00	8680	332	-37.2	-53.2	295	21	
2025-08-01T12:00	8700	331	-37.4	-53.3	295	21	
2025-08-01T12:00	8720	330	-37.6	-52.9	295	21	
2025-08-01T12:00	8740	329	-37.7	-52.8	295	21	
2025-08-01T12:00	8760	328	-37.8	-52.8	294	21	
2025-08-01T12:00	8780	327	-38.0	-52.8	294	21	
2025-08-01T12:00	8800	326	-38.1	-52.8	294	21	
2025-08-01T12:00	8820	325	-38.2	-52.9	293	21	
2025-08-01T12:00	8840	325	-38.4	-53.2	292	20	
2025-08-01T12:00	8860	324	-38.6	-53.4	291	20	
2025-08-01T12:00	8880	323	-38.7	-53.8	291	20	
2025-08-01T12:00	8900	322	-38.9	-54.1	290	20	
2025-08-01T12:00	8920	321	-39.0	-54.5	289	20	
2025-08-01T12:00	8940	320	-39.2	-55.3	289	21	
2025-08-01T12:00	8960	319	-39.2	-56.7	288	21	
2025-08-01T12:00	8980	318	-39.2	-57.3	288	21	
2025-08-01T12:00	9000	317	-39.3	-57.5	288	21	
2025-08-01T12:00	9020	316	-39.5	-57.7	288	21	
2025-08-01T12:00	9040	315	-39.6	-57.9	288	21	
2025-08-01T12:00	9060	314	-39.8	-58.3	288	21	
2025-08-01T12:00	9080	313	-39.9	-58.7	288	21	
2025-08-01T12:00	9100	312	-40.1	-58.8	288	21	
2025-08-01T12:00	9120	312	-40.2	-58.8	288	21	
2025-08-01T12:00	9140	311	-40.4	-58.7	288	21	
2025-08-01T12:00	9160	310	-40.5	-58.8	288	21	
2025-08-01T12:00	9180	309	-40.7	-59.0	288	21	
2025-08-01T12:00	9200	308	-40.9	-58.7	288	21	
2025-08-01T12:00	9220	307	-41.0	-58.7	288	21	
2025-08-01T12:00	9240	306	-41.2	-59.0	288	20	
2025-08-01T12:00	9260	305	-41.4	-59.2	288	20	
2025-08-01T12:00	9280	304	-41.5	-59.1	288	20	
2025-08-01T12:00	9300	303	-41.6	-59.1	288	20	
2025-08-01T12:00	9320	303	-41.8	-59.1	287	20	
2025-08-01T12:00	9340	302	-42.0	-59.3	287	20	
2025-08-01T12:00	9360	301	-42.2	-59.3	286	20	
2025-08-01T12:00	9380	300	-42.3	-59.4	286	20	
2025-08-01T12:00	9400	299	-42.5	-59.4	285	20	
2025-08-01T12:00	9420	298	-42.6	-59.5	285	20	
2025-08-01T12:00	9440	297	-42.7	-59.5	285	19	
2025-08-01T12:00	9460	296	-42.9	-59.6	285	19	
2025-08-01T12:00	9480	295	-43.1	-59.6	285	19	
2025-08-01T12:00	9500	295	-43.2	-59.7	285	19	
2025-08-01T12:00	9520	294	-43.4	-59.8	285	18	
2025-08-01T12:00	9540	293	-43.5	-59.8	285	18	
2025-08-01T12:00	9560	292	-43.6	-59.9	285	18	
2025-08-01T12:00	9580	291	-43.8	-60.0	285	18	
2025-08-01T12:00	9600	290	-44.0	-59.9	285	19	
2025-08-01T12:00	9620	289	-44.1	-60.0	286	19	
2025-08-01T12:00	9640	289	-44.3	-60.1	286	19	
2025-08-01T12:00	9660	288	-44.5	-60.1	287	19	
2025-08-01T12:00	9680	287	-44.6	-60.2	287	19	
2025-08-01T12:00	9700	286	-44.8	-60.3	287	19	
2025-08-01T12:00	9720	285	-45.0	-60.4	288	19	
2025-08-01T12:00	9740	284	-45.2	-60.4	288	19	
2025-08-01T12:00	9760	283	-45.3	-60.4	287	19	
2025-08-01T12:00	9780	282	-45.5	-60.3	287	19	
2025-08-01T12:00	9800	282	-45.7	-60.3	287	19	
2025-08-01T12:00	9820	281	-45.8	-60.3	287	19	
2025-08-01T12:00	9840	280	-46.0	-60.4	286	18	
2025-08-01T12:00	9860	279	-46.1	-60.6	286	18	
2025-08-01T12:00	9880	278	-46.2	-60.7	286	18	
2025-08-01T12:00	9900	277	-46.4	-60.9	285	18	
2025-08-01T12:00	9920	277	-46.5	-61.0	285	18	
2025-08-01T12:00	9940	276	-46.7	-61.1	285	18	
2025-08-01T12:00	9960	275	-46.8	-61.1	285	17	
2025-08-01T12:00	9980	274	-47.0	-61.2	285	17	
2025-08-01T12:00	10000	273	-47.1	-61.2	285	17	
2025-08-01T12:00	10018	273	-47.2	-61.3	285	17	
2025-08-01T12:00	10050	271	-47.4	-61.3	286	17	
2025-08-01T12:00	10100	269	-47.7	-61.5	287	17	
2025-08-01T12:00	10150	267	-48.0	-61.9	288	17	
2025-08-01T12:00	10200	265	-48.3	-62.0	289	18	
2025-08-01T12:00	10250	263	-48.7	-62.3	287	18	
2025-08-01T12:00	10300	261	-49.0	-62.6	283	18	
2025-08-01T12:00	10350	259	-49.3	-62.8	280	17	
2025-08-01T12:00	10400	257	-49.7	-63.0	278	18	
2025-08-01T12:00	10450	255	-50.0	-63.3	276	18	
2025-08-01T12:00	10500	253	-50.3	-63.5	277	18	
2025-08-01T12:00	10550	251	-50.5	-63.7	279	19	
2025-08-01T12:00	10600	249	-50.7	-63.6	281	20	
2025-08-01T12:00	10650	247	-50.9	-63.7	281	21	
2025-08-01T12:00	10700	246	-51.0	-63.7	281	20	
2025-08-01T12:00	10750	244	-50.6	-64.1	281	19	
2025-08-01T12:00	10800	242	-50.5	-64.4	282	18	
2025-08-01T12:00	10850	240	-50.5	-64.8	282	17	
2025-08-01T12:00	10900	238	-50.4	-65.4	279	17	
2025-08-01T12:00	10950	236	-50.2	-66.1	276	17	
2025-08-01T12:00	11000	234	-50.2	-66.4	274	18	
2025-08-01T12:00	11050	233	-50.0	-67.0	273	19	
2025-08-01T12:00	11100	231	-49.7	-68.0	274	19	
2025-08-01T12:00	11150	229	-49.2	-68.3	274	20	
2025-08-01T12:00	11200	227	-48.8	-68.6	272	20	
2025-08-01T12:00	11250	226	-48.9	-68.6	268	21	
2025-08-01T12:00	11300	224	-49.1	-68.5	267	22	
2025-08-01T12:00	11350	222	-49.2	-68.8	268	23	
2025-08-01T12:00	11400	221	-49.3	-69.3	270	23	
2025-08-01T12:00	11450	219	-49.2	-69.8	273	22	
2025-08-01T12:00	11500	217	-49.2	-70.3	276	21	
2025-08-01T12:00	11550	216	-49.1	-70.9	277	20	
2025-08-01T12:00	11600	214	-49.0	-71.6	277	19	
2025-08-01T12:00	11650	212	-49.2	-71.8	276	18	
2025-08-01T12:00	11700	211	-49.6	-71.9	276	17	
2025-08-01T12:00	11750	209	-49.9	-72.1	277	17	
2025-08-01T12:00	11800	208	-50.2	-72.5	276	17	
2025-08-01T12:00	11850	206	-50.2	-73.3	273	17	
2025-08-01T12:00	11900	204	-50.0	-74.2	271	18	
2025-08-01T12:00	11950	203	-49.3	-75.4	269	20	
2025-08-01T12:00	12000	201	-48.8	-75.8	267	22	
2025-08-01T12:00	12050	200	-48.8	-75.9	266	23	
2025-08-01T12:00	12100	198	-48.7	-75.6	269	24	
2025-08-01T12:00	12150	197	-48.5	-75.7	272	24	
2025-08-01T12:00	12200	195	-48.6	-75.8	276	24	
2025-08-01T12:00	12250	194	-48.5	-76.1	281	22	
2025-08-01T12:00	12300	192	-48.0	-76.6	283	19	
2025-08-01T12:00	12350	191	-47.8	-76.9	283	16	
2025-08-01T12:00	12400	189	-47.8	-77.0	282	14	
2025-08-01T12:00	12450	188	-47.6	-77.0	278	12	
2025-08-01T12:00	12500	187	-47.5	-77.1	271	11	
2025-08-01T12:00	12550	185	-47.6	-77.3	264	11	
2025-08-01T12:00	12600	184	-47.9	-77.3	257	11	
2025-08-01T12:00	12650	182	-48.2	-77.4	252	11	
2025-08-01T12:00	12700	181	-48.6	-77.6	250	12	
2025-08-01T12:00	12750	180	-48.9	-77.7	252	12	
2025-08-01T12:00	12800	178	-49.1	-77.9	256	13	
2025-08-01T12:00	12850	177	-49.4	-78.0	260	14	
2025-08-01T12:00	12900	176	-49.4	-78.0	262	14	
2025-08-01T12:00	12950	174	-49.6	-78.2	264	15	
2025-08-01T12:00	13000	173	-49.8	-78.3	266	16	
2025-08-01T12:00	13050	172	-50.1	-78.3	266	17	
2025-08-01T12:00	13100	170	-50.3	-78.5	266	17	
2025-08-01T12:00	13150	169	-50.5	-78.6	266	18	
2025-08-01T12:00	13200	168	-50.5	-78.8	267	17	
2025-08-01T12:00	13250	166	-50.5	-78.9	266	17	
2025-08-01T12:00	13300	165	-50.7	-79.1	264	17	
2025-08-01T12:00	13350	164	-51.1	-79.2	263	17	
2025-08-01T12:00	13400	163	-51.3	-79.4	263	17	
2025-08-01T12:00	13450	161	-51.5	-79.5	262	17	
2025-08-01T12:00	13500	160	-51.6	-79.6	261	17	
2025-08-01T12:00	13550	159	-51.9	-79.7	260	18	
2025-08-01T12:00	13600	158	-52.2	-79.9	259	18	
2025-08-01T12:00	13650	156	-52.4	-80.3	259	19	
2025-08-01T12:00	13700	155	-52.5	-80.5	260	19	
2025-08-01T12:00	13750	154	-52.7	-80.7	261	19	
2025-08-01T12:00	13800	153	-53.0	-80.8	262	19	
2025-08-01T12:00	13850	152	-53.2	-80.9	262	19	
2025-08-01T12:00	13900	150	-53.2	-81.2	265	19	
2025-08-01T12:00	13950	149	-52.6	-81.3	268	20	
2025-08-01T12:00	14000	148	-52.0	-81.2	273	19	
2025-08-01T12:00	14050	147	-51.9	-81.2	277	19	
2025-08-01T12:00	14100	146	-51.5	-81.2	280	18	
2025-08-01T12:00	14150	145	-51.3	-81.2	281	17	
2025-08-01T12:00	14200	144	-51.5	-81.2	282	16	
2025-08-01T12:00	14250	143	-51.7	-81.2	283	15	
2025-08-01T12:00	14300	141	-52.0	-81.3	282	14	
2025-08-01T12:00	14350	140	-51.8	-81.4	277	14	
2025-08-01T12:00	14400	139	-51.8	-81.3	273	14	
2025-08-01T12:00	14450	138	-52.1	-81.4	272	15	
2025-08-01T12:00	14500	137	-52.4	-81.6	271	16	
2025-08-01T12:00	14550	136	-52.5	-81.7	273	16	
2025-08-01T12:00	14600	135	-52.4	-81.8	277	15	
2025-08-01T12:00	14650	134	-52.0	-81.8	279	13	
2025-08-01T12:00	14700	133	-51.8	-81.8	273	12	
2025-08-01T12:00	14750	132	-51.8	-81.8	265	13	
2025-08-01T12:00	14800	131	-51.8	-81.8	264	14	
2025-08-01T12:00	14850	130	-51.9	-81.9	269	15	
2025-08-01T12:00	14900	129	-51.2	-81.9	275	15	
2025-08-01T12:00	14950	128	-50.8	-81.7	281	14	
2025-08-01T12:00	15000	127	-50.7	-81.6	287	13	
2025-08-01T12:00	15050	126	-50.8	-81.5	291	11	
2025-08-01T12:00	15100	125	-50.7	-81.4	292	10	
2025-08-01T12:00	15150	124	-50.9	-81.5	289	9	
2025-08-01T12:00	15200	123	-51.2	-81.7	281	7	
2025-08-01T12:00	15250	122	-51.3	-81.7	268	6	
2025-08-01T12:00	15300	121	-51.5	-81.7	259	6	
2025-08-01T12:00	15350	120	-51.8	-81.7	257	7	
2025-08-01T12:00	15400	119	-52.1	-81.8	258	9	
2025-08-01T12:00	15450	119	-52.2	-81.9	262	10	
2025-08-01T12:00	15500	118	-52.4	-82.1	266	11	
2025-08-01T12:00	15550	117	-52.4	-82.2	270	10	
2025-08-01T12:00	15600	116	-52.1	-82.3	274	9	
2025-08-01T12:00	15650	115	-52.0	-82.3	273	9	
2025-08-01T12:00	15700	114	-52.1	-82.4	267	9	
2025-08-01T12:00	15750	113	-52.3	-82.4	260	9	
2025-08-01T12:00	15800	112	-52.8	-82.4	255	9	
2025-08-01T12:00	15850	111	-53.2	-82.6	254	9	
2025-08-01T12:00	15900	111	-53.1	-82.8	256	10	
2025-08-01T12:00	15950	110	-52.9	-82.8	258	10	
2025-08-01T12:00	16000	109	-53.0	-82.7	258	11	
2025-08-01T12:00	16050	108	-53.2	-82.7	259	11	
2025-08-01T12:00	16100	107	-53.3	-82.8	261	10	
2025-08-01T12:00	16150	106	-53.4	-82.8	262	8	
2025-08-01T12:00	16200	105	-53.6	-82.9	259	7	
2025-08-01T12:00	16250	105	-53.8	-83.0	252	7	
2025-08-01T12:00	16300	104	-53.8	-82.9	242	6	
2025-08-01T12:00	16350	103	-54.0	-83.0	236	7	
2025-08-01T12:00	16400	102	-54.4	-83.2	233	8	
2025-08-01T12:00	16450	101	-54.7	-83.3	233	9	
2025-08-01T12:00	16500	101	-54.6	-83.4	236	9	
2025-08-01T12:00	16550	100	-54.5	-83.6	243	11	
2025-08-01T12:00	16600	99	-54.0	-83.5	251	12	
2025-08-01T12:00	16650	98	-53.8	-83.5	257	12	
2025-08-01T12:00	16700	98	-54.1	-83.5	262	12	
2025-08-01T12:00	16750	97	-53.9	-83.5	267	11	
2025-08-01T12:00	16800	96	-53.7	-83.5	269	11	
2025-08-01T12:00	16850	95	-53.4	-83.5	271	10	
2025-08-01T12:00	16900	95	-53.3	-83.5	273	10	
2025-08-01T12:00	16950	94	-53.1	-83.4	274	9	
2025-08-01T12:00	17000	93	-52.9	-83.2	272	8	
2025-08-01T12:00	17050	92	-53.1	-83.2	268	8	
2025-08-01T12:00	17100	92	-53.3	-83.4	268	7	
2025-08-01T12:00	17150	91	-53.1	-83.4	274	7	
2025-08-01T12:00	17200	90	-52.7	-83.4	281	7	
2025-08-01T12:00	17250	90	-52.3	-83.1	280	7	
2025-08-01T12:00	17300	89	-52.6	-83.1	278	7	
2025-08-01T12:00	17350	88	-53.1	-83.1	279	7	
2025-08-01T12:00	17400	88	-53.2	-83.4	285	6	
2025-08-01T12:00	17450	87	-52.5	-83.4	292	4	
2025-08-01T12:00	17500	86	-52.0	-83.2	299	3	
2025-08-01T12:00	17550	86	-52.1	-83.1	308	2	
2025-08-01T12:00	17600	85	-52.2	-83.0	347	1	
2025-08-01T12:00	17650	84	-52.5	-83.0	58	0	
2025-08-01T12:00	17700	84	-52.9	-83.1	109	0	
2025-08-01T12:00	17750	83	-53.3	-83.1	149	0	
2025-08-01T12:00	17800	82	-53.8	-83.3	221	0	
2025-08-01T12:00	17850	82	-54.2	-83.5	266	0	
2025-08-01T12:00	17900	81	-54.6	-83.7	264	1	
2025-08-01T12:00	17950	80	-54.9	-83.9	278	2	
2025-08-01T12:00	18000	80	-54.6	-83.9	296	3	
2025-08-01T12:00	18050	79	-54.7	-84.1	307	4	
2025-08-01T12:00	18100	79	-54.6	-84.1	309	5	
2025-08-01T12:00	18150	78	-54.1	-84.0	305	5	
2025-08-01T12:00	18200	77	-53.9	-83.9	301	5	
2025-08-01T12:00	18250	77	-54.2	-83.9	301	5	
2025-08-01T12:00	18300	76	-54.3	-83.9	304	5	
2025-08-01T12:00	18350	75	-54.2	-84.0	307	4	
2025-08-01T12:00	18400	75	-54.2	-84.0	311	2	
2025-08-01T12:00	18450	74	-54.3	-84.0	342	1	
2025-08-01T12:00	18500	74	-54.4	-84.1	97	1	
2025-08-01T12:00	18550	73	-54.3	-84.1	124	1	
2025-08-01T12:00	18600	73	-53.9	-84.1	164	1	
2025-08-01T12:00	18650	72	-53.6	-83.9	190	2	
2025-08-01T12:00	18700	72	-53.9	-83.9	199	2	
2025-08-01T12:00	18750	71	-54.2	-83.9	222	2	
2025-08-01T12:00	18800	70	-54.4	-84.1	276	2	
2025-08-01T12:00	18850	70	-54.4	-84.2	317	2	
2025-08-01T12:00	18900	69	-54.0	-84.1	354	2	
2025-08-01T12:00	18950	69	-54.0	-84.1	24	1	
2025-08-01T12:00	19000	68	-54.2	-84.1	41	1	
2025-08-01T12:00	19050	68	-54.3	-84.0	211	0	
2025-08-01T12:00	19100	67	-54.4	-84.1	211	1	
2025-08-01T12:00	19150	67	-54.4	-84.2	207	2	
2025-08-01T12:00	19200	66	-54.4	-84.3	205	2	
2025-08-01T12:00	19250	66	-54.1	-84.1	193	1	
2025-08-01T12:00	19300	65	-54.2	-84.1	96	1	
2025-08-01T12:00	19350	65	-54.3	-84.2	64	2	
2025-08-01T12:00	19400	64	-54.3	-84.2	63	2	
2025-08-01T12:00	19450	64	-54.4	-84.2	72	2	
2025-08-01T12:00	19500	63	-54.6	-84.3	72	2	
2025-08-01T12:00	19550	63	-54.5	-84.4	45	2	
2025-08-01T12:00	19600	62	-54.2	-84.3	22	3	
2025-08-01T12:00	19650	62	-54.1	-84.3	17	4	
2025-08-01T12:00	19700	61	-54.1	-84.3	23	4	
2025-08-01T12:00	19750	61	-54.1	-84.3	37	4	
2025-08-01T12:00	19800	60	-53.8	-84.2	61	4	
2025-08-01T12:00	19850	60	-53.8	-84.2	90	4	
2025-08-01T12:00	19900	59	-54.1	-84.2	117	5	
2025-08-01T12:00	19950	59	-54.0	-84.2	135	5	
2025-08-01T12:00	20000	58	-53.9	-84.3	144	5	
2025-08-01T12:00	20050	58	-53.7		145	4	
2025-08-01T12:00	20100	57	-53.4		139	4	
2025-08-01T12:00	20150	57	-53.2		132	3	
2025-08-01T12:00	20200	57	-52.9		136	2	
2025-08-01T12:00	20250	56	-52.8		151	2	
2025-08-01T12:00	20300	56	-52.8		159	2	
2025-08-01T12:00	20350	55	-52.9		147	2	
2025-08-01T12:00	20400	55	-53.0		108	2	
2025-08-01T12:00	20450	54	-53.1		88	3	
2025-08-01T12:00	20500	54	-53.2		89	3	
2025-08-01T12:00	20550	54	-53.2		95	4	
2025-08-01T12:00	20600	53	-53.1		103	5	
2025-08-01T12:00	20650	53	-52.8		106	5	
2025-08-01T12:00	20700	52	-52.3		106	6	
2025-08-01T12:00	20750	52	-52.2		106	6	
2025-08-01T12:00	20800	52	-52.2		103	5	
2025-08-01T12:00	20850	51	-52.2		98	6	
2025-08-01T12:00	20900	51	-52.2		92	6	
2025-08-01T12:00	20950	50	-52.4		85	5	
2025-08-01T12:00	21000	50	-52.6		79	5	
2025-08-01T12:00	21050	50	-52.8		77	5	
2025-08-01T12:00	21100	49	-52.7		83	6	
2025-08-01T12:00	21150	49	-52.8		90	7	
2025-08-01T12:00	21200	48	-52.9		97	7	
2025-08-01T12:00	21250	48	-52.9		102	7	
2025-08-01T12:00	21300	48	-52.6		109	6	
2025-08-01T12:00	21350	47	-52.4		115	6	
2025-08-01T12:00	21400	47	-52.3		115	5	
2025-08-01T12:00	21450	47	-52.1		108	4	
2025-08-01T12:00	21500	46	-52.1		92	4	
2025-08-01T12:00	21550	46	-52.3		74	4	
2025-08-01T12:00	21600	46	-52.4		60	5	
2025-08-01T12:00	21650	45	-52.7		56	6	
2025-08-01T12:00	21700	45	-52.6		63	7	
2025-08-01T12:00	21750	45	-52.4		74	8	
2025-08-01T12:00	21800	44	-52.5		83	9	
2025-08-01T12:00	21850	44	-52.6		91	10	
2025-08-01T12:00	21900	43	-52.6		101	10	
2025-08-01T12:00	21950	43	-52.4		110	10	
2025-08-01T12:00	22000	43	-52.1		117	10	
2025-08-01T12:00	22050	42	-51.8		120	10	
2025-08-01T12:00	22100	42	-51.8		123	9	
2025-08-01T12:00	22150	42	-51.7		125	9	
2025-08-01T12:00	22200	42	-51.8		125	8	
2025-08-01T12:00	22250	41	-52.1		122	8	
2025-08-01T12:00	22300	41	-52.1		118	9	
2025-08-01T12:00	22350	41	-52.0		119	8	
2025-08-01T12:00	22400	40	-51.9		125	8	
2025-08-01T12:00	22450	40	-51.9		135	7	
2025-08-01T12:00	22500	40	-51.8		144	7	
2025-08-01T12:00	22550	39	-51.7		147	7	
2025-08-01T12:00	22600	39	-51.4		146	6	
2025-08-01T12:00	22650	39	-51.3		138	5	
2025-08-01T12:00	22700	38	-51.2		118	4	
2025-08-01T12:00	22750	38	-51.1		98	5	
2025-08-01T12:00	22800	38	-51.1		91	6	
2025-08-01T12:00	22850	38	-51.1		92	7	
2025-08-01T12:00	22900	37	-51.1		95	8	
2025-08-01T12:00	22950	37	-51.1		98	7	
2025-08-01T12:00	23000	37	-51.1		103	7	
2025-08-01T12:00	23050	36	-50.8		106	6	
2025-08-01T12:00	23100	36	-50.8		101	5	
2025-08-01T12:00	23150	36	-50.9		87	5	
2025-08-01T12:00	23200	36	-50.6		79	6	
2025-08-01T12:00	23250	35	-50.6		82	6	
2025-08-01T12:00	23300	35	-50.7		88	7	
2025-08-01T12:00	23350	35	-50.7		95	7	
2025-08-01T12:00	23400	34	-50.8		101	8	
2025-08-01T12:00	23450	34	-50.9		107	9	
2025-08-01T12:00	23500	34	-50.8		112	9	
2025-08-01T12:00	23550	34	-50.7		115	8	
2025-08-01T12:00	23600	33	-50.6		116	8	
2025-08-01T12:00	23650	33	-50.6		114	7	
2025-08-01T12:00	23700	33	-50.4		112	7	
2025-08-01T12:00	23750	33	-50.1		114	8	
2025-08-01T12:00	23800	32	-50.0		116	8	
2025-08-01T12:00	23850	32	-50.1		117	9	
2025-08-01T12:00	23900	32	-49.9		117	9	
2025-08-01T12:00	23950	32	-49.4		118	8	
2025-08-01T12:00	24000	31	-49.3		117	8	
2025-08-01T12:00	24050	31	-49.4		114	7	
2025-08-01T12:00	24100	31	-49.5		113	6	
2025-08-01T12:00	24150	31	-49.7		113	6	
2025-08-01T12:00	24200	31	-49.8		113	6	
2025-08-01T12:00	24250	30	-49.8		110	6	
2025-08-01T12:00	24300	30	-49.6		107	6	
2025-08-01T12:00	24350	30	-49.5		101	6	
2025-08-01T12:00	24400	30	-49.4		93	7	
2025-08-01T12:00	24450	29	-49.2		90	8	
2025-08-01T12:00	24500	29	-49.2		90	9	
2025-08-01T12:00	24550	29	-48.9		94	10	
2025-08-01T12:00	24600	29	-48.9		100	11	
2025-08-01T12:00	24650	28	-49.1		105	12	
2025-08-01T12:00	24700	28	-49.2		108	12	
2025-08-01T12:00	24750	28	-49.3		111	12	
2025-08-01T12:00	24800	28	-49.2		113	11	
2025-08-01T12:00	24850	28	-49.0		114	9	
2025-08-01T12:00	24900	27	-48.7		112	8	
2025-08-01T12:00	24950	27	-48.8		108	7	
2025-08-01T12:00	25000	27	-48.5		103	8	
2025-08-01T12:00	25050	27	-48.2		100	9	
2025-08-01T12:00	25100	27	-48.1		101	10	
2025-08-01T12:00	25150	26	-48.1		105	11	
2025-08-01T12:00	25200	26	-48.1		112	11	
2025-08-01T12:00	25250	26	-48.0		120	11	
2025-08-01T12:00	25300	26	-48.0		126	11	
2025-08-01T12:00	25350	26	-48.3		132	11	
2025-08-01T12:00	25400	25	-48.1		136	10	
2025-08-01T12:00	25450	25	-48.0		137	8	
2025-08-01T12:00	25500	25	-48.3		136	7	
2025-08-01T12:00	25550	25	-48.4		130	6	
2025-08-01T12:00	25600	25	-48.3		117	5	
2025-08-01T12:00	25650	24	-48.2		105	6	
2025-08-01T12:00	25700	24	-48.2		98	7	
2025-08-01T12:00	25750	24	-48.4		97	9	
2025-08-01T12:00	25800	24	-48.6		99	9	
2025-08-01T12:00	25850	24	-48.7		103	9	
2025-08-01T12:00	25900	24	-48.8		106	9	
2025-08-01T12:00	25950	23	-48.8		107	8	
2025-08-01T12:00	26000	23	-48.8		106	7	
2025-08-01T12:00	26050	23	-48.9		101	7	
2025-08-01T12:00	26100	23	-49.0		92	7	
2025-08-01T12:00	26150	23	-48.9		84	7	
2025-08-01T12:00	26200	23	-48.7		80	8	
2025-08-01T12:00	26250	22	-48.7		80	9	
2025-08-01T12:00	26300	22	-48.9		84	10	
2025-08-01T12:00	26350	22	-49.0		90	11	
2025-08-01T12:00	26400	22	-48.9		97	11	
2025-08-01T12:00	26450	22	-49.0		102	12	
2025-08-01T12:00	26500	22	-48.9		104	11	
2025-08-01T12:00	26550	21	-48.9		105	11	
2025-08-01T12:00	26600	21	-48.8		106	11	
2025-08-01T12:00	26650	21	-48.5		108	11	
2025-08-01T12:00	26700	21	-48.3		111	11	
2025-08-01T12:00	26750	21	-48.3		113	11	
2025-08-01T12:00	26800	21	-48.3		111	11	
2025-08-01T12:00	26850	20	-48.0		107	11	
2025-08-01T12:00	26900	20	-47.8		102	11	
2025-08-01T12:00	26950	20	-47.8		99	11	
2025-08-01T12:00	27000	20	-47.7		96	12	
2025-08-01T12:00	27050	20	-47.7		94	13	
2025-08-01T12:00	27100	20	-47.6		94	14	
2025-08-01T12:00	27150	19	-47.9		95	14	
2025-08-01T12:00	27200	19	-48.1		98	14	
2025-08-01T12:00	27250	19	-48.1		105	14	
2025-08-01T12:00	27300	19	-48.0		112	13	
2025-08-01T12:00	27350	19	-47.9		116	12	
2025-08-01T12:00	27400	19	-47.9		115	11	
2025-08-01T12:00	27450	19	-47.6		108	10	
2025-08-01T12:00	27500	18	-47.1		99	10	
2025-08-01T12:00	27550	18	-46.7		93	10	
2025-08-01T12:00	27600	18	-46.5		91	11	
2025-08-01T12:00	27650	18	-46.4		92	11	
2025-08-01T12:00	27700	18	-46.4		93	11	
2025-08-01T12:00	27750	18	-46.5		93	11	
2025-08-01T12:00	27800	18	-46.3		94	11	
2025-08-01T12:00	27850	18	-46.1		96	10	
2025-08-01T12:00	27900	17	-45.9		102	10	
2025-08-01T12:00	27950	17	-45.9		106	9	
2025-08-01T12:00	28000	17	-45.8		107	8	
2025-08-01T12:00	28050	17	-45.3		101	7	
2025-08-01T12:00	28100	17	-45.0		90	7	
2025-08-01T12:00	28150	17	-44.9		79	7	
2025-08-01T12:00	28200	17	-44.7		73	9	
2025-08-01T12:00	28250	17	-44.7		73	11	
2025-08-01T12:00	28300	16	-44.7		77	12	
2025-08-01T12:00	28350	16	-44.7		81	14	
2025-08-01T12:00	28400	16	-44.7		86	14	
2025-08-01T12:00	28450	16	-44.6		90	13	
2025-08-01T12:00	28500	16	-44.6		93	12	
2025-08-01T12:00	28550	16	-44.6		95	10	
2025-08-01T12:00	28600	16	-44.4		97	9	
2025-08-01T12:00	28650	16	-44.1		97	9	
2025-08-01T12:00	28700	15	-43.9		97	9	
2025-08-01T12:00	28750	15	-43.8		96	10	
2025-08-01T12:00	28800	15	-43.7		98	11	
2025-08-01T12:00	28850	15	-43.6		103	12	
2025-08-01T12:00	28900	15	-43.6		108	13	
2025-08-01T12:00	28950	15	-43.6		112	12	
2025-08-01T12:00	29000	15	-43.5		112	11	
2025-08-01T12:00	29050	15	-43.4		110	10	
2025-08-01T12:00	29100	15	-43.3		108	10	
2025-08-01T12:00	29150	14	-43.3		108	11	
2025-08-01T12:00	29200	14	-43.3		109	11	
2025-08-01T12:00	29250	14	-43.2		110	11	
2025-08-01T12:00	29300	14	-43.0		108	11	
2025-08-01T12:00	29350	14	-42.8		105	11	
2025-08-01T12:00	29400	14	-42.6		104	12	
2025-08-01T12:00	29450	14	-42.5		105	11	
2025-08-01T12:00	29500	14	-42.4		108	11	
2025-08-01T12:00	29550	14	-42.4		108	9	
2025-08-01T12:00	29600	14	-42.2		103	8	
2025-08-01T12:00	29650	13	-41.9		94	7	
2025-08-01T12:00	29700	13	-41.6		86	7	
2025-08-01T12:00	29750	13	-41.5		81	8	
2025-08-01T12:00	29800	13	-41.5		79	9	
2025-08-01T12:00	29850	13	-41.5		79	10	
2025-08-01T12:00	29900	13	-41.5		80	11	
2025-08-01T12:00	29950	13	-41.5		82	12	
2025-08-01T12:00	30000	13	-41.4		84	11	
2025-08-01T12:00	30050	13	-41.3		87	11	
2025-08-01T12:00	30100	13	-41.3		88	11	
2025-08-01T12:00	30150	12	-41.3		87	11	
2025-08-01T12:00	30200	12	-41.2		85	11	
2025-08-01T12:00	30250	12	-41.1		82	12	
2025-08-01T12:00	30300	12	-40.9		81	13	
2025-08-01T12:00	30350	12	-40.7		83	13	
2025-08-01T12:00	30400	12	-40.6		87	12	
2025-08-01T12:00	30450	12	-40.5		91	12	
2025-08-01T12:00	30500	12	-40.4		94	11	
2025-08-01T12:00	30550	12	-40.3		95	10	
2025-08-01T12:00	30600	12	-40.2		94	10	
2025-08-01T12:00	30650	12	-40.1		92	10	
2025-08-01T12:00	30700	11	-39.8		90	10	
2025-08-01T12:00	30750	11	-39.4		90	11	
2025-08-01T12:00	30800	11	-39.2		90	12	
2025-08-01T12:00	30850	11	-39.1		93	13	
2025-08-01T12:00	30900	11	-39.1		98	14	
2025-08-01T12:00	30950	11	-39.1		101	15	
2025-08-01T12:00	31000	11	-39.0		102	14	
2025-08-01T12:00	31050	11	-38.7		100	14	
2025-08-01T12:00	31100	11	-38.2		98	14	
2025-08-01T12:00	31150	11	-37.8		98	14	
2025-08-01T12:00	31200	11	-37.8		98	14	
2025-08-01T12:00	31250	11	-37.9		97	13	
2025-08-01T12:00	31300	11	-38.1		96	13	
2025-08-01T12:00	31350	10	-38.3		97	12	
2025-08-01T12:00	31400	10	-38.5		98	11	
2025-08-01T12:00	31450	10	-38.4		99	11	
2025-08-01T12:00	31500	10	-38.3		102	10	
2025-08-01T12:00	31550	10	-38.3		106	10	
2025-08-01T12:00	31600	10	-38.4		108	9	
2025-08-01T12:00	31650	10	-38.5		105	9	
2025-08-01T12:00	31700	10	-38.6		98	9	
2025-08-01T12:00	31750	10	-38.7		91	10	
2025-08-01T12:00	31800	10	-38.8		86	10	
2025-08-01T12:00	31850	10	-38.9		82	11	
2025-08-01T12:00	31900	10	-39.1		80	12	
2025-08-01T12:00	31950	10	-39.1		81	13	
2025-08-01T12:00	32000	10	-38.9		83	14	
2025-08-01T12:00	32050	9	-38.7		86	14	
2025-08-01T12:00	32100	9	-38.5		89	15	
2025-08-01T12:00	32150	9	-38.5		94	16	
2025-08-01T12:00	32200	9	-38.6		99	17	
2025-08-01T12:00	32250	9	-38.7		104	18	
2025-08-01T12:00	32300	9	-38.7		108	18	
2025-08-01T12:00	32350	9	-38.5		112	19	
2025-08-01T12:00	32400	9	-38.4		116	18	
2025-08-01T12:00	32450	9	-38.2		119	18	
2025-08-01T12:00	32500	9	-38.2		121	17	
2025-08-01T12:00	32550	9	-38.2		124	16	
2025-08-01T12:00	32600	9	-38.2		127	15	
2025-08-01T12:00	32650	9	-38.1		126	15	
2025-08-01T12:00	32700	9	-38.0		123	15	
2025-08-01T12:00	32750	9	-37.8		119	15	
2025-08-01T12:00	32800	8	-37.5		116	14	
2025-08-01T12:00	32850	8	-37.2		115	14	
2025-08-01T12:00	32900	8	-36.9		116	14	
2025-08-01T12:00	32950	8	-36.7		116	13	
2025-08-01T12:00	33000	8	-36.6		114	14	
2025-08-01T12:00	33050	8	-36.7		111	14	
2025-08-01T12:00	33100	8	-36.7		107	14	
2025-08-01T12:00	33150	8	-36.8		105	15	
2025-08-01T12:00	33200	8	-36.7		105	16	
2025-08-01T12:00	33250	8	-36.5		109	16	
2025-08-01T12:00	33300	8	-36.3		113	17	
2025-08-01T12:00	33350	8	-36.3		117	18	
2025-08-01T12:00	33400	8	-36.4		120	18	
2025-08-01T12:00	33450	8	-36.5		120	18	
2025-08-01T12:00	33500	8	-36.5		119	17	
2025-08-01T12:00	33550	8	-36.5		117	16	
2025-08-01T12:00	33600	8	-36.0		114	16	
2025-08-01T12:00	33650	7	-35.7		110	15	
2025-08-01T12:00	33700	7	-35.6		106	15	
2025-08-01T12:00	33750	7	-35.6		105	15	
2025-08-01T12:00	33800	7	-35.3		105	16	
2025-08-01T12:00	33850	7	-34.8		107	16	
2025-08-01T12:00	33900	7	-34.6		107	16	
2025-08-01T12:00	33950	7	-34.4		107	16	
2025-08-01T12:00	34000	7	-34.3		107	17	
2025-08-01T12:00	34050	7	-34.3		109	17	
2025-08-01T12:00	34100	7	-34.4		111	18	
2025-08-01T12:00	34150	7	-34.4		113	18	
2025-08-01T12:00	34200	7	-34.5		114	17	
2025-08-01T12:00	34250	7	-34.4		114	17	
2025-08-01T12:00	34300	7	-34.2		112	16	
2025-08-01T12:00	34350	7	-33.9		110	16	
2025-08-01T12:00	34400	7	-33.4		108	15	
2025-08-01T12:00	34450	7	-33.1		105	14	
2025-08-01T12:00	34500	7	-32.6		102	14	
2025-08-01T12:00	34550	7	-32.2		98	13	
2025-08-01T12:00	34600	7	-31.9		93	14	
2025-08-01T12:00	34650	6	-31.5		92	15	
2025-08-01T12:00	34700	6	-31.3		93	17	
2025-08-01T12:00	34750	6	-31.2		95	18	
2025-08-01T12:00	34800	6	-31.1		95	18	
2025-08-01T12:00	34850	6	-31.0		94	18	
2025-08-01T12:00	34900	6	-30.8		92	18	
2025-08-01T12:00	34950	6	-30.8		91	19	
2025-08-01T12:00	35000	6	-30.7		91	19	
2025-08-01T12:00	35050	6	-30.5		92	19	
2025-08-01T12:00	35100	6	-30.5		95	18	
2025-08-01T12:00	35150	6	-30.5		98	18	
2025-08-01T12:00	35200	6	-30.5		103	18	
2025-08-01T12:00	35250	6	-30.7		108	17	
2025-08-01T12:00	35300	6	-30.8		111	17	
2025-08-01T12:00	35350	6	-30.8		113	17	
2025-08-01T12:00	35400	6	-30.6		111	16	
2025-08-01T12:00	35450	6	-30.3		107	15	
2025-08-01T12:00	35500	6	-30.1		104	15	
2025-08-01T12:00	35550	6	-30.2		100	15	
2025-08-01T12:00	35600	6	-30.3		95	15	
2025-08-01T12:00	35650	6	-30.2		90	16	
2025-08-01T12:00	35700	6	-29.9		88	17	
2025-08-01T12:00	35750	6	-29.8		87	18	
2025-08-01T12:00	35800	6	-29.8		88	19	
2025-08-01T12:00	35850	5	-29.7		91	20	
2025-08-01T12:00	35900	5	-29.6		93	21	
2025-08-01T12:00	35950	5	-29.3		97	22	
2025-08-01T12:00	36000	5	-29.2		101	23	
2025-08-01T12:00	36050	5	-29.2		103	23	
2025-08-01T12:00	36100	5	-28.9		104	23	
2025-08-01T12:00	36150	5	-28.5		105	22	
2025-08-01T12:00	36200	5	-28.2		107	21	
2025-08-01T12:00	36250	5	-27.9		108	20	
2025-08-01T12:00	36300	5	-27.6		107	19	
2025-08-01T12:00	36350	5	-27.4		105	18	
2025-08-01T12:00	36400	5	-26.9		103	19	
2025-08-01T12:00	36450	5	-26.1		104	20	
2025-08-01T12:00	36500	5	-25.1		105	20	
2025-08-01T12:00	36550	5	-24.6		107	19	
2025-08-01T12:00	36600	5	-24.5		108	19	
2025-08-02T00:00	491	956	15.5	12.3	201	2	
2025-08-02T00:00	501	954	17.0	11.9	205	2	
2025-08-02T00:00	520	953	17.3	11.8	210	2	
2025-08-02T00:00	540	951	17.6	11.1	214	3	
2025-08-02T00:00	560	949	18.2	10.7	221	3	
2025-08-02T00:00	580	946	18.4	10.6	230	3	
2025-08-02T00:00	600	944	18.3	10.5	241	3	
2025-08-02T00:00	620	942	18.2	10.4	250	4	
2025-08-02T00:00	640	939	18.1	10.4	258	4	
2025-08-02T00:00	660	937	17.9	10.3	262	4	
2025-08-02T00:00	680	935	17.7	10.3	265	5	
2025-08-02T00:00	700	933	17.6	10.2	266	5	
2025-08-02T00:00	720	931	17.6	10.1	266	5	
2025-08-02T00:00	740	929	17.5	10.0	266	5	
2025-08-02T00:00	760	927	17.4	9.9	266	5	
2025-08-02T00:00	780	925	17.2	9.8	267	5	
2025-08-02T00:00	800	922	17.1	9.7	268	5	
2025-08-02T00:00	820	920	16.9	9.6	270	5	
2025-08-02T00:00	840	918	16.8	9.5	271	5	
2025-08-02T00:00	860	916	16.6	9.4	271	4	
2025-08-02T00:00	880	914	16.4	9.4	271	4	
2025-08-02T00:00	900	911	16.3	9.2	270	4	
2025-08-02T00:00	920	909	16.2	9.0	270	4	
2025-08-02T00:00	940	907	16.1	9.0	270	4	
2025-08-02T00:00	960	905	15.9	8.9	271	4	
2025-08-02T00:00	980	903	15.7	8.8	273	4	
2025-08-02T00:00	1000	901	15.6	8.8	275	4	
2025-08-02T00:00	1020	899	15.4	8.7	278	4	
2025-08-02T00:00	1040	897	15.2	8.7	280	4	
2025-08-02T00:00	1060	894	14.9	8.7	282	4	
2025-08-02T00:00	1080	892	14.8	8.7	282	4	
2025-08-02T00:00	1100	890	14.6	8.5	281	4	
2025-08-02T00:00	1120	888	14.4	8.6	280	4	
2025-08-02T00:00	1140	886	14.2	8.5	277	4	
2025-08-02T00:00	1160	884	14.0	8.6	275	4	
2025-08-02T00:00	1180	882	13.8	8.4	272	5	
2025-08-02T00:00	1200	880	13.8	8.3	270	5	
2025-08-02T00:00	1220	878	13.6	8.2	268	5	
2025-08-02T00:00	1240	876	13.4	8.2	267	5	
2025-08-02T00:00	1260	874	13.2	8.1	266	5	
2025-08-02T00:00	1280	871	12.9	8.0	266	5	
2025-08-02T00:00	1300	869	12.7	8.0	266	5	
2025-08-02T00:00	1320	867	12.6	8.0	266	5	
2025-08-02T00:00	1340	865	12.5	7.8	266	5	
2025-08-02T00:00	1360	863	12.3	7.7	267	5	
2025-08-02T00:00	1380	861	12.2	7.6	267	6	
2025-08-02T00:00	1400	859	12.0	7.6	267	6	
2025-08-02T00:00	1420	857	11.9	7.5	268	6	
2025-08-02T00:00	1440	855	11.7	7.5	268	6	
2025-08-02T00:00	1460	853	11.6	7.5	269	7	
2025-08-02T00:00	1480	851	11.4	7.5	271	7	
2025-08-02T00:00	1500	849	11.3	7.2	273	7	
2025-08-02T00:00	1520	847	11.1	7.2	274	7	
2025-08-02T00:00	1540	845	11.0	7.1	276	7	
2025-08-02T00:00	1560	843	10.9	6.9	276	7	
2025-08-02T00:00	1580	841	10.8	6.5	276	7	
2025-08-02T00:00	1600	839	10.7	6.3	276	7	
2025-08-02T00:00	1620	837	10.7	6.0	276	8	
2025-08-02T00:00	1640	835	10.6	5.7	276	8	
2025-08-02T00:00	1660	833	10.4	5.6	276	8	
2025-08-02T00:00	1680	831	10.3	5.6	277	8	
2025-08-02T00:00	1700	829	10.1	5.6	277	8	
2025-08-02T00:00	1720	827	9.9	5.5	276	8	
2025-08-02T00:00	1740	825	9.8	5.1	274	8	
2025-08-02T00:00	1760	823	9.7	5.0	273	8	
2025-08-02T00:00	1780	821	9.5	5.0	271	8	
2025-08-02T00:00	1800	819	9.3	4.9	269	8	
2025-08-02T00:00	1820	817	9.1	4.8	267	8	
2025-08-02T00:00	1840	815	9.0	4.7	267	8	
2025-08-02T00:00	1860	813	8.8	4.7	267	9	
2025-08-02T00:00	1880	811	8.6	4.6	267	9	
2025-08-02T00:00	1900	809	8.4	4.6	268	9	
2025-08-02T00:00	1920	807	8.3	4.5	268	9	
2025-08-02T00:00	1940	805	8.1	4.4	268	9	
2025-08-02T00:00	1960	803	7.9	4.3	267	9	
2025-08-02T00:00	1980	801	7.7	4.3	266	9	
2025-08-02T00:00	2000	799	7.6	4.2	266	8	
2025-08-02T00:00	2020	797	7.4	4.0	265	8	
2025-08-02T00:00	2040	796	7.2	3.8	263	8	
2025-08-02T00:00	2060	794	7.1	3.7	262	8	
2025-08-02T00:00	2080	791	6.9	3.6	260	8	
2025-08-02T00:00	2100	790	6.7	3.4	260	8	
2025-08-02T00:00	2120	788	6.5	3.3	259	9	
2025-08-02T00:00	2140	786	6.4	3.1	258	9	
2025-08-02T00:00	2160	784	6.3	2.8	257	9	
2025-08-02T00:00	2180	782	6.2	2.6	255	9	
2025-08-02T00:00	2200	780	6.1	2.4	252	9	
2025-08-02T00:00	2220	778	6.0	2.4	250	9	
2025-08-02T00:00	2240	776	5.8	2.4	250	9	
2025-08-02T00:00	2260	774	5.7	2.3	250	9	
2025-08-02T00:00	2280	773	5.5	2.3	251	9	
2025-08-02T00:00	2300	771	5.4	2.2	253	9	
2025-08-02T00:00	2320	769	5.2	2.3	254	9	
2025-08-02T00:00	2340	767	5.0	2.3	255	9	
2025-08-02T00:00	2360	765	4.8	2.2	255	9	
2025-08-02T00:00	2380	763	4.6	2.3	255	9	
2025-08-02T00:00	2400	761	4.5	2.3	255	10	
2025-08-02T00:00	2420	759	4.3	2.2	255	10	
2025-08-02T00:00	2440	757	4.2	1.9	254	10	
2025-08-02T00:00	2460	756	4.1	1.4	254	10	
2025-08-02T00:00	2480	754	4.0	1.2	254	10	
2025-08-02T00:00	2500	752	3.9	1.0	253	10	
2025-08-02T00:00	2520	750	3.7	0.9	253	11	
2025-08-02T00:00	2540	748	3.6	0.7	253	11	
2025-08-02T00:00	2560	746	3.6	0.2	253	11	
2025-08-02T00:00	2580	744	3.6	-0.3	253	11	
2025-08-02T00:00	2600	743	3.5	-0.3	254	11	
2025-08-02T00:00	2620	741	3.4	-0.1	254	11	
2025-08-02T00:00	2640	739	3.3	-0.5	254	11	
2025-08-02T00:00	2660	737	3.2	-0.5	254	11	
2025-08-02T00:00	2680	736	3.1	-0.8	253	12	
2025-08-02T00:00	2700	734	3.0	-0.9	252	12	
2025-08-02T00:00	2720	732	2.8	-0.9	251	12	
2025-08-02T00:00	2740	730	2.6	-0.7	251	11	
2025-08-02T00:00	2760	728	2.5	-0.7	250	11	
2025-08-02T00:00	2780	726	2.2	-0.8	249	11	
2025-08-02T00:00	2800	725	2.0	-0.7	249	11	
2025-08-02T00:00	2820	723	1.9	-0.6	248	11	
2025-08-02T00:00	2840	721	1.8	-0.6	248	12	
2025-08-02T00:00	2860	719	1.7	-0.6	249	12	
2025-08-02T00:00	2880	717	1.6	-0.7	250	12	
2025-08-02T00:00	2900	716	1.4	-0.8	252	12	
2025-08-02T00:00	2920	714	1.3	-0.8	253	12	
2025-08-02T00:00	2940	712	1.1	-0.8	254	12	
2025-08-02T00:00	2960	710	1.0	-0.8	254	12	
2025-08-02T00:00	2980	709	0.8	-0.9	254	13	
2025-08-02T00:00	3000	707	0.7	-1.0	254	13	
2025-08-02T00:00	3020	705	0.7	-0.9	253	13	
2025-08-02T00:00	3040	704	0.5	-0.9	253	13	
2025-08-02T00:00	3060	702	0.4	-1.0	252	13	
2025-08-02T00:00	3080	700	0.2	-1.0	251	14	
2025-08-02T00:00	3100	698	0.0	-1.1	250	14	
2025-08-02T00:00	3120	696	0.2	-1.7	248	14	
2025-08-02T00:00	3140	695	0.2	-1.8	247	15	
2025-08-02T00:00	3160	693	0.1	-2.2	245	15	
2025-08-02T00:00	3180	691	0.1	-2.7	243	15	
2025-08-02T00:00	3200	689	0.0	-3.1	242	15	
2025-08-02T00:00	3220	688	0.0	-3.3	240	15	
2025-08-02T00:00	3240	686	-0.1	-3.6	239	14	
2025-08-02T00:00	3260	684	-0.2	-3.7	238	14	
2025-08-02T00:00	3280	683	-0.4	-3.9	237	14	
2025-08-02T00:00	3300	681	-0.5	-4.3	237	14	
2025-08-02T00:00	3320	679	-0.5	-4.8	236	14	
2025-08-02T00:00	3340	677	-0.6	-5.0	236	14	
2025-08-02T00:00	3360	676	-0.7	-5.2	235	14	
2025-08-02T00:00	3380	674	-0.8	-5.0	235	14	
2025-08-02T00:00	3400	672	-1.0	-4.9	235	14	
2025-08-02T00:00	3420	671	-1.1	-4.9	235	14	
2025-08-02T00:00	3440	669	-1.3	-5.3	235	14	
2025-08-02T00:00	3460	667	-1.4	-5.6	236	14	
2025-08-02T00:00	3480	666	-1.6	-5.8	236	15	
2025-08-02T00:00	3500	664	-1.7	-6.0	237	15	
2025-08-02T00:00	3520	662	-1.9	-6.2	237	15	
2025-08-02T00:00	3540	661	-2.1	-6.4	237	15	
2025-08-02T00:00	3560	659	-2.3	-6.5	236	15	
2025-08-02T00:00	3580	657	-2.5	-6.6	235	15	
2025-08-02T00:00	3600	656	-2.5	-7.4	234	15	
2025-08-02T00:00	3620	654	-2.6	-7.9	232	15	
2025-08-02T00:00	3640	653	-2.7	-8.0	231	15	
2025-08-02T00:00	3660	651	-2.8	-8.0	230	15	
2025-08-02T00:00	3680	649	-3.0	-7.9	230	15	
2025-08-02T00:00	3700	648	-3.2	-7.8	231	15	
2025-08-02T00:00	3720	646	-3.3	-8.1	232	15	
2025-08-02T00:00	3740	645	-3.5	-8.8	234	15	
2025-08-02T00:00	3760	643	-3.7	-8.9	236	15	
2025-08-02T00:00	3780	641	-3.9	-8.4	238	16	
2025-08-02T00:00	3800	640	-4.0	-9.4	239	16	
2025-08-02T00:00	3820	638	-4.0	-10.3	240	16	
2025-08-02T00:00	3840	636	-4.2	-10.5	240	16	
2025-08-02T00:00	3860	635	-4.3	-11.0	241	16	
2025-08-02T00:00	3880	633	-4.4	-11.1	241	16	
2025-08-02T00:00	3900	631	-4.6	-11.6	241	16	
2025-08-02T00:00	3920	630	-4.7	-12.1	241	16	
2025-08-02T00:00	3940	628	-4.8	-12.8	242	16	
2025-08-02T00:00	3960	626	-4.9	-13.1	243	16	
2025-08-02T00:00	3980	625	-5.1	-13.7	244	16	
2025-08-02T00:00	4000	623	-5.2	-14.1	245	16	
2025-08-02T00:00	4020	622	-5.4	-14.5	246	16	
2025-08-02T00:00	4040	620	-5.5	-15.7	248	16	
2025-08-02T00:00	4060	619	-5.6	-17.0	249	16	
2025-08-02T00:00	4080	617	-5.7	-17.8	250	16	
2025-08-02T00:00	4100	616	-5.9	-17.6	251	16	
2025-08-02T00:00	4120	614	-6.1	-17.9	251	16	
2025-08-02T00:00	4140	612	-6.2	-18.5	251	15	
2025-08-02T00:00	4160	611	-6.1	-18.5	251	15	
2025-08-02T00:00	4180	609	-6.2	-18.9	251	14	
2025-08-02T00:00	4200	608	-6.3	-19.6	250	14	
2025-08-02T00:00	4220	606	-6.5	-20.6	250	14	
2025-08-02T00:00	4240	605	-6.7	-20.7	248	14	
2025-08-02T00:00	4260	603	-6.9	-21.6	247	14	
2025-08-02T00:00	4280	601	-7.0	-21.9	245	14	
2025-08-02T00:00	4300	600	-7.1	-21.7	244	15	
2025-08-02T00:00	4320	598	-7.2	-21.2	243	15	
2025-08-02T00:00	4340	597	-7.4	-19.8	243	15	
2025-08-02T00:00	4360	595	-7.5	-19.0	243	15	
2025-08-02T00:00	4380	594	-7.7	-18.9	244	15	
2025-08-02T00:00	4400	592	-7.9	-19.0	244	15	
2025-08-02T00:00	4420	591	-8.0	-19.0	246	14	
2025-08-02T00:00	4440	589	-8.1	-20.9	247	14	
2025-08-02T00:00	4460	588	-7.9	-26.8	249	14	
2025-08-02T00:00	4480	586	-7.9	-26.6	250	13	
2025-08-02T00:00	4500	585	-8.0	-26.3	251	13	
2025-08-02T00:00	4520	583	-8.2	-25.6	252	13	
2025-08-02T00:00	4540	582	-8.4	-25.0	252	13	
2025-08-02T00:00	4560	580	-8.6	-24.5	252	13	
2025-08-02T00:00	4580	579	-8.8	-23.9	252	13	
2025-08-02T00:00	4600	577	-9.0	-20.5	252	14	
2025-08-02T00:00	4620	576	-9.2	-17.7	252	14	
2025-08-02T00:00	4640	574	-9.4	-15.7	251	14	
2025-08-02T00:00	4660	573	-9.5	-16.7	250	15	
2025-08-02T00:00	4680	571	-9.7	-17.5	249	15	
2025-08-02T00:00	4700	570	-9.9	-14.9	248	15	
2025-08-02T00:00	4720	568	-10.1	-14.1	247	16	
2025-08-02T00:00	4740	567	-10.3	-13.1	247	16	
2025-08-02T00:00	4760	565	-10.5	-12.1	247	16	
2025-08-02T00:00	4780	564	-10.5	-12.4	247	16	
2025-08-02T00:00	4800	563	-10.1	-13.6	246	16	
2025-08-02T00:00	4820	561	-10.1	-14.3	245	16	
2025-08-02T00:00	4840	560	-10.2	-14.9	244	16	
2025-08-02T00:00	4860	558	-10.4	-15.1	242	15	
2025-08-02T00:00	4880	557	-10.5	-15.3	242	15	
2025-08-02T00:00	4900	555	-10.6	-15.8	242	16	
2025-08-02T00:00	4920	554	-10.8	-16.2	242	16	
2025-08-02T00:00	4940	552	-10.9	-16.7	244	16	
2025-08-02T00:00	4960	551	-11.0	-16.9	245	16	
2025-08-02T00:00	4980	549	-11.1	-17.1	246	16	
2025-08-02T00:00	5000	548	-11.2	-17.1	247	16	
2025-08-02T00:00	5020	547	-11.4	-17.1	246	15	
2025-08-02T00:00	5040	545	-11.6	-17.1	245	15	
2025-08-02T00:00	5060	544	-11.7	-17.5	244	16	
2025-08-02T00:00	5080	542	-11.9	-17.7	242	16	
2025-08-02T00:00	5100	541	-12.0	-17.7	241	16	
2025-08-02T00:00	5120	539	-12.2	-17.7	240	16	
2025-08-02T00:00	5140	538	-12.4	-17.8	240	16	
2025-08-02T00:00	5160	537	-12.5	-18.0	241	16	
2025-08-02T00:00	5180	535	-12.6	-18.0	242	16	
2025-08-02T00:00	5200	534	-12.7	-18.0	242	16	
2025-08-02T00:00	5220	532	-12.9	-18.6	244	16	
2025-08-02T00:00	5240	531	-13.0	-19.7	244	16	
2025-08-02T00:00	5260	530	-13.1	-20.3	245	16	
2025-08-02T00:00	5280	528	-13.2	-20.4	246	16	
2025-08-02T00:00	5300	527	-13.3	-20.5	247	16	
2025-08-02T00:00	5320	526	-13.4	-20.8	248	16	
2025-08-02T00:00	5340	524	-13.5	-21.0	250	17	
2025-08-02T00:00	5360	523	-13.7	-21.3	250	17	
2025-08-02T00:00	5380	521	-13.8	-22.0	251	18	
2025-08-02T00:00	5400	520	-13.9	-22.5	250	18	
2025-08-02T00:00	5420	519	-14.0	-23.5	250	18	
2025-08-02T00:00	5440	517	-14.0	-25.4	249	18	
2025-08-02T00:00	5460	516	-14.0	-26.7	248	18	
2025-08-02T00:00	5480	515	-14.0	-28.1	247	18	
2025-08-02T00:00	5500	513	-14.1	-29.0	247	17	
2025-08-02T00:00	5520	512	-14.2	-30.2	247	17	
2025-08-02T00:00	5540	511	-14.3	-30.6	248	17	
2025-08-02T00:00	5560	509	-14.4	-31.7	249	17	
2025-08-02T00:00	5580	508	-14.5	-33.0	250	17	
2025-08-02T00:00	5600	507	-14.6	-32.4	251	18	
2025-08-02T00:00	5620	505	-14.8	-32.2	251	17	
2025-08-02T00:00	5640	504	-14.8	-32.5	252	17	
2025-08-02T00:00	5660	503	-14.9	-32.3	253	17	
2025-08-02T00:00	5680	501	-15.1	-32.4	254	16	
2025-08-02T00:00	5700	500	-15.2	-32.5	254	16	
2025-08-02T00:00	5720	499	-15.4	-32.8	256	16	
2025-08-02T00:00	5740	497	-15.6	-33.2	258	15	
2025-08-02T00:00	5760	496	-15.7	-33.8	259	15	
2025-08-02T00:00	5780	494	-15.8	-33.9	261	15	
2025-08-02T00:00	5800	493	-16.0	-34.0	262	15	
2025-08-02T00:00	5820	492	-16.2	-33.9	263	15	
2025-08-02T00:00	5840	491	-16.4	-33.9	264	16	
2025-08-02T00:00	5860	489	-16.5	-33.9	265	16	
2025-08-02T00:00	5880	488	-16.6	-33.8	264	16	
2025-08-02T00:00	5900	487	-16.8	-34.6	263	16	
2025-08-02T00:00	5920	485	-17.0	-34.7	262	16	
2025-08-02T00:00	5940	484	-17.1	-36.3	261	16	
2025-08-02T00:00	5960	483	-17.3	-36.6	260	16	
2025-08-02T00:00	5980	482	-17.4	-36.7	258	17	
2025-08-02T00:00	6000	480	-17.6	-36.9	257	17	
2025-08-02T00:00	6020	479	-17.8	-37.6	256	18	
2025-08-02T00:00	6040	478	-17.9	-37.9	256	18	
2025-08-02T00:00	6060	476	-18.0	-38.1	255	19	
2025-08-02T00:00	6080	475	-18.1	-37.7	255	19	
2025-08-02T00:00	6100	474	-18.1	-37.4	254	19	
2025-08-02T00:00	6120	473	-18.1	-37.1	253	19	
2025-08-02T00:00	6140	471	-18.2	-36.5	251	20	
2025-08-02T00:00	6160	470	-18.4	-36.3	250	20	
2025-08-02T00:00	6180	469	-18.5	-36.2	249	20	
2025-08-02T00:00	6200	468	-18.7	-36.1	248	20	
2025-08-02T00:00	6220	466	-18.6	-34.3	246	20	
2025-08-02T00:00	6240	465	-18.7	-33.3	245	20	
2025-08-02T00:00	6260	464	-18.8	-32.5	244	20	
2025-08-02T00:00	6280	463	-19.0	-31.4	243	20	
2025-08-02T00:00	6300	461	-19.1	-30.9	242	20	
2025-08-02T00:00	6320	460	-19.3	-30.6	242	19	
2025-08-02T00:00	6340	459	-19.5	-29.5	241	19	
2025-08-02T00:00	6360	458	-19.7	-28.5	241	19	
2025-08-02T00:00	6380	456	-19.9	-27.9	241	19	
2025-08-02T00:00	6400	455	-20.1	-27.3	241	19	
2025-08-02T00:00	6420	454	-20.2	-27.4	241	19	
2025-08-02T00:00	6440	453	-20.5	-27.1	241	19	
2025-08-02T00:00	6460	451	-20.7	-26.9	241	19	
2025-08-02T00:00	6480	450	-20.8	-26.5	241	19	
2025-08-02T00:00	6500	449	-21.0	-26.5	241	19	
2025-08-02T00:00	6520	448	-21.2	-26.6	241	19	
2025-08-02T00:00	6540	447	-21.4	-26.6	241	18	
2025-08-02T00:00	6560	446	-21.5	-26.5	242	18	
2025-08-02T00:00	6580	444	-21.7	-26.6	243	18	
2025-08-02T00:00	6600	443	-21.9	-26.4	245	18	
2025-08-02T00:00	6620	442	-22.1	-26.3	246	18	
2025-08-02T00:00	6640	441	-22.2	-26.1	247	18	
2025-08-02T00:00	6660	439	-22.4	-26.1	248	18	
2025-08-02T00:00	6680	438	-22.6	-26.0	247	19	
2025-08-02T00:00	6700	437	-22.8	-26.0	247	19	
2025-08-02T00:00	6720	436	-23.0	-26.1	246	19	
2025-08-02T00:00	6740	435	-23.1	-26.1	245	20	
2025-08-02T00:00	6760	433	-23.3	-25.9	244	19	
2025-08-02T00:00	6780	432	-23.5	-25.9	243	19	
2025-08-02T00:00	6800	431	-23.7	-26.0	242	19	
2025-08-02T00:00	6820	430	-23.9	-26.1	242	19	
2025-08-02T00:00	6840	429	-24.0	-26.2	242	19	
2025-08-02T00:00	6860	428	-24.2	-26.1	242	19	
2025-08-02T00:00	6880	426	-24.5	-26.1	242	19	
2025-08-02T00:00	6900	425	-24.6	-26.2	242	19	
2025-08-02T00:00	6920	424	-24.8	-26.3	243	19	
2025-08-02T00:00	6940	423	-25.0	-26.3	244	19	
2025-08-02T00:00	6960	422	-25.2	-26.2	245	20	
2025-08-02T00:00	6980	421	-25.4	-26.1	245	20	
2025-08-02T00:00	7000	419	-25.6	-26.5	245	20	
2025-08-02T00:00	7020	418	-25.7	-26.7	245	20	
2025-08-02T00:00	7040	417	-25.9	-27.0	245	20	
2025-08-02T00:00	7060	416	-26.1	-27.1	244	20	
2025-08-02T00:00	7080	415	-26.2	-27.9	244	20	
2025-08-02T00:00	7100	414	-26.4	-28.6	245	20	
2025-08-02T00:00	7120	413	-26.5	-28.5	245	19	
2025-08-02T00:00	7140	412	-26.7	-28.4	246	19	
2025-08-02T00:00	7160	410	-26.9	-29.2	248	19	
2025-08-02T00:00	7180	409	-27.0	-30.3	250	19	
2025-08-02T00:00	7200	408	-27.0	-32.0	252	19	
2025-08-02T00:00	7220	407	-27.1	-33.5	253	20	
2025-08-02T00:00	7240	406	-27.3	-33.3	254	20	
2025-08-02T00:00	7260	405	-27.4	-33.4	255	21	
2025-08-02T00:00	7280	403	-27.6	-34.0	255	21	
2025-08-02T00:00	7300	402	-27.7	-34.6	256	22	
2025-08-02T00:00	7320	401	-27.9	-35.0	256	22	
2025-08-02T00:00	7340	400	-28.0	-35.4	256	23	
2025-08-02T00:00	7360	399	-28.2	-35.6	257	23	
2025-08-02T00:00	7380	398	-28.3	-34.8	257	23	
2025-08-02T00:00	7400	397	-28.4	-34.1	256	24	
2025-08-02T00:00	7420	396	-28.6	-34.3	256	24	
2025-08-02T00:00	7440	395	-28.8	-34.3	256	24	
2025-08-02T00:00	7460	394	-28.9	-34.5	256	24	
2025-08-02T00:00	7480	392	-29.2	-34.3	256	25	
2025-08-02T00:00	7500	391	-29.4	-34.4	256	25	
2025-08-02T00:00	7520	390	-29.6	-34.4	256	24	
2025-08-02T00:00	7540	389	-29.7	-34.3	256	24	
2025-08-02T00:00	7560	388	-29.8	-34.1	256	23	
2025-08-02T00:00	7580	387	-30.0	-33.8	256	23	
2025-08-02T00:00	7600	386	-30.1	-32.9	256	22	
2025-08-02T00:00	7620	385	-30.2	-33.6	257	22	
2025-08-02T00:00	7640	384	-30.3	-34.1	257	22	
2025-08-02T00:00	7660	383	-30.5	-33.9	258	22	
2025-08-02T00:00	7680	382	-30.7	-33.9	259	22	
2025-08-02T00:00	7700	380	-30.9	-34.1	260	22	
2025-08-02T00:00	7720	379	-31.0	-34.3	260	22	
2025-08-02T00:00	7740	378	-31.2	-34.4	260	22	
2025-08-02T00:00	7760	377	-31.4	-34.3	259	22	
2025-08-02T00:00	7780	376	-31.5	-35.0	259	22	
2025-08-02T00:00	7800	375	-31.6	-35.9	258	22	
2025-08-02T00:00	7820	374	-31.7	-36.6	257	22	
2025-08-02T00:00	7840	373	-31.8	-36.6	256	22	
2025-08-02T00:00	7860	372	-32.0	-36.7	256	22	
2025-08-02T00:00	7880	371	-32.1	-36.6	255	22	
2025-08-02T00:00	7900	370	-32.3	-36.4	254	22	
2025-08-02T00:00	7920	369	-32.5	-36.3	254	22	
2025-08-02T00:00	7940	368	-32.6	-36.3	254	22	
2025-08-02T00:00	7960	367	-32.8	-36.4	254	22	
2025-08-02T00:00	7980	366	-33.0	-36.8	254	22	
2025-08-02T00:00	8000	365	-33.1	-37.1	254	22	
2025-08-02T00:00	8020	363	-33.3	-37.2	255	22	
2025-08-02T00:00	8040	362	-33.5	-37.4	255	22	
2025-08-02T00:00	8060	362	-33.6	-37.3	256	22	
2025-08-02T00:00	8080	361	-33.7	-37.5	256	22	
2025-08-02T00:00	8100	360	-33.8	-38.3	256	22	
2025-08-02T00:00	8120	358	-33.9	-39.9	256	22	
2025-08-02T00:00	8140	357	-34.1	-40.7	257	23	
2025-08-02T00:00	8160	356	-34.2	-42.4	257	23	
2025-08-02T00:00	8180	355	-34.3	-43.6	258	23	
2025-08-02T00:00	8200	354	-34.4	-43.1	259	24	
2025-08-02T00:00	8220	353	-34.5	-43.5	260	24	
2025-08-02T00:00	8240	352	-34.7	-43.3	261	24	
2025-08-02T00:00	8260	351	-34.9	-43.2	261	24	
2025-08-02T00:00	8280	350	-35.1	-43.5	262	24	
2025-08-02T00:00	8300	349	-35.3	-43.6	263	24	
2025-08-02T00:00	8320	348	-35.5	-44.3	263	25	
2025-08-02T00:00	8340	347	-35.5	-45.4	263	25	
2025-08-02T00:00	8360	346	-35.7	-45.8	263	25	
2025-08-02T00:00	8380	345	-35.8	-45.8	263	25	
2025-08-02T00:00	8400	344	-36.0	-46.0	263	25	
2025-08-02T00:00	8420	343	-36.2	-46.5	263	26	
2025-08-02T00:00	8440	342	-36.4	-46.8	263	26	
2025-08-02T00:00	8460	341	-36.6	-47.3	263	26	
2025-08-02T00:00	8480	340	-36.7	-48.1	263	26	
2025-08-02T00:00	8500	339	-36.9	-49.1	264	26	
2025-08-02T00:00	8520	338	-37.0	-49.8	264	27	
2025-08-02T00:00	8540	337	-37.1	-50.2	264	27	
2025-08-02T00:00	8560	336	-37.3	-50.1	264	28	
2025-08-02T00:00	8580	336	-37.5	-50.2	265	28	
2025-08-02T00:00	8600	334	-37.6	-50.7	265	28	
2025-08-02T00:00	8620	333	-37.7	-50.8	265	29	
2025-08-02T00:00	8640	333	-37.8	-50.8	265	29	
2025-08-02T00:00	8660	332	-38.0	-50.8	266	29	
2025-08-02T00:00	8680	331	-38.2	-50.5	266	29	
2025-08-02T00:00	8700	330	-38.3	-50.4	267	29	
2025-08-02T00:00	8720	329	-38.5	-50.4	267	29	
2025-08-02T00:00	8740	328	-38.7	-50.1	268	30	
2025-08-02T00:00	8760	327	-38.8	-49.9	269	30	
2025-08-02T00:00	8780	326	-39.0	-49.8	270	30	
2025-08-02T00:00	8800	325	-39.1	-49.4	270	31	
2025-08-02T00:00	8820	324	-39.3	-49.4	270	31	
2025-08-02T00:00	8840	323	-39.4	-49.3	270	32	
2025-08-02T00:00	8860	322	-39.5	-48.5	269	32	
2025-08-02T00:00	8880	321	-39.6	-48.2	269	33	
2025-08-02T00:00	8900	320	-39.7	-48.5	269	33	
2025-08-02T00:00	8920	319	-39.8	-48.8	268	33	
2025-08-02T00:00	8940	318	-39.8	-48.4	268	33	
2025-08-02T00:00	8960	317	-40.0	-47.7	268	33	
2025-08-02T00:00	8980	317	-40.2	-47.6	267	33	
2025-08-02T00:00	9000	316	-40.3	-47.8	267	32	
2025-08-02T00:00	9020	315	-40.6	-47.9	267	32	
2025-08-02T00:00	9040	314	-40.8	-47.9	266	32	
2025-08-02T00:00	9060	313	-40.9	-48.0	266	32	
2025-08-02T00:00	9080	312	-41.1	-48.2	266	32	
2025-08-02T00:00	9100	311	-41.3	-48.3	266	32	
2025-08-02T00:00	9120	310	-41.4	-49.2	267	32	
2025-08-02T00:00	9140	309	-41.6	-50.0	267	32	
2025-08-02T00:00	9160	308	-41.7	-50.3	267	32	
2025-08-02T00:00	9180	307	-41.9	-50.6	267	32	
2025-08-02T00:00	9200	306	-42.1	-50.6	267	32	
2025-08-02T00:00	9220	305	-42.3	-50.5	266	32	
2025-08-02T00:00	9240	305	-42.5	-50.5	265	32	
2025-08-02T00:00	9260	304	-42.6	-50.4	265	32	
2025-08-02T00:00	9280	303	-42.8	-50.5	264	32	
2025-08-02T00:00	9300	302	-43.0	-51.2	263	32	
2025-08-02T00:00	9320	301	-43.1	-51.8	263	32	
2025-08-02T00:00	9340	300	-43.2	-52.1	262	32	
2025-08-02T00:00	9360	299	-43.4	-51.8	262	31	
2025-08-02T00:00	9380	298	-43.5	-51.6	261	31	
2025-08-02T00:00	9400	297	-43.7	-51.7	261	31	
2025-08-02T00:00	9420	297	-43.9	-51.6	260	31	
2025-08-02T00:00	9440	296	-44.1	-51.7	260	31	
2025-08-02T00:00	9460	295	-44.3	-51.7	259	31	
2025-08-02T00:00	9480	294	-44.4	-51.9	259	31	
2025-08-02T00:00	9500	293	-44.5	-52.8	258	31	
2025-08-02T00:00	9520	292	-44.6	-53.3	258	31	
2025-08-02T00:00	9540	291	-44.7	-53.3	258	31	
2025-08-02T00:00	9560	290	-44.9	-53.2	258	31	
2025-08-02T00:00	9580	290	-45.1	-53.1	257	31	
2025-08-02T00:00	9600	289	-45.3	-53.0	257	31	
2025-08-02T00:00	9620	288	-45.5	-53.0	257	31	
2025-08-02T00:00	9640	287	-45.6	-53.1	257	31	
2025-08-02T00:00	9660	286	-45.8	-53.1	258	31	
2025-08-02T00:00	9680	285	-46.0	-53.3	258	31	
2025-08-02T00:00	9700	284	-46.2	-53.9	258	31	
2025-08-02T00:00	9720	284	-46.3	-54.9	258	31	
2025-08-02T00:00	9740	283	-46.4	-55.3	258	31	
2025-08-02T00:00	9760	282	-46.6	-55.1	258	31	
2025-08-02T00:00	9780	281	-46.8	-55.0	259	31	
2025-08-02T00:00	9800	280	-47.0	-55.0	259	31	
2025-08-02T00:00	9820	279	-47.1	-55.1	259	31	
2025-08-02T00:00	9840	278	-47.4	-55.3	260	31	
2025-08-02T00:00	9860	278	-47.6	-55.5	260	31	
2025-08-02T00:00	9880	277	-47.7	-55.6	260	31	
2025-08-02T00:00	9900	276	-47.9	-55.6	261	31	
2025-08-02T00:00	9920	275	-48.1	-55.8	261	31	
2025-08-02T00:00	9940	274	-48.2	-56.0	261	31	
2025-08-02T00:00	9960	273	-48.4	-56.4	261	30	
2025-08-02T00:00	9980	273	-48.5	-56.8	261	30	
2025-08-02T00:00	10000	272	-48.7	-57.0	261	30	
2025-08-02T00:00	10018	271	-48.8	-57.1	261	30	
2025-08-02T00:00	10050	270	-49.1	-57.8	260	30	
2025-08-02T00:00	10100	268	-49.2	-58.4	258	30	
2025-08-02T00:00	10150	266	-49.2	-58.3	257	29	
2025-08-02T00:00	10200	264	-49.4	-58.9	255	30	
2025-08-02T00:00	10250	262	-49.7	-58.8	255	30	
2025-08-02T00:00	10300	260	-50.1	-59.0	254	30	
2025-08-02T00:00	10350	258	-50.4	-59.0	254	31	
2025-08-02T00:00	10400	256	-50.6	-59.4	256	32	
2025-08-02T00:00	10450	254	-50.5	-59.8	260	32	
2025-08-02T00:00	10500	252	-50.4	-60.9	262	32	
2025-08-02T00:00	10550	250	-50.4	-62.2	263	30	
2025-08-02T00:00	10600	248	-50.6	-62.6	262	29	
2025-08-02T00:00	10650	246	-50.7	-63.5	261	28	
2025-08-02T00:00	10700	244	-50.9	-63.9	261	27	
2025-08-02T00:00	10750	242	-51.4	-63.7	260	26	
2025-08-02T00:00	10800	240	-51.8	-63.9	258	25	
2025-08-02T00:00	10850	239	-51.5	-65.0	255	24	
2025-08-02T00:00	10900	237	-51.2	-66.1	255	24	
2025-08-02T00:00	10950	235	-50.4	-67.7	259	24	
2025-08-02T00:00	11000	233	-49.3	-69.1	264	25	
2025-08-02T00:00	11050	231	-49.0	-69.5	269	25	
2025-08-02T00:00	11100	230	-49.0	-69.6	271	25	
2025-08-02T00:00	11150	228	-48.9	-70.2	271	24	
2025-08-02T00:00	11200	226	-48.7	-70.7	269	23	
2025-08-02T00:00	11250	224	-48.5	-71.1	265	22	
2025-08-02T00:00	11300	223	-47.7	-71.8	262	22	
2025-08-02T00:00	11350	221	-47.0	-72.6	263	22	
2025-08-02T00:00	11400	219	-46.6	-73.3	266	22	
2025-08-02T00:00	11450	218	-46.6	-73.9	269	22	
2025-08-02T00:00	11500	216	-46.4	-74.5	272	22	
2025-08-02T00:00	11550	214	-46.6	-74.7	273	21	
2025-08-02T00:00	11600	213	-46.8	-75.1	270	19	
2025-08-02T00:00	11650	211	-46.1	-75.7	264	19	
2025-08-02T00:00	11700	210	-46.0	-76.0	261	18	
2025-08-02T00:00	11750	208	-46.1	-76.5	261	17	
2025-08-02T00:00	11800	207	-45.9	-76.8	263	17	
2025-08-02T00:00	11850	205	-45.9	-77.0	263	17	
2025-08-02T00:00	11900	203	-45.8	-77.0	262	18	
2025-08-02T00:00	11950	202	-45.8	-76.8	260	19	
2025-08-02T00:00	12000	200	-46.0	-76.5	262	20	
2025-08-02T00:00	12050	199	-46.1	-76.3	266	21	
2025-08-02T00:00	12100	197	-45.8	-76.3	268	21	
2025-08-02T00:00	12150	196	-45.8	-76.7	268	21	
2025-08-02T00:00	12200	194	-46.0	-77.0	270	20	
2025-08-02T00:00	12250	193	-46.0	-77.2	272	19	
2025-08-02T00:00	12300	192	-46.3	-77.2	270	18	
2025-08-02T00:00	12350	190	-46.6	-77.2	269	18	
2025-08-02T00:00	12400	189	-46.5	-77.4	270	18	
2025-08-02T00:00	12450	187	-46.6	-77.4	272	18	
2025-08-02T00:00	12500	186	-46.8	-77.5	273	18	
2025-08-02T00:00	12550	184	-47.0	-77.6	273	18	
2025-08-02T00:00	12600	183	-47.2	-77.7	275	17	
2025-08-02T00:00	12650	182	-47.5	-77.8	277	17	
2025-08-02T00:00	12700	180	-47.6	-77.9	275	17	
2025-08-02T00:00	12750	179	-47.7	-78.0	274	17	
2025-08-02T00:00	12800	178	-48.0	-78.2	271	18	
2025-08-02T00:00	12850	176	-48.3	-78.2	269	18	
2025-08-02T00:00	12900	175	-48.7	-78.4	268	18	
2025-08-02T00:00	12950	174	-48.7	-78.5	270	17	
2025-08-02T00:00	13000	172	-48.8	-78.7	273	17	
2025-08-02T00:00	13050	171	-49.1	-78.8	274	16	
2025-08-02T00:00	13100	170	-49.3	-78.8	274	15	
2025-08-02T00:00	13150	168	-49.5	-79.0	272	14	
2025-08-02T00:00	13200	167	-49.8	-79.1	267	14	
2025-08-02T00:00	13250	166	-49.9	-79.3	263	14	
2025-08-02T00:00	13300	165	-50.1	-79.6	260	15	
2025-08-02T00:00	13350	163	-50.1	-79.7	259	16	
2025-08-02T00:00	13400	162	-50.2	-79.9	259	17	
2025-08-02T00:00	13450	161	-50.3	-80.1	261	17	
2025-08-02T00:00	13500	160	-49.9	-80.2	265	17	
2025-08-02T00:00	13550	158	-49.7	-80.3	269	18	
2025-08-02T00:00	13600	157	-49.7	-80.1	273	18	
2025-08-02T00:00	13650	156	-49.9	-80.1	276	18	
2025-08-02T00:00	13700	155	-49.8	-80.1	277	18	
2025-08-02T00:00	13750	154	-50.0	-80.2	280	18	
2025-08-02T00:00	13800	153	-50.3	-80.3	283	17	
2025-08-02T00:00	13850	151	-50.5	-80.4	284	16	
2025-08-02T00:00	13900	150	-50.7	-80.6	284	15	
2025-08-02T00:00	13950	149	-51.1	-80.6	283	14	
2025-08-02T00:00	14000	148	-51.0	-80.8	282	14	
2025-08-02T00:00	14050	147	-50.9	-80.9	280	14	
2025-08-02T00:00	14100	146	-50.6	-80.8	281	14	
2025-08-02T00:00	14150	145	-50.5	-80.9	285	14	
2025-08-02T00:00	14200	143	-50.5	-81.0	286	13	
2025-08-02T00:00	14250	142	-50.6	-81.0	283	13	
2025-08-02T00:00	14300	141	-50.6	-81.2	280	14	
2025-08-02T00:00	14350	140	-50.5	-81.2	280	15	
2025-08-02T00:00	14400	139	-50.3	-81.2	283	15	
2025-08-02T00:00	14450	138	-50.1	-81.1	284	15	
2025-08-02T00:00	14500	137	-50.2	-81.1	285	14	
2025-08-02T00:00	14550	136	-50.3	-81.1	285	13	
2025-08-02T00:00	14600	135	-50.5	-81.2	283	12	
2025-08-02T00:00	14650	134	-50.4	-81.4	279	12	
2025-08-02T00:00	14700	133	-50.2	-81.4	276	13	
2025-08-02T00:00	14750	132	-49.8	-81.2	274	13	
2025-08-02T00:00	14800	131	-50.0	-81.2	274	13	
2025-08-02T00:00	14850	130	-50.1	-81.4	274	12	
2025-08-02T00:00	14900	129	-50.1	-81.4	275	11	
2025-08-02T00:00	14950	128	-49.8	-81.4	280	10	
2025-08-02T00:00	15000	127	-49.6	-81.4	288	10	
2025-08-02T00:00	15050	126	-49.7	-81.3	296	9	
2025-08-02T00:00	15100	125	-50.0	-81.3	301	8	
2025-08-02T00:00	15150	124	-50.2	-81.5	305	6	
2025-08-02T00:00	15200	123	-50.4	-81.6	307	6	
2025-08-02T00:00	15250	122	-50.5	-81.6	306	6	
2025-08-02T00:00	15300	121	-50.7	-81.7	300	7	
2025-08-02T00:00	15350	120	-51.0	-81.7	292	8	
2025-08-02T00:00	15400	119	-51.3	-81.8	285	9	
2025-08-02T00:00	15450	118	-51.5	-81.9	276	9	
2025-08-02T00:00	15500	117	-51.6	-82.0	267	9	
2025-08-02T00:00	15550	117	-51.8	-82.1	262	10	
2025-08-02T00:00	15600	116	-51.9	-82.2	264	10	
2025-08-02T00:00	15650	115	-51.9	-82.3	266	10	
2025-08-02T00:00	15700	114	-51.8	-82.3	264	9	
2025-08-02T00:00	15750	113	-52.1	-82.2	260	8	
2025-08-02T00:00	15800	112	-52.3	-82.3	254	8	
2025-08-02T00:00	15850	111	-52.3	-82.4	251	10	
2025-08-02T00:00	15900	110	-52.3	-82.5	253	11	
2025-08-02T00:00	15950	110	-52.1	-82.6	255	11	
2025-08-02T00:00	16000	109	-51.9	-82.7	259	11	
2025-08-02T00:00	16050	108	-51.2	-82.5	266	10	
2025-08-02T00:00	16100	107	-51.1	-82.4	272	9	
2025-08-02T00:00	16150	106	-51.0	-82.4	275	8	
2025-08-02T00:00	16200	105	-50.8	-82.2	271	8	
2025-08-02T00:00	16250	105	-50.8	-82.3	261	8	
2025-08-02T00:00	16300	104	-50.4	-82.1	254	9	
2025-08-02T00:00	16350	103	-50.5	-82.1	250	9	
2025-08-02T00:00	16400	102	-50.9	-82.2	248	10	
2025-08-02T00:00	16450	101	-51.2	-82.2	250	10	
2025-08-02T00:00	16500	101	-51.5	-82.2	254	10	
2025-08-02T00:00	16550	100	-51.9	-82.4	260	10	
2025-08-02T00:00	16600	99	-52.0	-82.5	266	10	
2025-08-02T00:00	16650	98	-52.0	-82.6	272	10	
2025-08-02T00:00	16700	98	-52.1	-82.7	275	10	
2025-08-02T00:00	16750	97	-52.2	-82.7	278	10	
2025-08-02T00:00	16800	96	-52.5	-82.7	279	10	
2025-08-02T00:00	16850	95	-52.7	-82.9	279	10	
2025-08-02T00:00	16900	95	-52.8	-83.1	276	10	
2025-08-02T00:00	16950	94	-52.6	-83.0	273	9	
2025-08-02T00:00	17000	93	-52.9	-83.1	272	8	
2025-08-02T00:00	17050	92	-53.1	-83.1	277	7	
2025-08-02T00:00	17100	92	-53.3	-83.3	281	5	
2025-08-02T00:00	17150	91	-53.3	-83.5	278	4	
2025-08-02T00:00	17200	90	-52.9	-83.1	267	3	
2025-08-02T00:00	17250	90	-53.1	-83.2	255	2	
2025-08-02T00:00	17300	89	-53.5	-83.2	252	3	
2025-08-02T00:00	17350	88	-53.9	-83.3	252	4	
2025-08-02T00:00	17400	88	-54.2	-83.5	254	5	
2025-08-02T00:00	17450	87	-54.5	-83.7	258	6	
2025-08-02T00:00	17500	86	-54.6	-84.0	263	7	
2025-08-02T00:00	17550	86	-54.0	-83.8	269	7	
2025-08-02T00:00	17600	85	-53.8	-83.8	278	7	
2025-08-02T00:00	17650	84	-53.2	-83.6	290	7	
2025-08-02T00:00	17700	84	-53.3	-83.6	300	7	
2025-08-02T00:00	17750	83	-53.2	-83.5	304	7	
2025-08-02T00:00	17800	82	-53.3	-83.5	300	6	
2025-08-02T00:00	17850	82	-53.3	-83.4	295	5	
2025-08-02T00:00	17900	81	-53.5	-83.5	294	5	
2025-08-02T00:00	17950	80	-53.6	-83.5	293	5	
2025-08-02T00:00	18000	80	-53.8	-83.6	292	5	
2025-08-02T00:00	18050	79	-54.1	-83.7	290	6	
2025-08-02T00:00	18100	79	-54.3	-83.8	292	7	
2025-08-02T00:00	18150	78	-53.9	-83.9	298	8	
2025-08-02T00:00	18200	77	-53.4	-83.8	306	8	
2025-08-02T00:00	18250	77	-53.2	-83.9	317	9	
2025-08-02T00:00	18300	76	-52.3	-83.6	329	8	
2025-08-02T00:00	18350	76	-52.0	-83.4	341	8	
2025-08-02T00:00	18400	75	-52.1	-83.2	351	7	
2025-08-02T00:00	18450	74	-52.3	-83.1	359	7	
2025-08-02T00:00	18500	74	-52.6	-83.2	8	5	
2025-08-02T00:00	18550	73	-52.8	-83.3	18	4	
2025-08-02T00:00	18600	73	-52.6	-83.2	25	3	
2025-08-02T00:00	18650	72	-53.0	-83.3	29	2	
2025-08-02T00:00	18700	72	-53.4	-83.4	25	2	
2025-08-02T00:00	18750	71	-53.6	-83.6	9	2	
2025-08-02T00:00	18800	70	-53.6	-83.6	354	2	
2025-08-02T00:00	18850	70	-53.7	-83.7	350	3	
2025-08-02T00:00	18900	69	-53.9	-83.8	356	3	
2025-08-02T00:00	18950	69	-53.9	-83.8	14	2	
2025-08-02T00:00	19000	68	-54.0	-83.9	46	2	
2025-08-02T00:00	19050	68	-54.1	-84.0	71	3	
2025-08-02T00:00	19100	67	-54.2	-84.0	80	4	
2025-08-02T00:00	19150	67	-54.3	-84.0	84	4	
2025-08-02T00:00	19200	66	-54.6	-84.1	85	5	
2025-08-02T00:00	19250	66	-54.8	-84.2	76	4	
2025-08-02T00:00	19300	65	-54.5	-84.1	50	3	
2025-08-02T00:00	19350	65	-54.6	-84.3	27	3	
2025-08-02T00:00	19400	64	-54.5	-84.3	23	2	
2025-08-02T00:00	19450	64	-54.2	-84.3	20	2	
2025-08-02T00:00	19500	63	-54.2	-84.3	2	2	
2025-08-02T00:00	19550	63	-54.0	-84.3	360	3	
2025-08-02T00:00	19600	62	-53.7	-84.3	15	3	
2025-08-02T00:00	19650	62	-53.4	-84.2	37	5	
2025-08-02T00:00	19700	61	-52.8	-83.9	54	6	
2025-08-02T00:00	19750	61	-52.8	-83.7	64	6	
2025-08-02T00:00	19800	60	-53.2	-83.7	72	6	
2025-08-02T00:00	19850	60	-53.5	-83.8	79	6	
2025-08-02T00:00	19900	59	-53.7	-83.8	87	6	
2025-08-02T00:00	19950	59	-53.8	-83.9	97	6	
2025-08-02T00:00	20000	58	-53.7	-83.9	100	5	
2025-08-02T00:00	20050	58	-53.8		97	4	
2025-08-02T00:00	20100	58	-53.2		101	4	
2025-08-02T00:00	20150	57	-53.1		105	4	
2025-08-02T00:00	20200	57	-53.1		101	4	
2025-08-02T00:00	20250	56	-52.6		92	4	
2025-08-02T00:00	20300	56	-51.9		84	3	
2025-08-02T00:00	20350	55	-51.5		74	3	
2025-08-02T00:00	20400	55	-51.6		59	2	
2025-08-02T00:00	20450	55	-51.7		51	2	
2025-08-02T00:00	20500	54	-51.9		52	2	
2025-08-02T00:00	20550	54	-52.1		55	3	
2025-08-02T00:00	20600	53	-52.2		58	4	
2025-08-02T00:00	20650	53	-52.3		61	5	
2025-08-02T00:00	20700	52	-52.6		64	7	
2025-08-02T00:00	20750	52	-52.9		67	9	
2025-08-02T00:00	20800	52	-53.1		72	10	
2025-08-02T00:00	20850	51	-53.3		76	10	
2025-08-02T00:00	20900	51	-53.1		80	10	
2025-08-02T00:00	20950	50	-53.1		83	8	
2025-08-02T00:00	21000	50	-52.9		86	7	
2025-08-02T00:00	21050	50	-52.9		90	6	
2025-08-02T00:00	21100	49	-52.7		92	7	
2025-08-02T00:00	21150	49	-52.8		95	8	
2025-08-02T00:00	21200	49	-53.0		101	9	
2025-08-02T00:00	21250	48	-52.7		109	9	
2025-08-02T00:00	21300	48	-52.6		116	9	
2025-08-02T00:00	21350	47	-52.4		122	9	
2025-08-02T00:00	21400	47	-52.4		127	9	
2025-08-02T00:00	21450	47	-52.5		135	9	
2025-08-02T00:00	21500	46	-52.6		145	8	
2025-08-02T00:00	21550	46	-52.7		154	7	
2025-08-02T00:00	21600	46	-52.5		161	5	
2025-08-02T00:00	21650	45	-52.2		164	3	
2025-08-02T00:00	21700	45	-52.2		139	1	
2025-08-02T00:00	21750	45	-52.2		72	2	
2025-08-02T00:00	21800	44	-51.8		69	4	
2025-08-02T00:00	21850	44	-51.7		77	5	
2025-08-02T00:00	21900	44	-51.9		84	7	
2025-08-02T00:00	21950	43	-51.9		92	8	
2025-08-02T00:00	22000	43	-51.9		102	8	
2025-08-02T00:00	22050	43	-51.8		111	8	
2025-08-02T00:00	22100	42	-51.6		121	7	
2025-08-02T00:00	22150	42	-51.6		127	7	
2025-08-02T00:00	22200	42	-51.7		125	7	
2025-08-02T00:00	22250	41	-51.5		121	7	
2025-08-02T00:00	22300	41	-51.6		120	7	
2025-08-02T00:00	22350	41	-51.7		120	7	
2025-08-02T00:00	22400	40	-51.6		119	7	
2025-08-02T00:00	22450	40	-51.6		119	7	
2025-08-02T00:00	22500	40	-51.7		123	7	
2025-08-02T00:00	22550	39	-51.5		130	7	
2025-08-02T00:00	22600	39	-51.5		138	8	
2025-08-02T00:00	22650	39	-51.5		141	7	
2025-08-02T00:00	22700	38	-51.2		139	6	
2025-08-02T00:00	22750	38	-51.0		133	5	
2025-08-02T00:00	22800	38	-50.7		128	4	
2025-08-02T00:00	22850	38	-50.7		125	4	
2025-08-02T00:00	22900	37	-50.7		126	5	
2025-08-02T00:00	22950	37	-50.4		136	4	
2025-08-02T00:00	23000	37	-50.1		156	4	
2025-08-02T00:00	23050	36	-50.1		177	3	
2025-08-02T00:00	23100	36	-49.9		192	2	
2025-08-02T00:00	23150	36	-49.9		205	1	
2025-08-02T00:00	23200	36	-50.0		269	0	
2025-08-02T00:00	23250	35	-50.2		6	1	
2025-08-02T00:00	23300	35	-50.6		26	2	
2025-08-02T00:00	23350	35	-50.6		45	3	
2025-08-02T00:00	23400	35	-50.7		60	4	
2025-08-02T00:00	23450	34	-50.6		67	4	
2025-08-02T00:00	23500	34	-50.4		66	5	
2025-08-02T00:00	23550	34	-50.2		64	5	
2025-08-02T00:00	23600	34	-50.0		62	5	
2025-08-02T00:00	23650	33	-49.9		59	6	
2025-08-02T00:00	23700	33	-49.9		60	6	
2025-08-02T00:00	23750	33	-50.0		66	7	
2025-08-02T00:00	23800	33	-50.2		76	8	
2025-08-02T00:00	23850	32	-50.3		85	9	
2025-08-02T00:00	23900	32	-50.5		92	10	
2025-08-02T00:00	23950	32	-50.6		100	10	
2025-08-02T00:00	24000	32	-50.5		107	10	
2025-08-02T00:00	24050	31	-50.7		116	9	
2025-08-02T00:00	24100	31	-50.8		123	9	
2025-08-02T00:00	24150	31	-51.2		127	9	
2025-08-02T00:00	24200	31	-51.1		126	8	
2025-08-02T00:00	24250	30	-51.0		123	8	
2025-08-02T00:00	24300	30	-50.8		122	7	
2025-08-02T00:00	24350	30	-50.7		125	6	
2025-08-02T00:00	24400	30	-50.6		125	5	
2025-08-02T00:00	24450	29	-50.6		113	4	
2025-08-02T00:00	24500	29	-50.4		96	4	
2025-08-02T00:00	24550	29	-50.2		90	5	
2025-08-02T00:00	24600	29	-50.2		93	6	
2025-08-02T00:00	24650	29	-50.3		97	7	
2025-08-02T00:00	24700	28	-50.4		99	7	
2025-08-02T00:00	24750	28	-50.4		97	7	
2025-08-02T00:00	24800	28	-50.5		95	7	
2025-08-02T00:00	24850	28	-50.5		97	8	
2025-08-02T00:00	24900	27	-50.4		102	9	
2025-08-02T00:00	24950	27	-50.2		106	9	
2025-08-02T00:00	25000	27	-49.7		102	8	
2025-08-02T00:00	25050	27	-49.4		93	8	
2025-08-02T00:00	25100	27	-49.3		83	8	
2025-08-02T00:00	25150	26	-49.2		78	9	
2025-08-02T00:00	25200	26	-49.1		78	11	
2025-08-02T00:00	25250	26	-48.8		83	12	
2025-08-02T00:00	25300	26	-48.6		89	13	
2025-08-02T00:00	25350	26	-48.4		92	13	
2025-08-02T00:00	25400	25	-48.1		93	12	
2025-08-02T00:00	25450	25	-48.2		91	11	
2025-08-02T00:00	25500	25	-48.3		87	11	
2025-08-02T00:00	25550	25	-48.2		84	11	
2025-08-02T00:00	25600	25	-48.1		84	12	
2025-08-02T00:00	25650	25	-48.3		85	11	
2025-08-02T00:00	25700	24	-48.3		87	10	
2025-08-02T00:00	25750	24	-48.3		88	9	
2025-08-02T00:00	25800	24	-48.3		89	9	
2025-08-02T00:00	25850	24	-48.4		88	8	
2025-08-02T00:00	25900	24	-48.2		85	8	
2025-08-02T00:00	25950	23	-48.1		81	9	
2025-08-02T00:00	26000	23	-48.1		79	10	
2025-08-02T00:00	26050	23	-48.1		81	11	
2025-08-02T00:00	26100	23	-48.1		84	12	
2025-08-02T00:00	26150	23	-47.9		87	13	
2025-08-02T00:00	26200	23	-48.0		91	13	
2025-08-02T00:00	26250	22	-48.1		94	14	
2025-08-02T00:00	26300	22	-48.1		99	14	
2025-08-02T00:00	26350	22	-48.1		105	14	
2025-08-02T00:00	26400	22	-48.1		110	14	
2025-08-02T00:00	26450	22	-48.1		112	13	
2025-08-02T00:00	26500	22	-47.9		110	12	
2025-08-02T00:00	26550	21	-47.9		105	10	
2025-08-02T00:00	26600	21	-47.8		97	9	
2025-08-02T00:00	26650	21	-47.5		88	9	
2025-08-02T00:00	26700	21	-47.4		80	9	
2025-08-02T00:00	26750	21	-47.4		74	10	
2025-08-02T00:00	26800	21	-47.5		73	11	
2025-08-02T00:00	26850	20	-47.4		75	12	
2025-08-02T00:00	26900	20	-47.2		80	13	
2025-08-02T00:00	26950	20	-47.2		87	14	
2025-08-02T00:00	27000	20	-47.3		93	14	
2025-08-02T00:00	27050	20	-47.3		99	13	
2025-08-02T00:00	27100	20	-47.4		103	13	
2025-08-02T00:00	27150	20	-47.3		105	12	
2025-08-02T00:00	27200	19	-46.9		102	12	
2025-08-02T00:00	27250	19	-46.5		96	11	
2025-08-02T00:00	27300	19	-46.2		89	11	
2025-08-02T00:00	27350	19	-45.8		83	12	
2025-08-02T00:00	27400	19	-45.7		83	12	
2025-08-02T00:00	27450	19	-45.7		89	12	
2025-08-02T00:00	27500	19	-45.8		97	12	
2025-08-02T00:00	27550	18	-45.8		105	12	
2025-08-02T00:00	27600	18	-45.7		111	13	
2025-08-02T00:00	27650	18	-45.3		115	13	
2025-08-02T00:00	27700	18	-45.0		117	12	
2025-08-02T00:00	27750	18	-45.0		117	11	
2025-08-02T00:00	27800	18	-44.9		117	10	
2025-08-02T00:00	27850	18	-44.9		118	9	
2025-08-02T00:00	27900	17	-44.8		117	9	
2025-08-02T00:00	27950	17	-44.8		114	8	
2025-08-02T00:00	28000	17	-44.6		109	8	
2025-08-02T00:00	28050	17	-44.4		103	8	
2025-08-02T00:00	28100	17	-44.4		97	9	
2025-08-02T00:00	28150	17	-44.3		94	10	
2025-08-02T00:00	28200	17	-44.2		93	10	
2025-08-02T00:00	28250	17	-44.1		97	10	
2025-08-02T00:00	28300	16	-43.9		103	10	
2025-08-02T00:00	28350	16	-43.9		109	11	
2025-08-02T00:00	28400	16	-43.9		112	11	
2025-08-02T00:00	28450	16	-43.7		111	11	
2025-08-02T00:00	28500	16	-43.4		107	11	
2025-08-02T00:00	28550	16	-43.4		103	10	
2025-08-02T00:00	28600	16	-43.5		101	10	
2025-08-02T00:00	28650	16	-43.6		102	10	
2025-08-02T00:00	28700	15	-43.9		102	10	
2025-08-02T00:00	28750	15	-44.0		102	11	
2025-08-02T00:00	28800	15	-44.0		102	11	
2025-08-02T00:00	28850	15	-44.0		103	11	
2025-08-02T00:00	28900	15	-44.2		104	10	
2025-08-02T00:00	28950	15	-44.1		105	10	
2025-08-02T00:00	29000	15	-43.9		106	11	
2025-08-02T00:00	29050	15	-43.8		110	11	
2025-08-02T00:00	29100	15	-43.9		116	11	
2025-08-02T00:00	29150	14	-43.9		120	11	
2025-08-02T00:00	29200	14	-43.9		121	10	
2025-08-02T00:00	29250	14	-43.9		118	9	
2025-08-02T00:00	29300	14	-43.7		116	9	
2025-08-02T00:00	29350	14	-43.5		119	9	
2025-08-02T00:00	29400	14	-43.4		125	8	
2025-08-02T00:00	29450	14	-43.2		129	7	
2025-08-02T00:00	29500	14	-42.7		130	7	
2025-08-02T00:00	29550	14	-42.3		125	6	
2025-08-02T00:00	29600	14	-42.0		117	6	
2025-08-02T00:00	29650	13	-41.7		107	5	
2025-08-02T00:00	29700	13	-41.5		95	5	
2025-08-02T00:00	29750	13	-41.4		86	6	
2025-08-02T00:00	29800	13	-41.3		81	6	
2025-08-02T00:00	29850	13	-41.4		78	6	
2025-08-02T00:00	29900	13	-41.6		79	6	
2025-08-02T00:00	29950	13	-41.5		81	7	
2025-08-02T00:00	30000	13	-41.3		83	8	
2025-08-02T00:00	30050	13	-41.3		85	8	
2025-08-02T00:00	30100	13	-41.4		88	9	
2025-08-02T00:00	30150	12	-41.3		90	9	
2025-08-02T00:00	30200	12	-41.1		91	9	
2025-08-02T00:00	30250	12	-41.0		92	9	
2025-08-02T00:00	30300	12	-40.8		94	8	
2025-08-02T00:00	30350	12	-40.8		97	7	
2025-08-02T00:00	30400	12	-40.9		98	7	
2025-08-02T00:00	30450	12	-41.0		95	7	
2025-08-02T00:00	30500	12	-41.1		89	7	
2025-08-02T00:00	30550	12	-40.9		83	8	
2025-08-02T00:00	30600	12	-40.8		80	9	
2025-08-02T00:00	30650	12	-40.4		81	10	
2025-08-02T00:00	30700	12	-40.2		83	10	
2025-08-02T00:00	30750	11	-40.1		85	10	
2025-08-02T00:00	30800	11	-40.1		86	10	
2025-08-02T00:00	30850	11	-40.2		83	11	
2025-08-02T00:00	30900	11	-40.2		79	12	
2025-08-02T00:00	30950	11	-40.1		78	12	
2025-08-02T00:00	31000	11	-40.0		82	12	
2025-08-02T00:00	31050	11	-39.8		88	12	
2025-08-02T00:00	31100	11	-39.7		92	11	
2025-08-02T00:00	31150	11	-39.7		91	12	
2025-08-02T00:00	31200	11	-39.4		89	12	
2025-08-02T00:00	31250	11	-39.3		88	11	
2025-08-02T00:00	31300	11	-39.1		86	11	
2025-08-02T00:00	31350	10	-38.9		83	10	
2025-08-02T00:00	31400	10	-38.9		79	10	
2025-08-02T00:00	31450	10	-38.9		75	10	
2025-08-02T00:00	31500	10	-38.8		73	10	
2025-08-02T00:00	31550	10	-38.6		73	10	
2025-08-02T00:00	31600	10	-38.7		75	10	
2025-08-02T00:00	31650	10	-38.9		76	11	
2025-08-02T00:00	31700	10	-39.0		76	11	
2025-08-02T00:00	31750	10	-38.9		74	12	
2025-08-02T00:00	31800	10	-38.8		73	13	
2025-08-02T00:00	31850	10	-38.9		71	13	
2025-08-02T00:00	31900	10	-39.0		68	14	
2025-08-02T00:00	31950	10	-39.0		66	15	
2025-08-02T00:00	32000	10	-39.2		65	16	
2025-08-02T00:00	32050	9	-39.3		66	17	
2025-08-02T00:00	32100	9	-39.2		69	18	
2025-08-02T00:00	32150	9	-39.2		73	18	
2025-08-02T00:00	32200	9	-39.0		80	18	
2025-08-02T00:00	32250	9	-38.9		86	18	
2025-08-02T00:00	32300	9	-38.8		90	18	
2025-08-02T00:00	32350	9	-38.7		93	17	
2025-08-02T00:00	32400	9	-38.4		93	17	
2025-08-02T00:00	32450	9	-38.3		93	16	
2025-08-02T00:00	32500	9	-38.2		93	16	
2025-08-02T00:00	32550	9	-38.2		91	16	
2025-08-02T00:00	32600	9	-37.9		89	17	
2025-08-02T00:00	32650	9	-37.8		90	18	
2025-08-02T00:00	32700	9	-37.6		91	18	
2025-08-02T00:00	32750	9	-37.4		93	18	
2025-08-02T00:00	32800	8	-37.3		95	17	
2025-08-02T00:00	32850	8	-37.2		97	16	
2025-08-02T00:00	32900	8	-37.1		97	16	
2025-08-02T00:00	32950	8	-37.2		94	16	
2025-08-02T00:00	33000	8	-37.0		91	16	
2025-08-02T00:00	33050	8	-37.0		88	17	
2025-08-02T00:00	33100	8	-36.8		86	18	
2025-08-02T00:00	33150	8	-36.6		86	19	
2025-08-02T00:00	33200	8	-36.6		88	19	
2025-08-02T00:00	33250	8	-36.5		92	18	
2025-08-02T00:00	33300	8	-36.6		95	18	
2025-08-02T00:00	33350	8	-36.5		97	17	
2025-08-02T00:00	33400	8	-36.3		98	16	
2025-08-02T00:00	33450	8	-36.3		97	15	
2025-08-02T00:00	33500	8	-36.4		96	15	
2025-08-02T00:00	33550	8	-36.5		94	14	
2025-08-02T00:00	33600	8	-36.5		96	13	
2025-08-02T00:00	33650	7	-36.6		99	13	
2025-08-02T00:00	33700	7	-36.5		103	13	
2025-08-02T00:00	33750	7	-36.5		102	13	
2025-08-02T00:00	33800	7	-36.2		99	14	
2025-08-02T00:00	33850	7	-36.0		95	15	
2025-08-02T00:00	33900	7	-35.8		93	15	
2025-08-02T00:00	33950	7	-35.6		92	15	
2025-08-02T00:00	34000	7	-35.7		91	14	
2025-08-02T00:00	34050	7	-35.8		89	15	
2025-08-02T00:00	34100	7	-35.7		87	15	
2025-08-02T00:00	34150	7	-35.3		87	16	
2025-08-02T00:00	34200	7	-35.1		91	16	
2025-08-02T00:00	34250	7	-34.8		95	15	
2025-08-02T00:00	34300	7	-34.4		95	15	
2025-08-02T00:00	34350	7	-33.6		90	14	
2025-08-02T00:00	34400	7	-33.0		83	14	
2025-08-02T00:00	34450	7	-32.5		79	14	
2025-08-02T00:00	34500	7	-32.2		81	14	
2025-08-02T00:00	34550	7	-31.8		85	15	
2025-08-02T00:00	34600	7	-31.6		89	14	
2025-08-02T00:00	34650	6	-31.6		89	14	
2025-08-02T00:00	34700	6	-31.4		86	13	
2025-08-02T00:00	34750	6	-31.2		83	13	
2025-08-02T00:00	34800	6	-31.1		82	13	
2025-08-02T00:00	34850	6	-31.1		83	14	
2025-08-02T00:00	34900	6	-31.1		86	15	
2025-08-02T00:00	34950	6	-30.9		89	16	
2025-08-02T00:00	35000	6	-30.5		90	16	
2025-08-02T00:00	35050	6	-30.2		91	15	
2025-08-02T00:00	35100	6	-30.2		92	15	
2025-08-02T00:00	35150	6	-30.1		95	15	
2025-08-02T00:00	35200	6	-29.8		98	15	
2025-08-02T00:00	35250	6	-29.5		101	14	
2025-08-02T00:00	35300	6	-29.7		104	14	
2025-08-02T00:00	35350	6	-30.1		105	13	
2025-08-02T00:00	35400	6	-30.4		101	12	
2025-08-02T00:00	35450	6	-30.5		93	11	
2025-08-02T00:00	35500	6	-30.2		83	10	
2025-08-02T00:00	35550	6	-30.1		74	10	
2025-08-02T00:00	35600	6	-30.2		68	11	
2025-08-02T00:00	35650	6	-30.3		64	12	
2025-08-02T00:00	35700	6	-30.2		64	13	
2025-08-02T00:00	35750	6	-29.9		67	15	
2025-08-02T00:00	35800	6	-29.9		72	17	
2025-08-02T00:00	35850	5	-30.1		77	18	
2025-08-02T00:00	35900	5	-30.1		83	19	
2025-08-02T00:00	35950	5	-30.0		87	19	
2025-08-02T00:00	36000	5	-29.6		89	18	
2025-08-02T00:00	36050	5	-29.5		90	17	
2025-08-02T00:00	36100	5	-29.3		88	16	
2025-08-02T00:00	36150	5	-29.0		85	16	
2025-08-02T00:00	36200	5	-28.5		83	16	
2025-08-02T00:00	36250	5	-28.3		82	16	
2025-08-02T00:00	36300	5	-28.1		83	17	
2025-08-02T00:00	36350	5	-27.7		83	18	
2025-08-02T00:00	36400	5	-27.4		84	18	
2025-08-02T00:00	36450	5	-27.1		86	17	
2025-08-02T00:00	36500	5	-27.0		89	16	
2025-08-02T00:00	36550	5	-26.9		92	15	
2025-08-02T00:00	36600	5	-27.1		93	14	
2025-08-02T00:00	36650	5	-27.2		89	13	
2025-08-02T00:00	36700	5	-26.9		83	14	
2025-08-02T00:00	36750	5	-26.7		77	15	
2025-08-02T00:00	36800	5	-26.4		74	17	
2025-08-02T00:00	36850	5	-25.9		75	19	
2025-08-02T00:00	36900	5	-25.5		76	21	
2025-08-02T00:00	36950	5	-24.8		77	23	
2025-08-02T00:00	37000	5	-24.5		78	25	
2025-08-02T00:00	37050	5	-24.2		80	26	
2025-08-02T00:00	37100	5	-23.9		81	26	
2025-08-02T00:00	37150	5	-24.3		80	25	
2025-08-02T00:00	37200	5	-24.7		79	24	
2025-08-02T00:00	37250	5	-25.0		78	23	
2025-08-02T12:00	491	958	19.4	8.1	326	2	
2025-08-02T12:00	501	956	19.6	8.2	9	0	
2025-08-02T12:00	520	955	18.3	8.0	45	0	
2025-08-02T12:00	540	952	18.2	7.8	344	0	
2025-08-02T12:00	560	950	17.9	7.6	301	0	
2025-08-02T12:00	580	948	17.8	7.6	285	1	
2025-08-02T12:00	600	946	17.6	7.5	279	1	
2025-08-02T12:00	620	944	17.4	7.6	276	1	
2025-08-02T12:00	640	941	17.1	7.5	276	1	
2025-08-02T12:00	660	939	16.9	7.5	279	1	
2025-08-02T12:00	680	937	16.7	7.6	286	1	
2025-08-02T12:00	700	934	16.5	7.5	292	1	
2025-08-02T12:00	720	932	16.3	7.3	295	1	
2025-08-02T12:00	740	930	16.1	7.2	294	1	
2025-08-02T12:00	760	928	16.0	7.3	290	1	
2025-08-02T12:00	780	926	15.7	7.2	281	1	
2025-08-02T12:00	800	924	15.5	7.2	270	1	
2025-08-02T12:00	820	922	15.4	7.3	258	1	
2025-08-02T12:00	840	919	15.2	7.3	248	1	
2025-08-02T12:00	860	917	15.0	7.1	241	2	
2025-08-02T12:00	880	915	14.8	7.1	242	2	
2025-08-02T12:00	900	913	14.6	7.1	246	2	
2025-08-02T12:00	920	911	14.4	7.0	250	2	
2025-08-02T12:00	940	908	14.2	7.0	254	3	
2025-08-02T12:00	960	906	14.0	6.9	257	3	
2025-08-02T12:00	980	904	13.9	7.0	258	3	
2025-08-02T12:00	1000	902	13.7	7.0	255	3	
2025-08-02T12:00	1020	900	13.5	7.0	247	4	
2025-08-02T12:00	1040	898	13.3	6.9	234	4	
2025-08-02T12:00	1060	896	13.1	6.8	227	4	
2025-08-02T12:00	1080	894	12.9	6.7	227	4	
2025-08-02T12:00	1100	892	12.7	6.7	234	3	
2025-08-02T12:00	1120	889	12.5	6.6	242	3	
2025-08-02T12:00	1140	887	12.4	6.5	251	2	
2025-08-02T12:00	1160	885	12.2	6.5	259	2	
2025-08-02T12:00	1180	883	12.0	6.4	260	2	
2025-08-02T12:00	1200	881	11.8	6.4	257	3	
2025-08-02T12:00	1220	879	11.6	6.4	253	3	
2025-08-02T12:00	1240	877	11.4	6.3	252	3	
2025-08-02T12:00	1260	875	11.2	6.2	253	3	
2025-08-02T12:00	1280	872	11.0	6.2	258	3	
2025-08-02T12:00	1300	870	10.8	6.2	263	3	
2025-08-02T12:00	1320	868	10.7	6.0	267	3	
2025-08-02T12:00	1340	866	10.5	6.0	270	3	
2025-08-02T12:00	1360	864	10.3	5.8	273	3	
2025-08-02T12:00	1380	862	10.1	5.7	273	3	
2025-08-02T12:00	1400	860	10.0	5.6	270	3	
2025-08-02T12:00	1420	858	9.7	5.8	263	3	
2025-08-02T12:00	1440	856	9.6	5.7	257	3	
2025-08-02T12:00	1460	854	9.4	6.0	252	3	
2025-08-02T12:00	1480	852	9.2	5.9	250	3	
2025-08-02T12:00	1500	850	9.0	5.9	247	3	
2025-08-02T12:00	1520	848	8.9	5.3	246	3	
2025-08-02T12:00	1540	846	8.8	5.2	244	3	
2025-08-02T12:00	1560	844	8.6	5.1	242	3	
2025-08-02T12:00	1580	842	8.4	5.0	239	2	
2025-08-02T12:00	1600	840	8.3	4.8	235	2	
2025-08-02T12:00	1620	838	8.1	4.7	231	2	
2025-08-02T12:00	1640	836	7.8	4.9	227	2	
2025-08-02T12:00	1660	834	7.6	4.9	226	2	
2025-08-02T12:00	1680	831	7.3	4.9	229	2	
2025-08-02T12:00	1700	829	7.1	4.9	236	2	
2025-08-02T12:00	1720	827	6.9	4.8	246	2	
2025-08-02T12:00	1740	825	6.7	4.8	258	2	
2025-08-02T12:00	1760	823	6.7	4.5	269	2	
2025-08-02T12:00	1780	821	6.5	4.1	274	2	
2025-08-02T12:00	1800	819	6.5	3.4	276	2	
2025-08-02T12:00	1820	817	6.3	3.6	274	3	
2025-08-02T12:00	1840	815	6.2	3.3	269	3	
2025-08-02T12:00	1860	813	6.0	3.3	265	3	
2025-08-02T12:00	1880	811	5.8	3.2	262	3	
2025-08-02T12:00	1900	809	5.6	3.0	262	4	
2025-08-02T12:00	1920	807	5.5	2.8	263	4	
2025-08-02T12:00	1940	805	5.3	2.5	264	4	
2025-08-02T12:00	1960	804	5.2	2.4	266	4	
2025-08-02T12:00	1980	802	5.1	2.2	267	4	
2025-08-02T12:00	2000	800	4.9	2.5	265	4	
2025-08-02T12:00	2020	798	4.7	2.5	258	4	
2025-08-02T12:00	2040	796	4.4	2.4	248	4	
2025-08-02T12:00	2060	794	4.3	2.2	238	4	
2025-08-02T12:00	2080	792	4.1	2.3	229	4	
2025-08-02T12:00	2100	790	4.0	1.6	225	4	
2025-08-02T12:00	2120	788	4.0	1.0	224	4	
2025-08-02T12:00	2140	786	3.9	0.5	224	3	
2025-08-02T12:00	2160	784	3.5	1.4	225	3	
2025-08-02T12:00	2180	782	3.4	0.9	231	2	
2025-08-02T12:00	2200	780	3.3	0.8	250	2	
2025-08-02T12:00	2220	778	3.2	0.5	279	2	
2025-08-02T12:00	2240	776	2.8	1.1	293	2	
2025-08-02T12:00	2260	775	2.6	1.3	297	3	
2025-08-02T12:00	2280	773	2.4	0.9	291	3	
2025-08-02T12:00	2300	771	2.4	0.3	282	3	
2025-08-02T12:00	2320	769	2.0	1.2	272	3	
2025-08-02T12:00	2340	767	1.9	0.8	265	4	
2025-08-02T12:00	2360	765	2.0	0.1	262	4	
2025-08-02T12:00	2380	763	1.7	0.5	260	4	
2025-08-02T12:00	2400	761	1.4	0.7	260	4	
2025-08-02T12:00	2420	759	1.2	0.8	261	3	
2025-08-02T12:00	2440	757	1.0	0.8	265	3	
2025-08-02T12:00	2460	755	1.0	0.0	269	4	
2025-08-02T12:00	2480	754	1.4	-1.1	272	4	
2025-08-02T12:00	2500	752	1.3	-1.6	271	4	
2025-08-02T12:00	2520	750	1.4	-1.8	263	4	
2025-08-02T12:00	2540	748	1.1	-1.5	259	4	
2025-08-02T12:00	2560	746	0.8	-2.0	260	4	
2025-08-02T12:00	2580	744	0.7	-2.1	265	3	
2025-08-02T12:00	2600	742	0.6	-2.4	271	3	
2025-08-02T12:00	2620	740	0.4	-1.0	276	3	
2025-08-02T12:00	2640	739	0.1	-2.0	279	3	
2025-08-02T12:00	2660	737	0.0	-2.5	281	3	
2025-08-02T12:00	2680	735	0.2	-3.2	281	3	
2025-08-02T12:00	2700	733	0.0	-3.7	279	4	
2025-08-02T12:00	2720	731	-0.2	-2.9	275	4	
2025-08-02T12:00	2740	730	-0.6	-2.7	272	4	
2025-08-02T12:00	2760	728	-0.8	-2.8	270	4	
2025-08-02T12:00	2780	726	-0.8	-3.2	267	4	
2025-08-02T12:00	2800	724	-1.1	-1.9	266	5	
2025-08-02T12:00	2820	722	-1.3	-2.4	266	5	
2025-08-02T12:00	2840	720	-1.6	-3.2	267	5	
2025-08-02T12:00	2860	719	-1.1	-5.3	267	5	
2025-08-02T12:00	2880	717	-1.0	-5.7	267	6	
2025-08-02T12:00	2900	715	-1.3	-4.1	267	6	
2025-08-02T12:00	2920	713	-1.4	-6.0	266	6	
2025-08-02T12:00	2940	712	-1.4	-6.6	267	6	
2025-08-02T12:00	2960	710	-1.6	-4.7	268	6	
2025-08-02T12:00	2980	708	-1.7	-4.0	269	7	
2025-08-02T12:00	3000	706	-1.8	-7.6	269	7	
2025-08-02T12:00	3020	704	-2.2	-5.9	270	7	
2025-08-02T12:00	3040	703	-2.5	-6.4	271	7	
2025-08-02T12:00	3060	701	-2.5	-5.4	271	7	
2025-08-02T12:00	3080	699	-2.7	-4.3	273	7	
2025-08-02T12:00	3100	697	-2.9	-5.5	275	7	
2025-08-02T12:00	3120	696	-2.7	-8.5	279	8	
2025-08-02T12:00	3140	694	-2.3	-13.2	283	8	
2025-08-02T12:00	3160	692	-1.9	-18.5	288	8	
2025-08-02T12:00	3180	690	-2.0	-20.0	293	9	
2025-08-02T12:00	3200	689	-2.1	-20.2	296	9	
2025-08-02T12:00	3220	687	-2.2	-21.6	299	9	
2025-08-02T12:00	3240	685	-2.4	-20.5	300	9	
2025-08-02T12:00	3260	683	-2.7	-19.9	300	9	
2025-08-02T12:00	3280	682	-2.9	-20.9	299	9	
2025-08-02T12:00	3300	680	-3.0	-21.1	298	9	
2025-08-02T12:00	3320	678	-3.2	-23.8	296	8	
2025-08-02T12:00	3340	676	-3.4	-23.2	295	8	
2025-08-02T12:00	3360	675	-3.6	-22.2	294	8	
2025-08-02T12:00	3380	673	-3.9	-18.8	294	8	
2025-08-02T12:00	3400	671	-4.1	-20.4	294	8	
2025-08-02T12:00	3420	670	-4.4	-14.7	295	8	
2025-08-02T12:00	3440	668	-4.7	-12.0	296	8	
2025-08-02T12:00	3460	666	-4.9	-10.2	297	8	
2025-08-02T12:00	3480	665	-5.1	-8.4	297	8	
2025-08-02T12:00	3500	663	-5.3	-10.3	297	8	
2025-08-02T12:00	3520	661	-5.5	-14.4	296	8	
2025-08-02T12:00	3540	660	-5.6	-14.7	295	8	
2025-08-02T12:00	3560	658	-5.6	-17.5	294	8	
2025-08-02T12:00	3580	656	-5.7	-20.4	293	9	
2025-08-02T12:00	3600	654	-5.7	-19.0	293	9	
2025-08-02T12:00	3620	653	-5.6	-15.7	293	9	
2025-08-02T12:00	3640	651	-5.7	-15.0	292	9	
2025-08-02T12:00	3660	650	-5.9	-15.2	290	9	
2025-08-02T12:00	3680	648	-6.0	-15.2	287	8	
2025-08-02T12:00	3700	646	-6.1	-15.0	285	8	
2025-08-02T12:00	3720	645	-6.2	-15.5	283	7	
2025-08-02T12:00	3740	643	-6.3	-16.2	281	7	
2025-08-02T12:00	3760	641	-6.4	-17.8	280	7	
2025-08-02T12:00	3780	640	-6.5	-17.2	280	6	
2025-08-02T12:00	3800	638	-6.6	-16.5	280	6	
2025-08-02T12:00	3820	636	-6.7	-16.3	281	6	
2025-08-02T12:00	3840	635	-6.9	-16.3	281	6	
2025-08-02T12:00	3860	633	-6.9	-17.2	282	6	
2025-08-02T12:00	3880	632	-7.0	-17.2	283	6	
2025-08-02T12:00	3900	630	-7.2	-16.8	284	6	
2025-08-02T12:00	3920	628	-7.4	-16.5	286	6	
2025-08-02T12:00	3940	627	-7.5	-16.4	289	5	
2025-08-02T12:00	3960	625	-7.7	-15.3	294	5	
2025-08-02T12:00	3980	623	-7.7	-13.3	299	6	
2025-08-02T12:00	4000	622	-7.5	-12.6	305	6	
2025-08-02T12:00	4020	620	-7.6	-12.4	311	7	
2025-08-02T12:00	4040	619	-7.7	-12.4	316	7	
2025-08-02T12:00	4060	617	-7.9	-12.5	322	8	
2025-08-02T12:00	4080	616	-8.0	-12.6	328	8	
2025-08-02T12:00	4100	614	-8.3	-12.6	331	9	
2025-08-02T12:00	4120	612	-8.4	-12.3	333	9	
2025-08-02T12:00	4140	611	-8.2	-13.4	334	9	
2025-08-02T12:00	4160	609	-8.2	-14.4	333	9	
2025-08-02T12:00	4180	608	-8.3	-15.2	331	9	
2025-08-02T12:00	4200	606	-8.4	-15.5	329	9	
2025-08-02T12:00	4220	605	-8.6	-15.6	328	9	
2025-08-02T12:00	4240	603	-8.7	-15.7	327	9	
2025-08-02T12:00	4260	602	-8.9	-16.0	327	9	
2025-08-02T12:00	4280	600	-9.1	-16.0	328	9	
2025-08-02T12:00	4300	598	-9.2	-16.3	330	9	
2025-08-02T12:00	4320	597	-9.2	-19.3	332	9	
2025-08-02T12:00	4340	595	-9.2	-20.6	334	9	
2025-08-02T12:00	4360	594	-9.3	-21.8	334	9	
2025-08-02T12:00	4380	592	-9.3	-22.9	335	9	
2025-08-02T12:00	4400	591	-9.4	-22.8	334	9	
2025-08-02T12:00	4420	589	-9.6	-22.1	334	9	
2025-08-02T12:00	4440	588	-9.8	-21.9	333	10	
2025-08-02T12:00	4460	586	-10.0	-18.9	332	10	
2025-08-02T12:00	4480	585	-10.2	-15.5	331	10	
2025-08-02T12:00	4500	583	-10.4	-13.6	330	9	
2025-08-02T12:00	4520	581	-10.5	-13.8	328	9	
2025-08-02T12:00	4540	580	-10.6	-13.9	326	9	
2025-08-02T12:00	4560	579	-10.7	-14.0	324	9	
2025-08-02T12:00	4580	577	-10.9	-14.4	322	9	
2025-08-02T12:00	4600	576	-11.0	-14.8	321	9	
2025-08-02T12:00	4620	574	-11.2	-14.8	319	9	
2025-08-02T12:00	4640	572	-11.4	-14.7	318	9	
2025-08-02T12:00	4660	571	-11.5	-14.9	317	9	
2025-08-02T12:00	4680	569	-11.5	-16.0	315	9	
2025-08-02T12:00	4700	568	-11.5	-16.9	314	10	
2025-08-02T12:00	4720	567	-11.5	-17.0	313	10	
2025-08-02T12:00	4740	565	-11.5	-16.8	312	10	
2025-08-02T12:00	4760	563	-11.6	-16.8	312	10	
2025-08-02T12:00	4780	562	-11.7	-17.1	314	10	
2025-08-02T12:00	4800	561	-11.8	-17.3	316	10	
2025-08-02T12:00	4820	559	-12.0	-17.7	319	10	
2025-08-02T12:00	4840	558	-12.1	-18.3	322	9	
2025-08-02T12:00	4860	556	-12.3	-18.9	326	9	
2025-08-02T12:00	4880	555	-12.4	-19.3	328	10	
2025-08-02T12:00	4900	553	-12.5	-23.6	330	10	
2025-08-02T12:00	4920	552	-12.5	-28.8	331	10	
2025-08-02T12:00	4940	550	-12.5	-33.3	332	10	
2025-08-02T12:00	4960	549	-12.5	-37.4	332	11	
2025-08-02T12:00	4980	548	-12.6	-38.0	331	11	
2025-08-02T12:00	5000	546	-12.6	-38.8	330	11	
2025-08-02T12:00	5020	545	-12.7	-38.9	329	12	
2025-08-02T12:00	5040	543	-12.8	-38.8	328	12	
2025-08-02T12:00	5060	542	-12.9	-39.2	328	12	
2025-08-02T12:00	5080	541	-13.1	-39.3	328	12	
2025-08-02T12:00	5100	539	-13.2	-39.4	328	12	
2025-08-02T12:00	5120	538	-13.3	-39.5	328	12	
2025-08-02T12:00	5140	536	-13.4	-39.3	328	12	
2025-08-02T12:00	5160	535	-13.6	-35.8	328	12	
2025-08-02T12:00	5180	533	-13.7	-31.5	327	12	
2025-08-02T12:00	5200	532	-13.8	-33.5	326	13	
2025-08-02T12:00	5220	531	-13.9	-34.1	325	13	
2025-08-02T12:00	5240	529	-14.0	-36.8	323	13	
2025-08-02T12:00	5260	528	-14.1	-38.2	322	13	
2025-08-02T12:00	5280	527	-14.2	-39.6	322	14	
2025-08-02T12:00	5300	525	-14.4	-39.7	321	14	
2025-08-02T12:00	5320	524	-14.6	-38.6	321	14	
2025-08-02T12:00	5340	522	-14.8	-35.9	322	13	
2025-08-02T12:00	5360	521	-15.0	-34.0	322	13	
2025-08-02T12:00	5380	519	-15.2	-32.5	323	13	
2025-08-02T12:00	5400	518	-15.3	-32.0	324	13	
2025-08-02T12:00	5420	517	-15.5	-31.7	326	13	
2025-08-02T12:00	5440	515	-15.7	-31.7	327	13	
2025-08-02T12:00	5460	514	-15.8	-31.9	329	13	
2025-08-02T12:00	5480	513	-15.9	-30.1	329	13	
2025-08-02T12:00	5500	511	-16.1	-28.9	330	13	
2025-08-02T12:00	5520	510	-16.3	-29.0	330	13	
2025-08-02T12:00	5540	509	-16.4	-29.2	329	13	
2025-08-02T12:00	5560	507	-16.6	-28.9	328	13	
2025-08-02T12:00	5580	506	-16.8	-28.0	327	13	
2025-08-02T12:00	5600	505	-17.0	-28.4	326	14	
2025-08-02T12:00	5620	503	-17.1	-29.1	324	13	
2025-08-02T12:00	5640	502	-17.2	-29.7	322	13	
2025-08-02T12:00	5660	501	-17.2	-29.7	321	13	
2025-08-02T12:00	5680	499	-17.4	-29.6	319	13	
2025-08-02T12:00	5700	498	-17.5	-29.9	318	13	
2025-08-02T12:00	5720	497	-17.5	-30.4	318	13	
2025-08-02T12:00	5740	495	-17.6	-30.4	318	13	
2025-08-02T12:00	5760	494	-17.8	-30.5	317	14	
2025-08-02T12:00	5780	492	-18.0	-30.7	317	14	
2025-08-02T12:00	5800	491	-18.2	-30.7	316	14	
2025-08-02T12:00	5820	490	-18.4	-30.6	316	14	
2025-08-02T12:00	5840	488	-18.6	-30.7	316	14	
2025-08-02T12:00	5860	487	-18.8	-30.8	315	14	
2025-08-02T12:00	5880	486	-19.0	-30.8	315	14	
2025-08-02T12:00	5900	485	-19.1	-30.9	315	14	
2025-08-02T12:00	5920	483	-19.3	-30.9	315	14	
2025-08-02T12:00	5940	482	-19.6	-30.8	316	14	
2025-08-02T12:00	5960	481	-19.7	-31.1	316	14	
2025-08-02T12:00	5980	480	-19.9	-32.4	317	15	
2025-08-02T12:00	6000	478	-19.9	-37.7	316	15	
2025-08-02T12:00	6020	477	-20.0	-44.2	316	15	
2025-08-02T12:00	6040	476	-20.0	-44.3	315	15	
2025-08-02T12:00	6060	474	-20.2	-44.3	314	15	
2025-08-02T12:00	6080	473	-20.4	-44.3	312	15	
2025-08-02T12:00	6100	472	-20.6	-44.4	311	15	
2025-08-02T12:00	6120	470	-20.7	-44.8	310	15	
2025-08-02T12:00	6140	469	-20.8	-45.2	309	15	
2025-08-02T12:00	6160	468	-20.9	-45.2	308	16	
2025-08-02T12:00	6180	467	-21.0	-45.3	308	16	
2025-08-02T12:00	6200	466	-21.1	-45.2	308	16	
2025-08-02T12:00	6220	464	-21.1	-44.4	308	16	
2025-08-02T12:00	6240	463	-21.2	-43.1	308	16	
2025-08-02T12:00	6260	462	-21.4	-42.9	308	16	
2025-08-02T12:00	6280	460	-21.5	-43.2	309	16	
2025-08-02T12:00	6300	459	-21.7	-43.7	309	16	
2025-08-02T12:00	6320	458	-21.9	-44.4	309	17	
2025-08-02T12:00	6340	457	-22.0	-45.0	309	17	
2025-08-02T12:00	6360	456	-22.1	-40.7	309	17	
2025-08-02T12:00	6380	454	-22.2	-36.5	309	17	
2025-08-02T12:00	6400	453	-22.4	-35.4	309	17	
2025-08-02T12:00	6420	452	-22.6	-35.1	310	17	
2025-08-02T12:00	6440	450	-22.8	-35.5	310	17	
2025-08-02T12:00	6460	449	-22.9	-35.6	309	17	
2025-08-02T12:00	6480	448	-23.1	-35.2	308	17	
2025-08-02T12:00	6500	447	-23.2	-34.9	307	17	
2025-08-02T12:00	6520	446	-23.3	-34.9	306	17	
2025-08-02T12:00	6540	444	-23.5	-34.2	305	17	
2025-08-02T12:00	6560	443	-23.6	-32.7	304	17	
2025-08-02T12:00	6580	442	-23.6	-33.5	303	17	
2025-08-02T12:00	6600	441	-23.6	-34.6	303	17	
2025-08-02T12:00	6620	439	-23.8	-34.0	302	16	
2025-08-02T12:00	6640	438	-23.9	-34.0	303	16	
2025-08-02T12:00	6660	437	-24.1	-34.1	303	16	
2025-08-02T12:00	6680	436	-24.2	-33.8	303	16	
2025-08-02T12:00	6700	435	-24.4	-33.6	304	16	
2025-08-02T12:00	6720	434	-24.5	-33.8	305	17	
2025-08-02T12:00	6740	432	-24.7	-33.8	305	17	
2025-08-02T12:00	6760	431	-24.9	-33.9	306	17	
2025-08-02T12:00	6780	430	-25.0	-34.0	306	18	
2025-08-02T12:00	6800	429	-25.2	-34.1	305	18	
2025-08-02T12:00	6820	428	-25.3	-34.5	304	18	
2025-08-02T12:00	6840	426	-25.5	-35.3	304	18	
2025-08-02T12:00	6860	425	-25.6	-35.5	303	18	
2025-08-02T12:00	6880	424	-25.8	-35.7	302	18	
2025-08-02T12:00	6900	423	-25.9	-35.8	301	18	
2025-08-02T12:00	6920	422	-26.1	-35.6	300	18	
2025-08-02T12:00	6940	421	-26.3	-35.6	299	18	
2025-08-02T12:00	6960	419	-26.5	-35.7	299	18	
2025-08-02T12:00	6980	418	-26.6	-35.9	299	18	
2025-08-02T12:00	7000	417	-26.8	-36.0	299	18	
2025-08-02T12:00	7020	416	-27.0	-35.5	299	18	
2025-08-02T12:00	7040	415	-27.2	-35.2	300	18	
2025-08-02T12:00	7060	414	-27.4	-35.0	300	18	
2025-08-02T12:00	7080	413	-27.6	-34.7	301	18	
2025-08-02T12:00	7100	411	-27.7	-35.1	302	18	
2025-08-02T12:00	7120	410	-27.9	-35.1	303	18	
2025-08-02T12:00	7140	409	-28.0	-34.9	304	18	
2025-08-02T12:00	7160	408	-28.2	-35.2	305	18	
2025-08-02T12:00	7180	407	-28.4	-35.5	306	18	
2025-08-02T12:00	7200	406	-28.6	-35.4	306	18	
2025-08-02T12:00	7220	405	-28.8	-35.3	305	18	
2025-08-02T12:00	7240	403	-28.9	-35.5	305	19	
2025-08-02T12:00	7260	402	-29.1	-35.8	304	19	
2025-08-02T12:00	7280	401	-29.2	-36.0	303	19	
2025-08-02T12:00	7300	400	-29.3	-36.0	303	19	
2025-08-02T12:00	7320	399	-29.5	-36.2	302	19	
2025-08-02T12:00	7340	398	-29.7	-36.5	302	19	
2025-08-02T12:00	7360	397	-29.8	-36.6	302	19	
2025-08-02T12:00	7380	396	-30.0	-36.6	302	19	
2025-08-02T12:00	7400	395	-30.2	-36.6	302	18	
2025-08-02T12:00	7420	393	-30.3	-36.7	303	19	
2025-08-02T12:00	7440	392	-30.5	-36.6	304	19	
2025-08-02T12:00	7460	391	-30.7	-36.5	304	19	
2025-08-02T12:00	7480	390	-30.9	-36.7	305	19	
2025-08-02T12:00	7500	389	-31.0	-36.8	306	19	
2025-08-02T12:00	7520	388	-31.2	-37.0	306	19	
2025-08-02T12:00	7540	387	-31.2	-37.1	306	19	
2025-08-02T12:00	7560	386	-31.4	-37.1	306	18	
2025-08-02T12:00	7580	385	-31.5	-37.2	306	18	
2025-08-02T12:00	7600	384	-31.7	-37.4	307	18	
2025-08-02T12:00	7620	382	-31.8	-37.8	307	18	
2025-08-02T12:00	7640	381	-32.0	-38.0	308	19	
2025-08-02T12:00	7660	380	-32.1	-38.4	308	19	
2025-08-02T12:00	7680	379	-32.3	-38.5	308	19	
2025-08-02T12:00	7700	378	-32.4	-38.7	307	19	
2025-08-02T12:00	7720	377	-32.6	-39.2	307	19	
2025-08-02T12:00	7740	376	-32.7	-39.7	306	19	
2025-08-02T12:00	7760	375	-32.8	-39.6	305	19	
2025-08-02T12:00	7780	374	-33.0	-39.5	305	19	
2025-08-02T12:00	7800	373	-33.2	-39.6	304	19	
2025-08-02T12:00	7820	372	-33.4	-39.8	304	19	
2025-08-02T12:00	7840	371	-33.5	-40.1	305	19	
2025-08-02T12:00	7860	370	-33.7	-40.3	305	19	
2025-08-02T12:00	7880	369	-33.9	-40.1	306	19	
2025-08-02T12:00	7900	368	-34.1	-40.0	306	19	
2025-08-02T12:00	7920	366	-34.3	-40.1	307	19	
2025-08-02T12:00	7940	365	-34.4	-40.8	307	19	
2025-08-02T12:00	7960	364	-34.5	-41.3	306	20	
2025-08-02T12:00	7980	363	-34.7	-41.2	306	20	
2025-08-02T12:00	8000	362	-34.9	-41.6	306	20	
2025-08-02T12:00	8020	361	-35.1	-42.1	305	20	
2025-08-02T12:00	8040	360	-35.2	-41.7	305	21	
2025-08-02T12:00	8060	359	-35.4	-41.5	304	21	
2025-08-02T12:00	8080	358	-35.6	-41.8	304	21	
2025-08-02T12:00	8100	357	-35.7	-42.4	303	21	
2025-08-02T12:00	8120	356	-35.9	-42.4	303	21	
2025-08-02T12:00	8140	355	-36.1	-42.5	303	21	
2025-08-02T12:00	8160	354	-36.2	-42.6	303	21	
2025-08-02T12:00	8180	353	-36.4	-42.9	303	21	
2025-08-02T12:00	8200	352	-36.6	-43.1	304	21	
2025-08-02T12:00	8220	351	-36.8	-43.3	306	21	
2025-08-02T12:00	8240	350	-37.0	-43.3	307	21	
2025-08-02T12:00	8260	349	-37.1	-43.3	307	21	
2025-08-02T12:00	8280	348	-37.3	-43.4	308	21	
2025-08-02T12:00	8300	347	-37.5	-43.6	308	21	
2025-08-02T12:00	8320	346	-37.7	-43.7	308	20	
2025-08-02T12:00	8340	345	-37.9	-44.0	308	20	
2025-08-02T12:00	8360	344	-38.1	-44.2	307	20	
2025-08-02T12:00	8380	343	-38.3	-44.4	306	20	
2025-08-02T12:00	8400	342	-38.5	-44.4	305	20	
2025-08-02T12:00	8420	341	-38.7	-44.5	305	19	
2025-08-02T12:00	8440	340	-38.9	-44.6	304	19	
2025-08-02T12:00	8460	339	-39.0	-44.8	304	20	
2025-08-02T12:00	8480	338	-39.2	-45.1	304	20	
2025-08-02T12:00	8500	337	-39.4	-45.4	304	20	
2025-08-02T12:00	8520	336	-39.6	-45.3	305	20	
2025-08-02T12:00	8540	335	-39.8	-45.4	306	20	
2025-08-02T12:00	8560	334	-40.0	-45.5	306	20	
2025-08-02T12:00	8580	333	-40.2	-45.8	308	20	
2025-08-02T12:00	8600	332	-40.3	-46.4	308	20	
2025-08-02T12:00	8620	331	-40.5	-46.8	309	20	
2025-08-02T12:00	8640	330	-40.6	-46.9	309	20	
2025-08-02T12:00	8660	329	-40.8	-46.9	309	20	
2025-08-02T12:00	8680	328	-41.0	-47.1	309	21	
2025-08-02T12:00	8700	327	-41.2	-47.4	308	21	
2025-08-02T12:00	8720	326	-41.4	-47.7	308	21	
2025-08-02T12:00	8740	325	-41.6	-47.7	307	21	
2025-08-02T12:00	8760	324	-41.7	-47.7	307	21	
2025-08-02T12:00	8780	323	-41.9	-47.7	307	22	
2025-08-02T12:00	8800	322	-42.0	-47.4	307	22	
2025-08-02T12:00	8820	322	-42.2	-46.8	307	22	
2025-08-02T12:00	8840	321	-42.4	-46.8	307	22	
2025-08-02T12:00	8860	320	-42.5	-47.4	307	22	
2025-08-02T12:00	8880	319	-42.7	-47.6	308	22	
2025-08-02T12:00	8900	318	-42.8	-47.4	308	22	
2025-08-02T12:00	8920	317	-42.9	-47.9	308	22	
2025-08-02T12:00	8940	316	-43.1	-48.3	308	22	
2025-08-02T12:00	8960	315	-43.3	-48.5	308	22	
2025-08-02T12:00	8980	314	-43.4	-49.1	308	22	
2025-08-02T12:00	9000	313	-43.6	-49.1	308	22	
2025-08-02T12:00	9020	312	-43.8	-48.9	307	22	
2025-08-02T12:00	9040	311	-43.9	-48.9	306	22	
2025-08-02T12:00	9060	310	-44.1	-49.1	305	22	
2025-08-02T12:00	9080	309	-44.3	-49.4	304	22	
2025-08-02T12:00	9100	308	-44.5	-49.6	303	22	
2025-08-02T12:00	9120	308	-44.5	-50.5	302	22	
2025-08-02T12:00	9140	307	-44.6	-50.9	302	23	
2025-08-02T12:00	9160	306	-44.7	-50.1	302	23	
2025-08-02T12:00	9180	305	-44.8	-50.1	302	22	
2025-08-02T12:00	9200	304	-45.0	-50.2	302	22	
2025-08-02T12:00	9220	303	-45.0	-51.5	302	22	
2025-08-02T12:00	9240	302	-45.1	-52.5	302	22	
2025-08-02T12:00	9260	301	-45.2	-52.8	302	21	
2025-08-02T12:00	9280	300	-45.3	-53.6	302	21	
2025-08-02T12:00	9300	299	-45.2	-55.3	302	20	
2025-08-02T12:00	9320	298	-45.1	-56.3	302	20	
2025-08-02T12:00	9340	298	-45.1	-56.3	302	19	
2025-08-02T12:00	9360	297	-45.2	-56.2	302	19	
2025-08-02T12:00	9380	296	-45.4	-56.2	302	19	
2025-08-02T12:00	9400	295	-45.4	-56.7	302	19	
2025-08-02T12:00	9420	294	-45.4	-56.9	302	19	
2025-08-02T12:00	9440	293	-45.3	-57.0	301	19	
2025-08-02T12:00	9460	292	-45.3	-57.1	301	19	
2025-08-02T12:00	9480	291	-45.5	-57.1	301	19	
2025-08-02T12:00	9500	290	-45.6	-57.1	301	18	
2025-08-02T12:00	9520	290	-45.8	-57.2	301	18	
2025-08-02T12:00	9540	289	-46.0	-57.2	301	18	
2025-08-02T12:00	9560	288	-46.1	-57.3	301	18	
2025-08-02T12:00	9580	287	-46.2	-57.4	302	18	
2025-08-02T12:00	9600	286	-46.2	-57.6	302	18	
2025-08-02T12:00	9620	285	-46.4	-57.6	303	17	
2025-08-02T12:00	9640	284	-46.5	-57.5	303	18	
2025-08-02T12:00	9660	284	-46.6	-57.4	303	18	
2025-08-02T12:00	9680	283	-46.7	-57.6	303	17	
2025-08-02T12:00	9700	282	-46.9	-57.8	302	17	
2025-08-02T12:00	9720	281	-47.0	-58.1	302	17	
2025-08-02T12:00	9740	280	-47.1	-58.3	301	17	
2025-08-02T12:00	9760	279	-47.0	-58.5	301	17	
2025-08-02T12:00	9780	278	-47.1	-58.8	300	16	
2025-08-02T12:00	9800	278	-47.1	-59.5	298	16	
2025-08-02T12:00	9820	277	-47.1	-59.9	297	16	
2025-08-02T12:00	9840	276	-47.2	-59.7	296	17	
2025-08-02T12:00	9860	275	-47.1	-59.8	296	17	
2025-08-02T12:00	9880	274	-47.1	-60.2	296	17	
2025-08-02T12:00	9900	273	-47.2	-59.9	296	17	
2025-08-02T12:00	9920	273	-47.2	-59.3	297	17	
2025-08-02T12:00	9940	272	-47.2	-59.2	297	17	
2025-08-02T12:00	9960	271	-47.1	-59.6	297	17	
2025-08-02T12:00	9980	270	-47.2	-59.9	297	17	
2025-08-02T12:00	10000	269	-47.2	-60.5	297	18	
2025-08-02T12:00	10018	269	-47.2	-61.0	297	18	
2025-08-02T12:00	10050	267	-47.0	-61.2	297	18	
2025-08-02T12:00	10100	265	-46.7	-62.6	295	18	
2025-08-02T12:00	10150	263	-46.6	-62.2	293	19	
2025-08-02T12:00	10200	261	-46.5	-63.1	291	20	
2025-08-02T12:00	10250	259	-46.2	-64.3	291	21	
2025-08-02T12:00	10300	257	-46.4	-64.6	292	20	
2025-08-02T12:00	10350	256	-46.2	-65.8	292	20	
2025-08-02T12:00	10400	254	-46.0	-66.3	292	19	
2025-08-02T12:00	10450	252	-46.1	-66.6	293	19	
2025-08-02T12:00	10500	250	-46.1	-67.4	296	17	
2025-08-02T12:00	10550	248	-45.6	-69.4	298	16	
2025-08-02T12:00	10600	246	-45.2	-72.1	297	15	
2025-08-02T12:00	10650	244	-45.2	-73.0	293	15	
2025-08-02T12:00	10700	242	-45.0	-73.3	290	16	
2025-08-02T12:00	10750	241	-44.7	-73.6	288	17	
2025-08-02T12:00	10800	239	-44.6	-74.0	288	17	
2025-08-02T12:00	10850	237	-44.5	-74.4	287	17	
2025-08-02T12:00	10900	235	-44.7	-74.5	284	17	
2025-08-02T12:00	10950	234	-44.8	-74.9	280	16	
2025-08-02T12:00	11000	232	-44.7	-75.2	277	16	
2025-08-02T12:00	11050	230	-44.6	-75.2	278	16	
2025-08-02T12:00	11100	228	-44.7	-75.4	279	16	
2025-08-02T12:00	11150	227	-44.7	-75.4	279	16	
2025-08-02T12:00	11200	225	-44.3	-75.6	278	16	
2025-08-02T12:00	11250	223	-44.3	-75.8	279	17	
2025-08-02T12:00	11300	222	-44.5	-75.9	281	17	
2025-08-02T12:00	11350	220	-44.5	-76.1	281	18	
2025-08-02T12:00	11400	218	-44.3	-75.9	280	18	
2025-08-02T12:00	11450	217	-44.1	-75.6	280	18	
2025-08-02T12:00	11500	215	-43.8	-75.4	279	17	
2025-08-02T12:00	11550	214	-43.5	-75.5	279	16	
2025-08-02T12:00	11600	212	-43.1	-76.2	281	16	
2025-08-02T12:00	11650	210	-42.9	-76.6	283	16	
2025-08-02T12:00	11700	209	-43.2	-76.5	286	16	
2025-08-02T12:00	11750	207	-43.4	-76.6	289	16	
2025-08-02T12:00	11800	206	-43.5	-76.5	291	16	
2025-08-02T12:00	11850	204	-43.2	-76.3	291	15	
2025-08-02T12:00	11900	203	-43.4	-76.4	288	15	
2025-08-02T12:00	11950	201	-43.8	-76.4	284	16	
2025-08-02T12:00	12000	200	-44.0	-76.9	281	17	
2025-08-02T12:00	12050	198	-44.1	-77.2	281	17	
2025-08-02T12:00	12100	197	-44.3	-77.4	282	17	
2025-08-02T12:00	12150	195	-44.3	-77.5	284	17	
2025-08-02T12:00	12200	194	-44.3	-77.7	286	16	
2025-08-02T12:00	12250	192	-44.3	-77.7	287	16	
2025-08-02T12:00	12300	191	-44.5	-77.8	287	15	
2025-08-02T12:00	12350	190	-44.4	-77.7	285	15	
2025-08-02T12:00	12400	188	-44.4	-77.9	283	15	
2025-08-02T12:00	12450	187	-44.6	-77.9	282	15	
2025-08-02T12:00	12500	185	-44.7	-78.0	283	15	
2025-08-02T12:00	12550	184	-44.8	-78.1	284	16	
2025-08-02T12:00	12600	183	-44.8	-78.2	286	16	
2025-08-02T12:00	12650	181	-45.0	-78.3	287	16	
2025-08-02T12:00	12700	180	-45.1	-78.5	284	15	
2025-08-02T12:00	12750	179	-45.2	-78.5	282	15	
2025-08-02T12:00	12800	177	-45.2	-78.5	282	14	
2025-08-02T12:00	12850	176	-45.3	-78.5	284	14	
2025-08-02T12:00	12900	175	-45.3	-78.5	284	15	
2025-08-02T12:00	12950	173	-45.7	-78.7	285	16	
2025-08-02T12:00	13000	172	-45.9	-78.8	287	15	
2025-08-02T12:00	13050	171	-46.0	-78.9	288	14	
2025-08-02T12:00	13100	169	-46.0	-79.0	287	13	
2025-08-02T12:00	13150	168	-46.0	-78.9	284	13	
2025-08-02T12:00	13200	167	-46.1	-79.0	281	13	
2025-08-02T12:00	13250	166	-46.3	-79.0	278	13	
2025-08-02T12:00	13300	164	-46.7	-79.1	276	13	
2025-08-02T12:00	13350	163	-46.9	-79.2	275	14	
2025-08-02T12:00	13400	162	-47.3	-79.3	274	15	
2025-08-02T12:00	13450	161	-47.6	-79.5	275	16	
2025-08-02T12:00	13500	159	-47.8	-79.7	274	17	
2025-08-02T12:00	13550	158	-47.9	-79.7	272	18	
2025-08-02T12:00	13600	157	-47.9	-79.7	272	18	
2025-08-02T12:00	13650	156	-48.1	-79.8	272	19	
2025-08-02T12:00	13700	155	-48.2	-79.8	273	20	
2025-08-02T12:00	13750	154	-48.5	-79.9	276	20	
2025-08-02T12:00	13800	152	-48.6	-79.9	278	20	
2025-08-02T12:00	13850	151	-48.8	-80.0	281	20	
2025-08-02T12:00	13900	150	-49.2	-80.1	283	19	
2025-08-02T12:00	13950	149	-49.5	-80.3	284	19	
2025-08-02T12:00	14000	148	-49.5	-80.5	286	17	
2025-08-02T12:00	14050	147	-49.5	-80.6	287	17	
2025-08-02T12:00	14100	146	-49.8	-80.8	285	16	
2025-08-02T12:00	14150	144	-49.6	-80.7	282	17	
2025-08-02T12:00	14200	143	-49.8	-80.9	282	17	
2025-08-02T12:00	14250	142	-49.7	-80.9	286	17	
2025-08-02T12:00	14300	141	-49.5	-81.0	290	16	
2025-08-02T12:00	14350	140	-49.5	-81.1	292	15	
2025-08-02T12:00	14400	139	-49.5	-81.2	290	14	
2025-08-02T12:00	14450	138	-49.4	-81.2	285	14	
2025-08-02T12:00	14500	137	-49.3	-81.3	279	14	
2025-08-02T12:00	14550	136	-49.1	-81.2	275	15	
2025-08-02T12:00	14600	135	-49.1	-81.2	272	16	
2025-08-02T12:00	14650	134	-49.1	-81.2	271	16	
2025-08-02T12:00	14700	133	-49.4	-81.4	272	16	
2025-08-02T12:00	14750	132	-49.5	-81.5	275	15	
2025-08-02T12:00	14800	131	-49.7	-81.5	278	14	
2025-08-02T12:00	14850	130	-50.1	-81.6	281	13	
2025-08-02T12:00	14900	129	-50.3	-81.7	284	12	
2025-08-02T12:00	14950	128	-50.2	-81.7	287	11	
2025-08-02T12:00	15000	127	-50.0	-81.8	287	11	
2025-08-02T12:00	15050	126	-50.1	-81.9	285	10	
2025-08-02T12:00	15100	125	-50.1	-81.9	283	9	
2025-08-02T12:00	15150	124	-50.3	-81.9	284	8	
2025-08-02T12:00	15200	123	-50.4	-81.8	285	8	
2025-08-02T12:00	15250	122	-50.7	-82.0	286	7	
2025-08-02T12:00	15300	121	-51.0	-82.1	290	7	
2025-08-02T12:00	15350	120	-51.2	-82.2	291	7	
2025-08-02T12:00	15400	119	-51.4	-82.4	285	6	
2025-08-02T12:00	15450	118	-51.3	-82.4	274	7	
2025-08-02T12:00	15500	117	-51.1	-82.5	266	8	
2025-08-02T12:00	15550	117	-51.0	-82.5	264	10	
2025-08-02T12:00	15600	116	-50.9	-82.4	264	12	
2025-08-02T12:00	15650	115	-51.0	-82.4	265	13	
2025-08-02T12:00	15700	114	-50.9	-82.4	269	13	
2025-08-02T12:00	15750	113	-50.7	-82.4	271	12	
2025-08-02T12:00	15800	112	-50.5	-82.4	269	11	
2025-08-02T12:00	15850	111	-50.6	-82.3	264	10	
2025-08-02T12:00	15900	110	-50.9	-82.3	256	10	
2025-08-02T12:00	15950	110	-51.2	-82.4	250	10	
2025-08-02T12:00	16000	109	-51.4	-82.5	252	11	
2025-08-02T12:00	16050	108	-51.3	-82.7	261	11	
2025-08-02T12:00	16100	107	-51.2	-82.7	272	11	
2025-08-02T12:00	16150	106	-51.0	-82.7	284	10	
2025-08-02T12:00	16200	105	-50.9	-82.8	293	9	
2025-08-02T12:00	16250	105	-50.6	-82.6	299	8	
2025-08-02T12:00	16300	104	-50.7	-82.6	304	6	
2025-08-02T12:00	16350	103	-50.9	-82.6	311	5	
2025-08-02T12:00	16400	102	-51.2	-82.6	319	4	
2025-08-02T12:00	16450	102	-51.5	-82.7	325	3	
2025-08-02T12:00	16500	101	-51.8	-82.8	314	2	
2025-08-02T12:00	16550	100	-51.9	-82.9	279	2	
2025-08-02T12:00	16600	99	-52.0	-83.0	266	3	
2025-08-02T12:00	16650	98	-52.2	-83.0	265	4	
2025-08-02T12:00	16700	98	-52.4	-83.1	265	4	
2025-08-02T12:00	16750	97	-52.6	-83.1	265	5	
2025-08-02T12:00	16800	96	-53.0	-83.3	266	6	
2025-08-02T12:00	16850	95	-53.2	-83.4	269	7	
2025-08-02T12:00	16900	95	-53.3	-83.5	272	8	
2025-08-02T12:00	16950	94	-53.5	-83.6	275	8	
2025-08-02T12:00	17000	93	-53.5	-83.7	281	7	
2025-08-02T12:00	17050	92	-53.5	-83.7	287	6	
2025-08-02T12:00	17100	92	-53.5	-83.9	287	5	
2025-08-02T12:00	17150	91	-53.0	-83.7	281	5	
2025-08-02T12:00	17200	90	-53.1	-83.8	277	5	
2025-08-02T12:00	17250	90	-52.9	-83.8	279	5	
2025-08-02T12:00	17300	89	-52.5	-83.7	284	4	
2025-08-02T12:00	17350	88	-52.0	-83.7	288	2	
2025-08-02T12:00	17400	88	-51.6	-83.5	283	1	
2025-08-02T12:00	17450	87	-51.5	-83.3	280	2	
2025-08-02T12:00	17500	86	-51.7	-83.3	276	2	
2025-08-02T12:00	17550	86	-51.9	-83.2	269	2	
2025-08-02T12:00	17600	85	-52.3	-83.3	263	2	
2025-08-02T12:00	17650	84	-52.7	-83.4	258	2	
2025-08-02T12:00	17700	84	-53.0	-83.5	255	3	
2025-08-02T12:00	17750	83	-53.4	-83.7	256	3	
2025-08-02T12:00	17800	82	-53.9	-83.8	263	3	
2025-08-02T12:00	17850	82	-54.1	-84.0	280	3	
2025-08-02T12:00	17900	81	-54.1	-84.0	300	3	
2025-08-02T12:00	17950	80	-54.2	-84.3	312	2	
2025-08-02T12:00	18000	80	-54.2	-84.5	294	1	
2025-08-02T12:00	18050	79	-53.6	-84.2	197	1	
2025-08-02T12:00	18100	79	-53.5	-84.2	196	2	
2025-08-02T12:00	18150	78	-53.8	-84.2	208	3	
2025-08-02T12:00	18200	77	-53.9	-84.1	217	4	
2025-08-02T12:00	18250	77	-53.7	-84.1	221	5	
2025-08-02T12:00	18300	76	-53.8	-84.2	223	6	
2025-08-02T12:00	18350	76	-54.0	-84.2	226	7	
2025-08-02T12:00	18400	75	-54.3	-84.2	230	7	
2025-08-02T12:00	18450	74	-54.6	-84.5	237	7	
2025-08-02T12:00	18500	74	-54.2	-84.5	248	6	
2025-08-02T12:00	18550	73	-53.9	-84.5	265	4	
2025-08-02T12:00	18600	73	-53.7	-84.4	291	4	
2025-08-02T12:00	18650	72	-53.7	-84.4	319	4	
2025-08-02T12:00	18700	72	-53.7	-84.4	338	4	
2025-08-02T12:00	18750	71	-53.4	-84.3	347	4	
2025-08-02T12:00	18800	70	-53.4	-84.2	348	3	
2025-08-02T12:00	18850	70	-53.8	-84.2	337	2	
2025-08-02T12:00	18900	69	-54.1	-84.3	303	1	
2025-08-02T12:00	18950	69	-54.4	-84.5	274	2	
2025-08-02T12:00	19000	68	-54.3	-84.6	280	1	
2025-08-02T12:00	19050	68	-54.0	-84.5	320	1	
2025-08-02T12:00	19100	67	-54.1	-84.6	359	2	
2025-08-02T12:00	19150	67	-54.4	-84.6	25	2	
2025-08-02T12:00	19200	66	-54.4	-84.5	36	3	
2025-08-02T12:00	19250	66	-54.5	-84.6	32	2	
2025-08-02T12:00	19300	65	-54.5	-84.7	17	1	
2025-08-02T12:00	19350	65	-54.4	-84.8	13	0	
2025-08-02T12:00	19400	64	-54.2	-84.8	142	0	
2025-08-02T12:00	19450	64	-53.8	-84.7	155	1	
2025-08-02T12:00	19500	63	-53.8	-84.8	142	1	
2025-08-02T12:00	19550	63	-53.7	-84.8	129	2	
2025-08-02T12:00	19600	62	-53.3	-84.6	116	2	
2025-08-02T12:00	19650	62	-53.2	-84.5	100	2	
2025-08-02T12:00	19700	61	-53.2	-84.5	87	3	
2025-08-02T12:00	19750	61	-53.2	-84.4	80	3	
2025-08-02T12:00	19800	60	-53.3	-84.4	75	3	
2025-08-02T12:00	19850	60	-53.2	-84.4	62	2	
2025-08-02T12:00	19900	59	-53.2	-84.4	37	2	
2025-08-02T12:00	19950	59	-53.2	-84.3	24	3	
2025-08-02T12:00	20000	58	-53.3	-84.3	29	3	
2025-08-02T12:00	20050	58	-53.2		41	4	
2025-08-02T12:00	20100	58	-53.1		53	5	
2025-08-02T12:00	20150	57	-53.2		61	5	
2025-08-02T12:00	20200	57	-53.1		64	6	
2025-08-02T12:00	20250	56	-53.0		67	6	
2025-08-02T12:00	20300	56	-53.2		68	6	
2025-08-02T12:00	20350	55	-53.3		69	6	
2025-08-02T12:00	20400	55	-52.8		71	6	
2025-08-02T12:00	20450	55	-52.3		74	5	
2025-08-02T12:00	20500	54	-52.3		79	5	
2025-08-02T12:00	20550	54	-52.5		81	4	
2025-08-02T12:00	20600	53	-52.4		76	3	
2025-08-02T12:00	20650	53	-52.1		63	3	
2025-08-02T12:00	20700	52	-51.7		55	4	
2025-08-02T12:00	20750	52	-51.4		57	6	
2025-08-02T12:00	20800	52	-51.4		62	7	
2025-08-02T12:00	20850	51	-51.5		67	8	
2025-08-02T12:00	20900	51	-51.7		73	7	
2025-08-02T12:00	20950	50	-51.5		80	6	
2025-08-02T12:00	21000	50	-51.4		87	6	
2025-08-02T12:00	21050	50	-51.3		97	6	
2025-08-02T12:00	21100	49	-51.4		107	7	
2025-08-02T12:00	21150	49	-51.5		113	7	
2025-08-02T12:00	21200	49	-51.5		112	8	
2025-08-02T12:00	21250	48	-51.9		109	8	
2025-08-02T12:00	21300	48	-52.3		107	9	
2025-08-02T12:00	21350	47	-52.6		106	9	
2025-08-02T12:00	21400	47	-52.9		109	9	
2025-08-02T12:00	21450	47	-52.7		117	9	
2025-08-02T12:00	21500	46	-52.7		124	9	
2025-08-02T12:00	21550	46	-52.5		128	8	
2025-08-02T12:00	21600	46	-52.3		127	7	
2025-08-02T12:00	21650	45	-52.2		127	6	
2025-08-02T12:00	21700	45	-51.8		125	6	
2025-08-02T12:00	21750	45	-51.4		120	6	
2025-08-02T12:00	21800	44	-51.0		113	7	
2025-08-02T12:00	21850	44	-50.7		108	7	
2025-08-02T12:00	21900	44	-50.4		107	8	
2025-08-02T12:00	21950	43	-50.5		109	8	
2025-08-02T12:00	22000	43	-50.7		113	9	
2025-08-02T12:00	22050	43	-50.8		118	9	
2025-08-02T12:00	22100	42	-51.2		124	9	
2025-08-02T12:00	22150	42	-51.5		131	9	
2025-08-02T12:00	22200	42	-51.5		139	9	
2025-08-02T12:00	22250	41	-51.6		143	9	
2025-08-02T12:00	22300	41	-51.8		145	8	
2025-08-02T12:00	22350	41	-51.7		142	6	
2025-08-02T12:00	22400	40	-51.7		135	5	
2025-08-02T12:00	22450	40	-51.7		127	4	
2025-08-02T12:00	22500	40	-52.0		117	4	
2025-08-02T12:00	22550	39	-52.2		114	5	
2025-08-02T12:00	22600	39	-52.1		118	5	
2025-08-02T12:00	22650	39	-51.4		127	6	
2025-08-02T12:00	22700	39	-51.2		135	7	
2025-08-02T12:00	22750	38	-51.0		134	7	
2025-08-02T12:00	22800	38	-50.7		129	7	
2025-08-02T12:00	22850	38	-50.1		127	7	
2025-08-02T12:00	22900	37	-50.1		132	8	
2025-08-02T12:00	22950	37	-49.9		139	8	
2025-08-02T12:00	23000	37	-50.1		147	9	
2025-08-02T12:00	23050	37	-50.4		154	9	
2025-08-02T12:00	23100	36	-50.5		160	9	
2025-08-02T12:00	23150	36	-50.6		166	8	
2025-08-02T12:00	23200	36	-50.9		171	7	
2025-08-02T12:00	23250	35	-50.9		175	6	
2025-08-02T12:00	23300	35	-50.5		180	5	
2025-08-02T12:00	23350	35	-50.0		185	3	
2025-08-02T12:00	23400	35	-49.8		182	1	
2025-08-02T12:00	23450	34	-49.6		106	1	
2025-08-02T12:00	23500	34	-49.6		77	1	
2025-08-02T12:00	23550	34	-49.6		73	2	
2025-08-02T12:00	23600	34	-49.8		69	3	
2025-08-02T12:00	23650	33	-49.8		65	3	
2025-08-02T12:00	23700	33	-49.8		66	3	
2025-08-02T12:00	23750	33	-50.0		71	4	
2025-08-02T12:00	23800	33	-50.1		79	4	
2025-08-02T12:00	23850	32	-50.0		87	5	
2025-08-02T12:00	23900	32	-50.0		94	7	
2025-08-02T12:00	23950	32	-50.2		99	8	
2025-08-02T12:00	24000	32	-50.3		103	8	
2025-08-02T12:00	24050	31	-50.3		106	7	
2025-08-02T12:00	24100	31	-50.1		109	7	
2025-08-02T12:00	24150	31	-49.9		112	7	
2025-08-02T12:00	24200	31	-50.0		116	8	
2025-08-02T12:00	24250	30	-50.2		121	8	
2025-08-02T12:00	24300	30	-50.4		129	7	
2025-08-02T12:00	24350	30	-50.4		138	6	
2025-08-02T12:00	24400	30	-50.3		147	5	
2025-08-02T12:00	24450	29	-50.1		154	4	
2025-08-02T12:00	24500	29	-50.0		156	3	
2025-08-02T12:00	24550	29	-50.1		141	3	
2025-08-02T12:00	24600	29	-50.0		115	3	
2025-08-02T12:00	24650	29	-50.1		96	3	
2025-08-02T12:00	24700	28	-49.8		82	4	
2025-08-02T12:00	24750	28	-49.6		78	4	
2025-08-02T12:00	24800	28	-49.5		82	4	
2025-08-02T12:00	24850	28	-49.7		91	5	
2025-08-02T12:00	24900	28	-49.9		97	5	
2025-08-02T12:00	24950	27	-50.1		99	5	
2025-08-02T12:00	25000	27	-50.0		95	5	
2025-08-02T12:00	25050	27	-49.9		90	6	
2025-08-02T12:00	25100	27	-49.9		85	6	
2025-08-02T12:00	25150	26	-50.1		81	7	
2025-08-02T12:00	25200	26	-49.9		83	8	
2025-08-02T12:00	25250	26	-49.5		88	10	
2025-08-02T12:00	25300	26	-49.0		96	11	
2025-08-02T12:00	25350	26	-48.9		103	11	
2025-08-02T12:00	25400	25	-49.0		108	11	
2025-08-02T12:00	25450	25	-49.0		111	11	
2025-08-02T12:00	25500	25	-48.9		115	11	
2025-08-02T12:00	25550	25	-48.8		117	10	
2025-08-02T12:00	25600	25	-48.8		115	10	
2025-08-02T12:00	25650	25	-48.7		111	10	
2025-08-02T12:00	25700	24	-48.5		107	10	
2025-08-02T12:00	25750	24	-48.3		106	10	
2025-08-02T12:00	25800	24	-48.3		107	11	
2025-08-02T12:00	25850	24	-48.2		107	11	
2025-08-02T12:00	25900	24	-48.2		104	11	
2025-08-02T12:00	25950	23	-48.1		101	11	
2025-08-02T12:00	26000	23	-48.1		103	11	
2025-08-02T12:00	26050	23	-48.1		107	11	
2025-08-02T12:00	26100	23	-48.2		112	11	
2025-08-02T12:00	26150	23	-48.3		116	10	
2025-08-02T12:00	26200	23	-48.5		118	9	
2025-08-02T12:00	26250	22	-48.8		113	8	
2025-08-02T12:00	26300	22	-48.7		103	9	
2025-08-02T12:00	26350	22	-48.7		98	9	
2025-08-02T12:00	26400	22	-48.7		98	9	
2025-08-02T12:00	26450	22	-48.6		100	9	
2025-08-02T12:00	26500	22	-48.4		101	8	
2025-08-02T12:00	26550	21	-48.2		97	8	
2025-08-02T12:00	26600	21	-47.7		90	9	
2025-08-02T12:00	26650	21	-47.0		85	9	
2025-08-02T12:00	26700	21	-46.8		83	10	
2025-08-02T12:00	26750	21	-46.7		83	11	
2025-08-02T12:00	26800	21	-46.7		86	13	
2025-08-02T12:00	26850	20	-46.7		90	14	
2025-08-02T12:00	26900	20	-46.6		96	15	
2025-08-02T12:00	26950	20	-46.7		101	16	
2025-08-02T12:00	27000	20	-46.5		105	15	
2025-08-02T12:00	27050	20	-46.6		109	14	
2025-08-02T12:00	27100	20	-46.6		110	13	
2025-08-02T12:00	27150	20	-46.3		109	12	
2025-08-02T12:00	27200	19	-46.1		106	11	
2025-08-02T12:00	27250	19	-46.0		106	11	
2025-08-02T12:00	27300	19	-46.0		107	12	
2025-08-02T12:00	27350	19	-45.9		109	13	
2025-08-02T12:00	27400	19	-45.8		112	15	
2025-08-02T12:00	27450	19	-45.7		114	15	
2025-08-02T12:00	27500	19	-45.4		118	15	
2025-08-02T12:00	27550	18	-45.2		120	15	
2025-08-02T12:00	27600	18	-45.3		122	14	
2025-08-02T12:00	27650	18	-45.4		124	13	
2025-08-02T12:00	27700	18	-45.3		127	11	
2025-08-02T12:00	27750	18	-45.3		129	10	
2025-08-02T12:00	27800	18	-45.1		129	9	
2025-08-02T12:00	27850	18	-44.8		130	9	
2025-08-02T12:00	27900	17	-44.8		131	9	
2025-08-02T12:00	27950	17	-44.8		127	8	
2025-08-02T12:00	28000	17	-44.8		117	8	
2025-08-02T12:00	28050	17	-44.7		106	8	
2025-08-02T12:00	28100	17	-44.5		98	8	
2025-08-02T12:00	28150	17	-44.4		94	8	
2025-08-02T12:00	28200	17	-44.4		94	9	
2025-08-02T12:00	28250	17	-44.4		95	10	
2025-08-02T12:00	28300	16	-44.4		98	10	
2025-08-02T12:00	28350	16	-44.4		102	11	
2025-08-02T12:00	28400	16	-44.4		105	11	
2025-08-02T12:00	28450	16	-44.3		107	12	
2025-08-02T12:00	28500	16	-44.1		108	11	
2025-08-02T12:00	28550	16	-44.1		109	11	
2025-08-02T12:00	28600	16	-44.1		109	10	
2025-08-02T12:00	28650	16	-43.9		109	10	
2025-08-02T12:00	28700	15	-43.9		107	10	
2025-08-02T12:00	28750	15	-44.0		102	10	
2025-08-02T12:00	28800	15	-44.0		96	10	
2025-08-02T12:00	28850	15	-43.9		90	11	
2025-08-02T12:00	28900	15	-43.8		88	12	
2025-08-02T12:00	28950	15	-43.7		89	11	
2025-08-02T12:00	29000	15	-43.7		92	10	
2025-08-02T12:00	29050	15	-43.8		95	9	
2025-08-02T12:00	29100	15	-44.0		94	8	
2025-08-02T12:00	29150	14	-43.9		91	8	
2025-08-02T12:00	29200	14	-43.8		85	9	
2025-08-02T12:00	29250	14	-43.8		81	10	
2025-08-02T12:00	29300	14	-43.7		78	11	
2025-08-02T12:00	29350	14	-43.7		79	11	
2025-08-02T12:00	29400	14	-43.8		83	12	
2025-08-02T12:00	29450	14	-43.8		89	12	
2025-08-02T12:00	29500	14	-43.7		94	12	
2025-08-02T12:00	29550	14	-43.7		97	11	
2025-08-02T12:00	29600	14	-43.6		97	10	
2025-08-02T12:00	29650	13	-43.3		95	8	
2025-08-02T12:00	29700	13	-43.0		93	7	
2025-08-02T12:00	29750	13	-42.7		90	7	
2025-08-02T12:00	29800	13	-42.2		87	7	
2025-08-02T12:00	29850	13	-41.7		86	7	
2025-08-02T12:00	29900	13	-41.2		88	8	
2025-08-02T12:00	29950	13	-40.9		91	9	
2025-08-02T12:00	30000	13	-40.6		94	10	
2025-08-02T12:00	30050	13	-40.2		97	10	
2025-08-02T12:00	30100	13	-39.8		98	10	
2025-08-02T12:00	30150	12	-39.3		97	9	
2025-08-02T12:00	30200	12	-39.0		95	8	
2025-08-02T12:00	30250	12	-38.9		92	6	
2025-08-02T12:00	30300	12	-38.6		89	5	
2025-08-02T12:00	30350	12	-38.3		86	5	
2025-08-02T12:00	30400	12	-38.2		84	6	
2025-08-02T12:00	30450	12	-38.2		82	6	
2025-08-02T12:00	30500	12	-38.2		79	6	
2025-08-02T12:00	30550	12	-38.0		77	7	
2025-08-02T12:00	30600	12	-37.9		76	7	
2025-08-02T12:00	30650	12	-37.8		77	8	
2025-08-02T12:00	30700	12	-37.8		76	8	
2025-08-02T12:00	30750	11	-37.8		74	9	
2025-08-02T12:00	30800	11	-37.8		71	10	
2025-08-02T12:00	30850	11	-37.7		69	11	
2025-08-02T12:00	30900	11	-37.8		69	11	
2025-08-02T12:00	30950	11	-37.8		73	11	
2025-08-02T12:00	31000	11	-37.8		78	12	
2025-08-02T12:00	31050	11	-37.8		84	13	
2025-08-02T12:00	31100	11	-37.7		88	13	
2025-08-02T12:00	31150	11	-37.6		90	13	
2025-08-02T12:00	31200	11	-37.6		89	12	
2025-08-02T12:00	31250	11	-37.4		88	12	
2025-08-02T12:00	31300	11	-37.3		85	11	
2025-08-02T12:00	31350	10	-37.3		82	11	
2025-08-02T12:00	31400	10	-37.3		78	11	
2025-08-02T12:00	31450	10	-37.1		78	11	
2025-08-02T12:00	31500	10	-36.9		79	11	
2025-08-02T12:00	31550	10	-36.7		78	12	
2025-08-02T12:00	31600	10	-36.7		72	12	
2025-08-02T12:00	31650	10	-36.7		66	13	
2025-08-02T12:00	31700	10	-36.6		62	13	
2025-08-02T12:00	31750	10	-36.5		63	14	
2025-08-02T12:00	31800	10	-36.2		68	14	
2025-08-02T12:00	31850	10	-36.2		73	14	
2025-08-02T12:00	31900	10	-36.3		76	15	
2025-08-02T12:00	31950	10	-36.5		79	15	
2025-08-02T12:00	32000	10	-36.7		81	16	
2025-08-02T12:00	32050	9	-36.9		84	16	
2025-08-02T12:00	32100	9	-37.1		86	16	
2025-08-02T12:00	32150	9	-37.4		89	15	
2025-08-02T12:00	32200	9	-37.7		92	15	
2025-08-02T12:00	32250	9	-38.0		96	14	
2025-08-02T12:00	32300	9	-38.4		101	13	
2025-08-02T12:00	32350	9	-38.8		105	13	
2025-08-02T12:00	32400	9	-38.9		107	13	
2025-08-02T12:00	32450	9	-38.9		105	14	
2025-08-02T12:00	32500	9	-38.6		100	14	
2025-08-02T12:00	32550	9	-38.3		95	15	
2025-08-02T12:00	32600	9	-38.2		90	16	
2025-08-02T12:00	32650	9	-38.2		86	16	
2025-08-02T12:00	32700	9	-38.1		84	17	
2025-08-02T12:00	32750	9	-37.8		86	17	
2025-08-02T12:00	32800	9	-37.4		90	16	
2025-08-02T12:00	32850	8	-37.2		96	16	
2025-08-02T12:00	32900	8	-37.2		101	16	
2025-08-02T12:00	32950	8	-36.9		102	15	
2025-08-02T12:00	33000	8	-36.4		98	15	
2025-08-02T12:00	33050	8	-36.0		93	14	
2025-08-02T12:00	33100	8	-35.6		90	14	
2025-08-02T12:00	33150	8	-35.3		92	14	
2025-08-02T12:00	33200	8	-35.2		97	14	
2025-08-02T12:00	33250	8	-35.2		103	13	
2025-08-02T12:00	33300	8	-35.3		108	14	
2025-08-02T12:00	33350	8	-35.4		113	14	
2025-08-02T12:00	33400	8	-35.3		115	13	
2025-08-02T12:00	33450	8	-35.1		116	13	
2025-08-02T12:00	33500	8	-35.1		114	13	
2025-08-02T12:00	33550	8	-35.0		109	13	
2025-08-02T12:00	33600	8	-34.9		103	13	
2025-08-02T12:00	33650	8	-34.8		97	13	
2025-08-02T12:00	33700	7	-34.6		93	14	
2025-08-02T12:00	33750	7	-34.4		91	14	
2025-08-02T12:00	33800	7	-34.3		90	13	
2025-08-02T12:00	33850	7	-34.3		90	12	
2025-08-02T12:00	33900	7	-34.3		91	12	
2025-08-02T12:00	33950	7	-34.3		93	13	
2025-08-02T12:00	34000	7	-34.2		95	13	
2025-08-02T12:00	34050	7	-34.1		96	14	
2025-08-02T12:00	34100	7	-34.0		96	14	
2025-08-02T12:00	34150	7	-33.9		96	16	
2025-08-02T12:00	34200	7	-33.8		97	16	
2025-08-02T12:00	34250	7	-33.9		99	16	
2025-08-02T12:00	34300	7	-33.9		101	15	
2025-08-02T12:00	34350	7	-33.7		102	15	
2025-08-02T12:00	34400	7	-33.6		102	16	
2025-08-02T12:00	34450	7	-33.5		102	17	
2025-08-02T12:00	34500	7	-33.3		104	18	
2025-08-02T12:00	34550	7	-33.2		104	19	
2025-08-02T12:00	34600	7	-32.8		103	18	
2025-08-02T12:00	34650	7	-32.3		100	17	
2025-08-02T12:00	34700	6	-32.2		97	17	
2025-08-02T12:00	34750	6	-32.2		93	17	
2025-08-02T12:00	34800	6	-32.3		90	18	
2025-08-02T12:00	34850	6	-32.3		88	19	
2025-08-02T12:00	34900	6	-32.2		88	20	
2025-08-02T12:00	34950	6	-32.0		89	21	
2025-08-02T12:00	35000	6	-31.8		91	22	
2025-08-02T12:00	35050	6	-31.9		94	23	
2025-08-02T12:00	35100	6	-31.9		97	24	
2025-08-02T12:00	35150	6	-32.0		100	23	
2025-08-02T12:00	35200	6	-32.0		102	23	
2025-08-02T12:00	35250	6	-32.0		105	22	
2025-08-02T12:00	35300	6	-32.2		108	20	
2025-08-02T12:00	35350	6	-32.4		110	19	
2025-08-02T12:00	35400	6	-32.3		110	18	
2025-08-02T12:00	35450	6	-31.7		106	17	
2025-08-02T12:00	35500	6	-31.1		100	16	
2025-08-02T12:00	35550	6	-30.6		94	16	
2025-08-02T12:00	35600	6	-30.2		88	16	
2025-08-02T12:00	35650	6	-29.8		86	17	
2025-08-02T12:00	35700	6	-29.5		87	18	
2025-08-02T12:00	35750	6	-29.2		91	19	
2025-08-02T12:00	35800	6	-28.9		95	19	
2025-08-02T12:00	35850	6	-28.8		99	19	
2025-08-02T12:00	35900	5	-28.6		99	18	
2025-08-02T12:00	35950	5	-28.2		96	18	
2025-08-02T12:00	36000	5	-27.8		91	18	
2025-08-02T12:00	36050	5	-27.3		88	18	
2025-08-02T12:00	36100	5	-26.5		90	19	
2025-08-02T12:00	36150	5	-26.0		92	19	
2025-08-03T00:00	491	962	11.2	10.3	281	0	
2025-08-03T00:00	501	960	11.6	10.7	295	0	
2025-08-03T00:00	520	958	12.0	10.6	306	1	
2025-08-03T00:00	540	956	12.8	10.4	319	1	
2025-08-03T00:00	560	954	13.1	10.6	335	1	
2025-08-03T00:00	580	952	13.0	10.7	355	1	
2025-08-03T00:00	600	949	12.9	10.6	14	1	
2025-08-03T00:00	620	947	13.5	10.0	28	1	
2025-08-03T00:00	640	945	13.7	9.9	36	2	
2025-08-03T00:00	660	943	13.6	10.0	41	2	
2025-08-03T00:00	680	940	13.5	9.9	43	2	
2025-08-03T00:00	700	938	13.4	9.8	41	2	
2025-08-03T00:00	720	936	13.4	9.8	39	2	
2025-08-03T00:00	740	934	13.3	9.9	36	2	
2025-08-03T00:00	760	932	13.2	10.0	31	3	
2025-08-03T00:00	780	929	13.1	10.0	28	3	
2025-08-03T00:00	800	927	13.1	9.9	26	3	
2025-08-03T00:00	820	925	13.0	9.9	23	3	
2025-08-03T00:00	840	923	12.8	9.8	23	3	
2025-08-03T00:00	860	921	12.6	10.0	23	3	
2025-08-03T00:00	880	918	12.6	9.6	24	3	
2025-08-03T00:00	900	916	12.5	9.2	26	2	
2025-08-03T00:00	920	914	12.4	9.0	31	2	
2025-08-03T00:00	940	912	12.3	8.9	36	2	
2025-08-03T00:00	960	909	12.2	8.7	44	2	
2025-08-03T00:00	980	908	12.0	8.6	49	2	
2025-08-03T00:00	1000	905	11.9	8.4	53	2	
2025-08-03T00:00	1020	903	11.7	8.3	56	2	
2025-08-03T00:00	1040	901	11.5	8.4	55	2	
2025-08-03T00:00	1060	899	11.3	8.5	53	2	
2025-08-03T00:00	1080	897	11.1	8.4	48	2	
2025-08-03T00:00	1100	895	10.9	8.4	43	2	
2025-08-03T00:00	1120	892	10.7	8.4	38	2	
2025-08-03T00:00	1140	890	10.5	8.4	36	2	
2025-08-03T00:00	1160	888	10.4	8.2	38	2	
2025-08-03T00:00	1180	886	10.3	7.9	41	2	
2025-08-03T00:00	1200	884	10.1	7.7	46	2	
2025-08-03T00:00	1220	882	10.0	7.4	49	2	
2025-08-03T00:00	1240	880	9.9	7.2	49	2	
2025-08-03T00:00	1260	877	9.8	6.9	43	2	
2025-08-03T00:00	1280	875	9.7	6.7	33	2	
2025-08-03T00:00	1300	873	9.5	6.6	19	2	
2025-08-03T00:00	1320	871	9.4	6.4	6	2	
2025-08-03T00:00	1340	869	9.4	6.0	356	2	
2025-08-03T00:00	1360	867	9.3	6.0	348	2	
2025-08-03T00:00	1380	865	9.1	5.9	344	2	
2025-08-03T00:00	1400	863	9.0	5.7	342	2	
2025-08-03T00:00	1420	861	8.8	5.4	342	2	
2025-08-03T00:00	1440	859	8.6	5.4	346	2	
2025-08-03T00:00	1460	856	8.4	5.3	352	2	
2025-08-03T00:00	1480	854	8.3	5.1	1	2	
2025-08-03T00:00	1500	852	8.2	5.0	11	2	
2025-08-03T00:00	1520	850	8.1	5.0	19	2	
2025-08-03T00:00	1540	849	7.9	5.1	27	2	
2025-08-03T00:00	1560	846	7.8	5.0	35	2	
2025-08-03T00:00	1580	844	7.5	5.0	42	2	
2025-08-03T00:00	1600	842	7.4	5.0	46	3	
2025-08-03T00:00	1620	840	7.2	4.8	50	3	
2025-08-03T00:00	1640	838	7.0	4.7	55	3	
2025-08-03T00:00	1660	836	6.9	4.6	60	3	
2025-08-03T00:00	1680	834	6.7	4.6	66	3	
2025-08-03T00:00	1700	832	6.5	4.4	71	3	
2025-08-03T00:00	1720	830	6.4	4.3	75	3	
2025-08-03T00:00	1740	828	6.3	4.0	75	3	
2025-08-03T00:00	1760	826	6.1	4.0	73	4	
2025-08-03T00:00	1780	824	5.9	3.9	68	4	
2025-08-03T00:00	1800	822	5.7	3.6	62	4	
2025-08-03T00:00	1820	820	5.5	3.2	58	4	
2025-08-03T00:00	1840	818	5.4	3.2	57	3	
2025-08-03T00:00	1860	816	5.2	3.2	59	3	
2025-08-03T00:00	1880	814	5.0	3.0	62	3	
2025-08-03T00:00	1900	812	4.8	2.9	66	3	
2025-08-03T00:00	1920	810	4.6	2.8	70	3	
2025-08-03T00:00	1940	808	4.5	2.6	73	3	
2025-08-03T00:00	1960	806	4.3	2.5	75	2	
2025-08-03T00:00	1980	804	4.1	2.4	76	2	
2025-08-03T00:00	2000	802	4.0	2.4	76	2	
2025-08-03T00:00	2020	800	3.8	2.3	75	2	
2025-08-03T00:00	2040	798	3.6	2.3	70	3	
2025-08-03T00:00	2060	796	3.4	2.3	62	3	
2025-08-03T00:00	2080	794	3.2	2.4	52	3	
2025-08-03T00:00	2100	792	3.0	2.2	44	3	
2025-08-03T00:00	2120	790	2.9	2.1	38	3	
2025-08-03T00:00	2140	789	2.8	1.7	34	4	
2025-08-03T00:00	2160	786	2.6	1.6	32	4	
2025-08-03T00:00	2180	785	2.4	1.6	34	4	
2025-08-03T00:00	2200	783	2.3	1.6	37	4	
2025-08-03T00:00	2220	781	2.2	1.5	43	3	
2025-08-03T00:00	2240	779	2.1	1.5	48	3	
2025-08-03T00:00	2260	777	1.9	1.6	49	3	
2025-08-03T00:00	2280	775	1.8	1.6	47	3	
2025-08-03T00:00	2300	773	1.8	1.2	42	3	
2025-08-03T00:00	2320	771	1.7	1.0	35	3	
2025-08-03T00:00	2340	769	1.5	1.0	28	3	
2025-08-03T00:00	2360	767	1.4	0.8	20	3	
2025-08-03T00:00	2380	765	1.3	0.7	15	3	
2025-08-03T00:00	2400	763	1.0	0.8	12	3	
2025-08-03T00:00	2420	762	0.9	0.6	9	3	
2025-08-03T00:00	2440	760	0.7	0.7	7	3	
2025-08-03T00:00	2460	758	0.6	0.6	7	3	
2025-08-03T00:00	2480	756	0.5	0.5	7	3	
2025-08-03T00:00	2500	754	0.4	0.4	8	4	
2025-08-03T00:00	2520	752	0.2	0.2	10	4	
2025-08-03T00:00	2540	750	0.2	0.2	11	4	
2025-08-03T00:00	2560	748	0.0	0.0	12	4	
2025-08-03T00:00	2580	747	-0.2	-0.2	13	4	
2025-08-03T00:00	2600	745	-0.3	-0.3	13	5	
2025-08-03T00:00	2620	743	-0.5	-0.5	12	5	
2025-08-03T00:00	2640	741	-0.6	-0.6	10	4	
2025-08-03T00:00	2660	739	-0.7	-0.7	6	4	
2025-08-03T00:00	2680	737	-0.9	-0.9	360	4	
2025-08-03T00:00	2700	735	-1.2	-1.4	351	4	
2025-08-03T00:00	2720	734	-1.3	-1.9	343	4	
2025-08-03T00:00	2740	732	-1.4	-2.4	335	4	
2025-08-03T00:00	2760	730	-1.6	-3.5	329	4	
2025-08-03T00:00	2780	728	-1.6	-3.8	325	4	
2025-08-03T00:00	2800	726	-1.6	-3.7	324	5	
2025-08-03T00:00	2820	724	-1.7	-3.8	323	5	
2025-08-03T00:00	2840	723	-1.7	-4.1	323	5	
2025-08-03T00:00	2860	721	-1.6	-4.0	323	5	
2025-08-03T00:00	2880	719	-1.5	-3.8	323	5	
2025-08-03T00:00	2900	717	-1.5	-3.7	322	5	
2025-08-03T00:00	2920	715	-1.6	-3.7	321	5	
2025-08-03T00:00	2940	714	-1.6	-3.7	320	5	
2025-08-03T00:00	2960	712	-1.8	-3.8	319	5	
2025-08-03T00:00	2980	710	-2.0	-3.8	318	5	
2025-08-03T00:00	3000	708	-2.1	-3.9	319	5	
2025-08-03T00:00	3020	707	-2.3	-3.8	320	4	
2025-08-03T00:00	3040	705	-2.5	-3.9	323	4	
2025-08-03T00:00	3060	703	-2.7	-3.9	326	4	
2025-08-03T00:00	3080	701	-2.8	-4.0	329	4	
2025-08-03T00:00	3100	699	-3.0	-4.0	331	3	
2025-08-03T00:00	3120	697	-3.2	-4.0	334	3	
2025-08-03T00:00	3140	696	-3.4	-4.1	336	3	
2025-08-03T00:00	3160	694	-3.6	-4.2	336	2	
2025-08-03T00:00	3180	692	-3.8	-4.3	333	2	
2025-08-03T00:00	3200	690	-4.0	-4.4	328	2	
2025-08-03T00:00	3220	689	-4.1	-4.6	323	2	
2025-08-03T00:00	3240	687	-3.8	-5.3	318	2	
2025-08-03T00:00	3260	686	-3.1	-6.1	315	2	
2025-08-03T00:00	3280	684	-2.8	-6.6	313	3	
2025-08-03T00:00	3300	682	-3.0	-6.9	315	3	
2025-08-03T00:00	3320	680	-3.1	-7.7	318	3	
2025-08-03T00:00	3340	678	-3.2	-7.8	325	3	
2025-08-03T00:00	3360	677	-3.3	-8.0	333	3	
2025-08-03T00:00	3380	675	-3.4	-8.1	341	4	
2025-08-03T00:00	3400	673	-3.7	-8.2	347	4	
2025-08-03T00:00	3420	672	-3.9	-8.3	352	5	
2025-08-03T00:00	3440	670	-4.0	-8.2	356	5	
2025-08-03T00:00	3460	668	-4.3	-8.3	358	5	
2025-08-03T00:00	3480	667	-4.3	-9.3	0	6	
2025-08-03T00:00	3500	665	-4.1	-11.4	1	6	
2025-08-03T00:00	3520	663	-4.0	-12.5	1	6	
2025-08-03T00:00	3540	662	-3.9	-12.6	0	6	
2025-08-03T00:00	3560	660	-3.9	-12.1	359	6	
2025-08-03T00:00	3580	658	-3.9	-11.6	357	6	
2025-08-03T00:00	3600	657	-4.0	-10.8	355	6	
2025-08-03T00:00	3620	655	-4.1	-11.5	354	6	
2025-08-03T00:00	3640	653	-4.2	-11.3	354	6	
2025-08-03T00:00	3660	652	-4.4	-10.2	354	6	
2025-08-03T00:00	3680	650	-4.6	-10.2	355	6	
2025-08-03T00:00	3700	648	-4.8	-9.7	356	6	
2025-08-03T00:00	3720	647	-5.0	-9.7	357	6	
2025-08-03T00:00	3740	645	-5.2	-9.6	358	6	
2025-08-03T00:00	3760	643	-5.4	-9.9	358	6	
2025-08-03T00:00	3780	642	-5.3	-13.9	358	6	
2025-08-03T00:00	3800	640	-5.3	-14.3	356	6	
2025-08-03T00:00	3820	638	-5.5	-13.5	352	6	
2025-08-03T00:00	3840	637	-5.6	-14.6	347	6	
2025-08-03T00:00	3860	635	-5.9	-13.7	342	6	
2025-08-03T00:00	3880	634	-6.1	-12.7	337	6	
2025-08-03T00:00	3900	632	-6.3	-11.4	336	5	
2025-08-03T00:00	3920	630	-6.3	-13.8	337	5	
2025-08-03T00:00	3940	629	-6.3	-18.2	342	4	
2025-08-03T00:00	3960	627	-6.4	-17.0	350	4	
2025-08-03T00:00	3980	625	-6.5	-14.7	358	4	
2025-08-03T00:00	4000	624	-6.5	-15.0	0	4	
2025-08-03T00:00	4020	622	-6.6	-15.1	360	4	
2025-08-03T00:00	4040	621	-6.8	-15.0	356	4	
2025-08-03T00:00	4060	619	-6.9	-14.6	351	4	
2025-08-03T00:00	4080	618	-7.0	-14.0	345	4	
2025-08-03T00:00	4100	616	-7.1	-13.3	341	4	
2025-08-03T00:00	4120	614	-7.2	-13.6	338	5	
2025-08-03T00:00	4140	613	-7.2	-14.8	337	5	
2025-08-03T00:00	4160	611	-7.3	-15.6	338	5	
2025-08-03T00:00	4180	610	-7.5	-15.0	340	5	
2025-08-03T00:00	4200	608	-7.7	-13.9	344	5	
2025-08-03T00:00	4220	607	-7.8	-12.7	348	5	
2025-08-03T00:00	4240	605	-7.9	-12.6	352	5	
2025-08-03T00:00	4260	603	-7.9	-12.9	355	5	
2025-08-03T00:00	4280	602	-8.0	-13.0	357	5	
2025-08-03T00:00	4300	600	-8.1	-13.2	358	5	
2025-08-03T00:00	4320	599	-8.2	-13.9	359	4	
2025-08-03T00:00	4340	597	-8.2	-14.7	0	5	
2025-08-03T00:00	4360	596	-8.2	-14.9	1	5	
2025-08-03T00:00	4380	594	-8.3	-16.4	1	5	
2025-08-03T00:00	4400	593	-8.3	-19.8	0	6	
2025-08-03T00:00	4420	591	-8.4	-20.7	359	6	
2025-08-03T00:00	4440	589	-8.6	-20.7	358	6	
2025-08-03T00:00	4460	588	-8.7	-20.4	357	6	
2025-08-03T00:00	4480	586	-8.8	-19.8	355	6	
2025-08-03T00:00	4500	585	-8.9	-19.2	354	6	
2025-08-03T00:00	4520	584	-9.1	-19.4	352	6	
2025-08-03T00:00	4540	582	-9.3	-19.1	351	6	
2025-08-03T00:00	4560	581	-9.4	-19.4	351	7	
2025-08-03T00:00	4580	579	-9.6	-19.6	350	7	
2025-08-03T00:00	4600	578	-9.7	-20.3	349	7	
2025-08-03T00:00	4620	576	-9.8	-20.2	349	7	
2025-08-03T00:00	4640	575	-9.9	-21.1	348	7	
2025-08-03T00:00	4660	573	-10.0	-21.0	347	7	
2025-08-03T00:00	4680	572	-10.2	-20.8	346	7	
2025-08-03T00:00	4700	570	-10.3	-20.9	345	7	
2025-08-03T00:00	4720	569	-10.4	-21.2	342	7	
2025-08-03T00:00	4740	567	-10.6	-21.2	339	7	
2025-08-03T00:00	4760	566	-10.7	-21.2	336	7	
2025-08-03T00:00	4780	564	-10.9	-21.1	333	7	
2025-08-03T00:00	4800	563	-11.1	-21.1	332	8	
2025-08-03T00:00	4820	561	-11.3	-21.4	332	8	
2025-08-03T00:00	4840	560	-11.4	-21.7	334	8	
2025-08-03T00:00	4860	558	-11.6	-22.1	336	8	
2025-08-03T00:00	4880	557	-11.7	-22.2	338	8	
2025-08-03T00:00	4900	555	-11.9	-22.2	341	8	
2025-08-03T00:00	4920	554	-12.0	-22.1	345	8	
2025-08-03T00:00	4940	553	-12.1	-22.8	349	7	
2025-08-03T00:00	4960	551	-12.2	-23.6	353	7	
2025-08-03T00:00	4980	550	-12.4	-24.0	356	7	
2025-08-03T00:00	5000	548	-12.5	-24.6	358	6	
2025-08-03T00:00	5020	547	-12.7	-25.0	1	6	
2025-08-03T00:00	5040	545	-12.8	-25.4	4	6	
2025-08-03T00:00	5060	544	-12.9	-25.5	6	7	
2025-08-03T00:00	5080	542	-13.0	-25.0	7	7	
2025-08-03T00:00	5100	541	-13.2	-25.3	9	7	
2025-08-03T00:00	5120	540	-13.4	-26.8	9	7	
2025-08-03T00:00	5140	538	-13.5	-28.7	9	7	
2025-08-03T00:00	5160	537	-13.7	-29.1	7	7	
2025-08-03T00:00	5180	535	-13.8	-27.5	5	7	
2025-08-03T00:00	5200	534	-14.0	-26.9	2	7	
2025-08-03T00:00	5220	532	-14.2	-26.7	360	7	
2025-08-03T00:00	5240	531	-14.4	-26.5	358	7	
2025-08-03T00:00	5260	530	-14.5	-25.8	356	7	
2025-08-03T00:00	5280	528	-14.7	-25.0	354	8	
2025-08-03T00:00	5300	527	-14.8	-25.8	353	8	
2025-08-03T00:00	5320	526	-14.9	-27.0	353	9	
2025-08-03T00:00	5340	524	-15.1	-27.8	353	9	
2025-08-03T00:00	5360	523	-15.2	-28.1	353	10	
2025-08-03T00:00	5380	521	-15.3	-28.5	354	10	
2025-08-03T00:00	5400	520	-15.4	-29.1	355	10	
2025-08-03T00:00	5420	519	-15.6	-29.3	357	9	
2025-08-03T00:00	5440	517	-15.8	-29.0	359	9	
2025-08-03T00:00	5460	516	-15.9	-29.1	2	9	
2025-08-03T00:00	5480	515	-16.1	-29.1	4	9	
2025-08-03T00:00	5500	513	-16.2	-28.7	6	9	
2025-08-03T00:00	5520	512	-16.4	-28.8	8	9	
2025-08-03T00:00	5540	511	-16.5	-29.2	9	9	
2025-08-03T00:00	5560	509	-16.7	-29.8	9	9	
2025-08-03T00:00	5580	508	-16.8	-30.0	9	9	
2025-08-03T00:00	5600	506	-17.0	-30.1	9	9	
2025-08-03T00:00	5620	505	-17.2	-30.1	7	9	
2025-08-03T00:00	5640	504	-17.4	-30.2	7	9	
2025-08-03T00:00	5660	502	-17.5	-30.5	6	9	
2025-08-03T00:00	5680	501	-17.7	-30.7	6	9	
2025-08-03T00:00	5700	500	-17.8	-31.2	6	9	
2025-08-03T00:00	5720	498	-17.9	-30.9	6	9	
2025-08-03T00:00	5740	497	-18.0	-28.4	6	9	
2025-08-03T00:00	5760	496	-18.2	-27.6	7	9	
2025-08-03T00:00	5780	494	-18.2	-29.3	7	9	
2025-08-03T00:00	5800	493	-18.2	-31.9	6	10	
2025-08-03T00:00	5820	492	-18.3	-32.9	6	10	
2025-08-03T00:00	5840	491	-18.4	-35.6	6	10	
2025-08-03T00:00	5860	489	-18.6	-35.7	5	10	
2025-08-03T00:00	5880	488	-18.8	-35.6	5	10	
2025-08-03T00:00	5900	487	-19.0	-35.0	4	10	
2025-08-03T00:00	5920	485	-19.1	-33.3	4	9	
2025-08-03T00:00	5940	484	-19.3	-33.0	3	9	
2025-08-03T00:00	5960	482	-19.5	-33.1	2	9	
2025-08-03T00:00	5980	481	-19.7	-33.3	2	9	
2025-08-03T00:00	6000	480	-19.9	-33.6	2	9	
2025-08-03T00:00	6020	479	-20.0	-33.8	2	9	
2025-08-03T00:00	6040	478	-20.2	-34.0	1	9	
2025-08-03T00:00	6060	476	-20.4	-34.2	1	9	
2025-08-03T00:00	6080	475	-20.5	-34.7	1	9	
2025-08-03T00:00	6100	474	-20.6	-36.7	0	10	
2025-08-03T00:00	6120	472	-20.8	-37.7	360	10	
2025-08-03T00:00	6140	471	-21.0	-38.5	360	10	
2025-08-03T00:00	6160	470	-21.0	-38.4	360	9	
2025-08-03T00:00	6180	468	-21.1	-37.8	360	9	
2025-08-03T00:00	6200	467	-21.3	-37.5	1	9	
2025-08-03T00:00	6220	466	-21.5	-37.1	2	9	
2025-08-03T00:00	6240	465	-21.6	-35.4	3	9	
2025-08-03T00:00	6260	463	-21.8	-34.5	5	8	
2025-08-03T00:00	6280	462	-21.9	-34.4	6	8	
2025-08-03T00:00	6300	461	-22.1	-33.6	8	9	
2025-08-03T00:00	6320	460	-22.3	-33.2	9	9	
2025-08-03T00:00	6340	458	-22.5	-33.5	10	9	
2025-08-03T00:00	6360	457	-22.7	-33.1	11	9	
2025-08-03T00:00	6380	456	-22.8	-32.8	12	9	
2025-08-03T00:00	6400	455	-22.9	-32.9	12	9	
2025-08-03T00:00	6420	453	-23.1	-33.0	14	9	
2025-08-03T00:00	6440	452	-23.3	-33.2	15	9	
2025-08-03T00:00	6460	451	-23.5	-33.2	16	9	
2025-08-03T00:00	6480	450	-23.7	-33.2	16	9	
2025-08-03T00:00	6500	448	-23.9	-33.3	16	9	
2025-08-03T00:00	6520	447	-24.1	-33.4	15	9	
2025-08-03T00:00	6540	446	-24.2	-33.5	13	8	
2025-08-03T00:00	6560	445	-24.5	-33.5	11	8	
2025-08-03T00:00	6580	443	-24.7	-33.7	8	8	
2025-08-03T00:00	6600	442	-24.8	-33.6	4	8	
2025-08-03T00:00	6620	441	-25.0	-34.0	2	8	
2025-08-03T00:00	6640	440	-25.1	-34.0	359	8	
2025-08-03T00:00	6660	439	-25.3	-34.1	358	9	
2025-08-03T00:00	6680	438	-25.5	-34.0	357	9	
2025-08-03T00:00	6700	436	-25.6	-34.1	357	10	
2025-08-03T00:00	6720	435	-25.8	-34.3	357	10	
2025-08-03T00:00	6740	434	-26.0	-34.5	357	10	
2025-08-03T00:00	6760	433	-26.1	-34.5	356	10	
2025-08-03T00:00	6780	431	-26.3	-34.6	356	10	
2025-08-03T00:00	6800	430	-26.5	-34.7	356	10	
2025-08-03T00:00	6820	429	-26.7	-34.8	356	10	
2025-08-03T00:00	6840	428	-26.9	-34.9	356	10	
2025-08-03T00:00	6860	427	-27.1	-34.9	355	11	
2025-08-03T00:00	6880	426	-27.2	-34.8	355	11	
2025-08-03T00:00	6900	424	-27.4	-34.9	354	11	
2025-08-03T00:00	6920	423	-27.6	-35.1	354	11	
2025-08-03T00:00	6940	422	-27.7	-35.2	354	11	
2025-08-03T00:00	6960	421	-27.9	-35.4	354	11	
2025-08-03T00:00	6980	420	-28.0	-35.5	354	11	
2025-08-03T00:00	7000	419	-28.2	-35.8	355	11	
2025-08-03T00:00	7020	417	-28.3	-36.4	356	11	
2025-08-03T00:00	7040	416	-28.4	-36.9	357	11	
2025-08-03T00:00	7060	415	-28.6	-37.3	357	10	
2025-08-03T00:00	7080	414	-28.7	-37.3	358	10	
2025-08-03T00:00	7100	413	-28.9	-37.5	357	10	
2025-08-03T00:00	7120	412	-29.1	-37.8	357	10	
2025-08-03T00:00	7140	410	-29.3	-37.7	357	10	
2025-08-03T00:00	7160	409	-29.5	-37.9	358	10	
2025-08-03T00:00	7180	408	-29.6	-39.2	358	10	
2025-08-03T00:00	7200	407	-29.6	-40.2	358	10	
2025-08-03T00:00	7220	406	-29.8	-40.3	358	10	
2025-08-03T00:00	7240	405	-29.9	-40.2	359	10	
2025-08-03T00:00	7260	404	-30.1	-40.3	359	10	
2025-08-03T00:00	7280	403	-30.3	-40.3	359	10	
2025-08-03T00:00	7300	401	-30.5	-40.4	359	10	
2025-08-03T00:00	7320	400	-30.7	-40.4	359	10	
2025-08-03T00:00	7340	399	-30.9	-40.4	358	10	
2025-08-03T00:00	7360	398	-31.1	-40.5	358	10	
2025-08-03T00:00	7380	397	-31.2	-40.5	358	10	
2025-08-03T00:00	7400	396	-31.4	-40.5	357	11	
2025-08-03T00:00	7420	395	-31.6	-40.6	356	11	
2025-08-03T00:00	7440	393	-31.8	-40.7	355	11	
2025-08-03T00:00	7460	392	-32.0	-40.6	354	11	
2025-08-03T00:00	7480	391	-32.2	-40.6	352	10	
2025-08-03T00:00	7500	390	-32.4	-40.6	351	10	
2025-08-03T00:00	7520	389	-32.6	-40.8	350	10	
2025-08-03T00:00	7540	388	-32.8	-40.9	350	10	
2025-08-03T00:00	7560	387	-33.0	-41.0	350	10	
2025-08-03T00:00	7580	386	-33.1	-41.3	350	10	
2025-08-03T00:00	7600	385	-33.3	-42.0	351	10	
2025-08-03T00:00	7620	383	-33.5	-42.3	352	10	
2025-08-03T00:00	7640	383	-33.6	-42.6	353	10	
2025-08-03T00:00	7660	381	-33.8	-43.0	354	10	
2025-08-03T00:00	7680	380	-33.9	-43.6	355	10	
2025-08-03T00:00	7700	379	-34.1	-44.4	357	10	
2025-08-03T00:00	7720	378	-34.2	-44.3	358	10	
2025-08-03T00:00	7740	377	-34.4	-44.5	360	11	
2025-08-03T00:00	7760	376	-34.6	-44.6	1	11	
2025-08-03T00:00	7780	375	-34.7	-45.2	2	11	
2025-08-03T00:00	7800	374	-34.9	-45.7	2	11	
2025-08-03T00:00	7820	373	-35.1	-45.9	3	12	
2025-08-03T00:00	7840	372	-35.3	-45.8	2	12	
2025-08-03T00:00	7860	370	-35.5	-45.9	2	12	
2025-08-03T00:00	7880	369	-35.6	-46.2	2	12	
2025-08-03T00:00	7900	368	-35.8	-46.3	2	12	
2025-08-03T00:00	7920	367	-36.0	-46.5	3	12	
2025-08-03T00:00	7940	366	-36.1	-46.6	4	12	
2025-08-03T00:00	7960	365	-36.3	-46.8	6	11	
2025-08-03T00:00	7980	364	-36.5	-46.9	8	11	
2025-08-03T00:00	8000	363	-36.7	-47.0	9	11	
2025-08-03T00:00	8020	362	-36.9	-47.0	10	11	
2025-08-03T00:00	8040	361	-37.1	-47.0	10	12	
2025-08-03T00:00	8060	360	-37.3	-46.8	9	12	
2025-08-03T00:00	8080	359	-37.5	-47.0	7	12	
2025-08-03T00:00	8100	358	-37.7	-46.8	5	12	
2025-08-03T00:00	8120	357	-37.8	-46.1	3	12	
2025-08-03T00:00	8140	356	-38.0	-46.1	2	13	
2025-08-03T00:00	8160	355	-38.2	-46.3	1	13	
2025-08-03T00:00	8180	354	-38.3	-46.5	1	13	
2025-08-03T00:00	8200	353	-38.5	-46.4	1	13	
2025-08-03T00:00	8220	352	-38.7	-46.4	1	13	
2025-08-03T00:00	8240	351	-38.8	-47.6	2	13	
2025-08-03T00:00	8260	350	-39.0	-48.3	3	12	
2025-08-03T00:00	8280	349	-39.2	-48.3	5	12	
2025-08-03T00:00	8300	348	-39.4	-48.3	6	12	
2025-08-03T00:00	8320	347	-39.5	-48.3	7	12	
2025-08-03T00:00	8340	346	-39.7	-48.5	8	12	
2025-08-03T00:00	8360	345	-39.9	-48.8	8	12	
2025-08-03T00:00	8380	344	-40.1	-48.8	8	12	
2025-08-03T00:00	8400	343	-40.3	-48.8	7	11	
2025-08-03T00:00	8420	342	-40.5	-48.9	6	11	
2025-08-03T00:00	8440	340	-40.7	-49.2	4	11	
2025-08-03T00:00	8460	340	-40.9	-49.5	2	11	
2025-08-03T00:00	8480	339	-41.0	-50.1	0	11	
2025-08-03T00:00	8500	338	-41.2	-50.9	359	11	
2025-08-03T00:00	8520	337	-41.4	-51.1	358	11	
2025-08-03T00:00	8540	336	-41.5	-51.1	357	11	
2025-08-03T00:00	8560	335	-41.7	-51.0	357	11	
2025-08-03T00:00	8580	334	-41.9	-50.8	358	10	
2025-08-03T00:00	8600	333	-42.1	-50.5	358	10	
2025-08-03T00:00	8620	332	-42.2	-49.8	358	10	
2025-08-03T00:00	8640	331	-42.4	-49.5	358	10	
2025-08-03T00:00	8660	330	-42.6	-49.5	358	10	
2025-08-03T00:00	8680	329	-42.7	-49.5	357	10	
2025-08-03T00:00	8700	328	-42.9	-49.6	357	10	
2025-08-03T00:00	8720	327	-43.1	-49.8	356	10	
2025-08-03T00:00	8740	326	-43.2	-50.2	355	10	
2025-08-03T00:00	8760	325	-43.4	-50.4	353	10	
2025-08-03T00:00	8780	324	-43.5	-50.2	350	9	
2025-08-03T00:00	8800	323	-43.7	-50.3	348	9	
2025-08-03T00:00	8820	322	-43.9	-50.5	346	9	
2025-08-03T00:00	8840	321	-44.1	-50.8	345	9	
2025-08-03T00:00	8860	320	-44.2	-51.3	345	10	
2025-08-03T00:00	8880	319	-44.4	-51.6	345	10	
2025-08-03T00:00	8900	318	-44.5	-51.4	345	10	
2025-08-03T00:00	8920	317	-44.6	-51.2	345	10	
2025-08-03T00:00	8940	316	-44.8	-51.4	344	10	
2025-08-03T00:00	8960	315	-45.0	-51.5	344	10	
2025-08-03T00:00	8980	314	-45.2	-51.8	343	10	
2025-08-03T00:00	9000	313	-45.3	-52.4	343	11	
2025-08-03T00:00	9020	312	-45.3	-53.1	344	11	
2025-08-03T00:00	9040	311	-45.3	-54.0	345	11	
2025-08-03T00:00	9060	311	-45.0	-54.9	347	12	
2025-08-03T00:00	9080	310	-45.0	-55.0	350	12	
2025-08-03T00:00	9100	309	-45.1	-54.7	352	12	
2025-08-03T00:00	9120	308	-45.3	-54.7	355	12	
2025-08-03T00:00	9140	307	-45.5	-54.8	357	13	
2025-08-03T00:00	9160	306	-45.7	-54.8	359	13	
2025-08-03T00:00	9180	305	-45.8	-55.2	0	13	
2025-08-03T00:00	9200	304	-45.7	-55.4	1	13	
2025-08-03T00:00	9220	303	-45.9	-55.6	2	13	
2025-08-03T00:00	9240	302	-45.9	-55.6	3	13	
2025-08-03T00:00	9260	301	-46.1	-55.6	3	13	
2025-08-03T00:00	9280	301	-46.1	-55.8	3	13	
2025-08-03T00:00	9300	300	-46.1	-56.4	2	13	
2025-08-03T00:00	9320	299	-46.1	-57.5	359	12	
2025-08-03T00:00	9340	298	-46.0	-58.4	356	12	
2025-08-03T00:00	9360	297	-45.8	-58.6	352	11	
2025-08-03T00:00	9380	296	-45.8	-58.5	347	11	
2025-08-03T00:00	9400	295	-45.9	-58.3	343	11	
2025-08-03T00:00	9420	294	-46.0	-58.4	340	11	
2025-08-03T00:00	9440	293	-46.1	-58.7	337	11	
2025-08-03T00:00	9460	292	-46.1	-58.9	335	12	
2025-08-03T00:00	9480	292	-46.1	-59.2	334	12	
2025-08-03T00:00	9500	291	-46.2	-59.4	334	11	
2025-08-03T00:00	9520	290	-46.2	-59.8	334	11	
2025-08-03T00:00	9540	289	-46.2	-60.5	335	11	
2025-08-03T00:00	9560	288	-46.2	-60.7	335	10	
2025-08-03T00:00	9580	287	-46.2	-60.7	334	10	
2025-08-03T00:00	9600	286	-46.0	-60.0	333	10	
2025-08-03T00:00	9620	286	-46.0	-59.5	331	9	
2025-08-03T00:00	9640	285	-46.1	-59.5	329	9	
2025-08-03T00:00	9660	284	-46.1	-59.3	328	9	
2025-08-03T00:00	9680	283	-46.2	-59.2	326	9	
2025-08-03T00:00	9700	282	-46.3	-58.9	324	9	
2025-08-03T00:00	9720	281	-46.5	-58.4	323	9	
2025-08-03T00:00	9740	281	-46.6	-57.9	322	9	
2025-08-03T00:00	9760	280	-46.6	-58.1	321	8	
2025-08-03T00:00	9780	279	-46.5	-58.7	320	8	
2025-08-03T00:00	9800	278	-46.7	-59.1	318	8	
2025-08-03T00:00	9820	277	-46.8	-59.3	316	9	
2025-08-03T00:00	9840	276	-46.8	-59.7	314	9	
2025-08-03T00:00	9860	275	-46.9	-60.1	312	9	
2025-08-03T00:00	9880	275	-46.7	-61.1	310	10	
2025-08-03T00:00	9900	274	-46.4	-62.6	309	10	
2025-08-03T00:00	9920	273	-46.2	-63.4	308	11	
2025-08-03T00:00	9940	272	-46.2	-63.5	308	11	
2025-08-03T00:00	9960	271	-46.1	-63.6	309	12	
2025-08-03T00:00	9980	270	-46.0	-63.3	310	12	
2025-08-03T00:00	10000	270	-45.9	-63.2	312	13	
2025-08-03T00:00	10018	269	-45.8	-63.3	313	13	
2025-08-03T00:00	10050	268	-45.6	-63.7	315	14	
2025-08-03T00:00	10100	266	-45.3	-64.7	318	15	
2025-08-03T00:00	10150	264	-45.4	-65.2	320	15	
2025-08-03T00:00	10200	262	-45.5	-64.8	323	15	
2025-08-03T00:00	10250	260	-45.6	-65.4	327	15	
2025-08-03T00:00	10300	258	-45.4	-66.1	330	14	
2025-08-03T00:00	10350	256	-45.3	-66.7	332	14	
2025-08-03T00:00	10400	254	-44.9	-67.7	331	13	
2025-08-03T00:00	10450	252	-44.6	-68.0	330	12	
2025-08-03T00:00	10500	250	-44.5	-68.5	327	11	
2025-08-03T00:00	10550	248	-44.3	-69.4	324	11	
2025-08-03T00:00	10600	246	-44.3	-69.6	320	11	
2025-08-03T00:00	10650	245	-44.5	-69.6	316	11	
2025-08-03T00:00	10700	243	-44.4	-70.5	312	12	
2025-08-03T00:00	10750	241	-44.4	-70.7	309	13	
2025-08-03T00:00	10800	239	-44.5	-71.1	310	13	
2025-08-03T00:00	10850	237	-44.4	-71.4	312	14	
2025-08-03T00:00	10900	236	-44.2	-72.3	317	14	
2025-08-03T00:00	10950	234	-43.9	-72.8	319	14	
2025-08-03T00:00	11000	232	-44.0	-73.1	318	15	
2025-08-03T00:00	11050	230	-43.9	-73.6	315	15	
2025-08-03T00:00	11100	229	-43.9	-74.0	311	14	
2025-08-03T00:00	11150	227	-43.9	-74.5	307	14	
2025-08-03T00:00	11200	225	-43.7	-75.3	306	14	
2025-08-03T00:00	11250	224	-43.6	-76.0	307	13	
2025-08-03T00:00	11300	222	-43.3	-75.9	309	14	
2025-08-03T00:00	11350	220	-43.3	-76.0	309	14	
2025-08-03T00:00	11400	219	-43.4	-76.2	310	15	
2025-08-03T00:00	11450	217	-43.2	-76.0	311	15	
2025-08-03T00:00	11500	216	-43.1	-76.1	313	16	
2025-08-03T00:00	11550	214	-43.2	-76.1	315	16	
2025-08-03T00:00	11600	212	-43.2	-76.0	318	16	
2025-08-03T00:00	11650	211	-43.2	-76.2	320	15	
2025-08-03T00:00	11700	209	-43.3	-76.2	319	15	
2025-08-03T00:00	11750	208	-43.6	-76.4	315	14	
2025-08-03T00:00	11800	206	-43.7	-76.5	309	14	
2025-08-03T00:00	11850	205	-44.0	-76.8	307	14	
2025-08-03T00:00	11900	203	-44.2	-77.1	306	15	
2025-08-03T00:00	11950	202	-44.0	-77.3	307	15	
2025-08-03T00:00	12000	200	-43.9	-77.3	309	15	
2025-08-03T00:00	12050	199	-43.8	-77.2	313	16	
2025-08-03T00:00	12100	197	-44.0	-77.3	316	15	
2025-08-03T00:00	12150	196	-44.1	-77.3	318	14	
2025-08-03T00:00	12200	194	-43.9	-77.2	316	13	
2025-08-03T00:00	12250	193	-44.1	-77.4	309	11	
2025-08-03T00:00	12300	191	-44.4	-77.5	298	12	
2025-08-03T00:00	12350	190	-44.5	-77.6	293	12	
2025-08-03T00:00	12400	188	-44.6	-77.7	293	13	
2025-08-03T00:00	12450	187	-44.7	-77.8	294	14	
2025-08-03T00:00	12500	186	-44.6	-77.3	296	14	
2025-08-03T00:00	12550	184	-44.6	-77.0	297	14	
2025-08-03T00:00	12600	183	-44.6	-76.9	298	14	
2025-08-03T00:00	12650	182	-44.6	-77.1	300	13	
2025-08-03T00:00	12700	180	-44.9	-77.2	302	13	
2025-08-03T00:00	12750	179	-45.2	-77.5	304	13	
2025-08-03T00:00	12800	178	-45.2	-77.6	305	12	
2025-08-03T00:00	12850	176	-45.1	-77.7	303	13	
2025-08-03T00:00	12900	175	-45.4	-77.9	300	13	
2025-08-03T00:00	12950	174	-45.7	-78.0	298	13	
2025-08-03T00:00	13000	172	-46.0	-78.1	297	14	
2025-08-03T00:00	13050	171	-46.0	-78.3	296	14	
2025-08-03T00:00	13100	170	-45.9	-78.3	297	14	
2025-08-03T00:00	13150	168	-45.9	-78.3	298	13	
2025-08-03T00:00	13200	167	-46.2	-78.2	301	12	
2025-08-03T00:00	13250	166	-46.3	-78.3	305	11	
2025-08-03T00:00	13300	165	-46.4	-78.7	307	11	
2025-08-03T00:00	13350	163	-46.3	-79.0	305	11	
2025-08-03T00:00	13400	162	-46.4	-79.2	303	12	
2025-08-03T00:00	13450	161	-46.8	-79.3	301	12	
2025-08-03T00:00	13500	160	-46.9	-79.4	301	12	
2025-08-03T00:00	13550	159	-46.9	-79.6	300	11	
2025-08-03T00:00	13600	157	-47.0	-79.6	297	10	
2025-08-03T00:00	13650	156	-47.3	-79.6	296	10	
2025-08-03T00:00	13700	155	-47.4	-79.7	297	11	
2025-08-03T00:00	13750	154	-47.4	-79.7	298	11	
2025-08-03T00:00	13800	153	-47.5	-79.6	300	11	
2025-08-03T00:00	13850	152	-47.7	-79.7	302	12	
2025-08-03T00:00	13900	150	-47.9	-79.7	303	12	
2025-08-03T00:00	13950	149	-48.1	-79.6	300	12	
2025-08-03T00:00	14000	148	-48.1	-79.7	295	12	
2025-08-03T00:00	14050	147	-48.2	-79.9	294	12	
2025-08-03T00:00	14100	146	-48.2	-80.1	297	12	
2025-08-03T00:00	14150	145	-48.2	-80.2	302	12	
2025-08-03T00:00	14200	144	-48.2	-80.2	305	12	
2025-08-03T00:00	14250	143	-48.3	-80.2	305	11	
2025-08-03T00:00	14300	142	-48.5	-80.4	301	11	
2025-08-03T00:00	14350	140	-48.4	-80.6	299	11	
2025-08-03T00:00	14400	139	-48.4	-80.5	299	11	
2025-08-03T00:00	14450	138	-48.6	-80.6	301	10	
2025-08-03T00:00	14500	137	-48.7	-80.7	301	9	
2025-08-03T00:00	14550	136	-48.7	-80.8	299	8	
2025-08-03T00:00	14600	135	-48.7	-80.8	295	8	
2025-08-03T00:00	14650	134	-48.8	-80.8	291	8	
2025-08-03T00:00	14700	133	-49.0	-80.9	287	7	
2025-08-03T00:00	14750	132	-49.2	-80.9	282	7	
2025-08-03T00:00	14800	131	-49.3	-80.9	276	7	
2025-08-03T00:00	14850	130	-49.4	-81.0	271	7	
2025-08-03T00:00	14900	129	-49.6	-81.1	271	7	
2025-08-03T00:00	14950	128	-49.7	-81.1	270	7	
2025-08-03T00:00	15000	127	-50.0	-81.2	269	7	
2025-08-03T00:00	15050	126	-50.3	-81.5	270	8	
2025-08-03T00:00	15100	125	-50.5	-81.6	274	9	
2025-08-03T00:00	15150	124	-50.4	-81.7	280	9	
2025-08-03T00:00	15200	123	-50.4	-81.7	286	10	
2025-08-03T00:00	15250	122	-50.5	-81.7	290	10	
2025-08-03T00:00	15300	122	-50.5	-81.8	290	10	
2025-08-03T00:00	15350	121	-50.5	-81.8	288	9	
2025-08-03T00:00	15400	120	-50.6	-81.8	283	9	
2025-08-03T00:00	15450	119	-50.6	-81.8	274	8	
2025-08-03T00:00	15500	118	-50.6	-81.9	267	9	
2025-08-03T00:00	15550	117	-50.8	-81.9	265	10	
2025-08-03T00:00	15600	116	-51.0	-81.9	269	10	
2025-08-03T00:00	15650	115	-51.2	-82.1	275	11	
2025-08-03T00:00	15700	114	-51.3	-82.1	282	11	
2025-08-03T00:00	15750	113	-51.6	-82.3	286	12	
2025-08-03T00:00	15800	113	-51.7	-82.3	287	12	
2025-08-03T00:00	15850	112	-51.7	-82.3	288	12	
2025-08-03T00:00	15900	111	-51.9	-82.5	290	11	
2025-08-03T00:00	15950	110	-51.8	-82.5	293	11	
2025-08-03T00:00	16000	109	-51.7	-82.6	296	10	
2025-08-03T00:00	16050	108	-51.7	-82.6	297	10	
2025-08-03T00:00	16100	107	-51.7	-82.5	295	10	
2025-08-03T00:00	16150	107	-51.7	-82.5	293	10	
2025-08-03T00:00	16200	106	-52.0	-82.5	291	10	
2025-08-03T00:00	16250	105	-52.2	-82.7	292	10	
2025-08-03T00:00	16300	104	-52.0	-82.6	296	10	
2025-08-03T00:00	16350	103	-52.3	-82.7	301	10	
2025-08-03T00:00	16400	103	-52.3	-82.8	301	10	
2025-08-03T00:00	16450	102	-52.3	-82.9	297	10	
2025-08-03T00:00	16500	101	-52.3	-83.0	294	9	
2025-08-03T00:00	16550	100	-51.9	-83.0	292	9	
2025-08-03T00:00	16600	99	-51.4	-82.9	292	8	
2025-08-03T00:00	16650	99	-51.1	-82.8	295	8	
2025-08-03T00:00	16700	98	-50.9	-82.6	300	7	
2025-08-03T00:00	16750	97	-51.0	-82.5	305	7	
2025-08-03T00:00	16800	96	-51.3	-82.5	312	6	
2025-08-03T00:00	16850	96	-51.5	-82.5	320	6	
2025-08-03T00:00	16900	95	-51.9	-82.6	325	6	
2025-08-03T00:00	16950	94	-52.3	-82.7	325	6	
2025-08-03T00:00	17000	94	-52.6	-82.9	319	6	
2025-08-03T00:00	17050	93	-52.7	-83.1	309	5	
2025-08-03T00:00	17100	92	-52.7	-83.3	304	4	
2025-08-03T00:00	17150	91	-52.2	-83.3	304	3	
2025-08-03T00:00	17200	91	-51.9	-83.1	302	2	
2025-08-03T00:00	17250	90	-52.2	-83.0	289	1	
2025-08-03T00:00	17300	89	-52.5	-83.1	224	1	
2025-08-03T00:00	17350	89	-52.8	-83.2	206	2	
2025-08-03T00:00	17400	88	-53.0	-83.2	219	2	
2025-08-03T00:00	17450	87	-53.3	-83.4	240	3	
2025-08-03T00:00	17500	87	-53.4	-83.5	257	3	
2025-08-03T00:00	17550	86	-53.5	-83.6	251	3	
2025-08-03T00:00	17600	85	-53.4	-83.5	238	4	
2025-08-03T00:00	17650	85	-53.5	-83.6	236	4	
2025-08-03T00:00	17700	84	-53.6	-83.7	240	4	
2025-08-03T00:00	17750	83	-53.4	-83.6	237	3	
2025-08-03T00:00	17800	83	-53.5	-83.7	220	2	
2025-08-03T00:00	17850	82	-53.6	-83.7	212	2	
2025-08-03T00:00	17900	81	-53.8	-83.8	219	2	
2025-08-03T00:00	17950	81	-54.0	-83.8	229	2	
2025-08-03T00:00	18000	80	-54.1	-83.8	236	2	
2025-08-03T00:00	18050	79	-54.2	-84.0	235	2	
2025-08-03T00:00	18100	79	-54.1	-84.1	227	2	
2025-08-03T00:00	18150	78	-53.9	-84.0	202	1	
2025-08-03T00:00	18200	78	-54.0	-84.0	171	2	
2025-08-03T00:00	18250	77	-54.2	-84.0	150	2	
2025-08-03T00:00	18300	76	-54.4	-84.2	147	3	
2025-08-03T00:00	18350	76	-53.8	-84.0	154	3	
2025-08-03T00:00	18400	75	-54.1	-84.1	164	3	
2025-08-03T00:00	18450	75	-54.4	-84.0	178	2	
2025-08-03T00:00	18500	74	-54.7	-84.0	204	2	
2025-08-03T00:00	18550	73	-55.1	-84.3	226	3	
2025-08-03T00:00	18600	73	-55.1	-84.5	236	4	
2025-08-03T00:00	18650	72	-54.9	-84.5	250	4	
2025-08-03T00:00	18700	72	-54.7	-84.4	271	4	
2025-08-03T00:00	18750	71	-54.5	-84.4	285	5	
2025-08-03T00:00	18800	71	-54.5	-84.3	292	6	
2025-08-03T00:00	18850	70	-54.7	-84.3	300	6	
2025-08-03T00:00	18900	70	-54.7	-84.5	309	5	
2025-08-03T00:00	18950	69	-54.3	-84.4	322	5	
2025-08-03T00:00	19000	68	-54.3	-84.4	339	5	
2025-08-03T00:00	19050	68	-54.3	-84.4	349	5	
2025-08-03T00:00	19100	67	-54.2	-84.3	352	5	
2025-08-03T00:00	19150	67	-54.2	-84.3	351	5	
2025-08-03T00:00	19200	66	-54.2	-84.3	347	5	
2025-08-03T00:00	19250	66	-54.3	-84.3	344	5	
2025-08-03T00:00	19300	65	-54.3	-84.3	343	4	
2025-08-03T00:00	19350	65	-54.3	-84.4	350	3	
2025-08-03T00:00	19400	64	-53.7	-84.3	14	2	
2025-08-03T00:00	19450	64	-53.5	-84.3	46	2	
2025-08-03T00:00	19500	63	-53.4	-84.3	66	2	
2025-08-03T00:00	19550	63	-53.3	-84.2	80	3	
2025-08-03T00:00	19600	62	-53.0	-84.1	96	3	
2025-08-03T00:00	19650	62	-52.9	-84.0	107	3	
2025-08-03T00:00	19700	61	-52.9	-83.9	105	3	
2025-08-03T00:00	19750	61	-52.9	-83.9	88	2	
2025-08-03T00:00	19800	60	-53.1	-83.9	58	2	
2025-08-03T00:00	19850	60	-53.2	-83.9	26	2	
2025-08-03T00:00	19900	60	-53.2	-84.0	4	3	
2025-08-03T00:00	19950	59	-53.2	-84.1	2	4	
2025-08-03T00:00	20000	59	-52.9	-84.0	9	5	
2025-08-03T00:00	20050	58	-52.8		16	5	
2025-08-03T00:00	20100	58	-52.9		23	5	
2025-08-03T00:00	20150	57	-52.8		34	5	
2025-08-03T00:00	20200	57	-52.8		44	5	
2025-08-03T00:00	20250	56	-52.9		50	5	
2025-08-03T00:00	20300	56	-53.0		50	5	
2025-08-03T00:00	20350	56	-53.3		45	5	
2025-08-03T00:00	20400	55	-53.3		39	4	
2025-08-03T00:00	20450	55	-53.4		35	4	
2025-08-03T00:00	20500	54	-53.3		37	5	
2025-08-03T00:00	20550	54	-53.1		42	7	
2025-08-03T00:00	20600	53	-52.8		49	7	
2025-08-03T00:00	20650	53	-52.7		56	7	
2025-08-03T00:00	20700	53	-52.8		61	7	
2025-08-03T00:00	20750	52	-52.8		64	5	
2025-08-03T00:00	20800	52	-52.6		64	4	
2025-08-03T00:00	20850	51	-52.4		71	4	
2025-08-03T00:00	20900	51	-52.5		84	3	
2025-08-03T00:00	20950	51	-52.6		94	3	
2025-08-03T00:00	21000	50	-52.8		92	4	
2025-08-03T00:00	21050	50	-52.6		85	5	
2025-08-03T00:00	21100	49	-52.7		80	7	
2025-08-03T00:00	21150	49	-52.7		79	8	
2025-08-03T00:00	21200	49	-52.5		83	8	
2025-08-03T00:00	21250	48	-52.3		87	8	
2025-08-03T00:00	21300	48	-52.3		88	7	
2025-08-03T00:00	21350	48	-52.2		84	6	
2025-08-03T00:00	21400	47	-52.1		80	7	
2025-08-03T00:00	21450	47	-52.1		79	8	
2025-08-03T00:00	21500	46	-52.1		82	9	
2025-08-03T00:00	21550	46	-52.1		88	10	
2025-08-03T00:00	21600	46	-52.2		94	10	
2025-08-03T00:00	21650	45	-52.4		100	11	
2025-08-03T00:00	21700	45	-52.8		106	11	
2025-08-03T00:00	21750	45	-53.0		113	10	
2025-08-03T00:00	21800	44	-52.9		120	9	
2025-08-03T00:00	21850	44	-52.7		127	8	
2025-08-03T00:00	21900	44	-52.8		130	7	
2025-08-03T00:00	21950	43	-52.8		129	7	
2025-08-03T00:00	22000	43	-52.4		122	7	
2025-08-03T00:00	22050	43	-52.6		113	7	
2025-08-03T00:00	22100	42	-52.7		107	7	
2025-08-03T00:00	22150	42	-52.7		104	8	
2025-08-03T00:00	22200	42	-52.8		104	8	
2025-08-03T00:00	22250	41	-52.8		107	9	
2025-08-03T00:00	22300	41	-52.6		110	8	
2025-08-03T00:00	22350	41	-52.4		115	8	
2025-08-03T00:00	22400	40	-52.5		122	7	
2025-08-03T00:00	22450	40	-52.3		129	7	
2025-08-03T00:00	22500	40	-52.2		136	6	
2025-08-03T00:00	22550	39	-52.1		140	5	
2025-08-03T00:00	22600	39	-52.3		135	4	
2025-08-03T00:00	22650	39	-52.5		125	4	
2025-08-03T00:00	22700	39	-52.3		116	5	
2025-08-03T00:00	22750	38	-52.1		110	6	
2025-08-03T00:00	22800	38	-52.1		103	7	
2025-08-03T00:00	22850	38	-52.2		97	8	
2025-08-03T00:00	22900	37	-52.2		95	9	
2025-08-03T00:00	22950	37	-52.3		96	10	
2025-08-03T00:00	23000	37	-52.4		98	10	
2025-08-03T00:00	23050	37	-52.5		100	10	
2025-08-03T00:00	23100	36	-52.7		105	10	
2025-08-03T00:00	23150	36	-52.7		113	10	
2025-08-03T00:00	23200	36	-52.7		120	10	
2025-08-03T00:00	23250	35	-52.9		126	9	
2025-08-03T00:00	23300	35	-53.1		128	8	
2025-08-03T00:00	23350	35	-53.1		125	7	
2025-08-03T00:00	23400	35	-53.0		124	6	
2025-08-03T00:00	23450	34	-52.3		134	6	
2025-08-03T00:00	23500	34	-52.0		146	6	
2025-08-03T00:00	23550	34	-52.0		154	7	
2025-08-03T00:00	23600	34	-51.6		161	7	
2025-08-03T00:00	23650	33	-51.6		166	6	
2025-08-03T00:00	23700	33	-51.2		162	4	
2025-08-03T00:00	23750	33	-51.1		136	3	
2025-08-03T00:00	23800	33	-50.7		108	4	
2025-08-03T00:00	23850	32	-50.4		99	6	
2025-08-03T00:00	23900	32	-50.1		96	7	
2025-08-03T00:00	23950	32	-50.0		95	7	
2025-08-03T00:00	24000	32	-49.9		96	7	
2025-08-03T00:00	24050	31	-49.8		98	8	
2025-08-03T00:00	24100	31	-50.0		100	9	
2025-08-03T00:00	24150	31	-50.2		103	10	
2025-08-03T00:00	24200	31	-50.4		107	11	
2025-08-03T00:00	24250	30	-50.5		111	10	
2025-08-03T00:00	24300	30	-50.4		113	9	
2025-08-03T00:00	24350	30	-50.5		113	7	
2025-08-03T00:00	24400	30	-50.5		112	6	
2025-08-03T00:00	24450	29	-50.3		113	5	
2025-08-03T00:00	24500	29	-50.2		116	5	
2025-08-03T00:00	24550	29	-50.3		114	4	
2025-08-03T00:00	24600	29	-50.2		105	4	
2025-08-03T00:00	24650	29	-50.2		95	4	
2025-08-03T00:00	24700	28	-49.7		90	4	
2025-08-03T00:00	24750	28	-49.4		87	5	
2025-08-03T00:00	24800	28	-49.4		82	6	
2025-08-03T00:00	24850	28	-49.0		74	6	
2025-08-03T00:00	24900	27	-48.7		67	6	
2025-08-03T00:00	24950	27	-48.7		62	6	
2025-08-03T00:00	25000	27	-48.8		55	7	
2025-08-03T00:00	25050	27	-48.5		51	8	
2025-08-03T00:00	25100	27	-48.2		52	9	
2025-08-03T00:00	25150	26	-48.2		57	10	
2025-08-03T00:00	25200	26	-48.3		61	11	
2025-08-03T00:00	25250	26	-48.5		67	11	
2025-08-03T00:00	25300	26	-48.7		74	11	
2025-08-03T00:00	25350	26	-48.9		81	11	
2025-08-03T00:00	25400	25	-49.0		89	11	
2025-08-03T00:00	25450	25	-49.3		97	10	
2025-08-03T00:00	25500	25	-49.6		102	11	
2025-08-03T00:00	25550	25	-49.8		103	11	
2025-08-03T00:00	25600	25	-49.8		101	10	
2025-08-03T00:00	25650	25	-49.9		97	10	
2025-08-03T00:00	25700	24	-50.0		93	9	
2025-08-03T00:00	25750	24	-50.1		90	8	
2025-08-03T00:00	25800	24	-49.9		91	8	
2025-08-03T00:00	25850	24	-49.7		97	7	
2025-08-03T00:00	25900	24	-49.9		107	7	
2025-08-03T00:00	25950	23	-50.0		118	6	
2025-08-03T00:00	26000	23	-49.9		126	6	
2025-08-03T00:00	26050	23	-49.8		125	5	
2025-08-03T00:00	26100	23	-49.1		107	4	
2025-08-03T00:00	26150	23	-48.7		83	5	
2025-08-03T00:00	26200	23	-48.6		75	6	
2025-08-03T00:00	26250	22	-48.5		82	6	
2025-08-03T00:00	26300	22	-48.2		95	6	
2025-08-03T00:00	26350	22	-48.2		102	6	
2025-08-03T00:00	26400	22	-47.9		102	6	
2025-08-03T00:00	26450	22	-47.8		95	6	
2025-08-03T00:00	26500	22	-47.6		84	6	
2025-08-03T00:00	26550	21	-47.5		75	7	
2025-08-03T00:00	26600	21	-47.6		69	9	
2025-08-03T00:00	26650	21	-47.7		68	11	
2025-08-03T00:00	26700	21	-47.7		67	13	
2025-08-03T00:00	26750	21	-47.6		69	14	
2025-08-03T00:00	26800	21	-47.6		71	16	
2025-08-03T00:00	26850	20	-47.7		74	17	
2025-08-03T00:00	26900	20	-48.0		79	18	
2025-08-03T00:00	26950	20	-48.0		82	18	
2025-08-03T00:00	27000	20	-47.8		85	17	
2025-08-03T00:00	27050	20	-47.7		87	15	
2025-08-03T00:00	27100	20	-47.5		90	13	
2025-08-03T00:00	27150	20	-47.5		93	12	
2025-08-03T00:00	27200	19	-47.3		96	11	
2025-08-03T00:00	27250	19	-47.3		95	12	
2025-08-03T00:00	27300	19	-47.4		94	13	
2025-08-03T00:00	27350	19	-47.3		94	14	
2025-08-03T00:00	27400	19	-47.1		94	15	
2025-08-03T00:00	27450	19	-47.0		95	15	
2025-08-03T00:00	27500	19	-46.9		97	14	
2025-08-03T00:00	27550	18	-46.8		100	14	
2025-08-03T00:00	27600	18	-46.7		102	14	
2025-08-03T00:00	27650	18	-46.6		103	14	
2025-08-03T00:00	27700	18	-46.5		103	14	
2025-08-03T00:00	27750	18	-46.4		101	14	
2025-08-03T00:00	27800	18	-46.2		97	14	
2025-08-03T00:00	27850	18	-45.9		94	13	
2025-08-03T00:00	27900	17	-45.7		91	13	
2025-08-03T00:00	27950	17	-45.6		87	12	
2025-08-03T00:00	28000	17	-45.5		84	12	
2025-08-03T00:00	28050	17	-45.4		82	12	
2025-08-03T00:00	28100	17	-45.3		81	12	
2025-08-03T00:00	28150	17	-45.2		82	13	
2025-08-03T00:00	28200	17	-45.1		85	13	
2025-08-03T00:00	28250	17	-45.1		89	13	
2025-08-03T00:00	28300	16	-45.2		93	13	
2025-08-03T00:00	28350	16	-45.3		94	13	
2025-08-03T00:00	28400	16	-45.3		97	12	
2025-08-03T00:00	28450	16	-45.4		101	12	
2025-08-03T00:00	28500	16	-45.2		104	12	
2025-08-03T00:00	28550	16	-45.3		105	12	
2025-08-03T00:00	28600	16	-45.2		103	11	
2025-08-03T00:00	28650	16	-44.8		99	10	
2025-08-03T00:00	28700	15	-44.6		94	10	
2025-08-03T00:00	28750	15	-44.4		89	10	
2025-08-03T00:00	28800	15	-44.2		84	10	
2025-08-03T00:00	28850	15	-43.7		79	10	
2025-08-03T00:00	28900	15	-43.3		73	10	
2025-08-03T00:00	28950	15	-43.2		69	10	
2025-08-03T00:00	29000	15	-43.3		65	11	
2025-08-03T00:00	29050	15	-43.4		62	11	
2025-08-03T00:00	29100	15	-43.7		62	12	
2025-08-03T00:00	29150	14	-43.9		64	13	
2025-08-03T00:00	29200	14	-43.7		69	13	
2025-08-03T00:00	29250	14	-43.7		74	13	
2025-08-03T00:00	29300	14	-43.9		79	14	
2025-08-03T00:00	29350	14	-43.9		82	13	
2025-08-03T00:00	29400	14	-43.8		85	13	
2025-08-03T00:00	29450	14	-43.8		90	12	
2025-08-03T00:00	29500	14	-43.7		96	11	
2025-08-03T00:00	29550	14	-43.7		101	11	
2025-08-03T00:00	29600	14	-43.6		104	11	
2025-08-03T00:00	29650	13	-43.4		106	11	
2025-08-03T00:00	29700	13	-43.2		105	11	
2025-08-03T00:00	29750	13	-43.1		100	11	
2025-08-03T00:00	29800	13	-42.9		91	11	
2025-08-03T00:00	29850	13	-42.8		84	11	
2025-08-03T00:00	29900	13	-42.8		80	11	
2025-08-03T00:00	29950	13	-42.6		79	11	
2025-08-03T00:00	30000	13	-42.6		80	11	
2025-08-03T00:00	30050	13	-42.5		81	11	
2025-08-03T00:00	30100	13	-42.2		81	11	
2025-08-03T00:00	30150	12	-42.1		82	11	
2025-08-03T00:00	30200	12	-42.1		82	10	
2025-08-03T00:00	30250	12	-42.1		82	10	
2025-08-03T00:00	30300	12	-42.1		82	9	
2025-08-03T00:00	30350	12	-41.9		84	9	
2025-08-03T00:00	30400	12	-41.7		89	8	
2025-08-03T00:00	30450	12	-41.6		94	8	
2025-08-03T00:00	30500	12	-41.3		100	8	
2025-08-03T00:00	30550	12	-41.1		106	7	
2025-08-03T00:00	30600	12	-41.3		108	6	
2025-08-03T00:00	30650	12	-41.2		102	5	
2025-08-03T00:00	30700	11	-40.9		89	5	
2025-08-03T00:00	30750	11	-40.9		76	6	
2025-08-03T00:00	30800	11	-40.9		71	7	
2025-08-03T00:00	30850	11	-40.8		72	9	
2025-08-03T00:00	30900	11	-40.7		73	10	
2025-08-03T00:00	30950	11	-40.6		71	11	
2025-08-03T00:00	31000	11	-40.5		68	12	
2025-08-03T00:00	31050	11	-40.5		66	13	
2025-08-03T00:00	31100	11	-40.6		65	14	
2025-08-03T00:00	31150	11	-40.7		67	14	
2025-08-03T00:00	31200	11	-40.7		70	14	
2025-08-03T00:00	31250	11	-40.9		74	13	
2025-08-03T00:00	31300	11	-40.9		80	12	
2025-08-03T00:00	31350	10	-41.0		84	11	
2025-08-03T00:00	31400	10	-41.1		88	10	
2025-08-03T00:00	31450	10	-41.2		89	9	
2025-08-03T00:00	31500	10	-40.9		86	9	
2025-08-03T00:00	31550	10	-40.5		82	8	
2025-08-03T00:00	31600	10	-40.2		83	8	
2025-08-03T00:00	31650	10	-39.9		87	9	
2025-08-03T00:00	31700	10	-39.7		90	8	
2025-08-03T00:00	31750	10	-39.3		90	8	
2025-08-03T00:00	31800	10	-39.0		89	8	
2025-08-03T00:00	31850	10	-38.7		86	9	
2025-08-03T00:00	31900	10	-38.4		85	11	
2025-08-03T00:00	31950	10	-38.3		85	12	
2025-08-03T00:00	32000	10	-38.1		85	12	
2025-08-03T00:00	32050	9	-38.1		86	12	
2025-08-03T00:00	32100	9	-38.3		86	12	
2025-08-03T00:00	32150	9	-38.2		85	11	
2025-08-03T00:00	32200	9	-38.2		84	11	
2025-08-03T00:00	32250	9	-38.2		82	11	
2025-08-03T00:00	32300	9	-37.7		83	12	
2025-08-03T00:00	32350	9	-37.0		83	13	
2025-08-03T00:00	32400	9	-36.5		82	15	
2025-08-03T00:00	32450	9	-36.4		80	16	
2025-08-03T00:00	32500	9	-36.4		79	17	
2025-08-03T00:00	32550	9	-36.3		80	18	
2025-08-03T00:00	32600	9	-36.1		83	18	
2025-08-03T00:00	32650	9	-35.8		86	18	
2025-08-03T00:00	32700	9	-36.1		90	17	
2025-08-03T00:00	32750	9	-36.4		92	16	
2025-08-03T00:00	32800	8	-36.7		94	15	
2025-08-03T00:00	32850	8	-36.8		94	14	
2025-08-03T00:00	32900	8	-36.6		94	14	
2025-08-03T00:00	32950	8	-36.3		92	14	
2025-08-03T00:00	33000	8	-36.1		89	15	
2025-08-03T00:00	33050	8	-35.9		87	15	
2025-08-03T00:00	33100	8	-35.7		86	16	
2025-08-03T00:00	33150	8	-35.6		87	17	
2025-08-03T00:00	33200	8	-35.6		89	18	
2025-08-03T00:00	33250	8	-35.6		90	19	
2025-08-03T00:00	33300	8	-35.5		90	19	
2025-08-03T00:00	33350	8	-35.4		89	19	
2025-08-03T00:00	33400	8	-35.3		87	18	
2025-08-03T00:00	33450	8	-35.2		84	17	
2025-08-03T00:00	33500	8	-35.3		81	16	
2025-08-03T00:00	33550	8	-35.3		79	15	
2025-08-03T00:00	33600	8	-35.4		77	15	
2025-08-03T00:00	33650	7	-35.3		77	15	
2025-08-03T00:00	33700	7	-34.9		78	16	
2025-08-03T00:00	33750	7	-34.8		78	17	
2025-08-03T00:00	33800	7	-34.7		77	18	
2025-08-03T00:00	33850	7	-34.4		76	19	
2025-08-03T00:00	33900	7	-34.2		76	20	
2025-08-03T00:00	33950	7	-33.9		78	20	
2025-08-03T00:00	34000	7	-33.4		79	20	
2025-08-03T00:00	34050	7	-32.9		79	19	
2025-08-03T00:00	34100	7	-32.7		78	19	
2025-08-03T00:00	34150	7	-32.9		75	18	
2025-08-03T00:00	34200	7	-33.2		71	18	
2025-08-03T00:00	34250	7	-33.3		65	18	
2025-08-03T00:00	34300	7	-33.2		60	18	
2025-08-03T00:00	34350	7	-32.5		57	19	
2025-08-03T00:00	34400	7	-32.1		54	20	
2025-08-03T00:00	34450	7	-32.1		52	20	
2025-08-03T00:00	34500	7	-32.0		49	20	
2025-08-03T00:00	34550	7	-32.1		48	20	
2025-08-03T00:00	34600	7	-32.3		51	20	
2025-08-03T00:00	34650	6	-32.5		54	21	
2025-08-03T00:00	34700	6	-32.7		58	22	
2025-08-03T00:00	34750	6	-33.0		61	22	
2025-08-03T00:00	34800	6	-33.3		65	23	
2025-08-03T00:00	34850	6	-33.6		69	23	
2025-08-03T00:00	34900	6	-33.8		73	24	
2025-08-03T00:00	34950	6	-33.9		76	24	
2025-08-03T00:00	35000	6	-34.3		79	23	
2025-08-03T00:00	35050	6	-34.7		81	23	
2025-08-03T00:00	35100	6	-34.8		83	21	
2025-08-03T00:00	35150	6	-34.3		84	20	
2025-08-03T00:00	35200	6	-34.2		85	19	
2025-08-03T00:00	35250	6	-34.1		86	18	
2025-08-03T00:00	35300	6	-33.6		85	18	
2025-08-03T00:00	35350	6	-33.2		84	18	
2025-08-03T00:00	35400	6	-33.1		82	19	
2025-08-03T00:00	35450	6	-32.8		80	20	
2025-08-03T00:00	35500	6	-32.7		78	20	
2025-08-03T00:00	35550	6	-32.2		78	20	
2025-08-03T00:00	35600	6	-31.7		79	21	
2025-08-03T00:00	35650	6	-31.5		84	21	
2025-08-03T00:00	35700	6	-31.3		88	21	
2025-08-03T00:00	35750	6	-31.3		93	21	
2025-08-03T00:00	35800	6	-31.6		97	21	
2025-08-03T00:00	35850	5	-32.0		99	20	
2025-08-03T00:00	35900	5	-32.1		98	19	
2025-08-03T00:00	35950	5	-31.3		93	18	
2025-08-03T00:00	36000	5	-30.9		87	18	
2025-08-03T00:00	36050	5	-30.8		82	18	
2025-08-03T00:00	36100	5	-30.3		82	18	
2025-08-03T00:00	36150	5	-29.9		87	18	
2025-08-03T00:00	36200	5	-30.0		92	18	
2025-08-03T00:00	36250	5	-30.0		95	17	
2025-08-03T12:00	491	963	20.5	9.4	359	4	
2025-08-03T12:00	520	960	18.9	8.7	343	1	
2025-08-03T12:00	540	958	17.9	8.1	335	2	
2025-08-03T12:00	560	956	17.7	7.9	333	2	
2025-08-03T12:00	580	953	17.6	7.8	332	2	
2025-08-03T12:00	600	951	17.6	8.1	334	2	
2025-08-03T12:00	620	949	17.4	7.7	338	2	
2025-08-03T12:00	640	947	17.1	7.9	342	2	
2025-08-03T12:00	660	944	17.4	8.5	348	2	
2025-08-03T12:00	680	942	17.1	8.1	354	2	
2025-08-03T12:00	700	940	16.9	7.9	359	2	
2025-08-03T12:00	720	938	16.5	7.8	3	2	
2025-08-03T12:00	740	935	16.3	7.9	7	2	
2025-08-03T12:00	760	933	16.2	8.0	7	2	
2025-08-03T12:00	780	931	16.0	7.9	7	2	
2025-08-03T12:00	800	929	15.8	7.8	5	2	
2025-08-03T12:00	820	927	15.4	7.6	0	2	
2025-08-03T12:00	840	925	15.0	7.2	354	2	
2025-08-03T12:00	860	922	15.0	7.4	347	2	
2025-08-03T12:00	880	920	14.8	7.5	342	2	
2025-08-03T12:00	900	918	14.6	7.5	337	2	
2025-08-03T12:00	920	916	14.4	7.3	333	2	
2025-08-03T12:00	940	914	14.3	7.6	335	2	
2025-08-03T12:00	960	912	14.0	7.3	343	2	
2025-08-03T12:00	980	909	13.7	6.8	358	1	
2025-08-03T12:00	1000	907	13.6	7.1	18	2	
2025-08-03T12:00	1020	905	13.3	7.0	30	2	
2025-08-03T12:00	1040	903	13.2	6.5	38	2	
2025-08-03T12:00	1060	901	13.0	6.2	44	3	
2025-08-03T12:00	1080	899	12.8	6.8	50	3	
2025-08-03T12:00	1100	896	12.6	6.8	57	3	
2025-08-03T12:00	1120	894	12.4	6.4	63	3	
2025-08-03T12:00	1140	892	12.3	6.1	68	3	
2025-08-03T12:00	1160	890	12.1	6.0	71	3	
2025-08-03T12:00	1180	888	12.0	5.8	70	2	
2025-08-03T12:00	1200	886	12.0	5.1	65	2	
2025-08-03T12:00	1220	884	11.9	4.9	55	2	
2025-08-03T12:00	1240	882	11.7	4.7	45	3	
2025-08-03T12:00	1260	880	11.6	4.5	39	3	
2025-08-03T12:00	1280	877	11.5	4.6	34	3	
2025-08-03T12:00	1300	875	11.3	4.6	31	3	
2025-08-03T12:00	1320	873	11.1	4.5	29	3	
2025-08-03T12:00	1340	871	10.9	4.4	28	4	
2025-08-03T12:00	1360	869	10.7	4.5	28	4	
2025-08-03T12:00	1380	867	10.6	4.6	27	4	
2025-08-03T12:00	1400	865	10.4	4.5	28	4	
2025-08-03T12:00	1420	863	10.2	4.3	28	4	
2025-08-03T12:00	1440	861	10.0	4.4	29	4	
2025-08-03T12:00	1460	859	9.8	4.5	29	4	
2025-08-03T12:00	1480	857	9.6	4.5	29	4	
2025-08-03T12:00	1500	855	9.5	4.5	28	4	
2025-08-03T12:00	1520	853	9.3	4.5	26	4	
2025-08-03T12:00	1540	850	9.2	4.0	22	4	
2025-08-03T12:00	1560	848	9.1	3.5	19	4	
2025-08-03T12:00	1580	846	9.0	3.4	16	4	
2025-08-03T12:00	1600	845	8.8	3.4	16	4	
2025-08-03T12:00	1620	842	8.6	3.3	17	4	
2025-08-03T12:00	1640	840	8.4	3.2	20	3	
2025-08-03T12:00	1660	838	8.2	3.2	24	3	
2025-08-03T12:00	1680	836	8.1	3.1	28	3	
2025-08-03T12:00	1700	834	8.0	3.0	33	3	
2025-08-03T12:00	1720	832	7.9	2.8	36	3	
2025-08-03T12:00	1740	830	7.8	2.7	38	3	
2025-08-03T12:00	1760	828	7.6	2.6	40	3	
2025-08-03T12:00	1780	826	7.5	2.5	42	4	
2025-08-03T12:00	1800	824	7.3	2.5	44	4	
2025-08-03T12:00	1820	822	7.2	2.3	46	4	
2025-08-03T12:00	1840	820	7.1	2.2	50	4	
2025-08-03T12:00	1860	818	7.1	1.8	54	3	
2025-08-03T12:00	1880	816	7.0	1.5	54	3	
2025-08-03T12:00	1900	814	7.0	1.3	48	2	
2025-08-03T12:00	1920	812	6.9	1.3	29	2	
2025-08-03T12:00	1940	810	6.7	1.2	9	2	
2025-08-03T12:00	1960	808	6.5	1.1	1	2	
2025-08-03T12:00	1980	806	6.4	1.0	1	2	
2025-08-03T12:00	2000	805	6.3	1.0	6	2	
2025-08-03T12:00	2020	802	6.2	0.7	12	2	
2025-08-03T12:00	2040	800	6.0	0.5	18	2	
2025-08-03T12:00	2060	798	5.9	0.7	22	2	
2025-08-03T12:00	2080	797	5.8	0.7	23	1	
2025-08-03T12:00	2100	795	5.6	0.4	22	1	
2025-08-03T12:00	2120	793	5.5	0.1	22	1	
2025-08-03T12:00	2140	791	5.4	-0.1	26	1	
2025-08-03T12:00	2160	789	5.2	-0.1	36	1	
2025-08-03T12:00	2180	787	5.0	-0.2	46	1	
2025-08-03T12:00	2200	785	4.8	-0.3	50	1	
2025-08-03T12:00	2220	783	4.6	-0.3	50	1	
2025-08-03T12:00	2240	781	4.4	-0.4	46	2	
2025-08-03T12:00	2260	779	4.2	-0.4	43	2	
2025-08-03T12:00	2280	777	4.1	-0.5	38	2	
2025-08-03T12:00	2300	775	3.9	-0.6	32	2	
2025-08-03T12:00	2320	773	3.7	-1.0	26	2	
2025-08-03T12:00	2340	772	3.6	-1.2	21	2	
2025-08-03T12:00	2360	770	3.4	-1.5	18	2	
2025-08-03T12:00	2380	768	3.3	-1.7	15	2	
2025-08-03T12:00	2400	766	3.2	-1.7	12	2	
2025-08-03T12:00	2420	764	3.0	-1.9	8	2	
2025-08-03T12:00	2440	762	2.9	-1.9	1	2	
2025-08-03T12:00	2460	760	2.7	-2.0	355	2	
2025-08-03T12:00	2480	759	2.6	-2.0	350	2	
2025-08-03T12:00	2500	757	2.4	-2.1	348	2	
2025-08-03T12:00	2520	755	2.2	-2.0	350	2	
2025-08-03T12:00	2540	753	2.0	-1.9	357	2	
2025-08-03T12:00	2560	751	1.8	-1.9	5	2	
2025-08-03T12:00	2580	749	1.6	-1.9	12	2	
2025-08-03T12:00	2600	747	1.4	-2.0	16	2	
2025-08-03T12:00	2620	745	1.2	-2.0	18	2	
2025-08-03T12:00	2640	744	1.1	-2.1	18	2	
2025-08-03T12:00	2660	742	0.9	-2.1	15	2	
2025-08-03T12:00	2680	740	0.7	-2.1	11	2	
2025-08-03T12:00	2700	738	0.4	-2.2	8	2	
2025-08-03T12:00	2720	736	0.3	-2.2	5	3	
2025-08-03T12:00	2740	734	0.1	-2.1	3	3	
2025-08-03T12:00	2760	732	-0.1	-2.0	0	4	
2025-08-03T12:00	2780	731	-0.3	-2.2	359	4	
2025-08-03T12:00	2800	729	-0.4	-2.2	356	4	
2025-08-03T12:00	2820	727	-0.6	-2.2	353	5	
2025-08-03T12:00	2840	725	-0.8	-1.8	350	5	
2025-08-03T12:00	2860	723	-0.9	-1.5	348	5	
2025-08-03T12:00	2880	722	-1.1	-1.5	346	5	
2025-08-03T12:00	2900	720	-1.3	-1.5	345	5	
2025-08-03T12:00	2920	718	-1.4	-1.6	345	4	
2025-08-03T12:00	2940	716	-1.6	-1.6	348	4	
2025-08-03T12:00	2960	714	-1.7	-1.7	353	4	
2025-08-03T12:00	2980	712	-1.9	-1.9	358	4	
2025-08-03T12:00	3000	711	-1.9	-2.6	2	4	
2025-08-03T12:00	3020	709	-1.4	-3.9	3	4	
2025-08-03T12:00	3040	707	-1.1	-4.9	0	4	
2025-08-03T12:00	3060	705	-0.8	-5.6	358	5	
2025-08-03T12:00	3080	704	-0.6	-6.4	356	5	
2025-08-03T12:00	3100	702	-0.6	-6.8	354	6	
2025-08-03T12:00	3120	700	-0.6	-7.2	353	6	
2025-08-03T12:00	3140	698	-0.5	-7.7	352	6	
2025-08-03T12:00	3160	697	-0.5	-8.1	351	6	
2025-08-03T12:00	3180	695	-0.6	-8.1	349	7	
2025-08-03T12:00	3200	693	-0.8	-8.2	349	7	
2025-08-03T12:00	3220	692	-0.9	-8.4	349	7	
2025-08-03T12:00	3240	690	-1.0	-9.1	349	6	
2025-08-03T12:00	3260	688	-0.9	-9.8	351	6	
2025-08-03T12:00	3280	686	-0.9	-10.2	351	6	
2025-08-03T12:00	3300	685	-1.0	-10.5	352	6	
2025-08-03T12:00	3320	683	-1.0	-10.7	351	6	
2025-08-03T12:00	3340	681	-1.1	-9.6	350	6	
2025-08-03T12:00	3360	679	-1.2	-9.0	348	7	
2025-08-03T12:00	3380	678	-1.3	-9.0	347	7	
2025-08-03T12:00	3400	676	-1.4	-9.0	346	7	
2025-08-03T12:00	3420	674	-1.5	-8.8	345	7	
2025-08-03T12:00	3440	673	-1.7	-8.5	344	7	
2025-08-03T12:00	3460	671	-1.9	-8.0	343	8	
2025-08-03T12:00	3480	669	-2.1	-7.5	341	8	
2025-08-03T12:00	3500	668	-2.2	-7.5	340	8	
2025-08-03T12:00	3520	666	-2.4	-7.5	339	9	
2025-08-03T12:00	3540	664	-2.5	-7.5	339	9	
2025-08-03T12:00	3560	663	-2.6	-7.7	340	9	
2025-08-03T12:00	3580	661	-2.6	-8.2	341	9	
2025-08-03T12:00	3600	659	-2.7	-8.4	341	9	
2025-08-03T12:00	3620	658	-2.8	-7.8	342	9	
2025-08-03T12:00	3640	656	-3.0	-7.3	341	9	
2025-08-03T12:00	3660	654	-3.1	-7.1	340	9	
2025-08-03T12:00	3680	653	-3.3	-6.9	339	10	
2025-08-03T12:00	3700	651	-3.5	-6.9	339	10	
2025-08-03T12:00	3720	649	-3.7	-6.7	339	10	
2025-08-03T12:00	3740	648	-3.7	-6.6	340	10	
2025-08-03T12:00	3760	646	-3.8	-6.7	340	10	
2025-08-03T12:00	3780	644	-3.9	-7.2	341	10	
2025-08-03T12:00	3800	643	-4.0	-7.6	340	10	
2025-08-03T12:00	3820	641	-4.0	-7.7	340	10	
2025-08-03T12:00	3840	640	-4.1	-7.8	339	10	
2025-08-03T12:00	3860	638	-4.2	-7.7	339	10	
2025-08-03T12:00	3880	636	-4.4	-7.0	339	10	
2025-08-03T12:00	3900	635	-4.4	-8.6	340	10	
2025-08-03T12:00	3920	633	-4.5	-9.4	341	10	
2025-08-03T12:00	3940	632	-4.6	-9.8	342	10	
2025-08-03T12:00	3960	630	-4.8	-10.3	343	11	
2025-08-03T12:00	3980	628	-4.9	-11.1	343	11	
2025-08-03T12:00	4000	627	-4.9	-12.0	343	10	
2025-08-03T12:00	4020	625	-4.9	-11.1	343	10	
2025-08-03T12:00	4040	624	-5.0	-10.7	342	10	
2025-08-03T12:00	4060	622	-5.1	-11.1	342	9	
2025-08-03T12:00	4080	620	-5.1	-12.4	343	9	
2025-08-03T12:00	4100	619	-5.3	-13.2	344	9	
2025-08-03T12:00	4120	617	-5.4	-13.6	345	9	
2025-08-03T12:00	4140	616	-5.5	-13.1	346	9	
2025-08-03T12:00	4160	614	-5.7	-13.3	347	10	
2025-08-03T12:00	4180	612	-5.7	-13.4	347	10	
2025-08-03T12:00	4200	611	-5.7	-13.4	346	10	
2025-08-03T12:00	4220	609	-5.9	-11.9	345	10	
2025-08-03T12:00	4240	608	-6.0	-10.5	344	10	
2025-08-03T12:00	4260	606	-6.0	-10.8	342	10	
2025-08-03T12:00	4280	605	-6.2	-10.3	341	10	
2025-08-03T12:00	4300	603	-6.2	-10.1	339	10	
2025-08-03T12:00	4320	602	-6.4	-10.1	338	10	
2025-08-03T12:00	4340	600	-6.5	-10.1	338	10	
2025-08-03T12:00	4360	598	-6.7	-10.3	338	10	
2025-08-03T12:00	4380	597	-6.9	-10.6	338	10	
2025-08-03T12:00	4400	595	-7.0	-11.0	338	11	
2025-08-03T12:00	4420	594	-7.1	-10.8	338	11	
2025-08-03T12:00	4440	592	-7.2	-10.9	338	12	
2025-08-03T12:00	4460	591	-7.3	-11.4	338	12	
2025-08-03T12:00	4480	590	-7.4	-11.4	338	12	
2025-08-03T12:00	4500	588	-7.5	-11.5	338	12	
2025-08-03T12:00	4520	586	-7.6	-11.7	337	11	
2025-08-03T12:00	4540	585	-7.8	-11.9	337	11	
2025-08-03T12:00	4560	583	-7.9	-12.2	337	11	
2025-08-03T12:00	4580	582	-8.1	-12.1	337	11	
2025-08-03T12:00	4600	580	-8.3	-12.0	337	11	
2025-08-03T12:00	4620	579	-8.5	-11.9	337	11	
2025-08-03T12:00	4640	578	-8.6	-11.6	337	11	
2025-08-03T12:00	4660	576	-8.8	-11.5	338	11	
2025-08-03T12:00	4680	574	-9.0	-11.6	340	10	
2025-08-03T12:00	4700	573	-9.2	-11.6	342	10	
2025-08-03T12:00	4720	571	-9.3	-11.7	345	11	
2025-08-03T12:00	4740	570	-9.4	-11.7	347	11	
2025-08-03T12:00	4760	569	-9.5	-11.9	350	11	
2025-08-03T12:00	4780	567	-9.6	-11.9	351	12	
2025-08-03T12:00	4800	566	-9.7	-11.9	352	12	
2025-08-03T12:00	4820	564	-9.7	-12.1	354	12	
2025-08-03T12:00	4840	563	-9.8	-12.2	355	12	
2025-08-03T12:00	4860	561	-9.9	-12.7	358	12	
2025-08-03T12:00	4880	560	-9.9	-14.1	360	13	
2025-08-03T12:00	4900	558	-10.0	-14.3	1	13	
2025-08-03T12:00	4920	557	-10.0	-13.9	2	13	
2025-08-03T12:00	4940	555	-10.1	-13.8	1	13	
2025-08-03T12:00	4960	554	-10.3	-13.6	0	13	
2025-08-03T12:00	4980	552	-10.3	-13.3	359	14	
2025-08-03T12:00	5000	551	-10.2	-13.5	358	14	
2025-08-03T12:00	5020	550	-10.2	-13.6	356	14	
2025-08-03T12:00	5040	548	-10.3	-13.9	355	14	
2025-08-03T12:00	5060	547	-10.2	-14.3	354	14	
2025-08-03T12:00	5080	546	-10.1	-15.2	354	13	
2025-08-03T12:00	5100	544	-10.1	-16.0	353	13	
2025-08-03T12:00	5120	543	-10.2	-16.4	353	13	
2025-08-03T12:00	5140	541	-10.3	-17.1	353	12	
2025-08-03T12:00	5160	540	-10.3	-18.0	353	12	
2025-08-03T12:00	5180	538	-10.4	-18.2	353	12	
2025-08-03T12:00	5200	537	-10.6	-18.2	354	11	
2025-08-03T12:00	5220	536	-10.8	-18.3	356	11	
2025-08-03T12:00	5240	534	-10.9	-18.3	359	11	
2025-08-03T12:00	5260	533	-11.1	-18.5	1	12	
2025-08-03T12:00	5280	531	-11.3	-18.5	3	12	
2025-08-03T12:00	5300	530	-11.5	-18.5	3	12	
2025-08-03T12:00	5320	529	-11.7	-18.6	3	12	
2025-08-03T12:00	5340	527	-11.9	-18.6	3	12	
2025-08-03T12:00	5360	526	-12.1	-18.6	2	12	
2025-08-03T12:00	5380	524	-12.3	-18.7	0	11	
2025-08-03T12:00	5400	523	-12.4	-18.8	360	11	
2025-08-03T12:00	5420	522	-12.6	-18.9	358	11	
2025-08-03T12:00	5440	520	-12.7	-19.1	357	11	
2025-08-03T12:00	5460	519	-12.8	-19.2	357	11	
2025-08-03T12:00	5480	518	-12.9	-19.2	358	11	
2025-08-03T12:00	5500	516	-13.1	-19.2	358	11	
2025-08-03T12:00	5520	515	-13.2	-19.3	358	11	
2025-08-03T12:00	5540	514	-13.4	-19.3	358	11	
2025-08-03T12:00	5560	512	-13.6	-19.3	357	11	
2025-08-03T12:00	5580	511	-13.8	-19.3	356	12	
2025-08-03T12:00	5600	510	-14.0	-19.3	355	12	
2025-08-03T12:00	5620	508	-14.1	-19.3	355	12	
2025-08-03T12:00	5640	507	-14.3	-19.2	355	12	
2025-08-03T12:00	5660	505	-14.5	-19.3	356	12	
2025-08-03T12:00	5680	504	-14.7	-19.3	357	12	
2025-08-03T12:00	5700	503	-14.9	-19.4	358	12	
2025-08-03T12:00	5720	502	-15.0	-19.5	358	12	
2025-08-03T12:00	5740	500	-15.2	-19.5	358	12	
2025-08-03T12:00	5760	499	-15.3	-19.6	358	12	
2025-08-03T12:00	5780	498	-15.5	-19.7	357	12	
2025-08-03T12:00	5800	496	-15.7	-19.6	356	13	
2025-08-03T12:00	5820	495	-15.8	-19.5	354	13	
2025-08-03T12:00	5840	494	-16.0	-19.5	353	13	
2025-08-03T12:00	5860	492	-16.2	-18.9	352	14	
2025-08-03T12:00	5880	491	-16.4	-18.5	351	14	
2025-08-03T12:00	5900	490	-16.5	-18.3	351	15	
2025-08-03T12:00	5920	488	-16.7	-18.3	352	16	
2025-08-03T12:00	5940	487	-16.9	-18.4	352	16	
2025-08-03T12:00	5960	486	-17.1	-18.5	352	16	
2025-08-03T12:00	5980	485	-17.3	-18.5	353	17	
2025-08-03T12:00	6000	483	-17.5	-18.4	353	17	
2025-08-03T12:00	6020	482	-17.6	-18.4	353	17	
2025-08-03T12:00	6040	481	-17.7	-18.7	353	17	
2025-08-03T12:00	6060	479	-17.7	-18.9	353	17	
2025-08-03T12:00	6080	478	-17.8	-18.8	352	17	
2025-08-03T12:00	6100	477	-17.9	-18.7	352	17	
2025-08-03T12:00	6120	476	-18.0	-18.7	351	17	
2025-08-03T12:00	6140	474	-18.2	-18.8	351	17	
2025-08-03T12:00	6160	473	-18.4	-18.9	351	17	
2025-08-03T12:00	6180	472	-18.6	-19.0	352	17	
2025-08-03T12:00	6200	471	-18.6	-19.3	352	17	
2025-08-03T12:00	6220	469	-18.6	-19.8	353	17	
2025-08-03T12:00	6240	468	-18.6	-19.9	354	18	
2025-08-03T12:00	6260	467	-18.5	-20.1	354	18	
2025-08-03T12:00	6280	465	-18.5	-19.9	354	18	
2025-08-03T12:00	6300	464	-18.5	-19.9	354	18	
2025-08-03T12:00	6320	463	-18.6	-20.0	353	18	
2025-08-03T12:00	6340	462	-18.7	-20.3	353	18	
2025-08-03T12:00	6360	460	-18.8	-20.6	352	18	
2025-08-03T12:00	6380	459	-18.9	-20.9	351	18	
2025-08-03T12:00	6400	458	-19.0	-21.1	351	18	
2025-08-03T12:00	6420	457	-19.1	-21.4	351	18	
2025-08-03T12:00	6440	456	-19.1	-21.7	351	18	
2025-08-03T12:00	6460	454	-19.2	-21.9	352	18	
2025-08-03T12:00	6480	453	-19.3	-21.8	353	18	
2025-08-03T12:00	6500	452	-19.4	-21.9	354	19	
2025-08-03T12:00	6520	451	-19.5	-22.1	354	19	
2025-08-03T12:00	6540	450	-19.5	-22.0	354	20	
2025-08-03T12:00	6560	448	-19.6	-21.8	354	20	
2025-08-03T12:00	6580	447	-19.8	-21.9	354	21	
2025-08-03T12:00	6600	446	-19.9	-21.9	354	21	
2025-08-03T12:00	6620	445	-20.0	-21.8	353	21	
2025-08-03T12:00	6640	443	-20.2	-22.2	353	21	
2025-08-03T12:00	6660	442	-20.3	-22.3	353	21	
2025-08-03T12:00	6680	441	-20.4	-22.3	353	21	
2025-08-03T12:00	6700	440	-20.5	-22.5	353	21	
2025-08-03T12:00	6720	439	-20.6	-22.6	353	21	
2025-08-03T12:00	6740	438	-20.8	-23.1	353	20	
2025-08-03T12:00	6760	436	-20.9	-23.2	353	20	
2025-08-03T12:00	6780	435	-21.1	-23.3	352	20	
2025-08-03T12:00	6800	434	-21.2	-23.3	352	20	
2025-08-03T12:00	6820	433	-21.4	-23.4	352	21	
2025-08-03T12:00	6840	432	-21.5	-23.6	352	21	
2025-08-03T12:00	6860	430	-21.7	-23.8	351	21	
2025-08-03T12:00	6880	429	-21.8	-24.0	351	21	
2025-08-03T12:00	6900	428	-21.9	-24.3	351	21	
2025-08-03T12:00	6920	427	-22.0	-24.4	351	21	
2025-08-03T12:00	6940	426	-22.2	-24.6	351	21	
2025-08-03T12:00	6960	425	-22.4	-24.7	351	21	
2025-08-03T12:00	6980	424	-22.5	-25.0	351	22	
2025-08-03T12:00	7000	422	-22.7	-25.1	351	21	
2025-08-03T12:00	7020	421	-22.9	-25.0	351	21	
2025-08-03T12:00	7040	420	-23.0	-24.9	352	21	
2025-08-03T12:00	7060	419	-23.2	-25.4	352	21	
2025-08-03T12:00	7080	418	-23.3	-25.6	353	21	
2025-08-03T12:00	7100	417	-23.5	-25.5	353	21	
2025-08-03T12:00	7120	415	-23.7	-25.7	354	21	
2025-08-03T12:00	7140	414	-23.8	-26.3	354	21	
2025-08-03T12:00	7160	413	-23.9	-26.3	354	22	
2025-08-03T12:00	7180	412	-24.1	-26.3	354	22	
2025-08-03T12:00	7200	411	-24.3	-26.4	354	22	
2025-08-03T12:00	7220	410	-24.5	-26.5	354	22	
2025-08-03T12:00	7240	409	-24.7	-26.4	354	22	
2025-08-03T12:00	7260	408	-24.8	-26.5	353	22	
2025-08-03T12:00	7280	406	-24.9	-26.7	353	22	
2025-08-03T12:00	7300	405	-25.1	-26.9	353	22	
2025-08-03T12:00	7320	404	-25.2	-27.1	353	22	
2025-08-03T12:00	7340	403	-25.4	-27.1	354	22	
2025-08-03T12:00	7360	402	-25.5	-27.4	354	22	
2025-08-03T12:00	7380	401	-25.7	-27.7	355	22	
2025-08-03T12:00	7400	400	-25.8	-27.9	355	23	
2025-08-03T12:00	7420	399	-26.0	-28.2	356	23	
2025-08-03T12:00	7440	398	-26.0	-29.1	356	23	
2025-08-03T12:00	7460	397	-26.2	-29.5	357	23	
2025-08-03T12:00	7480	396	-26.3	-29.5	357	23	
2025-08-03T12:00	7500	394	-26.5	-29.5	358	24	
2025-08-03T12:00	7520	393	-26.6	-30.3	358	24	
2025-08-03T12:00	7540	392	-26.7	-30.9	358	23	
2025-08-03T12:00	7560	391	-26.8	-31.3	358	23	
2025-08-03T12:00	7580	390	-27.0	-31.1	359	23	
2025-08-03T12:00	7600	389	-27.2	-31.0	359	23	
2025-08-03T12:00	7620	388	-27.3	-31.2	359	23	
2025-08-03T12:00	7640	387	-27.5	-31.4	359	22	
2025-08-03T12:00	7660	386	-27.6	-31.4	359	22	
2025-08-03T12:00	7680	385	-27.8	-31.4	359	22	
2025-08-03T12:00	7700	384	-27.9	-31.8	359	22	
2025-08-03T12:00	7720	383	-28.0	-32.6	359	22	
2025-08-03T12:00	7740	382	-28.2	-32.8	359	22	
2025-08-03T12:00	7760	380	-28.4	-32.8	359	22	
2025-08-03T12:00	7780	379	-28.5	-32.9	358	22	
2025-08-03T12:00	7800	378	-28.7	-33.7	358	23	
2025-08-03T12:00	7820	377	-28.8	-34.0	359	23	
2025-08-03T12:00	7840	376	-29.0	-34.4	359	23	
2025-08-03T12:00	7860	375	-29.1	-35.2	359	23	
2025-08-03T12:00	7880	374	-29.2	-35.4	360	23	
2025-08-03T12:00	7900	373	-29.4	-35.4	0	23	
2025-08-03T12:00	7920	372	-29.6	-35.3	0	23	
2025-08-03T12:00	7940	371	-29.7	-35.4	0	23	
2025-08-03T12:00	7960	370	-29.9	-35.4	0	23	
2025-08-03T12:00	7980	369	-30.1	-35.5	0	23	
2025-08-03T12:00	8000	368	-30.3	-36.0	0	22	
2025-08-03T12:00	8020	367	-30.4	-37.1	0	22	
2025-08-03T12:00	8040	366	-30.5	-37.4	1	22	
2025-08-03T12:00	8060	365	-30.7	-38.3	1	22	
2025-08-03T12:00	8080	364	-30.8	-38.9	1	22	
2025-08-03T12:00	8100	363	-31.0	-38.9	1	22	
2025-08-03T12:00	8120	362	-31.2	-39.5	1	22	
2025-08-03T12:00	8140	361	-31.3	-39.8	1	22	
2025-08-03T12:00	8160	360	-31.5	-39.9	1	22	
2025-08-03T12:00	8180	359	-31.7	-40.0	1	23	
2025-08-03T12:00	8200	357	-31.9	-40.3	2	23	
2025-08-03T12:00	8220	357	-32.1	-40.3	2	23	
2025-08-03T12:00	8240	356	-32.2	-40.3	2	23	
2025-08-03T12:00	8260	355	-32.4	-40.5	3	23	
2025-08-03T12:00	8280	354	-32.6	-40.5	3	23	
2025-08-03T12:00	8300	353	-32.8	-40.7	3	23	
2025-08-03T12:00	8320	352	-33.0	-40.8	3	23	
2025-08-03T12:00	8340	351	-33.2	-40.8	3	23	
2025-08-03T12:00	8360	350	-33.4	-40.8	3	23	
2025-08-03T12:00	8380	349	-33.6	-41.3	3	23	
2025-08-03T12:00	8400	347	-33.7	-41.9	2	23	
2025-08-03T12:00	8420	347	-33.9	-41.8	2	23	
2025-08-03T12:00	8440	346	-34.1	-41.5	2	23	
2025-08-03T12:00	8460	345	-34.3	-41.9	2	23	
2025-08-03T12:00	8480	344	-34.5	-42.2	2	23	
2025-08-03T12:00	8500	343	-34.7	-42.3	2	23	
2025-08-03T12:00	8520	342	-34.9	-42.3	1	23	
2025-08-03T12:00	8540	341	-35.1	-42.1	1	23	
2025-08-03T12:00	8560	340	-35.3	-41.9	1	23	
2025-08-03T12:00	8580	339	-35.5	-41.8	1	23	
2025-08-03T12:00	8600	338	-35.7	-41.9	1	23	
2025-08-03T12:00	8620	337	-35.9	-42.1	1	23	
2025-08-03T12:00	8640	336	-36.0	-43.0	1	23	
2025-08-03T12:00	8660	335	-36.2	-43.8	1	23	
2025-08-03T12:00	8680	334	-36.4	-44.0	1	23	
2025-08-03T12:00	8700	333	-36.6	-44.2	1	23	
2025-08-03T12:00	8720	332	-36.8	-44.7	1	23	
2025-08-03T12:00	8740	331	-36.9	-45.4	1	23	
2025-08-03T12:00	8760	330	-37.1	-45.5	0	23	
2025-08-03T12:00	8780	329	-37.3	-45.6	360	23	
2025-08-03T12:00	8800	328	-37.5	-45.6	359	23	
2025-08-03T12:00	8820	327	-37.6	-45.3	359	24	
2025-08-03T12:00	8840	326	-37.8	-44.4	359	24	
2025-08-03T12:00	8860	325	-38.0	-44.0	359	24	
2025-08-03T12:00	8880	324	-38.2	-44.2	359	24	
2025-08-03T12:00	8900	323	-38.3	-44.3	359	24	
2025-08-03T12:00	8920	322	-38.5	-44.3	359	24	
2025-08-03T12:00	8940	321	-38.6	-44.3	359	24	
2025-08-03T12:00	8960	320	-38.8	-45.2	358	24	
2025-08-03T12:00	8980	320	-39.0	-45.9	358	24	
2025-08-03T12:00	9000	319	-39.1	-46.2	358	25	
2025-08-03T12:00	9020	318	-39.3	-46.7	358	25	
2025-08-03T12:00	9040	317	-39.5	-47.0	359	25	
2025-08-03T12:00	9060	316	-39.7	-47.5	359	25	
2025-08-03T12:00	9080	315	-39.8	-47.6	359	25	
2025-08-03T12:00	9100	314	-40.0	-47.3	360	25	
2025-08-03T12:00	9120	313	-40.2	-46.4	0	26	
2025-08-03T12:00	9140	312	-40.3	-46.3	0	26	
2025-08-03T12:00	9160	311	-40.5	-46.4	1	26	
2025-08-03T12:00	9180	310	-40.7	-46.6	1	26	
2025-08-03T12:00	9200	310	-40.8	-47.1	1	26	
2025-08-03T12:00	9220	309	-41.0	-47.4	1	26	
2025-08-03T12:00	9240	308	-41.1	-47.4	2	26	
2025-08-03T12:00	9260	307	-41.3	-47.3	2	26	
2025-08-03T12:00	9280	306	-41.4	-47.8	2	26	
2025-08-03T12:00	9300	305	-41.6	-48.4	2	26	
2025-08-03T12:00	9320	304	-41.7	-48.9	2	27	
2025-08-03T12:00	9340	303	-41.9	-49.3	2	27	
2025-08-03T12:00	9360	302	-42.1	-49.5	2	27	
2025-08-03T12:00	9380	301	-42.3	-49.4	2	27	
2025-08-03T12:00	9400	300	-42.4	-49.5	2	27	
2025-08-03T12:00	9420	300	-42.6	-49.6	2	28	
2025-08-03T12:00	9440	299	-42.7	-49.5	2	28	
2025-08-03T12:00	9460	298	-42.9	-49.2	1	28	
2025-08-03T12:00	9480	297	-43.1	-49.1	1	28	
2025-08-03T12:00	9500	296	-43.3	-49.3	1	28	
2025-08-03T12:00	9520	295	-43.4	-49.5	0	27	
2025-08-03T12:00	9540	294	-43.6	-49.6	360	27	
2025-08-03T12:00	9560	294	-43.8	-49.8	359	27	
2025-08-03T12:00	9580	293	-44.0	-50.1	359	27	
2025-08-03T12:00	9600	292	-44.2	-50.2	358	27	
2025-08-03T12:00	9620	291	-44.4	-50.3	358	27	
2025-08-03T12:00	9640	290	-44.6	-50.8	358	27	
2025-08-03T12:00	9660	289	-44.8	-51.0	358	28	
2025-08-03T12:00	9680	288	-44.9	-51.0	358	28	
2025-08-03T12:00	9700	287	-45.1	-50.9	358	28	
2025-08-03T12:00	9720	287	-45.2	-50.6	358	28	
2025-08-03T12:00	9740	286	-45.4	-50.4	358	28	
2025-08-03T12:00	9760	285	-45.6	-50.3	358	28	
2025-08-03T12:00	9780	284	-45.8	-50.3	359	28	
2025-08-03T12:00	9800	283	-46.0	-50.3	359	28	
2025-08-03T12:00	9820	282	-46.2	-50.2	359	28	
2025-08-03T12:00	9840	281	-46.4	-50.1	359	29	
2025-08-03T12:00	9860	281	-46.5	-50.0	359	29	
2025-08-03T12:00	9880	280	-46.7	-50.5	359	29	
2025-08-03T12:00	9900	279	-46.8	-51.3	359	29	
2025-08-03T12:00	9920	278	-47.0	-51.8	359	29	
2025-08-03T12:00	9940	277	-47.1	-51.9	359	30	
2025-08-03T12:00	9960	276	-47.3	-51.7	359	30	
2025-08-03T12:00	9980	276	-47.5	-51.5	359	30	
2025-08-03T12:00	10000	275	-47.7	-51.5	360	30	
2025-08-03T12:00	10018	274	-47.8	-51.5	360	30	
2025-08-03T12:00	10050	273	-48.1	-51.6	0	30	
2025-08-03T12:00	10100	270	-48.6	-52.5	0	30	
2025-08-03T12:00	10150	269	-49.0	-53.2	0	30	
2025-08-03T12:00	10200	266	-49.4	-53.4	0	30	
2025-08-03T12:00	10250	264	-49.8	-54.8	0	30	
2025-08-03T12:00	10300	262	-50.2	-55.4	0	31	
2025-08-03T12:00	10350	260	-50.6	-55.3	360	30	
2025-08-03T12:00	10400	258	-51.1	-55.6	360	31	
2025-08-03T12:00	10450	256	-51.5	-56.0	0	31	
2025-08-03T12:00	10500	254	-51.9	-56.4	1	32	
2025-08-03T12:00	10550	253	-52.4	-57.0	1	32	
2025-08-03T12:00	10600	251	-52.8	-57.7	1	32	
2025-08-03T12:00	10650	249	-53.2	-58.4	1	32	
2025-08-03T12:00	10700	247	-53.6	-57.9	360	31	
2025-08-03T12:00	10750	245	-54.1	-58.3	359	31	
2025-08-03T12:00	10800	243	-54.5	-58.5	359	31	
2025-08-03T12:00	10850	241	-54.8	-59.1	358	31	
2025-08-03T12:00	10900	239	-54.8	-59.0	358	30	
2025-08-03T12:00	10950	237	-55.0	-59.7	357	30	
2025-08-03T12:00	11000	235	-54.3	-61.4	356	29	
2025-08-03T12:00	11050	234	-54.2	-62.7	356	29	
2025-08-03T12:00	11100	232	-54.2	-63.2	356	29	
2025-08-03T12:00	11150	230	-54.4	-63.1	355	29	
2025-08-03T12:00	11200	228	-54.4	-64.1	354	29	
2025-08-03T12:00	11250	226	-53.5	-67.0	355	29	
2025-08-03T12:00	11300	225	-52.2	-70.3	358	28	
2025-08-03T12:00	11350	223	-50.5	-72.9	1	26	
2025-08-03T12:00	11400	221	-49.8	-74.2	3	24	
2025-08-03T12:00	11450	220	-49.2	-75.3	3	22	
2025-08-03T12:00	11500	218	-49.3	-75.5	3	22	
2025-08-03T12:00	11550	216	-49.5	-75.7	2	21	
2025-08-03T12:00	11600	215	-49.7	-76.0	359	21	
2025-08-03T12:00	11650	213	-50.0	-76.5	356	20	
2025-08-03T12:00	11700	211	-50.2	-76.9	352	20	
2025-08-03T12:00	11750	210	-50.6	-77.0	349	20	
2025-08-03T12:00	11800	208	-50.8	-77.4	348	20	
2025-08-03T12:00	11850	207	-50.6	-77.7	347	19	
2025-08-03T12:00	11900	205	-50.5	-78.1	345	20	
2025-08-03T12:00	11950	203	-50.5	-78.4	343	20	
2025-08-03T12:00	12000	202	-50.3	-78.5	343	21	
2025-08-03T12:00	12050	200	-50.1	-78.7	346	22	
2025-08-03T12:00	12100	199	-50.0	-78.9	350	22	
2025-08-03T12:00	12150	197	-49.3	-79.1	354	21	
2025-08-03T12:00	12200	196	-48.7	-79.3	356	19	
2025-08-03T12:00	12250	194	-48.5	-79.3	357	18	
2025-08-03T12:00	12300	193	-48.3	-78.7	355	17	
2025-08-03T12:00	12350	191	-48.3	-77.0	353	17	
2025-08-03T12:00	12400	190	-48.3	-76.7	350	17	
2025-08-03T12:00	12450	188	-48.1	-77.0	347	18	
2025-08-03T12:00	12500	187	-48.1	-77.7	345	18	
2025-08-03T12:00	12550	186	-48.1	-77.7	344	18	
2025-08-03T12:00	12600	184	-48.1	-78.2	343	17	
2025-08-03T12:00	12650	183	-47.8	-79.8	343	16	
2025-08-03T12:00	12700	181	-47.7	-79.8	344	15	
2025-08-03T12:00	12750	180	-47.7	-79.9	345	15	
2025-08-03T12:00	12800	179	-47.9	-80.1	346	14	
2025-08-03T12:00	12850	177	-48.0	-80.0	346	14	
2025-08-03T12:00	12900	176	-47.5	-79.9	346	13	
2025-08-03T12:00	12950	175	-47.5	-80.3	347	13	
2025-08-03T12:00	13000	173	-47.8	-80.1	348	13	
2025-08-03T12:00	13050	172	-47.8	-80.1	348	13	
2025-08-03T12:00	13100	171	-48.0	-80.2	346	13	
2025-08-03T12:00	13150	169	-48.2	-80.4	346	12	
2025-08-03T12:00	13200	168	-48.3	-80.3	347	12	
2025-08-03T12:00	13250	167	-48.3	-80.4	346	11	
2025-08-03T12:00	13300	166	-48.6	-80.5	343	11	
2025-08-03T12:00	13350	164	-49.0	-80.7	340	11	
2025-08-03T12:00	13400	163	-49.3	-80.8	338	11	
2025-08-03T12:00	13450	162	-49.5	-80.9	336	12	
2025-08-03T12:00	13500	161	-49.7	-81.1	335	13	
2025-08-03T12:00	13550	159	-49.9	-81.2	333	14	
2025-08-03T12:00	13600	158	-50.1	-81.3	333	14	
2025-08-03T12:00	13650	157	-50.0	-81.4	333	14	
2025-08-03T12:00	13700	156	-50.0	-81.5	333	13	
2025-08-03T12:00	13750	155	-50.0	-81.6	334	13	
2025-08-03T12:00	13800	153	-50.1	-81.6	333	13	
2025-08-03T12:00	13850	152	-50.1	-81.7	333	12	
2025-08-03T12:00	13900	151	-50.0	-81.9	335	11	
2025-08-03T12:00	13950	150	-49.6	-81.8	336	10	
2025-08-03T12:00	14000	149	-49.5	-81.8	337	9	
2025-08-03T12:00	14050	148	-49.8	-81.8	339	9	
2025-08-03T12:00	14100	147	-49.8	-81.8	342	9	
2025-08-03T12:00	14150	145	-50.0	-82.0	346	9	
2025-08-03T12:00	14200	144	-49.8	-81.8	347	9	
2025-08-03T12:00	14250	143	-49.8	-81.8	342	8	
2025-08-03T12:00	14300	142	-50.1	-82.1	334	7	
2025-08-03T12:00	14350	141	-50.2	-82.0	322	7	
2025-08-03T12:00	14400	140	-50.4	-82.2	308	7	
2025-08-03T12:00	14450	139	-50.5	-82.2	300	8	
2025-08-03T12:00	14500	138	-50.5	-82.2	298	9	
2025-08-03T12:00	14550	137	-50.7	-82.3	296	10	
2025-08-03T12:00	14600	136	-51.0	-82.4	294	10	
2025-08-03T12:00	14650	135	-51.2	-82.6	298	11	
2025-08-03T12:00	14700	134	-51.2	-82.6	305	11	
2025-08-03T12:00	14750	133	-51.6	-82.7	310	12	
2025-08-03T12:00	14800	132	-51.9	-82.9	314	13	
2025-08-03T12:00	14850	131	-51.7	-83.0	315	13	
2025-08-03T12:00	14900	130	-51.7	-82.8	316	13	
2025-08-03T12:00	14950	129	-51.7	-83.0	316	14	
2025-08-03T12:00	15000	128	-51.8	-83.2	316	14	
2025-08-03T12:00	15050	127	-51.9	-83.0	320	14	
2025-08-03T12:00	15100	126	-52.0	-83.2	327	13	
2025-08-03T12:00	15150	125	-51.4	-83.3	333	12	
2025-08-03T12:00	15200	124	-50.8	-83.2	337	10	
2025-08-03T12:00	15250	123	-50.6	-83.2	336	9	
2025-08-03T12:00	15300	122	-50.7	-83.2	334	8	
2025-08-03T12:00	15350	121	-50.7	-83.1	335	8	
2025-08-03T12:00	15400	120	-50.8	-83.1	336	8	
2025-08-03T12:00	15450	119	-50.8	-83.1	334	7	
2025-08-03T12:00	15500	118	-51.1	-83.2	330	7	
2025-08-03T12:00	15550	117	-51.4	-83.3	325	7	
2025-08-03T12:00	15600	116	-51.4	-83.3	321	8	
2025-08-03T12:00	15650	115	-51.4	-83.4	321	8	
2025-08-03T12:00	15700	115	-51.4	-83.4	326	8	
2025-08-03T12:00	15750	114	-51.4	-83.5	332	8	
2025-08-03T12:00	15800	113	-51.6	-83.6	333	8	
2025-08-03T12:00	15850	112	-51.4	-83.4	327	7	
2025-08-03T12:00	15900	111	-51.4	-83.5	319	7	
2025-08-03T12:00	15950	110	-51.5	-83.6	313	7	
2025-08-03T12:00	16000	109	-51.7	-83.7	312	6	
2025-08-03T12:00	16050	109	-51.8	-83.6	314	6	
2025-08-03T12:00	16100	108	-52.0	-83.8	312	6	
2025-08-03T12:00	16150	107	-51.9	-83.8	310	5	
2025-08-03T12:00	16200	106	-52.1	-83.8	316	4	
2025-08-03T12:00	16250	105	-52.3	-83.8	324	3	
2025-08-03T12:00	16300	104	-52.7	-84.0	329	3	
2025-08-03T12:00	16350	104	-53.0	-84.1	322	3	
2025-08-03T12:00	16400	103	-53.3	-84.2	309	3	
2025-08-03T12:00	16450	102	-53.3	-84.3	301	4	
2025-08-03T12:00	16500	101	-53.4	-84.3	300	6	
2025-08-03T12:00	16550	100	-53.7	-84.4	301	6	
2025-08-03T12:00	16600	100	-53.7	-84.5	304	7	
2025-08-03T12:00	16650	99	-53.7	-84.5	306	6	
2025-08-03T12:00	16700	98	-53.6	-84.7	306	5	
2025-08-03T12:00	16750	97	-53.2	-84.7	298	4	
2025-08-03T12:00	16800	97	-52.5	-84.5	279	3	
2025-08-03T12:00	16850	96	-52.7	-84.4	269	3	
2025-08-03T12:00	16900	95	-53.2	-84.5	275	4	
2025-08-03T12:00	16950	94	-53.4	-84.6	288	4	
2025-08-03T12:00	17000	94	-53.2	-84.6	300	5	
2025-08-03T12:00	17050	93	-53.2	-84.7	305	6	
2025-08-03T12:00	17100	92	-52.7	-84.6	303	6	
2025-08-03T12:00	17150	92	-52.7	-84.6	298	6	
2025-08-03T12:00	17200	91	-52.9	-84.6	295	6	
2025-08-03T12:00	17250	90	-52.8	-84.4	293	6	
2025-08-03T12:00	17300	89	-53.0	-84.5	292	6	
2025-08-03T12:00	17350	89	-52.9	-84.6	294	4	
2025-08-03T12:00	17400	88	-52.9	-84.6	293	2	
2025-08-03T12:00	17450	87	-52.9	-84.6	289	1	
2025-08-03T12:00	17500	87	-53.1	-84.5	295	1	
2025-08-03T12:00	17550	86	-53.4	-84.6	312	1	
2025-08-03T12:00	17600	85	-53.4	-84.7	337	1	
2025-08-03T12:00	17650	85	-53.4	-84.8	351	2	
2025-08-03T12:00	17700	84	-53.2	-84.7	347	2	
2025-08-03T12:00	17750	83	-53.3	-84.7	324	1	
2025-08-03T12:00	17800	83	-53.4	-84.8	210	0	
2025-08-03T12:00	17850	82	-53.5	-84.8	166	1	
2025-08-03T12:00	17900	81	-53.6	-84.7	129	1	
2025-08-03T12:00	17950	81	-53.8	-84.9	31	1	
2025-08-03T12:00	18000	80	-54.0	-84.9	16	3	
2025-08-03T12:00	18050	80	-54.2	-85.1	21	4	
2025-08-03T12:00	18100	79	-54.2	-85.2	31	4	
2025-08-03T12:00	18150	78	-53.9	-85.0	40	4	
2025-08-03T12:00	18200	78	-54.3	-85.0	47	3	
2025-08-03T12:00	18250	77	-54.6	-85.1	49	1	
2025-08-03T12:00	18300	77	-54.8	-85.3	37	1	
2025-08-03T12:00	18350	76	-54.5	-85.4	38	2	
2025-08-03T12:00	18400	75	-54.4	-85.4	46	4	
2025-08-03T12:00	18450	75	-54.2	-85.3	56	4	
2025-08-03T12:00	18500	74	-54.2	-85.4	67	5	
2025-08-03T12:00	18550	74	-54.0	-85.3	77	4	
2025-08-03T12:00	18600	73	-54.1	-85.3	89	3	
2025-08-03T12:00	18650	72	-54.2	-85.3	114	2	
2025-08-03T12:00	18700	72	-54.2	-85.2	129	2	
2025-08-03T12:00	18750	71	-54.4	-85.3	132	1	
2025-08-03T12:00	18800	71	-54.5	-85.3	272	1	
2025-08-03T12:00	18850	70	-54.7	-85.5	276	2	
2025-08-03T12:00	18900	70	-54.4	-85.7	261	2	
2025-08-03T12:00	18950	69	-53.5	-85.4	225	2	
2025-08-03T12:00	19000	69	-53.8	-85.5	197	3	
2025-08-03T12:00	19050	68	-53.9	-85.2	190	4	
2025-08-03T12:00	19100	68	-54.3	-85.2	189	4	
2025-08-03T12:00	19150	67	-54.6	-85.3	195	4	
2025-08-03T12:00	19200	66	-54.9	-85.5	210	4	
2025-08-03T12:00	19250	66	-54.9	-85.7	231	4	
2025-08-03T12:00	19300	65	-54.7	-85.7	249	3	
2025-08-03T12:00	19350	65	-54.6	-85.6	273	2	
2025-08-03T12:00	19400	64	-54.8	-85.7	313	2	
2025-08-03T12:00	19450	64	-54.9	-85.6	348	2	
2025-08-03T12:00	19500	63	-55.0	-85.7	15	3	
2025-08-03T12:00	19550	63	-55.2	-85.8	33	4	
2025-08-03T12:00	19600	62	-55.3	-85.8	39	5	
2025-08-03T12:00	19650	62	-55.4	-85.9	39	5	
2025-08-03T12:00	19700	62	-55.5	-85.9	39	5	
2025-08-03T12:00	19750	61	-55.7	-86.0	44	5	
2025-08-03T12:00	19800	61	-55.7	-86.1	52	5	
2025-08-03T12:00	19850	60	-55.8	-86.3	64	4	
2025-08-03T12:00	19900	60	-55.4	-86.2	77	4	
2025-08-03T12:00	19950	59	-55.0	-86.2	91	4	
2025-08-03T12:00	20000	59	-54.7	-86.1	101	4	
2025-08-03T12:00	20050	58	-54.7		106	4	
2025-08-03T12:00	20100	58	-54.8		101	4	
2025-08-03T12:00	20150	57	-54.7		94	3	
2025-08-03T12:00	20200	57	-54.1		99	3	
2025-08-03T12:00	20250	56	-53.9		122	2	
2025-08-03T12:00	20300	56	-54.1		174	2	
2025-08-03T12:00	20350	56	-54.3		214	2	
2025-08-03T12:00	20400	55	-54.4		242	2	
2025-08-03T12:00	20450	55	-53.9		288	2	
2025-08-03T12:00	20500	54	-53.3		336	2	
2025-08-03T12:00	20550	54	-52.9		2	3	
2025-08-03T12:00	20600	53	-52.9		12	4	
2025-08-03T12:00	20650	53	-52.8		18	5	
2025-08-03T12:00	20700	53	-52.1		25	4	
2025-08-03T12:00	20750	52	-52.2		36	4	
2025-08-03T12:00	20800	52	-52.3		49	4	
2025-08-03T12:00	20850	51	-52.1		66	4	
2025-08-03T12:00	20900	51	-52.1		82	4	
2025-08-03T12:00	20950	51	-52.2		95	3	
2025-08-03T12:00	21000	50	-52.4		97	3	
2025-08-03T12:00	21050	50	-52.3		80	2	
2025-08-03T12:00	21100	49	-52.4		53	3	
2025-08-03T12:00	21150	49	-52.4		43	4	
2025-08-03T12:00	21200	49	-52.5		40	5	
2025-08-03T12:00	21250	48	-52.6		40	6	
2025-08-03T12:00	21300	48	-52.8		42	6	
2025-08-03T12:00	21350	48	-52.8		47	6	
2025-08-03T12:00	21400	47	-52.7		54	6	
2025-08-03T12:00	21450	47	-52.6		61	6	
2025-08-03T12:00	21500	46	-52.6		66	7	
2025-08-03T12:00	21550	46	-52.7		72	7	
2025-08-03T12:00	21600	46	-52.6		79	8	
2025-08-03T12:00	21650	45	-52.6		86	8	
2025-08-03T12:00	21700	45	-52.4		92	8	
2025-08-03T12:00	21750	45	-52.0		94	9	
2025-08-03T12:00	21800	44	-52.2		96	9	
2025-08-03T12:00	21850	44	-52.3		99	9	
2025-08-03T12:00	21900	44	-52.1		103	9	
2025-08-03T12:00	21950	43	-51.9		107	8	
2025-08-03T12:00	22000	43	-51.6		108	7	
2025-08-03T12:00	22050	43	-51.3		106	7	
2025-08-03T12:00	22100	42	-51.1		105	7	
2025-08-03T12:00	22150	42	-51.0		110	7	
2025-08-03T12:00	22200	42	-51.0		117	7	
2025-08-03T12:00	22250	41	-51.2		123	8	
2025-08-03T12:00	22300	41	-51.4		129	8	
2025-08-03T12:00	22350	41	-51.7		133	8	
2025-08-03T12:00	22400	40	-51.8		133	7	
2025-08-03T12:00	22450	40	-51.6		130	6	
2025-08-03T12:00	22500	40	-51.5		127	5	
2025-08-03T12:00	22550	40	-51.5		130	3	
2025-08-03T12:00	22600	39	-51.6		136	3	
2025-08-03T12:00	22650	39	-51.8		133	2	
2025-08-03T12:00	22700	39	-52.0		106	1	
2025-08-03T12:00	22750	38	-51.9		51	1	
2025-08-03T12:00	22800	38	-51.7		36	2	
2025-08-03T12:00	22850	38	-51.6		40	4	
2025-08-03T12:00	22900	37	-51.5		47	5	
2025-08-03T12:00	22950	37	-51.4		54	6	
2025-08-03T12:00	23000	37	-51.5		62	7	
2025-08-03T12:00	23050	37	-51.6		70	7	
2025-08-03T12:00	23100	36	-51.7		76	7	
2025-08-03T12:00	23150	36	-51.6		79	8	
2025-08-03T12:00	23200	36	-51.8		80	8	
2025-08-03T12:00	23250	35	-51.9		81	8	
2025-08-03T12:00	23300	35	-52.1		83	8	
2025-08-03T12:00	23350	35	-52.1		84	8	
2025-08-03T12:00	23400	35	-52.3		85	8	
2025-08-03T12:00	23450	34	-52.3		86	7	
2025-08-03T12:00	23500	34	-52.3		90	7	
2025-08-03T12:00	23550	34	-52.5		97	7	
2025-08-03T12:00	23600	34	-52.7		106	8	
2025-08-03T12:00	23650	33	-52.9		115	10	
2025-08-03T12:00	23700	33	-52.9		126	11	
2025-08-03T12:00	23750	33	-52.7		136	11	
2025-08-03T12:00	23800	33	-52.4		143	10	
2025-08-03T12:00	23850	32	-51.8		145	8	
2025-08-03T12:00	23900	32	-51.2		138	6	
2025-08-03T12:00	23950	32	-50.7		127	6	
2025-08-03T12:00	24000	32	-50.4		121	6	
2025-08-03T12:00	24050	31	-50.3		119	6	
2025-08-03T12:00	24100	31	-50.1		112	6	
2025-08-03T12:00	24150	31	-50.0		97	6	
2025-08-03T12:00	24200	31	-50.0		87	7	
2025-08-03T12:00	24250	30	-49.9		88	8	
2025-08-03T12:00	24300	30	-49.8		95	9	
2025-08-03T12:00	24350	30	-49.9		104	10	
2025-08-03T12:00	24400	30	-50.1		111	11	
2025-08-03T12:00	24450	29	-50.3		117	11	
2025-08-03T12:00	24500	29	-50.2		122	11	
2025-08-03T12:00	24550	29	-50.4		125	10	
2025-08-03T12:00	24600	29	-50.5		126	9	
2025-08-03T12:00	24650	29	-50.6		125	8	
2025-08-03T12:00	24700	28	-50.6		120	7	
2025-08-03T12:00	24750	28	-50.4		113	7	
2025-08-03T12:00	24800	28	-50.2		106	7	
2025-08-03T12:00	24850	28	-50.2		98	8	
2025-08-03T12:00	24900	28	-50.2		92	8	
2025-08-03T12:00	24950	27	-50.3		92	8	
2025-08-03T12:00	25000	27	-50.1		100	7	
2025-08-03T12:00	25050	27	-50.3		105	7	
2025-08-03T12:00	25100	27	-50.5		105	7	
2025-08-03T12:00	25150	26	-50.5		100	7	
2025-08-03T12:00	25200	26	-50.4		96	8	
2025-08-03T12:00	25250	26	-50.3		97	9	
2025-08-03T12:00	25300	26	-50.1		100	10	
2025-08-03T12:00	25350	26	-50.1		105	11	
2025-08-03T12:00	25400	26	-50.3		108	12	
2025-08-03T12:00	25450	25	-50.3		109	12	
2025-08-03T12:00	25500	25	-50.2		110	13	
2025-08-03T12:00	25550	25	-50.2		109	12	
2025-08-03T12:00	25600	25	-50.3		107	12	
2025-08-03T12:00	25650	25	-50.1		106	12	
2025-08-03T12:00	25700	24	-49.9		108	13	
2025-08-03T12:00	25750	24	-50.0		113	14	
2025-08-03T12:00	25800	24	-50.0		117	14	
2025-08-03T12:00	25850	24	-50.0		120	13	
2025-08-03T12:00	25900	24	-49.8		123	13	
2025-08-03T12:00	25950	23	-49.7		126	12	
2025-08-03T12:00	26000	23	-49.8		129	12	
2025-08-03T12:00	26050	23	-49.7		128	11	
2025-08-03T12:00	26100	23	-49.4		123	11	
2025-08-03T12:00	26150	23	-49.2		120	12	
2025-08-03T12:00	26200	23	-49.1		119	12	
2025-08-03T12:00	26250	22	-49.1		121	12	
2025-08-03T12:00	26300	22	-48.8		125	11	
2025-08-03T12:00	26350	22	-48.8		129	11	
2025-08-03T12:00	26400	22	-48.8		134	11	
2025-08-03T12:00	26450	22	-48.8		139	10	
2025-08-03T12:00	26500	22	-48.4		146	9	
2025-08-03T12:00	26550	21	-47.9		154	7	
2025-08-03T12:00	26600	21	-47.7		164	6	
2025-08-03T12:00	26650	21	-47.6		172	5	
2025-08-03T12:00	26700	21	-47.5		180	4	
2025-08-03T12:00	26750	21	-47.3		189	2	
2025-08-03T12:00	26800	21	-47.0		193	1	
2025-08-03T12:00	26850	20	-46.8		44	1	
2025-08-03T12:00	26900	20	-46.7		50	2	
2025-08-03T12:00	26950	20	-46.8		57	3	
2025-08-03T12:00	27000	20	-47.0		62	4	
2025-08-03T12:00	27050	20	-47.1		64	5	
2025-08-03T12:00	27100	20	-47.1		60	6	
2025-08-03T12:00	27150	20	-46.8		58	7	
2025-08-03T12:00	27200	19	-46.7		58	8	
2025-08-03T12:00	27250	19	-46.6		59	9	
2025-08-03T12:00	27300	19	-46.5		60	10	
2025-08-03T12:00	27350	19	-46.4		62	10	
2025-08-03T12:00	27400	19	-46.3		68	9	
2025-08-03T12:00	27450	19	-46.5		74	9	
2025-08-03T12:00	27500	19	-46.6		74	9	
2025-08-03T12:00	27550	18	-46.4		70	10	
2025-08-03T12:00	27600	18	-46.3		68	11	
2025-08-03T12:00	27650	18	-46.0		70	11	
2025-08-03T12:00	27700	18	-45.8		74	11	
2025-08-03T12:00	27750	18	-45.6		77	11	
2025-08-03T12:00	27800	18	-45.3		77	12	
2025-08-03T12:00	27850	18	-45.1		73	13	
2025-08-03T12:00	27900	17	-44.9		71	13	
2025-08-03T12:00	27950	17	-44.5		72	14	
2025-08-03T12:00	28000	17	-44.2		75	14	
2025-08-03T12:00	28050	17	-44.3		80	13	
2025-08-03T12:00	28100	17	-44.5		87	13	
2025-08-03T12:00	28150	17	-44.8		91	12	
2025-08-03T12:00	28200	17	-45.0		93	12	
2025-08-03T12:00	28250	17	-44.8		91	13	
2025-08-03T12:00	28300	16	-44.5		88	13	
2025-08-03T12:00	28350	16	-44.4		84	14	
2025-08-03T12:00	28400	16	-44.5		82	14	
2025-08-03T12:00	28450	16	-44.6		83	14	
2025-08-03T12:00	28500	16	-44.7		87	15	
2025-08-03T12:00	28550	16	-44.9		93	15	
2025-08-03T12:00	28600	16	-45.0		96	15	
2025-08-03T12:00	28650	16	-45.1		96	14	
2025-08-03T12:00	28700	15	-45.0		94	13	
2025-08-03T12:00	28750	15	-45.1		91	11	
2025-08-03T12:00	28800	15	-45.2		90	10	
2025-08-03T12:00	28850	15	-45.2		91	9	
2025-08-03T12:00	28900	15	-45.1		94	8	
2025-08-03T12:00	28950	15	-45.1		96	8	
2025-08-03T12:00	29000	15	-45.0		96	8	
2025-08-03T12:00	29050	15	-44.9		94	8	
2025-08-03T12:00	29100	15	-44.7		91	10	
2025-08-03T12:00	29150	14	-44.5		91	11	
2025-08-03T12:00	29200	14	-44.3		93	12	
2025-08-03T12:00	29250	14	-44.1		97	12	
2025-08-03T12:00	29300	14	-43.8		99	12	
2025-08-03T12:00	29350	14	-43.4		98	12	
2025-08-03T12:00	29400	14	-43.2		96	11	
2025-08-03T12:00	29450	14	-43.0		94	12	
2025-08-03T12:00	29500	14	-42.7		93	12	
2025-08-03T12:00	29550	14	-42.5		93	12	
2025-08-03T12:00	29600	14	-42.5		95	12	
2025-08-03T12:00	29650	13	-42.5		98	12	
2025-08-03T12:00	29700	13	-42.6		102	11	
2025-08-03T12:00	29750	13	-42.7		107	10	
2025-08-03T12:00	29800	13	-42.7		109	10	
2025-08-03T12:00	29850	13	-42.8		105	10	
2025-08-03T12:00	29900	13	-42.8		99	10	
2025-08-03T12:00	29950	13	-42.8		94	10	
2025-08-03T12:00	30000	13	-42.8		92	11	
2025-08-03T12:00	30050	13	-42.8		95	11	
2025-08-03T12:00	30100	13	-42.6		102	11	
2025-08-03T12:00	30150	12	-42.7		109	11	
2025-08-03T12:00	30200	12	-42.9		113	11	
2025-08-03T12:00	30250	12	-43.0		111	10	
2025-08-03T12:00	30300	12	-43.0		105	9	
2025-08-03T12:00	30350	12	-42.8		95	9	
2025-08-03T12:00	30400	12	-42.7		88	9	
2025-08-03T12:00	30450	12	-42.5		86	9	
2025-08-03T12:00	30500	12	-42.4		90	9	
2025-08-03T12:00	30550	12	-42.3		98	9	
2025-08-03T12:00	30600	12	-42.5		103	10	
2025-08-03T12:00	30650	12	-42.5		102	10	
2025-08-03T12:00	30700	12	-42.1		97	10	
2025-08-03T12:00	30750	11	-41.9		91	9	
2025-08-03T12:00	30800	11	-41.8		85	9	
2025-08-03T12:00	30850	11	-41.7		80	9	
2025-08-03T12:00	30900	11	-41.5		79	9	
2025-08-03T12:00	30950	11	-41.4		81	9	
2025-08-03T12:00	31000	11	-41.2		84	9	
2025-08-03T12:00	31050	11	-40.8		88	10	
2025-08-03T12:00	31100	11	-40.5		91	11	
2025-08-03T12:00	31150	11	-40.2		92	12	
2025-08-03T12:00	31200	11	-40.2		95	12	
2025-08-03T12:00	31250	11	-40.5		97	12	
2025-08-03T12:00	31300	11	-40.6		99	11	
2025-08-03T12:00	31350	10	-40.8		101	10	
2025-08-03T12:00	31400	10	-40.9		100	10	
2025-08-03T12:00	31450	10	-40.8		97	10	
2025-08-03T12:00	31500	10	-40.7		93	10	
2025-08-03T12:00	31550	10	-40.7		87	10	
2025-08-03T12:00	31600	10	-40.7		83	9	
2025-08-03T12:00	31650	10	-40.7		82	10	
2025-08-03T12:00	31700	10	-40.6		82	10	
2025-08-03T12:00	31750	10	-40.5		84	11	
2025-08-03T12:00	31800	10	-40.4		87	12	
2025-08-03T12:00	31850	10	-40.4		89	13	
2025-08-03T12:00	31900	10	-40.2		90	14	
2025-08-03T12:00	31950	10	-39.9		89	15	
2025-08-03T12:00	32000	9	-39.5		89	15	
2025-08-03T12:00	32050	9	-39.2		88	14	
2025-08-03T12:00	32100	9	-39.1		89	14	
2025-08-03T12:00	32150	9	-39.0		89	13	
2025-08-03T12:00	32200	9	-38.8		88	13	
2025-08-03T12:00	32250	9	-38.7		88	14	
2025-08-03T12:00	32300	9	-38.6		89	15	
2025-08-03T12:00	32350	9	-38.4		93	17	
2025-08-03T12:00	32400	9	-38.3		97	18	
2025-08-03T12:00	32450	9	-37.9		99	17	
2025-08-03T12:00	32500	9	-37.7		99	16	
2025-08-03T12:00	32550	9	-37.6		96	16	
2025-08-03T12:00	32600	9	-37.3		92	16	
2025-08-03T12:00	32650	9	-37.2		91	16	
2025-08-03T12:00	32700	9	-37.1		92	16	
2025-08-03T12:00	32750	9	-36.9		94	17	
2025-08-03T12:00	32800	8	-36.7		95	16	
2025-08-03T12:00	32850	8	-36.5		94	15	
2025-08-03T12:00	32900	8	-36.4		90	15	
2025-08-03T12:00	32950	8	-36.2		86	16	
2025-08-03T12:00	33000	8	-35.7		84	17	
2025-08-03T12:00	33050	8	-35.0		84	18	
2025-08-03T12:00	33100	8	-34.3		87	19	
2025-08-03T12:00	33150	8	-34.4		90	19	
2025-08-03T12:00	33200	8	-34.8		94	19	
2025-08-03T12:00	33250	8	-34.8		97	18	
2025-08-03T12:00	33300	8	-34.5		97	17	
2025-08-03T12:00	33350	8	-34.4		95	17	
2025-08-03T12:00	33400	8	-34.3		95	16	
2025-08-03T12:00	33450	8	-34.3		96	17	
2025-08-03T12:00	33500	8	-34.2		97	17	
2025-08-03T12:00	33550	8	-33.9		97	18	
2025-08-03T12:00	33600	8	-33.7		94	18	
2025-08-03T12:00	33650	7	-33.6		90	18	
2025-08-03T12:00	33700	7	-33.5		86	18	
2025-08-03T12:00	33750	7	-33.5		85	19	
2025-08-03T12:00	33800	7	-33.3		87	20	
2025-08-03T12:00	33850	7	-32.9		92	21	
2025-08-03T12:00	33900	7	-32.5		97	21	
2025-08-03T12:00	33950	7	-32.4		102	21	
2025-08-03T12:00	34000	7	-32.5		106	22	
2025-08-03T12:00	34050	7	-32.5		108	21	
2025-08-03T12:00	34100	7	-32.1		106	21	
2025-08-03T12:00	34150	7	-31.7		101	21	
2025-08-03T12:00	34200	7	-31.4		97	21	
2025-08-03T12:00	34250	7	-31.2		95	21	
2025-08-03T12:00	34300	7	-31.1		94	21	
2025-08-03T12:00	34350	7	-31.0		93	20	
2025-08-03T12:00	34400	7	-30.8		92	20	
2025-08-03T12:00	34450	7	-30.5		91	20	
2025-08-03T12:00	34500	7	-30.4		93	19	
2025-08-03T12:00	34550	7	-30.4		96	19	
2025-08-03T12:00	34600	7	-30.3		100	19	
2025-08-03T12:00	34650	7	-30.3		103	19	
2025-08-03T12:00	34700	6	-30.3		105	19	
2025-08-03T12:00	34750	6	-30.3		106	18	
2025-08-03T12:00	34800	6	-30.5		108	16	
2025-08-03T12:00	34850	6	-30.7		110	15	
2025-08-03T12:00	34900	6	-30.9		111	14	
2025-08-03T12:00	34950	6	-31.0		110	14	
2025-08-03T12:00	35000	6	-30.9		106	14	
2025-08-03T12:00	35050	6	-30.8		101	15	
2025-08-03T12:00	35100	6	-30.7		96	16	
2025-08-03T12:00	35150	6	-30.8		93	16	
2025-08-03T12:00	35200	6	-30.7		90	17	
2025-08-03T12:00	35250	6	-30.6		89	17	
2025-08-03T12:00	35300	6	-30.3		90	18	
2025-08-03T12:00	35350	6	-30.1		91	20	
2025-08-03T12:00	35400	6	-30.1		93	21	
2025-08-03T12:00	35450	6	-30.0		95	23	
2025-08-03T12:00	35500	6	-30.0		98	24	
2025-08-03T12:00	35550	6	-30.0		102	25	
2025-08-03T12:00	35600	6	-29.9		104	26	
2025-08-03T12:00	35650	6	-29.9		106	25	
2025-08-03T12:00	35700	6	-29.8		107	23	
2025-08-03T12:00	35750	6	-29.4		106	20	
2025-08-03T12:00	35800	6	-29.2		103	18	
2025-08-03T12:00	35850	5	-29.3		99	16	
2025-08-03T12:00	35900	5	-29.1		95	15	
2025-08-03T12:00	35950	5	-28.6		93	15	
2025-08-03T12:00	36000	5	-28.2		91	16	
2025-08-03T12:00	36050	5	-27.7		88	16	
2025-08-03T12:00	36100	5	-27.1		85	16	
2025-08-03T12:00	36150	5	-26.8		82	17	
2025-08-03T12:00	36200	5	-26.3		80	18	
2025-08-03T12:00	36250	5	-25.7		80	18	
2025-08-03T12:00	36300	5	-25.4		82	18	
2025-08-03T12:00	36350	5	-25.1		86	17	
2025-08-03T12:00	36400	5	-25.0		90	16	
2025-08-03T12:00	36450	5	-25.0		91	15	
2025-08-03T12:00	36500	5	-25.1		90	14	
2025-08-03T12:00	36550	5	-25.0		88	14	
2025-08-04T00:00	491	966	12.8	10.9	191	2	
2025-08-04T00:00	520	962	13.6	11.0	209	2	
2025-08-04T00:00	540	960	14.5	10.6	214	2	
2025-08-04T00:00	560	958	15.6	10.2	217	2	
2025-08-04T00:00	580	956	15.8	10.2	222	2	
2025-08-04T00:00	600	953	15.8	10.2	230	2	
2025-08-04T00:00	620	951	16.1	10.0	241	1	
2025-08-04T00:00	640	949	16.2	10.0	263	1	
2025-08-04T00:00	660	946	16.0	9.9	308	1	
2025-08-04T00:00	680	944	15.8	9.8	348	1	
2025-08-04T00:00	700	942	15.7	9.7	7	1	
2025-08-04T00:00	720	940	15.5	9.6	17	2	
2025-08-04T00:00	740	938	15.4	9.5	19	2	
2025-08-04T00:00	760	936	15.2	9.5	19	2	
2025-08-04T00:00	780	934	15.0	9.4	17	3	
2025-08-04T00:00	800	931	14.9	9.3	13	3	
2025-08-04T00:00	820	929	14.7	9.1	9	4	
2025-08-04T00:00	840	927	14.5	9.1	5	4	
2025-08-04T00:00	860	925	14.3	9.0	1	4	
2025-08-04T00:00	880	922	14.4	8.6	356	4	
2025-08-04T00:00	900	920	14.5	8.1	352	4	
2025-08-04T00:00	920	918	14.4	8.0	348	4	
2025-08-04T00:00	940	916	14.2	8.0	343	4	
2025-08-04T00:00	960	914	14.1	7.9	339	4	
2025-08-04T00:00	980	912	13.9	7.8	337	4	
2025-08-04T00:00	1000	909	13.7	7.8	337	3	
2025-08-04T00:00	1020	907	13.6	7.9	339	3	
2025-08-04T00:00	1040	905	13.5	7.8	342	3	
2025-08-04T00:00	1060	903	13.4	7.7	347	2	
2025-08-04T00:00	1080	901	13.2	7.7	353	2	
2025-08-04T00:00	1100	899	13.1	7.6	359	2	
2025-08-04T00:00	1120	897	13.0	7.4	3	1	
2025-08-04T00:00	1140	894	13.0	7.4	4	1	
2025-08-04T00:00	1160	893	12.8	7.5	2	1	
2025-08-04T00:00	1180	890	12.7	7.5	354	1	
2025-08-04T00:00	1200	888	12.5	7.5	342	1	
2025-08-04T00:00	1220	886	12.3	7.4	326	1	
2025-08-04T00:00	1240	884	12.1	7.4	312	1	
2025-08-04T00:00	1260	882	11.9	7.3	302	1	
2025-08-04T00:00	1280	880	11.8	7.2	294	1	
2025-08-04T00:00	1300	878	11.7	7.0	286	1	
2025-08-04T00:00	1320	875	11.5	7.2	273	1	
2025-08-04T00:00	1340	873	11.4	7.5	252	0	
2025-08-04T00:00	1360	871	11.2	7.5	225	0	
2025-08-04T00:00	1380	869	11.0	7.5	192	0	
2025-08-04T00:00	1400	867	10.8	7.5	179	0	
2025-08-04T00:00	1420	865	10.6	7.6	185	0	
2025-08-04T00:00	1440	863	10.4	7.7	195	1	
2025-08-04T00:00	1460	861	10.2	7.5	201	1	
2025-08-04T00:00	1480	859	10.0	7.5	206	1	
2025-08-04T00:00	1500	857	9.9	7.5	209	1	
2025-08-04T00:00	1520	855	9.8	7.6	213	2	
2025-08-04T00:00	1540	853	9.7	7.6	219	2	
2025-08-04T00:00	1560	850	9.8	7.4	226	2	
2025-08-04T00:00	1580	848	9.6	7.3	233	2	
2025-08-04T00:00	1600	847	9.5	7.2	237	2	
2025-08-04T00:00	1620	845	9.4	7.1	240	2	
2025-08-04T00:00	1640	843	9.2	7.2	240	2	
2025-08-04T00:00	1660	840	9.0	7.1	239	2	
2025-08-04T00:00	1680	838	8.8	7.0	236	2	
2025-08-04T00:00	1700	836	8.6	7.0	234	2	
2025-08-04T00:00	1720	834	8.4	6.9	232	3	
2025-08-04T00:00	1740	832	8.4	6.5	233	3	
2025-08-04T00:00	1760	830	8.4	6.2	235	3	
2025-08-04T00:00	1780	828	8.3	6.0	237	4	
2025-08-04T00:00	1800	826	8.1	5.9	239	4	
2025-08-04T00:00	1820	824	7.9	5.7	240	4	
2025-08-04T00:00	1840	822	7.8	5.6	241	4	
2025-08-04T00:00	1860	820	7.7	5.0	242	4	
2025-08-04T00:00	1880	818	7.6	4.7	244	4	
2025-08-04T00:00	1900	816	7.5	4.4	246	4	
2025-08-04T00:00	1920	814	7.4	4.2	248	4	
2025-08-04T00:00	1940	812	7.3	4.1	250	4	
2025-08-04T00:00	1960	810	7.3	4.1	253	4	
2025-08-04T00:00	1980	809	7.1	4.5	255	4	
2025-08-04T00:00	2000	807	7.0	4.8	257	4	
2025-08-04T00:00	2020	805	6.8	4.8	260	4	
2025-08-04T00:00	2040	803	6.6	4.9	263	5	
2025-08-04T00:00	2060	801	6.4	4.8	265	5	
2025-08-04T00:00	2080	799	6.3	4.7	264	5	
2025-08-04T00:00	2100	797	6.2	4.3	263	6	
2025-08-04T00:00	2120	795	6.2	3.6	262	6	
2025-08-04T00:00	2140	793	6.4	1.9	262	6	
2025-08-04T00:00	2160	791	6.4	1.4	261	5	
2025-08-04T00:00	2180	789	6.2	0.8	262	5	
2025-08-04T00:00	2200	787	6.3	-0.7	263	4	
2025-08-04T00:00	2220	785	6.4	-1.5	266	4	
2025-08-04T00:00	2240	783	6.5	-2.3	271	3	
2025-08-04T00:00	2260	782	6.6	-3.2	280	2	
2025-08-04T00:00	2280	779	6.5	-3.4	293	2	
2025-08-04T00:00	2300	778	6.4	-3.8	307	2	
2025-08-04T00:00	2320	776	6.4	-4.1	318	2	
2025-08-04T00:00	2340	774	6.3	-4.3	323	3	
2025-08-04T00:00	2360	772	6.2	-4.9	324	3	
2025-08-04T00:00	2380	770	6.3	-5.2	321	4	
2025-08-04T00:00	2400	768	6.5	-7.5	318	5	
2025-08-04T00:00	2420	766	6.5	-9.9	315	5	
2025-08-04T00:00	2440	765	6.5	-12.2	315	5	
2025-08-04T00:00	2460	763	6.6	-17.3	316	5	
2025-08-04T00:00	2480	761	6.6	-17.3	319	5	
2025-08-04T00:00	2500	759	6.6	-16.6	322	5	
2025-08-04T00:00	2520	757	6.8	-15.2	325	5	
2025-08-04T00:00	2540	755	6.7	-14.3	329	6	
2025-08-04T00:00	2560	753	6.6	-13.6	333	6	
2025-08-04T00:00	2580	752	6.4	-13.3	338	6	
2025-08-04T00:00	2600	750	6.3	-12.9	343	6	
2025-08-04T00:00	2620	748	6.1	-12.3	346	6	
2025-08-04T00:00	2640	746	6.0	-11.2	348	6	
2025-08-04T00:00	2660	744	5.8	-10.0	351	7	
2025-08-04T00:00	2680	742	5.9	-11.3	354	7	
2025-08-04T00:00	2700	741	5.8	-10.7	355	7	
2025-08-04T00:00	2720	739	5.9	-14.1	357	7	
2025-08-04T00:00	2740	737	5.9	-17.4	357	7	
2025-08-04T00:00	2760	735	5.8	-16.2	357	7	
2025-08-04T00:00	2780	733	5.8	-13.1	356	7	
2025-08-04T00:00	2800	731	5.8	-11.7	354	6	
2025-08-04T00:00	2820	730	5.7	-9.8	353	6	
2025-08-04T00:00	2840	728	5.7	-10.6	353	6	
2025-08-04T00:00	2860	726	5.6	-10.9	355	6	
2025-08-04T00:00	2880	724	5.5	-10.6	358	7	
2025-08-04T00:00	2900	723	5.4	-10.9	1	8	
2025-08-04T00:00	2920	721	5.3	-12.2	2	8	
2025-08-04T00:00	2940	719	5.2	-14.6	3	9	
2025-08-04T00:00	2960	717	5.1	-17.7	3	9	
2025-08-04T00:00	2980	716	5.0	-21.5	3	9	
2025-08-04T00:00	3000	714	5.0	-26.6	2	9	
2025-08-04T00:00	3020	712	4.9	-26.8	0	9	
2025-08-04T00:00	3040	710	4.9	-27.2	358	9	
2025-08-04T00:00	3060	709	4.8	-29.1	354	9	
2025-08-04T00:00	3080	707	4.7	-30.0	351	9	
2025-08-04T00:00	3100	705	4.6	-30.2	349	9	
2025-08-04T00:00	3120	703	4.5	-30.7	347	9	
2025-08-04T00:00	3140	702	4.4	-30.6	347	10	
2025-08-04T00:00	3160	700	4.3	-32.3	348	10	
2025-08-04T00:00	3180	698	4.2	-33.1	348	11	
2025-08-04T00:00	3200	697	4.2	-30.4	348	11	
2025-08-04T00:00	3220	695	4.1	-14.2	349	11	
2025-08-04T00:00	3240	693	3.7	-6.0	349	11	
2025-08-04T00:00	3260	691	3.6	-8.8	349	11	
2025-08-04T00:00	3280	690	3.5	-8.6	349	12	
2025-08-04T00:00	3300	688	3.3	-8.1	350	12	
2025-08-04T00:00	3320	686	3.1	-6.9	351	12	
2025-08-04T00:00	3340	684	2.9	-5.8	352	12	
2025-08-04T00:00	3360	683	2.8	-5.4	353	12	
2025-08-04T00:00	3380	681	2.6	-6.6	355	12	
2025-08-04T00:00	3400	680	2.5	-7.8	356	12	
2025-08-04T00:00	3420	678	2.4	-8.6	356	12	
2025-08-04T00:00	3440	676	2.4	-9.5	356	12	
2025-08-04T00:00	3460	675	2.3	-10.3	357	13	
2025-08-04T00:00	3480	673	2.1	-8.1	357	13	
2025-08-04T00:00	3500	671	1.9	-4.9	357	14	
2025-08-04T00:00	3520	670	1.7	-4.6	357	14	
2025-08-04T00:00	3540	668	1.5	-4.3	357	14	
2025-08-04T00:00	3560	666	1.3	-4.2	357	14	
2025-08-04T00:00	3580	665	1.1	-3.9	356	13	
2025-08-04T00:00	3600	663	1.0	-3.8	355	13	
2025-08-04T00:00	3620	661	0.8	-3.9	355	13	
2025-08-04T00:00	3640	660	0.7	-4.1	353	12	
2025-08-04T00:00	3660	658	0.5	-4.0	352	12	
2025-08-04T00:00	3680	656	0.3	-4.0	351	11	
2025-08-04T00:00	3700	655	0.1	-4.0	351	11	
2025-08-04T00:00	3720	653	0.0	-4.2	350	11	
2025-08-04T00:00	3740	651	-0.2	-4.4	350	11	
2025-08-04T00:00	3760	650	-0.4	-4.5	350	11	
2025-08-04T00:00	3780	648	-0.5	-4.7	351	11	
2025-08-04T00:00	3800	647	-0.6	-4.8	352	11	
2025-08-04T00:00	3820	645	-0.7	-4.6	353	11	
2025-08-04T00:00	3840	643	-0.8	-4.6	354	11	
2025-08-04T00:00	3860	642	-0.9	-4.8	356	11	
2025-08-04T00:00	3880	640	-0.9	-4.8	357	12	
2025-08-04T00:00	3900	639	-0.9	-4.9	357	12	
2025-08-04T00:00	3920	637	-1.0	-5.2	356	12	
2025-08-04T00:00	3940	635	-0.9	-5.5	355	12	
2025-08-04T00:00	3960	634	-0.9	-5.6	355	13	
2025-08-04T00:00	3980	632	-1.0	-5.8	354	13	
2025-08-04T00:00	4000	631	-1.2	-6.0	354	12	
2025-08-04T00:00	4020	629	-1.4	-6.2	353	13	
2025-08-04T00:00	4040	627	-1.6	-6.7	353	13	
2025-08-04T00:00	4060	626	-1.7	-7.0	353	13	
2025-08-04T00:00	4080	624	-1.9	-6.8	352	13	
2025-08-04T00:00	4100	623	-2.1	-6.9	352	13	
2025-08-04T00:00	4120	621	-2.2	-7.2	352	13	
2025-08-04T00:00	4140	620	-2.2	-7.9	351	14	
2025-08-04T00:00	4160	618	-2.2	-8.8	350	14	
2025-08-04T00:00	4180	616	-2.4	-8.5	349	14	
2025-08-04T00:00	4200	615	-2.4	-9.0	348	14	
2025-08-04T00:00	4220	613	-2.4	-10.0	346	14	
2025-08-04T00:00	4240	612	-2.5	-11.6	346	14	
2025-08-04T00:00	4260	610	-2.5	-18.1	346	14	
2025-08-04T00:00	4280	609	-2.2	-26.2	346	14	
2025-08-04T00:00	4300	607	-2.1	-28.4	348	14	
2025-08-04T00:00	4320	606	-2.0	-30.8	349	15	
2025-08-04T00:00	4340	604	-2.0	-31.5	351	15	
2025-08-04T00:00	4360	603	-2.0	-29.4	352	15	
2025-08-04T00:00	4380	601	-2.0	-27.0	353	15	
2025-08-04T00:00	4400	600	-2.1	-26.0	353	15	
2025-08-04T00:00	4420	598	-2.3	-24.9	353	15	
2025-08-04T00:00	4440	597	-2.5	-20.6	352	15	
2025-08-04T00:00	4460	595	-2.7	-14.8	351	15	
2025-08-04T00:00	4480	594	-2.9	-9.9	351	15	
2025-08-04T00:00	4500	592	-3.0	-10.6	350	15	
2025-08-04T00:00	4520	591	-3.1	-10.6	350	15	
2025-08-04T00:00	4540	589	-3.2	-10.7	351	14	
2025-08-04T00:00	4560	588	-3.4	-10.6	352	14	
2025-08-04T00:00	4580	586	-3.5	-10.7	353	14	
2025-08-04T00:00	4600	584	-3.6	-11.4	353	14	
2025-08-04T00:00	4620	583	-3.8	-11.6	354	14	
2025-08-04T00:00	4640	582	-3.9	-11.1	354	14	
2025-08-04T00:00	4660	580	-4.1	-10.9	355	14	
2025-08-04T00:00	4680	579	-4.3	-10.8	355	14	
2025-08-04T00:00	4700	577	-4.4	-10.9	355	15	
2025-08-04T00:00	4720	576	-4.5	-10.7	354	15	
2025-08-04T00:00	4740	574	-4.7	-10.4	354	15	
2025-08-04T00:00	4760	573	-4.9	-10.5	354	15	
2025-08-04T00:00	4780	571	-5.1	-10.8	353	16	
2025-08-04T00:00	4800	570	-5.2	-10.8	352	16	
2025-08-04T00:00	4820	569	-5.4	-10.6	350	16	
2025-08-04T00:00	4840	567	-5.5	-10.7	349	16	
2025-08-04T00:00	4860	566	-5.7	-11.0	347	16	
2025-08-04T00:00	4880	564	-5.8	-11.2	346	16	
2025-08-04T00:00	4900	563	-5.9	-11.2	344	16	
2025-08-04T00:00	4920	561	-6.1	-11.5	344	16	
2025-08-04T00:00	4940	560	-6.2	-11.4	343	16	
2025-08-04T00:00	4960	558	-6.4	-11.2	343	16	
2025-08-04T00:00	4980	557	-6.5	-11.1	343	16	
2025-08-04T00:00	5000	556	-6.6	-11.0	344	16	
2025-08-04T00:00	5020	554	-6.8	-11.0	344	16	
2025-08-04T00:00	5040	553	-6.9	-11.1	345	16	
2025-08-04T00:00	5060	551	-7.0	-11.2	345	16	
2025-08-04T00:00	5080	550	-7.1	-11.4	344	16	
2025-08-04T00:00	5100	548	-7.3	-12.0	344	16	
2025-08-04T00:00	5120	547	-7.3	-13.0	343	16	
2025-08-04T00:00	5140	546	-7.4	-13.8	342	16	
2025-08-04T00:00	5160	544	-7.4	-14.5	341	15	
2025-08-04T00:00	5180	543	-7.4	-14.6	340	16	
2025-08-04T00:00	5200	542	-7.5	-15.4	340	16	
2025-08-04T00:00	5220	540	-7.6	-15.8	340	16	
2025-08-04T00:00	5240	539	-7.6	-14.7	342	16	
2025-08-04T00:00	5260	537	-7.7	-14.0	343	16	
2025-08-04T00:00	5280	536	-7.8	-13.8	344	16	
2025-08-04T00:00	5300	535	-8.0	-13.2	346	16	
2025-08-04T00:00	5320	533	-8.1	-12.9	346	16	
2025-08-04T00:00	5340	532	-8.1	-12.7	348	16	
2025-08-04T00:00	5360	531	-8.1	-12.8	350	17	
2025-08-04T00:00	5380	529	-8.2	-13.1	351	17	
2025-08-04T00:00	5400	528	-8.3	-13.3	351	17	
2025-08-04T00:00	5420	527	-8.4	-13.5	352	17	
2025-08-04T00:00	5440	525	-8.5	-13.8	353	17	
2025-08-04T00:00	5460	524	-8.6	-14.1	354	17	
2025-08-04T00:00	5480	522	-8.7	-14.2	356	17	
2025-08-04T00:00	5500	521	-8.8	-14.3	358	16	
2025-08-04T00:00	5520	520	-8.9	-14.5	359	16	
2025-08-04T00:00	5540	518	-9.1	-14.9	0	16	
2025-08-04T00:00	5560	517	-9.2	-15.0	2	16	
2025-08-04T00:00	5580	516	-9.4	-15.1	3	16	
2025-08-04T00:00	5600	514	-9.6	-15.1	4	15	
2025-08-04T00:00	5620	513	-9.8	-15.2	5	15	
2025-08-04T00:00	5640	512	-10.0	-15.3	4	15	
2025-08-04T00:00	5660	511	-10.1	-15.5	3	15	
2025-08-04T00:00	5680	509	-10.3	-15.7	1	15	
2025-08-04T00:00	5700	508	-10.5	-16.0	359	16	
2025-08-04T00:00	5720	506	-10.6	-16.1	357	16	
2025-08-04T00:00	5740	505	-10.8	-16.2	355	16	
2025-08-04T00:00	5760	504	-10.9	-16.3	355	16	
2025-08-04T00:00	5780	503	-11.1	-16.3	356	16	
2025-08-04T00:00	5800	501	-11.2	-16.5	356	16	
2025-08-04T00:00	5820	500	-11.4	-16.6	357	16	
2025-08-04T00:00	5840	499	-11.5	-16.7	358	16	
2025-08-04T00:00	5860	497	-11.7	-16.7	358	16	
2025-08-04T00:00	5880	496	-11.9	-16.9	358	16	
2025-08-04T00:00	5900	495	-12.0	-17.0	358	16	
2025-08-04T00:00	5920	493	-12.2	-17.0	358	16	
2025-08-04T00:00	5940	492	-12.4	-17.1	358	16	
2025-08-04T00:00	5960	491	-12.5	-17.4	358	16	
2025-08-04T00:00	5980	489	-12.5	-17.9	358	16	
2025-08-04T00:00	6000	488	-12.3	-18.1	358	16	
2025-08-04T00:00	6020	487	-12.3	-18.3	359	16	
2025-08-04T00:00	6040	486	-12.4	-18.4	359	16	
2025-08-04T00:00	6060	484	-12.5	-18.6	359	16	
2025-08-04T00:00	6080	483	-12.6	-18.7	359	16	
2025-08-04T00:00	6100	482	-12.7	-18.9	359	16	
2025-08-04T00:00	6120	481	-12.8	-19.0	360	17	
2025-08-04T00:00	6140	479	-13.0	-19.1	360	17	
2025-08-04T00:00	6160	478	-13.1	-19.2	359	17	
2025-08-04T00:00	6180	477	-13.3	-19.3	359	17	
2025-08-04T00:00	6200	476	-13.4	-19.4	359	18	
2025-08-04T00:00	6220	474	-13.5	-19.8	359	18	
2025-08-04T00:00	6240	473	-13.6	-20.2	359	18	
2025-08-04T00:00	6260	472	-13.8	-20.1	358	18	
2025-08-04T00:00	6280	471	-14.0	-20.3	358	18	
2025-08-04T00:00	6300	469	-14.2	-20.3	358	18	
2025-08-04T00:00	6320	468	-14.4	-20.5	357	18	
2025-08-04T00:00	6340	467	-14.6	-20.5	356	18	
2025-08-04T00:00	6360	466	-14.7	-20.6	356	18	
2025-08-04T00:00	6380	464	-15.0	-20.6	356	19	
2025-08-04T00:00	6400	463	-15.1	-20.8	356	19	
2025-08-04T00:00	6420	462	-15.3	-20.8	357	19	
2025-08-04T00:00	6440	461	-15.5	-20.9	358	19	
2025-08-04T00:00	6460	460	-15.7	-21.0	359	19	
2025-08-04T00:00	6480	458	-15.9	-21.3	359	19	
2025-08-04T00:00	6500	457	-16.0	-21.4	359	19	
2025-08-04T00:00	6520	456	-16.2	-21.5	358	19	
2025-08-04T00:00	6540	455	-16.3	-21.8	358	19	
2025-08-04T00:00	6560	453	-16.5	-21.9	358	19	
2025-08-04T00:00	6580	452	-16.7	-22.0	358	19	
2025-08-04T00:00	6600	451	-16.8	-22.2	358	19	
2025-08-04T00:00	6620	450	-17.0	-22.3	358	19	
2025-08-04T00:00	6640	449	-17.2	-22.4	357	19	
2025-08-04T00:00	6660	448	-17.4	-22.5	356	19	
2025-08-04T00:00	6680	446	-17.5	-22.5	356	19	
2025-08-04T00:00	6700	445	-17.7	-22.7	356	19	
2025-08-04T00:00	6720	444	-17.9	-22.9	356	19	
2025-08-04T00:00	6740	443	-18.0	-22.9	356	19	
2025-08-04T00:00	6760	442	-18.2	-22.9	356	19	
2025-08-04T00:00	6780	440	-18.4	-23.0	357	19	
2025-08-04T00:00	6800	439	-18.6	-23.0	357	19	
2025-08-04T00:00	6820	438	-18.8	-23.1	357	19	
2025-08-04T00:00	6840	437	-19.0	-23.1	357	19	
2025-08-04T00:00	6860	436	-19.1	-23.3	358	20	
2025-08-04T00:00	6880	435	-19.3	-23.5	358	20	
2025-08-04T00:00	6900	433	-19.5	-23.6	358	20	
2025-08-04T00:00	6920	432	-19.6	-23.6	358	21	
2025-08-04T00:00	6940	431	-19.8	-23.7	358	21	
2025-08-04T00:00	6960	430	-20.0	-23.8	358	22	
2025-08-04T00:00	6980	429	-20.1	-23.9	358	22	
2025-08-04T00:00	7000	428	-20.2	-25.0	358	22	
2025-08-04T00:00	7020	426	-20.0	-26.5	358	23	
2025-08-04T00:00	7040	425	-19.9	-27.1	357	24	
2025-08-04T00:00	7060	424	-20.0	-27.3	356	24	
2025-08-04T00:00	7080	423	-20.1	-28.2	355	24	
2025-08-04T00:00	7100	422	-20.1	-29.4	355	24	
2025-08-04T00:00	7120	421	-20.0	-30.5	354	24	
2025-08-04T00:00	7140	420	-20.1	-30.6	353	24	
2025-08-04T00:00	7160	418	-20.1	-31.7	351	24	
2025-08-04T00:00	7180	417	-20.0	-32.8	350	24	
2025-08-04T00:00	7200	416	-20.1	-33.3	349	23	
2025-08-04T00:00	7220	415	-20.2	-34.0	347	23	
2025-08-04T00:00	7240	414	-20.3	-33.4	347	23	
2025-08-04T00:00	7260	413	-20.5	-32.3	346	23	
2025-08-04T00:00	7280	412	-20.6	-31.4	345	22	
2025-08-04T00:00	7300	411	-20.8	-31.2	345	22	
2025-08-04T00:00	7320	409	-21.0	-30.8	345	22	
2025-08-04T00:00	7340	408	-21.2	-30.5	345	22	
2025-08-04T00:00	7360	407	-21.3	-30.5	345	22	
2025-08-04T00:00	7380	406	-21.5	-30.9	346	23	
2025-08-04T00:00	7400	405	-21.5	-32.2	347	23	
2025-08-04T00:00	7420	404	-21.6	-33.7	348	23	
2025-08-04T00:00	7440	403	-21.6	-35.8	349	23	
2025-08-04T00:00	7460	402	-21.8	-36.8	350	23	
2025-08-04T00:00	7480	401	-21.9	-37.6	352	23	
2025-08-04T00:00	7500	400	-22.1	-37.9	353	23	
2025-08-04T00:00	7520	399	-22.3	-38.2	354	23	
2025-08-04T00:00	7540	398	-22.4	-38.7	355	23	
2025-08-04T00:00	7560	396	-22.6	-39.6	356	23	
2025-08-04T00:00	7580	395	-22.8	-40.0	356	23	
2025-08-04T00:00	7600	394	-23.0	-40.3	357	23	
2025-08-04T00:00	7620	393	-23.1	-41.0	357	23	
2025-08-04T00:00	7640	392	-23.3	-41.3	357	23	
2025-08-04T00:00	7660	391	-23.5	-41.3	357	23	
2025-08-04T00:00	7680	390	-23.7	-41.3	356	23	
2025-08-04T00:00	7700	389	-23.9	-41.4	356	23	
2025-08-04T00:00	7720	388	-24.1	-41.4	355	24	
2025-08-04T00:00	7740	387	-24.3	-41.4	355	24	
2025-08-04T00:00	7760	386	-24.5	-41.5	355	24	
2025-08-04T00:00	7780	385	-24.7	-41.7	354	24	
2025-08-04T00:00	7800	383	-24.8	-41.7	354	25	
2025-08-04T00:00	7820	383	-25.0	-41.8	354	25	
2025-08-04T00:00	7840	381	-25.2	-42.0	354	26	
2025-08-04T00:00	7860	380	-25.4	-42.3	354	26	
2025-08-04T00:00	7880	379	-25.5	-42.8	354	26	
2025-08-04T00:00	7900	378	-25.7	-43.3	354	26	
2025-08-04T00:00	7920	377	-25.9	-43.9	354	27	
2025-08-04T00:00	7940	376	-26.0	-44.1	354	27	
2025-08-04T00:00	7960	375	-26.2	-44.0	354	27	
2025-08-04T00:00	7980	374	-26.4	-43.9	353	26	
2025-08-04T00:00	8000	373	-26.6	-44.1	353	26	
2025-08-04T00:00	8020	372	-26.7	-44.1	353	26	
2025-08-04T00:00	8040	371	-26.9	-44.1	353	26	
2025-08-04T00:00	8060	370	-27.1	-43.9	353	26	
2025-08-04T00:00	8080	369	-27.3	-44.0	353	26	
2025-08-04T00:00	8100	368	-27.5	-43.9	354	26	
2025-08-04T00:00	8120	367	-27.7	-43.6	354	26	
2025-08-04T00:00	8140	366	-27.8	-43.7	353	26	
2025-08-04T00:00	8160	365	-28.0	-44.0	353	25	
2025-08-04T00:00	8180	364	-28.2	-44.6	353	25	
2025-08-04T00:00	8200	363	-28.3	-45.3	353	25	
2025-08-04T00:00	8220	362	-28.4	-45.6	353	24	
2025-08-04T00:00	8240	361	-28.5	-46.0	353	24	
2025-08-04T00:00	8260	360	-28.5	-45.5	354	24	
2025-08-04T00:00	8280	359	-28.7	-45.3	355	23	
2025-08-04T00:00	8300	358	-28.9	-45.3	356	23	
2025-08-04T00:00	8320	357	-29.1	-45.2	356	23	
2025-08-04T00:00	8340	356	-29.3	-45.3	357	23	
2025-08-04T00:00	8360	355	-29.4	-44.9	358	24	
2025-08-04T00:00	8380	354	-29.6	-44.5	358	24	
2025-08-04T00:00	8400	353	-29.8	-44.5	358	23	
2025-08-04T00:00	8420	352	-30.0	-44.7	359	24	
2025-08-04T00:00	8440	351	-30.2	-44.4	360	24	
2025-08-04T00:00	8460	350	-30.3	-44.5	0	24	
2025-08-04T00:00	8480	349	-30.5	-44.5	1	24	
2025-08-04T00:00	8500	348	-30.7	-44.5	1	24	
2025-08-04T00:00	8520	347	-30.9	-44.7	2	24	
2025-08-04T00:00	8540	346	-31.1	-44.7	2	24	
2025-08-04T00:00	8560	345	-31.3	-44.7	2	24	
2025-08-04T00:00	8580	344	-31.4	-44.9	2	24	
2025-08-04T00:00	8600	343	-31.6	-45.0	3	24	
2025-08-04T00:00	8620	342	-31.8	-45.1	3	25	
2025-08-04T00:00	8640	341	-31.9	-45.3	3	25	
2025-08-04T00:00	8660	340	-32.1	-45.2	3	26	
2025-08-04T00:00	8680	339	-32.3	-45.3	3	26	
2025-08-04T00:00	8700	338	-32.5	-45.4	3	27	
2025-08-04T00:00	8720	337	-32.6	-45.4	3	27	
2025-08-04T00:00	8740	336	-32.8	-45.2	3	28	
2025-08-04T00:00	8760	335	-33.0	-45.2	3	28	
2025-08-04T00:00	8780	334	-33.2	-45.2	3	28	
2025-08-04T00:00	8800	333	-33.4	-45.3	4	28	
2025-08-04T00:00	8820	333	-33.5	-45.5	4	27	
2025-08-04T00:00	8840	332	-33.7	-45.9	5	27	
2025-08-04T00:00	8860	331	-33.8	-46.3	5	27	
2025-08-04T00:00	8880	330	-34.0	-46.5	5	28	
2025-08-04T00:00	8900	329	-34.2	-46.5	5	28	
2025-08-04T00:00	8920	328	-34.3	-46.6	5	28	
2025-08-04T00:00	8940	327	-34.5	-46.5	5	28	
2025-08-04T00:00	8960	326	-34.7	-46.3	5	28	
2025-08-04T00:00	8980	325	-34.9	-46.5	5	28	
2025-08-04T00:00	9000	324	-35.1	-46.8	5	28	
2025-08-04T00:00	9020	323	-35.2	-46.9	5	28	
2025-08-04T00:00	9040	322	-35.4	-46.9	5	28	
2025-08-04T00:00	9060	321	-35.6	-46.8	5	29	
2025-08-04T00:00	9080	320	-35.8	-46.6	5	29	
2025-08-04T00:00	9100	319	-36.0	-46.3	4	29	
2025-08-04T00:00	9120	319	-36.2	-46.3	4	29	
2025-08-04T00:00	9140	318	-36.3	-46.1	4	29	
2025-08-04T00:00	9160	317	-36.6	-46.2	4	30	
2025-08-04T00:00	9180	316	-36.8	-45.8	4	30	
2025-08-04T00:00	9200	315	-36.9	-44.8	4	30	
2025-08-04T00:00	9220	314	-37.1	-44.9	5	31	
2025-08-04T00:00	9240	313	-37.2	-44.9	6	31	
2025-08-04T00:00	9260	312	-37.4	-45.1	6	31	
2025-08-04T00:00	9280	311	-37.6	-45.3	7	32	
2025-08-04T00:00	9300	310	-37.8	-45.4	7	32	
2025-08-04T00:00	9320	309	-37.9	-45.4	7	32	
2025-08-04T00:00	9340	308	-38.1	-45.5	6	32	
2025-08-04T00:00	9360	308	-38.2	-45.7	6	33	
2025-08-04T00:00	9380	307	-38.4	-45.7	6	33	
2025-08-04T00:00	9400	306	-38.6	-45.6	6	33	
2025-08-04T00:00	9420	305	-38.7	-45.5	6	34	
2025-08-04T00:00	9440	304	-38.9	-45.7	6	34	
2025-08-04T00:00	9460	303	-39.1	-45.6	6	34	
2025-08-04T00:00	9480	302	-39.2	-45.5	6	34	
2025-08-04T00:00	9500	301	-39.4	-45.5	6	35	
2025-08-04T00:00	9520	300	-39.6	-45.7	6	35	
2025-08-04T00:00	9540	300	-39.7	-45.8	6	35	
2025-08-04T00:00	9560	299	-39.9	-45.8	5	35	
2025-08-04T00:00	9580	298	-40.0	-45.9	5	36	
2025-08-04T00:00	9600	297	-40.2	-46.0	5	36	
2025-08-04T00:00	9620	296	-40.4	-46.0	5	36	
2025-08-04T00:00	9640	295	-40.5	-46.1	4	36	
2025-08-04T00:00	9660	294	-40.7	-46.5	4	37	
2025-08-04T00:00	9680	293	-40.9	-46.6	4	37	
2025-08-04T00:00	9700	293	-41.0	-46.6	4	37	
2025-08-04T00:00	9720	292	-41.2	-46.9	4	37	
2025-08-04T00:00	9740	291	-41.4	-47.2	4	37	
2025-08-04T00:00	9760	290	-41.5	-47.3	4	38	
2025-08-04T00:00	9780	289	-41.7	-47.6	4	38	
2025-08-04T00:00	9800	288	-41.8	-47.9	4	38	
2025-08-04T00:00	9820	288	-42.0	-48.1	4	38	
2025-08-04T00:00	9840	287	-42.2	-48.4	3	38	
2025-08-04T00:00	9860	286	-42.2	-48.1	3	38	
2025-08-04T00:00	9880	285	-42.3	-48.0	3	38	
2025-08-04T00:00	9900	284	-42.4	-48.2	2	38	
2025-08-04T00:00	9920	283	-42.6	-48.3	2	39	
2025-08-04T00:00	9940	282	-42.8	-48.2	1	39	
2025-08-04T00:00	9960	282	-43.0	-48.1	0	39	
2025-08-04T00:00	9980	281	-43.2	-48.1	360	39	
2025-08-04T00:00	10000	280	-43.4	-48.2	359	39	
2025-08-04T00:00	10018	279	-43.5	-48.3	359	39	
2025-08-04T00:00	10050	278	-43.8	-48.4	358	39	
2025-08-04T00:00	10100	276	-44.3	-48.7	357	39	
2025-08-04T00:00	10150	274	-44.7	-49.1	357	40	
2025-08-04T00:00	10200	272	-45.1	-49.4	357	40	
2025-08-04T00:00	10250	270	-45.5	-50.6	357	40	
2025-08-04T00:00	10300	268	-46.0	-50.9	356	40	
2025-08-04T00:00	10350	266	-46.5	-51.4	356	39	
2025-08-04T00:00	10400	264	-47.0	-51.8	356	39	
2025-08-04T00:00	10450	262	-47.4	-51.9	356	40	
2025-08-04T00:00	10500	260	-47.9	-52.3	355	40	
2025-08-04T00:00	10550	258	-48.4	-52.6	355	41	
2025-08-04T00:00	10600	256	-48.8	-53.0	354	41	
2025-08-04T00:00	10650	254	-49.3	-53.5	354	41	
2025-08-04T00:00	10700	252	-49.8	-54.1	353	41	
2025-08-04T00:00	10750	250	-50.2	-54.6	354	41	
2025-08-04T00:00	10800	248	-50.7	-55.0	355	40	
2025-08-04T00:00	10850	246	-51.0	-55.4	356	40	
2025-08-04T00:00	10900	244	-51.4	-55.3	357	40	
2025-08-04T00:00	10950	242	-51.9	-55.5	359	40	
2025-08-04T00:00	11000	241	-52.2	-56.5	0	41	
2025-08-04T00:00	11050	239	-52.6	-57.0	2	42	
2025-08-04T00:00	11100	237	-52.9	-57.4	2	42	
2025-08-04T00:00	11150	235	-53.3	-57.7	3	43	
2025-08-04T00:00	11200	233	-53.7	-58.2	3	43	
2025-08-04T00:00	11250	231	-54.2	-59.1	4	44	
2025-08-04T00:00	11300	230	-54.4	-60.0	4	44	
2025-08-04T00:00	11350	228	-54.7	-59.3	4	44	
2025-08-04T00:00	11400	226	-55.1	-59.8	5	43	
2025-08-04T00:00	11450	224	-55.4	-60.4	5	42	
2025-08-04T00:00	11500	223	-55.5	-61.2	6	40	
2025-08-04T00:00	11550	221	-55.4	-62.6	6	39	
2025-08-04T00:00	11600	219	-55.3	-63.7	7	37	
2025-08-04T00:00	11650	217	-55.4	-64.5	7	35	
2025-08-04T00:00	11700	216	-55.3	-65.8	7	33	
2025-08-04T00:00	11750	214	-55.3	-66.7	6	32	
2025-08-04T00:00	11800	212	-55.6	-67.1	4	31	
2025-08-04T00:00	11850	211	-55.7	-67.8	2	29	
2025-08-04T00:00	11900	209	-55.8	-68.7	359	27	
2025-08-04T00:00	11950	207	-55.5	-69.8	353	27	
2025-08-04T00:00	12000	206	-55.4	-71.2	346	28	
2025-08-04T00:00	12050	204	-54.5	-72.7	342	29	
2025-08-04T00:00	12100	203	-53.0	-75.0	342	30	
2025-08-04T00:00	12150	201	-52.6	-75.8	344	30	
2025-08-04T00:00	12200	200	-52.2	-75.7	344	30	
2025-08-04T00:00	12250	198	-52.2	-75.4	345	29	
2025-08-04T00:00	12300	196	-51.6	-76.2	346	28	
2025-08-04T00:00	12350	195	-51.4	-76.0	346	28	
2025-08-04T00:00	12400	193	-51.3	-75.5	344	27	
2025-08-04T00:00	12450	192	-51.7	-75.5	343	27	
2025-08-04T00:00	12500	190	-52.1	-75.6	342	26	
2025-08-04T00:00	12550	189	-52.5	-75.8	342	26	
2025-08-04T00:00	12600	188	-52.8	-76.1	344	26	
2025-08-04T00:00	12650	186	-52.5	-76.7	346	26	
2025-08-04T00:00	12700	185	-52.2	-77.2	346	25	
2025-08-04T00:00	12750	183	-52.3	-77.5	346	25	
2025-08-04T00:00	12800	182	-52.5	-77.6	346	24	
2025-08-04T00:00	12850	180	-52.6	-77.6	347	24	
2025-08-04T00:00	12900	179	-52.9	-77.9	348	24	
2025-08-04T00:00	12950	178	-53.2	-78.0	348	24	
2025-08-04T00:00	13000	176	-53.6	-78.1	348	24	
2025-08-04T00:00	13050	175	-53.9	-78.2	347	24	
2025-08-04T00:00	13100	174	-54.2	-78.4	346	23	
2025-08-04T00:00	13150	172	-54.1	-79.0	347	23	
2025-08-04T00:00	13200	171	-53.9	-79.4	349	22	
2025-08-04T00:00	13250	170	-53.9	-79.5	347	22	
2025-08-04T00:00	13300	168	-53.8	-79.4	345	22	
2025-08-04T00:00	13350	167	-54.0	-79.4	346	22	
2025-08-04T00:00	13400	166	-53.7	-79.5	348	22	
2025-08-04T00:00	13450	164	-53.2	-79.8	349	22	
2025-08-04T00:00	13500	163	-53.3	-79.8	347	22	
2025-08-04T00:00	13550	162	-53.6	-79.9	344	22	
2025-08-04T00:00	13600	161	-53.7	-80.0	342	22	
2025-08-04T00:00	13650	159	-53.8	-80.3	342	22	
2025-08-04T00:00	13700	158	-53.8	-80.5	344	21	
2025-08-04T00:00	13750	157	-53.9	-80.8	348	20	
2025-08-04T00:00	13800	156	-53.8	-80.9	350	19	
2025-08-04T00:00	13850	154	-54.0	-80.9	351	18	
2025-08-04T00:00	13900	153	-54.4	-81.0	351	18	
2025-08-04T00:00	13950	152	-54.7	-81.3	349	19	
2025-08-04T00:00	14000	151	-54.9	-81.5	348	19	
2025-08-04T00:00	14050	150	-54.9	-81.6	348	19	
2025-08-04T00:00	14100	148	-54.8	-81.5	347	19	
2025-08-04T00:00	14150	147	-54.8	-81.6	346	19	
2025-08-04T00:00	14200	146	-54.8	-81.5	347	19	
2025-08-04T00:00	14250	145	-55.1	-81.3	347	18	
2025-08-04T00:00	14300	144	-55.3	-81.4	346	18	
2025-08-04T00:00	14350	143	-55.4	-81.7	344	18	
2025-08-04T00:00	14400	142	-55.6	-82.1	342	19	
2025-08-04T00:00	14450	141	-55.5	-82.2	343	19	
2025-08-04T00:00	14500	139	-55.4	-82.5	345	18	
2025-08-04T00:00	14550	138	-55.3	-82.7	346	18	
2025-08-04T00:00	14600	137	-55.2	-82.8	344	17	
2025-08-04T00:00	14650	136	-55.4	-82.8	342	17	
2025-08-04T00:00	14700	135	-55.0	-82.7	342	17	
2025-08-04T00:00	14750	134	-54.9	-82.7	345	16	
2025-08-04T00:00	14800	133	-54.8	-82.7	348	16	
2025-08-04T00:00	14850	132	-54.8	-82.7	349	16	
2025-08-04T00:00	14900	131	-54.9	-82.7	347	16	
2025-08-04T00:00	14950	130	-55.1	-82.9	345	15	
2025-08-04T00:00	15000	129	-55.0	-83.0	343	14	
2025-08-04T00:00	15050	128	-54.5	-83.1	341	14	
2025-08-04T00:00	15100	127	-54.3	-83.3	337	13	
2025-08-04T00:00	15150	126	-53.9	-83.2	332	12	
2025-08-04T00:00	15200	125	-54.2	-83.3	329	12	
2025-08-04T00:00	15250	124	-54.3	-83.3	331	13	
2025-08-04T00:00	15300	123	-54.3	-83.3	332	13	
2025-08-04T00:00	15350	122	-54.1	-83.4	332	12	
2025-08-04T00:00	15400	121	-54.1	-83.5	333	12	
2025-08-04T00:00	15450	120	-54.1	-83.5	334	12	
2025-08-04T00:00	15500	119	-54.0	-83.5	335	11	
2025-08-04T00:00	15550	118	-53.7	-83.5	340	11	
2025-08-04T00:00	15600	117	-53.5	-83.5	347	11	
2025-08-04T00:00	15650	117	-53.3	-83.5	351	10	
2025-08-04T00:00	15700	116	-53.1	-83.4	352	8	
2025-08-04T00:00	15750	115	-53.3	-83.4	354	7	
2025-08-04T00:00	15800	114	-53.5	-83.3	356	6	
2025-08-04T00:00	15850	113	-53.9	-83.4	354	5	
2025-08-04T00:00	15900	112	-54.3	-83.5	347	5	
2025-08-04T00:00	15950	111	-54.7	-83.7	342	6	
2025-08-04T00:00	16000	110	-54.8	-83.8	340	6	
2025-08-04T00:00	16050	109	-54.6	-83.9	334	6	
2025-08-04T00:00	16100	109	-54.4	-83.9	324	6	
2025-08-04T00:00	16150	108	-54.7	-83.9	315	8	
2025-08-04T00:00	16200	107	-55.0	-84.0	312	9	
2025-08-04T00:00	16250	106	-55.2	-84.3	314	10	
2025-08-04T00:00	16300	105	-54.5	-84.0	321	9	
2025-08-04T00:00	16350	104	-54.8	-84.1	327	9	
2025-08-04T00:00	16400	104	-55.1	-84.1	330	8	
2025-08-04T00:00	16450	103	-55.2	-84.2	335	7	
2025-08-04T00:00	16500	102	-55.4	-84.3	339	7	
2025-08-04T00:00	16550	101	-55.5	-84.5	334	7	
2025-08-04T00:00	16600	100	-55.1	-84.4	324	8	
2025-08-04T00:00	16650	100	-54.9	-84.3	318	8	
2025-08-04T00:00	16700	99	-55.1	-84.4	315	9	
2025-08-04T00:00	16750	98	-55.2	-84.4	316	9	
2025-08-04T00:00	16800	97	-55.3	-84.4	319	10	
2025-08-04T00:00	16850	97	-55.4	-84.5	323	10	
2025-08-04T00:00	16900	96	-55.3	-84.6	327	10	
2025-08-04T00:00	16950	95	-55.2	-84.7	331	9	
2025-08-04T00:00	17000	94	-54.8	-84.7	335	7	
2025-08-04T00:00	17050	94	-54.3	-84.6	338	6	
2025-08-04T00:00	17100	93	-54.0	-84.5	340	5	
2025-08-04T00:00	17150	92	-53.7	-84.3	338	4	
2025-08-04T00:00	17200	91	-53.6	-84.2	333	5	
2025-08-04T00:00	17250	91	-53.8	-84.2	327	6	
2025-08-04T00:00	17300	90	-53.8	-84.1	324	5	
2025-08-04T00:00	17350	89	-53.7	-84.2	326	5	
2025-08-04T00:00	17400	89	-53.8	-84.1	332	5	
2025-08-04T00:00	17450	88	-54.1	-84.1	337	5	
2025-08-04T00:00	17500	87	-54.4	-84.2	338	7	
2025-08-04T00:00	17550	87	-54.6	-84.3	336	7	
2025-08-04T00:00	17600	86	-54.8	-84.3	332	7	
2025-08-04T00:00	17650	85	-55.0	-84.5	328	7	
2025-08-04T00:00	17700	85	-55.4	-84.6	326	8	
2025-08-04T00:00	17750	84	-55.6	-84.7	326	8	
2025-08-04T00:00	17800	83	-55.7	-84.9	328	7	
2025-08-04T00:00	17850	83	-55.2	-84.8	330	6	
2025-08-04T00:00	17900	82	-55.4	-84.8	333	6	
2025-08-04T00:00	17950	81	-55.5	-84.8	335	5	
2025-08-04T00:00	18000	81	-55.8	-84.9	334	5	
2025-08-04T00:00	18050	80	-55.9	-85.0	331	5	
2025-08-04T00:00	18100	79	-55.7	-84.9	326	5	
2025-08-04T00:00	18150	79	-55.9	-85.1	320	6	
2025-08-04T00:00	18200	78	-55.8	-85.1	319	6	
2025-08-04T00:00	18250	78	-55.8	-85.1	327	6	
2025-08-04T00:00	18300	77	-55.8	-85.1	339	6	
2025-08-04T00:00	18350	76	-55.6	-85.1	346	7	
2025-08-04T00:00	18400	76	-55.6	-85.2	348	6	
2025-08-04T00:00	18450	75	-55.4	-85.1	350	5	
2025-08-04T00:00	18500	75	-55.3	-85.1	352	4	
2025-08-04T00:00	18550	74	-55.2	-85.0	350	3	
2025-08-04T00:00	18600	73	-55.3	-84.9	350	3	
2025-08-04T00:00	18650	73	-55.4	-85.0	355	4	
2025-08-04T00:00	18700	72	-55.5	-85.1	1	4	
2025-08-04T00:00	18750	72	-55.6	-85.2	11	3	
2025-08-04T00:00	18800	71	-55.6	-85.1	28	3	
2025-08-04T00:00	18850	71	-55.9	-85.2	56	2	
2025-08-04T00:00	18900	70	-56.0	-85.2	102	1	
2025-08-04T00:00	18950	69	-56.2	-85.3	143	2	
2025-08-04T00:00	19000	69	-56.4	-85.4	159	2	
2025-08-04T00:00	19050	68	-56.7	-85.5	163	3	
2025-08-04T00:00	19100	68	-57.0	-85.6	169	3	
2025-08-04T00:00	19150	67	-57.1	-85.9	177	3	
2025-08-04T00:00	19200	67	-56.6	-86.0	184	2	
2025-08-04T00:00	19250	66	-55.7	-85.7	176	1	
2025-08-04T00:00	19300	66	-55.5	-85.7	178	2	
2025-08-04T00:00	19350	65	-55.4	-85.5	192	2	
2025-08-04T00:00	19400	65	-55.4	-85.3	214	2	
2025-08-04T00:00	19450	64	-55.6	-85.3	245	2	
2025-08-04T00:00	19500	64	-55.6	-85.3	272	3	
2025-08-04T00:00	19550	63	-55.8	-85.4	294	3	
2025-08-04T00:00	19600	63	-55.9	-85.5	311	4	
2025-08-04T00:00	19650	62	-55.9	-85.5	328	4	
2025-08-04T00:00	19700	62	-56.0	-85.7	346	5	
2025-08-04T00:00	19750	61	-55.8	-85.8	357	6	
2025-08-04T00:00	19800	61	-55.1	-85.6	8	7	
2025-08-04T00:00	19850	60	-54.7	-85.6	22	7	
2025-08-04T00:00	19900	60	-54.5	-85.3	37	8	
2025-08-04T00:00	19950	59	-54.6	-85.2	50	8	
2025-08-04T00:00	20000	59	-54.9	-85.1	60	9	
2025-08-04T00:00	20050	58	-55.1		66	9	
2025-08-04T00:00	20100	58	-55.4		71	8	
2025-08-04T00:00	20150	58	-55.4		73	7	
2025-08-04T00:00	20200	57	-55.2		72	5	
2025-08-04T00:00	20250	57	-54.9		72	5	
2025-08-04T00:00	20300	56	-54.9		77	5	
2025-08-04T00:00	20350	56	-55.3		88	5	
2025-08-04T00:00	20400	55	-55.5		100	6	
2025-08-04T00:00	20450	55	-55.3		109	7	
2025-08-04T00:00	20500	54	-55.2		112	8	
2025-08-04T00:00	20550	54	-55.0		111	8	
2025-08-04T00:00	20600	54	-55.1		109	7	
2025-08-04T00:00	20650	53	-55.0		111	6	
2025-08-04T00:00	20700	53	-55.0		116	5	
2025-08-04T00:00	20750	52	-55.2		125	4	
2025-08-04T00:00	20800	52	-55.2		135	3	
2025-08-04T00:00	20850	52	-55.3		138	2	
2025-08-04T00:00	20900	51	-55.1		111	2	
2025-08-04T00:00	20950	51	-54.7		66	2	
2025-08-04T00:00	21000	50	-53.9		59	4	
2025-08-04T00:00	21050	50	-53.7		65	5	
2025-08-04T00:00	21100	50	-53.9		75	6	
2025-08-04T00:00	21150	49	-53.9		82	7	
2025-08-04T00:00	21200	49	-54.0		82	7	
2025-08-04T00:00	21250	48	-53.8		77	6	
2025-08-04T00:00	21300	48	-53.7		68	6	
2025-08-04T00:00	21350	48	-53.5		63	6	
2025-08-04T00:00	21400	47	-53.1		64	7	
2025-08-04T00:00	21450	47	-53.0		68	8	
2025-08-04T00:00	21500	47	-53.1		73	8	
2025-08-04T00:00	21550	46	-52.7		79	7	
2025-08-04T00:00	21600	46	-52.9		87	7	
2025-08-04T00:00	21650	46	-53.2		93	6	
2025-08-04T00:00	21700	45	-53.6		96	5	
2025-08-04T00:00	21750	45	-53.9		96	4	
2025-08-04T00:00	21800	44	-54.0		100	3	
2025-08-04T00:00	21850	44	-54.0		106	3	
2025-08-04T00:00	21900	44	-54.1		95	3	
2025-08-04T00:00	21950	43	-53.7		76	3	
2025-08-04T00:00	22000	43	-53.7		69	4	
2025-08-04T00:00	22050	43	-54.0		72	5	
2025-08-04T00:00	22100	42	-54.0		76	5	
2025-08-04T00:00	22150	42	-53.8		75	6	
2025-08-04T00:00	22200	42	-54.0		70	7	
2025-08-04T00:00	22250	41	-53.7		68	8	
2025-08-04T00:00	22300	41	-53.5		70	8	
2025-08-04T00:00	22350	41	-53.7		75	8	
2025-08-04T00:00	22400	41	-53.8		81	9	
2025-08-04T00:00	22450	40	-53.8		87	10	
2025-08-04T00:00	22500	40	-53.4		95	10	
2025-08-04T00:00	22550	40	-52.8		103	10	
2025-08-04T00:00	22600	39	-52.6		111	10	
2025-08-04T00:00	22650	39	-52.6		118	10	
2025-08-04T00:00	22700	39	-52.8		124	10	
2025-08-04T00:00	22750	38	-53.0		128	10	
2025-08-04T00:00	22800	38	-53.1		132	8	
2025-08-04T00:00	22850	38	-52.9		131	7	
2025-08-04T00:00	22900	37	-52.7		123	5	
2025-08-04T00:00	22950	37	-52.5		112	4	
2025-08-04T00:00	23000	37	-52.3		102	4	
2025-08-04T00:00	23050	37	-52.3		101	4	
2025-08-04T00:00	23100	36	-52.1		102	4	
2025-08-04T00:00	23150	36	-52.0		102	4	
2025-08-04T00:00	23200	36	-52.2		99	3	
2025-08-04T00:00	23250	36	-52.4		89	3	
2025-08-04T00:00	23300	35	-52.7		71	3	
2025-08-04T00:00	23350	35	-52.5		61	5	
2025-08-04T00:00	23400	35	-52.1		60	7	
2025-08-04T00:00	23450	34	-52.3		63	8	
2025-08-04T00:00	23500	34	-52.5		67	10	
2025-08-04T00:00	23550	34	-52.7		72	11	
2025-08-04T00:00	23600	34	-52.8		77	12	
2025-08-04T00:00	23650	33	-52.9		84	12	
2025-08-04T00:00	23700	33	-53.1		91	12	
2025-08-04T00:00	23750	33	-52.8		98	11	
2025-08-04T00:00	23800	33	-52.9		105	10	
2025-08-04T00:00	23850	32	-52.9		109	9	
2025-08-04T00:00	23900	32	-52.6		109	9	
2025-08-04T00:00	23950	32	-52.2		106	9	
2025-08-04T00:00	24000	32	-52.0		104	9	
2025-08-04T00:00	24050	31	-51.8		104	9	
2025-08-04T00:00	24100	31	-51.8		107	9	
2025-08-04T00:00	24150	31	-51.9		112	9	
2025-08-04T00:00	24200	31	-51.7		114	9	
2025-08-04T00:00	24250	30	-51.5		112	8	
2025-08-04T00:00	24300	30	-51.5		105	7	
2025-08-04T00:00	24350	30	-51.3		100	6	
2025-08-04T00:00	24400	30	-51.3		95	6	
2025-08-04T00:00	24450	30	-51.5		90	6	
2025-08-04T00:00	24500	29	-51.4		88	8	
2025-08-04T00:00	24550	29	-51.6		92	9	
2025-08-04T00:00	24600	29	-51.5		100	10	
2025-08-04T00:00	24650	29	-51.4		108	11	
2025-08-04T00:00	24700	28	-51.5		114	11	
2025-08-04T00:00	24750	28	-51.3		119	11	
2025-08-04T00:00	24800	28	-50.9		125	10	
2025-08-04T00:00	24850	28	-51.0		129	9	
2025-08-04T00:00	24900	28	-50.9		134	7	
2025-08-04T00:00	24950	27	-50.9		140	5	
2025-08-04T00:00	25000	27	-50.7		145	4	
2025-08-04T00:00	25050	27	-50.4		137	3	
2025-08-04T00:00	25100	27	-50.4		110	3	
2025-08-04T00:00	25150	26	-50.3		92	4	
2025-08-04T00:00	25200	26	-50.2		86	5	
2025-08-04T00:00	25250	26	-49.9		82	5	
2025-08-04T00:00	25300	26	-49.7		78	5	
2025-08-04T00:00	25350	26	-49.7		73	6	
2025-08-04T00:00	25400	25	-49.7		72	7	
2025-08-04T00:00	25450	25	-49.7		72	8	
2025-08-04T00:00	25500	25	-49.8		73	10	
2025-08-04T00:00	25550	25	-49.8		75	11	
2025-08-04T00:00	25600	25	-49.7		79	12	
2025-08-04T00:00	25650	25	-49.8		84	13	
2025-08-04T00:00	25700	24	-49.9		88	14	
2025-08-04T00:00	25750	24	-50.0		93	14	
2025-08-04T00:00	25800	24	-49.9		98	13	
2025-08-04T00:00	25850	24	-49.8		101	12	
2025-08-04T00:00	25900	24	-49.9		101	11	
2025-08-04T00:00	25950	23	-49.6		99	11	
2025-08-04T00:00	26000	23	-49.3		95	11	
2025-08-04T00:00	26050	23	-48.9		95	11	
2025-08-04T00:00	26100	23	-48.5		97	11	
2025-08-04T00:00	26150	23	-48.4		101	11	
2025-08-04T00:00	26200	23	-48.0		102	11	
2025-08-04T00:00	26250	22	-48.0		103	10	
2025-08-04T00:00	26300	22	-47.8		105	10	
2025-08-04T00:00	26350	22	-47.9		105	9	
2025-08-04T00:00	26400	22	-47.4		101	8	
2025-08-04T00:00	26450	22	-47.3		94	7	
2025-08-04T00:00	26500	22	-47.1		83	7	
2025-08-04T00:00	26550	21	-46.7		73	7	
2025-08-04T00:00	26600	21	-46.5		71	8	
2025-08-04T00:00	26650	21	-46.0		75	10	
2025-08-04T00:00	26700	21	-46.1		81	11	
2025-08-04T00:00	26750	21	-46.2		86	12	
2025-08-04T00:00	26800	21	-46.5		90	13	
2025-08-04T00:00	26850	20	-46.8		94	14	
2025-08-04T00:00	26900	20	-47.0		97	14	
2025-08-04T00:00	26950	20	-47.2		98	13	
2025-08-04T00:00	27000	20	-47.2		97	12	
2025-08-04T00:00	27050	20	-47.1		94	11	
2025-08-04T00:00	27100	20	-46.9		89	10	
2025-08-04T00:00	27150	20	-46.8		87	10	
2025-08-04T00:00	27200	19	-46.3		88	10	
2025-08-04T00:00	27250	19	-45.9		89	10	
2025-08-04T00:00	27300	19	-45.7		89	10	
2025-08-04T00:00	27350	19	-45.6		89	9	
2025-08-04T00:00	27400	19	-45.5		88	8	
2025-08-04T00:00	27450	19	-45.4		84	8	
2025-08-04T00:00	27500	19	-45.6		78	8	
2025-08-04T00:00	27550	18	-45.5		72	9	
2025-08-04T00:00	27600	18	-45.7		68	10	
2025-08-04T00:00	27650	18	-45.8		67	11	
2025-08-04T00:00	27700	18	-45.7		68	11	
2025-08-04T00:00	27750	18	-45.8		71	12	
2025-08-04T00:00	27800	18	-46.0		74	12	
2025-08-04T00:00	27850	18	-46.0		76	12	
2025-08-04T00:00	27900	17	-46.0		77	13	
2025-08-04T00:00	27950	17	-45.9		78	13	
2025-08-04T00:00	28000	17	-46.0		79	13	
2025-08-04T00:00	28050	17	-46.2		81	14	
2025-08-04T00:00	28100	17	-46.4		84	14	
2025-08-04T00:00	28150	17	-46.6		86	14	
2025-08-04T00:00	28200	17	-46.7		87	14	
2025-08-04T00:00	28250	17	-46.5		87	14	
2025-08-04T00:00	28300	16	-46.2		87	14	
2025-08-04T00:00	28350	16	-46.2		87	15	
2025-08-04T00:00	28400	16	-46.1		86	16	
2025-08-04T00:00	28450	16	-46.0		86	16	
2025-08-04T00:00	28500	16	-45.8		87	16	
2025-08-04T00:00	28550	16	-45.9		88	15	
2025-08-04T00:00	28600	16	-46.1		90	14	
2025-08-04T00:00	28650	16	-46.4		93	14	
2025-08-04T00:00	28700	15	-46.4		97	13	
2025-08-04T00:00	28750	15	-46.5		102	13	
2025-08-04T00:00	28800	15	-46.6		107	13	
2025-08-04T00:00	28850	15	-46.5		109	13	
2025-08-04T00:00	28900	15	-46.6		110	13	
2025-08-04T00:00	28950	15	-46.4		110	12	
2025-08-04T00:00	29000	15	-46.4		109	11	
2025-08-04T00:00	29050	15	-46.4		108	11	
2025-08-04T00:00	29100	15	-46.5		105	10	
2025-08-04T00:00	29150	14	-46.5		98	9	
2025-08-04T00:00	29200	14	-46.4		91	9	
2025-08-04T00:00	29250	14	-46.2		85	10	
2025-08-04T00:00	29300	14	-45.9		83	11	
2025-08-04T00:00	29350	14	-45.7		84	11	
2025-08-04T00:00	29400	14	-45.4		88	11	
2025-08-04T00:00	29450	14	-45.2		92	11	
2025-08-04T00:00	29500	14	-45.0		93	11	
2025-08-04T00:00	29550	14	-44.8		90	12	
2025-08-04T00:00	29600	14	-44.7		86	13	
2025-08-04T00:00	29650	13	-44.6		85	14	
2025-08-04T00:00	29700	13	-44.5		87	14	
2025-08-04T00:00	29750	13	-44.1		91	13	
2025-08-04T00:00	29800	13	-43.8		93	12	
2025-08-04T00:00	29850	13	-43.5		93	12	
2025-08-04T00:00	29900	13	-43.1		95	12	
2025-08-04T00:00	29950	13	-42.8		98	13	
2025-08-04T00:00	30000	13	-42.5		104	13	
2025-08-04T00:00	30050	13	-42.4		109	13	
2025-08-04T00:00	30100	13	-42.3		112	13	
2025-08-04T00:00	30150	12	-42.4		113	13	
2025-08-04T00:00	30200	12	-42.5		112	13	
2025-08-04T00:00	30250	12	-42.6		110	13	
2025-08-04T00:00	30300	12	-42.6		108	13	
2025-08-04T00:00	30350	12	-42.6		105	13	
2025-08-04T00:00	30400	12	-42.7		104	12	
2025-08-04T00:00	30450	12	-42.9		104	12	
2025-08-04T00:00	30500	12	-43.2		106	11	
2025-08-04T00:00	30550	12	-43.1		108	10	
2025-08-04T00:00	30600	12	-43.0		108	10	
2025-08-04T00:00	30650	12	-42.9		105	10	
2025-08-04T00:00	30700	11	-42.8		101	11	
2025-08-04T00:00	30750	11	-42.6		99	11	
2025-08-04T00:00	30800	11	-42.3		98	11	
2025-08-04T00:00	30850	11	-41.9		98	10	
2025-08-04T00:00	30900	11	-41.8		98	10	
2025-08-04T00:00	30950	11	-41.7		97	9	
2025-08-04T00:00	31000	11	-41.4		99	9	
2025-08-04T00:00	31050	11	-40.7		102	9	
2025-08-04T00:00	31100	11	-40.4		105	9	
2025-08-04T00:00	31150	11	-40.3		106	9	
2025-08-04T00:00	31200	11	-40.2		105	8	
2025-08-04T00:00	31250	11	-40.4		102	7	
2025-08-04T00:00	31300	11	-40.6		97	6	
2025-08-04T00:00	31350	10	-40.7		90	6	
2025-08-04T00:00	31400	10	-40.5		84	8	
2025-08-04T00:00	31450	10	-39.9		81	9	
2025-08-04T00:00	31500	10	-39.6		80	9	
2025-08-04T00:00	31550	10	-39.2		80	10	
2025-08-04T00:00	31600	10	-39.2		80	11	
2025-08-04T00:00	31650	10	-39.1		81	12	
2025-08-04T00:00	31700	10	-39.0		83	14	
2025-08-04T00:00	31750	10	-39.1		86	15	
2025-08-04T00:00	31800	10	-39.0		88	15	
2025-08-04T00:00	31850	10	-39.3		91	15	
2025-08-04T00:00	31900	10	-39.5		93	15	
2025-08-04T00:00	31950	10	-39.7		95	14	
2025-08-04T00:00	32000	9	-39.6		94	13	
2025-08-04T00:00	32050	9	-39.4		91	13	
2025-08-04T00:00	32100	9	-39.3		87	12	
2025-08-04T00:00	32150	9	-39.3		84	13	
2025-08-04T00:00	32200	9	-39.0		82	14	
2025-08-04T00:00	32250	9	-38.7		82	15	
2025-08-04T00:00	32300	9	-38.3		83	17	
2025-08-04T00:00	32350	9	-38.1		86	19	
2025-08-04T00:00	32400	9	-38.0		89	20	
2025-08-04T00:00	32450	9	-38.0		92	21	
2025-08-04T00:00	32500	9	-38.0		95	21	
2025-08-04T00:00	32550	9	-38.1		97	20	
2025-08-04T00:00	32600	9	-38.2		99	20	
2025-08-04T00:00	32650	9	-38.4		99	19	
2025-08-04T00:00	32700	9	-38.5		98	19	
2025-08-04T00:00	32750	9	-38.4		97	19	
2025-08-04T00:00	32800	8	-38.5		98	18	
2025-08-04T00:00	32850	8	-38.5		99	17	
2025-08-04T00:00	32900	8	-38.3		97	16	
2025-08-04T00:00	32950	8	-37.8		92	16	
2025-08-04T00:00	33000	8	-37.5		87	16	
2025-08-04T00:00	33050	8	-37.5		83	17	
2025-08-04T00:00	33100	8	-37.4		79	18	
2025-08-04T00:00	33150	8	-37.4		77	18	
2025-08-04T00:00	33200	8	-37.4		77	18	
2025-08-04T00:00	33250	8	-37.3		80	18	
2025-08-04T00:00	33300	8	-37.4		84	17	
2025-08-04T00:00	33350	8	-37.8		88	17	
2025-08-04T00:00	33400	8	-38.1		91	17	
2025-08-04T00:00	33450	8	-38.0		91	17	
2025-08-04T00:00	33500	8	-37.8		89	16	
2025-08-04T00:00	33550	8	-37.8		85	15	
2025-08-04T00:00	33600	8	-38.0		81	14	
2025-08-04T00:00	33650	7	-38.4		78	13	
2025-08-04T00:00	33700	7	-38.7		76	13	
2025-08-04T00:00	33750	7	-38.9		75	12	
2025-08-04T00:00	33800	7	-38.7		76	13	
2025-08-04T00:00	33850	7	-38.4		76	14	
2025-08-04T00:00	33900	7	-38.2		77	15	
2025-08-04T00:00	33950	7	-37.8		81	16	
2025-08-04T00:00	34000	7	-37.5		86	17	
2025-08-04T00:00	34050	7	-36.6		92	19	
2025-08-04T00:00	34100	7	-36.5		99	20	
2025-08-04T00:00	34150	7	-36.2		104	20	
2025-08-04T00:00	34200	7	-35.8		108	20	
2025-08-04T00:00	34250	7	-35.9		111	20	
2025-08-04T00:00	34300	7	-35.4		114	19	
2025-08-04T00:00	34350	7	-34.8		116	18	
2025-08-04T00:00	34400	7	-34.4		117	17	
2025-08-04T00:00	34450	7	-34.2		117	16	
2025-08-04T00:00	34500	7	-34.3		117	15	
2025-08-04T00:00	34550	7	-34.5		116	14	
2025-08-04T00:00	34600	7	-34.8		114	14	
2025-08-04T00:00	34650	6	-34.7		109	13	
2025-08-04T00:00	34700	6	-34.2		103	14	
2025-08-04T00:00	34750	6	-34.3		99	16	
2025-08-04T00:00	34800	6	-34.0		97	17	
2025-08-04T00:00	34850	6	-33.5		98	16	
2025-08-04T00:00	34900	6	-33.4		99	15	
2025-08-04T00:00	34950	6	-33.2		99	14	
2025-08-04T00:00	35000	6	-33.2		95	13	
2025-08-04T00:00	35050	6	-33.0		90	14	
2025-08-04T00:00	35100	6	-32.8		85	15	
2025-08-04T00:00	35150	6	-32.7		82	16	
2025-08-04T00:00	35200	6	-32.7		80	17	
2025-08-04T00:00	35250	6	-32.5		79	17	
2025-08-04T00:00	35300	6	-32.7		78	16	
2025-08-04T00:00	35350	6	-33.0		76	15	
2025-08-04T00:00	35400	6	-33.3		74	14	
2025-08-04T00:00	35450	6	-33.7		71	13	
2025-08-04T00:00	35500	6	-34.0		68	12	
2025-08-04T00:00	35550	6	-34.3		64	12	
2025-08-04T00:00	35600	6	-34.4		63	12	
2025-08-04T00:00	35650	6	-33.8		65	13	
2025-08-04T00:00	35700	6	-33.8		67	15	
2025-08-04T00:00	35750	6	-33.9		70	16	
2025-08-04T00:00	35800	5	-34.0		73	18	
2025-08-04T00:00	35850	5	-34.0		76	19	
2025-08-04T00:00	35900	5	-33.9		80	19	
2025-08-04T00:00	35950	5	-33.9		82	19	
2025-08-04T12:00	491	966	21.8	10.0	43	1	4.1
2025-08-04T12:00	501	965	21.0	9.1	298	1	4.1
2025-08-04T12:00	520	963	20.8	8.8	326	1	4.1
2025-08-04T12:00	540	960	20.6	8.7	345	1	4.1
2025-08-04T12:00	560	958	20.4	8.6	355	1	4.2
2025-08-04T12:00	580	956	20.2	8.5	2	2	4.2
2025-08-04T12:00	600	954	20.1	8.5	7	2	4.3
2025-08-04T12:00	620	952	19.9	8.6	11	2	4.3
2025-08-04T12:00	640	949	19.7	8.6	14	2	4.3
2025-08-04T12:00	660	947	19.5	8.4	17	2	4.3
2025-08-04T12:00	680	945	19.3	8.0	21	1	4.3
2025-08-04T12:00	700	943	19.0	7.8	26	1	4.3
2025-08-04T12:00	720	940	18.8	7.7	31	1	4.3
2025-08-04T12:00	740	938	18.7	7.6	33	0	4.3
2025-08-04T12:00	760	936	18.4	7.9	29	0	4.3
2025-08-04T12:00	780	934	18.3	7.2	24	1	4.3
2025-08-04T12:00	800	932	18.2	6.9	21	1	4.3
2025-08-04T12:00	820	929	18.0	7.1	21	0	4.3
2025-08-04T12:00	840	927	17.9	6.5	22	0	4.3
2025-08-04T12:00	860	925	17.7	6.3	22	1	4.3
2025-08-04T12:00	880	923	17.4	7.1	19	1	4.3
2025-08-04T12:00	900	921	17.2	6.5	13	1	4.3
2025-08-04T12:00	920	919	17.0	6.7	2	1	4.3
2025-08-04T12:00	940	916	16.8	7.1	342	1	4.4
2025-08-04T12:00	960	914	16.6	7.0	310	1	4.4
2025-08-04T12:00	980	912	16.5	6.8	285	1	4.4
2025-08-04T12:00	1000	910	16.3	6.6	271	1	4.3
2025-08-04T12:00	1020	908	16.3	4.6	265	1	4.3
2025-08-04T12:00	1040	906	16.3	3.5	262	1	4.3
2025-08-04T12:00	1060	904	16.1	3.7	261	1	4.4
2025-08-04T12:00	1080	902	16.0	3.1	258	1	4.4
2025-08-04T12:00	1100	899	15.8	2.9	252	1	4.4
2025-08-04T12:00	1120	897	15.6	2.9	247	1	4.4
2025-08-04T12:00	1140	895	15.4	2.7	241	1	4.4
2025-08-04T12:00	1160	893	15.3	2.6	238	1	4.4
2025-08-04T12:00	1180	891	15.1	2.7	237	2	4.4
2025-08-04T12:00	1200	889	14.9	1.8	238	2	4.4
2025-08-04T12:00	1220	887	14.8	1.7	241	2	4.4
2025-08-04T12:00	1240	885	14.7	1.6	244	2	4.4
2025-08-04T12:00	1260	883	14.6	-0.5	249	2	4.5
2025-08-04T12:00	1280	880	14.7	-1.6	254	2	4.5
2025-08-04T12:00	1300	878	14.5	0.5	258	2	4.6
2025-08-04T12:00	1320	876	14.3	1.2	261	2	4.6
2025-08-04T12:00	1340	874	14.1	1.9	262	2	4.5
2025-08-04T12:00	1360	872	13.9	3.0	260	2	4.5
2025-08-04T12:00	1380	870	13.8	3.9	256	2	4.5
2025-08-04T12:00	1400	868	13.8	3.6	252	2	4.4
2025-08-04T12:00	1420	866	13.8	2.8	248	2	4.4
2025-08-04T12:00	1440	864	13.7	2.9	246	2	4.3
2025-08-04T12:00	1460	862	13.6	4.1	244	3	4.3
2025-08-04T12:00	1480	860	13.5	4.2	243	3	4.2
2025-08-04T12:00	1500	858	13.4	4.5	243	3	4.2
2025-08-04T12:00	1520	856	13.4	4.8	244	3	4.2
2025-08-04T12:00	1540	854	13.3	4.7	244	4	4.2
2025-08-04T12:00	1560	852	13.2	4.6	244	4	4.1
2025-08-04T12:00	1580	850	13.1	4.6	244	4	4.1
2025-08-04T12:00	1600	848	13.0	4.4	244	4	4.0
2025-08-04T12:00	1620	846	12.9	4.6	245	4	4.0
2025-08-04T12:00	1640	844	12.7	5.0	245	4	4.0
2025-08-04T12:00	1660	842	12.6	4.7	247	4	4.0
2025-08-04T12:00	1680	840	12.4	4.7	249	4	4.0
2025-08-04T12:00	1700	838	12.3	4.9	251	3	3.9
2025-08-04T12:00	1720	836	12.1	4.8	254	3	3.9
2025-08-04T12:00	1740	834	11.9	5.1	256	3	3.9
2025-08-04T12:00	1760	832	11.7	5.3	258	3	3.9
2025-08-04T12:00	1780	830	11.5	5.3	260	3	3.8
2025-08-04T12:00	1800	828	11.3	5.1	263	3	3.8
2025-08-04T12:00	1820	826	11.1	5.0	266	3	3.7
2025-08-04T12:00	1840	824	10.9	5.3	270	4	3.7
2025-08-04T12:00	1860	822	10.7	5.5	274	4	3.6
2025-08-04T12:00	1880	820	10.5	5.9	277	4	3.5
2025-08-04T12:00	1900	818	10.3	6.4	280	4	3.4
2025-08-04T12:00	1920	816	10.2	6.5	282	5	3.3
2025-08-04T12:00	1940	814	10.0	6.7	284	5	3.2
2025-08-04T12:00	1960	812	10.0	7.3	285	5	3.1
2025-08-04T12:00	1980	810	10.1	7.8	287	5	2.9
2025-08-04T12:00	2000	808	10.1	7.8	288	5	2.8
2025-08-04T12:00	2020	806	9.9	7.6	289	5	2.7
2025-08-04T12:00	2040	804	9.8	7.5	289	5	2.6
2025-08-04T12:00	2060	802	9.7	7.4	288	4	2.5
2025-08-04T12:00	2080	800	9.6	7.3	285	4	2.4
2025-08-04T12:00	2100	799	9.4	7.3	282	4	2.4
2025-08-04T12:00	2120	797	9.2	7.1	279	4	2.4
2025-08-04T12:00	2140	795	9.1	6.9	277	4	2.3
2025-08-04T12:00	2160	793	9.0	6.9	276	4	2.3
2025-08-04T12:00	2180	791	8.8	6.8	276	4	2.3
2025-08-04T12:00	2200	789	8.7	6.7	277	4	2.3
2025-08-04T12:00	2220	787	8.5	6.6	279	4	2.3
2025-08-04T12:00	2240	785	8.3	6.5	281	4	2.3
2025-08-04T12:00	2260	783	8.2	6.3	283	4	2.3
2025-08-04T12:00	2280	781	8.0	5.8	286	4	2.4
2025-08-04T12:00	2300	779	7.9	5.6	289	4	2.4
2025-08-04T12:00	2320	777	7.8	5.1	294	4	2.5
2025-08-04T12:00	2340	776	7.7	4.3	298	5	2.5
2025-08-04T12:00	2360	774	7.7	3.4	302	5	2.7
2025-08-04T12:00	2380	772	7.7	2.0	305	5	2.9
2025-08-04T12:00	2400	770	7.6	1.6	308	6	3.1
2025-08-04T12:00	2420	768	7.6	-0.2	309	6	3.3
2025-08-04T12:00	2440	766	7.8	-0.9	310	7	3.6
2025-08-04T12:00	2460	764	7.7	-0.8	310	7	3.9
2025-08-04T12:00	2480	763	7.6	-0.5	309	7	4.1
2025-08-04T12:00	2500	761	7.6	-0.4	307	8	4.3
2025-08-04T12:00	2520	759	7.6	-0.1	306	8	4.4
2025-08-04T12:00	2540	757	7.5	-0.3	303	8	4.4
2025-08-04T12:00	2560	755	7.5	0.2	302	8	4.5
2025-08-04T12:00	2580	753	7.6	0.7	301	7	4.5
2025-08-04T12:00	2600	752	7.7	0.7	301	7	4.5
2025-08-04T12:00	2620	750	7.7	0.3	303	7	4.5
2025-08-04T12:00	2640	748	7.7	-0.6	305	7	4.5
2025-08-04T12:00	2660	746	7.9	-2.3	308	7	4.5
2025-08-04T12:00	2680	744	8.1	-6.6	312	8	4.6
2025-08-04T12:00	2700	742	8.2	-9.6	316	8	4.7
2025-08-04T12:00	2720	741	8.2	-7.3	319	8	4.7
2025-08-04T12:00	2740	739	8.1	-3.0	322	8	4.7
2025-08-04T12:00	2760	737	7.8	0.3	325	8	4.6
2025-08-04T12:00	2780	735	7.6	1.7	326	8	4.4
2025-08-04T12:00	2800	734	7.4	2.1	327	8	4.1
2025-08-04T12:00	2820	732	7.2	2.3	328	8	4.0
2025-08-04T12:00	2840	730	7.1	2.2	329	8	3.8
2025-08-04T12:00	2860	728	6.9	2.2	330	8	3.6
2025-08-04T12:00	2880	727	6.7	2.2	331	9	3.5
2025-08-04T12:00	2900	725	6.5	2.0	332	9	3.4
2025-08-04T12:00	2920	723	6.4	2.0	333	9	3.4
2025-08-04T12:00	2940	721	6.2	1.9	334	9	3.3
2025-08-04T12:00	2960	720	6.0	1.7	334	9	3.3
2025-08-04T12:00	2980	718	5.8	1.6	334	9	3.3
2025-08-04T12:00	3000	716	5.7	1.5	334	9	3.3
2025-08-04T12:00	3020	714	5.5	1.3	334	10	3.3
2025-08-04T12:00	3040	713	5.3	1.2	334	10	3.3
2025-08-04T12:00	3060	711	5.2	1.1	334	10	3.3
2025-08-04T12:00	3080	709	5.0	1.1	334	10	3.3
2025-08-04T12:00	3100	707	4.8	1.1	335	10	3.3
2025-08-04T12:00	3120	706	4.7	1.0	336	11	3.3
2025-08-04T12:00	3140	704	4.5	1.0	336	11	3.3
2025-08-04T12:00	3160	702	4.4	0.9	337	12	3.3
2025-08-04T12:00	3180	700	4.3	0.6	338	12	3.3
2025-08-04T12:00	3200	699	4.2	0.3	338	13	3.4
2025-08-04T12:00	3220	697	4.2	0.0	339	13	3.4
2025-08-04T12:00	3240	695	4.1	-0.2	339	13	3.4
2025-08-04T12:00	3260	694	4.0	0.1	339	13	3.4
2025-08-04T12:00	3280	692	4.0	0.9	340	14	3.4
2025-08-04T12:00	3300	690	3.9	0.9	341	14	3.4
2025-08-04T12:00	3320	688	3.8	0.9	342	14	3.4
2025-08-04T12:00	3340	687	3.7	0.8	343	14	3.4
2025-08-04T12:00	3360	685	3.6	0.7	343	14	3.3
2025-08-04T12:00	3380	684	3.6	0.7	344	14	3.3
2025-08-04T12:00	3400	682	3.4	0.6	344	14	3.2
2025-08-04T12:00	3420	680	3.3	0.3	344	14	3.2
2025-08-04T12:00	3440	678	3.1	0.1	344	15	3.2
2025-08-04T12:00	3460	677	3.0	-0.4	344	15	3.1
2025-08-04T12:00	3480	675	2.8	-0.5	344	15	3.1
2025-08-04T12:00	3500	673	2.7	-0.8	344	15	3.1
2025-08-04T12:00	3520	672	2.5	-0.8	344	16	3.1
2025-08-04T12:00	3540	670	2.4	-0.6	344	16	3.1
2025-08-04T12:00	3560	668	2.2	-0.7	344	16	3.1
2025-08-04T12:00	3580	667	2.1	-1.0	344	16	3.2
2025-08-04T12:00	3600	665	2.0	-1.3	344	16	3.2
2025-08-04T12:00	3620	664	1.9	-1.4	344	16	3.2
2025-08-04T12:00	3640	662	1.7	-1.5	344	16	3.2
2025-08-04T12:00	3660	660	1.6	-1.7	345	16	3.2
2025-08-04T12:00	3680	659	1.5	-1.6	345	16	3.2
2025-08-04T12:00	3700	657	1.4	-1.9	345	16	3.1
2025-08-04T12:00	3720	655	1.3	-2.3	345	15	3.2
2025-08-04T12:00	3740	654	1.1	-2.0	345	15	3.2
2025-08-04T12:00	3760	652	1.0	-2.0	345	15	3.2
2025-08-04T12:00	3780	650	0.8	-1.4	344	15	3.2
2025-08-04T12:00	3800	649	0.6	-1.0	343	15	3.1
2025-08-04T12:00	3820	647	0.6	-1.0	343	15	3.1
2025-08-04T12:00	3840	646	0.5	-0.9	342	14	3.0
2025-08-04T12:00	3860	644	0.3	-0.9	342	14	2.9
2025-08-04T12:00	3880	642	0.3	-1.0	341	14	2.9
2025-08-04T12:00	3900	641	0.1	-1.1	340	14	2.9
2025-08-04T12:00	3920	639	0.0	-1.1	339	14	2.8
2025-08-04T12:00	3940	638	-0.2	-1.0	339	14	2.8
2025-08-04T12:00	3960	636	-0.4	-1.1	338	14	2.7
2025-08-04T12:00	3980	634	-0.6	-1.2	338	14	2.7
2025-08-04T12:00	4000	633	-0.8	-1.3	338	14	2.7
2025-08-04T12:00	4020	631	-0.9	-1.7	338	15	2.6
2025-08-04T12:00	4040	630	-0.8	-2.3	337	15	2.6
2025-08-04T12:00	4060	628	-0.9	-2.4	337	15	2.6
2025-08-04T12:00	4080	627	-1.0	-2.5	337	15	2.6
2025-08-04T12:00	4100	625	-1.0	-2.5	337	15	2.6
2025-08-04T12:00	4120	623	-1.1	-2.8	337	15	2.6
2025-08-04T12:00	4140	622	-1.3	-2.8	336	14	2.6
2025-08-04T12:00	4160	620	-1.5	-2.9	336	14	2.6
2025-08-04T12:00	4180	619	-1.6	-3.1	336	14	2.6
2025-08-04T12:00	4200	617	-1.7	-3.2	335	15	2.6
2025-08-04T12:00	4220	616	-1.9	-3.1	334	15	2.6
2025-08-04T12:00	4240	614	-2.1	-3.2	333	15	2.6
2025-08-04T12:00	4260	613	-2.2	-3.3	332	15	2.6
2025-08-04T12:00	4280	611	-2.4	-3.5	331	15	2.6
2025-08-04T12:00	4300	609	-2.3	-4.0	331	15	2.6
2025-08-04T12:00	4320	608	-2.1	-5.2	329	16	2.6
2025-08-04T12:00	4340	606	-2.0	-6.6	329	16	2.6
2025-08-04T12:00	4360	605	-2.0	-7.3	328	16	2.7
2025-08-04T12:00	4380	603	-2.2	-7.9	327	16	2.8
2025-08-04T12:00	4400	602	-2.3	-8.6	326	17	2.9
2025-08-04T12:00	4420	600	-2.5	-9.2	326	17	3.0
2025-08-04T12:00	4440	599	-2.6	-9.9	325	17	3.1
2025-08-04T12:00	4460	597	-2.8	-10.8	325	17	3.1
2025-08-04T12:00	4480	596	-2.9	-11.3	325	17	3.2
2025-08-04T12:00	4500	594	-3.0	-12.0	324	17	3.3
2025-08-04T12:00	4520	593	-3.1	-12.5	324	17	3.3
2025-08-04T12:00	4540	591	-3.2	-13.4	324	16	3.4
2025-08-04T12:00	4560	590	-3.2	-13.5	324	16	3.4
2025-08-04T12:00	4580	588	-3.3	-13.6	324	16	3.4
2025-08-04T12:00	4600	587	-3.3	-15.0	324	16	3.5
2025-08-04T12:00	4620	585	-3.4	-17.1	324	16	3.5
2025-08-04T12:00	4640	584	-3.5	-17.2	324	16	3.6
2025-08-04T12:00	4660	582	-3.7	-16.5	324	16	3.6
2025-08-04T12:00	4680	581	-3.8	-16.0	324	16	3.6
2025-08-04T12:00	4700	579	-3.9	-15.5	324	16	3.6
2025-08-04T12:00	4720	578	-4.1	-14.0	324	16	3.6
2025-08-04T12:00	4740	577	-4.3	-12.4	323	15	3.7
2025-08-04T12:00	4760	575	-4.5	-11.6	322	15	3.6
2025-08-04T12:00	4780	574	-4.7	-9.7	321	15	3.6
2025-08-04T12:00	4800	572	-4.8	-8.4	319	15	3.5
2025-08-04T12:00	4820	571	-4.9	-7.7	318	15	3.4
2025-08-04T12:00	4840	569	-5.2	-7.5	318	15	3.3
2025-08-04T12:00	4860	568	-5.3	-7.7	318	15	3.2
2025-08-04T12:00	4880	566	-5.4	-7.8	318	15	3.0
2025-08-04T12:00	4900	565	-5.5	-7.4	318	15	2.9
2025-08-04T12:00	4920	564	-5.7	-7.3	319	15	2.8
2025-08-04T12:00	4940	562	-5.8	-7.4	319	15	2.7
2025-08-04T12:00	4960	561	-5.8	-8.0	320	15	2.7
2025-08-04T12:00	4980	559	-5.8	-8.3	320	16	2.6
2025-08-04T12:00	5000	558	-5.8	-8.3	319	16	2.6
2025-08-04T12:00	5020	556	-5.8	-8.4	319	16	2.6
2025-08-04T12:00	5040	555	-5.8	-9.9	318	16	2.6
2025-08-04T12:00	5060	553	-5.8	-11.4	317	17	2.7
2025-08-04T12:00	5080	552	-5.7	-15.0	317	17	2.8
2025-08-04T12:00	5100	551	-5.6	-14.3	317	17	2.9
2025-08-04T12:00	5120	549	-5.7	-11.9	316	17	2.9
2025-08-04T12:00	5140	548	-5.8	-10.0	317	17	2.9
2025-08-04T12:00	5160	546	-5.8	-10.8	317	17	2.9
2025-08-04T12:00	5180	545	-5.8	-11.0	317	16	2.9
2025-08-04T12:00	5200	544	-5.9	-10.7	316	16	2.9
2025-08-04T12:00	5220	542	-6.1	-10.3	316	16	2.8
2025-08-04T12:00	5240	541	-6.4	-10.4	315	16	2.8
2025-08-04T12:00	5260	540	-6.5	-10.6	314	15	2.8
2025-08-04T12:00	5280	538	-6.5	-10.6	313	15	2.8
2025-08-04T12:00	5300	537	-6.7	-11.1	313	16	2.8
2025-08-04T12:00	5320	535	-6.9	-11.3	313	16	2.8
2025-08-04T12:00	5340	534	-7.0	-11.3	313	16	2.8
2025-08-04T12:00	5360	533	-7.2	-11.2	313	16	2.8
2025-08-04T12:00	5380	531	-7.4	-11.0	314	16	2.8
2025-08-04T12:00	5400	530	-7.5	-10.9	314	16	2.8
2025-08-04T12:00	5420	529	-7.7	-11.3	315	16	2.8
2025-08-04T12:00	5440	527	-7.8	-11.4	316	16	2.8
2025-08-04T12:00	5460	526	-7.9	-11.4	317	16	2.8
2025-08-04T12:00	5480	525	-8.0	-11.7	317	16	2.7
2025-08-04T12:00	5500	523	-8.1	-11.6	318	16	2.7
2025-08-04T12:00	5520	522	-8.1	-11.0	319	16	2.7
2025-08-04T12:00	5540	520	-8.1	-11.6	319	16	2.7
2025-08-04T12:00	5560	519	-8.1	-13.1	320	16	2.7
2025-08-04T12:00	5580	518	-8.1	-14.2	320	16	2.7
2025-08-04T12:00	5600	516	-8.2	-16.1	320	16	2.7
2025-08-04T12:00	5620	515	-8.3	-16.6	321	16	2.8
2025-08-04T12:00	5640	514	-8.4	-15.2	322	16	2.8
2025-08-04T12:00	5660	513	-8.6	-14.6	322	16	2.9
2025-08-04T12:00	5680	511	-8.7	-14.2	323	16	2.9
2025-08-04T12:00	5700	510	-8.9	-14.2	324	16	2.9
2025-08-04T12:00	5720	509	-9.0	-14.6	325	16	2.9
2025-08-04T12:00	5740	507	-9.0	-16.6	325	16	3.0
2025-08-04T12:00	5760	506	-9.1	-17.1	326	16	3.0
2025-08-04T12:00	5780	505	-9.2	-15.3	327	16	3.0
2025-08-04T12:00	5800	503	-9.4	-14.2	327	16	3.0
2025-08-04T12:00	5820	502	-9.6	-14.1	327	16	3.0
2025-08-04T12:00	5840	501	-9.7	-14.4	328	15	2.9
2025-08-04T12:00	5860	499	-9.9	-14.6	329	15	2.9
2025-08-04T12:00	5880	498	-9.9	-15.5	329	15	2.9
2025-08-04T12:00	5900	497	-10.1	-16.0	330	15	2.9
2025-08-04T12:00	5920	496	-10.1	-16.1	330	15	2.9
2025-08-04T12:00	5940	494	-10.1	-15.0	330	15	2.8
2025-08-04T12:00	5960	493	-10.2	-13.4	330	15	2.8
2025-08-04T12:00	5980	492	-10.3	-13.2	330	15	2.8
2025-08-04T12:00	6000	490	-10.4	-13.2	329	15	2.7
2025-08-04T12:00	6020	489	-10.6	-13.1	328	15	2.6
2025-08-04T12:00	6040	488	-10.8	-13.1	328	15	2.5
2025-08-04T12:00	6060	487	-10.9	-13.6	327	15	2.4
2025-08-04T12:00	6080	485	-11.0	-13.8	327	15	2.3
2025-08-04T12:00	6100	484	-11.1	-13.9	327	15	2.2
2025-08-04T12:00	6120	483	-11.2	-14.0	327	15	2.1
2025-08-04T12:00	6140	482	-11.2	-13.7	327	15	2.1
2025-08-04T12:00	6160	480	-11.3	-13.7	327	15	2.0
2025-08-04T12:00	6180	479	-11.5	-13.9	327	15	2.0
2025-08-04T12:00	6200	478	-11.6	-14.3	327	15	2.0
2025-08-04T12:00	6220	477	-11.7	-14.4	327	15	2.0
2025-08-04T12:00	6240	475	-11.8	-14.4	327	15	2.0
2025-08-04T12:00	6260	474	-11.9	-14.6	327	15	1.9
2025-08-04T12:00	6280	473	-11.9	-14.6	327	15	1.8
2025-08-04T12:00	6300	472	-12.0	-14.9	327	15	1.8
2025-08-04T12:00	6320	470	-12.1	-15.1	328	15	1.8
2025-08-04T12:00	6340	469	-12.3	-15.2	329	15	1.7
2025-08-04T12:00	6360	468	-12.4	-15.4	330	15	1.7
2025-08-04T12:00	6380	467	-12.5	-15.6	332	15	1.7
2025-08-04T12:00	6400	465	-12.6	-15.6	334	15	1.6
2025-08-04T12:00	6420	464	-12.8	-15.6	335	15	1.6
2025-08-04T12:00	6440	463	-12.9	-15.6	337	15	1.6
2025-08-04T12:00	6460	462	-13.1	-15.6	338	16	1.6
2025-08-04T12:00	6480	461	-13.2	-15.6	339	16	1.6
2025-08-04T12:00	6500	459	-13.3	-15.7	340	16	1.5
2025-08-04T12:00	6520	458	-13.3	-16.1	340	16	1.5
2025-08-04T12:00	6540	457	-13.4	-16.3	339	16	1.6
2025-08-04T12:00	6560	456	-13.5	-16.2	338	16	1.6
2025-08-04T12:00	6580	455	-13.6	-16.0	338	16	1.6
2025-08-04T12:00	6600	454	-13.8	-15.8	336	16	1.6
2025-08-04T12:00	6620	452	-14.0	-16.0	336	16	1.6
2025-08-04T12:00	6640	451	-14.1	-16.2	335	16	1.6
2025-08-04T12:00	6660	450	-14.2	-16.4	334	16	1.6
2025-08-04T12:00	6680	449	-14.3	-16.7	334	16	1.6
2025-08-04T12:00	6700	448	-14.4	-17.1	334	16	1.6
2025-08-04T12:00	6720	446	-14.4	-17.4	334	16	1.6
2025-08-04T12:00	6740	445	-14.5	-17.6	334	16	1.6
2025-08-04T12:00	6760	444	-14.6	-17.7	334	17	1.6
2025-08-04T12:00	6780	443	-14.8	-17.8	334	17	1.6
2025-08-04T12:00	6800	442	-15.0	-17.9	334	17	1.6
2025-08-04T12:00	6820	441	-15.1	-18.0	333	17	1.6
2025-08-04T12:00	6840	439	-15.3	-18.1	333	17	1.6
2025-08-04T12:00	6860	438	-15.5	-18.1	333	17	1.6
2025-08-04T12:00	6880	437	-15.6	-18.2	333	18	1.6
2025-08-04T12:00	6900	436	-15.7	-18.4	333	18	1.6
2025-08-04T12:00	6920	435	-15.8	-18.6	333	18	1.6
2025-08-04T12:00	6940	433	-16.0	-18.7	333	18	1.6
2025-08-04T12:00	6960	432	-16.1	-18.8	334	18	1.6
2025-08-04T12:00	6980	431	-16.3	-18.7	335	18	1.6
2025-08-04T12:00	7000	430	-16.4	-18.7	336	17	1.6
2025-08-04T12:00	7020	429	-16.6	-18.8	337	17	1.6
2025-08-04T12:00	7040	428	-16.7	-18.8	338	17	1.6
2025-08-04T12:00	7060	427	-16.9	-18.8	340	17	1.6
2025-08-04T12:00	7080	426	-17.1	-18.9	341	17	1.6
2025-08-04T12:00	7100	425	-17.3	-18.8	343	17	1.6
2025-08-04T12:00	7120	423	-17.4	-18.8	344	17	1.6
2025-08-04T12:00	7140	422	-17.5	-18.7	345	17	1.6
2025-08-04T12:00	7160	421	-17.7	-18.7	345	17	1.6
2025-08-04T12:00	7180	420	-17.9	-18.8	345	17	1.6
2025-08-04T12:00	7200	419	-18.0	-19.0	344	17	1.6
2025-08-04T12:00	7220	418	-18.2	-19.2	344	18	1.6
2025-08-04T12:00	7240	416	-18.3	-19.5	342	18	1.6
2025-08-04T12:00	7260	415	-18.4	-19.8	341	18	1.6
2025-08-04T12:00	7280	414	-18.5	-19.9	340	18	1.7
2025-08-04T12:00	7300	413	-18.7	-20.4	339	18	1.7
2025-08-04T12:00	7320	412	-18.8	-21.1	338	18	1.7
2025-08-04T12:00	7340	411	-18.8	-21.2	336	18	1.8
2025-08-04T12:00	7360	410	-18.9	-20.3	336	18	1.8
2025-08-04T12:00	7380	409	-19.1	-20.4	335	18	1.9
2025-08-04T12:00	7400	408	-19.2	-20.5	335	19	1.9
2025-08-04T12:00	7420	407	-19.4	-20.5	335	19	1.9
2025-08-04T12:00	7440	405	-19.5	-20.7	336	20	1.9
2025-08-04T12:00	7460	404	-19.6	-21.1	337	21	1.9
2025-08-04T12:00	7480	403	-19.5	-22.2	337	22	1.9
2025-08-04T12:00	7500	402	-19.3	-23.8	338	22	1.9
2025-08-04T12:00	7520	401	-19.3	-24.7	339	23	2.0
2025-08-04T12:00	7540	400	-19.3	-25.6	339	24	2.2
2025-08-04T12:00	7560	399	-19.4	-26.7	340	24	2.4
2025-08-04T12:00	7580	398	-19.5	-26.7	340	24	2.6
2025-08-04T12:00	7600	397	-19.5	-26.4	341	24	2.7
2025-08-04T12:00	7620	396	-19.7	-26.5	341	25	2.8
2025-08-04T12:00	7640	395	-19.7	-27.2	341	24	2.9
2025-08-04T12:00	7660	394	-19.9	-27.2	342	24	3.1
2025-08-04T12:00	7680	393	-20.1	-27.3	342	24	3.1
2025-08-04T12:00	7700	392	-20.3	-27.5	342	24	3.2
2025-08-04T12:00	7720	391	-20.4	-27.7	342	24	3.2
2025-08-04T12:00	7740	390	-20.6	-27.8	342	24	3.3
2025-08-04T12:00	7760	388	-20.7	-28.1	342	24	3.4
2025-08-04T12:00	7780	387	-20.9	-28.4	342	24	3.4
2025-08-04T12:00	7800	386	-21.1	-28.5	343	23	3.4
2025-08-04T12:00	7820	385	-21.2	-28.8	343	23	3.4
2025-08-04T12:00	7840	384	-21.4	-28.9	343	23	3.4
2025-08-04T12:00	7860	383	-21.5	-29.6	344	23	3.4
2025-08-04T12:00	7880	382	-21.6	-31.9	344	23	3.4
2025-08-04T12:00	7900	381	-21.6	-32.7	345	23	3.4
2025-08-04T12:00	7920	380	-21.7	-33.1	345	23	3.4
2025-08-04T12:00	7940	379	-21.9	-33.1	346	23	3.4
2025-08-04T12:00	7960	378	-22.1	-33.0	346	23	3.4
2025-08-04T12:00	7980	377	-22.3	-33.0	346	23	3.4
2025-08-04T12:00	8000	376	-22.5	-33.1	346	23	3.4
2025-08-04T12:00	8020	375	-22.7	-33.1	347	23	3.4
2025-08-04T12:00	8040	374	-22.9	-33.1	347	23	3.4
2025-08-04T12:00	8060	373	-23.0	-33.1	347	23	3.4
2025-08-04T12:00	8080	372	-23.2	-33.1	347	23	3.4
2025-08-04T12:00	8100	371	-23.4	-33.1	348	23	3.4
2025-08-04T12:00	8120	370	-23.6	-32.9	349	23	3.4
2025-08-04T12:00	8140	369	-23.8	-32.2	349	23	3.4
2025-08-04T12:00	8160	368	-24.0	-31.7	350	23	3.4
2025-08-04T12:00	8180	367	-24.1	-31.5	351	23	3.4
2025-08-04T12:00	8200	366	-24.2	-31.3	352	23	3.4
2025-08-04T12:00	8220	365	-24.4	-31.1	352	23	3.4
2025-08-04T12:00	8240	364	-24.7	-30.9	352	23	3.4
2025-08-04T12:00	8260	363	-24.8	-30.9	352	23	3.4
2025-08-04T12:00	8280	362	-24.9	-31.0	352	23	3.4
2025-08-04T12:00	8300	361	-25.1	-31.2	352	23	3.4
2025-08-04T12:00	8320	360	-25.2	-31.4	352	23	3.4
2025-08-04T12:00	8340	359	-25.4	-31.7	352	23	3.4
2025-08-04T12:00	8360	358	-25.6	-31.9	352	24	3.4
2025-08-04T12:00	8380	357	-25.7	-32.3	352	24	3.4
2025-08-04T12:00	8400	356	-25.8	-32.8	352	24	3.4
2025-08-04T12:00	8420	355	-26.0	-32.7	352	24	3.4
2025-08-04T12:00	8440	354	-26.1	-32.9	352	24	3.4
2025-08-04T12:00	8460	353	-26.2	-33.5	352	25	3.3
2025-08-04T12:00	8480	352	-26.3	-33.9	352	25	3.3
2025-08-04T12:00	8500	351	-26.4	-33.7	352	25	3.3
2025-08-04T12:00	8520	350	-26.6	-33.1	352	25	3.3
2025-08-04T12:00	8540	349	-26.8	-32.9	351	26	3.3
2025-08-04T12:00	8560	348	-27.0	-33.1	351	26	3.3
2025-08-04T12:00	8580	347	-27.2	-33.1	351	26	3.3
2025-08-04T12:00	8600	346	-27.4	-32.8	351	26	3.3
2025-08-04T12:00	8620	345	-27.6	-32.9	350	26	3.3
2025-08-04T12:00	8640	344	-27.8	-33.0	350	26	3.2
2025-08-04T12:00	8660	343	-28.0	-33.0	350	26	3.2
2025-08-04T12:00	8680	342	-28.2	-33.0	349	27	3.2
2025-08-04T12:00	8700	341	-28.4	-33.0	349	27	3.2
2025-08-04T12:00	8720	341	-28.5	-33.0	349	27	3.2
2025-08-04T12:00	8740	340	-28.7	-32.9	348	27	3.2
2025-08-04T12:00	8760	339	-28.8	-32.9	348	27	3.2
2025-08-04T12:00	8780	338	-28.9	-32.7	347	27	3.2
2025-08-04T12:00	8800	337	-29.0	-32.6	346	27	3.2
2025-08-04T12:00	8820	336	-29.2	-32.8	346	27	3.2
2025-08-04T12:00	8840	335	-29.3	-32.8	345	27	3.2
2025-08-04T12:00	8860	334	-29.5	-32.9	345	27	3.1
2025-08-04T12:00	8880	333	-29.6	-33.0	345	27	3.1
2025-08-04T12:00	8900	332	-29.7	-33.1	346	27	3.1
2025-08-04T12:00	8920	331	-29.9	-33.2	346	27	3.1
2025-08-04T12:00	8940	330	-30.0	-33.3	347	27	3.1
2025-08-04T12:00	8960	329	-30.2	-33.6	347	27	3.1
2025-08-04T12:00	8980	328	-30.3	-33.8	347	27	3.1
2025-08-04T12:00	9000	327	-30.5	-33.9	348	27	3.1
2025-08-04T12:00	9020	326	-30.7	-33.9	348	27	3.1
2025-08-04T12:00	9040	326	-30.8	-34.2	348	27	3.1
2025-08-04T12:00	9060	325	-30.9	-34.4	348	27	3.1
2025-08-04T12:00	9080	324	-31.1	-34.4	348	27	3.1
2025-08-04T12:00	9100	323	-31.2	-34.5	348	27	3.1
2025-08-04T12:00	9120	322	-31.3	-34.7	348	27	3.1
2025-08-04T12:00	9140	321	-31.4	-35.1	348	27	3.0
2025-08-04T12:00	9160	320	-31.6	-35.1	348	27	3.0
2025-08-04T12:00	9180	319	-31.8	-35.2	348	28	3.0
2025-08-04T12:00	9200	318	-32.0	-35.4	348	28	3.0
2025-08-04T12:00	9220	317	-32.1	-35.5	348	28	3.0
2025-08-04T12:00	9240	316	-32.3	-35.7	348	28	3.0
2025-08-04T12:00	9260	315	-32.4	-35.9	348	28	3.0
2025-08-04T12:00	9280	315	-32.6	-36.0	348	28	2.9
2025-08-04T12:00	9300	314	-32.7	-36.2	348	28	2.9
2025-08-04T12:00	9320	313	-32.9	-36.4	348	28	2.9
2025-08-04T12:00	9340	312	-33.0	-36.6	348	28	2.9
2025-08-04T12:00	9360	311	-33.2	-36.7	347	28	2.8
2025-08-04T12:00	9380	310	-33.3	-36.7	347	29	2.8
2025-08-04T12:00	9400	309	-33.5	-36.9	346	29	2.8
2025-08-04T12:00	9420	308	-33.6	-37.1	346	29	2.8
2025-08-04T12:00	9440	308	-33.7	-37.2	345	30	2.8
2025-08-04T12:00	9460	307	-33.7	-37.3	344	30	2.8
2025-08-04T12:00	9480	306	-33.8	-37.4	344	30	2.8
2025-08-04T12:00	9500	305	-33.9	-37.5	343	30	2.8
2025-08-04T12:00	9520	304	-34.1	-37.5	343	31	2.8
2025-08-04T12:00	9540	303	-34.2	-37.6	342	31	2.7
2025-08-04T12:00	9560	302	-34.4	-37.7	341	31	2.7
2025-08-04T12:00	9580	301	-34.6	-37.8	341	31	2.7
2025-08-04T12:00	9600	301	-34.8	-37.9	340	31	2.6
2025-08-04T12:00	9620	300	-35.0	-38.1	340	31	2.6
2025-08-04T12:00	9640	299	-35.2	-38.4	340	31	2.6
2025-08-04T12:00	9660	298	-35.3	-38.6	339	31	2.6
2025-08-04T12:00	9680	297	-35.5	-38.7	339	31	2.6
2025-08-04T12:00	9700	296	-35.6	-39.0	339	31	2.5
2025-08-04T12:00	9720	296	-35.7	-39.5	338	31	2.4
2025-08-04T12:00	9740	295	-35.9	-39.5	338	31	2.3
2025-08-04T12:00	9760	294	-36.0	-39.6	338	31	2.3
2025-08-04T12:00	9780	293	-36.1	-39.8	338	31	2.2
2025-08-04T12:00	9800	292	-36.3	-40.0	338	31	2.2
2025-08-04T12:00	9820	291	-36.5	-40.3	338	31	2.2
2025-08-04T12:00	9840	290	-36.7	-40.2	338	31	2.2
2025-08-04T12:00	9860	289	-36.9	-40.3	338	31	2.2
2025-08-04T12:00	9880	289	-37.0	-40.5	338	32	2.2
2025-08-04T12:00	9900	288	-37.2	-40.7	338	32	2.2
2025-08-04T12:00	9920	287	-37.4	-40.5	338	32	2.2
2025-08-04T12:00	9940	286	-37.5	-40.3	338	32	2.2
2025-08-04T12:00	9960	285	-37.7	-40.6	338	32	2.1
2025-08-04T12:00	9980	285	-37.9	-41.1	338	32	2.1
2025-08-04T12:00	10000	284	-38.0	-41.4	338	32	2.1
2025-08-04T12:00	10018	283	-38.2	-41.4	338	32	2.1
2025-08-04T12:00	10050	282	-38.5	-41.6	338	32	2.1
2025-08-04T12:00	10100	280	-38.9	-42.1	339	32	2.1
2025-08-04T12:00	10150	278	-39.4	-42.6	339	32	2.1
2025-08-04T12:00	10200	276	-39.8	-43.4	340	32	2.1
2025-08-04T12:00	10250	274	-40.3	-43.9	340	32	2.1
2025-08-04T12:00	10300	272	-40.7	-44.7	340	31	2.1
2025-08-04T12:00	10350	270	-41.1	-45.0	340	31	2.1
2025-08-04T12:00	10400	268	-41.5	-45.4	341	31	2.1
2025-08-04T12:00	10450	266	-41.9	-45.7	342	31	2.1
2025-08-04T12:00	10500	264	-42.3	-46.2	344	31	2.1
2025-08-04T12:00	10550	262	-42.8	-46.5	346	31	2.1
2025-08-04T12:00	10600	260	-43.0	-47.3	348	31	2.2
2025-08-04T12:00	10650	258	-43.3	-47.4	350	32	2.3
2025-08-04T12:00	10700	256	-43.6	-47.8	352	33	2.3
2025-08-04T12:00	10750	254	-43.8	-48.4	353	34	2.3
2025-08-04T12:00	10800	252	-44.2	-48.6	353	35	2.3
2025-08-04T12:00	10850	250	-44.5	-48.7	354	36	2.3
2025-08-04T12:00	10900	249	-44.8	-48.9	353	37	2.3
2025-08-04T12:00	10950	247	-45.0	-49.3	353	38	2.2
2025-08-04T12:00	11000	245	-45.2	-49.5	352	39	2.1
2025-08-04T12:00	11050	243	-45.5	-49.7	352	39	2.1
2025-08-04T12:00	11100	241	-46.0	-50.0	352	39	2.1
2025-08-04T12:00	11150	239	-46.5	-50.3	351	39	2.1
2025-08-04T12:00	11200	237	-46.9	-50.8	351	40	2.0
2025-08-04T12:00	11250	236	-47.3	-51.2	351	40	2.0
2025-08-04T12:00	11300	234	-47.8	-51.7	350	40	2.0
2025-08-04T12:00	11350	232	-48.2	-52.3	350	40	2.0
2025-08-04T12:00	11400	230	-48.7	-52.8	351	41	2.0
2025-08-04T12:00	11450	229	-49.1	-53.4	352	41	2.0
2025-08-04T12:00	11500	227	-49.6	-53.7	352	41	2.0
2025-08-04T12:00	11550	225	-50.0	-54.2	353	41	2.0
2025-08-04T12:00	11600	223	-50.5	-54.8	354	41	1.9
2025-08-04T12:00	11650	222	-51.0	-55.0	354	41	1.9
2025-08-04T12:00	11700	220	-51.2	-55.7	355	42	1.9
2025-08-04T12:00	11750	218	-51.4	-57.6	357	42	1.9
2025-08-04T12:00	11800	217	-51.7	-56.5	358	42	2.0
2025-08-04T12:00	11850	215	-52.0	-55.6	358	42	2.0
2025-08-04T12:00	11900	213	-52.4	-56.0	358	41	2.1
2025-08-04T12:00	11950	212	-52.7	-57.6	357	42	2.1
2025-08-04T12:00	12000	210	-53.0	-60.1	357	42	2.1
2025-08-04T12:00	12050	209	-53.3	-59.7	357	42	2.1
2025-08-04T12:00	12100	207	-53.6	-60.3	357	42	2.0
2025-08-04T12:00	12150	205	-53.8	-61.5	358	42	1.9
2025-08-04T12:00	12200	204	-54.0	-62.0	358	42	1.9
2025-08-04T12:00	12250	202	-54.1	-62.4	359	43	1.9
2025-08-04T12:00	12300	200	-54.5	-62.4	359	44	1.9
2025-08-04T12:00	12350	199	-54.7	-62.9	359	44	1.9
2025-08-04T12:00	12400	197	-55.0	-63.6	360	45	1.9
2025-08-04T12:00	12450	196	-55.3	-64.0	1	45	1.9
2025-08-04T12:00	12500	194	-55.6	-64.1	1	45	1.9
2025-08-04T12:00	12550	193	-56.0	-64.2	2	45	1.9
2025-08-04T12:00	12600	191	-56.3	-64.4	3	43	2.0
2025-08-04T12:00	12650	190	-56.6	-64.9	4	42	2.0
2025-08-04T12:00	12700	188	-56.6	-65.8	6	41	2.0
2025-08-04T12:00	12750	187	-56.7	-66.6	7	40	1.9
2025-08-04T12:00	12800	185	-57.0	-66.8	7	40	1.9
2025-08-04T12:00	12850	184	-57.4	-66.8	7	39	1.9
2025-08-04T12:00	12900	182	-57.8	-66.8	6	39	1.9
2025-08-04T12:00	12950	181	-58.3	-66.7	6	38	1.9
2025-08-04T12:00	13000	180	-58.7	-66.7	6	38	2.0
2025-08-04T12:00	13050	178	-59.1	-66.6	6	37	2.0
2025-08-04T12:00	13100	177	-59.6	-66.5	5	37	2.1
2025-08-04T12:00	13150	175	-60.0	-66.5	4	37	2.1
2025-08-04T12:00	13200	174	-60.4	-66.7	4	36	2.1
2025-08-04T12:00	13250	173	-60.9	-66.8	3	36	2.2
2025-08-04T12:00	13300	171	-61.2	-66.9	1	36	2.2
2025-08-04T12:00	13350	170	-61.7	-67.3	359	35	2.2
2025-08-04T12:00	13400	168	-61.6	-67.8	357	35	2.3
2025-08-04T12:00	13450	167	-61.5	-68.7	355	35	2.4
2025-08-04T12:00	13500	166	-61.2	-69.7	354	35	2.4
2025-08-04T12:00	13550	164	-61.3	-70.9	353	35	2.5
2025-08-04T12:00	13600	163	-61.1	-72.6	353	35	2.5
2025-08-04T12:00	13650	162	-60.4	-74.6	354	35	2.5
2025-08-04T12:00	13700	160	-60.2	-76.9	354	34	2.4
2025-08-04T12:00	13750	159	-59.7	-77.6	355	32	2.3
2025-08-04T12:00	13800	158	-59.3	-78.4	358	31	2.4
2025-08-04T12:00	13850	157	-58.6	-79.2	360	29	2.5
2025-08-04T12:00	13900	155	-57.0	-79.3	3	27	2.7
2025-08-04T12:00	13950	154	-56.9	-79.9	5	26	2.9
2025-08-04T12:00	14000	153	-57.0	-79.4	6	24	3.0
2025-08-04T12:00	14050	152	-57.2	-79.1	8	23	3.1
2025-08-04T12:00	14100	150	-57.3	-78.9	8	22	3.2
2025-08-04T12:00	14150	149	-57.7	-79.0	8	22	3.2
2025-08-04T12:00	14200	148	-58.0	-79.0	8	21	3.2
2025-08-04T12:00	14250	147	-58.4	-79.1	8	20	3.2
2025-08-04T12:00	14300	146	-58.7	-79.1	6	19	3.2
2025-08-04T12:00	14350	145	-59.0	-79.2	3	18	3.2
2025-08-04T12:00	14400	144	-59.2	-79.2	359	17	3.2
2025-08-04T12:00	14450	142	-59.6	-79.4	354	17	3.2
2025-08-04T12:00	14500	141	-59.7	-79.8	349	17	3.2
2025-08-04T12:00	14550	140	-59.8	-80.4	346	18	3.2
2025-08-04T12:00	14600	139	-59.6	-80.9	343	18	3.3
2025-08-04T12:00	14650	138	-59.4	-81.2	341	19	3.3
2025-08-04T12:00	14700	137	-59.2	-81.5	340	21	3.4
2025-08-04T12:00	14750	136	-58.7	-81.7	340	22	3.4
2025-08-04T12:00	14800	135	-58.7	-82.0	341	23	3.5
2025-08-04T12:00	14850	134	-58.6	-82.0	344	23	3.5
2025-08-04T12:00	14900	132	-58.6	-82.1	347	23	3.6
2025-08-04T12:00	14950	131	-58.5	-82.1	350	22	3.8
2025-08-04T12:00	15000	130	-58.5	-82.2	353	21	3.8
2025-08-04T12:00	15050	129	-58.8	-82.4	356	20	3.9
2025-08-04T12:00	15100	128	-59.0	-82.6	358	18	4.0
2025-08-04T12:00	15150	127	-59.2	-82.8	0	16	4.1
2025-08-04T12:00	15200	126	-59.2	-82.9	1	15	4.3
2025-08-04T12:00	15250	125	-59.3	-83.0	358	13	4.5
2025-08-04T12:00	15300	124	-59.4	-83.2	353	13	4.8
2025-08-04T12:00	15350	123	-59.6	-83.3	348	13	5.0
2025-08-04T12:00	15400	122	-59.8	-83.4	345	14	5.1
2025-08-04T12:00	15450	121	-60.0	-83.6	344	15	5.2
2025-08-04T12:00	15500	120	-59.8	-83.6	346	16	5.2
2025-08-04T12:00	15550	120	-59.4	-83.6	350	16	5.2
2025-08-04T12:00	15600	119	-58.5	-83.2	355	15	5.2
2025-08-04T12:00	15650	118	-58.4	-83.1	359	14	5.0
2025-08-04T12:00	15700	117	-58.5	-83.0	2	13	4.7
2025-08-04T12:00	15750	116	-58.8	-82.8	3	12	4.4
2025-08-04T12:00	15800	115	-59.3	-83.0	359	12	4.2
2025-08-04T12:00	15850	114	-59.6	-83.2	350	12	4.0
2025-08-04T12:00	15900	113	-59.4	-83.3	341	12	4.0
2025-08-04T12:00	15950	112	-59.0	-83.3	335	12	4.0
2025-08-04T12:00	16000	111	-58.6	-83.1	331	12	4.2
2025-08-04T12:00	16050	110	-58.4	-83.3	330	13	4.4
2025-08-04T12:00	16100	109	-58.2	-83.5	330	13	4.5
2025-08-04T12:00	16150	109	-58.0	-83.5	329	13	4.6
2025-08-04T12:00	16200	108	-57.7	-83.5	333	12	4.7
2025-08-04T12:00	16250	107	-57.3	-83.6	340	11	4.9
2025-08-04T12:00	16300	106	-56.7	-83.7	342	10	5.3
2025-08-04T12:00	16350	105	-56.3	-83.8	340	8	5.7
2025-08-04T12:00	16400	104	-55.9	-83.7	337	7	5.9
2025-08-04T12:00	16450	103	-56.2	-83.8	334	6	6.2
2025-08-04T12:00	16500	103	-56.3	-83.6	337	6	6.6
2025-08-04T12:00	16550	102	-56.3	-83.6	347	6	6.9
2025-08-04T12:00	16600	101	-56.6	-83.8	352	7	7.0
2025-08-04T12:00	16650	100	-57.1	-84.0	351	7	7.0
2025-08-04T12:00	16700	100	-57.5	-84.1	348	7	7.0
2025-08-04T12:00	16750	99	-57.7	-84.4	345	7	7.1
2025-08-04T12:00	16800	98	-57.4	-84.5	342	6	7.1
2025-08-04T12:00	16850	97	-57.1	-84.5	335	5	7.0
2025-08-04T12:00	16900	96	-57.0	-84.4	324	4	7.0
2025-08-04T12:00	16950	96	-57.2	-84.3	317	4	7.1
2025-08-04T12:00	17000	95	-57.4	-84.5	316	5	7.1
2025-08-04T12:00	17050	94	-57.6	-84.7	314	5	7.1
2025-08-04T12:00	17100	93	-57.1	-84.6	312	5	7.2
2025-08-04T12:00	17150	93	-56.9	-84.5	320	5	7.4
2025-08-04T12:00	17200	92	-56.9	-84.4	335	5	7.6
2025-08-04T12:00	17250	91	-57.2	-84.5	340	7	7.9
2025-08-04T12:00	17300	91	-57.1	-84.5	341	7	8.0
2025-08-04T12:00	17350	90	-56.9	-84.5	348	6	8.0
2025-08-04T12:00	17400	89	-56.7	-84.3	357	6	7.9
2025-08-04T12:00	17450	88	-56.9	-84.4	352	6	7.8
2025-08-04T12:00	17500	88	-56.6	-84.5	339	6	7.9
2025-08-04T12:00	17550	87	-56.0	-84.7	337	6	8.0
2025-08-04T12:00	17600	86	-55.7	-84.6	343	6	7.9
2025-08-04T12:00	17650	86	-55.5	-84.4	348	6	7.9
2025-08-04T12:00	17700	85	-55.4	-84.3	354	5	7.8
2025-08-04T12:00	17750	84	-55.8	-84.3	356	4	7.8
2025-08-04T12:00	17800	84	-56.2	-84.3	348	3	7.9
2025-08-04T12:00	17850	83	-56.5	-84.5	336	3	7.9
2025-08-04T12:00	17900	82	-56.5	-84.6	329	2	7.9
2025-08-04T12:00	17950	82	-56.6	-84.6	308	2	8.0
2025-08-04T12:00	18000	81	-56.9	-84.9	297	2	8.1
2025-08-04T12:00	18050	80	-57.4	-84.9	304	2	8.1
2025-08-04T12:00	18100	80	-57.9	-84.9	312	2	8.1
2025-08-04T12:00	18150	79	-58.2	-85.1	318	3	8.1
2025-08-04T12:00	18200	79	-58.1	-85.3	325	4	8.1
2025-08-04T12:00	18250	78	-57.9	-85.5	335	4	8.2
2025-08-04T12:00	18300	77	-57.6	-85.6	344	4	8.4
2025-08-04T12:00	18350	77	-57.4	-85.4	353	4	8.6
2025-08-04T12:00	18400	76	-57.2	-85.4	359	4	8.8
2025-08-04T12:00	18450	76	-57.1	-85.6	6	4	8.8
2025-08-04T12:00	18500	75	-57.0	-85.6	16	4	8.5
2025-08-04T12:00	18550	74	-56.9	-85.3	25	3	8.4
2025-08-04T12:00	18600	74	-56.7	-85.0	34	2	8.2
2025-08-04T12:00	18650	73	-56.9	-85.2	56	2	8.4
2025-08-04T12:00	18700	73	-57.0	-85.3	89	2	8.6
2025-08-04T12:00	18750	72	-57.1	-85.3	120	1	8.8
2025-08-04T12:00	18800	71	-57.3	-85.3	137	1	9.0
2025-08-04T12:00	18850	71	-57.6	-85.5	341	0	9.2
2025-08-04T12:00	18900	70	-57.8	-85.7	356	1	9.3
2025-08-04T12:00	18950	70	-57.9	-86.0	24	2	9.3
2025-08-04T12:00	19000	69	-57.8	-86.2	44	3	9.2
2025-08-04T12:00	19050	69	-57.5	-86.1	55	4	8.9
2025-08-04T12:00	19100	68	-57.6	-85.8	64	4	8.6
2025-08-04T12:00	19150	68	-57.9	-86.0	71	3	8.5
2025-08-04T12:00	19200	67	-58.0	-86.0	80	3	8.3
2025-08-04T12:00	19250	67	-58.0	-86.1	87	4	8.2
2025-08-04T12:00	19300	66	-58.1	-86.5	99	4	8.1
2025-08-04T12:00	19350	65	-58.0	-86.5	117	3	8.0
2025-08-04T12:00	19400	65	-58.0	-86.4	124	2	8.1
2025-08-04T12:00	19450	64	-57.9	-86.5	105	2	8.3
2025-08-04T12:00	19500	64	-57.6	-86.7	97	3	8.5
2025-08-04T12:00	19550	63	-57.2	-86.6	114	3	8.7
2025-08-04T12:00	19600	63	-57.1	-86.2	142	3	8.9
2025-08-04T12:00	19650	62	-57.4	-86.1	165	2	8.9
2025-08-04T12:00	19700	62	-57.7	-86.5	183	2	8.9
2025-08-04T12:00	19750	61	-57.5	-86.6	191	2	8.9
2025-08-04T12:00	19800	61	-57.0	-86.4	144	1	8.8
2025-08-04T12:00	19850	60	-56.5	-86.3	91	1	8.7
2025-08-04T12:00	19900	60	-56.1	-86.5	91	1	8.6
2025-08-04T12:00	19950	60	-55.9	-86.4	129	1	8.7
2025-08-04T12:00	20000	59	-55.8	-86.4	154	0	8.9
2025-08-04T12:00	20050	59	-55.6		28	1	9.2
2025-08-04T12:00	20100	58	-55.5		54	2	9.3
2025-08-04T12:00	20150	58	-55.5		73	4	9.4
2025-08-04T12:00	20200	57	-55.2		89	5	9.4
2025-08-04T12:00	20250	57	-55.3		105	7	9.6
2025-08-04T12:00	20300	56	-55.3		117	7	9.8
2025-08-04T12:00	20350	56	-55.6		124	8	10.0
2025-08-04T12:00	20400	55	-55.7		127	7	10.2
2025-08-04T12:00	20450	55	-55.7		128	6	10.5
2025-08-04T12:00	20500	55	-55.9		128	6	10.7
2025-08-04T12:00	20550	54	-56.1		131	5	10.8
2025-08-04T12:00	20600	54	-56.2		135	5	10.8
2025-08-04T12:00	20650	53	-56.2		136	5	10.9
2025-08-04T12:00	20700	53	-56.2		128	5	10.9
2025-08-04T12:00	20750	53	-56.0		121	6	10.9
2025-08-04T12:00	20800	52	-56.0		121	7	11.0
2025-08-04T12:00	20850	52	-55.3		124	6	11.0
2025-08-04T12:00	20900	51	-54.7		121	5	11.1
2025-08-04T12:00	20950	51	-53.8		116	5	11.3
2025-08-04T12:00	21000	50	-53.5		120	5	11.5
2025-08-04T12:00	21050	50	-53.6		124	4	11.7
2025-08-04T12:00	21100	50	-53.6		125	3	11.8
2025-08-04T12:00	21150	49	-53.4		134	3	12.0
2025-08-04T12:00	21200	49	-53.2		145	4	12.0
2025-08-04T12:00	21250	49	-53.2		156	4	12.1
2025-08-04T12:00	21300	48	-53.3		163	4	12.3
2025-08-04T12:00	21350	48	-53.4		158	4	12.5
2025-08-04T12:00	21400	47	-53.6		147	4	12.6
2025-08-04T12:00	21450	47	-53.6		133	4	12.5
2025-08-04T12:00	21500	47	-53.7		117	4	12.5
2025-08-04T12:00	21550	46	-54.0		110	5	12.5
2025-08-04T12:00	21600	46	-54.2		112	7	12.5
2025-08-04T12:00	21650	46	-54.2		117	8	12.4
2025-08-04T12:00	21700	45	-54.3		121	8	12.5
2025-08-04T12:00	21750	45	-54.1		127	8	12.5
2025-08-04T12:00	21800	45	-54.0		131	7	12.6
2025-08-04T12:00	21850	44	-53.8		136	6	12.7
2025-08-04T12:00	21900	44	-53.7		141	5	12.9
2025-08-04T12:00	21950	44	-53.3		144	5	13.0
2025-08-04T12:00	22000	43	-53.1		146	4	13.2
2025-08-04T12:00	22050	43	-53.2		143	3	13.3
2025-08-04T12:00	22100	43	-53.3		139	2	13.4
2025-08-04T12:00	22150	42	-53.4		133	2	13.4
2025-08-04T12:00	22200	42	-53.2		120	2	13.4
2025-08-04T12:00	22250	42	-52.9		108	2	13.4
2025-08-04T12:00	22300	41	-52.9		93	2	13.5
2025-08-04T12:00	22350	41	-53.0		70	2	13.5
2025-08-04T12:00	22400	41	-52.9		61	3	13.4
2025-08-04T12:00	22450	40	-53.0		59	4	13.4
2025-08-04T12:00	22500	40	-53.1		56	6	13.4
2025-08-04T12:00	22550	40	-53.3		57	7	13.3
2025-08-04T12:00	22600	39	-53.4		65	8	13.3
2025-08-04T12:00	22650	39	-53.5		75	9	13.4
2025-08-04T12:00	22700	39	-53.6		85	10	13.3
2025-08-04T12:00	22750	38	-53.7		96	10	13.4
2025-08-04T12:00	22800	38	-53.9		104	11	13.3
2025-08-04T12:00	22850	38	-54.0		111	12	13.3
2025-08-04T12:00	22900	38	-54.1		118	12	13.3
2025-08-04T12:00	22950	37	-54.2		123	11	13.3
2025-08-04T12:00	23000	37	-54.1		123	10	13.3
2025-08-04T12:00	23050	37	-54.0		115	9	13.3
2025-08-04T12:00	23100	36	-53.7		106	8	13.4
2025-08-04T12:00	23150	36	-53.1		108	8	13.4
2025-08-04T12:00	23200	36	-52.8		116	9	13.6
2025-08-04T12:00	23250	36	-52.7		120	9	13.7
2025-08-04T12:00	23300	35	-52.6		121	9	13.8
2025-08-04T12:00	23350	35	-52.5		119	7	13.8
2025-08-04T12:00	23400	35	-52.4		111	6	13.8
2025-08-04T12:00	23450	34	-52.3		97	6	13.8
2025-08-04T12:00	23500	34	-52.1		87	7	13.8
2025-08-04T12:00	23550	34	-52.0		85	8	13.8
2025-08-04T12:00	23600	34	-52.3		86	9	13.8
2025-08-04T12:00	23650	33	-52.5		88	10	13.8
2025-08-04T12:00	23700	33	-52.4		92	10	13.8
2025-08-04T12:00	23750	33	-52.4		97	10	13.7
2025-08-04T12:00	23800	33	-52.5		100	9	13.8
2025-08-04T12:00	23850	32	-52.5		97	8	13.7
2025-08-04T12:00	23900	32	-52.4		92	8	13.7
2025-08-04T12:00	23950	32	-52.5		89	8	13.7
2025-08-04T12:00	24000	32	-52.6		90	7	13.7
2025-08-04T12:00	24050	31	-52.6		94	7	13.7
2025-08-04T12:00	24100	31	-52.7		101	7	13.6
2025-08-04T12:00	24150	31	-52.7		112	6	13.5
2025-08-04T12:00	24200	31	-52.6		118	6	13.5
2025-08-04T12:00	24250	30	-52.4		112	5	13.5
2025-08-04T12:00	24300	30	-51.9		95	5	13.5
2025-08-04T12:00	24350	30	-51.5		79	6	13.6
2025-08-04T12:00	24400	30	-51.4		71	7	13.6
2025-08-04T12:00	24450	30	-51.4		70	9	13.6
2025-08-04T12:00	24500	29	-51.2		74	10	13.6
2025-08-04T12:00	24550	29	-51.0		81	11	13.6
2025-08-04T12:00	24600	29	-51.0		87	11	13.6
2025-08-04T12:00	24650	29	-50.9		91	11	13.5
2025-08-04T12:00	24700	28	-50.9		95	11	13.5
2025-08-04T12:00	24750	28	-50.7		98	11	13.4
2025-08-04T12:00	24800	28	-50.4		100	11	13.3
2025-08-04T12:00	24850	28	-49.9		103	10	13.3
2025-08-04T12:00	24900	28	-49.9		109	10	13.4
2025-08-04T12:00	24950	27	-50.1		118	10	13.4
2025-08-04T12:00	25000	27	-50.2		123	10	13.3
2025-08-04T12:00	25050	27	-50.2		125	9	13.3
2025-08-04T12:00	25100	27	-50.3		126	8	13.2
2025-08-04T12:00	25150	27	-50.5		126	7	13.2
2025-08-04T12:00	25200	26	-50.6		127	7	13.1
2025-08-04T12:00	25250	26	-50.6		125	6	13.1
2025-08-04T12:00	25300	26	-50.4		114	6	13.1
2025-08-04T12:00	25350	26	-50.1		104	5	13.1
2025-08-04T12:00	25400	26	-49.7		98	6	13.0
2025-08-04T12:00	25450	25	-49.7		93	7	13.0
2025-08-04T12:00	25500	25	-49.7		92	8	13.1
2025-08-04T12:00	25550	25	-49.7		94	9	13.1
2025-08-04T12:00	25600	25	-49.3		97	11	13.1
2025-08-04T12:00	25650	25	-49.1		100	11	13.0
2025-08-04T12:00	25700	24	-48.8		103	11	13.0
2025-08-04T12:00	25750	24	-48.7		107	10	12.9
2025-08-04T12:00	25800	24	-48.6		111	8	12.9
2025-08-04T12:00	25850	24	-48.6		111	7	12.9
2025-08-04T12:00	25900	24	-48.6		107	7	12.8
2025-08-04T12:00	25950	23	-48.3		99	8	12.8
2025-08-04T12:00	26000	23	-47.9		93	9	12.7
2025-08-04T12:00	26050	23	-47.8		90	9	12.6
2025-08-04T12:00	26100	23	-47.8		93	9	12.5
2025-08-04T12:00	26150	23	-48.0		100	9	12.4
2025-08-04T12:00	26200	23	-48.2		105	9	12.2
2025-08-04T12:00	26250	22	-48.3		105	9	12.1
2025-08-04T12:00	26300	22	-48.0		99	8	12.0
2025-08-04T12:00	26350	22	-47.7		91	7	12.0
2025-08-04T12:00	26400	22	-47.6		83	6	12.1
2025-08-04T12:00	26450	22	-47.6		74	6	12.2
2025-08-04T12:00	26500	22	-47.2		70	8	12.2
2025-08-04T12:00	26550	21	-46.8		71	9	12.3
2025-08-04T12:00	26600	21	-46.9		73	11	12.3
2025-08-04T12:00	26650	21	-46.7		74	13	12.3
2025-08-04T12:00	26700	21	-46.6		76	13	12.3
2025-08-04T12:00	26750	21	-46.5		79	12	12.2
2025-08-04T12:00	26800	21	-46.6		82	11	12.2
2025-08-04T12:00	26850	20	-46.8		82	10	12.3
2025-08-04T12:00	26900	20	-46.7		80	9	12.4
2025-08-04T12:00	26950	20	-46.7		78	10	12.4
2025-08-04T12:00	27000	20	-46.5		78	11	12.5
2025-08-04T12:00	27050	20	-46.1		80	13	12.6
2025-08-04T12:00	27100	20	-45.8		82	15	12.7
2025-08-04T12:00	27150	20	-45.7		85	17	12.6
2025-08-04T12:00	27200	19	-45.7		87	17	12.6
2025-08-04T12:00	27250	19	-45.6		89	16	12.4
2025-08-04T12:00	27300	19	-45.5		89	14	12.4
2025-08-04T12:00	27350	19	-45.7		87	13	12.4
2025-08-04T12:00	27400	19	-46.0		86	12	12.3
2025-08-04T12:00	27450	19	-46.3		86	11	12.3
2025-08-04T12:00	27500	19	-46.5		85	10	12.2
2025-08-04T12:00	27550	18	-46.5		82	9	12.1
2025-08-04T12:00	27600	18	-46.3		76	9	12.1
2025-08-04T12:00	27650	18	-46.3		74	10	12.0
2025-08-04T12:00	27700	18	-46.2		77	11	12.0
2025-08-04T12:00	27750	18	-46.2		81	13	12.0
2025-08-04T12:00	27800	18	-46.2		85	14	11.9
2025-08-04T12:00	27850	18	-46.5		89	15	11.8
2025-08-04T12:00	27900	18	-46.8		93	15	11.7
2025-08-04T12:00	27950	17	-47.1		98	16	11.6
2025-08-04T12:00	28000	17	-47.3		102	17	11.5
2025-08-04T12:00	28050	17	-47.3		106	17	11.4
2025-08-04T12:00	28100	17	-47.4		111	17	11.3
2025-08-04T12:00	28150	17	-47.5		113	16	11.3
2025-08-04T12:00	28200	17	-47.3		114	15	11.2
2025-08-04T12:00	28250	17	-47.0		113	13	11.2
2025-08-04T12:00	28300	16	-46.9		114	13	11.1
2025-08-04T12:00	28350	16	-46.9		115	13	11.1
2025-08-04T12:00	28400	16	-46.9		116	14	10.9
2025-08-04T12:00	28450	16	-46.8		119	15	10.8
2025-08-04T12:00	28500	16	-46.7		122	15	10.7
2025-08-04T12:00	28550	16	-46.5		124	15	10.7
2025-08-04T12:00	28600	16	-46.3		124	14	10.6
2025-08-04T12:00	28650	16	-46.0		124	13	10.5
2025-08-04T12:00	28700	16	-45.9		123	13	10.5
2025-08-04T12:00	28750	15	-46.1		124	13	10.5
2025-08-04T12:00	28800	15	-46.0		126	13	10.5
2025-08-04T12:00	28850	15	-46.0		128	13	10.4
2025-08-04T12:00	28900	15	-45.9		129	11	10.6
2025-08-04T12:00	28950	15	-45.4		127	9	10.5
2025-08-04T12:00	29000	15	-45.4		124	8	10.5
2025-08-04T12:00	29050	15	-45.5		120	7	10.4
2025-08-04T12:00	29100	15	-45.6		116	6	10.2
2025-08-04T12:00	29150	14	-45.6		113	7	10.2
2025-08-04T12:00	29200	14	-45.7		112	7	10.3
2025-08-04T12:00	29250	14	-45.7		114	9	10.3
2025-08-04T12:00	29300	14	-45.6		119	10	10.1
2025-08-04T12:00	29350	14	-45.6		124	11	10.1
2025-08-04T12:00	29400	14	-45.5		128	12	10.0
2025-08-04T12:00	29450	14	-45.4		128	12	9.9
2025-08-04T12:00	29500	14	-45.1		126	11	9.8
2025-08-04T12:00	29550	14	-45.0		121	10	9.8
2025-08-04T12:00	29600	14	-44.8		114	10	9.7
2025-08-04T12:00	29650	13	-44.6		108	10	9.7
2025-08-04T12:00	29700	13	-44.6		107	10	9.7
2025-08-04T12:00	29750	13	-44.5		109	10	9.5
2025-08-04T12:00	29800	13	-44.3		113	10	9.5
2025-08-04T12:00	29850	13	-43.8		114	10	9.4
2025-08-04T12:00	29900	13	-43.4		112	10	9.3
2025-08-04T12:00	29950	13	-43.0		110	10	9.3
2025-08-04T12:00	30000	13	-42.8		112	10	9.3
2025-08-04T12:00	30050	13	-42.8		117	9	9.4
2025-08-04T12:00	30100	13	-43.0		123	9	9.3
2025-08-04T12:00	30150	12	-43.3		130	8	9.3
2025-08-04T12:00	30200	12	-43.6		137	8	9.1
2025-08-04T12:00	30250	12	-43.9		141	8	8.9
2025-08-04T12:00	30300	12	-44.0		141	8	8.9
2025-08-04T12:00	30350	12	-43.9		140	7	8.8
2025-08-04T12:00	30400	12	-43.8		138	7	8.8
2025-08-04T12:00	30450	12	-43.6		137	6	8.8
2025-08-04T12:00	30500	12	-43.3		138	6	8.6
2025-08-04T12:00	30550	12	-43.0		139	6	8.7
2025-08-04T12:00	30600	12	-42.7		136	5	8.7
2025-08-04T12:00	30650	12	-42.7		129	5	8.5
2025-08-04T12:00	30700	12	-42.6		120	5	8.5
2025-08-04T12:00	30750	11	-42.5		112	5	8.5
2025-08-04T12:00	30800	11	-42.4		105	5	8.4
2025-08-04T12:00	30850	11	-42.2		100	6	8.3
2025-08-04T12:00	30900	11	-42.1		97	7	8.2
2025-08-04T12:00	30950	11	-42.1		96	8	8.2
2025-08-04T12:00	31000	11	-41.9		96	8	8.1
2025-08-04T12:00	31050	11	-42.0		99	8	8.1
2025-08-04T12:00	31100	11	-42.1		106	8	8.0
2025-08-04T12:00	31150	11	-42.1		115	8	8.0
2025-08-04T12:00	31200	11	-42.0		120	8	8.0
2025-08-04T12:00	31250	11	-41.8		120	7	7.9
2025-08-04T12:00	31300	11	-41.6		113	7	7.9
2025-08-04T12:00	31350	10	-41.2		104	7	7.8
2025-08-04T12:00	31400	10	-41.2		96	8	7.8
2025-08-04T12:00	31450	10	-41.2		90	10	7.7
2025-08-04T12:00	31500	10	-41.1		87	12	7.7
2025-08-04T12:00	31550	10	-40.8		84	13	7.6
2025-08-04T12:00	31600	10	-40.5		81	13	7.5
2025-08-04T12:00	31650	10	-40.4		78	12	7.4
2025-08-04T12:00	31700	10	-40.7		75	12	7.4
2025-08-04T12:00	31750	10	-41.0		70	12	7.3
2025-08-04T12:00	31800	10	-41.1		66	13	7.3
2025-08-04T12:00	31850	10	-40.7		63	14	7.3
2025-08-04T12:00	31900	10	-40.4		63	14	7.2
2025-08-04T12:00	31950	10	-40.5		65	13	7.1
2025-08-04T12:00	32000	9	-40.5		67	13	7.2
2025-08-04T12:00	32050	9	-40.5		67	13	7.2
2025-08-04T12:00	32100	9	-40.4		65	13	7.2
2025-08-04T12:00	32150	9	-40.3		65	15	7.1
2025-08-04T12:00	32200	9	-40.2		67	16	7.0
2025-08-04T12:00	32250	9	-40.2		70	18	7.1
2025-08-04T12:00	32300	9	-40.2		75	19	7.0
2025-08-04T12:00	32350	9	-40.3		79	20	6.9
2025-08-04T12:00	32400	9	-40.4		83	21	6.9
2025-08-04T12:00	32450	9	-40.3		87	21	6.8
2025-08-04T12:00	32500	9	-40.0		90	21	6.7
2025-08-04T12:00	32550	9	-39.9		93	21	6.7
2025-08-04T12:00	32600	9	-39.6		93	20	6.6
2025-08-04T12:00	32650	9	-39.5		92	20	6.5
2025-08-04T12:00	32700	9	-39.5		90	19	6.5
2025-08-04T12:00	32750	9	-39.1		90	20	6.5
2025-08-04T12:00	32800	8	-38.7		92	20	6.4
2025-08-04T12:00	32850	8	-38.3		95	21	6.4
2025-08-04T12:00	32900	8	-37.9		97	21	6.4
2025-08-04T12:00	32950	8	-37.7		97	21	6.3
2025-08-04T12:00	33000	8	-37.4		96	20	6.2
2025-08-04T12:00	33050	8	-37.3		95	19	6.2
2025-08-04T12:00	33100	8	-37.1		94	20	6.1
2025-08-04T12:00	33150	8	-36.9		96	21	6.1
2025-08-04T12:00	33200	8	-36.8		98	22	6.0
2025-08-04T12:00	33250	8	-36.5		98	22	5.9
2025-08-04T12:00	33300	8	-36.2		96	21	5.8
2025-08-04T12:00	33350	8	-36.2		94	19	5.8
2025-08-04T12:00	33400	8	-36.4		92	18	5.7
2025-08-04T12:00	33450	8	-36.5		90	18	5.6
2025-08-04T12:00	33500	8	-36.5		87	17	5.6
2025-08-04T12:00	33550	8	-36.4		84	17	5.5
2025-08-04T12:00	33600	8	-36.1		81	16	5.5
2025-08-04T12:00	33650	7	-36.0		80	17	5.4
2025-08-04T12:00	33700	7	-35.8		81	17	5.4
2025-08-04T12:00	33750	7	-35.5		83	18	5.3
2025-08-04T12:00	33800	7	-35.6		88	18	5.3
2025-08-04T12:00	33850	7	-35.7		93	18	5.2
2025-08-04T12:00	33900	7	-35.8		98	19	5.2
2025-08-04T12:00	33950	7	-35.7		103	19	5.1
2025-08-04T12:00	34000	7	-35.2		108	20	5.0
2025-08-04T12:00	34050	7	-34.9		113	21	5.0
2025-08-04T12:00	34100	7	-34.6		116	21	5.0
2025-08-04T12:00	34150	7	-34.4		117	20	
2025-08-04T12:00	34200	7	-34.2		116	18	
2025-08-04T12:00	34250	7	-34.1		112	17	
2025-08-04T12:00	34300	7	-33.9		107	16	
2025-08-04T12:00	34350	7	-33.4		101	15	
2025-08-04T12:00	34400	7	-32.9		99	15	
2025-08-04T12:00	34450	7	-32.3		101	16	
2025-08-04T12:00	34500	7	-32.0		103	16	
2025-08-04T12:00	34550	7	-31.8		105	16	
2025-08-04T12:00	34600	7	-31.7		106	17	
2025-08-04T12:00	34650	6	-31.9		107	16	
2025-08-04T12:00	34700	6	-32.1		105	15	
2025-08-04T12:00	34750	6	-32.1		102	15	
2025-08-04T12:00	34800	6	-32.1		98	14	
2025-08-04T12:00	34850	6	-32.1		92	15	
2025-08-04T12:00	34900	6	-32.1		89	15	
2025-08-04T12:00	34950	6	-31.8		88	16	
2025-08-04T12:00	35000	6	-31.5		89	16	
2025-08-05T00:00	491	964	16.8	13.3	196	2	
2025-08-05T00:00	501	962	17.4	13.3	199	2	
2025-08-05T00:00	520	961	18.1	13.2	203	2	
2025-08-05T00:00	540	958	18.9	12.6	208	3	
2025-08-05T00:00	560	956	20.0	12.1	215	3	
2025-08-05T00:00	580	954	20.2	12.2	223	3	
2025-08-05T00:00	600	951	20.2	12.7	232	3	
2025-08-05T00:00	620	949	20.1	12.9	241	3	
2025-08-05T00:00	640	947	20.0	13.0	246	3	
2025-08-05T00:00	660	945	20.1	12.7	244	3	
2025-08-05T00:00	680	943	20.1	12.3	238	3	
2025-08-05T00:00	700	940	20.3	11.4	231	3	
2025-08-05T00:00	720	938	20.6	11.1	224	3	
2025-08-05T00:00	740	936	21.1	11.5	219	3	
2025-08-05T00:00	760	934	21.2	11.7	216	3	
2025-08-05T00:00	780	932	21.2	11.7	215	2	
2025-08-05T00:00	800	930	21.2	11.5	217	2	
2025-08-05T00:00	820	928	21.1	10.7	220	2	
2025-08-05T00:00	840	925	21.0	10.2	224	2	
2025-08-05T00:00	860	923	20.9	10.0	228	2	
2025-08-05T00:00	880	921	20.8	10.1	233	2	
2025-08-05T00:00	900	919	20.6	10.1	236	2	
2025-08-05T00:00	920	917	20.5	9.8	237	2	
2025-08-05T00:00	940	915	20.4	9.7	237	2	
2025-08-05T00:00	960	913	20.3	9.7	236	2	
2025-08-05T00:00	980	911	20.2	9.5	233	2	
2025-08-05T00:00	1000	909	20.0	9.7	228	2	
2025-08-05T00:00	1020	906	19.8	10.2	222	2	
2025-08-05T00:00	1040	904	19.6	11.1	217	2	
2025-08-05T00:00	1060	902	19.4	11.1	215	2	
2025-08-05T00:00	1080	900	19.2	10.7	214	3	
2025-08-05T00:00	1100	898	19.1	10.3	215	3	
2025-08-05T00:00	1120	896	19.0	10.8	216	3	
2025-08-05T00:00	1140	894	18.9	10.7	217	3	
2025-08-05T00:00	1160	892	18.9	10.1	218	3	
2025-08-05T00:00	1180	890	18.8	9.8	219	3	
2025-08-05T00:00	1200	888	18.6	9.7	221	3	
2025-08-05T00:00	1220	886	18.5	9.5	223	3	
2025-08-05T00:00	1240	884	18.4	9.3	225	3	
2025-08-05T00:00	1260	882	18.3	9.3	226	3	
2025-08-05T00:00	1280	879	18.2	9.5	224	3	
2025-08-05T00:00	1300	877	18.2	8.9	221	3	
2025-08-05T00:00	1320	875	18.1	8.6	218	4	
2025-08-05T00:00	1340	874	18.1	8.2	213	4	
2025-08-05T00:00	1360	871	18.3	7.2	208	4	
2025-08-05T00:00	1380	869	18.8	5.9	204	4	
2025-08-05T00:00	1400	867	18.7	5.9	201	4	
2025-08-05T00:00	1420	865	18.8	5.6	198	4	
2025-08-05T00:00	1440	863	18.8	5.7	197	4	
2025-08-05T00:00	1460	861	18.7	5.8	197	4	
2025-08-05T00:00	1480	859	18.5	5.9	198	4	
2025-08-05T00:00	1500	857	18.3	5.9	201	4	
2025-08-05T00:00	1520	855	18.1	5.9	203	3	
2025-08-05T00:00	1540	853	18.0	5.9	208	3	
2025-08-05T00:00	1560	851	17.8	5.9	212	3	
2025-08-05T00:00	1580	849	17.6	5.8	218	3	
2025-08-05T00:00	1600	847	17.4	5.7	223	2	
2025-08-05T00:00	1620	845	17.3	5.6	228	2	
2025-08-05T00:00	1640	843	17.1	5.5	233	2	
2025-08-05T00:00	1660	841	16.9	5.4	238	2	
2025-08-05T00:00	1680	839	16.8	5.2	242	2	
2025-08-05T00:00	1700	837	16.6	5.0	246	2	
2025-08-05T00:00	1720	835	16.5	4.8	250	3	
2025-08-05T00:00	1740	833	16.3	4.6	253	3	
2025-08-05T00:00	1760	831	16.2	4.7	256	3	
2025-08-05T00:00	1780	830	16.0	4.6	259	3	
2025-08-05T00:00	1800	828	15.9	4.4	262	3	
2025-08-05T00:00	1820	826	15.7	4.3	265	3	
2025-08-05T00:00	1840	824	15.6	4.2	268	3	
2025-08-05T00:00	1860	822	15.5	4.0	269	3	
2025-08-05T00:00	1880	820	15.4	4.0	270	3	
2025-08-05T00:00	1900	818	15.3	4.1	269	3	
2025-08-05T00:00	1920	816	15.2	4.2	265	3	
2025-08-05T00:00	1940	814	15.0	4.1	259	3	
2025-08-05T00:00	1960	812	14.9	4.2	254	3	
2025-08-05T00:00	1980	810	14.8	4.2	251	3	
2025-08-05T00:00	2000	808	14.6	4.1	247	3	
2025-08-05T00:00	2020	806	14.5	4.1	243	4	
2025-08-05T00:00	2040	804	14.3	4.0	241	4	
2025-08-05T00:00	2060	802	14.1	3.9	238	4	
2025-08-05T00:00	2080	800	13.9	3.9	236	4	
2025-08-05T00:00	2100	799	13.8	3.9	235	4	
2025-08-05T00:00	2120	797	13.6	3.8	234	4	
2025-08-05T00:00	2140	795	13.4	3.7	234	3	
2025-08-05T00:00	2160	793	13.2	3.7	235	3	
2025-08-05T00:00	2180	791	13.1	3.6	238	3	
2025-08-05T00:00	2200	789	12.9	3.5	243	3	
2025-08-05T00:00	2220	787	12.7	3.4	249	3	
2025-08-05T00:00	2240	785	12.5	3.4	254	3	
2025-08-05T00:00	2260	784	12.3	3.2	257	3	
2025-08-05T00:00	2280	782	12.1	3.2	259	4	
2025-08-05T00:00	2300	780	12.0	3.1	261	5	
2025-08-05T00:00	2320	778	11.8	3.0	262	5	
2025-08-05T00:00	2340	776	11.7	2.9	263	5	
2025-08-05T00:00	2360	774	11.5	2.9	264	6	
2025-08-05T00:00	2380	773	11.3	3.0	266	6	
2025-08-05T00:00	2400	771	11.1	3.0	268	6	
2025-08-05T00:00	2420	769	11.0	3.1	271	6	
2025-08-05T00:00	2440	767	10.8	3.0	274	6	
2025-08-05T00:00	2460	765	10.7	3.0	278	6	
2025-08-05T00:00	2480	763	10.5	2.8	281	6	
2025-08-05T00:00	2500	762	10.4	2.3	284	6	
2025-08-05T00:00	2520	760	10.4	1.4	286	6	
2025-08-05T00:00	2540	758	10.3	1.1	287	6	
2025-08-05T00:00	2560	756	10.2	1.1	288	6	
2025-08-05T00:00	2580	754	10.0	0.9	290	6	
2025-08-05T00:00	2600	752	9.9	0.7	291	5	
2025-08-05T00:00	2620	751	9.8	0.6	292	5	
2025-08-05T00:00	2640	749	9.6	0.5	293	6	
2025-08-05T00:00	2660	747	9.5	0.5	292	6	
2025-08-05T00:00	2680	745	9.3	0.5	292	6	
2025-08-05T00:00	2700	743	9.1	0.4	291	7	
2025-08-05T00:00	2720	742	8.9	0.5	291	7	
2025-08-05T00:00	2740	740	8.8	0.5	291	7	
2025-08-05T00:00	2760	738	8.6	0.5	292	8	
2025-08-05T00:00	2780	736	8.4	0.4	293	8	
2025-08-05T00:00	2800	735	8.2	0.5	294	8	
2025-08-05T00:00	2820	733	8.1	0.5	295	8	
2025-08-05T00:00	2840	731	7.9	0.5	295	8	
2025-08-05T00:00	2860	729	7.7	0.3	295	8	
2025-08-05T00:00	2880	727	7.6	0.2	294	9	
2025-08-05T00:00	2900	725	7.4	0.0	293	9	
2025-08-05T00:00	2920	724	7.3	0.1	293	9	
2025-08-05T00:00	2940	722	7.1	0.1	292	10	
2025-08-05T00:00	2960	720	6.9	0.2	292	10	
2025-08-05T00:00	2980	718	6.8	0.2	292	9	
2025-08-05T00:00	3000	717	6.7	0.2	292	9	
2025-08-05T00:00	3020	715	6.5	0.0	291	9	
2025-08-05T00:00	3040	713	6.5	0.1	290	8	
2025-08-05T00:00	3060	712	6.5	-0.1	290	8	
2025-08-05T00:00	3080	710	6.4	-0.5	290	8	
2025-08-05T00:00	3100	708	6.3	-0.5	291	8	
2025-08-05T00:00	3120	706	6.2	-0.5	293	8	
2025-08-05T00:00	3140	705	6.0	-0.7	295	8	
2025-08-05T00:00	3160	703	5.8	-0.8	296	8	
2025-08-05T00:00	3180	701	5.7	-0.8	296	7	
2025-08-05T00:00	3200	700	5.6	-0.8	294	7	
2025-08-05T00:00	3220	698	5.4	-0.9	291	7	
2025-08-05T00:00	3240	696	5.4	-1.0	289	8	
2025-08-05T00:00	3260	694	5.3	-1.2	289	8	
2025-08-05T00:00	3280	693	5.2	-1.5	291	9	
2025-08-05T00:00	3300	691	5.1	-1.6	295	9	
2025-08-05T00:00	3320	689	5.1	-1.5	299	10	
2025-08-05T00:00	3340	688	5.0	-2.2	302	10	
2025-08-05T00:00	3360	686	5.0	-2.8	302	10	
2025-08-05T00:00	3380	684	4.9	-3.4	302	10	
2025-08-05T00:00	3400	683	4.9	-4.4	301	9	
2025-08-05T00:00	3420	681	4.7	-4.9	301	9	
2025-08-05T00:00	3440	679	4.6	-5.0	301	9	
2025-08-05T00:00	3460	678	4.5	-5.2	302	9	
2025-08-05T00:00	3480	676	4.4	-5.4	303	9	
2025-08-05T00:00	3500	674	4.3	-5.6	305	10	
2025-08-05T00:00	3520	673	4.3	-6.1	306	10	
2025-08-05T00:00	3540	671	4.2	-5.9	307	10	
2025-08-05T00:00	3560	669	4.1	-4.5	308	10	
2025-08-05T00:00	3580	668	4.0	-4.5	309	10	
2025-08-05T00:00	3600	666	3.9	-5.6	311	10	
2025-08-05T00:00	3620	664	3.9	-6.7	312	9	
2025-08-05T00:00	3640	663	3.8	-6.9	312	9	
2025-08-05T00:00	3660	661	3.8	-7.0	313	9	
2025-08-05T00:00	3680	659	3.6	-7.1	314	9	
2025-08-05T00:00	3700	658	3.5	-7.0	314	9	
2025-08-05T00:00	3720	656	3.3	-6.8	314	10	
2025-08-05T00:00	3740	655	3.1	-7.2	314	10	
2025-08-05T00:00	3760	653	3.0	-7.2	313	10	
2025-08-05T00:00	3780	651	2.8	-7.1	313	10	
2025-08-05T00:00	3800	650	2.7	-7.0	312	11	
2025-08-05T00:00	3820	648	2.5	-7.1	312	11	
2025-08-05T00:00	3840	647	2.4	-7.3	312	11	
2025-08-05T00:00	3860	645	2.3	-7.5	312	11	
2025-08-05T00:00	3880	643	2.1	-7.3	311	11	
2025-08-05T00:00	3900	642	2.0	-7.1	311	11	
2025-08-05T00:00	3920	640	1.9	-7.3	311	11	
2025-08-05T00:00	3940	639	1.8	-7.4	311	10	
2025-08-05T00:00	3960	637	1.6	-7.5	311	10	
2025-08-05T00:00	3980	636	1.4	-7.5	312	10	
2025-08-05T00:00	4000	634	1.3	-7.5	312	10	
2025-08-05T00:00	4020	632	1.1	-7.5	313	10	
2025-08-05T00:00	4040	631	1.0	-7.7	313	10	
2025-08-05T00:00	4060	629	0.9	-7.8	312	10	
2025-08-05T00:00	4080	628	0.7	-7.9	312	9	
2025-08-05T00:00	4100	626	0.6	-8.1	312	9	
2025-08-05T00:00	4120	625	0.5	-8.2	312	9	
2025-08-05T00:00	4140	623	0.4	-8.3	313	9	
2025-08-05T00:00	4160	621	0.2	-7.9	314	9	
2025-08-05T00:00	4180	620	0.0	-8.2	314	9	
2025-08-05T00:00	4200	618	-0.1	-8.5	313	9	
2025-08-05T00:00	4220	617	-0.3	-8.6	313	8	
2025-08-05T00:00	4240	615	-0.4	-8.6	313	8	
2025-08-05T00:00	4260	614	-0.5	-8.6	314	8	
2025-08-05T00:00	4280	612	-0.6	-8.3	314	8	
2025-08-05T00:00	4300	611	-0.6	-7.3	314	8	
2025-08-05T00:00	4320	609	-0.7	-6.9	315	8	
2025-08-05T00:00	4340	607	-0.7	-7.7	315	8	
2025-08-05T00:00	4360	606	-0.8	-8.3	316	9	
2025-08-05T00:00	4380	605	-0.9	-8.4	319	9	
2025-08-05T00:00	4400	603	-1.0	-7.8	323	9	
2025-08-05T00:00	4420	601	-1.0	-7.2	327	9	
2025-08-05T00:00	4440	600	-1.1	-6.8	330	9	
2025-08-05T00:00	4460	599	-1.0	-5.9	334	9	
2025-08-05T00:00	4480	597	-0.9	-4.5	336	9	
2025-08-05T00:00	4500	596	-0.8	-4.2	339	9	
2025-08-05T00:00	4520	594	-0.5	-3.4	340	9	
2025-08-05T00:00	4540	592	-0.2	-2.9	340	9	
2025-08-05T00:00	4560	591	-0.2	-2.9	341	9	
2025-08-05T00:00	4580	590	-0.3	-2.9	341	9	
2025-08-05T00:00	4600	588	-0.4	-3.0	342	9	
2025-08-05T00:00	4620	587	-0.5	-3.2	343	9	
2025-08-05T00:00	4640	585	-0.6	-3.1	343	9	
2025-08-05T00:00	4660	584	-0.7	-3.3	344	10	
2025-08-05T00:00	4680	582	-0.6	-3.5	344	10	
2025-08-05T00:00	4700	581	-0.5	-3.6	343	11	
2025-08-05T00:00	4720	580	-0.6	-3.7	342	12	
2025-08-05T00:00	4740	578	-0.8	-3.7	340	12	
2025-08-05T00:00	4760	576	-0.9	-3.7	339	13	
2025-08-05T00:00	4780	575	-1.0	-3.8	339	13	
2025-08-05T00:00	4800	574	-1.0	-4.0	339	13	
2025-08-05T00:00	4820	572	-1.0	-3.9	339	13	
2025-08-05T00:00	4840	571	-1.1	-4.1	340	13	
2025-08-05T00:00	4860	569	-1.2	-4.3	342	14	
2025-08-05T00:00	4880	568	-1.4	-4.4	344	14	
2025-08-05T00:00	4900	567	-1.6	-4.4	345	14	
2025-08-05T00:00	4920	565	-1.7	-4.5	346	13	
2025-08-05T00:00	4940	564	-1.9	-4.7	347	13	
2025-08-05T00:00	4960	562	-2.0	-4.7	347	13	
2025-08-05T00:00	4980	561	-2.2	-4.7	347	13	
2025-08-05T00:00	5000	559	-2.3	-4.9	346	12	
2025-08-05T00:00	5020	558	-2.4	-5.0	345	12	
2025-08-05T00:00	5040	557	-2.5	-5.1	343	12	
2025-08-05T00:00	5060	555	-2.6	-5.2	341	11	
2025-08-05T00:00	5080	554	-2.6	-5.3	338	11	
2025-08-05T00:00	5100	553	-2.7	-5.4	336	11	
2025-08-05T00:00	5120	551	-2.8	-5.6	334	10	
2025-08-05T00:00	5140	550	-2.9	-5.8	332	10	
2025-08-05T00:00	5160	548	-3.0	-5.8	330	10	
2025-08-05T00:00	5180	547	-3.1	-5.9	329	9	
2025-08-05T00:00	5200	546	-3.2	-5.9	328	9	
2025-08-05T00:00	5220	544	-3.3	-5.9	329	10	
2025-08-05T00:00	5240	543	-3.5	-5.8	330	10	
2025-08-05T00:00	5260	542	-3.6	-5.9	330	10	
2025-08-05T00:00	5280	540	-3.8	-6.1	331	10	
2025-08-05T00:00	5300	539	-3.9	-6.2	332	10	
2025-08-05T00:00	5320	537	-4.1	-6.3	331	10	
2025-08-05T00:00	5340	536	-4.1	-6.4	329	10	
2025-08-05T00:00	5360	535	-4.2	-6.5	325	9	
2025-08-05T00:00	5380	533	-4.2	-6.8	322	9	
2025-08-05T00:00	5400	532	-4.2	-7.3	318	10	
2025-08-05T00:00	5420	531	-4.2	-7.6	315	10	
2025-08-05T00:00	5440	529	-4.2	-8.1	312	10	
2025-08-05T00:00	5460	528	-4.1	-8.4	310	10	
2025-08-05T00:00	5480	527	-4.1	-8.5	310	10	
2025-08-05T00:00	5500	525	-4.2	-8.8	310	10	
2025-08-05T00:00	5520	524	-4.3	-9.1	311	10	
2025-08-05T00:00	5540	522	-4.3	-9.3	312	10	
2025-08-05T00:00	5560	521	-4.4	-9.5	313	11	
2025-08-05T00:00	5580	520	-4.5	-9.4	314	11	
2025-08-05T00:00	5600	518	-4.7	-9.5	314	11	
2025-08-05T00:00	5620	517	-4.9	-9.5	314	11	
2025-08-05T00:00	5640	516	-5.1	-9.5	315	11	
2025-08-05T00:00	5660	515	-5.2	-9.4	315	11	
2025-08-05T00:00	5680	513	-5.4	-9.5	316	11	
2025-08-05T00:00	5700	512	-5.6	-9.6	317	11	
2025-08-05T00:00	5720	511	-5.9	-9.6	318	11	
2025-08-05T00:00	5740	509	-6.0	-9.6	318	11	
2025-08-05T00:00	5760	508	-6.2	-9.6	318	11	
2025-08-05T00:00	5780	507	-6.3	-9.6	317	11	
2025-08-05T00:00	5800	505	-6.5	-9.7	317	11	
2025-08-05T00:00	5820	504	-6.6	-9.8	316	11	
2025-08-05T00:00	5840	503	-6.7	-9.8	316	11	
2025-08-05T00:00	5860	502	-6.8	-9.8	317	11	
2025-08-05T00:00	5880	500	-7.0	-9.7	317	12	
2025-08-05T00:00	5900	499	-7.1	-9.8	318	12	
2025-08-05T00:00	5920	498	-7.2	-9.9	318	12	
2025-08-05T00:00	5940	497	-7.4	-10.0	319	12	
2025-08-05T00:00	5960	495	-7.4	-10.6	319	12	
2025-08-05T00:00	5980	494	-7.5	-10.9	319	12	
2025-08-05T00:00	6000	493	-7.7	-11.0	318	12	
2025-08-05T00:00	6020	492	-7.8	-11.2	319	12	
2025-08-05T00:00	6040	490	-8.0	-11.2	319	12	
2025-08-05T00:00	6060	489	-8.1	-11.4	319	11	
2025-08-05T00:00	6080	488	-8.3	-11.5	320	11	
2025-08-05T00:00	6100	487	-8.4	-11.8	321	11	
2025-08-05T00:00	6120	485	-8.5	-12.4	321	11	
2025-08-05T00:00	6140	484	-8.5	-13.1	321	11	
2025-08-05T00:00	6160	483	-8.5	-14.2	320	11	
2025-08-05T00:00	6180	481	-8.5	-14.4	319	12	
2025-08-05T00:00	6200	480	-8.5	-14.7	318	12	
2025-08-05T00:00	6220	479	-8.6	-15.8	316	12	
2025-08-05T00:00	6240	478	-8.6	-17.1	315	12	
2025-08-05T00:00	6260	477	-8.6	-17.3	315	12	
2025-08-05T00:00	6280	475	-8.6	-16.6	315	13	
2025-08-05T00:00	6300	474	-8.8	-16.5	315	13	
2025-08-05T00:00	6320	473	-8.8	-17.8	316	13	
2025-08-05T00:00	6340	472	-8.9	-18.0	318	13	
2025-08-05T00:00	6360	470	-8.9	-18.3	319	13	
2025-08-05T00:00	6380	469	-8.9	-18.5	320	13	
2025-08-05T00:00	6400	468	-9.1	-18.7	320	13	
2025-08-05T00:00	6420	467	-9.3	-18.7	321	13	
2025-08-05T00:00	6440	466	-9.5	-18.6	321	13	
2025-08-05T00:00	6460	464	-9.7	-18.4	320	13	
2025-08-05T00:00	6480	463	-9.8	-17.7	320	13	
2025-08-05T00:00	6500	462	-10.0	-17.6	320	13	
2025-08-05T00:00	6520	461	-10.2	-17.4	319	13	
2025-08-05T00:00	6540	459	-10.3	-17.4	319	13	
2025-08-05T00:00	6560	458	-10.5	-18.0	319	14	
2025-08-05T00:00	6580	457	-10.6	-18.2	318	14	
2025-08-05T00:00	6600	456	-10.7	-18.8	318	14	
2025-08-05T00:00	6620	455	-10.8	-19.4	317	15	
2025-08-05T00:00	6640	454	-10.8	-19.9	317	16	
2025-08-05T00:00	6660	452	-11.0	-19.2	316	16	
2025-08-05T00:00	6680	451	-11.0	-18.2	316	16	
2025-08-05T00:00	6700	450	-11.1	-17.6	316	16	
2025-08-05T00:00	6720	449	-11.3	-17.7	315	16	
2025-08-05T00:00	6740	448	-11.5	-18.2	315	16	
2025-08-05T00:00	6760	447	-11.7	-18.4	315	16	
2025-08-05T00:00	6780	445	-11.8	-18.7	315	16	
2025-08-05T00:00	6800	444	-12.0	-19.1	315	16	
2025-08-05T00:00	6820	443	-12.1	-20.0	315	16	
2025-08-05T00:00	6840	442	-12.2	-21.0	315	16	
2025-08-05T00:00	6860	441	-12.4	-20.7	315	16	
2025-08-05T00:00	6880	440	-12.5	-21.1	315	16	
2025-08-05T00:00	6900	438	-12.7	-21.8	315	16	
2025-08-05T00:00	6920	437	-12.8	-22.3	315	16	
2025-08-05T00:00	6940	436	-12.9	-22.5	316	16	
2025-08-05T00:00	6960	435	-13.0	-22.8	316	16	
2025-08-05T00:00	6980	434	-13.2	-23.2	315	16	
2025-08-05T00:00	7000	433	-13.3	-24.7	315	16	
2025-08-05T00:00	7020	432	-13.4	-24.9	315	15	
2025-08-05T00:00	7040	430	-13.5	-24.8	314	15	
2025-08-05T00:00	7060	430	-13.6	-25.5	314	15	
2025-08-05T00:00	7080	428	-13.7	-26.2	314	15	
2025-08-05T00:00	7100	427	-13.9	-25.9	314	15	
2025-08-05T00:00	7120	426	-14.0	-26.2	315	14	
2025-08-05T00:00	7140	425	-14.2	-26.3	315	14	
2025-08-05T00:00	7160	424	-14.3	-26.7	315	14	
2025-08-05T00:00	7180	423	-14.4	-27.0	315	14	
2025-08-05T00:00	7200	422	-14.6	-27.1	315	13	
2025-08-05T00:00	7220	420	-14.7	-27.3	314	13	
2025-08-05T00:00	7240	419	-14.9	-28.2	313	13	
2025-08-05T00:00	7260	418	-14.9	-29.1	312	13	
2025-08-05T00:00	7280	417	-15.0	-29.7	311	13	
2025-08-05T00:00	7300	416	-15.0	-30.2	310	13	
2025-08-05T00:00	7320	415	-15.1	-30.0	309	13	
2025-08-05T00:00	7340	414	-15.3	-29.6	309	13	
2025-08-05T00:00	7360	413	-15.5	-29.9	309	12	
2025-08-05T00:00	7380	412	-15.6	-31.3	309	12	
2025-08-05T00:00	7400	410	-15.7	-31.8	309	13	
2025-08-05T00:00	7420	409	-15.9	-31.7	310	12	
2025-08-05T00:00	7440	408	-16.1	-31.6	310	13	
2025-08-05T00:00	7460	407	-16.1	-31.8	310	13	
2025-08-05T00:00	7480	406	-16.2	-31.8	310	13	
2025-08-05T00:00	7500	405	-16.3	-32.4	310	13	
2025-08-05T00:00	7520	404	-16.4	-32.9	310	13	
2025-08-05T00:00	7540	403	-16.5	-32.9	310	13	
2025-08-05T00:00	7560	402	-16.7	-32.6	310	13	
2025-08-05T00:00	7580	401	-16.8	-32.9	310	13	
2025-08-05T00:00	7600	400	-16.9	-33.1	310	13	
2025-08-05T00:00	7620	399	-17.1	-33.1	310	13	
2025-08-05T00:00	7640	398	-17.3	-33.3	311	13	
2025-08-05T00:00	7660	397	-17.4	-33.5	311	13	
2025-08-05T00:00	7680	395	-17.5	-34.2	311	13	
2025-08-05T00:00	7700	394	-17.6	-34.6	312	13	
2025-08-05T00:00	7720	393	-17.8	-34.8	313	13	
2025-08-05T00:00	7740	392	-17.9	-35.2	314	13	
2025-08-05T00:00	7760	391	-18.1	-35.9	315	12	
2025-08-05T00:00	7780	390	-18.2	-36.7	316	12	
2025-08-05T00:00	7800	389	-18.4	-37.1	318	12	
2025-08-05T00:00	7820	388	-18.6	-36.9	319	12	
2025-08-05T00:00	7840	387	-18.7	-36.6	321	12	
2025-08-05T00:00	7860	386	-18.9	-36.7	322	12	
2025-08-05T00:00	7880	385	-19.1	-37.5	323	12	
2025-08-05T00:00	7900	384	-19.2	-38.3	324	12	
2025-08-05T00:00	7920	383	-19.4	-39.7	326	12	
2025-08-05T00:00	7940	382	-19.5	-41.0	326	12	
2025-08-05T00:00	7960	381	-19.7	-41.0	327	12	
2025-08-05T00:00	7980	380	-19.8	-41.1	328	12	
2025-08-05T00:00	8000	379	-20.0	-41.0	329	12	
2025-08-05T00:00	8020	378	-20.1	-41.2	329	13	
2025-08-05T00:00	8040	377	-20.2	-41.5	329	13	
2025-08-05T00:00	8060	376	-20.4	-42.1	329	13	
2025-08-05T00:00	8080	375	-20.6	-42.3	329	13	
2025-08-05T00:00	8100	374	-20.7	-42.2	328	14	
2025-08-05T00:00	8120	373	-20.8	-42.1	328	14	
2025-08-05T00:00	8140	372	-20.9	-42.5	327	14	
2025-08-05T00:00	8160	371	-20.9	-42.9	326	14	
2025-08-05T00:00	8180	370	-21.1	-43.0	325	14	
2025-08-05T00:00	8200	369	-21.2	-43.0	324	14	
2025-08-05T00:00	8220	368	-21.3	-43.4	323	14	
2025-08-05T00:00	8240	367	-21.5	-43.3	323	14	
2025-08-05T00:00	8260	366	-21.6	-43.2	323	14	
2025-08-05T00:00	8280	365	-21.7	-43.0	323	14	
2025-08-05T00:00	8300	364	-21.9	-42.6	323	14	
2025-08-05T00:00	8320	363	-22.0	-42.7	324	14	
2025-08-05T00:00	8340	362	-22.1	-42.6	324	14	
2025-08-05T00:00	8360	361	-22.3	-42.5	324	15	
2025-08-05T00:00	8380	360	-22.4	-42.3	324	15	
2025-08-05T00:00	8400	359	-22.5	-42.1	324	15	
2025-08-05T00:00	8420	358	-22.6	-41.8	324	15	
2025-08-05T00:00	8440	357	-22.8	-41.5	324	15	
2025-08-05T00:00	8460	356	-22.9	-41.2	324	15	
2025-08-05T00:00	8480	355	-23.1	-41.2	324	15	
2025-08-05T00:00	8500	354	-23.3	-41.0	324	15	
2025-08-05T00:00	8520	353	-23.5	-40.7	324	15	
2025-08-05T00:00	8540	352	-23.6	-40.5	324	15	
2025-08-05T00:00	8560	351	-23.8	-40.4	324	15	
2025-08-05T00:00	8580	350	-24.0	-40.0	324	15	
2025-08-05T00:00	8600	349	-24.2	-39.3	324	15	
2025-08-05T00:00	8620	348	-24.4	-39.2	324	15	
2025-08-05T00:00	8640	347	-24.6	-39.0	324	15	
2025-08-05T00:00	8660	346	-24.8	-39.1	324	15	
2025-08-05T00:00	8680	345	-24.9	-39.4	324	15	
2025-08-05T00:00	8700	344	-25.1	-39.6	324	15	
2025-08-05T00:00	8720	343	-25.3	-39.4	324	15	
2025-08-05T00:00	8740	342	-25.5	-39.5	324	15	
2025-08-05T00:00	8760	342	-25.7	-39.5	324	15	
2025-08-05T00:00	8780	341	-25.8	-39.6	324	15	
2025-08-05T00:00	8800	340	-26.0	-39.6	324	15	
2025-08-05T00:00	8820	339	-26.2	-39.3	323	15	
2025-08-05T00:00	8840	338	-26.4	-39.3	323	16	
2025-08-05T00:00	8860	337	-26.5	-38.8	323	16	
2025-08-05T00:00	8880	336	-26.7	-38.8	322	16	
2025-08-05T00:00	8900	335	-26.8	-39.3	321	17	
2025-08-05T00:00	8920	334	-26.9	-39.4	320	17	
2025-08-05T00:00	8940	333	-27.1	-39.4	318	17	
2025-08-05T00:00	8960	332	-27.3	-39.5	317	18	
2025-08-05T00:00	8980	331	-27.4	-39.6	316	18	
2025-08-05T00:00	9000	330	-27.5	-39.8	315	18	
2025-08-05T00:00	9020	329	-27.7	-40.0	315	18	
2025-08-05T00:00	9040	328	-27.9	-40.4	315	19	
2025-08-05T00:00	9060	328	-28.0	-40.6	315	19	
2025-08-05T00:00	9080	327	-28.2	-40.9	316	19	
2025-08-05T00:00	9100	326	-28.4	-41.3	317	19	
2025-08-05T00:00	9120	325	-28.5	-41.5	318	20	
2025-08-05T00:00	9140	324	-28.7	-41.4	319	20	
2025-08-05T00:00	9160	323	-28.8	-40.8	319	20	
2025-08-05T00:00	9180	322	-28.9	-39.4	320	21	
2025-08-05T00:00	9200	321	-29.0	-38.6	321	21	
2025-08-05T00:00	9220	320	-29.1	-39.2	321	21	
2025-08-05T00:00	9240	319	-29.3	-39.0	322	21	
2025-08-05T00:00	9260	319	-29.5	-39.5	322	21	
2025-08-05T00:00	9280	318	-29.6	-41.3	322	21	
2025-08-05T00:00	9300	317	-29.7	-40.8	323	21	
2025-08-05T00:00	9320	316	-29.9	-39.6	323	21	
2025-08-05T00:00	9340	315	-30.1	-38.2	323	21	
2025-08-05T00:00	9360	314	-30.3	-37.8	323	21	
2025-08-05T00:00	9380	313	-30.5	-36.6	323	21	
2025-08-05T00:00	9400	312	-30.7	-36.0	323	21	
2025-08-05T00:00	9420	312	-30.9	-36.2	323	21	
2025-08-05T00:00	9440	311	-31.1	-36.7	322	21	
2025-08-05T00:00	9460	310	-31.2	-36.5	322	22	
2025-08-05T00:00	9480	309	-31.4	-35.7	321	22	
2025-08-05T00:00	9500	308	-31.5	-36.9	321	22	
2025-08-05T00:00	9520	307	-31.6	-37.6	321	23	
2025-08-05T00:00	9540	306	-31.7	-37.6	321	23	
2025-08-05T00:00	9560	305	-31.8	-38.1	321	23	
2025-08-05T00:00	9580	305	-32.0	-38.1	321	24	
2025-08-05T00:00	9600	304	-32.1	-38.3	321	24	
2025-08-05T00:00	9620	303	-32.3	-38.4	321	24	
2025-08-05T00:00	9640	302	-32.5	-38.4	321	24	
2025-08-05T00:00	9660	301	-32.7	-38.4	321	24	
2025-08-05T00:00	9680	300	-32.9	-38.4	321	24	
2025-08-05T00:00	9700	299	-33.1	-38.4	320	24	
2025-08-05T00:00	9720	299	-33.3	-38.4	320	24	
2025-08-05T00:00	9740	298	-33.5	-38.4	320	24	
2025-08-05T00:00	9760	297	-33.6	-39.3	320	24	
2025-08-05T00:00	9780	296	-33.7	-39.9	319	24	
2025-08-05T00:00	9800	295	-33.9	-40.5	319	24	
2025-08-05T00:00	9820	294	-33.9	-42.1	320	24	
2025-08-05T00:00	9840	294	-34.0	-41.1	320	24	
2025-08-05T00:00	9860	293	-34.2	-40.4	320	24	
2025-08-05T00:00	9880	292	-34.4	-40.4	321	24	
2025-08-05T00:00	9900	291	-34.6	-40.5	321	24	
2025-08-05T00:00	9920	290	-34.8	-40.7	321	24	
2025-08-05T00:00	9940	289	-34.9	-40.9	320	24	
2025-08-05T00:00	9960	289	-35.1	-41.2	320	24	
2025-08-05T00:00	9980	288	-35.3	-41.4	319	23	
2025-08-05T00:00	10000	287	-35.4	-41.4	318	23	
2025-08-05T00:00	10018	286	-35.5	-41.3	318	23	
2025-08-05T00:00	10050	285	-35.7	-42.3	318	22	
2025-08-05T00:00	10100	283	-35.9	-43.9	320	21	
2025-08-05T00:00	10150	281	-36.3	-44.6	322	21	
2025-08-05T00:00	10200	279	-36.7	-44.5	324	21	
2025-08-05T00:00	10250	277	-37.2	-44.8	325	20	
2025-08-05T00:00	10300	275	-37.5	-45.8	325	20	
2025-08-05T00:00	10350	273	-37.8	-46.5	326	20	
2025-08-05T00:00	10400	271	-38.2	-47.7	328	20	
2025-08-05T00:00	10450	269	-38.5	-48.9	330	20	
2025-08-05T00:00	10500	267	-38.9	-49.3	330	21	
2025-08-05T00:00	10550	265	-39.3	-49.6	330	21	
2025-08-05T00:00	10600	263	-39.7	-49.8	330	21	
2025-08-05T00:00	10650	261	-40.2	-50.0	330	21	
2025-08-05T00:00	10700	259	-40.7	-50.1	330	21	
2025-08-05T00:00	10750	257	-41.1	-50.4	329	21	
2025-08-05T00:00	10800	255	-41.4	-51.0	328	21	
2025-08-05T00:00	10850	254	-41.8	-51.3	329	20	
2025-08-05T00:00	10900	252	-42.2	-52.4	330	20	
2025-08-05T00:00	10950	250	-42.4	-54.2	332	20	
2025-08-05T00:00	11000	248	-42.8	-54.9	332	19	
2025-08-05T00:00	11050	246	-43.2	-54.9	332	19	
2025-08-05T00:00	11100	244	-43.6	-54.9	333	20	
2025-08-05T00:00	11150	242	-44.1	-54.7	333	20	
2025-08-05T00:00	11200	241	-44.6	-54.5	333	19	
2025-08-05T00:00	11250	239	-44.9	-55.6	334	19	
2025-08-05T00:00	11300	237	-45.4	-55.8	335	19	
2025-08-05T00:00	11350	235	-45.8	-55.5	335	19	
2025-08-05T00:00	11400	234	-46.3	-55.5	334	19	
2025-08-05T00:00	11450	232	-46.8	-55.7	334	19	
2025-08-05T00:00	11500	230	-47.1	-57.2	333	20	
2025-08-05T00:00	11550	228	-47.3	-58.6	334	20	
2025-08-05T00:00	11600	227	-47.7	-58.5	335	20	
2025-08-05T00:00	11650	225	-48.1	-58.5	335	19	
2025-08-05T00:00	11700	223	-48.5	-58.6	335	19	
2025-08-05T00:00	11750	222	-48.8	-58.4	336	20	
2025-08-05T00:00	11800	220	-49.2	-58.7	336	21	
2025-08-05T00:00	11850	218	-49.6	-59.0	337	21	
2025-08-05T00:00	11900	216	-50.0	-59.1	338	21	
2025-08-05T00:00	11950	215	-50.5	-59.1	338	21	
2025-08-05T00:00	12000	213	-50.8	-59.8	339	21	
2025-08-05T00:00	12050	212	-51.1	-60.9	339	21	
2025-08-05T00:00	12100	210	-51.5	-60.8	339	21	
2025-08-05T00:00	12150	208	-51.9	-60.8	339	21	
2025-08-05T00:00	12200	207	-52.3	-61.1	339	21	
2025-08-05T00:00	12250	205	-52.7	-61.1	339	20	
2025-08-05T00:00	12300	204	-53.0	-61.7	341	20	
2025-08-05T00:00	12350	202	-53.3	-62.2	341	20	
2025-08-05T00:00	12400	200	-53.7	-62.6	341	20	
2025-08-05T00:00	12450	199	-54.0	-62.9	341	20	
2025-08-05T00:00	12500	197	-54.4	-63.4	341	20	
2025-08-05T00:00	12550	196	-54.8	-64.4	341	20	
2025-08-05T00:00	12600	194	-55.0	-65.1	341	19	
2025-08-05T00:00	12650	193	-55.2	-65.3	342	19	
2025-08-05T00:00	12700	191	-55.3	-66.4	342	18	
2025-08-05T00:00	12750	190	-55.5	-67.2	343	17	
2025-08-05T00:00	12800	188	-55.8	-67.8	345	16	
2025-08-05T00:00	12850	187	-56.1	-68.2	346	16	
2025-08-05T00:00	12900	185	-56.5	-67.8	344	15	
2025-08-05T00:00	12950	184	-56.8	-68.1	342	15	
2025-08-05T00:00	13000	182	-57.2	-68.6	342	15	
2025-08-05T00:00	13050	181	-57.6	-68.4	344	15	
2025-08-05T00:00	13100	180	-57.9	-68.5	344	16	
2025-08-05T00:00	13150	178	-58.3	-68.8	344	16	
2025-08-05T00:00	13200	177	-58.6	-69.1	344	16	
2025-08-05T00:00	13250	175	-58.9	-69.1	345	16	
2025-08-05T00:00	13300	174	-59.3	-69.1	346	16	
2025-08-05T00:00	13350	172	-59.7	-69.2	347	16	
2025-08-05T00:00	13400	171	-59.9	-69.6	350	16	
2025-08-05T00:00	13450	170	-59.9	-70.6	351	15	
2025-08-05T00:00	13500	168	-60.1	-71.3	349	15	
2025-08-05T00:00	13550	167	-60.2	-71.8	347	15	
2025-08-05T00:00	13600	166	-60.3	-72.7	344	15	
2025-08-05T00:00	13650	164	-60.5	-73.2	341	15	
2025-08-05T00:00	13700	163	-60.8	-73.4	339	16	
2025-08-05T00:00	13750	162	-61.1	-73.6	340	17	
2025-08-05T00:00	13800	161	-61.3	-73.9	343	17	
2025-08-05T00:00	13850	159	-61.5	-74.1	346	17	
2025-08-05T00:00	13900	158	-61.7	-74.3	349	17	
2025-08-05T00:00	13950	157	-61.9	-74.6	351	17	
2025-08-05T00:00	14000	155	-62.1	-74.8	353	17	
2025-08-05T00:00	14050	154	-62.3	-75.0	356	16	
2025-08-05T00:00	14100	153	-62.6	-75.2	358	15	
2025-08-05T00:00	14150	152	-62.8	-75.2	360	14	
2025-08-05T00:00	14200	150	-63.2	-75.2	359	13	
2025-08-05T00:00	14250	149	-63.6	-75.2	357	13	
2025-08-05T00:00	14300	148	-63.9	-75.2	355	12	
2025-08-05T00:00	14350	147	-64.3	-75.2	352	11	
2025-08-05T00:00	14400	146	-64.6	-75.3	350	11	
2025-08-05T00:00	14450	144	-64.9	-75.5	348	11	
2025-08-05T00:00	14500	143	-65.1	-75.7	348	12	
2025-08-05T00:00	14550	142	-65.1	-75.8	350	12	
2025-08-05T00:00	14600	141	-65.4	-76.1	351	12	
2025-08-05T00:00	14650	140	-65.3	-76.1	352	11	
2025-08-05T00:00	14700	139	-65.7	-76.4	352	10	
2025-08-05T00:00	14750	137	-65.9	-76.6	349	10	
2025-08-05T00:00	14800	136	-66.1	-76.7	344	10	
2025-08-05T00:00	14850	135	-66.2	-76.8	340	10	
2025-08-05T00:00	14900	134	-66.5	-77.0	335	10	
2025-08-05T00:00	14950	133	-66.8	-77.1	331	10	
2025-08-05T00:00	15000	132	-67.2	-77.4	327	11	
2025-08-05T00:00	15050	131	-67.4	-77.8	325	13	
2025-08-05T00:00	15100	130	-66.7	-77.7	325	14	
2025-08-05T00:00	15150	129	-66.8	-78.1	328	14	
2025-08-05T00:00	15200	128	-66.8	-78.5	332	13	
2025-08-05T00:00	15250	127	-66.8	-78.8	334	12	
2025-08-05T00:00	15300	126	-66.7	-79.4	334	10	
2025-08-05T00:00	15350	124	-66.0	-79.9	331	10	
2025-08-05T00:00	15400	123	-65.1	-80.8	327	10	
2025-08-05T00:00	15450	122	-63.4	-81.7	324	11	
2025-08-05T00:00	15500	121	-62.4	-82.8	322	12	
2025-08-05T00:00	15550	121	-62.3	-84.0	322	12	
2025-08-05T00:00	15600	120	-62.3	-84.5	322	13	
2025-08-05T00:00	15650	119	-62.3	-84.6	323	12	
2025-08-05T00:00	15700	118	-61.9	-84.6	327	11	
2025-08-05T00:00	15750	117	-61.0	-84.2	332	10	
2025-08-05T00:00	15800	116	-60.7	-84.0	333	9	
2025-08-05T00:00	15850	115	-60.6	-84.1	330	8	
2025-08-05T00:00	15900	114	-59.8	-84.1	325	7	
2025-08-05T00:00	15950	113	-58.6	-83.8	320	6	
2025-08-05T00:00	16000	112	-58.5	-83.9	316	5	
2025-08-05T00:00	16050	111	-58.5	-83.9	311	5	
2025-08-05T00:00	16100	110	-58.2	-83.6	303	4	
2025-08-05T00:00	16150	109	-58.2	-83.4	288	3	
2025-08-05T00:00	16200	109	-58.6	-83.3	255	3	
2025-08-05T00:00	16250	108	-59.0	-83.3	227	4	
2025-08-05T00:00	16300	107	-59.1	-83.3	212	5	
2025-08-05T00:00	16350	106	-59.4	-83.3	205	5	
2025-08-05T00:00	16400	105	-59.8	-83.5	203	6	
2025-08-05T00:00	16450	104	-60.2	-83.6	206	6	
2025-08-05T00:00	16500	103	-60.5	-83.7	212	6	
2025-08-05T00:00	16550	103	-60.8	-83.9	221	6	
2025-08-05T00:00	16600	102	-61.2	-84.0	231	6	
2025-08-05T00:00	16650	101	-61.4	-84.1	239	7	
2025-08-05T00:00	16700	100	-61.4	-84.1	244	8	
2025-08-05T00:00	16750	99	-61.7	-84.3	249	8	
2025-08-05T00:00	16800	99	-61.9	-84.5	253	8	
2025-08-05T00:00	16850	98	-62.1	-84.8	259	9	
2025-08-05T00:00	16900	97	-62.1	-85.2	268	10	
2025-08-05T00:00	16950	96	-61.3	-85.1	276	10	
2025-08-05T00:00	17000	95	-60.8	-85.0	281	10	
2025-08-05T00:00	17050	95	-60.9	-85.0	284	10	
2025-08-05T00:00	17100	94	-61.2	-85.0	288	10	
2025-08-05T00:00	17150	93	-61.4	-85.1	296	10	
2025-08-05T00:00	17200	92	-61.0	-85.0	300	10	
2025-08-05T00:00	17250	92	-61.1	-85.4	302	9	
2025-08-05T00:00	17300	91	-60.4	-85.1	305	8	
2025-08-05T00:00	17350	90	-60.7	-85.3	313	6	
2025-08-05T00:00	17400	90	-61.0	-85.4	320	6	
2025-08-05T00:00	17450	89	-60.6	-85.4	317	6	
2025-08-05T00:00	17500	88	-60.3	-85.3	311	6	
2025-08-05T00:00	17550	87	-60.4	-85.6	313	6	
2025-08-05T00:00	17600	87	-59.8	-85.5	325	5	
2025-08-05T00:00	17650	86	-58.9	-85.2	340	5	
2025-08-05T00:00	17700	85	-58.9	-85.1	348	5	
2025-08-05T00:00	17750	85	-59.2	-85.2	354	4	
2025-08-05T00:00	17800	84	-59.0	-85.0	2	3	
2025-08-05T00:00	17850	83	-59.1	-85.0	10	2	
2025-08-05T00:00	17900	83	-59.2	-85.1	32	1	
2025-08-05T00:00	17950	82	-59.0	-85.0	61	0	
2025-08-05T00:00	18000	81	-59.2	-85.1	358	0	
2025-08-05T00:00	18050	81	-59.1	-85.1	333	1	
2025-08-05T00:00	18100	80	-59.2	-85.2	330	1	
2025-08-05T00:00	18150	79	-59.1	-85.2	335	1	
2025-08-05T00:00	18200	79	-59.1	-85.3	21	1	
2025-08-05T00:00	18250	78	-59.1	-85.4	69	2	
2025-08-05T00:00	18300	77	-58.6	-85.2	96	2	
2025-08-05T00:00	18350	77	-58.3	-85.1	121	2	
2025-08-05T00:00	18400	76	-58.4	-85.1	156	2	
2025-08-05T00:00	18450	76	-58.6	-85.2	198	2	
2025-08-05T00:00	18500	75	-58.5	-85.2	219	3	
2025-08-05T00:00	18550	74	-58.0	-84.9	228	4	
2025-08-05T00:00	18600	74	-58.1	-85.0	233	4	
2025-08-05T00:00	18650	73	-58.2	-85.1	232	3	
2025-08-05T00:00	18700	73	-58.0	-85.0	217	2	
2025-08-05T00:00	18750	72	-58.0	-85.0	137	1	
2025-08-05T00:00	18800	72	-58.1	-85.1	85	2	
2025-08-05T00:00	18850	71	-57.9	-85.1	96	2	
2025-08-05T00:00	18900	70	-57.8	-84.9	151	1	
2025-08-05T00:00	18950	70	-58.0	-85.0	210	2	
2025-08-05T00:00	19000	69	-58.2	-85.2	235	2	
2025-08-05T00:00	19050	69	-58.0	-85.2	243	1	
2025-08-05T00:00	19100	68	-57.5	-84.9	220	1	
2025-08-05T00:00	19150	68	-57.8	-85.0	192	1	
2025-08-05T00:00	19200	67	-58.0	-85.2	201	1	
2025-08-05T00:00	19250	67	-57.8	-85.1	200	1	
2025-08-05T00:00	19300	66	-57.6	-85.1	157	1	
2025-08-05T00:00	19350	66	-57.7	-85.2	144	2	
2025-08-05T00:00	19400	65	-57.2	-85.2	141	3	
2025-08-05T00:00	19450	65	-56.7	-85.0	140	5	
2025-08-05T00:00	19500	64	-56.5	-84.9	141	6	
2025-08-05T00:00	19550	64	-56.7	-84.8	144	7	
2025-08-05T00:00	19600	63	-56.8	-84.7	150	7	
2025-08-05T00:00	19650	63	-57.0	-84.8	156	6	
2025-08-05T00:00	19700	62	-56.9	-84.9	165	5	
2025-08-05T00:00	19750	62	-56.7	-84.9	181	4	
2025-08-05T00:00	19800	61	-56.7	-84.9	196	4	
2025-08-05T00:00	19850	61	-56.5	-84.9	198	4	
2025-08-05T00:00	19900	60	-56.2	-84.9	187	3	
2025-08-05T00:00	19950	60	-55.9	-84.8	171	3	
2025-08-05T00:00	20000	59	-55.4	-84.5	163	3	
2025-08-05T00:00	20050	59	-55.5		155	4	
2025-08-05T00:00	20100	58	-55.6		151	5	
2025-08-05T00:00	20150	58	-55.5		155	6	
2025-08-05T00:00	20200	57	-55.7		163	7	
2025-08-05T00:00	20250	57	-55.7		169	7	
2025-08-05T00:00	20300	56	-56.0		175	6	
2025-08-05T00:00	20350	56	-56.1		181	5	
2025-08-05T00:00	20400	56	-56.1		189	3	
2025-08-05T00:00	20450	55	-55.8		200	2	
2025-08-05T00:00	20500	55	-56.0		232	1	
2025-08-05T00:00	20550	54	-56.3		314	2	
2025-08-05T00:00	20600	54	-56.2		333	3	
2025-08-05T00:00	20650	53	-56.0		339	4	
2025-08-05T00:00	20700	53	-55.2		341	4	
2025-08-05T00:00	20750	53	-55.0		343	2	
2025-08-05T00:00	20800	52	-55.4		348	1	
2025-08-05T00:00	20850	52	-55.6		352	1	
2025-08-05T00:00	20900	51	-55.8		356	1	
2025-08-05T00:00	20950	51	-55.8		5	1	
2025-08-05T00:00	21000	51	-55.9		7	3	
2025-08-05T00:00	21050	50	-55.9		8	3	
2025-08-05T00:00	21100	50	-56.0		11	3	
2025-08-05T00:00	21150	49	-56.0		20	3	
2025-08-05T00:00	21200	49	-56.0		34	2	
2025-08-05T00:00	21250	49	-55.7		58	3	
2025-08-05T00:00	21300	48	-55.5		78	4	
2025-08-05T00:00	21350	48	-54.8		92	5	
2025-08-05T00:00	21400	48	-54.6		106	6	
2025-08-05T00:00	21450	47	-54.9		117	7	
2025-08-05T00:00	21500	47	-55.1		122	6	
2025-08-05T00:00	21550	46	-54.6		121	5	
2025-08-05T00:00	21600	46	-54.6		109	4	
2025-08-05T00:00	21650	46	-54.3		82	3	
2025-08-05T00:00	21700	45	-54.3		53	3	
2025-08-05T00:00	21750	45	-54.4		37	4	
2025-08-05T00:00	21800	45	-54.4		38	5	
2025-08-05T00:00	21850	44	-54.3		49	6	
2025-08-05T00:00	21900	44	-54.4		62	7	
2025-08-05T00:00	21950	44	-54.5		75	8	
2025-08-05T00:00	22000	43	-54.7		86	8	
2025-08-05T00:00	22050	43	-54.7		95	8	
2025-08-05T00:00	22100	43	-54.9		99	7	
2025-08-05T00:00	22150	42	-54.6		103	6	
2025-08-05T00:00	22200	42	-54.2		107	6	
2025-08-05T00:00	22250	42	-53.9		111	8	
2025-08-05T00:00	22300	41	-53.7		116	10	
2025-08-05T00:00	22350	41	-53.5		123	11	
2025-08-05T00:00	22400	41	-53.5		130	11	
2025-08-05T00:00	22450	40	-53.4		136	11	
2025-08-05T00:00	22500	40	-53.7		140	10	
2025-08-05T00:00	22550	40	-53.9		139	9	
2025-08-05T00:00	22600	39	-54.0		132	7	
2025-08-05T00:00	22650	39	-53.7		122	6	
2025-08-05T00:00	22700	39	-53.4		114	5	
2025-08-05T00:00	22750	38	-53.2		110	5	
2025-08-05T00:00	22800	38	-53.3		113	5	
2025-08-05T00:00	22850	38	-53.1		122	5	
2025-08-05T00:00	22900	38	-53.3		137	4	
2025-08-05T00:00	22950	37	-53.5		147	4	
2025-08-05T00:00	23000	37	-53.7		141	3	
2025-08-05T00:00	23050	37	-53.8		116	3	
2025-08-05T00:00	23100	36	-53.5		94	3	
2025-08-05T00:00	23150	36	-53.6		86	4	
2025-08-05T00:00	23200	36	-53.9		86	5	
2025-08-05T00:00	23250	36	-54.1		91	5	
2025-08-05T00:00	23300	35	-54.0		98	5	
2025-08-05T00:00	23350	35	-53.9		102	6	
2025-08-05T00:00	23400	35	-53.9		104	7	
2025-08-05T00:00	23450	35	-54.0		102	7	
2025-08-05T00:00	23500	34	-54.0		96	6	
2025-08-05T00:00	23550	34	-53.7		89	6	
2025-08-05T00:00	23600	34	-53.7		82	6	
2025-08-05T00:00	23650	33	-53.7		76	6	
2025-08-05T00:00	23700	33	-53.6		74	7	
2025-08-05T00:00	23750	33	-53.5		75	9	
2025-08-05T00:00	23800	33	-53.5		79	9	
2025-08-05T00:00	23850	32	-53.4		84	10	
2025-08-05T00:00	23900	32	-53.2		91	9	
2025-08-05T00:00	23950	32	-53.2		99	9	
2025-08-05T00:00	24000	32	-53.2		107	8	
2025-08-05T00:00	24050	31	-53.4		116	8	
2025-08-05T00:00	24100	31	-53.3		124	7	
2025-08-05T00:00	24150	31	-53.2		128	7	
2025-08-05T00:00	24200	31	-53.0		127	6	
2025-08-05T00:00	24250	30	-53.1		119	5	
2025-08-05T00:00	24300	30	-53.1		101	4	
2025-08-05T00:00	24350	30	-52.9		77	5	
2025-08-05T00:00	24400	30	-52.5		67	6	
2025-08-05T00:00	24450	30	-52.0		68	8	
2025-08-05T00:00	24500	29	-51.6		73	10	
2025-08-05T00:00	24550	29	-51.1		81	11	
2025-08-05T00:00	24600	29	-51.2		90	11	
2025-08-05T00:00	24650	29	-51.5		97	11	
2025-08-05T00:00	24700	28	-51.9		100	11	
2025-08-05T00:00	24750	28	-52.2		95	11	
2025-08-05T00:00	24800	28	-52.2		87	11	
2025-08-05T00:00	24850	28	-51.9		80	12	
2025-08-05T00:00	24900	28	-51.8		77	12	
2025-08-05T00:00	24950	27	-51.9		79	13	
2025-08-05T00:00	25000	27	-51.5		84	13	
2025-08-05T00:00	25050	27	-51.5		89	13	
2025-08-05T00:00	25100	27	-51.4		95	12	
2025-08-05T00:00	25150	27	-51.5		99	11	
2025-08-05T00:00	25200	26	-51.3		99	10	
2025-08-05T00:00	25250	26	-51.0		97	10	
2025-08-05T00:00	25300	26	-50.5		94	11	
2025-08-05T00:00	25350	26	-50.6		93	11	
2025-08-05T00:00	25400	26	-50.8		94	11	
2025-08-05T00:00	25450	25	-50.5		98	11	
2025-08-05T00:00	25500	25	-50.4		103	9	
2025-08-05T00:00	25550	25	-50.5		103	8	
2025-08-05T00:00	25600	25	-50.6		98	8	
2025-08-05T00:00	25650	25	-50.5		89	8	
2025-08-05T00:00	25700	24	-50.0		85	8	
2025-08-05T00:00	25750	24	-49.4		88	8	
2025-08-05T00:00	25800	24	-49.1		92	9	
2025-08-05T00:00	25850	24	-48.9		94	9	
2025-08-05T00:00	25900	24	-48.7		96	9	
2025-08-05T00:00	25950	23	-48.7		96	9	
2025-08-05T00:00	26000	23	-48.5		96	8	
2025-08-05T00:00	26050	23	-48.4		94	8	
2025-08-05T00:00	26100	23	-48.3		92	8	
2025-08-05T00:00	26150	23	-48.0		89	7	
2025-08-05T00:00	26200	23	-47.9		88	8	
2025-08-05T00:00	26250	22	-47.6		86	8	
2025-08-05T00:00	26300	22	-47.4		82	8	
2025-08-05T00:00	26350	22	-47.3		79	8	
2025-08-05T00:00	26400	22	-47.1		80	9	
2025-08-05T00:00	26450	22	-47.1		83	10	
2025-08-05T00:00	26500	22	-47.3		86	10	
2025-08-05T00:00	26550	21	-47.4		91	10	
2025-08-05T00:00	26600	21	-47.6		97	9	
2025-08-05T00:00	26650	21	-47.6		103	7	
2025-08-05T00:00	26700	21	-47.4		103	6	
2025-08-05T00:00	26750	21	-47.1		92	5	
2025-08-05T00:00	26800	21	-46.7		75	5	
2025-08-05T00:00	26850	20	-46.4		60	6	
2025-08-05T00:00	26900	20	-46.3		49	6	
2025-08-05T00:00	26950	20	-46.2		43	7	
2025-08-05T00:00	27000	20	-46.4		43	8	
2025-08-05T00:00	27050	20	-46.5		51	8	
2025-08-05T00:00	27100	20	-46.4		61	9	
2025-08-05T00:00	27150	20	-46.5		69	10	
2025-08-05T00:00	27200	19	-46.3		73	10	
2025-08-05T00:00	27250	19	-45.9		73	10	
2025-08-05T00:00	27300	19	-45.6		70	10	
2025-08-05T00:00	27350	19	-45.5		65	11	
2025-08-05T00:00	27400	19	-45.5		61	12	
2025-08-05T00:00	27450	19	-45.4		59	13	
2025-08-05T00:00	27500	19	-45.4		61	13	
2025-08-05T00:00	27550	18	-45.2		65	14	
2025-08-05T00:00	27600	18	-45.2		70	15	
2025-08-05T00:00	27650	18	-45.3		73	15	
2025-08-05T00:00	27700	18	-45.5		76	16	
2025-08-05T00:00	27750	18	-45.3		81	16	
2025-08-05T00:00	27800	18	-45.4		87	17	
2025-08-05T00:00	27850	18	-45.5		93	17	
2025-08-05T00:00	27900	17	-45.7		96	17	
2025-08-05T00:00	27950	17	-45.7		96	17	
2025-08-05T00:00	28000	17	-45.4		94	17	
2025-08-05T00:00	28050	17	-45.2		94	17	
2025-08-05T00:00	28100	17	-45.0		96	17	
2025-08-05T00:00	28150	17	-44.9		100	18	
2025-08-05T00:00	28200	17	-45.1		102	18	
2025-08-05T00:00	28250	17	-45.2		105	17	
2025-08-05T00:00	28300	16	-45.3		105	16	
2025-08-05T00:00	28350	16	-45.4		104	14	
2025-08-05T00:00	28400	16	-45.2		103	13	
2025-08-05T00:00	28450	16	-44.8		105	12	
2025-08-05T00:00	28500	16	-44.4		108	13	
2025-08-05T00:00	28550	16	-44.1		112	13	
2025-08-05T00:00	28600	16	-44.2		116	14	
2025-08-05T00:00	28650	16	-44.2		120	14	
2025-08-05T00:00	28700	16	-44.5		123	14	
2025-08-05T00:00	28750	15	-44.6		124	14	
2025-08-05T00:00	28800	15	-44.4		122	13	
2025-08-05T00:00	28850	15	-44.4		118	13	
2025-08-05T00:00	28900	15	-44.3		112	13	
2025-08-05T00:00	28950	15	-44.1		107	13	
2025-08-05T00:00	29000	15	-43.8		101	12	
2025-08-05T00:00	29050	15	-43.7		97	12	
2025-08-05T00:00	29100	15	-43.7		96	13	
2025-08-05T00:00	29150	15	-43.5		99	14	
2025-08-05T00:00	29200	14	-43.3		104	14	
2025-08-05T00:00	29250	14	-42.9		107	15	
2025-08-05T00:00	29300	14	-42.8		109	14	
2025-08-05T00:00	29350	14	-42.8		109	13	
2025-08-05T00:00	29400	14	-43.0		106	13	
2025-08-05T00:00	29450	14	-43.2		103	12	
2025-08-05T00:00	29500	14	-43.0		102	13	
2025-08-05T00:00	29550	14	-43.1		101	13	
2025-08-05T00:00	29600	14	-43.5		101	13	
2025-08-05T00:00	29650	13	-43.8		102	12	
2025-08-05T00:00	29700	13	-43.9		104	11	
2025-08-05T00:00	29750	13	-43.9		106	11	
2025-08-05T00:00	29800	13	-43.7		106	12	
2025-08-05T00:00	29850	13	-43.5		106	13	
2025-08-05T00:00	29900	13	-43.3		107	14	
2025-08-05T00:00	29950	13	-43.4		108	14	
2025-08-05T00:00	30000	13	-43.5		109	15	
2025-08-05T00:00	30050	13	-43.5		111	16	
2025-08-05T00:00	30100	13	-43.2		114	15	
2025-08-05T00:00	30150	12	-42.7		118	15	
2025-08-05T00:00	30200	12	-42.9		122	14	
2025-08-05T00:00	30250	12	-43.2		126	13	
2025-08-05T00:00	30300	12	-43.5		128	11	
2025-08-05T00:00	30350	12	-43.4		128	10	
2025-08-05T00:00	30400	12	-42.8		127	9	
2025-08-05T00:00	30450	12	-42.6		129	8	
2025-08-05T00:00	30500	12	-42.7		131	8	
2025-08-05T00:00	30550	12	-42.8		132	8	
2025-08-05T00:00	30600	12	-42.8		130	9	
2025-08-05T00:00	30650	12	-42.1		128	9	
2025-08-05T00:00	30700	12	-41.8		127	9	
2025-08-05T00:00	30750	11	-41.7		126	9	
2025-08-05T00:00	30800	11	-41.6		125	9	
2025-08-05T00:00	30850	11	-41.3		125	9	
2025-08-05T00:00	30900	11	-41.0		125	10	
2025-08-05T00:00	30950	11	-40.6		126	10	
2025-08-05T00:00	31000	11	-40.3		127	11	
2025-08-05T00:00	31050	11	-39.9		129	10	
2025-08-05T00:00	31100	11	-39.8		133	9	
2025-08-05T00:00	31150	11	-39.9		138	8	
2025-08-05T00:00	31200	11	-40.1		139	7	
2025-08-05T00:00	31250	11	-40.1		134	6	
2025-08-05T00:00	31300	11	-39.9		125	6	
2025-08-05T00:00	31350	10	-39.9		116	6	
2025-08-05T00:00	31400	10	-39.9		109	5	
2025-08-05T00:00	31450	10	-39.8		101	4	
2025-08-05T00:00	31500	10	-39.8		96	4	
2025-08-05T00:00	31550	10	-39.6		97	4	
2025-08-05T00:00	31600	10	-39.1		100	5	
2025-08-05T00:00	31650	10	-38.9		102	6	
2025-08-05T00:00	31700	10	-38.9		101	7	
2025-08-05T00:00	31750	10	-39.0		100	8	
2025-08-05T00:00	31800	10	-39.1		98	9	
2025-08-05T00:00	31850	10	-39.3		95	9	
2025-08-05T00:00	31900	10	-39.6		93	9	
2025-08-05T00:00	31950	10	-39.5		89	8	
2025-08-05T00:00	32000	10	-39.5		84	8	
2025-08-05T00:00	32050	9	-39.4		75	7	
2025-08-05T00:00	32100	9	-39.5		66	6	
2025-08-05T00:00	32150	9	-39.6		58	6	
2025-08-05T00:00	32200	9	-39.8		54	5	
2025-08-05T00:00	32250	9	-40.0		54	6	
2025-08-05T00:00	32300	9	-39.8		58	8	
2025-08-05T00:00	32350	9	-39.9		63	10	
2025-08-05T00:00	32400	9	-40.1		68	11	
2025-08-05T00:00	32450	9	-40.3		73	13	
2025-08-05T00:00	32500	9	-40.5		79	14	
2025-08-05T00:00	32550	9	-40.5		83	15	
2025-08-05T00:00	32600	9	-40.4		87	15	
2025-08-05T00:00	32650	9	-40.2		89	14	
2025-08-05T00:00	32700	9	-40.1		88	14	
2025-08-05T00:00	32750	9	-40.1		88	14	
2025-08-05T00:00	32800	8	-40.0		89	14	
2025-08-05T00:00	32850	8	-39.9		92	14	
2025-08-05T00:00	32900	8	-39.7		98	14	
2025-08-05T00:00	32950	8	-39.8		104	15	
2025-08-05T00:00	33000	8	-39.8		110	15	
2025-08-05T00:00	33050	8	-39.8		115	15	
2025-08-05T00:00	33100	8	-39.6		115	15	
2025-08-05T00:00	33150	8	-39.5		112	14	
2025-08-05T00:00	33200	8	-39.1		107	12	
2025-08-05T00:00	33250	8	-38.6		102	12	
2025-08-05T00:00	33300	8	-38.4		96	11	
2025-08-05T00:00	33350	8	-38.2		91	11	
2025-08-05T00:00	33400	8	-37.9		85	10	
2025-08-05T00:00	33450	8	-37.8		79	10	
2025-08-05T00:00	33500	8	-37.7		75	10	
2025-08-05T00:00	33550	8	-37.6		70	11	
2025-08-05T00:00	33600	8	-37.5		67	12	
2025-08-05T00:00	33650	7	-37.4		65	13	
2025-08-05T00:00	33700	7	-37.2		66	14	
2025-08-05T00:00	33750	7	-36.9		69	15	
2025-08-05T00:00	33800	7	-36.8		75	15	
2025-08-05T00:00	33850	7	-36.8		80	15	
2025-08-05T00:00	33900	7	-36.9		80	14	
2025-08-05T00:00	33950	7	-37.0		77	14	
2025-08-05T00:00	34000	7	-36.9		74	13	
2025-08-05T00:00	34050	7	-36.4		73	13	
2025-08-05T00:00	34100	7	-36.1		73	12	
2025-08-05T00:00	34150	7	-36.0		74	11	
2025-08-05T00:00	34200	7	-35.8		73	11	
2025-08-05T00:00	34250	7	-36.0		68	10	
2025-08-05T00:00	34300	7	-35.9		59	11	
2025-08-05T00:00	34350	7	-35.6		52	11	
2025-08-05T00:00	34400	7	-35.5		48	12	
2025-08-05T00:00	34450	7	-35.3		47	12	
2025-08-05T00:00	34500	7	-35.2		46	12	
2025-08-05T00:00	34550	7	-35.1		45	12	
2025-08-05T00:00	34600	7	-35.0		45	11	
2025-08-05T00:00	34650	6	-35.1		44	11	
2025-08-05T00:00	34700	6	-35.3		43	11	
2025-08-05T00:00	34750	6	-35.4		42	12	
2025-08-05T00:00	34800	6	-35.2		43	13	
2025-08-05T00:00	34850	6	-34.7		47	15	
2025-08-05T00:00	34900	6	-34.1		51	17	
2025-08-05T00:00	34950	6	-33.8		56	18	
2025-08-05T00:00	35000	6	-33.6		59	19	
2025-08-05T00:00	35050	6	-33.5		62	19	
2025-08-05T00:00	35100	6	-33.5		62	19	
2025-08-05T00:00	35150	6	-33.6		59	19	
2025-08-05T00:00	35200	6	-33.6		56	19	
2025-08-05T00:00	35250	6	-33.7		52	19	
2025-08-05T00:00	35300	6	-33.5		48	20	
2025-08-05T00:00	35350	6	-33.1		45	21	
2025-08-05T00:00	35400	6	-32.6		47	22	
2025-08-05T00:00	35450	6	-32.3		53	23	
2025-08-05T00:00	35500	6	-31.8		59	23	
2025-08-05T00:00	35550	6	-31.4		65	23	
2025-08-05T00:00	35600	6	-31.7		71	24	
2025-08-05T00:00	35650	6	-31.6		77	24	
2025-08-05T00:00	35700	6	-31.4		79	23	
2025-08-05T00:00	35750	6	-31.1		75	22	
2025-08-05T00:00	35800	6	-30.8		72	21	
2025-08-05T00:00	35850	5	-30.6		69	20	
2025-08-05T00:00	35900	5	-30.6		69	21	
2025-08-05T00:00	35950	5	-30.6		72	22	
2025-08-05T00:00	36000	5	-30.2		77	23	
2025-08-05T00:00	36050	5	-29.9		83	23	
2025-08-05T00:00	36100	5	-30.1		88	24	
2025-08-05T00:00	36150	5	-30.0		92	24	
2025-08-05T00:00	36200	5	-29.9		93	23	
2025-08-05T00:00	36250	5	-29.5		91	21	
2025-08-05T00:00	36300	5	-29.2		87	20	
2025-08-05T00:00	36350	5	-29.0		81	20	
2025-08-05T00:00	36400	5	-28.9		77	21	
2025-08-05T00:00	36450	5	-28.5		75	22	
2025-08-05T00:00	36500	5	-28.3		76	23	
2025-08-05T00:00	36550	5	-28.0		79	24	
2025-08-05T00:00	36600	5	-27.9		82	24	
2025-08-05T00:00	36650	5	-27.8		86	24	
2025-08-05T00:00	36700	5	-28.0		89	23	
2025-08-05T00:00	36750	5	-28.3		89	23	
2025-08-05T00:00	36800	5	-28.1		87	23	
2025-08-05T00:00	36850	5	-28.0		85	23	
2025-08-05T00:00	36900	5	-27.6		85	25	
2025-08-05T00:00	36950	5	-27.5		86	25	
2025-08-05T00:00	37000	5	-27.5		87	25	
2025-08-05T00:00	37050	5	-27.6		88	25	
2025-08-05T00:00	37100	5	-27.6		90	25	
2025-08-05T00:00	37150	5	-27.5		93	25	
2025-08-05T00:00	37200	5	-27.4		95	25	
2025-08-05T00:00	37250	4	-27.3		96	24	
2025-08-05T00:00	37300	4	-27.0		94	23	
2025-08-05T00:00	37350	4	-26.6		88	23	
2025-08-05T00:00	37400	4	-26.4		82	24	
2025-08-05T00:00	37450	4	-26.1		79	25	
2025-08-05T00:00	37500	4	-25.7		79	25	
2025-08-05T00:00	37550	4	-25.4		80	25	
2025-08-05T00:00	37600	4	-25.2		80	25	
2025-08-05T00:00	37650	4	-25.2		79	25	
2025-08-05T00:00	37700	4	-25.1		80	26	
2025-08-05T00:00	37750	4	-25.0		82	27	
2025-08-05T00:00	37800	4	-25.0		85	28	
2025-08-05T00:00	37850	4	-24.9		87	29	
2025-08-05T00:00	37900	4	-24.9		90	29	
2025-08-05T00:00	37950	4	-25.1		93	29	
2025-08-05T00:00	38000	4	-25.1		96	28	
2025-08-05T00:00	38050	4	-25.2		99	27	
2025-08-05T00:00	38100	4	-25.2		101	26	
2025-08-05T00:00	38150	4	-25.1		102	25	
2025-08-05T00:00	38200	4	-24.9		100	24	
2025-08-05T00:00	38250	4	-24.8		97	23	
2025-08-05T00:00	38300	4	-24.6		94	24	
2025-08-05T00:00	38350	4	-24.3		91	26	
2025-08-05T00:00	38400	4	-24.2		89	27	
2025-08-05T00:00	38450	4	-23.9		88	29	
2025-08-05T00:00	38500	4	-23.8		87	29	
2025-08-05T12:00	491	963	29.2	13.0	272	3	
2025-08-05T12:00	501	962	26.9	12.1	282	3	
2025-08-05T12:00	520	960	26.3	11.7	284	4	
2025-08-05T12:00	540	958	26.1	11.6	282	4	
2025-08-05T12:00	560	956	25.9	11.6	279	5	
2025-08-05T12:00	580	954	25.7	11.6	275	5	
2025-08-05T12:00	600	952	25.6	11.7	271	5	
2025-08-05T12:00	620	949	25.3	11.7	266	5	
2025-08-05T12:00	640	947	25.1	11.4	264	5	
2025-08-05T12:00	660	945	24.9	11.4	264	5	
2025-08-05T12:00	680	943	24.7	11.4	263	5	
2025-08-05T12:00	700	941	24.5	11.4	262	5	
2025-08-05T12:00	720	939	24.3	11.4	261	6	
2025-08-05T12:00	740	936	24.1	11.3	259	6	
2025-08-05T12:00	760	934	23.9	11.3	257	6	
2025-08-05T12:00	780	932	23.8	11.4	256	6	
2025-08-05T12:00	800	930	23.6	11.4	255	6	
2025-08-05T12:00	820	928	23.4	11.3	254	6	
2025-08-05T12:00	840	926	23.3	11.4	253	6	
2025-08-05T12:00	860	924	23.1	11.4	253	6	
2025-08-05T12:00	880	922	23.0	11.4	252	6	
2025-08-05T12:00	900	919	22.7	11.5	252	6	
2025-08-05T12:00	920	917	22.6	11.4	251	6	
2025-08-05T12:00	940	915	22.4	11.3	249	6	
2025-08-05T12:00	960	913	22.1	11.2	248	6	
2025-08-05T12:00	980	911	21.9	11.3	247	7	
2025-08-05T12:00	1000	909	21.6	11.0	247	7	
2025-08-05T12:00	1020	907	21.4	11.0	247	8	
2025-08-05T12:00	1040	905	21.2	10.8	248	8	
2025-08-05T12:00	1060	903	21.0	10.8	250	9	
2025-08-05T12:00	1080	901	20.7	10.8	251	9	
2025-08-05T12:00	1100	899	20.6	10.7	252	9	
2025-08-05T12:00	1120	896	20.5	10.4	253	9	
2025-08-05T12:00	1140	894	20.3	10.3	255	9	
2025-08-05T12:00	1160	892	20.0	11.0	258	9	
2025-08-05T12:00	1180	890	19.9	10.8	261	9	
2025-08-05T12:00	1200	888	19.7	10.7	264	9	
2025-08-05T12:00	1220	886	19.5	10.6	266	8	
2025-08-05T12:00	1240	884	19.3	10.8	267	9	
2025-08-05T12:00	1260	882	19.1	10.8	266	9	
2025-08-05T12:00	1280	880	18.9	10.8	264	9	
2025-08-05T12:00	1300	878	18.7	10.8	263	9	
2025-08-05T12:00	1320	876	18.5	10.5	262	9	
2025-08-05T12:00	1340	874	18.5	9.3	262	9	
2025-08-05T12:00	1360	872	18.4	9.0	261	9	
2025-08-05T12:00	1380	870	18.2	8.9	261	10	
2025-08-05T12:00	1400	868	18.1	8.9	261	10	
2025-08-05T12:00	1420	866	17.9	8.9	261	10	
2025-08-05T12:00	1440	864	17.7	8.8	261	10	
2025-08-05T12:00	1460	862	17.5	8.8	262	10	
2025-08-05T12:00	1480	860	17.3	8.7	263	10	
2025-08-05T12:00	1500	858	17.1	8.7	264	10	
2025-08-05T12:00	1520	856	16.9	8.7	266	10	
2025-08-05T12:00	1540	854	16.7	8.7	268	10	
2025-08-05T12:00	1560	852	16.5	8.7	268	10	
2025-08-05T12:00	1580	850	16.3	8.6	268	10	
2025-08-05T12:00	1600	847	16.1	8.5	268	10	
2025-08-05T12:00	1620	845	15.9	8.6	266	10	
2025-08-05T12:00	1640	843	15.7	8.5	265	9	
2025-08-05T12:00	1660	841	15.5	8.5	263	9	
2025-08-05T12:00	1680	840	15.4	8.5	260	9	
2025-08-05T12:00	1700	838	15.2	8.4	258	9	
2025-08-05T12:00	1720	836	15.0	8.4	256	8	
2025-08-05T12:00	1740	834	14.8	8.4	255	8	
2025-08-05T12:00	1760	832	14.6	8.3	255	8	
2025-08-05T12:00	1780	830	14.4	8.3	257	8	
2025-08-05T12:00	1800	828	14.2	8.3	260	8	
2025-08-05T12:00	1820	826	14.0	8.3	262	8	
2025-08-05T12:00	1840	824	13.8	8.2	264	8	
2025-08-05T12:00	1860	822	13.6	8.1	265	9	
2025-08-05T12:00	1880	820	13.5	8.1	266	9	
2025-08-05T12:00	1900	818	13.3	8.1	266	9	
2025-08-05T12:00	1920	816	13.1	8.0	266	9	
2025-08-05T12:00	1940	814	12.9	8.0	266	9	
2025-08-05T12:00	1960	812	12.7	7.9	266	9	
2025-08-05T12:00	1980	810	12.5	7.8	266	9	
2025-08-05T12:00	2000	808	12.3	7.8	266	9	
2025-08-05T12:00	2020	806	12.1	7.8	266	9	
2025-08-05T12:00	2040	804	11.9	7.7	266	8	
2025-08-05T12:00	2060	803	11.8	7.7	266	8	
2025-08-05T12:00	2080	801	11.6	7.7	264	9	
2025-08-05T12:00	2100	799	11.4	7.6	262	9	
2025-08-05T12:00	2120	797	11.2	7.5	260	9	
2025-08-05T12:00	2140	795	11.1	7.3	259	9	
2025-08-05T12:00	2160	793	10.9	7.3	258	10	
2025-08-05T12:00	2180	791	10.7	7.3	258	10	
2025-08-05T12:00	2200	789	10.5	7.3	259	11	
2025-08-05T12:00	2220	787	10.3	7.3	261	11	
2025-08-05T12:00	2240	785	10.2	7.0	263	11	
2025-08-05T12:00	2260	784	10.0	7.0	264	11	
2025-08-05T12:00	2280	782	9.8	6.9	264	11	
2025-08-05T12:00	2300	780	9.7	6.7	263	11	
2025-08-05T12:00	2320	778	9.5	6.6	261	11	
2025-08-05T12:00	2340	776	9.3	6.6	258	11	
2025-08-05T12:00	2360	774	9.2	6.6	256	11	
2025-08-05T12:00	2380	773	9.0	6.5	254	11	
2025-08-05T12:00	2400	771	8.9	6.2	252	11	
2025-08-05T12:00	2420	769	8.7	6.1	251	11	
2025-08-05T12:00	2440	767	8.5	6.2	251	10	
2025-08-05T12:00	2460	765	8.3	6.3	251	10	
2025-08-05T12:00	2480	763	8.1	6.4	250	10	
2025-08-05T12:00	2500	761	7.9	6.3	249	10	
2025-08-05T12:00	2520	759	7.7	6.3	249	11	
2025-08-05T12:00	2540	757	7.6	6.1	249	11	
2025-08-05T12:00	2560	756	7.4	5.9	249	11	
2025-08-05T12:00	2580	754	7.3	5.9	250	11	
2025-08-05T12:00	2600	752	7.1	5.8	251	11	
2025-08-05T12:00	2620	750	6.9	5.4	251	10	
2025-08-05T12:00	2640	749	6.9	4.5	250	9	
2025-08-05T12:00	2660	747	6.8	4.3	248	9	
2025-08-05T12:00	2680	745	6.6	3.8	246	8	
2025-08-05T12:00	2700	743	6.6	2.6	242	8	
2025-08-05T12:00	2720	741	6.5	2.5	239	7	
2025-08-05T12:00	2740	739	6.3	2.4	236	8	
2025-08-05T12:00	2760	738	6.1	2.5	235	8	
2025-08-05T12:00	2780	736	5.9	2.5	234	8	
2025-08-05T12:00	2800	734	5.8	2.2	233	8	
2025-08-05T12:00	2820	732	5.7	1.6	231	8	
2025-08-05T12:00	2840	730	5.5	2.2	230	8	
2025-08-05T12:00	2860	729	5.3	2.2	228	9	
2025-08-05T12:00	2880	727	5.2	1.7	227	9	
2025-08-05T12:00	2900	725	5.0	1.0	228	9	
2025-08-05T12:00	2920	723	4.8	0.8	229	10	
2025-08-05T12:00	2940	722	4.6	0.6	231	11	
2025-08-05T12:00	2960	720	4.5	0.0	234	11	
2025-08-05T12:00	2980	718	4.4	-0.5	236	12	
2025-08-05T12:00	3000	716	4.3	-1.7	239	12	
2025-08-05T12:00	3020	715	4.2	-2.2	240	13	
2025-08-05T12:00	3040	713	4.2	-2.3	241	13	
2025-08-05T12:00	3060	711	4.1	-1.2	241	13	
2025-08-05T12:00	3080	709	4.2	-0.2	241	13	
2025-08-05T12:00	3100	708	4.1	-0.5	240	12	
2025-08-05T12:00	3120	706	4.0	-1.0	238	12	
2025-08-05T12:00	3140	704	3.8	-0.9	237	11	
2025-08-05T12:00	3160	702	3.7	-0.8	235	11	
2025-08-05T12:00	3180	701	3.5	-0.5	233	11	
2025-08-05T12:00	3200	699	3.4	-0.4	232	11	
2025-08-05T12:00	3220	697	3.3	-0.4	231	12	
2025-08-05T12:00	3240	696	3.1	-0.4	230	12	
2025-08-05T12:00	3260	694	3.0	-0.4	230	12	
2025-08-05T12:00	3280	692	2.8	-0.4	230	12	
2025-08-05T12:00	3300	690	2.7	-0.3	230	12	
2025-08-05T12:00	3320	689	2.6	-0.4	231	12	
2025-08-05T12:00	3340	687	2.4	-0.4	231	12	
2025-08-05T12:00	3360	685	2.2	-0.3	233	12	
2025-08-05T12:00	3380	684	2.1	-0.3	234	12	
2025-08-05T12:00	3400	682	2.0	-0.5	235	12	
2025-08-05T12:00	3420	680	1.9	-0.6	236	12	
2025-08-05T12:00	3440	679	1.8	-0.9	236	12	
2025-08-05T12:00	3460	677	1.8	-1.3	237	13	
2025-08-05T12:00	3480	675	1.7	-1.3	236	13	
2025-08-05T12:00	3500	673	1.7	-2.9	236	13	
2025-08-05T12:00	3520	672	1.7	-3.8	235	13	
2025-08-05T12:00	3540	670	1.7	-4.1	235	13	
2025-08-05T12:00	3560	668	1.6	-4.3	234	13	
2025-08-05T12:00	3580	667	1.5	-4.5	234	13	
2025-08-05T12:00	3600	665	1.4	-5.0	234	13	
2025-08-05T12:00	3620	663	1.4	-6.1	234	13	
2025-08-05T12:00	3640	662	1.4	-7.4	235	13	
2025-08-05T12:00	3660	660	1.3	-7.7	236	13	
2025-08-05T12:00	3680	659	1.1	-7.5	237	14	
2025-08-05T12:00	3700	657	1.0	-7.7	240	14	
2025-08-05T12:00	3720	656	1.0	-8.0	241	14	
2025-08-05T12:00	3740	654	0.9	-8.8	243	15	
2025-08-05T12:00	3760	652	0.8	-7.6	244	15	
2025-08-05T12:00	3780	651	0.7	-7.4	245	14	
2025-08-05T12:00	3800	649	0.7	-9.1	246	14	
2025-08-05T12:00	3820	647	0.7	-8.5	246	14	
2025-08-05T12:00	3840	646	0.7	-8.7	247	13	
2025-08-05T12:00	3860	644	0.7	-6.7	247	13	
2025-08-05T12:00	3880	642	0.6	-5.1	248	13	
2025-08-05T12:00	3900	641	0.4	-5.3	249	13	
2025-08-05T12:00	3920	639	0.3	-5.4	249	13	
2025-08-05T12:00	3940	638	0.1	-5.5	249	13	
2025-08-05T12:00	3960	636	0.0	-6.1	249	14	
2025-08-05T12:00	3980	634	0.1	-9.0	249	14	
2025-08-05T12:00	4000	633	0.1	-9.4	248	14	
2025-08-05T12:00	4020	631	0.1	-10.0	248	14	
2025-08-05T12:00	4040	630	0.3	-12.8	248	14	
2025-08-05T12:00	4060	628	0.3	-13.5	249	14	
2025-08-05T12:00	4080	627	0.5	-14.4	251	14	
2025-08-05T12:00	4100	625	0.6	-10.0	254	15	
2025-08-05T12:00	4120	623	0.6	-9.5	256	16	
2025-08-05T12:00	4140	622	0.7	-10.1	257	16	
2025-08-05T12:00	4160	621	0.7	-12.1	258	17	
2025-08-05T12:00	4180	619	1.0	-15.5	259	17	
2025-08-05T12:00	4200	617	1.2	-16.6	260	17	
2025-08-05T12:00	4220	616	1.2	-16.3	261	16	
2025-08-05T12:00	4240	614	1.2	-15.6	262	16	
2025-08-05T12:00	4260	613	1.1	-17.5	263	16	
2025-08-05T12:00	4280	611	1.3	-23.3	263	16	
2025-08-05T12:00	4300	610	1.4	-19.3	263	16	
2025-08-05T12:00	4320	608	1.4	-15.4	263	15	
2025-08-05T12:00	4340	607	1.2	-14.3	264	15	
2025-08-05T12:00	4360	605	1.1	-13.8	264	15	
2025-08-05T12:00	4380	604	1.0	-13.8	266	15	
2025-08-05T12:00	4400	602	0.8	-13.8	269	15	
2025-08-05T12:00	4420	601	0.6	-13.9	272	15	
2025-08-05T12:00	4440	599	0.5	-14.0	275	16	
2025-08-05T12:00	4460	598	0.3	-14.1	278	16	
2025-08-05T12:00	4480	596	0.1	-14.1	279	16	
2025-08-05T12:00	4500	595	0.0	-14.2	280	16	
2025-08-05T12:00	4520	593	-0.2	-14.1	281	17	
2025-08-05T12:00	4540	592	-0.4	-14.1	282	17	
2025-08-05T12:00	4560	590	-0.6	-14.3	283	17	
2025-08-05T12:00	4580	589	-0.8	-14.3	284	17	
2025-08-05T12:00	4600	587	-1.0	-14.4	285	17	
2025-08-05T12:00	4620	586	-1.1	-14.5	286	17	
2025-08-05T12:00	4640	584	-1.3	-14.3	286	17	
2025-08-05T12:00	4660	583	-1.5	-14.4	286	17	
2025-08-05T12:00	4680	582	-1.7	-14.5	285	17	
2025-08-05T12:00	4700	580	-1.9	-14.5	283	17	
2025-08-05T12:00	4720	578	-2.1	-14.6	282	17	
2025-08-05T12:00	4740	577	-2.3	-14.5	280	17	
2025-08-05T12:00	4760	575	-2.5	-14.5	279	17	
2025-08-05T12:00	4780	574	-2.7	-14.6	279	17	
2025-08-05T12:00	4800	573	-2.9	-14.6	278	17	
2025-08-05T12:00	4820	571	-3.1	-14.4	278	17	
2025-08-05T12:00	4840	570	-3.3	-14.5	278	17	
2025-08-05T12:00	4860	568	-3.3	-14.5	276	17	
2025-08-05T12:00	4880	567	-3.2	-15.0	275	17	
2025-08-05T12:00	4900	565	-3.1	-15.7	273	18	
2025-08-05T12:00	4920	564	-3.0	-17.1	270	18	
2025-08-05T12:00	4940	563	-3.0	-18.5	269	18	
2025-08-05T12:00	4960	561	-2.9	-19.7	268	19	
2025-08-05T12:00	4980	560	-2.9	-20.6	267	19	
2025-08-05T12:00	5000	558	-3.0	-20.9	267	20	
2025-08-05T12:00	5020	557	-3.0	-20.7	266	20	
2025-08-05T12:00	5040	556	-3.0	-20.0	266	20	
2025-08-05T12:00	5060	554	-3.2	-19.5	266	20	
2025-08-05T12:00	5080	553	-3.4	-19.2	266	20	
2025-08-05T12:00	5100	551	-3.6	-18.9	266	20	
2025-08-05T12:00	5120	550	-3.7	-18.7	266	20	
2025-08-05T12:00	5140	549	-3.9	-18.6	266	20	
2025-08-05T12:00	5160	547	-3.9	-18.6	266	20	
2025-08-05T12:00	5180	546	-4.0	-18.4	266	20	
2025-08-05T12:00	5200	544	-4.2	-18.3	266	20	
2025-08-05T12:00	5220	543	-4.3	-18.0	267	20	
2025-08-05T12:00	5240	542	-4.4	-18.0	267	20	
2025-08-05T12:00	5260	540	-4.6	-18.1	267	21	
2025-08-05T12:00	5280	539	-4.7	-18.1	267	21	
2025-08-05T12:00	5300	538	-4.8	-18.2	267	21	
2025-08-05T12:00	5320	536	-4.8	-18.4	266	21	
2025-08-05T12:00	5340	535	-4.9	-18.7	265	22	
2025-08-05T12:00	5360	534	-5.0	-18.6	264	22	
2025-08-05T12:00	5380	532	-5.2	-18.6	264	21	
2025-08-05T12:00	5400	531	-5.4	-18.6	263	21	
2025-08-05T12:00	5420	529	-5.5	-18.6	262	21	
2025-08-05T12:00	5440	528	-5.7	-18.5	262	20	
2025-08-05T12:00	5460	527	-5.8	-18.8	262	20	
2025-08-05T12:00	5480	525	-5.9	-19.6	262	19	
2025-08-05T12:00	5500	524	-5.9	-20.6	263	19	
2025-08-05T12:00	5520	523	-6.0	-19.8	264	19	
2025-08-05T12:00	5540	521	-6.1	-17.8	265	20	
2025-08-05T12:00	5560	520	-6.1	-16.7	266	20	
2025-08-05T12:00	5580	519	-6.2	-15.0	267	20	
2025-08-05T12:00	5600	517	-6.3	-13.6	268	21	
2025-08-05T12:00	5620	516	-6.4	-12.8	268	21	
2025-08-05T12:00	5640	515	-6.5	-13.2	269	21	
2025-08-05T12:00	5660	513	-6.6	-13.5	269	21	
2025-08-05T12:00	5680	512	-6.7	-13.5	269	21	
2025-08-05T12:00	5700	511	-6.8	-13.7	268	21	
2025-08-05T12:00	5720	509	-6.8	-10.1	268	21	
2025-08-05T12:00	5740	508	-6.9	-8.7	268	21	
2025-08-05T12:00	5760	507	-7.1	-8.6	268	21	
2025-08-05T12:00	5780	506	-7.3	-8.6	268	21	
2025-08-05T12:00	5800	504	-7.4	-8.5	268	22	
2025-08-05T12:00	5820	503	-7.5	-8.5	268	22	
2025-08-05T12:00	5840	502	-7.6	-8.7	268	22	
2025-08-05T12:00	5860	500	-7.7	-8.8	268	22	
2025-08-05T12:00	5880	499	-7.8	-8.9	268	22	
2025-08-05T12:00	5900	498	-8.0	-9.2	267	22	
2025-08-05T12:00	5920	496	-8.1	-9.5	267	21	
2025-08-05T12:00	5940	495	-8.2	-9.8	266	21	
2025-08-05T12:00	5960	494	-8.3	-10.1	266	21	
2025-08-05T12:00	5980	493	-8.4	-10.3	266	21	
2025-08-05T12:00	6000	491	-8.5	-10.4	267	20	
2025-08-05T12:00	6020	490	-8.5	-10.7	268	20	
2025-08-05T12:00	6040	489	-8.7	-10.9	269	20	
2025-08-05T12:00	6060	488	-8.8	-11.1	271	20	
2025-08-05T12:00	6080	486	-8.9	-11.4	272	20	
2025-08-05T12:00	6100	485	-8.9	-12.7	273	20	
2025-08-05T12:00	6120	484	-8.9	-13.8	273	20	
2025-08-05T12:00	6140	483	-8.8	-14.1	273	21	
2025-08-05T12:00	6160	482	-8.9	-14.4	273	21	
2025-08-05T12:00	6180	480	-9.0	-14.5	273	21	
2025-08-05T12:00	6200	479	-9.2	-14.6	273	21	
2025-08-05T12:00	6220	478	-9.3	-14.7	274	21	
2025-08-05T12:00	6240	477	-9.5	-14.8	274	22	
2025-08-05T12:00	6260	475	-9.7	-14.9	275	22	
2025-08-05T12:00	6280	474	-9.8	-15.0	276	22	
2025-08-05T12:00	6300	473	-10.0	-15.1	276	23	
2025-08-05T12:00	6320	471	-10.2	-15.2	277	23	
2025-08-05T12:00	6340	470	-10.2	-15.6	278	23	
2025-08-05T12:00	6360	469	-10.3	-15.8	278	23	
2025-08-05T12:00	6380	468	-10.4	-15.8	278	23	
2025-08-05T12:00	6400	467	-10.6	-15.5	278	23	
2025-08-05T12:00	6420	465	-10.8	-15.3	277	23	
2025-08-05T12:00	6440	464	-10.9	-15.6	277	23	
2025-08-05T12:00	6460	463	-11.1	-15.7	276	23	
2025-08-05T12:00	6480	462	-11.3	-15.5	275	22	
2025-08-05T12:00	6500	461	-11.5	-15.5	274	22	
2025-08-05T12:00	6520	460	-11.7	-15.6	273	22	
2025-08-05T12:00	6540	458	-11.9	-15.6	273	22	
2025-08-05T12:00	6560	457	-12.0	-15.6	272	22	
2025-08-05T12:00	6580	456	-12.2	-15.6	272	22	
2025-08-05T12:00	6600	455	-12.4	-15.7	272	22	
2025-08-05T12:00	6620	454	-12.5	-16.1	272	22	
2025-08-05T12:00	6640	452	-12.6	-16.4	273	22	
2025-08-05T12:00	6660	451	-12.8	-16.7	274	22	
2025-08-05T12:00	6680	450	-12.9	-16.8	274	22	
2025-08-05T12:00	6700	449	-13.0	-16.8	274	22	
2025-08-05T12:00	6720	448	-13.2	-16.8	274	22	
2025-08-05T12:00	6740	446	-13.3	-17.1	274	22	
2025-08-05T12:00	6760	445	-13.5	-17.3	273	22	
2025-08-05T12:00	6780	444	-13.7	-17.4	273	21	
2025-08-05T12:00	6800	443	-13.8	-17.5	272	22	
2025-08-05T12:00	6820	442	-14.0	-17.4	272	22	
2025-08-05T12:00	6840	441	-14.2	-17.3	271	22	
2025-08-05T12:00	6860	440	-14.3	-17.0	271	22	
2025-08-05T12:00	6880	438	-14.5	-17.0	271	22	
2025-08-05T12:00	6900	437	-14.7	-17.1	272	22	
2025-08-05T12:00	6920	436	-14.8	-17.2	272	23	
2025-08-05T12:00	6940	435	-14.9	-17.3	272	23	
2025-08-05T12:00	6960	434	-15.1	-17.4	273	23	
2025-08-05T12:00	6980	433	-15.2	-17.4	273	24	
2025-08-05T12:00	7000	432	-15.3	-17.5	273	24	
2025-08-05T12:00	7020	430	-15.4	-17.9	273	24	
2025-08-05T12:00	7040	429	-15.5	-18.2	273	24	
2025-08-05T12:00	7060	428	-15.7	-18.3	273	24	
2025-08-05T12:00	7080	427	-15.8	-18.5	273	24	
2025-08-05T12:00	7100	426	-15.9	-18.7	272	24	
2025-08-05T12:00	7120	425	-15.9	-19.0	271	23	
2025-08-05T12:00	7140	424	-15.9	-19.6	271	23	
2025-08-05T12:00	7160	422	-16.0	-19.6	270	23	
2025-08-05T12:00	7180	421	-16.2	-19.5	269	23	
2025-08-05T12:00	7200	420	-16.3	-19.6	269	23	
2025-08-05T12:00	7220	419	-16.5	-19.6	269	23	
2025-08-05T12:00	7240	418	-16.6	-19.4	269	23	
2025-08-05T12:00	7260	417	-16.8	-19.3	269	23	
2025-08-05T12:00	7280	416	-16.9	-19.3	269	23	
2025-08-05T12:00	7300	415	-17.1	-19.3	270	23	
2025-08-05T12:00	7320	413	-17.2	-19.2	270	23	
2025-08-05T12:00	7340	412	-17.4	-19.1	270	22	
2025-08-05T12:00	7360	411	-17.5	-19.2	270	22	
2025-08-05T12:00	7380	410	-17.7	-19.2	269	22	
2025-08-05T12:00	7400	409	-17.8	-19.2	269	22	
2025-08-05T12:00	7420	408	-18.0	-19.3	268	22	
2025-08-05T12:00	7440	407	-18.1	-19.4	268	22	
2025-08-05T12:00	7460	406	-18.2	-19.4	267	22	
2025-08-05T12:00	7480	405	-18.4	-19.4	267	22	
2025-08-05T12:00	7500	404	-18.5	-19.4	267	21	
2025-08-05T12:00	7520	403	-18.7	-19.5	267	21	
2025-08-05T12:00	7540	401	-18.8	-19.6	267	21	
2025-08-05T12:00	7560	400	-19.0	-19.8	267	21	
2025-08-05T12:00	7580	399	-19.1	-19.8	267	21	
2025-08-05T12:00	7600	398	-19.3	-19.8	267	21	
2025-08-05T12:00	7620	397	-19.4	-19.8	267	21	
2025-08-05T12:00	7640	396	-19.6	-19.9	267	21	
2025-08-05T12:00	7660	395	-19.8	-20.1	267	21	
2025-08-05T12:00	7680	394	-19.9	-20.1	267	21	
2025-08-05T12:00	7700	393	-20.1	-20.2	267	21	
2025-08-05T12:00	7720	392	-20.2	-20.3	267	20	
2025-08-05T12:00	7740	391	-20.4	-20.4	267	20	
2025-08-05T12:00	7760	390	-20.6	-20.6	266	20	
2025-08-05T12:00	7780	389	-20.7	-20.7	266	20	
2025-08-05T12:00	7800	388	-20.9	-20.9	266	20	
2025-08-05T12:00	7820	387	-21.0	-21.0	267	21	
2025-08-05T12:00	7840	386	-21.2	-21.2	268	21	
2025-08-05T12:00	7860	385	-21.4	-21.4	269	21	
2025-08-05T12:00	7880	384	-21.6	-21.6	270	22	
2025-08-05T12:00	7900	383	-21.7	-22.4	271	22	
2025-08-05T12:00	7920	381	-21.8	-24.1	272	23	
2025-08-05T12:00	7940	380	-21.7	-25.1	274	24	
2025-08-05T12:00	7960	379	-21.6	-26.2	274	24	
2025-08-05T12:00	7980	378	-21.4	-26.4	274	25	
2025-08-05T12:00	8000	377	-21.5	-26.5	273	25	
2025-08-05T12:00	8020	376	-21.6	-26.8	272	25	
2025-08-05T12:00	8040	375	-21.8	-26.8	272	25	
2025-08-05T12:00	8060	374	-22.0	-26.8	272	25	
2025-08-05T12:00	8080	373	-22.2	-27.0	271	25	
2025-08-05T12:00	8100	372	-22.4	-27.2	272	25	
2025-08-05T12:00	8120	371	-22.5	-27.2	272	26	
2025-08-05T12:00	8140	370	-22.7	-27.5	273	26	
2025-08-05T12:00	8160	369	-22.9	-27.5	273	26	
2025-08-05T12:00	8180	368	-23.1	-27.4	274	26	
2025-08-05T12:00	8200	367	-23.3	-27.8	274	27	
2025-08-05T12:00	8220	366	-23.5	-28.1	274	27	
2025-08-05T12:00	8240	365	-23.6	-28.4	273	27	
2025-08-05T12:00	8260	364	-23.8	-28.6	273	27	
2025-08-05T12:00	8280	363	-23.8	-29.7	272	27	
2025-08-05T12:00	8300	362	-24.0	-30.0	272	26	
2025-08-05T12:00	8320	361	-24.1	-29.9	272	26	
2025-08-05T12:00	8340	360	-24.2	-30.7	273	26	
2025-08-05T12:00	8360	359	-24.2	-31.4	273	26	
2025-08-05T12:00	8380	358	-24.4	-31.4	273	27	
2025-08-05T12:00	8400	357	-24.6	-31.4	273	27	
2025-08-05T12:00	8420	356	-24.7	-32.2	273	27	
2025-08-05T12:00	8440	355	-24.6	-33.9	273	28	
2025-08-05T12:00	8460	354	-24.7	-34.4	272	28	
2025-08-05T12:00	8480	353	-24.8	-34.9	272	28	
2025-08-05T12:00	8500	352	-24.9	-35.0	271	29	
2025-08-05T12:00	8520	351	-25.0	-35.0	271	29	
2025-08-05T12:00	8540	350	-25.1	-35.3	271	29	
2025-08-05T12:00	8560	349	-25.2	-35.8	271	29	
2025-08-05T12:00	8580	348	-25.2	-36.4	271	30	
2025-08-05T12:00	8600	348	-25.2	-37.0	271	30	
2025-08-05T12:00	8620	347	-25.3	-37.0	271	30	
2025-08-05T12:00	8640	346	-25.4	-37.2	271	30	
2025-08-05T12:00	8660	345	-25.4	-37.6	271	30	
2025-08-05T12:00	8680	344	-25.5	-37.9	270	29	
2025-08-05T12:00	8700	343	-25.6	-38.2	270	29	
2025-08-05T12:00	8720	342	-25.7	-38.4	269	29	
2025-08-05T12:00	8740	341	-25.7	-39.0	268	29	
2025-08-05T12:00	8760	340	-25.7	-39.2	267	29	
2025-08-05T12:00	8780	339	-25.9	-39.4	266	29	
2025-08-05T12:00	8800	338	-26.1	-39.5	265	28	
2025-08-05T12:00	8820	337	-26.2	-39.8	265	28	
2025-08-05T12:00	8840	336	-26.3	-40.3	264	28	
2025-08-05T12:00	8860	335	-26.4	-40.5	263	28	
2025-08-05T12:00	8880	334	-26.5	-40.5	263	28	
2025-08-05T12:00	8900	333	-26.7	-40.4	262	28	
2025-08-05T12:00	8920	332	-26.8	-40.5	262	27	
2025-08-05T12:00	8940	332	-27.0	-40.6	261	27	
2025-08-05T12:00	8960	331	-27.1	-40.6	261	27	
2025-08-05T12:00	8980	330	-27.3	-40.8	260	27	
2025-08-05T12:00	9000	329	-27.5	-40.8	260	27	
2025-08-05T12:00	9020	328	-27.7	-40.7	260	26	
2025-08-05T12:00	9040	327	-27.9	-40.7	260	26	
2025-08-05T12:00	9060	326	-28.1	-40.5	260	26	
2025-08-05T12:00	9080	325	-28.2	-40.5	261	26	
2025-08-05T12:00	9100	324	-28.4	-40.5	261	27	
2025-08-05T12:00	9120	323	-28.6	-40.6	262	27	
2025-08-05T12:00	9140	322	-28.7	-41.2	262	27	
2025-08-05T12:00	9160	321	-28.9	-41.9	262	27	
2025-08-05T12:00	9180	321	-29.0	-42.4	263	27	
2025-08-05T12:00	9200	320	-29.1	-42.4	264	27	
2025-08-05T12:00	9220	319	-29.3	-42.3	264	27	
2025-08-05T12:00	9240	318	-29.4	-42.1	264	27	
2025-08-05T12:00	9260	317	-29.6	-42.1	264	27	
2025-08-05T12:00	9280	316	-29.8	-42.3	265	27	
2025-08-05T12:00	9300	315	-30.0	-42.3	265	27	
2025-08-05T12:00	9320	314	-30.1	-42.4	265	27	
2025-08-05T12:00	9340	314	-30.3	-42.5	265	27	
2025-08-05T12:00	9360	313	-30.5	-42.5	264	26	
2025-08-05T12:00	9380	312	-30.7	-42.5	264	26	
2025-08-05T12:00	9400	311	-30.9	-42.6	265	26	
2025-08-05T12:00	9420	310	-31.1	-42.7	265	26	
2025-08-05T12:00	9440	309	-31.3	-42.9	266	27	
2025-08-05T12:00	9460	308	-31.4	-43.2	267	27	
2025-08-05T12:00	9480	307	-31.6	-43.5	268	27	
2025-08-05T12:00	9500	306	-31.8	-43.8	269	27	
2025-08-05T12:00	9520	306	-32.0	-44.1	269	27	
2025-08-05T12:00	9540	305	-32.1	-44.2	270	27	
2025-08-05T12:00	9560	304	-32.3	-44.5	270	27	
2025-08-05T12:00	9580	303	-32.5	-44.6	270	28	
2025-08-05T12:00	9600	302	-32.7	-44.7	270	28	
2025-08-05T12:00	9620	301	-32.9	-44.8	270	28	
2025-08-05T12:00	9640	301	-33.1	-44.8	270	28	
2025-08-05T12:00	9660	300	-33.2	-44.7	270	28	
2025-08-05T12:00	9680	299	-33.4	-44.6	269	28	
2025-08-05T12:00	9700	298	-33.6	-44.6	269	28	
2025-08-05T12:00	9720	297	-33.8	-44.5	269	28	
2025-08-05T12:00	9740	296	-34.0	-44.5	268	28	
2025-08-05T12:00	9760	295	-34.2	-44.5	268	28	
2025-08-05T12:00	9780	295	-34.3	-44.3	268	28	
2025-08-05T12:00	9800	294	-34.5	-44.2	268	28	
2025-08-05T12:00	9820	293	-34.7	-44.3	268	28	
2025-08-05T12:00	9840	292	-34.9	-44.4	268	28	
2025-08-05T12:00	9860	291	-35.1	-44.3	268	28	
2025-08-05T12:00	9880	290	-35.3	-44.5	267	28	
2025-08-05T12:00	9900	290	-35.4	-44.7	267	28	
2025-08-05T12:00	9920	289	-35.6	-44.8	267	27	
2025-08-05T12:00	9940	288	-35.8	-44.8	266	28	
2025-08-05T12:00	9960	287	-36.0	-45.0	266	28	
2025-08-05T12:00	9980	286	-36.2	-45.1	266	28	
2025-08-05T12:00	10000	285	-36.4	-45.1	266	28	
2025-08-05T12:00	10018	285	-36.5	-45.2	266	28	
2025-08-05T12:00	10050	283	-36.8	-45.5	267	28	
2025-08-05T12:00	10100	281	-37.0	-49.5	269	29	
2025-08-05T12:00	10150	279	-37.2	-50.5	270	29	
2025-08-05T12:00	10200	277	-37.6	-50.5	271	29	
2025-08-05T12:00	10250	275	-38.0	-49.8	270	29	
2025-08-05T12:00	10300	273	-38.4	-50.1	270	29	
2025-08-05T12:00	10350	271	-38.8	-50.5	269	30	
2025-08-05T12:00	10400	269	-39.1	-51.1	269	30	
2025-08-05T12:00	10450	267	-39.5	-51.1	268	30	
2025-08-05T12:00	10500	265	-39.9	-51.4	268	29	
2025-08-05T12:00	10550	264	-40.4	-51.3	267	29	
2025-08-05T12:00	10600	262	-40.8	-51.5	266	28	
2025-08-05T12:00	10650	260	-41.2	-52.0	265	29	
2025-08-05T12:00	10700	258	-41.6	-52.2	265	29	
2025-08-05T12:00	10750	256	-42.0	-52.5	265	29	
2025-08-05T12:00	10800	254	-42.4	-53.0	265	29	
2025-08-05T12:00	10850	252	-42.8	-53.1	266	30	
2025-08-05T12:00	10900	250	-43.2	-52.8	266	30	
2025-08-05T12:00	10950	248	-43.7	-52.8	266	31	
2025-08-05T12:00	11000	247	-44.2	-53.1	266	31	
2025-08-05T12:00	11050	245	-44.6	-53.1	266	31	
2025-08-05T12:00	11100	243	-45.1	-53.6	266	31	
2025-08-05T12:00	11150	241	-45.5	-54.0	265	31	
2025-08-05T12:00	11200	239	-45.9	-54.1	263	30	
2025-08-05T12:00	11250	237	-46.3	-54.7	262	30	
2025-08-05T12:00	11300	236	-46.5	-56.5	260	30	
2025-08-05T12:00	11350	234	-46.7	-58.7	260	31	
2025-08-05T12:00	11400	232	-47.0	-58.9	261	31	
2025-08-05T12:00	11450	230	-47.4	-58.3	261	31	
2025-08-05T12:00	11500	229	-47.8	-58.3	261	31	
2025-08-05T12:00	11550	227	-48.1	-58.7	260	31	
2025-08-05T12:00	11600	225	-48.5	-58.8	260	31	
2025-08-05T12:00	11650	223	-48.9	-59.4	260	31	
2025-08-05T12:00	11700	222	-49.3	-60.2	260	31	
2025-08-05T12:00	11750	220	-49.6	-60.4	260	31	
2025-08-05T12:00	11800	218	-49.9	-61.1	261	31	
2025-08-05T12:00	11850	217	-50.2	-61.6	262	32	
2025-08-05T12:00	11900	215	-50.6	-62.1	262	32	
2025-08-05T12:00	11950	213	-50.7	-62.9	261	32	
2025-08-05T12:00	12000	212	-51.0	-63.7	261	33	
2025-08-05T12:00	12050	210	-51.4	-64.0	262	34	
2025-08-05T12:00	12100	209	-51.7	-64.1	262	34	
2025-08-05T12:00	12150	207	-52.0	-64.4	263	33	
2025-08-05T12:00	12200	205	-52.3	-64.9	262	32	
2025-08-05T12:00	12250	204	-52.4	-65.7	261	32	
2025-08-05T12:00	12300	202	-52.6	-66.3	260	31	
2025-08-05T12:00	12350	201	-53.0	-66.5	259	31	
2025-08-05T12:00	12400	199	-53.5	-66.8	259	31	
2025-08-05T12:00	12450	198	-53.8	-67.0	258	31	
2025-08-05T12:00	12500	196	-54.2	-67.1	258	31	
2025-08-05T12:00	12550	195	-54.6	-67.4	259	31	
2025-08-05T12:00	12600	193	-54.6	-68.0	260	31	
2025-08-05T12:00	12650	192	-54.8	-68.5	261	30	
2025-08-05T12:00	12700	190	-55.2	-68.9	261	30	
2025-08-05T12:00	12750	189	-55.7	-69.1	261	29	
2025-08-05T12:00	12800	187	-56.1	-69.2	260	29	
2025-08-05T12:00	12850	186	-56.5	-69.4	258	28	
2025-08-05T12:00	12900	184	-56.8	-69.5	258	28	
2025-08-05T12:00	12950	183	-57.2	-69.5	258	28	
2025-08-05T12:00	13000	181	-57.7	-69.5	257	27	
2025-08-05T12:00	13050	180	-58.1	-69.7	255	26	
2025-08-05T12:00	13100	178	-58.5	-69.9	253	26	
2025-08-05T12:00	13150	177	-58.8	-70.3	252	26	
2025-08-05T12:00	13200	176	-58.9	-70.4	252	26	
2025-08-05T12:00	13250	174	-59.1	-70.6	251	25	
2025-08-05T12:00	13300	173	-59.3	-71.3	250	25	
2025-08-05T12:00	13350	171	-59.5	-71.7	248	25	
2025-08-05T12:00	13400	170	-59.6	-72.0	248	24	
2025-08-05T12:00	13450	169	-59.6	-72.7	247	23	
2025-08-05T12:00	13500	167	-59.7	-73.4	247	23	
2025-08-05T12:00	13550	166	-59.8	-74.1	247	23	
2025-08-05T12:00	13600	165	-59.8	-75.1	248	24	
2025-08-05T12:00	13650	163	-59.7	-75.7	250	24	
2025-08-05T12:00	13700	162	-59.7	-76.0	253	24	
2025-08-05T12:00	13750	161	-59.9	-76.3	257	24	
2025-08-05T12:00	13800	160	-59.8	-76.6	260	23	
2025-08-05T12:00	13850	158	-60.0	-76.7	263	23	
2025-08-05T12:00	13900	157	-60.3	-76.9	266	22	
2025-08-05T12:00	13950	156	-60.6	-77.0	269	22	
2025-08-05T12:00	14000	154	-60.9	-77.0	271	22	
2025-08-05T12:00	14050	153	-61.1	-77.0	271	20	
2025-08-05T12:00	14100	152	-61.2	-77.0	270	19	
2025-08-05T12:00	14150	151	-61.4	-77.1	268	18	
2025-08-05T12:00	14200	150	-61.7	-77.2	265	18	
2025-08-05T12:00	14250	148	-62.1	-77.1	262	17	
2025-08-05T12:00	14300	147	-62.4	-77.2	259	17	
2025-08-05T12:00	14350	146	-62.7	-77.2	257	16	
2025-08-05T12:00	14400	145	-63.2	-77.4	255	17	
2025-08-05T12:00	14450	144	-63.4	-77.5	253	18	
2025-08-05T12:00	14500	142	-63.5	-77.7	250	18	
2025-08-05T12:00	14550	141	-63.6	-77.8	247	18	
2025-08-05T12:00	14600	140	-63.9	-77.9	245	17	
2025-08-05T12:00	14650	139	-64.3	-78.0	244	18	
2025-08-05T12:00	14700	138	-64.6	-78.1	245	18	
2025-08-05T12:00	14750	137	-65.0	-78.2	248	19	
2025-08-05T12:00	14800	136	-65.0	-78.4	252	19	
2025-08-05T12:00	14850	134	-64.1	-78.3	256	19	
2025-08-05T12:00	14900	133	-64.0	-78.7	259	19	
2025-08-05T12:00	14950	132	-64.2	-79.0	262	19	
2025-08-05T12:00	15000	131	-64.3	-79.3	264	18	
2025-08-05T12:00	15050	130	-64.5	-79.8	266	17	
2025-08-05T12:00	15100	129	-64.7	-80.5	264	16	
2025-08-05T12:00	15150	128	-64.9	-81.8	261	15	
2025-08-05T12:00	15200	127	-64.9	-83.0	254	15	
2025-08-05T12:00	15250	126	-64.6	-83.3	249	15	
2025-08-05T12:00	15300	125	-64.4	-83.4	245	15	
2025-08-05T12:00	15350	124	-63.2	-82.9	240	15	
2025-08-05T12:00	15400	123	-62.6	-83.1	235	16	
2025-08-05T12:00	15450	122	-62.1	-83.1	231	17	
2025-08-05T12:00	15500	121	-62.0	-83.1	230	17	
2025-08-05T12:00	15550	120	-62.3	-83.1	231	18	
2025-08-05T12:00	15600	119	-62.6	-83.1	232	19	
2025-08-05T12:00	15650	118	-62.7	-83.1	235	20	
2025-08-05T12:00	15700	117	-62.5	-83.2	239	20	
2025-08-05T12:00	15750	116	-62.3	-83.5	244	19	
2025-08-05T12:00	15800	115	-62.2	-83.7	253	18	
2025-08-05T12:00	15850	114	-62.2	-83.9	260	18	
2025-08-05T12:00	15900	113	-61.9	-83.8	265	16	
2025-08-05T12:00	15950	112	-61.5	-83.5	263	13	
2025-08-05T12:00	16000	112	-61.2	-83.3	254	11	
2025-08-05T12:00	16050	111	-60.7	-83.2	241	10	
2025-08-05T12:00	16100	110	-60.3	-83.3	232	11	
2025-08-05T12:00	16150	109	-60.3	-83.5	227	11	
2025-08-05T12:00	16200	108	-60.4	-83.7	224	12	
2025-08-05T12:00	16250	107	-60.8	-83.9	224	13	
2025-08-05T12:00	16300	106	-61.2	-84.0	227	13	
2025-08-05T12:00	16350	105	-61.5	-84.2	231	14	
2025-08-05T12:00	16400	105	-61.8	-84.5	234	14	
2025-08-05T12:00	16450	104	-62.0	-84.8	238	15	
2025-08-05T12:00	16500	103	-62.1	-84.9	245	15	
2025-08-05T12:00	16550	102	-62.2	-84.8	252	14	
2025-08-05T12:00	16600	101	-61.9	-84.6	256	14	
2025-08-05T12:00	16650	100	-61.0	-84.2	260	13	
2025-08-05T12:00	16700	100	-60.0	-84.3	265	13	
2025-08-05T12:00	16750	99	-59.5	-84.9	273	12	
2025-08-05T12:00	16800	98	-59.1	-85.2	279	12	
2025-08-05T12:00	16850	97	-59.0	-85.2	277	11	
2025-08-05T12:00	16900	97	-59.1	-85.1	274	10	
2025-08-05T12:00	16950	96	-59.2	-85.1	274	10	
2025-08-05T12:00	17000	95	-59.3	-85.2	271	9	
2025-08-05T12:00	17050	94	-59.3	-85.2	266	10	
2025-08-05T12:00	17100	93	-59.6	-85.3	266	10	
2025-08-05T12:00	17150	93	-59.6	-85.4	268	10	
2025-08-05T12:00	17200	92	-59.4	-85.4	268	9	
2025-08-05T12:00	17250	91	-59.2	-85.4	268	9	
2025-08-05T12:00	17300	91	-59.1	-85.4	267	8	
2025-08-05T12:00	17350	90	-59.1	-85.5	263	7	
2025-08-05T12:00	17400	89	-59.2	-85.5	253	6	
2025-08-05T12:00	17450	88	-58.9	-85.6	240	5	
2025-08-05T12:00	17500	88	-58.3	-85.5	229	4	
2025-08-05T12:00	17550	87	-58.0	-85.4	227	4	
2025-08-05T12:00	17600	86	-58.1	-85.3	230	4	
2025-08-05T12:00	17650	86	-58.2	-85.3	229	5	
2025-08-05T12:00	17700	85	-58.3	-85.3	227	5	
2025-08-05T12:00	17750	84	-58.5	-85.4	226	6	
2025-08-05T12:00	17800	84	-58.5	-85.5	222	6	
2025-08-05T12:00	17850	83	-58.3	-85.4	216	6	
2025-08-05T12:00	17900	82	-58.6	-85.5	211	6	
2025-08-05T12:00	17950	82	-58.8	-85.7	212	7	
2025-08-05T12:00	18000	81	-58.6	-85.7	214	7	
2025-08-05T12:00	18050	80	-58.1	-85.7	209	6	
2025-08-05T12:00	18100	80	-57.9	-85.8	192	6	
2025-08-05T12:00	18150	79	-57.2	-85.5	177	6	
2025-08-05T12:00	18200	78	-56.9	-85.3	178	7	
2025-08-05T12:00	18250	78	-57.1	-85.3	183	8	
2025-08-05T12:00	18300	77	-57.2	-85.3	189	8	
2025-08-05T12:00	18350	77	-57.1	-85.3	194	9	
2025-08-05T12:00	18400	76	-57.0	-85.3	196	9	
2025-08-05T12:00	18450	75	-57.0	-85.2	197	9	
2025-08-05T12:00	18500	75	-57.1	-85.2	197	9	
2025-08-05T12:00	18550	74	-57.2	-85.3	199	10	
2025-08-05T12:00	18600	74	-56.9	-85.2	203	10	
2025-08-05T12:00	18650	73	-57.2	-85.4	206	9	
2025-08-05T12:00	18700	73	-56.7	-85.3	207	9	
2025-08-05T12:00	18750	72	-56.5	-85.3	207	9	
2025-08-05T12:00	18800	71	-56.5	-85.2	207	9	
2025-08-05T12:00	18850	71	-56.6	-85.1	210	9	
2025-08-05T12:00	18900	70	-56.8	-85.2	215	8	
2025-08-05T12:00	18950	70	-56.7	-85.3	217	7	
2025-08-05T12:00	19000	69	-56.3	-85.4	214	6	
2025-08-05T12:00	19050	69	-55.4	-85.2	202	5	
2025-08-05T12:00	19100	68	-54.7	-84.9	190	6	
2025-08-05T12:00	19150	68	-55.0	-84.9	186	7	
2025-08-05T12:00	19200	67	-54.8	-84.7	187	7	
2025-08-05T12:00	19250	66	-54.5	-84.6	190	8	
2025-08-05T12:00	19300	66	-54.6	-84.5	192	8	
2025-08-05T12:00	19350	65	-55.0	-84.5	195	9	
2025-08-05T12:00	19400	65	-55.4	-84.6	200	9	
2025-08-05T12:00	19450	64	-55.4	-84.7	204	9	
2025-08-05T12:00	19500	64	-55.4	-84.8	205	9	
2025-08-05T12:00	19550	63	-55.3	-84.8	201	9	
2025-08-05T12:00	19600	63	-55.1	-84.8	199	9	
2025-08-05T12:00	19650	62	-55.0	-84.8	202	8	
2025-08-05T12:00	19700	62	-54.9	-84.7	210	7	
2025-08-05T12:00	19750	61	-55.0	-84.7	217	6	
2025-08-05T12:00	19800	61	-55.3	-84.7	223	6	
2025-08-05T12:00	19850	61	-55.6	-84.9	224	5	
2025-08-05T12:00	19900	60	-55.3	-84.8	218	4	
2025-08-05T12:00	19950	60	-55.2	-84.8	211	4	
2025-08-05T12:00	20000	59	-55.4	-84.9	205	4	
2025-08-05T12:00	20050	59	-55.6		202	4	
2025-08-05T12:00	20100	58	-55.5		207	4	
2025-08-05T12:00	20150	58	-55.5		213	5	
2025-08-05T12:00	20200	57	-55.8		219	5	
2025-08-05T12:00	20250	57	-56.0		227	4	
2025-08-05T12:00	20300	56	-55.9		234	3	
2025-08-05T12:00	20350	56	-55.7		230	2	
2025-08-05T12:00	20400	56	-55.3		197	2	
2025-08-05T12:00	20450	55	-55.1		174	3	
2025-08-05T12:00	20500	55	-55.2		169	5	
2025-08-05T12:00	20550	54	-55.5		168	6	
2025-08-05T12:00	20600	54	-55.8		169	7	
2025-08-05T12:00	20650	53	-56.2		172	8	
2025-08-05T12:00	20700	53	-56.0		175	7	
2025-08-05T12:00	20750	53	-55.5		176	6	
2025-08-05T12:00	20800	52	-55.3		170	6	
2025-08-05T12:00	20850	52	-54.7		165	5	
2025-08-05T12:00	20900	51	-54.1		168	5	
2025-08-05T12:00	20950	51	-53.9		175	4	
2025-08-05T12:00	21000	51	-53.9		177	2	
2025-08-05T12:00	21050	50	-53.9		139	1	
2025-08-05T12:00	21100	50	-53.9		71	1	
2025-08-05T12:00	21150	49	-54.0		58	3	
2025-08-05T12:00	21200	49	-54.3		57	3	
2025-08-05T12:00	21250	49	-54.6		59	4	
2025-08-05T12:00	21300	48	-54.5		62	3	
2025-08-05T12:00	21350	48	-54.5		70	3	
2025-08-05T12:00	21400	47	-54.2		93	2	
2025-08-05T12:00	21450	47	-54.1		135	2	
2025-08-05T12:00	21500	47	-53.9		167	2	
2025-08-05T12:00	21550	46	-53.8		167	2	
2025-08-05T12:00	21600	46	-53.6		129	2	
2025-08-05T12:00	21650	46	-53.4		107	3	
2025-08-05T12:00	21700	45	-53.5		107	4	
2025-08-05T12:00	21750	45	-53.4		112	5	
2025-08-05T12:00	21800	45	-53.4		117	5	
2025-08-05T12:00	21850	44	-53.3		118	5	
2025-08-05T12:00	21900	44	-53.1		121	5	
2025-08-05T12:00	21950	44	-53.0		127	5	
2025-08-05T12:00	22000	43	-52.9		135	5	
2025-08-05T12:00	22050	43	-53.1		140	6	
2025-08-05T12:00	22100	43	-53.4		141	6	
2025-08-05T12:00	22150	42	-53.5		139	5	
2025-08-05T12:00	22200	42	-53.7		134	5	
2025-08-05T12:00	22250	42	-53.9		125	4	
2025-08-05T12:00	22300	41	-53.8		118	5	
2025-08-05T12:00	22350	41	-53.4		118	6	
2025-08-05T12:00	22400	41	-53.5		125	6	
2025-08-05T12:00	22450	40	-53.3		137	5	
2025-08-05T12:00	22500	40	-53.7		151	5	
2025-08-05T12:00	22550	40	-53.9		161	5	
2025-08-05T12:00	22600	39	-53.9		161	5	
2025-08-05T12:00	22650	39	-53.9		153	5	
2025-08-05T12:00	22700	39	-53.9		139	4	
2025-08-05T12:00	22750	38	-53.7		129	4	
2025-08-05T12:00	22800	38	-53.6		128	4	
2025-08-05T12:00	22850	38	-53.2		136	4	
2025-08-05T12:00	22900	38	-53.0		146	4	
2025-08-05T12:00	22950	37	-52.9		157	4	
2025-08-05T12:00	23000	37	-53.0		162	3	
2025-08-05T12:00	23050	37	-53.2		152	3	
2025-08-05T12:00	23100	36	-53.0		130	3	
2025-08-05T12:00	23150	36	-52.8		117	4	
2025-08-05T12:00	23200	36	-53.0		115	5	
2025-08-05T12:00	23250	36	-53.2		120	5	
2025-08-05T12:00	23300	35	-53.2		133	5	
2025-08-05T12:00	23350	35	-52.8		147	5	
2025-08-05T12:00	23400	35	-52.5		151	5	
2025-08-05T12:00	23450	35	-52.3		150	5	
2025-08-05T12:00	23500	34	-52.1		152	6	
2025-08-05T12:00	23550	34	-51.9		151	6	
2025-08-05T12:00	23600	34	-51.7		144	6	
2025-08-05T12:00	23650	33	-51.6		132	5	
2025-08-05T12:00	23700	33	-51.7		118	5	
2025-08-05T12:00	23750	33	-51.8		111	6	
2025-08-05T12:00	23800	33	-51.6		111	7	
2025-08-05T12:00	23850	32	-51.6		115	8	
2025-08-05T12:00	23900	32	-51.8		118	8	
2025-08-05T12:00	23950	32	-52.1		120	8	
2025-08-05T12:00	24000	32	-52.2		119	7	
2025-08-05T12:00	24050	31	-51.7		113	6	
2025-08-05T12:00	24100	31	-51.5		104	6	
2025-08-05T12:00	24150	31	-51.4		96	6	
2025-08-05T12:00	24200	31	-51.5		93	7	
2025-08-05T12:00	24250	31	-51.6		94	8	
2025-08-05T12:00	24300	30	-51.7		99	8	
2025-08-05T12:00	24350	30	-51.7		106	8	
2025-08-05T12:00	24400	30	-51.6		113	7	
2025-08-05T12:00	24450	30	-51.9		119	6	
2025-08-05T12:00	24500	29	-52.1		118	6	
2025-08-05T12:00	24550	29	-52.0		112	6	
2025-08-05T12:00	24600	29	-51.9		108	6	
2025-08-05T12:00	24650	29	-51.8		108	6	
2025-08-05T12:00	24700	28	-51.6		107	5	
2025-08-05T12:00	24750	28	-51.5		97	4	
2025-08-05T12:00	24800	28	-51.5		81	4	
2025-08-05T12:00	24850	28	-51.2		73	5	
2025-08-05T12:00	24900	28	-51.0		73	6	
2025-08-05T12:00	24950	27	-50.9		77	6	
2025-08-05T12:00	25000	27	-51.0		82	7	
2025-08-05T12:00	25050	27	-51.0		85	8	
2025-08-05T12:00	25100	27	-51.2		85	8	
2025-08-05T12:00	25150	27	-51.4		85	9	
2025-08-05T12:00	25200	26	-51.4		88	10	
2025-08-05T12:00	25250	26	-51.3		93	11	
2025-08-05T12:00	25300	26	-51.2		99	11	
2025-08-05T12:00	25350	26	-51.3		102	11	
2025-08-05T12:00	25400	26	-51.3		103	10	
2025-08-05T12:00	25450	25	-51.5		102	10	
2025-08-05T12:00	25500	25	-51.5		102	10	
2025-08-05T12:00	25550	25	-51.4		104	10	
2025-08-05T12:00	25600	25	-51.3		107	10	
2025-08-05T12:00	25650	25	-51.5		109	10	
2025-08-05T12:00	25700	24	-51.5		111	10	
2025-08-05T12:00	25750	24	-51.3		111	9	
2025-08-05T12:00	25800	24	-51.4		111	7	
2025-08-05T12:00	25850	24	-51.5		112	6	
2025-08-05T12:00	25900	24	-51.6		112	6	
2025-08-05T12:00	25950	23	-51.5		111	6	
2025-08-05T12:00	26000	23	-51.5		109	6	
2025-08-05T12:00	26050	23	-51.5		103	6	
2025-08-05T12:00	26100	23	-51.4		96	6	
2025-08-05T12:00	26150	23	-51.3		91	7	
2025-08-05T12:00	26200	23	-51.0		90	7	
2025-08-05T12:00	26250	22	-50.8		92	8	
2025-08-05T12:00	26300	22	-50.6		96	8	
2025-08-05T12:00	26350	22	-50.3		102	8	
2025-08-05T12:00	26400	22	-50.0		107	8	
2025-08-05T12:00	26450	22	-49.7		111	9	
2025-08-05T12:00	26500	22	-49.0		110	8	
2025-08-05T12:00	26550	21	-48.6		110	8	
2025-08-05T12:00	26600	21	-48.7		111	8	
2025-08-05T12:00	26650	21	-48.7		113	7	
2025-08-05T12:00	26700	21	-48.5		117	7	
2025-08-05T12:00	26750	21	-48.3		121	6	
2025-08-05T12:00	26800	21	-48.1		118	6	
2025-08-05T12:00	26850	20	-47.6		105	6	
2025-08-05T12:00	26900	20	-47.3		92	7	
2025-08-05T12:00	26950	20	-47.2		88	9	
2025-08-05T12:00	27000	20	-46.8		89	11	
2025-08-05T12:00	27050	20	-46.5		91	13	
2025-08-05T12:00	27100	20	-46.1		92	13	
2025-08-05T12:00	27150	20	-45.9		93	12	
2025-08-05T12:00	27200	19	-45.8		93	11	
2025-08-05T12:00	27250	19	-45.6		93	11	
2025-08-05T12:00	27300	19	-45.3		92	12	
2025-08-05T12:00	27350	19	-45.1		91	12	
2025-08-05T12:00	27400	19	-44.9		90	12	
2025-08-05T12:00	27450	19	-44.9		87	13	
2025-08-05T12:00	27500	19	-44.7		83	14	
2025-08-05T12:00	27550	18	-44.4		80	15	
2025-08-05T12:00	27600	18	-44.4		79	16	
2025-08-05T12:00	27650	18	-44.6		79	16	
2025-08-05T12:00	27700	18	-44.8		82	16	
2025-08-05T12:00	27750	18	-45.0		84	16	
2025-08-05T12:00	27800	18	-45.0		88	16	
2025-08-05T12:00	27850	18	-44.9		90	16	
2025-08-05T12:00	27900	17	-44.9		92	16	
2025-08-05T12:00	27950	17	-44.7		93	15	
2025-08-05T12:00	28000	17	-44.5		93	15	
2025-08-05T12:00	28050	17	-44.3		94	15	
2025-08-05T12:00	28100	17	-44.2		97	14	
2025-08-05T12:00	28150	17	-44.1		99	14	
2025-08-05T12:00	28200	17	-43.8		99	13	
2025-08-05T12:00	28250	17	-43.5		98	12	
2025-08-05T12:00	28300	16	-43.3		94	12	
2025-08-05T12:00	28350	16	-43.0		91	12	
2025-08-05T12:00	28400	16	-42.9		89	12	
2025-08-05T12:00	28450	16	-42.9		88	12	
2025-08-05T12:00	28500	16	-42.8		89	12	
2025-08-05T12:00	28550	16	-42.9		88	11	
2025-08-05T12:00	28600	16	-42.9		83	10	
2025-08-05T12:00	28650	16	-42.9		79	10	
2025-08-05T12:00	28700	16	-43.0		78	10	
2025-08-05T12:00	28750	15	-42.9		81	9	
2025-08-05T12:00	28800	15	-42.8		82	9	
2025-08-05T12:00	28850	15	-42.6		80	9	
2025-08-05T12:00	28900	15	-42.4		76	9	
2025-08-05T12:00	28950	15	-42.5		72	8	
2025-08-05T12:00	29000	15	-42.7		70	8	
2025-08-05T12:00	29050	15	-42.9		71	8	
2025-08-05T12:00	29100	15	-43.0		77	9	
2025-08-05T12:00	29150	15	-43.0		86	9	
2025-08-05T12:00	29200	14	-43.1		97	10	
2025-08-05T12:00	29250	14	-42.9		106	11	
2025-08-05T12:00	29300	14	-42.3		112	12	
2025-08-05T12:00	29350	14	-41.9		115	12	
2025-08-05T12:00	29400	14	-41.9		114	11	
2025-08-05T12:00	29450	14	-42.0		109	10	
2025-08-05T12:00	29500	14	-41.9		100	9	
2025-08-05T12:00	29550	14	-41.7		92	9	
2025-08-05T12:00	29600	14	-41.3		87	9	
2025-08-05T12:00	29650	13	-41.2		86	10	
2025-08-05T12:00	29700	13	-41.3		88	10	
2025-08-05T12:00	29750	13	-41.4		91	11	
2025-08-05T12:00	29800	13	-41.3		94	12	
2025-08-05T12:00	29850	13	-41.4		97	12	
2025-08-05T12:00	29900	13	-41.5		101	13	
2025-08-05T12:00	29950	13	-41.5		106	14	
2025-08-05T12:00	30000	13	-41.4		111	15	
2025-08-05T12:00	30050	13	-41.3		115	14	
2025-08-05T12:00	30100	13	-41.4		119	14	
2025-08-05T12:00	30150	13	-41.6		123	13	
2025-08-05T12:00	30200	12	-41.9		126	13	
2025-08-05T12:00	30250	12	-42.3		131	11	
2025-08-05T12:00	30300	12	-42.4		134	10	
2025-08-05T12:00	30350	12	-42.4		134	10	
2025-08-05T12:00	30400	12	-42.1		128	10	
2025-08-05T12:00	30450	12	-41.8		122	11	
2025-08-05T12:00	30500	12	-41.7		119	12	
2025-08-05T12:00	30550	12	-41.5		118	12	
2025-08-05T12:00	30600	12	-41.3		119	12	
2025-08-05T12:00	30650	12	-41.0		120	11	
2025-08-05T12:00	30700	12	-40.8		121	10	
2025-08-05T12:00	30750	11	-40.8		120	9	
2025-08-05T12:00	30800	11	-40.7		120	9	
2025-08-05T12:00	30850	11	-40.5		121	10	
2025-08-05T12:00	30900	11	-40.2		125	11	
2025-08-05T12:00	30950	11	-40.1		129	11	
2025-08-05T12:00	31000	11	-39.9		132	11	
2025-08-05T12:00	31050	11	-39.7		132	10	
2025-08-05T12:00	31100	11	-39.7		130	9	
2025-08-05T12:00	31150	11	-39.7		128	9	
2025-08-05T12:00	31200	11	-39.5		127	9	
2025-08-05T12:00	31250	11	-39.3		126	9	
2025-08-05T12:00	31300	11	-39.2		125	9	
2025-08-05T12:00	31350	10	-39.1		123	10	
2025-08-05T12:00	31400	10	-38.8		120	10	
2025-08-05T12:00	31450	10	-38.5		116	11	
2025-08-05T12:00	31500	10	-38.3		113	11	
2025-08-05T12:00	31550	10	-38.3		111	11	
2025-08-05T12:00	31600	10	-38.3		113	10	
2025-08-05T12:00	31650	10	-38.3		116	9	
2025-08-05T12:00	31700	10	-38.4		118	9	
2025-08-05T12:00	31750	10	-38.4		116	9	
2025-08-05T12:00	31800	10	-38.4		112	9	
2025-08-05T12:00	31850	10	-38.4		106	10	
2025-08-05T12:00	31900	10	-38.5		101	11	
2025-08-05T12:00	31950	10	-38.7		97	11	
2025-08-05T12:00	32000	10	-38.8		94	11	
2025-08-05T12:00	32050	9	-38.8		92	10	
2025-08-05T12:00	32100	9	-38.7		89	10	
2025-08-05T12:00	32150	9	-38.6		86	9	
2025-08-05T12:00	32200	9	-38.6		84	10	
2025-08-05T12:00	32250	9	-38.6		84	11	
2025-08-05T12:00	32300	9	-38.6		87	12	
2025-08-05T12:00	32350	9	-38.6		91	13	
2025-08-05T12:00	32400	9	-38.8		95	14	
2025-08-05T12:00	32450	9	-39.1		100	15	
2025-08-05T12:00	32500	9	-39.2		103	16	
2025-08-05T12:00	32550	9	-39.4		104	17	
2025-08-05T12:00	32600	9	-39.2		105	17	
2025-08-05T12:00	32650	9	-38.8		106	17	
2025-08-05T12:00	32700	9	-38.7		108	18	
2025-08-05T12:00	32750	9	-38.8		111	18	
2025-08-05T12:00	32800	9	-38.9		114	18	
2025-08-05T12:00	32850	8	-39.2		118	19	
2025-08-05T12:00	32900	8	-39.5		123	19	
2025-08-05T12:00	32950	8	-39.6		126	19	
2025-08-05T12:00	33000	8	-39.4		125	18	
2025-08-05T12:00	33050	8	-38.8		122	16	
2025-08-05T12:00	33100	8	-38.0		116	15	
2025-08-05T12:00	33150	8	-37.7		108	14	
2025-08-05T12:00	33200	8	-37.4		104	14	
2025-08-05T12:00	33250	8	-37.1		104	13	
2025-08-05T12:00	33300	8	-37.0		107	12	
2025-08-05T12:00	33350	8	-37.1		107	12	
2025-08-05T12:00	33400	8	-36.8		104	12	
2025-08-05T12:00	33450	8	-36.4		101	13	
2025-08-05T12:00	33500	8	-36.2		102	14	
2025-08-05T12:00	33550	8	-35.9		104	15	
2025-08-05T12:00	33600	8	-35.5		103	15	
2025-08-05T12:00	33650	8	-35.2		100	15	
2025-08-05T12:00	33700	7	-34.7		99	15	
2025-08-05T12:00	33750	7	-34.2		100	14	
2025-08-05T12:00	33800	7	-34.0		105	14	
2025-08-05T12:00	33850	7	-33.8		110	14	
2025-08-05T12:00	33900	7	-33.7		112	14	
2025-08-05T12:00	33950	7	-33.3		112	14	
2025-08-05T12:00	34000	7	-33.0		108	14	
2025-08-05T12:00	34050	7	-32.6		101	14	
2025-08-05T12:00	34100	7	-32.0		98	14	
2025-08-05T12:00	34150	7	-31.2		101	14	
2025-08-05T12:00	34200	7	-30.8		106	14	
2025-08-05T12:00	34250	7	-30.7		108	15	
2025-08-05T12:00	34300	7	-30.5		107	15	
2025-08-05T12:00	34350	7	-30.2		109	15	
2025-08-05T12:00	34400	7	-30.1		111	15	
2025-08-05T12:00	34450	7	-30.0		110	14	
2025-08-05T12:00	34500	7	-29.8		106	12	
2025-08-05T12:00	34550	7	-29.3		100	11	
2025-08-05T12:00	34600	7	-28.9		95	10	
2025-08-05T12:00	34650	7	-28.8		89	9	
2025-08-05T12:00	34700	6	-28.8		82	9	
2025-08-05T12:00	34750	6	-28.7		77	9	
2025-08-05T12:00	34800	6	-28.4		76	11	
2025-08-05T12:00	34850	6	-28.3		76	12	
2025-08-05T12:00	34900	6	-28.2		77	11	
2025-08-05T12:00	34950	6	-28.1		76	11	
2025-08-06T00:00	491	968	17.6	9.5	31	2	
2025-08-06T00:00	501	967	18.2	9.7	19	3	
2025-08-06T00:00	520	964	18.1	9.6	17	4	
2025-08-06T00:00	540	962	18.0	9.5	16	4	
2025-08-06T00:00	560	960	17.9	9.4	14	5	
2025-08-06T00:00	580	957	17.8	9.3	12	5	
2025-08-06T00:00	600	955	17.6	9.3	10	6	
2025-08-06T00:00	620	953	17.3	9.2	9	6	
2025-08-06T00:00	640	951	17.1	9.1	9	7	
2025-08-06T00:00	660	949	17.0	9.1	9	7	
2025-08-06T00:00	680	946	16.9	8.9	9	7	
2025-08-06T00:00	700	944	16.8	8.9	10	7	
2025-08-06T00:00	720	942	16.7	8.8	11	6	
2025-08-06T00:00	740	940	16.6	8.7	12	6	
2025-08-06T00:00	760	938	16.7	8.7	13	5	
2025-08-06T00:00	780	935	16.6	8.6	16	5	
2025-08-06T00:00	800	933	16.5	8.6	19	5	
2025-08-06T00:00	820	931	16.3	8.6	23	5	
2025-08-06T00:00	840	929	16.1	8.5	26	5	
2025-08-06T00:00	860	927	16.1	8.1	29	5	
2025-08-06T00:00	880	924	16.1	7.8	30	5	
2025-08-06T00:00	900	922	15.9	7.7	29	5	
2025-08-06T00:00	920	920	15.7	7.7	27	6	
2025-08-06T00:00	940	918	15.6	7.7	27	7	
2025-08-06T00:00	960	916	15.4	7.7	29	7	
2025-08-06T00:00	980	914	15.2	7.3	31	7	
2025-08-06T00:00	1000	911	15.0	7.2	32	6	
2025-08-06T00:00	1020	909	14.9	7.3	34	6	
2025-08-06T00:00	1040	907	14.8	7.4	36	5	
2025-08-06T00:00	1060	905	14.6	7.4	39	5	
2025-08-06T00:00	1080	903	14.5	7.1	42	5	
2025-08-06T00:00	1100	901	14.4	6.8	47	4	
2025-08-06T00:00	1120	899	14.3	6.4	53	4	
2025-08-06T00:00	1140	896	14.2	5.8	57	3	
2025-08-06T00:00	1160	894	14.2	5.4	61	3	
2025-08-06T00:00	1180	892	14.1	5.4	64	3	
2025-08-06T00:00	1200	890	13.9	5.0	68	2	
2025-08-06T00:00	1220	888	14.0	4.8	68	2	
2025-08-06T00:00	1240	886	13.8	4.8	59	1	
2025-08-06T00:00	1260	884	13.7	4.7	32	1	
2025-08-06T00:00	1280	882	13.6	4.4	15	1	
2025-08-06T00:00	1300	880	13.4	4.3	24	1	
2025-08-06T00:00	1320	878	13.2	4.2	45	2	
2025-08-06T00:00	1340	875	13.0	4.1	57	2	
2025-08-06T00:00	1360	873	12.9	3.9	58	3	
2025-08-06T00:00	1380	871	12.7	3.8	54	3	
2025-08-06T00:00	1400	869	12.6	3.6	47	3	
2025-08-06T00:00	1420	867	12.4	3.7	39	3	
2025-08-06T00:00	1440	865	12.2	3.5	34	3	
2025-08-06T00:00	1460	863	12.1	3.6	30	3	
2025-08-06T00:00	1480	861	12.0	3.8	30	3	
2025-08-06T00:00	1500	859	11.8	4.1	32	2	
2025-08-06T00:00	1520	857	11.7	4.4	35	2	
2025-08-06T00:00	1540	855	11.5	4.6	36	2	
2025-08-06T00:00	1560	853	11.3	4.8	35	2	
2025-08-06T00:00	1580	851	11.2	5.0	34	2	
2025-08-06T00:00	1600	849	11.0	5.3	34	2	
2025-08-06T00:00	1620	847	10.9	5.7	38	2	
2025-08-06T00:00	1640	845	10.7	5.9	45	2	
2025-08-06T00:00	1660	843	10.6	6.3	59	2	
2025-08-06T00:00	1680	841	10.4	6.7	83	1	
2025-08-06T00:00	1700	838	10.3	8.1	117	1	
2025-08-06T00:00	1720	837	10.2	9.1	147	1	
2025-08-06T00:00	1740	835	10.3	9.6	168	2	
2025-08-06T00:00	1760	833	10.4	9.4	179	2	
2025-08-06T00:00	1780	831	10.4	8.8	189	2	
2025-08-06T00:00	1800	828	10.4	8.4	197	2	
2025-08-06T00:00	1820	827	10.3	8.3	202	2	
2025-08-06T00:00	1840	825	10.3	7.7	206	2	
2025-08-06T00:00	1860	823	10.2	7.3	213	1	
2025-08-06T00:00	1880	821	10.1	7.2	230	1	
2025-08-06T00:00	1900	819	10.0	7.1	259	1	
2025-08-06T00:00	1920	817	9.9	6.6	282	1	
2025-08-06T00:00	1940	815	9.8	6.0	292	2	
2025-08-06T00:00	1960	813	9.8	5.6	293	3	
2025-08-06T00:00	1980	811	9.6	5.3	290	3	
2025-08-06T00:00	2000	809	9.5	4.8	285	3	
2025-08-06T00:00	2020	807	9.5	3.3	278	4	
2025-08-06T00:00	2040	805	9.7	2.4	272	4	
2025-08-06T00:00	2060	803	9.6	3.7	266	4	
2025-08-06T00:00	2080	801	9.4	5.9	261	4	
2025-08-06T00:00	2100	800	9.2	6.5	257	3	
2025-08-06T00:00	2120	798	9.0	7.0	255	3	
2025-08-06T00:00	2140	796	8.8	7.0	252	3	
2025-08-06T00:00	2160	794	8.7	6.9	250	3	
2025-08-06T00:00	2180	792	8.5	7.0	249	3	
2025-08-06T00:00	2200	790	8.4	6.9	250	3	
2025-08-06T00:00	2220	788	8.3	6.7	251	3	
2025-08-06T00:00	2240	786	8.2	6.6	251	4	
2025-08-06T00:00	2260	784	8.2	6.3	250	4	
2025-08-06T00:00	2280	782	8.0	6.1	249	4	
2025-08-06T00:00	2300	780	7.9	5.8	246	4	
2025-08-06T00:00	2320	779	7.8	5.1	243	4	
2025-08-06T00:00	2340	776	7.7	4.6	241	4	
2025-08-06T00:00	2360	775	7.5	4.5	239	3	
2025-08-06T00:00	2380	773	7.3	4.2	239	3	
2025-08-06T00:00	2400	771	7.1	4.3	241	3	
2025-08-06T00:00	2420	769	6.9	4.6	244	4	
2025-08-06T00:00	2440	767	6.8	4.0	247	4	
2025-08-06T00:00	2460	765	6.6	3.7	249	4	
2025-08-06T00:00	2480	763	6.4	3.4	250	4	
2025-08-06T00:00	2500	761	6.2	3.5	249	5	
2025-08-06T00:00	2520	760	6.1	3.4	247	5	
2025-08-06T00:00	2540	758	5.8	3.2	245	5	
2025-08-06T00:00	2560	756	5.6	3.2	243	5	
2025-08-06T00:00	2580	754	5.5	2.9	243	4	
2025-08-06T00:00	2600	752	5.3	2.6	244	4	
2025-08-06T00:00	2620	750	5.1	2.5	247	4	
2025-08-06T00:00	2640	749	4.9	2.4	253	4	
2025-08-06T00:00	2660	747	4.8	2.1	257	4	
2025-08-06T00:00	2680	745	4.7	1.2	259	5	
2025-08-06T00:00	2700	743	4.6	0.4	262	5	
2025-08-06T00:00	2720	741	4.5	-0.1	263	5	
2025-08-06T00:00	2740	739	4.8	-4.4	264	5	
2025-08-06T00:00	2760	738	4.9	-7.4	266	5	
2025-08-06T00:00	2780	736	5.2	-13.8	267	5	
2025-08-06T00:00	2800	734	5.2	-17.8	270	5	
2025-08-06T00:00	2820	732	5.2	-19.5	273	5	
2025-08-06T00:00	2840	730	5.0	-20.4	276	5	
2025-08-06T00:00	2860	729	5.1	-28.3	279	4	
2025-08-06T00:00	2880	727	5.2	-34.8	282	4	
2025-08-06T00:00	2900	725	5.1	-34.8	288	4	
2025-08-06T00:00	2920	724	5.0	-35.0	292	4	
2025-08-06T00:00	2940	722	4.9	-35.4	294	4	
2025-08-06T00:00	2960	720	4.8	-35.6	295	4	
2025-08-06T00:00	2980	718	4.6	-36.1	295	4	
2025-08-06T00:00	3000	716	4.4	-36.1	295	4	
2025-08-06T00:00	3020	715	4.3	-36.3	293	5	
2025-08-06T00:00	3040	713	4.1	-36.5	292	5	
2025-08-06T00:00	3060	711	3.9	-36.8	290	5	
2025-08-06T00:00	3080	709	3.9	-38.1	289	5	
2025-08-06T00:00	3100	707	4.0	-39.5	290	5	
2025-08-06T00:00	3120	706	3.9	-39.7	292	5	
2025-08-06T00:00	3140	704	3.7	-39.7	294	6	
2025-08-06T00:00	3160	702	3.5	-39.9	294	6	
2025-08-06T00:00	3180	700	3.4	-40.0	294	6	
2025-08-06T00:00	3200	699	3.2	-39.9	291	6	
2025-08-06T00:00	3220	697	3.1	-39.8	287	6	
2025-08-06T00:00	3240	696	3.0	-39.7	284	6	
2025-08-06T00:00	3260	694	2.9	-40.2	282	6	
2025-08-06T00:00	3280	692	2.9	-40.7	280	6	
2025-08-06T00:00	3300	690	2.8	-40.0	280	6	
2025-08-06T00:00	3320	688	2.7	-39.2	280	6	
2025-08-06T00:00	3340	687	2.6	-39.3	281	6	
2025-08-06T00:00	3360	685	2.6	-39.9	281	6	
2025-08-06T00:00	3380	684	2.6	-40.6	280	6	
2025-08-06T00:00	3400	682	2.5	-39.8	279	5	
2025-08-06T00:00	3420	680	2.3	-39.8	279	6	
2025-08-06T00:00	3440	678	2.1	-39.8	280	6	
2025-08-06T00:00	3460	677	1.9	-39.6	284	6	
2025-08-06T00:00	3480	675	1.8	-39.9	287	6	
2025-08-06T00:00	3500	673	1.7	-40.5	290	6	
2025-08-06T00:00	3520	672	1.8	-42.8	295	6	
2025-08-06T00:00	3540	670	1.7	-43.6	298	6	
2025-08-06T00:00	3560	668	1.7	-44.7	302	5	
2025-08-06T00:00	3580	667	1.6	-45.3	303	5	
2025-08-06T00:00	3600	665	1.4	-45.5	303	5	
2025-08-06T00:00	3620	663	1.3	-45.0	301	5	
2025-08-06T00:00	3640	662	1.3	-42.1	296	5	
2025-08-06T00:00	3660	660	1.2	-41.8	291	6	
2025-08-06T00:00	3680	658	1.1	-41.9	287	6	
2025-08-06T00:00	3700	657	1.1	-42.0	286	7	
2025-08-06T00:00	3720	655	1.1	-41.9	288	7	
2025-08-06T00:00	3740	654	1.1	-42.9	292	8	
2025-08-06T00:00	3760	652	1.3	-43.8	297	8	
2025-08-06T00:00	3780	650	1.3	-43.7	301	8	
2025-08-06T00:00	3800	649	1.2	-43.4	303	8	
2025-08-06T00:00	3820	647	1.0	-43.5	304	8	
2025-08-06T00:00	3840	645	0.9	-43.6	304	8	
2025-08-06T00:00	3860	644	0.7	-43.6	304	8	
2025-08-06T00:00	3880	642	0.5	-43.6	304	8	
2025-08-06T00:00	3900	641	0.3	-43.6	306	7	
2025-08-06T00:00	3920	639	0.2	-43.5	309	8	
2025-08-06T00:00	3940	637	0.0	-43.7	311	8	
2025-08-06T00:00	3960	636	-0.2	-43.8	313	8	
2025-08-06T00:00	3980	634	-0.3	-43.9	313	9	
2025-08-06T00:00	4000	633	-0.4	-44.0	313	10	
2025-08-06T00:00	4020	631	-0.6	-44.1	313	11	
2025-08-06T00:00	4040	629	-0.7	-44.3	312	11	
2025-08-06T00:00	4060	628	-0.6	-44.7	312	12	
2025-08-06T00:00	4080	626	-0.4	-44.3	312	12	
2025-08-06T00:00	4100	625	-0.1	-41.5	312	11	
2025-08-06T00:00	4120	623	-0.1	-40.7	311	11	
2025-08-06T00:00	4140	622	0.0	-37.9	311	11	
2025-08-06T00:00	4160	620	-0.1	-36.4	311	12	
2025-08-06T00:00	4180	619	-0.2	-35.2	311	12	
2025-08-06T00:00	4200	617	-0.3	-36.5	311	12	
2025-08-06T00:00	4220	615	-0.5	-37.2	312	12	
2025-08-06T00:00	4240	614	-0.7	-35.4	313	12	
2025-08-06T00:00	4260	612	-0.9	-33.6	313	12	
2025-08-06T00:00	4280	611	-1.0	-33.7	312	12	
2025-08-06T00:00	4300	609	-1.2	-34.0	312	11	
2025-08-06T00:00	4320	608	-1.4	-33.2	311	12	
2025-08-06T00:00	4340	606	-1.5	-33.0	311	12	
2025-08-06T00:00	4360	605	-1.7	-33.5	311	12	
2025-08-06T00:00	4380	603	-1.8	-34.1	310	12	
2025-08-06T00:00	4400	602	-1.9	-33.9	310	12	
2025-08-06T00:00	4420	600	-2.1	-34.0	309	12	
2025-08-06T00:00	4440	599	-2.2	-34.0	309	12	
2025-08-06T00:00	4460	597	-2.4	-34.2	309	12	
2025-08-06T00:00	4480	596	-2.5	-34.6	310	12	
2025-08-06T00:00	4500	594	-2.7	-34.7	311	12	
2025-08-06T00:00	4520	593	-2.8	-34.8	313	12	
2025-08-06T00:00	4540	591	-3.0	-35.0	313	13	
2025-08-06T00:00	4560	590	-3.1	-35.6	314	13	
2025-08-06T00:00	4580	588	-3.1	-36.8	313	13	
2025-08-06T00:00	4600	587	-3.0	-39.4	313	13	
2025-08-06T00:00	4620	585	-2.7	-42.3	312	14	
2025-08-06T00:00	4640	584	-2.6	-43.6	311	14	
2025-08-06T00:00	4660	582	-2.7	-43.4	310	14	
2025-08-06T00:00	4680	581	-2.8	-42.4	310	14	
2025-08-06T00:00	4700	579	-3.0	-41.8	310	14	
2025-08-06T00:00	4720	578	-3.1	-41.9	310	14	
2025-08-06T00:00	4740	576	-3.3	-41.8	311	14	
2025-08-06T00:00	4760	575	-3.4	-41.9	312	14	
2025-08-06T00:00	4780	573	-3.5	-42.0	313	14	
2025-08-06T00:00	4800	572	-3.6	-42.2	314	13	
2025-08-06T00:00	4820	571	-3.7	-42.0	315	13	
2025-08-06T00:00	4840	569	-3.9	-41.8	315	14	
2025-08-06T00:00	4860	568	-4.0	-41.8	315	14	
2025-08-06T00:00	4880	566	-4.1	-41.9	314	14	
2025-08-06T00:00	4900	565	-4.2	-42.2	312	14	
2025-08-06T00:00	4920	563	-4.3	-42.3	311	14	
2025-08-06T00:00	4940	562	-4.4	-42.2	309	15	
2025-08-06T00:00	4960	561	-4.6	-42.4	308	15	
2025-08-06T00:00	4980	559	-4.6	-42.5	307	15	
2025-08-06T00:00	5000	558	-4.7	-42.7	306	15	
2025-08-06T00:00	5020	556	-4.9	-42.6	306	14	
2025-08-06T00:00	5040	555	-5.0	-42.5	306	14	
2025-08-06T00:00	5060	553	-5.1	-42.4	305	14	
2025-08-06T00:00	5080	552	-5.3	-42.4	305	14	
2025-08-06T00:00	5100	551	-5.4	-42.5	305	14	
2025-08-06T00:00	5120	549	-5.6	-42.7	305	14	
2025-08-06T00:00	5140	548	-5.7	-42.9	305	15	
2025-08-06T00:00	5160	546	-5.9	-43.3	304	15	
2025-08-06T00:00	5180	545	-6.1	-43.5	303	15	
2025-08-06T00:00	5200	544	-6.2	-43.5	302	15	
2025-08-06T00:00	5220	542	-6.3	-43.6	300	15	
2025-08-06T00:00	5240	541	-6.5	-43.6	300	15	
2025-08-06T00:00	5260	539	-6.6	-43.6	299	16	
2025-08-06T00:00	5280	538	-6.7	-43.7	298	16	
2025-08-06T00:00	5300	537	-6.8	-43.4	298	16	
2025-08-06T00:00	5320	535	-6.9	-43.6	298	17	
2025-08-06T00:00	5340	534	-7.0	-45.0	297	17	
2025-08-06T00:00	5360	533	-7.1	-45.2	297	17	
2025-08-06T00:00	5380	531	-7.1	-42.3	297	17	
2025-08-06T00:00	5400	530	-7.3	-41.3	296	17	
2025-08-06T00:00	5420	529	-7.5	-40.6	296	17	
2025-08-06T00:00	5440	527	-7.7	-40.1	296	17	
2025-08-06T00:00	5460	526	-7.8	-39.4	296	17	
2025-08-06T00:00	5480	524	-7.9	-39.1	296	17	
2025-08-06T00:00	5500	523	-8.0	-38.7	295	18	
2025-08-06T00:00	5520	522	-8.1	-38.3	295	18	
2025-08-06T00:00	5540	520	-8.2	-38.3	294	18	
2025-08-06T00:00	5560	519	-8.3	-38.2	293	17	
2025-08-06T00:00	5580	518	-8.4	-38.3	293	17	
2025-08-06T00:00	5600	516	-8.5	-38.4	292	17	
2025-08-06T00:00	5620	515	-8.7	-38.3	292	17	
2025-08-06T00:00	5640	514	-8.8	-38.4	292	17	
2025-08-06T00:00	5660	513	-9.0	-38.4	293	17	
2025-08-06T00:00	5680	511	-9.2	-38.5	294	17	
2025-08-06T00:00	5700	510	-9.4	-38.5	295	18	
2025-08-06T00:00	5720	508	-9.6	-38.4	296	18	
2025-08-06T00:00	5740	507	-9.8	-38.2	296	18	
2025-08-06T00:00	5760	506	-10.0	-38.1	296	18	
2025-08-06T00:00	5780	505	-10.2	-37.9	296	18	
2025-08-06T00:00	5800	503	-10.3	-37.3	296	18	
2025-08-06T00:00	5820	502	-10.5	-37.0	295	18	
2025-08-06T00:00	5840	500	-10.7	-37.3	295	18	
2025-08-06T00:00	5860	499	-10.8	-37.5	295	18	
2025-08-06T00:00	5880	498	-11.0	-37.7	295	18	
2025-08-06T00:00	5900	497	-11.2	-37.7	295	18	
2025-08-06T00:00	5920	495	-11.3	-38.0	296	18	
2025-08-06T00:00	5940	494	-11.4	-38.4	297	17	
2025-08-06T00:00	5960	493	-11.6	-38.7	298	17	
2025-08-06T00:00	5980	491	-11.7	-38.9	299	17	
2025-08-06T00:00	6000	490	-11.9	-39.2	299	17	
2025-08-06T00:00	6020	489	-12.0	-39.3	299	17	
2025-08-06T00:00	6040	488	-12.1	-39.5	299	17	
2025-08-06T00:00	6060	486	-12.2	-39.9	298	17	
2025-08-06T00:00	6080	485	-12.2	-41.1	297	18	
2025-08-06T00:00	6100	484	-12.2	-41.6	296	18	
2025-08-06T00:00	6120	483	-12.2	-41.5	295	18	
2025-08-06T00:00	6140	481	-12.3	-41.5	293	18	
2025-08-06T00:00	6160	480	-12.5	-41.6	292	18	
2025-08-06T00:00	6180	479	-12.6	-41.6	291	18	
2025-08-06T00:00	6200	478	-12.7	-41.7	290	18	
2025-08-06T00:00	6220	476	-12.8	-41.5	289	18	
2025-08-06T00:00	6240	475	-12.9	-41.1	288	19	
2025-08-06T00:00	6260	474	-12.9	-41.0	288	19	
2025-08-06T00:00	6280	472	-13.1	-40.1	287	19	
2025-08-06T00:00	6300	471	-13.2	-38.6	288	20	
2025-08-06T00:00	6320	470	-13.4	-38.3	289	20	
2025-08-06T00:00	6340	469	-13.6	-38.3	290	20	
2025-08-06T00:00	6360	468	-13.7	-38.4	291	20	
2025-08-06T00:00	6380	466	-13.9	-38.7	291	20	
2025-08-06T00:00	6400	465	-14.0	-39.2	291	20	
2025-08-06T00:00	6420	464	-14.1	-39.4	291	19	
2025-08-06T00:00	6440	463	-14.2	-39.8	290	19	
2025-08-06T00:00	6460	461	-14.4	-40.1	289	19	
2025-08-06T00:00	6480	460	-14.6	-40.2	289	19	
2025-08-06T00:00	6500	459	-14.8	-40.3	289	20	
2025-08-06T00:00	6520	458	-14.9	-40.9	289	20	
2025-08-06T00:00	6540	457	-15.1	-41.5	290	20	
2025-08-06T00:00	6560	455	-15.2	-41.6	290	20	
2025-08-06T00:00	6580	454	-15.4	-41.8	291	20	
2025-08-06T00:00	6600	453	-15.6	-42.0	291	20	
2025-08-06T00:00	6620	452	-15.7	-42.2	291	20	
2025-08-06T00:00	6640	451	-15.9	-42.5	291	20	
2025-08-06T00:00	6660	450	-16.0	-42.8	291	20	
2025-08-06T00:00	6680	448	-16.1	-42.9	290	20	
2025-08-06T00:00	6700	447	-16.2	-43.4	290	20	
2025-08-06T00:00	6720	446	-16.3	-44.0	289	20	
2025-08-06T00:00	6740	445	-16.4	-45.4	289	20	
2025-08-06T00:00	6760	444	-16.4	-46.8	289	21	
2025-08-06T00:00	6780	442	-16.5	-48.0	289	21	
2025-08-06T00:00	6800	441	-16.5	-50.2	290	21	
2025-08-06T00:00	6820	440	-16.5	-51.9	290	22	
2025-08-06T00:00	6840	439	-16.6	-52.1	291	22	
2025-08-06T00:00	6860	438	-16.7	-51.6	291	22	
2025-08-06T00:00	6880	436	-16.9	-50.9	291	22	
2025-08-06T00:00	6900	435	-17.0	-50.5	291	22	
2025-08-06T00:00	6920	434	-17.2	-50.4	292	22	
2025-08-06T00:00	6940	433	-17.3	-50.7	292	22	
2025-08-06T00:00	6960	432	-17.5	-51.2	292	21	
2025-08-06T00:00	6980	431	-17.6	-51.5	292	21	
2025-08-06T00:00	7000	430	-17.7	-51.1	293	21	
2025-08-06T00:00	7020	428	-17.8	-49.0	293	21	
2025-08-06T00:00	7040	427	-18.0	-48.1	294	21	
2025-08-06T00:00	7060	426	-18.1	-47.9	294	21	
2025-08-06T00:00	7080	425	-18.3	-47.9	294	21	
2025-08-06T00:00	7100	424	-18.4	-47.7	293	21	
2025-08-06T00:00	7120	423	-18.6	-47.7	293	21	
2025-08-06T00:00	7140	422	-18.8	-48.2	292	22	
2025-08-06T00:00	7160	420	-19.0	-48.1	291	22	
2025-08-06T00:00	7180	419	-19.1	-48.2	290	22	
2025-08-06T00:00	7200	418	-19.3	-47.9	290	22	
2025-08-06T00:00	7220	417	-19.4	-48.5	289	22	
2025-08-06T00:00	7240	416	-19.6	-49.4	289	22	
2025-08-06T00:00	7260	415	-19.7	-49.1	288	22	
2025-08-06T00:00	7280	414	-19.9	-49.0	288	22	
2025-08-06T00:00	7300	413	-20.0	-48.9	288	22	
2025-08-06T00:00	7320	412	-20.2	-48.8	288	22	
2025-08-06T00:00	7340	410	-20.4	-49.4	288	22	
2025-08-06T00:00	7360	409	-20.5	-49.7	288	22	
2025-08-06T00:00	7380	408	-20.7	-49.7	288	22	
2025-08-06T00:00	7400	407	-20.9	-49.2	288	22	
2025-08-06T00:00	7420	406	-21.0	-47.9	288	22	
2025-08-06T00:00	7440	405	-21.2	-47.7	288	23	
2025-08-06T00:00	7460	404	-21.4	-47.5	288	23	
2025-08-06T00:00	7480	403	-21.6	-47.4	287	23	
2025-08-06T00:00	7500	402	-21.7	-47.8	286	23	
2025-08-06T00:00	7520	400	-21.9	-48.0	285	23	
2025-08-06T00:00	7540	399	-22.1	-48.1	284	24	
2025-08-06T00:00	7560	398	-22.3	-48.5	284	24	
2025-08-06T00:00	7580	397	-22.5	-48.7	284	24	
2025-08-06T00:00	7600	396	-22.6	-48.7	284	25	
2025-08-06T00:00	7620	395	-22.8	-48.8	284	25	
2025-08-06T00:00	7640	394	-22.9	-49.0	284	25	
2025-08-06T00:00	7660	393	-23.1	-49.2	284	25	
2025-08-06T00:00	7680	392	-23.3	-49.5	284	25	
2025-08-06T00:00	7700	391	-23.4	-49.3	284	25	
2025-08-06T00:00	7720	390	-23.6	-49.2	284	25	
2025-08-06T00:00	7740	389	-23.8	-49.2	284	25	
2025-08-06T00:00	7760	387	-24.0	-49.7	284	25	
2025-08-06T00:00	7780	386	-24.1	-50.1	284	25	
2025-08-06T00:00	7800	385	-24.3	-50.5	284	25	
2025-08-06T00:00	7820	384	-24.5	-50.7	284	26	
2025-08-06T00:00	7840	383	-24.7	-50.7	284	26	
2025-08-06T00:00	7860	382	-24.8	-50.7	285	26	
2025-08-06T00:00	7880	381	-25.0	-50.7	285	26	
2025-08-06T00:00	7900	380	-25.2	-50.9	286	26	
2025-08-06T00:00	7920	379	-25.4	-51.2	286	26	
2025-08-06T00:00	7940	378	-25.6	-51.4	286	26	
2025-08-06T00:00	7960	377	-25.8	-51.6	287	26	
2025-08-06T00:00	7980	376	-25.9	-51.8	287	26	
2025-08-06T00:00	8000	375	-26.1	-51.6	287	26	
2025-08-06T00:00	8020	374	-26.3	-51.3	287	26	
2025-08-06T00:00	8040	373	-26.4	-51.4	287	26	
2025-08-06T00:00	8060	372	-26.6	-51.7	287	26	
2025-08-06T00:00	8080	371	-26.8	-52.3	287	26	
2025-08-06T00:00	8100	370	-26.9	-53.9	287	26	
2025-08-06T00:00	8120	369	-27.1	-54.4	287	26	
2025-08-06T00:00	8140	368	-27.3	-54.7	286	26	
2025-08-06T00:00	8160	367	-27.5	-55.4	286	26	
2025-08-06T00:00	8180	366	-27.7	-56.0	286	26	
2025-08-06T00:00	8200	365	-27.8	-55.5	286	26	
2025-08-06T00:00	8220	364	-27.9	-55.1	286	26	
2025-08-06T00:00	8240	363	-28.1	-54.6	285	26	
2025-08-06T00:00	8260	362	-28.3	-54.7	285	26	
2025-08-06T00:00	8280	361	-28.4	-55.1	285	27	
2025-08-06T00:00	8300	360	-28.6	-54.8	285	27	
2025-08-06T00:00	8320	359	-28.8	-54.4	285	27	
2025-08-06T00:00	8340	358	-28.9	-54.1	285	27	
2025-08-06T00:00	8360	357	-29.1	-53.4	286	27	
2025-08-06T00:00	8380	356	-29.2	-53.1	286	28	
2025-08-06T00:00	8400	355	-29.4	-52.9	285	28	
2025-08-06T00:00	8420	354	-29.6	-53.1	285	28	
2025-08-06T00:00	8440	353	-29.8	-53.2	285	28	
2025-08-06T00:00	8460	352	-29.9	-53.6	285	28	
2025-08-06T00:00	8480	351	-30.1	-53.8	285	28	
2025-08-06T00:00	8500	350	-30.3	-54.0	285	28	
2025-08-06T00:00	8520	349	-30.5	-53.8	284	28	
2025-08-06T00:00	8540	348	-30.7	-53.5	284	28	
2025-08-06T00:00	8560	347	-30.8	-53.8	284	28	
2025-08-06T00:00	8580	346	-31.0	-53.0	284	28	
2025-08-06T00:00	8600	345	-31.2	-52.4	283	28	
2025-08-06T00:00	8620	344	-31.3	-52.6	283	28	
2025-08-06T00:00	8640	343	-31.5	-52.7	282	28	
2025-08-06T00:00	8660	342	-31.6	-52.6	281	28	
2025-08-06T00:00	8680	341	-31.8	-52.8	281	28	
2025-08-06T00:00	8700	340	-32.0	-53.0	281	28	
2025-08-06T00:00	8720	339	-32.2	-53.0	280	28	
2025-08-06T00:00	8740	338	-32.3	-53.0	280	28	
2025-08-06T00:00	8760	337	-32.5	-53.1	280	28	
2025-08-06T00:00	8780	336	-32.7	-53.3	280	28	
2025-08-06T00:00	8800	335	-32.9	-53.6	280	29	
2025-08-06T00:00	8820	334	-33.1	-53.8	280	29	
2025-08-06T00:00	8840	333	-33.3	-53.4	280	29	
2025-08-06T00:00	8860	332	-33.4	-53.5	280	29	
2025-08-06T00:00	8880	331	-33.6	-54.0	280	29	
2025-08-06T00:00	8900	330	-33.8	-54.4	280	29	
2025-08-06T00:00	8920	330	-33.9	-54.1	280	29	
2025-08-06T00:00	8940	329	-34.1	-54.1	280	29	
2025-08-06T00:00	8960	328	-34.2	-55.0	280	29	
2025-08-06T00:00	8980	327	-34.4	-55.0	279	30	
2025-08-06T00:00	9000	326	-34.5	-55.1	279	30	
2025-08-06T00:00	9020	325	-34.7	-55.7	279	30	
2025-08-06T00:00	9040	324	-34.8	-56.3	278	30	
2025-08-06T00:00	9060	323	-34.9	-56.0	278	30	
2025-08-06T00:00	9080	322	-35.0	-56.0	278	30	
2025-08-06T00:00	9100	321	-35.1	-56.2	278	29	
2025-08-06T00:00	9120	320	-35.3	-56.2	278	29	
2025-08-06T00:00	9140	319	-35.5	-56.2	278	29	
2025-08-06T00:00	9160	318	-35.7	-56.1	278	29	
2025-08-06T00:00	9180	317	-35.9	-56.1	278	29	
2025-08-06T00:00	9200	317	-36.0	-55.5	278	29	
2025-08-06T00:00	9220	316	-36.2	-55.1	277	29	
2025-08-06T00:00	9240	315	-36.4	-54.7	277	29	
2025-08-06T00:00	9260	314	-36.6	-53.7	276	29	
2025-08-06T00:00	9280	313	-36.8	-53.4	276	29	
2025-08-06T00:00	9300	312	-36.9	-53.8	275	29	
2025-08-06T00:00	9320	311	-37.1	-55.4	274	29	
2025-08-06T00:00	9340	310	-37.3	-56.7	274	29	
2025-08-06T00:00	9360	309	-37.5	-55.9	273	29	
2025-08-06T00:00	9380	308	-37.6	-56.2	272	29	
2025-08-06T00:00	9400	308	-37.8	-56.7	272	29	
2025-08-06T00:00	9420	307	-38.0	-56.6	271	29	
2025-08-06T00:00	9440	306	-38.2	-56.8	271	29	
2025-08-06T00:00	9460	305	-38.3	-57.2	271	29	
2025-08-06T00:00	9480	304	-38.5	-57.2	271	29	
2025-08-06T00:00	9500	303	-38.7	-57.2	271	29	
2025-08-06T00:00	9520	302	-38.9	-57.1	271	29	
2025-08-06T00:00	9540	301	-39.0	-57.2	271	29	
2025-08-06T00:00	9560	300	-39.2	-56.6	270	30	
2025-08-06T00:00	9580	300	-39.3	-56.5	270	30	
2025-08-06T00:00	9600	299	-39.4	-55.9	270	30	
2025-08-06T00:00	9620	298	-39.5	-53.6	270	31	
2025-08-06T00:00	9640	297	-39.6	-51.6	270	31	
2025-08-06T00:00	9660	296	-39.8	-50.0	269	32	
2025-08-06T00:00	9680	295	-39.9	-47.6	269	32	
2025-08-06T00:00	9700	294	-40.0	-47.0	269	33	
2025-08-06T00:00	9720	293	-40.1	-47.9	269	33	
2025-08-06T00:00	9740	293	-40.3	-47.9	268	33	
2025-08-06T00:00	9760	292	-40.3	-44.8	268	32	
2025-08-06T00:00	9780	291	-40.4	-43.5	268	32	
2025-08-06T00:00	9800	290	-40.5	-43.8	268	32	
2025-08-06T00:00	9820	289	-40.7	-44.1	268	32	
2025-08-06T00:00	9840	288	-40.8	-44.4	268	32	
2025-08-06T00:00	9860	288	-41.0	-44.8	268	32	
2025-08-06T00:00	9880	287	-41.1	-44.8	268	33	
2025-08-06T00:00	9900	286	-41.3	-44.3	269	33	
2025-08-06T00:00	9920	285	-41.3	-43.8	269	33	
2025-08-06T00:00	9940	284	-41.2	-44.1	269	33	
2025-08-06T00:00	9960	283	-41.1	-44.2	269	33	
2025-08-06T00:00	9980	283	-41.2	-43.9	269	33	
2025-08-06T00:00	10000	282	-41.3	-44.2	269	33	
2025-08-06T00:00	10018	281	-41.4	-44.7	268	33	
2025-08-06T00:00	10050	280	-41.5	-45.5	268	34	
2025-08-06T00:00	10100	278	-41.9	-48.8	268	34	
2025-08-06T00:00	10150	275	-42.3	-49.0	268	35	
2025-08-06T00:00	10200	273	-42.7	-48.2	268	36	
2025-08-06T00:00	10250	271	-43.2	-47.2	267	36	
2025-08-06T00:00	10300	269	-43.6	-46.7	268	37	
2025-08-06T00:00	10350	267	-44.1	-46.7	268	38	
2025-08-06T00:00	10400	265	-44.5	-48.0	269	38	
2025-08-06T00:00	10450	263	-44.7	-53.2	268	38	
2025-08-06T00:00	10500	261	-44.8	-56.2	267	39	
2025-08-06T00:00	10550	259	-45.1	-55.6	267	40	
2025-08-06T00:00	10600	258	-45.2	-56.4	266	41	
2025-08-06T00:00	10650	256	-45.5	-56.1	266	41	
2025-08-06T00:00	10700	254	-45.8	-56.5	266	42	
2025-08-06T00:00	10750	252	-46.2	-56.9	266	42	
2025-08-06T00:00	10800	250	-46.6	-57.1	267	43	
2025-08-06T00:00	10850	248	-46.9	-57.5	268	43	
2025-08-06T00:00	10900	246	-47.3	-57.2	269	43	
2025-08-06T00:00	10950	244	-47.6	-57.4	269	43	
2025-08-06T00:00	11000	243	-47.9	-57.9	268	43	
2025-08-06T00:00	11050	241	-48.3	-58.7	269	44	
2025-08-06T00:00	11100	239	-48.5	-60.2	270	44	
2025-08-06T00:00	11150	237	-48.8	-60.6	270	44	
2025-08-06T00:00	11200	235	-49.2	-61.1	269	45	
2025-08-06T00:00	11250	233	-49.5	-62.0	267	46	
2025-08-06T00:00	11300	232	-49.6	-62.2	266	47	
2025-08-06T00:00	11350	230	-49.7	-61.9	266	48	
2025-08-06T00:00	11400	228	-49.7	-60.0	266	48	
2025-08-06T00:00	11450	226	-49.9	-58.9	265	48	
2025-08-06T00:00	11500	225	-50.2	-59.1	264	48	
2025-08-06T00:00	11550	223	-50.5	-59.6	264	47	
2025-08-06T00:00	11600	221	-50.9	-59.6	264	47	
2025-08-06T00:00	11650	220	-51.3	-60.1	263	46	
2025-08-06T00:00	11700	218	-51.5	-61.3	263	46	
2025-08-06T00:00	11750	216	-51.7	-62.3	263	46	
2025-08-06T00:00	11800	215	-52.1	-62.3	264	46	
2025-08-06T00:00	11850	213	-52.5	-62.4	264	46	
2025-08-06T00:00	11900	211	-52.9	-62.4	264	46	
2025-08-06T00:00	11950	210	-53.4	-62.4	264	46	
2025-08-06T00:00	12000	208	-53.8	-62.5	265	46	
2025-08-06T00:00	12050	206	-54.3	-62.7	266	46	
2025-08-06T00:00	12100	205	-54.5	-64.7	267	45	
2025-08-06T00:00	12150	203	-54.5	-66.9	267	45	
2025-08-06T00:00	12200	202	-54.1	-67.5	267	44	
2025-08-06T00:00	12250	200	-53.9	-68.2	266	44	
2025-08-06T00:00	12300	199	-53.6	-68.5	266	44	
2025-08-06T00:00	12350	197	-53.4	-68.1	265	44	
2025-08-06T00:00	12400	195	-53.7	-67.9	265	44	
2025-08-06T00:00	12450	194	-53.9	-67.8	265	44	
2025-08-06T00:00	12500	192	-54.2	-68.1	265	43	
2025-08-06T00:00	12550	191	-54.5	-68.7	265	43	
2025-08-06T00:00	12600	189	-54.9	-69.0	265	43	
2025-08-06T00:00	12650	188	-55.3	-69.2	266	42	
2025-08-06T00:00	12700	186	-55.6	-69.4	265	42	
2025-08-06T00:00	12750	185	-56.0	-69.3	265	41	
2025-08-06T00:00	12800	184	-56.3	-69.1	266	41	
2025-08-06T00:00	12850	182	-56.5	-69.1	267	40	
2025-08-06T00:00	12900	181	-56.4	-69.7	267	40	
2025-08-06T00:00	12950	179	-56.5	-71.4	267	40	
2025-08-06T00:00	13000	178	-56.4	-74.5	267	40	
2025-08-06T00:00	13050	177	-56.3	-74.8	268	40	
2025-08-06T00:00	13100	175	-56.2	-75.9	269	39	
2025-08-06T00:00	13150	174	-55.9	-75.9	269	38	
2025-08-06T00:00	13200	172	-56.1	-76.0	269	37	
2025-08-06T00:00	13250	171	-56.4	-75.9	269	36	
2025-08-06T00:00	13300	170	-56.5	-76.0	269	35	
2025-08-06T00:00	13350	168	-56.6	-76.7	270	34	
2025-08-06T00:00	13400	167	-56.4	-77.4	271	33	
2025-08-06T00:00	13450	166	-56.2	-78.0	271	32	
2025-08-06T00:00	13500	164	-56.0	-78.7	272	31	
2025-08-06T00:00	13550	163	-55.8	-79.5	273	30	
2025-08-06T00:00	13600	162	-56.0	-80.1	274	29	
2025-08-06T00:00	13650	161	-55.8	-80.2	273	28	
2025-08-06T00:00	13700	159	-55.5	-80.3	271	27	
2025-08-06T00:00	13750	158	-55.1	-80.3	270	27	
2025-08-06T00:00	13800	157	-55.4	-80.3	268	27	
2025-08-06T00:00	13850	156	-55.7	-80.1	267	27	
2025-08-06T00:00	13900	154	-56.0	-79.9	267	28	
2025-08-06T00:00	13950	153	-56.2	-80.1	268	29	
2025-08-06T00:00	14000	152	-56.5	-80.8	269	29	
2025-08-06T00:00	14050	151	-56.4	-81.1	269	29	
2025-08-06T00:00	14100	150	-56.1	-80.6	269	28	
2025-08-06T00:00	14150	148	-55.6	-79.7	269	27	
2025-08-06T00:00	14200	147	-55.9	-79.9	268	27	
2025-08-06T00:00	14250	146	-56.1	-80.4	269	27	
2025-08-06T00:00	14300	145	-56.0	-80.5	269	26	
2025-08-06T00:00	14350	144	-56.4	-80.5	269	26	
2025-08-06T00:00	14400	143	-56.7	-80.7	268	25	
2025-08-06T00:00	14450	142	-56.8	-80.8	266	25	
2025-08-06T00:00	14500	140	-57.0	-81.1	264	24	
2025-08-06T00:00	14550	139	-57.3	-81.5	261	24	
2025-08-06T00:00	14600	138	-57.4	-82.0	259	24	
2025-08-06T00:00	14650	137	-57.6	-81.9	258	24	
2025-08-06T00:00	14700	136	-57.9	-80.9	258	23	
2025-08-06T00:00	14750	135	-57.8	-81.7	259	23	
2025-08-06T00:00	14800	134	-57.8	-82.8	260	22	
2025-08-06T00:00	14850	133	-57.6	-81.7	262	22	
2025-08-06T00:00	14900	132	-57.3	-81.4	265	22	
2025-08-06T00:00	14950	131	-57.0	-82.3	266	22	
2025-08-06T00:00	15000	130	-57.2	-82.8	266	22	
2025-08-06T00:00	15050	129	-57.3	-82.7	268	22	
2025-08-06T00:00	15100	128	-57.4	-82.7	270	21	
2025-08-06T00:00	15150	127	-57.9	-82.9	269	20	
2025-08-06T00:00	15200	126	-58.1	-82.8	266	19	
2025-08-06T00:00	15250	125	-57.9	-82.5	261	19	
2025-08-06T00:00	15300	124	-58.0	-82.5	258	19	
2025-08-06T00:00	15350	123	-58.0	-82.6	255	19	
2025-08-06T00:00	15400	122	-58.2	-82.9	254	18	
2025-08-06T00:00	15450	121	-58.1	-83.1	254	18	
2025-08-06T00:00	15500	120	-57.8	-83.2	255	18	
2025-08-06T00:00	15550	119	-58.0	-83.5	256	18	
2025-08-06T00:00	15600	118	-58.0	-83.5	258	17	
2025-08-06T00:00	15650	117	-58.4	-83.6	258	16	
2025-08-06T00:00	15700	116	-58.6	-83.7	257	17	
2025-08-06T00:00	15750	115	-58.6	-83.9	257	17	
2025-08-06T00:00	15800	114	-58.6	-84.1	259	18	
2025-08-06T00:00	15850	113	-59.0	-84.3	260	18	
2025-08-06T00:00	15900	112	-59.2	-84.5	260	18	
2025-08-06T00:00	15950	112	-58.3	-84.4	259	17	
2025-08-06T00:00	16000	111	-58.3	-84.6	257	16	
2025-08-06T00:00	16050	110	-58.2	-84.7	257	15	
2025-08-06T00:00	16100	109	-57.9	-84.7	259	14	
2025-08-06T00:00	16150	108	-57.4	-84.5	260	13	
2025-08-06T00:00	16200	107	-57.5	-84.5	259	13	
2025-08-06T00:00	16250	106	-57.7	-84.6	256	13	
2025-08-06T00:00	16300	106	-57.9	-84.5	252	13	
2025-08-06T00:00	16350	105	-58.2	-84.6	246	13	
2025-08-06T00:00	16400	104	-58.3	-84.9	241	13	
2025-08-06T00:00	16450	103	-57.5	-84.6	241	14	
2025-08-06T00:00	16500	102	-57.6	-84.7	243	15	
2025-08-06T00:00	16550	101	-57.5	-84.6	243	15	
2025-08-06T00:00	16600	101	-57.7	-84.7	241	15	
2025-08-06T00:00	16650	100	-58.0	-84.7	240	15	
2025-08-06T00:00	16700	99	-58.3	-84.8	243	15	
2025-08-06T00:00	16750	98	-58.6	-84.9	247	16	
2025-08-06T00:00	16800	98	-58.8	-85.0	250	16	
2025-08-06T00:00	16850	97	-58.9	-85.3	253	15	
2025-08-06T00:00	16900	96	-58.4	-85.3	258	15	
2025-08-06T00:00	16950	95	-57.9	-85.3	262	15	
2025-08-06T00:00	17000	94	-57.7	-85.2	266	14	
2025-08-06T00:00	17050	94	-57.7	-85.3	269	13	
2025-08-06T00:00	17100	93	-57.3	-85.0	270	13	
2025-08-06T00:00	17150	92	-57.3	-85.0	270	13	
2025-08-06T00:00	17200	92	-57.5	-85.1	266	12	
2025-08-06T00:00	17250	91	-57.2	-85.1	256	10	
2025-08-06T00:00	17300	90	-56.8	-85.2	245	9	
2025-08-06T00:00	17350	89	-56.3	-84.9	237	9	
2025-08-06T00:00	17400	89	-56.5	-84.9	235	9	
2025-08-06T00:00	17450	88	-56.9	-85.0	237	9	
2025-08-06T00:00	17500	87	-56.5	-85.0	241	9	
2025-08-06T00:00	17550	87	-56.1	-84.9	247	10	
2025-08-06T00:00	17600	86	-56.2	-84.8	250	10	
2025-08-06T00:00	17650	85	-56.4	-84.9	252	11	
2025-08-06T00:00	17700	85	-56.2	-84.9	256	11	
2025-08-06T00:00	17750	84	-56.0	-85.0	263	11	
2025-08-06T00:00	17800	83	-55.1	-84.7	269	10	
2025-08-06T00:00	17850	83	-54.8	-84.6	271	10	
2025-08-06T00:00	17900	82	-54.7	-84.4	270	10	
2025-08-06T00:00	17950	81	-54.8	-84.4	270	9	
2025-08-06T00:00	18000	81	-55.0	-84.3	271	9	
2025-08-06T00:00	18050	80	-55.2	-84.3	267	8	
2025-08-06T00:00	18100	79	-55.3	-84.3	260	7	
2025-08-06T00:00	18150	79	-55.7	-84.5	253	7	
2025-08-06T00:00	18200	78	-56.0	-84.6	250	7	
2025-08-06T00:00	18250	78	-56.4	-84.7	253	7	
2025-08-06T00:00	18300	77	-56.6	-84.9	259	7	
2025-08-06T00:00	18350	76	-56.7	-85.0	259	7	
2025-08-06T00:00	18400	76	-56.7	-85.0	257	8	
2025-08-06T00:00	18450	75	-56.6	-85.0	257	10	
2025-08-06T00:00	18500	75	-56.5	-85.0	259	10	
2025-08-06T00:00	18550	74	-56.4	-85.0	260	10	
2025-08-06T00:00	18600	73	-56.5	-85.0	258	9	
2025-08-06T00:00	18650	73	-56.5	-85.1	258	9	
2025-08-06T00:00	18700	72	-56.2	-85.0	261	9	
2025-08-06T00:00	18750	72	-56.1	-85.0	266	9	
2025-08-06T00:00	18800	71	-56.3	-85.1	267	8	
2025-08-06T00:00	18850	71	-56.0	-85.0	263	6	
2025-08-06T00:00	18900	70	-55.5	-84.8	256	5	
2025-08-06T00:00	18950	69	-55.8	-84.8	253	4	
2025-08-06T00:00	19000	69	-56.0	-84.8	251	4	
2025-08-06T00:00	19050	68	-56.3	-84.7	245	4	
2025-08-06T00:00	19100	68	-56.8	-84.9	241	4	
2025-08-06T00:00	19150	67	-57.1	-85.3	241	5	
2025-08-06T00:00	19200	67	-56.9	-85.4	243	5	
2025-08-06T00:00	19250	66	-56.1	-85.3	242	4	
2025-08-06T00:00	19300	66	-55.9	-85.3	231	4	
2025-08-06T00:00	19350	65	-55.4	-85.1	209	4	
2025-08-06T00:00	19400	65	-55.0	-84.9	191	4	
2025-08-06T00:00	19450	64	-55.1	-84.7	182	5	
2025-08-06T00:00	19500	64	-55.4	-84.6	180	6	
2025-08-06T00:00	19550	63	-55.8	-84.6	184	7	
2025-08-06T00:00	19600	63	-56.1	-84.8	190	7	
2025-08-06T00:00	19650	62	-56.3	-84.8	198	6	
2025-08-06T00:00	19700	62	-56.7	-85.0	206	6	
2025-08-06T00:00	19750	61	-56.9	-85.3	215	5	
2025-08-06T00:00	19800	61	-56.4	-85.5	226	4	
2025-08-06T00:00	19850	60	-55.5	-85.2	233	3	
2025-08-06T00:00	19900	60	-55.1	-85.0	233	3	
2025-08-06T00:00	19950	59	-55.1	-85.0	230	3	
2025-08-06T00:00	20000	59	-54.8	-85.0	221	3	
2025-08-06T00:00	20050	58	-54.2		192	1	
2025-08-06T00:00	20100	58	-53.7		104	2	
2025-08-06T00:00	20150	58	-53.0		89	4	
2025-08-06T00:00	20200	57	-52.5		92	5	
2025-08-06T00:00	20250	57	-52.8		98	6	
2025-08-06T00:00	20300	56	-53.1		104	6	
2025-08-06T00:00	20350	56	-53.4		110	7	
2025-08-06T00:00	20400	55	-53.7		117	7	
2025-08-06T00:00	20450	55	-53.9		125	7	
2025-08-06T00:00	20500	54	-53.7		138	6	
2025-08-06T00:00	20550	54	-53.6		151	5	
2025-08-06T00:00	20600	54	-53.5		160	4	
2025-08-06T00:00	20650	53	-53.6		167	4	
2025-08-06T00:00	20700	53	-54.0		173	4	
2025-08-06T00:00	20750	52	-54.1		177	4	
2025-08-06T00:00	20800	52	-54.3		176	4	
2025-08-06T00:00	20850	52	-54.5		173	4	
2025-08-06T00:00	20900	51	-54.8		170	4	
2025-08-06T00:00	20950	51	-55.1		168	4	
2025-08-06T00:00	21000	50	-55.0		169	5	
2025-08-06T00:00	21050	50	-54.9		177	5	
2025-08-06T00:00	21100	50	-54.6		189	6	
2025-08-06T00:00	21150	49	-54.2		200	6	
2025-08-06T00:00	21200	49	-54.2		209	6	
2025-08-06T00:00	21250	48	-53.8		218	5	
2025-08-06T00:00	21300	48	-53.8		225	3	
2025-08-06T00:00	21350	48	-53.8		227	3	
2025-08-06T00:00	21400	47	-53.7		231	2	
2025-08-06T00:00	21450	47	-53.8		251	1	
2025-08-06T00:00	21500	47	-53.8		306	1	
2025-08-06T00:00	21550	46	-54.0		348	0	
2025-08-06T00:00	21600	46	-54.2		219	0	
2025-08-06T00:00	21650	46	-54.2		176	0	
2025-08-06T00:00	21700	45	-54.1		110	1	
2025-08-06T00:00	21750	45	-53.9		86	1	
2025-08-06T00:00	21800	44	-53.8		75	1	
2025-08-06T00:00	21850	44	-53.9		80	1	
2025-08-06T00:00	21900	44	-54.0		99	2	
2025-08-06T00:00	21950	43	-54.2		109	3	
2025-08-06T00:00	22000	43	-54.5		110	3	
2025-08-06T00:00	22050	43	-54.6		104	3	
2025-08-06T00:00	22100	42	-54.7		95	3	
2025-08-06T00:00	22150	42	-54.7		95	3	
2025-08-06T00:00	22200	42	-54.9		103	3	
2025-08-06T00:00	22250	41	-55.3		110	3	
2025-08-06T00:00	22300	41	-55.5		117	2	
2025-08-06T00:00	22350	41	-55.8		124	3	
2025-08-06T00:00	22400	41	-56.0		122	3	
2025-08-06T00:00	22450	40	-55.4		114	4	
2025-08-06T00:00	22500	40	-55.2		109	5	
2025-08-06T00:00	22550	40	-55.1		109	6	
2025-08-06T00:00	22600	39	-55.1		113	6	
2025-08-06T00:00	22650	39	-55.1		118	7	
2025-08-06T00:00	22700	39	-55.2		124	7	
2025-08-06T00:00	22750	38	-55.4		129	7	
2025-08-06T00:00	22800	38	-55.0		135	7	
2025-08-06T00:00	22850	38	-54.5		142	7	
2025-08-06T00:00	22900	37	-54.6		148	7	
2025-08-06T00:00	22950	37	-54.7		149	7	
2025-08-06T00:00	23000	37	-54.9		146	8	
2025-08-06T00:00	23050	37	-54.8		143	8	
2025-08-06T00:00	23100	36	-54.4		140	8	
2025-08-06T00:00	23150	36	-54.4		137	7	
2025-08-06T00:00	23200	36	-54.4		132	8	
2025-08-06T00:00	23250	35	-54.2		127	8	
2025-08-06T00:00	23300	35	-53.9		122	9	
2025-08-06T00:00	23350	35	-53.8		120	9	
2025-08-06T00:00	23400	35	-53.7		121	11	
2025-08-06T00:00	23450	34	-53.7		123	12	
2025-08-06T00:00	23500	34	-53.4		125	13	
2025-08-06T00:00	23550	34	-53.4		130	12	
2025-08-06T00:00	23600	34	-53.1		136	10	
2025-08-06T00:00	23650	33	-53.1		140	10	
2025-08-06T00:00	23700	33	-52.6		144	9	
2025-08-06T00:00	23750	33	-51.8		149	8	
2025-08-06T00:00	23800	33	-51.5		151	6	
2025-08-06T00:00	23850	32	-51.1		145	6	
2025-08-06T00:00	23900	32	-50.6		137	7	
2025-08-06T00:00	23950	32	-50.1		131	8	
2025-08-06T00:00	24000	32	-49.5		127	8	
2025-08-06T00:00	24050	31	-49.3		127	8	
2025-08-06T00:00	24100	31	-48.8		130	7	
2025-08-06T00:00	24150	31	-48.5		132	6	
2025-08-06T00:00	24200	31	-48.2		127	4	
2025-08-06T00:00	24250	30	-47.9		92	2	
2025-08-06T00:00	24300	30	-47.6		43	3	
2025-08-06T00:00	24350	30	-47.2		34	4	
2025-08-06T00:00	24400	30	-47.0		36	5	
2025-08-06T00:00	24450	29	-47.2		40	5	
2025-08-06T00:00	24500	29	-47.4		45	4	
2025-08-06T00:00	24550	29	-47.5		50	4	
2025-08-06T00:00	24600	29	-47.8		51	5	
2025-08-06T00:00	24650	29	-47.6		49	6	
2025-08-06T00:00	24700	28	-47.5		49	6	
2025-08-06T00:00	24750	28	-47.6		51	7	
2025-08-06T00:00	24800	28	-47.7		52	7	
2025-08-06T00:00	24850	28	-47.8		52	8	
2025-08-06T00:00	24900	28	-48.1		50	8	
2025-08-06T00:00	24950	27	-48.5		47	9	
2025-08-06T00:00	25000	27	-48.7		43	10	
2025-08-06T00:00	25050	27	-48.8		41	10	
2025-08-06T00:00	25100	27	-48.9		41	10	
2025-08-06T00:00	25150	27	-49.3		41	10	
2025-08-06T00:00	25200	26	-49.6		45	10	
2025-08-06T00:00	25250	26	-49.7		51	10	
2025-08-06T00:00	25300	26	-49.8		59	9	
2025-08-06T00:00	25350	26	-49.8		70	8	
2025-08-06T00:00	25400	26	-49.7		82	7	
2025-08-06T00:00	25450	25	-50.0		93	7	
2025-08-06T00:00	25500	25	-50.4		104	7	
2025-08-06T00:00	25550	25	-50.6		112	7	
2025-08-06T00:00	25600	25	-50.8		117	6	
2025-08-06T00:00	25650	25	-50.9		119	6	
2025-08-06T00:00	25700	24	-51.0		119	6	
2025-08-06T00:00	25750	24	-51.0		114	5	
2025-08-06T00:00	25800	24	-50.9		103	5	
2025-08-06T00:00	25850	24	-51.1		91	4	
2025-08-06T00:00	25900	24	-51.1		76	4	
2025-08-06T00:00	25950	23	-50.9		64	5	
2025-08-06T00:00	26000	23	-50.4		59	6	
2025-08-06T00:00	26050	23	-49.8		60	7	
2025-08-06T00:00	26100	23	-49.6		65	8	
2025-08-06T00:00	26150	23	-49.5		70	9	
2025-08-06T00:00	26200	23	-49.4		74	10	
2025-08-06T00:00	26250	22	-49.3		75	11	
2025-08-06T00:00	26300	22	-49.1		76	11	
2025-08-06T00:00	26350	22	-48.9		77	10	
2025-08-06T00:00	26400	22	-48.4		80	9	
2025-08-06T00:00	26450	22	-48.7		82	9	
2025-08-06T00:00	26500	22	-48.9		81	10	
2025-08-06T00:00	26550	21	-48.7		78	11	
2025-08-06T00:00	26600	21	-48.5		79	11	
2025-08-06T00:00	26650	21	-48.6		82	11	
2025-08-06T00:00	26700	21	-48.8		85	10	
2025-08-06T00:00	26750	21	-48.8		86	10	
2025-08-06T00:00	26800	21	-48.7		86	9	
2025-08-06T00:00	26850	20	-48.6		89	9	
2025-08-06T00:00	26900	20	-48.5		91	9	
2025-08-06T00:00	26950	20	-48.4		91	8	
2025-08-06T00:00	27000	20	-48.4		90	8	
2025-08-06T00:00	27050	20	-48.3		89	8	
2025-08-06T00:00	27100	20	-48.1		88	9	
2025-08-06T00:00	27150	20	-47.9		88	10	
2025-08-06T00:00	27200	19	-47.7		90	10	
2025-08-06T00:00	27250	19	-47.5		94	11	
2025-08-06T00:00	27300	19	-47.8		102	10	
2025-08-06T00:00	27350	19	-47.7		110	9	
2025-08-06T00:00	27400	19	-47.3		117	9	
2025-08-06T00:00	27450	19	-47.2		124	9	
2025-08-06T00:00	27500	19	-47.1		132	9	
2025-08-06T00:00	27550	18	-46.8		137	8	
2025-08-06T00:00	27600	18	-46.5		141	8	
2025-08-06T00:00	27650	18	-46.2		141	7	
2025-08-06T00:00	27700	18	-46.4		134	6	
2025-08-06T00:00	27750	18	-46.0		122	7	
2025-08-06T00:00	27800	18	-45.8		110	8	
2025-08-06T00:00	27850	18	-45.9		105	9	
2025-08-06T00:00	27900	17	-46.1		105	10	
2025-08-06T00:00	27950	17	-46.1		107	12	
2025-08-06T00:00	28000	17	-45.7		109	13	
2025-08-06T00:00	28050	17	-45.3		111	14	
2025-08-06T00:00	28100	17	-45.0		112	14	
2025-08-06T00:00	28150	17	-44.9		113	13	
2025-08-06T00:00	28200	17	-44.7		113	12	
2025-08-06T00:00	28250	17	-44.5		113	11	
2025-08-06T00:00	28300	16	-44.1		114	11	
2025-08-06T00:00	28350	16	-43.6		116	12	
2025-08-06T00:00	28400	16	-43.5		118	14	
2025-08-06T00:00	28450	16	-43.5		120	15	
2025-08-06T00:00	28500	16	-43.5		122	15	
2025-08-06T00:00	28550	16	-43.3		124	14	
2025-08-06T00:00	28600	16	-43.2		126	12	
2025-08-06T00:00	28650	16	-42.9		126	10	
2025-08-06T00:00	28700	15	-42.3		128	9	
2025-08-06T00:00	28750	15	-41.9		133	8	
2025-08-06T00:00	28800	15	-42.1		133	7	
2025-08-06T00:00	28850	15	-41.8		127	7	
2025-08-06T00:00	28900	15	-41.6		115	7	
2025-08-06T00:00	28950	15	-41.6		105	7	
2025-08-06T00:00	29000	15	-41.1		100	7	
2025-08-06T00:00	29050	15	-40.6		98	8	
2025-08-06T00:00	29100	15	-40.3		99	7	
2025-08-06T00:00	29150	14	-40.3		98	7	
2025-08-06T00:00	29200	14	-40.3		94	7	
2025-08-06T00:00	29250	14	-40.3		83	6	
2025-08-06T00:00	29300	14	-40.1		69	6	
2025-08-06T00:00	29350	14	-40.1		56	7	
2025-08-06T00:00	29400	14	-40.3		47	8	
2025-08-06T00:00	29450	14	-40.6		42	9	
2025-08-06T00:00	29500	14	-40.6		40	10	
2025-08-06T00:00	29550	14	-40.8		40	11	
2025-08-06T00:00	29600	14	-40.9		42	11	
2025-08-06T00:00	29650	13	-41.1		46	11	
2025-08-06T00:00	29700	13	-41.3		50	10	
2025-08-06T00:00	29750	13	-41.6		55	10	
2025-08-06T00:00	29800	13	-41.8		61	10	
2025-08-06T00:00	29850	13	-41.8		68	10	
2025-08-06T00:00	29900	13	-41.9		76	10	
2025-08-06T00:00	29950	13	-42.1		84	10	
2025-08-06T00:00	30000	13	-42.4		89	10	
2025-08-06T00:00	30050	13	-42.3		91	8	
2025-08-06T00:00	30100	13	-42.1		90	7	
2025-08-06T00:00	30150	13	-41.8		85	7	
2025-08-06T00:00	30200	12	-41.9		73	6	
2025-08-06T00:00	30250	12	-42.0		60	7	
2025-08-06T00:00	30300	12	-41.9		53	8	
2025-08-06T00:00	30350	12	-41.9		50	9	
2025-08-06T00:00	30400	12	-42.2		51	10	
2025-08-06T00:00	30450	12	-42.3		53	11	
2025-08-06T00:00	30500	12	-42.1		54	11	
2025-08-06T00:00	30550	12	-42.1		56	10	
2025-08-06T00:00	30600	12	-42.4		59	9	
2025-08-06T00:00	30650	12	-42.5		62	9	
2025-08-06T00:00	30700	12	-42.3		64	9	
2025-08-06T00:00	30750	11	-42.1		67	10	
2025-08-06T00:00	30800	11	-41.8		70	10	
2025-08-06T00:00	30850	11	-41.6		75	10	
2025-08-06T00:00	30900	11	-41.8		83	9	
2025-08-06T00:00	30950	11	-42.0		90	9	
2025-08-06T00:00	31000	11	-42.4		92	8	
2025-08-06T00:00	31050	11	-42.4		89	8	
2025-08-06T00:00	31100	11	-42.4		81	7	
2025-08-06T00:00	31150	11	-42.4		72	8	
2025-08-06T00:00	31200	11	-42.4		69	8	
2025-08-06T00:00	31250	11	-42.3		69	9	
2025-08-06T00:00	31300	11	-42.1		72	10	
2025-08-06T00:00	31350	10	-41.7		73	10	
2025-08-06T00:00	31400	10	-41.4		73	10	
2025-08-06T00:00	31450	10	-41.4		72	11	
2025-08-06T00:00	31500	10	-41.2		74	11	
2025-08-06T00:00	31550	10	-40.8		82	10	
2025-08-06T00:00	31600	10	-40.5		93	10	
2025-08-06T00:00	31650	10	-40.5		99	9	
2025-08-06T00:00	31700	10	-40.4		96	9	
2025-08-06T00:00	31750	10	-39.9		88	10	
2025-08-06T00:00	31800	10	-39.2		84	11	
2025-08-06T00:00	31850	10	-38.6		82	11	
2025-08-06T00:00	31900	10	-38.6		81	11	
2025-08-06T00:00	31950	10	-39.0		77	11	
2025-08-06T00:00	32000	10	-38.8		76	12	
2025-08-06T00:00	32050	9	-38.7		77	13	
2025-08-06T00:00	32100	9	-38.7		80	14	
2025-08-06T00:00	32150	9	-38.6		84	16	
2025-08-06T00:00	32200	9	-38.7		87	17	
2025-08-06T00:00	32250	9	-38.7		90	19	
2025-08-06T00:00	32300	9	-38.6		92	21	
2025-08-06T00:00	32350	9	-38.3		94	22	
2025-08-06T00:00	32400	9	-38.4		95	23	
2025-08-06T00:00	32450	9	-38.3		96	23	
2025-08-06T00:00	32500	9	-38.4		98	22	
2025-08-06T00:00	32550	9	-38.6		101	22	
2025-08-06T00:00	32600	9	-38.6		103	21	
2025-08-06T00:00	32650	9	-38.7		105	21	
2025-08-06T00:00	32700	9	-38.8		106	19	
2025-08-06T00:00	32750	9	-38.7		106	17	
2025-08-06T00:00	32800	8	-38.6		106	15	
2025-08-06T00:00	32850	8	-38.6		106	13	
2025-08-06T00:00	32900	8	-38.6		106	13	
2025-08-06T00:00	32950	8	-38.4		107	13	
2025-08-06T00:00	33000	8	-38.0		106	14	
2025-08-06T00:00	33050	8	-37.8		106	14	
2025-08-06T00:00	33100	8	-37.8		108	14	
2025-08-06T00:00	33150	8	-37.7		112	14	
2025-08-06T00:00	33200	8	-37.4		116	14	
2025-08-06T00:00	33250	8	-36.9		115	13	
2025-08-06T00:00	33300	8	-36.5		108	14	
2025-08-06T00:00	33350	8	-36.0		101	15	
2025-08-06T00:00	33400	8	-35.9		97	16	
2025-08-06T00:00	33450	8	-35.8		95	18	
2025-08-06T00:00	33500	8	-35.4		95	18	
2025-08-06T00:00	33550	8	-34.9		97	17	
2025-08-06T00:00	33600	8	-34.5		100	16	
2025-08-06T00:00	33650	7	-34.4		103	15	
2025-08-06T00:00	33700	7	-34.5		106	14	
2025-08-06T00:00	33750	7	-34.5		107	14	
2025-08-06T00:00	33800	7	-34.2		105	15	
2025-08-06T00:00	33850	7	-34.1		102	15	
2025-08-06T00:00	33900	7	-33.9		100	15	
2025-08-06T00:00	33950	7	-33.8		98	15	
2025-08-06T00:00	34000	7	-33.6		97	15	
2025-08-06T00:00	34050	7	-33.5		99	15	
2025-08-06T00:00	34100	7	-33.4		101	14	
2025-08-06T00:00	34150	7	-33.2		105	13	
2025-08-06T00:00	34200	7	-33.1		107	13	
2025-08-06T00:00	34250	7	-33.2		108	12	
2025-08-06T00:00	34300	7	-33.2		104	11	
2025-08-06T00:00	34350	7	-33.3		98	11	
2025-08-06T00:00	34400	7	-33.3		91	12	
2025-08-06T00:00	34450	7	-33.1		88	14	
2025-08-06T00:00	34500	7	-33.2		89	15	
2025-08-06T00:00	34550	7	-33.1		91	16	
2025-08-06T00:00	34600	7	-33.0		94	16	
2025-08-06T00:00	34650	6	-32.9		94	15	
2025-08-06T00:00	34700	6	-32.7		93	13	
2025-08-06T00:00	34750	6	-32.8		92	12	
2025-08-06T00:00	34800	6	-32.9		92	11	
2025-08-06T00:00	34850	6	-32.7		93	11	
2025-08-06T00:00	34900	6	-32.5		93	11	
2025-08-06T00:00	34950	6	-32.5		94	13	
2025-08-06T00:00	35000	6	-32.5		95	14	
2025-08-06T00:00	35050	6	-32.6		95	15	
2025-08-06T00:00	35100	6	-32.4		94	15	
2025-08-06T00:00	35150	6	-32.3		93	16	
2025-08-06T00:00	35200	6	-32.0		93	16	
2025-08-06T00:00	35250	6	-31.9		94	17	
2025-08-06T00:00	35300	6	-32.0		94	16	
2025-08-06T00:00	35350	6	-32.0		92	15	
2025-08-06T00:00	35400	6	-31.9		89	14	
2025-08-06T00:00	35450	6	-32.0		84	13	
2025-08-06T00:00	35500	6	-32.1		76	13	
2025-08-06T00:00	35550	6	-32.0		71	13	
2025-08-06T00:00	35600	6	-32.1		71	14	
2025-08-06T00:00	35650	6	-32.1		75	15	
2025-08-06T00:00	35700	6	-32.3		81	16	
2025-08-06T00:00	35750	6	-32.3		85	17	
2025-08-06T00:00	35800	6	-32.3		87	18	
2025-08-06T00:00	35850	5	-32.4		88	18	
2025-08-06T00:00	35900	5	-32.5		90	19	
2025-08-06T00:00	35950	5	-32.7		94	19	
2025-08-06T00:00	36000	5	-32.8		98	18	
2025-08-06T00:00	36050	5	-32.9		101	17	
2025-08-06T00:00	36100	5	-32.8		101	15	
2025-08-06T00:00	36150	5	-32.8		100	15	
2025-08-06T12:00	491	965	21.1	12.0	68	2	3.8
2025-08-06T12:00	501	963	19.9	11.8	50	2	3.8
2025-08-06T12:00	520	962	19.3	11.6	48	3	3.8
2025-08-06T12:00	540	959	18.9	11.3	49	3	3.8
2025-08-06T12:00	560	957	18.6	11.0	49	3	3.8
2025-08-06T12:00	580	955	18.4	11.0	48	4	3.8
2025-08-06T12:00	600	953	18.2	11.0	46	4	3.9
2025-08-06T12:00	620	950	18.0	11.0	45	4	3.9
2025-08-06T12:00	640	948	17.8	11.0	46	4	3.9
2025-08-06T12:00	660	946	17.6	11.0	47	5	3.9
2025-08-06T12:00	680	944	17.4	10.9	47	5	3.9
2025-08-06T12:00	700	942	17.2	10.9	44	5	3.9
2025-08-06T12:00	720	939	17.0	10.8	39	5	3.9
2025-08-06T12:00	740	937	16.8	10.9	34	4	3.9
2025-08-06T12:00	760	935	16.6	10.8	32	4	3.9
2025-08-06T12:00	780	933	16.4	10.7	33	4	3.9
2025-08-06T12:00	800	930	16.2	10.7	35	4	3.9
2025-08-06T12:00	820	928	16.0	10.6	38	4	3.9
2025-08-06T12:00	840	926	15.8	10.6	42	4	3.9
2025-08-06T12:00	860	924	15.6	10.6	44	4	3.9
2025-08-06T12:00	880	922	15.5	10.5	46	4	3.8
2025-08-06T12:00	900	920	15.3	10.6	48	4	3.9
2025-08-06T12:00	920	918	15.1	10.6	49	4	3.8
2025-08-06T12:00	940	915	14.9	10.5	49	4	3.8
2025-08-06T12:00	960	913	14.7	10.4	50	4	3.8
2025-08-06T12:00	980	911	14.5	10.4	53	4	3.8
2025-08-06T12:00	1000	909	14.4	10.4	56	4	3.8
2025-08-06T12:00	1020	907	14.2	10.4	61	4	3.8
2025-08-06T12:00	1040	905	14.0	10.4	68	4	3.8
2025-08-06T12:00	1060	902	13.9	10.3	74	3	3.8
2025-08-06T12:00	1080	900	13.7	10.1	79	3	3.8
2025-08-06T12:00	1100	898	13.6	10.0	83	3	3.8
2025-08-06T12:00	1120	896	13.5	10.0	83	3	3.7
2025-08-06T12:00	1140	894	13.5	9.9	76	3	3.7
2025-08-06T12:00	1160	892	13.6	9.5	69	4	3.7
2025-08-06T12:00	1180	890	14.4	8.7	66	4	3.7
2025-08-06T12:00	1200	888	14.5	8.5	64	5	3.7
2025-08-06T12:00	1220	886	14.3	8.4	63	5	3.6
2025-08-06T12:00	1240	884	14.2	8.3	63	6	3.6
2025-08-06T12:00	1260	881	14.0	8.3	63	6	3.6
2025-08-06T12:00	1280	879	13.8	8.3	64	6	3.6
2025-08-06T12:00	1300	877	13.6	8.2	64	6	3.6
2025-08-06T12:00	1320	875	13.4	8.2	65	6	3.6
2025-08-06T12:00	1340	873	13.3	8.1	65	6	3.6
2025-08-06T12:00	1360	871	13.2	7.9	65	6	3.6
2025-08-06T12:00	1380	869	13.1	7.9	65	7	3.6
2025-08-06T12:00	1400	867	13.1	7.9	65	7	3.6
2025-08-06T12:00	1420	865	13.0	7.9	67	7	3.6
2025-08-06T12:00	1440	863	12.9	8.1	68	7	3.6
2025-08-06T12:00	1460	861	12.9	8.2	70	7	3.6
2025-08-06T12:00	1480	859	12.7	8.1	69	7	3.6
2025-08-06T12:00	1500	856	12.6	7.9	68	7	3.6
2025-08-06T12:00	1520	854	12.4	7.9	66	7	3.5
2025-08-06T12:00	1540	852	12.3	7.7	63	7	3.5
2025-08-06T12:00	1560	850	12.3	7.3	61	6	3.5
2025-08-06T12:00	1580	848	12.2	7.1	62	6	3.6
2025-08-06T12:00	1600	846	12.2	6.7	64	5	3.6
2025-08-06T12:00	1620	844	12.4	6.0	69	4	3.6
2025-08-06T12:00	1640	842	12.5	5.6	77	3	3.6
2025-08-06T12:00	1660	840	12.5	5.1	89	3	3.7
2025-08-06T12:00	1680	838	12.5	4.6	103	2	3.7
2025-08-06T12:00	1700	836	12.4	3.2	113	2	3.7
2025-08-06T12:00	1720	834	12.4	1.8	116	3	3.8
2025-08-06T12:00	1740	832	12.4	-0.2	114	3	3.8
2025-08-06T12:00	1760	830	12.4	-2.1	109	3	3.9
2025-08-06T12:00	1780	828	12.4	-4.9	104	4	4.0
2025-08-06T12:00	1800	826	12.5	-8.0	99	4	4.0
2025-08-06T12:00	1820	824	12.8	-14.1	94	5	4.1
2025-08-06T12:00	1840	822	13.1	-21.3	89	6	4.3
2025-08-06T12:00	1860	820	13.4	-31.1	86	6	4.5
2025-08-06T12:00	1880	819	13.4	-32.9	84	7	4.7
2025-08-06T12:00	1900	817	13.3	-33.3	84	7	4.7
2025-08-06T12:00	1920	815	13.2	-33.6	85	7	4.7
2025-08-06T12:00	1940	813	13.1	-33.7	87	7	4.7
2025-08-06T12:00	1960	811	12.9	-33.9	90	7	4.6
2025-08-06T12:00	1980	809	12.7	-34.2	92	7	4.6
2025-08-06T12:00	2000	807	12.6	-34.9	94	6	4.6
2025-08-06T12:00	2020	805	12.5	-35.6	96	6	4.6
2025-08-06T12:00	2040	803	12.4	-36.0	96	6	4.5
2025-08-06T12:00	2060	801	12.2	-36.1	96	5	4.5
2025-08-06T12:00	2080	799	12.1	-36.3	95	5	4.5
2025-08-06T12:00	2100	797	12.0	-36.5	93	5	4.4
2025-08-06T12:00	2120	795	11.8	-36.6	92	5	4.4
2025-08-06T12:00	2140	794	11.7	-36.4	90	6	4.4
2025-08-06T12:00	2160	792	11.6	-35.9	89	6	4.4
2025-08-06T12:00	2180	790	11.5	-35.5	89	6	4.4
2025-08-06T12:00	2200	788	11.4	-35.9	90	7	4.5
2025-08-06T12:00	2220	786	11.2	-36.0	91	7	4.5
2025-08-06T12:00	2240	784	11.1	-36.3	93	7	4.6
2025-08-06T12:00	2260	782	11.0	-35.7	95	7	4.6
2025-08-06T12:00	2280	780	10.8	-35.7	98	6	4.6
2025-08-06T12:00	2300	779	10.8	-35.5	103	6	4.6
2025-08-06T12:00	2320	777	10.6	-35.3	110	5	4.6
2025-08-06T12:00	2340	775	10.4	-34.6	121	4	4.6
2025-08-06T12:00	2360	773	10.4	-34.4	133	4	4.6
2025-08-06T12:00	2380	771	10.5	-35.9	147	3	4.7
2025-08-06T12:00	2400	769	10.4	-36.3	161	3	4.7
2025-08-06T12:00	2420	767	10.3	-37.1	174	2	4.7
2025-08-06T12:00	2440	765	10.1	-37.4	180	2	4.7
2025-08-06T12:00	2460	764	9.9	-36.6	180	2	4.6
2025-08-06T12:00	2480	762	9.9	-36.2	173	2	4.7
2025-08-06T12:00	2500	760	9.8	-36.4	158	2	4.7
2025-08-06T12:00	2520	758	9.7	-36.5	140	2	4.8
2025-08-06T12:00	2540	756	9.6	-36.7	125	2	4.8
2025-08-06T12:00	2560	754	9.4	-36.8	112	2	4.8
2025-08-06T12:00	2580	753	9.2	-36.8	98	3	4.8
2025-08-06T12:00	2600	751	9.1	-36.9	90	3	4.8
2025-08-06T12:00	2620	749	8.9	-36.9	86	4	4.9
2025-08-06T12:00	2640	747	8.8	-37.1	83	4	4.9
2025-08-06T12:00	2660	745	8.7	-37.3	81	4	4.9
2025-08-06T12:00	2680	743	8.5	-37.6	78	4	4.9
2025-08-06T12:00	2700	742	8.5	-38.1	72	4	4.8
2025-08-06T12:00	2720	740	8.5	-38.6	63	4	4.9
2025-08-06T12:00	2740	738	8.8	-38.8	54	3	4.9
2025-08-06T12:00	2760	736	8.7	-38.9	46	3	5.0
2025-08-06T12:00	2780	734	8.6	-38.9	41	2	5.1
2025-08-06T12:00	2800	733	8.6	-39.1	39	2	5.1
2025-08-06T12:00	2820	731	8.5	-39.0	36	1	5.2
2025-08-06T12:00	2840	729	8.4	-39.0	231	0	5.3
2025-08-06T12:00	2860	727	8.4	-39.5	224	1	5.2
2025-08-06T12:00	2880	726	8.4	-39.7	225	2	5.2
2025-08-06T12:00	2900	724	8.3	-39.9	227	2	5.2
2025-08-06T12:00	2920	722	8.2	-40.1	230	3	5.2
2025-08-06T12:00	2940	720	8.1	-40.3	233	3	5.3
2025-08-06T12:00	2960	719	8.1	-40.6	235	4	5.3
2025-08-06T12:00	2980	717	8.0	-40.8	237	4	5.3
2025-08-06T12:00	3000	715	7.8	-41.3	237	5	5.3
2025-08-06T12:00	3020	713	7.8	-41.5	235	5	5.4
2025-08-06T12:00	3040	712	7.8	-41.7	231	5	5.4
2025-08-06T12:00	3060	710	7.7	-42.0	225	6	5.5
2025-08-06T12:00	3080	708	7.7	-42.1	221	6	5.5
2025-08-06T12:00	3100	707	7.5	-42.1	217	6	5.6
2025-08-06T12:00	3120	705	7.3	-42.0	214	6	5.6
2025-08-06T12:00	3140	703	7.1	-42.1	210	5	5.6
2025-08-06T12:00	3160	701	6.9	-42.2	207	5	5.6
2025-08-06T12:00	3180	700	6.7	-42.2	205	4	5.6
2025-08-06T12:00	3200	698	6.4	-42.3	202	4	5.6
2025-08-06T12:00	3220	696	6.2	-42.3	199	3	5.6
2025-08-06T12:00	3240	695	6.1	-42.4	195	3	5.6
2025-08-06T12:00	3260	693	6.0	-42.3	188	3	5.7
2025-08-06T12:00	3280	691	5.7	-42.3	180	2	5.6
2025-08-06T12:00	3300	690	5.6	-42.5	170	2	5.6
2025-08-06T12:00	3320	688	5.4	-42.6	155	2	5.6
2025-08-06T12:00	3340	686	5.2	-42.8	137	1	5.6
2025-08-06T12:00	3360	684	5.1	-43.1	118	1	5.7
2025-08-06T12:00	3380	683	5.2	-43.6	105	0	5.7
2025-08-06T12:00	3400	681	5.2	-43.9	257	0	5.8
2025-08-06T12:00	3420	679	5.1	-44.2	251	1	5.8
2025-08-06T12:00	3440	678	5.1	-44.4	247	2	5.8
2025-08-06T12:00	3460	676	5.0	-44.7	244	2	5.8
2025-08-06T12:00	3480	674	5.0	-44.9	241	2	5.7
2025-08-06T12:00	3500	673	4.9	-45.0	240	3	5.7
2025-08-06T12:00	3520	671	4.7	-45.0	239	3	5.7
2025-08-06T12:00	3540	669	4.7	-44.8	238	3	5.6
2025-08-06T12:00	3560	668	4.6	-41.5	239	3	5.5
2025-08-06T12:00	3580	666	4.5	-38.2	240	2	5.4
2025-08-06T12:00	3600	665	4.3	-37.3	241	3	5.2
2025-08-06T12:00	3620	663	4.2	-36.8	242	3	5.0
2025-08-06T12:00	3640	661	3.9	-36.3	243	3	4.9
2025-08-06T12:00	3660	660	3.8	-35.1	243	3	4.7
2025-08-06T12:00	3680	658	3.6	-34.0	244	3	4.6
2025-08-06T12:00	3700	657	3.4	-33.5	246	4	4.4
2025-08-06T12:00	3720	655	3.2	-32.5	247	4	4.2
2025-08-06T12:00	3740	653	3.1	-32.1	247	4	4.0
2025-08-06T12:00	3760	652	2.8	-32.3	246	4	3.7
2025-08-06T12:00	3780	650	2.7	-32.4	244	5	3.5
2025-08-06T12:00	3800	649	2.5	-32.3	243	5	3.4
2025-08-06T12:00	3820	647	2.3	-32.5	240	5	3.3
2025-08-06T12:00	3840	645	2.2	-32.8	237	5	3.2
2025-08-06T12:00	3860	643	2.0	-33.0	235	5	3.2
2025-08-06T12:00	3880	642	1.8	-33.1	234	6	3.1
2025-08-06T12:00	3900	640	1.6	-33.4	233	6	3.1
2025-08-06T12:00	3920	639	1.5	-33.6	232	6	3.0
2025-08-06T12:00	3940	637	1.4	-33.7	233	6	2.9
2025-08-06T12:00	3960	636	1.3	-33.9	235	6	2.9
2025-08-06T12:00	3980	634	1.2	-33.9	239	7	2.9
2025-08-06T12:00	4000	632	1.0	-34.1	242	7	2.8
2025-08-06T12:00	4020	631	0.9	-34.3	245	7	2.8
2025-08-06T12:00	4040	629	0.8	-34.7	246	8	2.8
2025-08-06T12:00	4060	628	0.7	-34.9	245	8	2.9
2025-08-06T12:00	4080	626	0.6	-35.9	243	8	3.0
2025-08-06T12:00	4100	625	0.4	-37.5	241	7	3.1
2025-08-06T12:00	4120	623	0.3	-38.3	241	7	3.2
2025-08-06T12:00	4140	621	0.2	-39.1	244	7	3.3
2025-08-06T12:00	4160	620	0.0	-39.0	248	7	3.5
2025-08-06T12:00	4180	618	-0.2	-39.1	249	7	3.5
2025-08-06T12:00	4200	617	-0.3	-39.2	249	8	3.6
2025-08-06T12:00	4220	615	-0.5	-39.2	248	9	3.7
2025-08-06T12:00	4240	614	-0.6	-39.4	246	9	3.7
2025-08-06T12:00	4260	612	-0.8	-39.6	246	9	3.7
2025-08-06T12:00	4280	611	-0.8	-39.9	246	9	3.7
2025-08-06T12:00	4300	609	-0.8	-40.5	248	9	3.7
2025-08-06T12:00	4320	608	-0.9	-41.0	251	8	3.8
2025-08-06T12:00	4340	606	-1.0	-41.0	254	8	3.9
2025-08-06T12:00	4360	605	-1.2	-41.0	258	7	3.9
2025-08-06T12:00	4380	603	-1.4	-40.9	261	6	4.0
2025-08-06T12:00	4400	602	-1.6	-40.9	263	6	4.0
2025-08-06T12:00	4420	600	-1.7	-40.9	263	6	4.0
2025-08-06T12:00	4440	599	-1.9	-40.8	261	5	4.0
2025-08-06T12:00	4460	597	-2.1	-40.5	257	5	4.0
2025-08-06T12:00	4480	596	-2.1	-40.1	255	6	4.0
2025-08-06T12:00	4500	594	-2.3	-40.3	254	6	4.0
2025-08-06T12:00	4520	592	-2.3	-40.6	254	6	3.9
2025-08-06T12:00	4540	591	-2.5	-41.0	255	7	3.9
2025-08-06T12:00	4560	589	-2.7	-41.1	257	7	3.9
2025-08-06T12:00	4580	588	-2.8	-41.3	259	7	3.9
2025-08-06T12:00	4600	587	-2.9	-41.4	260	8	3.9
2025-08-06T12:00	4620	585	-3.1	-41.6	260	8	3.9
2025-08-06T12:00	4640	584	-3.2	-41.8	258	8	3.9
2025-08-06T12:00	4660	582	-3.3	-42.5	255	8	3.9
2025-08-06T12:00	4680	581	-3.3	-42.9	253	8	3.9
2025-08-06T12:00	4700	579	-3.5	-42.9	252	8	3.9
2025-08-06T12:00	4720	578	-3.7	-43.0	251	8	3.9
2025-08-06T12:00	4740	576	-3.9	-43.1	251	7	3.9
2025-08-06T12:00	4760	575	-4.0	-43.2	252	7	3.9
2025-08-06T12:00	4780	573	-4.2	-43.3	253	7	3.8
2025-08-06T12:00	4800	572	-4.3	-43.4	254	6	3.8
2025-08-06T12:00	4820	571	-4.4	-43.4	254	6	3.8
2025-08-06T12:00	4840	569	-4.7	-43.6	254	6	3.8
2025-08-06T12:00	4860	567	-4.8	-43.7	254	7	3.8
2025-08-06T12:00	4880	566	-4.9	-43.6	253	7	3.8
2025-08-06T12:00	4900	565	-5.1	-43.5	252	7	3.8
2025-08-06T12:00	4920	563	-5.3	-43.3	251	8	3.8
2025-08-06T12:00	4940	562	-5.4	-42.8	252	8	3.8
2025-08-06T12:00	4960	560	-5.6	-42.7	254	9	3.7
2025-08-06T12:00	4980	559	-5.7	-43.0	256	9	3.7
2025-08-06T12:00	5000	557	-5.9	-43.6	259	10	3.7
2025-08-06T12:00	5020	556	-6.0	-43.6	263	10	3.7
2025-08-06T12:00	5040	555	-6.2	-43.9	266	10	3.7
2025-08-06T12:00	5060	553	-6.4	-44.2	268	11	3.7
2025-08-06T12:00	5080	552	-6.5	-44.4	269	11	3.7
2025-08-06T12:00	5100	550	-6.6	-44.5	269	11	3.7
2025-08-06T12:00	5120	549	-6.8	-44.5	269	11	3.8
2025-08-06T12:00	5140	547	-7.0	-44.5	269	11	3.8
2025-08-06T12:00	5160	546	-7.1	-44.4	270	11	3.8
2025-08-06T12:00	5180	545	-7.3	-44.3	270	10	3.8
2025-08-06T12:00	5200	543	-7.4	-45.0	271	10	3.8
2025-08-06T12:00	5220	542	-7.5	-45.8	271	10	3.9
2025-08-06T12:00	5240	541	-7.7	-45.6	270	10	3.9
2025-08-06T12:00	5260	539	-7.8	-45.5	269	9	3.9
2025-08-06T12:00	5280	538	-8.0	-44.9	269	9	3.9
2025-08-06T12:00	5300	537	-8.2	-44.1	269	9	3.9
2025-08-06T12:00	5320	535	-8.4	-43.6	271	10	3.9
2025-08-06T12:00	5340	534	-8.5	-43.1	272	10	3.9
2025-08-06T12:00	5360	532	-8.7	-42.7	274	10	3.9
2025-08-06T12:00	5380	531	-8.9	-42.1	275	10	3.9
2025-08-06T12:00	5400	529	-9.0	-41.1	276	11	3.9
2025-08-06T12:00	5420	528	-9.2	-41.0	276	11	3.9
2025-08-06T12:00	5440	527	-9.3	-41.0	276	11	3.9
2025-08-06T12:00	5460	525	-9.6	-40.9	275	11	3.9
2025-08-06T12:00	5480	524	-9.7	-40.9	275	11	3.9
2025-08-06T12:00	5500	523	-9.9	-40.4	276	11	3.9
2025-08-06T12:00	5520	521	-9.9	-39.9	276	10	3.9
2025-08-06T12:00	5540	520	-10.1	-39.7	276	10	3.9
2025-08-06T12:00	5560	519	-10.4	-39.4	276	10	3.9
2025-08-06T12:00	5580	517	-10.6	-39.4	274	10	3.8
2025-08-06T12:00	5600	516	-10.7	-39.4	273	10	3.8
2025-08-06T12:00	5620	515	-10.9	-38.5	271	9	3.8
2025-08-06T12:00	5640	513	-10.9	-34.2	270	10	3.8
2025-08-06T12:00	5660	512	-10.9	-31.2	270	10	3.8
2025-08-06T12:00	5680	511	-11.1	-29.2	270	10	3.7
2025-08-06T12:00	5700	509	-11.2	-28.7	271	10	3.7
2025-08-06T12:00	5720	508	-11.4	-28.8	271	10	3.7
2025-08-06T12:00	5740	507	-11.6	-29.0	271	10	3.6
2025-08-06T12:00	5760	505	-11.7	-29.0	271	10	3.6
2025-08-06T12:00	5780	504	-11.8	-28.8	271	10	3.5
2025-08-06T12:00	5800	503	-11.9	-28.7	271	11	3.4
2025-08-06T12:00	5820	501	-12.1	-28.5	272	11	3.4
2025-08-06T12:00	5840	500	-12.3	-28.1	274	11	3.3
2025-08-06T12:00	5860	499	-12.4	-27.6	274	12	3.2
2025-08-06T12:00	5880	497	-12.5	-27.5	274	12	3.1
2025-08-06T12:00	5900	496	-12.6	-27.6	273	12	3.1
2025-08-06T12:00	5920	495	-12.8	-27.6	271	13	3.0
2025-08-06T12:00	5940	494	-12.9	-27.7	270	13	3.0
2025-08-06T12:00	5960	492	-13.1	-27.6	269	13	2.9
2025-08-06T12:00	5980	491	-13.2	-27.8	269	13	2.9
2025-08-06T12:00	6000	490	-13.5	-27.9	269	12	2.9
2025-08-06T12:00	6020	488	-13.7	-27.9	271	12	2.9
2025-08-06T12:00	6040	487	-13.9	-28.0	272	12	2.9
2025-08-06T12:00	6060	486	-14.1	-28.0	272	12	2.9
2025-08-06T12:00	6080	485	-14.3	-28.0	273	12	2.9
2025-08-06T12:00	6100	483	-14.4	-28.2	272	12	2.8
2025-08-06T12:00	6120	482	-14.6	-28.5	272	12	2.8
2025-08-06T12:00	6140	481	-14.7	-28.6	272	12	2.8
2025-08-06T12:00	6160	479	-14.8	-28.0	272	12	2.8
2025-08-06T12:00	6180	478	-14.9	-27.4	271	12	2.8
2025-08-06T12:00	6200	477	-15.1	-27.3	271	12	2.8
2025-08-06T12:00	6220	476	-15.3	-27.4	270	12	2.8
2025-08-06T12:00	6240	474	-15.4	-27.6	269	12	2.8
2025-08-06T12:00	6260	473	-15.5	-27.7	269	12	2.7
2025-08-06T12:00	6280	472	-15.7	-27.8	268	11	2.8
2025-08-06T12:00	6300	471	-15.9	-28.1	268	11	2.8
2025-08-06T12:00	6320	469	-16.0	-28.6	268	11	2.8
2025-08-06T12:00	6340	468	-16.2	-28.9	268	11	2.7
2025-08-06T12:00	6360	467	-16.3	-28.8	267	11	2.7
2025-08-06T12:00	6380	466	-16.5	-29.1	265	11	2.7
2025-08-06T12:00	6400	464	-16.7	-28.9	264	11	2.7
2025-08-06T12:00	6420	463	-16.8	-28.5	263	11	2.7
2025-08-06T12:00	6440	462	-16.9	-28.6	262	12	2.7
2025-08-06T12:00	6460	461	-17.1	-27.8	262	12	2.6
2025-08-06T12:00	6480	459	-17.3	-27.5	264	12	2.6
2025-08-06T12:00	6500	458	-17.4	-26.6	265	12	2.6
2025-08-06T12:00	6520	457	-17.5	-26.0	266	12	2.6
2025-08-06T12:00	6540	456	-17.8	-25.4	267	12	2.6
2025-08-06T12:00	6560	455	-17.9	-25.5	267	12	2.6
2025-08-06T12:00	6580	453	-18.1	-25.6	267	12	2.6
2025-08-06T12:00	6600	452	-18.3	-25.7	266	12	2.6
2025-08-06T12:00	6620	451	-18.4	-25.8	266	12	2.6
2025-08-06T12:00	6640	450	-18.5	-25.7	266	12	2.6
2025-08-06T12:00	6660	449	-18.8	-25.6	266	12	2.6
2025-08-06T12:00	6680	447	-18.9	-26.2	265	12	2.7
2025-08-06T12:00	6700	446	-19.1	-26.7	266	12	2.7
2025-08-06T12:00	6720	445	-19.3	-26.4	266	12	2.6
2025-08-06T12:00	6740	444	-19.4	-26.2	267	12	2.6
2025-08-06T12:00	6760	443	-19.7	-26.2	268	12	2.6
2025-08-06T12:00	6780	441	-19.9	-26.2	269	12	2.6
2025-08-06T12:00	6800	440	-20.0	-26.2	269	12	2.6
2025-08-06T12:00	6820	439	-20.2	-26.0	269	12	2.6
2025-08-06T12:00	6840	438	-20.3	-26.0	269	12	2.6
2025-08-06T12:00	6860	437	-20.5	-25.9	269	12	2.6
2025-08-06T12:00	6880	436	-20.7	-25.9	269	12	2.6
2025-08-06T12:00	6900	434	-20.9	-26.0	268	12	2.6
2025-08-06T12:00	6920	433	-21.1	-25.8	269	12	2.6
2025-08-06T12:00	6940	432	-21.3	-25.7	269	12	2.6
2025-08-06T12:00	6960	431	-21.4	-25.7	269	13	2.6
2025-08-06T12:00	6980	430	-21.6	-25.6	269	13	2.6
2025-08-06T12:00	7000	429	-21.8	-25.7	269	13	2.6
2025-08-06T12:00	7020	427	-22.0	-26.5	269	13	2.6
2025-08-06T12:00	7040	426	-22.1	-27.4	269	13	2.6
2025-08-06T12:00	7060	425	-22.3	-27.2	269	14	2.6
2025-08-06T12:00	7080	424	-22.5	-27.1	269	14	2.6
2025-08-06T12:00	7100	423	-22.6	-28.0	268	14	2.6
2025-08-06T12:00	7120	422	-22.7	-28.3	268	15	2.6
2025-08-06T12:00	7140	420	-22.9	-28.2	267	15	2.6
2025-08-06T12:00	7160	419	-23.2	-28.4	266	16	2.5
2025-08-06T12:00	7180	418	-23.4	-28.4	264	16	2.5
2025-08-06T12:00	7200	417	-23.5	-28.6	262	15	2.5
2025-08-06T12:00	7220	416	-23.6	-28.9	261	15	2.5
2025-08-06T12:00	7240	415	-23.8	-29.1	260	15	2.5
2025-08-06T12:00	7260	413	-24.0	-29.2	260	15	2.5
2025-08-06T12:00	7280	412	-24.1	-28.9	261	15	2.5
2025-08-06T12:00	7300	411	-24.3	-29.0	262	15	2.5
2025-08-06T12:00	7320	410	-24.6	-29.2	264	15	2.5
2025-08-06T12:00	7340	409	-24.7	-29.5	266	15	2.4
2025-08-06T12:00	7360	408	-24.9	-29.9	268	16	2.4
2025-08-06T12:00	7380	407	-25.2	-30.0	270	16	2.4
2025-08-06T12:00	7400	406	-25.4	-30.2	270	17	2.5
2025-08-06T12:00	7420	405	-25.5	-30.3	270	17	2.5
2025-08-06T12:00	7440	403	-25.8	-30.7	270	18	2.5
2025-08-06T12:00	7460	402	-25.9	-31.2	269	18	2.5
2025-08-06T12:00	7480	401	-26.1	-31.3	268	18	2.4
2025-08-06T12:00	7500	400	-26.4	-31.0	268	18	2.4
2025-08-06T12:00	7520	399	-26.4	-31.2	268	18	2.4
2025-08-06T12:00	7540	398	-26.6	-31.3	268	18	2.4
2025-08-06T12:00	7560	397	-26.7	-31.0	268	18	2.4
2025-08-06T12:00	7580	396	-26.8	-31.0	269	19	2.4
2025-08-06T12:00	7600	395	-26.9	-30.9	269	19	2.4
2025-08-06T12:00	7620	394	-27.1	-30.9	269	19	2.4
2025-08-06T12:00	7640	392	-27.3	-31.2	269	20	2.3
2025-08-06T12:00	7660	391	-27.4	-31.2	268	20	2.3
2025-08-06T12:00	7680	390	-27.6	-30.9	268	20	2.4
2025-08-06T12:00	7700	389	-27.7	-31.1	267	20	2.4
2025-08-06T12:00	7720	388	-27.7	-31.4	267	20	2.4
2025-08-06T12:00	7740	387	-27.9	-31.4	267	21	2.3
2025-08-06T12:00	7760	386	-28.1	-31.2	267	21	2.4
2025-08-06T12:00	7780	385	-28.3	-31.3	267	21	2.4
2025-08-06T12:00	7800	384	-28.4	-31.4	268	21	2.4
2025-08-06T12:00	7820	383	-28.5	-31.3	268	22	2.4
2025-08-06T12:00	7840	382	-28.6	-31.3	269	21	2.4
2025-08-06T12:00	7860	381	-28.7	-31.2	270	21	2.4
2025-08-06T12:00	7880	380	-28.7	-31.2	270	21	2.4
2025-08-06T12:00	7900	378	-28.7	-31.4	271	21	2.4
2025-08-06T12:00	7920	377	-28.9	-31.3	272	22	2.4
2025-08-06T12:00	7940	376	-28.9	-31.3	273	22	2.4
2025-08-06T12:00	7960	375	-29.0	-31.2	274	22	2.4
2025-08-06T12:00	7980	374	-29.1	-31.2	275	22	2.5
2025-08-06T12:00	8000	373	-29.2	-31.5	276	22	2.4
2025-08-06T12:00	8020	372	-29.3	-31.8	277	22	2.4
2025-08-06T12:00	8040	371	-29.4	-32.0	279	22	2.4
2025-08-06T12:00	8060	370	-29.5	-31.8	281	21	2.4
2025-08-06T12:00	8080	369	-29.6	-32.0	283	20	2.4
2025-08-06T12:00	8100	368	-29.7	-32.1	284	19	2.4
2025-08-06T12:00	8120	367	-29.9	-32.3	286	19	2.4
2025-08-06T12:00	8140	366	-30.0	-32.1	286	18	2.4
2025-08-06T12:00	8160	365	-30.1	-32.5	286	18	2.4
2025-08-06T12:00	8180	364	-30.3	-32.8	285	18	2.4
2025-08-06T12:00	8200	363	-30.5	-32.9	284	18	2.4
2025-08-06T12:00	8220	362	-30.7	-32.9	283	18	2.4
2025-08-06T12:00	8240	361	-30.7	-32.9	282	18	2.4
2025-08-06T12:00	8260	360	-30.8	-32.8	281	18	2.4
2025-08-06T12:00	8280	359	-30.9	-32.6	279	18	2.4
2025-08-06T12:00	8300	358	-31.0	-33.2	278	18	2.4
2025-08-06T12:00	8320	357	-31.1	-33.7	277	17	2.3
2025-08-06T12:00	8340	356	-31.2	-34.1	275	17	2.3
2025-08-06T12:00	8360	355	-31.3	-34.2	274	17	2.3
2025-08-06T12:00	8380	354	-31.4	-34.3	273	17	2.3
2025-08-06T12:00	8400	353	-31.4	-34.8	273	18	2.3
2025-08-06T12:00	8420	352	-31.2	-34.4	273	18	2.3
2025-08-06T12:00	8440	351	-31.2	-34.0	274	19	2.2
2025-08-06T12:00	8460	350	-31.2	-33.5	274	19	2.2
2025-08-06T12:00	8480	349	-31.1	-33.7	274	20	2.2
2025-08-06T12:00	8500	348	-31.0	-33.6	274	20	2.2
2025-08-06T12:00	8520	347	-31.1	-33.7	274	20	2.2
2025-08-06T12:00	8540	346	-31.2	-34.0	273	20	2.2
2025-08-06T12:00	8560	345	-31.3	-34.2	272	20	2.2
2025-08-06T12:00	8580	344	-31.3	-34.1	272	21	2.3
2025-08-06T12:00	8600	343	-31.5	-33.7	271	21	2.4
2025-08-06T12:00	8620	342	-31.6	-33.8	270	22	2.4
2025-08-06T12:00	8640	341	-31.8	-33.9	269	22	2.5
2025-08-06T12:00	8660	340	-31.9	-34.0	269	22	2.5
2025-08-06T12:00	8680	339	-32.0	-33.9	268	22	2.5
2025-08-06T12:00	8700	338	-32.1	-34.2	268	22	2.5
2025-08-06T12:00	8720	337	-32.3	-34.3	268	23	2.5
2025-08-06T12:00	8740	336	-32.5	-33.9	268	23	2.6
2025-08-06T12:00	8760	335	-32.7	-34.0	267	24	2.7
2025-08-06T12:00	8780	334	-32.7	-34.0	266	25	2.7
2025-08-06T12:00	8800	333	-32.9	-34.0	265	25	2.7
2025-08-06T12:00	8820	332	-32.9	-34.4	265	26	2.7
2025-08-06T12:00	8840	332	-33.0	-35.0	264	26	2.7
2025-08-06T12:00	8860	331	-33.1	-35.2	264	25	2.7
2025-08-06T12:00	8880	330	-33.2	-35.3	264	25	2.7
2025-08-06T12:00	8900	329	-33.4	-35.3	265	25	2.7
2025-08-06T12:00	8920	328	-33.6	-35.6	266	25	2.7
2025-08-06T12:00	8940	327	-33.8	-35.5	266	25	2.7
2025-08-06T12:00	8960	326	-33.9	-35.8	267	25	2.6
2025-08-06T12:00	8980	325	-34.1	-36.2	267	26	2.6
2025-08-06T12:00	9000	324	-34.3	-36.2	266	27	2.6
2025-08-06T12:00	9020	323	-34.4	-36.5	266	27	2.6
2025-08-06T12:00	9040	322	-34.5	-37.2	266	28	2.6
2025-08-06T12:00	9060	321	-34.6	-36.9	265	28	2.6
2025-08-06T12:00	9080	320	-34.8	-36.2	265	28	2.6
2025-08-06T12:00	9100	319	-34.8	-36.4	265	28	2.6
2025-08-06T12:00	9120	319	-35.0	-36.8	264	28	2.6
2025-08-06T12:00	9140	318	-35.2	-37.0	264	29	2.6
2025-08-06T12:00	9160	317	-35.3	-37.3	264	29	2.6
2025-08-06T12:00	9180	316	-35.5	-37.5	264	29	2.5
2025-08-06T12:00	9200	315	-35.7	-37.4	264	29	2.5
2025-08-06T12:00	9220	314	-36.0	-37.5	264	29	2.5
2025-08-06T12:00	9240	313	-36.1	-37.6	263	29	2.5
2025-08-06T12:00	9260	312	-36.3	-37.8	263	28	2.5
2025-08-06T12:00	9280	311	-36.4	-38.2	262	28	2.5
2025-08-06T12:00	9300	310	-36.5	-38.4	261	28	2.5
2025-08-06T12:00	9320	309	-36.8	-38.3	260	28	2.5
2025-08-06T12:00	9340	309	-36.9	-38.4	259	29	2.5
2025-08-06T12:00	9360	308	-37.1	-38.8	259	29	2.4
2025-08-06T12:00	9380	307	-37.1	-39.3	259	29	2.4
2025-08-06T12:00	9400	306	-37.2	-39.9	259	29	2.4
2025-08-06T12:00	9420	305	-37.5	-40.0	261	30	2.4
2025-08-06T12:00	9440	304	-37.6	-40.9	262	30	2.4
2025-08-06T12:00	9460	303	-37.7	-43.5	264	31	2.5
2025-08-06T12:00	9480	302	-38.0	-43.9	266	31	2.5
2025-08-06T12:00	9500	301	-38.1	-46.3	267	31	2.6
2025-08-06T12:00	9520	301	-38.0	-48.7	268	32	2.6
2025-08-06T12:00	9540	300	-37.9	-49.1	269	32	2.7
2025-08-06T12:00	9560	299	-37.9	-49.1	269	33	2.8
2025-08-06T12:00	9580	298	-37.9	-50.2	270	33	3.0
2025-08-06T12:00	9600	297	-37.8	-53.5	271	33	3.2
2025-08-06T12:00	9620	296	-37.9	-54.4	271	34	3.2
2025-08-06T12:00	9640	295	-38.0	-52.9	271	34	3.2
2025-08-06T12:00	9660	295	-38.1	-50.8	272	34	3.2
2025-08-06T12:00	9680	294	-38.3	-49.1	272	35	3.1
2025-08-06T12:00	9700	293	-38.4	-48.5	272	35	3.1
2025-08-06T12:00	9720	292	-38.6	-47.9	272	35	3.1
2025-08-06T12:00	9740	291	-38.8	-46.8	272	35	3.1
2025-08-06T12:00	9760	290	-39.0	-46.2	272	35	3.2
2025-08-06T12:00	9780	290	-39.1	-46.5	272	36	3.2
2025-08-06T12:00	9800	289	-39.2	-44.9	272	36	3.1
2025-08-06T12:00	9820	288	-39.2	-43.2	271	36	3.1
2025-08-06T12:00	9840	287	-39.4	-42.9	271	36	3.0
2025-08-06T12:00	9860	286	-39.6	-43.4	271	36	2.9
2025-08-06T12:00	9880	285	-39.6	-43.8	270	36	2.9
2025-08-06T12:00	9900	284	-39.6	-43.9	270	36	2.8
2025-08-06T12:00	9920	284	-39.9	-43.7	270	36	2.8
2025-08-06T12:00	9940	283	-40.0	-43.6	269	36	2.7
2025-08-06T12:00	9960	282	-40.3	-43.9	269	36	2.7
2025-08-06T12:00	9980	281	-40.5	-43.8	269	36	2.6
2025-08-06T12:00	10000	280	-40.6	-43.5	268	36	2.5
2025-08-06T12:00	10018	280	-40.7	-43.6	268	36	2.5
2025-08-06T12:00	10050	278	-41.0	-44.4	267	37	2.3
2025-08-06T12:00	10100	276	-41.3	-44.8	265	38	2.0
2025-08-06T12:00	10150	274	-41.5	-47.5	265	38	1.9
2025-08-06T12:00	10200	272	-42.1	-47.6	265	38	1.8
2025-08-06T12:00	10250	270	-42.5	-48.1	264	38	1.7
2025-08-06T12:00	10300	268	-42.9	-48.6	264	38	1.7
2025-08-06T12:00	10350	266	-43.4	-49.4	265	38	1.7
2025-08-06T12:00	10400	264	-43.9	-49.9	265	38	1.7
2025-08-06T12:00	10450	262	-44.4	-50.4	265	38	1.7
2025-08-06T12:00	10500	260	-44.7	-50.7	264	38	1.7
2025-08-06T12:00	10550	258	-45.3	-50.0	264	39	1.7
2025-08-06T12:00	10600	256	-45.7	-50.5	264	38	1.6
2025-08-06T12:00	10650	254	-46.1	-51.6	264	38	1.6
2025-08-06T12:00	10700	252	-46.6	-51.3	264	38	1.6
2025-08-06T12:00	10750	251	-47.1	-50.9	264	38	1.6
2025-08-06T12:00	10800	249	-47.5	-51.3	263	38	1.6
2025-08-06T12:00	10850	247	-47.9	-51.4	262	38	1.6
2025-08-06T12:00	10900	245	-48.4	-51.7	262	39	1.6
2025-08-06T12:00	10950	243	-48.7	-52.6	263	40	1.5
2025-08-06T12:00	11000	241	-49.2	-53.1	265	41	1.5
2025-08-06T12:00	11050	240	-49.7	-53.2	267	41	1.6
2025-08-06T12:00	11100	238	-50.2	-54.6	269	42	1.6
2025-08-06T12:00	11150	236	-50.4	-55.7	270	42	1.7
2025-08-06T12:00	11200	234	-50.9	-55.8	270	42	1.8
2025-08-06T12:00	11250	232	-51.3	-56.4	270	41	1.9
2025-08-06T12:00	11300	231	-51.7	-58.0	269	39	2.0
2025-08-06T12:00	11350	229	-52.1	-58.8	267	37	2.2
2025-08-06T12:00	11400	227	-52.6	-59.3	267	37	2.4
2025-08-06T12:00	11450	225	-53.0	-60.9	266	35	2.6
2025-08-06T12:00	11500	224	-53.2	-62.2	266	34	2.8
2025-08-06T12:00	11550	222	-53.3	-63.7	266	32	3.0
2025-08-06T12:00	11600	220	-53.4	-64.8	267	31	3.2
2025-08-06T12:00	11650	218	-53.6	-65.6	267	31	3.3
2025-08-06T12:00	11700	217	-53.9	-66.1	267	31	3.4
2025-08-06T12:00	11750	215	-54.3	-64.9	267	31	3.3
2025-08-06T12:00	11800	213	-54.7	-64.2	267	31	3.3
2025-08-06T12:00	11850	212	-54.9	-63.7	269	31	3.3
2025-08-06T12:00	11900	210	-54.8	-64.7	271	30	3.4
2025-08-06T12:00	11950	208	-54.5	-66.1	273	29	3.5
2025-08-06T12:00	12000	207	-54.2	-67.5	274	28	3.6
2025-08-06T12:00	12050	205	-54.0	-72.0	274	27	3.7
2025-08-06T12:00	12100	204	-53.5	-74.9	273	27	3.5
2025-08-06T12:00	12150	202	-53.4	-73.1	272	26	3.4
2025-08-06T12:00	12200	200	-53.7	-71.5	273	26	3.3
2025-08-06T12:00	12250	199	-53.5	-72.9	275	26	3.2
2025-08-06T12:00	12300	197	-53.3	-74.4	277	27	3.1
2025-08-06T12:00	12350	196	-53.4	-74.4	277	27	3.0
2025-08-06T12:00	12400	194	-53.5	-74.2	277	27	2.9
2025-08-06T12:00	12450	193	-53.7	-73.8	276	26	2.9
2025-08-06T12:00	12500	191	-54.0	-74.2	276	25	2.8
2025-08-06T12:00	12550	190	-54.1	-74.4	277	26	2.8
2025-08-06T12:00	12600	188	-54.0	-75.0	278	27	2.8
2025-08-06T12:00	12650	187	-53.8	-75.7	280	28	2.8
2025-08-06T12:00	12700	185	-53.8	-75.9	282	27	2.8
2025-08-06T12:00	12750	184	-53.9	-76.2	284	27	2.8
2025-08-06T12:00	12800	182	-53.8	-76.9	285	26	2.8
2025-08-06T12:00	12850	181	-53.7	-77.7	285	25	2.8
2025-08-06T12:00	12900	180	-53.9	-77.9	285	25	2.8
2025-08-06T12:00	12950	178	-53.8	-78.1	286	24	2.8
2025-08-06T12:00	13000	177	-54.0	-78.4	287	24	2.8
2025-08-06T12:00	13050	176	-54.2	-78.5	287	24	2.9
2025-08-06T12:00	13100	174	-54.5	-78.8	286	24	2.8
2025-08-06T12:00	13150	173	-54.6	-78.9	287	24	2.7
2025-08-06T12:00	13200	171	-54.5	-79.0	290	23	2.7
2025-08-06T12:00	13250	170	-54.6	-79.3	292	22	2.7
2025-08-06T12:00	13300	169	-54.5	-79.1	293	21	2.6
2025-08-06T12:00	13350	167	-54.3	-79.4	292	21	2.6
2025-08-06T12:00	13400	166	-54.4	-79.5	291	21	2.7
2025-08-06T12:00	13450	165	-54.8	-79.6	289	21	2.8
2025-08-06T12:00	13500	164	-55.1	-79.7	287	21	2.9
2025-08-06T12:00	13550	162	-55.3	-79.7	287	21	2.9
2025-08-06T12:00	13600	161	-55.6	-79.8	287	20	2.9
2025-08-06T12:00	13650	160	-55.8	-79.6	289	20	3.1
2025-08-06T12:00	13700	159	-56.0	-79.6	290	19	3.0
2025-08-06T12:00	13750	157	-56.2	-79.6	290	18	3.0
2025-08-06T12:00	13800	156	-56.4	-79.6	288	18	3.0
2025-08-06T12:00	13850	155	-56.5	-79.7	288	18	3.1
2025-08-06T12:00	13900	154	-56.6	-79.7	288	19	3.1
2025-08-06T12:00	13950	152	-56.8	-79.9	287	19	3.2
2025-08-06T12:00	14000	151	-56.7	-80.4	285	19	3.2
2025-08-06T12:00	14050	150	-56.7	-80.9	282	19	3.2
2025-08-06T12:00	14100	149	-57.0	-81.1	281	19	3.3
2025-08-06T12:00	14150	148	-57.2	-81.1	283	19	3.3
2025-08-06T12:00	14200	147	-57.2	-81.2	287	19	3.4
2025-08-06T12:00	14250	145	-57.4	-81.5	290	19	3.5
2025-08-06T12:00	14300	144	-57.5	-81.6	290	18	3.5
2025-08-06T12:00	14350	143	-57.5	-81.9	287	16	3.5
2025-08-06T12:00	14400	142	-57.3	-82.0	284	16	3.5
2025-08-06T12:00	14450	141	-57.5	-82.0	284	16	3.5
2025-08-06T12:00	14500	140	-57.8	-82.1	284	17	3.4
2025-08-06T12:00	14550	139	-57.7	-82.2	285	16	3.3
2025-08-06T12:00	14600	138	-57.5	-82.3	287	16	3.3
2025-08-06T12:00	14650	136	-57.5	-82.5	286	15	3.5
2025-08-06T12:00	14700	135	-57.4	-82.6	282	15	3.8
2025-08-06T12:00	14750	134	-57.4	-82.8	277	15	4.1
2025-08-06T12:00	14800	133	-57.6	-82.9	274	15	4.3
2025-08-06T12:00	14850	132	-57.9	-83.0	272	16	4.6
2025-08-06T12:00	14900	131	-58.0	-83.2	272	17	5.0
2025-08-06T12:00	14950	130	-57.8	-83.5	273	17	5.3
2025-08-06T12:00	15000	129	-57.6	-83.4	272	17	5.5
2025-08-06T12:00	15050	128	-57.8	-83.5	273	17	5.6
2025-08-06T12:00	15100	127	-57.9	-83.6	274	17	5.6
2025-08-06T12:00	15150	126	-57.9	-83.6	276	17	5.6
2025-08-06T12:00	15200	125	-57.9	-83.6	276	17	5.5
2025-08-06T12:00	15250	124	-58.1	-83.7	277	17	5.5
2025-08-06T12:00	15300	123	-58.3	-83.8	280	18	5.5
2025-08-06T12:00	15350	122	-58.1	-83.8	285	18	5.5
2025-08-06T12:00	15400	121	-57.5	-83.7	289	18	5.5
2025-08-06T12:00	15450	120	-57.0	-83.7	293	17	5.5
2025-08-06T12:00	15500	119	-56.8	-83.7	294	16	5.4
2025-08-06T12:00	15550	118	-56.6	-83.6	290	15	5.4
2025-08-06T12:00	15600	117	-56.7	-83.7	284	14	5.4
2025-08-06T12:00	15650	116	-56.5	-83.8	276	13	5.4
2025-08-06T12:00	15700	116	-55.9	-83.7	269	13	5.4
2025-08-06T12:00	15750	115	-56.2	-83.7	265	13	5.6
2025-08-06T12:00	15800	114	-56.6	-83.7	264	14	5.8
2025-08-06T12:00	15850	113	-57.0	-83.7	263	15	5.9
2025-08-06T12:00	15900	112	-57.5	-83.9	263	15	6.0
2025-08-06T12:00	15950	111	-57.9	-84.0	264	16	6.0
2025-08-06T12:00	16000	110	-58.1	-84.2	266	16	6.0
2025-08-06T12:00	16050	109	-58.3	-84.4	270	16	6.0
2025-08-06T12:00	16100	108	-58.3	-84.4	276	17	5.9
2025-08-06T12:00	16150	108	-58.2	-84.6	282	17	5.9
2025-08-06T12:00	16200	107	-58.0	-84.6	288	16	6.0
2025-08-06T12:00	16250	106	-57.6	-84.6	293	15	6.1
2025-08-06T12:00	16300	105	-56.9	-84.3	293	14	6.3
2025-08-06T12:00	16350	104	-57.2	-84.4	290	13	6.5
2025-08-06T12:00	16400	103	-57.2	-84.3	283	11	6.4
2025-08-06T12:00	16450	103	-57.1	-84.3	274	11	6.3
2025-08-06T12:00	16500	102	-57.3	-84.5	269	11	6.2
2025-08-06T12:00	16550	101	-57.5	-84.7	268	12	6.2
2025-08-06T12:00	16600	100	-57.3	-84.7	270	13	6.2
2025-08-06T12:00	16650	99	-56.7	-84.5	272	14	6.3
2025-08-06T12:00	16700	99	-56.2	-84.3	274	14	6.4
2025-08-06T12:00	16750	98	-56.5	-84.4	277	14	6.2
2025-08-06T12:00	16800	97	-56.4	-84.3	282	14	6.1
2025-08-06T12:00	16850	96	-55.8	-84.2	285	13	5.9
2025-08-06T12:00	16900	96	-55.7	-84.4	284	13	5.9
2025-08-06T12:00	16950	95	-55.3	-84.1	280	12	6.0
2025-08-06T12:00	17000	94	-55.7	-84.2	275	12	6.0
2025-08-06T12:00	17050	93	-56.2	-84.4	271	12	6.0
2025-08-06T12:00	17100	93	-56.0	-84.2	269	12	6.0
2025-08-06T12:00	17150	92	-56.1	-84.3	268	11	6.2
2025-08-06T12:00	17200	91	-56.1	-84.4	267	11	6.3
2025-08-06T12:00	17250	90	-56.3	-84.4	265	12	6.4
2025-08-06T12:00	17300	90	-56.6	-84.5	267	12	6.4
2025-08-06T12:00	17350	89	-56.8	-84.7	272	12	6.3
2025-08-06T12:00	17400	88	-56.8	-84.8	277	11	6.3
2025-08-06T12:00	17450	88	-56.6	-84.9	278	10	6.4
2025-08-06T12:00	17500	87	-56.1	-84.7	273	8	6.5
2025-08-06T12:00	17550	86	-56.0	-84.7	263	8	6.6
2025-08-06T12:00	17600	86	-56.2	-84.8	252	8	6.6
2025-08-06T12:00	17650	85	-55.9	-84.6	243	8	6.9
2025-08-06T12:00	17700	84	-55.9	-84.5	239	8	7.0
2025-08-06T12:00	17750	84	-56.2	-84.6	242	9	7.2
2025-08-06T12:00	17800	83	-56.1	-84.7	249	10	7.2
2025-08-06T12:00	17850	82	-55.8	-84.7	254	10	7.3
2025-08-06T12:00	17900	82	-55.5	-84.6	255	10	7.4
2025-08-06T12:00	17950	81	-55.4	-84.4	255	9	7.6
2025-08-06T12:00	18000	80	-55.8	-84.5	255	9	7.8
2025-08-06T12:00	18050	80	-56.0	-84.6	255	8	7.8
2025-08-06T12:00	18100	79	-55.8	-84.5	253	8	7.9
2025-08-06T12:00	18150	78	-55.8	-84.5	253	9	8.0
2025-08-06T12:00	18200	78	-55.9	-84.5	255	9	8.1
2025-08-06T12:00	18250	77	-56.3	-84.7	258	9	8.3
2025-08-06T12:00	18300	77	-56.1	-84.9	256	8	8.3
2025-08-06T12:00	18350	76	-55.2	-84.7	250	6	8.4
2025-08-06T12:00	18400	75	-54.7	-84.6	246	5	8.7
2025-08-06T12:00	18450	75	-54.5	-84.4	245	4	8.9
2025-08-06T12:00	18500	74	-54.4	-84.2	238	4	9.0
2025-08-06T12:00	18550	74	-54.6	-84.1	232	4	9.3
2025-08-06T12:00	18600	73	-54.9	-84.1	230	5	9.6
2025-08-06T12:00	18650	73	-55.4	-84.2	231	5	9.6
2025-08-06T12:00	18700	72	-55.8	-84.3	233	6	9.4
2025-08-06T12:00	18750	71	-56.2	-84.4	238	7	9.2
2025-08-06T12:00	18800	71	-56.6	-84.7	245	7	9.1
2025-08-06T12:00	18850	70	-56.7	-84.8	252	8	8.9
2025-08-06T12:00	18900	70	-56.8	-84.9	259	9	10.3
2025-08-06T12:00	18950	69	-56.9	-85.0	267	9	10.5
2025-08-06T12:00	19000	69	-56.7	-85.1	273	9	9.5
2025-08-06T12:00	19050	68	-56.5	-85.2	278	9	8.9
2025-08-06T12:00	19100	68	-56.2	-85.2	283	8	8.5
2025-08-06T12:00	19150	67	-55.6	-85.1	289	6	8.4
2025-08-06T12:00	19200	67	-55.0	-84.8	293	4	8.2
2025-08-06T12:00	19250	66	-55.0	-84.7	297	3	9.4
2025-08-06T12:00	19300	66	-55.1	-84.6	296	2	9.5
2025-08-06T12:00	19350	65	-55.1	-84.4	289	2	9.2
2025-08-06T12:00	19400	64	-55.6	-84.6	277	3	8.5
2025-08-06T12:00	19450	64	-56.0	-84.7	270	4	8.3
2025-08-06T12:00	19500	64	-56.1	-84.8	273	4	8.1
2025-08-06T12:00	19550	63	-55.8	-85.0	284	4	8.2
2025-08-06T12:00	19600	63	-55.2	-85.0	298	3	8.1
2025-08-06T12:00	19650	62	-54.7	-84.8	307	1	8.1
2025-08-06T12:00	19700	62	-54.6	-84.6	286	1	8.2
2025-08-06T12:00	19750	61	-54.9	-84.5	256	1	10.2
2025-08-06T12:00	19800	61	-55.2	-84.5	253	2	10.2
2025-08-06T12:00	19850	60	-55.3	-84.5	259	3	9.6
2025-08-06T12:00	19900	60	-55.6	-84.7	267	4	9.3
2025-08-06T12:00	19950	59	-55.7	-84.9	273	3	9.4
2025-08-06T12:00	20000	59	-55.3	-84.8	278	2	9.5
2025-08-06T12:00	20050	58	-55.2		265	1	9.3
2025-08-06T12:00	20100	58	-55.4		181	1	9.3
2025-08-06T12:00	20150	57	-55.0		148	1	9.3
2025-08-06T12:00	20200	57	-54.0		143	2	9.4
2025-08-06T12:00	20250	56	-53.9		151	1	9.6
2025-08-06T12:00	20300	56	-54.1		158	0	10.4
2025-08-06T12:00	20350	56	-54.2		103	0	10.1
2025-08-06T12:00	20400	55	-54.0		87	1	10.1
2025-08-06T12:00	20450	55	-53.9		87	2	10.2
2025-08-06T12:00	20500	54	-53.9		86	2	10.2
2025-08-06T12:00	20550	54	-53.9		88	3	10.1
2025-08-06T12:00	20600	53	-54.1		98	3	10.7
2025-08-06T12:00	20650	53	-54.3		121	3	10.6
2025-08-06T12:00	20700	53	-54.5		142	4	10.5
2025-08-06T12:00	20750	52	-54.7		153	5	10.6
2025-08-06T12:00	20800	52	-54.7		161	5	10.5
2025-08-06T12:00	20850	51	-55.1		170	5	10.7
2025-08-06T12:00	20900	51	-55.4		181	4	10.6
2025-08-06T12:00	20950	51	-55.3		191	3	10.2
2025-08-06T12:00	21000	50	-55.1		187	2	10.0
2025-08-06T12:00	21050	50	-54.8		151	2	10.7
2025-08-06T12:00	21100	49	-54.4		131	3	10.8
2025-08-06T12:00	21150	49	-54.3		132	5	11.0
2025-08-06T12:00	21200	49	-54.5		135	7	11.0
2025-08-06T12:00	21250	48	-54.2		140	7	10.7
2025-08-06T12:00	21300	48	-53.8		145	7	11.3
2025-08-06T12:00	21350	48	-53.8		149	5	11.4
2025-08-06T12:00	21400	47	-53.6		149	4	11.5
2025-08-06T12:00	21450	47	-53.4		147	4	12.1
2025-08-06T12:00	21500	46	-53.6		142	4	12.1
2025-08-06T12:00	21550	46	-53.4		130	4	12.3
2025-08-06T12:00	21600	46	-53.1		113	4	12.1
2025-08-06T12:00	21650	45	-52.8		108	5	12.3
2025-08-06T12:00	21700	45	-52.9		116	6	12.4
2025-08-06T12:00	21750	45	-53.0		126	7	12.6
2025-08-06T12:00	21800	44	-53.2		134	7	12.4
2025-08-06T12:00	21850	44	-53.3		140	7	12.5
2025-08-06T12:00	21900	44	-53.2		145	7	12.5
2025-08-06T12:00	21950	43	-53.7		151	7	12.3
2025-08-06T12:00	22000	43	-54.0		159	6	12.2
2025-08-06T12:00	22050	43	-53.9		168	6	12.7
2025-08-06T12:00	22100	42	-54.0		172	5	12.6
2025-08-06T12:00	22150	42	-54.0		172	5	12.3
2025-08-06T12:00	22200	42	-54.4		172	5	12.6
2025-08-06T12:00	22250	41	-54.5		172	5	12.5
2025-08-06T12:00	22300	41	-54.1		170	5	12.3
2025-08-06T12:00	22350	41	-54.0		167	5	12.7
2025-08-06T12:00	22400	40	-54.0		164	5	12.9
2025-08-06T12:00	22450	40	-54.2		160	4	12.7
2025-08-06T12:00	22500	40	-54.3		152	4	12.8
2025-08-06T12:00	22550	39	-54.2		140	4	12.5
2025-08-06T12:00	22600	39	-53.9		131	4	12.5
2025-08-06T12:00	22650	39	-53.8		127	4	12.6
2025-08-06T12:00	22700	39	-53.7		128	5	12.8
2025-08-06T12:00	22750	38	-53.7		129	6	12.8
2025-08-06T12:00	22800	38	-53.4		130	7	12.7
2025-08-06T12:00	22850	38	-52.9		131	7	12.6
2025-08-06T12:00	22900	37	-52.5		136	7	12.7
2025-08-06T12:00	22950	37	-52.1		139	8	12.7
2025-08-06T12:00	23000	37	-51.8		138	7	13.1
2025-08-06T12:00	23050	36	-51.7		134	6	13.5
2025-08-06T12:00	23100	36	-51.6		130	4	13.5
2025-08-06T12:00	23150	36	-51.8		127	3	13.5
2025-08-06T12:00	23200	36	-51.9		117	2	13.4
2025-08-06T12:00	23250	35	-51.9		94	2	13.2
2025-08-06T12:00	23300	35	-52.0		85	2	13.2
2025-08-06T12:00	23350	35	-52.2		88	3	13.2
2025-08-06T12:00	23400	35	-52.3		95	4	13.1
2025-08-06T12:00	23450	34	-52.4		101	4	13.1
2025-08-06T12:00	23500	34	-52.4		101	4	13.0
2025-08-06T12:00	23550	34	-52.3		96	4	13.0
2025-08-06T12:00	23600	34	-52.6		96	4	13.1
2025-08-06T12:00	23650	33	-52.6		106	5	13.0
2025-08-06T12:00	23700	33	-52.1		114	5	13.1
2025-08-06T12:00	23750	33	-51.6		116	5	13.1
2025-08-06T12:00	23800	32	-51.2		116	4	12.9
2025-08-06T12:00	23850	32	-51.2		112	4	12.9
2025-08-06T12:00	23900	32	-51.2		104	4	12.9
2025-08-06T12:00	23950	32	-51.0		97	4	12.8
2025-08-06T12:00	24000	32	-50.9		98	5	12.8
2025-08-06T12:00	24050	31	-50.7		108	5	12.7
2025-08-06T12:00	24100	31	-50.6		119	6	12.6
2025-08-06T12:00	24150	31	-50.5		123	6	12.7
2025-08-06T12:00	24200	31	-50.2		126	7	12.6
2025-08-06T12:00	24250	30	-50.2		130	8	12.7
2025-08-06T12:00	24300	30	-50.4		134	8	12.5
2025-08-06T12:00	24350	30	-50.4		138	7	12.6
2025-08-06T12:00	24400	30	-50.4		144	7	12.8
2025-08-06T12:00	24450	29	-50.6		153	6	12.7
2025-08-06T12:00	24500	29	-51.0		162	7	12.5
2025-08-06T12:00	24550	29	-51.3		168	7	12.4
2025-08-06T12:00	24600	29	-51.2		171	6	12.3
2025-08-06T12:00	24650	29	-50.9		168	4	12.4
2025-08-06T12:00	24700	28	-51.1		158	3	12.5
2025-08-06T12:00	24750	28	-51.4		146	3	12.6
2025-08-06T12:00	24800	28	-51.5		130	3	12.7
2025-08-06T12:00	24850	28	-51.3		115	3	12.8
2025-08-06T12:00	24900	27	-51.2		106	4	12.9
2025-08-06T12:00	24950	27	-50.8		102	4	13.0
2025-08-06T12:00	25000	27	-50.4		97	5	13.0
2025-08-06T12:00	25050	27	-50.3		90	6	13.1
2025-08-06T12:00	25100	27	-50.4		85	6	13.1
2025-08-06T12:00	25150	26	-50.5		83	8	13.2
2025-08-06T12:00	25200	26	-50.3		85	9	13.1
2025-08-06T12:00	25250	26	-50.1		89	9	13.1
2025-08-06T12:00	25300	26	-50.0		95	10	13.0
2025-08-06T12:00	25350	26	-50.0		100	10	13.2
2025-08-06T12:00	25400	25	-50.1		104	10	13.2
2025-08-06T12:00	25450	25	-49.8		108	10	13.1
2025-08-06T12:00	25500	25	-49.9		112	9	13.0
2025-08-06T12:00	25550	25	-50.0		117	8	12.8
2025-08-06T12:00	25600	25	-50.0		121	8	12.7
2025-08-06T12:00	25650	24	-49.9		124	7	12.7
2025-08-06T12:00	25700	24	-49.6		125	6	12.6
2025-08-06T12:00	25750	24	-49.3		127	5	12.6
2025-08-06T12:00	25800	24	-49.1		128	4	12.5
2025-08-06T12:00	25850	24	-49.2		123	4	12.4
2025-08-06T12:00	25900	24	-49.2		114	5	12.4
2025-08-06T12:00	25950	23	-49.1		104	5	12.3
2025-08-06T12:00	26000	23	-49.0		95	6	12.1
2025-08-06T12:00	26050	23	-49.2		88	6	12.0
2025-08-06T12:00	26100	23	-49.3		83	6	11.9
2025-08-06T12:00	26150	23	-49.1		81	7	11.9
2025-08-06T12:00	26200	22	-48.9		83	7	11.8
2025-08-06T12:00	26250	22	-48.7		87	7	11.8
2025-08-06T12:00	26300	22	-48.3		92	7	11.7
2025-08-06T12:00	26350	22	-48.2		97	7	11.7
2025-08-06T12:00	26400	22	-48.2		100	7	11.8
2025-08-06T12:00	26450	22	-48.3		99	7	11.8
2025-08-06T12:00	26500	21	-48.3		96	7	11.8
2025-08-06T12:00	26550	21	-48.2		92	8	11.9
2025-08-06T12:00	26600	21	-47.8		90	8	11.9
2025-08-06T12:00	26650	21	-47.6		90	9	12.0
2025-08-06T12:00	26700	21	-47.7		91	9	11.9
2025-08-06T12:00	26750	21	-47.7		93	9	12.0
2025-08-06T12:00	26800	21	-47.7		96	8	12.2
2025-08-06T12:00	26850	20	-47.7		99	7	12.1
2025-08-06T12:00	26900	20	-47.5		99	6	12.0
2025-08-06T12:00	26950	20	-47.0		94	7	12.0
2025-08-06T12:00	27000	20	-46.8		90	8	12.0
2025-08-06T12:00	27050	20	-46.4		92	10	11.9
2025-08-06T12:00	27100	20	-46.2		97	12	11.9
2025-08-06T12:00	27150	19	-46.2		103	13	11.8
2025-08-06T12:00	27200	19	-46.0		107	14	11.8
2025-08-06T12:00	27250	19	-45.8		109	14	11.8
2025-08-06T12:00	27300	19	-45.3		108	13	11.8
2025-08-06T12:00	27350	19	-44.7		104	12	11.9
2025-08-06T12:00	27400	19	-44.3		98	10	11.8
2025-08-06T12:00	27450	19	-44.2		95	9	11.8
2025-08-06T12:00	27500	18	-44.5		95	8	11.8
2025-08-06T12:00	27550	18	-44.5		94	7	11.8
2025-08-06T12:00	27600	18	-44.3		89	7	11.7
2025-08-06T12:00	27650	18	-44.1		82	8	11.6
2025-08-06T12:00	27700	18	-44.2		77	8	11.5
2025-08-06T12:00	27750	18	-44.3		73	9	11.6
2025-08-06T12:00	27800	18	-44.4		72	10	11.5
2025-08-06T12:00	27850	18	-44.6		74	11	11.4
2025-08-06T12:00	27900	17	-44.8		78	11	11.4
2025-08-06T12:00	27950	17	-44.9		83	11	11.3
2025-08-06T12:00	28000	17	-45.0		89	11	11.2
2025-08-06T12:00	28050	17	-45.2		95	10	11.2
2025-08-06T12:00	28100	17	-45.4		102	10	11.1
2025-08-06T12:00	28150	17	-45.7		109	10	11.1
2025-08-06T12:00	28200	17	-46.0		115	10	11.0
2025-08-06T12:00	28250	17	-46.1		121	9	10.9
2025-08-06T12:00	28300	16	-45.9		125	9	10.9
2025-08-06T12:00	28350	16	-46.0		126	8	10.9
2025-08-06T12:00	28400	16	-46.1		126	8	11.0
2025-08-06T12:00	28450	16	-46.1		124	8	11.0
2025-08-06T12:00	28500	16	-46.2		122	7	10.9
2025-08-06T12:00	28550	16	-46.4		115	7	10.8
2025-08-06T12:00	28600	16	-46.2		109	8	10.7
2025-08-06T12:00	28650	16	-46.0		109	8	10.7
2025-08-06T12:00	28700	15	-45.9		114	8	10.6
2025-08-06T12:00	28750	15	-46.1		123	8	10.6
2025-08-06T12:00	28800	15	-46.0		129	8	10.5
2025-08-06T12:00	28850	15	-45.8		133	7	10.6
2025-08-06T12:00	28900	15	-45.4		134	6	10.5
2025-08-06T12:00	28950	15	-44.7		130	5	10.5
2025-08-06T12:00	29000	15	-44.4		119	5	10.5
2025-08-06T12:00	29050	15	-44.0		105	5	10.6
2025-08-06T12:00	29100	15	-43.7		95	7	10.4
2025-08-06T12:00	29150	14	-43.5		90	8	10.0
2025-08-06T12:00	29200	14	-42.9		91	8	10.2
2025-08-06T12:00	29250	14	-42.6		95	7	10.3
2025-08-06T12:00	29300	14	-42.3		101	7	10.0
2025-08-06T12:00	29350	14	-42.1		100	7	10.0
2025-08-06T12:00	29400	14	-41.5		94	7	10.1
2025-08-06T12:00	29450	14	-41.1		84	7	9.8
2025-08-06T12:00	29500	14	-40.9		76	8	9.9
2025-08-06T12:00	29550	14	-40.7		72	9	9.8
2025-08-06T12:00	29600	14	-40.6		72	10	9.7
2025-08-06T12:00	29650	13	-40.2		76	12	9.7
2025-08-06T12:00	29700	13	-40.1		82	12	9.5
2025-08-06T12:00	29750	13	-40.2		89	13	9.5
2025-08-06T12:00	29800	13	-40.3		96	13	9.4
2025-08-06T12:00	29850	13	-40.4		102	13	9.4
2025-08-06T12:00	29900	13	-40.2		105	12	9.4
2025-08-06T12:00	29950	13	-40.2		107	11	9.5
2025-08-06T12:00	30000	13	-40.4		107	9	9.4
2025-08-06T12:00	30050	13	-40.3		105	8	9.3
2025-08-06T12:00	30100	13	-40.3		101	7	9.2
2025-08-06T12:00	30150	12	-40.5		94	6	9.3
2025-08-06T12:00	30200	12	-40.7		87	6	9.2
2025-08-06T12:00	30250	12	-40.6		84	7	9.2
2025-08-06T12:00	30300	12	-40.4		87	8	9.2
2025-08-06T12:00	30350	12	-40.5		93	9	9.2
2025-08-06T12:00	30400	12	-40.6		98	10	9.1
2025-08-06T12:00	30450	12	-40.8		101	11	8.8
2025-08-06T12:00	30500	12	-40.5		102	11	8.8
2025-08-06T12:00	30550	12	-40.2		103	11	8.8
2025-08-06T12:00	30600	12	-40.5		106	11	8.7
2025-08-06T12:00	30650	12	-40.8		111	10	8.7
2025-08-06T12:00	30700	11	-41.0		116	11	8.5
2025-08-06T12:00	30750	11	-41.2		120	11	8.5
2025-08-06T12:00	30800	11	-41.1		121	11	8.5
2025-08-06T12:00	30850	11	-40.9		118	10	8.4
2025-08-06T12:00	30900	11	-40.7		113	9	8.3
2025-08-06T12:00	30950	11	-40.6		106	8	8.2
2025-08-06T12:00	31000	11	-40.4		101	8	8.2
2025-08-06T12:00	31050	11	-40.1		98	9	8.2
2025-08-06T12:00	31100	11	-39.7		99	10	8.0
2025-08-06T12:00	31150	11	-39.2		100	11	8.0
2025-08-06T12:00	31200	11	-38.7		103	12	7.9
2025-08-06T12:00	31250	11	-38.4		107	12	7.7
2025-08-06T12:00	31300	11	-38.2		115	12	7.6
2025-08-06T12:00	31350	10	-38.4		121	12	7.6
2025-08-06T12:00	31400	10	-38.4		124	12	7.6
2025-08-06T12:00	31450	10	-37.8		118	10	7.5
2025-08-06T12:00	31500	10	-37.5		107	9	7.4
2025-08-06T12:00	31550	10	-37.1		95	9	7.4
2025-08-06T12:00	31600	10	-36.9		85	9	7.3
2025-08-06T12:00	31650	10	-36.5		78	9	7.2
2025-08-06T12:00	31700	10	-36.2		73	9	7.2
2025-08-06T12:00	31750	10	-36.3		71	9	7.2
2025-08-06T12:00	31800	10	-36.6		71	10	7.2
2025-08-06T12:00	31850	10	-36.6		70	11	7.2
2025-08-06T12:00	31900	10	-36.4		69	12	7.1
2025-08-06T12:00	31950	10	-36.6		70	12	7.1
2025-08-06T12:00	32000	10	-36.8		74	12	7.1
2025-08-06T12:00	32050	9	-36.9		80	12	7.2
2025-08-06T12:00	32100	9	-37.1		85	13	7.3
2025-08-06T12:00	32150	9	-37.2		86	14	7.1
2025-08-06T12:00	32200	9	-36.9		86	14	7.0
2025-08-06T12:00	32250	9	-36.8		86	15	6.9
2025-08-06T12:00	32300	9	-36.8		88	15	6.8
2025-08-06T12:00	32350	9	-36.9		91	15	6.7
2025-08-06T12:00	32400	9	-37.0		95	14	6.6
2025-08-06T12:00	32450	9	-37.3		97	14	6.6
2025-08-06T12:00	32500	9	-37.5		99	13	6.5
2025-08-06T12:00	32550	9	-37.6		99	13	6.4
2025-08-06T12:00	32600	9	-37.9		101	12	6.3
2025-08-06T12:00	32650	9	-38.1		103	12	6.3
2025-08-06T12:00	32700	9	-38.2		105	12	6.2
2025-08-06T12:00	32750	9	-38.2		103	12	6.1
2025-08-06T12:00	32800	8	-38.0		96	12	6.1
2025-08-06T12:00	32850	8	-37.7		90	13	6.0
2025-08-06T12:00	32900	8	-37.5		89	14	6.1
2025-08-06T12:00	32950	8	-37.4		91	15	6.1
2025-08-06T12:00	33000	8	-37.2		91	15	6.0
2025-08-06T12:00	33050	8	-36.9		89	16	6.0
2025-08-06T12:00	33100	8	-36.7		88	16	5.9
2025-08-06T12:00	33150	8	-36.7		86	15	5.8
2025-08-06T12:00	33200	8	-36.8		86	14	5.8
2025-08-06T12:00	33250	8	-36.9		84	13	5.7
2025-08-06T12:00	33300	8	-36.8		82	13	5.7
2025-08-06T12:00	33350	8	-36.7		78	13	5.6
2025-08-06T12:00	33400	8	-36.8		76	14	5.6
2025-08-06T12:00	33450	8	-36.9		77	14	5.6
2025-08-06T12:00	33500	8	-37.0		80	15	5.5
2025-08-06T12:00	33550	8	-37.1		84	16	5.5
2025-08-06T12:00	33600	8	-37.2		87	17	5.4
2025-08-06T12:00	33650	7	-37.2		90	17	5.4
2025-08-06T12:00	33700	7	-37.4		95	17	
2025-08-06T12:00	33750	7	-37.6		99	17	
2025-08-06T12:00	33800	7	-37.7		101	16	
2025-08-06T12:00	33850	7	-37.7		99	16	
2025-08-06T12:00	33900	7	-37.7		97	15	
2025-08-06T12:00	33950	7	-37.6		97	15	
2025-08-07T00:00	491	963	14.2	11.9	194	1	
2025-08-07T00:00	520	960	16.2	12.4	239	1	
2025-08-07T00:00	540	958	16.7	12.1	252	1	
2025-08-07T00:00	560	955	17.4	11.8	265	1	
2025-08-07T00:00	580	953	17.5	11.7	279	1	
2025-08-07T00:00	600	951	17.6	11.7	298	1	
2025-08-07T00:00	620	949	17.7	11.7	319	1	
2025-08-07T00:00	640	947	17.6	11.7	336	1	
2025-08-07T00:00	660	945	17.5	11.6	351	2	
2025-08-07T00:00	680	942	17.3	11.6	3	2	
2025-08-07T00:00	700	940	17.1	11.5	12	2	
2025-08-07T00:00	720	938	16.9	11.4	17	2	
2025-08-07T00:00	740	936	16.8	11.3	21	2	
2025-08-07T00:00	760	933	16.7	11.1	25	2	
2025-08-07T00:00	780	931	16.8	10.8	27	2	
2025-08-07T00:00	800	929	16.9	10.7	29	2	
2025-08-07T00:00	820	927	16.8	10.7	31	2	
2025-08-07T00:00	840	925	16.6	10.7	33	2	
2025-08-07T00:00	860	923	16.4	10.7	34	2	
2025-08-07T00:00	880	920	16.2	10.7	37	2	
2025-08-07T00:00	900	918	16.1	10.8	40	2	
2025-08-07T00:00	920	916	15.9	10.8	44	1	
2025-08-07T00:00	940	914	15.8	11.0	49	1	
2025-08-07T00:00	960	912	15.8	11.0	54	1	
2025-08-07T00:00	980	910	15.7	11.0	59	1	
2025-08-07T00:00	1000	907	15.7	11.1	61	1	
2025-08-07T00:00	1020	905	15.6	11.2	57	1	
2025-08-07T00:00	1040	903	15.6	11.3	50	1	
2025-08-07T00:00	1060	901	15.6	11.4	40	1	
2025-08-07T00:00	1080	899	15.6	11.5	27	1	
2025-08-07T00:00	1100	897	15.5	11.5	13	1	
2025-08-07T00:00	1120	895	15.4	11.4	360	1	
2025-08-07T00:00	1140	893	15.3	11.5	342	1	
2025-08-07T00:00	1160	891	15.1	11.6	326	1	
2025-08-07T00:00	1180	889	15.0	11.6	312	1	
2025-08-07T00:00	1200	886	14.9	11.5	301	1	
2025-08-07T00:00	1220	884	14.7	11.3	295	1	
2025-08-07T00:00	1240	882	14.6	11.2	290	1	
2025-08-07T00:00	1260	880	14.4	11.2	281	1	
2025-08-07T00:00	1280	878	14.3	11.1	266	1	
2025-08-07T00:00	1300	876	14.2	11.0	250	1	
2025-08-07T00:00	1320	874	14.1	10.9	238	1	
2025-08-07T00:00	1340	872	14.1	10.8	233	1	
2025-08-07T00:00	1360	870	14.2	10.4	231	2	
2025-08-07T00:00	1380	868	14.3	10.0	232	2	
2025-08-07T00:00	1400	866	14.2	9.6	234	3	
2025-08-07T00:00	1420	864	14.2	9.2	236	3	
2025-08-07T00:00	1440	862	14.1	9.0	236	4	
2025-08-07T00:00	1460	860	14.0	8.4	235	4	
2025-08-07T00:00	1480	858	13.9	8.0	233	4	
2025-08-07T00:00	1500	856	13.8	7.0	230	5	
2025-08-07T00:00	1520	853	13.7	7.9	227	5	
2025-08-07T00:00	1540	851	14.0	5.9	225	6	
2025-08-07T00:00	1560	850	14.2	4.5	225	6	
2025-08-07T00:00	1580	847	14.2	3.7	225	6	
2025-08-07T00:00	1600	845	14.0	4.3	226	7	
2025-08-07T00:00	1620	843	13.8	6.3	227	7	
2025-08-07T00:00	1640	841	13.6	8.3	227	7	
2025-08-07T00:00	1660	839	13.5	9.2	225	8	
2025-08-07T00:00	1680	837	13.3	9.8	224	8	
2025-08-07T00:00	1700	835	13.1	10.3	222	9	
2025-08-07T00:00	1720	833	13.1	10.3	221	9	
2025-08-07T00:00	1740	832	13.2	9.9	221	10	
2025-08-07T00:00	1760	829	13.2	9.5	221	10	
2025-08-07T00:00	1780	827	13.2	9.1	222	10	
2025-08-07T00:00	1800	826	13.1	8.7	223	10	
2025-08-07T00:00	1820	824	13.0	8.6	224	10	
2025-08-07T00:00	1840	822	12.9	8.2	226	11	
2025-08-07T00:00	1860	820	12.8	7.3	227	11	
2025-08-07T00:00	1880	818	12.9	6.6	227	11	
2025-08-07T00:00	1900	816	12.9	6.1	227	11	
2025-08-07T00:00	1920	814	12.8	5.5	226	11	
2025-08-07T00:00	1940	812	12.7	4.8	226	11	
2025-08-07T00:00	1960	810	12.6	4.9	225	11	
2025-08-07T00:00	1980	808	12.5	4.6	224	11	
2025-08-07T00:00	2000	806	12.5	3.4	225	12	
2025-08-07T00:00	2020	804	12.6	1.6	225	12	
2025-08-07T00:00	2040	802	12.6	1.2	227	12	
2025-08-07T00:00	2060	800	12.5	-0.1	229	11	
2025-08-07T00:00	2080	799	12.5	-1.0	230	11	
2025-08-07T00:00	2100	797	12.5	-1.8	231	12	
2025-08-07T00:00	2120	795	12.3	-1.5	231	12	
2025-08-07T00:00	2140	793	12.1	-0.5	231	12	
2025-08-07T00:00	2160	791	12.2	-2.5	231	12	
2025-08-07T00:00	2180	789	12.2	-2.7	231	12	
2025-08-07T00:00	2200	787	12.0	-1.7	231	12	
2025-08-07T00:00	2220	785	11.8	-1.1	231	13	
2025-08-07T00:00	2240	783	11.6	-0.6	231	13	
2025-08-07T00:00	2260	782	11.4	-0.3	231	13	
2025-08-07T00:00	2280	780	11.2	0.5	231	13	
2025-08-07T00:00	2300	778	11.1	0.8	231	14	
2025-08-07T00:00	2320	776	10.9	1.0	231	14	
2025-08-07T00:00	2340	774	10.6	1.7	230	14	
2025-08-07T00:00	2360	772	10.4	2.4	229	14	
2025-08-07T00:00	2380	770	10.1	3.9	229	14	
2025-08-07T00:00	2400	769	9.8	5.0	228	14	
2025-08-07T00:00	2420	767	9.6	5.8	227	14	
2025-08-07T00:00	2440	765	9.4	7.0	227	14	
2025-08-07T00:00	2460	763	9.2	6.8	227	14	
2025-08-07T00:00	2480	761	9.0	6.8	227	14	
2025-08-07T00:00	2500	759	8.8	6.8	227	14	
2025-08-07T00:00	2520	757	8.7	6.9	226	14	
2025-08-07T00:00	2540	756	8.5	7.3	226	14	
2025-08-07T00:00	2560	754	8.4	7.3	226	15	
2025-08-07T00:00	2580	752	8.4	7.0	225	15	
2025-08-07T00:00	2600	750	8.2	7.1	224	15	
2025-08-07T00:00	2620	749	8.1	6.9	223	15	
2025-08-07T00:00	2640	747	8.0	6.4	222	15	
2025-08-07T00:00	2660	745	7.8	6.5	221	16	
2025-08-07T00:00	2680	743	7.6	6.5	221	16	
2025-08-07T00:00	2700	741	7.4	6.3	221	16	
2025-08-07T00:00	2720	739	7.3	6.1	221	16	
2025-08-07T00:00	2740	738	7.2	5.8	221	16	
2025-08-07T00:00	2760	736	7.1	5.5	223	16	
2025-08-07T00:00	2780	734	6.9	5.0	225	16	
2025-08-07T00:00	2800	732	6.8	4.9	226	16	
2025-08-07T00:00	2820	730	6.5	4.9	227	15	
2025-08-07T00:00	2840	729	6.4	4.8	228	15	
2025-08-07T00:00	2860	727	6.2	4.5	228	15	
2025-08-07T00:00	2880	725	6.1	3.3	228	15	
2025-08-07T00:00	2900	724	6.0	1.9	228	15	
2025-08-07T00:00	2920	722	6.0	0.0	228	15	
2025-08-07T00:00	2940	720	5.9	-1.6	229	15	
2025-08-07T00:00	2960	718	5.9	-2.2	230	15	
2025-08-07T00:00	2980	717	5.7	-2.7	232	15	
2025-08-07T00:00	3000	715	5.6	-3.1	234	14	
2025-08-07T00:00	3020	713	5.8	-7.1	236	14	
2025-08-07T00:00	3040	711	5.9	-9.4	238	14	
2025-08-07T00:00	3060	709	5.8	-10.6	239	13	
2025-08-07T00:00	3080	708	5.8	-12.0	239	13	
2025-08-07T00:00	3100	706	5.8	-15.9	240	13	
2025-08-07T00:00	3120	704	5.7	-20.0	240	12	
2025-08-07T00:00	3140	702	5.7	-27.5	241	12	
2025-08-07T00:00	3160	701	5.6	-33.2	241	12	
2025-08-07T00:00	3180	699	5.6	-36.8	242	12	
2025-08-07T00:00	3200	697	5.6	-40.1	243	12	
2025-08-07T00:00	3220	696	5.6	-40.0	244	12	
2025-08-07T00:00	3240	694	5.7	-40.4	245	11	
2025-08-07T00:00	3260	692	5.8	-40.0	247	11	
2025-08-07T00:00	3280	690	5.7	-39.5	248	11	
2025-08-07T00:00	3300	689	5.5	-39.1	248	10	
2025-08-07T00:00	3320	687	5.4	-39.1	248	10	
2025-08-07T00:00	3340	686	5.2	-39.0	247	10	
2025-08-07T00:00	3360	684	5.1	-38.9	247	9	
2025-08-07T00:00	3380	682	4.9	-38.9	248	9	
2025-08-07T00:00	3400	680	4.7	-39.2	248	9	
2025-08-07T00:00	3420	679	4.6	-40.3	249	9	
2025-08-07T00:00	3440	677	4.5	-41.2	249	9	
2025-08-07T00:00	3460	676	4.4	-41.7	249	9	
2025-08-07T00:00	3480	674	4.3	-41.2	248	9	
2025-08-07T00:00	3500	672	4.2	-40.8	247	9	
2025-08-07T00:00	3520	670	4.1	-40.6	246	9	
2025-08-07T00:00	3540	669	4.0	-40.6	246	9	
2025-08-07T00:00	3560	667	3.8	-40.6	246	9	
2025-08-07T00:00	3580	666	3.7	-40.8	246	9	
2025-08-07T00:00	3600	664	3.6	-41.2	248	9	
2025-08-07T00:00	3620	662	3.5	-39.7	250	9	
2025-08-07T00:00	3640	661	3.3	-37.2	253	9	
2025-08-07T00:00	3660	659	3.2	-37.8	255	9	
2025-08-07T00:00	3680	657	3.1	-37.8	257	9	
2025-08-07T00:00	3700	656	3.0	-34.8	258	9	
2025-08-07T00:00	3720	654	2.9	-29.7	259	9	
2025-08-07T00:00	3740	653	2.7	-25.2	258	9	
2025-08-07T00:00	3760	651	2.5	-24.2	256	9	
2025-08-07T00:00	3780	649	2.4	-23.4	254	9	
2025-08-07T00:00	3800	648	2.2	-24.0	252	9	
2025-08-07T00:00	3820	646	2.0	-25.9	250	9	
2025-08-07T00:00	3840	645	1.9	-28.8	249	9	
2025-08-07T00:00	3860	643	1.8	-34.3	249	10	
2025-08-07T00:00	3880	641	1.7	-38.9	249	10	
2025-08-07T00:00	3900	640	1.7	-36.1	249	10	
2025-08-07T00:00	3920	638	1.6	-36.4	249	10	
2025-08-07T00:00	3940	636	1.5	-34.4	249	10	
2025-08-07T00:00	3960	635	1.4	-32.5	249	10	
2025-08-07T00:00	3980	633	1.2	-31.7	248	10	
2025-08-07T00:00	4000	632	1.1	-30.6	248	9	
2025-08-07T00:00	4020	630	1.0	-30.0	248	9	
2025-08-07T00:00	4040	629	0.9	-29.8	248	8	
2025-08-07T00:00	4060	627	0.8	-30.1	248	8	
2025-08-07T00:00	4080	625	0.7	-30.9	248	8	
2025-08-07T00:00	4100	624	0.6	-30.0	248	7	
2025-08-07T00:00	4120	622	0.5	-29.7	248	7	
2025-08-07T00:00	4140	621	0.3	-29.7	247	7	
2025-08-07T00:00	4160	619	0.3	-32.0	246	7	
2025-08-07T00:00	4180	618	0.2	-33.2	246	7	
2025-08-07T00:00	4200	616	0.0	-33.7	247	7	
2025-08-07T00:00	4220	615	-0.1	-35.0	249	7	
2025-08-07T00:00	4240	613	-0.1	-36.1	253	6	
2025-08-07T00:00	4260	612	-0.2	-35.8	256	6	
2025-08-07T00:00	4280	610	-0.4	-35.1	260	6	
2025-08-07T00:00	4300	609	-0.5	-34.7	262	6	
2025-08-07T00:00	4320	607	-0.6	-33.4	263	7	
2025-08-07T00:00	4340	605	-0.8	-31.3	263	7	
2025-08-07T00:00	4360	604	-0.9	-28.8	263	7	
2025-08-07T00:00	4380	602	-1.0	-27.6	263	7	
2025-08-07T00:00	4400	601	-1.2	-26.4	264	7	
2025-08-07T00:00	4420	599	-1.3	-25.9	265	8	
2025-08-07T00:00	4440	598	-1.5	-25.3	267	8	
2025-08-07T00:00	4460	597	-1.6	-23.6	269	8	
2025-08-07T00:00	4480	595	-1.8	-22.5	270	8	
2025-08-07T00:00	4500	593	-1.9	-21.6	272	8	
2025-08-07T00:00	4520	592	-2.1	-21.2	273	8	
2025-08-07T00:00	4540	591	-2.3	-21.2	275	8	
2025-08-07T00:00	4560	589	-2.5	-20.7	276	7	
2025-08-07T00:00	4580	587	-2.7	-20.1	277	7	
2025-08-07T00:00	4600	586	-2.9	-19.4	277	7	
2025-08-07T00:00	4620	585	-3.1	-19.2	276	7	
2025-08-07T00:00	4640	583	-3.2	-19.0	273	7	
2025-08-07T00:00	4660	582	-3.4	-18.1	270	7	
2025-08-07T00:00	4680	580	-3.6	-16.3	268	8	
2025-08-07T00:00	4700	579	-3.8	-16.4	268	8	
2025-08-07T00:00	4720	577	-4.0	-16.3	269	8	
2025-08-07T00:00	4740	576	-4.2	-15.9	271	8	
2025-08-07T00:00	4760	574	-4.4	-15.9	274	8	
2025-08-07T00:00	4780	573	-4.5	-15.9	276	8	
2025-08-07T00:00	4800	571	-4.7	-15.9	279	9	
2025-08-07T00:00	4820	570	-4.9	-15.8	281	9	
2025-08-07T00:00	4840	568	-5.1	-15.6	283	9	
2025-08-07T00:00	4860	567	-5.2	-15.4	285	9	
2025-08-07T00:00	4880	566	-5.4	-15.3	286	10	
2025-08-07T00:00	4900	564	-5.5	-15.3	286	10	
2025-08-07T00:00	4920	563	-5.7	-15.4	286	10	
2025-08-07T00:00	4940	561	-5.9	-15.6	286	10	
2025-08-07T00:00	4960	560	-6.1	-15.7	286	10	
2025-08-07T00:00	4980	558	-6.3	-15.8	286	11	
2025-08-07T00:00	5000	557	-6.4	-15.9	285	11	
2025-08-07T00:00	5020	556	-6.6	-16.0	284	11	
2025-08-07T00:00	5040	554	-6.8	-16.0	284	12	
2025-08-07T00:00	5060	553	-7.0	-16.0	283	12	
2025-08-07T00:00	5080	551	-7.2	-15.9	283	12	
2025-08-07T00:00	5100	550	-7.3	-15.8	282	12	
2025-08-07T00:00	5120	548	-7.5	-15.8	282	12	
2025-08-07T00:00	5140	547	-7.7	-15.9	281	12	
2025-08-07T00:00	5160	546	-7.9	-16.1	281	12	
2025-08-07T00:00	5180	544	-8.1	-16.2	282	12	
2025-08-07T00:00	5200	543	-8.3	-16.3	282	12	
2025-08-07T00:00	5220	541	-8.4	-16.4	283	11	
2025-08-07T00:00	5240	540	-8.6	-16.3	283	11	
2025-08-07T00:00	5260	539	-8.8	-16.4	282	11	
2025-08-07T00:00	5280	537	-9.0	-16.7	282	11	
2025-08-07T00:00	5300	536	-9.2	-17.1	281	11	
2025-08-07T00:00	5320	534	-9.4	-17.3	280	11	
2025-08-07T00:00	5340	533	-9.6	-17.5	279	11	
2025-08-07T00:00	5360	532	-9.8	-17.5	279	11	
2025-08-07T00:00	5380	530	-9.9	-17.4	279	11	
2025-08-07T00:00	5400	529	-10.1	-17.4	280	11	
2025-08-07T00:00	5420	528	-10.3	-17.4	281	11	
2025-08-07T00:00	5440	526	-10.5	-17.4	281	11	
2025-08-07T00:00	5460	525	-10.7	-17.6	281	11	
2025-08-07T00:00	5480	523	-10.9	-17.8	281	11	
2025-08-07T00:00	5500	522	-11.1	-17.8	281	11	
2025-08-07T00:00	5520	521	-11.3	-17.7	280	11	
2025-08-07T00:00	5540	519	-11.5	-17.8	280	11	
2025-08-07T00:00	5560	518	-11.6	-18.0	279	11	
2025-08-07T00:00	5580	517	-11.8	-18.1	279	11	
2025-08-07T00:00	5600	515	-11.9	-18.0	278	11	
2025-08-07T00:00	5620	514	-12.1	-18.1	278	11	
2025-08-07T00:00	5640	513	-12.2	-18.2	278	12	
2025-08-07T00:00	5660	511	-12.2	-17.1	278	12	
2025-08-07T00:00	5680	510	-12.2	-16.6	278	12	
2025-08-07T00:00	5700	509	-12.3	-17.0	278	12	
2025-08-07T00:00	5720	507	-12.4	-17.4	278	12	
2025-08-07T00:00	5740	506	-12.4	-18.7	279	12	
2025-08-07T00:00	5760	505	-12.3	-19.8	280	12	
2025-08-07T00:00	5780	503	-12.2	-20.3	282	12	
2025-08-07T00:00	5800	502	-12.3	-20.4	284	12	
2025-08-07T00:00	5820	501	-12.3	-21.1	286	13	
2025-08-07T00:00	5840	500	-12.3	-21.7	287	13	
2025-08-07T00:00	5860	498	-12.5	-21.8	289	13	
2025-08-07T00:00	5880	497	-12.7	-22.0	290	13	
2025-08-07T00:00	5900	495	-12.8	-22.4	291	14	
2025-08-07T00:00	5920	494	-12.9	-22.7	292	14	
2025-08-07T00:00	5940	493	-12.9	-23.0	292	14	
2025-08-07T00:00	5960	492	-13.0	-23.6	293	14	
2025-08-07T00:00	5980	490	-13.0	-24.0	293	15	
2025-08-07T00:00	6000	489	-13.2	-24.3	293	15	
2025-08-07T00:00	6020	488	-13.2	-25.1	293	15	
2025-08-07T00:00	6040	486	-13.0	-27.0	292	14	
2025-08-07T00:00	6060	485	-13.0	-27.5	292	14	
2025-08-07T00:00	6080	484	-13.1	-27.8	291	14	
2025-08-07T00:00	6100	483	-13.1	-28.2	291	14	
2025-08-07T00:00	6120	481	-13.2	-28.5	292	13	
2025-08-07T00:00	6140	480	-13.3	-28.7	293	13	
2025-08-07T00:00	6160	479	-13.4	-28.9	294	13	
2025-08-07T00:00	6180	478	-13.5	-29.1	295	14	
2025-08-07T00:00	6200	476	-13.6	-29.5	296	14	
2025-08-07T00:00	6220	475	-13.7	-30.0	297	14	
2025-08-07T00:00	6240	474	-13.9	-30.3	298	14	
2025-08-07T00:00	6260	473	-14.0	-30.8	298	15	
2025-08-07T00:00	6280	471	-14.1	-31.4	298	15	
2025-08-07T00:00	6300	470	-14.2	-31.2	297	15	
2025-08-07T00:00	6320	469	-14.4	-31.0	296	15	
2025-08-07T00:00	6340	468	-14.6	-30.6	295	15	
2025-08-07T00:00	6360	466	-14.8	-30.8	294	14	
2025-08-07T00:00	6380	465	-14.9	-31.2	293	14	
2025-08-07T00:00	6400	464	-15.1	-31.5	292	14	
2025-08-07T00:00	6420	463	-15.2	-31.6	292	14	
2025-08-07T00:00	6440	461	-15.4	-31.7	291	14	
2025-08-07T00:00	6460	460	-15.6	-31.8	291	14	
2025-08-07T00:00	6480	459	-15.7	-31.8	291	15	
2025-08-07T00:00	6500	458	-15.8	-32.3	291	15	
2025-08-07T00:00	6520	457	-16.0	-32.7	292	15	
2025-08-07T00:00	6540	456	-16.1	-33.4	293	15	
2025-08-07T00:00	6560	454	-16.1	-33.8	293	15	
2025-08-07T00:00	6580	453	-16.3	-34.1	294	15	
2025-08-07T00:00	6600	452	-16.3	-34.8	295	15	
2025-08-07T00:00	6620	451	-16.4	-36.3	296	15	
2025-08-07T00:00	6640	449	-16.3	-37.3	297	15	
2025-08-07T00:00	6660	448	-16.3	-38.6	299	15	
2025-08-07T00:00	6680	447	-16.3	-39.7	301	15	
2025-08-07T00:00	6700	446	-16.3	-41.3	303	15	
2025-08-07T00:00	6720	445	-16.3	-42.8	305	15	
2025-08-07T00:00	6740	443	-16.3	-44.7	306	16	
2025-08-07T00:00	6760	442	-16.2	-46.9	307	16	
2025-08-07T00:00	6780	441	-16.1	-48.3	309	16	
2025-08-07T00:00	6800	440	-16.2	-48.8	310	16	
2025-08-07T00:00	6820	439	-16.2	-50.5	311	17	
2025-08-07T00:00	6840	438	-16.1	-51.2	312	17	
2025-08-07T00:00	6860	436	-16.0	-51.6	313	17	
2025-08-07T00:00	6880	435	-16.1	-52.0	314	17	
2025-08-07T00:00	6900	434	-16.2	-52.1	315	18	
2025-08-07T00:00	6920	433	-16.4	-52.4	315	18	
2025-08-07T00:00	6940	432	-16.5	-52.5	316	18	
2025-08-07T00:00	6960	431	-16.7	-52.5	316	18	
2025-08-07T00:00	6980	430	-16.7	-47.4	316	18	
2025-08-07T00:00	7000	429	-16.6	-36.7	317	18	
2025-08-07T00:00	7020	427	-16.8	-31.3	317	18	
2025-08-07T00:00	7040	426	-17.0	-27.5	318	18	
2025-08-07T00:00	7060	425	-17.2	-25.8	319	18	
2025-08-07T00:00	7080	424	-17.4	-25.8	319	18	
2025-08-07T00:00	7100	423	-17.6	-23.6	320	18	
2025-08-07T00:00	7120	422	-17.7	-22.2	320	18	
2025-08-07T00:00	7140	420	-17.7	-21.9	320	18	
2025-08-07T00:00	7160	419	-17.7	-21.7	320	19	
2025-08-07T00:00	7180	418	-17.8	-21.6	320	19	
2025-08-07T00:00	7200	417	-17.9	-21.6	321	19	
2025-08-07T00:00	7220	416	-18.0	-21.6	321	20	
2025-08-07T00:00	7240	415	-18.2	-21.9	322	20	
2025-08-07T00:00	7260	414	-18.3	-22.1	322	20	
2025-08-07T00:00	7280	413	-18.4	-22.3	322	20	
2025-08-07T00:00	7300	412	-18.5	-22.6	322	20	
2025-08-07T00:00	7320	410	-18.6	-23.0	322	20	
2025-08-07T00:00	7340	409	-18.8	-23.0	321	20	
2025-08-07T00:00	7360	408	-19.0	-23.0	321	20	
2025-08-07T00:00	7380	407	-19.1	-23.1	320	20	
2025-08-07T00:00	7400	406	-19.2	-23.1	319	21	
2025-08-07T00:00	7420	405	-19.4	-23.2	318	21	
2025-08-07T00:00	7440	404	-19.5	-23.3	318	21	
2025-08-07T00:00	7460	403	-19.7	-23.6	318	21	
2025-08-07T00:00	7480	402	-19.8	-23.7	318	21	
2025-08-07T00:00	7500	401	-19.9	-23.9	318	21	
2025-08-07T00:00	7520	400	-20.0	-24.2	319	21	
2025-08-07T00:00	7540	399	-20.1	-24.4	319	21	
2025-08-07T00:00	7560	398	-20.2	-24.6	320	21	
2025-08-07T00:00	7580	396	-20.3	-24.8	320	21	
2025-08-07T00:00	7600	395	-20.5	-25.0	320	21	
2025-08-07T00:00	7620	394	-20.6	-25.1	321	21	
2025-08-07T00:00	7640	393	-20.8	-25.2	321	21	
2025-08-07T00:00	7660	392	-20.9	-25.4	321	21	
2025-08-07T00:00	7680	391	-21.1	-25.4	321	21	
2025-08-07T00:00	7700	390	-21.3	-25.4	322	20	
2025-08-07T00:00	7720	389	-21.5	-25.5	322	20	
2025-08-07T00:00	7740	388	-21.6	-25.6	323	20	
2025-08-07T00:00	7760	387	-21.8	-25.7	323	20	
2025-08-07T00:00	7780	386	-22.0	-25.8	324	20	
2025-08-07T00:00	7800	385	-22.2	-25.8	324	20	
2025-08-07T00:00	7820	384	-22.4	-25.9	325	20	
2025-08-07T00:00	7840	383	-22.5	-26.0	326	20	
2025-08-07T00:00	7860	382	-22.6	-26.1	326	20	
2025-08-07T00:00	7880	381	-22.8	-26.3	326	20	
2025-08-07T00:00	7900	380	-22.9	-26.5	327	21	
2025-08-07T00:00	7920	378	-23.0	-26.9	327	21	
2025-08-07T00:00	7940	377	-23.1	-27.8	327	21	
2025-08-07T00:00	7960	376	-23.1	-28.2	326	22	
2025-08-07T00:00	7980	375	-23.3	-28.3	326	22	
2025-08-07T00:00	8000	374	-23.4	-28.7	326	22	
2025-08-07T00:00	8020	373	-23.5	-29.0	327	22	
2025-08-07T00:00	8040	372	-23.6	-29.2	327	22	
2025-08-07T00:00	8060	371	-23.7	-29.3	327	22	
2025-08-07T00:00	8080	370	-23.9	-29.4	327	22	
2025-08-07T00:00	8100	369	-24.0	-29.7	327	22	
2025-08-07T00:00	8120	368	-24.1	-29.7	327	22	
2025-08-07T00:00	8140	367	-24.3	-29.8	327	22	
2025-08-07T00:00	8160	366	-24.4	-29.9	327	22	
2025-08-07T00:00	8180	365	-24.6	-30.0	327	22	
2025-08-07T00:00	8200	364	-24.7	-30.3	327	22	
2025-08-07T00:00	8220	363	-24.9	-30.6	327	22	
2025-08-07T00:00	8240	362	-25.1	-30.8	327	22	
2025-08-07T00:00	8260	361	-25.2	-30.7	327	22	
2025-08-07T00:00	8280	360	-25.4	-30.6	327	22	
2025-08-07T00:00	8300	359	-25.6	-30.7	327	22	
2025-08-07T00:00	8320	358	-25.8	-30.7	327	22	
2025-08-07T00:00	8340	357	-26.0	-30.7	328	22	
2025-08-07T00:00	8360	356	-26.1	-31.0	328	23	
2025-08-07T00:00	8380	355	-26.2	-31.5	328	23	
2025-08-07T00:00	8400	354	-26.3	-32.1	328	23	
2025-08-07T00:00	8420	353	-26.5	-32.5	328	23	
2025-08-07T00:00	8440	352	-26.6	-32.6	328	23	
2025-08-07T00:00	8460	351	-26.8	-32.8	328	23	
2025-08-07T00:00	8480	350	-26.8	-33.1	328	23	
2025-08-07T00:00	8500	350	-27.0	-33.4	328	23	
2025-08-07T00:00	8520	349	-27.0	-33.8	328	23	
2025-08-07T00:00	8540	348	-27.1	-34.0	328	23	
2025-08-07T00:00	8560	347	-27.3	-34.1	328	23	
2025-08-07T00:00	8580	346	-27.3	-35.0	328	23	
2025-08-07T00:00	8600	345	-27.4	-35.2	328	23	
2025-08-07T00:00	8620	344	-27.6	-35.4	328	24	
2025-08-07T00:00	8640	343	-27.7	-35.5	328	24	
2025-08-07T00:00	8660	342	-27.9	-35.5	328	24	
2025-08-07T00:00	8680	341	-28.1	-35.6	328	24	
2025-08-07T00:00	8700	340	-28.3	-35.5	328	24	
2025-08-07T00:00	8720	339	-28.5	-35.6	328	25	
2025-08-07T00:00	8740	338	-28.6	-35.6	328	25	
2025-08-07T00:00	8760	337	-28.8	-35.6	329	25	
2025-08-07T00:00	8780	336	-29.0	-35.7	329	26	
2025-08-07T00:00	8800	335	-29.2	-35.8	329	26	
2025-08-07T00:00	8820	334	-29.4	-35.6	330	26	
2025-08-07T00:00	8840	333	-29.6	-35.5	330	26	
2025-08-07T00:00	8860	332	-29.8	-35.7	330	27	
2025-08-07T00:00	8880	331	-30.0	-35.7	330	27	
2025-08-07T00:00	8900	330	-30.2	-35.6	329	27	
2025-08-07T00:00	8920	330	-30.3	-35.6	329	27	
2025-08-07T00:00	8940	329	-30.5	-35.7	328	28	
2025-08-07T00:00	8960	328	-30.7	-36.0	328	28	
2025-08-07T00:00	8980	327	-30.8	-36.0	327	28	
2025-08-07T00:00	9000	326	-31.1	-36.0	327	29	
2025-08-07T00:00	9020	325	-31.3	-35.9	327	29	
2025-08-07T00:00	9040	324	-31.4	-36.1	328	30	
2025-08-07T00:00	9060	323	-31.6	-36.2	328	30	
2025-08-07T00:00	9080	322	-31.7	-36.4	328	31	
2025-08-07T00:00	9100	321	-31.9	-36.6	329	31	
2025-08-07T00:00	9120	320	-32.1	-36.6	329	31	
2025-08-07T00:00	9140	319	-32.2	-36.8	329	31	
2025-08-07T00:00	9160	319	-32.4	-36.8	328	31	
2025-08-07T00:00	9180	318	-32.6	-36.8	328	31	
2025-08-07T00:00	9200	317	-32.8	-36.9	328	31	
2025-08-07T00:00	9220	316	-33.0	-37.0	329	31	
2025-08-07T00:00	9240	315	-33.1	-37.4	329	31	
2025-08-07T00:00	9260	314	-33.3	-38.1	329	31	
2025-08-07T00:00	9280	313	-33.4	-39.2	329	31	
2025-08-07T00:00	9300	312	-33.5	-41.9	329	31	
2025-08-07T00:00	9320	311	-33.6	-45.0	329	30	
2025-08-07T00:00	9340	310	-33.6	-44.6	329	30	
2025-08-07T00:00	9360	310	-33.8	-44.0	329	30	
2025-08-07T00:00	9380	309	-33.9	-44.3	329	30	
2025-08-07T00:00	9400	308	-34.1	-44.6	329	30	
2025-08-07T00:00	9420	307	-34.3	-45.5	329	30	
2025-08-07T00:00	9440	306	-34.4	-46.5	328	30	
2025-08-07T00:00	9460	305	-34.5	-46.8	328	30	
2025-08-07T00:00	9480	304	-34.7	-47.5	328	30	
2025-08-07T00:00	9500	303	-34.8	-50.2	328	30	
2025-08-07T00:00	9520	303	-34.8	-52.5	328	30	
2025-08-07T00:00	9540	302	-34.9	-52.6	328	29	
2025-08-07T00:00	9560	301	-35.1	-52.6	328	29	
2025-08-07T00:00	9580	300	-35.3	-53.0	328	29	
2025-08-07T00:00	9600	299	-35.4	-53.1	328	29	
2025-08-07T00:00	9620	298	-35.6	-54.4	328	29	
2025-08-07T00:00	9640	297	-35.8	-55.3	328	29	
2025-08-07T00:00	9660	297	-35.9	-55.1	328	28	
2025-08-07T00:00	9680	296	-36.1	-54.8	327	28	
2025-08-07T00:00	9700	295	-36.3	-54.7	327	28	
2025-08-07T00:00	9720	294	-36.5	-54.8	327	28	
2025-08-07T00:00	9740	293	-36.7	-54.7	326	28	
2025-08-07T00:00	9760	292	-36.9	-54.5	326	28	
2025-08-07T00:00	9780	292	-37.0	-54.3	326	28	
2025-08-07T00:00	9800	291	-37.2	-54.2	326	28	
2025-08-07T00:00	9820	290	-37.4	-54.1	326	28	
2025-08-07T00:00	9840	289	-37.6	-53.6	326	28	
2025-08-07T00:00	9860	288	-37.8	-53.2	326	28	
2025-08-07T00:00	9880	287	-38.0	-53.0	326	28	
2025-08-07T00:00	9900	286	-38.2	-52.6	326	28	
2025-08-07T00:00	9920	286	-38.4	-52.7	326	28	
2025-08-07T00:00	9940	285	-38.6	-52.8	326	28	
2025-08-07T00:00	9960	284	-38.7	-52.5	326	28	
2025-08-07T00:00	9980	283	-38.9	-52.3	326	28	
2025-08-07T00:00	10000	282	-39.1	-52.3	325	28	
2025-08-07T00:00	10018	282	-39.3	-52.4	325	29	
2025-08-07T00:00	10050	280	-39.5	-53.0	326	29	
2025-08-07T00:00	10100	278	-39.9	-54.5	326	30	
2025-08-07T00:00	10150	276	-40.2	-53.3	327	31	
2025-08-07T00:00	10200	274	-40.6	-52.8	328	31	
2025-08-07T00:00	10250	272	-41.1	-52.7	328	31	
2025-08-07T00:00	10300	270	-41.6	-52.3	328	31	
2025-08-07T00:00	10350	268	-42.0	-52.8	328	31	
2025-08-07T00:00	10400	266	-42.5	-53.3	328	31	
2025-08-07T00:00	10450	264	-43.0	-53.0	328	31	
2025-08-07T00:00	10500	262	-43.5	-52.5	328	31	
2025-08-07T00:00	10550	260	-43.9	-52.4	329	31	
2025-08-07T00:00	10600	259	-44.4	-51.8	331	31	
2025-08-07T00:00	10650	256	-44.9	-50.9	332	30	
2025-08-07T00:00	10700	255	-45.3	-50.6	333	30	
2025-08-07T00:00	10750	253	-45.8	-50.6	333	31	
2025-08-07T00:00	10800	251	-46.3	-51.0	334	31	
2025-08-07T00:00	10850	249	-46.7	-51.0	336	31	
2025-08-07T00:00	10900	247	-47.0	-52.1	338	31	
2025-08-07T00:00	10950	245	-47.3	-53.4	339	32	
2025-08-07T00:00	11000	243	-47.6	-54.3	340	32	
2025-08-07T00:00	11050	242	-48.0	-54.9	341	33	
2025-08-07T00:00	11100	240	-48.4	-55.2	341	34	
2025-08-07T00:00	11150	238	-48.7	-55.2	340	35	
2025-08-07T00:00	11200	236	-49.0	-55.7	339	35	
2025-08-07T00:00	11250	234	-49.2	-57.9	339	36	
2025-08-07T00:00	11300	232	-49.4	-59.1	338	37	
2025-08-07T00:00	11350	231	-49.7	-58.9	338	38	
2025-08-07T00:00	11400	229	-50.1	-59.1	338	39	
2025-08-07T00:00	11450	227	-50.5	-59.4	338	40	
2025-08-07T00:00	11500	225	-50.9	-60.0	339	41	
2025-08-07T00:00	11550	224	-51.1	-60.7	341	41	
2025-08-07T00:00	11600	222	-51.4	-60.2	342	42	
2025-08-07T00:00	11650	220	-51.6	-59.2	342	43	
2025-08-07T00:00	11700	219	-51.9	-58.9	343	43	
2025-08-07T00:00	11750	217	-52.3	-58.5	343	44	
2025-08-07T00:00	11800	215	-52.6	-58.5	344	44	
2025-08-07T00:00	11850	214	-53.0	-59.5	344	44	
2025-08-07T00:00	11900	212	-53.4	-59.4	345	44	
2025-08-07T00:00	11950	210	-53.8	-58.6	345	44	
2025-08-07T00:00	12000	209	-54.1	-58.8	346	44	
2025-08-07T00:00	12050	207	-54.3	-59.6	347	43	
2025-08-07T00:00	12100	206	-54.5	-59.7	348	41	
2025-08-07T00:00	12150	204	-54.4	-61.7	348	39	
2025-08-07T00:00	12200	202	-54.2	-63.8	349	37	
2025-08-07T00:00	12250	201	-54.4	-64.4	350	36	
2025-08-07T00:00	12300	199	-54.6	-64.9	349	35	
2025-08-07T00:00	12350	198	-54.9	-65.3	349	33	
2025-08-07T00:00	12400	196	-55.2	-65.9	348	32	
2025-08-07T00:00	12450	195	-55.5	-66.5	346	31	
2025-08-07T00:00	12500	193	-55.8	-66.9	345	30	
2025-08-07T00:00	12550	192	-56.2	-67.2	343	29	
2025-08-07T00:00	12600	190	-56.4	-67.8	341	28	
2025-08-07T00:00	12650	188	-56.5	-68.5	339	28	
2025-08-07T00:00	12700	187	-56.8	-68.9	337	28	
2025-08-07T00:00	12750	186	-57.1	-69.1	335	27	
2025-08-07T00:00	12800	184	-57.6	-69.2	332	26	
2025-08-07T00:00	12850	183	-58.0	-69.3	329	26	
2025-08-07T00:00	12900	181	-58.1	-69.5	325	26	
2025-08-07T00:00	12950	180	-58.3	-69.7	322	26	
2025-08-07T00:00	13000	178	-58.6	-70.1	319	27	
2025-08-07T00:00	13050	177	-58.2	-71.3	318	28	
2025-08-07T00:00	13100	175	-57.6	-72.9	318	29	
2025-08-07T00:00	13150	174	-57.5	-74.0	318	30	
2025-08-07T00:00	13200	173	-57.3	-74.3	320	30	
2025-08-07T00:00	13250	171	-56.7	-74.7	322	30	
2025-08-07T00:00	13300	170	-56.3	-76.6	324	28	
2025-08-07T00:00	13350	169	-55.3	-78.4	325	26	
2025-08-07T00:00	13400	167	-55.0	-79.0	326	24	
2025-08-07T00:00	13450	166	-55.0	-79.0	326	23	
2025-08-07T00:00	13500	165	-55.2	-79.0	326	22	
2025-08-07T00:00	13550	164	-55.4	-78.8	325	21	
2025-08-07T00:00	13600	162	-55.7	-78.8	323	20	
2025-08-07T00:00	13650	161	-56.1	-78.7	320	18	
2025-08-07T00:00	13700	160	-56.5	-78.6	315	17	
2025-08-07T00:00	13750	158	-56.6	-78.7	311	16	
2025-08-07T00:00	13800	157	-57.0	-78.9	307	15	
2025-08-07T00:00	13850	156	-57.4	-79.0	302	15	
2025-08-07T00:00	13900	155	-57.6	-79.4	298	16	
2025-08-07T00:00	13950	153	-57.9	-79.7	294	16	
2025-08-07T00:00	14000	152	-58.3	-79.9	292	17	
2025-08-07T00:00	14050	151	-58.5	-80.3	294	18	
2025-08-07T00:00	14100	150	-58.1	-80.8	295	19	
2025-08-07T00:00	14150	149	-57.7	-81.0	295	19	
2025-08-07T00:00	14200	148	-57.6	-81.1	296	20	
2025-08-07T00:00	14250	146	-57.7	-81.2	298	20	
2025-08-07T00:00	14300	145	-57.8	-81.1	300	20	
2025-08-07T00:00	14350	144	-58.1	-81.2	301	20	
2025-08-07T00:00	14400	143	-58.3	-81.1	302	20	
2025-08-07T00:00	14450	142	-58.5	-81.2	305	20	
2025-08-07T00:00	14500	141	-58.5	-81.1	309	20	
2025-08-07T00:00	14550	140	-58.6	-81.2	312	20	
2025-08-07T00:00	14600	138	-58.6	-81.3	313	20	
2025-08-07T00:00	14650	137	-58.6	-81.4	313	19	
2025-08-07T00:00	14700	136	-58.3	-81.5	313	19	
2025-08-07T00:00	14750	135	-58.1	-81.8	312	17	
2025-08-07T00:00	14800	134	-58.1	-81.9	309	15	
2025-08-07T00:00	14850	133	-58.5	-82.0	308	15	
2025-08-07T00:00	14900	132	-58.7	-82.2	307	14	
2025-08-07T00:00	14950	131	-58.9	-82.4	305	14	
2025-08-07T00:00	15000	130	-59.0	-82.4	305	15	
2025-08-07T00:00	15050	129	-59.3	-82.6	304	17	
2025-08-07T00:00	15100	128	-59.6	-82.8	304	18	
2025-08-07T00:00	15150	127	-59.8	-82.9	306	19	
2025-08-07T00:00	15200	126	-59.9	-83.1	310	19	
2025-08-07T00:00	15250	125	-59.6	-83.3	314	18	
2025-08-07T00:00	15300	124	-59.5	-83.6	317	17	
2025-08-07T00:00	15350	123	-59.3	-83.8	318	16	
2025-08-07T00:00	15400	122	-59.0	-83.8	316	14	
2025-08-07T00:00	15450	121	-58.8	-83.7	313	13	
2025-08-07T00:00	15500	120	-59.0	-83.8	309	12	
2025-08-07T00:00	15550	119	-59.3	-83.8	304	12	
2025-08-07T00:00	15600	118	-59.7	-83.8	298	12	
2025-08-07T00:00	15650	117	-60.1	-84.0	291	12	
2025-08-07T00:00	15700	116	-60.5	-84.2	286	13	
2025-08-07T00:00	15750	115	-60.5	-84.4	286	14	
2025-08-07T00:00	15800	114	-60.0	-84.4	292	14	
2025-08-07T00:00	15850	113	-60.0	-84.6	298	12	
2025-08-07T00:00	15900	112	-59.8	-84.7	302	11	
2025-08-07T00:00	15950	112	-59.8	-84.9	299	10	
2025-08-07T00:00	16000	111	-59.7	-84.8	292	11	
2025-08-07T00:00	16050	110	-59.8	-84.7	287	12	
2025-08-07T00:00	16100	109	-60.2	-84.8	285	13	
2025-08-07T00:00	16150	108	-60.5	-85.0	283	14	
2025-08-07T00:00	16200	107	-60.3	-85.0	280	14	
2025-08-07T00:00	16250	106	-60.1	-85.1	276	14	
2025-08-07T00:00	16300	105	-59.8	-85.0	276	14	
2025-08-07T00:00	16350	105	-59.9	-85.2	279	13	
2025-08-07T00:00	16400	104	-60.1	-85.3	285	13	
2025-08-07T00:00	16450	103	-60.1	-85.3	288	14	
2025-08-07T00:00	16500	102	-59.8	-85.3	286	14	
2025-08-07T00:00	16550	101	-59.4	-85.2	283	14	
2025-08-07T00:00	16600	101	-59.4	-85.3	284	13	
2025-08-07T00:00	16650	100	-59.5	-85.4	287	13	
2025-08-07T00:00	16700	99	-59.6	-85.3	291	12	
2025-08-07T00:00	16750	98	-59.9	-85.3	295	11	
2025-08-07T00:00	16800	97	-60.2	-85.5	297	11	
2025-08-07T00:00	16850	97	-60.0	-85.5	293	11	
2025-08-07T00:00	16900	96	-59.8	-85.4	288	11	
2025-08-07T00:00	16950	95	-59.8	-85.5	283	11	
2025-08-07T00:00	17000	94	-59.4	-85.5	281	10	
2025-08-07T00:00	17050	94	-59.3	-85.5	282	10	
2025-08-07T00:00	17100	93	-59.5	-85.6	284	10	
2025-08-07T00:00	17150	92	-59.5	-85.6	284	11	
2025-08-07T00:00	17200	91	-59.2	-85.6	280	10	
2025-08-07T00:00	17250	91	-58.8	-85.4	272	9	
2025-08-07T00:00	17300	90	-59.0	-85.4	265	9	
2025-08-07T00:00	17350	89	-59.1	-85.4	266	10	
2025-08-07T00:00	17400	88	-59.3	-85.6	274	11	
2025-08-07T00:00	17450	88	-58.9	-85.5	283	11	
2025-08-07T00:00	17500	87	-58.9	-85.6	290	11	
2025-08-07T00:00	17550	86	-58.7	-85.7	293	11	
2025-08-07T00:00	17600	86	-58.5	-85.7	293	10	
2025-08-07T00:00	17650	85	-58.4	-85.6	290	9	
2025-08-07T00:00	17700	84	-58.3	-85.7	285	8	
2025-08-07T00:00	17750	84	-57.7	-85.5	281	8	
2025-08-07T00:00	17800	83	-57.5	-85.5	277	9	
2025-08-07T00:00	17850	82	-57.4	-85.4	274	10	
2025-08-07T00:00	17900	82	-57.3	-85.4	275	10	
2025-08-07T00:00	17950	81	-57.2	-85.4	281	9	
2025-08-07T00:00	18000	80	-57.0	-85.4	285	8	
2025-08-07T00:00	18050	80	-56.9	-85.3	285	6	
2025-08-07T00:00	18100	79	-56.5	-85.2	271	5	
2025-08-07T00:00	18150	79	-56.3	-85.2	254	6	
2025-08-07T00:00	18200	78	-56.2	-84.9	246	7	
2025-08-07T00:00	18250	77	-56.4	-84.9	246	8	
2025-08-07T00:00	18300	77	-56.8	-85.0	249	9	
2025-08-07T00:00	18350	76	-57.1	-85.1	255	9	
2025-08-07T00:00	18400	76	-57.3	-85.2	261	9	
2025-08-07T00:00	18450	75	-57.1	-85.3	267	7	
2025-08-07T00:00	18500	74	-57.0	-85.3	274	6	
2025-08-07T00:00	18550	74	-56.9	-85.4	281	5	
2025-08-07T00:00	18600	73	-56.3	-85.2	288	4	
2025-08-07T00:00	18650	73	-56.2	-85.2	290	4	
2025-08-07T00:00	18700	72	-56.2	-85.0	283	4	
2025-08-07T00:00	18750	71	-56.5	-84.9	272	5	
2025-08-07T00:00	18800	71	-57.0	-85.0	266	6	
2025-08-07T00:00	18850	70	-57.3	-85.2	264	7	
2025-08-07T00:00	18900	70	-57.5	-85.5	266	7	
2025-08-07T00:00	18950	69	-56.9	-85.3	270	7	
2025-08-07T00:00	19000	69	-56.7	-85.4	269	6	
2025-08-07T00:00	19050	68	-56.4	-85.3	260	6	
2025-08-07T00:00	19100	68	-56.3	-85.1	251	6	
2025-08-07T00:00	19150	67	-56.5	-85.1	252	7	
2025-08-07T00:00	19200	67	-56.6	-85.1	257	7	
2025-08-07T00:00	19250	66	-56.7	-85.3	266	7	
2025-08-07T00:00	19300	66	-56.6	-85.3	279	7	
2025-08-07T00:00	19350	65	-56.2	-85.3	292	7	
2025-08-07T00:00	19400	64	-55.8	-85.2	296	7	
2025-08-07T00:00	19450	64	-55.5	-85.1	291	7	
2025-08-07T00:00	19500	63	-55.3	-84.9	287	7	
2025-08-07T00:00	19550	63	-55.6	-84.9	288	6	
2025-08-07T00:00	19600	62	-55.8	-84.9	293	6	
2025-08-07T00:00	19650	62	-55.8	-85.1	299	4	
2025-08-07T00:00	19700	62	-55.3	-85.0	305	3	
2025-08-07T00:00	19750	61	-54.8	-84.9	319	1	
2025-08-07T00:00	19800	61	-54.7	-84.7	358	1	
2025-08-07T00:00	19850	60	-55.0	-84.6	90	1	
2025-08-07T00:00	19900	60	-55.3	-84.6	115	2	
2025-08-07T00:00	19950	59	-55.3	-84.6	121	3	
2025-08-07T00:00	20000	59	-55.6	-84.7	119	3	
2025-08-07T00:00	20050	58	-55.6		101	2	
2025-08-07T00:00	20100	58	-55.5		62	1	
2025-08-07T00:00	20150	57	-55.6		16	1	
2025-08-07T00:00	20200	57	-55.9		354	2	
2025-08-07T00:00	20250	56	-55.7		0	3	
2025-08-07T00:00	20300	56	-55.6		23	3	
2025-08-07T00:00	20350	56	-55.6		49	3	
2025-08-07T00:00	20400	55	-55.9		68	4	
2025-08-07T00:00	20450	55	-56.0		81	4	
2025-08-07T00:00	20500	54	-56.0		93	3	
2025-08-07T00:00	20550	54	-56.0		103	2	
2025-08-07T00:00	20600	53	-56.0		99	2	
2025-08-07T00:00	20650	53	-55.7		95	3	
2025-08-07T00:00	20700	53	-55.8		97	3	
2025-08-07T00:00	20750	52	-56.0		101	3	
2025-08-07T00:00	20800	52	-56.3		109	3	
2025-08-07T00:00	20850	51	-56.6		118	3	
2025-08-07T00:00	20900	51	-56.6		120	3	
2025-08-07T00:00	20950	51	-56.8		126	2	
2025-08-07T00:00	21000	50	-56.7		159	1	
2025-08-07T00:00	21050	50	-56.1		207	0	
2025-08-07T00:00	21100	49	-55.7		7	1	
2025-08-07T00:00	21150	49	-55.2		19	2	
2025-08-07T00:00	21200	49	-55.0		25	4	
2025-08-07T00:00	21250	48	-54.7		33	6	
2025-08-07T00:00	21300	48	-54.5		43	6	
2025-08-07T00:00	21350	47	-54.3		54	6	
2025-08-07T00:00	21400	47	-54.4		63	5	
2025-08-07T00:00	21450	47	-54.5		70	4	
2025-08-07T00:00	21500	46	-54.6		82	3	
2025-08-07T00:00	21550	46	-54.7		100	3	
2025-08-07T00:00	21600	46	-54.6		108	4	
2025-08-07T00:00	21650	45	-54.4		106	5	
2025-08-07T00:00	21700	45	-54.5		101	5	
2025-08-07T00:00	21750	45	-54.6		96	5	
2025-08-07T00:00	21800	44	-54.5		95	5	
2025-08-07T00:00	21850	44	-54.6		98	5	
2025-08-07T00:00	21900	44	-54.9		104	5	
2025-08-07T00:00	21950	43	-55.1		111	4	
2025-08-07T00:00	22000	43	-55.3		116	4	
2025-08-07T00:00	22050	43	-55.3		115	4	
2025-08-07T00:00	22100	42	-54.7		112	4	
2025-08-07T00:00	22150	42	-53.9		114	4	
2025-08-07T00:00	22200	42	-53.8		122	6	
2025-08-07T00:00	22250	41	-53.4		133	7	
2025-08-07T00:00	22300	41	-53.1		143	8	
2025-08-07T00:00	22350	41	-53.3		151	9	
2025-08-07T00:00	22400	40	-53.4		157	8	
2025-08-07T00:00	22450	40	-53.1		161	7	
2025-08-07T00:00	22500	40	-52.7		161	5	
2025-08-07T00:00	22550	39	-52.5		156	4	
2025-08-07T00:00	22600	39	-52.7		145	3	
2025-08-07T00:00	22650	39	-52.7		124	3	
2025-08-07T00:00	22700	38	-52.7		95	3	
2025-08-07T00:00	22750	38	-53.1		86	4	
2025-08-07T00:00	22800	38	-52.9		92	5	
2025-08-07T00:00	22850	38	-52.7		98	6	
2025-08-07T00:00	22900	37	-52.7		98	7	
2025-08-07T00:00	22950	37	-52.8		96	6	
2025-08-07T00:00	23000	37	-52.7		100	6	
2025-08-07T00:00	23050	36	-52.7		106	6	
2025-08-07T00:00	23100	36	-52.9		111	6	
2025-08-07T00:00	23150	36	-53.2		115	6	
2025-08-07T00:00	23200	36	-52.8		118	7	
2025-08-07T00:00	23250	35	-52.5		117	7	
2025-08-07T00:00	23300	35	-52.4		115	8	
2025-08-07T00:00	23350	35	-52.0		113	8	
2025-08-07T00:00	23400	35	-52.0		110	7	
2025-08-07T00:00	23450	34	-52.1		105	7	
2025-08-07T00:00	23500	34	-52.1		101	7	
2025-08-07T00:00	23550	34	-51.6		104	7	
2025-08-07T00:00	23600	33	-51.5		110	7	
2025-08-07T00:00	23650	33	-51.7		118	6	
2025-08-07T00:00	23700	33	-51.9		125	5	
2025-08-07T00:00	23750	33	-52.2		134	4	
2025-08-07T00:00	23800	32	-52.2		137	3	
2025-08-07T00:00	23850	32	-52.1		108	2	
2025-08-07T00:00	23900	32	-51.6		68	3	
2025-08-07T00:00	23950	32	-51.1		64	5	
2025-08-07T00:00	24000	31	-50.7		64	6	
2025-08-07T00:00	24050	31	-50.6		63	7	
2025-08-07T00:00	24100	31	-50.5		66	8	
2025-08-07T00:00	24150	31	-50.4		74	8	
2025-08-07T00:00	24200	31	-50.6		81	9	
2025-08-07T00:00	24250	30	-50.9		88	9	
2025-08-07T00:00	24300	30	-51.2		96	10	
2025-08-07T00:00	24350	30	-51.4		105	10	
2025-08-07T00:00	24400	30	-51.4		112	11	
2025-08-07T00:00	24450	29	-51.4		119	10	
2025-08-07T00:00	24500	29	-51.5		125	10	
2025-08-07T00:00	24550	29	-51.4		131	9	
2025-08-07T00:00	24600	29	-51.3		135	8	
2025-08-07T00:00	24650	28	-51.4		136	7	
2025-08-07T00:00	24700	28	-51.5		133	6	
2025-08-07T00:00	24750	28	-51.8		127	6	
2025-08-07T00:00	24800	28	-51.8		120	6	
2025-08-07T00:00	24850	28	-51.6		114	6	
2025-08-07T00:00	24900	27	-51.6		112	6	
2025-08-07T00:00	24950	27	-51.6		112	5	
2025-08-07T00:00	25000	27	-51.3		114	4	
2025-08-07T00:00	25050	27	-51.2		109	3	
2025-08-07T00:00	25100	27	-50.9		92	3	
2025-08-07T00:00	25150	26	-50.4		81	5	
2025-08-07T00:00	25200	26	-50.2		78	5	
2025-08-07T00:00	25250	26	-50.0		77	4	
2025-08-07T00:00	25300	26	-50.1		77	5	
2025-08-07T00:00	25350	26	-50.1		78	6	
2025-08-07T00:00	25400	25	-50.3		81	8	
2025-08-07T00:00	25450	25	-50.4		84	9	
2025-08-07T00:00	25500	25	-50.3		85	10	
2025-08-07T00:00	25550	25	-50.2		85	10	
2025-08-07T00:00	25600	25	-50.2		84	9	
2025-08-07T00:00	25650	24	-50.3		86	9	
2025-08-07T00:00	25700	24	-50.4		91	8	
2025-08-07T00:00	25750	24	-50.7		92	7	
2025-08-07T00:00	25800	24	-50.9		89	7	
2025-08-07T00:00	25850	24	-50.7		82	7	
2025-08-07T00:00	25900	23	-50.7		78	6	
2025-08-07T00:00	25950	23	-50.5		79	6	
2025-08-07T00:00	26000	23	-50.3		84	7	
2025-08-07T00:00	26050	23	-50.0		88	9	
2025-08-07T00:00	26100	23	-49.9		91	11	
2025-08-07T00:00	26150	23	-49.8		90	11	
2025-08-07T00:00	26200	22	-49.6		87	11	
2025-08-07T00:00	26250	22	-49.6		85	10	
2025-08-07T00:00	26300	22	-49.4		86	11	
2025-08-07T00:00	26350	22	-48.9		88	11	
2025-08-07T00:00	26400	22	-48.6		90	11	
2025-08-07T00:00	26450	22	-48.1		94	12	
2025-08-07T00:00	26500	21	-47.9		98	12	
2025-08-07T00:00	26550	21	-47.7		101	12	
2025-08-07T00:00	26600	21	-47.5		104	11	
2025-08-07T00:00	26650	21	-47.4		104	9	
2025-08-07T00:00	26700	21	-47.1		98	8	
2025-08-07T00:00	26750	21	-46.8		88	7	
2025-08-07T00:00	26800	20	-46.7		78	7	
2025-08-07T00:00	26850	20	-46.8		66	8	
2025-08-07T00:00	26900	20	-47.0		55	8	
2025-08-07T00:00	26950	20	-47.0		48	9	
2025-08-07T00:00	27000	20	-47.0		45	11	
2025-08-07T00:00	27050	20	-46.7		48	12	
2025-08-07T00:00	27100	20	-46.3		53	14	
2025-08-07T00:00	27150	19	-46.1		59	14	
2025-08-07T00:00	27200	19	-46.1		67	15	
2025-08-07T00:00	27250	19	-46.2		75	15	
2025-08-07T00:00	27300	19	-46.1		81	15	
2025-08-07T00:00	27350	19	-46.3		88	15	
2025-08-07T00:00	27400	19	-46.3		95	15	
2025-08-07T00:00	27450	19	-46.5		102	15	
2025-08-07T00:00	27500	18	-46.7		109	15	
2025-08-07T00:00	27550	18	-46.6		112	14	
2025-08-07T00:00	27600	18	-46.4		111	13	
2025-08-07T00:00	27650	18	-46.2		107	12	
2025-08-07T00:00	27700	18	-46.1		103	11	
2025-08-07T00:00	27750	18	-45.7		102	11	
2025-08-07T00:00	27800	18	-45.4		106	12	
2025-08-07T00:00	27850	17	-45.0		111	12	
2025-08-07T00:00	27900	17	-45.1		114	12	
2025-08-07T00:00	27950	17	-45.2		116	11	
2025-08-07T00:00	28000	17	-45.2		116	10	
2025-08-07T00:00	28050	17	-45.3		117	9	
2025-08-07T00:00	28100	17	-45.5		117	8	
2025-08-07T00:00	28150	17	-45.6		108	7	
2025-08-07T00:00	28200	17	-45.1		94	6	
2025-08-07T00:00	28250	16	-44.5		80	6	
2025-08-07T00:00	28300	16	-44.3		70	6	
2025-08-07T00:00	28350	16	-44.4		65	7	
2025-08-07T00:00	28400	16	-44.5		65	8	
2025-08-07T00:00	28450	16	-44.6		70	8	
2025-08-07T00:00	28500	16	-44.5		80	8	
2025-08-07T00:00	28550	16	-44.2		94	8	
2025-08-07T00:00	28600	16	-44.2		106	8	
2025-08-07T00:00	28650	16	-44.0		114	8	
2025-08-07T00:00	28700	15	-44.0		115	7	
2025-08-07T00:00	28750	15	-44.1		111	7	
2025-08-07T00:00	28800	15	-44.0		105	7	
2025-08-07T00:00	28850	15	-43.7		97	7	
2025-08-07T00:00	28900	15	-43.2		86	7	
2025-08-07T00:00	28950	15	-43.1		75	8	
2025-08-07T00:00	29000	15	-43.1		67	9	
2025-08-07T00:00	29050	15	-43.2		64	11	
2025-08-07T00:00	29100	15	-43.4		66	12	
2025-08-07T00:00	29150	14	-43.4		71	13	
2025-08-07T00:00	29200	14	-43.3		78	12	
2025-08-07T00:00	29250	14	-43.1		85	12	
2025-08-07T00:00	29300	14	-42.9		91	11	
2025-08-07T00:00	29350	14	-42.9		93	11	
2025-08-07T00:00	29400	14	-42.5		93	11	
2025-08-07T00:00	29450	14	-42.4		93	12	
2025-08-07T00:00	29500	14	-42.5		92	12	
2025-08-07T00:00	29550	14	-42.7		91	12	
2025-08-07T00:00	29600	13	-42.8		91	13	
2025-08-07T00:00	29650	13	-42.9		91	14	
2025-08-07T00:00	29700	13	-43.1		94	15	
2025-08-07T00:00	29750	13	-43.0		98	16	
2025-08-07T00:00	29800	13	-43.1		102	16	
2025-08-07T00:00	29850	13	-43.0		106	16	
2025-08-07T00:00	29900	13	-42.8		110	16	
2025-08-07T00:00	29950	13	-42.8		115	14	
2025-08-07T00:00	30000	13	-42.4		119	13	
2025-08-07T00:00	30050	13	-42.3		122	11	
2025-08-07T00:00	30100	13	-42.4		126	10	
2025-08-07T00:00	30150	12	-42.6		129	9	
2025-08-07T00:00	30200	12	-42.6		130	7	
2025-08-07T00:00	30250	12	-42.5		125	6	
2025-08-07T00:00	30300	12	-42.2		115	6	
2025-08-07T00:00	30350	12	-41.7		109	7	
2025-08-07T00:00	30400	12	-41.7		107	8	
2025-08-07T00:00	30450	12	-41.6		107	8	
2025-08-07T00:00	30500	12	-41.2		104	8	
2025-08-07T00:00	30550	12	-41.1		98	7	
2025-08-07T00:00	30600	12	-41.1		90	7	
2025-08-07T00:00	30650	12	-41.1		83	7	
2025-08-07T00:00	30700	11	-41.1		80	8	
2025-08-07T00:00	30750	11	-41.1		82	9	
2025-08-07T00:00	30800	11	-40.9		86	10	
2025-08-07T00:00	30850	11	-40.7		87	11	
2025-08-07T00:00	30900	11	-40.4		84	11	
2025-08-07T00:00	30950	11	-40.2		83	11	
2025-08-07T00:00	31000	11	-40.0		83	12	
2025-08-07T00:00	31050	11	-39.9		81	12	
2025-08-07T00:00	31100	11	-39.6		77	12	
2025-08-07T00:00	31150	11	-39.5		75	12	
2025-08-07T00:00	31200	11	-39.3		79	13	
2025-08-07T00:00	31250	11	-39.3		84	13	
2025-08-07T00:00	31300	10	-39.3		89	13	
2025-08-07T00:00	31350	10	-39.3		93	12	
2025-08-07T00:00	31400	10	-39.2		94	12	
2025-08-07T00:00	31450	10	-39.1		95	11	
2025-08-07T00:00	31500	10	-39.0		96	10	
2025-08-07T00:00	31550	10	-39.0		95	10	
2025-08-07T00:00	31600	10	-38.8		89	9	
2025-08-07T00:00	31650	10	-38.3		83	10	
2025-08-07T00:00	31700	10	-37.7		80	10	
2025-08-07T00:00	31750	10	-37.4		80	10	
2025-08-07T00:00	31800	10	-37.4		78	10	
2025-08-07T00:00	31850	10	-37.1		73	11	
2025-08-07T00:00	31900	10	-37.0		68	12	
2025-08-07T00:00	31950	10	-36.8		66	13	
2025-08-07T00:00	32000	9	-36.4		68	13	
2025-08-07T00:00	32050	9	-35.8		74	13	
2025-08-07T00:00	32100	9	-35.8		82	12	
2025-08-07T00:00	32150	9	-35.9		87	11	
2025-08-07T00:00	32200	9	-35.8		87	11	
2025-08-07T00:00	32250	9	-35.8		85	10	
2025-08-07T00:00	32300	9	-35.7		83	9	
2025-08-07T00:00	32350	9	-35.6		82	10	
2025-08-07T00:00	32400	9	-35.5		80	11	
2025-08-07T00:00	32450	9	-35.3		77	12	
2025-08-07T00:00	32500	9	-35.1		75	12	
2025-08-07T00:00	32550	9	-34.9		74	13	
2025-08-07T00:00	32600	9	-34.8		74	13	
2025-08-07T00:00	32650	9	-34.9		76	13	
2025-08-07T00:00	32700	9	-34.9		78	13	
2025-08-07T00:00	32750	9	-35.1		80	13	
2025-08-07T00:00	32800	8	-35.3		81	13	
2025-08-07T00:00	32850	8	-35.4		81	13	
2025-08-07T00:00	32900	8	-35.6		82	13	
2025-08-07T00:00	32950	8	-35.6		83	13	
2025-08-07T00:00	33000	8	-35.6		83	13	
2025-08-07T00:00	33050	8	-35.5		82	14	
2025-08-07T00:00	33100	8	-35.5		81	13	
2025-08-07T00:00	33150	8	-35.6		82	13	
2025-08-07T00:00	33200	8	-35.7		82	12	
2025-08-07T00:00	33250	8	-35.7		82	11	
2025-08-07T00:00	33300	8	-35.9		83	10	
2025-08-07T00:00	33350	8	-35.9		85	10	
2025-08-07T00:00	33400	8	-36.2		86	10	
2025-08-07T00:00	33450	8	-36.2		84	11	
2025-08-07T00:00	33500	8	-36.3		81	12	
2025-08-07T00:00	33550	8	-36.2		80	13	
2025-08-07T00:00	33600	8	-36.0		80	14	
2025-08-07T00:00	33650	7	-36.0		80	16	
2025-08-07T00:00	33700	7	-35.9		81	16	
2025-08-07T00:00	33750	7	-35.7		83	16	
2025-08-07T00:00	33800	7	-35.9		84	16	
2025-08-07T00:00	33850	7	-36.1		85	16	
2025-08-07T00:00	33900	7	-36.1		85	17	
2025-08-07T00:00	33950	7	-36.0		87	16	
2025-08-07T00:00	34000	7	-35.8		90	16	
2025-08-07T00:00	34050	7	-35.6		91	15	
2025-08-07T00:00	34100	7	-35.5		91	14	
2025-08-07T00:00	34150	7	-35.5		90	13	
2025-08-07T00:00	34200	7	-35.6		86	13	
2025-08-07T00:00	34250	7	-35.6		83	14	
2025-08-07T00:00	34300	7	-35.3		82	15	
2025-08-07T00:00	34350	7	-35.1		82	15	
2025-08-07T00:00	34400	7	-34.8		84	17	
2025-08-07T00:00	34450	7	-34.5		87	17	
2025-08-07T00:00	34500	7	-34.5		90	17	
2025-08-07T00:00	34550	7	-34.5		96	16	
2025-08-07T00:00	34600	7	-34.6		102	16	
2025-08-07T00:00	34650	6	-34.8		106	15	
2025-08-07T00:00	34700	6	-34.9		106	14	
2025-08-07T00:00	34750	6	-34.8		103	13	
2025-08-07T00:00	34800	6	-34.4		95	12	
2025-08-07T00:00	34850	6	-34.1		86	12	
2025-08-07T00:00	34900	6	-33.8		83	13	
2025-08-07T00:00	34950	6	-33.6		84	13	
2025-08-07T00:00	35000	6	-33.6		88	14	
2025-08-07T00:00	35050	6	-33.6		92	14	
2025-08-07T00:00	35100	6	-33.6		93	14	
2025-08-07T00:00	35150	6	-33.6		89	13	
2025-08-07T00:00	35200	6	-33.1		84	13	
2025-08-07T00:00	35250	6	-33.1		80	13	
2025-08-07T00:00	35300	6	-33.1		76	13	
2025-08-07T00:00	35350	6	-33.1		73	14	
2025-08-07T00:00	35400	6	-33.0		72	15	
2025-08-07T00:00	35450	6	-32.9		73	16	
2025-08-07T00:00	35500	6	-32.9		76	18	
2025-08-07T00:00	35550	6	-33.0		80	19	
2025-08-07T00:00	35600	6	-33.0		84	19	
2025-08-07T00:00	35650	6	-33.1		88	20	
2025-08-07T00:00	35700	6	-32.9		93	20	
2025-08-07T00:00	35750	6	-32.8		98	20	
2025-08-07T00:00	35800	5	-32.9		101	19	
2025-08-07T00:00	35850	5	-32.3		99	19	
2025-08-07T00:00	35900	5	-31.7		94	19	
2025-08-07T00:00	35950	5	-31.4		89	19	
2025-08-07T00:00	36000	5	-31.0		86	20	
2025-08-07T00:00	36050	5	-30.5		86	21	
2025-08-07T00:00	36100	5	-30.3		89	21	
2025-08-07T00:00	36150	5	-30.2		93	21	
2025-08-07T00:00	36200	5	-30.3		96	20	
2025-08-07T00:00	36250	5	-30.4		98	19	
2025-08-07T00:00	36300	5	-30.2		98	19	
2025-08-07T00:00	36350	5	-30.2		96	19	
2025-08-07T00:00	36400	5	-29.9		95	21	
2025-08-07T00:00	36450	5	-29.7		96	21	
2025-08-07T00:00	36500	5	-29.7		98	21	
2025-08-07T00:00	36550	5	-29.7		99	21	
2025-08-07T00:00	36600	5	-29.6		99	20	
2025-08-07T00:00	36650	5	-29.6		99	18	
2025-08-07T00:00	36700	5	-29.6		97	17	
2025-08-07T00:00	36750	5	-29.6		95	15	
2025-08-07T00:00	36800	5	-29.5		93	14	
2025-08-07T00:00	36850	5	-29.4		89	14	
2025-08-07T00:00	36900	5	-29.3		85	14	
2025-08-07T00:00	36950	5	-29.2		81	14	
2025-08-07T00:00	37000	5	-29.1		80	15	
2025-08-07T00:00	37050	5	-29.2		80	15	
2025-08-07T12:00	491	963	25.8	14.6	320	4	
2025-08-07T12:00	501	961	24.0	15.0	327	2	
2025-08-07T12:00	520	959	23.6	14.8	333	2	
2025-08-07T12:00	540	957	23.2	14.5	331	2	
2025-08-07T12:00	560	955	22.8	14.3	328	2	
2025-08-07T12:00	580	953	22.4	14.2	325	3	
2025-08-07T12:00	600	950	22.2	14.0	321	3	
2025-08-07T12:00	620	948	22.2	13.3	317	3	
2025-08-07T12:00	640	946	22.3	13.2	312	3	
2025-08-07T12:00	660	944	22.1	13.2	308	2	
2025-08-07T12:00	680	942	21.9	13.1	303	2	
2025-08-07T12:00	700	940	21.8	13.0	297	2	
2025-08-07T12:00	720	938	21.7	12.8	287	2	
2025-08-07T12:00	740	935	21.5	12.7	276	3	
2025-08-07T12:00	760	933	21.5	12.5	268	3	
2025-08-07T12:00	780	931	21.2	12.6	258	3	
2025-08-07T12:00	800	929	20.7	13.1	249	4	
2025-08-07T12:00	820	927	20.6	12.6	238	4	
2025-08-07T12:00	840	925	20.9	11.7	229	4	
2025-08-07T12:00	860	922	21.0	11.3	222	5	
2025-08-07T12:00	880	920	20.8	11.3	217	5	
2025-08-07T12:00	900	918	20.7	11.0	215	5	
2025-08-07T12:00	920	916	20.7	10.7	215	5	
2025-08-07T12:00	940	914	20.4	10.9	217	5	
2025-08-07T12:00	960	912	20.2	11.0	220	6	
2025-08-07T12:00	980	910	20.1	10.6	223	6	
2025-08-07T12:00	1000	908	19.9	10.6	226	7	
2025-08-07T12:00	1020	906	20.0	10.0	228	8	
2025-08-07T12:00	1040	903	20.0	9.6	230	8	
2025-08-07T12:00	1060	901	19.9	9.6	231	9	
2025-08-07T12:00	1080	899	19.7	9.5	231	9	
2025-08-07T12:00	1100	897	19.5	9.4	231	9	
2025-08-07T12:00	1120	895	19.3	9.5	231	10	
2025-08-07T12:00	1140	893	19.1	9.2	231	10	
2025-08-07T12:00	1160	891	18.9	9.2	231	10	
2025-08-07T12:00	1180	889	18.8	9.3	230	10	
2025-08-07T12:00	1200	887	18.6	9.1	229	9	
2025-08-07T12:00	1220	885	18.4	8.9	228	9	
2025-08-07T12:00	1240	883	18.2	8.8	226	9	
2025-08-07T12:00	1260	881	18.0	9.0	224	9	
2025-08-07T12:00	1280	878	17.9	9.0	222	9	
2025-08-07T12:00	1300	877	17.8	8.9	220	9	
2025-08-07T12:00	1320	875	17.6	8.9	219	8	
2025-08-07T12:00	1340	873	17.4	8.9	218	8	
2025-08-07T12:00	1360	871	17.2	8.9	218	8	
2025-08-07T12:00	1380	869	17.0	8.9	218	8	
2025-08-07T12:00	1400	866	16.8	8.8	218	8	
2025-08-07T12:00	1420	864	16.6	8.6	219	8	
2025-08-07T12:00	1440	862	16.5	8.6	219	8	
2025-08-07T12:00	1460	860	16.3	8.4	220	9	
2025-08-07T12:00	1480	858	16.2	7.7	221	9	
2025-08-07T12:00	1500	856	16.1	6.2	221	9	
2025-08-07T12:00	1520	854	16.3	4.0	222	10	
2025-08-07T12:00	1540	852	16.2	3.2	223	10	
2025-08-07T12:00	1560	850	16.1	2.1	224	10	
2025-08-07T12:00	1580	849	16.0	0.2	225	10	
2025-08-07T12:00	1600	846	15.9	0.1	226	10	
2025-08-07T12:00	1620	844	15.7	1.0	227	10	
2025-08-07T12:00	1640	842	15.5	0.8	227	11	
2025-08-07T12:00	1660	840	15.2	1.4	227	11	
2025-08-07T12:00	1680	839	15.1	0.0	226	11	
2025-08-07T12:00	1700	836	15.0	-0.7	224	11	
2025-08-07T12:00	1720	834	14.9	-1.4	223	11	
2025-08-07T12:00	1740	832	14.8	-2.1	221	11	
2025-08-07T12:00	1760	830	14.7	-1.8	220	12	
2025-08-07T12:00	1780	828	14.4	-1.4	220	12	
2025-08-07T12:00	1800	826	14.2	-1.1	219	12	
2025-08-07T12:00	1820	824	13.8	0.6	219	12	
2025-08-07T12:00	1840	823	13.6	0.5	220	13	
2025-08-07T12:00	1860	821	13.7	-2.4	221	13	
2025-08-07T12:00	1880	819	13.6	-3.7	222	14	
2025-08-07T12:00	1900	817	13.5	-4.4	223	14	
2025-08-07T12:00	1920	815	13.4	-4.9	224	14	
2025-08-07T12:00	1940	813	13.3	-4.7	225	15	
2025-08-07T12:00	1960	811	13.0	-4.4	226	15	
2025-08-07T12:00	1980	809	12.8	-4.0	226	16	
2025-08-07T12:00	2000	807	12.7	-4.3	227	16	
2025-08-07T12:00	2020	805	12.5	-4.4	227	16	
2025-08-07T12:00	2040	803	12.5	-5.6	226	16	
2025-08-07T12:00	2060	801	12.4	-5.6	224	16	
2025-08-07T12:00	2080	800	12.2	-5.8	222	16	
2025-08-07T12:00	2100	798	12.2	-7.7	220	15	
2025-08-07T12:00	2120	796	12.2	-10.7	218	15	
2025-08-07T12:00	2140	793	12.6	-17.4	217	14	
2025-08-07T12:00	2160	792	13.0	-22.2	216	13	
2025-08-07T12:00	2180	790	13.0	-25.4	217	13	
2025-08-07T12:00	2200	788	13.0	-28.7	218	12	
2025-08-07T12:00	2220	786	12.9	-31.5	220	12	
2025-08-07T12:00	2240	784	12.8	-32.3	222	12	
2025-08-07T12:00	2260	783	12.7	-33.6	223	12	
2025-08-07T12:00	2280	781	12.5	-34.3	225	12	
2025-08-07T12:00	2300	779	12.4	-35.3	227	11	
2025-08-07T12:00	2320	777	12.2	-35.2	228	11	
2025-08-07T12:00	2340	775	12.0	-35.3	229	11	
2025-08-07T12:00	2360	773	11.9	-35.3	229	11	
2025-08-07T12:00	2380	771	11.7	-35.5	231	10	
2025-08-07T12:00	2400	769	11.5	-35.5	232	10	
2025-08-07T12:00	2420	768	11.6	-35.4	235	10	
2025-08-07T12:00	2440	766	11.5	-35.3	239	10	
2025-08-07T12:00	2460	764	11.4	-35.3	242	10	
2025-08-07T12:00	2480	762	11.3	-35.3	246	10	
2025-08-07T12:00	2500	760	11.1	-35.4	249	10	
2025-08-07T12:00	2520	758	10.9	-35.4	252	10	
2025-08-07T12:00	2540	756	10.8	-35.6	254	9	
2025-08-07T12:00	2560	755	10.6	-35.6	254	9	
2025-08-07T12:00	2580	753	10.5	-35.6	255	9	
2025-08-07T12:00	2600	751	10.4	-35.8	254	9	
2025-08-07T12:00	2620	749	10.4	-35.5	254	9	
2025-08-07T12:00	2640	748	10.4	-35.8	253	9	
2025-08-07T12:00	2660	746	10.3	-36.0	251	8	
2025-08-07T12:00	2680	744	10.2	-36.2	250	8	
2025-08-07T12:00	2700	742	10.2	-36.3	249	8	
2025-08-07T12:00	2720	740	10.2	-35.4	248	7	
2025-08-07T12:00	2740	739	10.0	-35.0	247	7	
2025-08-07T12:00	2760	737	9.9	-34.7	247	7	
2025-08-07T12:00	2780	735	9.7	-34.7	247	7	
2025-08-07T12:00	2800	733	9.5	-34.7	247	8	
2025-08-07T12:00	2820	732	9.4	-34.6	248	8	
2025-08-07T12:00	2840	730	9.2	-34.5	249	8	
2025-08-07T12:00	2860	728	9.1	-34.0	249	8	
2025-08-07T12:00	2880	726	9.0	-32.4	251	8	
2025-08-07T12:00	2900	724	8.9	-32.3	253	8	
2025-08-07T12:00	2920	723	8.9	-34.6	255	8	
2025-08-07T12:00	2940	721	8.9	-34.7	257	8	
2025-08-07T12:00	2960	719	8.8	-31.0	260	8	
2025-08-07T12:00	2980	717	8.7	-25.7	263	7	
2025-08-07T12:00	3000	716	8.6	-20.5	264	7	
2025-08-07T12:00	3020	714	8.5	-19.1	265	7	
2025-08-07T12:00	3040	712	8.3	-17.8	265	8	
2025-08-07T12:00	3060	711	8.1	-16.8	264	8	
2025-08-07T12:00	3080	709	7.9	-16.4	263	8	
2025-08-07T12:00	3100	707	7.7	-16.1	263	8	
2025-08-07T12:00	3120	705	7.6	-15.5	263	8	
2025-08-07T12:00	3140	704	7.5	-14.9	263	8	
2025-08-07T12:00	3160	702	7.4	-14.6	264	8	
2025-08-07T12:00	3180	700	7.2	-14.5	265	8	
2025-08-07T12:00	3200	699	7.1	-14.4	266	8	
2025-08-07T12:00	3220	697	7.0	-14.6	267	7	
2025-08-07T12:00	3240	695	6.8	-14.9	267	7	
2025-08-07T12:00	3260	693	6.7	-15.8	266	7	
2025-08-07T12:00	3280	692	6.6	-15.2	266	7	
2025-08-07T12:00	3300	690	6.5	-13.5	265	7	
2025-08-07T12:00	3320	688	6.4	-13.1	264	7	
2025-08-07T12:00	3340	686	6.2	-13.0	263	7	
2025-08-07T12:00	3360	685	6.1	-12.6	263	7	
2025-08-07T12:00	3380	683	5.9	-12.5	262	8	
2025-08-07T12:00	3400	682	5.8	-12.2	262	8	
2025-08-07T12:00	3420	680	5.6	-11.7	263	8	
2025-08-07T12:00	3440	678	5.5	-11.7	264	8	
2025-08-07T12:00	3460	677	5.4	-11.6	266	8	
2025-08-07T12:00	3480	675	5.2	-12.4	267	8	
2025-08-07T12:00	3500	673	5.2	-14.0	268	8	
2025-08-07T12:00	3520	672	5.1	-14.6	270	8	
2025-08-07T12:00	3540	670	5.0	-14.7	271	8	
2025-08-07T12:00	3560	668	4.9	-14.5	273	8	
2025-08-07T12:00	3580	667	4.8	-14.5	275	8	
2025-08-07T12:00	3600	665	4.6	-14.7	276	8	
2025-08-07T12:00	3620	664	4.5	-14.8	277	8	
2025-08-07T12:00	3640	662	4.3	-14.9	278	8	
2025-08-07T12:00	3660	660	4.2	-14.9	280	8	
2025-08-07T12:00	3680	659	4.0	-14.9	281	8	
2025-08-07T12:00	3700	657	3.9	-14.9	283	8	
2025-08-07T12:00	3720	655	3.8	-15.0	284	8	
2025-08-07T12:00	3740	654	3.6	-14.7	285	8	
2025-08-07T12:00	3760	652	3.5	-13.9	285	7	
2025-08-07T12:00	3780	651	3.4	-12.6	284	7	
2025-08-07T12:00	3800	649	3.4	-11.1	282	7	
2025-08-07T12:00	3820	647	3.2	-10.6	280	7	
2025-08-07T12:00	3840	646	3.1	-10.2	278	7	
2025-08-07T12:00	3860	644	3.1	-9.7	278	7	
2025-08-07T12:00	3880	643	3.1	-10.0	278	8	
2025-08-07T12:00	3900	641	3.0	-10.3	279	8	
2025-08-07T12:00	3920	639	2.8	-10.6	282	8	
2025-08-07T12:00	3940	638	2.7	-10.4	284	8	
2025-08-07T12:00	3960	636	2.6	-7.3	286	8	
2025-08-07T12:00	3980	635	2.5	-5.5	287	8	
2025-08-07T12:00	4000	633	2.3	-4.8	287	9	
2025-08-07T12:00	4020	632	2.3	-4.1	288	10	
2025-08-07T12:00	4040	630	2.2	-3.8	289	11	
2025-08-07T12:00	4060	629	2.1	-3.4	290	11	
2025-08-07T12:00	4080	627	2.0	-3.4	292	12	
2025-08-07T12:00	4100	625	2.0	-3.4	293	12	
2025-08-07T12:00	4120	624	1.8	-3.3	294	12	
2025-08-07T12:00	4140	622	1.7	-3.2	294	12	
2025-08-07T12:00	4160	621	1.7	-2.7	292	12	
2025-08-07T12:00	4180	619	1.9	-2.0	290	12	
2025-08-07T12:00	4200	618	2.1	-2.4	287	11	
2025-08-07T12:00	4220	616	2.2	-2.9	285	12	
2025-08-07T12:00	4240	615	2.2	-2.9	284	12	
2025-08-07T12:00	4260	613	2.2	-2.8	284	12	
2025-08-07T12:00	4280	611	2.0	-2.7	285	12	
2025-08-07T12:00	4300	610	1.9	-2.7	287	13	
2025-08-07T12:00	4320	609	1.7	-2.9	290	13	
2025-08-07T12:00	4340	607	1.6	-2.8	293	13	
2025-08-07T12:00	4360	605	1.4	-2.8	295	14	
2025-08-07T12:00	4380	604	1.2	-2.7	298	14	
2025-08-07T12:00	4400	603	1.1	-2.5	299	13	
2025-08-07T12:00	4420	601	1.0	-2.5	300	13	
2025-08-07T12:00	4440	600	1.0	-2.6	299	13	
2025-08-07T12:00	4460	598	0.9	-2.6	298	12	
2025-08-07T12:00	4480	597	0.7	-2.8	298	12	
2025-08-07T12:00	4500	595	0.6	-3.1	297	12	
2025-08-07T12:00	4520	594	0.4	-3.2	298	12	
2025-08-07T12:00	4540	592	0.4	-3.7	299	12	
2025-08-07T12:00	4560	591	0.2	-3.8	301	13	
2025-08-07T12:00	4580	589	0.1	-4.0	303	13	
2025-08-07T12:00	4600	588	-0.1	-4.0	305	13	
2025-08-07T12:00	4620	586	-0.2	-4.0	307	13	
2025-08-07T12:00	4640	585	-0.4	-4.0	307	13	
2025-08-07T12:00	4660	583	-0.6	-3.8	306	13	
2025-08-07T12:00	4680	582	-0.7	-3.9	305	13	
2025-08-07T12:00	4700	580	-0.9	-4.0	303	13	
2025-08-07T12:00	4720	579	-1.1	-4.1	302	14	
2025-08-07T12:00	4740	578	-1.2	-4.1	303	14	
2025-08-07T12:00	4760	576	-1.3	-4.2	304	15	
2025-08-07T12:00	4780	575	-1.5	-4.3	306	15	
2025-08-07T12:00	4800	573	-1.6	-4.5	307	15	
2025-08-07T12:00	4820	572	-1.7	-4.9	309	15	
2025-08-07T12:00	4840	570	-1.7	-5.9	310	15	
2025-08-07T12:00	4860	569	-1.6	-6.4	311	15	
2025-08-07T12:00	4880	567	-1.6	-6.6	312	15	
2025-08-07T12:00	4900	566	-1.6	-6.8	312	15	
2025-08-07T12:00	4920	565	-1.7	-7.2	312	14	
2025-08-07T12:00	4940	563	-1.8	-7.5	311	14	
2025-08-07T12:00	4960	562	-1.9	-7.9	310	14	
2025-08-07T12:00	4980	560	-2.0	-8.1	310	14	
2025-08-07T12:00	5000	559	-2.1	-8.2	309	15	
2025-08-07T12:00	5020	558	-2.3	-8.2	308	15	
2025-08-07T12:00	5040	556	-2.4	-8.6	307	16	
2025-08-07T12:00	5060	555	-2.5	-8.9	307	16	
2025-08-07T12:00	5080	554	-2.5	-9.5	306	16	
2025-08-07T12:00	5100	552	-2.6	-9.5	306	16	
2025-08-07T12:00	5120	550	-2.8	-9.0	307	15	
2025-08-07T12:00	5140	549	-2.9	-9.4	308	15	
2025-08-07T12:00	5160	548	-2.9	-10.0	310	15	
2025-08-07T12:00	5180	547	-3.1	-10.3	311	15	
2025-08-07T12:00	5200	545	-3.2	-10.6	312	15	
2025-08-07T12:00	5220	544	-3.4	-10.4	313	15	
2025-08-07T12:00	5240	542	-3.5	-10.2	314	16	
2025-08-07T12:00	5260	541	-3.6	-10.4	314	16	
2025-08-07T12:00	5280	540	-3.7	-10.5	315	17	
2025-08-07T12:00	5300	538	-3.8	-10.9	315	18	
2025-08-07T12:00	5320	537	-3.9	-11.0	315	18	
2025-08-07T12:00	5340	535	-4.1	-11.2	315	18	
2025-08-07T12:00	5360	534	-4.3	-11.2	315	18	
2025-08-07T12:00	5380	533	-4.4	-11.2	314	18	
2025-08-07T12:00	5400	532	-4.6	-11.3	313	18	
2025-08-07T12:00	5420	530	-4.7	-11.5	311	17	
2025-08-07T12:00	5440	529	-4.9	-11.8	309	16	
2025-08-07T12:00	5460	527	-5.1	-11.9	308	16	
2025-08-07T12:00	5480	526	-5.2	-12.2	307	16	
2025-08-07T12:00	5500	525	-5.4	-12.6	306	15	
2025-08-07T12:00	5520	523	-5.5	-12.8	306	15	
2025-08-07T12:00	5540	522	-5.6	-12.9	307	15	
2025-08-07T12:00	5560	521	-5.8	-12.8	308	16	
2025-08-07T12:00	5580	519	-6.0	-12.8	308	16	
2025-08-07T12:00	5600	518	-6.1	-13.0	309	16	
2025-08-07T12:00	5620	517	-6.3	-13.1	309	16	
2025-08-07T12:00	5640	515	-6.5	-13.2	310	16	
2025-08-07T12:00	5660	514	-6.7	-13.2	310	16	
2025-08-07T12:00	5680	513	-6.8	-13.1	311	16	
2025-08-07T12:00	5700	512	-7.0	-13.2	312	16	
2025-08-07T12:00	5720	510	-7.1	-14.1	313	16	
2025-08-07T12:00	5740	509	-7.3	-14.8	314	15	
2025-08-07T12:00	5760	508	-7.4	-14.8	314	15	
2025-08-07T12:00	5780	506	-7.5	-14.9	314	16	
2025-08-07T12:00	5800	505	-7.7	-14.9	313	16	
2025-08-07T12:00	5820	504	-7.9	-14.9	312	16	
2025-08-07T12:00	5840	502	-8.0	-15.0	311	16	
2025-08-07T12:00	5860	501	-8.2	-15.2	310	16	
2025-08-07T12:00	5880	500	-8.3	-15.1	309	17	
2025-08-07T12:00	5900	499	-8.5	-15.1	307	17	
2025-08-07T12:00	5920	497	-8.6	-15.5	307	17	
2025-08-07T12:00	5940	496	-8.7	-15.6	306	18	
2025-08-07T12:00	5960	495	-8.9	-15.7	306	18	
2025-08-07T12:00	5980	493	-9.1	-15.8	306	18	
2025-08-07T12:00	6000	492	-9.2	-15.9	305	18	
2025-08-07T12:00	6020	491	-9.4	-16.0	305	19	
2025-08-07T12:00	6040	490	-9.5	-16.1	306	19	
2025-08-07T12:00	6060	488	-9.7	-16.3	306	19	
2025-08-07T12:00	6080	487	-9.8	-16.4	306	19	
2025-08-07T12:00	6100	486	-10.0	-16.6	306	20	
2025-08-07T12:00	6120	485	-10.2	-16.8	306	20	
2025-08-07T12:00	6140	483	-10.4	-16.9	306	20	
2025-08-07T12:00	6160	482	-10.5	-17.2	306	20	
2025-08-07T12:00	6180	481	-10.7	-17.4	305	21	
2025-08-07T12:00	6200	480	-10.9	-17.5	305	21	
2025-08-07T12:00	6220	478	-11.0	-17.4	305	21	
2025-08-07T12:00	6240	477	-11.2	-17.0	305	21	
2025-08-07T12:00	6260	476	-11.3	-16.4	305	21	
2025-08-07T12:00	6280	475	-11.5	-16.4	305	20	
2025-08-07T12:00	6300	473	-11.7	-16.7	306	20	
2025-08-07T12:00	6320	472	-11.8	-17.9	306	20	
2025-08-07T12:00	6340	471	-11.8	-18.5	306	20	
2025-08-07T12:00	6360	470	-11.8	-17.3	306	20	
2025-08-07T12:00	6380	469	-11.8	-17.4	306	20	
2025-08-07T12:00	6400	467	-11.9	-16.7	306	20	
2025-08-07T12:00	6420	466	-12.1	-17.1	306	20	
2025-08-07T12:00	6440	465	-12.2	-18.3	307	19	
2025-08-07T12:00	6460	464	-12.0	-21.5	307	19	
2025-08-07T12:00	6480	462	-11.9	-24.0	307	19	
2025-08-07T12:00	6500	461	-12.0	-24.5	307	19	
2025-08-07T12:00	6520	460	-12.2	-24.6	307	19	
2025-08-07T12:00	6540	459	-12.4	-24.5	307	19	
2025-08-07T12:00	6560	458	-12.5	-24.4	307	19	
2025-08-07T12:00	6580	456	-12.7	-24.4	306	19	
2025-08-07T12:00	6600	455	-12.9	-24.3	306	19	
2025-08-07T12:00	6620	454	-13.0	-24.2	306	20	
2025-08-07T12:00	6640	453	-13.1	-24.8	307	20	
2025-08-07T12:00	6660	452	-13.1	-25.7	307	20	
2025-08-07T12:00	6680	450	-13.0	-28.4	308	21	
2025-08-07T12:00	6700	449	-12.9	-28.9	309	21	
2025-08-07T12:00	6720	448	-12.9	-28.3	310	21	
2025-08-07T12:00	6740	447	-13.0	-28.1	311	21	
2025-08-07T12:00	6760	446	-13.1	-28.5	312	21	
2025-08-07T12:00	6780	445	-13.2	-29.8	313	21	
2025-08-07T12:00	6800	443	-13.2	-32.2	314	22	
2025-08-07T12:00	6820	442	-13.1	-34.1	314	22	
2025-08-07T12:00	6840	441	-13.1	-35.6	314	22	
2025-08-07T12:00	6860	440	-13.1	-37.4	314	22	
2025-08-07T12:00	6880	439	-13.2	-38.3	314	22	
2025-08-07T12:00	6900	438	-13.2	-37.9	313	22	
2025-08-07T12:00	6920	436	-13.3	-38.2	313	22	
2025-08-07T12:00	6940	435	-13.4	-38.7	313	23	
2025-08-07T12:00	6960	434	-13.5	-39.3	312	23	
2025-08-07T12:00	6980	433	-13.5	-39.9	312	23	
2025-08-07T12:00	7000	432	-13.6	-40.0	312	23	
2025-08-07T12:00	7020	431	-13.7	-40.0	313	24	
2025-08-07T12:00	7040	430	-13.9	-39.8	313	24	
2025-08-07T12:00	7060	428	-14.0	-39.9	313	24	
2025-08-07T12:00	7080	427	-14.1	-40.2	314	25	
2025-08-07T12:00	7100	426	-14.3	-40.3	314	25	
2025-08-07T12:00	7120	425	-14.5	-39.6	314	25	
2025-08-07T12:00	7140	424	-14.6	-38.8	314	25	
2025-08-07T12:00	7160	423	-14.8	-37.7	314	25	
2025-08-07T12:00	7180	422	-15.0	-37.0	313	25	
2025-08-07T12:00	7200	421	-15.1	-37.1	313	25	
2025-08-07T12:00	7220	420	-15.2	-36.9	312	25	
2025-08-07T12:00	7240	418	-15.4	-35.7	312	25	
2025-08-07T12:00	7260	417	-15.5	-35.1	312	25	
2025-08-07T12:00	7280	416	-15.6	-35.3	312	25	
2025-08-07T12:00	7300	415	-15.8	-35.5	312	25	
2025-08-07T12:00	7320	414	-16.0	-35.3	312	26	
2025-08-07T12:00	7340	413	-16.1	-35.6	312	26	
2025-08-07T12:00	7360	412	-16.2	-36.3	312	26	
2025-08-07T12:00	7380	411	-16.4	-36.4	312	26	
2025-08-07T12:00	7400	410	-16.5	-36.7	312	27	
2025-08-07T12:00	7420	409	-16.6	-36.7	312	27	
2025-08-07T12:00	7440	407	-16.7	-36.8	312	27	
2025-08-07T12:00	7460	406	-16.9	-36.8	313	27	
2025-08-07T12:00	7480	405	-17.1	-37.0	313	27	
2025-08-07T12:00	7500	404	-17.2	-37.1	313	27	
2025-08-07T12:00	7520	403	-17.4	-36.9	314	27	
2025-08-07T12:00	7540	402	-17.5	-36.9	314	27	
2025-08-07T12:00	7560	401	-17.7	-37.0	315	27	
2025-08-07T12:00	7580	400	-17.9	-37.1	316	27	
2025-08-07T12:00	7600	399	-18.1	-36.7	317	28	
2025-08-07T12:00	7620	398	-18.3	-36.3	317	27	
2025-08-07T12:00	7640	397	-18.4	-36.2	318	27	
2025-08-07T12:00	7660	396	-18.6	-36.4	318	27	
2025-08-07T12:00	7680	394	-18.8	-36.4	318	27	
2025-08-07T12:00	7700	393	-19.0	-36.6	318	27	
2025-08-07T12:00	7720	392	-19.1	-36.6	317	26	
2025-08-07T12:00	7740	391	-19.3	-36.6	317	26	
2025-08-07T12:00	7760	390	-19.3	-37.8	317	26	
2025-08-07T12:00	7780	389	-19.4	-38.4	316	26	
2025-08-07T12:00	7800	388	-19.5	-39.5	316	26	
2025-08-07T12:00	7820	387	-19.6	-39.7	315	26	
2025-08-07T12:00	7840	386	-19.8	-39.8	315	26	
2025-08-07T12:00	7860	385	-19.9	-40.2	314	26	
2025-08-07T12:00	7880	384	-20.1	-40.2	314	25	
2025-08-07T12:00	7900	383	-20.3	-40.2	314	25	
2025-08-07T12:00	7920	382	-20.5	-40.3	313	25	
2025-08-07T12:00	7940	381	-20.6	-40.8	313	24	
2025-08-07T12:00	7960	380	-20.8	-41.4	312	24	
2025-08-07T12:00	7980	379	-20.9	-42.0	312	23	
2025-08-07T12:00	8000	378	-20.9	-43.6	311	23	
2025-08-07T12:00	8020	377	-20.9	-44.3	311	23	
2025-08-07T12:00	8040	376	-21.0	-44.1	311	23	
2025-08-07T12:00	8060	375	-21.2	-43.7	311	24	
2025-08-07T12:00	8080	374	-21.3	-43.3	311	24	
2025-08-07T12:00	8100	373	-21.5	-43.2	311	25	
2025-08-07T12:00	8120	372	-21.6	-43.3	312	25	
2025-08-07T12:00	8140	371	-21.7	-43.2	312	25	
2025-08-07T12:00	8160	370	-21.9	-43.2	313	26	
2025-08-07T12:00	8180	369	-22.0	-43.3	314	26	
2025-08-07T12:00	8200	368	-22.2	-43.3	314	26	
2025-08-07T12:00	8220	367	-22.4	-43.4	315	26	
2025-08-07T12:00	8240	366	-22.5	-43.3	315	26	
2025-08-07T12:00	8260	365	-22.7	-43.2	316	25	
2025-08-07T12:00	8280	364	-22.8	-43.3	316	25	
2025-08-07T12:00	8300	363	-23.0	-43.6	316	25	
2025-08-07T12:00	8320	362	-23.2	-44.0	315	25	
2025-08-07T12:00	8340	361	-23.3	-44.1	315	24	
2025-08-07T12:00	8360	360	-23.5	-44.1	314	24	
2025-08-07T12:00	8380	359	-23.7	-44.2	314	24	
2025-08-07T12:00	8400	358	-23.8	-44.3	314	24	
2025-08-07T12:00	8420	357	-24.0	-44.6	314	25	
2025-08-07T12:00	8440	356	-24.2	-44.5	314	25	
2025-08-07T12:00	8460	355	-24.3	-44.8	315	25	
2025-08-07T12:00	8480	354	-24.5	-45.1	315	25	
2025-08-07T12:00	8500	353	-24.7	-45.0	315	25	
2025-08-07T12:00	8520	352	-24.8	-45.1	316	25	
2025-08-07T12:00	8540	351	-25.0	-45.1	316	25	
2025-08-07T12:00	8560	350	-25.2	-45.2	315	25	
2025-08-07T12:00	8580	349	-25.4	-45.1	315	24	
2025-08-07T12:00	8600	348	-25.5	-45.1	315	24	
2025-08-07T12:00	8620	347	-25.7	-45.1	315	24	
2025-08-07T12:00	8640	346	-25.9	-45.2	315	24	
2025-08-07T12:00	8660	345	-26.1	-45.2	315	24	
2025-08-07T12:00	8680	344	-26.3	-45.1	315	24	
2025-08-07T12:00	8700	343	-26.5	-45.1	315	24	
2025-08-07T12:00	8720	342	-26.7	-45.0	315	24	
2025-08-07T12:00	8740	341	-26.8	-45.2	315	24	
2025-08-07T12:00	8760	341	-27.0	-45.1	315	25	
2025-08-07T12:00	8780	340	-27.2	-44.9	315	25	
2025-08-07T12:00	8800	339	-27.4	-45.0	315	25	
2025-08-07T12:00	8820	338	-27.6	-45.3	314	24	
2025-08-07T12:00	8840	337	-27.7	-45.5	314	24	
2025-08-07T12:00	8860	336	-27.9	-45.7	315	24	
2025-08-07T12:00	8880	335	-28.1	-45.8	315	24	
2025-08-07T12:00	8900	334	-28.2	-45.8	315	24	
2025-08-07T12:00	8920	333	-28.4	-45.8	315	24	
2025-08-07T12:00	8940	332	-28.6	-45.9	315	24	
2025-08-07T12:00	8960	331	-28.8	-46.1	315	24	
2025-08-07T12:00	8980	330	-28.9	-46.3	315	24	
2025-08-07T12:00	9000	329	-29.1	-46.5	316	24	
2025-08-07T12:00	9020	328	-29.3	-46.3	316	24	
2025-08-07T12:00	9040	328	-29.5	-46.4	316	24	
2025-08-07T12:00	9060	327	-29.7	-46.4	316	24	
2025-08-07T12:00	9080	326	-29.9	-46.6	317	24	
2025-08-07T12:00	9100	325	-30.0	-46.7	317	23	
2025-08-07T12:00	9120	324	-30.2	-46.8	318	24	
2025-08-07T12:00	9140	323	-30.4	-46.8	319	24	
2025-08-07T12:00	9160	322	-30.6	-46.9	320	24	
2025-08-07T12:00	9180	321	-30.8	-46.9	320	24	
2025-08-07T12:00	9200	320	-30.9	-47.1	321	25	
2025-08-07T12:00	9220	319	-31.1	-47.4	322	25	
2025-08-07T12:00	9240	318	-31.2	-47.7	323	26	
2025-08-07T12:00	9260	317	-31.3	-47.6	324	26	
2025-08-07T12:00	9280	317	-31.5	-47.5	325	27	
2025-08-07T12:00	9300	316	-31.6	-47.6	326	27	
2025-08-07T12:00	9320	315	-31.8	-47.5	326	27	
2025-08-07T12:00	9340	314	-31.9	-47.2	327	27	
2025-08-07T12:00	9360	313	-32.0	-46.9	328	27	
2025-08-07T12:00	9380	312	-32.1	-46.5	328	27	
2025-08-07T12:00	9400	311	-32.3	-46.7	328	27	
2025-08-07T12:00	9420	310	-32.5	-46.7	328	27	
2025-08-07T12:00	9440	309	-32.6	-46.6	328	27	
2025-08-07T12:00	9460	309	-32.8	-46.6	328	26	
2025-08-07T12:00	9480	308	-32.9	-46.7	328	26	
2025-08-07T12:00	9500	307	-33.1	-47.0	328	26	
2025-08-07T12:00	9520	306	-33.2	-46.8	327	25	
2025-08-07T12:00	9540	305	-33.4	-46.3	327	25	
2025-08-07T12:00	9560	304	-33.6	-46.2	327	25	
2025-08-07T12:00	9580	303	-33.7	-46.8	326	25	
2025-08-07T12:00	9600	303	-33.9	-47.2	326	25	
2025-08-07T12:00	9620	302	-34.1	-47.1	325	25	
2025-08-07T12:00	9640	301	-34.3	-47.0	325	25	
2025-08-07T12:00	9660	300	-34.4	-47.3	324	25	
2025-08-07T12:00	9680	299	-34.6	-47.7	324	25	
2025-08-07T12:00	9700	298	-34.8	-47.9	323	25	
2025-08-07T12:00	9720	297	-35.0	-47.9	323	25	
2025-08-07T12:00	9740	297	-35.2	-48.0	323	25	
2025-08-07T12:00	9760	296	-35.3	-47.8	323	25	
2025-08-07T12:00	9780	295	-35.5	-47.6	322	25	
2025-08-07T12:00	9800	294	-35.7	-47.7	322	25	
2025-08-07T12:00	9820	293	-35.9	-47.7	322	25	
2025-08-07T12:00	9840	292	-36.1	-47.5	322	25	
2025-08-07T12:00	9860	291	-36.3	-47.5	322	25	
2025-08-07T12:00	9880	291	-36.5	-47.7	322	25	
2025-08-07T12:00	9900	290	-36.7	-47.8	322	25	
2025-08-07T12:00	9920	289	-36.9	-48.0	323	25	
2025-08-07T12:00	9940	288	-37.1	-48.2	323	25	
2025-08-07T12:00	9960	287	-37.2	-48.2	323	25	
2025-08-07T12:00	9980	286	-37.4	-47.9	322	25	
2025-08-07T12:00	10000	286	-37.6	-47.7	322	24	
2025-08-07T12:00	10018	285	-37.8	-47.7	321	24	
2025-08-07T12:00	10050	284	-38.1	-48.1	321	24	
2025-08-07T12:00	10100	282	-38.5	-48.4	320	24	
2025-08-07T12:00	10150	279	-38.9	-49.0	319	24	
2025-08-07T12:00	10200	277	-39.3	-49.2	319	24	
2025-08-07T12:00	10250	275	-39.7	-49.2	319	24	
2025-08-07T12:00	10300	273	-40.2	-49.4	319	24	
2025-08-07T12:00	10350	271	-40.7	-49.7	319	24	
2025-08-07T12:00	10400	269	-41.1	-50.0	319	24	
2025-08-07T12:00	10450	267	-41.6	-50.1	319	24	
2025-08-07T12:00	10500	265	-42.1	-50.5	319	24	
2025-08-07T12:00	10550	264	-42.3	-51.9	317	24	
2025-08-07T12:00	10600	262	-42.6	-52.9	316	25	
2025-08-07T12:00	10650	260	-42.9	-53.6	315	25	
2025-08-07T12:00	10700	258	-43.2	-54.2	315	25	
2025-08-07T12:00	10750	256	-43.6	-54.2	314	26	
2025-08-07T12:00	10800	254	-44.0	-54.1	314	26	
2025-08-07T12:00	10850	252	-44.4	-54.4	313	25	
2025-08-07T12:00	10900	250	-44.9	-54.6	312	25	
2025-08-07T12:00	10950	248	-45.3	-54.6	311	25	
2025-08-07T12:00	11000	247	-45.8	-55.0	311	25	
2025-08-07T12:00	11050	245	-46.2	-56.5	310	26	
2025-08-07T12:00	11100	243	-46.6	-57.2	310	26	
2025-08-07T12:00	11150	241	-47.0	-58.2	309	27	
2025-08-07T12:00	11200	239	-47.4	-58.5	309	27	
2025-08-07T12:00	11250	237	-47.8	-59.3	309	28	
2025-08-07T12:00	11300	236	-48.2	-60.1	309	29	
2025-08-07T12:00	11350	234	-48.6	-59.7	309	29	
2025-08-07T12:00	11400	232	-49.0	-60.5	311	29	
2025-08-07T12:00	11450	230	-49.3	-60.7	313	29	
2025-08-07T12:00	11500	228	-49.7	-60.6	314	29	
2025-08-07T12:00	11550	227	-50.1	-61.0	315	30	
2025-08-07T12:00	11600	225	-50.5	-61.5	316	30	
2025-08-07T12:00	11650	223	-50.9	-62.0	317	31	
2025-08-07T12:00	11700	221	-51.1	-62.2	318	32	
2025-08-07T12:00	11750	220	-51.4	-61.6	318	32	
2025-08-07T12:00	11800	218	-51.8	-61.3	318	32	
2025-08-07T12:00	11850	216	-52.3	-61.5	319	32	
2025-08-07T12:00	11900	215	-52.8	-61.7	320	32	
2025-08-07T12:00	11950	213	-53.2	-62.0	319	31	
2025-08-07T12:00	12000	211	-53.6	-62.6	318	31	
2025-08-07T12:00	12050	210	-54.0	-63.7	317	31	
2025-08-07T12:00	12100	208	-53.9	-66.3	317	31	
2025-08-07T12:00	12150	207	-54.3	-66.6	317	31	
2025-08-07T12:00	12200	205	-54.6	-66.6	317	31	
2025-08-07T12:00	12250	203	-55.0	-66.9	317	31	
2025-08-07T12:00	12300	202	-55.3	-67.3	317	31	
2025-08-07T12:00	12350	200	-55.5	-67.7	317	31	
2025-08-07T12:00	12400	199	-55.8	-67.8	318	31	
2025-08-07T12:00	12450	197	-56.1	-67.7	317	31	
2025-08-07T12:00	12500	196	-56.3	-67.3	316	31	
2025-08-07T12:00	12550	194	-56.4	-67.2	315	31	
2025-08-07T12:00	12600	193	-56.6	-67.2	313	31	
2025-08-07T12:00	12650	191	-56.9	-67.2	312	32	
2025-08-07T12:00	12700	189	-57.4	-67.0	312	32	
2025-08-07T12:00	12750	188	-57.7	-66.8	313	32	
2025-08-07T12:00	12800	186	-58.0	-66.9	313	31	
2025-08-07T12:00	12850	185	-58.0	-67.9	314	29	
2025-08-07T12:00	12900	184	-58.0	-68.9	313	28	
2025-08-07T12:00	12950	182	-58.3	-68.9	313	27	
2025-08-07T12:00	13000	181	-58.4	-68.7	312	25	
2025-08-07T12:00	13050	179	-58.7	-68.5	310	24	
2025-08-07T12:00	13100	178	-58.9	-68.4	308	24	
2025-08-07T12:00	13150	176	-59.2	-68.5	304	23	
2025-08-07T12:00	13200	175	-59.3	-69.8	300	23	
2025-08-07T12:00	13250	174	-59.0	-72.1	296	23	
2025-08-07T12:00	13300	172	-58.8	-73.9	294	24	
2025-08-07T12:00	13350	171	-58.8	-74.5	292	24	
2025-08-07T12:00	13400	170	-59.2	-74.4	292	25	
2025-08-07T12:00	13450	168	-59.6	-74.4	295	25	
2025-08-07T12:00	13500	167	-59.8	-74.7	299	26	
2025-08-07T12:00	13550	165	-59.8	-75.0	302	27	
2025-08-07T12:00	13600	164	-59.7	-75.5	304	27	
2025-08-07T12:00	13650	163	-59.7	-76.5	306	27	
2025-08-07T12:00	13700	162	-59.8	-77.3	308	27	
2025-08-07T12:00	13750	160	-59.8	-77.7	310	27	
2025-08-07T12:00	13800	159	-59.9	-78.0	312	26	
2025-08-07T12:00	13850	158	-60.0	-78.3	313	26	
2025-08-07T12:00	13900	156	-60.3	-78.6	314	25	
2025-08-07T12:00	13950	155	-60.4	-79.0	316	24	
2025-08-07T12:00	14000	154	-60.4	-79.3	317	23	
2025-08-07T12:00	14050	153	-60.6	-79.7	318	21	
2025-08-07T12:00	14100	152	-60.8	-79.9	318	20	
2025-08-07T12:00	14150	150	-61.2	-80.0	315	19	
2025-08-07T12:00	14200	149	-61.6	-80.3	310	18	
2025-08-07T12:00	14250	148	-61.6	-80.7	305	17	
2025-08-07T12:00	14300	147	-61.3	-81.0	302	17	
2025-08-07T12:00	14350	146	-61.0	-81.3	301	16	
2025-08-07T12:00	14400	144	-60.9	-81.1	299	16	
2025-08-07T12:00	14450	143	-61.2	-80.7	297	15	
2025-08-07T12:00	14500	142	-61.5	-80.0	294	15	
2025-08-07T12:00	14550	141	-61.8	-79.5	293	15	
2025-08-07T12:00	14600	140	-62.2	-79.5	294	16	
2025-08-07T12:00	14650	139	-62.2	-79.7	295	17	
2025-08-07T12:00	14700	137	-62.3	-80.1	296	17	
2025-08-07T12:00	14750	136	-62.1	-81.1	296	17	
2025-08-07T12:00	14800	135	-61.6	-81.8	292	16	
2025-08-07T12:00	14850	134	-61.7	-81.9	287	16	
2025-08-07T12:00	14900	133	-62.1	-82.3	284	16	
2025-08-07T12:00	14950	132	-62.3	-82.9	284	16	
2025-08-07T12:00	15000	131	-62.4	-83.3	286	16	
2025-08-07T12:00	15050	130	-62.7	-83.4	288	17	
2025-08-07T12:00	15100	129	-62.9	-83.5	291	17	
2025-08-07T12:00	15150	128	-62.9	-83.6	293	18	
2025-08-07T12:00	15200	127	-63.1	-83.7	295	18	
2025-08-07T12:00	15250	126	-62.9	-83.7	298	17	
2025-08-07T12:00	15300	125	-62.5	-83.6	301	17	
2025-08-07T12:00	15350	124	-62.7	-83.8	303	17	
2025-08-07T12:00	15400	123	-62.8	-83.8	304	16	
2025-08-07T12:00	15450	122	-63.0	-83.7	303	15	
2025-08-07T12:00	15500	121	-63.2	-83.7	300	14	
2025-08-07T12:00	15550	120	-63.4	-83.9	295	12	
2025-08-07T12:00	15600	119	-63.4	-83.9	289	12	
2025-08-07T12:00	15650	118	-63.4	-83.9	284	12	
2025-08-07T12:00	15700	117	-63.5	-84.2	285	12	
2025-08-07T12:00	15750	116	-63.6	-84.2	290	13	
2025-08-07T12:00	15800	115	-63.7	-84.3	296	12	
2025-08-07T12:00	15850	114	-63.7	-84.5	297	11	
2025-08-07T12:00	15900	113	-63.3	-84.4	292	11	
2025-08-07T12:00	15950	112	-63.1	-84.5	282	10	
2025-08-07T12:00	16000	111	-63.2	-84.5	272	10	
2025-08-07T12:00	16050	110	-63.3	-84.6	262	10	
2025-08-07T12:00	16100	110	-63.4	-84.6	254	10	
2025-08-07T12:00	16150	109	-63.2	-84.7	250	11	
2025-08-07T12:00	16200	108	-62.9	-84.7	250	12	
2025-08-07T12:00	16250	107	-63.2	-84.8	255	13	
2025-08-07T12:00	16300	106	-63.5	-84.9	261	14	
2025-08-07T12:00	16350	105	-63.8	-85.1	268	14	
2025-08-07T12:00	16400	104	-63.8	-85.3	277	14	
2025-08-07T12:00	16450	103	-63.4	-85.4	286	14	
2025-08-07T12:00	16500	103	-63.1	-85.5	293	13	
2025-08-07T12:00	16550	102	-62.9	-85.5	299	12	
2025-08-07T12:00	16600	101	-62.9	-85.6	304	12	
2025-08-07T12:00	16650	100	-63.1	-85.6	306	11	
2025-08-07T12:00	16700	99	-63.2	-85.6	305	9	
2025-08-07T12:00	16750	99	-63.3	-85.7	301	7	
2025-08-07T12:00	16800	98	-63.3	-85.8	292	6	
2025-08-07T12:00	16850	97	-63.2	-85.9	278	6	
2025-08-07T12:00	16900	96	-62.9	-86.0	274	8	
2025-08-07T12:00	16950	95	-62.7	-86.0	275	9	
2025-08-07T12:00	17000	95	-62.8	-86.2	273	8	
2025-08-07T12:00	17050	94	-62.1	-86.0	265	8	
2025-08-07T12:00	17100	93	-61.9	-86.0	259	9	
2025-08-07T12:00	17150	92	-61.8	-85.9	263	9	
2025-08-07T12:00	17200	92	-62.0	-86.0	272	9	
2025-08-07T12:00	17250	91	-62.0	-86.0	281	8	
2025-08-07T12:00	17300	90	-61.8	-86.0	286	7	
2025-08-07T12:00	17350	89	-61.3	-85.9	279	6	
2025-08-07T12:00	17400	89	-60.9	-85.9	266	7	
2025-08-07T12:00	17450	88	-60.7	-85.8	258	8	
2025-08-07T12:00	17500	87	-60.4	-85.7	257	8	
2025-08-07T12:00	17550	87	-60.3	-85.8	259	8	
2025-08-07T12:00	17600	86	-60.1	-85.7	259	8	
2025-08-07T12:00	17650	85	-60.0	-85.6	261	8	
2025-08-07T12:00	17700	85	-59.8	-85.6	261	8	
2025-08-07T12:00	17750	84	-59.7	-85.6	254	7	
2025-08-07T12:00	17800	83	-59.6	-85.5	243	8	
2025-08-07T12:00	17850	83	-59.7	-85.5	236	8	
2025-08-07T12:00	17900	82	-60.1	-85.5	237	8	
2025-08-07T12:00	17950	81	-60.2	-85.6	246	8	
2025-08-07T12:00	18000	81	-60.4	-85.7	255	8	
2025-08-07T12:00	18050	80	-60.6	-85.8	261	8	
2025-08-07T12:00	18100	79	-60.6	-85.9	267	7	
2025-08-07T12:00	18150	79	-60.4	-86.0	272	5	
2025-08-07T12:00	18200	78	-60.0	-86.1	268	4	
2025-08-07T12:00	18250	77	-59.2	-85.8	252	4	
2025-08-07T12:00	18300	77	-59.2	-85.7	241	5	
2025-08-07T12:00	18350	76	-59.4	-85.7	237	5	
2025-08-07T12:00	18400	76	-59.2	-85.6	238	6	
2025-08-07T12:00	18450	75	-59.2	-85.6	241	7	
2025-08-07T12:00	18500	74	-59.5	-85.6	245	8	
2025-08-07T12:00	18550	74	-59.8	-85.8	247	7	
2025-08-07T12:00	18600	73	-59.5	-85.9	244	6	
2025-08-07T12:00	18650	73	-58.9	-85.9	231	5	
2025-08-07T12:00	18700	72	-58.5	-85.7	222	6	
2025-08-07T12:00	18750	71	-58.5	-85.6	225	6	
2025-08-07T12:00	18800	71	-58.5	-85.5	235	6	
2025-08-07T12:00	18850	70	-58.4	-85.5	248	6	
2025-08-07T12:00	18900	70	-58.4	-85.5	256	6	
2025-08-07T12:00	18950	69	-58.2	-85.5	258	5	
2025-08-07T12:00	19000	69	-58.0	-85.6	247	4	
2025-08-07T12:00	19050	68	-57.4	-85.4	225	4	
2025-08-07T12:00	19100	68	-57.1	-85.3	214	4	
2025-08-07T12:00	19150	67	-56.9	-85.1	224	4	
2025-08-07T12:00	19200	67	-56.7	-85.0	243	4	
2025-08-07T12:00	19250	66	-56.8	-85.0	256	4	
2025-08-07T12:00	19300	65	-56.7	-85.0	255	3	
2025-08-07T12:00	19350	65	-56.6	-85.0	235	4	
2025-08-07T12:00	19400	64	-56.4	-84.9	220	5	
2025-08-07T12:00	19450	64	-56.4	-84.9	217	6	
2025-08-07T12:00	19500	63	-56.3	-84.8	220	6	
2025-08-07T12:00	19550	63	-56.5	-84.8	224	6	
2025-08-07T12:00	19600	62	-56.6	-84.8	226	6	
2025-08-07T12:00	19650	62	-56.7	-84.8	228	6	
2025-08-07T12:00	19700	61	-56.7	-84.9	232	6	
2025-08-07T12:00	19750	61	-56.8	-85.0	241	5	
2025-08-07T12:00	19800	61	-56.6	-85.0	251	5	
2025-08-07T12:00	19850	60	-56.4	-85.0	260	4	
2025-08-07T12:00	19900	60	-56.3	-84.9	269	4	
2025-08-07T12:00	19950	59	-56.2	-84.9	279	3	
2025-08-07T12:00	20000	59	-56.0	-84.9	282	3	
2025-08-07T12:00	20050	58	-55.6		269	2	
2025-08-07T12:00	20100	58	-55.7		255	3	
2025-08-07T12:00	20150	57	-55.9		251	3	
2025-08-07T12:00	20200	57	-56.0		257	3	
2025-08-07T12:00	20250	56	-55.9		278	3	
2025-08-07T12:00	20300	56	-55.6		308	3	
2025-08-07T12:00	20350	56	-55.2		328	2	
2025-08-07T12:00	20400	55	-54.9		357	2	
2025-08-07T12:00	20450	55	-55.1		42	1	
2025-08-07T12:00	20500	54	-55.2		72	1	
2025-08-07T12:00	20550	54	-55.1		93	2	
2025-08-07T12:00	20600	53	-55.1		107	2	
2025-08-07T12:00	20650	53	-55.2		114	2	
2025-08-07T12:00	20700	53	-55.4		117	2	
2025-08-07T12:00	20750	52	-55.4		100	1	
2025-08-07T12:00	20800	52	-55.2		75	1	
2025-08-07T12:00	20850	51	-55.1		86	2	
2025-08-07T12:00	20900	51	-55.1		103	3	
2025-08-07T12:00	20950	51	-55.1		115	3	
2025-08-07T12:00	21000	50	-55.2		126	3	
2025-08-07T12:00	21050	50	-55.3		138	3	
2025-08-07T12:00	21100	49	-55.4		153	3	
2025-08-07T12:00	21150	49	-55.8		168	4	
2025-08-07T12:00	21200	49	-56.1		180	4	
2025-08-07T12:00	21250	48	-56.3		191	4	
2025-08-07T12:00	21300	48	-56.1		203	4	
2025-08-07T12:00	21350	47	-55.8		214	3	
2025-08-07T12:00	21400	47	-55.6		211	2	
2025-08-07T12:00	21450	47	-55.1		132	1	
2025-08-07T12:00	21500	46	-54.9		86	2	
2025-08-07T12:00	21550	46	-54.7		75	3	
2025-08-07T12:00	21600	46	-54.5		75	3	
2025-08-07T12:00	21650	45	-54.5		92	2	
2025-08-07T12:00	21700	45	-54.9		125	3	
2025-08-07T12:00	21750	45	-55.1		143	4	
2025-08-07T12:00	21800	44	-55.2		153	4	
2025-08-07T12:00	21850	44	-54.8		165	3	
2025-08-07T12:00	21900	44	-54.8		180	2	
2025-08-07T12:00	21950	43	-54.9		200	1	
2025-08-07T12:00	22000	43	-54.9		241	0	
2025-08-07T12:00	22050	43	-54.7		20	1	
2025-08-07T12:00	22100	42	-54.6		45	2	
2025-08-07T12:00	22150	42	-54.6		59	3	
2025-08-07T12:00	22200	42	-54.7		67	4	
2025-08-07T12:00	22250	41	-54.8		72	5	
2025-08-07T12:00	22300	41	-54.8		75	6	
2025-08-07T12:00	22350	41	-54.8		75	7	
2025-08-07T12:00	22400	40	-54.9		75	8	
2025-08-07T12:00	22450	40	-55.1		78	9	
2025-08-07T12:00	22500	40	-55.2		83	10	
2025-08-07T12:00	22550	39	-55.3		91	10	
2025-08-07T12:00	22600	39	-55.4		98	9	
2025-08-07T12:00	22650	39	-55.4		103	8	
2025-08-07T12:00	22700	38	-55.5		111	6	
2025-08-07T12:00	22750	38	-55.5		123	5	
2025-08-07T12:00	22800	38	-55.3		130	5	
2025-08-07T12:00	22850	38	-55.3		124	4	
2025-08-07T12:00	22900	37	-54.9		110	4	
2025-08-07T12:00	22950	37	-54.7		104	4	
2025-08-07T12:00	23000	37	-54.4		110	5	
2025-08-07T12:00	23050	36	-54.3		120	4	
2025-08-07T12:00	23100	36	-54.4		129	4	
2025-08-07T12:00	23150	36	-54.3		129	4	
2025-08-07T12:00	23200	36	-54.1		119	4	
2025-08-07T12:00	23250	35	-54.0		106	4	
2025-08-07T12:00	23300	35	-53.8		101	5	
2025-08-07T12:00	23350	35	-53.7		103	6	
2025-08-07T12:00	23400	34	-53.8		106	7	
2025-08-07T12:00	23450	34	-53.8		108	6	
2025-08-07T12:00	23500	34	-53.8		109	6	
2025-08-07T12:00	23550	34	-53.8		110	5	
2025-08-07T12:00	23600	33	-53.7		110	6	
2025-08-07T12:00	23650	33	-53.6		112	7	
2025-08-07T12:00	23700	33	-53.6		117	8	
2025-08-07T12:00	23750	33	-53.7		122	9	
2025-08-07T12:00	23800	32	-53.7		127	8	
2025-08-07T12:00	23850	32	-53.5		132	7	
2025-08-07T12:00	23900	32	-53.5		135	6	
2025-08-07T12:00	23950	32	-53.8		132	5	
2025-08-07T12:00	24000	31	-53.9		119	5	
2025-08-07T12:00	24050	31	-53.7		105	6	
2025-08-07T12:00	24100	31	-53.3		96	6	
2025-08-07T12:00	24150	31	-52.8		89	6	
2025-08-07T12:00	24200	30	-52.5		85	6	
2025-08-07T12:00	24250	30	-52.1		86	7	
2025-08-07T12:00	24300	30	-52.1		89	8	
2025-08-07T12:00	24350	30	-51.9		93	9	
2025-08-07T12:00	24400	29	-51.5		95	9	
2025-08-07T12:00	24450	29	-51.2		98	9	
2025-08-07T12:00	24500	29	-51.1		103	8	
2025-08-07T12:00	24550	29	-51.1		108	7	
2025-08-07T12:00	24600	29	-51.1		113	7	
2025-08-07T12:00	24650	28	-50.8		118	6	
2025-08-07T12:00	24700	28	-50.5		124	6	
2025-08-07T12:00	24750	28	-50.4		128	6	
2025-08-07T12:00	24800	28	-50.4		129	6	
2025-08-07T12:00	24850	28	-49.9		123	5	
2025-08-07T12:00	24900	27	-49.7		113	4	
2025-08-07T12:00	24950	27	-49.6		97	4	
2025-08-07T12:00	25000	27	-49.2		77	3	
2025-08-07T12:00	25050	27	-49.0		58	4	
2025-08-07T12:00	25100	26	-48.8		51	4	
2025-08-07T12:00	25150	26	-48.6		55	5	
2025-08-07T12:00	25200	26	-48.7		62	7	
2025-08-07T12:00	25250	26	-48.8		69	8	
2025-08-07T12:00	25300	26	-49.0		75	9	
2025-08-07T12:00	25350	25	-49.1		80	10	
2025-08-07T12:00	25400	25	-49.0		83	10	
2025-08-07T12:00	25450	25	-48.9		85	10	
2025-08-07T12:00	25500	25	-48.7		85	11	
2025-08-07T12:00	25550	25	-48.7		85	11	
2025-08-07T12:00	25600	25	-48.6		86	10	
2025-08-07T12:00	25650	24	-48.5		88	10	
2025-08-07T12:00	25700	24	-48.5		91	9	
2025-08-07T12:00	25750	24	-48.5		92	8	
2025-08-07T12:00	25800	24	-48.4		93	7	
2025-08-07T12:00	25850	24	-48.3		95	7	
2025-08-07T12:00	25900	23	-48.0		97	7	
2025-08-07T12:00	25950	23	-48.0		99	8	
2025-08-07T12:00	26000	23	-48.1		101	9	
2025-08-07T12:00	26050	23	-48.3		102	9	
2025-08-07T12:00	26100	23	-48.3		103	9	
2025-08-07T12:00	26150	23	-48.0		101	8	
2025-08-07T12:00	26200	22	-47.9		99	8	
2025-08-07T12:00	26250	22	-47.6		97	9	
2025-08-07T12:00	26300	22	-47.5		97	10	
2025-08-07T12:00	26350	22	-47.5		97	11	
2025-08-07T12:00	26400	22	-47.5		99	12	
2025-08-07T12:00	26450	22	-47.5		102	13	
2025-08-07T12:00	26500	21	-47.4		105	14	
2025-08-07T12:00	26550	21	-47.6		109	15	
2025-08-07T12:00	26600	21	-47.6		111	15	
2025-08-07T12:00	26650	21	-47.5		112	13	
2025-08-07T12:00	26700	21	-47.3		113	11	
2025-08-07T12:00	26750	21	-47.2		113	9	
2025-08-07T12:00	26800	20	-47.1		114	8	
2025-08-07T12:00	26850	20	-47.2		111	6	
2025-08-07T12:00	26900	20	-47.2		102	5	
2025-08-07T12:00	26950	20	-47.0		86	5	
2025-08-07T12:00	27000	20	-46.5		75	6	
2025-08-07T12:00	27050	20	-46.2		75	7	
2025-08-07T12:00	27100	20	-46.0		81	8	
2025-08-07T12:00	27150	19	-45.9		88	10	
2025-08-07T12:00	27200	19	-46.1		95	11	
2025-08-07T12:00	27250	19	-46.2		101	12	
2025-08-07T12:00	27300	19	-46.4		106	12	
2025-08-07T12:00	27350	19	-46.7		110	13	
2025-08-07T12:00	27400	19	-46.9		114	13	
2025-08-07T12:00	27450	19	-46.9		117	13	
2025-08-07T12:00	27500	18	-46.8		118	13	
2025-08-07T12:00	27550	18	-46.9		119	13	
2025-08-07T12:00	27600	18	-46.8		120	12	
2025-08-07T12:00	27650	18	-46.7		120	11	
2025-08-07T12:00	27700	18	-46.6		117	10	
2025-08-07T12:00	27750	18	-46.6		115	9	
2025-08-07T12:00	27800	18	-46.5		116	10	
2025-08-07T12:00	27850	17	-46.4		120	11	
2025-08-07T12:00	27900	17	-46.4		126	12	
2025-08-07T12:00	27950	17	-46.3		131	13	
2025-08-07T12:00	28000	17	-46.3		135	13	
2025-08-07T12:00	28050	17	-45.9		136	12	
2025-08-07T12:00	28100	17	-45.4		135	10	
2025-08-07T12:00	28150	17	-45.2		132	8	
2025-08-07T12:00	28200	17	-45.2		124	7	
2025-08-07T12:00	28250	16	-45.1		104	5	
2025-08-07T12:00	28300	16	-44.8		81	6	
2025-08-07T12:00	28350	16	-44.4		72	8	
2025-08-07T12:00	28400	16	-43.9		74	9	
2025-08-07T12:00	28450	16	-43.6		80	11	
2025-08-07T12:00	28500	16	-43.4		86	11	
2025-08-07T12:00	28550	16	-43.3		91	11	
2025-08-07T12:00	28600	16	-43.3		96	11	
2025-08-07T12:00	28650	15	-43.4		101	10	
2025-08-07T12:00	28700	15	-43.4		106	10	
2025-08-07T12:00	28750	15	-43.6		108	10	
2025-08-07T12:00	28800	15	-43.6		110	10	
2025-08-07T12:00	28850	15	-43.7		108	9	
2025-08-07T12:00	28900	15	-43.8		101	9	
2025-08-07T12:00	28950	15	-43.8		91	9	
2025-08-07T12:00	29000	15	-43.7		83	10	
2025-08-07T12:00	29050	15	-43.8		78	10	
2025-08-07T12:00	29100	14	-43.9		77	11	
2025-08-07T12:00	29150	14	-43.9		79	11	
2025-08-07T12:00	29200	14	-43.8		83	11	
2025-08-07T12:00	29250	14	-43.7		90	11	
2025-08-07T12:00	29300	14	-43.5		97	11	
2025-08-07T12:00	29350	14	-43.5		100	11	
2025-08-07T12:00	29400	14	-43.5		97	10	
2025-08-07T12:00	29450	14	-43.2		91	11	
2025-08-07T12:00	29500	14	-43.0		85	11	
2025-08-07T12:00	29550	14	-42.9		82	13	
2025-08-07T12:00	29600	13	-42.8		83	14	
2025-08-07T12:00	29650	13	-42.7		88	15	
2025-08-07T12:00	29700	13	-42.5		94	17	
2025-08-07T12:00	29750	13	-42.1		99	18	
2025-08-07T12:00	29800	13	-42.0		103	18	
2025-08-07T12:00	29850	13	-42.1		107	18	
2025-08-07T12:00	29900	13	-42.3		110	17	
2025-08-07T12:00	29950	13	-42.5		113	17	
2025-08-07T12:00	30000	13	-42.6		114	15	
2025-08-07T12:00	30050	13	-42.4		114	14	
2025-08-07T12:00	30100	12	-42.2		114	13	
2025-08-07T12:00	30150	12	-42.1		113	12	
2025-08-07T12:00	30200	12	-42.2		113	11	
2025-08-07T12:00	30250	12	-42.3		113	10	
2025-08-07T12:00	30300	12	-42.4		117	9	
2025-08-07T12:00	30350	12	-42.6		123	8	
2025-08-07T12:00	30400	12	-42.8		129	7	
2025-08-07T12:00	30450	12	-42.8		130	7	
2025-08-07T12:00	30500	12	-42.6		126	7	
2025-08-07T12:00	30550	12	-42.2		119	6	
2025-08-07T12:00	30600	12	-42.0		112	6	
2025-08-07T12:00	30650	12	-41.8		105	6	
2025-08-07T12:00	30700	11	-41.7		99	7	
2025-08-07T12:00	30750	11	-41.8		94	8	
2025-08-07T12:00	30800	11	-41.9		91	9	
2025-08-07T12:00	30850	11	-41.9		91	10	
2025-08-07T12:00	30900	11	-41.9		96	10	
2025-08-07T12:00	30950	11	-41.7		103	10	
2025-08-07T12:00	31000	11	-41.5		108	9	
2025-08-07T12:00	31050	11	-41.6		112	8	
2025-08-07T12:00	31100	11	-41.9		114	7	
2025-08-07T12:00	31150	11	-42.2		116	5	
2025-08-07T12:00	31200	11	-42.3		114	4	
2025-08-07T12:00	31250	11	-42.4		105	4	
2025-08-07T12:00	31300	10	-42.3		92	4	
2025-08-07T12:00	31350	10	-42.4		81	5	
2025-08-07T12:00	31400	10	-42.5		75	7	
2025-08-07T12:00	31450	10	-42.3		73	8	
2025-08-07T12:00	31500	10	-42.2		72	9	
2025-08-07T12:00	31550	10	-41.9		71	9	
2025-08-07T12:00	31600	10	-41.6		70	10	
2025-08-07T12:00	31650	10	-41.4		70	10	
2025-08-07T12:00	31700	10	-41.2		74	12	
2025-08-07T12:00	31750	10	-40.9		80	13	
2025-08-07T12:00	31800	10	-40.5		87	13	
2025-08-07T12:00	31850	10	-40.2		91	12	
2025-08-07T12:00	31900	10	-40.0		92	10	
2025-08-07T12:00	31950	10	-39.9		90	9	
2025-08-07T12:00	32000	9	-40.0		89	9	
2025-08-07T12:00	32050	9	-40.1		92	10	
2025-08-07T12:00	32100	9	-40.0		98	11	
2025-08-07T12:00	32150	9	-39.6		104	13	
2025-08-07T12:00	32200	9	-39.3		112	13	
2025-08-07T12:00	32250	9	-39.2		118	14	
2025-08-07T12:00	32300	9	-39.1		124	14	
2025-08-07T12:00	32350	9	-39.1		128	13	
2025-08-07T12:00	32400	9	-39.1		129	12	
2025-08-07T12:00	32450	9	-39.0		125	11	
2025-08-07T12:00	32500	9	-38.9		119	11	
2025-08-07T12:00	32550	9	-38.7		110	11	
2025-08-07T12:00	32600	9	-38.3		104	11	
2025-08-07T12:00	32650	9	-38.1		100	11	
2025-08-07T12:00	32700	9	-38.0		98	11	
2025-08-07T12:00	32750	8	-38.0		98	12	
2025-08-07T12:00	32800	8	-38.0		100	12	
2025-08-07T12:00	32850	8	-38.1		102	13	
2025-08-07T12:00	32900	8	-38.1		104	13	
2025-08-07T12:00	32950	8	-38.2		105	13	
2025-08-07T12:00	33000	8	-38.2		107	13	
2025-08-07T12:00	33050	8	-38.1		108	13	
2025-08-07T12:00	33100	8	-37.8		109	13	
2025-08-07T12:00	33150	8	-37.5		109	12	
2025-08-07T12:00	33200	8	-37.3		109	12	
2025-08-07T12:00	33250	8	-37.1		110	12	
2025-08-07T12:00	33300	8	-36.9		109	12	
2025-08-07T12:00	33350	8	-36.6		105	12	
2025-08-07T12:00	33400	8	-36.3		100	13	
2025-08-07T12:00	33450	8	-36.1		94	13	
2025-08-07T12:00	33500	8	-36.0		87	14	
2025-08-07T12:00	33550	8	-35.9		82	15	
2025-08-07T12:00	33600	7	-35.8		78	17	
2025-08-07T12:00	33650	7	-35.6		77	18	
2025-08-07T12:00	33700	7	-35.4		78	19	
2025-08-07T12:00	33750	7	-35.5		80	20	
2025-08-07T12:00	33800	7	-35.6		84	20	
2025-08-07T12:00	33850	7	-35.7		88	20	
2025-08-07T12:00	33900	7	-35.7		94	19	
2025-08-07T12:00	33950	7	-35.6		99	19	
2025-08-07T12:00	34000	7	-35.6		104	18	
2025-08-07T12:00	34050	7	-35.7		108	17	
2025-08-07T12:00	34100	7	-35.6		109	17	
2025-08-07T12:00	34150	7	-35.5		108	17	
2025-08-07T12:00	34200	7	-35.4		104	17	
2025-08-07T12:00	34250	7	-35.3		101	18	
2025-08-07T12:00	34300	7	-35.2		98	19	
2025-08-07T12:00	34350	7	-35.3		97	20	
2025-08-07T12:00	34400	7	-35.3		98	20	
2025-08-07T12:00	34450	7	-35.3		100	20	
2025-08-07T12:00	34500	7	-35.3		102	19	
2025-08-07T12:00	34550	7	-35.2		105	18	
2025-08-07T12:00	34600	6	-35.2		108	17	
2025-08-07T12:00	34650	6	-35.2		112	16	
2025-08-07T12:00	34700	6	-35.4		114	15	
2025-08-07T12:00	34750	6	-35.6		113	14	
2025-08-07T12:00	34800	6	-35.5		110	15	
2025-08-07T12:00	34850	6	-35.2		106	16	
2025-08-07T12:00	34900	6	-34.9		104	17	
2025-08-07T12:00	34950	6	-34.7		105	17	
2025-08-07T12:00	35000	6	-34.5		107	17	
2025-08-07T12:00	35050	6	-34.4		110	17	
2025-08-07T12:00	35100	6	-34.3		112	16	
2025-08-07T12:00	35150	6	-34.1		113	15	
2025-08-07T12:00	35200	6	-34.2		111	14	
2025-08-07T12:00	35250	6	-34.3		109	15	
2025-08-07T12:00	35300	6	-34.2		107	16	
2025-08-07T12:00	35350	6	-34.0		107	18	
2025-08-07T12:00	35400	6	-33.8		108	20	
2025-08-07T12:00	35450	6	-33.6		110	22	
2025-08-07T12:00	35500	6	-33.6		111	22	
2025-08-07T12:00	35550	6	-33.2		113	22	
2025-08-07T12:00	35600	6	-32.9		113	21	
2025-08-08T00:00	491	963	16.8	10.9	120	0	
2025-08-08T00:00	520	960	19.3	10.5	184	1	
2025-08-08T00:00	540	958	19.9	10.2	187	2	
2025-08-08T00:00	560	955	20.4	10.0	189	2	
2025-08-08T00:00	580	953	22.0	9.4	192	2	
2025-08-08T00:00	600	951	22.8	9.2	196	2	
2025-08-08T00:00	620	949	22.7	9.2	206	1	
2025-08-08T00:00	640	946	22.8	9.1	245	0	
2025-08-08T00:00	660	944	22.8	9.1	327	1	
2025-08-08T00:00	680	942	22.6	9.0	346	1	
2025-08-08T00:00	700	940	22.7	9.0	354	2	
2025-08-08T00:00	720	938	23.4	9.3	358	2	
2025-08-08T00:00	740	936	23.3	9.1	359	2	
2025-08-08T00:00	760	933	23.2	8.8	354	1	
2025-08-08T00:00	780	931	23.0	8.8	338	1	
2025-08-08T00:00	800	929	22.9	8.5	300	1	
2025-08-08T00:00	820	927	22.9	7.4	270	1	
2025-08-08T00:00	840	925	22.9	6.5	256	2	
2025-08-08T00:00	860	923	23.2	5.7	249	2	
2025-08-08T00:00	880	921	23.1	5.6	245	3	
2025-08-08T00:00	900	919	23.1	5.5	242	3	
2025-08-08T00:00	920	917	23.1	5.6	237	3	
2025-08-08T00:00	940	915	23.0	5.9	233	3	
2025-08-08T00:00	960	912	23.0	6.6	231	4	
2025-08-08T00:00	980	910	22.9	6.6	231	5	
2025-08-08T00:00	1000	908	23.0	5.9	233	5	
2025-08-08T00:00	1020	906	22.9	5.4	236	6	
2025-08-08T00:00	1040	904	22.9	4.6	238	6	
2025-08-08T00:00	1060	902	22.8	4.7	239	6	
2025-08-08T00:00	1080	900	22.7	5.2	239	5	
2025-08-08T00:00	1100	898	22.5	5.2	236	5	
2025-08-08T00:00	1120	896	22.3	5.1	233	5	
2025-08-08T00:00	1140	894	22.1	5.5	229	5	
2025-08-08T00:00	1160	891	21.8	6.6	226	5	
2025-08-08T00:00	1180	889	21.6	6.9	224	5	
2025-08-08T00:00	1200	887	21.4	6.9	223	5	
2025-08-08T00:00	1220	885	21.3	6.9	223	5	
2025-08-08T00:00	1240	883	21.2	6.9	224	5	
2025-08-08T00:00	1260	881	21.1	6.7	226	5	
2025-08-08T00:00	1280	879	20.9	6.6	228	5	
2025-08-08T00:00	1300	877	20.7	6.5	230	5	
2025-08-08T00:00	1320	875	20.6	6.2	232	5	
2025-08-08T00:00	1340	873	20.4	6.0	233	5	
2025-08-08T00:00	1360	871	20.3	5.5	234	5	
2025-08-08T00:00	1380	869	20.2	4.2	235	6	
2025-08-08T00:00	1400	867	20.1	3.5	235	6	
2025-08-08T00:00	1420	865	19.9	3.1	236	7	
2025-08-08T00:00	1440	863	19.9	2.3	237	7	
2025-08-08T00:00	1460	861	19.7	1.9	238	8	
2025-08-08T00:00	1480	859	19.6	1.1	238	8	
2025-08-08T00:00	1500	857	19.7	-0.7	238	9	
2025-08-08T00:00	1520	855	19.6	-1.1	237	9	
2025-08-08T00:00	1540	853	19.4	0.2	237	9	
2025-08-08T00:00	1560	851	19.2	1.1	236	10	
2025-08-08T00:00	1580	849	18.9	2.8	236	10	
2025-08-08T00:00	1600	847	18.7	3.9	237	10	
2025-08-08T00:00	1620	845	18.5	4.1	238	10	
2025-08-08T00:00	1640	843	18.3	4.1	240	10	
2025-08-08T00:00	1660	841	18.1	3.8	241	10	
2025-08-08T00:00	1680	839	18.0	2.9	243	10	
2025-08-08T00:00	1700	837	17.9	1.5	244	10	
2025-08-08T00:00	1720	835	17.9	-0.3	244	10	
2025-08-08T00:00	1740	834	17.8	-0.7	244	10	
2025-08-08T00:00	1760	832	17.7	-1.6	243	10	
2025-08-08T00:00	1780	830	17.7	-2.0	242	10	
2025-08-08T00:00	1800	828	17.5	-1.6	241	10	
2025-08-08T00:00	1820	826	17.3	-1.6	241	10	
2025-08-08T00:00	1840	824	17.1	-1.6	240	10	
2025-08-08T00:00	1860	822	17.0	-1.6	239	10	
2025-08-08T00:00	1880	820	16.8	-1.9	239	9	
2025-08-08T00:00	1900	818	16.6	-2.4	237	9	
2025-08-08T00:00	1920	816	16.5	-2.8	236	9	
2025-08-08T00:00	1940	814	16.3	-3.2	235	9	
2025-08-08T00:00	1960	812	16.1	-3.9	234	9	
2025-08-08T00:00	1980	810	16.0	-4.2	234	9	
2025-08-08T00:00	2000	808	15.9	-4.6	234	9	
2025-08-08T00:00	2020	807	15.7	-4.9	235	9	
2025-08-08T00:00	2040	805	15.6	-5.5	238	9	
2025-08-08T00:00	2060	803	15.4	-5.8	242	9	
2025-08-08T00:00	2080	801	15.2	-6.0	244	10	
2025-08-08T00:00	2100	799	15.1	-6.8	247	10	
2025-08-08T00:00	2120	797	15.0	-8.2	248	10	
2025-08-08T00:00	2140	795	15.0	-8.8	250	10	
2025-08-08T00:00	2160	793	14.8	-8.3	253	10	
2025-08-08T00:00	2180	792	14.7	-8.3	255	9	
2025-08-08T00:00	2200	790	14.5	-8.6	259	9	
2025-08-08T00:00	2220	788	14.4	-8.8	261	9	
2025-08-08T00:00	2240	786	14.2	-9.6	261	9	
2025-08-08T00:00	2260	784	14.3	-12.5	260	9	
2025-08-08T00:00	2280	782	14.2	-13.7	258	10	
2025-08-08T00:00	2300	780	14.2	-15.8	255	10	
2025-08-08T00:00	2320	778	14.1	-16.9	253	11	
2025-08-08T00:00	2340	777	13.9	-17.6	252	11	
2025-08-08T00:00	2360	775	13.9	-19.1	251	11	
2025-08-08T00:00	2380	773	13.8	-20.6	251	11	
2025-08-08T00:00	2400	771	13.8	-21.1	251	11	
2025-08-08T00:00	2420	769	13.8	-19.8	252	11	
2025-08-08T00:00	2440	767	13.8	-17.9	253	11	
2025-08-08T00:00	2460	765	13.9	-15.3	254	11	
2025-08-08T00:00	2480	764	13.8	-15.0	255	11	
2025-08-08T00:00	2500	762	13.8	-15.4	255	11	
2025-08-08T00:00	2520	760	13.7	-15.7	255	11	
2025-08-08T00:00	2540	758	13.5	-15.8	256	11	
2025-08-08T00:00	2560	756	13.3	-15.9	257	11	
2025-08-08T00:00	2580	755	13.2	-16.1	257	11	
2025-08-08T00:00	2600	753	13.0	-16.4	257	11	
2025-08-08T00:00	2620	751	13.0	-16.5	256	11	
2025-08-08T00:00	2640	749	12.9	-16.6	254	11	
2025-08-08T00:00	2660	747	12.9	-17.1	252	11	
2025-08-08T00:00	2680	746	12.8	-17.2	250	11	
2025-08-08T00:00	2700	744	12.7	-17.7	249	11	
2025-08-08T00:00	2720	742	12.6	-17.9	249	11	
2025-08-08T00:00	2740	740	12.5	-18.1	250	12	
2025-08-08T00:00	2760	739	12.4	-18.2	251	12	
2025-08-08T00:00	2780	737	12.2	-18.3	253	12	
2025-08-08T00:00	2800	735	12.0	-18.4	254	11	
2025-08-08T00:00	2820	733	11.9	-18.5	256	11	
2025-08-08T00:00	2840	732	11.7	-18.7	257	11	
2025-08-08T00:00	2860	730	11.6	-19.0	258	11	
2025-08-08T00:00	2880	728	11.6	-19.8	259	11	
2025-08-08T00:00	2900	726	11.5	-20.6	259	10	
2025-08-08T00:00	2920	725	11.4	-21.5	259	10	
2025-08-08T00:00	2940	723	11.3	-22.4	258	10	
2025-08-08T00:00	2960	721	11.2	-23.4	258	10	
2025-08-08T00:00	2980	719	11.1	-24.1	258	10	
2025-08-08T00:00	3000	718	11.0	-25.3	258	9	
2025-08-08T00:00	3020	716	10.9	-30.4	260	9	
2025-08-08T00:00	3040	714	10.9	-32.2	262	9	
2025-08-08T00:00	3060	713	10.8	-32.5	265	9	
2025-08-08T00:00	3080	711	10.7	-32.6	269	9	
2025-08-08T00:00	3100	709	10.6	-32.6	271	9	
2025-08-08T00:00	3120	707	10.4	-32.6	271	9	
2025-08-08T00:00	3140	706	10.3	-32.6	271	9	
2025-08-08T00:00	3160	704	10.2	-33.1	271	10	
2025-08-08T00:00	3180	702	10.1	-33.5	271	10	
2025-08-08T00:00	3200	701	10.1	-32.5	270	9	
2025-08-08T00:00	3220	699	10.2	-25.1	269	9	
2025-08-08T00:00	3240	697	10.3	-16.2	269	9	
2025-08-08T00:00	3260	696	10.3	-8.8	268	8	
2025-08-08T00:00	3280	694	10.2	-6.0	266	8	
2025-08-08T00:00	3300	692	10.0	-4.8	264	7	
2025-08-08T00:00	3320	690	9.7	-3.9	263	7	
2025-08-08T00:00	3340	689	9.6	-3.3	262	7	
2025-08-08T00:00	3360	687	9.3	-3.0	262	7	
2025-08-08T00:00	3380	685	9.1	-1.4	264	7	
2025-08-08T00:00	3400	684	8.9	-0.8	266	7	
2025-08-08T00:00	3420	682	8.7	-0.7	267	6	
2025-08-08T00:00	3440	681	8.5	-0.4	266	6	
2025-08-08T00:00	3460	679	8.3	-0.1	264	6	
2025-08-08T00:00	3480	677	8.1	0.2	262	6	
2025-08-08T00:00	3500	676	7.9	0.0	261	5	
2025-08-08T00:00	3520	674	7.7	0.0	260	6	
2025-08-08T00:00	3540	672	7.6	0.0	261	6	
2025-08-08T00:00	3560	671	7.5	0.0	260	6	
2025-08-08T00:00	3580	669	7.3	-0.1	260	6	
2025-08-08T00:00	3600	668	7.1	-0.4	260	7	
2025-08-08T00:00	3620	666	7.0	-0.7	259	7	
2025-08-08T00:00	3640	664	6.9	-0.6	259	7	
2025-08-08T00:00	3660	663	6.7	-0.5	259	7	
2025-08-08T00:00	3680	661	6.6	-0.5	259	8	
2025-08-08T00:00	3700	660	6.5	-0.6	259	8	
2025-08-08T00:00	3720	658	6.3	-0.8	259	8	
2025-08-08T00:00	3740	656	6.2	-0.9	260	8	
2025-08-08T00:00	3760	655	6.1	-0.9	261	8	
2025-08-08T00:00	3780	653	6.0	-0.5	262	8	
2025-08-08T00:00	3800	651	5.9	-0.3	264	8	
2025-08-08T00:00	3820	650	5.7	-0.3	266	8	
2025-08-08T00:00	3840	648	5.5	-0.3	269	8	
2025-08-08T00:00	3860	647	5.3	-0.1	272	8	
2025-08-08T00:00	3880	645	5.1	-0.4	275	8	
2025-08-08T00:00	3900	644	5.1	-1.2	277	8	
2025-08-08T00:00	3920	642	5.0	-2.1	277	8	
2025-08-08T00:00	3940	640	4.8	-2.7	277	8	
2025-08-08T00:00	3960	639	4.7	-3.3	275	8	
2025-08-08T00:00	3980	637	4.5	-3.6	272	9	
2025-08-08T00:00	4000	636	4.4	-3.9	269	9	
2025-08-08T00:00	4020	634	4.3	-4.1	268	9	
2025-08-08T00:00	4040	633	4.2	-4.7	268	9	
2025-08-08T00:00	4060	631	4.1	-5.4	269	9	
2025-08-08T00:00	4080	630	3.9	-5.6	271	9	
2025-08-08T00:00	4100	628	3.7	-5.3	272	9	
2025-08-08T00:00	4120	626	3.5	-4.7	273	9	
2025-08-08T00:00	4140	625	3.4	-4.3	274	10	
2025-08-08T00:00	4160	623	3.2	-4.6	273	10	
2025-08-08T00:00	4180	622	3.1	-4.2	273	10	
2025-08-08T00:00	4200	620	3.0	-4.5	273	10	
2025-08-08T00:00	4220	619	2.8	-4.4	274	9	
2025-08-08T00:00	4240	617	2.7	-4.7	274	9	
2025-08-08T00:00	4260	616	2.6	-5.2	275	9	
2025-08-08T00:00	4280	614	2.5	-5.7	276	9	
2025-08-08T00:00	4300	613	2.4	-5.8	278	9	
2025-08-08T00:00	4320	611	2.3	-5.7	280	9	
2025-08-08T00:00	4340	610	2.2	-5.7	281	8	
2025-08-08T00:00	4360	608	2.0	-5.6	282	9	
2025-08-08T00:00	4380	607	1.8	-5.6	283	9	
2025-08-08T00:00	4400	605	1.7	-5.6	282	9	
2025-08-08T00:00	4420	604	1.5	-5.8	281	9	
2025-08-08T00:00	4440	602	1.4	-5.8	280	10	
2025-08-08T00:00	4460	600	1.2	-5.8	279	10	
2025-08-08T00:00	4480	599	1.1	-6.3	279	10	
2025-08-08T00:00	4500	598	1.0	-6.8	280	10	
2025-08-08T00:00	4520	596	0.9	-7.2	281	11	
2025-08-08T00:00	4540	595	0.8	-7.5	282	11	
2025-08-08T00:00	4560	593	0.7	-7.6	283	11	
2025-08-08T00:00	4580	592	0.6	-7.4	283	11	
2025-08-08T00:00	4600	590	0.4	-7.6	283	11	
2025-08-08T00:00	4620	589	0.3	-7.3	282	11	
2025-08-08T00:00	4640	587	0.2	-7.6	280	12	
2025-08-08T00:00	4660	586	0.1	-8.0	278	12	
2025-08-08T00:00	4680	584	-0.1	-8.1	276	12	
2025-08-08T00:00	4700	583	-0.2	-8.1	275	12	
2025-08-08T00:00	4720	582	-0.3	-8.8	273	12	
2025-08-08T00:00	4740	580	-0.5	-8.4	272	13	
2025-08-08T00:00	4760	578	-0.6	-8.2	271	13	
2025-08-08T00:00	4780	577	-0.6	-9.5	270	13	
2025-08-08T00:00	4800	576	-0.6	-9.7	269	13	
2025-08-08T00:00	4820	574	-0.8	-9.1	269	13	
2025-08-08T00:00	4840	573	-0.9	-8.6	269	13	
2025-08-08T00:00	4860	571	-1.1	-8.7	270	13	
2025-08-08T00:00	4880	570	-1.2	-8.9	271	13	
2025-08-08T00:00	4900	569	-1.4	-9.1	271	12	
2025-08-08T00:00	4920	567	-1.6	-9.1	272	12	
2025-08-08T00:00	4940	566	-1.8	-9.2	272	12	
2025-08-08T00:00	4960	564	-1.9	-9.1	272	12	
2025-08-08T00:00	4980	563	-2.1	-9.2	272	12	
2025-08-08T00:00	5000	561	-2.4	-9.3	272	12	
2025-08-08T00:00	5020	560	-2.5	-9.3	271	12	
2025-08-08T00:00	5040	559	-2.7	-9.3	271	12	
2025-08-08T00:00	5060	557	-2.9	-9.3	271	12	
2025-08-08T00:00	5080	556	-3.1	-9.4	270	13	
2025-08-08T00:00	5100	554	-3.3	-9.4	271	13	
2025-08-08T00:00	5120	553	-3.5	-9.4	271	13	
2025-08-08T00:00	5140	552	-3.7	-9.5	271	13	
2025-08-08T00:00	5160	550	-3.9	-9.8	272	14	
2025-08-08T00:00	5180	549	-4.1	-9.8	273	14	
2025-08-08T00:00	5200	547	-4.2	-10.7	274	14	
2025-08-08T00:00	5220	546	-4.1	-13.3	275	14	
2025-08-08T00:00	5240	545	-3.9	-16.7	276	14	
2025-08-08T00:00	5260	543	-3.9	-18.0	277	13	
2025-08-08T00:00	5280	542	-3.8	-21.5	277	13	
2025-08-08T00:00	5300	540	-3.8	-22.6	277	13	
2025-08-08T00:00	5320	539	-3.6	-24.9	277	13	
2025-08-08T00:00	5340	538	-3.7	-24.5	277	12	
2025-08-08T00:00	5360	536	-3.7	-25.2	277	12	
2025-08-08T00:00	5380	535	-3.8	-25.4	277	12	
2025-08-08T00:00	5400	534	-4.0	-25.5	276	12	
2025-08-08T00:00	5420	532	-4.1	-25.5	275	13	
2025-08-08T00:00	5440	531	-4.2	-25.9	275	13	
2025-08-08T00:00	5460	530	-4.3	-26.2	275	13	
2025-08-08T00:00	5480	528	-4.5	-26.2	275	14	
2025-08-08T00:00	5500	527	-4.6	-26.1	275	14	
2025-08-08T00:00	5520	526	-4.7	-26.8	276	14	
2025-08-08T00:00	5540	524	-4.8	-26.5	277	15	
2025-08-08T00:00	5560	523	-4.9	-26.6	278	15	
2025-08-08T00:00	5580	522	-5.0	-26.6	278	16	
2025-08-08T00:00	5600	520	-5.1	-26.4	278	16	
2025-08-08T00:00	5620	519	-5.1	-27.9	279	16	
2025-08-08T00:00	5640	518	-5.0	-30.6	279	16	
2025-08-08T00:00	5660	516	-5.0	-30.2	279	16	
2025-08-08T00:00	5680	515	-5.1	-30.0	279	16	
2025-08-08T00:00	5700	514	-5.2	-30.4	280	16	
2025-08-08T00:00	5720	512	-5.4	-30.2	281	16	
2025-08-08T00:00	5740	511	-5.6	-29.0	282	16	
2025-08-08T00:00	5760	510	-5.7	-30.7	284	16	
2025-08-08T00:00	5780	508	-5.6	-34.5	285	16	
2025-08-08T00:00	5800	507	-5.6	-35.7	286	16	
2025-08-08T00:00	5820	506	-5.7	-37.0	287	16	
2025-08-08T00:00	5840	505	-5.8	-37.8	287	16	
2025-08-08T00:00	5860	503	-5.9	-38.4	287	16	
2025-08-08T00:00	5880	502	-5.9	-39.2	286	16	
2025-08-08T00:00	5900	501	-5.9	-41.2	286	16	
2025-08-08T00:00	5920	500	-6.0	-42.6	286	16	
2025-08-08T00:00	5940	498	-5.9	-43.1	285	16	
2025-08-08T00:00	5960	497	-6.0	-42.5	285	16	
2025-08-08T00:00	5980	496	-6.0	-42.9	284	16	
2025-08-08T00:00	6000	494	-5.9	-43.7	284	15	
2025-08-08T00:00	6020	493	-5.9	-45.7	283	15	
2025-08-08T00:00	6040	492	-5.9	-45.0	283	15	
2025-08-08T00:00	6060	491	-6.1	-42.1	282	15	
2025-08-08T00:00	6080	489	-6.3	-40.4	281	15	
2025-08-08T00:00	6100	488	-6.4	-38.8	281	15	
2025-08-08T00:00	6120	487	-6.6	-37.7	280	15	
2025-08-08T00:00	6140	486	-6.7	-37.7	280	15	
2025-08-08T00:00	6160	484	-6.9	-37.8	279	15	
2025-08-08T00:00	6180	483	-7.0	-38.2	278	14	
2025-08-08T00:00	6200	482	-7.1	-38.6	277	14	
2025-08-08T00:00	6220	481	-7.2	-39.0	276	14	
2025-08-08T00:00	6240	480	-7.4	-39.4	275	14	
2025-08-08T00:00	6260	478	-7.6	-39.7	274	14	
2025-08-08T00:00	6280	477	-7.7	-40.1	274	15	
2025-08-08T00:00	6300	476	-7.9	-40.5	274	15	
2025-08-08T00:00	6320	475	-8.0	-40.8	275	15	
2025-08-08T00:00	6340	473	-8.1	-39.4	275	15	
2025-08-08T00:00	6360	472	-8.3	-38.7	275	15	
2025-08-08T00:00	6380	471	-8.4	-39.1	275	15	
2025-08-08T00:00	6400	470	-8.6	-39.1	274	15	
2025-08-08T00:00	6420	468	-8.8	-38.9	274	15	
2025-08-08T00:00	6440	467	-9.0	-38.6	273	15	
2025-08-08T00:00	6460	466	-9.1	-38.2	272	15	
2025-08-08T00:00	6480	465	-9.3	-38.1	272	15	
2025-08-08T00:00	6500	464	-9.4	-38.2	271	15	
2025-08-08T00:00	6520	462	-9.6	-38.3	271	15	
2025-08-08T00:00	6540	461	-9.7	-38.5	271	15	
2025-08-08T00:00	6560	460	-9.8	-38.7	272	15	
2025-08-08T00:00	6580	459	-9.8	-39.4	272	15	
2025-08-08T00:00	6600	458	-9.9	-39.7	273	15	
2025-08-08T00:00	6620	457	-10.0	-40.0	274	15	
2025-08-08T00:00	6640	455	-10.1	-40.1	274	15	
2025-08-08T00:00	6660	454	-10.3	-40.2	275	15	
2025-08-08T00:00	6680	453	-10.5	-40.5	275	15	
2025-08-08T00:00	6700	452	-10.6	-41.0	275	15	
2025-08-08T00:00	6720	450	-10.7	-41.2	275	15	
2025-08-08T00:00	6740	449	-10.8	-41.2	274	15	
2025-08-08T00:00	6760	448	-10.9	-41.1	274	15	
2025-08-08T00:00	6780	447	-11.1	-41.4	273	15	
2025-08-08T00:00	6800	446	-11.2	-41.8	273	15	
2025-08-08T00:00	6820	445	-11.3	-42.0	273	16	
2025-08-08T00:00	6840	444	-11.5	-40.5	274	16	
2025-08-08T00:00	6860	443	-11.6	-40.3	275	16	
2025-08-08T00:00	6880	441	-11.8	-40.1	276	16	
2025-08-08T00:00	6900	440	-11.9	-40.1	276	16	
2025-08-08T00:00	6920	439	-12.1	-40.2	277	16	
2025-08-08T00:00	6940	438	-12.3	-39.7	277	16	
2025-08-08T00:00	6960	437	-12.5	-39.7	277	16	
2025-08-08T00:00	6980	435	-12.6	-39.9	277	16	
2025-08-08T00:00	7000	434	-12.8	-40.2	276	16	
2025-08-08T00:00	7020	433	-13.0	-40.1	276	16	
2025-08-08T00:00	7040	432	-13.1	-40.5	275	16	
2025-08-08T00:00	7060	431	-13.3	-41.6	275	16	
2025-08-08T00:00	7080	430	-13.4	-41.7	275	16	
2025-08-08T00:00	7100	429	-13.6	-41.8	275	16	
2025-08-08T00:00	7120	428	-13.8	-41.8	275	16	
2025-08-08T00:00	7140	426	-13.9	-41.7	276	16	
2025-08-08T00:00	7160	425	-14.1	-41.5	276	16	
2025-08-08T00:00	7180	424	-14.3	-41.8	276	15	
2025-08-08T00:00	7200	423	-14.4	-41.8	277	16	
2025-08-08T00:00	7220	422	-14.6	-41.6	276	16	
2025-08-08T00:00	7240	421	-14.7	-41.1	276	15	
2025-08-08T00:00	7260	420	-14.9	-41.0	275	15	
2025-08-08T00:00	7280	419	-15.1	-41.2	275	15	
2025-08-08T00:00	7300	418	-15.2	-41.2	274	15	
2025-08-08T00:00	7320	416	-15.4	-41.4	274	15	
2025-08-08T00:00	7340	415	-15.5	-41.6	274	15	
2025-08-08T00:00	7360	414	-15.6	-41.6	274	15	
2025-08-08T00:00	7380	413	-15.8	-42.2	275	15	
2025-08-08T00:00	7400	412	-15.9	-43.4	276	15	
2025-08-08T00:00	7420	411	-16.1	-44.4	277	15	
2025-08-08T00:00	7440	410	-16.1	-45.5	277	16	
2025-08-08T00:00	7460	409	-16.2	-45.5	277	16	
2025-08-08T00:00	7480	408	-16.3	-45.1	277	16	
2025-08-08T00:00	7500	407	-16.4	-44.8	277	17	
2025-08-08T00:00	7520	406	-16.6	-44.9	276	17	
2025-08-08T00:00	7540	404	-16.7	-44.7	275	16	
2025-08-08T00:00	7560	403	-16.9	-44.9	274	16	
2025-08-08T00:00	7580	402	-17.0	-45.0	274	16	
2025-08-08T00:00	7600	401	-17.2	-45.1	273	16	
2025-08-08T00:00	7620	400	-17.4	-45.1	272	16	
2025-08-08T00:00	7640	399	-17.5	-45.1	272	16	
2025-08-08T00:00	7660	398	-17.7	-45.4	272	16	
2025-08-08T00:00	7680	397	-17.8	-46.0	272	16	
2025-08-08T00:00	7700	396	-17.9	-46.4	272	16	
2025-08-08T00:00	7720	395	-18.1	-46.5	273	16	
2025-08-08T00:00	7740	394	-18.2	-45.6	273	16	
2025-08-08T00:00	7760	393	-18.4	-44.6	274	16	
2025-08-08T00:00	7780	392	-18.5	-44.8	274	16	
2025-08-08T00:00	7800	391	-18.6	-45.6	275	16	
2025-08-08T00:00	7820	390	-18.8	-45.2	276	16	
2025-08-08T00:00	7840	388	-19.0	-46.3	276	17	
2025-08-08T00:00	7860	387	-19.1	-46.6	277	17	
2025-08-08T00:00	7880	386	-19.3	-45.5	277	17	
2025-08-08T00:00	7900	385	-19.4	-45.5	276	17	
2025-08-08T00:00	7920	384	-19.5	-45.7	276	17	
2025-08-08T00:00	7940	383	-19.7	-45.8	275	18	
2025-08-08T00:00	7960	382	-19.8	-46.0	275	18	
2025-08-08T00:00	7980	381	-19.9	-46.1	274	18	
2025-08-08T00:00	8000	380	-20.1	-45.9	274	18	
2025-08-08T00:00	8020	379	-20.2	-45.7	274	18	
2025-08-08T00:00	8040	378	-20.4	-45.0	274	18	
2025-08-08T00:00	8060	377	-20.6	-44.8	274	18	
2025-08-08T00:00	8080	376	-20.7	-44.2	274	18	
2025-08-08T00:00	8100	375	-20.9	-42.8	274	17	
2025-08-08T00:00	8120	374	-21.1	-42.7	274	17	
2025-08-08T00:00	8140	373	-21.3	-42.2	274	17	
2025-08-08T00:00	8160	372	-21.5	-42.0	274	17	
2025-08-08T00:00	8180	371	-21.7	-41.3	274	17	
2025-08-08T00:00	8200	370	-21.9	-40.7	275	17	
2025-08-08T00:00	8220	369	-22.0	-40.2	275	17	
2025-08-08T00:00	8240	368	-22.2	-40.3	275	17	
2025-08-08T00:00	8260	367	-22.4	-40.4	275	17	
2025-08-08T00:00	8280	366	-22.5	-40.8	274	17	
2025-08-08T00:00	8300	365	-22.7	-41.3	274	17	
2025-08-08T00:00	8320	364	-22.8	-41.3	274	17	
2025-08-08T00:00	8340	363	-23.0	-41.4	273	18	
2025-08-08T00:00	8360	362	-23.1	-40.6	274	18	
2025-08-08T00:00	8380	361	-23.3	-39.9	274	18	
2025-08-08T00:00	8400	360	-23.5	-38.7	275	19	
2025-08-08T00:00	8420	359	-23.6	-37.6	276	19	
2025-08-08T00:00	8440	358	-23.8	-37.5	277	19	
2025-08-08T00:00	8460	357	-24.0	-37.3	278	20	
2025-08-08T00:00	8480	356	-24.1	-35.9	279	20	
2025-08-08T00:00	8500	355	-24.3	-35.2	279	20	
2025-08-08T00:00	8520	354	-24.4	-35.6	280	20	
2025-08-08T00:00	8540	353	-24.5	-37.5	279	20	
2025-08-08T00:00	8560	352	-24.7	-36.4	279	20	
2025-08-08T00:00	8580	351	-24.9	-36.1	279	20	
2025-08-08T00:00	8600	350	-25.0	-40.3	279	20	
2025-08-08T00:00	8620	349	-25.1	-41.5	279	20	
2025-08-08T00:00	8640	348	-25.3	-39.0	279	19	
2025-08-08T00:00	8660	348	-25.4	-39.2	279	19	
2025-08-08T00:00	8680	347	-25.6	-39.3	279	19	
2025-08-08T00:00	8700	346	-25.8	-38.6	279	19	
2025-08-08T00:00	8720	345	-26.0	-39.2	279	19	
2025-08-08T00:00	8740	344	-26.1	-40.6	279	19	
2025-08-08T00:00	8760	343	-26.3	-41.3	279	19	
2025-08-08T00:00	8780	342	-26.5	-41.8	279	19	
2025-08-08T00:00	8800	341	-26.6	-42.5	279	19	
2025-08-08T00:00	8820	340	-26.8	-42.5	279	19	
2025-08-08T00:00	8840	339	-27.0	-41.7	279	19	
2025-08-08T00:00	8860	338	-27.2	-41.0	279	19	
2025-08-08T00:00	8880	337	-27.3	-39.8	279	19	
2025-08-08T00:00	8900	336	-27.5	-39.3	279	19	
2025-08-08T00:00	8920	335	-27.7	-39.4	279	19	
2025-08-08T00:00	8940	334	-27.8	-39.0	280	19	
2025-08-08T00:00	8960	333	-28.0	-38.4	280	19	
2025-08-08T00:00	8980	332	-28.2	-38.4	280	19	
2025-08-08T00:00	9000	331	-28.4	-38.3	281	20	
2025-08-08T00:00	9020	330	-28.6	-38.2	282	20	
2025-08-08T00:00	9040	330	-28.7	-38.1	283	20	
2025-08-08T00:00	9060	329	-28.9	-37.8	284	20	
2025-08-08T00:00	9080	328	-29.1	-37.8	284	20	
2025-08-08T00:00	9100	327	-29.2	-37.9	285	21	
2025-08-08T00:00	9120	326	-29.4	-38.1	285	21	
2025-08-08T00:00	9140	325	-29.5	-38.3	285	21	
2025-08-08T00:00	9160	324	-29.6	-39.2	285	22	
2025-08-08T00:00	9180	323	-29.6	-39.8	285	22	
2025-08-08T00:00	9200	322	-29.8	-39.8	285	22	
2025-08-08T00:00	9220	321	-30.0	-39.9	285	22	
2025-08-08T00:00	9240	321	-30.2	-40.0	285	22	
2025-08-08T00:00	9260	320	-30.3	-40.2	286	22	
2025-08-08T00:00	9280	319	-30.5	-40.6	286	22	
2025-08-08T00:00	9300	318	-30.6	-40.9	286	22	
2025-08-08T00:00	9320	317	-30.7	-40.9	286	22	
2025-08-08T00:00	9340	316	-30.9	-41.0	286	22	
2025-08-08T00:00	9360	315	-31.1	-41.6	285	22	
2025-08-08T00:00	9380	314	-31.3	-41.9	285	22	
2025-08-08T00:00	9400	313	-31.4	-42.2	284	21	
2025-08-08T00:00	9420	312	-31.6	-42.2	283	21	
2025-08-08T00:00	9440	312	-31.8	-42.4	282	21	
2025-08-08T00:00	9460	311	-31.9	-42.7	282	21	
2025-08-08T00:00	9480	310	-32.1	-42.8	282	21	
2025-08-08T00:00	9500	309	-32.3	-42.8	281	22	
2025-08-08T00:00	9520	308	-32.5	-42.8	281	22	
2025-08-08T00:00	9540	307	-32.7	-42.8	282	22	
2025-08-08T00:00	9560	306	-32.9	-42.9	282	22	
2025-08-08T00:00	9580	306	-33.1	-43.0	282	22	
2025-08-08T00:00	9600	305	-33.2	-43.0	282	22	
2025-08-08T00:00	9620	304	-33.4	-43.1	282	22	
2025-08-08T00:00	9640	303	-33.6	-43.2	282	22	
2025-08-08T00:00	9660	302	-33.8	-43.2	283	22	
2025-08-08T00:00	9680	301	-34.0	-43.3	283	22	
2025-08-08T00:00	9700	300	-34.2	-43.4	283	22	
2025-08-08T00:00	9720	299	-34.4	-43.8	283	22	
2025-08-08T00:00	9740	299	-34.5	-44.4	283	22	
2025-08-08T00:00	9760	298	-34.7	-44.6	283	22	
2025-08-08T00:00	9780	297	-34.9	-44.6	284	21	
2025-08-08T00:00	9800	296	-35.1	-44.8	284	21	
2025-08-08T00:00	9820	295	-35.3	-45.2	284	21	
2025-08-08T00:00	9840	294	-35.4	-45.8	285	21	
2025-08-08T00:00	9860	294	-35.6	-46.4	285	21	
2025-08-08T00:00	9880	293	-35.7	-46.9	285	21	
2025-08-08T00:00	9900	292	-35.9	-46.8	285	21	
2025-08-08T00:00	9920	291	-36.1	-46.1	285	21	
2025-08-08T00:00	9940	290	-36.2	-46.0	285	21	
2025-08-08T00:00	9960	289	-36.4	-46.2	285	21	
2025-08-08T00:00	9980	288	-36.5	-45.7	285	21	
2025-08-08T00:00	10000	288	-36.7	-45.0	285	21	
2025-08-08T00:00	10018	287	-36.9	-44.8	285	21	
2025-08-08T00:00	10050	286	-37.1	-45.2	286	21	
2025-08-08T00:00	10100	284	-37.5	-45.7	286	21	
2025-08-08T00:00	10150	281	-37.9	-46.0	286	21	
2025-08-08T00:00	10200	279	-38.4	-45.9	286	22	
2025-08-08T00:00	10250	277	-38.8	-46.8	285	22	
2025-08-08T00:00	10300	275	-39.2	-47.2	284	22	
2025-08-08T00:00	10350	273	-39.5	-49.1	283	21	
2025-08-08T00:00	10400	271	-39.9	-49.5	283	21	
2025-08-08T00:00	10450	269	-40.3	-50.5	284	21	
2025-08-08T00:00	10500	267	-40.7	-51.1	284	21	
2025-08-08T00:00	10550	265	-41.1	-52.3	283	21	
2025-08-08T00:00	10600	264	-41.5	-52.5	283	21	
2025-08-08T00:00	10650	262	-42.0	-52.4	283	21	
2025-08-08T00:00	10700	260	-42.3	-52.0	283	21	
2025-08-08T00:00	10750	258	-42.7	-52.9	282	21	
2025-08-08T00:00	10800	256	-43.1	-52.7	282	21	
2025-08-08T00:00	10850	254	-43.5	-51.3	281	21	
2025-08-08T00:00	10900	252	-44.0	-51.2	281	21	
2025-08-08T00:00	10950	250	-44.4	-52.7	281	21	
2025-08-08T00:00	11000	248	-44.8	-51.4	280	21	
2025-08-08T00:00	11050	246	-45.3	-51.8	281	21	
2025-08-08T00:00	11100	245	-45.7	-52.2	281	21	
2025-08-08T00:00	11150	243	-46.1	-53.1	279	21	
2025-08-08T00:00	11200	241	-46.5	-53.9	278	21	
2025-08-08T00:00	11250	239	-47.0	-53.9	278	21	
2025-08-08T00:00	11300	237	-47.4	-54.1	278	21	
2025-08-08T00:00	11350	236	-47.8	-54.4	279	22	
2025-08-08T00:00	11400	234	-48.2	-55.1	279	22	
2025-08-08T00:00	11450	232	-48.7	-55.1	281	22	
2025-08-08T00:00	11500	230	-49.1	-55.5	281	22	
2025-08-08T00:00	11550	228	-49.6	-55.6	282	22	
2025-08-08T00:00	11600	227	-50.0	-55.5	281	22	
2025-08-08T00:00	11650	225	-50.3	-56.3	280	22	
2025-08-08T00:00	11700	223	-50.7	-57.4	280	22	
2025-08-08T00:00	11750	222	-51.2	-57.0	280	22	
2025-08-08T00:00	11800	220	-51.5	-57.8	280	22	
2025-08-08T00:00	11850	218	-51.9	-58.3	281	22	
2025-08-08T00:00	11900	217	-52.2	-59.3	281	22	
2025-08-08T00:00	11950	215	-52.5	-59.3	281	22	
2025-08-08T00:00	12000	213	-53.0	-59.5	281	21	
2025-08-08T00:00	12050	212	-53.4	-59.8	282	22	
2025-08-08T00:00	12100	210	-53.8	-60.0	281	22	
2025-08-08T00:00	12150	208	-54.2	-60.0	281	22	
2025-08-08T00:00	12200	207	-54.7	-59.9	281	22	
2025-08-08T00:00	12250	205	-55.1	-60.0	282	22	
2025-08-08T00:00	12300	204	-55.4	-61.3	281	22	
2025-08-08T00:00	12350	202	-55.8	-61.9	281	23	
2025-08-08T00:00	12400	200	-56.2	-62.3	281	23	
2025-08-08T00:00	12450	199	-56.5	-63.1	282	23	
2025-08-08T00:00	12500	197	-56.8	-63.2	282	23	
2025-08-08T00:00	12550	196	-57.2	-62.8	282	23	
2025-08-08T00:00	12600	194	-57.6	-62.7	282	23	
2025-08-08T00:00	12650	193	-58.0	-63.5	282	23	
2025-08-08T00:00	12700	191	-58.3	-64.5	282	23	
2025-08-08T00:00	12750	190	-58.6	-65.0	281	23	
2025-08-08T00:00	12800	188	-59.0	-65.0	280	22	
2025-08-08T00:00	12850	187	-59.2	-65.3	281	22	
2025-08-08T00:00	12900	185	-59.5	-65.8	282	21	
2025-08-08T00:00	12950	184	-59.3	-67.1	282	20	
2025-08-08T00:00	13000	182	-59.4	-68.2	280	20	
2025-08-08T00:00	13050	181	-59.6	-68.2	277	19	
2025-08-08T00:00	13100	179	-59.9	-68.2	273	19	
2025-08-08T00:00	13150	178	-60.1	-68.4	270	20	
2025-08-08T00:00	13200	176	-60.4	-68.5	268	21	
2025-08-08T00:00	13250	175	-60.6	-68.8	267	22	
2025-08-08T00:00	13300	174	-60.8	-69.2	267	22	
2025-08-08T00:00	13350	172	-61.1	-69.3	268	22	
2025-08-08T00:00	13400	171	-61.3	-69.5	270	22	
2025-08-08T00:00	13450	169	-61.3	-69.8	272	22	
2025-08-08T00:00	13500	168	-61.3	-70.3	275	22	
2025-08-08T00:00	13550	167	-61.4	-70.7	278	22	
2025-08-08T00:00	13600	165	-61.5	-71.0	281	22	
2025-08-08T00:00	13650	164	-61.7	-71.2	283	21	
2025-08-08T00:00	13700	163	-61.7	-71.6	284	20	
2025-08-08T00:00	13750	161	-61.7	-72.3	286	19	
2025-08-08T00:00	13800	160	-61.8	-73.1	287	17	
2025-08-08T00:00	13850	159	-61.7	-74.0	287	15	
2025-08-08T00:00	13900	158	-61.8	-74.7	284	13	
2025-08-08T00:00	13950	156	-61.9	-75.4	280	12	
2025-08-08T00:00	14000	155	-62.0	-75.9	275	12	
2025-08-08T00:00	14050	154	-62.3	-76.1	269	13	
2025-08-08T00:00	14100	152	-62.7	-76.3	265	13	
2025-08-08T00:00	14150	151	-62.9	-76.7	262	14	
2025-08-08T00:00	14200	150	-63.1	-77.2	261	15	
2025-08-08T00:00	14250	149	-63.3	-77.9	259	17	
2025-08-08T00:00	14300	148	-63.4	-78.6	258	18	
2025-08-08T00:00	14350	146	-63.4	-79.2	256	20	
2025-08-08T00:00	14400	145	-63.4	-79.8	257	21	
2025-08-08T00:00	14450	144	-63.5	-80.3	259	21	
2025-08-08T00:00	14500	143	-63.7	-80.6	264	21	
2025-08-08T00:00	14550	142	-64.0	-80.8	267	21	
2025-08-08T00:00	14600	141	-64.3	-81.1	270	20	
2025-08-08T00:00	14650	139	-64.3	-81.5	273	19	
2025-08-08T00:00	14700	138	-64.3	-82.1	271	18	
2025-08-08T00:00	14750	137	-63.9	-82.6	266	18	
2025-08-08T00:00	14800	136	-63.3	-83.1	264	19	
2025-08-08T00:00	14850	135	-62.5	-83.4	266	19	
2025-08-08T00:00	14900	134	-62.4	-83.5	270	18	
2025-08-08T00:00	14950	133	-62.5	-83.5	272	17	
2025-08-08T00:00	15000	132	-62.9	-83.7	271	17	
2025-08-08T00:00	15050	131	-63.3	-83.9	269	16	
2025-08-08T00:00	15100	130	-63.5	-84.0	269	16	
2025-08-08T00:00	15150	129	-63.6	-84.1	269	16	
2025-08-08T00:00	15200	127	-63.8	-84.3	266	16	
2025-08-08T00:00	15250	126	-64.0	-84.5	260	17	
2025-08-08T00:00	15300	125	-63.5	-84.5	253	17	
2025-08-08T00:00	15350	124	-63.0	-84.3	252	18	
2025-08-08T00:00	15400	123	-62.9	-84.0	253	19	
2025-08-08T00:00	15450	122	-63.1	-83.9	256	19	
2025-08-08T00:00	15500	121	-63.5	-83.9	258	19	
2025-08-08T00:00	15550	120	-63.8	-84.0	261	19	
2025-08-08T00:00	15600	119	-64.1	-84.1	264	18	
2025-08-08T00:00	15650	118	-64.3	-84.2	268	17	
2025-08-08T00:00	15700	117	-64.5	-84.2	273	17	
2025-08-08T00:00	15750	117	-64.8	-84.3	276	16	
2025-08-08T00:00	15800	116	-65.1	-84.3	276	16	
2025-08-08T00:00	15850	115	-65.4	-84.4	274	15	
2025-08-08T00:00	15900	114	-65.4	-84.5	271	16	
2025-08-08T00:00	15950	113	-65.5	-84.5	272	16	
2025-08-08T00:00	16000	112	-65.6	-85.0	277	15	
2025-08-08T00:00	16050	111	-64.3	-84.7	282	13	
2025-08-08T00:00	16100	110	-63.9	-84.8	282	11	
2025-08-08T00:00	16150	109	-63.8	-84.9	273	9	
2025-08-08T00:00	16200	108	-63.6	-84.9	257	8	
2025-08-08T00:00	16250	107	-63.3	-84.9	241	8	
2025-08-08T00:00	16300	106	-63.3	-85.1	229	9	
2025-08-08T00:00	16350	106	-63.3	-85.0	223	10	
2025-08-08T00:00	16400	105	-63.6	-85.1	222	11	
2025-08-08T00:00	16450	104	-64.0	-85.2	224	12	
2025-08-08T00:00	16500	103	-64.2	-85.3	226	13	
2025-08-08T00:00	16550	102	-64.3	-85.4	228	15	
2025-08-08T00:00	16600	101	-64.3	-85.6	232	16	
2025-08-08T00:00	16650	101	-64.1	-85.6	238	17	
2025-08-08T00:00	16700	100	-64.2	-85.8	244	17	
2025-08-08T00:00	16750	99	-64.3	-86.0	252	16	
2025-08-08T00:00	16800	98	-64.1	-86.2	258	16	
2025-08-08T00:00	16850	97	-63.1	-86.3	260	14	
2025-08-08T00:00	16900	97	-62.0	-86.2	259	14	
2025-08-08T00:00	16950	96	-61.3	-86.2	260	14	
2025-08-08T00:00	17000	95	-60.8	-85.9	264	14	
2025-08-08T00:00	17050	94	-60.7	-85.8	271	13	
2025-08-08T00:00	17100	94	-60.9	-85.9	279	12	
2025-08-08T00:00	17150	93	-60.8	-85.8	288	10	
2025-08-08T00:00	17200	92	-60.5	-85.8	294	8	
2025-08-08T00:00	17250	91	-60.4	-85.7	294	7	
2025-08-08T00:00	17300	91	-60.7	-85.8	290	6	
2025-08-08T00:00	17350	90	-61.1	-85.9	281	5	
2025-08-08T00:00	17400	89	-61.1	-85.8	263	4	
2025-08-08T00:00	17450	88	-61.4	-86.0	240	4	
2025-08-08T00:00	17500	88	-61.2	-85.9	229	5	
2025-08-08T00:00	17550	87	-61.4	-86.0	230	6	
2025-08-08T00:00	17600	86	-61.6	-86.0	233	7	
2025-08-08T00:00	17650	86	-61.9	-86.0	236	7	
2025-08-08T00:00	17700	85	-61.8	-85.9	241	7	
2025-08-08T00:00	17750	84	-61.8	-86.0	251	7	
2025-08-08T00:00	17800	84	-61.8	-86.1	263	7	
2025-08-08T00:00	17850	83	-61.5	-86.3	266	7	
2025-08-08T00:00	17900	82	-60.9	-86.2	259	7	
2025-08-08T00:00	17950	82	-60.9	-86.2	249	7	
2025-08-08T00:00	18000	81	-60.9	-86.1	242	7	
2025-08-08T00:00	18050	80	-61.0	-86.2	239	8	
2025-08-08T00:00	18100	80	-60.9	-86.1	238	9	
2025-08-08T00:00	18150	79	-60.9	-86.2	237	10	
2025-08-08T00:00	18200	78	-60.6	-86.2	240	10	
2025-08-08T00:00	18250	78	-60.2	-86.1	245	10	
2025-08-08T00:00	18300	77	-60.1	-86.1	252	9	
2025-08-08T00:00	18350	76	-60.0	-86.2	261	7	
2025-08-08T00:00	18400	76	-59.3	-86.1	267	6	
2025-08-08T00:00	18450	75	-58.6	-85.9	265	5	
2025-08-08T00:00	18500	75	-58.2	-85.7	257	4	
2025-08-08T00:00	18550	74	-58.3	-85.6	246	4	
2025-08-08T00:00	18600	73	-58.3	-85.5	242	5	
2025-08-08T00:00	18650	73	-58.3	-85.4	249	6	
2025-08-08T00:00	18700	72	-58.5	-85.5	257	6	
2025-08-08T00:00	18750	72	-58.3	-85.5	253	6	
2025-08-08T00:00	18800	71	-58.0	-85.4	238	5	
2025-08-08T00:00	18850	71	-57.7	-85.4	229	5	
2025-08-08T00:00	18900	70	-57.5	-85.2	228	6	
2025-08-08T00:00	18950	69	-57.5	-85.1	226	6	
2025-08-08T00:00	19000	69	-57.8	-85.1	225	7	
2025-08-08T00:00	19050	68	-58.2	-85.2	228	8	
2025-08-08T00:00	19100	68	-58.4	-85.4	235	8	
2025-08-08T00:00	19150	67	-58.2	-85.4	248	7	
2025-08-08T00:00	19200	67	-58.1	-85.4	265	6	
2025-08-08T00:00	19250	66	-58.0	-85.5	278	6	
2025-08-08T00:00	19300	66	-57.6	-85.4	280	5	
2025-08-08T00:00	19350	65	-57.3	-85.2	271	6	
2025-08-08T00:00	19400	65	-57.4	-85.1	264	6	
2025-08-08T00:00	19450	64	-57.6	-85.1	262	6	
2025-08-08T00:00	19500	64	-57.8	-85.2	265	6	
2025-08-08T00:00	19550	63	-58.0	-85.3	275	5	
2025-08-08T00:00	19600	63	-57.9	-85.4	293	5	
2025-08-08T00:00	19650	62	-57.5	-85.4	308	5	
2025-08-08T00:00	19700	62	-57.4	-85.3	320	4	
2025-08-08T00:00	19750	61	-57.4	-85.4	326	3	
2025-08-08T00:00	19800	61	-57.3	-85.3	317	2	
2025-08-08T00:00	19850	60	-57.2	-85.2	281	2	
2025-08-08T00:00	19900	60	-57.0	-85.1	232	2	
2025-08-08T00:00	19950	59	-56.8	-85.0	208	2	
2025-08-08T00:00	20000	59	-57.1	-85.0	214	2	
2025-08-08T00:00	20050	58	-57.4		233	3	
2025-08-08T00:00	20100	58	-57.8		248	4	
2025-08-08T00:00	20150	57	-57.9		255	4	
2025-08-08T00:00	20200	57	-57.9		259	4	
2025-08-08T00:00	20250	57	-57.6		262	3	
2025-08-08T00:00	20300	56	-57.1		269	2	
2025-08-08T00:00	20350	56	-56.9		270	1	
2025-08-08T00:00	20400	55	-56.6		253	1	
2025-08-08T00:00	20450	55	-56.5		252	2	
2025-08-08T00:00	20500	54	-56.6		258	3	
2025-08-08T00:00	20550	54	-56.4		266	3	
2025-08-08T00:00	20600	54	-56.2		281	3	
2025-08-08T00:00	20650	53	-56.1		314	2	
2025-08-08T00:00	20700	53	-56.2		360	2	
2025-08-08T00:00	20750	52	-56.2		30	2	
2025-08-08T00:00	20800	52	-56.2		56	2	
2025-08-08T00:00	20850	51	-56.2		85	1	
2025-08-08T00:00	20900	51	-56.2		101	1	
2025-08-08T00:00	20950	51	-56.1		95	1	
2025-08-08T00:00	21000	50	-55.8		92	1	
2025-08-08T00:00	21050	50	-55.8		109	1	
2025-08-08T00:00	21100	49	-55.8		128	2	
2025-08-08T00:00	21150	49	-56.0		137	3	
2025-08-08T00:00	21200	49	-56.1		142	5	
2025-08-08T00:00	21250	48	-56.2		145	6	
2025-08-08T00:00	21300	48	-55.8		151	6	
2025-08-08T00:00	21350	48	-55.7		159	6	
2025-08-08T00:00	21400	47	-55.8		172	5	
2025-08-08T00:00	21450	47	-56.0		185	5	
2025-08-08T00:00	21500	46	-56.2		194	4	
2025-08-08T00:00	21550	46	-56.3		198	4	
2025-08-08T00:00	21600	46	-56.1		196	3	
2025-08-08T00:00	21650	45	-55.7		184	2	
2025-08-08T00:00	21700	45	-55.5		151	2	
2025-08-08T00:00	21750	45	-55.6		118	2	
2025-08-08T00:00	21800	44	-55.7		103	3	
2025-08-08T00:00	21850	44	-55.7		100	4	
2025-08-08T00:00	21900	44	-55.4		106	5	
2025-08-08T00:00	21950	43	-55.1		116	5	
2025-08-08T00:00	22000	43	-55.3		130	5	
2025-08-08T00:00	22050	43	-55.3		146	6	
2025-08-08T00:00	22100	42	-55.4		157	6	
2025-08-08T00:00	22150	42	-55.5		164	6	
2025-08-08T00:00	22200	42	-55.6		167	5	
2025-08-08T00:00	22250	41	-55.4		166	3	
2025-08-08T00:00	22300	41	-55.2		152	2	
2025-08-08T00:00	22350	41	-55.0		72	1	
2025-08-08T00:00	22400	40	-55.3		43	2	
2025-08-08T00:00	22450	40	-55.1		61	2	
2025-08-08T00:00	22500	40	-54.9		97	2	
2025-08-08T00:00	22550	39	-55.3		119	3	
2025-08-08T00:00	22600	39	-55.3		114	3	
2025-08-08T00:00	22650	39	-55.0		103	5	
2025-08-08T00:00	22700	38	-54.8		99	6	
2025-08-08T00:00	22750	38	-54.4		101	7	
2025-08-08T00:00	22800	38	-54.1		105	8	
2025-08-08T00:00	22850	38	-54.0		110	8	
2025-08-08T00:00	22900	37	-53.9		118	7	
2025-08-08T00:00	22950	37	-54.2		126	7	
2025-08-08T00:00	23000	37	-54.2		131	7	
2025-08-08T00:00	23050	36	-54.0		136	6	
2025-08-08T00:00	23100	36	-53.9		145	4	
2025-08-08T00:00	23150	36	-53.9		163	2	
2025-08-08T00:00	23200	36	-54.0		187	1	
2025-08-08T00:00	23250	35	-54.2		66	1	
2025-08-08T00:00	23300	35	-53.9		67	3	
2025-08-08T00:00	23350	35	-53.7		67	4	
2025-08-08T00:00	23400	35	-53.5		63	5	
2025-08-08T00:00	23450	34	-53.3		62	6	
2025-08-08T00:00	23500	34	-53.3		71	6	
2025-08-08T00:00	23550	34	-52.9		84	7	
2025-08-08T00:00	23600	33	-52.9		96	9	
2025-08-08T00:00	23650	33	-52.8		105	10	
2025-08-08T00:00	23700	33	-52.7		113	10	
2025-08-08T00:00	23750	33	-52.8		119	10	
2025-08-08T00:00	23800	32	-52.5		123	8	
2025-08-08T00:00	23850	32	-52.5		121	7	
2025-08-08T00:00	23900	32	-52.4		112	6	
2025-08-08T00:00	23950	32	-52.2		104	6	
2025-08-08T00:00	24000	31	-51.9		96	6	
2025-08-08T00:00	24050	31	-51.8		83	5	
2025-08-08T00:00	24100	31	-51.9		68	5	
2025-08-08T00:00	24150	31	-51.9		57	5	
2025-08-08T00:00	24200	30	-51.8		52	6	
2025-08-08T00:00	24250	30	-51.6		52	6	
2025-08-08T00:00	24300	30	-51.5		58	7	
2025-08-08T00:00	24350	30	-51.2		66	8	
2025-08-08T00:00	24400	30	-51.2		73	9	
2025-08-08T00:00	24450	29	-51.0		77	9	
2025-08-08T00:00	24500	29	-50.8		77	9	
2025-08-08T00:00	24550	29	-50.9		73	9	
2025-08-08T00:00	24600	29	-51.0		70	10	
2025-08-08T00:00	24650	28	-50.7		71	10	
2025-08-08T00:00	24700	28	-50.5		75	11	
2025-08-08T00:00	24750	28	-50.2		80	11	
2025-08-08T00:00	24800	28	-50.0		88	10	
2025-08-08T00:00	24850	28	-50.2		97	9	
2025-08-08T00:00	24900	27	-50.1		107	8	
2025-08-08T00:00	24950	27	-50.0		116	8	
2025-08-08T00:00	25000	27	-50.0		122	7	
2025-08-08T00:00	25050	27	-49.9		121	6	
2025-08-08T00:00	25100	27	-49.5		110	5	
2025-08-08T00:00	25150	26	-49.2		89	4	
2025-08-08T00:00	25200	26	-49.1		67	4	
2025-08-08T00:00	25250	26	-49.1		54	5	
2025-08-08T00:00	25300	26	-48.9		53	5	
2025-08-08T00:00	25350	26	-48.8		61	6	
2025-08-08T00:00	25400	25	-49.0		72	6	
2025-08-08T00:00	25450	25	-49.2		83	7	
2025-08-08T00:00	25500	25	-49.3		92	7	
2025-08-08T00:00	25550	25	-49.4		98	7	
2025-08-08T00:00	25600	25	-49.4		104	7	
2025-08-08T00:00	25650	24	-49.3		109	7	
2025-08-08T00:00	25700	24	-49.3		108	8	
2025-08-08T00:00	25750	24	-49.3		104	9	
2025-08-08T00:00	25800	24	-49.1		99	9	
2025-08-08T00:00	25850	24	-49.0		96	9	
2025-08-08T00:00	25900	23	-49.0		96	8	
2025-08-08T00:00	25950	23	-49.1		98	7	
2025-08-08T00:00	26000	23	-49.1		101	7	
2025-08-08T00:00	26050	23	-49.1		101	8	
2025-08-08T00:00	26100	23	-48.9		101	9	
2025-08-08T00:00	26150	23	-49.0		101	9	
2025-08-08T00:00	26200	22	-48.7		100	8	
2025-08-08T00:00	26250	22	-48.4		97	7	
2025-08-08T00:00	26300	22	-48.0		92	7	
2025-08-08T00:00	26350	22	-47.8		88	7	
2025-08-08T00:00	26400	22	-47.8		87	8	
2025-08-08T00:00	26450	22	-47.6		91	9	
2025-08-08T00:00	26500	21	-47.6		96	11	
2025-08-08T00:00	26550	21	-47.7		99	11	
2025-08-08T00:00	26600	21	-47.6		103	11	
2025-08-08T00:00	26650	21	-47.4		108	11	
2025-08-08T00:00	26700	21	-47.5		113	11	
2025-08-08T00:00	26750	21	-47.6		114	11	
2025-08-08T00:00	26800	20	-47.4		113	9	
2025-08-08T00:00	26850	20	-46.6		106	8	
2025-08-08T00:00	26900	20	-46.3		97	6	
2025-08-08T00:00	26950	20	-46.3		87	6	
2025-08-08T00:00	27000	20	-46.3		82	7	
2025-08-08T00:00	27050	20	-46.4		78	7	
2025-08-08T00:00	27100	20	-46.5		78	8	
2025-08-08T00:00	27150	19	-46.6		85	9	
2025-08-08T00:00	27200	19	-46.4		95	9	
2025-08-08T00:00	27250	19	-46.4		105	10	
2025-08-08T00:00	27300	19	-46.4		113	11	
2025-08-08T00:00	27350	19	-46.2		118	11	
2025-08-08T00:00	27400	19	-46.4		117	11	
2025-08-08T00:00	27450	19	-46.2		111	10	
2025-08-08T00:00	27500	18	-46.1		100	9	
2025-08-08T00:00	27550	18	-45.9		88	8	
2025-08-08T00:00	27600	18	-45.8		80	8	
2025-08-08T00:00	27650	18	-45.4		76	9	
2025-08-08T00:00	27700	18	-45.3		77	9	
2025-08-08T00:00	27750	18	-45.1		83	9	
2025-08-08T00:00	27800	18	-45.1		92	9	
2025-08-08T00:00	27850	17	-45.1		102	9	
2025-08-08T00:00	27900	17	-44.8		113	10	
2025-08-08T00:00	27950	17	-44.9		123	10	
2025-08-08T00:00	28000	17	-44.9		128	10	
2025-08-08T00:00	28050	17	-44.9		124	9	
2025-08-08T00:00	28100	17	-44.5		112	8	
2025-08-08T00:00	28150	17	-44.3		97	8	
2025-08-08T00:00	28200	17	-44.2		83	8	
2025-08-08T00:00	28250	16	-44.2		73	9	
2025-08-08T00:00	28300	16	-44.1		68	10	
2025-08-08T00:00	28350	16	-44.1		69	11	
2025-08-08T00:00	28400	16	-44.0		73	11	
2025-08-08T00:00	28450	16	-44.0		80	12	
2025-08-08T00:00	28500	16	-44.2		88	13	
2025-08-08T00:00	28550	16	-44.2		96	13	
2025-08-08T00:00	28600	16	-44.3		104	12	
2025-08-08T00:00	28650	16	-44.5		112	12	
2025-08-08T00:00	28700	15	-44.6		119	11	
2025-08-08T00:00	28750	15	-44.9		122	10	
2025-08-08T00:00	28800	15	-45.1		120	9	
2025-08-08T00:00	28850	15	-44.9		113	8	
2025-08-08T00:00	28900	15	-44.6		104	7	
2025-08-08T00:00	28950	15	-44.5		95	7	
2025-08-08T00:00	29000	15	-44.6		84	7	
2025-08-08T00:00	29050	15	-44.7		75	7	
2025-08-08T00:00	29100	15	-44.8		69	8	
2025-08-08T00:00	29150	14	-44.7		67	9	
2025-08-08T00:00	29200	14	-44.5		69	9	
2025-08-08T00:00	29250	14	-44.6		73	9	
2025-08-08T00:00	29300	14	-44.8		80	9	
2025-08-08T00:00	29350	14	-44.8		88	8	
2025-08-08T00:00	29400	14	-44.8		94	7	
2025-08-08T00:00	29450	14	-44.5		93	6	
2025-08-08T00:00	29500	14	-44.1		84	6	
2025-08-08T00:00	29550	14	-44.0		72	6	
2025-08-08T00:00	29600	13	-44.0		64	7	
2025-08-08T00:00	29650	13	-43.7		61	9	
2025-08-08T00:00	29700	13	-43.8		62	10	
2025-08-08T00:00	29750	13	-43.9		64	11	
2025-08-08T00:00	29800	13	-44.0		69	12	
2025-08-08T00:00	29850	13	-44.0		73	13	
2025-08-08T00:00	29900	13	-44.2		78	13	
2025-08-08T00:00	29950	13	-44.5		83	14	
2025-08-08T00:00	30000	13	-44.8		88	15	
2025-08-08T00:00	30050	13	-44.9		92	14	
2025-08-08T00:00	30100	13	-44.8		95	12	
2025-08-08T00:00	30150	12	-44.7		98	11	
2025-08-08T00:00	30200	12	-44.7		102	9	
2025-08-08T00:00	30250	12	-44.8		109	8	
2025-08-08T00:00	30300	12	-45.0		117	8	
2025-08-08T00:00	30350	12	-45.2		122	8	
2025-08-08T00:00	30400	12	-45.3		121	8	
2025-08-08T00:00	30450	12	-45.0		115	7	
2025-08-08T00:00	30500	12	-44.9		110	6	
2025-08-08T00:00	30550	12	-44.7		103	6	
2025-08-08T00:00	30600	12	-44.2		90	7	
2025-08-08T00:00	30650	12	-43.6		78	8	
2025-08-08T00:00	30700	11	-43.3		73	10	
2025-08-08T00:00	30750	11	-43.0		73	11	
2025-08-08T00:00	30800	11	-42.7		75	12	
2025-08-08T00:00	30850	11	-42.6		78	12	
2025-08-08T00:00	30900	11	-42.4		81	11	
2025-08-08T00:00	30950	11	-42.2		85	11	
2025-08-08T00:00	31000	11	-41.9		89	10	
2025-08-08T00:00	31050	11	-42.0		91	9	
2025-08-08T00:00	31100	11	-42.1		85	8	
2025-08-08T00:00	31150	11	-41.8		76	8	
2025-08-08T00:00	31200	11	-41.4		71	9	
2025-08-08T00:00	31250	11	-41.1		71	10	
2025-08-08T00:00	31300	10	-40.9		73	11	
2025-08-08T00:00	31350	10	-40.6		76	12	
2025-08-08T00:00	31400	10	-40.5		78	13	
2025-08-08T00:00	31450	10	-40.3		81	14	
2025-08-08T00:00	31500	10	-39.9		84	15	
2025-08-08T00:00	31550	10	-39.8		89	16	
2025-08-08T00:00	31600	10	-39.8		93	16	
2025-08-08T00:00	31650	10	-39.9		97	17	
2025-08-08T00:00	31700	10	-39.9		100	16	
2025-08-08T00:00	31750	10	-40.0		101	16	
2025-08-08T00:00	31800	10	-40.1		100	16	
2025-08-08T00:00	31850	10	-40.2		97	16	
2025-08-08T00:00	31900	10	-40.2		91	16	
2025-08-08T00:00	31950	10	-40.0		86	16	
2025-08-08T00:00	32000	9	-40.0		85	17	
2025-08-08T00:00	32050	9	-39.9		86	17	
2025-08-08T00:00	32100	9	-39.8		90	18	
2025-08-08T00:00	32150	9	-39.7		94	18	
2025-08-08T00:00	32200	9	-39.6		96	18	
2025-08-08T00:00	32250	9	-39.3		99	17	
2025-08-08T00:00	32300	9	-39.3		100	16	
2025-08-08T00:00	32350	9	-39.4		96	14	
2025-08-08T00:00	32400	9	-39.3		90	13	
2025-08-08T00:00	32450	9	-39.0		85	13	
2025-08-08T00:00	32500	9	-38.6		83	13	
2025-08-08T00:00	32550	9	-38.3		86	15	
2025-08-08T00:00	32600	9	-37.6		88	17	
2025-08-08T00:00	32650	9	-37.5		89	18	
2025-08-08T00:00	32700	9	-37.3		91	20	
2025-08-08T00:00	32750	8	-37.2		93	21	
2025-08-08T00:00	32800	8	-37.0		96	21	
2025-08-08T00:00	32850	8	-36.9		99	20	
2025-08-08T00:00	32900	8	-37.0		100	19	
2025-08-08T00:00	32950	8	-37.1		100	18	
2025-08-08T00:00	33000	8	-37.0		100	17	
2025-08-08T00:00	33050	8	-36.7		102	17	
2025-08-08T00:00	33100	8	-36.3		105	17	
2025-08-08T00:00	33150	8	-36.6		109	17	
2025-08-08T00:00	33200	8	-37.0		113	17	
2025-08-08T00:00	33250	8	-37.3		116	17	
2025-08-08T00:00	33300	8	-37.6		117	17	
2025-08-08T00:00	33350	8	-37.6		115	16	
2025-08-08T00:00	33400	8	-37.4		111	16	
2025-08-08T00:00	33450	8	-37.4		106	16	
2025-08-08T00:00	33500	8	-37.4		100	16	
2025-08-08T00:00	33550	8	-37.2		95	17	
2025-08-08T00:00	33600	7	-37.0		91	18	
2025-08-08T00:00	33650	7	-36.8		91	18	
2025-08-08T00:00	33700	7	-36.8		92	18	
2025-08-08T00:00	33750	7	-36.9		95	18	
2025-08-08T00:00	33800	7	-37.1		98	17	
2025-08-08T00:00	33850	7	-37.3		99	16	
2025-08-08T00:00	33900	7	-37.3		100	16	
2025-08-08T00:00	33950	7	-37.0		100	16	
2025-08-08T00:00	34000	7	-36.9		99	16	
2025-08-08T00:00	34050	7	-36.6		97	17	
2025-08-08T00:00	34100	7	-36.3		95	18	
2025-08-08T00:00	34150	7	-35.9		96	19	
2025-08-08T00:00	34200	7	-35.6		98	19	
2025-08-08T00:00	34250	7	-35.4		101	18	
2025-08-08T00:00	34300	7	-35.3		102	17	
2025-08-08T00:00	34350	7	-35.3		103	15	
2025-08-08T00:00	34400	7	-35.3		103	15	
2025-08-08T00:00	34450	7	-35.3		101	15	
2025-08-08T00:00	34500	7	-34.9		96	15	
2025-08-08T00:00	34550	7	-34.6		92	15	
2025-08-08T00:00	34600	6	-34.2		90	15	
2025-08-08T00:00	34650	6	-33.7		91	15	
2025-08-08T00:00	34700	6	-33.7		94	15	
2025-08-08T00:00	34750	6	-33.8		95	15	
2025-08-08T00:00	34800	6	-33.7		93	15	
2025-08-08T00:00	34850	6	-33.3		90	15	
2025-08-08T00:00	34900	6	-33.2		86	16	
2025-08-08T00:00	34950	6	-33.2		83	18	
2025-08-08T00:00	35000	6	-33.1		81	19	
2025-08-08T00:00	35050	6	-32.9		80	20	
2025-08-08T00:00	35100	6	-32.8		79	20	
2025-08-08T00:00	35150	6	-32.4		77	18	
2025-08-08T00:00	35200	6	-32.2		74	17	
2025-08-08T00:00	35250	6	-32.0		70	16	
2025-08-08T00:00	35300	6	-31.4		68	16	
2025-08-08T00:00	35350	6	-31.3		68	16	
2025-08-08T00:00	35400	6	-31.2		69	17	
2025-08-08T00:00	35450	6	-31.2		71	18	
2025-08-08T00:00	35500	6	-31.2		72	19	
2025-08-08T00:00	35550	6	-31.3		74	19	
2025-08-08T00:00	35600	6	-31.3		75	18	
2025-08-08T12:00	491	964	28.1	14.0	349	3	5.9
2025-08-08T12:00	501	963	27.2	15.1	345	1	5.9
2025-08-08T12:00	520	961	26.9	14.7	356	1	5.9
2025-08-08T12:00	540	958	26.4	14.2	3	1	5.9
2025-08-08T12:00	560	956	26.0	14.1	10	1	6.0
2025-08-08T12:00	580	954	25.8	14.0	14	1	6.0
2025-08-08T12:00	600	952	25.6	14.1	15	1	6.1
2025-08-08T12:00	620	950	25.4	14.1	15	1	6.1
2025-08-08T12:00	640	947	25.3	13.9	17	1	6.1
2025-08-08T12:00	660	945	25.2	13.9	19	1	6.1
2025-08-08T12:00	680	943	24.9	14.1	19	2	6.1
2025-08-08T12:00	700	941	24.7	13.8	14	2	6.1
2025-08-08T12:00	720	939	24.7	13.8	6	2	6.1
2025-08-08T12:00	740	937	24.5	13.7	355	2	6.1
2025-08-08T12:00	760	935	24.2	13.8	342	2	6.1
2025-08-08T12:00	780	932	24.1	13.7	328	1	6.1
2025-08-08T12:00	800	931	23.9	13.7	313	1	6.1
2025-08-08T12:00	820	929	23.9	13.4	292	1	6.1
2025-08-08T12:00	840	926	23.9	13.3	267	1	6.1
2025-08-08T12:00	860	924	23.5	13.5	251	1	6.0
2025-08-08T12:00	880	922	23.2	13.6	243	2	6.1
2025-08-08T12:00	900	920	23.0	13.3	242	3	6.1
2025-08-08T12:00	920	918	23.3	12.6	244	3	6.0
2025-08-08T12:00	940	916	23.2	12.6	247	4	6.0
2025-08-08T12:00	960	913	23.2	12.1	248	4	6.0
2025-08-08T12:00	980	911	23.1	11.9	248	5	6.0
2025-08-08T12:00	1000	909	22.9	11.9	247	5	6.0
2025-08-08T12:00	1020	907	22.8	11.8	246	5	6.0
2025-08-08T12:00	1040	905	22.7	11.7	244	5	6.0
2025-08-08T12:00	1060	903	22.5	11.6	242	5	6.0
2025-08-08T12:00	1080	901	22.3	11.6	239	5	6.0
2025-08-08T12:00	1100	899	22.2	11.6	238	5	6.0
2025-08-08T12:00	1120	897	21.9	11.6	236	5	6.0
2025-08-08T12:00	1140	895	21.8	11.4	235	5	5.9
2025-08-08T12:00	1160	893	21.6	11.2	233	6	5.9
2025-08-08T12:00	1180	891	21.7	10.6	231	6	5.9
2025-08-08T12:00	1200	889	21.6	10.0	230	6	5.9
2025-08-08T12:00	1220	887	21.5	10.1	229	6	5.9
2025-08-08T12:00	1240	885	21.3	10.1	228	7	5.9
2025-08-08T12:00	1260	882	21.2	9.7	228	7	5.9
2025-08-08T12:00	1280	880	21.1	9.5	228	7	5.8
2025-08-08T12:00	1300	878	21.0	9.4	228	7	5.8
2025-08-08T12:00	1320	877	20.8	9.4	228	7	5.8
2025-08-08T12:00	1340	874	20.6	9.4	228	7	5.8
2025-08-08T12:00	1360	872	20.3	9.4	228	8	5.8
2025-08-08T12:00	1380	870	20.2	9.1	228	8	5.8
2025-08-08T12:00	1400	868	20.1	9.0	229	8	5.8
2025-08-08T12:00	1420	866	19.9	9.1	228	8	5.7
2025-08-08T12:00	1440	864	19.7	9.1	228	8	5.7
2025-08-08T12:00	1460	862	19.5	9.1	228	8	5.7
2025-08-08T12:00	1480	860	19.5	7.8	227	9	5.7
2025-08-08T12:00	1500	858	19.6	6.6	227	9	5.7
2025-08-08T12:00	1520	856	19.5	6.5	226	9	5.7
2025-08-08T12:00	1540	854	19.4	5.6	226	9	5.7
2025-08-08T12:00	1560	852	19.4	5.2	225	9	5.7
2025-08-08T12:00	1580	850	19.2	5.3	226	9	5.7
2025-08-08T12:00	1600	848	19.0	5.2	226	9	5.7
2025-08-08T12:00	1620	846	18.9	4.3	226	9	5.7
2025-08-08T12:00	1640	844	18.8	3.9	227	9	5.7
2025-08-08T12:00	1660	843	18.7	3.7	227	9	5.7
2025-08-08T12:00	1680	840	18.6	2.9	227	9	5.7
2025-08-08T12:00	1700	839	18.5	2.5	227	9	5.7
2025-08-08T12:00	1720	837	18.3	2.3	227	9	5.7
2025-08-08T12:00	1740	835	18.1	2.3	227	9	5.7
2025-08-08T12:00	1760	833	18.0	2.6	227	10	5.6
2025-08-08T12:00	1780	831	17.8	2.8	228	10	5.6
2025-08-08T12:00	1800	829	17.7	2.9	228	10	5.5
2025-08-08T12:00	1820	827	17.5	3.1	229	10	5.5
2025-08-08T12:00	1840	825	17.3	3.4	229	10	5.4
2025-08-08T12:00	1860	823	17.2	3.4	228	10	5.4
2025-08-08T12:00	1880	821	17.1	3.3	227	10	5.4
2025-08-08T12:00	1900	819	16.9	3.4	226	10	5.4
2025-08-08T12:00	1920	817	16.7	3.4	225	10	5.3
2025-08-08T12:00	1940	815	16.6	3.0	224	10	5.3
2025-08-08T12:00	1960	813	16.5	2.5	223	10	5.3
2025-08-08T12:00	1980	812	16.4	2.4	223	10	5.3
2025-08-08T12:00	2000	810	16.2	2.2	223	10	5.2
2025-08-08T12:00	2020	808	16.0	2.2	223	10	5.2
2025-08-08T12:00	2040	806	15.8	2.1	223	10	5.2
2025-08-08T12:00	2060	804	15.6	1.8	223	10	5.2
2025-08-08T12:00	2080	802	15.5	0.7	224	11	5.2
2025-08-08T12:00	2100	800	15.4	0.5	225	11	5.2
2025-08-08T12:00	2120	798	15.2	0.4	226	11	5.2
2025-08-08T12:00	2140	796	15.0	0.6	228	11	5.1
2025-08-08T12:00	2160	794	14.8	1.5	229	11	5.1
2025-08-08T12:00	2180	793	14.7	2.1	230	11	5.0
2025-08-08T12:00	2200	791	14.5	2.7	232	11	5.0
2025-08-08T12:00	2220	789	14.4	3.7	233	11	5.1
2025-08-08T12:00	2240	787	14.4	4.0	234	11	5.1
2025-08-08T12:00	2260	785	14.2	4.0	235	12	5.1
2025-08-08T12:00	2280	783	14.1	3.9	237	12	5.1
2025-08-08T12:00	2300	782	14.0	3.6	238	12	5.2
2025-08-08T12:00	2320	780	13.9	3.6	240	12	5.2
2025-08-08T12:00	2340	778	13.8	3.4	241	13	5.2
2025-08-08T12:00	2360	776	13.7	3.3	242	13	5.3
2025-08-08T12:00	2380	774	13.5	3.3	243	13	5.3
2025-08-08T12:00	2400	772	13.4	3.0	244	13	5.3
2025-08-08T12:00	2420	770	13.3	2.9	244	13	5.4
2025-08-08T12:00	2440	768	13.2	2.8	245	13	5.4
2025-08-08T12:00	2460	767	13.0	2.7	245	13	5.4
2025-08-08T12:00	2480	765	12.8	2.8	245	13	5.4
2025-08-08T12:00	2500	763	12.6	2.8	245	13	5.5
2025-08-08T12:00	2520	761	12.6	2.3	245	13	5.5
2025-08-08T12:00	2540	760	12.5	2.4	245	13	5.5
2025-08-08T12:00	2560	758	12.3	2.4	245	13	5.5
2025-08-08T12:00	2580	756	12.1	2.0	244	13	5.5
2025-08-08T12:00	2600	754	12.0	1.8	244	13	5.5
2025-08-08T12:00	2620	752	11.9	2.0	243	13	5.5
2025-08-08T12:00	2640	751	11.8	2.0	242	13	5.5
2025-08-08T12:00	2660	749	11.7	1.9	242	13	5.5
2025-08-08T12:00	2680	747	11.6	1.5	240	13	5.5
2025-08-08T12:00	2700	745	11.5	0.2	239	13	5.5
2025-08-08T12:00	2720	743	11.4	-0.3	238	13	5.4
2025-08-08T12:00	2740	741	11.3	-1.4	237	13	5.4
2025-08-08T12:00	2760	740	11.3	-2.1	236	13	5.4
2025-08-08T12:00	2780	738	11.1	-2.2	235	13	5.4
2025-08-08T12:00	2800	736	11.0	-2.5	235	13	5.4
2025-08-08T12:00	2820	735	10.9	-3.0	235	13	5.3
2025-08-08T12:00	2840	733	10.8	-3.0	235	13	5.4
2025-08-08T12:00	2860	731	10.6	-4.2	235	13	5.4
2025-08-08T12:00	2880	729	10.5	-4.5	235	13	5.3
2025-08-08T12:00	2900	727	10.4	-5.0	236	13	5.3
2025-08-08T12:00	2920	726	10.2	-5.7	237	13	5.3
2025-08-08T12:00	2940	724	10.0	-6.4	237	13	5.3
2025-08-08T12:00	2960	722	9.9	-7.1	239	12	5.3
2025-08-08T12:00	2980	721	9.8	-7.2	239	12	5.3
2025-08-08T12:00	3000	719	9.8	-11.7	240	12	5.3
2025-08-08T12:00	3020	717	9.9	-18.3	241	12	5.3
2025-08-08T12:00	3040	715	9.9	-19.3	241	11	5.3
2025-08-08T12:00	3060	713	9.7	-19.2	241	11	5.2
2025-08-08T12:00	3080	712	9.5	-19.3	242	11	5.2
2025-08-08T12:00	3100	710	9.4	-20.1	242	11	5.2
2025-08-08T12:00	3120	708	9.2	-21.5	243	11	5.1
2025-08-08T12:00	3140	707	9.1	-23.5	244	11	5.1
2025-08-08T12:00	3160	705	9.0	-23.8	246	11	5.0
2025-08-08T12:00	3180	703	9.0	-24.8	247	11	5.0
2025-08-08T12:00	3200	702	8.9	-24.5	249	11	4.9
2025-08-08T12:00	3220	700	8.8	-21.2	251	12	4.8
2025-08-08T12:00	3240	698	8.8	-20.4	252	13	4.7
2025-08-08T12:00	3260	696	8.8	-20.5	252	13	4.7
2025-08-08T12:00	3280	695	8.8	-20.4	253	13	4.6
2025-08-08T12:00	3300	693	8.6	-20.4	253	14	4.6
2025-08-08T12:00	3320	691	8.5	-20.5	253	14	4.6
2025-08-08T12:00	3340	690	8.5	-20.6	254	14	4.6
2025-08-08T12:00	3360	688	8.3	-21.0	255	14	4.6
2025-08-08T12:00	3380	686	8.2	-21.4	256	14	4.6
2025-08-08T12:00	3400	685	8.1	-21.7	258	13	4.5
2025-08-08T12:00	3420	683	7.9	-21.9	260	13	4.5
2025-08-08T12:00	3440	681	7.8	-22.1	261	13	4.5
2025-08-08T12:00	3460	680	7.8	-20.6	264	13	4.5
2025-08-08T12:00	3480	678	7.8	-19.9	266	13	4.4
2025-08-08T12:00	3500	677	7.9	-20.9	267	13	4.4
2025-08-08T12:00	3520	675	8.0	-18.3	268	13	4.4
2025-08-08T12:00	3540	673	7.8	-15.0	269	13	4.4
2025-08-08T12:00	3560	672	7.7	-12.9	269	13	4.4
2025-08-08T12:00	3580	670	7.5	-10.2	268	13	4.4
2025-08-08T12:00	3600	668	7.4	-5.5	268	13	4.3
2025-08-08T12:00	3620	667	7.3	-5.0	267	13	4.2
2025-08-08T12:00	3640	665	7.1	-4.8	267	13	4.1
2025-08-08T12:00	3660	663	7.0	-3.6	266	14	4.0
2025-08-08T12:00	3680	662	6.9	-2.4	266	14	3.9
2025-08-08T12:00	3700	660	6.7	-2.3	266	14	3.7
2025-08-08T12:00	3720	659	6.5	-2.2	266	14	3.5
2025-08-08T12:00	3740	657	6.3	-2.3	266	14	3.4
2025-08-08T12:00	3760	655	6.2	-2.3	265	14	3.3
2025-08-08T12:00	3780	654	6.0	-2.5	264	14	3.1
2025-08-08T12:00	3800	652	5.9	-2.7	263	14	3.1
2025-08-08T12:00	3820	651	5.7	-2.7	263	14	3.0
2025-08-08T12:00	3840	649	5.6	-2.8	262	14	3.0
2025-08-08T12:00	3860	647	5.5	-2.9	262	14	3.0
2025-08-08T12:00	3880	646	5.3	-3.0	262	14	2.9
2025-08-08T12:00	3900	644	5.1	-3.1	262	14	2.9
2025-08-08T12:00	3920	643	5.0	-3.2	262	14	2.9
2025-08-08T12:00	3940	641	4.9	-3.2	262	14	3.0
2025-08-08T12:00	3960	640	4.8	-3.3	261	14	3.0
2025-08-08T12:00	3980	638	4.7	-3.6	261	14	3.0
2025-08-08T12:00	4000	636	4.7	-4.4	260	14	3.0
2025-08-08T12:00	4020	635	4.7	-5.8	260	14	3.1
2025-08-08T12:00	4040	633	4.6	-5.6	260	14	3.1
2025-08-08T12:00	4060	632	4.5	-5.8	260	14	3.1
2025-08-08T12:00	4080	630	4.4	-5.9	260	14	3.2
2025-08-08T12:00	4100	629	4.2	-6.3	261	14	3.2
2025-08-08T12:00	4120	627	4.2	-6.1	261	14	3.3
2025-08-08T12:00	4140	625	4.0	-5.6	262	14	3.3
2025-08-08T12:00	4160	624	3.8	-5.5	262	14	3.2
2025-08-08T12:00	4180	622	3.6	-4.9	262	14	3.2
2025-08-08T12:00	4200	621	3.5	-4.3	261	14	3.1
2025-08-08T12:00	4220	619	3.3	-3.7	261	14	3.1
2025-08-08T12:00	4240	618	3.1	-3.1	260	14	3.0
2025-08-08T12:00	4260	617	2.9	-3.1	260	14	2.9
2025-08-08T12:00	4280	615	2.8	-3.3	259	14	2.9
2025-08-08T12:00	4300	613	2.6	-3.5	258	14	2.8
2025-08-08T12:00	4320	612	2.4	-3.8	258	14	2.7
2025-08-08T12:00	4340	610	2.3	-3.7	258	14	2.7
2025-08-08T12:00	4360	609	2.1	-3.3	258	14	2.7
2025-08-08T12:00	4380	608	1.9	-3.4	257	14	2.6
2025-08-08T12:00	4400	606	1.8	-3.5	257	14	2.6
2025-08-08T12:00	4420	604	1.7	-3.5	256	14	2.6
2025-08-08T12:00	4440	603	1.5	-3.4	255	14	2.5
2025-08-08T12:00	4460	601	1.4	-4.2	254	13	2.5
2025-08-08T12:00	4480	600	1.3	-6.2	254	13	2.4
2025-08-08T12:00	4500	598	1.4	-10.3	253	13	2.5
2025-08-08T12:00	4520	597	1.2	-7.6	253	13	2.6
2025-08-08T12:00	4540	595	1.0	-6.2	253	13	2.7
2025-08-08T12:00	4560	594	1.1	-8.6	253	13	2.7
2025-08-08T12:00	4580	592	1.0	-7.9	254	13	2.7
2025-08-08T12:00	4600	591	0.9	-8.5	254	13	2.8
2025-08-08T12:00	4620	590	0.8	-8.5	255	13	2.8
2025-08-08T12:00	4640	588	0.8	-10.0	255	13	2.8
2025-08-08T12:00	4660	587	0.8	-10.5	255	13	2.9
2025-08-08T12:00	4680	585	0.7	-10.3	255	13	3.0
2025-08-08T12:00	4700	584	0.5	-8.4	255	13	3.1
2025-08-08T12:00	4720	582	0.3	-8.4	255	13	3.2
2025-08-08T12:00	4740	581	0.2	-8.8	255	13	3.2
2025-08-08T12:00	4760	579	0.1	-8.9	255	13	3.2
2025-08-08T12:00	4780	578	-0.1	-8.9	255	13	3.2
2025-08-08T12:00	4800	576	-0.3	-9.4	255	13	3.3
2025-08-08T12:00	4820	575	-0.4	-9.7	255	13	3.3
2025-08-08T12:00	4840	574	-0.6	-9.4	254	13	3.3
2025-08-08T12:00	4860	572	-0.7	-9.4	254	13	3.3
2025-08-08T12:00	4880	571	-0.8	-9.6	254	13	3.3
2025-08-08T12:00	4900	569	-0.9	-10.4	254	13	3.3
2025-08-08T12:00	4920	568	-0.9	-11.6	254	13	3.4
2025-08-08T12:00	4940	566	-0.9	-13.0	254	13	3.4
2025-08-08T12:00	4960	565	-1.0	-13.9	254	13	3.5
2025-08-08T12:00	4980	564	-1.0	-13.9	254	13	3.6
2025-08-08T12:00	5000	562	-1.0	-14.9	255	13	3.7
2025-08-08T12:00	5020	561	-1.1	-13.2	255	13	3.8
2025-08-08T12:00	5040	559	-1.3	-12.5	256	13	3.8
2025-08-08T12:00	5060	558	-1.4	-13.2	257	13	3.8
2025-08-08T12:00	5080	557	-1.5	-13.2	259	13	3.8
2025-08-08T12:00	5100	555	-1.6	-13.5	260	13	3.8
2025-08-08T12:00	5120	554	-1.6	-14.0	262	13	3.8
2025-08-08T12:00	5140	552	-1.6	-14.2	262	13	3.9
2025-08-08T12:00	5160	551	-1.7	-13.8	263	13	3.9
2025-08-08T12:00	5180	550	-1.7	-14.0	264	13	3.9
2025-08-08T12:00	5200	548	-1.7	-14.5	264	13	3.9
2025-08-08T12:00	5220	547	-1.7	-14.8	263	13	4.0
2025-08-08T12:00	5240	545	-1.8	-14.5	262	13	4.0
2025-08-08T12:00	5260	544	-1.8	-13.3	262	13	4.0
2025-08-08T12:00	5280	543	-2.0	-12.1	261	12	3.9
2025-08-08T12:00	5300	541	-2.2	-11.3	262	12	3.8
2025-08-08T12:00	5320	540	-2.4	-10.7	262	12	3.7
2025-08-08T12:00	5340	539	-2.6	-9.9	263	12	3.6
2025-08-08T12:00	5360	537	-2.8	-8.7	264	12	3.5
2025-08-08T12:00	5380	536	-2.9	-8.8	265	13	3.2
2025-08-08T12:00	5400	535	-3.1	-9.0	266	12	3.0
2025-08-08T12:00	5420	533	-3.2	-9.1	266	12	2.9
2025-08-08T12:00	5440	532	-3.3	-9.0	266	12	2.8
2025-08-08T12:00	5460	531	-3.4	-9.2	266	12	2.7
2025-08-08T12:00	5480	529	-3.6	-9.9	266	12	2.5
2025-08-08T12:00	5500	528	-3.7	-10.6	265	12	2.5
2025-08-08T12:00	5520	527	-3.8	-10.9	265	12	2.5
2025-08-08T12:00	5540	525	-4.0	-11.4	266	12	2.5
2025-08-08T12:00	5560	524	-4.1	-12.0	266	12	2.5
2025-08-08T12:00	5580	523	-4.2	-12.0	267	12	2.6
2025-08-08T12:00	5600	521	-4.4	-11.5	267	12	2.7
2025-08-08T12:00	5620	520	-4.5	-11.5	268	12	2.7
2025-08-08T12:00	5640	519	-4.6	-12.2	268	12	2.7
2025-08-08T12:00	5660	517	-4.6	-12.2	268	12	2.7
2025-08-08T12:00	5680	516	-4.7	-12.2	268	12	2.7
2025-08-08T12:00	5700	515	-4.9	-12.2	268	12	2.7
2025-08-08T12:00	5720	513	-5.1	-12.0	268	12	2.8
2025-08-08T12:00	5740	512	-5.3	-11.9	268	12	2.8
2025-08-08T12:00	5760	511	-5.5	-11.7	268	12	2.8
2025-08-08T12:00	5780	509	-5.7	-11.9	269	12	2.8
2025-08-08T12:00	5800	508	-5.9	-11.8	269	12	2.8
2025-08-08T12:00	5820	507	-6.0	-12.0	270	12	2.8
2025-08-08T12:00	5840	506	-6.2	-12.1	270	12	2.8
2025-08-08T12:00	5860	504	-6.4	-12.3	271	12	2.8
2025-08-08T12:00	5880	503	-6.6	-12.5	271	12	2.8
2025-08-08T12:00	5900	502	-6.7	-12.7	271	12	2.8
2025-08-08T12:00	5920	500	-6.8	-13.8	271	12	2.8
2025-08-08T12:00	5940	499	-7.0	-14.0	271	12	2.8
2025-08-08T12:00	5960	498	-7.1	-13.0	271	12	2.8
2025-08-08T12:00	5980	497	-7.3	-11.9	271	12	2.8
2025-08-08T12:00	6000	495	-7.5	-12.2	271	12	2.7
2025-08-08T12:00	6020	494	-7.6	-12.3	271	12	2.6
2025-08-08T12:00	6040	493	-7.7	-12.6	271	13	2.5
2025-08-08T12:00	6060	492	-7.8	-13.1	272	13	2.4
2025-08-08T12:00	6080	490	-8.0	-13.3	272	13	2.2
2025-08-08T12:00	6100	489	-8.2	-13.2	272	13	2.2
2025-08-08T12:00	6120	488	-8.3	-13.2	272	13	2.1
2025-08-08T12:00	6140	486	-8.4	-13.5	272	13	2.1
2025-08-08T12:00	6160	485	-8.6	-14.3	272	13	2.0
2025-08-08T12:00	6180	484	-8.7	-15.5	272	13	2.0
2025-08-08T12:00	6200	483	-8.8	-15.5	272	14	2.0
2025-08-08T12:00	6220	482	-9.0	-15.3	272	14	2.0
2025-08-08T12:00	6240	480	-9.2	-15.2	272	14	2.0
2025-08-08T12:00	6260	479	-9.4	-15.3	272	14	2.0
2025-08-08T12:00	6280	478	-9.6	-15.6	273	14	2.1
2025-08-08T12:00	6300	477	-9.8	-15.9	273	13	2.1
2025-08-08T12:00	6320	475	-9.9	-16.0	273	13	2.1
2025-08-08T12:00	6340	474	-10.1	-15.6	273	13	2.1
2025-08-08T12:00	6360	473	-10.3	-15.6	273	13	2.1
2025-08-08T12:00	6380	472	-10.4	-15.4	273	13	2.0
2025-08-08T12:00	6400	471	-10.5	-14.9	274	13	2.0
2025-08-08T12:00	6420	469	-10.6	-15.0	274	13	2.0
2025-08-08T12:00	6440	468	-10.8	-15.4	274	13	2.0
2025-08-08T12:00	6460	467	-10.9	-15.9	275	13	1.9
2025-08-08T12:00	6480	466	-10.9	-16.7	275	14	1.9
2025-08-08T12:00	6500	464	-11.0	-17.3	276	14	1.9
2025-08-08T12:00	6520	463	-11.1	-17.5	276	14	2.0
2025-08-08T12:00	6540	462	-11.2	-18.0	276	14	2.1
2025-08-08T12:00	6560	461	-11.3	-19.3	276	14	2.1
2025-08-08T12:00	6580	460	-11.3	-19.9	276	15	2.2
2025-08-08T12:00	6600	458	-11.4	-22.1	275	15	2.2
2025-08-08T12:00	6620	457	-11.5	-23.6	275	15	2.4
2025-08-08T12:00	6640	456	-11.6	-23.1	275	16	2.5
2025-08-08T12:00	6660	455	-11.7	-22.3	276	16	2.7
2025-08-08T12:00	6680	454	-11.9	-20.8	276	16	2.7
2025-08-08T12:00	6700	452	-12.0	-21.8	276	16	2.8
2025-08-08T12:00	6720	451	-11.9	-25.8	276	17	2.8
2025-08-08T12:00	6740	450	-11.9	-27.6	276	17	2.8
2025-08-08T12:00	6760	449	-12.0	-27.4	276	17	3.0
2025-08-08T12:00	6780	448	-12.2	-22.6	276	17	3.1
2025-08-08T12:00	6800	447	-12.4	-19.8	275	17	3.1
2025-08-08T12:00	6820	445	-12.6	-19.6	275	18	3.0
2025-08-08T12:00	6840	444	-12.7	-20.1	274	18	2.9
2025-08-08T12:00	6860	443	-12.7	-21.2	273	18	2.7
2025-08-08T12:00	6880	442	-12.8	-22.6	273	18	2.6
2025-08-08T12:00	6900	441	-12.8	-23.3	273	18	2.5
2025-08-08T12:00	6920	440	-12.9	-24.2	272	19	2.5
2025-08-08T12:00	6940	438	-13.0	-25.5	272	19	2.5
2025-08-08T12:00	6960	437	-13.2	-26.6	271	19	2.6
2025-08-08T12:00	6980	436	-13.3	-25.9	271	19	2.7
2025-08-08T12:00	7000	435	-13.5	-24.9	271	19	2.9
2025-08-08T12:00	7020	434	-13.6	-24.6	270	19	2.9
2025-08-08T12:00	7040	433	-13.8	-24.8	270	19	2.9
2025-08-08T12:00	7060	432	-13.9	-24.9	269	19	2.8
2025-08-08T12:00	7080	430	-14.0	-24.9	269	19	2.7
2025-08-08T12:00	7100	429	-14.1	-24.8	268	19	2.6
2025-08-08T12:00	7120	428	-14.3	-25.0	268	19	2.6
2025-08-08T12:00	7140	427	-14.5	-25.2	267	19	2.5
2025-08-08T12:00	7160	426	-14.6	-25.2	267	19	2.4
2025-08-08T12:00	7180	425	-14.8	-25.3	266	19	2.3
2025-08-08T12:00	7200	423	-15.0	-25.4	265	19	2.2
2025-08-08T12:00	7220	422	-15.1	-25.7	265	19	2.1
2025-08-08T12:00	7240	421	-15.2	-26.0	264	19	2.1
2025-08-08T12:00	7260	420	-15.3	-26.2	263	19	2.0
2025-08-08T12:00	7280	419	-15.5	-26.3	263	19	2.0
2025-08-08T12:00	7300	418	-15.7	-26.4	262	19	1.9
2025-08-08T12:00	7320	417	-15.8	-26.6	262	19	1.9
2025-08-08T12:00	7340	416	-16.1	-26.8	262	19	1.9
2025-08-08T12:00	7360	415	-16.2	-28.0	262	19	1.9
2025-08-08T12:00	7380	414	-16.1	-29.4	262	19	1.9
2025-08-08T12:00	7400	413	-16.2	-29.3	262	19	1.9
2025-08-08T12:00	7420	411	-16.4	-29.1	262	19	2.0
2025-08-08T12:00	7440	410	-16.7	-28.6	262	19	2.0
2025-08-08T12:00	7460	409	-16.9	-28.5	261	19	2.0
2025-08-08T12:00	7480	408	-17.0	-28.6	261	19	2.0
2025-08-08T12:00	7500	407	-17.2	-28.7	261	19	2.0
2025-08-08T12:00	7520	406	-17.3	-28.9	262	19	2.0
2025-08-08T12:00	7540	405	-17.4	-29.4	262	19	1.9
2025-08-08T12:00	7560	404	-17.5	-29.7	262	19	1.9
2025-08-08T12:00	7580	403	-17.7	-29.8	262	19	1.9
2025-08-08T12:00	7600	402	-17.9	-30.3	261	19	1.9
2025-08-08T12:00	7620	401	-17.9	-30.9	261	19	1.9
2025-08-08T12:00	7640	400	-18.1	-31.0	260	19	1.9
2025-08-08T12:00	7660	398	-18.3	-31.3	260	19	1.9
2025-08-08T12:00	7680	397	-18.4	-31.7	259	19	1.9
2025-08-08T12:00	7700	396	-18.5	-31.8	259	19	1.9
2025-08-08T12:00	7720	395	-18.7	-32.1	258	19	1.9
2025-08-08T12:00	7740	394	-18.9	-32.4	257	19	2.0
2025-08-08T12:00	7760	393	-19.1	-32.7	256	19	2.0
2025-08-08T12:00	7780	392	-19.2	-33.2	255	19	2.0
2025-08-08T12:00	7800	391	-19.3	-33.5	255	20	2.0
2025-08-08T12:00	7820	390	-19.5	-34.0	254	20	2.0
2025-08-08T12:00	7840	389	-19.7	-34.6	253	20	2.1
2025-08-08T12:00	7860	388	-19.8	-36.0	253	20	2.1
2025-08-08T12:00	7880	387	-19.9	-37.9	252	21	2.2
2025-08-08T12:00	7900	386	-20.0	-39.8	252	21	2.3
2025-08-08T12:00	7920	385	-20.0	-42.4	251	21	2.4
2025-08-08T12:00	7940	384	-20.1	-42.5	251	21	2.6
2025-08-08T12:00	7960	383	-20.1	-42.9	250	21	2.7
2025-08-08T12:00	7980	382	-20.2	-43.3	250	21	2.8
2025-08-08T12:00	8000	381	-20.2	-43.0	250	21	2.9
2025-08-08T12:00	8020	380	-20.4	-42.8	250	21	3.0
2025-08-08T12:00	8040	379	-20.6	-43.3	250	21	3.1
2025-08-08T12:00	8060	378	-20.7	-42.9	250	21	3.1
2025-08-08T12:00	8080	376	-20.9	-42.7	251	21	3.2
2025-08-08T12:00	8100	376	-21.1	-42.4	251	21	3.2
2025-08-08T12:00	8120	375	-21.2	-42.4	251	21	3.2
2025-08-08T12:00	8140	373	-21.4	-42.6	252	21	3.2
2025-08-08T12:00	8160	372	-21.6	-42.8	252	21	3.2
2025-08-08T12:00	8180	372	-21.8	-43.0	253	21	3.2
2025-08-08T12:00	8200	370	-21.9	-43.3	253	21	3.2
2025-08-08T12:00	8220	369	-22.1	-43.5	253	21	3.2
2025-08-08T12:00	8240	368	-22.2	-43.9	253	21	3.3
2025-08-08T12:00	8260	367	-22.4	-44.1	253	21	3.3
2025-08-08T12:00	8280	366	-22.6	-44.0	253	21	3.3
2025-08-08T12:00	8300	365	-22.7	-44.2	252	22	3.3
2025-08-08T12:00	8320	365	-22.9	-44.3	252	22	3.2
2025-08-08T12:00	8340	363	-23.1	-44.4	251	22	3.3
2025-08-08T12:00	8360	362	-23.3	-44.4	251	22	3.3
2025-08-08T12:00	8380	361	-23.4	-44.4	251	21	3.2
2025-08-08T12:00	8400	360	-23.6	-44.3	251	21	3.2
2025-08-08T12:00	8420	359	-23.8	-44.2	250	21	3.3
2025-08-08T12:00	8440	359	-24.0	-44.2	250	21	3.2
2025-08-08T12:00	8460	358	-24.1	-44.1	250	21	3.2
2025-08-08T12:00	8480	356	-24.4	-44.3	250	21	3.2
2025-08-08T12:00	8500	356	-24.6	-44.1	250	21	3.2
2025-08-08T12:00	8520	355	-24.7	-44.3	250	21	3.2
2025-08-08T12:00	8540	354	-24.9	-44.5	250	21	3.2
2025-08-08T12:00	8560	353	-25.1	-44.6	250	21	3.1
2025-08-08T12:00	8580	352	-25.4	-44.6	250	21	3.1
2025-08-08T12:00	8600	351	-25.5	-44.8	250	21	3.1
2025-08-08T12:00	8620	350	-25.7	-44.9	250	21	3.1
2025-08-08T12:00	8640	349	-25.8	-44.8	250	21	3.1
2025-08-08T12:00	8660	348	-26.0	-44.9	250	21	3.1
2025-08-08T12:00	8680	347	-26.2	-45.0	250	21	3.1
2025-08-08T12:00	8700	346	-26.4	-44.9	250	21	3.1
2025-08-08T12:00	8720	345	-26.6	-44.9	250	21	3.1
2025-08-08T12:00	8740	344	-26.8	-45.0	250	21	3.1
2025-08-08T12:00	8760	343	-27.0	-45.0	249	21	3.1
2025-08-08T12:00	8780	342	-27.2	-45.0	248	21	3.1
2025-08-08T12:00	8800	341	-27.3	-44.9	248	21	3.1
2025-08-08T12:00	8820	340	-27.5	-44.9	248	21	3.1
2025-08-08T12:00	8840	339	-27.7	-44.7	247	21	3.1
2025-08-08T12:00	8860	338	-27.9	-44.7	247	21	3.0
2025-08-08T12:00	8880	337	-28.1	-44.7	248	21	3.0
2025-08-08T12:00	8900	336	-28.3	-44.7	248	22	3.0
2025-08-08T12:00	8920	335	-28.5	-44.7	248	22	3.0
2025-08-08T12:00	8940	335	-28.6	-44.8	248	22	3.0
2025-08-08T12:00	8960	334	-28.8	-44.8	248	22	3.1
2025-08-08T12:00	8980	333	-29.0	-44.8	248	22	3.1
2025-08-08T12:00	9000	332	-29.2	-44.9	248	22	3.1
2025-08-08T12:00	9020	331	-29.4	-45.2	248	22	3.1
2025-08-08T12:00	9040	330	-29.5	-45.7	248	23	3.1
2025-08-08T12:00	9060	329	-29.6	-46.7	248	23	3.1
2025-08-08T12:00	9080	328	-29.7	-47.2	248	22	3.2
2025-08-08T12:00	9100	327	-29.8	-47.3	248	22	3.2
2025-08-08T12:00	9120	326	-30.0	-47.5	248	22	3.2
2025-08-08T12:00	9140	325	-30.2	-47.7	249	22	3.2
2025-08-08T12:00	9160	324	-30.3	-48.3	249	22	3.2
2025-08-08T12:00	9180	324	-30.5	-48.6	249	22	3.2
2025-08-08T12:00	9200	323	-30.6	-48.6	249	22	3.2
2025-08-08T12:00	9220	322	-30.7	-48.5	249	22	3.2
2025-08-08T12:00	9240	321	-31.0	-48.6	249	22	3.2
2025-08-08T12:00	9260	320	-31.1	-48.8	249	22	3.2
2025-08-08T12:00	9280	319	-31.3	-48.7	249	22	3.2
2025-08-08T12:00	9300	318	-31.5	-48.7	248	22	3.2
2025-08-08T12:00	9320	317	-31.7	-48.6	248	22	3.1
2025-08-08T12:00	9340	316	-31.9	-48.5	248	22	3.1
2025-08-08T12:00	9360	315	-32.0	-48.7	248	22	3.1
2025-08-08T12:00	9380	314	-32.1	-49.2	248	22	3.1
2025-08-08T12:00	9400	314	-32.3	-49.3	248	22	3.1
2025-08-08T12:00	9420	313	-32.5	-49.5	248	22	3.1
2025-08-08T12:00	9440	312	-32.6	-49.8	248	22	3.0
2025-08-08T12:00	9460	311	-32.7	-50.3	248	21	3.0
2025-08-08T12:00	9480	310	-32.8	-50.8	249	21	3.0
2025-08-08T12:00	9500	309	-33.0	-50.9	249	21	2.9
2025-08-08T12:00	9520	308	-33.2	-50.9	249	21	2.9
2025-08-08T12:00	9540	307	-33.3	-51.3	249	21	2.9
2025-08-08T12:00	9560	307	-33.4	-51.5	249	21	2.9
2025-08-08T12:00	9580	306	-33.6	-51.7	248	21	2.9
2025-08-08T12:00	9600	305	-33.6	-52.5	248	21	2.8
2025-08-08T12:00	9620	304	-33.7	-52.7	248	21	2.8
2025-08-08T12:00	9640	303	-33.8	-53.0	249	21	2.8
2025-08-08T12:00	9660	302	-33.9	-53.2	249	21	2.8
2025-08-08T12:00	9680	301	-34.1	-53.3	250	21	2.7
2025-08-08T12:00	9700	300	-34.2	-53.5	250	21	2.7
2025-08-08T12:00	9720	300	-34.4	-53.5	250	21	2.7
2025-08-08T12:00	9740	299	-34.6	-53.6	251	21	2.7
2025-08-08T12:00	9760	298	-34.8	-53.7	251	22	2.6
2025-08-08T12:00	9780	297	-34.9	-53.7	251	22	2.6
2025-08-08T12:00	9800	296	-35.1	-53.8	252	22	2.6
2025-08-08T12:00	9820	295	-35.3	-53.8	252	22	2.6
2025-08-08T12:00	9840	295	-35.4	-53.9	251	22	2.6
2025-08-08T12:00	9860	294	-35.7	-53.9	251	22	2.6
2025-08-08T12:00	9880	293	-35.8	-54.0	251	22	2.6
2025-08-08T12:00	9900	292	-35.9	-54.1	250	22	2.6
2025-08-08T12:00	9920	291	-36.1	-54.3	250	23	2.6
2025-08-08T12:00	9940	290	-36.2	-54.6	249	23	2.6
2025-08-08T12:00	9960	289	-36.4	-54.5	249	23	2.6
2025-08-08T12:00	9980	289	-36.5	-54.6	249	23	2.6
2025-08-08T12:00	10000	288	-36.7	-54.9	249	23	2.6
2025-08-08T12:00	10018	287	-36.8	-55.5	249	23	2.7
2025-08-08T12:00	10050	286	-36.9	-55.9	249	23	2.6
2025-08-08T12:00	10100	284	-37.1	-56.1	249	23	2.5
2025-08-08T12:00	10150	282	-37.5	-56.0	249	22	2.5
2025-08-08T12:00	10200	280	-37.9	-56.5	249	22	2.4
2025-08-08T12:00	10250	277	-38.3	-56.5	249	22	2.3
2025-08-08T12:00	10300	276	-38.7	-56.6	249	22	2.3
2025-08-08T12:00	10350	274	-39.2	-57.0	250	21	2.3
2025-08-08T12:00	10400	271	-39.7	-56.9	250	21	2.3
2025-08-08T12:00	10450	270	-40.1	-57.3	250	21	2.2
2025-08-08T12:00	10500	268	-40.5	-57.3	250	21	2.2
2025-08-08T12:00	10550	266	-41.0	-57.2	250	21	2.2
2025-08-08T12:00	10600	264	-41.3	-57.0	249	21	2.2
2025-08-08T12:00	10650	262	-41.8	-56.2	249	21	2.1
2025-08-08T12:00	10700	260	-42.2	-56.9	249	21	2.0
2025-08-08T12:00	10750	258	-42.7	-56.7	248	21	2.0
2025-08-08T12:00	10800	256	-43.2	-57.0	248	21	1.9
2025-08-08T12:00	10850	254	-43.6	-56.9	247	21	2.0
2025-08-08T12:00	10900	252	-44.1	-57.0	247	21	1.9
2025-08-08T12:00	10950	250	-44.6	-56.9	245	21	1.9
2025-08-08T12:00	11000	249	-44.9	-57.4	244	21	1.9
2025-08-08T12:00	11050	247	-45.3	-57.8	242	21	1.9
2025-08-08T12:00	11100	245	-45.8	-57.6	242	21	1.9
2025-08-08T12:00	11150	243	-46.2	-58.4	243	21	1.9
2025-08-08T12:00	11200	241	-46.6	-58.7	244	21	1.9
2025-08-08T12:00	11250	239	-47.1	-58.9	244	21	1.9
2025-08-08T12:00	11300	238	-47.6	-59.5	244	21	1.9
2025-08-08T12:00	11350	236	-48.0	-59.7	244	21	2.0
2025-08-08T12:00	11400	234	-48.5	-59.1	243	21	2.0
2025-08-08T12:00	11450	232	-48.9	-58.3	243	21	2.0
2025-08-08T12:00	11500	230	-49.3	-57.6	243	21	1.9
2025-08-08T12:00	11550	229	-49.8	-57.8	244	21	1.8
2025-08-08T12:00	11600	227	-50.3	-57.9	244	21	1.8
2025-08-08T12:00	11650	225	-50.7	-58.5	243	21	1.7
2025-08-08T12:00	11700	223	-51.1	-59.2	242	21	1.6
2025-08-08T12:00	11750	222	-51.4	-60.3	241	21	1.6
2025-08-08T12:00	11800	220	-51.7	-61.0	239	21	1.6
2025-08-08T12:00	11850	218	-52.1	-61.3	239	21	1.6
2025-08-08T12:00	11900	217	-52.5	-61.7	238	21	1.6
2025-08-08T12:00	11950	215	-52.9	-62.3	238	21	1.6
2025-08-08T12:00	12000	213	-53.2	-63.0	238	21	1.6
2025-08-08T12:00	12050	212	-53.6	-63.5	239	21	1.6
2025-08-08T12:00	12100	210	-54.1	-63.2	239	22	1.6
2025-08-08T12:00	12150	208	-54.6	-63.2	239	22	1.5
2025-08-08T12:00	12200	207	-54.9	-64.2	239	22	1.5
2025-08-08T12:00	12250	205	-55.3	-63.9	238	22	1.5
2025-08-08T12:00	12300	204	-55.7	-63.5	238	22	1.5
2025-08-08T12:00	12350	202	-56.1	-63.9	237	22	1.6
2025-08-08T12:00	12400	200	-56.5	-64.3	238	23	1.6
2025-08-08T12:00	12450	199	-56.9	-64.7	238	23	1.6
2025-08-08T12:00	12500	197	-57.3	-65.2	238	23	1.6
2025-08-08T12:00	12550	196	-57.6	-65.5	237	23	1.6
2025-08-08T12:00	12600	194	-58.0	-66.1	236	24	1.6
2025-08-08T12:00	12650	193	-58.4	-66.7	235	24	1.6
2025-08-08T12:00	12700	191	-58.8	-67.0	235	24	1.5
2025-08-08T12:00	12750	190	-59.2	-67.1	235	24	1.4
2025-08-08T12:00	12800	188	-59.5	-67.0	236	24	1.4
2025-08-08T12:00	12850	186	-59.8	-66.7	236	24	1.4
2025-08-08T12:00	12900	185	-60.2	-66.5	236	24	1.4
2025-08-08T12:00	12950	184	-60.6	-66.1	236	23	1.4
2025-08-08T12:00	13000	182	-61.1	-65.8	235	23	1.4
2025-08-08T12:00	13050	181	-61.4	-65.6	236	24	1.3
2025-08-08T12:00	13100	179	-61.7	-66.1	237	24	1.4
2025-08-08T12:00	13150	178	-62.0	-66.5	238	24	1.4
2025-08-08T12:00	13200	176	-62.4	-67.0	239	23	1.4
2025-08-08T12:00	13250	175	-62.5	-67.6	240	23	1.4
2025-08-08T12:00	13300	174	-62.6	-68.5	239	22	1.4
2025-08-08T12:00	13350	172	-62.4	-69.8	238	22	1.4
2025-08-08T12:00	13400	171	-62.4	-71.6	235	21	1.4
2025-08-08T12:00	13450	169	-62.3	-73.1	233	21	1.4
2025-08-08T12:00	13500	168	-62.5	-73.9	231	22	1.4
2025-08-08T12:00	13550	166	-62.3	-73.6	230	23	1.4
2025-08-08T12:00	13600	165	-62.3	-73.5	230	24	1.4
2025-08-08T12:00	13650	164	-62.5	-74.2	230	24	1.5
2025-08-08T12:00	13700	163	-62.7	-75.1	231	25	1.6
2025-08-08T12:00	13750	161	-62.9	-76.1	232	25	1.5
2025-08-08T12:00	13800	160	-63.0	-76.9	233	26	1.5
2025-08-08T12:00	13850	159	-63.0	-77.1	236	26	1.4
2025-08-08T12:00	13900	157	-63.4	-77.4	240	26	1.3
2025-08-08T12:00	13950	156	-63.7	-77.3	243	25	1.3
2025-08-08T12:00	14000	155	-64.0	-77.3	245	24	1.3
2025-08-08T12:00	14050	153	-64.2	-77.2	247	23	1.3
2025-08-08T12:00	14100	152	-64.4	-76.9	248	23	1.4
2025-08-08T12:00	14150	151	-64.6	-76.8	248	22	1.5
2025-08-08T12:00	14200	150	-64.9	-76.6	247	21	1.5
2025-08-08T12:00	14250	149	-65.3	-76.6	247	21	1.6
2025-08-08T12:00	14300	147	-65.7	-76.9	246	19	1.6
2025-08-08T12:00	14350	146	-65.5	-77.1	244	19	1.6
2025-08-08T12:00	14400	145	-65.2	-78.1	240	19	1.7
2025-08-08T12:00	14450	144	-64.4	-79.4	237	20	1.8
2025-08-08T12:00	14500	143	-64.1	-80.6	236	21	1.9
2025-08-08T12:00	14550	141	-64.3	-80.9	237	21	2.0
2025-08-08T12:00	14600	140	-64.4	-81.2	240	22	2.1
2025-08-08T12:00	14650	139	-64.4	-81.8	244	21	2.2
2025-08-08T12:00	14700	138	-63.8	-81.9	247	20	2.3
2025-08-08T12:00	14750	137	-63.3	-82.2	250	19	2.4
2025-08-08T12:00	14800	136	-63.3	-82.8	253	17	2.5
2025-08-08T12:00	14850	135	-63.5	-83.2	256	16	2.5
2025-08-08T12:00	14900	134	-63.6	-83.2	256	15	2.5
2025-08-08T12:00	14950	132	-63.6	-83.1	253	13	2.6
2025-08-08T12:00	15000	131	-63.7	-83.2	248	12	2.6
2025-08-08T12:00	15050	130	-63.8	-83.2	242	12	2.7
2025-08-08T12:00	15100	129	-63.6	-83.1	236	12	2.7
2025-08-08T12:00	15150	128	-62.8	-83.1	228	13	2.8
2025-08-08T12:00	15200	127	-62.6	-83.2	224	14	2.9
2025-08-08T12:00	15250	126	-62.7	-83.4	222	14	3.0
2025-08-08T12:00	15300	125	-63.0	-83.5	221	16	3.1
2025-08-08T12:00	15350	124	-63.2	-83.5	222	17	3.1
2025-08-08T12:00	15400	123	-63.3	-83.7	226	18	3.2
2025-08-08T12:00	15450	122	-63.3	-83.9	231	19	3.3
2025-08-08T12:00	15500	121	-63.1	-84.1	235	19	3.4
2025-08-08T12:00	15550	120	-63.1	-84.3	240	19	3.4
2025-08-08T12:00	15600	119	-63.0	-84.4	246	19	3.5
2025-08-08T12:00	15650	118	-62.9	-84.5	249	18	3.5
2025-08-08T12:00	15700	117	-63.1	-84.7	251	17	3.5
2025-08-08T12:00	15750	116	-63.4	-84.8	254	16	3.6
2025-08-08T12:00	15800	115	-63.6	-84.8	257	15	3.6
2025-08-08T12:00	15850	114	-63.7	-84.8	260	14	3.6
2025-08-08T12:00	15900	114	-64.0	-84.9	258	14	3.7
2025-08-08T12:00	15950	113	-64.2	-85.0	253	15	3.7
2025-08-08T12:00	16000	112	-64.1	-85.2	254	16	3.7
2025-08-08T12:00	16050	111	-63.8	-85.2	255	16	3.8
2025-08-08T12:00	16100	110	-63.8	-85.3	254	16	3.8
2025-08-08T12:00	16150	109	-63.9	-85.4	254	15	3.8
2025-08-08T12:00	16200	108	-63.8	-85.5	257	15	3.9
2025-08-08T12:00	16250	107	-63.8	-85.6	261	14	3.9
2025-08-08T12:00	16300	106	-63.7	-85.7	263	13	4.0
2025-08-08T12:00	16350	106	-63.8	-85.8	262	12	4.1
2025-08-08T12:00	16400	105	-63.9	-85.8	261	12	4.1
2025-08-08T12:00	16450	104	-64.1	-85.9	259	13	4.2
2025-08-08T12:00	16500	103	-64.0	-86.1	256	14	4.3
2025-08-08T12:00	16550	102	-63.9	-86.4	253	14	4.5
2025-08-08T12:00	16600	101	-63.5	-86.6	250	13	4.6
2025-08-08T12:00	16650	100	-63.1	-86.8	243	11	4.8
2025-08-08T12:00	16700	100	-62.5	-86.8	234	10	5.0
2025-08-08T12:00	16750	99	-62.0	-86.8	227	11	5.2
2025-08-08T12:00	16800	98	-61.5	-86.8	225	12	5.5
2025-08-08T12:00	16850	97	-61.4	-86.9	233	13	5.8
2025-08-08T12:00	16900	97	-61.0	-86.9	242	14	5.9
2025-08-08T12:00	16950	96	-60.3	-86.7	248	15	6.0
2025-08-08T12:00	17000	95	-60.3	-86.8	251	15	6.0
2025-08-08T12:00	17050	94	-59.9	-86.7	255	14	6.0
2025-08-08T12:00	17100	93	-59.6	-86.7	260	12	6.1
2025-08-08T12:00	17150	93	-59.3	-86.8	269	11	6.2
2025-08-08T12:00	17200	92	-58.8	-86.7	275	9	6.3
2025-08-08T12:00	17250	91	-58.2	-86.6	276	8	6.4
2025-08-08T12:00	17300	90	-58.1	-86.5	276	7	6.6
2025-08-08T12:00	17350	90	-58.3	-86.4	273	6	6.7
2025-08-08T12:00	17400	89	-58.6	-86.3	268	6	6.8
2025-08-08T12:00	17450	88	-58.7	-86.4	261	6	6.8
2025-08-08T12:00	17500	88	-58.9	-86.4	253	7	6.9
2025-08-08T12:00	17550	87	-59.3	-86.4	247	8	6.9
2025-08-08T12:00	17600	86	-59.7	-86.6	243	10	6.9
2025-08-08T12:00	17650	86	-60.2	-86.8	243	12	6.8
2025-08-08T12:00	17700	85	-60.4	-86.8	247	12	6.8
2025-08-08T12:00	17750	84	-60.4	-86.9	251	11	6.8
2025-08-08T12:00	17800	84	-60.5	-87.1	253	10	6.9
2025-08-08T12:00	17850	83	-60.4	-87.1	254	9	6.9
2025-08-08T12:00	17900	82	-60.4	-87.2	252	8	7.0
2025-08-08T12:00	17950	82	-60.3	-87.2	240	6	7.1
2025-08-08T12:00	18000	81	-60.0	-87.3	222	6	7.1
2025-08-08T12:00	18050	80	-58.7	-87.0	210	6	7.1
2025-08-08T12:00	18100	80	-58.4	-86.9	205	7	7.2
2025-08-08T12:00	18150	79	-58.6	-86.9	205	7	7.3
2025-08-08T12:00	18200	78	-58.7	-86.9	211	7	7.3
2025-08-08T12:00	18250	78	-58.6	-86.9	222	7	7.4
2025-08-08T12:00	18300	77	-58.6	-86.9	232	7	7.5
2025-08-08T12:00	18350	77	-58.5	-86.9	242	7	7.4
2025-08-08T12:00	18400	76	-58.4	-87.0	249	6	7.3
2025-08-08T12:00	18450	75	-58.6	-87.1	255	6	7.2
2025-08-08T12:00	18500	75	-58.6	-87.1	254	6	7.2
2025-08-08T12:00	18550	74	-58.6	-87.1	245	7	7.3
2025-08-08T12:00	18600	74	-58.6	-87.1	239	8	7.4
2025-08-08T12:00	18650	73	-58.3	-87.0	241	8	7.5
2025-08-08T12:00	18700	72	-58.1	-86.9	247	8	7.8
2025-08-08T12:00	18750	72	-58.4	-86.9	254	8	8.1
2025-08-08T12:00	18800	71	-58.7	-87.0	260	8	8.2
2025-08-08T12:00	18850	71	-58.6	-87.1	261	6	8.3
2025-08-08T12:00	18900	70	-58.4	-87.2	258	5	8.5
2025-08-08T12:00	18950	70	-58.2	-87.1	259	5	8.6
2025-08-08T12:00	19000	69	-58.3	-87.1	252	5	8.6
2025-08-08T12:00	19050	68	-58.4	-87.1	235	5	8.6
2025-08-08T12:00	19100	68	-58.3	-87.1	222	6	8.7
2025-08-08T12:00	19150	67	-58.1	-87.2	221	6	8.8
2025-08-08T12:00	19200	67	-57.5	-87.0	230	6	9.0
2025-08-08T12:00	19250	66	-57.7	-87.0	241	6	9.2
2025-08-08T12:00	19300	66	-58.0	-87.0	252	6	9.4
2025-08-08T12:00	19350	65	-58.1	-87.1	261	6	9.4
2025-08-08T12:00	19400	65	-58.1	-87.1	268	5	9.4
2025-08-08T12:00	19450	64	-58.4	-87.1	266	5	9.4
2025-08-08T12:00	19500	64	-58.5	-87.1	251	4	9.5
2025-08-08T12:00	19550	63	-58.7	-87.2	231	4	9.5
2025-08-08T12:00	19600	63	-58.7	-87.4	222	5	9.5
2025-08-08T12:00	19650	62	-58.5	-87.4	226	5	9.5
2025-08-08T12:00	19700	62	-58.5	-87.4	236	4	9.3
2025-08-08T12:00	19750	61	-58.7	-87.4	248	4	9.0
2025-08-08T12:00	19800	61	-58.9	-87.4	261	3	8.9
2025-08-08T12:00	19850	60	-59.2	-87.6	265	3	8.7
2025-08-08T12:00	19900	60	-59.5	-87.8	259	4	8.6
2025-08-08T12:00	19950	59	-59.2	-87.9	248	3	8.6
2025-08-08T12:00	20000	59	-58.5	-87.7	232	3	8.6
2025-08-08T12:00	20050	58	-58.5		209	2	8.6
2025-08-08T12:00	20100	58	-58.7		185	3	8.7
2025-08-08T12:00	20150	57	-58.8		168	3	8.7
2025-08-08T12:00	20200	57	-58.7		167	4	8.7
2025-08-08T12:00	20250	57	-58.6		182	4	8.7
2025-08-08T12:00	20300	56	-58.1		199	4	8.9
2025-08-08T12:00	20350	56	-57.8		205	3	9.2
2025-08-08T12:00	20400	55	-57.1		195	3	9.5
2025-08-08T12:00	20450	55	-56.9		175	3	9.7
2025-08-08T12:00	20500	54	-56.9		170	4	9.9
2025-08-08T12:00	20550	54	-57.0		177	5	10.0
2025-08-08T12:00	20600	53	-57.0		186	6	10.1
2025-08-08T12:00	20650	53	-56.9		197	6	10.2
2025-08-08T12:00	20700	53	-57.1		206	6	10.2
2025-08-08T12:00	20750	52	-57.3		210	5	10.3
2025-08-08T12:00	20800	52	-57.2		206	5	10.3
2025-08-08T12:00	20850	51	-56.8		192	4	10.3
2025-08-08T12:00	20900	51	-56.7		170	3	10.4
2025-08-08T12:00	20950	51	-56.4		161	3	10.5
2025-08-08T12:00	21000	50	-56.0		156	4	10.7
2025-08-08T12:00	21050	50	-56.0		142	4	10.8
2025-08-08T12:00	21100	49	-56.0		121	3	10.9
2025-08-08T12:00	21150	49	-56.0		105	3	10.9
2025-08-08T12:00	21200	49	-55.9		104	4	11.0
2025-08-08T12:00	21250	48	-55.8		111	5	11.0
2025-08-08T12:00	21300	48	-55.8		120	5	11.2
2025-08-08T12:00	21350	48	-55.9		131	6	11.4
2025-08-08T12:00	21400	47	-56.2		139	6	11.2
2025-08-08T12:00	21450	47	-56.1		145	6	11.3
2025-08-08T12:00	21500	46	-55.9		155	5	11.5
2025-08-08T12:00	21550	46	-55.5		169	4	11.6
2025-08-08T12:00	21600	46	-55.3		187	3	11.5
2025-08-08T12:00	21650	45	-54.8		205	2	11.7
2025-08-08T12:00	21700	45	-54.5		214	2	11.9
2025-08-08T12:00	21750	45	-54.7		191	1	12.1
2025-08-08T12:00	21800	44	-54.6		135	2	12.3
2025-08-08T12:00	21850	44	-54.5		123	3	12.3
2025-08-08T12:00	21900	44	-54.3		125	5	12.4
2025-08-08T12:00	21950	43	-53.8		134	6	12.6
2025-08-08T12:00	22000	43	-53.7		145	7	12.7
2025-08-08T12:00	22050	43	-53.6		154	7	12.9
2025-08-08T12:00	22100	42	-53.5		158	6	12.9
2025-08-08T12:00	22150	42	-53.4		159	6	12.8
2025-08-08T12:00	22200	42	-53.3		155	5	12.8
2025-08-08T12:00	22250	41	-53.2		144	4	13.0
2025-08-08T12:00	22300	41	-53.0		130	4	13.0
2025-08-08T12:00	22350	41	-52.6		117	3	13.0
2025-08-08T12:00	22400	40	-52.2		100	3	13.0
2025-08-08T12:00	22450	40	-52.1		76	3	13.1
2025-08-08T12:00	22500	40	-52.0		69	5	13.2
2025-08-08T12:00	22550	39	-52.0		74	7	13.1
2025-08-08T12:00	22600	39	-51.8		83	9	13.2
2025-08-08T12:00	22650	39	-51.6		93	10	13.2
2025-08-08T12:00	22700	39	-51.5		102	10	13.3
2025-08-08T12:00	22750	38	-51.6		111	10	13.3
2025-08-08T12:00	22800	38	-51.9		120	11	13.3
2025-08-08T12:00	22850	38	-52.0		126	11	13.3
2025-08-08T12:00	22900	37	-52.1		131	10	13.2
2025-08-08T12:00	22950	37	-52.4		135	9	13.2
2025-08-08T12:00	23000	37	-52.5		138	8	13.2
2025-08-08T12:00	23050	36	-52.6		136	7	13.2
2025-08-08T12:00	23100	36	-52.5		131	7	13.2
2025-08-08T12:00	23150	36	-52.3		126	7	13.3
2025-08-08T12:00	23200	36	-52.4		125	8	13.2
2025-08-08T12:00	23250	35	-52.3		125	8	13.1
2025-08-08T12:00	23300	35	-52.2		126	7	13.2
2025-08-08T12:00	23350	35	-52.0		129	6	13.1
2025-08-08T12:00	23400	35	-51.8		127	4	12.9
2025-08-08T12:00	23450	34	-51.8		117	4	12.6
2025-08-08T12:00	23500	34	-51.7		106	4	12.5
2025-08-08T12:00	23550	34	-51.7		99	5	12.3
2025-08-08T12:00	23600	34	-51.9		99	5	12.3
2025-08-08T12:00	23650	33	-52.0		103	6	12.2
2025-08-08T12:00	23700	33	-52.1		108	6	12.1
2025-08-08T12:00	23750	33	-52.3		115	6	11.9
2025-08-08T12:00	23800	33	-52.4		122	7	11.8
2025-08-08T12:00	23850	32	-52.1		122	7	11.7
2025-08-08T12:00	23900	32	-51.8		120	6	11.6
2025-08-08T12:00	23950	32	-51.6		124	5	11.5
2025-08-08T12:00	24000	32	-51.6		134	4	11.4
2025-08-08T12:00	24050	31	-51.2		141	3	11.4
2025-08-08T12:00	24100	31	-50.8		130	2	11.6
2025-08-08T12:00	24150	31	-50.6		95	1	11.7
2025-08-08T12:00	24200	31	-50.4		47	1	11.9
2025-08-08T12:00	24250	30	-50.5		23	2	12.0
2025-08-08T12:00	24300	30	-50.7		21	3	12.1
2025-08-08T12:00	24350	30	-50.7		25	3	12.1
2025-08-08T12:00	24400	30	-50.7		33	4	12.2
2025-08-08T12:00	24450	29	-50.8		46	5	12.3
2025-08-08T12:00	24500	29	-50.8		64	5	12.3
2025-08-08T12:00	24550	29	-50.5		81	5	12.3
2025-08-08T12:00	24600	29	-50.5		95	4	12.4
2025-08-08T12:00	24650	29	-50.5		103	4	12.4
2025-08-08T12:00	24700	28	-50.4		99	4	12.4
2025-08-08T12:00	24750	28	-50.2		84	5	12.5
2025-08-08T12:00	24800	28	-50.1		67	6	12.7
2025-08-08T12:00	24850	28	-50.1		55	7	12.8
2025-08-08T12:00	24900	27	-50.2		53	7	12.8
2025-08-08T12:00	24950	27	-49.9		60	8	12.9
2025-08-08T12:00	25000	27	-49.6		69	7	12.9
2025-08-08T12:00	25050	27	-49.8		78	7	13.0
2025-08-08T12:00	25100	27	-50.1		85	6	13.0
2025-08-08T12:00	25150	26	-50.6		95	5	12.9
2025-08-08T12:00	25200	26	-51.0		110	5	12.9
2025-08-08T12:00	25250	26	-51.4		122	5	12.8
2025-08-08T12:00	25300	26	-51.6		128	6	12.8
2025-08-08T12:00	25350	26	-51.6		128	7	12.7
2025-08-08T12:00	25400	25	-51.1		123	6	12.7
2025-08-08T12:00	25450	25	-50.6		112	5	12.7
2025-08-08T12:00	25500	25	-50.6		95	4	12.7
2025-08-08T12:00	25550	25	-50.7		80	4	12.7
2025-08-08T12:00	25600	25	-50.7		73	4	12.6
2025-08-08T12:00	25650	24	-50.6		76	5	12.6
2025-08-08T12:00	25700	24	-50.5		87	5	12.5
2025-08-08T12:00	25750	24	-50.6		100	6	12.4
2025-08-08T12:00	25800	24	-50.3		111	6	12.4
2025-08-08T12:00	25850	24	-49.8		118	6	12.3
2025-08-08T12:00	25900	24	-49.6		119	6	12.1
2025-08-08T12:00	25950	23	-49.1		118	5	12.0
2025-08-08T12:00	26000	23	-49.0		122	4	11.9
2025-08-08T12:00	26050	23	-49.1		130	3	11.9
2025-08-08T12:00	26100	23	-49.3		127	3	11.9
2025-08-08T12:00	26150	23	-49.2		122	4	11.8
2025-08-08T12:00	26200	22	-49.2		123	5	11.8
2025-08-08T12:00	26250	22	-49.2		123	6	11.8
2025-08-08T12:00	26300	22	-48.9		114	6	11.9
2025-08-08T12:00	26350	22	-48.8		97	5	12.0
2025-08-08T12:00	26400	22	-48.7		78	5	12.2
2025-08-08T12:00	26450	22	-48.2		64	6	12.2
2025-08-08T12:00	26500	21	-48.1		61	6	12.3
2025-08-08T12:00	26550	21	-48.1		64	8	12.4
2025-08-08T12:00	26600	21	-48.1		72	9	12.4
2025-08-08T12:00	26650	21	-48.1		80	10	12.4
2025-08-08T12:00	26700	21	-48.2		87	10	12.3
2025-08-08T12:00	26750	21	-48.3		93	10	12.3
2025-08-08T12:00	26800	21	-48.5		101	9	12.2
2025-08-08T12:00	26850	20	-48.5		106	9	12.2
2025-08-08T12:00	26900	20	-48.5		111	9	12.1
2025-08-08T12:00	26950	20	-48.4		115	10	12.1
2025-08-08T12:00	27000	20	-48.2		114	10	12.0
2025-08-08T12:00	27050	20	-47.8		110	10	12.0
2025-08-08T12:00	27100	20	-47.5		104	10	12.0
2025-08-08T12:00	27150	19	-47.4		97	10	11.9
2025-08-08T12:00	27200	19	-47.5		92	10	11.9
2025-08-08T12:00	27250	19	-47.6		88	11	11.9
2025-08-08T12:00	27300	19	-47.6		89	11	11.8
2025-08-08T12:00	27350	19	-47.6		95	12	11.7
2025-08-08T12:00	27400	19	-47.5		102	12	11.7
2025-08-08T12:00	27450	19	-47.3		109	12	11.6
2025-08-08T12:00	27500	18	-47.4		116	11	11.6
2025-08-08T12:00	27550	18	-47.5		122	11	11.6
2025-08-08T12:00	27600	18	-47.6		125	10	11.5
2025-08-08T12:00	27650	18	-47.7		124	10	11.5
2025-08-08T12:00	27700	18	-47.5		120	10	11.4
2025-08-08T12:00	27750	18	-47.1		116	10	11.3
2025-08-08T12:00	27800	18	-46.8		112	11	11.3
2025-08-08T12:00	27850	18	-46.5		111	12	11.3
2025-08-08T12:00	27900	17	-46.3		113	13	11.3
2025-08-08T12:00	27950	17	-46.4		118	13	11.2
2025-08-08T12:00	28000	17	-46.3		123	12	11.2
2025-08-08T12:00	28050	17	-46.3		128	12	11.2
2025-08-08T12:00	28100	17	-46.5		133	11	11.3
2025-08-08T12:00	28150	17	-46.4		139	11	11.3
2025-08-08T12:00	28200	17	-46.2		143	10	11.3
2025-08-08T12:00	28250	16	-46.2		143	9	11.3
2025-08-08T12:00	28300	16	-45.9		137	8	11.2
2025-08-08T12:00	28350	16	-45.6		124	8	11.2
2025-08-08T12:00	28400	16	-45.3		113	9	11.1
2025-08-08T12:00	28450	16	-45.1		106	10	11.0
2025-08-08T12:00	28500	16	-44.9		104	11	11.0
2025-08-08T12:00	28550	16	-44.8		106	12	10.9
2025-08-08T12:00	28600	16	-44.6		110	12	10.8
2025-08-08T12:00	28650	16	-44.4		115	11	10.7
2025-08-08T12:00	28700	15	-44.4		122	11	10.6
2025-08-08T12:00	28750	15	-44.7		128	10	10.5
2025-08-08T12:00	28800	15	-45.0		133	10	10.4
2025-08-08T12:00	28850	15	-45.3		133	9	10.4
2025-08-08T12:00	28900	15	-45.0		127	8	10.3
2025-08-08T12:00	28950	15	-44.8		116	8	10.2
2025-08-08T12:00	29000	15	-44.8		106	8	10.1
2025-08-08T12:00	29050	15	-44.7		99	10	10.1
2025-08-08T12:00	29100	15	-44.5		94	11	10.0
2025-08-08T12:00	29150	14	-44.4		94	12	9.9
2025-08-08T12:00	29200	14	-44.1		97	13	9.9
2025-08-08T12:00	29250	14	-43.9		101	13	9.8
2025-08-08T12:00	29300	14	-43.9		106	12	9.7
2025-08-08T12:00	29350	14	-44.1		110	11	9.7
2025-08-08T12:00	29400	14	-44.3		114	11	9.6
2025-08-08T12:00	29450	14	-44.4		115	9	9.6
2025-08-08T12:00	29500	14	-44.4		110	8	9.5
2025-08-08T12:00	29550	14	-44.3		99	7	9.5
2025-08-08T12:00	29600	13	-44.0		85	7	9.4
2025-08-08T12:00	29650	13	-43.8		79	9	9.3
2025-08-08T12:00	29700	13	-43.5		81	11	9.3
2025-08-08T12:00	29750	13	-43.3		88	13	9.2
2025-08-08T12:00	29800	13	-43.2		94	14	9.2
2025-08-08T12:00	29850	13	-43.1		99	15	9.1
2025-08-08T12:00	29900	13	-43.0		102	15	9.1
2025-08-08T12:00	29950	13	-43.1		106	14	9.0
2025-08-08T12:00	30000	13	-43.0		110	14	8.9
2025-08-08T12:00	30050	13	-43.0		114	13	8.9
2025-08-08T12:00	30100	13	-42.8		115	12	8.8
2025-08-08T12:00	30150	12	-42.6		114	11	8.8
2025-08-08T12:00	30200	12	-42.6		112	10	8.7
2025-08-08T12:00	30250	12	-42.5		108	8	8.7
2025-08-08T12:00	30300	12	-42.1		102	7	8.6
2025-08-08T12:00	30350	12	-41.8		95	7	8.7
2025-08-08T12:00	30400	12	-41.6		93	8	8.6
2025-08-08T12:00	30450	12	-41.3		94	10	8.6
2025-08-08T12:00	30500	12	-41.2		96	11	8.5
2025-08-08T12:00	30550	12	-41.0		95	10	8.5
2025-08-08T12:00	30600	12	-40.8		93	10	8.4
2025-08-08T12:00	30650	12	-40.9		93	9	8.3
2025-08-08T12:00	30700	11	-41.1		96	9	8.2
2025-08-08T12:00	30750	11	-41.3		99	10	8.2
2025-08-08T12:00	30800	11	-41.5		103	10	8.1
2025-08-08T12:00	30850	11	-41.8		107	11	8.1
2025-08-08T12:00	30900	11	-42.1		112	12	7.9
2025-08-08T12:00	30950	11	-42.2		116	12	7.9
2025-08-08T12:00	31000	11	-42.2		118	11	7.8
2025-08-08T12:00	31050	11	-42.1		117	9	7.8
2025-08-08T12:00	31100	11	-41.9		114	8	7.8
2025-08-08T12:00	31150	11	-41.9		106	7	7.7
2025-08-08T12:00	31200	11	-42.0		96	7	7.7
2025-08-08T12:00	31250	11	-41.9		86	7	7.6
2025-08-08T12:00	31300	10	-41.6		80	8	7.5
2025-08-08T12:00	31350	10	-41.4		78	8	7.5
2025-08-08T12:00	31400	10	-41.2		80	9	7.4
2025-08-08T12:00	31450	10	-41.0		86	9	7.4
2025-08-08T12:00	31500	10	-41.0		92	10	7.4
2025-08-08T12:00	31550	10	-41.1		96	11	7.3
2025-08-08T12:00	31600	10	-41.3		99	11	7.2
2025-08-08T12:00	31650	10	-41.5		102	11	7.1
2025-08-08T12:00	31700	10	-41.6		104	11	7.0
2025-08-08T12:00	31750	10	-41.7		105	10	7.0
2025-08-08T12:00	31800	10	-41.6		103	9	6.9
2025-08-08T12:00	31850	10	-41.4		96	8	
2025-08-08T12:00	31900	10	-41.0		84	9	
2025-08-08T12:00	31950	10	-40.8		74	10	
2025-08-08T12:00	32000	9	-40.6		72	10	
2025-08-09T00:00	491	964	18.7	14.0	210	1	
2025-08-09T00:00	501	962	19.9	13.9	208	1	
2025-08-09T00:00	520	961	20.9	13.4	208	1	
2025-08-09T00:00	540	959	23.2	12.6	207	2	
2025-08-09T00:00	560	956	23.6	12.7	205	2	
2025-08-09T00:00	580	954	23.8	12.6	202	2	
2025-08-09T00:00	600	952	23.8	12.4	197	1	
2025-08-09T00:00	620	950	23.9	12.1	190	1	
2025-08-09T00:00	640	948	24.3	12.0	181	1	
2025-08-09T00:00	660	945	24.7	11.9	162	1	
2025-08-09T00:00	680	943	24.7	12.2	131	1	
2025-08-09T00:00	700	941	24.7	12.6	98	1	
2025-08-09T00:00	720	939	24.9	12.2	75	1	
2025-08-09T00:00	740	937	24.9	12.9	62	1	
2025-08-09T00:00	760	935	24.8	13.2	56	1	
2025-08-09T00:00	780	933	25.0	12.5	53	1	
2025-08-09T00:00	800	930	25.0	12.5	54	2	
2025-08-09T00:00	820	928	24.9	12.7	57	2	
2025-08-09T00:00	840	926	25.0	12.7	62	1	
2025-08-09T00:00	860	924	24.9	12.6	70	1	
2025-08-09T00:00	880	922	24.8	12.6	78	1	
2025-08-09T00:00	900	920	24.7	12.5	86	1	
2025-08-09T00:00	920	918	24.5	12.4	90	2	
2025-08-09T00:00	940	916	24.3	12.3	92	2	
2025-08-09T00:00	960	914	24.1	12.1	91	2	
2025-08-09T00:00	980	912	24.0	12.1	90	2	
2025-08-09T00:00	1000	910	23.8	11.9	89	2	
2025-08-09T00:00	1020	907	23.7	11.6	90	2	
2025-08-09T00:00	1040	905	23.6	11.0	94	2	
2025-08-09T00:00	1060	903	23.6	10.1	100	2	
2025-08-09T00:00	1080	901	23.4	10.0	111	1	
2025-08-09T00:00	1100	899	23.3	9.8	127	1	
2025-08-09T00:00	1120	897	23.1	9.8	154	1	
2025-08-09T00:00	1140	895	22.9	9.8	193	1	
2025-08-09T00:00	1160	893	22.7	9.8	218	1	
2025-08-09T00:00	1180	891	22.6	9.8	223	1	
2025-08-09T00:00	1200	889	22.4	9.8	203	1	
2025-08-09T00:00	1220	887	22.2	9.7	161	1	
2025-08-09T00:00	1240	885	22.1	9.7	133	1	
2025-08-09T00:00	1260	883	21.9	9.9	120	1	
2025-08-09T00:00	1280	881	21.7	9.9	113	1	
2025-08-09T00:00	1300	879	21.6	9.8	107	1	
2025-08-09T00:00	1320	877	21.4	9.9	105	1	
2025-08-09T00:00	1340	875	21.3	9.9	107	1	
2025-08-09T00:00	1360	872	21.1	9.7	128	0	
2025-08-09T00:00	1380	871	21.0	9.8	197	1	
2025-08-09T00:00	1400	869	20.9	9.9	222	1	
2025-08-09T00:00	1420	867	20.8	9.9	227	2	
2025-08-09T00:00	1440	865	20.6	10.1	228	2	
2025-08-09T00:00	1460	863	20.6	10.1	228	3	
2025-08-09T00:00	1480	861	20.5	10.1	229	3	
2025-08-09T00:00	1500	859	20.3	10.1	230	3	
2025-08-09T00:00	1520	857	20.1	10.0	230	3	
2025-08-09T00:00	1540	855	19.9	9.9	232	3	
2025-08-09T00:00	1560	853	19.8	9.5	235	3	
2025-08-09T00:00	1580	851	19.7	9.0	237	4	
2025-08-09T00:00	1600	849	19.6	8.3	238	4	
2025-08-09T00:00	1620	847	19.5	7.7	236	4	
2025-08-09T00:00	1640	845	19.4	7.5	231	4	
2025-08-09T00:00	1660	843	19.2	7.2	225	4	
2025-08-09T00:00	1680	841	19.0	7.4	219	4	
2025-08-09T00:00	1700	839	18.8	8.2	215	4	
2025-08-09T00:00	1720	837	18.6	8.3	212	3	
2025-08-09T00:00	1740	835	18.5	8.0	210	3	
2025-08-09T00:00	1760	833	18.3	7.8	210	3	
2025-08-09T00:00	1780	831	18.1	8.2	209	3	
2025-08-09T00:00	1800	829	17.9	8.9	207	4	
2025-08-09T00:00	1820	827	17.7	9.1	207	5	
2025-08-09T00:00	1840	825	17.6	8.7	207	5	
2025-08-09T00:00	1860	823	17.4	8.4	207	6	
2025-08-09T00:00	1880	822	17.3	8.2	209	6	
2025-08-09T00:00	1900	820	17.2	7.9	211	7	
2025-08-09T00:00	1920	818	17.1	7.6	212	7	
2025-08-09T00:00	1940	816	17.0	6.9	214	7	
2025-08-09T00:00	1960	814	16.9	6.1	216	7	
2025-08-09T00:00	1980	812	16.8	5.7	216	7	
2025-08-09T00:00	2000	810	16.6	5.5	217	7	
2025-08-09T00:00	2020	808	16.4	5.2	217	7	
2025-08-09T00:00	2040	806	16.3	5.1	218	8	
2025-08-09T00:00	2060	804	16.2	4.6	219	8	
2025-08-09T00:00	2080	802	16.0	4.1	221	8	
2025-08-09T00:00	2100	801	15.9	3.2	222	8	
2025-08-09T00:00	2120	799	15.9	2.2	223	8	
2025-08-09T00:00	2140	797	15.9	0.0	225	8	
2025-08-09T00:00	2160	795	15.8	-0.6	226	7	
2025-08-09T00:00	2180	793	15.8	-2.3	228	7	
2025-08-09T00:00	2200	791	15.8	-4.5	231	7	
2025-08-09T00:00	2220	789	15.6	-4.3	233	7	
2025-08-09T00:00	2240	787	15.4	-4.1	237	7	
2025-08-09T00:00	2260	785	15.3	-4.9	242	7	
2025-08-09T00:00	2280	784	15.2	-5.6	247	8	
2025-08-09T00:00	2300	782	15.0	-6.2	251	8	
2025-08-09T00:00	2320	780	15.1	-8.9	253	9	
2025-08-09T00:00	2340	778	15.1	-10.4	256	9	
2025-08-09T00:00	2360	776	14.9	-10.5	258	10	
2025-08-09T00:00	2380	775	14.9	-11.5	260	10	
2025-08-09T00:00	2400	773	14.8	-12.2	260	10	
2025-08-09T00:00	2420	771	14.8	-12.1	260	10	
2025-08-09T00:00	2440	769	14.7	-12.5	259	10	
2025-08-09T00:00	2460	767	14.7	-13.1	258	10	
2025-08-09T00:00	2480	765	14.6	-13.3	257	11	
2025-08-09T00:00	2500	763	14.6	-13.7	256	11	
2025-08-09T00:00	2520	762	14.4	-13.7	256	11	
2025-08-09T00:00	2540	760	14.4	-13.3	257	11	
2025-08-09T00:00	2560	758	14.3	-13.0	260	11	
2025-08-09T00:00	2580	756	14.2	-12.6	263	10	
2025-08-09T00:00	2600	754	14.1	-12.3	267	10	
2025-08-09T00:00	2620	753	14.0	-12.4	270	10	
2025-08-09T00:00	2640	751	13.9	-12.5	272	10	
2025-08-09T00:00	2660	749	13.8	-12.4	274	10	
2025-08-09T00:00	2680	747	13.6	-12.2	274	10	
2025-08-09T00:00	2700	746	13.6	-11.7	274	10	
2025-08-09T00:00	2720	744	13.5	-11.8	275	11	
2025-08-09T00:00	2740	742	13.4	-12.0	275	11	
2025-08-09T00:00	2760	740	13.3	-12.2	276	11	
2025-08-09T00:00	2780	739	13.2	-12.6	277	11	
2025-08-09T00:00	2800	737	13.1	-12.9	277	11	
2025-08-09T00:00	2820	735	12.9	-13.2	277	12	
2025-08-09T00:00	2840	733	12.8	-13.6	277	12	
2025-08-09T00:00	2860	732	12.7	-13.8	277	12	
2025-08-09T00:00	2880	730	12.5	-14.0	277	12	
2025-08-09T00:00	2900	728	12.3	-14.2	277	11	
2025-08-09T00:00	2920	726	12.2	-14.7	277	11	
2025-08-09T00:00	2940	725	12.1	-16.1	277	11	
2025-08-09T00:00	2960	723	12.0	-17.4	278	10	
2025-08-09T00:00	2980	721	11.9	-18.1	279	10	
2025-08-09T00:00	3000	719	11.8	-18.6	279	10	
2025-08-09T00:00	3020	718	11.6	-18.8	279	10	
2025-08-09T00:00	3040	716	11.5	-19.0	278	10	
2025-08-09T00:00	3060	714	11.3	-19.0	277	10	
2025-08-09T00:00	3080	712	11.1	-19.2	276	10	
2025-08-09T00:00	3100	711	11.0	-19.2	276	10	
2025-08-09T00:00	3120	709	10.9	-18.6	275	11	
2025-08-09T00:00	3140	707	10.8	-18.1	275	11	
2025-08-09T00:00	3160	706	10.6	-18.0	276	11	
2025-08-09T00:00	3180	704	10.4	-17.9	276	11	
2025-08-09T00:00	3200	702	10.2	-17.8	277	11	
2025-08-09T00:00	3220	701	10.0	-17.6	278	11	
2025-08-09T00:00	3240	699	10.0	-17.0	279	10	
2025-08-09T00:00	3260	697	9.8	-16.8	279	10	
2025-08-09T00:00	3280	696	9.6	-16.6	280	9	
2025-08-09T00:00	3300	694	9.4	-16.7	280	9	
2025-08-09T00:00	3320	692	9.3	-16.8	280	9	
2025-08-09T00:00	3340	691	9.1	-16.7	280	9	
2025-08-09T00:00	3360	689	8.9	-16.7	281	9	
2025-08-09T00:00	3380	687	8.7	-16.5	282	9	
2025-08-09T00:00	3400	685	8.5	-16.6	283	9	
2025-08-09T00:00	3420	684	8.4	-16.6	284	9	
2025-08-09T00:00	3440	682	8.2	-16.5	284	9	
2025-08-09T00:00	3460	681	8.0	-16.3	283	9	
2025-08-09T00:00	3480	679	7.9	-16.1	281	9	
2025-08-09T00:00	3500	677	7.7	-16.1	280	9	
2025-08-09T00:00	3520	676	7.5	-16.4	277	9	
2025-08-09T00:00	3540	674	7.4	-16.8	275	8	
2025-08-09T00:00	3560	673	7.3	-17.2	273	8	
2025-08-09T00:00	3580	671	7.1	-16.8	271	8	
2025-08-09T00:00	3600	669	6.9	-13.9	270	8	
2025-08-09T00:00	3620	668	6.8	-9.8	269	7	
2025-08-09T00:00	3640	666	6.7	-9.6	269	7	
2025-08-09T00:00	3660	664	6.5	-7.6	268	7	
2025-08-09T00:00	3680	663	6.4	-6.7	269	7	
2025-08-09T00:00	3700	661	6.3	-6.2	269	7	
2025-08-09T00:00	3720	659	6.2	-6.2	271	8	
2025-08-09T00:00	3740	658	6.1	-7.8	272	9	
2025-08-09T00:00	3760	656	6.3	-16.0	272	9	
2025-08-09T00:00	3780	655	6.4	-21.0	273	9	
2025-08-09T00:00	3800	653	6.4	-26.4	273	10	
2025-08-09T00:00	3820	651	6.4	-26.8	272	10	
2025-08-09T00:00	3840	650	6.2	-25.5	272	10	
2025-08-09T00:00	3860	648	6.0	-24.5	271	10	
2025-08-09T00:00	3880	647	5.8	-21.8	271	10	
2025-08-09T00:00	3900	645	5.7	-21.7	271	10	
2025-08-09T00:00	3920	643	5.6	-22.7	272	11	
2025-08-09T00:00	3940	642	5.5	-23.6	273	11	
2025-08-09T00:00	3960	640	5.3	-23.5	274	11	
2025-08-09T00:00	3980	639	5.2	-23.5	276	11	
2025-08-09T00:00	4000	637	5.1	-23.0	277	12	
2025-08-09T00:00	4020	636	5.0	-24.0	278	12	
2025-08-09T00:00	4040	634	4.9	-23.5	279	12	
2025-08-09T00:00	4060	633	4.8	-22.7	279	12	
2025-08-09T00:00	4080	631	4.7	-22.6	279	12	
2025-08-09T00:00	4100	629	4.5	-23.8	279	12	
2025-08-09T00:00	4120	628	4.4	-25.9	278	12	
2025-08-09T00:00	4140	626	4.4	-27.8	276	12	
2025-08-09T00:00	4160	625	4.3	-26.6	274	13	
2025-08-09T00:00	4180	623	4.3	-24.7	273	13	
2025-08-09T00:00	4200	622	4.2	-23.1	272	13	
2025-08-09T00:00	4220	620	4.0	-20.5	271	13	
2025-08-09T00:00	4240	619	3.8	-17.5	270	13	
2025-08-09T00:00	4260	617	3.5	-14.8	270	13	
2025-08-09T00:00	4280	616	3.4	-15.2	269	13	
2025-08-09T00:00	4300	614	3.3	-17.3	269	12	
2025-08-09T00:00	4320	613	3.1	-16.8	269	11	
2025-08-09T00:00	4340	611	2.9	-16.4	269	11	
2025-08-09T00:00	4360	610	2.8	-17.1	268	11	
2025-08-09T00:00	4380	608	2.6	-16.9	268	11	
2025-08-09T00:00	4400	607	2.4	-15.9	268	11	
2025-08-09T00:00	4420	605	2.2	-15.5	267	11	
2025-08-09T00:00	4440	604	2.0	-16.0	267	11	
2025-08-09T00:00	4460	602	1.9	-16.5	266	11	
2025-08-09T00:00	4480	600	1.7	-16.5	264	11	
2025-08-09T00:00	4500	599	1.5	-16.2	263	11	
2025-08-09T00:00	4520	598	1.3	-15.2	263	11	
2025-08-09T00:00	4540	596	1.2	-15.6	262	11	
2025-08-09T00:00	4560	595	1.0	-17.4	262	10	
2025-08-09T00:00	4580	593	0.9	-18.7	263	10	
2025-08-09T00:00	4600	592	0.8	-19.4	265	10	
2025-08-09T00:00	4620	590	0.6	-19.8	266	10	
2025-08-09T00:00	4640	589	0.5	-20.7	268	9	
2025-08-09T00:00	4660	587	0.5	-23.8	270	10	
2025-08-09T00:00	4680	586	0.5	-30.3	272	10	
2025-08-09T00:00	4700	584	0.8	-34.0	273	10	
2025-08-09T00:00	4720	583	0.8	-34.5	273	11	
2025-08-09T00:00	4740	581	0.9	-34.7	274	12	
2025-08-09T00:00	4760	580	0.8	-35.4	275	12	
2025-08-09T00:00	4780	578	0.8	-36.1	277	13	
2025-08-09T00:00	4800	577	0.7	-37.1	278	13	
2025-08-09T00:00	4820	576	0.6	-37.7	278	13	
2025-08-09T00:00	4840	574	0.6	-37.7	279	14	
2025-08-09T00:00	4860	573	0.6	-37.8	279	14	
2025-08-09T00:00	4880	571	0.5	-37.5	279	14	
2025-08-09T00:00	4900	570	0.4	-37.5	279	14	
2025-08-09T00:00	4920	568	0.2	-37.6	278	14	
2025-08-09T00:00	4940	567	0.1	-37.6	278	14	
2025-08-09T00:00	4960	566	-0.1	-37.6	278	14	
2025-08-09T00:00	4980	564	-0.3	-37.6	278	14	
2025-08-09T00:00	5000	563	-0.4	-37.4	278	14	
2025-08-09T00:00	5020	561	-0.6	-37.2	278	14	
2025-08-09T00:00	5040	560	-0.8	-36.8	278	14	
2025-08-09T00:00	5060	559	-1.0	-36.5	278	14	
2025-08-09T00:00	5080	557	-1.1	-36.1	279	14	
2025-08-09T00:00	5100	556	-1.3	-35.7	279	15	
2025-08-09T00:00	5120	555	-1.4	-34.5	279	15	
2025-08-09T00:00	5140	553	-1.5	-33.6	279	15	
2025-08-09T00:00	5160	552	-1.6	-33.5	278	15	
2025-08-09T00:00	5180	550	-1.8	-33.4	278	15	
2025-08-09T00:00	5200	549	-1.9	-33.4	278	15	
2025-08-09T00:00	5220	547	-2.1	-33.4	277	15	
2025-08-09T00:00	5240	546	-2.3	-33.3	276	15	
2025-08-09T00:00	5260	545	-2.4	-33.2	275	15	
2025-08-09T00:00	5280	543	-2.6	-33.3	274	15	
2025-08-09T00:00	5300	542	-2.7	-33.5	272	14	
2025-08-09T00:00	5320	541	-2.9	-33.5	271	14	
2025-08-09T00:00	5340	539	-3.0	-33.4	270	14	
2025-08-09T00:00	5360	538	-3.2	-33.4	269	14	
2025-08-09T00:00	5380	537	-3.3	-33.3	268	13	
2025-08-09T00:00	5400	535	-3.4	-32.9	267	13	
2025-08-09T00:00	5420	534	-3.5	-32.7	265	13	
2025-08-09T00:00	5440	532	-3.6	-32.0	263	13	
2025-08-09T00:00	5460	531	-3.7	-31.1	262	13	
2025-08-09T00:00	5480	530	-3.8	-29.4	260	13	
2025-08-09T00:00	5500	528	-3.8	-27.4	259	14	
2025-08-09T00:00	5520	527	-4.0	-26.6	259	14	
2025-08-09T00:00	5540	526	-4.1	-25.5	259	15	
2025-08-09T00:00	5560	525	-4.3	-24.9	260	15	
2025-08-09T00:00	5580	523	-4.5	-24.0	261	15	
2025-08-09T00:00	5600	522	-4.7	-23.3	262	15	
2025-08-09T00:00	5620	520	-4.8	-22.4	264	15	
2025-08-09T00:00	5640	519	-5.0	-21.4	265	16	
2025-08-09T00:00	5660	518	-5.1	-20.5	266	16	
2025-08-09T00:00	5680	517	-5.3	-19.8	267	16	
2025-08-09T00:00	5700	515	-5.5	-19.2	268	16	
2025-08-09T00:00	5720	514	-5.7	-19.5	268	16	
2025-08-09T00:00	5740	513	-5.8	-19.2	269	16	
2025-08-09T00:00	5760	511	-6.1	-15.6	269	15	
2025-08-09T00:00	5780	510	-6.3	-14.9	270	15	
2025-08-09T00:00	5800	509	-6.5	-15.2	270	15	
2025-08-09T00:00	5820	507	-6.7	-15.4	270	15	
2025-08-09T00:00	5840	506	-6.9	-15.0	270	14	
2025-08-09T00:00	5860	505	-7.1	-14.8	271	14	
2025-08-09T00:00	5880	504	-7.3	-14.9	270	14	
2025-08-09T00:00	5900	502	-7.4	-14.4	270	14	
2025-08-09T00:00	5920	501	-7.6	-14.5	269	15	
2025-08-09T00:00	5940	500	-7.7	-14.2	267	15	
2025-08-09T00:00	5960	498	-7.9	-14.6	266	15	
2025-08-09T00:00	5980	497	-7.9	-15.4	264	16	
2025-08-09T00:00	6000	496	-8.0	-15.9	263	16	
2025-08-09T00:00	6020	495	-8.1	-16.4	262	16	
2025-08-09T00:00	6040	493	-8.2	-16.8	261	16	
2025-08-09T00:00	6060	492	-8.3	-17.1	261	17	
2025-08-09T00:00	6080	491	-8.5	-17.3	261	17	
2025-08-09T00:00	6100	489	-8.6	-17.5	261	17	
2025-08-09T00:00	6120	488	-8.7	-17.5	261	16	
2025-08-09T00:00	6140	487	-8.8	-17.9	261	16	
2025-08-09T00:00	6160	486	-8.8	-18.6	261	16	
2025-08-09T00:00	6180	484	-8.9	-18.6	262	16	
2025-08-09T00:00	6200	483	-9.0	-18.7	262	15	
2025-08-09T00:00	6220	482	-9.2	-19.0	263	15	
2025-08-09T00:00	6240	481	-9.3	-19.2	264	15	
2025-08-09T00:00	6260	479	-9.5	-19.3	266	14	
2025-08-09T00:00	6280	478	-9.6	-19.5	267	14	
2025-08-09T00:00	6300	477	-9.8	-19.7	268	14	
2025-08-09T00:00	6320	476	-10.0	-19.9	268	14	
2025-08-09T00:00	6340	474	-10.1	-20.1	269	14	
2025-08-09T00:00	6360	473	-10.3	-20.3	269	14	
2025-08-09T00:00	6380	472	-10.4	-20.4	268	14	
2025-08-09T00:00	6400	471	-10.6	-20.4	268	14	
2025-08-09T00:00	6420	469	-10.8	-20.4	267	14	
2025-08-09T00:00	6440	468	-11.0	-20.4	266	14	
2025-08-09T00:00	6460	467	-11.2	-20.4	265	14	
2025-08-09T00:00	6480	466	-11.4	-20.3	264	14	
2025-08-09T00:00	6500	465	-11.6	-20.3	263	15	
2025-08-09T00:00	6520	463	-11.7	-20.2	263	15	
2025-08-09T00:00	6540	462	-11.9	-20.1	262	15	
2025-08-09T00:00	6560	461	-12.1	-20.0	262	15	
2025-08-09T00:00	6580	460	-12.3	-20.0	262	15	
2025-08-09T00:00	6600	459	-12.5	-20.1	261	15	
2025-08-09T00:00	6620	457	-12.7	-20.2	261	15	
2025-08-09T00:00	6640	456	-12.8	-20.6	260	14	
2025-08-09T00:00	6660	455	-13.0	-20.7	259	14	
2025-08-09T00:00	6680	454	-13.2	-20.8	257	14	
2025-08-09T00:00	6700	453	-13.3	-21.1	255	14	
2025-08-09T00:00	6720	451	-13.4	-21.6	254	14	
2025-08-09T00:00	6740	450	-13.5	-22.8	253	15	
2025-08-09T00:00	6760	449	-13.5	-24.1	253	15	
2025-08-09T00:00	6780	448	-13.6	-24.7	253	15	
2025-08-09T00:00	6800	447	-13.7	-25.1	252	16	
2025-08-09T00:00	6820	446	-13.7	-25.3	252	16	
2025-08-09T00:00	6840	444	-13.8	-26.0	252	16	
2025-08-09T00:00	6860	443	-13.8	-26.7	251	16	
2025-08-09T00:00	6880	442	-14.0	-27.1	251	16	
2025-08-09T00:00	6900	441	-14.1	-27.4	250	16	
2025-08-09T00:00	6920	440	-14.3	-27.5	250	16	
2025-08-09T00:00	6940	439	-14.4	-27.6	250	16	
2025-08-09T00:00	6960	437	-14.6	-27.5	250	16	
2025-08-09T00:00	6980	436	-14.7	-27.6	250	16	
2025-08-09T00:00	7000	435	-14.9	-27.7	251	16	
2025-08-09T00:00	7020	434	-15.1	-27.7	252	17	
2025-08-09T00:00	7040	433	-15.2	-27.8	252	17	
2025-08-09T00:00	7060	432	-15.3	-28.2	252	17	
2025-08-09T00:00	7080	431	-15.3	-29.6	252	17	
2025-08-09T00:00	7100	429	-15.4	-30.0	252	17	
2025-08-09T00:00	7120	428	-15.5	-30.3	251	16	
2025-08-09T00:00	7140	427	-15.6	-30.6	251	16	
2025-08-09T00:00	7160	426	-15.7	-31.5	251	16	
2025-08-09T00:00	7180	425	-15.8	-32.3	251	15	
2025-08-09T00:00	7200	424	-15.9	-33.1	251	15	
2025-08-09T00:00	7220	423	-16.1	-33.7	251	15	
2025-08-09T00:00	7240	422	-16.2	-34.1	250	15	
2025-08-09T00:00	7260	420	-16.4	-34.5	250	15	
2025-08-09T00:00	7280	419	-16.6	-35.0	250	15	
2025-08-09T00:00	7300	418	-16.7	-35.3	250	15	
2025-08-09T00:00	7320	417	-16.9	-35.5	250	15	
2025-08-09T00:00	7340	416	-17.1	-35.8	251	15	
2025-08-09T00:00	7360	415	-17.3	-36.0	252	15	
2025-08-09T00:00	7380	414	-17.5	-36.6	254	15	
2025-08-09T00:00	7400	413	-17.6	-37.7	256	15	
2025-08-09T00:00	7420	411	-17.7	-38.6	257	15	
2025-08-09T00:00	7440	410	-17.9	-40.1	258	15	
2025-08-09T00:00	7460	409	-18.0	-42.3	259	15	
2025-08-09T00:00	7480	408	-18.1	-42.8	259	14	
2025-08-09T00:00	7500	407	-18.3	-42.7	258	14	
2025-08-09T00:00	7520	406	-18.4	-42.2	258	14	
2025-08-09T00:00	7540	405	-18.6	-40.9	257	14	
2025-08-09T00:00	7560	404	-18.7	-39.8	255	15	
2025-08-09T00:00	7580	403	-18.9	-40.0	254	15	
2025-08-09T00:00	7600	402	-19.0	-40.1	253	15	
2025-08-09T00:00	7620	401	-19.0	-40.2	252	15	
2025-08-09T00:00	7640	400	-19.1	-40.5	252	15	
2025-08-09T00:00	7660	398	-19.2	-40.7	252	15	
2025-08-09T00:00	7680	397	-19.3	-41.1	252	15	
2025-08-09T00:00	7700	396	-19.5	-41.5	253	15	
2025-08-09T00:00	7720	395	-19.6	-41.6	253	15	
2025-08-09T00:00	7740	394	-19.8	-41.4	254	16	
2025-08-09T00:00	7760	393	-19.9	-41.0	255	16	
2025-08-09T00:00	7780	392	-20.1	-40.6	255	16	
2025-08-09T00:00	7800	391	-20.3	-40.6	255	17	
2025-08-09T00:00	7820	390	-20.5	-40.0	255	17	
2025-08-09T00:00	7840	389	-20.6	-38.1	255	17	
2025-08-09T00:00	7860	388	-20.8	-37.1	255	17	
2025-08-09T00:00	7880	387	-21.0	-37.2	254	18	
2025-08-09T00:00	7900	386	-21.1	-37.6	254	18	
2025-08-09T00:00	7920	385	-21.3	-37.5	253	18	
2025-08-09T00:00	7940	384	-21.5	-36.8	253	18	
2025-08-09T00:00	7960	383	-21.7	-36.8	253	17	
2025-08-09T00:00	7980	382	-21.7	-38.4	254	17	
2025-08-09T00:00	8000	381	-21.8	-39.5	254	17	
2025-08-09T00:00	8020	380	-21.8	-40.9	255	17	
2025-08-09T00:00	8040	379	-22.0	-41.4	256	17	
2025-08-09T00:00	8060	377	-22.1	-40.9	257	17	
2025-08-09T00:00	8080	376	-22.3	-40.9	257	17	
2025-08-09T00:00	8100	375	-22.5	-41.5	257	17	
2025-08-09T00:00	8120	375	-22.6	-41.7	258	17	
2025-08-09T00:00	8140	373	-22.8	-39.6	257	17	
2025-08-09T00:00	8160	372	-23.0	-38.0	257	17	
2025-08-09T00:00	8180	371	-23.2	-38.1	256	17	
2025-08-09T00:00	8200	370	-23.4	-37.7	256	17	
2025-08-09T00:00	8220	369	-23.6	-37.8	256	17	
2025-08-09T00:00	8240	368	-23.8	-37.6	256	17	
2025-08-09T00:00	8260	367	-24.0	-37.8	256	17	
2025-08-09T00:00	8280	366	-24.2	-38.0	256	17	
2025-08-09T00:00	8300	365	-24.3	-38.0	256	17	
2025-08-09T00:00	8320	364	-24.5	-37.6	256	17	
2025-08-09T00:00	8340	363	-24.8	-37.6	256	16	
2025-08-09T00:00	8360	362	-25.0	-37.7	256	16	
2025-08-09T00:00	8380	361	-25.1	-37.9	256	17	
2025-08-09T00:00	8400	360	-25.3	-38.0	256	17	
2025-08-09T00:00	8420	359	-25.5	-38.0	255	17	
2025-08-09T00:00	8440	358	-25.7	-38.3	255	17	
2025-08-09T00:00	8460	357	-25.9	-38.6	255	17	
2025-08-09T00:00	8480	356	-26.0	-38.9	255	18	
2025-08-09T00:00	8500	355	-26.2	-39.1	255	18	
2025-08-09T00:00	8520	354	-26.3	-39.5	254	18	
2025-08-09T00:00	8540	353	-26.5	-39.8	254	19	
2025-08-09T00:00	8560	352	-26.6	-39.9	253	19	
2025-08-09T00:00	8580	351	-26.8	-40.1	252	19	
2025-08-09T00:00	8600	350	-26.8	-40.9	252	20	
2025-08-09T00:00	8620	350	-26.8	-41.5	251	20	
2025-08-09T00:00	8640	349	-27.0	-41.5	251	20	
2025-08-09T00:00	8660	348	-27.1	-41.6	251	20	
2025-08-09T00:00	8680	347	-27.3	-41.6	251	20	
2025-08-09T00:00	8700	346	-27.4	-41.6	251	20	
2025-08-09T00:00	8720	345	-27.6	-41.7	251	20	
2025-08-09T00:00	8740	344	-27.8	-41.7	251	20	
2025-08-09T00:00	8760	343	-28.0	-41.7	251	20	
2025-08-09T00:00	8780	342	-28.2	-41.8	251	20	
2025-08-09T00:00	8800	341	-28.4	-41.9	250	20	
2025-08-09T00:00	8820	340	-28.6	-42.0	250	20	
2025-08-09T00:00	8840	339	-28.8	-42.4	249	20	
2025-08-09T00:00	8860	338	-28.9	-42.7	247	21	
2025-08-09T00:00	8880	337	-29.1	-43.1	247	21	
2025-08-09T00:00	8900	336	-29.3	-43.0	246	21	
2025-08-09T00:00	8920	335	-29.5	-43.1	246	21	
2025-08-09T00:00	8940	334	-29.7	-43.6	246	21	
2025-08-09T00:00	8960	333	-29.8	-44.2	246	21	
2025-08-09T00:00	8980	332	-29.9	-45.3	247	21	
2025-08-09T00:00	9000	331	-30.1	-45.9	247	21	
2025-08-09T00:00	9020	331	-30.2	-46.5	248	21	
2025-08-09T00:00	9040	330	-30.3	-46.9	248	21	
2025-08-09T00:00	9060	329	-30.4	-47.1	248	22	
2025-08-09T00:00	9080	328	-30.5	-47.3	248	22	
2025-08-09T00:00	9100	327	-30.7	-47.5	248	22	
2025-08-09T00:00	9120	326	-30.9	-47.6	247	22	
2025-08-09T00:00	9140	325	-31.0	-47.8	247	23	
2025-08-09T00:00	9160	324	-31.2	-48.0	246	23	
2025-08-09T00:00	9180	323	-31.4	-48.3	246	23	
2025-08-09T00:00	9200	322	-31.5	-48.6	246	23	
2025-08-09T00:00	9220	321	-31.7	-49.1	245	23	
2025-08-09T00:00	9240	320	-31.8	-49.4	245	23	
2025-08-09T00:00	9260	319	-32.0	-50.0	244	23	
2025-08-09T00:00	9280	319	-32.1	-51.0	244	23	
2025-08-09T00:00	9300	318	-32.2	-51.0	244	23	
2025-08-09T00:00	9320	317	-32.3	-50.9	243	23	
2025-08-09T00:00	9340	316	-32.5	-50.8	243	22	
2025-08-09T00:00	9360	315	-32.7	-50.1	242	23	
2025-08-09T00:00	9380	314	-32.8	-50.1	242	23	
2025-08-09T00:00	9400	313	-33.0	-49.9	242	23	
2025-08-09T00:00	9420	312	-33.1	-50.0	241	23	
2025-08-09T00:00	9440	311	-33.3	-50.4	241	23	
2025-08-09T00:00	9460	311	-33.5	-50.4	241	23	
2025-08-09T00:00	9480	310	-33.7	-50.5	240	23	
2025-08-09T00:00	9500	309	-33.9	-50.6	240	23	
2025-08-09T00:00	9520	308	-34.0	-50.9	241	23	
2025-08-09T00:00	9540	307	-34.2	-51.0	241	24	
2025-08-09T00:00	9560	306	-34.4	-51.1	241	23	
2025-08-09T00:00	9580	305	-34.5	-51.1	242	23	
2025-08-09T00:00	9600	304	-34.7	-51.2	242	23	
2025-08-09T00:00	9620	303	-34.9	-51.6	243	23	
2025-08-09T00:00	9640	303	-35.0	-51.9	243	22	
2025-08-09T00:00	9660	302	-35.1	-52.1	243	22	
2025-08-09T00:00	9680	301	-35.3	-52.2	244	22	
2025-08-09T00:00	9700	300	-35.4	-52.5	244	21	
2025-08-09T00:00	9720	299	-35.5	-52.9	244	21	
2025-08-09T00:00	9740	298	-35.6	-53.2	245	21	
2025-08-09T00:00	9760	297	-35.8	-53.2	245	21	
2025-08-09T00:00	9780	297	-35.9	-53.3	245	21	
2025-08-09T00:00	9800	296	-36.0	-53.7	245	21	
2025-08-09T00:00	9820	295	-36.1	-54.2	246	21	
2025-08-09T00:00	9840	294	-36.3	-54.2	246	22	
2025-08-09T00:00	9860	293	-36.5	-54.2	246	22	
2025-08-09T00:00	9880	292	-36.7	-54.2	246	22	
2025-08-09T00:00	9900	292	-36.8	-54.2	246	22	
2025-08-09T00:00	9920	291	-37.1	-54.2	245	22	
2025-08-09T00:00	9940	290	-37.2	-54.2	245	22	
2025-08-09T00:00	9960	289	-37.4	-54.0	245	22	
2025-08-09T00:00	9980	288	-37.6	-53.7	244	22	
2025-08-09T00:00	10000	287	-37.7	-53.6	244	22	
2025-08-09T00:00	10018	287	-37.9	-53.8	245	22	
2025-08-09T00:00	10050	285	-38.2	-53.8	245	22	
2025-08-09T00:00	10100	283	-38.7	-54.0	247	21	
2025-08-09T00:00	10150	281	-39.1	-53.9	248	21	
2025-08-09T00:00	10200	279	-39.5	-54.1	248	22	
2025-08-09T00:00	10250	277	-39.9	-54.6	248	21	
2025-08-09T00:00	10300	275	-40.3	-54.9	248	21	
2025-08-09T00:00	10350	273	-40.7	-55.5	248	21	
2025-08-09T00:00	10400	271	-41.1	-55.8	248	21	
2025-08-09T00:00	10450	269	-41.6	-55.6	247	21	
2025-08-09T00:00	10500	267	-42.0	-55.3	247	21	
2025-08-09T00:00	10550	265	-42.4	-55.4	247	22	
2025-08-09T00:00	10600	263	-42.9	-55.4	247	22	
2025-08-09T00:00	10650	261	-43.3	-54.5	248	23	
2025-08-09T00:00	10700	259	-43.7	-54.6	248	22	
2025-08-09T00:00	10750	257	-44.2	-55.0	248	22	
2025-08-09T00:00	10800	255	-44.6	-55.5	247	22	
2025-08-09T00:00	10850	254	-45.1	-55.7	247	22	
2025-08-09T00:00	10900	252	-45.5	-55.7	247	22	
2025-08-09T00:00	10950	250	-46.0	-56.3	247	22	
2025-08-09T00:00	11000	248	-46.4	-56.8	246	22	
2025-08-09T00:00	11050	246	-46.9	-56.6	246	22	
2025-08-09T00:00	11100	244	-47.3	-56.4	247	21	
2025-08-09T00:00	11150	242	-47.7	-57.3	248	21	
2025-08-09T00:00	11200	241	-48.2	-58.0	249	21	
2025-08-09T00:00	11250	239	-48.6	-58.0	250	22	
2025-08-09T00:00	11300	237	-49.0	-58.1	249	22	
2025-08-09T00:00	11350	235	-49.5	-58.1	248	21	
2025-08-09T00:00	11400	233	-49.9	-58.4	246	21	
2025-08-09T00:00	11450	231	-50.4	-58.6	245	21	
2025-08-09T00:00	11500	230	-50.8	-58.7	245	21	
2025-08-09T00:00	11550	228	-51.2	-59.0	245	20	
2025-08-09T00:00	11600	226	-51.6	-59.2	244	20	
2025-08-09T00:00	11650	225	-52.0	-60.4	243	20	
2025-08-09T00:00	11700	223	-52.1	-62.0	243	20	
2025-08-09T00:00	11750	221	-52.3	-62.9	244	20	
2025-08-09T00:00	11800	219	-52.7	-63.3	245	20	
2025-08-09T00:00	11850	218	-53.0	-63.2	245	21	
2025-08-09T00:00	11900	216	-53.3	-63.1	245	21	
2025-08-09T00:00	11950	214	-53.7	-63.5	245	21	
2025-08-09T00:00	12000	213	-54.1	-63.5	246	21	
2025-08-09T00:00	12050	211	-54.6	-63.4	246	22	
2025-08-09T00:00	12100	209	-55.1	-63.7	246	22	
2025-08-09T00:00	12150	208	-55.4	-63.9	247	22	
2025-08-09T00:00	12200	206	-55.8	-64.0	248	22	
2025-08-09T00:00	12250	204	-56.2	-63.9	248	22	
2025-08-09T00:00	12300	203	-56.6	-64.1	248	22	
2025-08-09T00:00	12350	201	-57.1	-64.4	249	22	
2025-08-09T00:00	12400	200	-57.4	-64.6	248	22	
2025-08-09T00:00	12450	198	-57.6	-64.8	247	21	
2025-08-09T00:00	12500	197	-58.0	-65.0	244	21	
2025-08-09T00:00	12550	195	-58.3	-65.1	242	22	
2025-08-09T00:00	12600	193	-58.7	-65.1	241	22	
2025-08-09T00:00	12650	192	-59.1	-65.2	242	23	
2025-08-09T00:00	12700	190	-59.5	-65.4	243	23	
2025-08-09T00:00	12750	189	-59.8	-65.8	244	23	
2025-08-09T00:00	12800	187	-60.1	-66.1	245	23	
2025-08-09T00:00	12850	186	-60.5	-66.2	246	22	
2025-08-09T00:00	12900	184	-61.0	-66.0	248	21	
2025-08-09T00:00	12950	183	-61.4	-65.9	248	21	
2025-08-09T00:00	13000	181	-61.7	-66.2	248	20	
2025-08-09T00:00	13050	180	-62.0	-66.9	248	19	
2025-08-09T00:00	13100	179	-62.0	-67.7	247	18	
2025-08-09T00:00	13150	177	-62.0	-68.3	245	18	
2025-08-09T00:00	13200	176	-62.0	-68.7	240	18	
2025-08-09T00:00	13250	174	-62.1	-69.3	236	19	
2025-08-09T00:00	13300	173	-61.9	-70.1	233	20	
2025-08-09T00:00	13350	171	-61.9	-71.0	235	20	
2025-08-09T00:00	13400	170	-61.8	-71.8	237	21	
2025-08-09T00:00	13450	169	-61.8	-72.4	239	21	
2025-08-09T00:00	13500	167	-62.1	-72.7	240	21	
2025-08-09T00:00	13550	166	-62.3	-72.8	242	20	
2025-08-09T00:00	13600	165	-62.6	-73.1	243	20	
2025-08-09T00:00	13650	163	-62.6	-73.5	244	21	
2025-08-09T00:00	13700	162	-62.3	-74.3	242	22	
2025-08-09T00:00	13750	161	-61.7	-75.6	243	22	
2025-08-09T00:00	13800	159	-61.2	-77.1	247	20	
2025-08-09T00:00	13850	158	-61.3	-78.2	252	20	
2025-08-09T00:00	13900	157	-61.1	-78.3	254	19	
2025-08-09T00:00	13950	156	-61.3	-78.1	255	19	
2025-08-09T00:00	14000	154	-61.7	-77.9	254	19	
2025-08-09T00:00	14050	153	-61.9	-77.9	252	19	
2025-08-09T00:00	14100	152	-62.2	-78.2	250	19	
2025-08-09T00:00	14150	151	-62.5	-78.7	248	18	
2025-08-09T00:00	14200	149	-62.3	-79.6	247	18	
2025-08-09T00:00	14250	148	-61.4	-80.3	245	18	
2025-08-09T00:00	14300	147	-61.2	-80.9	242	19	
2025-08-09T00:00	14350	146	-60.9	-81.1	240	19	
2025-08-09T00:00	14400	145	-60.8	-81.3	240	19	
2025-08-09T00:00	14450	143	-61.0	-81.6	241	20	
2025-08-09T00:00	14500	142	-60.8	-81.9	242	21	
2025-08-09T00:00	14550	141	-60.4	-82.1	243	22	
2025-08-09T00:00	14600	140	-59.5	-81.8	246	24	
2025-08-09T00:00	14650	139	-59.6	-82.0	250	24	
2025-08-09T00:00	14700	138	-59.8	-82.2	254	24	
2025-08-09T00:00	14750	137	-59.7	-82.2	257	23	
2025-08-09T00:00	14800	136	-60.0	-82.5	258	23	
2025-08-09T00:00	14850	135	-60.3	-82.6	257	22	
2025-08-09T00:00	14900	134	-60.5	-82.7	255	22	
2025-08-09T00:00	14950	132	-60.7	-82.6	255	21	
2025-08-09T00:00	15000	131	-61.0	-82.3	255	21	
2025-08-09T00:00	15050	130	-61.2	-82.0	253	20	
2025-08-09T00:00	15100	129	-61.2	-82.3	249	20	
2025-08-09T00:00	15150	128	-60.9	-82.8	246	21	
2025-08-09T00:00	15200	127	-60.4	-82.9	244	22	
2025-08-09T00:00	15250	126	-59.9	-82.9	245	22	
2025-08-09T00:00	15300	125	-59.7	-82.9	247	21	
2025-08-09T00:00	15350	124	-59.7	-83.0	250	20	
2025-08-09T00:00	15400	123	-59.7	-83.1	254	20	
2025-08-09T00:00	15450	122	-59.8	-83.1	257	20	
2025-08-09T00:00	15500	121	-60.0	-83.2	258	19	
2025-08-09T00:00	15550	120	-60.3	-83.4	258	19	
2025-08-09T00:00	15600	119	-60.6	-83.4	256	18	
2025-08-09T00:00	15650	118	-60.9	-83.6	254	17	
2025-08-09T00:00	15700	117	-61.1	-83.7	252	17	
2025-08-09T00:00	15750	116	-61.1	-83.8	254	17	
2025-08-09T00:00	15800	116	-61.2	-84.0	254	16	
2025-08-09T00:00	15850	115	-61.2	-84.2	253	16	
2025-08-09T00:00	15900	114	-60.3	-84.1	252	15	
2025-08-09T00:00	15950	113	-60.0	-84.3	255	15	
2025-08-09T00:00	16000	112	-59.8	-84.2	260	15	
2025-08-09T00:00	16050	111	-60.1	-84.2	265	15	
2025-08-09T00:00	16100	110	-60.5	-84.2	269	14	
2025-08-09T00:00	16150	109	-60.9	-84.3	273	14	
2025-08-09T00:00	16200	108	-61.3	-84.4	274	14	
2025-08-09T00:00	16250	107	-61.6	-84.6	272	13	
2025-08-09T00:00	16300	107	-61.9	-84.9	266	13	
2025-08-09T00:00	16350	106	-61.7	-84.9	258	12	
2025-08-09T00:00	16400	105	-61.3	-84.9	251	13	
2025-08-09T00:00	16450	104	-61.3	-85.1	250	14	
2025-08-09T00:00	16500	103	-60.9	-85.1	254	15	
2025-08-09T00:00	16550	102	-60.2	-84.9	259	14	
2025-08-09T00:00	16600	102	-60.2	-85.1	258	14	
2025-08-09T00:00	16650	101	-59.5	-84.8	255	13	
2025-08-09T00:00	16700	100	-59.5	-84.8	251	12	
2025-08-09T00:00	16750	99	-59.9	-84.8	247	12	
2025-08-09T00:00	16800	98	-60.1	-84.8	244	12	
2025-08-09T00:00	16850	98	-60.1	-84.9	240	12	
2025-08-09T00:00	16900	97	-60.0	-84.9	237	13	
2025-08-09T00:00	16950	96	-60.0	-84.9	236	14	
2025-08-09T00:00	17000	95	-60.1	-85.0	238	15	
2025-08-09T00:00	17050	95	-60.3	-85.1	241	15	
2025-08-09T00:00	17100	94	-60.6	-85.2	245	15	
2025-08-09T00:00	17150	93	-60.3	-85.1	249	15	
2025-08-09T00:00	17200	92	-60.4	-85.1	252	16	
2025-08-09T00:00	17250	92	-60.6	-85.2	255	16	
2025-08-09T00:00	17300	91	-60.8	-85.3	257	16	
2025-08-09T00:00	17350	90	-60.7	-85.3	261	15	
2025-08-09T00:00	17400	89	-60.7	-85.4	262	14	
2025-08-09T00:00	17450	89	-60.4	-85.3	262	13	
2025-08-09T00:00	17500	88	-60.4	-85.3	259	13	
2025-08-09T00:00	17550	87	-60.5	-85.4	253	13	
2025-08-09T00:00	17600	87	-60.4	-85.3	247	14	
2025-08-09T00:00	17650	86	-60.2	-85.2	245	14	
2025-08-09T00:00	17700	85	-60.4	-85.2	248	15	
2025-08-09T00:00	17750	84	-60.7	-85.3	251	16	
2025-08-09T00:00	17800	84	-60.7	-85.5	255	16	
2025-08-09T00:00	17850	83	-60.6	-85.6	259	14	
2025-08-09T00:00	17900	82	-60.0	-85.6	265	12	
2025-08-09T00:00	17950	82	-59.5	-85.5	271	10	
2025-08-09T00:00	18000	81	-59.1	-85.4	276	8	
2025-08-09T00:00	18050	80	-58.7	-85.2	278	6	
2025-08-09T00:00	18100	80	-58.6	-85.0	272	5	
2025-08-09T00:00	18150	79	-58.6	-84.9	262	5	
2025-08-09T00:00	18200	79	-58.9	-85.0	259	6	
2025-08-09T00:00	18250	78	-59.3	-85.0	259	7	
2025-08-09T00:00	18300	77	-59.7	-85.1	258	8	
2025-08-09T00:00	18350	77	-60.1	-85.3	255	9	
2025-08-09T00:00	18400	76	-60.5	-85.4	253	10	
2025-08-09T00:00	18450	76	-60.9	-85.6	253	10	
2025-08-09T00:00	18500	75	-61.1	-85.7	257	9	
2025-08-09T00:00	18550	74	-61.3	-85.9	263	9	
2025-08-09T00:00	18600	74	-61.4	-86.0	266	8	
2025-08-09T00:00	18650	73	-61.4	-86.1	267	7	
2025-08-09T00:00	18700	73	-61.1	-86.1	263	6	
2025-08-09T00:00	18750	72	-60.8	-86.1	255	5	
2025-08-09T00:00	18800	71	-60.7	-86.2	251	6	
2025-08-09T00:00	18850	71	-59.8	-85.9	256	7	
2025-08-09T00:00	18900	70	-59.8	-86.0	257	7	
2025-08-09T00:00	18950	70	-59.3	-85.8	252	7	
2025-08-09T00:00	19000	69	-58.4	-85.5	251	7	
2025-08-09T00:00	19050	69	-58.1	-85.4	256	7	
2025-08-09T00:00	19100	68	-57.8	-85.3	257	7	
2025-08-09T00:00	19150	67	-57.1	-84.9	247	5	
2025-08-09T00:00	19200	67	-57.0	-84.8	227	4	
2025-08-09T00:00	19250	66	-56.9	-84.6	205	4	
2025-08-09T00:00	19300	66	-57.1	-84.6	195	5	
2025-08-09T00:00	19350	65	-57.3	-84.6	192	6	
2025-08-09T00:00	19400	65	-57.5	-84.7	191	7	
2025-08-09T00:00	19450	64	-57.4	-84.7	193	7	
2025-08-09T00:00	19500	64	-57.5	-84.8	197	7	
2025-08-09T00:00	19550	63	-57.7	-84.9	202	7	
2025-08-09T00:00	19600	63	-57.7	-84.9	205	7	
2025-08-09T00:00	19650	62	-57.7	-85.0	208	6	
2025-08-09T00:00	19700	62	-57.5	-85.2	211	4	
2025-08-09T00:00	19750	61	-56.7	-84.9	212	3	
2025-08-09T00:00	19800	61	-56.1	-84.6	215	3	
2025-08-09T00:00	19850	60	-56.3	-84.6	221	3	
2025-08-09T00:00	19900	60	-56.2	-84.5	226	4	
2025-08-09T00:00	19950	59	-56.1	-84.3	230	4	
2025-08-09T00:00	20000	59	-56.3	-84.4	232	4	
2025-08-09T00:00	20050	59	-56.4		233	4	
2025-08-09T00:00	20100	58	-56.6		233	5	
2025-08-09T00:00	20150	58	-56.9		236	6	
2025-08-09T00:00	20200	57	-57.2		241	7	
2025-08-09T00:00	20250	57	-57.3		248	6	
2025-08-09T00:00	20300	56	-57.2		256	5	
2025-08-09T00:00	20350	56	-57.2		261	4	
2025-08-09T00:00	20400	55	-57.2		263	4	
2025-08-09T00:00	20450	55	-57.2		255	3	
2025-08-09T00:00	20500	55	-57.5		232	2	
2025-08-09T00:00	20550	54	-57.7		204	2	
2025-08-09T00:00	20600	54	-57.2		195	3	
2025-08-09T00:00	20650	53	-56.7		200	3	
2025-08-09T00:00	20700	53	-56.7		203	3	
2025-08-09T00:00	20750	52	-56.5		195	2	
2025-08-09T00:00	20800	52	-56.3		194	2	
2025-08-09T00:00	20850	52	-56.2		220	2	
2025-08-09T00:00	20900	51	-55.9		257	2	
2025-08-09T00:00	20950	51	-55.9		292	2	
2025-08-09T00:00	21000	50	-55.8		314	2	
2025-08-09T00:00	21050	50	-55.5		315	1	
2025-08-09T00:00	21100	50	-55.4		200	0	
2025-08-09T00:00	21150	49	-55.3		150	1	
2025-08-09T00:00	21200	49	-54.7		126	1	
2025-08-09T00:00	21250	48	-54.5		84	1	
2025-08-09T00:00	21300	48	-54.8		51	1	
2025-08-09T00:00	21350	48	-55.1		38	2	
2025-08-09T00:00	21400	47	-55.5		41	2	
2025-08-09T00:00	21450	47	-55.6		56	3	
2025-08-09T00:00	21500	47	-55.6		79	3	
2025-08-09T00:00	21550	46	-55.4		104	3	
2025-08-09T00:00	21600	46	-55.2		127	3	
2025-08-09T00:00	21650	46	-55.2		146	3	
2025-08-09T00:00	21700	45	-55.4		164	3	
2025-08-09T00:00	21750	45	-55.7		185	4	
2025-08-09T00:00	21800	44	-55.6		206	3	
2025-08-09T00:00	21850	44	-55.4		226	2	
2025-08-09T00:00	21900	44	-55.2		250	2	
2025-08-09T00:00	21950	43	-55.0		313	1	
2025-08-09T00:00	22000	43	-55.1		40	1	
2025-08-09T00:00	22050	43	-54.9		66	3	
2025-08-09T00:00	22100	42	-54.5		83	4	
2025-08-09T00:00	22150	42	-54.4		100	4	
2025-08-09T00:00	22200	42	-54.3		119	4	
2025-08-09T00:00	22250	41	-54.2		141	3	
2025-08-09T00:00	22300	41	-54.3		159	3	
2025-08-09T00:00	22350	41	-54.2		161	3	
2025-08-09T00:00	22400	40	-54.0		155	3	
2025-08-09T00:00	22450	40	-53.8		154	3	
2025-08-09T00:00	22500	40	-53.7		156	2	
2025-08-09T00:00	22550	40	-53.7		145	2	
2025-08-09T00:00	22600	39	-53.2		99	1	
2025-08-09T00:00	22650	39	-53.0		58	2	
2025-08-09T00:00	22700	39	-53.0		39	3	
2025-08-09T00:00	22750	38	-53.1		33	4	
2025-08-09T00:00	22800	38	-53.1		37	5	
2025-08-09T00:00	22850	38	-53.1		46	6	
2025-08-09T00:00	22900	37	-53.0		60	7	
2025-08-09T00:00	22950	37	-53.0		75	7	
2025-08-09T00:00	23000	37	-52.8		85	7	
2025-08-09T00:00	23050	37	-52.6		92	7	
2025-08-09T00:00	23100	36	-52.7		91	6	
2025-08-09T00:00	23150	36	-52.6		83	6	
2025-08-09T00:00	23200	36	-52.5		76	7	
2025-08-09T00:00	23250	35	-52.3		77	8	
2025-08-09T00:00	23300	35	-52.0		84	8	
2025-08-09T00:00	23350	35	-52.0		91	8	
2025-08-09T00:00	23400	35	-52.3		98	8	
2025-08-09T00:00	23450	34	-52.7		107	7	
2025-08-09T00:00	23500	34	-52.9		114	7	
2025-08-09T00:00	23550	34	-53.1		119	6	
2025-08-09T00:00	23600	34	-53.4		116	5	
2025-08-09T00:00	23650	33	-53.4		105	5	
2025-08-09T00:00	23700	33	-53.0		93	5	
2025-08-09T00:00	23750	33	-52.8		87	6	
2025-08-09T00:00	23800	33	-52.6		83	7	
2025-08-09T00:00	23850	32	-52.3		83	6	
2025-08-09T00:00	23900	32	-52.1		86	6	
2025-08-09T00:00	23950	32	-52.3		89	6	
2025-08-09T00:00	24000	32	-52.3		89	6	
2025-08-09T00:00	24050	31	-52.1		86	7	
2025-08-09T00:00	24100	31	-52.0		89	7	
2025-08-09T00:00	24150	31	-52.1		98	7	
2025-08-09T00:00	24200	31	-51.9		112	7	
2025-08-09T00:00	24250	30	-51.9		126	8	
2025-08-09T00:00	24300	30	-51.9		136	9	
2025-08-09T00:00	24350	30	-52.1		143	10	
2025-08-09T00:00	24400	30	-52.2		149	9	
2025-08-09T00:00	24450	29	-51.9		153	8	
2025-08-09T00:00	24500	29	-51.2		150	5	
2025-08-09T00:00	24550	29	-50.8		132	3	
2025-08-09T00:00	24600	29	-50.6		99	3	
2025-08-09T00:00	24650	29	-50.6		84	3	
2025-08-09T00:00	24700	28	-50.4		87	4	
2025-08-09T00:00	24750	28	-50.1		94	4	
2025-08-09T00:00	24800	28	-49.9		93	4	
2025-08-09T00:00	24850	28	-49.3		85	6	
2025-08-09T00:00	24900	27	-49.2		78	7	
2025-08-09T00:00	24950	27	-49.4		75	9	
2025-08-09T00:00	25000	27	-49.4		73	9	
2025-08-09T00:00	25050	27	-49.0		72	8	
2025-08-09T00:00	25100	27	-49.0		72	8	
2025-08-09T00:00	25150	26	-49.1		75	8	
2025-08-09T00:00	25200	26	-49.4		81	8	
2025-08-09T00:00	25250	26	-49.6		86	8	
2025-08-09T00:00	25300	26	-49.8		90	8	
2025-08-09T00:00	25350	26	-49.9		89	8	
2025-08-09T00:00	25400	25	-49.8		84	8	
2025-08-09T00:00	25450	25	-49.6		78	7	
2025-08-09T00:00	25500	25	-49.5		73	7	
2025-08-09T00:00	25550	25	-49.4		72	8	
2025-08-09T00:00	25600	25	-49.2		74	8	
2025-08-09T00:00	25650	25	-48.9		80	9	
2025-08-09T00:00	25700	24	-49.0		87	9	
2025-08-09T00:00	25750	24	-49.1		93	10	
2025-08-09T00:00	25800	24	-49.2		100	10	
2025-08-09T00:00	25850	24	-49.5		107	11	
2025-08-09T00:00	25900	24	-49.6		113	11	
2025-08-09T00:00	25950	23	-49.8		119	11	
2025-08-09T00:00	26000	23	-49.7		121	10	
2025-08-09T00:00	26050	23	-49.6		118	9	
2025-08-09T00:00	26100	23	-49.2		114	8	
2025-08-09T00:00	26150	23	-49.0		112	9	
2025-08-09T00:00	26200	23	-48.4		114	9	
2025-08-09T00:00	26250	22	-48.1		118	10	
2025-08-09T00:00	26300	22	-47.9		123	10	
2025-08-09T00:00	26350	22	-47.7		127	10	
2025-08-09T00:00	26400	22	-47.6		128	8	
2025-08-09T00:00	26450	22	-47.3		122	6	
2025-08-09T00:00	26500	22	-47.1		110	6	
2025-08-09T00:00	26550	21	-46.9		101	7	
2025-08-09T00:00	26600	21	-46.7		98	9	
2025-08-09T00:00	26650	21	-46.6		100	10	
2025-08-09T00:00	26700	21	-46.6		106	10	
2025-08-09T00:00	26750	21	-46.6		112	10	
2025-08-09T00:00	26800	21	-46.6		114	10	
2025-08-09T00:00	26850	20	-46.5		114	10	
2025-08-09T00:00	26900	20	-46.2		114	10	
2025-08-09T00:00	26950	20	-45.9		112	9	
2025-08-09T00:00	27000	20	-46.0		109	9	
2025-08-09T00:00	27050	20	-46.0		102	9	
2025-08-09T00:00	27100	20	-45.8		93	9	
2025-08-09T00:00	27150	20	-45.6		85	9	
2025-08-09T00:00	27200	19	-45.8		82	9	
2025-08-09T00:00	27250	19	-45.7		82	8	
2025-08-09T00:00	27300	19	-45.7		88	8	
2025-08-09T00:00	27350	19	-46.0		99	8	
2025-08-09T00:00	27400	19	-46.3		109	8	
2025-08-09T00:00	27450	19	-46.4		115	8	
2025-08-09T00:00	27500	19	-46.4		113	8	
2025-08-09T00:00	27550	18	-46.1		106	8	
2025-08-09T00:00	27600	18	-45.6		97	9	
2025-08-09T00:00	27650	18	-45.4		92	9	
2025-08-09T00:00	27700	18	-45.4		95	10	
2025-08-09T00:00	27750	18	-45.0		103	11	
2025-08-09T00:00	27800	18	-44.9		112	11	
2025-08-09T00:00	27850	18	-44.9		118	10	
2025-08-09T00:00	27900	17	-45.1		115	10	
2025-08-09T00:00	27950	17	-45.2		108	9	
2025-08-09T00:00	28000	17	-45.2		107	9	
2025-08-09T00:00	28050	17	-45.3		114	9	
2025-08-09T00:00	28100	17	-45.2		121	8	
2025-08-09T00:00	28150	17	-45.0		116	7	
2025-08-09T00:00	28200	17	-44.4		98	7	
2025-08-09T00:00	28250	17	-44.0		83	8	
2025-08-09T00:00	28300	16	-43.6		78	10	
2025-08-09T00:00	28350	16	-43.5		77	11	
2025-08-09T00:00	28400	16	-43.3		80	12	
2025-08-09T00:00	28450	16	-43.3		83	13	
2025-08-09T00:00	28500	16	-43.5		86	13	
2025-08-09T00:00	28550	16	-43.7		89	13	
2025-08-09T00:00	28600	16	-43.6		91	12	
2025-08-09T00:00	28650	16	-43.7		94	11	
2025-08-09T00:00	28700	15	-44.0		97	9	
2025-08-09T00:00	28750	15	-44.2		98	8	
2025-08-09T00:00	28800	15	-44.5		96	8	
2025-08-09T00:00	28850	15	-44.5		89	8	
2025-08-09T00:00	28900	15	-44.3		83	9	
2025-08-09T00:00	28950	15	-44.3		77	9	
2025-08-09T00:00	29000	15	-44.3		75	10	
2025-08-09T00:00	29050	15	-44.3		76	11	
2025-08-09T00:00	29100	15	-44.3		80	12	
2025-08-09T00:00	29150	14	-44.2		85	13	
2025-08-09T00:00	29200	14	-44.1		89	14	
2025-08-09T00:00	29250	14	-43.9		91	14	
2025-08-09T00:00	29300	14	-43.8		92	13	
2025-08-09T00:00	29350	14	-43.9		94	11	
2025-08-09T00:00	29400	14	-44.2		98	10	
2025-08-09T00:00	29450	14	-44.4		102	9	
2025-08-09T00:00	29500	14	-44.7		105	8	
2025-08-09T00:00	29550	14	-44.5		106	8	
2025-08-09T00:00	29600	14	-44.6		105	9	
2025-08-09T00:00	29650	13	-44.9		102	9	
2025-08-09T00:00	29700	13	-45.1		100	10	
2025-08-09T00:00	29750	13	-45.2		98	11	
2025-08-09T00:00	29800	13	-45.3		97	12	
2025-08-09T00:00	29850	13	-45.3		95	14	
2025-08-09T00:00	29900	13	-45.4		94	15	
2025-08-09T00:00	29950	13	-45.5		95	16	
2025-08-09T00:00	30000	13	-45.3		97	16	
2025-08-09T00:00	30050	13	-45.3		100	16	
2025-08-09T00:00	30100	13	-45.2		102	15	
2025-08-09T00:00	30150	12	-45.2		104	13	
2025-08-09T00:00	30200	12	-45.1		104	12	
2025-08-09T00:00	30250	12	-45.2		103	11	
2025-08-09T00:00	30300	12	-45.5		102	10	
2025-08-09T00:00	30350	12	-45.4		101	10	
2025-08-09T00:00	30400	12	-45.2		99	9	
2025-08-09T00:00	30450	12	-45.3		97	8	
2025-08-09T00:00	30500	12	-45.1		92	8	
2025-08-09T00:00	30550	12	-45.0		87	9	
2025-08-09T00:00	30600	12	-44.8		83	10	
2025-08-09T00:00	30650	12	-44.6		84	11	
2025-08-09T00:00	30700	11	-44.4		86	13	
2025-08-09T00:00	30750	11	-44.3		90	14	
2025-08-09T00:00	30800	11	-44.2		94	15	
2025-08-09T00:00	30850	11	-44.2		96	15	
2025-08-09T00:00	30900	11	-44.0		98	15	
2025-08-09T00:00	30950	11	-43.9		98	15	
2025-08-09T00:00	31000	11	-43.6		98	14	
2025-08-09T00:00	31050	11	-43.4		95	13	
2025-08-09T00:00	31100	11	-43.0		91	13	
2025-08-09T00:00	31150	11	-42.5		86	12	
2025-08-09T00:00	31200	11	-42.2		81	13	
2025-08-09T00:00	31250	11	-41.9		77	13	
2025-08-09T00:00	31300	11	-41.8		77	13	
2025-08-09T00:00	31350	10	-41.9		81	13	
2025-08-09T00:00	31400	10	-42.1		87	14	
2025-08-09T00:00	31450	10	-42.1		94	14	
2025-08-09T00:00	31500	10	-42.1		98	15	
2025-08-09T00:00	31550	10	-42.1		98	15	
2025-08-09T00:00	31600	10	-42.0		95	15	
2025-08-09T00:00	31650	10	-41.8		95	15	
2025-08-09T00:00	31700	10	-41.7		97	15	
2025-08-09T00:00	31750	10	-41.8		98	14	
2025-08-09T00:00	31800	10	-41.8		95	14	
2025-08-09T00:00	31850	10	-41.6		88	14	
2025-08-09T00:00	31900	10	-41.4		81	15	
2025-08-09T00:00	31950	10	-41.2		76	16	
2025-08-09T00:00	32000	9	-40.7		76	17	
2025-08-09T00:00	32050	9	-40.3		79	17	
2025-08-09T00:00	32100	9	-40.2		83	16	
2025-08-09T00:00	32150	9	-40.2		86	14	
2025-08-09T00:00	32200	9	-40.4		89	13	
2025-08-09T00:00	32250	9	-40.5		90	13	
2025-08-09T00:00	32300	9	-40.4		87	14	
2025-08-09T00:00	32350	9	-40.2		83	15	
2025-08-09T00:00	32400	9	-40.1		78	16	
2025-08-09T00:00	32450	9	-39.9		74	18	
2025-08-09T00:00	32500	9	-39.5		72	19	
2025-08-09T00:00	32550	9	-39.0		72	20	
2025-08-09T00:00	32600	9	-38.7		75	20	
2025-08-09T00:00	32650	9	-38.8		79	19	
2025-08-09T00:00	32700	9	-39.1		82	18	
2025-08-09T00:00	32750	8	-39.2		83	17	
2025-08-09T00:00	32800	8	-39.0		81	17	
2025-08-09T00:00	32850	8	-38.6		79	17	
2025-08-09T00:00	32900	8	-38.6		79	18	
2025-08-09T00:00	32950	8	-38.3		81	18	
2025-08-09T00:00	33000	8	-38.0		85	18	
2025-08-09T00:00	33050	8	-37.9		87	17	
2025-08-09T00:00	33100	8	-37.8		86	17	
2025-08-09T00:00	33150	8	-37.5		82	17	
2025-08-09T00:00	33200	8	-37.0		80	17	
2025-08-09T00:00	33250	8	-36.6		80	16	
2025-08-09T00:00	33300	8	-36.3		79	15	
2025-08-09T00:00	33350	8	-36.2		75	15	
2025-08-09T00:00	33400	8	-35.8		70	14	
2025-08-09T00:00	33450	8	-35.8		64	14	
2025-08-09T00:00	33500	8	-35.7		61	15	
2025-08-09T00:00	33550	8	-35.1		61	16	
2025-08-09T00:00	33600	8	-34.8		64	18	
2025-08-09T00:00	33650	7	-34.6		68	19	
2025-08-09T00:00	33700	7	-34.4		73	20	
2025-08-09T00:00	33750	7	-34.4		78	20	
2025-08-09T00:00	33800	7	-34.5		82	20	
2025-08-09T00:00	33850	7	-34.6		85	20	
2025-08-09T00:00	33900	7	-34.7		86	19	
2025-08-09T00:00	33950	7	-34.6		88	19	
2025-08-09T00:00	34000	7	-34.4		89	17	
2025-08-09T00:00	34050	7	-34.3		89	16	
2025-08-09T00:00	34100	7	-33.8		89	15	
2025-08-09T00:00	34150	7	-33.5		90	15	
2025-08-09T00:00	34200	7	-33.4		92	15	
2025-08-09T00:00	34250	7	-33.4		94	15	
2025-08-09T00:00	34300	7	-33.3		94	14	
2025-08-09T00:00	34350	7	-33.0		91	13	
2025-08-09T00:00	34400	7	-32.8		85	12	
2025-08-09T00:00	34450	7	-32.6		77	13	
2025-08-09T00:00	34500	7	-32.2		73	13	
2025-08-09T00:00	34550	7	-31.9		72	14	
2025-08-09T00:00	34600	7	-31.8		71	14	
2025-08-09T00:00	34650	6	-31.7		69	14	
2025-08-09T00:00	34700	6	-31.4		67	14	
2025-08-09T00:00	34750	6	-30.9		65	14	
2025-08-09T00:00	34800	6	-30.3		62	13	
2025-08-09T00:00	34850	6	-30.1		62	13	
2025-08-09T00:00	34900	6	-30.2		64	12	
2025-08-09T00:00	34950	6	-30.3		70	13	
2025-08-09T00:00	35000	6	-30.4		76	14	
2025-08-09T00:00	35050	6	-30.5		79	15	
2025-08-09T00:00	35100	6	-30.4		78	15	
2025-08-09T00:00	35150	6	-30.2		77	15	
2025-08-09T00:00	35200	6	-29.9		76	15	
2025-08-09T00:00	35250	6	-29.7		76	16	
2025-08-09T00:00	35300	6	-29.7		76	16	
2025-08-09T00:00	35350	6	-29.5		76	17	
2025-08-09T00:00	35400	6	-29.4		77	17	
2025-08-09T00:00	35450	6	-29.3		78	16	
2025-08-09T00:00	35500	6	-29.2		78	16	
2025-08-09T00:00	35550	6	-29.2		79	16	
2025-08-09T00:00	35600	6	-28.9		80	16	
2025-08-09T00:00	35650	6	-28.3		81	16	
2025-08-09T00:00	35700	6	-27.9		80	16	
2025-08-09T00:00	35750	6	-27.4		79	16	
2025-08-09T00:00	35800	5	-27.2		79	17	
2025-08-09T00:00	35850	5	-27.1		78	17	
2025-08-09T00:00	35900	5	-27.2		77	18	
2025-08-09T00:00	35950	5	-27.3		78	18	
2025-08-09T00:00	36000	5	-27.1		79	20	
2025-08-09T00:00	36050	5	-27.0		79	21	
2025-08-09T00:00	36100	5	-27.0		79	22	
2025-08-09T00:00	36150	5	-27.2		79	23	
2025-08-09T00:00	36200	5	-27.1		79	22	
2025-08-09T00:00	36250	5	-27.0		79	21	
2025-08-09T00:00	36300	5	-27.3		78	20	
2025-08-09T00:00	36350	5	-27.5		77	19	
2025-08-09T00:00	36400	5	-27.4		75	19	
2025-08-09T00:00	36450	5	-27.2		75	18	
2025-08-09T00:00	36500	5	-26.8		75	19	
2025-08-09T00:00	36550	5	-26.4		75	19	
2025-08-09T00:00	36600	5	-26.2		72	19	
2025-08-09T00:00	36650	5	-25.9		68	19	
2025-08-09T00:00	36700	5	-25.5		64	20	
2025-08-09T00:00	36750	5	-25.2		63	21	
2025-08-09T00:00	36800	5	-25.2		64	21	
2025-08-09T12:00	491	964	29.1	15.6	337	1	
2025-08-09T12:00	501	963	28.8	16.0	338	1	
2025-08-09T12:00	520	961	27.5	15.7	342	1	
2025-08-09T12:00	540	959	27.3	15.4	348	1	
2025-08-09T12:00	560	957	27.2	15.3	355	1	
2025-08-09T12:00	580	955	27.0	15.1	3	1	
2025-08-09T12:00	600	953	26.8	15.1	11	1	
2025-08-09T12:00	620	951	26.7	15.1	16	2	
2025-08-09T12:00	640	949	26.4	15.1	21	2	
2025-08-09T12:00	660	946	26.3	15.1	26	2	
2025-08-09T12:00	680	944	26.1	15.0	30	2	
2025-08-09T12:00	700	942	25.8	14.9	33	2	
2025-08-09T12:00	720	940	25.6	15.0	35	1	
2025-08-09T12:00	740	937	25.4	14.9	36	1	
2025-08-09T12:00	760	935	25.3	14.9	39	1	
2025-08-09T12:00	780	933	25.3	14.8	48	1	
2025-08-09T12:00	800	931	25.0	14.9	135	0	
2025-08-09T12:00	820	929	24.7	14.8	187	1	
2025-08-09T12:00	840	927	24.5	14.8	194	1	
2025-08-09T12:00	860	925	24.3	14.8	198	2	
2025-08-09T12:00	880	923	24.3	14.5	200	3	
2025-08-09T12:00	900	921	24.7	14.1	201	3	
2025-08-09T12:00	920	918	24.9	13.9	203	3	
2025-08-09T12:00	940	916	24.9	13.8	204	4	
2025-08-09T12:00	960	914	24.8	13.7	204	4	
2025-08-09T12:00	980	912	24.6	13.4	205	4	
2025-08-09T12:00	1000	910	24.5	13.3	205	5	
2025-08-09T12:00	1020	908	24.4	13.3	205	5	
2025-08-09T12:00	1040	906	24.3	13.1	206	5	
2025-08-09T12:00	1060	904	24.2	13.0	207	5	
2025-08-09T12:00	1080	902	24.2	12.8	209	5	
2025-08-09T12:00	1100	900	24.2	12.6	212	5	
2025-08-09T12:00	1120	898	24.1	12.4	214	6	
2025-08-09T12:00	1140	896	24.0	12.4	217	6	
2025-08-09T12:00	1160	893	23.8	12.3	219	6	
2025-08-09T12:00	1180	892	23.7	12.1	221	7	
2025-08-09T12:00	1200	890	23.7	11.8	223	7	
2025-08-09T12:00	1220	888	23.6	11.6	224	7	
2025-08-09T12:00	1240	886	23.6	11.4	225	8	
2025-08-09T12:00	1260	884	23.7	10.8	227	8	
2025-08-09T12:00	1280	881	23.8	10.3	230	9	
2025-08-09T12:00	1300	880	23.7	10.1	232	9	
2025-08-09T12:00	1320	878	23.7	9.8	234	9	
2025-08-09T12:00	1340	875	23.7	9.5	237	10	
2025-08-09T12:00	1360	873	23.5	9.5	238	10	
2025-08-09T12:00	1380	871	23.4	9.3	239	10	
2025-08-09T12:00	1400	869	23.4	9.1	239	10	
2025-08-09T12:00	1420	868	23.3	9.2	237	10	
2025-08-09T12:00	1440	866	23.1	9.1	237	10	
2025-08-09T12:00	1460	864	22.9	9.1	235	9	
2025-08-09T12:00	1480	861	22.7	9.1	234	9	
2025-08-09T12:00	1500	859	22.5	9.2	234	9	
2025-08-09T12:00	1520	857	22.3	9.4	234	9	
2025-08-09T12:00	1540	855	22.1	9.3	234	9	
2025-08-09T12:00	1560	853	22.0	9.3	235	8	
2025-08-09T12:00	1580	852	21.8	9.5	235	8	
2025-08-09T12:00	1600	850	21.6	9.5	235	8	
2025-08-09T12:00	1620	848	21.4	9.5	236	8	
2025-08-09T12:00	1640	846	21.3	9.4	236	9	
2025-08-09T12:00	1660	844	21.1	9.4	237	9	
2025-08-09T12:00	1680	842	20.9	9.4	237	9	
2025-08-09T12:00	1700	840	20.7	9.5	237	9	
2025-08-09T12:00	1720	838	20.5	9.4	237	9	
2025-08-09T12:00	1740	836	20.3	9.4	237	9	
2025-08-09T12:00	1760	834	20.1	9.5	238	9	
2025-08-09T12:00	1780	832	20.0	9.4	238	9	
2025-08-09T12:00	1800	830	19.8	9.3	238	9	
2025-08-09T12:00	1820	828	19.6	9.3	239	8	
2025-08-09T12:00	1840	826	19.4	9.3	239	8	
2025-08-09T12:00	1860	824	19.2	9.1	239	8	
2025-08-09T12:00	1880	823	19.1	8.9	239	8	
2025-08-09T12:00	1900	821	18.9	8.9	239	8	
2025-08-09T12:00	1920	819	18.7	9.1	238	8	
2025-08-09T12:00	1940	817	18.5	9.0	238	8	
2025-08-09T12:00	1960	815	18.3	8.7	237	8	
2025-08-09T12:00	1980	813	18.2	8.5	237	8	
2025-08-09T12:00	2000	811	18.1	8.4	237	8	
2025-08-09T12:00	2020	809	17.9	8.3	236	9	
2025-08-09T12:00	2040	808	17.7	8.2	236	9	
2025-08-09T12:00	2060	805	17.5	7.8	235	9	
2025-08-09T12:00	2080	803	17.4	7.7	235	9	
2025-08-09T12:00	2100	802	17.2	7.5	234	9	
2025-08-09T12:00	2120	800	17.0	7.5	234	9	
2025-08-09T12:00	2140	798	16.9	7.1	235	9	
2025-08-09T12:00	2160	796	16.8	7.2	236	9	
2025-08-09T12:00	2180	794	16.6	7.1	238	9	
2025-08-09T12:00	2200	792	16.5	7.1	240	9	
2025-08-09T12:00	2220	791	16.3	6.8	241	9	
2025-08-09T12:00	2240	789	16.1	6.7	242	9	
2025-08-09T12:00	2260	787	16.0	6.7	243	9	
2025-08-09T12:00	2280	785	15.8	6.4	244	9	
2025-08-09T12:00	2300	783	15.6	6.5	245	8	
2025-08-09T12:00	2320	781	15.4	6.4	246	8	
2025-08-09T12:00	2340	779	15.4	5.4	248	8	
2025-08-09T12:00	2360	778	15.2	5.0	249	7	
2025-08-09T12:00	2380	776	15.1	4.8	250	7	
2025-08-09T12:00	2400	774	14.9	4.6	249	7	
2025-08-09T12:00	2420	772	14.7	5.0	246	7	
2025-08-09T12:00	2440	770	14.5	4.8	242	7	
2025-08-09T12:00	2460	768	14.3	4.4	240	7	
2025-08-09T12:00	2480	766	14.1	4.4	239	7	
2025-08-09T12:00	2500	765	13.9	4.2	239	8	
2025-08-09T12:00	2520	763	13.8	4.0	241	8	
2025-08-09T12:00	2540	761	13.6	4.0	245	8	
2025-08-09T12:00	2560	759	13.4	3.2	249	8	
2025-08-09T12:00	2580	758	13.3	2.9	251	9	
2025-08-09T12:00	2600	756	13.2	2.2	253	9	
2025-08-09T12:00	2620	754	13.1	1.5	255	9	
2025-08-09T12:00	2640	752	12.9	1.8	256	9	
2025-08-09T12:00	2660	750	12.7	1.8	256	9	
2025-08-09T12:00	2680	749	12.5	1.3	257	9	
2025-08-09T12:00	2700	747	12.3	1.8	259	10	
2025-08-09T12:00	2720	745	12.2	0.8	261	10	
2025-08-09T12:00	2740	743	12.0	1.2	263	10	
2025-08-09T12:00	2760	742	11.9	0.8	265	11	
2025-08-09T12:00	2780	740	12.1	-3.2	267	11	
2025-08-09T12:00	2800	738	12.3	-5.0	269	11	
2025-08-09T12:00	2820	736	12.2	-4.3	270	11	
2025-08-09T12:00	2840	734	12.1	-6.4	269	11	
2025-08-09T12:00	2860	733	12.1	-8.4	269	11	
2025-08-09T12:00	2880	731	12.0	-9.9	269	12	
2025-08-09T12:00	2900	729	11.8	-10.5	269	12	
2025-08-09T12:00	2920	727	11.6	-10.6	270	11	
2025-08-09T12:00	2940	726	11.6	-12.2	271	11	
2025-08-09T12:00	2960	724	11.6	-14.1	272	11	
2025-08-09T12:00	2980	722	11.5	-15.9	273	11	
2025-08-09T12:00	3000	721	11.6	-21.3	274	11	
2025-08-09T12:00	3020	719	11.5	-21.5	275	11	
2025-08-09T12:00	3040	717	11.4	-21.4	277	11	
2025-08-09T12:00	3060	715	11.2	-21.4	279	12	
2025-08-09T12:00	3080	714	11.0	-21.2	280	12	
2025-08-09T12:00	3100	712	10.9	-20.9	281	12	
2025-08-09T12:00	3120	710	10.8	-23.6	281	12	
2025-08-09T12:00	3140	709	10.8	-25.4	279	12	
2025-08-09T12:00	3160	707	10.6	-25.5	277	12	
2025-08-09T12:00	3180	705	10.4	-25.4	276	12	
2025-08-09T12:00	3200	703	10.2	-25.8	275	12	
2025-08-09T12:00	3220	702	10.1	-26.2	274	12	
2025-08-09T12:00	3240	700	9.9	-26.4	274	11	
2025-08-09T12:00	3260	698	9.8	-26.3	274	11	
2025-08-09T12:00	3280	697	9.7	-25.7	274	11	
2025-08-09T12:00	3300	695	9.5	-25.1	275	11	
2025-08-09T12:00	3320	693	9.4	-24.6	275	11	
2025-08-09T12:00	3340	692	9.2	-23.2	275	11	
2025-08-09T12:00	3360	690	9.0	-21.9	276	11	
2025-08-09T12:00	3380	688	8.9	-21.4	279	12	
2025-08-09T12:00	3400	687	8.7	-21.4	281	12	
2025-08-09T12:00	3420	685	8.5	-21.0	284	12	
2025-08-09T12:00	3440	683	8.3	-20.2	287	13	
2025-08-09T12:00	3460	682	8.1	-19.8	289	13	
2025-08-09T12:00	3480	680	7.9	-19.7	289	14	
2025-08-09T12:00	3500	678	7.7	-19.2	290	14	
2025-08-09T12:00	3520	677	7.6	-18.5	290	14	
2025-08-09T12:00	3540	675	7.4	-18.3	291	14	
2025-08-09T12:00	3560	674	7.2	-18.2	291	14	
2025-08-09T12:00	3580	672	7.1	-18.3	292	14	
2025-08-09T12:00	3600	670	6.9	-18.3	292	14	
2025-08-09T12:00	3620	669	6.7	-18.7	293	14	
2025-08-09T12:00	3640	667	6.5	-18.9	293	14	
2025-08-09T12:00	3660	665	6.4	-18.9	293	14	
2025-08-09T12:00	3680	664	6.2	-19.2	292	13	
2025-08-09T12:00	3700	662	6.0	-19.4	291	13	
2025-08-09T12:00	3720	661	5.9	-19.5	289	13	
2025-08-09T12:00	3740	659	5.8	-21.3	288	12	
2025-08-09T12:00	3760	657	5.7	-24.0	287	12	
2025-08-09T12:00	3780	656	5.5	-23.5	286	12	
2025-08-09T12:00	3800	654	5.4	-23.1	285	11	
2025-08-09T12:00	3820	652	5.2	-22.5	285	11	
2025-08-09T12:00	3840	651	5.1	-22.5	285	11	
2025-08-09T12:00	3860	649	4.9	-22.5	285	11	
2025-08-09T12:00	3880	648	4.7	-22.4	285	11	
2025-08-09T12:00	3900	646	4.6	-22.5	285	11	
2025-08-09T12:00	3920	644	4.4	-22.8	285	11	
2025-08-09T12:00	3940	643	4.3	-23.0	284	11	
2025-08-09T12:00	3960	641	4.1	-23.5	283	11	
2025-08-09T12:00	3980	640	4.0	-24.0	282	11	
2025-08-09T12:00	4000	638	3.9	-25.9	282	11	
2025-08-09T12:00	4020	637	3.9	-28.1	282	11	
2025-08-09T12:00	4040	635	3.8	-30.1	282	11	
2025-08-09T12:00	4060	633	3.7	-30.2	281	11	
2025-08-09T12:00	4080	632	3.6	-28.6	281	11	
2025-08-09T12:00	4100	630	3.5	-27.9	280	10	
2025-08-09T12:00	4120	629	3.3	-27.7	278	10	
2025-08-09T12:00	4140	627	3.2	-27.1	275	9	
2025-08-09T12:00	4160	626	3.0	-26.3	272	9	
2025-08-09T12:00	4180	624	2.9	-25.9	269	9	
2025-08-09T12:00	4200	623	2.7	-25.9	265	9	
2025-08-09T12:00	4220	621	2.6	-25.9	262	9	
2025-08-09T12:00	4240	619	2.4	-26.4	260	9	
2025-08-09T12:00	4260	618	2.4	-27.2	258	9	
2025-08-09T12:00	4280	616	2.3	-28.5	257	9	
2025-08-09T12:00	4300	615	2.2	-29.8	256	9	
2025-08-09T12:00	4320	613	2.1	-30.8	255	9	
2025-08-09T12:00	4340	612	2.0	-31.3	252	9	
2025-08-09T12:00	4360	610	1.9	-31.7	250	9	
2025-08-09T12:00	4380	609	1.8	-32.3	248	9	
2025-08-09T12:00	4400	607	1.8	-32.6	247	9	
2025-08-09T12:00	4420	606	1.8	-32.5	247	10	
2025-08-09T12:00	4440	604	1.8	-32.6	248	10	
2025-08-09T12:00	4460	603	1.7	-32.7	250	10	
2025-08-09T12:00	4480	601	1.5	-32.6	252	11	
2025-08-09T12:00	4500	600	1.4	-32.4	255	11	
2025-08-09T12:00	4520	598	1.2	-32.0	257	11	
2025-08-09T12:00	4540	597	1.1	-29.6	258	12	
2025-08-09T12:00	4560	595	1.0	-27.4	258	12	
2025-08-09T12:00	4580	594	0.9	-25.7	257	12	
2025-08-09T12:00	4600	592	0.8	-24.3	255	11	
2025-08-09T12:00	4620	591	0.6	-23.5	253	11	
2025-08-09T12:00	4640	590	0.5	-22.9	252	11	
2025-08-09T12:00	4660	588	0.4	-22.4	250	11	
2025-08-09T12:00	4680	586	0.2	-22.2	250	11	
2025-08-09T12:00	4700	585	0.0	-22.3	249	11	
2025-08-09T12:00	4720	584	-0.1	-22.9	250	11	
2025-08-09T12:00	4740	582	-0.2	-23.4	251	11	
2025-08-09T12:00	4760	581	-0.3	-24.2	253	11	
2025-08-09T12:00	4780	579	-0.4	-23.7	255	11	
2025-08-09T12:00	4800	578	-0.5	-23.0	257	11	
2025-08-09T12:00	4820	576	-0.7	-22.9	258	11	
2025-08-09T12:00	4840	575	-0.9	-22.9	258	11	
2025-08-09T12:00	4860	573	-1.1	-23.0	258	11	
2025-08-09T12:00	4880	572	-1.2	-23.4	258	11	
2025-08-09T12:00	4900	571	-1.3	-23.9	258	11	
2025-08-09T12:00	4920	569	-1.4	-24.1	258	11	
2025-08-09T12:00	4940	568	-1.5	-24.4	257	11	
2025-08-09T12:00	4960	566	-1.5	-22.6	256	11	
2025-08-09T12:00	4980	565	-1.6	-21.1	256	12	
2025-08-09T12:00	5000	564	-1.7	-19.9	256	12	
2025-08-09T12:00	5020	562	-1.8	-18.0	256	12	
2025-08-09T12:00	5040	561	-1.9	-18.2	257	12	
2025-08-09T12:00	5060	559	-2.1	-18.2	258	12	
2025-08-09T12:00	5080	558	-2.3	-18.6	258	12	
2025-08-09T12:00	5100	557	-2.4	-17.8	258	13	
2025-08-09T12:00	5120	555	-2.6	-17.0	257	13	
2025-08-09T12:00	5140	554	-2.8	-16.0	256	13	
2025-08-09T12:00	5160	552	-2.9	-15.3	255	13	
2025-08-09T12:00	5180	551	-3.1	-14.9	254	13	
2025-08-09T12:00	5200	549	-3.3	-15.0	253	13	
2025-08-09T12:00	5220	548	-3.5	-15.5	253	13	
2025-08-09T12:00	5240	547	-3.7	-15.4	253	13	
2025-08-09T12:00	5260	545	-3.9	-15.6	253	13	
2025-08-09T12:00	5280	544	-4.1	-16.0	253	12	
2025-08-09T12:00	5300	542	-4.2	-16.4	253	12	
2025-08-09T12:00	5320	541	-4.4	-16.7	253	12	
2025-08-09T12:00	5340	540	-4.6	-17.3	252	12	
2025-08-09T12:00	5360	538	-4.8	-17.5	252	12	
2025-08-09T12:00	5380	537	-4.9	-17.5	252	13	
2025-08-09T12:00	5400	536	-5.1	-17.3	253	13	
2025-08-09T12:00	5420	534	-5.3	-17.5	253	13	
2025-08-09T12:00	5440	533	-5.5	-17.4	254	13	
2025-08-09T12:00	5460	532	-5.7	-17.4	255	13	
2025-08-09T12:00	5480	530	-5.9	-17.3	256	13	
2025-08-09T12:00	5500	529	-6.1	-17.1	257	13	
2025-08-09T12:00	5520	528	-6.3	-16.6	257	13	
2025-08-09T12:00	5540	526	-6.4	-16.7	257	12	
2025-08-09T12:00	5560	525	-6.6	-17.7	256	12	
2025-08-09T12:00	5580	524	-6.6	-18.7	256	11	
2025-08-09T12:00	5600	522	-6.6	-20.6	256	11	
2025-08-09T12:00	5620	521	-6.6	-23.2	256	11	
2025-08-09T12:00	5640	520	-6.5	-28.7	256	10	
2025-08-09T12:00	5660	518	-6.1	-34.8	257	10	
2025-08-09T12:00	5680	517	-6.0	-35.8	260	10	
2025-08-09T12:00	5700	515	-5.8	-37.4	262	10	
2025-08-09T12:00	5720	514	-5.6	-38.0	263	10	
2025-08-09T12:00	5740	513	-5.4	-39.2	264	10	
2025-08-09T12:00	5760	512	-5.4	-40.7	265	10	
2025-08-09T12:00	5780	510	-5.5	-41.8	265	11	
2025-08-09T12:00	5800	509	-5.7	-41.9	265	11	
2025-08-09T12:00	5820	508	-5.9	-42.0	265	11	
2025-08-09T12:00	5840	506	-6.1	-42.1	265	11	
2025-08-09T12:00	5860	505	-6.1	-41.7	264	10	
2025-08-09T12:00	5880	504	-6.2	-41.6	265	10	
2025-08-09T12:00	5900	502	-6.4	-41.4	265	10	
2025-08-09T12:00	5920	501	-6.5	-41.0	266	10	
2025-08-09T12:00	5940	500	-6.7	-40.3	266	10	
2025-08-09T12:00	5960	499	-6.8	-38.8	266	10	
2025-08-09T12:00	5980	497	-7.0	-38.1	266	10	
2025-08-09T12:00	6000	496	-7.2	-38.2	266	10	
2025-08-09T12:00	6020	495	-7.3	-38.5	266	11	
2025-08-09T12:00	6040	494	-7.5	-37.9	267	11	
2025-08-09T12:00	6060	492	-7.6	-37.2	267	11	
2025-08-09T12:00	6080	491	-7.7	-37.2	268	12	
2025-08-09T12:00	6100	490	-7.7	-37.4	269	12	
2025-08-09T12:00	6120	489	-7.8	-37.9	269	12	
2025-08-09T12:00	6140	487	-7.9	-37.7	269	12	
2025-08-09T12:00	6160	486	-8.1	-37.4	269	12	
2025-08-09T12:00	6180	485	-8.2	-37.4	268	12	
2025-08-09T12:00	6200	484	-8.4	-37.5	267	12	
2025-08-09T12:00	6220	482	-8.6	-37.8	266	12	
2025-08-09T12:00	6240	481	-8.7	-38.9	264	12	
2025-08-09T12:00	6260	480	-8.8	-40.5	263	12	
2025-08-09T12:00	6280	478	-8.9	-42.0	262	12	
2025-08-09T12:00	6300	477	-9.0	-42.2	261	12	
2025-08-09T12:00	6320	476	-9.2	-42.0	261	13	
2025-08-09T12:00	6340	475	-9.4	-42.0	262	13	
2025-08-09T12:00	6360	474	-9.5	-41.9	262	13	
2025-08-09T12:00	6380	472	-9.7	-41.8	263	13	
2025-08-09T12:00	6400	471	-9.9	-41.5	265	12	
2025-08-09T12:00	6420	470	-10.0	-40.3	266	12	
2025-08-09T12:00	6440	469	-10.2	-39.1	267	12	
2025-08-09T12:00	6460	467	-10.3	-37.3	268	12	
2025-08-09T12:00	6480	466	-10.5	-37.0	269	12	
2025-08-09T12:00	6500	465	-10.7	-35.8	269	12	
2025-08-09T12:00	6520	464	-10.9	-35.4	269	12	
2025-08-09T12:00	6540	463	-11.1	-34.0	270	12	
2025-08-09T12:00	6560	461	-11.3	-33.3	270	12	
2025-08-09T12:00	6580	460	-11.4	-33.6	269	12	
2025-08-09T12:00	6600	459	-11.6	-34.6	269	12	
2025-08-09T12:00	6620	458	-11.8	-34.0	268	12	
2025-08-09T12:00	6640	457	-12.0	-33.9	267	12	
2025-08-09T12:00	6660	455	-12.1	-34.0	266	12	
2025-08-09T12:00	6680	454	-12.1	-34.4	266	12	
2025-08-09T12:00	6700	453	-12.3	-34.4	266	13	
2025-08-09T12:00	6720	452	-12.4	-34.4	266	13	
2025-08-09T12:00	6740	451	-12.6	-34.6	266	13	
2025-08-09T12:00	6760	449	-12.8	-34.7	266	13	
2025-08-09T12:00	6780	448	-13.0	-34.9	267	13	
2025-08-09T12:00	6800	447	-13.1	-35.1	268	12	
2025-08-09T12:00	6820	446	-13.3	-35.4	269	12	
2025-08-09T12:00	6840	445	-13.4	-35.8	269	12	
2025-08-09T12:00	6860	444	-13.4	-36.2	270	12	
2025-08-09T12:00	6880	443	-13.5	-36.5	270	12	
2025-08-09T12:00	6900	441	-13.7	-36.8	270	12	
2025-08-09T12:00	6920	440	-13.8	-37.5	270	12	
2025-08-09T12:00	6940	439	-13.9	-37.8	269	12	
2025-08-09T12:00	6960	438	-14.0	-38.3	268	12	
2025-08-09T12:00	6980	437	-14.1	-38.8	267	12	
2025-08-09T12:00	7000	436	-14.2	-39.0	266	13	
2025-08-09T12:00	7020	434	-14.3	-39.3	264	13	
2025-08-09T12:00	7040	433	-14.4	-39.5	262	13	
2025-08-09T12:00	7060	432	-14.6	-39.6	260	14	
2025-08-09T12:00	7080	431	-14.8	-39.8	259	14	
2025-08-09T12:00	7100	430	-14.9	-40.0	257	14	
2025-08-09T12:00	7120	429	-15.1	-40.3	257	14	
2025-08-09T12:00	7140	428	-15.2	-40.6	255	13	
2025-08-09T12:00	7160	427	-15.3	-40.9	254	13	
2025-08-09T12:00	7180	425	-15.4	-41.2	253	12	
2025-08-09T12:00	7200	424	-15.4	-41.8	252	12	
2025-08-09T12:00	7220	423	-15.5	-42.0	252	12	
2025-08-09T12:00	7240	422	-15.7	-42.0	251	12	
2025-08-09T12:00	7260	421	-15.9	-42.0	251	12	
2025-08-09T12:00	7280	420	-16.0	-42.0	252	12	
2025-08-09T12:00	7300	419	-16.2	-41.9	252	12	
2025-08-09T12:00	7320	417	-16.4	-42.0	253	12	
2025-08-09T12:00	7340	416	-16.6	-42.0	253	13	
2025-08-09T12:00	7360	415	-16.8	-42.1	254	13	
2025-08-09T12:00	7380	414	-17.0	-42.2	255	13	
2025-08-09T12:00	7400	413	-17.1	-42.3	256	13	
2025-08-09T12:00	7420	412	-17.3	-42.3	256	13	
2025-08-09T12:00	7440	411	-17.3	-43.0	257	13	
2025-08-09T12:00	7460	410	-17.4	-41.3	257	13	
2025-08-09T12:00	7480	409	-17.5	-39.0	257	13	
2025-08-09T12:00	7500	408	-17.7	-39.0	256	13	
2025-08-09T12:00	7520	406	-17.9	-38.4	256	13	
2025-08-09T12:00	7540	405	-18.0	-37.4	255	13	
2025-08-09T12:00	7560	404	-18.2	-36.3	254	13	
2025-08-09T12:00	7580	403	-18.3	-36.8	254	13	
2025-08-09T12:00	7600	402	-18.5	-37.9	253	13	
2025-08-09T12:00	7620	401	-18.7	-39.0	253	13	
2025-08-09T12:00	7640	400	-18.8	-39.7	252	13	
2025-08-09T12:00	7660	399	-19.0	-40.2	252	13	
2025-08-09T12:00	7680	398	-19.2	-40.5	251	13	
2025-08-09T12:00	7700	397	-19.4	-40.6	251	13	
2025-08-09T12:00	7720	396	-19.6	-40.6	250	13	
2025-08-09T12:00	7740	395	-19.8	-40.6	250	14	
2025-08-09T12:00	7760	394	-20.0	-40.7	249	14	
2025-08-09T12:00	7780	393	-20.1	-40.7	249	14	
2025-08-09T12:00	7800	391	-20.3	-40.7	249	14	
2025-08-09T12:00	7820	390	-20.5	-40.7	249	14	
2025-08-09T12:00	7840	389	-20.7	-40.7	250	14	
2025-08-09T12:00	7860	388	-20.9	-40.6	250	14	
2025-08-09T12:00	7880	387	-21.1	-40.6	250	14	
2025-08-09T12:00	7900	386	-21.2	-40.3	251	14	
2025-08-09T12:00	7920	385	-21.4	-40.2	251	14	
2025-08-09T12:00	7940	384	-21.6	-40.2	251	14	
2025-08-09T12:00	7960	383	-21.8	-39.5	251	14	
2025-08-09T12:00	7980	382	-22.0	-37.1	251	14	
2025-08-09T12:00	8000	381	-22.2	-35.6	251	14	
2025-08-09T12:00	8020	380	-22.4	-35.4	250	14	
2025-08-09T12:00	8040	379	-22.6	-36.9	250	14	
2025-08-09T12:00	8060	378	-22.8	-36.8	250	14	
2025-08-09T12:00	8080	377	-23.0	-38.3	250	14	
2025-08-09T12:00	8100	376	-23.1	-39.9	251	14	
2025-08-09T12:00	8120	375	-23.3	-39.6	251	14	
2025-08-09T12:00	8140	374	-23.5	-40.0	252	14	
2025-08-09T12:00	8160	373	-23.7	-40.1	252	14	
2025-08-09T12:00	8180	372	-23.9	-39.7	253	14	
2025-08-09T12:00	8200	371	-24.1	-39.3	253	14	
2025-08-09T12:00	8220	370	-24.3	-39.1	254	14	
2025-08-09T12:00	8240	369	-24.5	-38.4	254	13	
2025-08-09T12:00	8260	368	-24.6	-38.2	253	13	
2025-08-09T12:00	8280	367	-24.7	-40.2	253	13	
2025-08-09T12:00	8300	366	-24.9	-40.7	252	13	
2025-08-09T12:00	8320	365	-25.1	-39.5	251	13	
2025-08-09T12:00	8340	364	-25.2	-37.5	250	13	
2025-08-09T12:00	8360	363	-25.4	-36.1	249	13	
2025-08-09T12:00	8380	362	-25.6	-35.9	249	13	
2025-08-09T12:00	8400	361	-25.8	-37.0	248	13	
2025-08-09T12:00	8420	360	-26.0	-37.9	248	13	
2025-08-09T12:00	8440	359	-26.1	-37.5	248	13	
2025-08-09T12:00	8460	358	-26.2	-36.4	249	13	
2025-08-09T12:00	8480	357	-26.3	-35.3	249	13	
2025-08-09T12:00	8500	356	-26.4	-35.6	249	14	
2025-08-09T12:00	8520	355	-26.6	-34.5	250	14	
2025-08-09T12:00	8540	354	-26.7	-34.7	250	14	
2025-08-09T12:00	8560	353	-26.7	-35.7	250	15	
2025-08-09T12:00	8580	352	-26.9	-36.0	250	15	
2025-08-09T12:00	8600	351	-27.0	-36.4	249	15	
2025-08-09T12:00	8620	350	-27.1	-38.0	249	16	
2025-08-09T12:00	8640	349	-27.2	-39.4	249	16	
2025-08-09T12:00	8660	348	-27.4	-39.1	248	16	
2025-08-09T12:00	8680	347	-27.5	-39.9	248	17	
2025-08-09T12:00	8700	346	-27.6	-41.6	247	17	
2025-08-09T12:00	8720	345	-27.7	-43.4	247	17	
2025-08-09T12:00	8740	344	-27.8	-44.2	246	17	
2025-08-09T12:00	8760	343	-28.0	-44.6	246	17	
2025-08-09T12:00	8780	342	-28.1	-45.5	246	17	
2025-08-09T12:00	8800	341	-28.3	-46.2	245	17	
2025-08-09T12:00	8820	340	-28.5	-46.3	246	17	
2025-08-09T12:00	8840	339	-28.6	-46.3	246	17	
2025-08-09T12:00	8860	338	-28.8	-46.2	245	17	
2025-08-09T12:00	8880	337	-29.0	-46.1	245	17	
2025-08-09T12:00	8900	336	-29.2	-46.7	245	17	
2025-08-09T12:00	8920	335	-29.3	-48.1	244	17	
2025-08-09T12:00	8940	335	-29.4	-48.7	244	17	
2025-08-09T12:00	8960	334	-29.5	-48.7	243	17	
2025-08-09T12:00	8980	333	-29.7	-48.8	242	18	
2025-08-09T12:00	9000	332	-29.9	-48.8	241	18	
2025-08-09T12:00	9020	331	-30.1	-48.8	241	18	
2025-08-09T12:00	9040	330	-30.2	-49.0	241	18	
2025-08-09T12:00	9060	329	-30.4	-49.4	241	18	
2025-08-09T12:00	9080	328	-30.6	-49.4	241	17	
2025-08-09T12:00	9100	327	-30.8	-49.4	241	17	
2025-08-09T12:00	9120	326	-31.0	-49.6	241	17	
2025-08-09T12:00	9140	325	-31.1	-49.7	241	17	
2025-08-09T12:00	9160	324	-31.3	-49.7	242	17	
2025-08-09T12:00	9180	323	-31.5	-49.8	242	17	
2025-08-09T12:00	9200	322	-31.6	-49.7	242	16	
2025-08-09T12:00	9220	322	-31.8	-50.1	243	16	
2025-08-09T12:00	9240	321	-32.0	-50.1	244	16	
2025-08-09T12:00	9260	320	-32.1	-50.3	244	16	
2025-08-09T12:00	9280	319	-32.3	-50.6	244	16	
2025-08-09T12:00	9300	318	-32.5	-50.5	244	16	
2025-08-09T12:00	9320	317	-32.7	-50.8	244	16	
2025-08-09T12:00	9340	316	-32.9	-51.1	245	16	
2025-08-09T12:00	9360	315	-33.0	-51.0	245	15	
2025-08-09T12:00	9380	314	-33.2	-51.0	245	15	
2025-08-09T12:00	9400	314	-33.4	-50.7	245	15	
2025-08-09T12:00	9420	313	-33.6	-49.5	246	15	
2025-08-09T12:00	9440	312	-33.7	-48.2	247	15	
2025-08-09T12:00	9460	311	-33.9	-47.9	247	15	
2025-08-09T12:00	9480	310	-34.1	-46.1	248	15	
2025-08-09T12:00	9500	309	-34.3	-44.7	249	15	
2025-08-09T12:00	9520	308	-34.4	-45.2	250	15	
2025-08-09T12:00	9540	307	-34.6	-45.6	250	15	
2025-08-09T12:00	9560	306	-34.8	-44.6	251	15	
2025-08-09T12:00	9580	306	-34.9	-43.8	251	15	
2025-08-09T12:00	9600	305	-35.1	-45.3	251	15	
2025-08-09T12:00	9620	304	-35.3	-46.9	250	15	
2025-08-09T12:00	9640	303	-35.5	-46.9	249	15	
2025-08-09T12:00	9660	302	-35.6	-47.0	248	15	
2025-08-09T12:00	9680	301	-35.8	-47.6	247	16	
2025-08-09T12:00	9700	300	-35.9	-47.7	246	16	
2025-08-09T12:00	9720	299	-36.1	-47.9	246	16	
2025-08-09T12:00	9740	299	-36.3	-48.3	246	16	
2025-08-09T12:00	9760	298	-36.4	-48.4	246	16	
2025-08-09T12:00	9780	297	-36.6	-48.7	247	16	
2025-08-09T12:00	9800	296	-36.7	-49.0	248	15	
2025-08-09T12:00	9820	295	-36.9	-48.8	249	15	
2025-08-09T12:00	9840	294	-37.1	-48.9	250	15	
2025-08-09T12:00	9860	293	-37.3	-49.2	250	15	
2025-08-09T12:00	9880	293	-37.4	-48.3	251	15	
2025-08-09T12:00	9900	292	-37.6	-47.9	252	15	
2025-08-09T12:00	9920	291	-37.8	-47.4	252	15	
2025-08-09T12:00	9940	290	-38.0	-47.2	252	15	
2025-08-09T12:00	9960	289	-38.2	-47.1	253	15	
2025-08-09T12:00	9980	288	-38.3	-46.8	253	14	
2025-08-09T12:00	10000	288	-38.5	-46.4	253	14	
2025-08-09T12:00	10018	287	-38.7	-46.6	253	14	
2025-08-09T12:00	10050	286	-38.9	-47.2	252	14	
2025-08-09T12:00	10100	283	-39.4	-47.2	252	14	
2025-08-09T12:00	10150	281	-39.7	-48.3	253	14	
2025-08-09T12:00	10200	279	-40.0	-50.9	255	14	
2025-08-09T12:00	10250	277	-40.4	-51.0	254	14	
2025-08-09T12:00	10300	275	-40.9	-51.0	252	14	
2025-08-09T12:00	10350	273	-41.3	-51.2	252	14	
2025-08-09T12:00	10400	271	-41.8	-51.5	254	13	
2025-08-09T12:00	10450	269	-42.2	-52.3	254	13	
2025-08-09T12:00	10500	267	-42.6	-53.6	253	13	
2025-08-09T12:00	10550	265	-42.9	-52.9	253	13	
2025-08-09T12:00	10600	263	-43.4	-53.9	253	13	
2025-08-09T12:00	10650	261	-43.7	-54.5	254	12	
2025-08-09T12:00	10700	259	-44.1	-56.0	256	12	
2025-08-09T12:00	10750	257	-44.4	-56.5	257	12	
2025-08-09T12:00	10800	256	-44.8	-56.5	256	12	
2025-08-09T12:00	10850	254	-45.2	-56.3	254	12	
2025-08-09T12:00	10900	252	-45.7	-56.2	254	12	
2025-08-09T12:00	10950	250	-46.2	-55.9	257	12	
2025-08-09T12:00	11000	248	-46.6	-56.2	261	12	
2025-08-09T12:00	11050	246	-47.0	-56.7	264	12	
2025-08-09T12:00	11100	244	-47.3	-58.7	264	12	
2025-08-09T12:00	11150	242	-47.5	-59.5	264	12	
2025-08-09T12:00	11200	241	-47.9	-58.3	264	12	
2025-08-09T12:00	11250	239	-48.4	-58.2	265	12	
2025-08-09T12:00	11300	237	-48.8	-58.3	268	12	
2025-08-09T12:00	11350	235	-49.3	-58.6	271	11	
2025-08-09T12:00	11400	233	-49.6	-59.8	275	10	
2025-08-09T12:00	11450	232	-50.0	-60.4	278	9	
2025-08-09T12:00	11500	230	-50.2	-60.4	279	8	
2025-08-09T12:00	11550	228	-50.2	-61.6	279	8	
2025-08-09T12:00	11600	226	-50.5	-62.6	278	8	
2025-08-09T12:00	11650	225	-51.0	-62.7	278	8	
2025-08-09T12:00	11700	223	-51.4	-62.6	278	8	
2025-08-09T12:00	11750	221	-51.8	-60.9	278	8	
2025-08-09T12:00	11800	219	-52.1	-58.4	274	7	
2025-08-09T12:00	11850	218	-52.4	-58.1	266	7	
2025-08-09T12:00	11900	216	-52.7	-60.4	260	7	
2025-08-09T12:00	11950	214	-52.9	-62.6	260	6	
2025-08-09T12:00	12000	213	-53.1	-62.9	264	6	
2025-08-09T12:00	12050	211	-53.4	-62.6	269	6	
2025-08-09T12:00	12100	209	-53.8	-62.2	275	7	
2025-08-09T12:00	12150	208	-54.3	-61.9	282	7	
2025-08-09T12:00	12200	206	-54.7	-61.3	290	7	
2025-08-09T12:00	12250	205	-55.1	-60.6	297	7	
2025-08-09T12:00	12300	203	-55.5	-60.6	301	7	
2025-08-09T12:00	12350	201	-55.6	-62.3	301	6	
2025-08-09T12:00	12400	200	-55.6	-64.2	294	6	
2025-08-09T12:00	12450	198	-55.8	-64.9	287	6	
2025-08-09T12:00	12500	197	-56.1	-65.4	282	5	
2025-08-09T12:00	12550	195	-56.5	-65.7	278	5	
2025-08-09T12:00	12600	194	-57.0	-65.6	275	5	
2025-08-09T12:00	12650	192	-57.5	-65.6	272	5	
2025-08-09T12:00	12700	191	-58.0	-65.6	269	5	
2025-08-09T12:00	12750	189	-58.5	-65.7	264	5	
2025-08-09T12:00	12800	188	-58.9	-65.7	261	6	
2025-08-09T12:00	12850	186	-59.4	-66.0	264	7	
2025-08-09T12:00	12900	185	-59.7	-66.9	274	7	
2025-08-09T12:00	12950	183	-59.8	-67.8	286	8	
2025-08-09T12:00	13000	182	-60.1	-68.6	296	9	
2025-08-09T12:00	13050	180	-60.2	-70.0	303	8	
2025-08-09T12:00	13100	179	-60.0	-71.2	307	7	
2025-08-09T12:00	13150	177	-60.0	-71.2	307	6	
2025-08-09T12:00	13200	176	-59.9	-71.6	301	7	
2025-08-09T12:00	13250	175	-59.7	-72.9	294	7	
2025-08-09T12:00	13300	173	-59.5	-73.7	288	7	
2025-08-09T12:00	13350	172	-59.7	-73.7	284	6	
2025-08-09T12:00	13400	170	-60.1	-73.4	286	6	
2025-08-09T12:00	13450	169	-60.4	-73.3	285	6	
2025-08-09T12:00	13500	168	-60.4	-74.3	276	7	
2025-08-09T12:00	13550	166	-60.3	-75.9	270	8	
2025-08-09T12:00	13600	165	-60.5	-76.6	268	9	
2025-08-09T12:00	13650	164	-60.2	-76.6	268	9	
2025-08-09T12:00	13700	162	-60.4	-76.9	270	10	
2025-08-09T12:00	13750	161	-60.1	-77.2	267	10	
2025-08-09T12:00	13800	160	-59.7	-77.4	264	10	
2025-08-09T12:00	13850	159	-59.4	-77.3	264	10	
2025-08-09T12:00	13900	157	-59.5	-77.5	265	10	
2025-08-09T12:00	13950	156	-59.5	-77.8	260	10	
2025-08-09T12:00	14000	155	-59.3	-78.4	252	11	
2025-08-09T12:00	14050	154	-59.3	-78.9	247	11	
2025-08-09T12:00	14100	152	-59.7	-79.1	245	12	
2025-08-09T12:00	14150	151	-60.0	-79.2	242	12	
2025-08-09T12:00	14200	150	-60.0	-79.7	241	14	
2025-08-09T12:00	14250	149	-59.6	-80.6	243	14	
2025-08-09T12:00	14300	148	-58.8	-80.9	246	13	
2025-08-09T12:00	14350	146	-59.1	-80.9	249	13	
2025-08-09T12:00	14400	145	-59.6	-80.9	250	13	
2025-08-09T12:00	14450	144	-59.6	-81.2	248	14	
2025-08-09T12:00	14500	143	-59.4	-81.2	244	15	
2025-08-09T12:00	14550	142	-59.7	-81.3	243	15	
2025-08-09T12:00	14600	141	-60.1	-81.5	245	16	
2025-08-09T12:00	14650	140	-60.3	-81.7	248	16	
2025-08-09T12:00	14700	138	-60.4	-82.0	251	17	
2025-08-09T12:00	14750	137	-60.4	-82.1	253	16	
2025-08-09T12:00	14800	136	-60.6	-82.0	255	15	
2025-08-09T12:00	14850	135	-60.4	-81.8	257	15	
2025-08-09T12:00	14900	134	-60.2	-81.9	257	16	
2025-08-09T12:00	14950	133	-60.3	-82.1	256	17	
2025-08-09T12:00	15000	132	-60.4	-82.2	256	17	
2025-08-09T12:00	15050	131	-60.3	-82.3	257	17	
2025-08-09T12:00	15100	130	-60.7	-82.4	258	16	
2025-08-09T12:00	15150	129	-61.1	-82.5	257	15	
2025-08-09T12:00	15200	128	-61.3	-82.7	255	15	
2025-08-09T12:00	15250	127	-61.1	-82.8	255	15	
2025-08-09T12:00	15300	126	-61.3	-83.1	258	15	
2025-08-09T12:00	15350	125	-61.4	-83.1	261	15	
2025-08-09T12:00	15400	124	-61.5	-83.0	263	15	
2025-08-09T12:00	15450	123	-61.9	-83.1	263	15	
2025-08-09T12:00	15500	122	-62.3	-83.2	262	14	
2025-08-09T12:00	15550	121	-62.6	-83.3	261	14	
2025-08-09T12:00	15600	120	-62.7	-83.4	261	14	
2025-08-09T12:00	15650	119	-62.5	-83.4	258	14	
2025-08-09T12:00	15700	118	-62.3	-83.3	253	14	
2025-08-09T12:00	15750	117	-62.3	-83.2	252	14	
2025-08-09T12:00	15800	116	-62.1	-82.8	254	14	
2025-08-09T12:00	15850	115	-62.2	-82.6	253	14	
2025-08-09T12:00	15900	114	-62.5	-83.0	253	15	
2025-08-09T12:00	15950	113	-62.4	-83.6	254	15	
2025-08-09T12:00	16000	112	-62.3	-84.0	257	15	
2025-08-09T12:00	16050	111	-62.4	-84.2	259	15	
2025-08-09T12:00	16100	110	-62.0	-84.0	258	14	
2025-08-09T12:00	16150	110	-61.9	-83.9	256	14	
2025-08-09T12:00	16200	109	-61.8	-83.8	255	14	
2025-08-09T12:00	16250	108	-62.0	-84.1	255	14	
2025-08-09T12:00	16300	107	-62.3	-84.2	258	14	
2025-08-09T12:00	16350	106	-62.5	-84.2	260	13	
2025-08-09T12:00	16400	105	-61.8	-84.2	258	13	
2025-08-09T12:00	16450	104	-61.2	-84.3	256	13	
2025-08-09T12:00	16500	103	-61.1	-84.5	258	13	
2025-08-09T12:00	16550	103	-60.8	-84.4	260	13	
2025-08-09T12:00	16600	102	-60.9	-84.4	264	13	
2025-08-09T12:00	16650	101	-60.9	-84.4	267	12	
2025-08-09T12:00	16700	100	-60.6	-84.5	263	11	
2025-08-09T12:00	16750	99	-60.2	-84.3	255	10	
2025-08-09T12:00	16800	99	-60.1	-84.3	249	11	
2025-08-09T12:00	16850	98	-60.2	-84.5	245	12	
2025-08-09T12:00	16900	97	-60.5	-84.7	241	13	
2025-08-09T12:00	16950	96	-60.6	-84.7	237	13	
2025-08-09T12:00	17000	96	-60.8	-84.8	234	14	
2025-08-09T12:00	17050	95	-60.9	-84.8	232	14	
2025-08-09T12:00	17100	94	-61.0	-84.9	234	14	
2025-08-09T12:00	17150	93	-60.9	-84.8	239	13	
2025-08-09T12:00	17200	92	-61.0	-84.8	246	12	
2025-08-09T12:00	17250	92	-61.3	-84.9	250	11	
2025-08-09T12:00	17300	91	-61.3	-85.1	248	10	
2025-08-09T12:00	17350	90	-61.1	-85.1	241	11	
2025-08-09T12:00	17400	90	-61.0	-85.2	237	12	
2025-08-09T12:00	17450	89	-61.0	-85.2	235	13	
2025-08-09T12:00	17500	88	-61.0	-85.3	235	12	
2025-08-09T12:00	17550	87	-60.6	-85.2	237	11	
2025-08-09T12:00	17600	87	-60.6	-85.2	239	10	
2025-08-09T12:00	17650	86	-60.9	-85.3	241	9	
2025-08-09T12:00	17700	85	-60.8	-85.3	240	8	
2025-08-09T12:00	17750	85	-60.7	-85.4	241	7	
2025-08-09T12:00	17800	84	-60.5	-85.4	249	7	
2025-08-09T12:00	17850	83	-60.3	-85.5	261	7	
2025-08-09T12:00	17900	83	-59.8	-85.3	266	8	
2025-08-09T12:00	17950	82	-59.8	-85.3	265	8	
2025-08-09T12:00	18000	81	-60.2	-85.2	263	9	
2025-08-09T12:00	18050	81	-60.7	-85.3	262	10	
2025-08-09T12:00	18100	80	-61.1	-85.5	260	10	
2025-08-09T12:00	18150	79	-61.0	-85.5	263	10	
2025-08-09T12:00	18200	79	-61.0	-85.6	269	10	
2025-08-09T12:00	18250	78	-61.0	-85.7	274	9	
2025-08-09T12:00	18300	77	-60.9	-85.8	274	8	
2025-08-09T12:00	18350	77	-60.6	-85.8	268	7	
2025-08-09T12:00	18400	76	-60.3	-85.6	260	6	
2025-08-09T12:00	18450	76	-60.2	-85.5	255	6	
2025-08-09T12:00	18500	75	-60.5	-85.5	252	7	
2025-08-09T12:00	18550	74	-60.8	-85.6	252	8	
2025-08-09T12:00	18600	74	-60.9	-85.8	254	8	
2025-08-09T12:00	18650	73	-60.4	-85.9	255	7	
2025-08-09T12:00	18700	73	-59.6	-85.8	253	7	
2025-08-09T12:00	18750	72	-59.1	-85.4	256	7	
2025-08-09T12:00	18800	72	-59.3	-85.4	262	7	
2025-08-09T12:00	18850	71	-59.3	-85.3	268	6	
2025-08-09T12:00	18900	70	-59.3	-85.2	271	5	
2025-08-09T12:00	18950	70	-59.4	-85.3	266	5	
2025-08-09T12:00	19000	69	-59.5	-85.3	250	4	
2025-08-09T12:00	19050	69	-59.4	-85.3	231	4	
2025-08-09T12:00	19100	68	-59.5	-85.3	225	4	
2025-08-09T12:00	19150	68	-59.6	-85.4	237	4	
2025-08-09T12:00	19200	67	-59.5	-85.4	252	5	
2025-08-09T12:00	19250	67	-59.6	-85.5	261	5	
2025-08-09T12:00	19300	66	-59.4	-85.5	268	4	
2025-08-09T12:00	19350	65	-58.9	-85.4	275	3	
2025-08-09T12:00	19400	65	-58.5	-85.3	281	3	
2025-08-09T12:00	19450	64	-58.2	-85.1	276	3	
2025-08-09T12:00	19500	64	-58.1	-85.0	258	2	
2025-08-09T12:00	19550	63	-58.1	-85.0	244	3	
2025-08-09T12:00	19600	63	-58.3	-85.1	240	3	
2025-08-09T12:00	19650	62	-57.8	-84.9	236	2	
2025-08-09T12:00	19700	62	-57.7	-84.9	168	0	
2025-08-09T12:00	19750	61	-57.5	-84.8	103	2	
2025-08-09T12:00	19800	61	-57.4	-84.7	107	3	
2025-08-09T12:00	19850	60	-57.6	-84.6	114	4	
2025-08-09T12:00	19900	60	-58.0	-84.7	121	4	
2025-08-09T12:00	19950	60	-58.4	-84.8	139	4	
2025-08-09T12:00	20000	59	-58.5	-85.0	165	4	
2025-08-09T12:00	20050	59	-58.4		179	5	
2025-08-09T12:00	20100	58	-58.1		182	6	
2025-08-09T12:00	20150	58	-57.4		179	7	
2025-08-09T12:00	20200	57	-57.0		178	7	
2025-08-09T12:00	20250	57	-57.3		180	7	
2025-08-09T12:00	20300	56	-57.7		184	7	
2025-08-09T12:00	20350	56	-57.8		190	6	
2025-08-09T12:00	20400	55	-57.5		193	5	
2025-08-09T12:00	20450	55	-57.0		192	4	
2025-08-09T12:00	20500	55	-56.6		185	3	
2025-08-09T12:00	20550	54	-56.8		179	2	
2025-08-09T12:00	20600	54	-56.7		178	2	
2025-08-09T12:00	20650	53	-56.5		174	2	
2025-08-09T12:00	20700	53	-56.1		154	2	
2025-08-09T12:00	20750	52	-56.0		133	2	
2025-08-09T12:00	20800	52	-56.0		130	3	
2025-08-09T12:00	20850	52	-56.0		143	3	
2025-08-09T12:00	20900	51	-56.0		159	4	
2025-08-09T12:00	20950	51	-55.8		166	4	
2025-08-09T12:00	21000	50	-55.6		163	3	
2025-08-09T12:00	21050	50	-55.4		156	3	
2025-08-09T12:00	21100	50	-55.5		155	2	
2025-08-09T12:00	21150	49	-55.3		170	2	
2025-08-09T12:00	21200	49	-55.3		187	3	
2025-08-09T12:00	21250	49	-55.6		195	4	
2025-08-09T12:00	21300	48	-55.9		198	4	
2025-08-09T12:00	21350	48	-55.5		196	4	
2025-08-09T12:00	21400	47	-55.3		191	4	
2025-08-09T12:00	21450	47	-55.3		186	3	
2025-08-09T12:00	21500	47	-55.3		186	3	
2025-08-09T12:00	21550	46	-55.5		195	2	
2025-08-09T12:00	21600	46	-55.8		206	1	
2025-08-09T12:00	21650	46	-55.9		121	1	
2025-08-09T12:00	21700	45	-55.6		99	2	
2025-08-09T12:00	21750	45	-55.5		101	4	
2025-08-09T12:00	21800	44	-55.2		106	4	
2025-08-09T12:00	21850	44	-54.9		115	3	
2025-08-09T12:00	21900	44	-54.9		135	2	
2025-08-09T12:00	21950	43	-55.1		166	2	
2025-08-09T12:00	22000	43	-55.1		222	1	
2025-08-09T12:00	22050	43	-55.2		311	2	
2025-08-09T12:00	22100	42	-55.3		339	3	
2025-08-09T12:00	22150	42	-55.2		354	4	
2025-08-09T12:00	22200	42	-55.0		11	4	
2025-08-09T12:00	22250	41	-54.9		31	3	
2025-08-09T12:00	22300	41	-54.8		52	3	
2025-08-09T12:00	22350	41	-54.5		72	3	
2025-08-09T12:00	22400	40	-54.4		89	3	
2025-08-09T12:00	22450	40	-54.4		102	3	
2025-08-09T12:00	22500	40	-54.5		110	4	
2025-08-09T12:00	22550	40	-54.5		117	4	
2025-08-09T12:00	22600	39	-54.3		125	3	
2025-08-09T12:00	22650	39	-54.0		142	3	
2025-08-09T12:00	22700	39	-54.0		173	2	
2025-08-09T12:00	22750	38	-54.1		202	2	
2025-08-09T12:00	22800	38	-53.8		228	2	
2025-08-09T12:00	22850	38	-53.7		267	2	
2025-08-09T12:00	22900	37	-53.7		323	2	
2025-08-09T12:00	22950	37	-53.6		357	3	
2025-08-09T12:00	23000	37	-53.3		14	5	
2025-08-09T12:00	23050	37	-53.0		26	5	
2025-08-09T12:00	23100	36	-52.8		39	4	
2025-08-09T12:00	23150	36	-52.8		54	4	
2025-08-09T12:00	23200	36	-53.0		64	3	
2025-08-09T12:00	23250	35	-53.1		60	4	
2025-08-09T12:00	23300	35	-53.1		53	6	
2025-08-09T12:00	23350	35	-53.0		53	7	
2025-08-09T12:00	23400	35	-52.9		58	8	
2025-08-09T12:00	23450	34	-52.7		68	8	
2025-08-09T12:00	23500	34	-52.7		78	8	
2025-08-09T12:00	23550	34	-52.8		88	8	
2025-08-09T12:00	23600	34	-52.9		96	7	
2025-08-09T12:00	23650	33	-53.2		107	6	
2025-08-09T12:00	23700	33	-53.4		120	6	
2025-08-09T12:00	23750	33	-53.4		126	5	
2025-08-09T12:00	23800	33	-53.3		117	5	
2025-08-09T12:00	23850	32	-52.9		102	4	
2025-08-09T12:00	23900	32	-52.7		95	4	
2025-08-09T12:00	23950	32	-52.5		94	4	
2025-08-09T12:00	24000	32	-52.5		88	4	
2025-08-09T12:00	24050	31	-52.2		85	5	
2025-08-09T12:00	24100	31	-51.9		87	6	
2025-08-09T12:00	24150	31	-51.6		91	6	
2025-08-09T12:00	24200	31	-51.4		95	7	
2025-08-09T12:00	24250	30	-51.1		100	7	
2025-08-09T12:00	24300	30	-51.1		105	8	
2025-08-09T12:00	24350	30	-50.9		111	8	
2025-08-09T12:00	24400	30	-50.6		120	9	
2025-08-09T12:00	24450	29	-50.5		129	10	
2025-08-09T12:00	24500	29	-50.4		135	11	
2025-08-09T12:00	24550	29	-50.4		138	10	
2025-08-09T12:00	24600	29	-50.3		140	8	
2025-08-09T12:00	24650	29	-50.1		144	7	
2025-08-09T12:00	24700	28	-49.9		149	6	
2025-08-09T12:00	24750	28	-49.9		152	5	
2025-08-09T12:00	24800	28	-49.9		149	4	
2025-08-09T12:00	24850	28	-49.8		130	3	
2025-08-09T12:00	24900	27	-49.8		87	2	
2025-08-09T12:00	24950	27	-49.6		63	3	
2025-08-09T12:00	25000	27	-49.5		59	4	
2025-08-09T12:00	25050	27	-49.6		61	6	
2025-08-09T12:00	25100	27	-49.6		66	7	
2025-08-09T12:00	25150	26	-49.5		73	7	
2025-08-09T12:00	25200	26	-49.7		81	8	
2025-08-09T12:00	25250	26	-49.8		89	8	
2025-08-09T12:00	25300	26	-49.9		95	8	
2025-08-09T12:00	25350	26	-50.0		100	8	
2025-08-09T12:00	25400	25	-50.1		105	7	
2025-08-09T12:00	25450	25	-50.2		107	6	
2025-08-09T12:00	25500	25	-50.4		104	5	
2025-08-09T12:00	25550	25	-50.4		95	5	
2025-08-09T12:00	25600	25	-50.5		85	5	
2025-08-09T12:00	25650	25	-50.3		78	6	
2025-08-09T12:00	25700	24	-50.1		75	7	
2025-08-09T12:00	25750	24	-49.9		74	8	
2025-08-09T12:00	25800	24	-49.8		78	8	
2025-08-09T12:00	25850	24	-49.7		86	9	
2025-08-09T12:00	25900	24	-49.4		95	8	
2025-08-09T12:00	25950	23	-49.4		102	8	
2025-08-09T12:00	26000	23	-49.3		104	7	
2025-08-09T12:00	26050	23	-49.2		102	8	
2025-08-09T12:00	26100	23	-49.1		101	9	
2025-08-09T12:00	26150	23	-48.9		101	10	
2025-08-09T12:00	26200	23	-48.7		103	11	
2025-08-09T12:00	26250	22	-48.6		107	10	
2025-08-09T12:00	26300	22	-48.6		111	9	
2025-08-09T12:00	26350	22	-48.6		112	8	
2025-08-09T12:00	26400	22	-48.5		108	6	
2025-08-09T12:00	26450	22	-48.4		100	6	
2025-08-09T12:00	26500	22	-48.1		95	5	
2025-08-09T12:00	26550	21	-47.8		95	4	
2025-08-09T12:00	26600	21	-47.9		96	5	
2025-08-09T12:00	26650	21	-48.0		93	6	
2025-08-09T12:00	26700	21	-47.7		90	8	
2025-08-09T12:00	26750	21	-47.5		90	9	
2025-08-09T12:00	26800	21	-47.3		89	10	
2025-08-09T12:00	26850	20	-47.0		86	11	
2025-08-09T12:00	26900	20	-46.9		81	10	
2025-08-09T12:00	26950	20	-46.9		76	9	
2025-08-09T12:00	27000	20	-46.9		74	8	
2025-08-09T12:00	27050	20	-46.9		77	8	
2025-08-09T12:00	27100	20	-46.6		80	9	
2025-08-09T12:00	27150	20	-46.4		80	10	
2025-08-09T12:00	27200	19	-46.2		77	11	
2025-08-09T12:00	27250	19	-46.0		75	12	
2025-08-09T12:00	27300	19	-45.9		76	13	
2025-08-09T12:00	27350	19	-45.7		81	13	
2025-08-09T12:00	27400	19	-45.6		88	13	
2025-08-09T12:00	27450	19	-45.7		95	12	
2025-08-09T12:00	27500	19	-45.8		100	12	
2025-08-09T12:00	27550	18	-45.8		101	12	
2025-08-09T12:00	27600	18	-45.7		99	12	
2025-08-09T12:00	27650	18	-45.7		97	12	
2025-08-09T12:00	27700	18	-45.6		95	12	
2025-08-09T12:00	27750	18	-45.5		95	13	
2025-08-09T12:00	27800	18	-45.4		96	13	
2025-08-09T12:00	27850	18	-45.3		97	12	
2025-08-09T12:00	27900	17	-45.3		99	12	
2025-08-09T12:00	27950	17	-45.4		103	11	
2025-08-09T12:00	28000	17	-45.5		109	10	
2025-08-09T12:00	28050	17	-45.5		114	10	
2025-08-09T12:00	28100	17	-45.3		115	9	
2025-08-09T12:00	28150	17	-45.1		107	9	
2025-08-09T12:00	28200	17	-44.5		92	9	
2025-08-09T12:00	28250	17	-44.1		80	10	
2025-08-09T12:00	28300	16	-43.9		73	11	
2025-08-09T12:00	28350	16	-43.7		72	12	
2025-08-09T12:00	28400	16	-43.6		75	14	
2025-08-09T12:00	28450	16	-43.6		79	15	
2025-08-09T12:00	28500	16	-43.7		83	16	
2025-08-09T12:00	28550	16	-44.0		86	16	
2025-08-09T12:00	28600	16	-44.2		89	16	
2025-08-09T12:00	28650	16	-44.4		93	15	
2025-08-09T12:00	28700	15	-44.5		96	14	
2025-08-09T12:00	28750	15	-44.5		99	13	
2025-08-09T12:00	28800	15	-44.8		103	12	
2025-08-09T12:00	28850	15	-45.0		106	10	
2025-08-09T12:00	28900	15	-45.2		107	10	
2025-08-09T12:00	28950	15	-44.9		105	10	
2025-08-09T12:00	29000	15	-44.7		103	11	
2025-08-09T12:00	29050	15	-44.6		101	12	
2025-08-09T12:00	29100	15	-44.6		100	13	
2025-08-09T12:00	29150	14	-44.3		101	14	
2025-08-09T12:00	29200	14	-44.2		101	14	
2025-08-09T12:00	29250	14	-44.2		101	13	
2025-08-09T12:00	29300	14	-44.1		101	12	
2025-08-09T12:00	29350	14	-44.0		103	11	
2025-08-09T12:00	29400	14	-43.8		106	11	
2025-08-09T12:00	29450	14	-43.8		110	10	
2025-08-09T12:00	29500	14	-44.0		113	9	
2025-08-09T12:00	29550	14	-44.1		110	9	
2025-08-09T12:00	29600	14	-44.0		102	9	
2025-08-09T12:00	29650	13	-43.7		94	9	
2025-08-09T12:00	29700	13	-43.4		90	11	
2025-08-09T12:00	29750	13	-43.3		91	12	
2025-08-09T12:00	29800	13	-43.2		94	13	
2025-08-09T12:00	29850	13	-43.2		97	13	
2025-08-09T12:00	29900	13	-43.2		100	13	
2025-08-09T12:00	29950	13	-43.1		103	13	
2025-08-09T12:00	30000	13	-43.0		105	13	
2025-08-09T12:00	30050	13	-43.0		106	12	
2025-08-09T12:00	30100	13	-43.0		108	11	
2025-08-09T12:00	30150	12	-43.0		111	10	
2025-08-09T12:00	30200	12	-43.1		113	9	
2025-08-09T12:00	30250	12	-43.3		110	8	
2025-08-09T12:00	30300	12	-43.3		101	7	
2025-08-09T12:00	30350	12	-43.2		91	7	
2025-08-09T12:00	30400	12	-43.2		87	8	
2025-08-09T12:00	30450	12	-43.1		89	9	
2025-08-09T12:00	30500	12	-42.9		92	11	
2025-08-09T12:00	30550	12	-42.6		95	11	
2025-08-09T12:00	30600	12	-42.3		97	11	
2025-08-09T12:00	30650	12	-42.3		99	11	
2025-08-09T12:00	30700	11	-42.5		101	11	
2025-08-09T12:00	30750	11	-42.6		101	11	
2025-08-09T12:00	30800	11	-42.3		100	11	
2025-08-09T12:00	30850	11	-42.2		102	11	
2025-08-09T12:00	30900	11	-42.1		106	11	
2025-08-09T12:00	30950	11	-42.1		113	11	
2025-08-09T12:00	31000	11	-42.1		117	11	
2025-08-09T12:00	31050	11	-41.9		118	11	
2025-08-09T12:00	31100	11	-41.8		115	11	
2025-08-09T12:00	31150	11	-41.8		111	12	
2025-08-09T12:00	31200	11	-41.7		108	12	
2025-08-09T12:00	31250	11	-41.6		106	12	
2025-08-09T12:00	31300	11	-41.6		106	13	
2025-08-09T12:00	31350	10	-41.5		106	13	
2025-08-09T12:00	31400	10	-41.4		107	13	
2025-08-09T12:00	31450	10	-41.5		110	13	
2025-08-09T12:00	31500	10	-41.5		114	13	
2025-08-09T12:00	31550	10	-41.1		118	12	
2025-08-09T12:00	31600	10	-40.8		119	11	
2025-08-09T12:00	31650	10	-40.6		115	10	
2025-08-09T12:00	31700	10	-40.3		109	10	
2025-08-09T12:00	31750	10	-40.0		103	10	
2025-08-09T12:00	31800	10	-39.9		103	11	
2025-08-09T12:00	31850	10	-39.6		109	11	
2025-08-09T12:00	31900	10	-39.2		117	12	
2025-08-09T12:00	31950	10	-39.1		124	12	
2025-08-09T12:00	32000	9	-39.0		127	11	
2025-08-09T12:00	32050	9	-38.7		124	10	
2025-08-09T12:00	32100	9	-38.6		114	9	
2025-08-09T12:00	32150	9	-38.5		104	9	
2025-08-09T12:00	32200	9	-38.3		96	9	
2025-08-09T12:00	32250	9	-38.1		93	10	
2025-08-09T12:00	32300	9	-38.0		94	10	
2025-08-09T12:00	32350	9	-38.0		95	10	
2025-08-09T12:00	32400	9	-37.9		97	10	
2025-08-09T12:00	32450	9	-37.6		99	11	
2025-08-09T12:00	32500	9	-37.1		100	12	
2025-08-09T12:00	32550	9	-36.9		101	12	
2025-08-09T12:00	32600	9	-36.6		101	13	
2025-08-09T12:00	32650	9	-36.4		104	13	
2025-08-09T12:00	32700	9	-36.4		110	13	
2025-08-09T12:00	32750	9	-36.7		119	12	
2025-08-09T12:00	32800	8	-36.9		126	12	
2025-08-09T12:00	32850	8	-37.0		132	12	
2025-08-09T12:00	32900	8	-37.2		135	12	
2025-08-09T12:00	32950	8	-37.3		139	11	
2025-08-09T12:00	33000	8	-37.3		140	11	
2025-08-09T12:00	33050	8	-37.3		140	10	
2025-08-09T12:00	33100	8	-37.3		137	9	
2025-08-09T12:00	33150	8	-37.1		133	7	
2025-08-09T12:00	33200	8	-36.8		130	6	
2025-08-09T12:00	33250	8	-36.8		128	6	
2025-08-09T12:00	33300	8	-36.9		120	5	
2025-08-09T12:00	33350	8	-36.7		98	4	
2025-08-09T12:00	33400	8	-36.2		71	5	
2025-08-09T12:00	33450	8	-35.9		56	6	
2025-08-09T12:00	33500	8	-35.8		50	8	
2025-08-09T12:00	33550	8	-35.8		50	10	
2025-08-09T12:00	33600	8	-35.7		53	12	
2025-08-09T12:00	33650	7	-35.5		58	13	
2025-08-09T12:00	33700	7	-35.4		65	14	
2025-08-09T12:00	33750	7	-35.3		72	15	
2025-08-09T12:00	33800	7	-35.3		77	16	
2025-08-09T12:00	33850	7	-35.1		80	16	
2025-08-09T12:00	33900	7	-34.9		78	15	
2025-08-09T12:00	33950	7	-34.8		74	14	
2025-08-09T12:00	34000	7	-34.5		70	13	
2025-08-09T12:00	34050	7	-34.5		67	12	
2025-08-09T12:00	34100	7	-34.6		66	11	
2025-08-09T12:00	34150	7	-34.7		65	12	
2025-08-09T12:00	34200	7	-34.5		65	12	
2025-08-09T12:00	34250	7	-34.3		67	14	
2025-08-09T12:00	34300	7	-34.1		70	15	
2025-08-09T12:00	34350	7	-34.0		73	16	
2025-08-09T12:00	34400	7	-34.1		77	16	
2025-08-09T12:00	34450	7	-33.9		81	17	
2025-08-09T12:00	34500	7	-33.5		84	17	
2025-08-09T12:00	34550	7	-33.1		87	18	
2025-08-09T12:00	34600	7	-32.7		89	19	
2025-08-09T12:00	34650	6	-32.3		90	20	
2025-08-09T12:00	34700	6	-32.1		91	21	
2025-08-09T12:00	34750	6	-31.8		89	20	
2025-08-09T12:00	34800	6	-31.6		87	19	
2025-08-09T12:00	34850	6	-31.7		85	19	
2025-08-09T12:00	34900	6	-31.7		82	18	
2025-08-09T12:00	34950	6	-31.7		81	17	
2025-08-09T12:00	35000	6	-31.8		80	16	
2025-08-09T12:00	35050	6	-31.8		82	16	
2025-08-09T12:00	35100	6	-31.7		84	17	
2025-08-09T12:00	35150	6	-31.4		86	19	
2025-08-09T12:00	35200	6	-31.3		88	20	
2025-08-09T12:00	35250	6	-31.4		90	21	
2025-08-09T12:00	35300	6	-31.5		93	22	
2025-08-09T12:00	35350	6	-31.5		96	23	
2025-08-09T12:00	35400	6	-31.4		100	24	
2025-08-09T12:00	35450	6	-31.3		102	24	
2025-08-09T12:00	35500	6	-31.0		103	23	
2025-08-09T12:00	35550	6	-30.6		102	21	
2025-08-09T12:00	35600	6	-30.3		100	21	
2025-08-09T12:00	35650	6	-30.1		100	21	
2025-08-09T12:00	35700	6	-29.8		101	22	
2025-08-09T12:00	35750	6	-29.4		102	22	
2025-08-09T12:00	35800	6	-28.8		102	23	
2025-08-09T12:00	35850	5	-28.2		101	23	
2025-08-10T00:00	491	965	21.3	16.1	20	2	
2025-08-10T00:00	501	964	22.3	15.5	33	1	
2025-08-10T00:00	520	962	23.5	15.3	65	0	
2025-08-10T00:00	540	960	24.0	14.9	66	1	
2025-08-10T00:00	560	958	24.5	14.5	70	1	
2025-08-10T00:00	580	956	25.5	14.2	79	0	
2025-08-10T00:00	600	954	26.3	14.0	99	0	
2025-08-10T00:00	620	951	26.2	14.0	128	0	
2025-08-10T00:00	640	949	26.0	13.8	147	1	
2025-08-10T00:00	660	947	25.8	13.6	148	1	
2025-08-10T00:00	680	945	26.1	13.1	143	1	
2025-08-10T00:00	700	943	26.4	12.9	136	1	
2025-08-10T00:00	720	941	26.3	13.3	127	1	
2025-08-10T00:00	740	939	26.3	13.8	116	1	
2025-08-10T00:00	760	936	26.6	13.7	95	1	
2025-08-10T00:00	780	934	26.8	13.6	64	2	
2025-08-10T00:00	800	932	26.7	13.3	38	2	
2025-08-10T00:00	820	930	26.5	13.2	24	3	
2025-08-10T00:00	840	928	26.3	13.2	19	3	
2025-08-10T00:00	860	926	26.1	12.8	20	3	
2025-08-10T00:00	880	924	26.0	12.7	24	3	
2025-08-10T00:00	900	922	25.7	12.6	32	3	
2025-08-10T00:00	920	920	25.8	12.5	43	2	
2025-08-10T00:00	940	918	25.8	12.2	60	2	
2025-08-10T00:00	960	916	25.7	12.2	82	2	
2025-08-10T00:00	980	913	25.6	12.4	93	3	
2025-08-10T00:00	1000	911	25.4	12.5	95	3	
2025-08-10T00:00	1020	909	25.3	12.2	95	2	
2025-08-10T00:00	1040	907	25.1	11.9	94	2	
2025-08-10T00:00	1060	905	25.0	12.0	95	1	
2025-08-10T00:00	1080	903	24.9	11.7	97	1	
2025-08-10T00:00	1100	901	25.0	11.1	104	1	
2025-08-10T00:00	1120	899	24.9	11.0	108	1	
2025-08-10T00:00	1140	897	24.7	11.5	104	1	
2025-08-10T00:00	1160	895	24.5	11.6	101	2	
2025-08-10T00:00	1180	893	24.3	11.8	99	2	
2025-08-10T00:00	1200	891	24.1	11.9	101	3	
2025-08-10T00:00	1220	889	23.9	12.0	104	3	
2025-08-10T00:00	1240	887	23.7	11.9	108	2	
2025-08-10T00:00	1260	885	23.5	11.7	111	2	
2025-08-10T00:00	1280	883	23.4	11.0	110	1	
2025-08-10T00:00	1300	881	23.4	10.4	84	0	
2025-08-10T00:00	1320	879	23.3	10.3	20	0	
2025-08-10T00:00	1340	877	23.2	10.0	359	1	
2025-08-10T00:00	1360	875	23.1	9.7	351	1	
2025-08-10T00:00	1380	873	23.0	9.6	343	1	
2025-08-10T00:00	1400	871	22.8	9.5	332	2	
2025-08-10T00:00	1420	869	22.7	9.4	320	2	
2025-08-10T00:00	1440	867	22.5	9.2	311	2	
2025-08-10T00:00	1460	865	22.3	9.2	304	3	
2025-08-10T00:00	1480	863	22.2	9.0	300	3	
2025-08-10T00:00	1500	861	22.0	8.9	297	4	
2025-08-10T00:00	1520	859	21.9	8.8	295	4	
2025-08-10T00:00	1540	857	21.7	8.8	293	4	
2025-08-10T00:00	1560	854	21.5	8.7	290	5	
2025-08-10T00:00	1580	853	21.5	8.5	286	5	
2025-08-10T00:00	1600	851	21.3	8.6	280	5	
2025-08-10T00:00	1620	849	21.1	8.6	274	5	
2025-08-10T00:00	1640	847	20.9	8.4	269	5	
2025-08-10T00:00	1660	845	20.9	8.2	263	6	
2025-08-10T00:00	1680	843	20.9	7.9	258	6	
2025-08-10T00:00	1700	841	20.8	7.7	255	7	
2025-08-10T00:00	1720	839	20.7	7.3	253	7	
2025-08-10T00:00	1740	837	20.7	6.2	252	7	
2025-08-10T00:00	1760	835	20.8	5.2	250	7	
2025-08-10T00:00	1780	833	20.7	5.3	248	7	
2025-08-10T00:00	1800	831	20.6	5.5	245	6	
2025-08-10T00:00	1820	829	20.4	6.0	241	6	
2025-08-10T00:00	1840	827	20.3	6.3	235	6	
2025-08-10T00:00	1860	825	20.1	6.8	231	6	
2025-08-10T00:00	1880	823	19.9	7.5	227	6	
2025-08-10T00:00	1900	822	19.7	7.7	224	6	
2025-08-10T00:00	1920	820	19.5	7.8	222	6	
2025-08-10T00:00	1940	818	19.3	7.9	219	7	
2025-08-10T00:00	1960	816	19.2	7.6	219	7	
2025-08-10T00:00	1980	814	19.3	6.5	220	7	
2025-08-10T00:00	2000	812	19.2	6.2	221	7	
2025-08-10T00:00	2020	810	19.1	6.4	224	7	
2025-08-10T00:00	2040	808	19.0	6.6	227	7	
2025-08-10T00:00	2060	806	18.8	6.4	232	7	
2025-08-10T00:00	2080	804	18.7	5.9	237	7	
2025-08-10T00:00	2100	803	18.6	5.3	243	7	
2025-08-10T00:00	2120	801	18.4	5.2	248	7	
2025-08-10T00:00	2140	799	18.2	5.2	252	7	
2025-08-10T00:00	2160	797	18.0	5.1	254	8	
2025-08-10T00:00	2180	795	17.9	5.0	254	8	
2025-08-10T00:00	2200	794	17.7	4.8	253	8	
2025-08-10T00:00	2220	792	17.5	4.6	251	8	
2025-08-10T00:00	2240	790	17.4	4.3	249	9	
2025-08-10T00:00	2260	788	17.2	3.9	247	9	
2025-08-10T00:00	2280	786	17.1	3.6	244	9	
2025-08-10T00:00	2300	784	16.9	3.4	243	10	
2025-08-10T00:00	2320	782	16.7	3.4	242	9	
2025-08-10T00:00	2340	780	16.5	3.3	243	9	
2025-08-10T00:00	2360	779	16.3	3.3	245	8	
2025-08-10T00:00	2380	777	16.2	3.2	248	7	
2025-08-10T00:00	2400	775	16.0	3.1	252	6	
2025-08-10T00:00	2420	773	15.8	2.9	259	6	
2025-08-10T00:00	2440	771	15.6	2.8	264	6	
2025-08-10T00:00	2460	769	15.5	2.8	267	6	
2025-08-10T00:00	2480	768	15.3	2.6	267	7	
2025-08-10T00:00	2500	766	15.2	2.5	266	7	
2025-08-10T00:00	2520	764	15.0	2.3	265	8	
2025-08-10T00:00	2540	762	14.9	2.0	263	8	
2025-08-10T00:00	2560	760	14.7	1.9	262	8	
2025-08-10T00:00	2580	759	14.7	1.5	261	8	
2025-08-10T00:00	2600	757	14.5	1.4	261	8	
2025-08-10T00:00	2620	755	14.4	1.4	261	8	
2025-08-10T00:00	2640	753	14.2	1.3	262	8	
2025-08-10T00:00	2660	752	14.0	1.2	263	8	
2025-08-10T00:00	2680	750	13.9	1.3	264	8	
2025-08-10T00:00	2700	748	13.7	1.2	264	8	
2025-08-10T00:00	2720	746	13.5	1.3	263	9	
2025-08-10T00:00	2740	745	13.3	1.3	262	9	
2025-08-10T00:00	2760	743	13.2	1.2	261	9	
2025-08-10T00:00	2780	741	13.0	1.2	261	9	
2025-08-10T00:00	2800	739	12.8	1.2	261	9	
2025-08-10T00:00	2820	738	12.6	1.3	262	9	
2025-08-10T00:00	2840	736	12.4	1.3	263	9	
2025-08-10T00:00	2860	734	12.2	1.1	263	9	
2025-08-10T00:00	2880	732	12.0	1.1	263	9	
2025-08-10T00:00	2900	730	11.8	1.2	262	8	
2025-08-10T00:00	2920	729	11.6	1.1	261	8	
2025-08-10T00:00	2940	727	11.4	1.0	262	8	
2025-08-10T00:00	2960	725	11.2	1.0	265	8	
2025-08-10T00:00	2980	723	11.1	0.9	269	9	
2025-08-10T00:00	3000	722	10.9	0.8	272	9	
2025-08-10T00:00	3020	720	10.8	0.7	274	10	
2025-08-10T00:00	3040	718	10.8	-0.7	275	11	
2025-08-10T00:00	3060	716	10.8	-2.3	273	11	
2025-08-10T00:00	3080	715	10.8	-3.5	271	11	
2025-08-10T00:00	3100	713	10.7	-4.1	269	11	
2025-08-10T00:00	3120	712	10.6	-4.6	270	11	
2025-08-10T00:00	3140	710	10.7	-5.3	273	11	
2025-08-10T00:00	3160	708	10.6	-5.5	277	11	
2025-08-10T00:00	3180	706	10.5	-5.8	279	11	
2025-08-10T00:00	3200	705	10.4	-5.1	282	11	
2025-08-10T00:00	3220	703	10.3	-4.1	284	12	
2025-08-10T00:00	3240	701	10.0	-4.0	285	12	
2025-08-10T00:00	3260	700	9.9	-3.6	285	12	
2025-08-10T00:00	3280	698	9.7	-3.1	286	12	
2025-08-10T00:00	3300	696	9.5	-2.3	287	12	
2025-08-10T00:00	3320	694	9.3	-2.2	289	12	
2025-08-10T00:00	3340	693	9.1	-2.0	291	12	
2025-08-10T00:00	3360	691	8.9	-1.5	292	12	
2025-08-10T00:00	3380	690	8.7	-1.5	292	12	
2025-08-10T00:00	3400	688	8.5	-1.7	291	13	
2025-08-10T00:00	3420	686	8.4	-2.4	290	13	
2025-08-10T00:00	3440	685	8.2	-2.6	289	13	
2025-08-10T00:00	3460	683	8.0	-2.1	288	13	
2025-08-10T00:00	3480	681	7.8	-1.1	286	12	
2025-08-10T00:00	3500	680	7.5	0.7	285	12	
2025-08-10T00:00	3520	678	7.3	1.1	284	12	
2025-08-10T00:00	3540	676	7.1	0.8	282	12	
2025-08-10T00:00	3560	675	7.0	0.2	281	12	
2025-08-10T00:00	3580	673	6.9	-0.3	282	13	
2025-08-10T00:00	3600	671	6.8	-0.9	283	13	
2025-08-10T00:00	3620	670	6.6	-1.2	285	13	
2025-08-10T00:00	3640	668	6.4	-1.1	287	14	
2025-08-10T00:00	3660	666	6.2	-1.0	288	14	
2025-08-10T00:00	3680	665	6.0	-0.9	289	14	
2025-08-10T00:00	3700	663	5.8	-0.7	290	14	
2025-08-10T00:00	3720	662	5.7	-0.5	291	14	
2025-08-10T00:00	3740	660	5.5	-0.6	292	14	
2025-08-10T00:00	3760	658	5.3	-0.9	293	14	
2025-08-10T00:00	3780	657	5.1	-1.3	295	14	
2025-08-10T00:00	3800	655	4.9	-1.6	296	14	
2025-08-10T00:00	3820	654	4.8	-1.6	297	14	
2025-08-10T00:00	3840	652	4.5	-1.4	298	14	
2025-08-10T00:00	3860	650	4.3	-1.4	298	13	
2025-08-10T00:00	3880	649	4.1	-1.6	298	13	
2025-08-10T00:00	3900	647	4.0	-2.1	297	13	
2025-08-10T00:00	3920	645	3.8	-3.0	296	12	
2025-08-10T00:00	3940	644	3.7	-3.9	295	12	
2025-08-10T00:00	3960	643	3.6	-4.7	293	12	
2025-08-10T00:00	3980	641	3.5	-5.5	293	12	
2025-08-10T00:00	4000	639	3.4	-6.6	292	11	
2025-08-10T00:00	4020	638	3.3	-7.2	291	11	
2025-08-10T00:00	4040	636	3.2	-8.0	289	12	
2025-08-10T00:00	4060	635	3.1	-8.2	287	12	
2025-08-10T00:00	4080	633	3.0	-8.4	285	12	
2025-08-10T00:00	4100	631	2.8	-8.6	285	12	
2025-08-10T00:00	4120	630	2.7	-9.3	284	12	
2025-08-10T00:00	4140	628	2.6	-9.9	284	12	
2025-08-10T00:00	4160	627	2.4	-10.2	285	12	
2025-08-10T00:00	4180	625	2.3	-10.3	285	13	
2025-08-10T00:00	4200	624	2.1	-10.4	286	13	
2025-08-10T00:00	4220	622	1.9	-10.7	286	13	
2025-08-10T00:00	4240	621	1.8	-10.8	286	12	
2025-08-10T00:00	4260	619	1.7	-11.2	287	12	
2025-08-10T00:00	4280	617	1.5	-11.2	288	12	
2025-08-10T00:00	4300	616	1.4	-11.4	289	12	
2025-08-10T00:00	4320	615	1.3	-11.9	291	12	
2025-08-10T00:00	4340	613	1.1	-11.8	293	13	
2025-08-10T00:00	4360	611	0.9	-11.9	294	13	
2025-08-10T00:00	4380	610	0.8	-11.9	295	13	
2025-08-10T00:00	4400	608	0.6	-11.9	295	14	
2025-08-10T00:00	4420	607	0.4	-11.7	294	14	
2025-08-10T00:00	4440	605	0.2	-11.1	293	14	
2025-08-10T00:00	4460	604	0.1	-11.5	291	14	
2025-08-10T00:00	4480	602	-0.1	-11.6	290	14	
2025-08-10T00:00	4500	601	-0.2	-11.9	289	14	
2025-08-10T00:00	4520	599	-0.4	-12.2	288	14	
2025-08-10T00:00	4540	598	-0.6	-12.5	288	14	
2025-08-10T00:00	4560	596	-0.7	-12.5	287	14	
2025-08-10T00:00	4580	595	-0.8	-13.0	287	14	
2025-08-10T00:00	4600	594	-0.9	-12.6	287	14	
2025-08-10T00:00	4620	592	-1.1	-12.8	287	14	
2025-08-10T00:00	4640	590	-1.2	-13.9	288	13	
2025-08-10T00:00	4660	589	-1.3	-14.7	289	13	
2025-08-10T00:00	4680	588	-1.3	-16.5	290	13	
2025-08-10T00:00	4700	586	-1.2	-18.1	291	13	
2025-08-10T00:00	4720	584	-1.3	-18.0	292	13	
2025-08-10T00:00	4740	583	-1.5	-18.1	293	13	
2025-08-10T00:00	4760	582	-1.6	-18.6	293	13	
2025-08-10T00:00	4780	580	-1.7	-19.5	293	13	
2025-08-10T00:00	4800	579	-1.8	-20.0	293	13	
2025-08-10T00:00	4820	577	-1.9	-22.7	293	12	
2025-08-10T00:00	4840	576	-2.0	-25.8	292	12	
2025-08-10T00:00	4860	574	-2.0	-28.6	292	12	
2025-08-10T00:00	4880	573	-1.9	-33.1	291	12	
2025-08-10T00:00	4900	571	-1.9	-34.1	291	11	
2025-08-10T00:00	4920	570	-1.9	-34.8	290	11	
2025-08-10T00:00	4940	569	-2.0	-35.0	288	11	
2025-08-10T00:00	4960	567	-2.0	-33.6	287	11	
2025-08-10T00:00	4980	566	-2.1	-30.4	285	11	
2025-08-10T00:00	5000	564	-2.1	-28.9	284	11	
2025-08-10T00:00	5020	563	-2.3	-24.6	283	11	
2025-08-10T00:00	5040	561	-2.5	-21.3	282	11	
2025-08-10T00:00	5060	560	-2.6	-19.1	281	12	
2025-08-10T00:00	5080	559	-2.7	-21.2	281	12	
2025-08-10T00:00	5100	557	-2.8	-24.8	280	12	
2025-08-10T00:00	5120	556	-2.9	-22.3	281	12	
2025-08-10T00:00	5140	554	-3.0	-19.7	281	12	
2025-08-10T00:00	5160	553	-3.2	-17.2	282	12	
2025-08-10T00:00	5180	551	-3.3	-21.9	283	12	
2025-08-10T00:00	5200	550	-3.2	-32.8	284	12	
2025-08-10T00:00	5220	549	-3.3	-27.6	285	12	
2025-08-10T00:00	5240	548	-3.5	-19.5	287	12	
2025-08-10T00:00	5260	546	-3.7	-18.6	288	12	
2025-08-10T00:00	5280	545	-3.7	-21.9	289	12	
2025-08-10T00:00	5300	543	-3.6	-24.4	289	12	
2025-08-10T00:00	5320	542	-3.5	-26.0	290	11	
2025-08-10T00:00	5340	540	-3.5	-25.7	290	11	
2025-08-10T00:00	5360	539	-3.6	-23.2	289	11	
2025-08-10T00:00	5380	538	-3.7	-27.4	288	11	
2025-08-10T00:00	5400	537	-3.6	-33.3	287	11	
2025-08-10T00:00	5420	535	-3.6	-34.8	286	11	
2025-08-10T00:00	5440	534	-3.7	-35.2	284	11	
2025-08-10T00:00	5460	532	-3.8	-36.1	283	11	
2025-08-10T00:00	5480	531	-3.9	-35.7	283	11	
2025-08-10T00:00	5500	530	-4.1	-32.2	282	12	
2025-08-10T00:00	5520	528	-4.2	-28.6	282	12	
2025-08-10T00:00	5540	527	-4.3	-30.6	282	12	
2025-08-10T00:00	5560	526	-4.5	-31.3	282	12	
2025-08-10T00:00	5580	524	-4.6	-33.2	281	12	
2025-08-10T00:00	5600	523	-4.7	-32.8	281	12	
2025-08-10T00:00	5620	522	-4.9	-24.3	280	12	
2025-08-10T00:00	5640	520	-5.0	-22.6	279	12	
2025-08-10T00:00	5660	519	-5.2	-22.1	278	12	
2025-08-10T00:00	5680	518	-5.3	-21.6	276	12	
2025-08-10T00:00	5700	516	-5.5	-21.4	275	12	
2025-08-10T00:00	5720	515	-5.7	-21.6	274	12	
2025-08-10T00:00	5740	514	-5.8	-23.2	273	12	
2025-08-10T00:00	5760	512	-5.9	-25.0	273	12	
2025-08-10T00:00	5780	511	-6.1	-24.1	273	12	
2025-08-10T00:00	5800	510	-6.3	-20.4	273	12	
2025-08-10T00:00	5820	508	-6.5	-19.3	273	13	
2025-08-10T00:00	5840	507	-6.7	-20.3	273	13	
2025-08-10T00:00	5860	506	-6.8	-20.7	274	13	
2025-08-10T00:00	5880	504	-7.0	-19.2	274	13	
2025-08-10T00:00	5900	503	-7.1	-19.8	274	12	
2025-08-10T00:00	5920	502	-7.2	-19.3	274	12	
2025-08-10T00:00	5940	501	-7.4	-17.3	275	12	
2025-08-10T00:00	5960	499	-7.5	-19.1	275	12	
2025-08-10T00:00	5980	498	-7.5	-22.5	276	12	
2025-08-10T00:00	6000	497	-7.7	-22.0	276	11	
2025-08-10T00:00	6020	496	-7.8	-21.7	277	11	
2025-08-10T00:00	6040	494	-8.0	-20.7	278	11	
2025-08-10T00:00	6060	493	-8.1	-19.7	279	11	
2025-08-10T00:00	6080	492	-8.3	-19.2	281	11	
2025-08-10T00:00	6100	490	-8.5	-19.2	282	10	
2025-08-10T00:00	6120	489	-8.6	-19.7	283	10	
2025-08-10T00:00	6140	488	-8.7	-21.8	283	10	
2025-08-10T00:00	6160	487	-8.9	-22.2	283	10	
2025-08-10T00:00	6180	485	-9.0	-21.9	282	9	
2025-08-10T00:00	6200	484	-9.2	-22.1	280	9	
2025-08-10T00:00	6220	483	-9.3	-22.5	277	9	
2025-08-10T00:00	6240	482	-9.4	-22.6	273	9	
2025-08-10T00:00	6260	480	-9.6	-22.3	269	9	
2025-08-10T00:00	6280	479	-9.7	-21.4	265	9	
2025-08-10T00:00	6300	478	-9.9	-20.9	263	9	
2025-08-10T00:00	6320	477	-9.9	-20.3	261	9	
2025-08-10T00:00	6340	476	-9.9	-19.9	261	10	
2025-08-10T00:00	6360	474	-10.0	-19.6	261	10	
2025-08-10T00:00	6380	473	-10.1	-19.4	262	10	
2025-08-10T00:00	6400	472	-10.3	-19.5	263	10	
2025-08-10T00:00	6420	471	-10.5	-19.6	265	10	
2025-08-10T00:00	6440	469	-10.6	-19.7	266	11	
2025-08-10T00:00	6460	468	-10.8	-19.8	267	11	
2025-08-10T00:00	6480	467	-11.0	-20.0	268	11	
2025-08-10T00:00	6500	466	-11.1	-20.0	269	11	
2025-08-10T00:00	6520	465	-11.3	-19.5	269	11	
2025-08-10T00:00	6540	463	-11.4	-19.1	270	11	
2025-08-10T00:00	6560	462	-11.6	-19.4	271	11	
2025-08-10T00:00	6580	461	-11.6	-19.8	272	11	
2025-08-10T00:00	6600	460	-11.7	-19.9	272	11	
2025-08-10T00:00	6620	458	-11.8	-20.0	273	11	
2025-08-10T00:00	6640	457	-12.0	-19.9	273	11	
2025-08-10T00:00	6660	456	-12.1	-20.8	273	10	
2025-08-10T00:00	6680	455	-12.1	-22.8	273	10	
2025-08-10T00:00	6700	454	-12.2	-24.0	272	10	
2025-08-10T00:00	6720	453	-12.3	-24.7	272	9	
2025-08-10T00:00	6740	451	-12.5	-25.4	271	9	
2025-08-10T00:00	6760	450	-12.6	-26.5	270	9	
2025-08-10T00:00	6780	449	-12.8	-27.1	269	9	
2025-08-10T00:00	6800	448	-13.0	-27.3	269	9	
2025-08-10T00:00	6820	447	-13.1	-27.7	268	9	
2025-08-10T00:00	6840	446	-13.3	-28.5	268	10	
2025-08-10T00:00	6860	444	-13.5	-28.9	268	10	
2025-08-10T00:00	6880	443	-13.7	-29.3	267	10	
2025-08-10T00:00	6900	442	-13.8	-29.3	266	10	
2025-08-10T00:00	6920	441	-14.0	-29.5	265	10	
2025-08-10T00:00	6940	440	-14.3	-29.3	264	11	
2025-08-10T00:00	6960	438	-14.4	-29.6	263	11	
2025-08-10T00:00	6980	437	-14.6	-29.9	262	11	
2025-08-10T00:00	7000	436	-14.7	-30.3	262	11	
2025-08-10T00:00	7020	435	-14.9	-30.7	261	12	
2025-08-10T00:00	7040	434	-15.1	-31.0	261	12	
2025-08-10T00:00	7060	433	-15.3	-31.2	262	12	
2025-08-10T00:00	7080	432	-15.4	-31.4	262	12	
2025-08-10T00:00	7100	431	-15.6	-31.9	263	12	
2025-08-10T00:00	7120	429	-15.6	-33.1	264	11	
2025-08-10T00:00	7140	428	-15.8	-33.5	265	11	
2025-08-10T00:00	7160	427	-15.9	-34.7	266	11	
2025-08-10T00:00	7180	426	-16.1	-35.8	268	11	
2025-08-10T00:00	7200	425	-16.3	-34.7	270	11	
2025-08-10T00:00	7220	424	-16.4	-34.0	272	11	
2025-08-10T00:00	7240	423	-16.5	-33.4	273	11	
2025-08-10T00:00	7260	421	-16.6	-32.3	275	12	
2025-08-10T00:00	7280	420	-16.8	-33.0	277	12	
2025-08-10T00:00	7300	419	-16.8	-33.8	278	12	
2025-08-10T00:00	7320	418	-16.7	-33.8	278	12	
2025-08-10T00:00	7340	417	-16.8	-33.4	279	12	
2025-08-10T00:00	7360	416	-16.9	-33.6	279	12	
2025-08-10T00:00	7380	415	-17.0	-33.9	278	11	
2025-08-10T00:00	7400	414	-17.0	-34.5	278	11	
2025-08-10T00:00	7420	413	-17.1	-34.7	277	11	
2025-08-10T00:00	7440	412	-17.3	-34.8	277	10	
2025-08-10T00:00	7460	410	-17.4	-34.9	277	10	
2025-08-10T00:00	7480	409	-17.6	-34.7	277	10	
2025-08-10T00:00	7500	408	-17.6	-34.4	278	9	
2025-08-10T00:00	7520	407	-17.7	-34.5	279	9	
2025-08-10T00:00	7540	406	-17.9	-34.7	281	9	
2025-08-10T00:00	7560	405	-18.1	-35.0	283	9	
2025-08-10T00:00	7580	404	-18.3	-35.3	284	9	
2025-08-10T00:00	7600	403	-18.5	-35.6	285	9	
2025-08-10T00:00	7620	402	-18.6	-35.2	286	9	
2025-08-10T00:00	7640	401	-18.8	-33.2	286	10	
2025-08-10T00:00	7660	400	-18.9	-32.3	286	10	
2025-08-10T00:00	7680	398	-19.1	-32.1	285	10	
2025-08-10T00:00	7700	397	-19.3	-32.0	285	10	
2025-08-10T00:00	7720	396	-19.5	-31.8	284	10	
2025-08-10T00:00	7740	395	-19.7	-32.0	283	10	
2025-08-10T00:00	7760	394	-19.9	-32.2	282	9	
2025-08-10T00:00	7780	393	-20.0	-32.4	281	9	
2025-08-10T00:00	7800	392	-20.2	-35.0	281	9	
2025-08-10T00:00	7820	391	-20.2	-37.3	280	9	
2025-08-10T00:00	7840	390	-20.3	-37.8	280	9	
2025-08-10T00:00	7860	389	-20.4	-36.6	280	9	
2025-08-10T00:00	7880	388	-20.6	-35.3	280	9	
2025-08-10T00:00	7900	387	-20.7	-34.2	279	9	
2025-08-10T00:00	7920	386	-20.9	-33.9	279	8	
2025-08-10T00:00	7940	385	-21.1	-34.2	280	8	
2025-08-10T00:00	7960	384	-21.3	-34.9	280	9	
2025-08-10T00:00	7980	383	-21.5	-35.2	280	9	
2025-08-10T00:00	8000	382	-21.6	-36.8	281	9	
2025-08-10T00:00	8020	381	-21.8	-37.7	281	9	
2025-08-10T00:00	8040	379	-22.0	-38.5	282	9	
2025-08-10T00:00	8060	378	-22.2	-38.8	283	9	
2025-08-10T00:00	8080	378	-22.3	-39.5	284	9	
2025-08-10T00:00	8100	376	-22.5	-39.4	285	8	
2025-08-10T00:00	8120	375	-22.7	-39.1	286	8	
2025-08-10T00:00	8140	374	-22.8	-39.8	286	8	
2025-08-10T00:00	8160	373	-23.0	-42.2	287	8	
2025-08-10T00:00	8180	372	-23.2	-42.3	288	8	
2025-08-10T00:00	8200	371	-23.3	-41.0	289	8	
2025-08-10T00:00	8220	370	-23.5	-40.3	290	8	
2025-08-10T00:00	8240	369	-23.7	-39.6	291	8	
2025-08-10T00:00	8260	368	-23.9	-38.2	292	8	
2025-08-10T00:00	8280	367	-24.1	-37.8	293	8	
2025-08-10T00:00	8300	366	-24.3	-37.3	294	8	
2025-08-10T00:00	8320	365	-24.5	-37.0	294	8	
2025-08-10T00:00	8340	364	-24.7	-36.8	293	7	
2025-08-10T00:00	8360	363	-24.9	-35.3	292	7	
2025-08-10T00:00	8380	362	-25.0	-36.0	290	7	
2025-08-10T00:00	8400	361	-25.2	-37.0	288	7	
2025-08-10T00:00	8420	360	-25.3	-39.8	287	7	
2025-08-10T00:00	8440	359	-25.4	-43.0	285	7	
2025-08-10T00:00	8460	358	-25.6	-42.9	285	7	
2025-08-10T00:00	8480	357	-25.7	-41.7	284	8	
2025-08-10T00:00	8500	356	-25.9	-41.6	284	8	
2025-08-10T00:00	8520	355	-26.0	-38.2	285	8	
2025-08-10T00:00	8540	354	-26.2	-35.9	285	8	
2025-08-10T00:00	8560	353	-26.4	-37.2	284	8	
2025-08-10T00:00	8580	352	-26.6	-38.0	284	8	
2025-08-10T00:00	8600	351	-26.8	-37.1	283	8	
2025-08-10T00:00	8620	350	-26.9	-37.5	281	8	
2025-08-10T00:00	8640	349	-27.0	-39.2	280	7	
2025-08-10T00:00	8660	348	-27.1	-39.0	279	7	
2025-08-10T00:00	8680	347	-27.3	-39.2	277	7	
2025-08-10T00:00	8700	347	-27.3	-40.1	276	7	
2025-08-10T00:00	8720	346	-27.5	-40.0	276	7	
2025-08-10T00:00	8740	345	-27.6	-39.7	275	7	
2025-08-10T00:00	8760	344	-27.8	-39.6	276	7	
2025-08-10T00:00	8780	343	-28.0	-39.6	277	7	
2025-08-10T00:00	8800	342	-28.1	-39.6	279	7	
2025-08-10T00:00	8820	341	-28.3	-39.5	280	6	
2025-08-10T00:00	8840	340	-28.5	-39.7	282	6	
2025-08-10T00:00	8860	339	-28.6	-39.9	283	6	
2025-08-10T00:00	8880	338	-28.8	-39.9	285	6	
2025-08-10T00:00	8900	337	-29.0	-39.9	286	6	
2025-08-10T00:00	8920	336	-29.2	-39.9	287	6	
2025-08-10T00:00	8940	335	-29.4	-40.0	287	5	
2025-08-10T00:00	8960	334	-29.6	-40.0	287	5	
2025-08-10T00:00	8980	333	-29.7	-40.0	287	5	
2025-08-10T00:00	9000	332	-29.9	-40.1	287	5	
2025-08-10T00:00	9020	331	-30.1	-40.1	287	5	
2025-08-10T00:00	9040	331	-30.3	-40.0	286	5	
2025-08-10T00:00	9060	329	-30.5	-40.0	287	5	
2025-08-10T00:00	9080	329	-30.7	-40.0	287	5	
2025-08-10T00:00	9100	328	-30.8	-40.0	288	5	
2025-08-10T00:00	9120	327	-31.0	-40.0	290	5	
2025-08-10T00:00	9140	326	-31.2	-40.1	291	5	
2025-08-10T00:00	9160	325	-31.4	-40.1	293	5	
2025-08-10T00:00	9180	324	-31.6	-40.1	295	5	
2025-08-10T00:00	9200	323	-31.8	-40.1	297	5	
2025-08-10T00:00	9220	322	-31.9	-40.1	298	5	
2025-08-10T00:00	9240	321	-32.1	-40.2	299	4	
2025-08-10T00:00	9260	320	-32.2	-40.8	299	4	
2025-08-10T00:00	9280	320	-32.3	-41.5	298	3	
2025-08-10T00:00	9300	319	-32.5	-41.7	296	3	
2025-08-10T00:00	9320	318	-32.7	-41.7	294	3	
2025-08-10T00:00	9340	317	-32.9	-41.7	292	3	
2025-08-10T00:00	9360	316	-33.0	-41.9	292	3	
2025-08-10T00:00	9380	315	-33.2	-42.2	293	3	
2025-08-10T00:00	9400	314	-33.4	-42.1	294	3	
2025-08-10T00:00	9420	313	-33.6	-42.1	295	3	
2025-08-10T00:00	9440	312	-33.7	-42.5	296	3	
2025-08-10T00:00	9460	311	-33.9	-42.6	295	3	
2025-08-10T00:00	9480	310	-34.1	-43.0	293	3	
2025-08-10T00:00	9500	310	-34.3	-43.0	290	3	
2025-08-10T00:00	9520	309	-34.5	-42.9	289	3	
2025-08-10T00:00	9540	308	-34.7	-42.9	288	3	
2025-08-10T00:00	9560	307	-34.9	-43.1	289	3	
2025-08-10T00:00	9580	306	-35.0	-43.3	292	3	
2025-08-10T00:00	9600	305	-35.2	-43.9	296	3	
2025-08-10T00:00	9620	304	-35.4	-44.7	300	3	
2025-08-10T00:00	9640	303	-35.5	-45.0	304	3	
2025-08-10T00:00	9660	303	-35.7	-45.1	307	4	
2025-08-10T00:00	9680	302	-35.8	-45.7	309	4	
2025-08-10T00:00	9700	301	-36.0	-46.1	310	4	
2025-08-10T00:00	9720	300	-36.1	-46.1	310	4	
2025-08-10T00:00	9740	299	-36.3	-46.3	311	4	
2025-08-10T00:00	9760	298	-36.4	-46.4	312	4	
2025-08-10T00:00	9780	297	-36.6	-46.5	313	4	
2025-08-10T00:00	9800	296	-36.8	-46.9	315	4	
2025-08-10T00:00	9820	296	-36.9	-47.2	316	5	
2025-08-10T00:00	9840	295	-37.0	-47.4	317	5	
2025-08-10T00:00	9860	294	-37.1	-47.5	318	5	
2025-08-10T00:00	9880	293	-37.3	-47.6	318	5	
2025-08-10T00:00	9900	292	-37.5	-47.6	318	5	
2025-08-10T00:00	9920	291	-37.7	-47.8	318	5	
2025-08-10T00:00	9940	291	-37.8	-48.0	318	5	
2025-08-10T00:00	9960	290	-38.0	-48.1	318	5	
2025-08-10T00:00	9980	289	-38.2	-48.1	318	5	
2025-08-10T00:00	10000	288	-38.3	-48.4	318	5	
2025-08-10T00:00	10018	287	-38.4	-48.9	317	5	
2025-08-10T00:00	10050	286	-38.6	-49.4	317	5	
2025-08-10T00:00	10100	284	-38.7	-50.1	318	6	
2025-08-10T00:00	10150	282	-39.0	-50.2	323	6	
2025-08-10T00:00	10200	280	-39.5	-50.7	331	7	
2025-08-10T00:00	10250	278	-39.6	-54.6	340	7	
2025-08-10T00:00	10300	276	-39.8	-57.0	349	7	
2025-08-10T00:00	10350	274	-40.0	-59.3	354	7	
2025-08-10T00:00	10400	272	-40.2	-59.4	354	8	
2025-08-10T00:00	10450	270	-40.5	-59.0	351	8	
2025-08-10T00:00	10500	268	-40.9	-58.7	350	7	
2025-08-10T00:00	10550	266	-41.2	-59.0	351	7	
2025-08-10T00:00	10600	264	-41.5	-58.6	352	7	
2025-08-10T00:00	10650	262	-41.9	-58.8	350	8	
2025-08-10T00:00	10700	260	-42.2	-59.1	347	8	
2025-08-10T00:00	10750	258	-42.6	-59.3	346	8	
2025-08-10T00:00	10800	256	-43.0	-59.5	348	8	
2025-08-10T00:00	10850	254	-43.4	-59.5	351	8	
2025-08-10T00:00	10900	252	-43.9	-59.7	353	7	
2025-08-10T00:00	10950	250	-44.3	-60.1	352	7	
2025-08-10T00:00	11000	249	-44.7	-60.0	352	7	
2025-08-10T00:00	11050	247	-45.2	-60.2	352	7	
2025-08-10T00:00	11100	245	-45.7	-60.2	354	6	
2025-08-10T00:00	11150	243	-46.1	-60.5	357	6	
2025-08-10T00:00	11200	241	-46.6	-60.6	359	6	
2025-08-10T00:00	11250	239	-47.0	-60.6	358	6	
2025-08-10T00:00	11300	238	-47.4	-60.6	356	6	
2025-08-10T00:00	11350	236	-47.9	-60.7	355	6	
2025-08-10T00:00	11400	234	-48.4	-60.7	354	5	
2025-08-10T00:00	11450	232	-48.8	-60.9	355	5	
2025-08-10T00:00	11500	231	-49.3	-61.0	356	5	
2025-08-10T00:00	11550	229	-49.7	-61.1	357	5	
2025-08-10T00:00	11600	227	-50.2	-61.1	358	6	
2025-08-10T00:00	11650	225	-50.6	-61.2	0	6	
2025-08-10T00:00	11700	224	-51.0	-61.2	360	7	
2025-08-10T00:00	11750	222	-51.3	-61.5	358	7	
2025-08-10T00:00	11800	220	-51.4	-61.9	358	8	
2025-08-10T00:00	11850	218	-51.8	-62.0	360	8	
2025-08-10T00:00	11900	217	-52.3	-62.0	359	8	
2025-08-10T00:00	11950	215	-52.7	-62.2	357	9	
2025-08-10T00:00	12000	213	-53.2	-62.2	353	9	
2025-08-10T00:00	12050	212	-53.6	-62.4	349	9	
2025-08-10T00:00	12100	210	-54.0	-62.5	346	9	
2025-08-10T00:00	12150	209	-54.5	-62.8	344	9	
2025-08-10T00:00	12200	207	-54.8	-63.2	342	10	
2025-08-10T00:00	12250	205	-55.0	-63.3	338	11	
2025-08-10T00:00	12300	204	-54.9	-63.8	335	12	
2025-08-10T00:00	12350	202	-54.6	-64.6	333	14	
2025-08-10T00:00	12400	200	-54.2	-65.1	335	15	
2025-08-10T00:00	12450	199	-54.5	-65.2	337	14	
2025-08-10T00:00	12500	197	-54.7	-65.6	337	13	
2025-08-10T00:00	12550	196	-54.7	-66.3	338	11	
2025-08-10T00:00	12600	194	-55.0	-66.6	340	10	
2025-08-10T00:00	12650	193	-55.4	-66.7	343	10	
2025-08-10T00:00	12700	191	-55.8	-66.9	343	9	
2025-08-10T00:00	12750	190	-56.1	-67.1	339	9	
2025-08-10T00:00	12800	188	-56.5	-67.3	337	8	
2025-08-10T00:00	12850	187	-56.8	-67.6	336	8	
2025-08-10T00:00	12900	185	-57.3	-67.6	331	7	
2025-08-10T00:00	12950	184	-57.7	-67.7	325	6	
2025-08-10T00:00	13000	182	-57.8	-68.1	319	6	
2025-08-10T00:00	13050	181	-57.9	-68.5	317	5	
2025-08-10T00:00	13100	180	-58.3	-68.6	321	5	
2025-08-10T00:00	13150	178	-58.8	-68.6	324	5	
2025-08-10T00:00	13200	177	-59.2	-68.6	325	6	
2025-08-10T00:00	13250	175	-59.7	-68.7	324	6	
2025-08-10T00:00	13300	174	-60.1	-68.8	323	6	
2025-08-10T00:00	13350	173	-60.4	-69.1	323	7	
2025-08-10T00:00	13400	171	-60.8	-69.2	324	7	
2025-08-10T00:00	13450	170	-61.0	-69.3	326	7	
2025-08-10T00:00	13500	168	-61.2	-69.4	325	7	
2025-08-10T00:00	13550	167	-61.6	-69.5	325	6	
2025-08-10T00:00	13600	166	-61.7	-69.6	321	6	
2025-08-10T00:00	13650	164	-61.4	-70.0	310	5	
2025-08-10T00:00	13700	163	-61.0	-70.8	294	4	
2025-08-10T00:00	13750	162	-60.7	-71.8	268	3	
2025-08-10T00:00	13800	160	-60.6	-73.0	240	3	
2025-08-10T00:00	13850	159	-60.7	-73.9	236	4	
2025-08-10T00:00	13900	158	-61.0	-74.8	247	5	
2025-08-10T00:00	13950	157	-61.0	-76.3	256	7	
2025-08-10T00:00	14000	155	-60.4	-79.0	264	9	
2025-08-10T00:00	14050	154	-59.5	-80.6	270	9	
2025-08-10T00:00	14100	153	-59.5	-80.5	271	10	
2025-08-10T00:00	14150	152	-58.8	-80.6	266	10	
2025-08-10T00:00	14200	151	-58.0	-80.7	260	10	
2025-08-10T00:00	14250	149	-57.9	-80.7	258	10	
2025-08-10T00:00	14300	148	-58.1	-80.7	262	10	
2025-08-10T00:00	14350	147	-58.4	-80.8	268	9	
2025-08-10T00:00	14400	146	-58.9	-80.9	272	9	
2025-08-10T00:00	14450	145	-59.2	-81.0	273	9	
2025-08-10T00:00	14500	144	-59.1	-81.1	271	9	
2025-08-10T00:00	14550	142	-59.2	-81.3	266	9	
2025-08-10T00:00	14600	141	-59.4	-81.5	261	9	
2025-08-10T00:00	14650	140	-59.4	-81.6	256	10	
2025-08-10T00:00	14700	139	-59.3	-81.8	251	10	
2025-08-10T00:00	14750	138	-59.3	-81.9	246	9	
2025-08-10T00:00	14800	137	-59.4	-82.0	244	9	
2025-08-10T00:00	14850	136	-59.4	-82.1	244	10	
2025-08-10T00:00	14900	135	-59.7	-82.1	246	10	
2025-08-10T00:00	14950	134	-60.0	-82.3	247	11	
2025-08-10T00:00	15000	133	-60.2	-82.4	247	12	
2025-08-10T00:00	15050	131	-60.4	-82.5	250	13	
2025-08-10T00:00	15100	130	-60.4	-82.7	253	13	
2025-08-10T00:00	15150	129	-60.5	-82.8	253	13	
2025-08-10T00:00	15200	128	-60.7	-82.8	254	13	
2025-08-10T00:00	15250	127	-60.8	-82.9	256	13	
2025-08-10T00:00	15300	126	-61.0	-83.0	257	13	
2025-08-10T00:00	15350	125	-61.3	-83.1	255	13	
2025-08-10T00:00	15400	124	-61.7	-83.1	256	13	
2025-08-10T00:00	15450	123	-62.1	-83.1	260	14	
2025-08-10T00:00	15500	122	-62.1	-83.3	264	14	
2025-08-10T00:00	15550	121	-61.6	-83.4	266	13	
2025-08-10T00:00	15600	120	-61.4	-83.4	264	13	
2025-08-10T00:00	15650	119	-61.2	-83.4	261	12	
2025-08-10T00:00	15700	118	-61.3	-83.5	258	12	
2025-08-10T00:00	15750	117	-60.9	-83.4	254	12	
2025-08-10T00:00	15800	116	-61.0	-83.6	251	13	
2025-08-10T00:00	15850	116	-60.8	-83.6	248	13	
2025-08-10T00:00	15900	115	-60.5	-83.5	247	14	
2025-08-10T00:00	15950	114	-60.7	-83.6	247	14	
2025-08-10T00:00	16000	113	-60.8	-83.6	249	14	
2025-08-10T00:00	16050	112	-60.7	-83.8	253	14	
2025-08-10T00:00	16100	111	-59.8	-83.7	256	14	
2025-08-10T00:00	16150	110	-59.4	-83.8	257	14	
2025-08-10T00:00	16200	109	-59.9	-83.8	256	13	
2025-08-10T00:00	16250	108	-60.3	-83.8	253	14	
2025-08-10T00:00	16300	107	-60.5	-83.8	252	14	
2025-08-10T00:00	16350	107	-60.9	-84.0	253	14	
2025-08-10T00:00	16400	106	-61.2	-84.2	255	15	
2025-08-10T00:00	16450	105	-61.5	-84.3	258	14	
2025-08-10T00:00	16500	104	-61.9	-84.4	261	14	
2025-08-10T00:00	16550	103	-62.1	-84.5	263	14	
2025-08-10T00:00	16600	102	-62.0	-84.5	266	13	
2025-08-10T00:00	16650	102	-61.8	-84.4	267	13	
2025-08-10T00:00	16700	101	-61.8	-84.6	268	13	
2025-08-10T00:00	16750	100	-61.6	-84.6	268	13	
2025-08-10T00:00	16800	99	-61.7	-84.6	270	13	
2025-08-10T00:00	16850	98	-61.9	-84.7	272	13	
2025-08-10T00:00	16900	98	-62.2	-84.8	272	13	
2025-08-10T00:00	16950	97	-62.5	-85.0	273	13	
2025-08-10T00:00	17000	96	-62.4	-85.1	274	12	
2025-08-10T00:00	17050	95	-62.3	-85.1	274	11	
2025-08-10T00:00	17100	94	-62.5	-85.5	269	10	
2025-08-10T00:00	17150	94	-62.0	-85.4	263	9	
2025-08-10T00:00	17200	93	-61.9	-85.5	260	10	
2025-08-10T00:00	17250	92	-61.7	-85.4	259	9	
2025-08-10T00:00	17300	91	-61.6	-85.4	261	9	
2025-08-10T00:00	17350	91	-61.8	-85.5	263	8	
2025-08-10T00:00	17400	90	-61.8	-85.5	263	9	
2025-08-10T00:00	17450	89	-61.7	-85.6	267	9	
2025-08-10T00:00	17500	89	-61.6	-85.6	273	10	
2025-08-10T00:00	17550	88	-61.6	-85.7	278	10	
2025-08-10T00:00	17600	87	-61.3	-85.6	280	10	
2025-08-10T00:00	17650	86	-61.3	-85.7	278	9	
2025-08-10T00:00	17700	86	-61.3	-85.7	273	8	
2025-08-10T00:00	17750	85	-61.3	-85.7	270	7	
2025-08-10T00:00	17800	84	-61.2	-85.7	271	6	
2025-08-10T00:00	17850	84	-61.1	-85.7	277	6	
2025-08-10T00:00	17900	83	-60.8	-85.7	280	6	
2025-08-10T00:00	17950	82	-60.8	-85.9	274	7	
2025-08-10T00:00	18000	82	-60.0	-85.6	263	7	
2025-08-10T00:00	18050	81	-60.0	-85.6	255	8	
2025-08-10T00:00	18100	80	-60.3	-85.5	249	8	
2025-08-10T00:00	18150	80	-60.6	-85.5	241	7	
2025-08-10T00:00	18200	79	-60.9	-85.7	232	7	
2025-08-10T00:00	18250	78	-61.0	-85.7	231	7	
2025-08-10T00:00	18300	78	-61.1	-85.8	235	7	
2025-08-10T00:00	18350	77	-61.2	-85.9	241	7	
2025-08-10T00:00	18400	77	-61.3	-86.1	242	6	
2025-08-10T00:00	18450	76	-60.9	-86.0	242	6	
2025-08-10T00:00	18500	75	-60.7	-86.0	241	6	
2025-08-10T00:00	18550	75	-60.5	-86.0	237	6	
2025-08-10T00:00	18600	74	-60.6	-86.0	229	5	
2025-08-10T00:00	18650	74	-60.4	-85.8	223	5	
2025-08-10T00:00	18700	73	-60.4	-85.9	221	4	
2025-08-10T00:00	18750	72	-60.3	-85.8	227	4	
2025-08-10T00:00	18800	72	-60.5	-85.9	242	5	
2025-08-10T00:00	18850	71	-60.5	-86.0	251	5	
2025-08-10T00:00	18900	71	-60.2	-85.8	251	6	
2025-08-10T00:00	18950	70	-60.2	-85.8	249	6	
2025-08-10T00:00	19000	70	-60.5	-85.9	251	7	
2025-08-10T00:00	19050	69	-60.6	-85.9	257	7	
2025-08-10T00:00	19100	68	-60.6	-86.1	267	6	
2025-08-10T00:00	19150	68	-60.2	-86.0	278	6	
2025-08-10T00:00	19200	67	-60.0	-86.0	278	5	
2025-08-10T00:00	19250	67	-59.8	-85.9	265	5	
2025-08-10T00:00	19300	66	-59.5	-85.8	247	5	
2025-08-10T00:00	19350	66	-59.6	-85.7	241	5	
2025-08-10T00:00	19400	65	-59.7	-85.7	241	5	
2025-08-10T00:00	19450	65	-59.8	-85.8	241	5	
2025-08-10T00:00	19500	64	-59.7	-85.8	242	4	
2025-08-10T00:00	19550	64	-59.7	-85.8	249	5	
2025-08-10T00:00	19600	63	-59.7	-85.8	257	5	
2025-08-10T00:00	19650	63	-59.9	-86.0	262	5	
2025-08-10T00:00	19700	62	-59.3	-85.8	263	4	
2025-08-10T00:00	19750	62	-59.3	-86.0	270	3	
2025-08-10T00:00	19800	61	-58.4	-85.6	275	4	
2025-08-10T00:00	19850	61	-58.2	-85.5	271	4	
2025-08-10T00:00	19900	60	-58.4	-85.5	266	4	
2025-08-10T00:00	19950	60	-58.4	-85.5	264	3	
2025-08-10T00:00	20000	59	-57.8	-85.2	268	1	
2025-08-10T00:00	20050	59	-57.9		30	0	
2025-08-10T00:00	20100	58	-58.1		91	1	
2025-08-10T00:00	20150	58	-58.4		102	2	
2025-08-10T00:00	20200	57	-58.4		113	3	
2025-08-10T00:00	20250	57	-58.4		119	3	
2025-08-10T00:00	20300	57	-57.9		108	3	
2025-08-10T00:00	20350	56	-57.5		88	2	
2025-08-10T00:00	20400	56	-57.4		77	2	
2025-08-10T00:00	20450	55	-57.1		69	2	
2025-08-10T00:00	20500	55	-57.2		55	2	
2025-08-10T00:00	20550	54	-57.1		52	2	
2025-08-10T00:00	20600	54	-57.1		79	1	
2025-08-10T00:00	20650	53	-57.1		161	1	
2025-08-10T00:00	20700	53	-57.0		185	1	
2025-08-10T00:00	20750	53	-57.0		194	1	
2025-08-10T00:00	20800	52	-56.6		239	1	
2025-08-10T00:00	20850	52	-56.5		337	1	
2025-08-10T00:00	20900	51	-56.1		16	1	
2025-08-10T00:00	20950	51	-56.0		32	2	
2025-08-10T00:00	21000	51	-55.6		33	2	
2025-08-10T00:00	21050	50	-55.3		30	2	
2025-08-10T00:00	21100	50	-54.8		33	3	
2025-08-10T00:00	21150	49	-54.7		38	3	
2025-08-10T00:00	21200	49	-54.9		44	3	
2025-08-10T00:00	21250	49	-55.2		56	3	
2025-08-10T00:00	21300	48	-55.3		64	3	
2025-08-10T00:00	21350	48	-55.0		69	3	
2025-08-10T00:00	21400	48	-54.9		77	3	
2025-08-10T00:00	21450	47	-54.6		88	2	
2025-08-10T00:00	21500	47	-54.9		101	2	
2025-08-10T00:00	21550	46	-55.3		122	1	
2025-08-10T00:00	21600	46	-55.6		176	1	
2025-08-10T00:00	21650	46	-56.0		268	1	
2025-08-10T00:00	21700	45	-56.1		321	2	
2025-08-10T00:00	21750	45	-56.1		350	3	
2025-08-10T00:00	21800	45	-55.9		5	4	
2025-08-10T00:00	21850	44	-55.9		14	5	
2025-08-10T00:00	21900	44	-55.6		23	6	
2025-08-10T00:00	21950	44	-55.3		34	5	
2025-08-10T00:00	22000	43	-55.4		45	5	
2025-08-10T00:00	22050	43	-55.7		52	4	
2025-08-10T00:00	22100	43	-55.7		54	3	
2025-08-10T00:00	22150	42	-55.7		46	2	
2025-08-10T00:00	22200	42	-55.5		13	1	
2025-08-10T00:00	22250	42	-55.5		343	2	
2025-08-10T00:00	22300	41	-55.3		342	3	
2025-08-10T00:00	22350	41	-55.4		351	4	
2025-08-10T00:00	22400	41	-55.4		6	5	
2025-08-10T00:00	22450	40	-55.3		21	5	
2025-08-10T00:00	22500	40	-55.3		33	6	
2025-08-10T00:00	22550	40	-55.1		45	5	
2025-08-10T00:00	22600	39	-54.6		63	5	
2025-08-10T00:00	22650	39	-54.4		82	6	
2025-08-10T00:00	22700	39	-54.6		96	7	
2025-08-10T00:00	22750	38	-54.6		105	8	
2025-08-10T00:00	22800	38	-54.7		110	7	
2025-08-10T00:00	22850	38	-54.7		115	6	
2025-08-10T00:00	22900	38	-54.8		123	4	
2025-08-10T00:00	22950	37	-54.8		132	3	
2025-08-10T00:00	23000	37	-54.7		134	2	
2025-08-10T00:00	23050	37	-54.6		103	1	
2025-08-10T00:00	23100	36	-54.3		53	1	
2025-08-10T00:00	23150	36	-53.9		62	1	
2025-08-10T00:00	23200	36	-53.5		73	2	
2025-08-10T00:00	23250	36	-53.5		79	2	
2025-08-10T00:00	23300	35	-53.3		80	2	
2025-08-10T00:00	23350	35	-53.1		72	1	
2025-08-10T00:00	23400	35	-53.2		54	1	
2025-08-10T00:00	23450	34	-53.3		47	2	
2025-08-10T00:00	23500	34	-53.3		50	3	
2025-08-10T00:00	23550	34	-53.3		54	4	
2025-08-10T00:00	23600	34	-53.3		60	6	
2025-08-10T00:00	23650	33	-53.5		68	6	
2025-08-10T00:00	23700	33	-53.3		76	7	
2025-08-10T00:00	23750	33	-53.3		81	7	
2025-08-10T00:00	23800	33	-53.3		86	7	
2025-08-10T00:00	23850	32	-53.1		88	6	
2025-08-10T00:00	23900	32	-53.1		88	6	
2025-08-10T00:00	23950	32	-53.2		86	7	
2025-08-10T00:00	24000	32	-53.1		83	7	
2025-08-10T00:00	24050	31	-53.1		81	7	
2025-08-10T00:00	24100	31	-53.0		80	6	
2025-08-10T00:00	24150	31	-53.1		76	6	
2025-08-10T00:00	24200	31	-53.2		69	6	
2025-08-10T00:00	24250	30	-53.2		61	7	
2025-08-10T00:00	24300	30	-52.8		56	7	
2025-08-10T00:00	24350	30	-52.5		53	8	
2025-08-10T00:00	24400	30	-52.3		53	9	
2025-08-10T00:00	24450	30	-52.3		57	10	
2025-08-10T00:00	24500	29	-52.3		64	11	
2025-08-10T00:00	24550	29	-52.1		73	12	
2025-08-10T00:00	24600	29	-51.9		82	12	
2025-08-10T00:00	24650	29	-51.5		91	12	
2025-08-10T00:00	24700	28	-51.5		99	12	
2025-08-10T00:00	24750	28	-51.7		106	11	
2025-08-10T00:00	24800	28	-51.9		114	10	
2025-08-10T00:00	24850	28	-51.8		120	9	
2025-08-10T00:00	24900	28	-51.7		121	8	
2025-08-10T00:00	24950	27	-51.4		118	7	
2025-08-10T00:00	25000	27	-50.9		111	6	
2025-08-10T00:00	25050	27	-50.5		102	6	
2025-08-10T00:00	25100	27	-50.5		94	5	
2025-08-10T00:00	25150	26	-50.4		92	6	
2025-08-10T00:00	25200	26	-50.3		94	6	
2025-08-10T00:00	25250	26	-50.3		94	6	
2025-08-10T00:00	25300	26	-50.2		93	5	
2025-08-10T00:00	25350	26	-50.2		92	5	
2025-08-10T00:00	25400	26	-50.2		93	5	
2025-08-10T00:00	25450	25	-50.3		93	5	
2025-08-10T00:00	25500	25	-50.2		90	4	
2025-08-10T00:00	25550	25	-50.0		90	4	
2025-08-10T00:00	25600	25	-50.0		93	5	
2025-08-10T00:00	25650	25	-50.0		98	6	
2025-08-10T00:00	25700	24	-50.1		99	7	
2025-08-10T00:00	25750	24	-50.1		97	7	
2025-08-10T00:00	25800	24	-49.7		91	6	
2025-08-10T00:00	25850	24	-49.1		79	6	
2025-08-10T00:00	25900	24	-48.8		69	7	
2025-08-10T00:00	25950	23	-48.4		68	8	
2025-08-10T00:00	26000	23	-48.1		74	9	
2025-08-10T00:00	26050	23	-48.0		82	10	
2025-08-10T00:00	26100	23	-47.9		91	10	
2025-08-10T00:00	26150	23	-47.9		101	9	
2025-08-10T00:00	26200	23	-47.9		109	9	
2025-08-10T00:00	26250	22	-48.0		112	8	
2025-08-10T00:00	26300	22	-48.0		112	7	
2025-08-10T00:00	26350	22	-47.7		111	6	
2025-08-10T00:00	26400	22	-47.3		106	5	
2025-08-10T00:00	26450	22	-47.3		95	5	
2025-08-10T00:00	26500	22	-47.2		82	5	
2025-08-10T00:00	26550	21	-47.1		73	6	
2025-08-10T00:00	26600	21	-47.1		68	6	
2025-08-10T00:00	26650	21	-47.1		62	7	
2025-08-10T00:00	26700	21	-47.0		57	8	
2025-08-10T00:00	26750	21	-46.8		54	8	
2025-08-10T00:00	26800	21	-46.8		55	9	
2025-08-10T00:00	26850	20	-46.8		58	9	
2025-08-10T00:00	26900	20	-46.8		61	10	
2025-08-10T00:00	26950	20	-46.8		64	11	
2025-08-10T00:00	27000	20	-47.0		66	11	
2025-08-10T00:00	27050	20	-47.0		66	12	
2025-08-10T00:00	27100	20	-47.0		65	11	
2025-08-10T00:00	27150	20	-47.0		64	11	
2025-08-10T00:00	27200	19	-46.9		66	11	
2025-08-10T00:00	27250	19	-46.7		69	12	
2025-08-10T00:00	27300	19	-46.6		72	12	
2025-08-10T00:00	27350	19	-46.3		75	12	
2025-08-10T00:00	27400	19	-46.3		79	12	
2025-08-10T00:00	27450	19	-46.1		82	12	
2025-08-10T00:00	27500	19	-46.0		85	11	
2025-08-10T00:00	27550	18	-45.9		84	10	
2025-08-10T00:00	27600	18	-45.8		79	9	
2025-08-10T00:00	27650	18	-45.5		74	10	
2025-08-10T00:00	27700	18	-45.3		70	10	
2025-08-10T00:00	27750	18	-45.2		69	11	
2025-08-10T00:00	27800	18	-45.2		69	11	
2025-08-10T00:00	27850	18	-45.1		71	11	
2025-08-10T00:00	27900	17	-45.0		75	11	
2025-08-10T00:00	27950	17	-44.8		80	11	
2025-08-10T00:00	28000	17	-44.7		82	11	
2025-08-10T00:00	28050	17	-44.5		79	11	
2025-08-10T00:00	28100	17	-44.4		72	10	
2025-08-10T00:00	28150	17	-44.3		65	10	
2025-08-10T00:00	28200	17	-44.2		62	11	
2025-08-10T00:00	28250	17	-44.1		63	11	
2025-08-10T00:00	28300	16	-44.1		65	12	
2025-08-10T00:00	28350	16	-44.2		66	13	
2025-08-10T00:00	28400	16	-44.4		66	14	
2025-08-10T00:00	28450	16	-44.4		67	15	
2025-08-10T00:00	28500	16	-44.3		70	15	
2025-08-10T00:00	28550	16	-44.3		76	15	
2025-08-10T00:00	28600	16	-44.4		81	15	
2025-08-10T00:00	28650	16	-44.5		85	15	
2025-08-10T00:00	28700	15	-44.6		89	15	
2025-08-10T00:00	28750	15	-44.8		92	14	
2025-08-10T00:00	28800	15	-45.1		92	13	
2025-08-10T00:00	28850	15	-44.8		90	12	
2025-08-10T00:00	28900	15	-44.3		86	11	
2025-08-10T00:00	28950	15	-44.2		83	11	
2025-08-10T00:00	29000	15	-44.2		82	11	
2025-08-10T00:00	29050	15	-44.2		83	11	
2025-08-10T00:00	29100	15	-44.2		86	12	
2025-08-10T00:00	29150	14	-44.1		89	13	
2025-08-10T00:00	29200	14	-44.1		93	13	
2025-08-10T00:00	29250	14	-43.9		99	13	
2025-08-10T00:00	29300	14	-43.9		104	14	
2025-08-10T00:00	29350	14	-43.9		109	14	
2025-08-10T00:00	29400	14	-43.9		110	13	
2025-08-10T00:00	29450	14	-43.8		106	12	
2025-08-10T00:00	29500	14	-43.7		100	10	
2025-08-10T00:00	29550	14	-43.8		93	9	
2025-08-10T00:00	29600	14	-43.8		84	9	
2025-08-10T00:00	29650	13	-43.8		76	9	
2025-08-10T00:00	29700	13	-43.8		71	10	
2025-08-10T00:00	29750	13	-43.8		71	11	
2025-08-10T00:00	29800	13	-43.7		75	13	
2025-08-10T00:00	29850	13	-43.5		80	14	
2025-08-10T00:00	29900	13	-43.6		86	15	
2025-08-10T00:00	29950	13	-43.7		91	15	
2025-08-10T00:00	30000	13	-43.9		96	15	
2025-08-10T00:00	30050	13	-44.0		100	15	
2025-08-10T00:00	30100	13	-44.2		106	15	
2025-08-10T00:00	30150	12	-44.4		111	15	
2025-08-10T00:00	30200	12	-44.5		115	14	
2025-08-10T00:00	30250	12	-44.5		116	14	
2025-08-10T00:00	30300	12	-44.2		113	12	
2025-08-10T00:00	30350	12	-44.1		107	11	
2025-08-10T00:00	30400	12	-44.1		100	10	
2025-08-10T00:00	30450	12	-44.1		97	10	
2025-08-10T00:00	30500	12	-44.2		98	10	
2025-08-10T00:00	30550	12	-44.3		102	11	
2025-08-10T00:00	30600	12	-44.1		105	12	
2025-08-10T00:00	30650	12	-44.0		109	12	
2025-08-10T00:00	30700	12	-43.9		112	12	
2025-08-10T00:00	30750	11	-43.8		115	12	
2025-08-10T00:00	30800	11	-43.8		117	12	
2025-08-10T00:00	30850	11	-43.8		115	11	
2025-08-10T00:00	30900	11	-43.7		110	10	
2025-08-10T00:00	30950	11	-43.6		106	10	
2025-08-10T00:00	31000	11	-43.4		104	9	
2025-08-10T00:00	31050	11	-43.3		105	9	
2025-08-10T00:00	31100	11	-43.3		107	8	
2025-08-10T00:00	31150	11	-43.2		107	7	
2025-08-10T00:00	31200	11	-43.2		106	8	
2025-08-10T00:00	31250	11	-43.0		104	9	
2025-08-10T00:00	31300	11	-43.0		103	10	
2025-08-10T00:00	31350	10	-42.9		103	10	
2025-08-10T00:00	31400	10	-42.9		103	10	
2025-08-10T00:00	31450	10	-42.8		104	9	
2025-08-10T00:00	31500	10	-42.9		104	9	
2025-08-10T00:00	31550	10	-42.8		103	9	
2025-08-10T00:00	31600	10	-42.7		103	9	
2025-08-10T00:00	31650	10	-42.5		102	9	
2025-08-10T00:00	31700	10	-42.4		100	9	
2025-08-10T00:00	31750	10	-42.3		97	9	
2025-08-10T00:00	31800	10	-42.2		92	10	
2025-08-10T00:00	31850	10	-41.8		90	11	
2025-08-10T00:00	31900	10	-41.5		92	11	
2025-08-10T00:00	31950	10	-41.0		97	11	
2025-08-10T00:00	32000	9	-40.8		99	10	
2025-08-10T00:00	32050	9	-40.8		95	10	
2025-08-10T00:00	32100	9	-40.4		86	10	
2025-08-10T00:00	32150	9	-40.1		79	11	
2025-08-10T00:00	32200	9	-39.9		77	12	
2025-08-10T00:00	32250	9	-39.7		79	13	
2025-08-10T00:00	32300	9	-39.2		81	14	
2025-08-10T00:00	32350	9	-39.0		80	15	
2025-08-10T00:00	32400	9	-39.1		78	15	
2025-08-10T00:00	32450	9	-39.1		77	15	
2025-08-10T00:00	32500	9	-39.0		77	14	
2025-08-10T00:00	32550	9	-38.9		78	14	
2025-08-10T00:00	32600	9	-38.7		81	14	
2025-08-10T00:00	32650	9	-38.4		87	14	
2025-08-10T00:00	32700	9	-38.2		91	14	
2025-08-10T00:00	32750	8	-38.1		94	14	
2025-08-10T00:00	32800	8	-37.9		96	15	
2025-08-10T00:00	32850	8	-37.7		97	15	
2025-08-10T00:00	32900	8	-37.7		97	15	
2025-08-10T00:00	32950	8	-37.7		97	14	
2025-08-10T00:00	33000	8	-37.8		96	13	
2025-08-10T00:00	33050	8	-38.0		95	12	
2025-08-10T00:00	33100	8	-38.1		93	11	
2025-08-10T00:00	33150	8	-38.3		92	11	
2025-08-10T00:00	33200	8	-38.0		91	11	
2025-08-10T00:00	33250	8	-37.6		90	12	
2025-08-10T00:00	33300	8	-37.4		89	12	
2025-08-10T00:00	33350	8	-37.3		87	12	
2025-08-10T00:00	33400	8	-37.3		84	11	
2025-08-10T00:00	33450	8	-37.3		77	10	
2025-08-10T00:00	33500	8	-37.1		71	11	
2025-08-10T00:00	33550	8	-36.9		70	12	
2025-08-10T00:00	33600	8	-36.6		71	14	
2025-08-10T00:00	33650	7	-36.4		73	15	
2025-08-10T00:00	33700	7	-36.2		76	16	
2025-08-10T00:00	33750	7	-36.3		80	16	
2025-08-10T00:00	33800	7	-36.3		84	16	
2025-08-10T00:00	33850	7	-36.5		87	16	
2025-08-10T00:00	33900	7	-36.7		89	15	
2025-08-10T00:00	33950	7	-36.8		91	15	
2025-08-10T00:00	34000	7	-37.0		92	15	
2025-08-10T00:00	34050	7	-37.2		92	14	
2025-08-10T00:00	34100	7	-37.3		89	13	
2025-08-10T00:00	34150	7	-37.4		85	13	
2025-08-10T00:00	34200	7	-37.3		81	13	
2025-08-10T00:00	34250	7	-37.3		78	13	
2025-08-10T00:00	34300	7	-37.1		77	13	
2025-08-10T00:00	34350	7	-36.8		76	13	
2025-08-10T00:00	34400	7	-36.5		75	13	
2025-08-10T00:00	34450	7	-36.4		74	13	
2025-08-10T00:00	34500	7	-36.4		71	13	
2025-08-10T00:00	34550	7	-36.2		67	14	
2025-08-10T00:00	34600	7	-36.0		63	14	
2025-08-10T00:00	34650	6	-35.9		62	14	
2025-08-10T00:00	34700	6	-35.7		63	15	
2025-08-10T00:00	34750	6	-35.7		67	15	
2025-08-10T00:00	34800	6	-35.7		70	15	
2025-08-10T00:00	34850	6	-35.8		70	15	
2025-08-10T00:00	34900	6	-35.8		68	14	
2025-08-10T00:00	34950	6	-35.7		64	14	
2025-08-10T00:00	35000	6	-35.7		61	14	
2025-08-10T00:00	35050	6	-35.4		60	14	
2025-08-10T00:00	35100	6	-35.1		60	14	
2025-08-10T00:00	35150	6	-34.8		58	14	
2025-08-10T00:00	35200	6	-34.3		56	15	
2025-08-10T00:00	35250	6	-34.0		56	16	
2025-08-10T00:00	35300	6	-33.7		58	17	
2025-08-10T00:00	35350	6	-33.5		58	18	
2025-08-10T00:00	35400	6	-33.3		58	18	
2025-08-10T00:00	35450	6	-33.2		58	18	
2025-08-10T00:00	35500	6	-32.9		55	18	
2025-08-10T00:00	35550	6	-32.7		50	17	
2025-08-10T00:00	35600	6	-32.5		44	17	
2025-08-10T00:00	35650	6	-32.4		39	17	
2025-08-10T00:00	35700	6	-32.3		36	18	
2025-08-10T00:00	35750	6	-32.3		37	19	
2025-08-10T00:00	35800	5	-32.1		38	20	
2025-08-10T00:00	35850	5	-32.1		39	20	
2025-08-10T00:00	35900	5	-31.7		40	20	
2025-08-10T00:00	35950	5	-31.6		43	20	
2025-08-10T00:00	36000	5	-31.4		48	20	
2025-08-10T00:00	36050	5	-31.2		52	20	
2025-08-10T00:00	36100	5	-31.2		56	21	
2025-08-10T00:00	36150	5	-31.2		59	21	
2025-08-10T00:00	36200	5	-31.3		62	22	
2025-08-10T00:00	36250	5	-31.3		63	22	
2025-08-10T00:00	36300	5	-31.2		63	22	
2025-08-10T00:00	36350	5	-30.9		61	21	
2025-08-10T00:00	36400	5	-30.6		60	21	
2025-08-10T00:00	36450	5	-30.4		60	21	
2025-08-10T00:00	36500	5	-30.0		61	21	
2025-08-10T00:00	36550	5	-29.7		62	21	
2025-08-10T00:00	36600	5	-29.5		64	20	
2025-08-10T00:00	36650	5	-29.5		66	20	
2025-08-10T00:00	36700	5	-29.5		68	20	
2025-08-10T12:00	491	967	29.6	15.3	68	4	
2025-08-10T12:00	501	965	28.4	15.6	67	3	
2025-08-10T12:00	520	964	27.2	15.3	63	2	
2025-08-10T12:00	540	962	26.9	14.8	58	3	
2025-08-10T12:00	560	959	26.9	14.8	53	3	
2025-08-10T12:00	580	957	27.1	14.8	49	4	
2025-08-10T12:00	600	955	26.9	14.8	46	4	
2025-08-10T12:00	620	953	26.7	14.7	42	4	
2025-08-10T12:00	640	951	26.3	14.6	36	4	
2025-08-10T12:00	660	948	26.1	14.4	31	4	
2025-08-10T12:00	680	946	26.0	14.5	27	4	
2025-08-10T12:00	700	944	25.9	14.6	23	4	
2025-08-10T12:00	720	942	25.5	14.3	20	4	
2025-08-10T12:00	740	940	25.4	14.3	19	4	
2025-08-10T12:00	760	938	25.2	14.3	20	4	
2025-08-10T12:00	780	936	24.9	14.3	20	4	
2025-08-10T12:00	800	933	24.7	14.2	22	4	
2025-08-10T12:00	820	931	24.5	14.1	25	4	
2025-08-10T12:00	840	929	24.2	14.3	28	4	
2025-08-10T12:00	860	927	23.8	14.2	33	3	
2025-08-10T12:00	880	925	23.7	14.2	38	3	
2025-08-10T12:00	900	923	23.5	14.3	42	3	
2025-08-10T12:00	920	921	23.3	14.4	46	3	
2025-08-10T12:00	940	919	23.1	14.6	50	3	
2025-08-10T12:00	960	917	22.9	14.6	54	3	
2025-08-10T12:00	980	915	22.8	14.5	59	3	
2025-08-10T12:00	1000	913	22.6	14.5	62	3	
2025-08-10T12:00	1020	911	22.4	14.4	66	3	
2025-08-10T12:00	1040	909	22.2	14.3	70	3	
2025-08-10T12:00	1060	906	22.0	14.3	73	3	
2025-08-10T12:00	1080	904	21.8	14.3	76	3	
2025-08-10T12:00	1100	902	21.6	14.3	77	3	
2025-08-10T12:00	1120	900	21.5	14.3	77	3	
2025-08-10T12:00	1140	898	21.3	14.2	76	3	
2025-08-10T12:00	1160	896	21.1	14.2	76	3	
2025-08-10T12:00	1180	894	20.9	14.2	75	2	
2025-08-10T12:00	1200	892	20.7	14.2	77	2	
2025-08-10T12:00	1220	890	20.6	14.2	81	2	
2025-08-10T12:00	1240	888	20.4	14.1	87	2	
2025-08-10T12:00	1260	886	20.2	13.9	93	2	
2025-08-10T12:00	1280	884	20.0	13.7	98	2	
2025-08-10T12:00	1300	882	19.8	13.7	101	2	
2025-08-10T12:00	1320	880	19.6	13.7	102	2	
2025-08-10T12:00	1340	878	19.4	13.7	101	2	
2025-08-10T12:00	1360	876	19.3	13.6	99	1	
2025-08-10T12:00	1380	874	19.4	12.6	87	1	
2025-08-10T12:00	1400	871	19.9	9.9	357	0	
2025-08-10T12:00	1420	869	19.9	9.9	318	1	
2025-08-10T12:00	1440	867	19.8	9.2	311	1	
2025-08-10T12:00	1460	865	19.8	8.8	308	2	
2025-08-10T12:00	1480	864	19.7	8.5	305	2	
2025-08-10T12:00	1500	861	19.5	8.4	300	2	
2025-08-10T12:00	1520	859	19.3	8.4	291	2	
2025-08-10T12:00	1540	858	19.2	8.4	284	2	
2025-08-10T12:00	1560	856	19.0	8.1	277	3	
2025-08-10T12:00	1580	854	19.0	7.1	271	3	
2025-08-10T12:00	1600	851	19.0	6.4	265	3	
2025-08-10T12:00	1620	850	19.1	5.9	261	4	
2025-08-10T12:00	1640	847	19.2	3.5	257	4	
2025-08-10T12:00	1660	846	19.1	3.1	255	4	
2025-08-10T12:00	1680	844	18.9	2.7	254	4	
2025-08-10T12:00	1700	842	18.8	2.6	254	4	
2025-08-10T12:00	1720	840	18.7	3.1	255	4	
2025-08-10T12:00	1740	838	18.5	4.1	256	4	
2025-08-10T12:00	1760	836	18.4	3.4	256	4	
2025-08-10T12:00	1780	834	18.4	1.6	254	4	
2025-08-10T12:00	1800	832	18.4	0.7	251	4	
2025-08-10T12:00	1820	830	18.3	0.1	249	4	
2025-08-10T12:00	1840	828	18.1	-0.4	247	4	
2025-08-10T12:00	1860	826	18.0	-1.4	247	4	
2025-08-10T12:00	1880	824	17.9	-1.3	247	4	
2025-08-10T12:00	1900	822	17.7	-1.1	247	4	
2025-08-10T12:00	1920	820	17.6	-0.7	247	4	
2025-08-10T12:00	1940	818	17.4	-1.1	246	4	
2025-08-10T12:00	1960	816	17.3	-1.3	243	4	
2025-08-10T12:00	1980	814	17.1	-1.1	239	4	
2025-08-10T12:00	2000	812	16.9	-0.3	237	4	
2025-08-10T12:00	2020	811	16.8	0.1	235	3	
2025-08-10T12:00	2040	808	16.5	1.6	233	3	
2025-08-10T12:00	2060	807	16.3	2.1	232	3	
2025-08-10T12:00	2080	805	16.1	3.0	232	2	
2025-08-10T12:00	2100	803	15.8	4.0	231	2	
2025-08-10T12:00	2120	801	15.6	4.3	228	2	
2025-08-10T12:00	2140	799	15.4	3.9	224	2	
2025-08-10T12:00	2160	797	15.2	4.1	219	2	
2025-08-10T12:00	2180	796	15.1	3.9	214	2	
2025-08-10T12:00	2200	794	14.9	3.4	211	2	
2025-08-10T12:00	2220	792	14.8	3.3	216	2	
2025-08-10T12:00	2240	790	14.6	3.5	225	2	
2025-08-10T12:00	2260	788	14.4	3.7	239	2	
2025-08-10T12:00	2280	786	14.2	3.9	253	2	
2025-08-10T12:00	2300	784	14.1	3.7	258	3	
2025-08-10T12:00	2320	782	13.9	2.9	259	4	
2025-08-10T12:00	2340	781	13.8	2.2	259	4	
2025-08-10T12:00	2360	779	13.7	1.9	259	4	
2025-08-10T12:00	2380	777	13.5	1.6	260	5	
2025-08-10T12:00	2400	775	13.4	1.1	262	5	
2025-08-10T12:00	2420	773	13.3	0.6	264	5	
2025-08-10T12:00	2440	771	13.1	-0.2	266	5	
2025-08-10T12:00	2460	770	13.0	-0.9	267	5	
2025-08-10T12:00	2480	768	12.9	-1.1	267	6	
2025-08-10T12:00	2500	766	12.8	-1.0	266	6	
2025-08-10T12:00	2520	764	12.7	-1.5	264	6	
2025-08-10T12:00	2540	762	12.6	-1.0	261	7	
2025-08-10T12:00	2560	760	12.5	-0.2	258	7	
2025-08-10T12:00	2580	759	12.4	-0.4	255	8	
2025-08-10T12:00	2600	757	12.2	-1.0	253	8	
2025-08-10T12:00	2620	755	12.1	-1.6	252	8	
2025-08-10T12:00	2640	753	12.0	-1.9	251	8	
2025-08-10T12:00	2660	751	11.9	-2.6	250	8	
2025-08-10T12:00	2680	750	11.8	-2.7	249	8	
2025-08-10T12:00	2700	748	11.7	-2.9	248	8	
2025-08-10T12:00	2720	746	11.5	-3.2	247	8	
2025-08-10T12:00	2740	744	11.3	-3.2	248	8	
2025-08-10T12:00	2760	742	11.2	-2.9	250	8	
2025-08-10T12:00	2780	741	11.0	-2.8	253	8	
2025-08-10T12:00	2800	739	10.8	-2.7	256	8	
2025-08-10T12:00	2820	737	10.6	-2.7	260	8	
2025-08-10T12:00	2840	735	10.4	-2.4	263	8	
2025-08-10T12:00	2860	734	10.3	-2.3	263	8	
2025-08-10T12:00	2880	732	10.1	-2.3	263	7	
2025-08-10T12:00	2900	730	10.0	-2.3	263	7	
2025-08-10T12:00	2920	728	10.0	-3.0	263	7	
2025-08-10T12:00	2940	727	10.0	-4.1	265	6	
2025-08-10T12:00	2960	725	9.9	-4.0	268	6	
2025-08-10T12:00	2980	723	9.7	-3.5	273	6	
2025-08-10T12:00	3000	721	9.5	-2.7	275	6	
2025-08-10T12:00	3020	719	9.3	-2.3	277	6	
2025-08-10T12:00	3040	718	9.1	-2.1	277	6	
2025-08-10T12:00	3060	716	9.0	-2.2	275	5	
2025-08-10T12:00	3080	714	8.8	-2.3	270	5	
2025-08-10T12:00	3100	713	8.7	-2.4	263	5	
2025-08-10T12:00	3120	711	8.6	-3.2	257	5	
2025-08-10T12:00	3140	709	8.6	-3.3	253	5	
2025-08-10T12:00	3160	707	8.6	-1.9	250	5	
2025-08-10T12:00	3180	706	8.5	-1.3	247	5	
2025-08-10T12:00	3200	704	8.4	-0.9	244	5	
2025-08-10T12:00	3220	702	8.3	-0.7	243	5	
2025-08-10T12:00	3240	700	8.1	-0.2	242	5	
2025-08-10T12:00	3260	699	8.0	-0.1	242	5	
2025-08-10T12:00	3280	697	7.9	-0.3	243	5	
2025-08-10T12:00	3300	696	7.8	-1.0	248	5	
2025-08-10T12:00	3320	694	7.7	-1.5	252	6	
2025-08-10T12:00	3340	692	7.6	-1.9	256	6	
2025-08-10T12:00	3360	691	7.6	-2.2	262	6	
2025-08-10T12:00	3380	689	7.5	-2.4	269	7	
2025-08-10T12:00	3400	687	7.5	-2.9	274	7	
2025-08-10T12:00	3420	686	7.4	-3.6	279	7	
2025-08-10T12:00	3440	684	7.3	-3.9	283	7	
2025-08-10T12:00	3460	682	7.3	-5.0	287	7	
2025-08-10T12:00	3480	681	7.4	-7.1	289	6	
2025-08-10T12:00	3500	679	7.5	-9.7	289	6	
2025-08-10T12:00	3520	677	7.5	-11.6	287	6	
2025-08-10T12:00	3540	676	7.5	-11.5	285	6	
2025-08-10T12:00	3560	674	7.4	-10.8	285	6	
2025-08-10T12:00	3580	672	7.3	-9.0	285	6	
2025-08-10T12:00	3600	671	7.1	-8.1	286	6	
2025-08-10T12:00	3620	669	7.0	-7.5	286	6	
2025-08-10T12:00	3640	668	6.8	-7.3	286	6	
2025-08-10T12:00	3660	666	6.7	-7.7	285	6	
2025-08-10T12:00	3680	664	6.5	-8.6	282	5	
2025-08-10T12:00	3700	663	6.5	-9.6	279	5	
2025-08-10T12:00	3720	661	6.5	-9.4	276	5	
2025-08-10T12:00	3740	659	6.4	-9.9	274	5	
2025-08-10T12:00	3760	658	6.4	-10.4	274	5	
2025-08-10T12:00	3780	656	6.3	-10.4	274	5	
2025-08-10T12:00	3800	654	6.2	-11.4	275	4	
2025-08-10T12:00	3820	653	6.2	-12.1	280	4	
2025-08-10T12:00	3840	651	6.2	-14.1	288	4	
2025-08-10T12:00	3860	650	6.1	-13.7	295	4	
2025-08-10T12:00	3880	648	6.1	-13.5	300	4	
2025-08-10T12:00	3900	647	6.0	-13.6	303	4	
2025-08-10T12:00	3920	645	6.0	-13.5	305	4	
2025-08-10T12:00	3940	643	5.9	-13.5	307	4	
2025-08-10T12:00	3960	642	5.9	-13.8	311	4	
2025-08-10T12:00	3980	640	5.8	-13.9	317	4	
2025-08-10T12:00	4000	639	5.7	-14.2	321	4	
2025-08-10T12:00	4020	637	5.6	-14.5	324	4	
2025-08-10T12:00	4040	636	5.6	-15.0	324	5	
2025-08-10T12:00	4060	634	5.5	-15.3	323	5	
2025-08-10T12:00	4080	633	5.3	-15.3	322	5	
2025-08-10T12:00	4100	631	5.2	-15.7	320	5	
2025-08-10T12:00	4120	629	5.0	-15.8	317	4	
2025-08-10T12:00	4140	628	4.9	-16.3	315	4	
2025-08-10T12:00	4160	627	4.7	-16.3	314	4	
2025-08-10T12:00	4180	625	4.5	-16.4	315	4	
2025-08-10T12:00	4200	623	4.3	-16.6	317	4	
2025-08-10T12:00	4220	622	4.2	-16.5	317	4	
2025-08-10T12:00	4240	620	4.0	-15.8	316	4	
2025-08-10T12:00	4260	619	3.8	-16.0	313	4	
2025-08-10T12:00	4280	617	3.6	-16.4	310	4	
2025-08-10T12:00	4300	616	3.5	-14.6	308	4	
2025-08-10T12:00	4320	614	3.4	-14.7	306	4	
2025-08-10T12:00	4340	613	3.4	-16.5	305	4	
2025-08-10T12:00	4360	611	3.3	-17.7	306	4	
2025-08-10T12:00	4380	610	3.1	-18.3	308	4	
2025-08-10T12:00	4400	608	3.0	-18.0	310	4	
2025-08-10T12:00	4420	607	2.9	-17.7	313	4	
2025-08-10T12:00	4440	605	2.8	-18.5	315	4	
2025-08-10T12:00	4460	604	2.7	-19.1	316	4	
2025-08-10T12:00	4480	602	2.6	-18.2	316	3	
2025-08-10T12:00	4500	600	2.5	-19.6	315	3	
2025-08-10T12:00	4520	599	2.4	-20.7	314	3	
2025-08-10T12:00	4540	598	2.3	-21.2	313	3	
2025-08-10T12:00	4560	596	2.2	-20.2	313	3	
2025-08-10T12:00	4580	594	2.1	-20.7	313	3	
2025-08-10T12:00	4600	593	2.0	-20.5	312	3	
2025-08-10T12:00	4620	592	1.8	-21.0	311	3	
2025-08-10T12:00	4640	590	1.7	-21.0	308	3	
2025-08-10T12:00	4660	589	1.7	-21.4	305	3	
2025-08-10T12:00	4680	587	1.6	-22.3	305	3	
2025-08-10T12:00	4700	586	1.5	-23.1	306	3	
2025-08-10T12:00	4720	584	1.3	-23.2	309	3	
2025-08-10T12:00	4740	583	1.2	-22.7	314	3	
2025-08-10T12:00	4760	582	1.1	-23.3	320	3	
2025-08-10T12:00	4780	580	0.9	-25.0	328	3	
2025-08-10T12:00	4800	579	0.8	-26.2	337	3	
2025-08-10T12:00	4820	577	0.7	-28.1	344	3	
2025-08-10T12:00	4840	576	0.8	-29.7	350	3	
2025-08-10T12:00	4860	574	0.8	-28.9	352	3	
2025-08-10T12:00	4880	573	0.7	-27.5	352	3	
2025-08-10T12:00	4900	572	0.7	-25.7	347	3	
2025-08-10T12:00	4920	570	0.6	-25.2	342	3	
2025-08-10T12:00	4940	569	0.4	-25.3	335	3	
2025-08-10T12:00	4960	567	0.3	-25.6	331	3	
2025-08-10T12:00	4980	566	0.2	-26.0	329	3	
2025-08-10T12:00	5000	564	0.1	-26.3	328	4	
2025-08-10T12:00	5020	563	-0.1	-26.6	330	4	
2025-08-10T12:00	5040	562	-0.2	-25.2	334	5	
2025-08-10T12:00	5060	560	-0.3	-25.6	337	5	
2025-08-10T12:00	5080	559	-0.4	-25.7	339	5	
2025-08-10T12:00	5100	557	-0.6	-23.2	342	5	
2025-08-10T12:00	5120	556	-0.8	-22.7	343	6	
2025-08-10T12:00	5140	555	-1.0	-22.9	344	6	
2025-08-10T12:00	5160	553	-1.1	-22.9	343	6	
2025-08-10T12:00	5180	552	-1.3	-22.9	341	6	
2025-08-10T12:00	5200	551	-1.4	-23.2	339	5	
2025-08-10T12:00	5220	549	-1.6	-23.7	337	5	
2025-08-10T12:00	5240	548	-1.7	-23.6	335	5	
2025-08-10T12:00	5260	546	-1.9	-23.9	335	5	
2025-08-10T12:00	5280	545	-2.0	-24.1	335	4	
2025-08-10T12:00	5300	543	-2.1	-24.6	337	4	
2025-08-10T12:00	5320	542	-2.3	-24.8	339	4	
2025-08-10T12:00	5340	541	-2.4	-24.5	341	4	
2025-08-10T12:00	5360	539	-2.6	-24.5	343	4	
2025-08-10T12:00	5380	538	-2.7	-24.9	344	4	
2025-08-10T12:00	5400	537	-2.9	-24.9	344	4	
2025-08-10T12:00	5420	535	-3.0	-24.7	341	4	
2025-08-10T12:00	5440	534	-3.2	-25.5	339	5	
2025-08-10T12:00	5460	533	-3.3	-25.5	338	5	
2025-08-10T12:00	5480	531	-3.5	-25.7	338	5	
2025-08-10T12:00	5500	530	-3.7	-25.6	340	5	
2025-08-10T12:00	5520	529	-3.9	-25.4	343	5	
2025-08-10T12:00	5540	527	-4.1	-25.2	344	6	
2025-08-10T12:00	5560	526	-4.3	-25.3	344	6	
2025-08-10T12:00	5580	525	-4.4	-25.3	344	6	
2025-08-10T12:00	5600	523	-4.5	-25.6	342	6	
2025-08-10T12:00	5620	522	-4.6	-26.1	340	7	
2025-08-10T12:00	5640	521	-4.7	-26.2	338	7	
2025-08-10T12:00	5660	519	-4.9	-26.1	337	7	
2025-08-10T12:00	5680	518	-5.0	-26.2	336	7	
2025-08-10T12:00	5700	517	-5.2	-26.2	336	7	
2025-08-10T12:00	5720	515	-5.3	-26.3	336	7	
2025-08-10T12:00	5740	514	-5.5	-26.3	337	7	
2025-08-10T12:00	5760	513	-5.6	-26.2	338	7	
2025-08-10T12:00	5780	512	-5.8	-26.5	339	7	
2025-08-10T12:00	5800	510	-5.9	-26.7	340	7	
2025-08-10T12:00	5820	509	-6.1	-26.9	340	7	
2025-08-10T12:00	5840	507	-6.3	-26.9	340	8	
2025-08-10T12:00	5860	506	-6.5	-27.0	341	8	
2025-08-10T12:00	5880	505	-6.7	-27.1	341	8	
2025-08-10T12:00	5900	504	-6.9	-27.1	342	8	
2025-08-10T12:00	5920	502	-7.0	-27.0	344	8	
2025-08-10T12:00	5940	501	-7.2	-27.0	345	8	
2025-08-10T12:00	5960	500	-7.3	-26.9	345	8	
2025-08-10T12:00	5980	498	-7.5	-27.0	346	7	
2025-08-10T12:00	6000	497	-7.7	-26.9	345	7	
2025-08-10T12:00	6020	496	-7.9	-26.9	346	7	
2025-08-10T12:00	6040	495	-8.1	-26.8	346	8	
2025-08-10T12:00	6060	493	-8.3	-26.9	347	8	
2025-08-10T12:00	6080	492	-8.5	-26.8	348	8	
2025-08-10T12:00	6100	491	-8.7	-26.8	349	9	
2025-08-10T12:00	6120	490	-8.9	-26.8	350	9	
2025-08-10T12:00	6140	488	-9.0	-26.8	351	9	
2025-08-10T12:00	6160	487	-9.2	-26.7	352	10	
2025-08-10T12:00	6180	486	-9.4	-26.7	351	10	
2025-08-10T12:00	6200	485	-9.6	-26.7	351	10	
2025-08-10T12:00	6220	483	-9.8	-26.7	350	10	
2025-08-10T12:00	6240	482	-9.9	-26.7	350	10	
2025-08-10T12:00	6260	481	-10.1	-26.7	349	10	
2025-08-10T12:00	6280	480	-10.3	-26.7	348	10	
2025-08-10T12:00	6300	478	-10.4	-27.0	348	10	
2025-08-10T12:00	6320	477	-10.5	-28.5	347	10	
2025-08-10T12:00	6340	476	-10.5	-29.7	347	10	
2025-08-10T12:00	6360	475	-10.6	-29.8	347	10	
2025-08-10T12:00	6380	473	-10.8	-29.9	347	10	
2025-08-10T12:00	6400	472	-10.9	-30.2	348	10	
2025-08-10T12:00	6420	471	-11.0	-31.0	348	10	
2025-08-10T12:00	6440	470	-11.1	-31.8	349	9	
2025-08-10T12:00	6460	468	-11.2	-33.2	350	9	
2025-08-10T12:00	6480	467	-11.3	-34.3	350	9	
2025-08-10T12:00	6500	466	-11.4	-33.9	350	9	
2025-08-10T12:00	6520	465	-11.5	-33.8	351	9	
2025-08-10T12:00	6540	464	-11.7	-33.3	352	9	
2025-08-10T12:00	6560	462	-11.8	-32.5	352	9	
2025-08-10T12:00	6580	461	-12.0	-32.2	353	8	
2025-08-10T12:00	6600	460	-12.2	-32.3	354	8	
2025-08-10T12:00	6620	459	-12.3	-32.1	355	8	
2025-08-10T12:00	6640	458	-12.5	-32.2	355	7	
2025-08-10T12:00	6660	456	-12.6	-32.5	354	7	
2025-08-10T12:00	6680	455	-12.7	-32.7	354	7	
2025-08-10T12:00	6700	454	-12.9	-33.2	352	6	
2025-08-10T12:00	6720	453	-13.0	-33.3	350	6	
2025-08-10T12:00	6740	452	-13.2	-33.5	349	6	
2025-08-10T12:00	6760	450	-13.3	-33.7	348	6	
2025-08-10T12:00	6780	449	-13.5	-34.0	347	5	
2025-08-10T12:00	6800	448	-13.6	-34.2	347	5	
2025-08-10T12:00	6820	447	-13.8	-34.3	347	5	
2025-08-10T12:00	6840	446	-14.0	-34.3	349	5	
2025-08-10T12:00	6860	445	-14.2	-34.5	350	5	
2025-08-10T12:00	6880	443	-14.4	-34.6	352	5	
2025-08-10T12:00	6900	442	-14.6	-34.7	354	5	
2025-08-10T12:00	6920	441	-14.8	-34.9	355	5	
2025-08-10T12:00	6940	440	-14.9	-35.0	356	5	
2025-08-10T12:00	6960	439	-15.2	-35.1	357	4	
2025-08-10T12:00	6980	438	-15.3	-35.1	356	4	
2025-08-10T12:00	7000	436	-15.5	-35.1	353	4	
2025-08-10T12:00	7020	435	-15.7	-35.2	349	4	
2025-08-10T12:00	7040	434	-15.9	-35.4	344	4	
2025-08-10T12:00	7060	433	-16.1	-35.9	340	4	
2025-08-10T12:00	7080	432	-16.2	-36.4	337	4	
2025-08-10T12:00	7100	431	-16.4	-37.0	334	5	
2025-08-10T12:00	7120	429	-16.5	-37.3	331	5	
2025-08-10T12:00	7140	428	-16.6	-38.1	328	5	
2025-08-10T12:00	7160	427	-16.6	-40.0	323	5	
2025-08-10T12:00	7180	426	-16.7	-40.7	320	5	
2025-08-10T12:00	7200	425	-16.9	-41.3	316	5	
2025-08-10T12:00	7220	424	-16.9	-41.9	312	5	
2025-08-10T12:00	7240	423	-17.1	-41.8	309	5	
2025-08-10T12:00	7260	422	-17.2	-41.6	307	5	
2025-08-10T12:00	7280	420	-17.4	-41.0	305	5	
2025-08-10T12:00	7300	419	-17.6	-40.9	306	5	
2025-08-10T12:00	7320	418	-17.7	-40.6	307	5	
2025-08-10T12:00	7340	417	-17.9	-40.7	309	6	
2025-08-10T12:00	7360	416	-18.1	-40.9	310	6	
2025-08-10T12:00	7380	415	-18.2	-41.1	312	6	
2025-08-10T12:00	7400	414	-18.4	-41.1	313	6	
2025-08-10T12:00	7420	413	-18.6	-41.1	313	5	
2025-08-10T12:00	7440	411	-18.8	-41.2	314	6	
2025-08-10T12:00	7460	410	-18.9	-41.4	314	5	
2025-08-10T12:00	7480	409	-19.1	-41.4	314	6	
2025-08-10T12:00	7500	408	-19.3	-41.5	314	5	
2025-08-10T12:00	7520	407	-19.4	-41.7	313	5	
2025-08-10T12:00	7540	406	-19.6	-42.1	311	5	
2025-08-10T12:00	7560	405	-19.6	-42.7	309	5	
2025-08-10T12:00	7580	404	-19.8	-42.7	305	5	
2025-08-10T12:00	7600	403	-19.9	-42.9	301	5	
2025-08-10T12:00	7620	402	-19.9	-43.0	295	5	
2025-08-10T12:00	7640	401	-20.0	-43.0	290	5	
2025-08-10T12:00	7660	400	-20.1	-43.1	288	5	
2025-08-10T12:00	7680	398	-20.2	-43.2	284	4	
2025-08-10T12:00	7700	397	-20.3	-43.4	282	4	
2025-08-10T12:00	7720	396	-20.4	-43.6	281	4	
2025-08-10T12:00	7740	395	-20.5	-43.6	282	4	
2025-08-10T12:00	7760	394	-20.7	-43.7	282	4	
2025-08-10T12:00	7780	393	-20.9	-43.8	283	4	
2025-08-10T12:00	7800	392	-21.0	-44.1	283	4	
2025-08-10T12:00	7820	391	-21.1	-44.5	284	4	
2025-08-10T12:00	7840	390	-21.2	-44.7	285	4	
2025-08-10T12:00	7860	389	-21.4	-44.7	286	4	
2025-08-10T12:00	7880	388	-21.6	-44.9	287	4	
2025-08-10T12:00	7900	387	-21.7	-45.0	289	4	
2025-08-10T12:00	7920	386	-21.9	-45.1	291	4	
2025-08-10T12:00	7940	385	-22.1	-45.1	293	4	
2025-08-10T12:00	7960	384	-22.3	-45.2	295	4	
2025-08-10T12:00	7980	382	-22.5	-45.3	299	4	
2025-08-10T12:00	8000	381	-22.6	-45.3	302	4	
2025-08-10T12:00	8020	380	-22.8	-45.5	305	4	
2025-08-10T12:00	8040	379	-23.0	-45.6	307	4	
2025-08-10T12:00	8060	378	-23.1	-45.9	309	4	
2025-08-10T12:00	8080	377	-23.2	-46.1	310	4	
2025-08-10T12:00	8100	376	-23.3	-46.8	309	3	
2025-08-10T12:00	8120	375	-23.3	-47.5	306	3	
2025-08-10T12:00	8140	374	-23.4	-47.5	302	3	
2025-08-10T12:00	8160	373	-23.6	-47.5	299	4	
2025-08-10T12:00	8180	372	-23.7	-47.5	297	4	
2025-08-10T12:00	8200	371	-23.8	-47.3	297	4	
2025-08-10T12:00	8220	370	-24.0	-47.2	297	4	
2025-08-10T12:00	8240	369	-24.1	-47.2	299	4	
2025-08-10T12:00	8260	368	-24.3	-47.2	301	4	
2025-08-10T12:00	8280	367	-24.4	-47.0	302	4	
2025-08-10T12:00	8300	366	-24.6	-46.9	303	4	
2025-08-10T12:00	8320	365	-24.8	-46.9	303	4	
2025-08-10T12:00	8340	364	-24.9	-47.0	303	4	
2025-08-10T12:00	8360	363	-25.2	-47.1	302	4	
2025-08-10T12:00	8380	362	-25.3	-47.3	301	4	
2025-08-10T12:00	8400	361	-25.5	-47.4	301	4	
2025-08-10T12:00	8420	360	-25.7	-47.7	300	4	
2025-08-10T12:00	8440	359	-25.9	-47.7	299	4	
2025-08-10T12:00	8460	358	-26.1	-47.8	299	4	
2025-08-10T12:00	8480	357	-26.3	-47.8	299	4	
2025-08-10T12:00	8500	356	-26.5	-47.8	299	3	
2025-08-10T12:00	8520	355	-26.7	-47.9	300	4	
2025-08-10T12:00	8540	354	-26.9	-48.1	300	4	
2025-08-10T12:00	8560	353	-27.0	-48.3	301	4	
2025-08-10T12:00	8580	352	-27.2	-48.3	302	4	
2025-08-10T12:00	8600	351	-27.4	-48.4	303	4	
2025-08-10T12:00	8620	350	-27.6	-48.3	304	4	
2025-08-10T12:00	8640	349	-27.7	-48.4	305	5	
2025-08-10T12:00	8660	348	-27.9	-48.4	306	5	
2025-08-10T12:00	8680	347	-28.1	-48.5	307	5	
2025-08-10T12:00	8700	346	-28.2	-48.6	308	5	
2025-08-10T12:00	8720	345	-28.4	-48.7	308	5	
2025-08-10T12:00	8740	345	-28.5	-48.8	308	5	
2025-08-10T12:00	8760	344	-28.7	-48.7	308	5	
2025-08-10T12:00	8780	343	-28.9	-48.7	308	5	
2025-08-10T12:00	8800	342	-29.1	-48.4	308	5	
2025-08-10T12:00	8820	341	-29.2	-48.3	308	5	
2025-08-10T12:00	8840	340	-29.4	-48.4	308	5	
2025-08-10T12:00	8860	339	-29.6	-48.3	308	5	
2025-08-10T12:00	8880	338	-29.8	-48.0	307	5	
2025-08-10T12:00	8900	337	-30.0	-47.8	307	5	
2025-08-10T12:00	8920	336	-30.2	-47.7	306	5	
2025-08-10T12:00	8940	335	-30.4	-47.7	306	4	
2025-08-10T12:00	8960	334	-30.6	-47.8	306	4	
2025-08-10T12:00	8980	333	-30.7	-47.9	307	4	
2025-08-10T12:00	9000	332	-30.9	-47.9	309	4	
2025-08-10T12:00	9020	331	-31.1	-48.0	311	4	
2025-08-10T12:00	9040	330	-31.3	-48.2	313	4	
2025-08-10T12:00	9060	329	-31.5	-48.3	315	4	
2025-08-10T12:00	9080	328	-31.6	-48.3	318	4	
2025-08-10T12:00	9100	327	-31.8	-48.4	319	4	
2025-08-10T12:00	9120	327	-32.0	-48.5	321	5	
2025-08-10T12:00	9140	326	-32.1	-48.4	322	5	
2025-08-10T12:00	9160	325	-32.3	-48.4	323	5	
2025-08-10T12:00	9180	324	-32.4	-48.7	324	5	
2025-08-10T12:00	9200	323	-32.6	-49.0	324	5	
2025-08-10T12:00	9220	322	-32.8	-49.0	325	5	
2025-08-10T12:00	9240	321	-33.0	-49.1	326	5	
2025-08-10T12:00	9260	320	-33.1	-49.2	326	6	
2025-08-10T12:00	9280	319	-33.2	-49.6	328	6	
2025-08-10T12:00	9300	318	-33.2	-50.3	329	6	
2025-08-10T12:00	9320	317	-33.1	-51.0	332	6	
2025-08-10T12:00	9340	316	-33.2	-51.7	334	6	
2025-08-10T12:00	9360	316	-33.3	-52.1	336	6	
2025-08-10T12:00	9380	315	-33.4	-52.4	337	6	
2025-08-10T12:00	9400	314	-33.5	-52.6	337	6	
2025-08-10T12:00	9420	313	-33.6	-52.6	337	6	
2025-08-10T12:00	9440	312	-33.8	-52.6	336	6	
2025-08-10T12:00	9460	311	-34.0	-52.8	335	6	
2025-08-10T12:00	9480	310	-34.1	-52.9	333	6	
2025-08-10T12:00	9500	309	-34.3	-52.9	332	6	
2025-08-10T12:00	9520	308	-34.4	-52.8	331	6	
2025-08-10T12:00	9540	308	-34.6	-52.9	330	6	
2025-08-10T12:00	9560	307	-34.8	-52.9	328	6	
2025-08-10T12:00	9580	306	-34.9	-52.8	327	6	
2025-08-10T12:00	9600	305	-35.1	-52.6	326	6	
2025-08-10T12:00	9620	304	-35.2	-52.5	326	6	
2025-08-10T12:00	9640	303	-35.4	-52.2	326	6	
2025-08-10T12:00	9660	302	-35.5	-51.9	326	7	
2025-08-10T12:00	9680	301	-35.7	-51.4	326	7	
2025-08-10T12:00	9700	301	-35.8	-50.5	326	7	
2025-08-10T12:00	9720	300	-36.0	-50.4	326	7	
2025-08-10T12:00	9740	299	-36.2	-50.6	325	7	
2025-08-10T12:00	9760	298	-36.4	-50.6	325	7	
2025-08-10T12:00	9780	297	-36.5	-50.9	324	8	
2025-08-10T12:00	9800	296	-36.7	-51.6	324	8	
2025-08-10T12:00	9820	295	-36.8	-52.1	325	8	
2025-08-10T12:00	9840	295	-37.0	-51.8	326	8	
2025-08-10T12:00	9860	294	-37.1	-51.4	326	8	
2025-08-10T12:00	9880	293	-37.1	-51.5	327	8	
2025-08-10T12:00	9900	292	-37.2	-51.6	328	9	
2025-08-10T12:00	9920	291	-37.4	-51.6	329	9	
2025-08-10T12:00	9940	290	-37.5	-51.5	330	9	
2025-08-10T12:00	9960	290	-37.7	-51.3	332	9	
2025-08-10T12:00	9980	289	-37.8	-50.9	333	9	
2025-08-10T12:00	10000	288	-38.0	-51.0	334	9	
2025-08-10T12:00	10018	287	-38.1	-51.0	334	9	
2025-08-10T12:00	10050	286	-38.4	-50.7	334	9	
2025-08-10T12:00	10100	284	-38.8	-50.5	333	9	
2025-08-10T12:00	10150	282	-39.3	-49.1	332	9	
2025-08-10T12:00	10200	280	-39.7	-48.1	332	9	
2025-08-10T12:00	10250	278	-40.2	-48.3	331	9	
2025-08-10T12:00	10300	275	-40.6	-48.4	329	9	
2025-08-10T12:00	10350	273	-41.0	-48.5	326	9	
2025-08-10T12:00	10400	272	-41.4	-49.6	323	9	
2025-08-10T12:00	10450	269	-41.8	-51.5	322	8	
2025-08-10T12:00	10500	267	-42.2	-51.7	322	9	
2025-08-10T12:00	10550	265	-42.7	-51.2	323	9	
2025-08-10T12:00	10600	264	-43.0	-52.5	326	9	
2025-08-10T12:00	10650	262	-43.2	-55.3	330	8	
2025-08-10T12:00	10700	260	-43.6	-58.0	335	8	
2025-08-10T12:00	10750	258	-43.8	-59.5	337	8	
2025-08-10T12:00	10800	256	-44.2	-58.9	337	8	
2025-08-10T12:00	10850	254	-44.6	-59.3	337	8	
2025-08-10T12:00	10900	252	-45.1	-59.4	337	8	
2025-08-10T12:00	10950	250	-45.5	-59.3	337	8	
2025-08-10T12:00	11000	248	-45.9	-58.9	336	8	
2025-08-10T12:00	11050	246	-46.2	-58.7	336	8	
2025-08-10T12:00	11100	245	-46.7	-59.5	336	8	
2025-08-10T12:00	11150	243	-47.1	-60.2	336	8	
2025-08-10T12:00	11200	241	-47.5	-60.8	337	8	
2025-08-10T12:00	11250	239	-48.0	-60.3	337	8	
2025-08-10T12:00	11300	237	-48.4	-59.7	336	8	
2025-08-10T12:00	11350	236	-48.8	-60.2	332	8	
2025-08-10T12:00	11400	234	-49.3	-60.4	330	7	
2025-08-10T12:00	11450	232	-49.6	-60.8	330	7	
2025-08-10T12:00	11500	230	-50.0	-60.5	331	7	
2025-08-10T12:00	11550	228	-50.3	-61.6	330	7	
2025-08-10T12:00	11600	227	-50.5	-61.9	328	7	
2025-08-10T12:00	11650	225	-50.7	-63.1	329	7	
2025-08-10T12:00	11700	223	-51.2	-63.5	334	7	
2025-08-10T12:00	11750	221	-51.4	-64.2	338	8	
2025-08-10T12:00	11800	220	-51.6	-64.0	339	8	
2025-08-10T12:00	11850	218	-52.0	-63.8	338	8	
2025-08-10T12:00	11900	216	-52.3	-64.7	339	9	
2025-08-10T12:00	11950	215	-52.7	-64.5	339	10	
2025-08-10T12:00	12000	213	-53.0	-64.6	338	10	
2025-08-10T12:00	12050	211	-53.1	-64.8	338	11	
2025-08-10T12:00	12100	210	-53.4	-64.0	337	12	
2025-08-10T12:00	12150	208	-53.7	-63.3	338	13	
2025-08-10T12:00	12200	207	-54.0	-63.0	339	13	
2025-08-10T12:00	12250	205	-54.2	-63.7	340	12	
2025-08-10T12:00	12300	203	-54.4	-65.3	339	10	
2025-08-10T12:00	12350	202	-54.5	-66.5	340	10	
2025-08-10T12:00	12400	200	-54.6	-66.6	343	10	
2025-08-10T12:00	12450	199	-55.0	-66.4	345	10	
2025-08-10T12:00	12500	197	-55.1	-66.9	343	9	
2025-08-10T12:00	12550	196	-55.2	-68.1	338	8	
2025-08-10T12:00	12600	194	-55.6	-68.4	333	8	
2025-08-10T12:00	12650	193	-55.8	-68.5	328	8	
2025-08-10T12:00	12700	191	-55.7	-68.4	323	7	
2025-08-10T12:00	12750	189	-56.0	-67.9	319	7	
2025-08-10T12:00	12800	188	-56.3	-67.7	322	7	
2025-08-10T12:00	12850	186	-56.5	-67.9	322	7	
2025-08-10T12:00	12900	185	-56.6	-68.6	318	6	
2025-08-10T12:00	12950	184	-56.7	-69.2	322	6	
2025-08-10T12:00	13000	182	-56.6	-69.9	327	7	
2025-08-10T12:00	13050	181	-56.7	-70.3	331	7	
2025-08-10T12:00	13100	179	-57.0	-70.4	334	6	
2025-08-10T12:00	13150	178	-57.4	-70.3	338	6	
2025-08-10T12:00	13200	177	-57.8	-70.5	341	5	
2025-08-10T12:00	13250	175	-58.1	-70.8	336	4	
2025-08-10T12:00	13300	174	-58.4	-71.6	321	4	
2025-08-10T12:00	13350	172	-58.4	-73.0	298	3	
2025-08-10T12:00	13400	171	-58.7	-73.3	288	4	
2025-08-10T12:00	13450	170	-59.1	-73.4	290	4	
2025-08-10T12:00	13500	168	-59.5	-73.9	297	5	
2025-08-10T12:00	13550	167	-59.4	-75.4	308	7	
2025-08-10T12:00	13600	166	-58.9	-77.0	317	7	
2025-08-10T12:00	13650	164	-58.6	-77.8	320	7	
2025-08-10T12:00	13700	163	-58.4	-78.0	317	6	
2025-08-10T12:00	13750	162	-58.7	-77.9	311	6	
2025-08-10T12:00	13800	160	-59.1	-77.8	307	7	
2025-08-10T12:00	13850	159	-59.4	-77.7	307	7	
2025-08-10T12:00	13900	158	-59.8	-77.4	309	7	
2025-08-10T12:00	13950	157	-59.7	-76.9	315	7	
2025-08-10T12:00	14000	155	-59.3	-76.9	324	7	
2025-08-10T12:00	14050	154	-59.3	-77.1	329	6	
2025-08-10T12:00	14100	153	-59.3	-77.3	330	5	
2025-08-10T12:00	14150	152	-58.8	-77.4	323	3	
2025-08-10T12:00	14200	150	-58.4	-77.4	306	3	
2025-08-10T12:00	14250	149	-58.8	-77.6	292	2	
2025-08-10T12:00	14300	148	-59.1	-77.7	277	2	
2025-08-10T12:00	14350	147	-59.5	-77.7	264	2	
2025-08-10T12:00	14400	146	-59.9	-77.7	262	3	
2025-08-10T12:00	14450	145	-60.2	-77.7	260	3	
2025-08-10T12:00	14500	143	-60.5	-77.6	258	4	
2025-08-10T12:00	14550	142	-60.8	-77.8	259	6	
2025-08-10T12:00	14600	141	-61.1	-78.3	263	7	
2025-08-10T12:00	14650	140	-61.2	-79.2	269	8	
2025-08-10T12:00	14700	139	-61.2	-79.9	275	9	
2025-08-10T12:00	14750	138	-61.1	-80.6	280	10	
2025-08-10T12:00	14800	137	-61.0	-81.1	284	10	
2025-08-10T12:00	14850	136	-60.9	-81.7	287	11	
2025-08-10T12:00	14900	134	-60.7	-82.2	288	10	
2025-08-10T12:00	14950	133	-60.4	-82.5	287	9	
2025-08-10T12:00	15000	132	-60.1	-82.8	288	8	
2025-08-10T12:00	15050	131	-59.7	-83.0	291	7	
2025-08-10T12:00	15100	130	-59.5	-83.1	288	7	
2025-08-10T12:00	15150	129	-59.2	-82.8	280	6	
2025-08-10T12:00	15200	128	-59.4	-82.8	275	7	
2025-08-10T12:00	15250	127	-59.6	-82.9	270	8	
2025-08-10T12:00	15300	126	-60.0	-83.0	262	8	
2025-08-10T12:00	15350	125	-60.5	-83.1	254	9	
2025-08-10T12:00	15400	124	-60.7	-83.2	252	10	
2025-08-10T12:00	15450	123	-60.9	-83.3	256	10	
2025-08-10T12:00	15500	122	-61.0	-83.4	260	9	
2025-08-10T12:00	15550	121	-61.2	-83.5	260	9	
2025-08-10T12:00	15600	120	-61.5	-83.7	261	8	
2025-08-10T12:00	15650	119	-61.6	-83.9	265	7	
2025-08-10T12:00	15700	118	-61.5	-84.0	269	7	
2025-08-10T12:00	15750	117	-61.4	-84.1	272	8	
2025-08-10T12:00	15800	116	-61.3	-84.1	273	8	
2025-08-10T12:00	15850	115	-61.5	-84.1	273	8	
2025-08-10T12:00	15900	115	-61.8	-84.2	273	9	
2025-08-10T12:00	15950	114	-62.0	-84.3	272	10	
2025-08-10T12:00	16000	113	-62.0	-84.4	271	10	
2025-08-10T12:00	16050	112	-62.1	-84.6	266	9	
2025-08-10T12:00	16100	111	-62.2	-84.6	261	8	
2025-08-10T12:00	16150	110	-62.2	-85.0	255	7	
2025-08-10T12:00	16200	109	-61.4	-84.9	247	7	
2025-08-10T12:00	16250	108	-60.9	-85.0	239	7	
2025-08-10T12:00	16300	107	-60.7	-85.0	237	8	
2025-08-10T12:00	16350	107	-60.5	-85.0	243	8	
2025-08-10T12:00	16400	106	-60.2	-84.9	252	8	
2025-08-10T12:00	16450	105	-60.2	-85.0	257	8	
2025-08-10T12:00	16500	104	-60.2	-84.9	259	9	
2025-08-10T12:00	16550	103	-60.4	-84.9	261	9	
2025-08-10T12:00	16600	102	-60.4	-84.9	264	9	
2025-08-10T12:00	16650	101	-60.5	-85.0	261	9	
2025-08-10T12:00	16700	101	-60.7	-85.0	254	9	
2025-08-10T12:00	16750	100	-61.0	-85.0	251	10	
2025-08-10T12:00	16800	99	-61.3	-85.1	253	10	
2025-08-10T12:00	16850	98	-61.5	-85.2	256	10	
2025-08-10T12:00	16900	97	-61.5	-85.2	259	10	
2025-08-10T12:00	16950	97	-61.5	-85.2	262	10	
2025-08-10T12:00	17000	96	-61.9	-85.4	266	11	
2025-08-10T12:00	17050	95	-62.2	-85.4	270	11	
2025-08-10T12:00	17100	94	-62.3	-85.5	274	12	
2025-08-10T12:00	17150	94	-62.4	-85.6	279	12	
2025-08-10T12:00	17200	93	-62.6	-85.6	281	11	
2025-08-10T12:00	17250	92	-62.8	-85.8	282	10	
2025-08-10T12:00	17300	91	-63.0	-85.8	283	10	
2025-08-10T12:00	17350	91	-63.2	-86.0	285	9	
2025-08-10T12:00	17400	90	-63.4	-86.2	287	9	
2025-08-10T12:00	17450	89	-63.1	-86.2	290	9	
2025-08-10T12:00	17500	88	-62.9	-86.3	289	9	
2025-08-10T12:00	17550	88	-62.6	-86.3	283	8	
2025-08-10T12:00	17600	87	-62.6	-86.5	275	8	
2025-08-10T12:00	17650	86	-62.3	-86.3	270	8	
2025-08-10T12:00	17700	86	-62.2	-86.4	270	8	
2025-08-10T12:00	17750	85	-62.1	-86.3	274	7	
2025-08-10T12:00	17800	84	-62.3	-86.3	279	7	
2025-08-10T12:00	17850	84	-62.3	-86.3	285	6	
2025-08-10T12:00	17900	83	-62.4	-86.4	289	6	
2025-08-10T12:00	17950	82	-62.5	-86.5	289	6	
2025-08-10T12:00	18000	82	-62.3	-86.5	285	6	
2025-08-10T12:00	18050	81	-62.1	-86.5	284	7	
2025-08-10T12:00	18100	80	-62.1	-86.6	284	8	
2025-08-10T12:00	18150	80	-62.1	-86.6	283	7	
2025-08-10T12:00	18200	79	-61.7	-86.5	286	5	
2025-08-10T12:00	18250	78	-61.5	-86.5	295	4	
2025-08-10T12:00	18300	78	-61.6	-86.5	310	2	
2025-08-10T12:00	18350	77	-61.4	-86.5	356	1	
2025-08-10T12:00	18400	76	-61.3	-86.5	126	1	
2025-08-10T12:00	18450	76	-61.2	-86.4	151	2	
2025-08-10T12:00	18500	75	-61.1	-86.4	174	3	
2025-08-10T12:00	18550	75	-61.1	-86.4	198	3	
2025-08-10T12:00	18600	74	-61.0	-86.4	221	3	
2025-08-10T12:00	18650	73	-60.9	-86.5	245	3	
2025-08-10T12:00	18700	73	-60.6	-86.4	265	3	
2025-08-10T12:00	18750	72	-60.5	-86.5	273	3	
2025-08-10T12:00	18800	72	-60.1	-86.4	261	2	
2025-08-10T12:00	18850	71	-59.8	-86.2	239	2	
2025-08-10T12:00	18900	71	-59.9	-86.2	230	3	
2025-08-10T12:00	18950	70	-60.0	-86.2	225	3	
2025-08-10T12:00	19000	69	-59.8	-86.1	219	4	
2025-08-10T12:00	19050	69	-59.6	-86.2	220	5	
2025-08-10T12:00	19100	68	-59.3	-86.1	228	5	
2025-08-10T12:00	19150	68	-59.0	-86.0	239	4	
2025-08-10T12:00	19200	67	-59.0	-85.9	243	4	
2025-08-10T12:00	19250	67	-59.0	-86.0	240	3	
2025-08-10T12:00	19300	66	-58.6	-85.9	231	2	
2025-08-10T12:00	19350	66	-58.6	-85.8	198	1	
2025-08-10T12:00	19400	65	-58.3	-85.6	173	2	
2025-08-10T12:00	19450	65	-58.5	-85.6	166	3	
2025-08-10T12:00	19500	64	-58.7	-85.6	163	3	
2025-08-10T12:00	19550	64	-58.9	-85.7	165	4	
2025-08-10T12:00	19600	63	-59.0	-85.7	175	4	
2025-08-10T12:00	19650	63	-58.8	-85.6	187	4	
2025-08-10T12:00	19700	62	-59.1	-85.7	195	4	
2025-08-10T12:00	19750	62	-59.4	-85.8	202	3	
2025-08-10T12:00	19800	61	-59.6	-85.9	208	3	
2025-08-10T12:00	19850	61	-59.8	-86.1	211	3	
2025-08-10T12:00	19900	60	-59.8	-86.1	212	3	
2025-08-10T12:00	19950	60	-59.7	-86.2	215	2	
2025-08-10T12:00	20000	59	-59.4	-86.3	222	2	
2025-08-10T12:00	20050	59	-59.1		232	2	
2025-08-10T12:00	20100	58	-59.3		242	2	
2025-08-10T12:00	20150	58	-59.6		261	2	
2025-08-10T12:00	20200	57	-59.4		302	1	
2025-08-10T12:00	20250	57	-59.1		333	2	
2025-08-10T12:00	20300	56	-58.9		348	2	
2025-08-10T12:00	20350	56	-58.7		347	2	
2025-08-10T12:00	20400	56	-58.7		329	2	
2025-08-10T12:00	20450	55	-58.8		313	3	
2025-08-10T12:00	20500	55	-58.8		315	3	
2025-08-10T12:00	20550	54	-58.7		331	3	
2025-08-10T12:00	20600	54	-58.4		357	3	
2025-08-10T12:00	20650	53	-58.1		29	3	
2025-08-10T12:00	20700	53	-58.0		61	3	
2025-08-10T12:00	20750	53	-58.0		82	4	
2025-08-10T12:00	20800	52	-58.0		93	5	
2025-08-10T12:00	20850	52	-58.1		101	5	
2025-08-10T12:00	20900	51	-57.9		111	4	
2025-08-10T12:00	20950	51	-57.6		123	3	
2025-08-10T12:00	21000	50	-57.3		131	3	
2025-08-10T12:00	21050	50	-57.4		130	2	
2025-08-10T12:00	21100	50	-57.5		118	2	
2025-08-10T12:00	21150	49	-57.5		92	2	
2025-08-10T12:00	21200	49	-57.5		79	2	
2025-08-10T12:00	21250	49	-57.6		80	2	
2025-08-10T12:00	21300	48	-57.6		75	1	
2025-08-10T12:00	21350	48	-57.8		27	1	
2025-08-10T12:00	21400	47	-57.3		31	2	
2025-08-10T12:00	21450	47	-57.1		43	3	
2025-08-10T12:00	21500	47	-57.0		51	5	
2025-08-10T12:00	21550	46	-56.9		56	5	
2025-08-10T12:00	21600	46	-56.6		62	5	
2025-08-10T12:00	21650	46	-56.5		70	4	
2025-08-10T12:00	21700	45	-56.7		76	4	
2025-08-10T12:00	21750	45	-56.4		79	2	
2025-08-10T12:00	21800	44	-56.5		78	1	
2025-08-10T12:00	21850	44	-56.5		50	1	
2025-08-10T12:00	21900	44	-56.3		29	2	
2025-08-10T12:00	21950	43	-55.8		36	3	
2025-08-10T12:00	22000	43	-55.6		48	4	
2025-08-10T12:00	22050	43	-55.6		58	4	
2025-08-10T12:00	22100	42	-55.7		66	4	
2025-08-10T12:00	22150	42	-55.8		79	3	
2025-08-10T12:00	22200	42	-55.7		98	3	
2025-08-10T12:00	22250	41	-55.3		110	2	
2025-08-10T12:00	22300	41	-55.5		109	2	
2025-08-10T12:00	22350	41	-55.1		70	1	
2025-08-10T12:00	22400	40	-54.5		32	2	
2025-08-10T12:00	22450	40	-54.2		30	3	
2025-08-10T12:00	22500	40	-53.9		34	4	
2025-08-10T12:00	22550	40	-53.9		38	5	
2025-08-10T12:00	22600	39	-54.0		42	6	
2025-08-10T12:00	22650	39	-54.1		49	6	
2025-08-10T12:00	22700	39	-54.3		58	7	
2025-08-10T12:00	22750	38	-54.2		68	7	
2025-08-10T12:00	22800	38	-54.1		78	7	
2025-08-10T12:00	22850	38	-54.0		90	7	
2025-08-10T12:00	22900	37	-53.9		101	8	
2025-08-10T12:00	22950	37	-53.8		111	7	
2025-08-10T12:00	23000	37	-54.0		119	7	
2025-08-10T12:00	23050	37	-54.1		124	6	
2025-08-10T12:00	23100	36	-54.0		122	4	
2025-08-10T12:00	23150	36	-53.7		105	4	
2025-08-10T12:00	23200	36	-53.4		90	4	
2025-08-10T12:00	23250	35	-53.3		88	5	
2025-08-10T12:00	23300	35	-53.0		90	6	
2025-08-10T12:00	23350	35	-52.7		89	6	
2025-08-10T12:00	23400	35	-52.6		88	7	
2025-08-10T12:00	23450	34	-52.3		86	7	
2025-08-10T12:00	23500	34	-52.3		82	7	
2025-08-10T12:00	23550	34	-52.5		79	7	
2025-08-10T12:00	23600	34	-52.6		84	7	
2025-08-10T12:00	23650	33	-52.8		91	6	
2025-08-10T12:00	23700	33	-53.0		91	6	
2025-08-10T12:00	23750	33	-53.1		85	7	
2025-08-10T12:00	23800	33	-53.2		79	7	
2025-08-10T12:00	23850	32	-53.3		74	8	
2025-08-10T12:00	23900	32	-53.3		71	8	
2025-08-10T12:00	23950	32	-53.3		69	8	
2025-08-10T12:00	24000	32	-53.2		70	7	
2025-08-10T12:00	24050	31	-53.4		72	7	
2025-08-10T12:00	24100	31	-53.6		75	7	
2025-08-10T12:00	24150	31	-53.8		78	7	
2025-08-10T12:00	24200	31	-54.0		81	6	
2025-08-10T12:00	24250	30	-54.0		85	5	
2025-08-10T12:00	24300	30	-54.0		82	5	
2025-08-10T12:00	24350	30	-53.5		68	5	
2025-08-10T12:00	24400	30	-53.2		54	5	
2025-08-10T12:00	24450	29	-53.2		48	6	
2025-08-10T12:00	24500	29	-53.1		48	7	
2025-08-10T12:00	24550	29	-52.7		52	7	
2025-08-10T12:00	24600	29	-52.5		56	8	
2025-08-10T12:00	24650	29	-52.6		62	9	
2025-08-10T12:00	24700	28	-52.6		68	9	
2025-08-10T12:00	24750	28	-52.5		76	10	
2025-08-10T12:00	24800	28	-52.4		85	9	
2025-08-10T12:00	24850	28	-52.3		93	8	
2025-08-10T12:00	24900	27	-52.3		98	7	
2025-08-10T12:00	24950	27	-52.2		96	6	
2025-08-10T12:00	25000	27	-51.9		86	6	
2025-08-10T12:00	25050	27	-51.9		78	6	
2025-08-10T12:00	25100	27	-51.8		74	6	
2025-08-10T12:00	25150	26	-51.8		72	6	
2025-08-10T12:00	25200	26	-51.8		73	6	
2025-08-10T12:00	25250	26	-51.8		79	6	
2025-08-10T12:00	25300	26	-51.7		87	7	
2025-08-10T12:00	25350	26	-51.5		93	7	
2025-08-10T12:00	25400	25	-51.4		95	7	
2025-08-10T12:00	25450	25	-51.3		93	8	
2025-08-10T12:00	25500	25	-51.4		88	8	
2025-08-10T12:00	25550	25	-51.2		87	8	
2025-08-10T12:00	25600	25	-50.8		90	8	
2025-08-10T12:00	25650	24	-50.6		94	8	
2025-08-10T12:00	25700	24	-50.6		96	8	
2025-08-10T12:00	25750	24	-50.6		98	7	
2025-08-10T12:00	25800	24	-50.4		102	6	
2025-08-10T12:00	25850	24	-50.1		107	6	
2025-08-10T12:00	25900	24	-50.1		107	6	
2025-08-10T12:00	25950	23	-50.1		103	6	
2025-08-10T12:00	26000	23	-49.8		97	6	
2025-08-10T12:00	26050	23	-49.4		93	7	
2025-08-10T12:00	26100	23	-49.2		93	8	
2025-08-10T12:00	26150	23	-49.0		99	8	
2025-08-10T12:00	26200	22	-48.7		105	8	
2025-08-10T12:00	26250	22	-48.7		108	7	
2025-08-10T12:00	26300	22	-48.6		105	6	
2025-08-10T12:00	26350	22	-48.5		96	5	
2025-08-10T12:00	26400	22	-48.3		82	4	
2025-08-10T12:00	26450	22	-48.0		70	5	
2025-08-10T12:00	26500	21	-47.7		62	5	
2025-08-10T12:00	26550	21	-47.4		55	5	
2025-08-10T12:00	26600	21	-47.4		52	5	
2025-08-10T12:00	26650	21	-47.6		51	5	
2025-08-10T12:00	26700	21	-47.7		55	6	
2025-08-10T12:00	26750	21	-47.8		61	7	
2025-08-10T12:00	26800	21	-47.5		69	9	
2025-08-10T12:00	26850	20	-47.1		76	10	
2025-08-10T12:00	26900	20	-46.8		83	10	
2025-08-10T12:00	26950	20	-46.9		86	10	
2025-08-10T12:00	27000	20	-47.1		86	10	
2025-08-10T12:00	27050	20	-47.2		84	9	
2025-08-10T12:00	27100	20	-47.2		82	9	
2025-08-10T12:00	27150	19	-47.2		82	9	
2025-08-10T12:00	27200	19	-47.0		81	9	
2025-08-10T12:00	27250	19	-46.8		80	9	
2025-08-10T12:00	27300	19	-46.6		81	9	
2025-08-10T12:00	27350	19	-46.4		85	9	
2025-08-10T12:00	27400	19	-46.4		91	8	
2025-08-10T12:00	27450	19	-46.3		91	7	
2025-08-10T12:00	27500	18	-46.3		84	7	
2025-08-10T12:00	27550	18	-46.3		72	7	
2025-08-10T12:00	27600	18	-46.0		62	8	
2025-08-10T12:00	27650	18	-45.8		55	9	
2025-08-10T12:00	27700	18	-45.6		51	9	
2025-08-10T12:00	27750	18	-45.5		51	10	
2025-08-10T12:00	27800	18	-45.4		52	10	
2025-08-10T12:00	27850	18	-45.5		55	10	
2025-08-10T12:00	27900	17	-45.7		59	11	
2025-08-10T12:00	27950	17	-45.8		64	11	
2025-08-10T12:00	28000	17	-45.8		70	11	
2025-08-10T12:00	28050	17	-45.7		74	12	
2025-08-10T12:00	28100	17	-45.8		77	12	
2025-08-10T12:00	28150	17	-45.9		78	12	
2025-08-10T12:00	28200	17	-45.7		79	12	
2025-08-10T12:00	28250	16	-45.6		80	12	
2025-08-10T12:00	28300	16	-45.5		78	12	
2025-08-10T12:00	28350	16	-45.5		73	12	
2025-08-10T12:00	28400	16	-45.6		65	12	
2025-08-10T12:00	28450	16	-45.7		58	12	
2025-08-10T12:00	28500	16	-45.7		56	12	
2025-08-10T12:00	28550	16	-45.6		60	13	
2025-08-10T12:00	28600	16	-45.5		66	13	
2025-08-10T12:00	28650	16	-45.6		73	13	
2025-08-10T12:00	28700	15	-45.8		79	13	
2025-08-10T12:00	28750	15	-46.0		86	13	
2025-08-10T12:00	28800	15	-46.2		92	13	
2025-08-10T12:00	28850	15	-46.4		97	13	
2025-08-10T12:00	28900	15	-46.3		100	12	
2025-08-10T12:00	28950	15	-45.7		97	12	
2025-08-10T12:00	29000	15	-45.2		92	11	
2025-08-10T12:00	29050	15	-44.7		86	11	
2025-08-10T12:00	29100	15	-44.4		84	12	
2025-08-10T12:00	29150	14	-44.1		85	13	
2025-08-10T12:00	29200	14	-43.9		89	13	
2025-08-10T12:00	29250	14	-43.9		93	13	
2025-08-10T12:00	29300	14	-43.9		97	13	
2025-08-10T12:00	29350	14	-43.8		100	12	
2025-08-10T12:00	29400	14	-43.6		101	11	
2025-08-10T12:00	29450	14	-43.6		99	9	
2025-08-10T12:00	29500	14	-43.6		95	8	
2025-08-10T12:00	29550	14	-43.6		87	8	
2025-08-10T12:00	29600	13	-43.7		78	8	
2025-08-10T12:00	29650	13	-43.6		73	9	
2025-08-10T12:00	29700	13	-43.5		72	10	
2025-08-10T12:00	29750	13	-43.4		73	12	
2025-08-10T12:00	29800	13	-43.5		74	14	
2025-08-10T12:00	29850	13	-43.7		77	15	
2025-08-10T12:00	29900	13	-43.7		82	16	
2025-08-10T12:00	29950	13	-43.9		87	16	
2025-08-10T12:00	30000	13	-44.0		92	17	
2025-08-10T12:00	30050	13	-44.1		96	16	
2025-08-10T12:00	30100	13	-44.2		100	16	
2025-08-10T12:00	30150	12	-44.2		104	15	
2025-08-10T12:00	30200	12	-44.3		107	14	
2025-08-10T12:00	30250	12	-44.3		108	13	
2025-08-10T12:00	30300	12	-44.2		108	13	
2025-08-10T12:00	30350	12	-44.1		104	12	
2025-08-10T12:00	30400	12	-44.0		99	12	
2025-08-10T12:00	30450	12	-44.0		94	12	
2025-08-10T12:00	30500	12	-44.0		91	13	
2025-08-10T12:00	30550	12	-43.8		91	14	
2025-08-10T12:00	30600	12	-43.6		92	15	
2025-08-10T12:00	30650	12	-43.6		93	14	
2025-08-10T12:00	30700	11	-43.7		94	14	
2025-08-10T12:00	30750	11	-43.7		95	12	
2025-08-10T12:00	30800	11	-43.8		96	11	
2025-08-10T12:00	30850	11	-44.1		97	10	
2025-08-10T12:00	30900	11	-44.2		97	9	
2025-08-10T12:00	30950	11	-44.2		94	9	
2025-08-10T12:00	31000	11	-44.1		89	9	
2025-08-10T12:00	31050	11	-44.0		86	9	
2025-08-10T12:00	31100	11	-43.9		85	10	
2025-08-10T12:00	31150	11	-43.8		86	10	
2025-08-10T12:00	31200	11	-43.8		87	11	
2025-08-10T12:00	31250	11	-43.8		89	12	
2025-08-10T12:00	31300	10	-43.6		91	13	
2025-08-10T12:00	31350	10	-43.3		94	13	
2025-08-10T12:00	31400	10	-43.1		98	12	
2025-08-10T12:00	31450	10	-43.0		103	12	
2025-08-10T12:00	31500	10	-42.9		107	12	
2025-08-10T12:00	31550	10	-42.7		106	12	
2025-08-10T12:00	31600	10	-42.4		104	11	
2025-08-10T12:00	31650	10	-42.1		102	10	
2025-08-10T12:00	31700	10	-41.5		102	10	
2025-08-10T12:00	31750	10	-41.0		102	10	
2025-08-10T12:00	31800	10	-40.6		102	10	
2025-08-10T12:00	31850	10	-40.3		102	10	
2025-08-10T12:00	31900	10	-39.9		103	10	
2025-08-10T12:00	31950	9	-39.8		104	10	
2025-08-10T12:00	32000	9	-39.9		103	9	
2025-08-10T12:00	32050	9	-40.0		101	9	
2025-08-10T12:00	32100	9	-39.9		98	9	
2025-08-10T12:00	32150	9	-39.9		92	9	
2025-08-10T12:00	32200	9	-39.9		86	10	
2025-08-10T12:00	32250	9	-39.8		81	10	
2025-08-10T12:00	32300	9	-39.7		79	11	
2025-08-10T12:00	32350	9	-39.3		79	11	
2025-08-10T12:00	32400	9	-38.9		81	11	
2025-08-10T12:00	32450	9	-38.7		80	10	
2025-08-10T12:00	32500	9	-38.6		76	10	
2025-08-10T12:00	32550	9	-38.5		69	10	
2025-08-10T12:00	32600	9	-38.3		65	11	
2025-08-10T12:00	32650	9	-38.0		63	11	
2025-08-10T12:00	32700	9	-37.8		64	12	
2025-08-10T12:00	32750	8	-37.7		66	12	
2025-08-10T12:00	32800	8	-37.8		68	13	
2025-08-10T12:00	32850	8	-37.8		73	14	
2025-08-10T12:00	32900	8	-37.9		78	15	
2025-08-10T12:00	32950	8	-38.0		84	15	
2025-08-10T12:00	33000	8	-38.2		90	15	
2025-08-10T12:00	33050	8	-38.2		93	15	
2025-08-10T12:00	33100	8	-38.0		92	15	
2025-08-10T12:00	33150	8	-37.8		90	14	
2025-08-10T12:00	33200	8	-37.7		87	13	
2025-08-10T12:00	33250	8	-37.7		84	13	
2025-08-10T12:00	33300	8	-37.7		80	13	
2025-08-10T12:00	33350	8	-37.7		74	13	
2025-08-10T12:00	33400	8	-37.8		71	14	
2025-08-10T12:00	33450	8	-37.8		72	15	
2025-08-10T12:00	33500	8	-37.7		75	16	
2025-08-10T12:00	33550	8	-37.4		77	17	
2025-08-10T12:00	33600	7	-37.1		79	18	
2025-08-10T12:00	33650	7	-36.8		82	19	
2025-08-10T12:00	33700	7	-36.5		85	20	
2025-08-10T12:00	33750	7	-36.5		89	20	
2025-08-10T12:00	33800	7	-36.8		92	20	
2025-08-10T12:00	33850	7	-37.1		96	19	
2025-08-10T12:00	33900	7	-37.1		99	19	
2025-08-10T12:00	33950	7	-36.9		101	18	
2025-08-10T12:00	34000	7	-36.6		102	17	
2025-08-10T12:00	34050	7	-36.3		100	15	
2025-08-10T12:00	34100	7	-36.0		95	14	
2025-08-10T12:00	34150	7	-35.4		89	14	
2025-08-10T12:00	34200	7	-34.8		86	15	
2025-08-10T12:00	34250	7	-34.5		85	15	
2025-08-10T12:00	34300	7	-34.4		87	15	
2025-08-10T12:00	34350	7	-34.1		89	15	
2025-08-10T12:00	34400	7	-33.9		90	15	
2025-08-10T12:00	34450	7	-33.8		90	15	
2025-08-10T12:00	34500	7	-33.6		89	15	
2025-08-10T12:00	34550	7	-33.5		89	14	
2025-08-10T12:00	34600	6	-33.4		92	14	
2025-08-10T12:00	34650	6	-33.3		97	13	
2025-08-10T12:00	34700	6	-33.0		105	13	
2025-08-10T12:00	34750	6	-32.8		113	13	
2025-08-10T12:00	34800	6	-32.7		119	14	
2025-08-10T12:00	34850	6	-32.7		122	13	
2025-08-10T12:00	34900	6	-32.7		122	13	
2025-08-10T12:00	34950	6	-32.6		116	12	
2025-08-10T12:00	35000	6	-32.5		106	11	
2025-08-10T12:00	35050	6	-32.3		95	11	
2025-08-10T12:00	35100	6	-32.2		88	10	
2025-08-10T12:00	35150	6	-32.1		88	10	
2025-08-10T12:00	35200	6	-32.0		90	10	
2025-08-10T12:00	35250	6	-31.8		88	10	
2025-08-10T12:00	35300	6	-31.5		80	11	
2025-08-10T12:00	35350	6	-31.3		72	12	
2025-08-10T12:00	35400	6	-31.1		67	13	
2025-08-10T12:00	35450	6	-30.9		69	13	
2025-08-10T12:00	35500	6	-30.7		74	13	
2025-08-10T12:00	35550	6	-30.4		81	14	
2025-08-10T12:00	35600	6	-30.4		85	14	
2025-08-10T12:00	35650	6	-30.4		85	15	
2025-08-10T12:00	35700	6	-30.3		82	16	
2025-08-10T12:00	35750	6	-30.1		78	17	
2025-08-10T12:00	35800	5	-30.0		75	18	
2025-08-10T12:00	35850	5	-30.0		74	19	
2025-08-10T12:00	35900	5	-29.8		76	20	
2025-08-10T12:00	35950	5	-29.5		78	19	
2025-08-11T00:00	491	966	19.0	14.1	26	1	
2025-08-11T00:00	501	964	21.2	13.2	33	2	
2025-08-11T00:00	520	962	21.3	12.9	33	3	
2025-08-11T00:00	540	960	21.2	12.7	34	4	
2025-08-11T00:00	560	958	21.3	12.3	35	5	
2025-08-11T00:00	580	956	21.6	11.9	37	6	
2025-08-11T00:00	600	953	21.9	11.6	38	6	
2025-08-11T00:00	620	951	22.0	11.6	40	7	
2025-08-11T00:00	640	949	22.0	11.5	42	7	
2025-08-11T00:00	660	947	22.0	11.5	43	7	
2025-08-11T00:00	680	945	22.1	11.6	44	7	
2025-08-11T00:00	700	943	22.0	11.7	45	7	
2025-08-11T00:00	720	940	21.8	11.6	45	8	
2025-08-11T00:00	740	938	21.7	11.7	45	8	
2025-08-11T00:00	760	936	21.6	11.6	45	9	
2025-08-11T00:00	780	934	21.4	11.6	45	9	
2025-08-11T00:00	800	932	21.2	11.6	46	9	
2025-08-11T00:00	820	930	21.0	11.6	48	10	
2025-08-11T00:00	840	927	20.8	11.5	49	10	
2025-08-11T00:00	860	925	20.7	11.5	51	11	
2025-08-11T00:00	880	923	20.6	11.6	54	11	
2025-08-11T00:00	900	921	20.6	11.7	56	11	
2025-08-11T00:00	920	919	20.5	11.8	58	11	
2025-08-11T00:00	940	917	20.4	11.8	60	11	
2025-08-11T00:00	960	915	20.2	11.8	61	11	
2025-08-11T00:00	980	913	20.2	11.9	62	11	
2025-08-11T00:00	1000	911	20.2	12.1	63	11	
2025-08-11T00:00	1020	908	20.2	12.1	64	10	
2025-08-11T00:00	1040	906	20.2	12.2	65	10	
2025-08-11T00:00	1060	904	20.1	12.1	67	9	
2025-08-11T00:00	1080	902	20.0	12.1	69	9	
2025-08-11T00:00	1100	900	19.9	12.1	72	9	
2025-08-11T00:00	1120	898	19.9	12.3	74	9	
2025-08-11T00:00	1140	896	20.0	12.6	76	8	
2025-08-11T00:00	1160	894	19.9	13.2	78	8	
2025-08-11T00:00	1180	892	19.8	13.2	78	8	
2025-08-11T00:00	1200	890	19.7	13.1	78	8	
2025-08-11T00:00	1220	888	19.6	13.2	77	7	
2025-08-11T00:00	1240	886	19.6	13.5	75	6	
2025-08-11T00:00	1260	883	19.6	13.7	72	6	
2025-08-11T00:00	1280	881	19.6	13.9	70	5	
2025-08-11T00:00	1300	879	19.6	14.2	67	5	
2025-08-11T00:00	1320	877	19.7	14.5	66	4	
2025-08-11T00:00	1340	875	19.8	14.8	66	4	
2025-08-11T00:00	1360	873	19.9	14.9	67	4	
2025-08-11T00:00	1380	871	19.8	14.7	69	4	
2025-08-11T00:00	1400	869	19.6	14.7	69	4	
2025-08-11T00:00	1420	867	19.7	14.4	70	4	
2025-08-11T00:00	1440	865	19.8	14.5	70	4	
2025-08-11T00:00	1460	863	19.6	14.6	69	4	
2025-08-11T00:00	1480	861	19.5	14.6	69	4	
2025-08-11T00:00	1500	859	19.3	14.6	68	4	
2025-08-11T00:00	1520	857	19.1	14.6	67	4	
2025-08-11T00:00	1540	855	19.1	13.9	65	3	
2025-08-11T00:00	1560	853	19.1	13.0	63	3	
2025-08-11T00:00	1580	851	19.0	12.8	57	3	
2025-08-11T00:00	1600	849	18.9	12.1	53	3	
2025-08-11T00:00	1620	847	19.0	10.6	47	3	
2025-08-11T00:00	1640	845	19.0	9.8	42	2	
2025-08-11T00:00	1660	843	18.8	11.1	37	2	
2025-08-11T00:00	1680	842	18.8	10.3	33	2	
2025-08-11T00:00	1700	839	19.3	4.9	29	2	
2025-08-11T00:00	1720	838	19.5	3.2	28	2	
2025-08-11T00:00	1740	836	19.5	1.4	30	2	
2025-08-11T00:00	1760	834	19.4	0.9	33	2	
2025-08-11T00:00	1780	832	19.2	2.5	37	1	
2025-08-11T00:00	1800	830	18.9	4.4	43	1	
2025-08-11T00:00	1820	828	18.8	4.6	53	1	
2025-08-11T00:00	1840	826	18.6	5.9	112	0	
2025-08-11T00:00	1860	824	18.4	7.6	211	1	
2025-08-11T00:00	1880	822	18.3	7.9	223	1	
2025-08-11T00:00	1900	820	18.3	7.8	229	2	
2025-08-11T00:00	1920	818	18.2	7.9	233	2	
2025-08-11T00:00	1940	816	18.2	8.0	235	3	
2025-08-11T00:00	1960	814	18.1	8.0	234	3	
2025-08-11T00:00	1980	813	18.0	7.5	232	3	
2025-08-11T00:00	2000	811	17.9	6.6	227	3	
2025-08-11T00:00	2020	809	17.7	7.6	222	3	
2025-08-11T00:00	2040	807	17.4	8.2	218	3	
2025-08-11T00:00	2060	805	17.2	9.2	216	3	
2025-08-11T00:00	2080	803	17.0	9.5	218	3	
2025-08-11T00:00	2100	801	16.8	9.4	221	4	
2025-08-11T00:00	2120	800	16.6	9.5	225	4	
2025-08-11T00:00	2140	798	16.5	9.0	229	4	
2025-08-11T00:00	2160	796	16.5	7.8	233	4	
2025-08-11T00:00	2180	794	16.7	3.7	234	4	
2025-08-11T00:00	2200	792	16.9	-0.2	235	4	
2025-08-11T00:00	2220	790	17.0	-2.0	234	3	
2025-08-11T00:00	2240	788	16.9	-2.3	231	3	
2025-08-11T00:00	2260	786	16.8	-1.9	227	2	
2025-08-11T00:00	2280	785	16.6	-0.8	223	2	
2025-08-11T00:00	2300	783	16.4	0.7	222	2	
2025-08-11T00:00	2320	781	16.3	0.1	224	2	
2025-08-11T00:00	2340	779	16.2	-0.4	226	2	
2025-08-11T00:00	2360	777	16.1	-0.4	229	3	
2025-08-11T00:00	2380	775	15.9	-0.5	233	3	
2025-08-11T00:00	2400	773	15.9	-1.2	238	3	
2025-08-11T00:00	2420	772	15.9	-1.9	244	2	
2025-08-11T00:00	2440	770	15.9	-2.4	249	2	
2025-08-11T00:00	2460	768	15.9	-3.2	255	2	
2025-08-11T00:00	2480	766	16.1	-4.2	261	1	
2025-08-11T00:00	2500	765	16.2	-5.2	264	1	
2025-08-11T00:00	2520	763	16.1	-5.1	256	1	
2025-08-11T00:00	2540	761	15.9	-5.0	232	1	
2025-08-11T00:00	2560	759	15.7	-4.9	215	1	
2025-08-11T00:00	2580	757	15.5	-4.9	205	1	
2025-08-11T00:00	2600	755	15.4	-4.9	201	1	
2025-08-11T00:00	2620	754	15.2	-5.1	201	1	
2025-08-11T00:00	2640	752	15.1	-5.7	201	1	
2025-08-11T00:00	2660	750	15.1	-6.7	202	2	
2025-08-11T00:00	2680	748	15.1	-7.3	202	2	
2025-08-11T00:00	2700	747	15.0	-7.3	202	2	
2025-08-11T00:00	2720	745	14.8	-7.7	203	2	
2025-08-11T00:00	2740	743	14.7	-7.7	207	2	
2025-08-11T00:00	2760	741	14.5	-8.1	213	2	
2025-08-11T00:00	2780	739	14.4	-8.2	224	2	
2025-08-11T00:00	2800	738	14.3	-8.3	236	2	
2025-08-11T00:00	2820	736	14.1	-8.4	245	2	
2025-08-11T00:00	2840	734	14.0	-8.5	249	2	
2025-08-11T00:00	2860	732	13.9	-8.7	250	2	
2025-08-11T00:00	2880	731	13.8	-8.8	249	3	
2025-08-11T00:00	2900	729	13.6	-8.9	247	3	
2025-08-11T00:00	2920	727	13.4	-9.0	246	3	
2025-08-11T00:00	2940	726	13.3	-9.1	245	3	
2025-08-11T00:00	2960	724	13.1	-9.1	244	3	
2025-08-11T00:00	2980	722	12.9	-9.2	244	3	
2025-08-11T00:00	3000	721	12.9	-9.4	244	3	
2025-08-11T00:00	3020	719	12.8	-9.7	243	3	
2025-08-11T00:00	3040	717	12.8	-10.0	240	3	
2025-08-11T00:00	3060	715	12.7	-10.0	233	2	
2025-08-11T00:00	3080	713	12.7	-10.6	222	2	
2025-08-11T00:00	3100	712	12.6	-10.9	210	2	
2025-08-11T00:00	3120	710	12.5	-11.1	202	1	
2025-08-11T00:00	3140	709	12.4	-12.0	202	1	
2025-08-11T00:00	3160	707	12.3	-12.2	210	1	
2025-08-11T00:00	3180	705	12.3	-12.2	222	1	
2025-08-11T00:00	3200	703	12.1	-12.3	233	1	
2025-08-11T00:00	3220	702	11.9	-12.4	243	1	
2025-08-11T00:00	3240	700	11.7	-12.5	249	2	
2025-08-11T00:00	3260	698	11.5	-12.6	250	2	
2025-08-11T00:00	3280	697	11.4	-12.6	249	2	
2025-08-11T00:00	3300	695	11.2	-12.7	246	2	
2025-08-11T00:00	3320	693	11.0	-13.0	240	2	
2025-08-11T00:00	3340	692	10.9	-13.2	230	2	
2025-08-11T00:00	3360	690	10.8	-13.7	221	2	
2025-08-11T00:00	3380	688	10.8	-14.4	215	2	
2025-08-11T00:00	3400	687	10.7	-15.2	212	2	
2025-08-11T00:00	3420	685	10.6	-15.2	212	2	
2025-08-11T00:00	3440	684	10.4	-15.3	214	2	
2025-08-11T00:00	3460	682	10.2	-15.4	216	2	
2025-08-11T00:00	3480	680	10.0	-15.5	217	2	
2025-08-11T00:00	3500	679	9.8	-15.8	215	2	
2025-08-11T00:00	3520	677	9.7	-15.9	213	2	
2025-08-11T00:00	3540	675	9.5	-16.0	208	1	
2025-08-11T00:00	3560	674	9.4	-16.3	195	1	
2025-08-11T00:00	3580	672	9.3	-16.6	155	0	
2025-08-11T00:00	3600	670	9.3	-18.4	76	0	
2025-08-11T00:00	3620	669	9.3	-21.5	57	1	
2025-08-11T00:00	3640	667	9.2	-25.1	49	1	
2025-08-11T00:00	3660	665	9.2	-28.2	41	1	
2025-08-11T00:00	3680	664	9.2	-24.5	33	1	
2025-08-11T00:00	3700	662	9.0	-23.1	18	1	
2025-08-11T00:00	3720	661	8.8	-22.9	356	1	
2025-08-11T00:00	3740	659	8.7	-21.5	331	1	
2025-08-11T00:00	3760	657	8.5	-19.9	310	1	
2025-08-11T00:00	3780	656	8.3	-18.8	295	1	
2025-08-11T00:00	3800	654	8.2	-19.5	285	1	
2025-08-11T00:00	3820	653	8.1	-21.1	278	1	
2025-08-11T00:00	3840	651	8.0	-21.9	272	1	
2025-08-11T00:00	3860	649	7.8	-20.7	264	1	
2025-08-11T00:00	3880	648	7.6	-20.5	258	1	
2025-08-11T00:00	3900	646	7.5	-19.4	253	1	
2025-08-11T00:00	3920	645	7.4	-17.5	250	2	
2025-08-11T00:00	3940	643	7.2	-17.1	249	2	
2025-08-11T00:00	3960	642	7.1	-17.7	249	2	
2025-08-11T00:00	3980	640	7.0	-19.3	248	2	
2025-08-11T00:00	4000	639	7.0	-20.9	248	2	
2025-08-11T00:00	4020	637	6.9	-21.9	248	2	
2025-08-11T00:00	4040	635	6.8	-22.7	249	1	
2025-08-11T00:00	4060	634	6.7	-23.4	256	1	
2025-08-11T00:00	4080	632	6.6	-23.9	280	0	
2025-08-11T00:00	4100	631	6.6	-24.2	325	0	
2025-08-11T00:00	4120	629	6.5	-24.7	357	1	
2025-08-11T00:00	4140	628	6.4	-24.2	3	1	
2025-08-11T00:00	4160	626	6.2	-23.0	2	1	
2025-08-11T00:00	4180	625	6.0	-22.9	358	2	
2025-08-11T00:00	4200	623	5.9	-23.7	353	2	
2025-08-11T00:00	4220	622	5.7	-25.0	347	2	
2025-08-11T00:00	4240	620	5.6	-26.9	342	2	
2025-08-11T00:00	4260	619	5.6	-28.0	336	2	
2025-08-11T00:00	4280	617	5.4	-27.6	331	2	
2025-08-11T00:00	4300	616	5.3	-27.5	325	2	
2025-08-11T00:00	4320	614	5.2	-27.8	317	2	
2025-08-11T00:00	4340	612	5.0	-27.5	309	2	
2025-08-11T00:00	4360	611	4.8	-27.3	302	2	
2025-08-11T00:00	4380	610	4.7	-27.3	297	3	
2025-08-11T00:00	4400	608	4.6	-27.5	296	3	
2025-08-11T00:00	4420	607	4.5	-28.0	297	3	
2025-08-11T00:00	4440	605	4.3	-28.2	298	3	
2025-08-11T00:00	4460	604	4.2	-28.4	300	3	
2025-08-11T00:00	4480	602	4.0	-28.5	302	4	
2025-08-11T00:00	4500	601	3.8	-28.6	303	4	
2025-08-11T00:00	4520	599	3.7	-28.8	304	4	
2025-08-11T00:00	4540	598	3.5	-28.9	306	4	
2025-08-11T00:00	4560	596	3.3	-29.1	308	4	
2025-08-11T00:00	4580	595	3.2	-29.3	314	4	
2025-08-11T00:00	4600	593	3.0	-29.2	319	3	
2025-08-11T00:00	4620	592	2.9	-29.1	325	3	
2025-08-11T00:00	4640	590	2.8	-29.2	332	4	
2025-08-11T00:00	4660	589	2.7	-30.2	337	4	
2025-08-11T00:00	4680	588	2.6	-30.7	340	4	
2025-08-11T00:00	4700	586	2.5	-30.8	343	3	
2025-08-11T00:00	4720	585	2.4	-31.1	345	3	
2025-08-11T00:00	4740	583	2.2	-32.0	347	3	
2025-08-11T00:00	4760	582	2.1	-31.9	349	3	
2025-08-11T00:00	4780	580	2.0	-30.9	349	3	
2025-08-11T00:00	4800	579	1.8	-30.4	348	3	
2025-08-11T00:00	4820	577	1.7	-29.5	346	4	
2025-08-11T00:00	4840	576	1.6	-29.0	343	4	
2025-08-11T00:00	4860	574	1.5	-28.5	340	4	
2025-08-11T00:00	4880	573	1.5	-29.2	338	5	
2025-08-11T00:00	4900	572	1.5	-29.6	336	5	
2025-08-11T00:00	4920	570	1.4	-28.8	334	5	
2025-08-11T00:00	4940	569	1.4	-28.2	332	5	
2025-08-11T00:00	4960	567	1.2	-25.9	332	5	
2025-08-11T00:00	4980	566	1.1	-25.7	331	5	
2025-08-11T00:00	5000	565	1.0	-25.6	330	5	
2025-08-11T00:00	5020	563	0.8	-25.8	329	5	
2025-08-11T00:00	5040	562	0.7	-26.1	327	4	
2025-08-11T00:00	5060	560	0.5	-26.0	326	4	
2025-08-11T00:00	5080	559	0.3	-25.8	325	4	
2025-08-11T00:00	5100	558	0.2	-25.3	327	4	
2025-08-11T00:00	5120	556	0.0	-24.8	330	4	
2025-08-11T00:00	5140	555	-0.2	-24.7	333	4	
2025-08-11T00:00	5160	553	-0.3	-25.4	337	4	
2025-08-11T00:00	5180	552	-0.5	-26.7	340	4	
2025-08-11T00:00	5200	551	-0.6	-27.4	342	4	
2025-08-11T00:00	5220	549	-0.7	-27.2	342	4	
2025-08-11T00:00	5240	548	-0.9	-27.1	339	4	
2025-08-11T00:00	5260	547	-1.1	-27.2	336	4	
2025-08-11T00:00	5280	545	-1.2	-27.4	331	4	
2025-08-11T00:00	5300	544	-1.4	-27.5	325	4	
2025-08-11T00:00	5320	542	-1.6	-27.1	318	4	
2025-08-11T00:00	5340	541	-1.8	-27.1	311	4	
2025-08-11T00:00	5360	540	-1.9	-27.2	306	4	
2025-08-11T00:00	5380	538	-2.1	-27.2	302	4	
2025-08-11T00:00	5400	537	-2.3	-26.8	300	4	
2025-08-11T00:00	5420	536	-2.5	-26.3	298	4	
2025-08-11T00:00	5440	534	-2.7	-26.0	297	4	
2025-08-11T00:00	5460	533	-2.9	-25.7	298	4	
2025-08-11T00:00	5480	532	-3.0	-25.3	301	4	
2025-08-11T00:00	5500	530	-3.3	-25.3	305	3	
2025-08-11T00:00	5520	529	-3.4	-25.3	310	3	
2025-08-11T00:00	5540	527	-3.6	-25.2	314	3	
2025-08-11T00:00	5560	526	-3.8	-25.3	315	3	
2025-08-11T00:00	5580	525	-4.0	-25.2	316	4	
2025-08-11T00:00	5600	524	-4.2	-25.2	314	4	
2025-08-11T00:00	5620	522	-4.4	-25.2	312	4	
2025-08-11T00:00	5640	521	-4.6	-25.1	309	4	
2025-08-11T00:00	5660	520	-4.8	-25.1	307	4	
2025-08-11T00:00	5680	518	-4.9	-25.4	306	4	
2025-08-11T00:00	5700	517	-5.1	-25.8	306	4	
2025-08-11T00:00	5720	516	-5.3	-25.8	308	4	
2025-08-11T00:00	5740	514	-5.5	-26.1	311	3	
2025-08-11T00:00	5760	513	-5.6	-26.5	316	3	
2025-08-11T00:00	5780	512	-5.8	-26.7	320	3	
2025-08-11T00:00	5800	510	-6.0	-27.0	325	3	
2025-08-11T00:00	5820	509	-6.1	-27.2	329	2	
2025-08-11T00:00	5840	508	-6.3	-27.6	333	2	
2025-08-11T00:00	5860	506	-6.5	-28.0	334	2	
2025-08-11T00:00	5880	505	-6.6	-28.4	333	2	
2025-08-11T00:00	5900	504	-6.8	-28.3	330	2	
2025-08-11T00:00	5920	503	-6.9	-28.2	326	2	
2025-08-11T00:00	5940	501	-7.1	-28.4	322	2	
2025-08-11T00:00	5960	500	-7.2	-28.6	317	3	
2025-08-11T00:00	5980	499	-7.4	-28.7	313	3	
2025-08-11T00:00	6000	497	-7.6	-28.7	310	3	
2025-08-11T00:00	6020	496	-7.8	-28.7	308	3	
2025-08-11T00:00	6040	495	-8.0	-28.7	309	3	
2025-08-11T00:00	6060	494	-8.2	-28.7	311	3	
2025-08-11T00:00	6080	492	-8.3	-28.7	314	3	
2025-08-11T00:00	6100	491	-8.5	-28.7	320	3	
2025-08-11T00:00	6120	490	-8.7	-28.7	325	4	
2025-08-11T00:00	6140	489	-8.9	-28.7	329	4	
2025-08-11T00:00	6160	487	-9.1	-28.8	333	4	
2025-08-11T00:00	6180	486	-9.3	-28.8	334	4	
2025-08-11T00:00	6200	485	-9.5	-28.8	334	4	
2025-08-11T00:00	6220	484	-9.7	-28.9	333	4	
2025-08-11T00:00	6240	482	-9.9	-28.9	330	5	
2025-08-11T00:00	6260	481	-10.1	-29.0	327	5	
2025-08-11T00:00	6280	480	-10.3	-29.1	324	5	
2025-08-11T00:00	6300	478	-10.4	-29.3	321	5	
2025-08-11T00:00	6320	477	-10.6	-29.5	318	5	
2025-08-11T00:00	6340	476	-10.7	-29.5	316	5	
2025-08-11T00:00	6360	475	-10.9	-29.6	314	5	
2025-08-11T00:00	6380	474	-11.1	-29.7	313	5	
2025-08-11T00:00	6400	472	-11.2	-29.9	313	5	
2025-08-11T00:00	6420	471	-11.4	-30.0	313	5	
2025-08-11T00:00	6440	470	-11.6	-30.1	314	5	
2025-08-11T00:00	6460	469	-11.8	-30.2	314	5	
2025-08-11T00:00	6480	468	-11.9	-30.3	314	5	
2025-08-11T00:00	6500	466	-12.1	-30.2	314	5	
2025-08-11T00:00	6520	465	-12.3	-30.1	314	5	
2025-08-11T00:00	6540	464	-12.5	-30.1	314	5	
2025-08-11T00:00	6560	463	-12.7	-30.1	314	5	
2025-08-11T00:00	6580	462	-12.8	-30.1	315	5	
2025-08-11T00:00	6600	460	-13.0	-30.1	316	5	
2025-08-11T00:00	6620	459	-13.2	-30.2	316	5	
2025-08-11T00:00	6640	458	-13.4	-30.4	318	5	
2025-08-11T00:00	6660	457	-13.6	-30.4	318	5	
2025-08-11T00:00	6680	455	-13.7	-30.5	319	5	
2025-08-11T00:00	6700	454	-13.9	-30.5	321	4	
2025-08-11T00:00	6720	453	-14.1	-30.6	323	4	
2025-08-11T00:00	6740	452	-14.3	-30.7	326	4	
2025-08-11T00:00	6760	451	-14.5	-30.8	329	4	
2025-08-11T00:00	6780	449	-14.6	-30.9	333	4	
2025-08-11T00:00	6800	448	-14.8	-31.0	336	4	
2025-08-11T00:00	6820	447	-15.0	-31.1	340	4	
2025-08-11T00:00	6840	446	-15.2	-31.2	344	4	
2025-08-11T00:00	6860	445	-15.4	-31.3	347	4	
2025-08-11T00:00	6880	443	-15.6	-31.3	349	4	
2025-08-11T00:00	6900	442	-15.8	-31.4	352	4	
2025-08-11T00:00	6920	441	-15.9	-31.4	353	4	
2025-08-11T00:00	6940	440	-16.1	-31.5	356	4	
2025-08-11T00:00	6960	439	-16.3	-31.6	357	4	
2025-08-11T00:00	6980	438	-16.5	-31.8	359	3	
2025-08-11T00:00	7000	436	-16.6	-31.8	1	3	
2025-08-11T00:00	7020	435	-16.8	-31.7	3	3	
2025-08-11T00:00	7040	434	-17.0	-31.6	3	3	
2025-08-11T00:00	7060	433	-17.1	-31.9	2	3	
2025-08-11T00:00	7080	432	-17.2	-33.1	0	3	
2025-08-11T00:00	7100	431	-17.4	-33.8	357	2	
2025-08-11T00:00	7120	430	-17.5	-34.4	352	2	
2025-08-11T00:00	7140	428	-17.6	-34.9	347	2	
2025-08-11T00:00	7160	427	-17.8	-35.2	341	2	
2025-08-11T00:00	7180	426	-17.9	-35.2	337	2	
2025-08-11T00:00	7200	425	-18.1	-35.3	334	2	
2025-08-11T00:00	7220	424	-18.2	-35.7	330	2	
2025-08-11T00:00	7240	423	-18.3	-36.1	327	2	
2025-08-11T00:00	7260	421	-18.4	-36.2	325	2	
2025-08-11T00:00	7280	421	-18.4	-36.4	323	2	
2025-08-11T00:00	7300	419	-18.5	-36.7	321	2	
2025-08-11T00:00	7320	418	-18.6	-37.1	319	2	
2025-08-11T00:00	7340	417	-18.7	-37.3	316	2	
2025-08-11T00:00	7360	416	-18.8	-38.0	314	2	
2025-08-11T00:00	7380	415	-18.9	-38.8	310	2	
2025-08-11T00:00	7400	414	-19.1	-38.5	308	1	
2025-08-11T00:00	7420	413	-19.2	-37.8	304	1	
2025-08-11T00:00	7440	412	-19.4	-37.7	300	1	
2025-08-11T00:00	7460	410	-19.6	-37.9	295	1	
2025-08-11T00:00	7480	409	-19.7	-37.7	290	1	
2025-08-11T00:00	7500	408	-19.9	-37.6	284	1	
2025-08-11T00:00	7520	407	-20.0	-37.9	279	1	
2025-08-11T00:00	7540	406	-20.1	-39.6	276	1	
2025-08-11T00:00	7560	405	-20.1	-40.8	274	1	
2025-08-11T00:00	7580	404	-20.3	-41.0	274	2	
2025-08-11T00:00	7600	403	-20.4	-40.7	276	2	
2025-08-11T00:00	7620	402	-20.6	-41.0	279	2	
2025-08-11T00:00	7640	400	-20.7	-41.3	285	2	
2025-08-11T00:00	7660	399	-20.8	-41.4	291	2	
2025-08-11T00:00	7680	398	-20.9	-41.5	299	2	
2025-08-11T00:00	7700	397	-21.1	-41.8	306	2	
2025-08-11T00:00	7720	396	-21.3	-42.8	313	3	
2025-08-11T00:00	7740	395	-21.4	-43.6	318	3	
2025-08-11T00:00	7760	394	-21.4	-43.7	322	3	
2025-08-11T00:00	7780	393	-21.4	-44.2	323	4	
2025-08-11T00:00	7800	392	-21.4	-44.4	324	4	
2025-08-11T00:00	7820	391	-21.5	-44.1	325	4	
2025-08-11T00:00	7840	390	-21.6	-43.7	326	5	
2025-08-11T00:00	7860	389	-21.7	-44.0	326	5	
2025-08-11T00:00	7880	388	-21.8	-44.4	327	5	
2025-08-11T00:00	7900	387	-21.9	-44.5	327	5	
2025-08-11T00:00	7920	386	-22.0	-44.6	327	5	
2025-08-11T00:00	7940	385	-22.2	-44.6	326	5	
2025-08-11T00:00	7960	384	-22.3	-44.6	325	5	
2025-08-11T00:00	7980	382	-22.4	-44.8	323	5	
2025-08-11T00:00	8000	381	-22.6	-45.4	322	5	
2025-08-11T00:00	8020	380	-22.7	-45.8	321	5	
2025-08-11T00:00	8040	379	-22.8	-45.9	320	6	
2025-08-11T00:00	8060	378	-23.0	-46.0	320	6	
2025-08-11T00:00	8080	377	-23.2	-46.1	319	6	
2025-08-11T00:00	8100	376	-23.3	-46.0	318	6	
2025-08-11T00:00	8120	375	-23.5	-46.1	317	6	
2025-08-11T00:00	8140	374	-23.6	-46.1	316	6	
2025-08-11T00:00	8160	373	-23.7	-46.1	314	6	
2025-08-11T00:00	8180	372	-23.9	-46.3	312	6	
2025-08-11T00:00	8200	371	-24.1	-46.7	309	6	
2025-08-11T00:00	8220	370	-24.2	-47.3	307	6	
2025-08-11T00:00	8240	369	-24.4	-47.2	305	6	
2025-08-11T00:00	8260	368	-24.5	-47.0	303	6	
2025-08-11T00:00	8280	367	-24.7	-47.2	303	6	
2025-08-11T00:00	8300	366	-24.8	-47.4	303	6	
2025-08-11T00:00	8320	365	-25.0	-47.1	303	6	
2025-08-11T00:00	8340	364	-25.1	-47.5	304	6	
2025-08-11T00:00	8360	363	-25.2	-47.5	305	6	
2025-08-11T00:00	8380	362	-25.3	-47.7	306	6	
2025-08-11T00:00	8400	361	-25.5	-47.8	306	6	
2025-08-11T00:00	8420	360	-25.6	-47.8	307	6	
2025-08-11T00:00	8440	359	-25.8	-47.7	306	6	
2025-08-11T00:00	8460	358	-26.0	-47.7	305	6	
2025-08-11T00:00	8480	357	-26.2	-47.8	305	6	
2025-08-11T00:00	8500	356	-26.3	-47.9	304	5	
2025-08-11T00:00	8520	355	-26.5	-47.9	304	5	
2025-08-11T00:00	8540	354	-26.6	-48.0	303	5	
2025-08-11T00:00	8560	353	-26.8	-48.0	301	5	
2025-08-11T00:00	8580	352	-27.0	-48.2	299	5	
2025-08-11T00:00	8600	351	-27.1	-48.3	297	5	
2025-08-11T00:00	8620	350	-27.3	-48.4	293	4	
2025-08-11T00:00	8640	349	-27.5	-48.3	290	4	
2025-08-11T00:00	8660	348	-27.7	-48.1	287	4	
2025-08-11T00:00	8680	347	-27.8	-47.6	285	4	
2025-08-11T00:00	8700	346	-28.0	-46.8	284	4	
2025-08-11T00:00	8720	345	-28.2	-45.6	284	4	
2025-08-11T00:00	8740	344	-28.4	-45.3	284	4	
2025-08-11T00:00	8760	344	-28.5	-45.8	284	4	
2025-08-11T00:00	8780	343	-28.7	-46.0	284	4	
2025-08-11T00:00	8800	342	-28.8	-45.9	283	4	
2025-08-11T00:00	8820	341	-29.0	-46.4	282	4	
2025-08-11T00:00	8840	340	-29.1	-46.9	280	4	
2025-08-11T00:00	8860	339	-29.3	-47.6	278	4	
2025-08-11T00:00	8880	338	-29.5	-47.4	277	4	
2025-08-11T00:00	8900	337	-29.7	-47.4	279	4	
2025-08-11T00:00	8920	336	-29.9	-47.4	280	4	
2025-08-11T00:00	8940	335	-30.1	-46.7	283	4	
2025-08-11T00:00	8960	334	-30.2	-44.6	285	4	
2025-08-11T00:00	8980	333	-30.4	-43.3	287	4	
2025-08-11T00:00	9000	332	-30.6	-43.3	290	4	
2025-08-11T00:00	9020	331	-30.7	-42.2	291	4	
2025-08-11T00:00	9040	330	-31.0	-41.6	293	3	
2025-08-11T00:00	9060	329	-31.1	-41.3	294	3	
2025-08-11T00:00	9080	328	-31.3	-41.0	296	3	
2025-08-11T00:00	9100	327	-31.5	-40.9	296	3	
2025-08-11T00:00	9120	327	-31.7	-41.1	297	3	
2025-08-11T00:00	9140	326	-31.9	-41.6	297	3	
2025-08-11T00:00	9160	325	-32.1	-41.9	297	2	
2025-08-11T00:00	9180	324	-32.3	-42.0	299	2	
2025-08-11T00:00	9200	323	-32.4	-41.9	300	3	
2025-08-11T00:00	9220	322	-32.6	-41.8	302	3	
2025-08-11T00:00	9240	321	-32.8	-41.4	303	3	
2025-08-11T00:00	9260	320	-33.0	-41.6	303	3	
2025-08-11T00:00	9280	319	-33.2	-41.9	303	4	
2025-08-11T00:00	9300	318	-33.4	-42.1	302	4	
2025-08-11T00:00	9320	317	-33.5	-41.9	301	4	
2025-08-11T00:00	9340	317	-33.7	-41.7	300	4	
2025-08-11T00:00	9360	316	-33.9	-41.6	299	5	
2025-08-11T00:00	9380	315	-34.1	-41.8	299	5	
2025-08-11T00:00	9400	314	-34.3	-42.0	300	5	
2025-08-11T00:00	9420	313	-34.5	-42.7	301	5	
2025-08-11T00:00	9440	312	-34.7	-42.8	302	5	
2025-08-11T00:00	9460	311	-34.9	-42.4	303	5	
2025-08-11T00:00	9480	310	-35.1	-42.0	303	5	
2025-08-11T00:00	9500	309	-35.2	-41.7	304	5	
2025-08-11T00:00	9520	308	-35.4	-41.7	305	6	
2025-08-11T00:00	9540	308	-35.6	-41.6	306	6	
2025-08-11T00:00	9560	307	-35.8	-41.9	307	6	
2025-08-11T00:00	9580	306	-35.9	-42.2	308	6	
2025-08-11T00:00	9600	305	-36.1	-42.1	309	6	
2025-08-11T00:00	9620	304	-36.2	-42.0	310	6	
2025-08-11T00:00	9640	303	-36.4	-42.4	310	6	
2025-08-11T00:00	9660	302	-36.5	-43.4	310	6	
2025-08-11T00:00	9680	301	-36.6	-44.3	310	6	
2025-08-11T00:00	9700	301	-36.7	-44.7	310	6	
2025-08-11T00:00	9720	300	-36.8	-46.5	310	6	
2025-08-11T00:00	9740	299	-36.7	-51.5	309	6	
2025-08-11T00:00	9760	298	-36.8	-50.1	309	6	
2025-08-11T00:00	9780	297	-36.9	-48.8	309	6	
2025-08-11T00:00	9800	296	-37.1	-49.3	309	6	
2025-08-11T00:00	9820	295	-37.3	-49.2	310	6	
2025-08-11T00:00	9840	294	-37.5	-48.4	312	7	
2025-08-11T00:00	9860	294	-37.6	-46.6	314	7	
2025-08-11T00:00	9880	293	-37.8	-45.7	316	7	
2025-08-11T00:00	9900	292	-37.8	-47.0	318	7	
2025-08-11T00:00	9920	291	-37.8	-48.2	319	7	
2025-08-11T00:00	9940	290	-37.9	-48.4	320	6	
2025-08-11T00:00	9960	289	-38.0	-48.5	321	6	
2025-08-11T00:00	9980	289	-38.1	-49.3	322	6	
2025-08-11T00:00	10000	288	-38.2	-49.4	322	6	
2025-08-11T00:00	10018	287	-38.3	-49.1	323	6	
2025-08-11T00:00	10050	286	-38.6	-48.5	322	6	
2025-08-11T00:00	10100	284	-39.0	-49.1	321	7	
2025-08-11T00:00	10150	282	-39.4	-48.3	319	7	
2025-08-11T00:00	10200	279	-39.7	-49.9	319	7	
2025-08-11T00:00	10250	277	-39.8	-52.5	320	8	
2025-08-11T00:00	10300	275	-40.0	-54.6	319	8	
2025-08-11T00:00	10350	273	-40.4	-53.4	318	9	
2025-08-11T00:00	10400	271	-40.8	-54.5	318	9	
2025-08-11T00:00	10450	269	-41.2	-56.6	320	10	
2025-08-11T00:00	10500	267	-41.5	-58.2	323	10	
2025-08-11T00:00	10550	266	-41.8	-58.5	325	10	
2025-08-11T00:00	10600	264	-42.1	-59.3	325	10	
2025-08-11T00:00	10650	261	-42.4	-59.6	326	10	
2025-08-11T00:00	10700	260	-42.8	-59.9	326	11	
2025-08-11T00:00	10750	258	-43.1	-60.2	327	11	
2025-08-11T00:00	10800	256	-43.5	-60.2	329	11	
2025-08-11T00:00	10850	254	-44.0	-60.2	331	12	
2025-08-11T00:00	10900	252	-44.4	-60.2	332	12	
2025-08-11T00:00	10950	250	-44.9	-60.0	332	13	
2025-08-11T00:00	11000	248	-45.3	-59.6	334	13	
2025-08-11T00:00	11050	246	-45.8	-59.2	335	13	
2025-08-11T00:00	11100	245	-46.1	-59.6	332	13	
2025-08-11T00:00	11150	243	-46.5	-60.8	329	12	
2025-08-11T00:00	11200	241	-46.9	-61.0	328	13	
2025-08-11T00:00	11250	239	-47.3	-61.0	329	13	
2025-08-11T00:00	11300	237	-47.8	-61.0	330	13	
2025-08-11T00:00	11350	236	-48.2	-60.3	332	13	
2025-08-11T00:00	11400	234	-48.6	-60.2	333	13	
2025-08-11T00:00	11450	232	-49.1	-60.5	334	13	
2025-08-11T00:00	11500	230	-49.5	-59.3	335	13	
2025-08-11T00:00	11550	228	-49.8	-58.5	338	14	
2025-08-11T00:00	11600	227	-49.9	-60.7	340	15	
2025-08-11T00:00	11650	225	-50.3	-60.4	342	15	
2025-08-11T00:00	11700	223	-50.7	-60.8	344	15	
2025-08-11T00:00	11750	221	-51.0	-61.2	347	14	
2025-08-11T00:00	11800	220	-51.1	-62.7	351	13	
2025-08-11T00:00	11850	218	-51.4	-63.3	354	13	
2025-08-11T00:00	11900	217	-51.8	-63.7	356	12	
2025-08-11T00:00	11950	215	-52.2	-64.1	358	11	
2025-08-11T00:00	12000	213	-52.6	-65.1	359	10	
2025-08-11T00:00	12050	212	-52.8	-66.6	356	9	
2025-08-11T00:00	12100	210	-52.9	-68.6	352	9	
2025-08-11T00:00	12150	208	-52.9	-71.1	350	8	
2025-08-11T00:00	12200	207	-53.0	-71.9	348	8	
2025-08-11T00:00	12250	205	-53.2	-71.8	348	7	
2025-08-11T00:00	12300	204	-53.4	-71.9	345	6	
2025-08-11T00:00	12350	202	-53.8	-72.1	341	5	
2025-08-11T00:00	12400	200	-54.1	-72.3	334	5	
2025-08-11T00:00	12450	199	-54.5	-72.4	325	5	
2025-08-11T00:00	12500	197	-54.8	-72.6	321	5	
2025-08-11T00:00	12550	196	-55.2	-72.6	319	6	
2025-08-11T00:00	12600	194	-55.3	-72.9	315	8	
2025-08-11T00:00	12650	193	-55.3	-72.8	312	9	
2025-08-11T00:00	12700	191	-55.3	-72.6	314	9	
2025-08-11T00:00	12750	190	-55.1	-73.6	322	9	
2025-08-11T00:00	12800	188	-55.0	-74.3	334	9	
2025-08-11T00:00	12850	187	-55.0	-75.0	341	9	
2025-08-11T00:00	12900	185	-55.1	-75.7	342	9	
2025-08-11T00:00	12950	184	-55.3	-75.5	336	8	
2025-08-11T00:00	13000	182	-55.5	-74.6	329	8	
2025-08-11T00:00	13050	181	-55.6	-73.4	326	8	
2025-08-11T00:00	13100	179	-55.8	-72.1	327	8	
2025-08-11T00:00	13150	178	-55.8	-71.9	328	8	
2025-08-11T00:00	13200	177	-55.9	-72.1	329	8	
2025-08-11T00:00	13250	175	-56.0	-72.4	333	8	
2025-08-11T00:00	13300	174	-55.7	-73.2	337	7	
2025-08-11T00:00	13350	173	-55.5	-75.0	337	6	
2025-08-11T00:00	13400	171	-55.6	-76.2	334	6	
2025-08-11T00:00	13450	170	-56.1	-76.3	330	6	
2025-08-11T00:00	13500	169	-56.4	-77.4	325	5	
2025-08-11T00:00	13550	167	-56.5	-79.2	322	5	
2025-08-11T00:00	13600	166	-56.7	-79.7	324	5	
2025-08-11T00:00	13650	165	-57.0	-79.8	328	5	
2025-08-11T00:00	13700	163	-57.2	-79.9	334	6	
2025-08-11T00:00	13750	162	-57.6	-79.9	340	6	
2025-08-11T00:00	13800	161	-57.9	-79.9	348	6	
2025-08-11T00:00	13850	159	-57.9	-80.2	356	5	
2025-08-11T00:00	13900	158	-58.1	-80.4	357	6	
2025-08-11T00:00	13950	157	-58.2	-80.7	355	6	
2025-08-11T00:00	14000	156	-58.3	-80.9	357	6	
2025-08-11T00:00	14050	155	-58.2	-81.4	358	6	
2025-08-11T00:00	14100	153	-58.4	-81.5	357	5	
2025-08-11T00:00	14150	152	-58.8	-81.5	354	5	
2025-08-11T00:00	14200	151	-58.5	-80.8	350	5	
2025-08-11T00:00	14250	150	-58.1	-79.9	349	4	
2025-08-11T00:00	14300	148	-57.7	-80.0	349	4	
2025-08-11T00:00	14350	147	-57.6	-80.5	342	4	
2025-08-11T00:00	14400	146	-57.8	-81.2	335	3	
2025-08-11T00:00	14450	145	-58.2	-81.8	327	4	
2025-08-11T00:00	14500	144	-58.5	-82.2	315	4	
2025-08-11T00:00	14550	143	-58.6	-82.0	303	4	
2025-08-11T00:00	14600	142	-58.6	-82.1	288	4	
2025-08-11T00:00	14650	140	-58.6	-82.4	270	4	
2025-08-11T00:00	14700	139	-58.7	-82.8	261	4	
2025-08-11T00:00	14750	138	-58.9	-82.9	260	4	
2025-08-11T00:00	14800	137	-59.2	-83.0	262	4	
2025-08-11T00:00	14850	136	-59.7	-83.1	269	4	
2025-08-11T00:00	14900	135	-60.1	-83.2	284	4	
2025-08-11T00:00	14950	134	-60.4	-83.2	298	4	
2025-08-11T00:00	15000	133	-60.6	-83.2	306	5	
2025-08-11T00:00	15050	132	-61.0	-83.4	313	5	
2025-08-11T00:00	15100	131	-61.2	-83.6	313	5	
2025-08-11T00:00	15150	130	-60.9	-83.5	305	4	
2025-08-11T00:00	15200	129	-61.3	-83.8	290	4	
2025-08-11T00:00	15250	128	-61.6	-83.8	282	5	
2025-08-11T00:00	15300	127	-61.9	-83.8	282	6	
2025-08-11T00:00	15350	126	-62.0	-83.9	286	7	
2025-08-11T00:00	15400	125	-62.2	-84.1	290	8	
2025-08-11T00:00	15450	123	-62.4	-84.3	292	8	
2025-08-11T00:00	15500	123	-62.1	-84.3	292	7	
2025-08-11T00:00	15550	122	-60.9	-84.0	289	7	
2025-08-11T00:00	15600	121	-60.5	-84.0	281	6	
2025-08-11T00:00	15650	120	-60.2	-84.0	267	6	
2025-08-11T00:00	15700	119	-60.2	-83.9	257	7	
2025-08-11T00:00	15750	118	-60.6	-84.0	251	7	
2025-08-11T00:00	15800	117	-60.9	-84.1	246	8	
2025-08-11T00:00	15850	116	-60.9	-84.1	243	9	
2025-08-11T00:00	15900	115	-61.1	-84.3	244	10	
2025-08-11T00:00	15950	114	-61.3	-84.3	246	9	
2025-08-11T00:00	16000	113	-61.4	-84.4	248	9	
2025-08-11T00:00	16050	112	-61.5	-84.5	254	9	
2025-08-11T00:00	16100	111	-61.8	-84.7	262	9	
2025-08-11T00:00	16150	110	-61.9	-84.7	269	9	
2025-08-11T00:00	16200	109	-61.8	-84.6	274	9	
2025-08-11T00:00	16250	109	-61.9	-84.7	275	8	
2025-08-11T00:00	16300	108	-62.3	-84.8	272	7	
2025-08-11T00:00	16350	107	-62.6	-84.8	268	7	
2025-08-11T00:00	16400	106	-62.6	-85.0	269	7	
2025-08-11T00:00	16450	105	-62.3	-85.0	273	8	
2025-08-11T00:00	16500	104	-62.6	-85.1	278	8	
2025-08-11T00:00	16550	103	-62.9	-85.3	280	8	
2025-08-11T00:00	16600	103	-62.8	-85.6	278	8	
2025-08-11T00:00	16650	102	-62.2	-85.5	274	8	
2025-08-11T00:00	16700	101	-62.1	-85.6	269	8	
2025-08-11T00:00	16750	100	-62.1	-85.6	265	9	
2025-08-11T00:00	16800	99	-62.5	-85.6	266	9	
2025-08-11T00:00	16850	98	-62.8	-85.7	268	9	
2025-08-11T00:00	16900	98	-62.9	-85.8	266	8	
2025-08-11T00:00	16950	97	-62.9	-85.9	258	7	
2025-08-11T00:00	17000	96	-62.6	-86.0	246	6	
2025-08-11T00:00	17050	95	-62.2	-85.9	239	7	
2025-08-11T00:00	17100	95	-62.4	-85.9	243	7	
2025-08-11T00:00	17150	94	-62.6	-85.9	249	8	
2025-08-11T00:00	17200	93	-62.8	-85.9	253	8	
2025-08-11T00:00	17250	92	-62.9	-86.0	254	8	
2025-08-11T00:00	17300	92	-62.8	-86.0	256	8	
2025-08-11T00:00	17350	91	-62.7	-86.1	260	8	
2025-08-11T00:00	17400	90	-62.7	-86.1	262	8	
2025-08-11T00:00	17450	89	-62.8	-86.0	262	9	
2025-08-11T00:00	17500	89	-63.1	-86.1	265	10	
2025-08-11T00:00	17550	88	-63.4	-86.3	270	10	
2025-08-11T00:00	17600	87	-63.3	-86.4	272	9	
2025-08-11T00:00	17650	86	-63.2	-86.4	271	9	
2025-08-11T00:00	17700	86	-62.9	-86.5	269	8	
2025-08-11T00:00	17750	85	-62.8	-86.7	266	8	
2025-08-11T00:00	17800	84	-62.0	-86.4	265	8	
2025-08-11T00:00	17850	84	-61.8	-86.6	267	8	
2025-08-11T00:00	17900	83	-61.3	-86.4	269	7	
2025-08-11T00:00	17950	82	-61.2	-86.3	271	7	
2025-08-11T00:00	18000	82	-61.4	-86.2	274	7	
2025-08-11T00:00	18050	81	-61.6	-86.2	276	7	
2025-08-11T00:00	18100	80	-62.0	-86.3	279	8	
2025-08-11T00:00	18150	80	-62.2	-86.5	284	8	
2025-08-11T00:00	18200	79	-62.0	-86.6	292	9	
2025-08-11T00:00	18250	79	-61.8	-86.7	299	9	
2025-08-11T00:00	18300	78	-61.2	-86.5	306	10	
2025-08-11T00:00	18350	77	-61.0	-86.4	313	10	
2025-08-11T00:00	18400	77	-60.9	-86.4	323	10	
2025-08-11T00:00	18450	76	-60.7	-86.5	332	9	
2025-08-11T00:00	18500	75	-60.5	-86.4	340	8	
2025-08-11T00:00	18550	75	-60.1	-86.2	344	7	
2025-08-11T00:00	18600	74	-60.2	-86.4	342	4	
2025-08-11T00:00	18650	74	-60.0	-86.4	318	3	
2025-08-11T00:00	18700	73	-59.9	-86.3	271	3	
2025-08-11T00:00	18750	72	-59.7	-85.9	261	3	
2025-08-11T00:00	18800	72	-60.0	-86.0	271	4	
2025-08-11T00:00	18850	71	-60.2	-86.2	288	3	
2025-08-11T00:00	18900	71	-60.4	-86.4	308	3	
2025-08-11T00:00	18950	70	-60.5	-86.4	327	2	
2025-08-11T00:00	19000	70	-60.4	-86.3	339	2	
2025-08-11T00:00	19050	69	-60.5	-86.4	345	2	
2025-08-11T00:00	19100	68	-60.5	-86.6	345	2	
2025-08-11T00:00	19150	68	-60.2	-86.5	329	1	
2025-08-11T00:00	19200	67	-60.0	-86.3	295	1	
2025-08-11T00:00	19250	67	-60.4	-86.5	271	1	
2025-08-11T00:00	19300	66	-60.0	-86.3	257	2	
2025-08-11T00:00	19350	66	-59.6	-86.2	254	2	
2025-08-11T00:00	19400	65	-59.7	-86.4	259	3	
2025-08-11T00:00	19450	65	-59.6	-86.3	265	3	
2025-08-11T00:00	19500	64	-59.8	-86.2	269	3	
2025-08-11T00:00	19550	64	-59.7	-86.2	274	4	
2025-08-11T00:00	19600	63	-59.5	-86.2	286	3	
2025-08-11T00:00	19650	63	-59.6	-86.5	310	2	
2025-08-11T00:00	19700	62	-59.4	-86.5	331	2	
2025-08-11T00:00	19750	62	-59.0	-86.2	340	1	
2025-08-11T00:00	19800	61	-59.1	-86.2	254	0	
2025-08-11T00:00	19850	61	-59.1	-86.2	170	1	
2025-08-11T00:00	19900	60	-59.2	-86.2	180	2	
2025-08-11T00:00	19950	60	-59.3	-86.1	201	2	
2025-08-11T00:00	20000	59	-59.5	-86.2	233	2	
2025-08-11T00:00	20050	59	-59.5		252	2	
2025-08-11T00:00	20100	58	-59.6		262	2	
2025-08-11T00:00	20150	58	-59.9		266	2	
2025-08-11T00:00	20200	57	-59.9		259	2	
2025-08-11T00:00	20250	57	-59.9		244	2	
2025-08-11T00:00	20300	57	-59.8		230	2	
2025-08-11T00:00	20350	56	-59.7		228	1	
2025-08-11T00:00	20400	56	-59.1		249	1	
2025-08-11T00:00	20450	55	-59.0		265	1	
2025-08-11T00:00	20500	55	-58.5		244	1	
2025-08-11T00:00	20550	54	-58.6		246	1	
2025-08-11T00:00	20600	54	-58.5		354	1	
2025-08-11T00:00	20650	53	-58.4		14	2	
2025-08-11T00:00	20700	53	-58.3		23	4	
2025-08-11T00:00	20750	53	-58.3		28	4	
2025-08-11T00:00	20800	52	-58.4		30	5	
2025-08-11T00:00	20850	52	-58.5		31	6	
2025-08-11T00:00	20900	51	-58.7		36	7	
2025-08-11T00:00	20950	51	-58.7		45	7	
2025-08-11T00:00	21000	51	-58.4		56	7	
2025-08-11T00:00	21050	50	-58.6		65	7	
2025-08-11T00:00	21100	50	-58.8		71	6	
2025-08-11T00:00	21150	49	-59.1		77	5	
2025-08-11T00:00	21200	49	-59.4		77	4	
2025-08-11T00:00	21250	49	-58.9		68	4	
2025-08-11T00:00	21300	48	-58.8		59	4	
2025-08-11T00:00	21350	48	-58.4		57	4	
2025-08-11T00:00	21400	47	-58.4		61	3	
2025-08-11T00:00	21450	47	-58.4		59	3	
2025-08-11T00:00	21500	47	-58.0		49	5	
2025-08-11T00:00	21550	46	-57.6		40	6	
2025-08-11T00:00	21600	46	-57.6		36	7	
2025-08-11T00:00	21650	46	-57.4		39	8	
2025-08-11T00:00	21700	45	-57.1		49	8	
2025-08-11T00:00	21750	45	-57.0		61	8	
2025-08-11T00:00	21800	45	-57.0		73	8	
2025-08-11T00:00	21850	44	-57.1		83	9	
2025-08-11T00:00	21900	44	-56.9		89	8	
2025-08-11T00:00	21950	43	-56.9		88	7	
2025-08-11T00:00	22000	43	-56.8		77	6	
2025-08-11T00:00	22050	43	-56.7		63	6	
2025-08-11T00:00	22100	42	-56.3		60	7	
2025-08-11T00:00	22150	42	-55.8		65	8	
2025-08-11T00:00	22200	42	-55.5		74	8	
2025-08-11T00:00	22250	41	-55.4		85	8	
2025-08-11T00:00	22300	41	-55.6		97	8	
2025-08-11T00:00	22350	41	-56.1		104	8	
2025-08-11T00:00	22400	40	-56.3		103	8	
2025-08-11T00:00	22450	40	-56.0		93	7	
2025-08-11T00:00	22500	40	-56.1		76	7	
2025-08-11T00:00	22550	40	-56.1		60	7	
2025-08-11T00:00	22600	39	-56.2		50	7	
2025-08-11T00:00	22650	39	-56.0		44	7	
2025-08-11T00:00	22700	39	-55.7		41	7	
2025-08-11T00:00	22750	38	-55.7		43	7	
2025-08-11T00:00	22800	38	-55.6		49	7	
2025-08-11T00:00	22850	38	-55.7		55	8	
2025-08-11T00:00	22900	37	-55.7		61	8	
2025-08-11T00:00	22950	37	-55.7		67	8	
2025-08-11T00:00	23000	37	-55.8		71	8	
2025-08-11T00:00	23050	37	-55.5		73	9	
2025-08-11T00:00	23100	36	-55.7		75	10	
2025-08-11T00:00	23150	36	-55.9		81	10	
2025-08-11T00:00	23200	36	-56.0		87	10	
2025-08-11T00:00	23250	35	-56.1		92	10	
2025-08-11T00:00	23300	35	-56.2		92	9	
2025-08-11T00:00	23350	35	-56.0		87	9	
2025-08-11T00:00	23400	35	-55.7		82	10	
2025-08-11T00:00	23450	34	-55.1		79	10	
2025-08-11T00:00	23500	34	-54.5		73	10	
2025-08-11T00:00	23550	34	-54.5		65	9	
2025-08-11T00:00	23600	34	-54.5		59	9	
2025-08-11T00:00	23650	33	-54.6		59	9	
2025-08-11T00:00	23700	33	-54.8		65	10	
2025-08-11T00:00	23750	33	-54.9		74	11	
2025-08-11T00:00	23800	32	-54.7		82	12	
2025-08-11T00:00	23850	32	-54.7		91	12	
2025-08-11T00:00	23900	32	-54.7		102	12	
2025-08-11T00:00	23950	32	-54.4		109	12	
2025-08-11T00:00	24000	32	-54.3		112	12	
2025-08-11T00:00	24050	31	-54.3		111	11	
2025-08-11T00:00	24100	31	-54.2		111	10	
2025-08-11T00:00	24150	31	-54.3		114	9	
2025-08-11T00:00	24200	31	-54.1		116	7	
2025-08-11T00:00	24250	30	-54.2		117	6	
2025-08-11T00:00	24300	30	-54.0		115	4	
2025-08-11T00:00	24350	30	-53.8		109	3	
2025-08-11T00:00	24400	30	-54.0		88	3	
2025-08-11T00:00	24450	29	-54.0		53	3	
2025-08-11T00:00	24500	29	-53.5		39	5	
2025-08-11T00:00	24550	29	-53.5		40	6	
2025-08-11T00:00	24600	29	-53.2		49	7	
2025-08-11T00:00	24650	28	-52.6		60	7	
2025-08-11T00:00	24700	28	-52.7		73	7	
2025-08-11T00:00	24750	28	-52.8		84	7	
2025-08-11T00:00	24800	28	-52.6		87	6	
2025-08-11T00:00	24850	28	-51.9		82	5	
2025-08-11T00:00	24900	27	-51.7		72	5	
2025-08-11T00:00	24950	27	-51.8		63	5	
2025-08-11T00:00	25000	27	-51.9		58	7	
2025-08-11T00:00	25050	27	-52.0		57	8	
2025-08-11T00:00	25100	27	-51.5		60	9	
2025-08-11T00:00	25150	26	-51.0		63	10	
2025-08-11T00:00	25200	26	-50.8		68	10	
2025-08-11T00:00	25250	26	-50.7		73	10	
2025-08-11T00:00	25300	26	-50.6		76	9	
2025-08-11T00:00	25350	26	-50.6		79	9	
2025-08-11T00:00	25400	25	-50.7		83	8	
2025-08-11T00:00	25450	25	-50.6		87	9	
2025-08-11T00:00	25500	25	-50.5		89	9	
2025-08-11T00:00	25550	25	-50.5		89	10	
2025-08-11T00:00	25600	25	-50.4		88	10	
2025-08-11T00:00	25650	24	-50.2		88	10	
2025-08-11T00:00	25700	24	-50.1		90	9	
2025-08-11T00:00	25750	24	-49.9		93	10	
2025-08-11T00:00	25800	24	-49.7		96	10	
2025-08-11T00:00	25850	24	-49.7		100	10	
2025-08-11T00:00	25900	23	-49.6		102	9	
2025-08-11T00:00	25950	23	-49.3		103	9	
2025-08-11T00:00	26000	23	-49.4		100	8	
2025-08-11T00:00	26050	23	-49.4		94	7	
2025-08-11T00:00	26100	23	-49.3		88	7	
2025-08-11T00:00	26150	23	-48.8		87	7	
2025-08-11T00:00	26200	22	-48.4		90	7	
2025-08-11T00:00	26250	22	-48.2		94	8	
2025-08-11T00:00	26300	22	-48.1		94	8	
2025-08-11T00:00	26350	22	-48.0		89	7	
2025-08-11T00:00	26400	22	-47.6		78	7	
2025-08-11T00:00	26450	22	-47.2		66	7	
2025-08-11T00:00	26500	21	-47.1		56	8	
2025-08-11T00:00	26550	21	-46.9		54	9	
2025-08-11T00:00	26600	21	-46.2		57	10	
2025-08-11T00:00	26650	21	-46.1		63	10	
2025-08-11T00:00	26700	21	-46.4		68	11	
2025-08-11T00:00	26750	21	-46.7		73	12	
2025-08-11T00:00	26800	20	-46.8		77	12	
2025-08-11T00:00	26850	20	-47.0		80	13	
2025-08-11T00:00	26900	20	-47.3		83	13	
2025-08-11T00:00	26950	20	-47.5		87	12	
2025-08-11T00:00	27000	20	-47.7		92	11	
2025-08-11T00:00	27050	20	-47.8		97	10	
2025-08-11T00:00	27100	20	-47.8		99	9	
2025-08-11T00:00	27150	19	-47.8		98	8	
2025-08-11T00:00	27200	19	-48.1		92	7	
2025-08-11T00:00	27250	19	-48.0		82	7	
2025-08-11T00:00	27300	19	-47.4		75	7	
2025-08-11T00:00	27350	19	-47.2		72	7	
2025-08-11T00:00	27400	19	-47.2		73	7	
2025-08-11T00:00	27450	19	-47.2		72	6	
2025-08-11T00:00	27500	18	-47.2		70	5	
2025-08-11T00:00	27550	18	-47.3		67	5	
2025-08-11T00:00	27600	18	-47.5		60	5	
2025-08-11T00:00	27650	18	-47.2		54	6	
2025-08-11T00:00	27700	18	-46.6		52	8	
2025-08-11T00:00	27750	18	-46.6		52	9	
2025-08-11T00:00	27800	18	-46.6		53	11	
2025-08-11T00:00	27850	17	-46.3		54	13	
2025-08-11T00:00	27900	17	-46.3		54	14	
2025-08-11T00:00	27950	17	-46.0		55	15	
2025-08-11T00:00	28000	17	-46.0		57	15	
2025-08-11T00:00	28050	17	-46.1		61	15	
2025-08-11T00:00	28100	17	-46.1		65	15	
2025-08-11T00:00	28150	17	-46.0		69	14	
2025-08-11T00:00	28200	17	-46.1		74	14	
2025-08-11T00:00	28250	16	-46.2		77	13	
2025-08-11T00:00	28300	16	-46.4		79	12	
2025-08-11T00:00	28350	16	-46.6		79	11	
2025-08-11T00:00	28400	16	-47.0		76	10	
2025-08-11T00:00	28450	16	-47.3		71	10	
2025-08-11T00:00	28500	16	-47.0		66	11	
2025-08-11T00:00	28550	16	-46.7		62	12	
2025-08-11T00:00	28600	16	-46.8		61	13	
2025-08-11T00:00	28650	16	-46.7		62	14	
2025-08-11T00:00	28700	15	-46.9		68	14	
2025-08-11T00:00	28750	15	-46.7		75	15	
2025-08-11T00:00	28800	15	-46.5		82	15	
2025-08-11T00:00	28850	15	-46.5		89	14	
2025-08-11T00:00	28900	15	-46.7		95	14	
2025-08-11T00:00	28950	15	-46.5		100	12	
2025-08-11T00:00	29000	15	-46.2		101	11	
2025-08-11T00:00	29050	15	-45.6		96	9	
2025-08-11T00:00	29100	14	-45.0		86	9	
2025-08-11T00:00	29150	14	-44.7		82	10	
2025-08-11T00:00	29200	14	-44.5		83	12	
2025-08-11T00:00	29250	14	-44.3		88	13	
2025-08-11T00:00	29300	14	-44.2		95	13	
2025-08-11T00:00	29350	14	-44.2		101	13	
2025-08-11T00:00	29400	14	-44.0		104	13	
2025-08-11T00:00	29450	14	-44.0		105	12	
2025-08-11T00:00	29500	14	-44.1		103	11	
2025-08-11T00:00	29550	14	-43.9		98	11	
2025-08-11T00:00	29600	13	-43.7		93	11	
2025-08-11T00:00	29650	13	-43.6		91	12	
2025-08-11T00:00	29700	13	-43.7		93	13	
2025-08-11T00:00	29750	13	-43.5		97	14	
2025-08-11T00:00	29800	13	-43.3		103	14	
2025-08-11T00:00	29850	13	-43.0		108	14	
2025-08-11T00:00	29900	13	-42.8		113	13	
2025-08-11T00:00	29950	13	-42.3		117	12	
2025-08-11T00:00	30000	13	-42.4		120	11	
2025-08-11T00:00	30050	13	-42.5		121	9	
2025-08-11T00:00	30100	12	-42.1		119	8	
2025-08-11T00:00	30150	12	-42.1		115	7	
2025-08-11T00:00	30200	12	-42.3		110	7	
2025-08-11T00:00	30250	12	-42.6		103	7	
2025-08-11T00:00	30300	12	-42.5		97	7	
2025-08-11T00:00	30350	12	-42.4		92	8	
2025-08-11T00:00	30400	12	-42.5		88	9	
2025-08-11T00:00	30450	12	-42.7		86	10	
2025-08-11T00:00	30500	12	-42.8		85	11	
2025-08-11T00:00	30550	12	-43.0		87	11	
2025-08-11T00:00	30600	12	-43.1		90	10	
2025-08-11T00:00	30650	12	-43.0		93	10	
2025-08-11T00:00	30700	11	-43.0		92	9	
2025-08-11T00:00	30750	11	-42.9		86	8	
2025-08-11T00:00	30800	11	-42.8		77	7	
2025-08-11T00:00	30850	11	-42.7		69	7	
2025-08-11T00:00	30900	11	-42.8		61	7	
2025-08-11T00:00	30950	11	-42.7		53	8	
2025-08-11T00:00	31000	11	-42.6		49	8	
2025-08-11T00:00	31050	11	-42.6		49	9	
2025-08-11T00:00	31100	11	-42.3		54	10	
2025-08-11T00:00	31150	11	-42.0		58	11	
2025-08-11T00:00	31200	11	-41.9		63	12	
2025-08-11T00:00	31250	11	-42.0		67	12	
2025-08-11T00:00	31300	10	-42.1		72	11	
2025-08-11T00:00	31350	10	-42.1		77	10	
2025-08-11T00:00	31400	10	-42.3		83	9	
2025-08-11T00:00	31450	10	-42.5		87	9	
2025-08-11T00:00	31500	10	-42.5		89	9	
2025-08-11T00:00	31550	10	-42.1		87	8	
2025-08-11T00:00	31600	10	-42.1		83	8	
2025-08-11T00:00	31650	10	-42.1		77	7	
2025-08-11T00:00	31700	10	-42.1		73	7	
2025-08-11T00:00	31750	10	-41.9		69	6	
2025-08-11T00:00	31800	10	-41.9		67	6	
2025-08-11T00:00	31850	10	-41.9		65	7	
2025-08-11T00:00	31900	10	-41.6		64	7	
2025-08-11T00:00	31950	9	-41.3		63	7	
2025-08-11T00:00	32000	9	-41.3		60	7	
2025-08-11T00:00	32050	9	-41.4		58	7	
2025-08-11T00:00	32100	9	-41.4		56	7	
2025-08-11T00:00	32150	9	-41.5		57	7	
2025-08-11T00:00	32200	9	-41.4		60	8	
2025-08-11T00:00	32250	9	-41.1		66	8	
2025-08-11T00:00	32300	9	-40.8		72	9	
2025-08-11T00:00	32350	9	-40.6		78	10	
2025-08-11T00:00	32400	9	-40.5		83	10	
2025-08-11T00:00	32450	9	-40.6		86	9	
2025-08-11T00:00	32500	9	-40.8		86	9	
2025-08-11T00:00	32550	9	-40.9		82	9	
2025-08-11T00:00	32600	9	-41.0		73	9	
2025-08-11T00:00	32650	9	-41.0		63	9	
2025-08-11T00:00	32700	9	-41.0		55	10	
2025-08-11T00:00	32750	8	-40.9		48	11	
2025-08-11T00:00	32800	8	-40.9		44	13	
2025-08-11T00:00	32850	8	-40.6		43	15	
2025-08-11T00:00	32900	8	-40.5		46	16	
2025-08-11T00:00	32950	8	-40.4		52	17	
2025-08-11T00:00	33000	8	-40.2		59	17	
2025-08-11T00:00	33050	8	-40.1		65	17	
2025-08-11T00:00	33100	8	-40.0		71	17	
2025-08-11T00:00	33150	8	-40.1		79	16	
2025-08-11T00:00	33200	8	-40.3		85	15	
2025-08-11T00:00	33250	8	-40.3		89	14	
2025-08-11T00:00	33300	8	-40.4		90	13	
2025-08-11T00:00	33350	8	-40.4		86	12	
2025-08-11T00:00	33400	8	-40.1		81	12	
2025-08-11T00:00	33450	8	-39.9		77	12	
2025-08-11T00:00	33500	8	-39.6		77	13	
2025-08-11T00:00	33550	8	-39.3		78	14	
2025-08-11T00:00	33600	7	-39.2		78	15	
2025-08-11T00:00	33650	7	-39.3		76	15	
2025-08-11T00:00	33700	7	-39.4		76	16	
2025-08-11T00:00	33750	7	-39.7		76	18	
2025-08-11T00:00	33800	7	-40.0		76	19	
2025-08-11T00:00	33850	7	-39.9		77	20	
2025-08-11T00:00	33900	7	-39.9		79	20	
2025-08-11T00:00	33950	7	-39.6		81	19	
2025-08-11T00:00	34000	7	-39.5		83	18	
2025-08-11T00:00	34050	7	-39.5		84	17	
2025-08-11T00:00	34100	7	-39.4		85	15	
2025-08-11T00:00	34150	7	-39.1		85	14	
2025-08-11T00:00	34200	7	-39.1		83	14	
2025-08-11T00:00	34250	7	-38.9		79	14	
2025-08-11T00:00	34300	7	-38.5		74	15	
2025-08-11T00:00	34350	7	-37.9		71	17	
2025-08-11T00:00	34400	7	-37.4		70	18	
2025-08-11T00:00	34450	7	-37.1		71	19	
2025-08-11T00:00	34500	7	-36.9		72	19	
2025-08-11T00:00	34550	6	-36.6		73	20	
2025-08-11T00:00	34600	6	-36.3		74	21	
2025-08-11T00:00	34650	6	-35.9		76	21	
2025-08-11T00:00	34700	6	-35.8		77	21	
2025-08-11T00:00	34750	6	-35.5		78	20	
2025-08-11T00:00	34800	6	-35.3		79	20	
2025-08-11T00:00	34850	6	-35.1		79	20	
2025-08-11T00:00	34900	6	-35.1		80	20	
2025-08-11T00:00	34950	6	-34.9		82	19	
2025-08-11T00:00	35000	6	-34.9		86	18	
2025-08-11T00:00	35050	6	-34.7		86	17	
2025-08-11T00:00	35100	6	-34.1		83	17	
2025-08-11T00:00	35150	6	-33.7		79	18	
2025-08-11T00:00	35200	6	-33.4		75	20	
2025-08-11T00:00	35250	6	-33.0		73	21	
2025-08-11T00:00	35300	6	-32.6		71	22	
2025-08-11T00:00	35350	6	-32.2		69	22	
2025-08-11T00:00	35400	6	-32.1		70	23	
2025-08-11T00:00	35450	6	-32.1		72	24	
2025-08-11T00:00	35500	6	-31.9		75	25	
2025-08-11T00:00	35550	6	-31.6		77	26	
2025-08-11T00:00	35600	6	-31.6		78	26	
2025-08-11T00:00	35650	6	-31.7		79	25	
2025-08-11T00:00	35700	6	-31.8		78	23	
2025-08-11T00:00	35750	5	-31.9		78	22	
2025-08-11T00:00	35800	5	-31.9		77	21	
2025-08-11T00:00	35850	5	-32.1		75	21	
2025-08-11T00:00	35900	5	-32.2		73	22	
2025-08-11T00:00	35950	5	-32.2		72	23	
2025-08-11T00:00	36000	5	-32.2		72	23	
2025-08-11T00:00	36050	5	-32.1		71	23	
2025-08-11T00:00	36100	5	-31.9		71	22	
2025-08-11T00:00	36150	5	-31.6		72	22	
2025-08-11T00:00	36200	5	-31.4		73	22	
2025-08-11T00:00	36250	5	-31.3		74	21	
2025-08-11T00:00	36300	5	-31.1		76	21	
2025-08-11T00:00	36350	5	-30.7		79	22	
2025-08-11T00:00	36400	5	-30.5		80	23	
2025-08-11T00:00	36450	5	-30.0		80	23	
2025-08-11T00:00	36500	5	-29.5		79	23	
2025-08-11T00:00	36550	5	-29.3		80	22	
2025-08-11T00:00	36600	5	-29.1		81	22	
2025-08-11T12:00	491	963	26.9	15.3	96	1	6.0
2025-08-11T12:00	501	962	25.4	15.4	339	1	6.0
2025-08-11T12:00	520	960	25.1	15.3	337	1	6.1
2025-08-11T12:00	540	958	25.1	15.2	340	2	6.1
2025-08-11T12:00	560	956	24.9	15.1	345	2	6.1
2025-08-11T12:00	580	954	24.7	15.1	350	2	6.1
2025-08-11T12:00	600	951	24.4	15.0	356	2	6.1
2025-08-11T12:00	620	949	24.1	14.9	3	2	6.0
2025-08-11T12:00	640	947	24.0	15.0	10	2	6.0
2025-08-11T12:00	660	945	23.7	14.9	16	2	6.1
2025-08-11T12:00	680	943	23.5	14.9	20	2	6.1
2025-08-11T12:00	700	941	23.2	14.8	24	2	6.1
2025-08-11T12:00	720	938	23.1	14.8	25	2	6.0
2025-08-11T12:00	740	936	22.8	14.8	28	2	6.1
2025-08-11T12:00	760	934	22.7	14.7	32	1	6.1
2025-08-11T12:00	780	932	22.5	14.7	37	1	6.1
2025-08-11T12:00	800	930	22.3	14.7	42	2	6.1
2025-08-11T12:00	820	928	22.2	14.7	44	2	6.1
2025-08-11T12:00	840	926	22.0	14.7	42	2	6.0
2025-08-11T12:00	860	924	21.9	14.7	38	2	6.0
2025-08-11T12:00	880	922	21.7	14.7	34	2	6.1
2025-08-11T12:00	900	919	21.5	14.6	31	2	6.0
2025-08-11T12:00	920	917	21.4	14.5	28	2	6.0
2025-08-11T12:00	940	915	21.2	14.6	27	2	6.0
2025-08-11T12:00	960	913	21.1	14.7	28	2	6.0
2025-08-11T12:00	980	911	21.1	14.6	29	2	6.0
2025-08-11T12:00	1000	909	20.9	14.6	31	2	6.0
2025-08-11T12:00	1020	907	20.7	14.6	33	2	6.0
2025-08-11T12:00	1040	905	20.5	14.6	33	2	5.9
2025-08-11T12:00	1060	902	20.6	14.7	33	2	5.9
2025-08-11T12:00	1080	900	20.4	14.8	33	2	5.9
2025-08-11T12:00	1100	899	20.5	14.7	31	1	5.9
2025-08-11T12:00	1120	896	20.5	14.7	25	1	5.9
2025-08-11T12:00	1140	894	20.5	14.6	15	1	5.9
2025-08-11T12:00	1160	892	20.5	14.5	10	1	5.9
2025-08-11T12:00	1180	890	20.6	14.2	13	1	5.9
2025-08-11T12:00	1200	888	20.6	14.0	21	1	5.8
2025-08-11T12:00	1220	886	20.5	13.9	29	1	5.8
2025-08-11T12:00	1240	884	20.6	14.1	36	1	5.7
2025-08-11T12:00	1260	882	20.8	14.1	42	1	5.7
2025-08-11T12:00	1280	880	20.8	14.4	45	1	5.8
2025-08-11T12:00	1300	878	20.8	14.5	42	1	5.8
2025-08-11T12:00	1320	876	20.7	14.4	26	1	5.8
2025-08-11T12:00	1340	874	20.6	14.1	354	1	5.8
2025-08-11T12:00	1360	872	20.6	13.7	314	1	5.8
2025-08-11T12:00	1380	870	20.6	13.8	292	1	5.7
2025-08-11T12:00	1400	868	20.5	13.7	277	1	5.7
2025-08-11T12:00	1420	866	20.5	13.5	261	1	5.7
2025-08-11T12:00	1440	864	20.3	13.5	246	2	5.7
2025-08-11T12:00	1460	862	20.3	13.2	233	2	5.7
2025-08-11T12:00	1480	860	20.3	12.7	223	2	5.6
2025-08-11T12:00	1500	858	20.1	12.6	216	3	5.6
2025-08-11T12:00	1520	856	20.1	12.1	211	3	5.6
2025-08-11T12:00	1540	854	20.1	11.9	209	3	5.5
2025-08-11T12:00	1560	852	19.9	11.9	209	4	5.5
2025-08-11T12:00	1580	850	19.8	11.7	209	4	5.5
2025-08-11T12:00	1600	848	20.0	11.3	211	4	5.4
2025-08-11T12:00	1620	846	20.4	10.8	213	4	5.3
2025-08-11T12:00	1640	844	20.6	10.7	215	3	5.3
2025-08-11T12:00	1660	842	20.6	10.5	216	3	5.3
2025-08-11T12:00	1680	840	20.5	10.4	218	3	5.3
2025-08-11T12:00	1700	838	20.5	10.2	220	2	5.3
2025-08-11T12:00	1720	836	20.4	10.2	221	2	5.4
2025-08-11T12:00	1740	834	20.4	10.0	222	2	5.4
2025-08-11T12:00	1760	832	20.4	9.7	221	2	5.4
2025-08-11T12:00	1780	830	20.3	9.7	218	3	5.4
2025-08-11T12:00	1800	829	20.2	9.5	214	3	5.4
2025-08-11T12:00	1820	827	20.1	9.5	210	4	5.5
2025-08-11T12:00	1840	825	20.0	9.4	207	4	5.5
2025-08-11T12:00	1860	823	19.9	9.2	206	5	5.5
2025-08-11T12:00	1880	821	19.8	9.1	207	5	5.5
2025-08-11T12:00	1900	819	19.7	9.0	209	5	5.5
2025-08-11T12:00	1920	817	19.7	8.7	212	5	5.4
2025-08-11T12:00	1940	815	19.6	8.9	214	5	5.4
2025-08-11T12:00	1960	813	19.6	8.9	216	5	5.3
2025-08-11T12:00	1980	812	19.5	8.9	216	5	5.3
2025-08-11T12:00	2000	809	19.3	8.9	216	5	5.3
2025-08-11T12:00	2020	808	19.2	8.8	214	5	5.3
2025-08-11T12:00	2040	806	18.9	8.8	214	6	5.3
2025-08-11T12:00	2060	804	18.7	8.6	214	6	5.3
2025-08-11T12:00	2080	802	18.6	8.6	214	6	5.3
2025-08-11T12:00	2100	800	18.4	8.5	215	6	5.2
2025-08-11T12:00	2120	798	18.2	8.6	215	6	5.2
2025-08-11T12:00	2140	797	18.1	8.5	216	6	5.2
2025-08-11T12:00	2160	795	17.9	8.5	218	6	5.2
2025-08-11T12:00	2180	793	17.7	8.4	219	6	5.2
2025-08-11T12:00	2200	791	17.4	8.5	221	6	5.2
2025-08-11T12:00	2220	789	17.3	8.3	223	6	5.2
2025-08-11T12:00	2240	787	17.2	8.3	225	6	5.2
2025-08-11T12:00	2260	785	16.9	8.3	226	6	5.2
2025-08-11T12:00	2280	784	16.7	8.2	227	6	5.2
2025-08-11T12:00	2300	782	16.7	7.8	228	6	5.2
2025-08-11T12:00	2320	780	16.9	6.6	230	6	5.2
2025-08-11T12:00	2340	778	16.9	4.8	231	6	5.2
2025-08-11T12:00	2360	776	16.9	2.8	232	6	5.2
2025-08-11T12:00	2380	774	16.9	0.7	231	6	5.2
2025-08-11T12:00	2400	773	16.9	-2.2	231	6	5.1
2025-08-11T12:00	2420	771	16.9	-3.7	229	6	5.0
2025-08-11T12:00	2440	769	16.8	-4.1	228	7	4.9
2025-08-11T12:00	2460	767	16.7	-3.9	225	7	4.7
2025-08-11T12:00	2480	765	16.6	-3.1	223	7	4.6
2025-08-11T12:00	2500	764	16.3	-1.0	220	7	4.4
2025-08-11T12:00	2520	762	16.0	0.6	217	6	4.4
2025-08-11T12:00	2540	760	15.9	-0.6	216	6	4.4
2025-08-11T12:00	2560	758	15.9	-2.7	216	6	4.4
2025-08-11T12:00	2580	756	15.8	-4.1	217	6	4.3
2025-08-11T12:00	2600	755	15.7	-4.9	219	6	4.2
2025-08-11T12:00	2620	753	15.5	-5.2	222	6	4.2
2025-08-11T12:00	2640	751	15.4	-5.1	224	6	4.2
2025-08-11T12:00	2660	749	15.2	-5.1	225	7	4.1
2025-08-11T12:00	2680	748	15.0	-5.1	225	7	4.1
2025-08-11T12:00	2700	746	14.9	-4.8	225	7	4.1
2025-08-11T12:00	2720	744	14.7	-3.9	225	7	4.1
2025-08-11T12:00	2740	742	14.5	-3.6	224	7	4.1
2025-08-11T12:00	2760	740	14.4	-3.7	223	8	4.0
2025-08-11T12:00	2780	739	14.2	-3.8	222	8	4.0
2025-08-11T12:00	2800	737	14.1	-3.4	221	7	4.0
2025-08-11T12:00	2820	735	13.9	-2.3	221	7	4.0
2025-08-11T12:00	2840	733	13.7	-1.4	221	7	4.0
2025-08-11T12:00	2860	732	13.4	-1.1	221	7	4.1
2025-08-11T12:00	2880	730	13.2	-0.4	222	7	4.2
2025-08-11T12:00	2900	728	13.0	-0.2	224	7	4.2
2025-08-11T12:00	2920	727	12.9	-0.3	227	7	4.2
2025-08-11T12:00	2940	725	12.7	-0.6	229	7	4.3
2025-08-11T12:00	2960	723	12.5	-1.3	231	6	4.3
2025-08-11T12:00	2980	721	12.5	-2.2	234	6	4.3
2025-08-11T12:00	3000	720	12.4	-2.7	235	6	4.3
2025-08-11T12:00	3020	718	12.2	-3.1	237	6	4.3
2025-08-11T12:00	3040	716	12.0	-3.5	239	6	4.3
2025-08-11T12:00	3060	714	11.8	-3.8	240	6	4.2
2025-08-11T12:00	3080	713	11.7	-3.9	241	6	4.2
2025-08-11T12:00	3100	711	11.6	-4.2	241	6	4.1
2025-08-11T12:00	3120	710	11.5	-6.2	241	6	4.1
2025-08-11T12:00	3140	708	11.3	-7.2	241	6	4.1
2025-08-11T12:00	3160	706	11.1	-7.8	241	6	4.1
2025-08-11T12:00	3180	704	11.0	-8.0	240	6	4.2
2025-08-11T12:00	3200	703	10.9	-8.2	239	6	4.2
2025-08-11T12:00	3220	701	10.7	-8.2	238	6	4.2
2025-08-11T12:00	3240	699	10.5	-8.2	237	6	4.2
2025-08-11T12:00	3260	698	10.3	-8.3	236	6	4.3
2025-08-11T12:00	3280	696	10.2	-8.5	235	6	4.3
2025-08-11T12:00	3300	694	10.0	-8.5	235	6	4.3
2025-08-11T12:00	3320	693	9.7	-8.5	235	6	4.3
2025-08-11T12:00	3340	691	9.5	-8.6	236	6	4.3
2025-08-11T12:00	3360	689	9.3	-8.7	236	6	4.3
2025-08-11T12:00	3380	687	9.0	-8.8	236	6	4.3
2025-08-11T12:00	3400	686	8.9	-8.8	235	7	4.3
2025-08-11T12:00	3420	684	8.8	-8.9	235	7	4.3
2025-08-11T12:00	3440	683	8.6	-9.1	234	7	4.3
2025-08-11T12:00	3460	681	8.4	-9.4	234	7	4.3
2025-08-11T12:00	3480	679	8.3	-9.8	233	7	4.2
2025-08-11T12:00	3500	678	8.2	-10.0	233	7	4.3
2025-08-11T12:00	3520	676	8.0	-11.1	233	7	4.3
2025-08-11T12:00	3540	674	7.9	-11.4	234	7	4.3
2025-08-11T12:00	3560	673	7.9	-11.9	234	6	4.4
2025-08-11T12:00	3580	671	7.7	-12.2	234	6	4.5
2025-08-11T12:00	3600	670	7.5	-12.8	234	6	4.5
2025-08-11T12:00	3620	668	7.4	-13.7	234	6	4.5
2025-08-11T12:00	3640	666	7.4	-14.7	234	6	4.6
2025-08-11T12:00	3660	665	7.4	-19.2	233	6	4.6
2025-08-11T12:00	3680	663	7.6	-23.0	233	6	4.7
2025-08-11T12:00	3700	661	7.8	-23.0	232	6	4.8
2025-08-11T12:00	3720	660	7.8	-22.0	231	6	4.9
2025-08-11T12:00	3740	658	7.6	-21.9	231	6	5.0
2025-08-11T12:00	3760	657	7.4	-21.7	229	6	5.1
2025-08-11T12:00	3780	655	7.3	-19.1	228	6	5.2
2025-08-11T12:00	3800	653	7.4	-18.2	227	5	5.2
2025-08-11T12:00	3820	652	7.3	-16.2	227	5	5.2
2025-08-11T12:00	3840	650	7.1	-15.4	228	5	5.1
2025-08-11T12:00	3860	649	6.9	-15.6	230	5	5.0
2025-08-11T12:00	3880	647	6.8	-16.3	235	4	4.9
2025-08-11T12:00	3900	646	6.8	-17.7	240	4	4.7
2025-08-11T12:00	3920	644	6.7	-19.7	245	4	4.7
2025-08-11T12:00	3940	642	6.7	-20.5	249	4	4.7
2025-08-11T12:00	3960	641	6.8	-21.1	254	4	4.7
2025-08-11T12:00	3980	639	6.9	-22.3	257	4	4.8
2025-08-11T12:00	4000	638	6.8	-23.3	260	4	4.8
2025-08-11T12:00	4020	636	6.7	-25.4	264	4	4.8
2025-08-11T12:00	4040	635	6.6	-27.0	266	4	4.8
2025-08-11T12:00	4060	633	6.6	-27.6	269	4	4.9
2025-08-11T12:00	4080	632	6.5	-28.1	271	4	4.9
2025-08-11T12:00	4100	630	6.3	-28.4	272	4	5.0
2025-08-11T12:00	4120	628	6.2	-28.7	272	4	5.1
2025-08-11T12:00	4140	627	6.1	-28.7	271	4	5.1
2025-08-11T12:00	4160	625	6.0	-28.2	270	4	5.2
2025-08-11T12:00	4180	624	5.9	-27.9	269	4	5.2
2025-08-11T12:00	4200	622	5.7	-27.3	268	4	5.1
2025-08-11T12:00	4220	621	5.5	-26.5	266	4	5.1
2025-08-11T12:00	4240	619	5.3	-25.6	265	4	5.1
2025-08-11T12:00	4260	618	5.2	-25.5	264	4	5.2
2025-08-11T12:00	4280	616	5.0	-24.8	265	5	5.1
2025-08-11T12:00	4300	615	4.7	-24.2	265	5	5.2
2025-08-11T12:00	4320	613	4.5	-24.5	266	5	5.2
2025-08-11T12:00	4340	612	4.4	-24.7	266	5	5.2
2025-08-11T12:00	4360	610	4.2	-25.2	266	5	5.1
2025-08-11T12:00	4380	609	4.2	-25.6	265	5	5.1
2025-08-11T12:00	4400	607	4.1	-25.4	263	5	5.0
2025-08-11T12:00	4420	606	3.9	-25.4	261	5	5.0
2025-08-11T12:00	4440	604	3.8	-26.7	259	5	5.0
2025-08-11T12:00	4460	603	3.7	-28.9	256	5	5.0
2025-08-11T12:00	4480	601	3.6	-30.2	254	5	5.0
2025-08-11T12:00	4500	600	3.5	-31.0	252	5	5.0
2025-08-11T12:00	4520	598	3.5	-32.6	250	5	5.0
2025-08-11T12:00	4540	597	3.4	-32.3	250	4	5.0
2025-08-11T12:00	4560	595	3.2	-31.7	251	4	5.0
2025-08-11T12:00	4580	594	3.1	-32.3	252	4	5.0
2025-08-11T12:00	4600	592	3.0	-31.8	252	4	4.9
2025-08-11T12:00	4620	591	3.0	-32.1	252	4	4.9
2025-08-11T12:00	4640	589	2.9	-32.3	252	4	4.9
2025-08-11T12:00	4660	588	2.9	-32.7	252	4	4.9
2025-08-11T12:00	4680	586	2.9	-32.7	251	4	4.8
2025-08-11T12:00	4700	585	2.7	-32.4	250	4	4.8
2025-08-11T12:00	4720	584	2.5	-32.5	250	3	4.8
2025-08-11T12:00	4740	582	2.5	-32.5	250	3	4.8
2025-08-11T12:00	4760	581	2.5	-31.3	250	3	4.8
2025-08-11T12:00	4780	579	2.4	-30.2	251	3	4.8
2025-08-11T12:00	4800	578	2.2	-29.8	252	3	4.8
2025-08-11T12:00	4820	576	2.1	-26.5	253	2	4.8
2025-08-11T12:00	4840	575	1.9	-26.4	255	2	4.7
2025-08-11T12:00	4860	574	1.9	-27.2	256	2	4.7
2025-08-11T12:00	4880	572	1.8	-27.5	254	1	4.7
2025-08-11T12:00	4900	571	1.6	-27.3	251	1	4.7
2025-08-11T12:00	4920	569	1.4	-25.8	248	1	4.7
2025-08-11T12:00	4940	568	1.3	-24.5	246	1	4.7
2025-08-11T12:00	4960	567	1.2	-24.1	249	1	4.6
2025-08-11T12:00	4980	565	1.0	-24.2	252	0	4.6
2025-08-11T12:00	5000	564	0.7	-24.2	252	0	4.5
2025-08-11T12:00	5020	562	0.5	-24.3	248	1	4.4
2025-08-11T12:00	5040	561	0.5	-24.3	242	1	4.4
2025-08-11T12:00	5060	560	0.3	-24.0	236	1	4.3
2025-08-11T12:00	5080	558	0.0	-24.2	232	0	4.3
2025-08-11T12:00	5100	557	-0.2	-24.3	236	0	4.3
2025-08-11T12:00	5120	555	-0.4	-24.6	247	0	4.3
2025-08-11T12:00	5140	554	-0.6	-24.8	265	0	4.3
2025-08-11T12:00	5160	553	-0.8	-24.5	273	0	4.3
2025-08-11T12:00	5180	551	-0.9	-24.6	273	0	4.3
2025-08-11T12:00	5200	550	-1.0	-24.8	269	1	4.2
2025-08-11T12:00	5220	548	-1.2	-24.8	265	1	4.2
2025-08-11T12:00	5240	547	-1.4	-24.7	262	1	4.1
2025-08-11T12:00	5260	546	-1.6	-24.7	264	1	4.1
2025-08-11T12:00	5280	544	-1.7	-24.9	266	1	4.0
2025-08-11T12:00	5300	543	-1.8	-25.1	270	1	4.0
2025-08-11T12:00	5320	542	-2.1	-25.2	274	1	4.0
2025-08-11T12:00	5340	540	-2.4	-25.3	275	1	4.0
2025-08-11T12:00	5360	539	-2.5	-25.4	276	1	3.9
2025-08-11T12:00	5380	537	-2.6	-25.7	276	1	3.9
2025-08-11T12:00	5400	536	-2.7	-26.1	275	1	3.9
2025-08-11T12:00	5420	535	-2.9	-26.6	275	1	3.9
2025-08-11T12:00	5440	533	-3.2	-26.8	276	1	4.0
2025-08-11T12:00	5460	532	-3.3	-26.7	277	2	4.0
2025-08-11T12:00	5480	531	-3.5	-26.6	278	2	4.0
2025-08-11T12:00	5500	529	-3.6	-26.7	278	2	4.0
2025-08-11T12:00	5520	528	-3.8	-26.9	279	2	4.0
2025-08-11T12:00	5540	527	-4.1	-27.0	279	2	4.1
2025-08-11T12:00	5560	525	-4.3	-27.2	280	3	4.1
2025-08-11T12:00	5580	524	-4.3	-27.2	283	3	4.2
2025-08-11T12:00	5600	523	-4.6	-27.1	287	3	4.2
2025-08-11T12:00	5620	521	-4.8	-27.4	290	3	4.2
2025-08-11T12:00	5640	520	-5.0	-27.6	294	3	4.2
2025-08-11T12:00	5660	519	-5.1	-27.6	297	3	4.2
2025-08-11T12:00	5680	517	-5.3	-27.5	300	3	4.2
2025-08-11T12:00	5700	516	-5.5	-27.5	300	3	4.2
2025-08-11T12:00	5720	515	-5.6	-27.5	300	3	4.2
2025-08-11T12:00	5740	513	-5.7	-27.6	300	3	4.2
2025-08-11T12:00	5760	512	-5.9	-27.7	299	3	4.2
2025-08-11T12:00	5780	511	-6.2	-27.6	298	3	4.2
2025-08-11T12:00	5800	510	-6.4	-27.6	299	3	4.1
2025-08-11T12:00	5820	508	-6.6	-27.8	300	3	4.1
2025-08-11T12:00	5840	507	-6.8	-27.8	301	3	4.1
2025-08-11T12:00	5860	506	-7.0	-27.8	303	3	4.1
2025-08-11T12:00	5880	504	-7.3	-27.8	305	3	4.1
2025-08-11T12:00	5900	503	-7.4	-27.8	306	3	4.1
2025-08-11T12:00	5920	502	-7.5	-27.9	306	3	4.0
2025-08-11T12:00	5940	500	-7.8	-27.9	306	3	4.0
2025-08-11T12:00	5960	499	-7.9	-27.9	305	3	4.0
2025-08-11T12:00	5980	498	-8.0	-28.1	302	3	4.0
2025-08-11T12:00	6000	497	-8.1	-28.5	298	3	4.0
2025-08-11T12:00	6020	495	-8.3	-28.8	291	3	3.9
2025-08-11T12:00	6040	494	-8.6	-28.9	286	3	3.9
2025-08-11T12:00	6060	493	-8.7	-29.1	280	3	3.8
2025-08-11T12:00	6080	492	-8.8	-29.5	277	3	3.8
2025-08-11T12:00	6100	490	-9.0	-29.8	276	3	3.8
2025-08-11T12:00	6120	489	-9.3	-29.8	276	3	3.7
2025-08-11T12:00	6140	488	-9.4	-29.9	277	3	3.7
2025-08-11T12:00	6160	487	-9.5	-29.9	277	4	3.6
2025-08-11T12:00	6180	485	-9.7	-30.0	277	4	3.6
2025-08-11T12:00	6200	484	-10.0	-30.0	278	4	3.6
2025-08-11T12:00	6220	483	-10.2	-29.9	278	4	3.6
2025-08-11T12:00	6240	481	-10.3	-30.0	280	4	3.5
2025-08-11T12:00	6260	480	-10.4	-30.1	281	4	3.5
2025-08-11T12:00	6280	479	-10.6	-30.3	284	4	3.5
2025-08-11T12:00	6300	478	-10.8	-30.5	286	4	3.4
2025-08-11T12:00	6320	476	-11.0	-30.5	289	4	3.4
2025-08-11T12:00	6340	475	-11.2	-30.7	292	4	3.4
2025-08-11T12:00	6360	474	-11.3	-30.9	295	4	3.4
2025-08-11T12:00	6380	473	-11.4	-31.1	296	4	3.3
2025-08-11T12:00	6400	472	-11.7	-31.1	296	4	3.3
2025-08-11T12:00	6420	470	-12.0	-31.1	294	4	3.2
2025-08-11T12:00	6440	469	-12.2	-31.1	291	4	3.2
2025-08-11T12:00	6460	468	-12.3	-31.2	286	4	3.2
2025-08-11T12:00	6480	467	-12.4	-31.2	283	4	3.1
2025-08-11T12:00	6500	465	-12.5	-31.2	280	4	3.1
2025-08-11T12:00	6520	464	-12.8	-31.6	276	4	3.1
2025-08-11T12:00	6540	463	-12.9	-31.5	275	4	3.1
2025-08-11T12:00	6560	462	-13.0	-31.6	276	4	3.1
2025-08-11T12:00	6580	460	-13.2	-31.6	281	4	3.1
2025-08-11T12:00	6600	459	-13.4	-31.9	287	4	3.1
2025-08-11T12:00	6620	458	-13.6	-32.0	293	4	3.0
2025-08-11T12:00	6640	457	-13.8	-32.1	297	4	3.0
2025-08-11T12:00	6660	456	-14.0	-31.7	301	4	3.0
2025-08-11T12:00	6680	454	-14.2	-31.5	302	4	2.9
2025-08-11T12:00	6700	453	-14.3	-31.6	303	4	2.9
2025-08-11T12:00	6720	452	-14.4	-31.6	303	3	2.8
2025-08-11T12:00	6740	451	-14.7	-31.7	301	3	2.8
2025-08-11T12:00	6760	450	-15.0	-31.8	299	3	2.8
2025-08-11T12:00	6780	448	-15.2	-32.0	296	3	2.8
2025-08-11T12:00	6800	447	-15.3	-32.0	294	3	2.8
2025-08-11T12:00	6820	446	-15.4	-32.2	290	4	2.7
2025-08-11T12:00	6840	445	-15.7	-32.6	287	4	2.7
2025-08-11T12:00	6860	444	-15.9	-32.8	284	4	2.7
2025-08-11T12:00	6880	443	-16.1	-32.9	280	4	2.7
2025-08-11T12:00	6900	441	-16.3	-33.0	277	4	2.7
2025-08-11T12:00	6920	440	-16.3	-33.3	276	4	2.7
2025-08-11T12:00	6940	439	-16.5	-33.4	276	4	2.6
2025-08-11T12:00	6960	438	-16.7	-33.4	278	4	2.6
2025-08-11T12:00	6980	437	-16.9	-33.4	281	4	2.6
2025-08-11T12:00	7000	436	-17.2	-33.6	284	4	2.6
2025-08-11T12:00	7020	434	-17.3	-33.7	285	4	2.6
2025-08-11T12:00	7040	433	-17.4	-33.7	286	4	2.5
2025-08-11T12:00	7060	432	-17.6	-33.7	285	4	2.5
2025-08-11T12:00	7080	431	-17.7	-33.6	284	4	2.5
2025-08-11T12:00	7100	430	-18.0	-33.7	284	4	2.5
2025-08-11T12:00	7120	429	-18.1	-34.1	283	4	2.5
2025-08-11T12:00	7140	427	-18.2	-34.5	283	4	2.5
2025-08-11T12:00	7160	426	-18.4	-34.5	283	4	2.5
2025-08-11T12:00	7180	425	-18.6	-34.5	283	4	2.5
2025-08-11T12:00	7200	424	-18.7	-34.7	282	4	2.5
2025-08-11T12:00	7220	423	-18.8	-35.1	281	4	2.5
2025-08-11T12:00	7240	422	-18.9	-35.2	279	4	2.5
2025-08-11T12:00	7260	421	-19.0	-35.0	276	4	2.5
2025-08-11T12:00	7280	420	-19.3	-34.9	274	4	2.5
2025-08-11T12:00	7300	418	-19.5	-35.0	273	4	2.5
2025-08-11T12:00	7320	417	-19.6	-35.4	273	4	2.5
2025-08-11T12:00	7340	416	-19.8	-35.7	276	4	2.5
2025-08-11T12:00	7360	415	-20.0	-35.8	282	4	2.5
2025-08-11T12:00	7380	414	-20.3	-35.8	289	4	2.5
2025-08-11T12:00	7400	413	-20.5	-36.0	294	4	2.5
2025-08-11T12:00	7420	412	-20.5	-36.4	300	4	2.5
2025-08-11T12:00	7440	411	-20.6	-37.0	305	4	2.5
2025-08-11T12:00	7460	410	-20.6	-37.9	309	3	2.5
2025-08-11T12:00	7480	408	-20.6	-39.6	311	3	2.6
2025-08-11T12:00	7500	407	-20.7	-39.6	312	3	2.6
2025-08-11T12:00	7520	406	-20.8	-35.4	310	3	2.8
2025-08-11T12:00	7540	405	-20.9	-34.1	306	3	2.9
2025-08-11T12:00	7560	404	-21.1	-34.4	301	3	2.9
2025-08-11T12:00	7580	403	-21.2	-34.4	297	4	2.9
2025-08-11T12:00	7600	402	-21.4	-34.1	293	4	3.0
2025-08-11T12:00	7620	401	-21.6	-34.2	290	4	3.0
2025-08-11T12:00	7640	400	-21.7	-34.3	287	4	3.0
2025-08-11T12:00	7660	398	-21.9	-34.4	284	4	3.1
2025-08-11T12:00	7680	397	-22.1	-34.5	284	4	3.1
2025-08-11T12:00	7700	396	-22.2	-34.7	285	4	3.1
2025-08-11T12:00	7720	395	-22.4	-34.7	287	4	3.1
2025-08-11T12:00	7740	394	-22.4	-34.9	290	4	3.1
2025-08-11T12:00	7760	393	-22.5	-35.7	295	4	3.1
2025-08-11T12:00	7780	392	-22.7	-36.4	299	4	3.1
2025-08-11T12:00	7800	391	-23.0	-36.4	304	5	3.0
2025-08-11T12:00	7820	390	-23.2	-36.5	307	5	3.1
2025-08-11T12:00	7840	389	-23.3	-36.9	308	5	3.1
2025-08-11T12:00	7860	388	-23.3	-37.5	307	5	3.1
2025-08-11T12:00	7880	387	-23.4	-37.6	304	5	3.1
2025-08-11T12:00	7900	386	-23.5	-37.7	300	5	3.1
2025-08-11T12:00	7920	385	-23.7	-37.7	297	5	3.1
2025-08-11T12:00	7940	384	-23.9	-37.8	295	5	3.0
2025-08-11T12:00	7960	382	-24.1	-38.0	293	5	3.1
2025-08-11T12:00	7980	381	-24.2	-37.8	293	5	3.1
2025-08-11T12:00	8000	380	-24.3	-37.3	293	6	3.0
2025-08-11T12:00	8020	379	-24.5	-37.1	293	6	3.1
2025-08-11T12:00	8040	378	-24.6	-37.1	294	6	3.1
2025-08-11T12:00	8060	377	-24.8	-37.2	294	6	3.1
2025-08-11T12:00	8080	376	-25.0	-37.2	293	6	3.1
2025-08-11T12:00	8100	375	-25.2	-37.3	292	5	3.0
2025-08-11T12:00	8120	374	-25.4	-37.2	291	6	3.0
2025-08-11T12:00	8140	373	-25.7	-37.1	290	6	3.1
2025-08-11T12:00	8160	372	-25.8	-37.4	289	6	3.0
2025-08-11T12:00	8180	371	-26.0	-37.4	287	6	3.0
2025-08-11T12:00	8200	370	-26.1	-37.3	286	6	3.0
2025-08-11T12:00	8220	369	-26.3	-37.3	284	6	3.0
2025-08-11T12:00	8240	368	-26.5	-37.0	283	7	3.0
2025-08-11T12:00	8260	367	-26.5	-37.1	283	7	3.0
2025-08-11T12:00	8280	366	-26.6	-37.3	282	7	3.0
2025-08-11T12:00	8300	365	-26.8	-37.3	282	7	3.0
2025-08-11T12:00	8320	364	-27.1	-37.3	283	7	3.0
2025-08-11T12:00	8340	363	-27.2	-37.6	284	7	3.0
2025-08-11T12:00	8360	362	-27.3	-37.7	285	7	3.0
2025-08-11T12:00	8380	361	-27.4	-37.7	286	7	2.9
2025-08-11T12:00	8400	360	-27.7	-37.7	287	7	2.9
2025-08-11T12:00	8420	359	-27.9	-37.5	288	7	2.9
2025-08-11T12:00	8440	358	-28.1	-37.5	289	7	2.8
2025-08-11T12:00	8460	357	-28.2	-37.3	290	7	2.8
2025-08-11T12:00	8480	356	-28.4	-37.2	289	7	2.8
2025-08-11T12:00	8500	355	-28.6	-37.3	288	7	2.8
2025-08-11T12:00	8520	354	-28.8	-37.5	287	7	2.7
2025-08-11T12:00	8540	353	-29.0	-37.8	286	8	2.7
2025-08-11T12:00	8560	352	-29.2	-38.5	285	8	2.6
2025-08-11T12:00	8580	351	-29.3	-39.2	284	8	2.6
2025-08-11T12:00	8600	350	-29.4	-39.2	282	8	2.6
2025-08-11T12:00	8620	349	-29.5	-39.1	282	8	2.6
2025-08-11T12:00	8640	348	-29.7	-39.1	281	8	2.6
2025-08-11T12:00	8660	347	-29.8	-39.5	280	8	2.6
2025-08-11T12:00	8680	346	-30.0	-40.0	279	8	2.6
2025-08-11T12:00	8700	345	-30.1	-39.9	278	8	2.6
2025-08-11T12:00	8720	344	-30.2	-40.5	277	8	2.6
2025-08-11T12:00	8740	343	-30.4	-40.9	275	8	2.6
2025-08-11T12:00	8760	342	-30.6	-41.1	273	8	2.6
2025-08-11T12:00	8780	341	-30.7	-41.4	272	8	2.6
2025-08-11T12:00	8800	340	-30.8	-41.4	271	8	2.6
2025-08-11T12:00	8820	339	-31.0	-41.4	272	8	2.6
2025-08-11T12:00	8840	338	-31.2	-41.8	273	8	2.6
2025-08-11T12:00	8860	337	-31.3	-42.7	274	7	2.6
2025-08-11T12:00	8880	336	-31.2	-44.1	276	7	2.6
2025-08-11T12:00	8900	336	-31.2	-44.3	278	7	2.6
2025-08-11T12:00	8920	335	-31.5	-44.0	280	7	2.7
2025-08-11T12:00	8940	334	-31.6	-44.4	280	8	2.7
2025-08-11T12:00	8960	333	-31.5	-45.0	279	8	2.8
2025-08-11T12:00	8980	332	-31.8	-44.7	278	8	2.8
2025-08-11T12:00	9000	331	-31.9	-44.9	278	8	2.9
2025-08-11T12:00	9020	330	-32.1	-45.2	278	9	2.9
2025-08-11T12:00	9040	329	-32.3	-45.1	279	9	2.9
2025-08-11T12:00	9060	328	-32.5	-45.3	280	9	2.9
2025-08-11T12:00	9080	327	-32.5	-45.4	280	9	2.9
2025-08-11T12:00	9100	326	-32.7	-45.4	280	9	2.9
2025-08-11T12:00	9120	325	-32.9	-45.4	280	9	2.9
2025-08-11T12:00	9140	324	-33.0	-45.8	278	9	2.9
2025-08-11T12:00	9160	323	-33.2	-45.9	275	9	2.9
2025-08-11T12:00	9180	323	-33.2	-46.4	272	9	2.9
2025-08-11T12:00	9200	322	-33.3	-47.0	271	9	2.9
2025-08-11T12:00	9220	321	-33.4	-47.1	269	9	2.9
2025-08-11T12:00	9240	320	-33.5	-47.3	269	9	2.9
2025-08-11T12:00	9260	319	-33.7	-47.2	269	10	2.9
2025-08-11T12:00	9280	318	-34.0	-47.3	269	10	2.9
2025-08-11T12:00	9300	317	-34.0	-48.1	270	9	2.9
2025-08-11T12:00	9320	316	-34.0	-48.6	269	9	2.9
2025-08-11T12:00	9340	315	-34.2	-48.9	267	9	2.9
2025-08-11T12:00	9360	314	-34.3	-49.2	265	9	2.9
2025-08-11T12:00	9380	313	-34.4	-49.5	263	8	2.9
2025-08-11T12:00	9400	313	-34.6	-50.0	260	8	2.8
2025-08-11T12:00	9420	312	-34.8	-50.4	256	8	2.8
2025-08-11T12:00	9440	311	-34.8	-50.6	254	9	2.8
2025-08-11T12:00	9460	310	-34.9	-51.0	252	9	2.8
2025-08-11T12:00	9480	309	-34.9	-51.5	252	9	2.8
2025-08-11T12:00	9500	308	-34.9	-52.2	252	9	2.8
2025-08-11T12:00	9520	307	-35.1	-52.7	253	10	2.8
2025-08-11T12:00	9540	306	-35.1	-53.2	255	10	2.8
2025-08-11T12:00	9560	306	-35.1	-53.6	257	10	2.8
2025-08-11T12:00	9580	305	-35.4	-53.5	259	10	2.8
2025-08-11T12:00	9600	304	-35.6	-53.4	261	9	2.7
2025-08-11T12:00	9620	303	-35.7	-53.7	263	9	2.7
2025-08-11T12:00	9640	302	-35.9	-53.8	265	9	2.7
2025-08-11T12:00	9660	301	-36.0	-54.0	268	9	2.7
2025-08-11T12:00	9680	300	-36.0	-54.7	271	9	2.7
2025-08-11T12:00	9700	299	-36.0	-55.5	272	9	2.7
2025-08-11T12:00	9720	299	-35.9	-56.0	275	9	2.7
2025-08-11T12:00	9740	298	-35.9	-56.1	278	9	2.7
2025-08-11T12:00	9760	297	-36.0	-56.2	279	9	2.7
2025-08-11T12:00	9780	296	-36.1	-56.1	281	9	2.7
2025-08-11T12:00	9800	295	-36.3	-56.1	283	9	2.7
2025-08-11T12:00	9820	294	-36.4	-56.2	285	9	2.7
2025-08-11T12:00	9840	293	-36.5	-56.4	286	9	2.7
2025-08-11T12:00	9860	293	-36.7	-56.5	287	9	2.7
2025-08-11T12:00	9880	292	-36.9	-56.6	288	9	2.7
2025-08-11T12:00	9900	291	-37.1	-56.6	289	9	2.7
2025-08-11T12:00	9920	290	-37.2	-56.6	290	9	2.7
2025-08-11T12:00	9940	289	-37.4	-57.0	292	9	2.7
2025-08-11T12:00	9960	288	-37.6	-57.1	293	9	2.7
2025-08-11T12:00	9980	288	-37.7	-57.3	294	9	2.6
2025-08-11T12:00	10000	287	-37.8	-57.4	296	9	2.6
2025-08-11T12:00	10018	286	-37.9	-57.2	297	9	2.6
2025-08-11T12:00	10050	285	-38.1	-56.4	298	10	2.6
2025-08-11T12:00	10100	283	-38.5	-55.4	299	10	2.5
2025-08-11T12:00	10150	281	-38.9	-55.4	297	11	2.4
2025-08-11T12:00	10200	278	-39.3	-55.0	295	11	2.3
2025-08-11T12:00	10250	276	-39.6	-54.8	293	12	2.1
2025-08-11T12:00	10300	274	-40.1	-54.5	292	12	2.0
2025-08-11T12:00	10350	272	-40.5	-55.1	291	11	2.0
2025-08-11T12:00	10400	270	-40.9	-55.2	291	11	1.9
2025-08-11T12:00	10450	269	-41.3	-55.4	291	10	1.9
2025-08-11T12:00	10500	266	-41.7	-56.3	292	10	1.8
2025-08-11T12:00	10550	264	-42.0	-58.0	292	9	1.8
2025-08-11T12:00	10600	262	-42.4	-59.8	295	9	1.9
2025-08-11T12:00	10650	261	-42.7	-60.0	297	9	1.9
2025-08-11T12:00	10700	259	-43.1	-60.2	296	9	1.9
2025-08-11T12:00	10750	257	-43.6	-60.4	294	9	1.9
2025-08-11T12:00	10800	255	-43.9	-60.7	296	9	2.0
2025-08-11T12:00	10850	253	-44.2	-60.9	298	10	2.0
2025-08-11T12:00	10900	251	-44.5	-61.3	300	10	2.0
2025-08-11T12:00	10950	249	-44.8	-61.4	301	10	1.9
2025-08-11T12:00	11000	247	-45.1	-61.5	302	9	2.0
2025-08-11T12:00	11050	245	-45.5	-61.4	303	9	2.0
2025-08-11T12:00	11100	244	-46.0	-61.4	303	9	2.0
2025-08-11T12:00	11150	242	-46.3	-61.8	302	9	2.0
2025-08-11T12:00	11200	240	-46.5	-62.0	302	9	2.0
2025-08-11T12:00	11250	238	-46.9	-61.7	302	9	2.1
2025-08-11T12:00	11300	236	-47.1	-61.9	301	9	2.0
2025-08-11T12:00	11350	235	-47.5	-62.1	300	9	2.0
2025-08-11T12:00	11400	233	-47.7	-63.2	299	8	2.0
2025-08-11T12:00	11450	231	-48.1	-63.7	299	7	2.0
2025-08-11T12:00	11500	229	-48.4	-63.4	301	6	2.0
2025-08-11T12:00	11550	228	-48.7	-63.9	304	6	2.0
2025-08-11T12:00	11600	226	-49.1	-63.9	305	6	2.0
2025-08-11T12:00	11650	224	-49.4	-64.1	303	6	2.0
2025-08-11T12:00	11700	222	-49.6	-64.3	299	6	2.0
2025-08-11T12:00	11750	221	-49.8	-64.5	297	5	2.0
2025-08-11T12:00	11800	219	-50.0	-65.0	298	5	2.1
2025-08-11T12:00	11850	217	-50.3	-65.5	296	6	2.3
2025-08-11T12:00	11900	216	-50.7	-66.0	293	6	2.4
2025-08-11T12:00	11950	214	-51.0	-67.1	293	6	2.4
2025-08-11T12:00	12000	212	-51.3	-69.5	297	6	2.4
2025-08-11T12:00	12050	211	-50.9	-73.3	302	7	2.3
2025-08-11T12:00	12100	209	-50.8	-73.0	306	7	2.0
2025-08-11T12:00	12150	208	-50.9	-72.1	307	6	1.8
2025-08-11T12:00	12200	206	-50.9	-72.2	305	6	1.6
2025-08-11T12:00	12250	205	-51.3	-72.4	305	6	1.6
2025-08-11T12:00	12300	203	-51.5	-72.5	310	6	1.6
2025-08-11T12:00	12350	201	-51.5	-72.9	318	6	1.5
2025-08-11T12:00	12400	200	-51.6	-73.3	322	5	1.5
2025-08-11T12:00	12450	198	-51.6	-73.7	324	5	1.5
2025-08-11T12:00	12500	197	-51.9	-73.9	329	5	1.4
2025-08-11T12:00	12550	195	-52.2	-74.0	335	4	1.4
2025-08-11T12:00	12600	194	-52.2	-74.4	339	4	1.4
2025-08-11T12:00	12650	192	-52.4	-74.7	344	3	1.4
2025-08-11T12:00	12700	191	-52.6	-74.9	348	3	1.4
2025-08-11T12:00	12750	189	-53.0	-75.0	351	3	1.4
2025-08-11T12:00	12800	188	-53.2	-75.1	350	4	1.4
2025-08-11T12:00	12850	186	-53.3	-75.4	351	4	1.4
2025-08-11T12:00	12900	185	-53.5	-75.6	357	3	1.4
2025-08-11T12:00	12950	184	-53.8	-75.8	0	3	1.4
2025-08-11T12:00	13000	182	-54.1	-76.0	2	2	1.4
2025-08-11T12:00	13050	181	-54.4	-76.0	3	1	1.4
2025-08-11T12:00	13100	179	-54.8	-76.2	244	0	1.4
2025-08-11T12:00	13150	178	-55.0	-76.6	231	1	1.4
2025-08-11T12:00	13200	176	-55.3	-77.1	256	1	1.4
2025-08-11T12:00	13250	175	-55.5	-77.5	285	1	1.5
2025-08-11T12:00	13300	174	-55.7	-77.9	315	2	1.5
2025-08-11T12:00	13350	172	-55.7	-78.0	341	2	1.6
2025-08-11T12:00	13400	171	-56.0	-78.2	1	3	1.6
2025-08-11T12:00	13450	170	-56.2	-78.4	17	2	1.7
2025-08-11T12:00	13500	168	-56.4	-78.5	40	2	1.7
2025-08-11T12:00	13550	167	-56.6	-78.5	83	1	1.7
2025-08-11T12:00	13600	166	-57.0	-78.5	129	2	1.7
2025-08-11T12:00	13650	164	-57.2	-78.0	159	2	1.7
2025-08-11T12:00	13700	163	-57.6	-77.5	181	2	1.8
2025-08-11T12:00	13750	162	-58.1	-77.2	202	2	1.8
2025-08-11T12:00	13800	161	-58.5	-76.7	222	2	1.9
2025-08-11T12:00	13850	159	-58.8	-76.4	236	2	1.9
2025-08-11T12:00	13900	158	-58.9	-76.7	243	3	2.0
2025-08-11T12:00	13950	157	-58.8	-77.7	242	3	1.9
2025-08-11T12:00	14000	155	-58.7	-78.5	242	3	1.9
2025-08-11T12:00	14050	154	-58.6	-78.9	255	3	1.9
2025-08-11T12:00	14100	153	-58.9	-79.2	276	3	1.9
2025-08-11T12:00	14150	152	-59.1	-79.5	286	4	1.9
2025-08-11T12:00	14200	151	-59.2	-80.1	288	4	1.9
2025-08-11T12:00	14250	149	-59.1	-80.5	282	3	1.9
2025-08-11T12:00	14300	148	-59.1	-80.9	265	3	1.9
2025-08-11T12:00	14350	147	-59.2	-81.5	247	3	2.0
2025-08-11T12:00	14400	146	-59.3	-82.0	235	4	1.9
2025-08-11T12:00	14450	145	-59.8	-82.3	230	4	1.7
2025-08-11T12:00	14500	144	-60.0	-82.2	236	4	1.7
2025-08-11T12:00	14550	142	-60.2	-82.1	249	4	1.6
2025-08-11T12:00	14600	141	-60.5	-82.0	264	4	1.6
2025-08-11T12:00	14650	140	-60.6	-81.9	282	3	1.7
2025-08-11T12:00	14700	139	-60.8	-82.1	294	3	1.7
2025-08-11T12:00	14750	138	-60.9	-82.4	293	3	1.8
2025-08-11T12:00	14800	137	-60.7	-82.2	284	4	1.8
2025-08-11T12:00	14850	136	-60.8	-81.9	280	4	1.9
2025-08-11T12:00	14900	135	-60.6	-81.8	282	4	2.1
2025-08-11T12:00	14950	134	-60.6	-82.0	282	3	2.3
2025-08-11T12:00	15000	132	-60.8	-82.3	271	2	2.4
2025-08-11T12:00	15050	131	-60.6	-82.3	246	2	2.4
2025-08-11T12:00	15100	130	-60.6	-82.5	235	3	2.5
2025-08-11T12:00	15150	129	-60.6	-82.4	241	4	2.5
2025-08-11T12:00	15200	128	-60.6	-82.4	249	5	2.6
2025-08-11T12:00	15250	127	-60.7	-82.3	257	6	2.6
2025-08-11T12:00	15300	126	-60.6	-82.3	259	5	2.8
2025-08-11T12:00	15350	125	-60.6	-82.6	253	5	2.8
2025-08-11T12:00	15400	124	-60.3	-82.7	251	5	2.8
2025-08-11T12:00	15450	123	-60.2	-83.0	260	5	2.9
2025-08-11T12:00	15500	122	-60.5	-83.3	274	5	2.9
2025-08-11T12:00	15550	121	-60.6	-83.4	286	5	2.9
2025-08-11T12:00	15600	120	-60.6	-83.5	293	5	3.0
2025-08-11T12:00	15650	119	-60.7	-83.5	293	5	3.0
2025-08-11T12:00	15700	118	-61.1	-83.6	287	4	3.0
2025-08-11T12:00	15750	117	-61.1	-83.5	273	4	3.0
2025-08-11T12:00	15800	116	-61.3	-83.5	261	4	3.0
2025-08-11T12:00	15850	116	-61.7	-83.6	255	5	3.0
2025-08-11T12:00	15900	115	-62.0	-83.6	251	5	2.9
2025-08-11T12:00	15950	114	-62.4	-83.7	249	6	2.8
2025-08-11T12:00	16000	113	-62.6	-84.0	251	6	2.7
2025-08-11T12:00	16050	112	-62.4	-84.2	254	6	2.7
2025-08-11T12:00	16100	111	-61.8	-84.2	260	6	2.8
2025-08-11T12:00	16150	110	-61.8	-84.3	262	7	3.0
2025-08-11T12:00	16200	109	-61.9	-84.4	260	8	3.1
2025-08-11T12:00	16250	108	-61.5	-84.3	260	8	3.1
2025-08-11T12:00	16300	107	-61.4	-84.3	260	8	3.3
2025-08-11T12:00	16350	107	-61.5	-84.3	260	7	3.3
2025-08-11T12:00	16400	106	-61.7	-84.3	253	6	3.3
2025-08-11T12:00	16450	105	-61.8	-84.5	240	6	3.4
2025-08-11T12:00	16500	104	-61.6	-84.4	231	6	3.5
2025-08-11T12:00	16550	103	-61.9	-84.5	231	5	3.5
2025-08-11T12:00	16600	102	-62.3	-84.6	236	5	3.5
2025-08-11T12:00	16650	102	-62.2	-84.6	241	5	3.6
2025-08-11T12:00	16700	101	-62.5	-84.7	243	5	3.6
2025-08-11T12:00	16750	100	-62.8	-84.8	248	5	3.6
2025-08-11T12:00	16800	99	-62.9	-85.0	253	6	3.6
2025-08-11T12:00	16850	98	-62.6	-85.1	256	7	3.7
2025-08-11T12:00	16900	97	-62.3	-85.2	261	8	3.9
2025-08-11T12:00	16950	97	-62.4	-85.4	263	8	4.2
2025-08-11T12:00	17000	96	-62.4	-85.4	264	8	4.3
2025-08-11T12:00	17050	95	-62.2	-85.4	269	8	4.4
2025-08-11T12:00	17100	94	-62.0	-85.4	278	8	4.5
2025-08-11T12:00	17150	94	-62.2	-85.5	286	7	4.7
2025-08-11T12:00	17200	93	-62.4	-85.6	288	7	4.8
2025-08-11T12:00	17250	92	-62.5	-85.7	285	6	5.0
2025-08-11T12:00	17300	91	-62.7	-85.8	279	5	5.2
2025-08-11T12:00	17350	91	-63.0	-85.9	269	5	5.3
2025-08-11T12:00	17400	90	-62.7	-85.8	259	5	5.3
2025-08-11T12:00	17450	89	-62.7	-86.0	250	5	5.3
2025-08-11T12:00	17500	88	-62.4	-85.9	246	5	5.3
2025-08-11T12:00	17550	88	-62.5	-86.0	250	5	5.4
2025-08-11T12:00	17600	87	-62.8	-86.1	260	5	5.5
2025-08-11T12:00	17650	86	-62.9	-86.1	269	5	5.5
2025-08-11T12:00	17700	86	-63.0	-86.2	272	5	5.6
2025-08-11T12:00	17750	85	-62.6	-86.2	267	5	5.7
2025-08-11T12:00	17800	84	-62.4	-86.2	264	4	5.9
2025-08-11T12:00	17850	84	-62.6	-86.4	266	4	6.0
2025-08-11T12:00	17900	83	-62.2	-86.3	266	5	6.1
2025-08-11T12:00	17950	82	-62.1	-86.3	266	5	6.3
2025-08-11T12:00	18000	82	-62.0	-86.2	267	4	6.2
2025-08-11T12:00	18050	81	-61.9	-86.3	263	4	6.0
2025-08-11T12:00	18100	80	-61.6	-86.3	252	4	5.9
2025-08-11T12:00	18150	80	-61.4	-86.2	249	3	5.9
2025-08-11T12:00	18200	79	-61.3	-86.3	256	2	5.9
2025-08-11T12:00	18250	78	-61.2	-86.2	245	2	5.9
2025-08-11T12:00	18300	78	-61.1	-86.3	234	4	5.9
2025-08-11T12:00	18350	77	-60.8	-86.1	232	5	6.1
2025-08-11T12:00	18400	76	-60.9	-86.1	236	6	6.3
2025-08-11T12:00	18450	76	-61.2	-86.1	242	6	6.4
2025-08-11T12:00	18500	75	-61.4	-86.3	251	7	6.6
2025-08-11T12:00	18550	75	-61.3	-86.3	260	7	6.6
2025-08-11T12:00	18600	74	-61.2	-86.3	272	6	6.7
2025-08-11T12:00	18650	73	-61.1	-86.2	286	6	6.8
2025-08-11T12:00	18700	73	-61.1	-86.3	296	5	6.9
2025-08-11T12:00	18750	72	-61.1	-86.4	307	4	7.0
2025-08-11T12:00	18800	72	-60.9	-86.5	323	3	7.2
2025-08-11T12:00	18850	71	-60.5	-86.4	338	2	7.3
2025-08-11T12:00	18900	71	-60.0	-86.3	341	2	7.5
2025-08-11T12:00	18950	70	-59.6	-86.1	342	2	7.8
2025-08-11T12:00	19000	69	-59.7	-85.9	339	2	8.1
2025-08-11T12:00	19050	69	-60.0	-85.9	325	1	8.2
2025-08-11T12:00	19100	68	-60.2	-85.9	324	2	8.3
2025-08-11T12:00	19150	68	-60.2	-86.1	333	2	8.4
2025-08-11T12:00	19200	67	-60.1	-86.1	344	2	8.4
2025-08-11T12:00	19250	67	-60.0	-86.0	3	2	8.5
2025-08-11T12:00	19300	66	-60.2	-86.0	51	1	8.5
2025-08-11T12:00	19350	66	-60.4	-86.2	111	2	8.5
2025-08-11T12:00	19400	65	-60.3	-86.2	135	2	8.6
2025-08-11T12:00	19450	65	-60.1	-86.1	151	2	8.5
2025-08-11T12:00	19500	64	-60.2	-86.2	169	3	8.5
2025-08-11T12:00	19550	64	-60.3	-86.4	184	3	8.5
2025-08-11T12:00	19600	63	-59.7	-86.2	194	4	8.5
2025-08-11T12:00	19650	63	-59.4	-86.0	200	5	8.6
2025-08-11T12:00	19700	62	-59.7	-86.0	209	5	8.8
2025-08-11T12:00	19750	62	-60.2	-86.0	222	5	8.9
2025-08-11T12:00	19800	61	-60.6	-86.1	233	5	8.9
2025-08-11T12:00	19850	61	-60.7	-86.3	243	4	8.9
2025-08-11T12:00	19900	60	-60.5	-86.3	254	3	8.9
2025-08-11T12:00	19950	60	-60.5	-86.5	271	2	9.0
2025-08-11T12:00	20000	59	-60.3	-86.4	298	1	9.0
2025-08-11T12:00	20050	59	-60.1		312	1	9.1
2025-08-11T12:00	20100	58	-60.1		304	1	9.0
2025-08-11T12:00	20150	58	-60.0		289	1	8.9
2025-08-11T12:00	20200	57	-59.9		285	1	8.8
2025-08-11T12:00	20250	57	-60.0		273	1	8.8
2025-08-11T12:00	20300	56	-60.1		160	1	8.7
2025-08-11T12:00	20350	56	-60.2		148	1	8.7
2025-08-11T12:00	20400	55	-60.3		154	2	8.8
2025-08-11T12:00	20450	55	-60.1		163	3	8.8
2025-08-11T12:00	20500	55	-59.4		176	3	8.9
2025-08-11T12:00	20550	54	-59.5		198	3	8.9
2025-08-11T12:00	20600	54	-59.8		226	2	8.9
2025-08-11T12:00	20650	53	-59.9		255	1	9.0
2025-08-11T12:00	20700	53	-59.6		326	1	9.1
2025-08-11T12:00	20750	52	-59.5		4	1	9.3
2025-08-11T12:00	20800	52	-59.2		7	1	9.5
2025-08-11T12:00	20850	52	-59.1		13	2	9.6
2025-08-11T12:00	20900	51	-59.1		16	3	9.7
2025-08-11T12:00	20950	51	-59.1		15	4	9.9
2025-08-11T12:00	21000	50	-59.3		20	5	9.9
2025-08-11T12:00	21050	50	-59.4		35	5	9.9
2025-08-11T12:00	21100	50	-59.1		54	6	10.0
2025-08-11T12:00	21150	49	-59.0		70	6	10.1
2025-08-11T12:00	21200	49	-58.6		79	5	10.1
2025-08-11T12:00	21250	48	-58.5		81	4	10.3
2025-08-11T12:00	21300	48	-58.7		76	3	10.3
2025-08-11T12:00	21350	48	-58.9		63	3	10.3
2025-08-11T12:00	21400	47	-59.0		49	3	10.4
2025-08-11T12:00	21450	47	-59.2		46	3	10.4
2025-08-11T12:00	21500	47	-59.1		50	2	10.4
2025-08-11T12:00	21550	46	-59.0		55	2	10.5
2025-08-11T12:00	21600	46	-58.7		58	2	10.6
2025-08-11T12:00	21650	45	-58.6		58	3	10.6
2025-08-11T12:00	21700	45	-58.4		55	5	10.6
2025-08-11T12:00	21750	45	-58.1		53	6	10.8
2025-08-11T12:00	21800	44	-58.0		55	7	10.9
2025-08-11T12:00	21850	44	-57.7		62	9	11.0
2025-08-11T12:00	21900	44	-57.3		70	9	11.1
2025-08-11T12:00	21950	43	-57.0		77	9	11.3
2025-08-11T12:00	22000	43	-57.1		82	8	11.5
2025-08-11T12:00	22050	43	-57.2		84	7	11.6
2025-08-11T12:00	22100	42	-57.2		79	7	11.7
2025-08-11T12:00	22150	42	-56.8		71	8	11.8
2025-08-11T12:00	22200	42	-56.0		66	9	12.0
2025-08-11T12:00	22250	41	-55.7		67	10	12.1
2025-08-11T12:00	22300	41	-55.6		71	10	12.4
2025-08-11T12:00	22350	41	-55.5		78	10	12.3
2025-08-11T12:00	22400	40	-55.5		83	10	12.4
2025-08-11T12:00	22450	40	-55.6		87	9	12.6
2025-08-11T12:00	22500	40	-55.5		92	9	12.6
2025-08-11T12:00	22550	39	-55.7		95	8	12.6
2025-08-11T12:00	22600	39	-55.9		92	7	12.6
2025-08-11T12:00	22650	39	-56.1		80	6	12.4
2025-08-11T12:00	22700	38	-56.2		66	6	12.3
2025-08-11T12:00	22750	38	-56.1		57	7	12.3
2025-08-11T12:00	22800	38	-56.2		54	8	12.2
2025-08-11T12:00	22850	38	-56.1		60	10	12.2
2025-08-11T12:00	22900	37	-55.8		69	11	12.4
2025-08-11T12:00	22950	37	-55.3		76	12	12.3
2025-08-11T12:00	23000	37	-55.3		81	12	12.5
2025-08-11T12:00	23050	36	-55.3		83	11	12.6
2025-08-11T12:00	23100	36	-55.2		84	11	12.7
2025-08-11T12:00	23150	36	-55.2		83	10	12.7
2025-08-11T12:00	23200	36	-55.1		84	10	12.6
2025-08-11T12:00	23250	35	-54.9		87	11	12.7
2025-08-11T12:00	23300	35	-54.8		89	11	12.7
2025-08-11T12:00	23350	35	-54.7		88	11	12.7
2025-08-11T12:00	23400	34	-54.8		86	10	12.7
2025-08-11T12:00	23450	34	-54.8		82	9	12.7
2025-08-11T12:00	23500	34	-54.8		74	9	12.4
2025-08-11T12:00	23550	34	-54.9		68	10	12.4
2025-08-11T12:00	23600	33	-54.7		64	12	12.5
2025-08-11T12:00	23650	33	-54.5		63	13	12.5
2025-08-11T12:00	23700	33	-54.5		67	14	12.4
2025-08-11T12:00	23750	33	-54.3		73	14	12.4
2025-08-11T12:00	23800	32	-54.4		79	14	12.5
2025-08-11T12:00	23850	32	-54.4		83	13	12.6
2025-08-11T12:00	23900	32	-54.5		86	13	12.6
2025-08-11T12:00	23950	32	-54.7		89	13	12.6
2025-08-11T12:00	24000	31	-54.8		91	12	12.6
2025-08-11T12:00	24050	31	-54.8		94	11	12.5
2025-08-11T12:00	24100	31	-54.7		94	10	12.3
2025-08-11T12:00	24150	31	-54.6		94	9	12.0
2025-08-11T12:00	24200	30	-54.7		96	9	11.7
2025-08-11T12:00	24250	30	-54.5		102	8	11.6
2025-08-11T12:00	24300	30	-54.1		109	8	11.4
2025-08-11T12:00	24350	30	-53.9		114	7	11.3
2025-08-11T12:00	24400	29	-53.6		115	6	11.3
2025-08-11T12:00	24450	29	-52.9		116	6	11.3
2025-08-11T12:00	24500	29	-52.7		120	5	11.4
2025-08-11T12:00	24550	29	-52.6		123	5	11.5
2025-08-11T12:00	24600	29	-52.3		120	5	11.6
2025-08-11T12:00	24650	28	-51.9		109	5	11.7
2025-08-11T12:00	24700	28	-51.7		94	6	11.8
2025-08-11T12:00	24750	28	-51.3		87	6	11.9
2025-08-11T12:00	24800	28	-51.0		85	7	12.1
2025-08-11T12:00	24850	28	-50.9		85	8	12.2
2025-08-11T12:00	24900	27	-50.7		84	9	12.3
2025-08-11T12:00	24950	27	-50.6		81	9	12.4
2025-08-11T12:00	25000	27	-50.4		78	10	12.3
2025-08-11T12:00	25050	27	-50.2		77	11	12.3
2025-08-11T12:00	25100	26	-50.3		81	11	12.2
2025-08-11T12:00	25150	26	-50.4		85	11	12.1
2025-08-11T12:00	25200	26	-50.7		89	11	12.1
2025-08-11T12:00	25250	26	-51.0		93	11	12.0
2025-08-11T12:00	25300	26	-50.9		98	10	11.9
2025-08-11T12:00	25350	25	-50.9		103	9	11.8
2025-08-11T12:00	25400	25	-51.1		107	7	11.9
2025-08-11T12:00	25450	25	-51.3		107	7	11.8
2025-08-11T12:00	25500	25	-51.3		104	6	11.7
2025-08-11T12:00	25550	25	-51.1		101	7	11.5
2025-08-11T12:00	25600	25	-51.1		102	8	11.4
2025-08-11T12:00	25650	24	-51.1		104	9	11.4
2025-08-11T12:00	25700	24	-51.0		109	9	11.4
2025-08-11T12:00	25750	24	-51.0		114	9	11.4
2025-08-11T12:00	25800	24	-50.9		118	8	11.4
2025-08-11T12:00	25850	24	-50.6		122	7	11.4
2025-08-11T12:00	25900	23	-50.5		125	5	11.5
2025-08-11T12:00	25950	23	-50.7		126	4	11.6
2025-08-11T12:00	26000	23	-50.7		118	3	11.6
2025-08-11T12:00	26050	23	-50.6		104	4	11.6
2025-08-11T12:00	26100	23	-50.4		98	5	11.6
2025-08-11T12:00	26150	23	-50.3		96	6	11.8
2025-08-11T12:00	26200	22	-50.1		95	6	11.8
2025-08-11T12:00	26250	22	-50.0		92	5	11.9
2025-08-11T12:00	26300	22	-50.0		90	4	11.9
2025-08-11T12:00	26350	22	-50.2		87	2	12.0
2025-08-11T12:00	26400	22	-50.2		67	1	12.2
2025-08-11T12:00	26450	22	-49.9		28	1	12.1
2025-08-11T12:00	26500	21	-49.6		33	3	12.3
2025-08-11T12:00	26550	21	-49.2		42	4	12.3
2025-08-11T12:00	26600	21	-49.0		48	6	12.3
2025-08-11T12:00	26650	21	-48.8		54	7	12.3
2025-08-11T12:00	26700	21	-48.6		59	7	12.3
2025-08-11T12:00	26750	21	-48.5		65	7	12.3
2025-08-11T12:00	26800	20	-48.5		70	7	12.2
2025-08-11T12:00	26850	20	-48.5		77	7	12.2
2025-08-11T12:00	26900	20	-48.5		83	8	12.1
2025-08-11T12:00	26950	20	-48.6		87	8	12.0
2025-08-11T12:00	27000	20	-48.4		89	8	12.0
2025-08-11T12:00	27050	20	-48.0		87	8	11.9
2025-08-11T12:00	27100	19	-47.9		83	7	11.8
2025-08-11T12:00	27150	19	-47.9		81	7	11.8
2025-08-11T12:00	27200	19	-47.9		85	7	11.7
2025-08-11T12:00	27250	19	-47.7		92	8	11.7
2025-08-11T12:00	27300	19	-47.4		98	9	11.8
2025-08-11T12:00	27350	19	-47.2		100	9	11.8
2025-08-11T12:00	27400	19	-47.3		97	8	11.8
2025-08-11T12:00	27450	18	-47.4		90	8	11.8
2025-08-11T12:00	27500	18	-47.3		83	8	11.8
2025-08-11T12:00	27550	18	-47.1		78	8	11.7
2025-08-11T12:00	27600	18	-46.9		76	9	11.7
2025-08-11T12:00	27650	18	-46.7		76	10	11.7
2025-08-11T12:00	27700	18	-46.7		76	10	11.6
2025-08-11T12:00	27750	18	-46.5		78	10	11.6
2025-08-11T12:00	27800	18	-46.3		79	10	11.6
2025-08-11T12:00	27850	17	-46.2		78	10	11.6
2025-08-11T12:00	27900	17	-46.3		78	10	11.6
2025-08-11T12:00	27950	17	-46.1		77	11	11.5
2025-08-11T12:00	28000	17	-46.1		76	12	11.5
2025-08-11T12:00	28050	17	-46.2		77	12	11.4
2025-08-11T12:00	28100	17	-46.2		80	12	11.4
2025-08-11T12:00	28150	17	-46.2		85	12	11.3
2025-08-11T12:00	28200	17	-46.4		92	12	11.2
2025-08-11T12:00	28250	16	-46.6		98	12	11.1
2025-08-11T12:00	28300	16	-46.7		103	12	11.1
2025-08-11T12:00	28350	16	-46.9		106	11	11.0
2025-08-11T12:00	28400	16	-47.1		107	11	10.9
2025-08-11T12:00	28450	16	-47.0		105	10	10.9
2025-08-11T12:00	28500	16	-47.1		100	9	10.8
2025-08-11T12:00	28550	16	-47.3		91	8	10.7
2025-08-11T12:00	28600	16	-47.3		83	7	10.6
2025-08-11T12:00	28650	15	-47.6		77	7	10.5
2025-08-11T12:00	28700	15	-47.6		76	8	10.4
2025-08-11T12:00	28750	15	-47.3		80	10	10.3
2025-08-11T12:00	28800	15	-46.9		84	12	10.3
2025-08-11T12:00	28850	15	-46.7		89	13	10.2
2025-08-11T12:00	28900	15	-46.2		93	13	10.2
2025-08-11T12:00	28950	15	-46.0		97	13	10.1
2025-08-11T12:00	29000	15	-45.9		102	12	10.0
2025-08-11T12:00	29050	15	-45.6		104	11	10.0
2025-08-11T12:00	29100	14	-45.3		101	10	9.9
2025-08-11T12:00	29150	14	-45.1		97	11	9.8
2025-08-11T12:00	29200	14	-45.0		94	11	9.8
2025-08-11T12:00	29250	14	-45.0		92	12	9.7
2025-08-11T12:00	29300	14	-45.0		91	13	9.6
2025-08-11T12:00	29350	14	-45.0		91	13	9.6
2025-08-11T12:00	29400	14	-45.1		93	13	9.5
2025-08-11T12:00	29450	14	-45.3		96	12	9.4
2025-08-11T12:00	29500	14	-45.3		97	12	9.3
2025-08-11T12:00	29550	13	-45.1		96	11	9.3
2025-08-11T12:00	29600	13	-44.9		93	11	9.3
2025-08-11T12:00	29650	13	-44.8		92	11	9.2
2025-08-11T12:00	29700	13	-44.8		92	11	9.2
2025-08-11T12:00	29750	13	-44.8		92	12	9.2
2025-08-11T12:00	29800	13	-44.9		92	13	9.1
2025-08-11T12:00	29850	13	-44.9		92	14	9.1
2025-08-11T12:00	29900	13	-44.9		92	15	9.1
2025-08-11T12:00	29950	13	-45.0		93	16	9.0
2025-08-11T12:00	30000	13	-45.0		95	16	9.0
2025-08-11T12:00	30050	13	-44.9		99	15	9.0
2025-08-11T12:00	30100	12	-44.7		104	15	8.9
2025-08-11T12:00	30150	12	-44.8		109	14	8.8
2025-08-11T12:00	30200	12	-44.8		113	13	8.8
2025-08-11T12:00	30250	12	-44.2		112	12	8.7
2025-08-11T12:00	30300	12	-43.6		105	11	8.6
2025-08-11T12:00	30350	12	-43.3		97	11	8.6
2025-08-11T12:00	30400	12	-43.2		93	12	8.5
2025-08-11T12:00	30450	12	-43.0		94	13	8.4
2025-08-11T12:00	30500	12	-43.0		97	14	8.3
2025-08-11T12:00	30550	12	-43.1		100	15	8.2
2025-08-11T12:00	30600	12	-43.1		100	15	8.2
2025-08-11T12:00	30650	11	-43.1		101	14	8.1
2025-08-11T12:00	30700	11	-43.2		103	13	8.0
2025-08-11T12:00	30750	11	-43.2		104	12	7.9
2025-08-11T12:00	30800	11	-43.4		105	11	7.9
2025-08-11T12:00	30850	11	-43.5		105	10	7.8
2025-08-11T12:00	30900	11	-43.4		101	9	7.8
2025-08-11T12:00	30950	11	-43.3		95	9	7.7
2025-08-11T12:00	31000	11	-43.2		89	9	7.7
2025-08-11T12:00	31050	11	-42.8		87	9	7.6
2025-08-11T12:00	31100	11	-42.4		89	10	7.6
2025-08-11T12:00	31150	11	-42.2		93	11	7.6
2025-08-11T12:00	31200	11	-42.0		98	11	7.5
2025-08-11T12:00	31250	10	-41.9		102	11	7.5
2025-08-11T12:00	31300	10	-41.7		104	11	7.5
2025-08-11T12:00	31350	10	-41.6		105	10	7.4
2025-08-11T12:00	31400	10	-41.8		104	9	7.3
2025-08-11T12:00	31450	10	-42.0		100	9	7.3
2025-08-11T12:00	31500	10	-42.0		93	10	7.2
2025-08-11T12:00	31550	10	-41.9		89	11	7.2
2025-08-11T12:00	31600	10	-41.8		89	11	7.1
2025-08-11T12:00	31650	10	-41.6		89	11	7.1
2025-08-11T12:00	31700	10	-41.4		89	12	7.0
2025-08-11T12:00	31750	10	-41.0		89	13	6.9
2025-08-11T12:00	31800	10	-40.7		90	14	6.9
2025-08-11T12:00	31850	10	-40.5		93	15	6.8
2025-08-11T12:00	31900	10	-40.3		97	15	6.7
2025-08-11T12:00	31950	9	-40.2		102	15	6.7
2025-08-11T12:00	32000	9	-40.1		108	15	6.7
2025-08-11T12:00	32050	9	-39.8		115	15	6.6
2025-08-11T12:00	32100	9	-39.5		123	15	6.5
2025-08-11T12:00	32150	9	-39.3		130	15	6.5
2025-08-11T12:00	32200	9	-39.2		133	16	6.4
2025-08-11T12:00	32250	9	-39.4		135	15	6.4
2025-08-11T12:00	32300	9	-39.7		134	14	6.3
2025-08-11T12:00	32350	9	-39.8		129	13	6.2
2025-08-11T12:00	32400	9	-39.4		119	11	6.2
2025-08-11T12:00	32450	9	-38.9		107	11	6.2
2025-08-11T12:00	32500	9	-38.1		101	11	6.1
2025-08-11T12:00	32550	9	-37.5		104	11	6.0
2025-08-11T12:00	32600	9	-37.4		112	11	6.0
2025-08-11T12:00	32650	9	-37.4		119	11	5.9
2025-08-11T12:00	32700	8	-37.4		118	11	5.9
2025-08-11T12:00	32750	8	-37.1		112	11	5.8
2025-08-11T12:00	32800	8	-36.9		108	11	5.8
2025-08-11T12:00	32850	8	-36.5		108	10	5.7
2025-08-11T12:00	32900	8	-36.2		108	10	5.7
2025-08-11T12:00	32950	8	-35.9		104	10	5.6
2025-08-11T12:00	33000	8	-35.8		95	10	5.6
2025-08-11T12:00	33050	8	-35.7		89	11	5.6
2025-08-11T12:00	33100	8	-35.6		84	12	5.5
2025-08-11T12:00	33150	8	-35.4		79	13	5.5
2025-08-11T12:00	33200	8	-35.3		76	14	5.4
2025-08-11T12:00	33250	8	-35.2		76	15	5.4
2025-08-11T12:00	33300	8	-35.0		79	15	5.4
2025-08-11T12:00	33350	8	-35.0		82	15	5.3
2025-08-11T12:00	33400	8	-35.1		84	16	5.2
2025-08-11T12:00	33450	8	-34.9		88	16	5.2
2025-08-11T12:00	33500	8	-34.9		93	16	5.1
2025-08-11T12:00	33550	7	-35.0		96	15	5.0
2025-08-11T12:00	33600	7	-35.2		98	14	5.0
2025-08-11T12:00	33650	7	-35.2		100	14	4.9
2025-08-11T12:00	33700	7	-35.2		100	13	4.9
2025-08-11T12:00	33750	7	-35.2		98	13	4.9
2025-08-11T12:00	33800	7	-35.0		96	14	4.8
2025-08-11T12:00	33850	7	-34.9		94	14	4.8
2025-08-11T12:00	33900	7	-34.8		93	14	4.8
2025-08-11T12:00	33950	7	-34.6		91	15	4.8
2025-08-11T12:00	34000	7	-34.6		92	15	4.7
2025-08-11T12:00	34050	7	-34.7		94	15	4.7
2025-08-11T12:00	34100	7	-34.7		97	15	4.6
2025-08-11T12:00	34150	7	-34.8		99	15	4.6
2025-08-11T12:00	34200	7	-34.6		100	15	4.5
2025-08-11T12:00	34250	7	-34.4		100	14	4.5
2025-08-11T12:00	34300	7	-34.5		98	13	4.4
2025-08-11T12:00	34350	7	-34.5		96	12	4.4
2025-08-11T12:00	34400	7	-34.6		94	12	4.3
2025-08-11T12:00	34450	7	-34.4		92	13	4.3
2025-08-11T12:00	34500	7	-34.3		93	15	4.3
2025-08-11T12:00	34550	6	-34.1		97	17	4.2
2025-08-11T12:00	34600	6	-33.8		100	18	4.2
2025-08-11T12:00	34650	6	-33.6		103	18	4.1
2025-08-11T12:00	34700	6	-33.5		107	16	4.1
2025-08-11T12:00	34750	6	-33.3		111	15	4.0
2025-08-11T12:00	34800	6	-33.2		116	14	4.0
2025-08-11T12:00	34850	6	-33.4		118	13	4.0
2025-08-11T12:00	34900	6	-33.5		114	12	3.9
2025-08-11T12:00	34950	6	-33.3		104	12	3.9
2025-08-11T12:00	35000	6	-33.0		95	13	3.9
2025-08-11T12:00	35050	6	-32.7		95	13	3.8
2025-08-11T12:00	35100	6	-32.5		98	13	3.8
2025-08-11T12:00	35150	6	-32.5		102	13	3.8
2025-08-11T12:00	35200	6	-32.3		101	14	3.7
2025-08-11T12:00	35250	6	-32.3		97	14	3.7
2025-08-11T12:00	35300	6	-32.4		93	15	3.6
2025-08-11T12:00	35350	6	-32.5		92	16	3.6
2025-08-11T12:00	35400	6	-32.4		93	16	3.6
2025-08-11T12:00	35450	6	-32.4		96	17	3.5
2025-08-11T12:00	35500	6	-32.1		99	17	3.5
2025-08-11T12:00	35550	6	-31.8		101	16	3.4
2025-08-11T12:00	35600	6	-31.5		101	16	3.4
2025-08-12T00:00	491	962	19.4	17.5	203	0	
2025-08-12T00:00	501	960	22.0	16.9	262	1	
2025-08-12T00:00	520	958	23.1	16.9	278	1	
2025-08-12T00:00	540	956	23.2	16.8	296	1	
2025-08-12T00:00	560	954	23.2	16.6	322	1	
2025-08-12T00:00	580	952	23.1	16.5	348	1	
2025-08-12T00:00	600	950	23.1	16.3	10	1	
2025-08-12T00:00	620	948	23.2	16.2	25	1	
2025-08-12T00:00	640	946	23.3	16.2	34	2	
2025-08-12T00:00	660	943	23.2	16.1	38	2	
2025-08-12T00:00	680	941	23.4	16.1	38	2	
2025-08-12T00:00	700	939	23.5	15.9	37	2	
2025-08-12T00:00	720	937	23.4	15.9	35	2	
2025-08-12T00:00	740	935	23.3	16.0	32	2	
2025-08-12T00:00	760	933	23.2	15.9	30	2	
2025-08-12T00:00	780	931	23.3	16.0	30	2	
2025-08-12T00:00	800	928	23.2	16.0	32	2	
2025-08-12T00:00	820	926	23.0	16.0	35	2	
2025-08-12T00:00	840	925	22.9	16.1	39	2	
2025-08-12T00:00	860	922	22.7	16.1	43	2	
2025-08-12T00:00	880	920	22.5	16.2	45	2	
2025-08-12T00:00	900	918	22.4	16.4	45	1	
2025-08-12T00:00	920	916	22.4	16.5	38	1	
2025-08-12T00:00	940	914	22.5	16.7	17	1	
2025-08-12T00:00	960	912	22.6	16.8	350	1	
2025-08-12T00:00	980	909	22.7	16.8	336	1	
2025-08-12T00:00	1000	908	22.7	16.8	335	1	
2025-08-12T00:00	1020	905	22.7	16.8	341	1	
2025-08-12T00:00	1040	903	22.6	16.8	351	1	
2025-08-12T00:00	1060	901	22.6	16.6	2	1	
2025-08-12T00:00	1080	899	22.5	16.4	19	1	
2025-08-12T00:00	1100	897	22.4	16.4	42	1	
2025-08-12T00:00	1120	895	22.3	16.4	63	1	
2025-08-12T00:00	1140	893	22.2	16.1	81	1	
2025-08-12T00:00	1160	891	22.2	15.9	91	1	
2025-08-12T00:00	1180	889	22.1	15.4	90	1	
2025-08-12T00:00	1200	887	22.2	14.4	86	1	
2025-08-12T00:00	1220	885	22.4	13.1	82	2	
2025-08-12T00:00	1240	883	22.5	14.0	81	2	
2025-08-12T00:00	1260	881	22.4	13.8	85	2	
2025-08-12T00:00	1280	879	22.4	13.4	94	2	
2025-08-12T00:00	1300	877	22.2	13.2	111	2	
2025-08-12T00:00	1320	875	22.1	12.9	134	2	
2025-08-12T00:00	1340	873	22.2	12.9	156	2	
2025-08-12T00:00	1360	871	22.1	13.1	172	2	
2025-08-12T00:00	1380	869	21.9	13.3	187	2	
2025-08-12T00:00	1400	867	21.7	13.5	198	2	
2025-08-12T00:00	1420	865	21.5	13.6	204	3	
2025-08-12T00:00	1440	863	21.4	13.7	209	3	
2025-08-12T00:00	1460	861	21.2	13.9	212	3	
2025-08-12T00:00	1480	859	21.1	14.2	213	3	
2025-08-12T00:00	1500	857	21.1	13.8	213	4	
2025-08-12T00:00	1520	855	21.1	13.7	213	4	
2025-08-12T00:00	1540	853	21.0	13.5	213	4	
2025-08-12T00:00	1560	851	21.0	13.4	215	5	
2025-08-12T00:00	1580	849	21.0	13.4	216	6	
2025-08-12T00:00	1600	847	20.9	13.1	220	6	
2025-08-12T00:00	1620	845	20.7	13.0	224	7	
2025-08-12T00:00	1640	843	20.5	13.0	229	8	
2025-08-12T00:00	1660	841	20.5	12.8	233	8	
2025-08-12T00:00	1680	839	20.5	12.5	235	8	
2025-08-12T00:00	1700	837	20.4	12.1	235	8	
2025-08-12T00:00	1720	835	20.3	12.0	233	8	
2025-08-12T00:00	1740	833	20.1	11.9	230	8	
2025-08-12T00:00	1760	831	20.0	11.6	228	8	
2025-08-12T00:00	1780	829	19.9	11.1	227	8	
2025-08-12T00:00	1800	828	19.9	10.0	225	8	
2025-08-12T00:00	1820	826	19.9	9.7	223	8	
2025-08-12T00:00	1840	824	19.7	9.8	221	8	
2025-08-12T00:00	1860	822	19.5	10.1	220	9	
2025-08-12T00:00	1880	820	19.4	10.0	219	9	
2025-08-12T00:00	1900	818	19.3	9.7	219	10	
2025-08-12T00:00	1920	816	19.3	8.9	221	10	
2025-08-12T00:00	1940	814	19.2	8.0	223	9	
2025-08-12T00:00	1960	812	19.2	6.8	227	9	
2025-08-12T00:00	1980	811	19.1	5.9	231	9	
2025-08-12T00:00	2000	809	19.0	5.4	236	9	
2025-08-12T00:00	2020	807	18.8	5.2	239	9	
2025-08-12T00:00	2040	805	18.6	5.3	238	9	
2025-08-12T00:00	2060	803	18.4	5.2	236	9	
2025-08-12T00:00	2080	801	18.2	4.9	233	9	
2025-08-12T00:00	2100	799	18.0	4.7	231	9	
2025-08-12T00:00	2120	797	17.8	4.7	229	10	
2025-08-12T00:00	2140	796	17.6	4.7	228	10	
2025-08-12T00:00	2160	794	17.4	4.2	229	10	
2025-08-12T00:00	2180	792	17.2	4.1	229	9	
2025-08-12T00:00	2200	790	17.0	4.2	230	9	
2025-08-12T00:00	2220	788	16.9	3.7	231	9	
2025-08-12T00:00	2240	786	16.7	4.3	233	8	
2025-08-12T00:00	2260	784	16.5	3.9	234	8	
2025-08-12T00:00	2280	782	16.3	4.1	235	8	
2025-08-12T00:00	2300	781	16.1	4.0	236	9	
2025-08-12T00:00	2320	779	15.9	4.0	237	9	
2025-08-12T00:00	2340	777	15.7	4.1	238	9	
2025-08-12T00:00	2360	775	15.5	3.7	238	10	
2025-08-12T00:00	2380	773	15.3	3.5	238	10	
2025-08-12T00:00	2400	771	15.1	3.4	239	10	
2025-08-12T00:00	2420	770	15.0	2.3	240	11	
2025-08-12T00:00	2440	768	14.9	1.8	241	10	
2025-08-12T00:00	2460	766	14.6	1.9	243	10	
2025-08-12T00:00	2480	764	14.7	-0.8	246	10	
2025-08-12T00:00	2500	762	14.7	-2.8	249	9	
2025-08-12T00:00	2520	761	14.9	-7.0	252	9	
2025-08-12T00:00	2540	759	15.1	-10.2	254	9	
2025-08-12T00:00	2560	757	15.0	-11.0	256	9	
2025-08-12T00:00	2580	755	14.9	-11.6	258	9	
2025-08-12T00:00	2600	753	14.7	-12.7	259	9	
2025-08-12T00:00	2620	752	14.7	-15.9	259	9	
2025-08-12T00:00	2640	750	15.0	-21.7	259	9	
2025-08-12T00:00	2660	748	15.1	-23.9	258	9	
2025-08-12T00:00	2680	746	15.0	-24.8	258	9	
2025-08-12T00:00	2700	745	14.9	-25.1	257	9	
2025-08-12T00:00	2720	743	14.8	-25.9	255	9	
2025-08-12T00:00	2740	741	14.7	-26.6	254	9	
2025-08-12T00:00	2760	739	14.6	-27.2	252	9	
2025-08-12T00:00	2780	738	14.5	-28.6	250	9	
2025-08-12T00:00	2800	736	14.5	-29.7	249	9	
2025-08-12T00:00	2820	734	14.3	-29.5	248	9	
2025-08-12T00:00	2840	732	14.2	-29.1	248	8	
2025-08-12T00:00	2860	731	14.0	-28.9	248	8	
2025-08-12T00:00	2880	729	13.8	-28.3	249	8	
2025-08-12T00:00	2900	727	13.6	-28.4	250	8	
2025-08-12T00:00	2920	725	13.5	-28.3	252	8	
2025-08-12T00:00	2940	724	13.3	-28.3	253	9	
2025-08-12T00:00	2960	722	13.1	-28.6	254	9	
2025-08-12T00:00	2980	720	13.1	-30.0	254	9	
2025-08-12T00:00	3000	718	13.1	-30.7	253	9	
2025-08-12T00:00	3020	717	13.0	-30.6	253	8	
2025-08-12T00:00	3040	715	13.0	-30.3	254	8	
2025-08-12T00:00	3060	713	12.9	-30.1	255	8	
2025-08-12T00:00	3080	712	12.7	-30.2	258	7	
2025-08-12T00:00	3100	710	12.5	-30.1	261	7	
2025-08-12T00:00	3120	708	12.4	-30.0	265	6	
2025-08-12T00:00	3140	707	12.2	-29.7	268	6	
2025-08-12T00:00	3160	705	12.1	-29.8	270	6	
2025-08-12T00:00	3180	703	11.9	-29.8	270	6	
2025-08-12T00:00	3200	702	11.8	-29.8	269	6	
2025-08-12T00:00	3220	700	11.6	-29.9	266	7	
2025-08-12T00:00	3240	698	11.5	-29.9	265	7	
2025-08-12T00:00	3260	697	11.3	-30.0	262	7	
2025-08-12T00:00	3280	695	11.1	-30.0	260	7	
2025-08-12T00:00	3300	693	10.9	-30.0	258	7	
2025-08-12T00:00	3320	691	10.7	-30.1	255	7	
2025-08-12T00:00	3340	690	10.5	-30.1	252	7	
2025-08-12T00:00	3360	688	10.3	-30.2	251	7	
2025-08-12T00:00	3380	686	10.1	-30.2	250	7	
2025-08-12T00:00	3400	685	10.0	-30.3	250	7	
2025-08-12T00:00	3420	683	9.8	-30.3	252	7	
2025-08-12T00:00	3440	682	9.6	-30.3	256	6	
2025-08-12T00:00	3460	680	9.4	-30.3	260	6	
2025-08-12T00:00	3480	678	9.2	-30.4	264	5	
2025-08-12T00:00	3500	677	9.1	-30.5	267	5	
2025-08-12T00:00	3520	675	8.9	-30.5	267	5	
2025-08-12T00:00	3540	673	8.9	-30.6	264	6	
2025-08-12T00:00	3560	672	8.8	-30.7	262	6	
2025-08-12T00:00	3580	670	8.7	-30.9	261	7	
2025-08-12T00:00	3600	668	8.5	-31.0	260	7	
2025-08-12T00:00	3620	667	8.4	-31.3	259	8	
2025-08-12T00:00	3640	665	8.3	-31.5	259	8	
2025-08-12T00:00	3660	663	8.2	-31.6	258	8	
2025-08-12T00:00	3680	662	8.1	-31.8	257	8	
2025-08-12T00:00	3700	660	8.0	-31.8	256	7	
2025-08-12T00:00	3720	659	8.0	-31.8	257	7	
2025-08-12T00:00	3740	657	7.9	-31.5	258	7	
2025-08-12T00:00	3760	656	7.8	-31.7	259	7	
2025-08-12T00:00	3780	654	7.6	-32.0	261	7	
2025-08-12T00:00	3800	652	7.6	-32.4	262	7	
2025-08-12T00:00	3820	651	7.5	-32.2	263	7	
2025-08-12T00:00	3840	649	7.4	-32.0	265	7	
2025-08-12T00:00	3860	648	7.3	-31.9	266	7	
2025-08-12T00:00	3880	646	7.2	-32.3	269	7	
2025-08-12T00:00	3900	645	7.1	-32.5	272	7	
2025-08-12T00:00	3920	643	6.9	-32.5	274	8	
2025-08-12T00:00	3940	641	6.7	-32.6	277	8	
2025-08-12T00:00	3960	640	6.6	-32.7	280	8	
2025-08-12T00:00	3980	638	6.5	-33.0	283	8	
2025-08-12T00:00	4000	637	6.4	-32.9	285	8	
2025-08-12T00:00	4020	635	6.3	-32.2	286	8	
2025-08-12T00:00	4040	634	6.1	-31.7	287	7	
2025-08-12T00:00	4060	632	5.9	-31.1	287	7	
2025-08-12T00:00	4080	631	5.7	-29.4	287	7	
2025-08-12T00:00	4100	629	5.5	-28.6	286	6	
2025-08-12T00:00	4120	628	5.3	-27.8	284	6	
2025-08-12T00:00	4140	626	5.2	-26.4	281	5	
2025-08-12T00:00	4160	624	5.0	-26.0	277	5	
2025-08-12T00:00	4180	623	4.9	-27.2	272	4	
2025-08-12T00:00	4200	621	4.7	-30.0	265	5	
2025-08-12T00:00	4220	620	4.6	-32.5	260	5	
2025-08-12T00:00	4240	618	4.5	-32.9	258	6	
2025-08-12T00:00	4260	617	4.4	-33.7	255	6	
2025-08-12T00:00	4280	615	4.3	-34.3	252	7	
2025-08-12T00:00	4300	614	4.3	-34.7	250	7	
2025-08-12T00:00	4320	612	4.2	-35.0	249	7	
2025-08-12T00:00	4340	611	4.0	-35.1	248	7	
2025-08-12T00:00	4360	609	3.9	-35.0	246	7	
2025-08-12T00:00	4380	608	3.8	-34.8	245	6	
2025-08-12T00:00	4400	606	3.7	-34.6	244	6	
2025-08-12T00:00	4420	605	3.6	-34.5	244	6	
2025-08-12T00:00	4440	603	3.4	-34.6	243	6	
2025-08-12T00:00	4460	602	3.2	-34.5	243	6	
2025-08-12T00:00	4480	600	3.0	-34.3	244	6	
2025-08-12T00:00	4500	599	3.0	-34.2	245	6	
2025-08-12T00:00	4520	597	2.9	-33.6	246	6	
2025-08-12T00:00	4540	596	2.8	-32.2	247	6	
2025-08-12T00:00	4560	594	2.6	-29.2	248	6	
2025-08-12T00:00	4580	593	2.5	-26.9	248	6	
2025-08-12T00:00	4600	591	2.3	-26.5	247	6	
2025-08-12T00:00	4620	590	2.2	-27.1	246	6	
2025-08-12T00:00	4640	589	2.1	-27.9	245	6	
2025-08-12T00:00	4660	587	2.0	-27.5	244	6	
2025-08-12T00:00	4680	585	1.8	-27.9	244	6	
2025-08-12T00:00	4700	584	1.7	-28.3	245	6	
2025-08-12T00:00	4720	583	1.6	-27.9	246	5	
2025-08-12T00:00	4740	581	1.5	-27.5	248	5	
2025-08-12T00:00	4760	580	1.3	-27.5	251	5	
2025-08-12T00:00	4780	578	1.2	-27.3	256	4	
2025-08-12T00:00	4800	577	1.0	-26.6	260	4	
2025-08-12T00:00	4820	575	0.9	-27.0	263	4	
2025-08-12T00:00	4840	574	0.7	-27.2	267	4	
2025-08-12T00:00	4860	573	0.5	-27.3	269	4	
2025-08-12T00:00	4880	571	0.4	-27.5	270	5	
2025-08-12T00:00	4900	570	0.3	-27.4	271	5	
2025-08-12T00:00	4920	568	0.1	-27.6	272	5	
2025-08-12T00:00	4940	567	-0.1	-27.7	273	6	
2025-08-12T00:00	4960	565	-0.3	-27.4	274	6	
2025-08-12T00:00	4980	564	-0.5	-27.0	276	6	
2025-08-12T00:00	5000	563	-0.6	-26.7	278	6	
2025-08-12T00:00	5020	561	-0.8	-26.2	279	6	
2025-08-12T00:00	5040	560	-1.0	-25.8	279	6	
2025-08-12T00:00	5060	558	-1.2	-25.7	279	6	
2025-08-12T00:00	5080	557	-1.4	-25.9	277	6	
2025-08-12T00:00	5100	555	-1.6	-25.3	275	6	
2025-08-12T00:00	5120	554	-1.7	-25.3	273	6	
2025-08-12T00:00	5140	553	-1.9	-25.3	271	6	
2025-08-12T00:00	5160	551	-2.0	-25.4	269	6	
2025-08-12T00:00	5180	550	-2.2	-25.4	268	6	
2025-08-12T00:00	5200	549	-2.4	-25.5	268	6	
2025-08-12T00:00	5220	547	-2.6	-25.5	268	6	
2025-08-12T00:00	5240	546	-2.7	-25.5	268	6	
2025-08-12T00:00	5260	544	-2.9	-25.3	268	6	
2025-08-12T00:00	5280	543	-3.1	-25.0	268	6	
2025-08-12T00:00	5300	542	-3.3	-25.0	266	5	
2025-08-12T00:00	5320	540	-3.4	-25.1	264	5	
2025-08-12T00:00	5340	539	-3.5	-25.2	260	5	
2025-08-12T00:00	5360	538	-3.7	-25.5	256	5	
2025-08-12T00:00	5380	536	-3.9	-25.7	253	5	
2025-08-12T00:00	5400	535	-4.0	-26.0	251	6	
2025-08-12T00:00	5420	534	-4.1	-26.9	249	6	
2025-08-12T00:00	5440	532	-4.2	-27.0	247	6	
2025-08-12T00:00	5460	531	-4.4	-26.1	246	7	
2025-08-12T00:00	5480	530	-4.6	-26.2	246	7	
2025-08-12T00:00	5500	528	-4.7	-26.4	245	7	
2025-08-12T00:00	5520	527	-4.9	-26.7	246	7	
2025-08-12T00:00	5540	526	-5.0	-26.8	246	7	
2025-08-12T00:00	5560	524	-5.2	-27.1	246	7	
2025-08-12T00:00	5580	523	-5.3	-27.3	246	7	
2025-08-12T00:00	5600	522	-5.5	-26.8	246	7	
2025-08-12T00:00	5620	520	-5.7	-26.5	247	7	
2025-08-12T00:00	5640	519	-5.9	-26.8	247	6	
2025-08-12T00:00	5660	518	-6.0	-26.8	247	6	
2025-08-12T00:00	5680	516	-6.2	-26.7	248	6	
2025-08-12T00:00	5700	515	-6.3	-27.3	249	6	
2025-08-12T00:00	5720	514	-6.5	-28.1	250	6	
2025-08-12T00:00	5740	512	-6.6	-28.0	250	6	
2025-08-12T00:00	5760	511	-6.8	-28.4	250	6	
2025-08-12T00:00	5780	510	-6.9	-28.7	249	6	
2025-08-12T00:00	5800	508	-7.1	-28.8	249	6	
2025-08-12T00:00	5820	507	-7.2	-28.8	248	6	
2025-08-12T00:00	5840	506	-7.4	-28.8	246	6	
2025-08-12T00:00	5860	504	-7.6	-28.9	245	6	
2025-08-12T00:00	5880	503	-7.7	-29.3	243	6	
2025-08-12T00:00	5900	502	-7.9	-29.2	242	6	
2025-08-12T00:00	5920	501	-8.1	-29.5	241	5	
2025-08-12T00:00	5940	499	-8.2	-29.6	240	5	
2025-08-12T00:00	5960	498	-8.4	-29.4	240	5	
2025-08-12T00:00	5980	497	-8.6	-29.5	239	5	
2025-08-12T00:00	6000	495	-8.8	-29.6	238	5	
2025-08-12T00:00	6020	494	-9.0	-29.6	238	6	
2025-08-12T00:00	6040	493	-9.1	-29.7	237	6	
2025-08-12T00:00	6060	492	-9.3	-29.7	236	6	
2025-08-12T00:00	6080	490	-9.5	-29.4	236	7	
2025-08-12T00:00	6100	489	-9.7	-29.4	236	7	
2025-08-12T00:00	6120	488	-9.9	-29.5	236	7	
2025-08-12T00:00	6140	487	-10.0	-29.6	236	7	
2025-08-12T00:00	6160	485	-10.2	-29.6	237	7	
2025-08-12T00:00	6180	484	-10.4	-29.6	238	7	
2025-08-12T00:00	6200	483	-10.6	-29.7	238	7	
2025-08-12T00:00	6220	481	-10.8	-29.8	239	7	
2025-08-12T00:00	6240	480	-11.0	-29.8	240	7	
2025-08-12T00:00	6260	479	-11.1	-29.8	241	7	
2025-08-12T00:00	6280	478	-11.3	-29.8	241	7	
2025-08-12T00:00	6300	476	-11.5	-29.8	242	7	
2025-08-12T00:00	6320	475	-11.7	-29.9	242	7	
2025-08-12T00:00	6340	474	-11.9	-30.2	243	7	
2025-08-12T00:00	6360	473	-12.1	-30.2	243	7	
2025-08-12T00:00	6380	471	-12.3	-30.3	245	6	
2025-08-12T00:00	6400	470	-12.4	-30.3	245	6	
2025-08-12T00:00	6420	469	-12.6	-30.4	246	6	
2025-08-12T00:00	6440	468	-12.8	-30.4	247	6	
2025-08-12T00:00	6460	467	-13.0	-30.5	247	5	
2025-08-12T00:00	6480	465	-13.2	-30.6	246	5	
2025-08-12T00:00	6500	464	-13.4	-30.9	243	5	
2025-08-12T00:00	6520	463	-13.5	-31.0	240	5	
2025-08-12T00:00	6540	462	-13.7	-31.2	236	5	
2025-08-12T00:00	6560	460	-13.9	-31.5	233	5	
2025-08-12T00:00	6580	459	-14.0	-31.7	230	6	
2025-08-12T00:00	6600	458	-14.2	-31.9	229	6	
2025-08-12T00:00	6620	457	-14.4	-32.0	228	6	
2025-08-12T00:00	6640	456	-14.5	-32.1	227	6	
2025-08-12T00:00	6660	454	-14.7	-32.1	226	6	
2025-08-12T00:00	6680	453	-14.9	-32.2	224	6	
2025-08-12T00:00	6700	452	-15.1	-32.1	223	6	
2025-08-12T00:00	6720	451	-15.2	-32.1	222	6	
2025-08-12T00:00	6740	450	-15.4	-32.1	220	6	
2025-08-12T00:00	6760	449	-15.6	-32.1	219	6	
2025-08-12T00:00	6780	447	-15.8	-32.3	219	6	
2025-08-12T00:00	6800	446	-15.9	-32.3	219	6	
2025-08-12T00:00	6820	445	-16.2	-32.3	220	6	
2025-08-12T00:00	6840	444	-16.3	-32.5	221	6	
2025-08-12T00:00	6860	443	-16.5	-32.5	223	6	
2025-08-12T00:00	6880	441	-16.7	-32.7	225	6	
2025-08-12T00:00	6900	440	-16.9	-32.8	228	6	
2025-08-12T00:00	6920	439	-17.0	-33.0	231	6	
2025-08-12T00:00	6940	438	-17.1	-33.8	234	6	
2025-08-12T00:00	6960	437	-17.2	-33.9	238	6	
2025-08-12T00:00	6980	436	-17.4	-34.2	242	6	
2025-08-12T00:00	7000	434	-17.5	-34.3	245	6	
2025-08-12T00:00	7020	433	-17.7	-34.5	248	6	
2025-08-12T00:00	7040	432	-17.8	-34.8	252	5	
2025-08-12T00:00	7060	431	-18.0	-35.1	253	5	
2025-08-12T00:00	7080	430	-18.1	-35.1	254	5	
2025-08-12T00:00	7100	429	-18.3	-35.2	251	5	
2025-08-12T00:00	7120	427	-18.5	-35.4	248	5	
2025-08-12T00:00	7140	426	-18.7	-35.5	245	5	
2025-08-12T00:00	7160	425	-18.8	-35.7	242	5	
2025-08-12T00:00	7180	424	-19.0	-36.1	238	5	
2025-08-12T00:00	7200	423	-19.1	-36.4	235	5	
2025-08-12T00:00	7220	422	-19.3	-36.5	233	5	
2025-08-12T00:00	7240	421	-19.4	-37.0	230	5	
2025-08-12T00:00	7260	420	-19.4	-38.5	228	5	
2025-08-12T00:00	7280	418	-19.4	-41.5	226	5	
2025-08-12T00:00	7300	417	-19.4	-41.7	224	5	
2025-08-12T00:00	7320	416	-19.5	-41.0	222	5	
2025-08-12T00:00	7340	415	-19.6	-41.3	221	5	
2025-08-12T00:00	7360	414	-19.8	-41.2	220	5	
2025-08-12T00:00	7380	413	-19.9	-40.8	219	5	
2025-08-12T00:00	7400	412	-20.1	-40.7	219	5	
2025-08-12T00:00	7420	411	-20.3	-40.7	218	5	
2025-08-12T00:00	7440	409	-20.5	-40.7	218	5	
2025-08-12T00:00	7460	408	-20.7	-40.7	217	5	
2025-08-12T00:00	7480	407	-20.8	-40.9	217	5	
2025-08-12T00:00	7500	406	-21.0	-41.1	216	5	
2025-08-12T00:00	7520	405	-21.2	-41.3	215	5	
2025-08-12T00:00	7540	404	-21.4	-41.3	214	5	
2025-08-12T00:00	7560	403	-21.6	-41.5	214	5	
2025-08-12T00:00	7580	402	-21.8	-41.6	213	5	
2025-08-12T00:00	7600	401	-22.0	-41.7	214	6	
2025-08-12T00:00	7620	400	-22.1	-41.8	214	6	
2025-08-12T00:00	7640	399	-22.3	-41.8	216	6	
2025-08-12T00:00	7660	397	-22.4	-41.9	218	6	
2025-08-12T00:00	7680	396	-22.6	-42.0	220	6	
2025-08-12T00:00	7700	395	-22.8	-42.0	222	6	
2025-08-12T00:00	7720	394	-23.0	-42.0	225	6	
2025-08-12T00:00	7740	393	-23.2	-42.1	228	6	
2025-08-12T00:00	7760	392	-23.4	-42.1	231	5	
2025-08-12T00:00	7780	391	-23.6	-42.2	233	5	
2025-08-12T00:00	7800	390	-23.8	-42.2	235	5	
2025-08-12T00:00	7820	389	-23.9	-42.3	236	5	
2025-08-12T00:00	7840	388	-24.0	-42.5	237	5	
2025-08-12T00:00	7860	387	-24.2	-42.5	236	5	
2025-08-12T00:00	7880	386	-24.4	-42.4	236	5	
2025-08-12T00:00	7900	385	-24.5	-42.3	235	6	
2025-08-12T00:00	7920	384	-24.7	-42.2	234	6	
2025-08-12T00:00	7940	382	-24.9	-42.3	233	6	
2025-08-12T00:00	7960	381	-25.1	-42.3	233	6	
2025-08-12T00:00	7980	380	-25.3	-42.2	233	6	
2025-08-12T00:00	8000	379	-25.5	-42.4	233	6	
2025-08-12T00:00	8020	378	-25.6	-42.4	234	6	
2025-08-12T00:00	8040	377	-25.7	-42.7	235	6	
2025-08-12T00:00	8060	376	-25.9	-42.1	237	7	
2025-08-12T00:00	8080	375	-26.1	-41.0	239	7	
2025-08-12T00:00	8100	374	-26.2	-40.1	241	7	
2025-08-12T00:00	8120	373	-26.4	-41.3	243	7	
2025-08-12T00:00	8140	372	-26.5	-42.1	244	7	
2025-08-12T00:00	8160	371	-26.6	-41.0	246	7	
2025-08-12T00:00	8180	370	-26.8	-40.3	247	7	
2025-08-12T00:00	8200	369	-27.0	-40.5	248	7	
2025-08-12T00:00	8220	368	-27.2	-41.2	250	7	
2025-08-12T00:00	8240	367	-27.3	-42.4	252	7	
2025-08-12T00:00	8260	366	-27.3	-41.9	254	7	
2025-08-12T00:00	8280	365	-27.5	-40.6	256	7	
2025-08-12T00:00	8300	364	-27.6	-40.6	258	7	
2025-08-12T00:00	8320	363	-27.8	-40.0	260	7	
2025-08-12T00:00	8340	362	-28.0	-40.5	261	7	
2025-08-12T00:00	8360	361	-28.2	-40.4	264	7	
2025-08-12T00:00	8380	360	-28.4	-39.3	266	7	
2025-08-12T00:00	8400	359	-28.5	-38.3	269	7	
2025-08-12T00:00	8420	358	-28.6	-39.5	272	7	
2025-08-12T00:00	8440	357	-28.7	-40.1	275	7	
2025-08-12T00:00	8460	356	-28.9	-40.7	278	7	
2025-08-12T00:00	8480	355	-28.9	-42.5	281	6	
2025-08-12T00:00	8500	354	-28.8	-44.7	283	6	
2025-08-12T00:00	8520	353	-28.7	-46.6	285	6	
2025-08-12T00:00	8540	352	-28.5	-49.2	285	6	
2025-08-12T00:00	8560	351	-28.4	-50.8	285	6	
2025-08-12T00:00	8580	350	-28.4	-51.3	284	6	
2025-08-12T00:00	8600	349	-28.4	-51.3	282	6	
2025-08-12T00:00	8620	348	-28.5	-51.2	281	6	
2025-08-12T00:00	8640	347	-28.6	-51.5	279	6	
2025-08-12T00:00	8660	346	-28.6	-51.6	278	6	
2025-08-12T00:00	8680	345	-28.8	-51.6	276	6	
2025-08-12T00:00	8700	344	-28.9	-51.0	274	5	
2025-08-12T00:00	8720	343	-29.0	-49.7	273	5	
2025-08-12T00:00	8740	342	-29.2	-49.8	271	5	
2025-08-12T00:00	8760	341	-29.4	-50.0	270	5	
2025-08-12T00:00	8780	340	-29.6	-50.0	269	5	
2025-08-12T00:00	8800	339	-29.7	-50.0	269	5	
2025-08-12T00:00	8820	338	-29.9	-49.7	268	5	
2025-08-12T00:00	8840	337	-30.1	-49.8	269	5	
2025-08-12T00:00	8860	337	-30.3	-50.3	270	5	
2025-08-12T00:00	8880	336	-30.5	-50.6	271	5	
2025-08-12T00:00	8900	334	-30.7	-50.5	272	5	
2025-08-12T00:00	8920	334	-30.9	-50.4	274	5	
2025-08-12T00:00	8940	333	-31.1	-50.5	275	5	
2025-08-12T00:00	8960	332	-31.3	-50.7	277	5	
2025-08-12T00:00	8980	331	-31.4	-50.6	278	6	
2025-08-12T00:00	9000	330	-31.6	-50.3	280	6	
2025-08-12T00:00	9020	329	-31.8	-50.0	281	6	
2025-08-12T00:00	9040	328	-32.0	-50.0	282	6	
2025-08-12T00:00	9060	327	-32.2	-50.1	283	6	
2025-08-12T00:00	9080	326	-32.3	-50.4	286	6	
2025-08-12T00:00	9100	325	-32.5	-51.2	288	6	
2025-08-12T00:00	9120	324	-32.6	-52.4	292	6	
2025-08-12T00:00	9140	323	-32.6	-52.8	295	6	
2025-08-12T00:00	9160	323	-32.7	-52.7	299	6	
2025-08-12T00:00	9180	322	-32.9	-52.6	303	6	
2025-08-12T00:00	9200	321	-33.1	-52.5	305	6	
2025-08-12T00:00	9220	320	-33.2	-52.4	306	6	
2025-08-12T00:00	9240	319	-33.4	-52.4	307	6	
2025-08-12T00:00	9260	318	-33.6	-52.5	306	6	
2025-08-12T00:00	9280	317	-33.7	-52.7	306	6	
2025-08-12T00:00	9300	316	-33.9	-52.8	306	6	
2025-08-12T00:00	9320	315	-34.1	-53.0	305	6	
2025-08-12T00:00	9340	314	-34.2	-53.4	305	6	
2025-08-12T00:00	9360	314	-34.3	-54.1	305	6	
2025-08-12T00:00	9380	313	-34.4	-54.4	304	6	
2025-08-12T00:00	9400	312	-34.5	-54.0	302	6	
2025-08-12T00:00	9420	311	-34.6	-54.0	301	6	
2025-08-12T00:00	9440	310	-34.7	-53.9	299	6	
2025-08-12T00:00	9460	309	-34.8	-54.1	297	6	
2025-08-12T00:00	9480	308	-34.8	-54.1	294	7	
2025-08-12T00:00	9500	307	-35.0	-53.8	292	7	
2025-08-12T00:00	9520	306	-35.1	-53.0	290	7	
2025-08-12T00:00	9540	305	-35.3	-51.8	288	7	
2025-08-12T00:00	9560	305	-35.5	-51.4	286	7	
2025-08-12T00:00	9580	304	-35.6	-51.3	285	7	
2025-08-12T00:00	9600	303	-35.8	-51.9	285	7	
2025-08-12T00:00	9620	302	-36.0	-52.1	284	7	
2025-08-12T00:00	9640	301	-36.2	-51.9	284	7	
2025-08-12T00:00	9660	300	-36.4	-51.7	284	7	
2025-08-12T00:00	9680	299	-36.5	-51.4	284	7	
2025-08-12T00:00	9700	299	-36.7	-51.4	283	7	
2025-08-12T00:00	9720	298	-36.9	-51.9	283	7	
2025-08-12T00:00	9740	297	-37.0	-52.1	283	7	
2025-08-12T00:00	9760	296	-37.2	-52.0	283	7	
2025-08-12T00:00	9780	295	-37.4	-51.9	282	7	
2025-08-12T00:00	9800	294	-37.6	-51.8	282	8	
2025-08-12T00:00	9820	293	-37.7	-51.8	281	8	
2025-08-12T00:00	9840	293	-37.8	-51.8	280	8	
2025-08-12T00:00	9860	292	-38.0	-51.7	279	8	
2025-08-12T00:00	9880	291	-38.1	-52.4	278	8	
2025-08-12T00:00	9900	290	-38.1	-52.8	277	8	
2025-08-12T00:00	9920	289	-38.2	-52.9	276	8	
2025-08-12T00:00	9940	288	-38.3	-53.0	277	8	
2025-08-12T00:00	9960	287	-38.5	-53.2	278	8	
2025-08-12T00:00	9980	287	-38.6	-53.6	279	9	
2025-08-12T00:00	10000	286	-38.6	-54.8	281	9	
2025-08-12T00:00	10018	285	-38.6	-55.1	283	9	
2025-08-12T00:00	10050	284	-38.7	-56.0	286	9	
2025-08-12T00:00	10100	282	-39.1	-56.2	290	9	
2025-08-12T00:00	10150	280	-39.5	-55.6	293	10	
2025-08-12T00:00	10200	278	-39.9	-55.6	295	10	
2025-08-12T00:00	10250	276	-40.2	-55.6	295	10	
2025-08-12T00:00	10300	274	-40.3	-55.5	295	11	
2025-08-12T00:00	10350	272	-40.5	-55.3	294	11	
2025-08-12T00:00	10400	269	-41.0	-55.1	293	11	
2025-08-12T00:00	10450	268	-41.4	-54.8	293	10	
2025-08-12T00:00	10500	266	-41.8	-54.9	292	10	
2025-08-12T00:00	10550	264	-42.1	-55.1	291	11	
2025-08-12T00:00	10600	262	-42.5	-55.6	289	11	
2025-08-12T00:00	10650	260	-42.9	-55.5	288	10	
2025-08-12T00:00	10700	258	-43.4	-55.9	288	10	
2025-08-12T00:00	10750	256	-43.8	-56.3	289	10	
2025-08-12T00:00	10800	254	-44.2	-56.0	290	11	
2025-08-12T00:00	10850	252	-44.7	-56.1	292	11	
2025-08-12T00:00	10900	250	-44.9	-57.4	294	11	
2025-08-12T00:00	10950	248	-45.3	-57.9	296	11	
2025-08-12T00:00	11000	247	-45.7	-58.0	297	11	
2025-08-12T00:00	11050	245	-46.1	-58.3	296	11	
2025-08-12T00:00	11100	243	-46.6	-58.4	294	10	
2025-08-12T00:00	11150	241	-47.0	-58.7	292	9	
2025-08-12T00:00	11200	239	-47.4	-59.6	291	9	
2025-08-12T00:00	11250	237	-47.6	-61.7	289	9	
2025-08-12T00:00	11300	236	-47.9	-60.4	287	8	
2025-08-12T00:00	11350	234	-48.1	-61.8	286	8	
2025-08-12T00:00	11400	232	-48.5	-62.7	284	8	
2025-08-12T00:00	11450	230	-48.8	-63.2	280	8	
2025-08-12T00:00	11500	229	-49.0	-64.2	277	8	
2025-08-12T00:00	11550	227	-49.0	-65.3	275	8	
2025-08-12T00:00	11600	225	-49.2	-65.5	276	8	
2025-08-12T00:00	11650	223	-49.5	-65.4	278	8	
2025-08-12T00:00	11700	222	-49.8	-65.2	278	7	
2025-08-12T00:00	11750	220	-50.1	-65.5	276	7	
2025-08-12T00:00	11800	218	-50.2	-65.6	277	7	
2025-08-12T00:00	11850	217	-50.3	-65.4	281	6	
2025-08-12T00:00	11900	215	-50.2	-66.2	279	5	
2025-08-12T00:00	11950	213	-50.0	-67.9	263	4	
2025-08-12T00:00	12000	212	-49.9	-69.1	238	4	
2025-08-12T00:00	12050	210	-49.8	-70.0	227	4	
2025-08-12T00:00	12100	208	-50.2	-70.4	229	5	
2025-08-12T00:00	12150	207	-50.5	-71.8	235	5	
2025-08-12T00:00	12200	205	-50.7	-72.8	237	6	
2025-08-12T00:00	12250	204	-51.1	-72.9	235	6	
2025-08-12T00:00	12300	202	-51.4	-73.2	234	7	
2025-08-12T00:00	12350	201	-51.3	-73.4	238	7	
2025-08-12T00:00	12400	199	-51.6	-73.6	245	7	
2025-08-12T00:00	12450	198	-51.8	-73.8	252	7	
2025-08-12T00:00	12500	196	-51.9	-74.2	259	7	
2025-08-12T00:00	12550	195	-52.2	-74.5	262	6	
2025-08-12T00:00	12600	193	-52.3	-75.0	255	6	
2025-08-12T00:00	12650	192	-52.2	-75.5	240	6	
2025-08-12T00:00	12700	190	-52.2	-75.7	233	6	
2025-08-12T00:00	12750	189	-52.4	-75.8	238	6	
2025-08-12T00:00	12800	187	-52.7	-76.0	247	6	
2025-08-12T00:00	12850	186	-52.8	-76.3	254	6	
2025-08-12T00:00	12900	184	-53.1	-76.5	260	5	
2025-08-12T00:00	12950	183	-53.5	-76.7	266	4	
2025-08-12T00:00	13000	181	-53.5	-77.2	268	3	
2025-08-12T00:00	13050	180	-53.4	-77.6	251	2	
2025-08-12T00:00	13100	179	-53.6	-77.8	232	2	
2025-08-12T00:00	13150	177	-53.8	-77.9	224	3	
2025-08-12T00:00	13200	176	-54.1	-78.1	225	3	
2025-08-12T00:00	13250	174	-54.5	-78.1	231	4	
2025-08-12T00:00	13300	173	-54.6	-77.6	233	4	
2025-08-12T00:00	13350	172	-54.5	-76.3	232	4	
2025-08-12T00:00	13400	170	-54.6	-76.1	234	4	
2025-08-12T00:00	13450	169	-54.9	-76.5	237	4	
2025-08-12T00:00	13500	168	-55.4	-76.6	239	3	
2025-08-12T00:00	13550	167	-55.8	-76.6	239	3	
2025-08-12T00:00	13600	165	-56.3	-76.6	239	3	
2025-08-12T00:00	13650	164	-56.8	-76.8	235	4	
2025-08-12T00:00	13700	163	-56.9	-77.0	230	5	
2025-08-12T00:00	13750	161	-56.6	-77.6	231	5	
2025-08-12T00:00	13800	160	-56.5	-78.5	237	5	
2025-08-12T00:00	13850	159	-56.7	-79.1	238	5	
2025-08-12T00:00	13900	158	-56.7	-79.6	234	6	
2025-08-12T00:00	13950	156	-56.7	-80.4	233	7	
2025-08-12T00:00	14000	155	-57.0	-81.1	235	7	
2025-08-12T00:00	14050	154	-57.3	-81.4	241	7	
2025-08-12T00:00	14100	153	-57.4	-81.7	248	7	
2025-08-12T00:00	14150	151	-57.6	-81.5	257	6	
2025-08-12T00:00	14200	150	-57.7	-81.1	264	5	
2025-08-12T00:00	14250	149	-58.0	-81.1	269	5	
2025-08-12T00:00	14300	148	-58.3	-81.4	273	5	
2025-08-12T00:00	14350	147	-58.1	-81.6	274	6	
2025-08-12T00:00	14400	146	-58.4	-81.9	277	7	
2025-08-12T00:00	14450	144	-58.4	-82.1	283	7	
2025-08-12T00:00	14500	143	-58.5	-82.2	291	7	
2025-08-12T00:00	14550	142	-58.7	-82.5	298	7	
2025-08-12T00:00	14600	141	-58.9	-82.7	300	7	
2025-08-12T00:00	14650	140	-59.0	-82.8	297	6	
2025-08-12T00:00	14700	139	-59.2	-82.9	291	6	
2025-08-12T00:00	14750	138	-59.3	-82.9	287	6	
2025-08-12T00:00	14800	137	-59.5	-83.0	286	5	
2025-08-12T00:00	14850	135	-59.7	-83.1	288	5	
2025-08-12T00:00	14900	134	-60.0	-83.3	292	5	
2025-08-12T00:00	14950	133	-60.0	-83.4	297	5	
2025-08-12T00:00	15000	132	-60.1	-83.6	303	4	
2025-08-12T00:00	15050	131	-60.2	-83.9	304	3	
2025-08-12T00:00	15100	130	-60.4	-84.0	295	2	
2025-08-12T00:00	15150	129	-60.5	-84.0	269	1	
2025-08-12T00:00	15200	128	-60.6	-84.1	186	1	
2025-08-12T00:00	15250	127	-60.5	-84.0	171	3	
2025-08-12T00:00	15300	126	-60.6	-83.9	179	3	
2025-08-12T00:00	15350	125	-61.0	-83.5	191	4	
2025-08-12T00:00	15400	124	-61.3	-82.8	198	5	
2025-08-12T00:00	15450	123	-61.3	-82.6	203	6	
2025-08-12T00:00	15500	122	-61.4	-83.2	208	6	
2025-08-12T00:00	15550	121	-61.2	-83.6	213	6	
2025-08-12T00:00	15600	120	-61.4	-83.9	215	7	
2025-08-12T00:00	15650	119	-61.5	-84.0	220	7	
2025-08-12T00:00	15700	118	-61.8	-84.0	225	7	
2025-08-12T00:00	15750	117	-61.6	-84.0	228	6	
2025-08-12T00:00	15800	116	-61.1	-84.1	234	6	
2025-08-12T00:00	15850	115	-60.8	-84.4	238	6	
2025-08-12T00:00	15900	114	-60.6	-84.6	236	6	
2025-08-12T00:00	15950	114	-59.6	-84.5	234	6	
2025-08-12T00:00	16000	113	-58.8	-84.3	235	6	
2025-08-12T00:00	16050	112	-59.3	-84.3	236	6	
2025-08-12T00:00	16100	111	-59.8	-84.2	239	7	
2025-08-12T00:00	16150	110	-60.3	-84.3	244	8	
2025-08-12T00:00	16200	109	-60.7	-84.4	254	9	
2025-08-12T00:00	16250	108	-60.8	-84.6	264	9	
2025-08-12T00:00	16300	107	-60.6	-84.6	273	9	
2025-08-12T00:00	16350	106	-60.5	-84.7	279	8	
2025-08-12T00:00	16400	106	-60.5	-84.7	281	7	
2025-08-12T00:00	16450	105	-60.5	-84.7	279	6	
2025-08-12T00:00	16500	104	-60.6	-84.8	274	6	
2025-08-12T00:00	16550	103	-60.6	-84.8	265	5	
2025-08-12T00:00	16600	102	-60.7	-84.8	251	4	
2025-08-12T00:00	16650	101	-61.0	-85.1	241	5	
2025-08-12T00:00	16700	101	-60.8	-85.0	237	6	
2025-08-12T00:00	16750	100	-61.0	-85.2	238	8	
2025-08-12T00:00	16800	99	-60.9	-85.3	244	9	
2025-08-12T00:00	16850	98	-60.8	-85.4	248	9	
2025-08-12T00:00	16900	97	-60.7	-85.4	250	9	
2025-08-12T00:00	16950	97	-60.9	-85.5	251	9	
2025-08-12T00:00	17000	96	-60.9	-85.5	251	9	
2025-08-12T00:00	17050	95	-61.2	-85.5	251	9	
2025-08-12T00:00	17100	94	-61.6	-85.6	255	9	
2025-08-12T00:00	17150	94	-62.1	-85.7	263	10	
2025-08-12T00:00	17200	93	-62.4	-85.9	273	10	
2025-08-12T00:00	17250	92	-62.0	-86.0	282	10	
2025-08-12T00:00	17300	91	-61.8	-86.2	289	9	
2025-08-12T00:00	17350	91	-61.5	-86.1	292	7	
2025-08-12T00:00	17400	90	-61.6	-86.3	290	6	
2025-08-12T00:00	17450	89	-61.4	-86.3	282	4	
2025-08-12T00:00	17500	88	-61.2	-86.1	272	4	
2025-08-12T00:00	17550	88	-61.6	-86.2	264	4	
2025-08-12T00:00	17600	87	-61.9	-86.3	258	5	
2025-08-12T00:00	17650	86	-62.1	-86.3	257	5	
2025-08-12T00:00	17700	86	-62.0	-86.3	255	6	
2025-08-12T00:00	17750	85	-62.2	-86.4	251	6	
2025-08-12T00:00	17800	84	-62.4	-86.5	251	6	
2025-08-12T00:00	17850	84	-62.5	-86.6	258	6	
2025-08-12T00:00	17900	83	-62.5	-86.6	266	6	
2025-08-12T00:00	17950	82	-62.7	-86.6	266	5	
2025-08-12T00:00	18000	82	-62.6	-86.7	260	6	
2025-08-12T00:00	18050	81	-62.8	-87.0	257	6	
2025-08-12T00:00	18100	80	-62.5	-87.0	260	6	
2025-08-12T00:00	18150	80	-62.0	-86.9	268	5	
2025-08-12T00:00	18200	79	-61.7	-86.8	281	4	
2025-08-12T00:00	18250	78	-61.5	-86.7	293	3	
2025-08-12T00:00	18300	78	-61.8	-87.0	299	2	
2025-08-12T00:00	18350	77	-61.7	-86.9	311	1	
2025-08-12T00:00	18400	76	-61.5	-86.8	355	1	
2025-08-12T00:00	18450	76	-61.4	-86.8	66	1	
2025-08-12T00:00	18500	75	-61.3	-86.8	131	1	
2025-08-12T00:00	18550	75	-61.4	-86.9	168	2	
2025-08-12T00:00	18600	74	-61.2	-86.8	197	3	
2025-08-12T00:00	18650	73	-60.9	-86.8	223	4	
2025-08-12T00:00	18700	73	-60.5	-86.7	252	4	
2025-08-12T00:00	18750	72	-60.3	-86.7	275	5	
2025-08-12T00:00	18800	72	-60.2	-86.5	287	5	
2025-08-12T00:00	18850	71	-60.4	-86.6	291	4	
2025-08-12T00:00	18900	71	-60.3	-86.6	285	4	
2025-08-12T00:00	18950	70	-60.3	-86.6	271	3	
2025-08-12T00:00	19000	69	-60.2	-86.6	265	3	
2025-08-12T00:00	19050	69	-60.0	-86.6	275	3	
2025-08-12T00:00	19100	68	-59.6	-86.5	289	4	
2025-08-12T00:00	19150	68	-59.5	-86.4	298	4	
2025-08-12T00:00	19200	67	-59.6	-86.3	308	4	
2025-08-12T00:00	19250	67	-59.6	-86.3	320	4	
2025-08-12T00:00	19300	66	-59.7	-86.4	331	4	
2025-08-12T00:00	19350	66	-59.7	-86.3	342	4	
2025-08-12T00:00	19400	65	-59.6	-86.3	358	4	
2025-08-12T00:00	19450	65	-59.5	-86.4	13	4	
2025-08-12T00:00	19500	64	-59.4	-86.5	30	3	
2025-08-12T00:00	19550	64	-59.2	-86.3	53	3	
2025-08-12T00:00	19600	63	-59.6	-86.4	75	2	
2025-08-12T00:00	19650	63	-59.7	-86.4	84	2	
2025-08-12T00:00	19700	62	-59.5	-86.4	84	2	
2025-08-12T00:00	19750	62	-59.4	-86.4	94	2	
2025-08-12T00:00	19800	61	-59.1	-86.3	120	2	
2025-08-12T00:00	19850	61	-59.3	-86.2	153	3	
2025-08-12T00:00	19900	60	-59.6	-86.3	178	4	
2025-08-12T00:00	19950	60	-59.9	-86.3	195	4	
2025-08-12T00:00	20000	59	-60.1	-86.4	203	3	
2025-08-12T00:00	20050	59	-59.9		194	2	
2025-08-12T00:00	20100	58	-59.8		171	2	
2025-08-12T00:00	20150	58	-60.1		152	2	
2025-08-12T00:00	20200	57	-60.3		141	1	
2025-08-12T00:00	20250	57	-60.7		120	1	
2025-08-12T00:00	20300	56	-60.6		45	1	
2025-08-12T00:00	20350	56	-60.8		44	2	
2025-08-12T00:00	20400	55	-60.6		50	3	
2025-08-12T00:00	20450	55	-60.2		58	4	
2025-08-12T00:00	20500	55	-60.1		73	4	
2025-08-12T00:00	20550	54	-60.1		91	5	
2025-08-12T00:00	20600	54	-60.2		108	5	
2025-08-12T00:00	20650	53	-60.2		122	5	
2025-08-12T00:00	20700	53	-60.1		136	5	
2025-08-12T00:00	20750	52	-60.1		143	5	
2025-08-12T00:00	20800	52	-60.2		137	4	
2025-08-12T00:00	20850	52	-60.1		118	2	
2025-08-12T00:00	20900	51	-59.8		106	1	
2025-08-12T00:00	20950	51	-59.5		141	1	
2025-08-12T00:00	21000	50	-59.3		170	1	
2025-08-12T00:00	21050	50	-59.1		37	1	
2025-08-12T00:00	21100	50	-58.7		30	2	
2025-08-12T00:00	21150	49	-58.7		37	4	
2025-08-12T00:00	21200	49	-58.7		47	5	
2025-08-12T00:00	21250	48	-58.5		58	5	
2025-08-12T00:00	21300	48	-58.3		69	5	
2025-08-12T00:00	21350	48	-58.3		77	5	
2025-08-12T00:00	21400	47	-58.6		81	5	
2025-08-12T00:00	21450	47	-58.8		81	5	
2025-08-12T00:00	21500	47	-58.8		80	5	
2025-08-12T12:00	491	961	29.4	18.2	349	2	
2025-08-12T12:00	501	960	29.4	18.6	26	1	
2025-08-12T12:00	520	958	28.5	18.4	35	1	
2025-08-12T12:00	540	956	28.2	18.2	28	1	
2025-08-12T12:00	560	954	28.0	17.9	19	1	
2025-08-12T12:00	580	952	27.8	17.8	5	1	
2025-08-12T12:00	600	950	27.5	17.8	351	1	
2025-08-12T12:00	620	948	27.4	17.7	338	1	
2025-08-12T12:00	640	945	27.2	17.6	326	1	
2025-08-12T12:00	660	943	27.0	17.7	321	1	
2025-08-12T12:00	680	941	26.9	17.8	319	1	
2025-08-12T12:00	700	939	26.7	17.7	319	1	
2025-08-12T12:00	720	937	26.5	17.5	317	0	
2025-08-12T12:00	740	935	26.3	17.4	291	0	
2025-08-12T12:00	760	933	26.1	17.3	223	0	
2025-08-12T12:00	780	931	25.9	17.4	209	1	
2025-08-12T12:00	800	928	25.8	17.2	208	1	
2025-08-12T12:00	820	926	25.7	17.1	206	1	
2025-08-12T12:00	840	924	25.7	16.8	202	2	
2025-08-12T12:00	860	922	25.8	16.5	198	2	
2025-08-12T12:00	880	920	25.6	16.5	198	3	
2025-08-12T12:00	900	918	25.5	16.1	200	3	
2025-08-12T12:00	920	916	25.3	16.3	205	4	
2025-08-12T12:00	940	914	25.1	16.3	209	5	
2025-08-12T12:00	960	912	25.2	15.6	212	5	
2025-08-12T12:00	980	910	25.4	15.2	215	5	
2025-08-12T12:00	1000	907	25.4	14.9	217	6	
2025-08-12T12:00	1020	906	25.3	14.9	219	6	
2025-08-12T12:00	1040	903	25.1	14.7	220	6	
2025-08-12T12:00	1060	901	25.2	14.1	220	6	
2025-08-12T12:00	1080	900	25.1	14.1	221	6	
2025-08-12T12:00	1100	897	25.0	13.3	221	6	
2025-08-12T12:00	1120	895	25.2	12.0	221	6	
2025-08-12T12:00	1140	893	25.2	11.3	222	6	
2025-08-12T12:00	1160	891	25.3	10.3	224	6	
2025-08-12T12:00	1180	889	25.3	10.1	226	6	
2025-08-12T12:00	1200	887	25.1	10.0	228	6	
2025-08-12T12:00	1220	885	25.0	9.6	231	6	
2025-08-12T12:00	1240	883	24.9	9.4	235	6	
2025-08-12T12:00	1260	881	24.8	9.4	238	6	
2025-08-12T12:00	1280	879	24.6	9.5	242	6	
2025-08-12T12:00	1300	877	24.4	9.5	245	6	
2025-08-12T12:00	1320	875	24.4	9.3	248	5	
2025-08-12T12:00	1340	873	24.4	9.2	249	5	
2025-08-12T12:00	1360	871	24.2	9.0	251	5	
2025-08-12T12:00	1380	869	24.1	9.1	252	5	
2025-08-12T12:00	1400	867	23.9	9.3	252	5	
2025-08-12T12:00	1420	865	23.8	8.6	251	5	
2025-08-12T12:00	1440	863	23.7	8.0	249	5	
2025-08-12T12:00	1460	861	23.7	6.9	248	5	
2025-08-12T12:00	1480	859	23.6	5.4	246	5	
2025-08-12T12:00	1500	857	23.6	4.0	244	5	
2025-08-12T12:00	1520	855	23.4	4.7	243	5	
2025-08-12T12:00	1540	853	23.2	4.5	243	5	
2025-08-12T12:00	1560	851	23.2	1.9	243	5	
2025-08-12T12:00	1580	849	23.1	0.9	243	5	
2025-08-12T12:00	1600	847	23.1	-0.6	243	5	
2025-08-12T12:00	1620	845	23.0	-1.3	243	5	
2025-08-12T12:00	1640	844	22.8	-1.4	242	5	
2025-08-12T12:00	1660	842	22.7	-2.3	242	5	
2025-08-12T12:00	1680	840	22.5	-2.6	242	4	
2025-08-12T12:00	1700	838	22.3	-3.0	243	4	
2025-08-12T12:00	1720	836	22.3	-4.9	244	3	
2025-08-12T12:00	1740	834	22.3	-6.5	247	3	
2025-08-12T12:00	1760	832	22.1	-7.2	250	2	
2025-08-12T12:00	1780	830	22.0	-7.6	253	2	
2025-08-12T12:00	1800	828	21.8	-7.7	257	2	
2025-08-12T12:00	1820	826	21.7	-7.9	260	2	
2025-08-12T12:00	1840	824	21.5	-7.8	264	2	
2025-08-12T12:00	1860	822	21.3	-7.4	268	2	
2025-08-12T12:00	1880	821	21.1	-5.7	271	2	
2025-08-12T12:00	1900	819	20.9	-4.8	272	2	
2025-08-12T12:00	1920	817	20.8	-5.3	272	3	
2025-08-12T12:00	1940	815	20.7	-5.3	271	3	
2025-08-12T12:00	1960	813	20.6	-5.2	271	3	
2025-08-12T12:00	1980	811	20.4	-5.7	271	3	
2025-08-12T12:00	2000	809	20.2	-6.0	274	4	
2025-08-12T12:00	2020	807	20.1	-6.5	278	4	
2025-08-12T12:00	2040	806	20.0	-6.7	284	4	
2025-08-12T12:00	2060	804	19.9	-6.8	290	4	
2025-08-12T12:00	2080	802	19.9	-7.2	297	4	
2025-08-12T12:00	2100	800	19.7	-6.9	302	4	
2025-08-12T12:00	2120	798	19.6	-6.5	307	4	
2025-08-12T12:00	2140	796	19.4	-6.4	310	4	
2025-08-12T12:00	2160	794	19.3	-6.2	312	3	
2025-08-12T12:00	2180	792	19.1	-5.9	314	3	
2025-08-12T12:00	2200	790	18.9	-5.7	316	3	
2025-08-12T12:00	2220	789	18.8	-5.4	317	4	
2025-08-12T12:00	2240	787	18.7	-5.3	319	4	
2025-08-12T12:00	2260	785	18.5	-3.7	321	4	
2025-08-12T12:00	2280	783	18.4	-1.9	322	5	
2025-08-12T12:00	2300	781	18.2	-1.2	323	5	
2025-08-12T12:00	2320	779	18.0	0.2	324	6	
2025-08-12T12:00	2340	778	17.9	1.1	324	6	
2025-08-12T12:00	2360	776	17.7	2.1	325	6	
2025-08-12T12:00	2380	774	17.5	2.2	326	6	
2025-08-12T12:00	2400	772	17.3	2.2	327	6	
2025-08-12T12:00	2420	770	17.1	2.2	328	6	
2025-08-12T12:00	2440	769	16.9	2.0	329	5	
2025-08-12T12:00	2460	767	16.8	1.7	330	5	
2025-08-12T12:00	2480	765	16.6	1.6	329	5	
2025-08-12T12:00	2500	763	16.4	1.8	329	5	
2025-08-12T12:00	2520	762	16.3	1.9	329	5	
2025-08-12T12:00	2540	760	16.1	1.4	329	5	
2025-08-12T12:00	2560	758	16.0	1.1	329	5	
2025-08-12T12:00	2580	756	15.8	0.7	330	5	
2025-08-12T12:00	2600	754	15.6	0.0	329	4	
2025-08-12T12:00	2620	752	15.5	-1.1	327	4	
2025-08-12T12:00	2640	751	15.4	-1.6	324	4	
2025-08-12T12:00	2660	749	15.2	-1.8	321	4	
2025-08-12T12:00	2680	747	15.0	-1.7	316	3	
2025-08-12T12:00	2700	745	14.9	-1.5	314	3	
2025-08-12T12:00	2720	744	14.7	-1.5	312	3	
2025-08-12T12:00	2740	742	14.5	-1.4	313	3	
2025-08-12T12:00	2760	740	14.3	-1.2	314	3	
2025-08-12T12:00	2780	738	14.1	-1.2	315	3	
2025-08-12T12:00	2800	737	13.9	-1.2	317	3	
2025-08-12T12:00	2820	735	13.7	-1.1	318	3	
2025-08-12T12:00	2840	733	13.5	-1.1	320	3	
2025-08-12T12:00	2860	731	13.3	-1.0	322	3	
2025-08-12T12:00	2880	730	13.1	-0.8	323	4	
2025-08-12T12:00	2900	728	12.9	-0.7	322	4	
2025-08-12T12:00	2920	726	12.7	-0.5	321	4	
2025-08-12T12:00	2940	724	12.5	-0.2	319	4	
2025-08-12T12:00	2960	723	12.3	0.1	315	4	
2025-08-12T12:00	2980	721	12.2	0.6	312	4	
2025-08-12T12:00	3000	719	12.0	1.2	308	4	
2025-08-12T12:00	3020	718	11.8	0.9	304	4	
2025-08-12T12:00	3040	716	11.6	0.5	300	4	
2025-08-12T12:00	3060	714	11.5	-0.1	296	4	
2025-08-12T12:00	3080	713	11.4	-0.6	294	4	
2025-08-12T12:00	3100	711	11.2	-0.7	294	4	
2025-08-12T12:00	3120	709	11.0	-0.6	295	4	
2025-08-12T12:00	3140	707	10.8	-0.3	297	5	
2025-08-12T12:00	3160	706	10.6	0.4	299	5	
2025-08-12T12:00	3180	704	10.5	0.7	302	5	
2025-08-12T12:00	3200	703	10.3	0.7	305	6	
2025-08-12T12:00	3220	701	10.1	0.7	308	6	
2025-08-12T12:00	3240	699	9.9	0.6	309	6	
2025-08-12T12:00	3260	697	9.7	0.6	310	6	
2025-08-12T12:00	3280	696	9.6	0.3	311	6	
2025-08-12T12:00	3300	694	9.4	0.4	312	5	
2025-08-12T12:00	3320	692	9.3	0.3	314	6	
2025-08-12T12:00	3340	691	9.1	0.2	316	6	
2025-08-12T12:00	3360	689	9.0	0.2	318	6	
2025-08-12T12:00	3380	687	8.8	0.1	319	6	
2025-08-12T12:00	3400	686	8.6	0.0	320	7	
2025-08-12T12:00	3420	684	8.4	-0.2	319	7	
2025-08-12T12:00	3440	682	8.3	-0.2	319	7	
2025-08-12T12:00	3460	681	8.1	-0.3	318	7	
2025-08-12T12:00	3480	679	8.0	-0.5	318	6	
2025-08-12T12:00	3500	677	7.8	-0.7	318	6	
2025-08-12T12:00	3520	676	7.6	-0.8	318	5	
2025-08-12T12:00	3540	674	7.4	-0.4	318	5	
2025-08-12T12:00	3560	672	7.3	-0.5	316	4	
2025-08-12T12:00	3580	671	7.1	-0.6	314	4	
2025-08-12T12:00	3600	669	7.0	-0.6	311	4	
2025-08-12T12:00	3620	668	6.8	-0.7	308	5	
2025-08-12T12:00	3640	666	6.6	-0.9	307	5	
2025-08-12T12:00	3660	665	6.5	-0.8	305	5	
2025-08-12T12:00	3680	663	6.3	-0.8	304	5	
2025-08-12T12:00	3700	661	6.0	-0.8	304	6	
2025-08-12T12:00	3720	659	5.9	-0.9	305	6	
2025-08-12T12:00	3740	658	5.7	-0.8	306	6	
2025-08-12T12:00	3760	656	5.5	-1.2	308	6	
2025-08-12T12:00	3780	655	5.3	-1.0	311	6	
2025-08-12T12:00	3800	653	5.1	-1.1	314	6	
2025-08-12T12:00	3820	652	4.9	-1.4	319	6	
2025-08-12T12:00	3840	650	4.7	-1.9	324	6	
2025-08-12T12:00	3860	648	4.6	-1.7	327	6	
2025-08-12T12:00	3880	647	4.4	-1.8	329	6	
2025-08-12T12:00	3900	645	4.2	-2.1	330	6	
2025-08-12T12:00	3920	644	4.0	-2.1	328	6	
2025-08-12T12:00	3940	642	3.8	-2.0	326	6	
2025-08-12T12:00	3960	640	3.6	-2.1	323	6	
2025-08-12T12:00	3980	639	3.4	-2.5	320	6	
2025-08-12T12:00	4000	637	3.2	-2.2	319	6	
2025-08-12T12:00	4020	636	3.0	-2.1	320	6	
2025-08-12T12:00	4040	634	2.9	-3.7	320	6	
2025-08-12T12:00	4060	632	2.9	-4.8	320	6	
2025-08-12T12:00	4080	631	2.7	-5.3	319	6	
2025-08-12T12:00	4100	629	2.6	-5.5	317	7	
2025-08-12T12:00	4120	628	2.4	-5.4	316	7	
2025-08-12T12:00	4140	626	2.2	-5.5	314	7	
2025-08-12T12:00	4160	625	2.0	-5.6	312	7	
2025-08-12T12:00	4180	623	1.9	-5.5	310	8	
2025-08-12T12:00	4200	622	1.7	-5.3	309	8	
2025-08-12T12:00	4220	620	1.5	-5.3	309	8	
2025-08-12T12:00	4240	618	1.3	-5.3	309	8	
2025-08-12T12:00	4260	617	1.1	-5.6	310	8	
2025-08-12T12:00	4280	616	1.0	-5.9	310	7	
2025-08-12T12:00	4300	614	0.8	-5.9	311	7	
2025-08-12T12:00	4320	612	0.6	-5.5	311	7	
2025-08-12T12:00	4340	611	0.4	-5.8	309	7	
2025-08-12T12:00	4360	609	0.3	-6.4	307	6	
2025-08-12T12:00	4380	608	0.1	-6.8	306	6	
2025-08-12T12:00	4400	606	-0.1	-7.2	304	6	
2025-08-12T12:00	4420	605	-0.2	-7.2	303	5	
2025-08-12T12:00	4440	603	-0.4	-7.3	303	5	
2025-08-12T12:00	4460	602	-0.6	-7.5	306	4	
2025-08-12T12:00	4480	600	-0.8	-7.6	312	4	
2025-08-12T12:00	4500	599	-1.0	-8.0	317	4	
2025-08-12T12:00	4520	597	-1.1	-8.5	320	4	
2025-08-12T12:00	4540	596	-1.3	-8.7	321	4	
2025-08-12T12:00	4560	594	-1.4	-9.0	320	4	
2025-08-12T12:00	4580	593	-1.6	-9.3	316	4	
2025-08-12T12:00	4600	591	-1.7	-9.4	311	3	
2025-08-12T12:00	4620	590	-1.9	-9.4	304	3	
2025-08-12T12:00	4640	588	-2.1	-9.7	297	3	
2025-08-12T12:00	4660	587	-2.2	-9.8	292	3	
2025-08-12T12:00	4680	586	-2.3	-9.7	289	3	
2025-08-12T12:00	4700	584	-2.5	-9.8	285	3	
2025-08-12T12:00	4720	583	-2.6	-9.9	280	2	
2025-08-12T12:00	4740	581	-2.8	-10.1	274	2	
2025-08-12T12:00	4760	580	-3.0	-10.1	268	2	
2025-08-12T12:00	4780	578	-3.1	-9.3	262	2	
2025-08-12T12:00	4800	577	-3.3	-6.4	258	2	
2025-08-12T12:00	4820	575	-3.4	-6.6	256	3	
2025-08-12T12:00	4840	574	-3.6	-7.1	254	3	
2025-08-12T12:00	4860	572	-3.8	-7.6	251	3	
2025-08-12T12:00	4880	571	-3.9	-7.7	248	3	
2025-08-12T12:00	4900	569	-4.1	-7.9	246	3	
2025-08-12T12:00	4920	568	-4.2	-8.9	245	3	
2025-08-12T12:00	4940	567	-4.2	-10.9	246	4	
2025-08-12T12:00	4960	565	-4.2	-13.0	248	4	
2025-08-12T12:00	4980	564	-4.3	-15.3	250	4	
2025-08-12T12:00	5000	562	-4.2	-18.6	251	4	
2025-08-12T12:00	5020	561	-4.0	-18.8	252	5	
2025-08-12T12:00	5040	559	-4.1	-17.5	253	5	
2025-08-12T12:00	5060	558	-4.2	-17.3	252	5	
2025-08-12T12:00	5080	557	-4.2	-18.2	252	5	
2025-08-12T12:00	5100	555	-4.3	-19.0	252	6	
2025-08-12T12:00	5120	554	-4.4	-20.0	252	6	
2025-08-12T12:00	5140	552	-4.5	-20.7	253	6	
2025-08-12T12:00	5160	551	-4.7	-21.3	254	6	
2025-08-12T12:00	5180	550	-4.8	-21.4	256	7	
2025-08-12T12:00	5200	548	-4.9	-20.5	257	7	
2025-08-12T12:00	5220	547	-5.0	-20.3	257	7	
2025-08-12T12:00	5240	545	-5.1	-20.8	257	8	
2025-08-12T12:00	5260	544	-5.2	-20.8	257	8	
2025-08-12T12:00	5280	543	-5.3	-20.4	257	8	
2025-08-12T12:00	5300	541	-5.4	-20.5	256	8	
2025-08-12T12:00	5320	540	-5.5	-20.3	256	8	
2025-08-12T12:00	5340	539	-5.5	-19.5	255	8	
2025-08-12T12:00	5360	537	-5.7	-19.8	255	8	
2025-08-12T12:00	5380	536	-5.8	-20.6	254	8	
2025-08-12T12:00	5400	534	-5.8	-22.7	253	8	
2025-08-12T12:00	5420	533	-5.8	-24.1	252	7	
2025-08-12T12:00	5440	532	-5.9	-24.0	250	7	
2025-08-12T12:00	5460	530	-6.0	-23.7	248	7	
2025-08-12T12:00	5480	529	-6.2	-23.3	246	7	
2025-08-12T12:00	5500	528	-6.3	-22.0	243	7	
2025-08-12T12:00	5520	526	-6.4	-20.0	241	7	
2025-08-12T12:00	5540	525	-6.5	-19.3	239	8	
2025-08-12T12:00	5560	523	-6.7	-19.1	237	8	
2025-08-12T12:00	5580	522	-6.9	-19.2	236	9	
2025-08-12T12:00	5600	521	-7.1	-19.5	235	9	
2025-08-12T12:00	5620	520	-7.2	-20.1	234	9	
2025-08-12T12:00	5640	518	-7.3	-21.7	233	10	
2025-08-12T12:00	5660	517	-7.4	-23.7	233	10	
2025-08-12T12:00	5680	516	-7.5	-24.4	234	10	
2025-08-12T12:00	5700	514	-7.7	-25.6	235	11	
2025-08-12T12:00	5720	513	-7.8	-26.8	236	11	
2025-08-12T12:00	5740	511	-8.0	-27.8	238	10	
2025-08-12T12:00	5760	510	-8.2	-28.4	240	10	
2025-08-12T12:00	5780	509	-8.4	-28.4	242	10	
2025-08-12T12:00	5800	508	-8.5	-28.5	243	10	
2025-08-12T12:00	5820	506	-8.7	-28.3	244	10	
2025-08-12T12:00	5840	505	-8.9	-28.1	245	10	
2025-08-12T12:00	5860	504	-9.1	-28.0	244	10	
2025-08-12T12:00	5880	502	-9.2	-27.6	244	10	
2025-08-12T12:00	5900	501	-9.4	-26.8	242	10	
2025-08-12T12:00	5920	500	-9.6	-26.4	241	11	
2025-08-12T12:00	5940	498	-9.7	-26.8	239	11	
2025-08-12T12:00	5960	497	-9.9	-26.9	238	11	
2025-08-12T12:00	5980	496	-10.1	-26.9	238	11	
2025-08-12T12:00	6000	495	-10.2	-26.9	238	11	
2025-08-12T12:00	6020	493	-10.4	-27.0	238	10	
2025-08-12T12:00	6040	492	-10.6	-27.0	239	10	
2025-08-12T12:00	6060	491	-10.8	-26.9	239	10	
2025-08-12T12:00	6080	490	-11.0	-26.9	240	10	
2025-08-12T12:00	6100	488	-11.2	-26.8	240	10	
2025-08-12T12:00	6120	487	-11.3	-26.7	240	10	
2025-08-12T12:00	6140	486	-11.5	-26.7	240	10	
2025-08-12T12:00	6160	485	-11.7	-26.8	240	10	
2025-08-12T12:00	6180	483	-11.9	-26.7	240	10	
2025-08-12T12:00	6200	482	-12.1	-26.7	241	10	
2025-08-12T12:00	6220	481	-12.3	-26.7	241	10	
2025-08-12T12:00	6240	479	-12.4	-26.8	241	10	
2025-08-12T12:00	6260	478	-12.6	-27.0	242	10	
2025-08-12T12:00	6280	477	-12.8	-27.1	242	10	
2025-08-12T12:00	6300	475	-13.0	-27.1	242	10	
2025-08-12T12:00	6320	474	-13.2	-27.4	242	10	
2025-08-12T12:00	6340	473	-13.3	-27.4	242	10	
2025-08-12T12:00	6360	472	-13.5	-27.4	242	9	
2025-08-12T12:00	6380	471	-13.7	-27.4	243	9	
2025-08-12T12:00	6400	469	-13.9	-27.5	243	9	
2025-08-12T12:00	6420	468	-14.1	-27.6	243	9	
2025-08-12T12:00	6440	467	-14.3	-27.8	243	9	
2025-08-12T12:00	6460	466	-14.4	-28.2	244	9	
2025-08-12T12:00	6480	465	-14.6	-28.6	244	10	
2025-08-12T12:00	6500	463	-14.8	-29.1	244	10	
2025-08-12T12:00	6520	462	-14.9	-29.6	244	10	
2025-08-12T12:00	6540	461	-15.1	-29.7	244	10	
2025-08-12T12:00	6560	460	-15.2	-29.7	245	10	
2025-08-12T12:00	6580	458	-15.4	-29.8	245	10	
2025-08-12T12:00	6600	457	-15.5	-30.1	245	10	
2025-08-12T12:00	6620	456	-15.6	-30.3	244	10	
2025-08-12T12:00	6640	455	-15.7	-30.9	244	10	
2025-08-12T12:00	6660	454	-15.9	-30.9	244	10	
2025-08-12T12:00	6680	452	-16.0	-31.0	243	10	
2025-08-12T12:00	6700	451	-16.1	-31.5	241	10	
2025-08-12T12:00	6720	450	-16.2	-31.7	240	10	
2025-08-12T12:00	6740	449	-16.3	-32.1	239	10	
2025-08-12T12:00	6760	448	-16.4	-32.5	239	10	
2025-08-12T12:00	6780	446	-16.5	-32.7	239	10	
2025-08-12T12:00	6800	445	-16.6	-32.7	239	9	
2025-08-12T12:00	6820	444	-16.8	-32.6	240	9	
2025-08-12T12:00	6840	443	-17.0	-33.1	242	9	
2025-08-12T12:00	6860	442	-17.2	-34.0	243	9	
2025-08-12T12:00	6880	440	-17.3	-34.4	244	9	
2025-08-12T12:00	6900	439	-17.4	-34.1	244	9	
2025-08-12T12:00	6920	438	-17.6	-34.0	244	9	
2025-08-12T12:00	6940	437	-17.8	-33.3	243	9	
2025-08-12T12:00	6960	436	-18.0	-32.9	241	9	
2025-08-12T12:00	6980	435	-18.1	-31.9	240	9	
2025-08-12T12:00	7000	434	-18.2	-31.2	238	9	
2025-08-12T12:00	7020	432	-18.3	-29.6	236	9	
2025-08-12T12:00	7040	431	-18.5	-29.5	236	9	
2025-08-12T12:00	7060	430	-18.6	-28.6	235	9	
2025-08-12T12:00	7080	429	-18.7	-27.9	236	9	
2025-08-12T12:00	7100	428	-18.9	-27.4	238	9	
2025-08-12T12:00	7120	427	-19.0	-28.3	239	9	
2025-08-12T12:00	7140	425	-19.1	-28.8	240	9	
2025-08-12T12:00	7160	424	-19.3	-28.5	242	8	
2025-08-12T12:00	7180	423	-19.4	-28.4	243	8	
2025-08-12T12:00	7200	422	-19.6	-28.3	243	8	
2025-08-12T12:00	7220	421	-19.7	-28.4	244	8	
2025-08-12T12:00	7240	420	-19.8	-28.4	245	8	
2025-08-12T12:00	7260	419	-20.0	-28.6	245	8	
2025-08-12T12:00	7280	418	-20.0	-29.2	245	8	
2025-08-12T12:00	7300	416	-20.2	-29.3	246	8	
2025-08-12T12:00	7320	415	-20.3	-29.8	247	8	
2025-08-12T12:00	7340	414	-20.4	-30.2	249	8	
2025-08-12T12:00	7360	413	-20.6	-30.2	251	8	
2025-08-12T12:00	7380	412	-20.7	-30.3	253	8	
2025-08-12T12:00	7400	411	-20.9	-30.5	256	9	
2025-08-12T12:00	7420	410	-21.0	-31.1	258	9	
2025-08-12T12:00	7440	408	-21.1	-31.7	259	9	
2025-08-12T12:00	7460	407	-21.2	-31.8	259	9	
2025-08-12T12:00	7480	406	-21.4	-32.4	258	9	
2025-08-12T12:00	7500	405	-21.5	-33.6	257	9	
2025-08-12T12:00	7520	404	-21.5	-34.3	256	9	
2025-08-12T12:00	7540	403	-21.7	-34.4	255	9	
2025-08-12T12:00	7560	402	-21.9	-34.5	253	9	
2025-08-12T12:00	7580	401	-22.1	-34.7	252	9	
2025-08-12T12:00	7600	400	-22.2	-34.9	252	9	
2025-08-12T12:00	7620	399	-22.4	-35.2	251	9	
2025-08-12T12:00	7640	398	-22.6	-35.6	251	9	
2025-08-12T12:00	7660	396	-22.8	-35.6	251	9	
2025-08-12T12:00	7680	395	-22.9	-35.7	252	9	
2025-08-12T12:00	7700	394	-23.1	-36.3	252	9	
2025-08-12T12:00	7720	393	-23.2	-36.6	253	9	
2025-08-12T12:00	7740	392	-23.4	-36.7	254	9	
2025-08-12T12:00	7760	391	-23.6	-36.8	254	9	
2025-08-12T12:00	7780	390	-23.7	-37.0	254	9	
2025-08-12T12:00	7800	389	-23.8	-37.7	254	8	
2025-08-12T12:00	7820	388	-23.9	-37.8	254	8	
2025-08-12T12:00	7840	387	-24.1	-38.0	254	8	
2025-08-12T12:00	7860	386	-24.2	-38.0	254	8	
2025-08-12T12:00	7880	385	-24.3	-38.1	254	8	
2025-08-12T12:00	7900	384	-24.5	-38.2	254	8	
2025-08-12T12:00	7920	383	-24.7	-38.1	254	8	
2025-08-12T12:00	7940	382	-24.9	-38.2	255	8	
2025-08-12T12:00	7960	380	-25.0	-38.4	256	8	
2025-08-12T12:00	7980	380	-25.2	-38.5	257	8	
2025-08-12T12:00	8000	378	-25.4	-38.8	258	8	
2025-08-12T12:00	8020	377	-25.5	-39.0	260	8	
2025-08-12T12:00	8040	376	-25.7	-39.1	262	8	
2025-08-12T12:00	8060	375	-25.8	-39.2	263	8	
2025-08-12T12:00	8080	374	-25.9	-39.7	264	8	
2025-08-12T12:00	8100	373	-26.0	-40.0	265	8	
2025-08-12T12:00	8120	372	-26.1	-39.9	265	8	
2025-08-12T12:00	8140	371	-26.3	-39.9	266	8	
2025-08-12T12:00	8160	370	-26.5	-40.0	266	8	
2025-08-12T12:00	8180	369	-26.7	-40.0	265	8	
2025-08-12T12:00	8200	368	-26.9	-40.1	264	8	
2025-08-12T12:00	8220	367	-27.1	-40.1	263	8	
2025-08-12T12:00	8240	366	-27.2	-40.1	262	8	
2025-08-12T12:00	8260	365	-27.4	-39.9	261	8	
2025-08-12T12:00	8280	364	-27.5	-40.2	260	8	
2025-08-12T12:00	8300	363	-27.7	-40.4	260	8	
2025-08-12T12:00	8320	362	-27.9	-40.3	259	8	
2025-08-12T12:00	8340	361	-28.0	-40.1	260	8	
2025-08-12T12:00	8360	360	-28.2	-40.1	260	8	
2025-08-12T12:00	8380	359	-28.4	-39.9	260	8	
2025-08-12T12:00	8400	358	-28.5	-40.0	261	8	
2025-08-12T12:00	8420	357	-28.7	-39.9	261	8	
2025-08-12T12:00	8440	356	-28.8	-40.1	261	7	
2025-08-12T12:00	8460	355	-29.0	-40.3	262	7	
2025-08-12T12:00	8480	354	-29.1	-40.8	262	7	
2025-08-12T12:00	8500	353	-29.2	-40.9	263	7	
2025-08-12T12:00	8520	352	-29.2	-39.7	263	8	
2025-08-12T12:00	8540	351	-29.3	-39.8	264	8	
2025-08-12T12:00	8560	350	-29.3	-39.9	265	8	
2025-08-12T12:00	8580	349	-29.5	-39.9	265	8	
2025-08-12T12:00	8600	348	-29.6	-40.1	266	9	
2025-08-12T12:00	8620	347	-29.8	-40.3	267	9	
2025-08-12T12:00	8640	346	-30.0	-40.4	267	9	
2025-08-12T12:00	8660	345	-30.1	-40.6	268	9	
2025-08-12T12:00	8680	344	-30.3	-40.8	269	9	
2025-08-12T12:00	8700	343	-30.5	-40.9	270	9	
2025-08-12T12:00	8720	342	-30.6	-41.7	270	9	
2025-08-12T12:00	8740	341	-30.7	-41.4	270	9	
2025-08-12T12:00	8760	340	-30.9	-41.0	270	9	
2025-08-12T12:00	8780	339	-31.0	-41.2	270	9	
2025-08-12T12:00	8800	338	-31.1	-41.5	270	9	
2025-08-12T12:00	8820	337	-31.2	-42.1	270	9	
2025-08-12T12:00	8840	336	-31.4	-42.2	269	9	
2025-08-12T12:00	8860	336	-31.6	-43.2	269	9	
2025-08-12T12:00	8880	335	-31.8	-43.2	268	9	
2025-08-12T12:00	8900	334	-31.9	-42.7	267	9	
2025-08-12T12:00	8920	333	-32.1	-42.1	266	9	
2025-08-12T12:00	8940	332	-32.3	-42.2	265	9	
2025-08-12T12:00	8960	331	-32.5	-42.3	263	9	
2025-08-12T12:00	8980	330	-32.7	-42.0	262	9	
2025-08-12T12:00	9000	329	-32.9	-42.5	261	9	
2025-08-12T12:00	9020	328	-33.1	-44.5	260	9	
2025-08-12T12:00	9040	327	-33.2	-45.4	260	9	
2025-08-12T12:00	9060	326	-33.5	-45.6	260	9	
2025-08-12T12:00	9080	325	-33.6	-45.2	262	8	
2025-08-12T12:00	9100	324	-33.8	-45.7	264	8	
2025-08-12T12:00	9120	323	-34.0	-47.0	267	8	
2025-08-12T12:00	9140	323	-34.2	-49.3	270	8	
2025-08-12T12:00	9160	322	-34.3	-52.1	272	7	
2025-08-12T12:00	9180	321	-34.3	-53.8	274	7	
2025-08-12T12:00	9200	320	-34.5	-53.2	274	7	
2025-08-12T12:00	9220	319	-34.6	-53.2	275	7	
2025-08-12T12:00	9240	318	-34.7	-53.0	275	7	
2025-08-12T12:00	9260	317	-34.9	-53.1	275	7	
2025-08-12T12:00	9280	316	-35.0	-53.4	276	7	
2025-08-12T12:00	9300	315	-35.1	-53.6	276	7	
2025-08-12T12:00	9320	314	-35.3	-53.9	277	7	
2025-08-12T12:00	9340	313	-35.4	-54.0	279	7	
2025-08-12T12:00	9360	313	-35.6	-53.9	280	6	
2025-08-12T12:00	9380	312	-35.7	-53.9	282	7	
2025-08-12T12:00	9400	311	-35.9	-53.9	284	7	
2025-08-12T12:00	9420	310	-36.1	-54.8	285	7	
2025-08-12T12:00	9440	309	-36.2	-55.8	286	7	
2025-08-12T12:00	9460	308	-36.2	-55.7	286	7	
2025-08-12T12:00	9480	307	-36.4	-54.8	286	7	
2025-08-12T12:00	9500	306	-36.5	-54.0	285	7	
2025-08-12T12:00	9520	305	-36.6	-55.1	284	7	
2025-08-12T12:00	9540	304	-36.6	-56.5	284	7	
2025-08-12T12:00	9560	304	-36.7	-56.1	284	7	
2025-08-12T12:00	9580	303	-36.9	-55.3	284	7	
2025-08-12T12:00	9600	302	-37.0	-54.5	284	7	
2025-08-12T12:00	9620	301	-37.1	-54.7	285	7	
2025-08-12T12:00	9640	300	-37.1	-54.3	285	7	
2025-08-12T12:00	9660	299	-37.3	-53.9	285	7	
2025-08-12T12:00	9680	298	-37.5	-54.0	285	6	
2025-08-12T12:00	9700	297	-37.6	-54.1	284	6	
2025-08-12T12:00	9720	297	-37.7	-53.7	282	6	
2025-08-12T12:00	9740	296	-37.9	-53.4	280	6	
2025-08-12T12:00	9760	295	-38.1	-53.6	277	6	
2025-08-12T12:00	9780	294	-38.2	-53.5	275	6	
2025-08-12T12:00	9800	293	-38.4	-53.7	273	6	
2025-08-12T12:00	9820	292	-38.4	-54.6	271	7	
2025-08-12T12:00	9840	291	-38.5	-55.5	270	7	
2025-08-12T12:00	9860	291	-38.5	-56.1	269	7	
2025-08-12T12:00	9880	290	-38.6	-56.2	269	7	
2025-08-12T12:00	9900	289	-38.8	-56.0	269	8	
2025-08-12T12:00	9920	288	-39.0	-55.9	270	8	
2025-08-12T12:00	9940	287	-39.2	-55.8	271	8	
2025-08-12T12:00	9960	286	-39.3	-56.0	273	8	
2025-08-12T12:00	9980	286	-39.5	-56.0	274	8	
2025-08-12T12:00	10000	285	-39.6	-55.9	275	8	
2025-08-12T12:00	10018	284	-39.8	-55.9	276	8	
2025-08-12T12:00	10050	283	-40.1	-55.8	277	8	
2025-08-12T12:00	10100	281	-40.5	-56.2	276	8	
2025-08-12T12:00	10150	279	-40.8	-56.4	275	8	
2025-08-12T12:00	10200	276	-41.1	-57.2	275	7	
2025-08-12T12:00	10250	275	-41.5	-57.7	274	7	
2025-08-12T12:00	10300	272	-41.7	-58.2	271	8	
2025-08-12T12:00	10350	271	-42.0	-58.6	268	8	
2025-08-12T12:00	10400	268	-42.2	-59.7	269	7	
2025-08-12T12:00	10450	267	-42.5	-60.1	271	6	
2025-08-12T12:00	10500	265	-42.9	-60.0	272	6	
2025-08-12T12:00	10550	263	-43.2	-60.4	271	6	
2025-08-12T12:00	10600	261	-43.6	-60.6	271	6	
2025-08-12T12:00	10650	259	-44.0	-60.6	268	6	
2025-08-12T12:00	10700	257	-44.1	-62.1	261	6	
2025-08-12T12:00	10750	255	-43.9	-62.9	256	6	
2025-08-12T12:00	10800	253	-44.2	-63.4	253	6	
2025-08-12T12:00	10850	251	-44.6	-63.9	252	7	
2025-08-12T12:00	10900	249	-44.9	-64.2	252	7	
2025-08-12T12:00	10950	247	-45.2	-64.5	256	7	
2025-08-12T12:00	11000	246	-45.4	-64.8	261	7	
2025-08-12T12:00	11050	244	-45.4	-65.2	262	7	
2025-08-12T12:00	11100	242	-45.5	-65.5	261	8	
2025-08-12T12:00	11150	240	-45.6	-65.9	260	9	
2025-08-12T12:00	11200	238	-45.8	-66.3	256	9	
2025-08-12T12:00	11250	237	-46.0	-66.8	254	9	
2025-08-12T12:00	11300	235	-46.0	-67.5	256	9	
2025-08-12T12:00	11350	233	-46.3	-67.9	262	8	
2025-08-12T12:00	11400	231	-46.5	-68.3	268	8	
2025-08-12T12:00	11450	230	-46.6	-68.0	272	8	
2025-08-12T12:00	11500	228	-46.9	-68.1	275	8	
2025-08-12T12:00	11550	226	-47.2	-68.3	279	8	
2025-08-12T12:00	11600	224	-47.5	-68.4	281	9	
2025-08-12T12:00	11650	223	-47.8	-68.6	281	9	
2025-08-12T12:00	11700	221	-48.0	-68.9	281	9	
2025-08-12T12:00	11750	219	-48.1	-69.2	283	8	
2025-08-12T12:00	11800	218	-48.2	-69.5	283	7	
2025-08-12T12:00	11850	216	-48.6	-69.6	282	7	
2025-08-12T12:00	11900	214	-49.0	-69.6	280	8	
2025-08-12T12:00	11950	213	-49.4	-69.6	282	8	
2025-08-12T12:00	12000	211	-49.8	-69.8	288	8	
2025-08-12T12:00	12050	210	-49.9	-70.6	293	8	
2025-08-12T12:00	12100	208	-50.1	-71.1	294	8	
2025-08-12T12:00	12150	206	-50.5	-71.2	293	8	
2025-08-12T12:00	12200	205	-50.7	-71.8	289	7	
2025-08-12T12:00	12250	203	-50.7	-71.8	278	5	
2025-08-12T12:00	12300	202	-50.3	-72.3	262	4	
2025-08-12T12:00	12350	200	-50.1	-73.1	262	4	
2025-08-12T12:00	12400	199	-50.2	-73.5	268	4	
2025-08-12T12:00	12450	197	-50.4	-73.4	268	3	
2025-08-12T12:00	12500	196	-50.4	-73.6	259	4	
2025-08-12T12:00	12550	194	-50.2	-74.5	250	5	
2025-08-12T12:00	12600	193	-50.3	-75.5	246	5	
2025-08-12T12:00	12650	191	-50.7	-75.8	242	6	
2025-08-12T12:00	12700	190	-51.1	-76.0	241	6	
2025-08-12T12:00	12750	188	-51.6	-76.3	242	6	
2025-08-12T12:00	12800	187	-51.5	-76.7	248	6	
2025-08-12T12:00	12850	185	-51.8	-76.9	255	6	
2025-08-12T12:00	12900	184	-52.2	-77.1	262	6	
2025-08-12T12:00	12950	182	-52.6	-77.1	262	5	
2025-08-12T12:00	13000	181	-53.1	-77.0	259	5	
2025-08-12T12:00	13050	180	-53.5	-77.0	256	4	
2025-08-12T12:00	13100	178	-53.4	-77.1	256	4	
2025-08-12T12:00	13150	177	-53.5	-77.3	263	4	
2025-08-12T12:00	13200	175	-53.8	-77.6	274	5	
2025-08-12T12:00	13250	174	-53.7	-77.9	282	5	
2025-08-12T12:00	13300	173	-53.9	-78.0	286	5	
2025-08-12T12:00	13350	171	-54.3	-78.0	291	5	
2025-08-12T12:00	13400	170	-54.7	-78.1	295	5	
2025-08-12T12:00	13450	169	-55.1	-78.3	296	5	
2025-08-12T12:00	13500	168	-55.6	-78.5	292	4	
2025-08-12T12:00	13550	166	-55.7	-78.7	285	4	
2025-08-12T12:00	13600	165	-56.0	-78.9	278	4	
2025-08-12T12:00	13650	164	-56.2	-79.1	269	4	
2025-08-12T12:00	13700	162	-55.8	-79.4	258	4	
2025-08-12T12:00	13750	161	-55.5	-79.5	256	4	
2025-08-12T12:00	13800	160	-55.8	-79.4	258	5	
2025-08-12T12:00	13850	159	-56.2	-79.3	263	5	
2025-08-12T12:00	13900	157	-56.5	-79.3	269	5	
2025-08-12T12:00	13950	156	-56.3	-79.6	266	4	
2025-08-12T12:00	14000	155	-56.2	-80.2	250	3	
2025-08-12T12:00	14050	154	-55.9	-80.4	232	3	
2025-08-12T12:00	14100	152	-56.1	-80.6	229	3	
2025-08-12T12:00	14150	151	-56.3	-80.9	236	4	
2025-08-12T12:00	14200	150	-56.3	-81.3	240	4	
2025-08-12T12:00	14250	149	-56.2	-81.6	233	4	
2025-08-12T12:00	14300	148	-56.2	-81.9	222	4	
2025-08-12T12:00	14350	147	-56.2	-81.9	214	4	
2025-08-12T12:00	14400	145	-56.5	-82.0	217	4	
2025-08-12T12:00	14450	144	-56.6	-82.1	228	4	
2025-08-12T12:00	14500	143	-56.5	-82.1	240	5	
2025-08-12T12:00	14550	142	-56.9	-82.2	254	5	
2025-08-12T12:00	14600	141	-57.2	-82.4	269	6	
2025-08-12T12:00	14650	140	-57.5	-82.5	279	6	
2025-08-12T12:00	14700	139	-57.8	-82.5	284	7	
2025-08-12T12:00	14750	138	-57.9	-82.5	287	7	
2025-08-12T12:00	14800	136	-58.3	-82.6	290	7	
2025-08-12T12:00	14850	135	-58.8	-82.8	291	7	
2025-08-12T12:00	14900	134	-59.2	-82.8	291	6	
2025-08-12T12:00	14950	133	-59.5	-82.8	288	6	
2025-08-12T12:00	15000	132	-59.6	-82.9	286	7	
2025-08-12T12:00	15050	131	-59.9	-83.1	285	6	
2025-08-12T12:00	15100	130	-59.8	-83.2	286	5	
2025-08-12T12:00	15150	129	-59.4	-83.1	284	4	
2025-08-12T12:00	15200	128	-59.4	-83.3	270	3	
2025-08-12T12:00	15250	127	-59.3	-83.3	244	3	
2025-08-12T12:00	15300	126	-59.5	-83.3	225	3	
2025-08-12T12:00	15350	125	-59.9	-83.2	221	4	
2025-08-12T12:00	15400	124	-60.2	-83.3	227	4	
2025-08-12T12:00	15450	123	-60.2	-83.4	237	3	
2025-08-12T12:00	15500	122	-60.3	-83.5	239	3	
2025-08-12T12:00	15550	121	-60.3	-83.5	238	4	
2025-08-12T12:00	15600	120	-60.5	-83.5	237	5	
2025-08-12T12:00	15650	119	-60.8	-83.6	236	6	
2025-08-12T12:00	15700	118	-61.1	-83.6	237	7	
2025-08-12T12:00	15750	117	-61.1	-83.7	241	7	
2025-08-12T12:00	15800	116	-60.9	-83.7	245	7	
2025-08-12T12:00	15850	115	-61.1	-83.8	245	6	
2025-08-12T12:00	15900	114	-61.5	-83.8	242	5	
2025-08-12T12:00	15950	113	-61.8	-84.0	242	5	
2025-08-12T12:00	16000	113	-61.8	-84.1	247	5	
2025-08-12T12:00	16050	112	-61.5	-84.1	254	5	
2025-08-12T12:00	16100	111	-61.6	-84.1	262	5	
2025-08-12T12:00	16150	110	-61.6	-84.2	262	4	
2025-08-12T12:00	16200	109	-61.4	-84.2	247	4	
2025-08-12T12:00	16250	108	-61.2	-84.1	231	5	
2025-08-12T12:00	16300	107	-61.4	-84.2	229	6	
2025-08-12T12:00	16350	106	-61.6	-84.3	233	7	
2025-08-12T12:00	16400	106	-61.6	-84.3	237	8	
2025-08-12T12:00	16450	105	-61.8	-84.5	240	9	
2025-08-12T12:00	16500	104	-61.8	-84.6	246	9	
2025-08-12T12:00	16550	103	-61.7	-84.7	252	8	
2025-08-12T12:00	16600	102	-61.6	-84.6	254	6	
2025-08-12T12:00	16650	101	-61.8	-84.7	245	5	
2025-08-12T12:00	16700	100	-61.8	-84.7	228	5	
2025-08-12T12:00	16750	100	-61.9	-84.8	214	5	
2025-08-12T12:00	16800	99	-61.7	-84.8	206	5	
2025-08-12T12:00	16850	98	-61.8	-85.0	200	6	
2025-08-12T12:00	16900	97	-61.9	-85.1	196	7	
2025-08-12T12:00	16950	97	-61.6	-85.1	193	8	
2025-08-12T12:00	17000	96	-61.7	-85.1	193	9	
2025-08-12T12:00	17050	95	-61.8	-85.3	199	9	
2025-08-12T12:00	17100	94	-62.0	-85.4	207	9	
2025-08-12T12:00	17150	93	-62.1	-85.5	216	9	
2025-08-12T12:00	17200	93	-62.2	-85.5	223	9	
2025-08-12T12:00	17250	92	-62.5	-85.6	229	8	
2025-08-12T12:00	17300	91	-62.7	-85.6	235	7	
2025-08-12T12:00	17350	91	-63.0	-85.8	242	7	
2025-08-12T12:00	17400	90	-63.0	-85.9	248	7	
2025-08-12T12:00	17450	89	-62.8	-85.9	250	7	
2025-08-12T12:00	17500	88	-62.5	-86.0	249	7	
2025-08-12T12:00	17550	88	-62.4	-86.1	248	6	
2025-08-12T12:00	17600	87	-62.1	-86.1	248	5	
2025-08-12T12:00	17650	86	-62.2	-86.2	247	4	
2025-08-12T12:00	17700	85	-62.1	-86.3	243	3	
2025-08-12T12:00	17750	85	-62.0	-86.3	244	2	
2025-08-12T12:00	17800	84	-61.7	-86.1	254	2	
2025-08-12T12:00	17850	83	-61.8	-86.2	248	2	
2025-08-12T12:00	17900	83	-61.8	-86.3	228	3	
2025-08-12T12:00	17950	82	-61.6	-86.3	222	3	
2025-08-12T12:00	18000	81	-61.5	-86.2	228	3	
2025-08-12T12:00	18050	81	-61.6	-86.2	234	4	
2025-08-12T12:00	18100	80	-61.6	-86.2	230	4	
2025-08-12T12:00	18150	80	-61.7	-86.2	221	5	
2025-08-12T12:00	18200	79	-61.6	-86.2	219	5	
2025-08-12T12:00	18250	78	-61.9	-86.4	225	5	
2025-08-12T12:00	18300	78	-61.8	-86.3	241	4	
2025-08-12T12:00	18350	77	-61.9	-86.3	261	3	
2025-08-12T12:00	18400	76	-62.1	-86.4	287	3	
2025-08-12T12:00	18450	76	-62.2	-86.6	325	2	
2025-08-12T12:00	18500	75	-62.0	-86.7	0	3	
2025-08-12T12:00	18550	75	-61.6	-86.8	25	3	
2025-08-12T12:00	18600	74	-60.7	-86.5	48	3	
2025-08-12T12:00	18650	73	-60.6	-86.4	72	3	
2025-08-12T12:00	18700	73	-60.6	-86.2	95	3	
2025-08-12T12:00	18750	72	-60.9	-86.3	119	3	
2025-08-12T12:00	18800	72	-60.9	-86.2	141	4	
2025-08-12T12:00	18850	71	-61.0	-86.2	158	5	
2025-08-12T12:00	18900	70	-61.1	-86.3	170	5	
2025-08-12T12:00	18950	70	-61.5	-86.4	173	5	
2025-08-12T12:00	19000	69	-61.3	-86.4	165	4	
2025-08-12T12:00	19050	69	-61.2	-86.4	156	4	
2025-08-12T12:00	19100	68	-61.3	-86.5	156	4	
2025-08-12T12:00	19150	68	-61.2	-86.6	162	4	
2025-08-12T12:00	19200	67	-60.6	-86.6	173	4	
2025-08-12T12:00	19250	67	-60.0	-86.3	186	5	
2025-08-12T12:00	19300	66	-59.9	-86.2	197	5	
2025-08-12T12:00	19350	65	-60.2	-86.2	208	5	
2025-08-12T12:00	19400	65	-60.4	-86.2	218	4	
2025-08-12T12:00	19450	64	-60.3	-86.2	224	3	
2025-08-12T12:00	19500	64	-60.2	-86.3	226	2	
2025-08-12T12:00	19550	63	-60.3	-86.4	223	1	
2025-08-12T12:00	19600	63	-60.1	-86.3	66	0	
2025-08-12T12:00	19650	62	-59.8	-86.3	55	1	
2025-08-12T12:00	19700	62	-59.8	-86.3	51	1	
2025-08-12T12:00	19750	61	-59.7	-86.3	62	2	
2025-08-12T12:00	19800	61	-59.5	-86.1	74	3	
2025-08-12T12:00	19850	60	-59.5	-86.1	80	4	
2025-08-12T12:00	19900	60	-59.5	-86.1	85	4	
2025-08-12T12:00	19950	60	-59.4	-86.1	90	3	
2025-08-12T12:00	20000	59	-59.2	-86.0	100	3	
2025-08-12T12:00	20050	59	-59.1		109	3	
2025-08-12T12:00	20100	58	-58.8		111	3	
2025-08-12T12:00	20150	58	-59.0		116	3	
2025-08-12T12:00	20200	57	-59.1		121	3	
2025-08-12T12:00	20250	57	-59.2		116	3	
2025-08-12T12:00	20300	56	-59.4		98	3	
2025-08-12T12:00	20350	56	-59.6		83	3	
2025-08-12T12:00	20400	55	-59.9		73	4	
2025-08-12T12:00	20450	55	-60.1		62	5	
2025-08-12T12:00	20500	54	-60.2		52	5	
2025-08-12T12:00	20550	54	-60.3		54	6	
2025-08-12T12:00	20600	54	-60.0		70	6	
2025-08-12T12:00	20650	53	-59.6		89	7	
2025-08-12T12:00	20700	53	-59.2		104	7	
2025-08-12T12:00	20750	52	-58.9		116	6	
2025-08-12T12:00	20800	52	-58.8		122	6	
2025-08-12T12:00	20850	52	-58.5		123	5	
2025-08-12T12:00	20900	51	-58.5		125	5	
2025-08-12T12:00	20950	51	-58.2		131	5	
2025-08-12T12:00	21000	50	-57.9		141	5	
2025-08-12T12:00	21050	50	-58.1		152	4	
2025-08-12T12:00	21100	50	-58.2		158	3	
2025-08-12T12:00	21150	49	-58.4		149	2	
2025-08-12T12:00	21200	49	-58.4		113	2	
2025-08-12T12:00	21250	48	-58.5		89	3	
2025-08-12T12:00	21300	48	-58.2		84	5	
2025-08-12T12:00	21350	48	-57.3		84	6	
2025-08-12T12:00	21400	47	-56.6		86	7	
2025-08-12T12:00	21450	47	-56.3		87	8	
2025-08-12T12:00	21500	47	-56.3		87	9	
2025-08-12T12:00	21550	46	-56.8		88	10	
2025-08-12T12:00	21600	46	-57.0		93	11	
2025-08-12T12:00	21650	45	-57.0		99	11	
2025-08-12T12:00	21700	45	-56.8		104	11	
2025-08-12T12:00	21750	45	-56.9		108	10	
2025-08-12T12:00	21800	44	-57.2		111	9	
2025-08-12T12:00	21850	44	-57.4		109	7	
2025-08-12T12:00	21900	44	-57.1		97	5	
2025-08-12T12:00	21950	43	-56.8		81	5	
2025-08-12T12:00	22000	43	-56.8		80	5	
2025-08-12T12:00	22050	43	-56.4		93	6	
2025-08-12T12:00	22100	42	-56.6		104	6	
2025-08-12T12:00	22150	42	-56.5		104	7	
2025-08-12T12:00	22200	42	-56.2		98	8	
2025-08-12T12:00	22250	41	-56.2		91	8	
2025-08-12T12:00	22300	41	-56.3		87	9	
2025-08-12T12:00	22350	41	-56.2		87	9	
2025-08-12T12:00	22400	40	-55.7		91	9	
2025-08-12T12:00	22450	40	-55.6		95	10	
2025-08-12T12:00	22500	40	-55.8		99	10	
2025-08-12T12:00	22550	39	-56.0		105	10	
2025-08-12T12:00	22600	39	-56.0		112	9	
2025-08-12T12:00	22650	39	-55.9		119	8	
2025-08-12T12:00	22700	38	-55.8		123	7	
2025-08-12T12:00	22750	38	-55.6		126	5	
2025-08-12T12:00	22800	38	-55.6		125	4	
2025-08-12T12:00	22850	38	-55.6		117	3	
2025-08-12T12:00	22900	37	-55.4		103	4	
2025-08-12T12:00	22950	37	-55.3		92	4	
2025-08-12T12:00	23000	37	-55.2		91	5	
2025-08-12T12:00	23050	36	-55.0		96	5	
2025-08-12T12:00	23100	36	-54.9		105	4	
2025-08-12T12:00	23150	36	-54.8		112	4	
2025-08-12T12:00	23200	36	-54.8		113	4	
2025-08-12T12:00	23250	35	-54.7		106	4	
2025-08-12T12:00	23300	35	-54.4		90	4	
2025-08-12T12:00	23350	35	-54.2		79	4	
2025-08-12T12:00	23400	34	-53.7		72	4	
2025-08-12T12:00	23450	34	-53.2		66	5	
2025-08-12T12:00	23500	34	-52.7		69	5	
2025-08-12T12:00	23550	34	-52.4		77	6	
2025-08-12T12:00	23600	33	-52.5		83	8	
2025-08-12T12:00	23650	33	-52.6		89	8	
2025-08-12T12:00	23700	33	-52.4		95	8	
2025-08-12T12:00	23750	33	-52.6		98	7	
2025-08-12T12:00	23800	32	-52.7		93	6	
2025-08-12T12:00	23850	32	-52.6		83	4	
2025-08-12T12:00	23900	32	-52.7		68	4	
2025-08-12T12:00	23950	32	-53.0		53	4	
2025-08-12T12:00	24000	31	-53.2		42	4	
2025-08-12T12:00	24050	31	-53.3		37	5	
2025-08-12T12:00	24100	31	-53.1		38	6	
2025-08-12T12:00	24150	31	-53.0		43	7	
2025-08-12T12:00	24200	30	-53.0		51	8	
2025-08-12T12:00	24250	30	-52.8		59	9	
2025-08-12T12:00	24300	30	-52.9		66	10	
2025-08-12T12:00	24350	30	-53.0		72	10	
2025-08-12T12:00	24400	30	-53.0		80	11	
2025-08-12T12:00	24450	29	-52.9		89	11	
2025-08-12T12:00	24500	29	-52.9		97	11	
2025-08-12T12:00	24550	29	-52.9		102	10	
2025-08-12T12:00	24600	29	-52.8		101	10	
2025-08-12T12:00	24650	28	-52.6		97	9	
2025-08-12T12:00	24700	28	-52.6		93	9	
2025-08-12T12:00	24750	28	-52.7		93	8	
2025-08-12T12:00	24800	28	-52.8		95	8	
2025-08-12T12:00	24850	28	-52.7		99	7	
2025-08-12T12:00	24900	27	-52.6		104	7	
2025-08-12T12:00	24950	27	-52.4		105	6	
2025-08-12T12:00	25000	27	-52.4		102	6	
2025-08-12T12:00	25050	27	-52.4		99	6	
2025-08-12T12:00	25100	26	-52.4		99	8	
2025-08-12T12:00	25150	26	-52.5		102	9	
2025-08-12T12:00	25200	26	-52.3		105	9	
2025-08-12T12:00	25250	26	-52.2		108	8	
2025-08-12T12:00	25300	26	-52.1		109	8	
2025-08-12T12:00	25350	25	-52.1		109	8	
2025-08-12T12:00	25400	25	-51.9		111	8	
2025-08-12T12:00	25450	25	-51.7		115	8	
2025-08-12T12:00	25500	25	-51.5		120	8	
2025-08-12T12:00	25550	25	-51.4		126	8	
2025-08-12T12:00	25600	25	-51.3		131	8	
2025-08-12T12:00	25650	24	-51.2		135	7	
2025-08-12T12:00	25700	24	-51.1		139	6	
2025-08-12T12:00	25750	24	-51.0		143	6	
2025-08-12T12:00	25800	24	-51.1		143	6	
2025-08-12T12:00	25850	24	-51.0		140	5	
2025-08-12T12:00	25900	23	-50.9		136	5	
2025-08-12T12:00	25950	23	-51.0		131	5	
2025-08-12T12:00	26000	23	-51.1		121	5	
2025-08-12T12:00	26050	23	-51.1		106	5	
2025-08-12T12:00	26100	23	-51.0		91	5	
2025-08-12T12:00	26150	23	-51.1		83	6	
2025-08-12T12:00	26200	22	-51.0		80	7	
2025-08-12T12:00	26250	22	-50.9		83	8	
2025-08-12T12:00	26300	22	-50.7		89	8	
2025-08-12T12:00	26350	22	-50.6		96	8	
2025-08-12T12:00	26400	22	-50.6		103	8	
2025-08-12T12:00	26450	22	-50.7		108	7	
2025-08-12T12:00	26500	21	-50.7		109	7	
2025-08-12T12:00	26550	21	-50.7		108	7	
2025-08-12T12:00	26600	21	-50.6		101	7	
2025-08-12T12:00	26650	21	-50.4		91	7	
2025-08-12T12:00	26700	21	-50.2		80	8	
2025-08-12T12:00	26750	21	-50.1		75	9	
2025-08-12T12:00	26800	20	-49.9		75	10	
2025-08-12T12:00	26850	20	-49.8		78	11	
2025-08-12T12:00	26900	20	-49.7		84	12	
2025-08-12T12:00	26950	20	-49.6		91	12	
2025-08-12T12:00	27000	20	-49.4		96	11	
2025-08-12T12:00	27050	20	-49.4		99	10	
2025-08-12T12:00	27100	19	-49.2		101	9	
2025-08-12T12:00	27150	19	-48.9		98	9	
2025-08-12T12:00	27200	19	-48.6		94	9	
2025-08-12T12:00	27250	19	-48.4		91	9	
2025-08-12T12:00	27300	19	-48.1		88	10	
2025-08-12T12:00	27350	19	-47.9		87	11	
2025-08-12T12:00	27400	19	-47.9		86	11	
2025-08-12T12:00	27450	18	-47.9		88	11	
2025-08-12T12:00	27500	18	-47.8		89	11	
2025-08-12T12:00	27550	18	-47.7		90	11	
2025-08-12T12:00	27600	18	-47.5		91	11	
2025-08-12T12:00	27650	18	-47.3		94	10	
2025-08-12T12:00	27700	18	-47.3		98	10	
2025-08-12T12:00	27750	18	-47.2		102	10	
2025-08-12T12:00	27800	18	-47.1		104	10	
2025-08-12T12:00	27850	17	-46.8		103	9	
2025-08-12T12:00	27900	17	-46.4		99	8	
2025-08-12T12:00	27950	17	-46.1		94	8	
2025-08-12T12:00	28000	17	-46.1		91	8	
2025-08-12T12:00	28050	17	-46.0		92	9	
2025-08-12T12:00	28100	17	-45.7		96	10	
2025-08-12T12:00	28150	17	-45.7		102	11	
2025-08-12T12:00	28200	16	-45.6		110	12	
2025-08-12T12:00	28250	16	-45.4		114	12	
2025-08-12T12:00	28300	16	-45.3		116	11	
2025-08-12T12:00	28350	16	-45.2		115	11	
2025-08-12T12:00	28400	16	-45.3		113	10	
2025-08-12T12:00	28450	16	-45.5		110	9	
2025-08-12T12:00	28500	16	-45.8		104	8	
2025-08-12T12:00	28550	16	-45.8		95	8	
2025-08-12T12:00	28600	16	-45.7		87	8	
2025-08-12T12:00	28650	15	-45.5		84	10	
2025-08-12T12:00	28700	15	-45.2		87	11	
2025-08-12T12:00	28750	15	-44.8		95	12	
2025-08-12T12:00	28800	15	-44.6		102	13	
2025-08-12T12:00	28850	15	-44.7		110	14	
2025-08-12T12:00	28900	15	-44.7		118	14	
2025-08-12T12:00	28950	15	-44.8		124	14	
2025-08-12T12:00	29000	15	-44.8		131	14	
2025-08-12T12:00	29050	15	-44.8		136	13	
2025-08-12T12:00	29100	14	-44.8		139	12	
2025-08-12T12:00	29150	14	-44.8		138	11	
2025-08-12T12:00	29200	14	-44.7		133	10	
2025-08-12T12:00	29250	14	-44.5		126	9	
2025-08-12T12:00	29300	14	-44.2		122	9	
2025-08-12T12:00	29350	14	-43.9		121	9	
2025-08-12T12:00	29400	14	-43.7		120	9	
2025-08-12T12:00	29450	14	-43.4		118	8	
2025-08-12T12:00	29500	14	-43.3		115	8	
2025-08-12T12:00	29550	13	-43.5		110	8	
2025-08-12T12:00	29600	13	-43.5		101	8	
2025-08-12T12:00	29650	13	-43.6		92	8	
2025-08-12T12:00	29700	13	-43.7		86	9	
2025-08-12T12:00	29750	13	-43.7		82	10	
2025-08-12T12:00	29800	13	-43.7		83	11	
2025-08-12T12:00	29850	13	-43.8		87	12	
2025-08-12T12:00	29900	13	-43.8		93	13	
2025-08-12T12:00	29950	13	-43.9		100	14	
2025-08-12T12:00	30000	13	-44.0		108	15	
2025-08-12T12:00	30050	13	-44.1		115	15	
2025-08-12T12:00	30100	12	-44.3		121	15	
2025-08-12T12:00	30150	12	-44.5		125	14	
2025-08-12T12:00	30200	12	-44.6		128	12	
2025-08-12T12:00	30250	12	-44.8		131	10	
2025-08-12T12:00	30300	12	-44.6		129	9	
2025-08-12T12:00	30350	12	-44.2		123	8	
2025-08-12T12:00	30400	12	-43.7		115	8	
2025-08-12T12:00	30450	12	-43.3		111	9	
2025-08-12T12:00	30500	12	-43.1		112	10	
2025-08-12T12:00	30550	12	-43.1		116	11	
2025-08-12T12:00	30600	12	-43.0		122	11	
2025-08-12T12:00	30650	11	-43.0		127	10	
2025-08-12T12:00	30700	11	-42.8		128	9	
2025-08-12T12:00	30750	11	-42.6		125	9	
2025-08-12T12:00	30800	11	-42.3		121	10	
2025-08-12T12:00	30850	11	-41.9		117	12	
2025-08-12T12:00	30900	11	-41.4		115	14	
2025-08-12T12:00	30950	11	-41.0		116	14	
2025-08-12T12:00	31000	11	-40.7		118	14	
2025-08-12T12:00	31050	11	-40.6		121	13	
2025-08-12T12:00	31100	11	-40.7		123	12	
2025-08-12T12:00	31150	11	-40.9		124	11	
2025-08-12T12:00	31200	11	-40.9		124	10	
2025-08-12T12:00	31250	10	-40.5		122	9	
2025-08-12T12:00	31300	10	-40.2		119	10	
2025-08-12T12:00	31350	10	-39.8		118	10	
2025-08-12T12:00	31400	10	-39.4		117	10	
2025-08-12T12:00	31450	10	-39.2		117	9	
2025-08-12T12:00	31500	10	-39.1		113	9	
2025-08-12T12:00	31550	10	-38.9		107	8	
2025-08-12T12:00	31600	10	-38.6		99	8	
2025-08-12T12:00	31650	10	-38.2		94	9	
2025-08-12T12:00	31700	10	-37.8		93	9	
2025-08-12T12:00	31750	10	-37.9		93	10	
2025-08-12T12:00	31800	10	-38.0		94	10	
2025-08-12T12:00	31850	10	-38.0		96	11	
2025-08-12T12:00	31900	10	-38.0		98	11	
2025-08-12T12:00	31950	9	-37.9		99	11	
2025-08-12T12:00	32000	9	-37.7		100	11	
2025-08-12T12:00	32050	9	-37.7		100	11	
2025-08-12T12:00	32100	9	-37.7		99	10	
2025-08-12T12:00	32150	9	-37.7		98	10	
2025-08-12T12:00	32200	9	-37.7		98	9	
2025-08-12T12:00	32250	9	-37.7		99	9	
2025-08-12T12:00	32300	9	-37.6		101	9	
2025-08-12T12:00	32350	9	-37.6		100	9	
2025-08-12T12:00	32400	9	-37.5		96	9	
2025-08-12T12:00	32450	9	-37.5		91	9	
2025-08-12T12:00	32500	9	-37.6		86	9	
2025-08-12T12:00	32550	9	-37.8		80	9	
2025-08-12T12:00	32600	9	-37.8		77	9	
2025-08-12T12:00	32650	9	-37.7		79	9	
2025-08-12T12:00	32700	8	-37.4		84	10	
2025-08-12T12:00	32750	8	-37.3		89	10	
2025-08-12T12:00	32800	8	-37.2		92	11	
2025-08-12T12:00	32850	8	-37.0		92	12	
2025-08-12T12:00	32900	8	-36.5		90	12	
2025-08-12T12:00	32950	8	-36.0		89	12	
2025-08-12T12:00	33000	8	-35.8		91	12	
2025-08-12T12:00	33050	8	-35.6		95	12	
2025-08-12T12:00	33100	8	-35.4		97	12	
2025-08-12T12:00	33150	8	-35.0		97	12	
2025-08-12T12:00	33200	8	-34.4		94	11	
2025-08-12T12:00	33250	8	-34.0		90	11	
2025-08-12T12:00	33300	8	-33.9		85	12	
2025-08-12T12:00	33350	8	-33.7		81	12	
2025-08-12T12:00	33400	8	-33.6		79	12	
2025-08-12T12:00	33450	8	-33.6		78	12	
2025-08-12T12:00	33500	8	-33.5		79	12	
2025-08-12T12:00	33550	8	-33.1		81	12	
2025-08-12T12:00	33600	7	-32.6		86	12	
2025-08-12T12:00	33650	7	-32.4		92	12	
2025-08-12T12:00	33700	7	-32.4		95	13	
2025-08-12T12:00	33750	7	-32.4		96	14	
2025-08-12T12:00	33800	7	-32.4		94	14	
2025-08-12T12:00	33850	7	-32.5		91	14	
2025-08-12T12:00	33900	7	-32.6		88	14	
2025-08-12T12:00	33950	7	-32.6		87	14	
2025-08-12T12:00	34000	7	-32.7		88	14	
2025-08-12T12:00	34050	7	-32.9		89	14	
2025-08-12T12:00	34100	7	-33.2		90	14	
2025-08-12T12:00	34150	7	-33.5		90	14	
2025-08-12T12:00	34200	7	-33.7		89	14	
2025-08-12T12:00	34250	7	-33.7		87	15	
2025-08-12T12:00	34300	7	-33.7		87	15	
2025-08-12T12:00	34350	7	-33.4		87	15	
2025-08-12T12:00	34400	7	-33.1		87	15	
2025-08-12T12:00	34450	7	-32.8		87	15	
2025-08-12T12:00	34500	7	-32.6		87	14	
2025-08-12T12:00	34550	7	-32.4		87	14	
2025-08-12T12:00	34600	6	-32.2		88	13	
2025-08-12T12:00	34650	6	-31.8		92	13	
2025-08-12T12:00	34700	6	-31.5		96	13	
2025-08-12T12:00	34750	6	-31.3		101	13	
2025-08-12T12:00	34800	6	-31.1		104	14	
2025-08-12T12:00	34850	6	-30.9		105	15	
2025-08-12T12:00	34900	6	-31.0		104	15	
2025-08-12T12:00	34950	6	-31.1		103	15	
2025-08-12T12:00	35000	6	-31.1		102	16	
2025-08-12T12:00	35050	6	-31.1		100	16	
2025-08-12T12:00	35100	6	-31.1		101	16	
2025-08-12T12:00	35150	6	-31.2		103	16	
2025-08-12T12:00	35200	6	-31.2		107	16	
2025-08-12T12:00	35250	6	-31.2		114	15	
2025-08-12T12:00	35300	6	-31.1		121	15	
2025-08-12T12:00	35350	6	-30.9		124	16	
2025-08-12T12:00	35400	6	-30.8		122	16	
2025-08-13T00:00	491	961	21.0	17.2	213	1	
2025-08-13T00:00	501	959	22.6	16.4	210	1	
2025-08-13T00:00	520	958	24.6	15.3	212	1	
2025-08-13T00:00	540	956	26.1	14.2	215	2	
2025-08-13T00:00	560	953	26.2	14.2	216	2	
2025-08-13T00:00	580	951	25.9	14.3	217	2	
2025-08-13T00:00	600	949	26.0	13.4	215	2	
2025-08-13T00:00	620	947	27.0	13.9	211	2	
2025-08-13T00:00	640	944	27.2	14.3	203	1	
2025-08-13T00:00	660	942	26.9	14.2	188	1	
2025-08-13T00:00	680	940	27.5	14.0	153	1	
2025-08-13T00:00	700	938	28.0	14.1	99	1	
2025-08-13T00:00	720	936	27.9	15.0	79	1	
2025-08-13T00:00	740	934	27.8	15.2	73	1	
2025-08-13T00:00	760	932	27.8	15.0	73	1	
2025-08-13T00:00	780	930	27.8	14.8	76	2	
2025-08-13T00:00	800	928	28.1	13.1	79	2	
2025-08-13T00:00	820	925	28.3	12.2	81	2	
2025-08-13T00:00	840	924	28.4	12.2	79	2	
2025-08-13T00:00	860	922	28.5	12.5	74	2	
2025-08-13T00:00	880	919	28.4	12.9	64	2	
2025-08-13T00:00	900	917	28.4	12.9	54	2	
2025-08-13T00:00	920	915	28.6	12.6	44	2	
2025-08-13T00:00	940	913	28.8	11.7	38	2	
2025-08-13T00:00	960	911	28.8	10.6	33	3	
2025-08-13T00:00	980	909	28.8	9.8	32	3	
2025-08-13T00:00	1000	907	28.7	8.9	31	3	
2025-08-13T00:00	1020	905	28.6	7.9	32	3	
2025-08-13T00:00	1040	903	28.6	6.8	32	3	
2025-08-13T00:00	1060	901	28.5	6.9	33	2	
2025-08-13T00:00	1080	899	28.4	6.9	34	2	
2025-08-13T00:00	1100	897	28.2	6.9	35	2	
2025-08-13T00:00	1120	895	28.0	6.8	36	2	
2025-08-13T00:00	1140	893	27.8	6.5	38	2	
2025-08-13T00:00	1160	891	27.6	6.4	39	2	
2025-08-13T00:00	1180	889	27.5	6.1	38	2	
2025-08-13T00:00	1200	887	27.4	5.4	36	2	
2025-08-13T00:00	1220	885	27.2	5.7	33	2	
2025-08-13T00:00	1240	883	27.0	6.1	31	2	
2025-08-13T00:00	1260	881	26.8	6.0	29	3	
2025-08-13T00:00	1280	879	26.6	5.9	29	3	
2025-08-13T00:00	1300	877	26.4	5.8	30	3	
2025-08-13T00:00	1320	875	26.2	5.8	31	3	
2025-08-13T00:00	1340	873	26.0	5.7	31	3	
2025-08-13T00:00	1360	871	25.9	5.6	32	2	
2025-08-13T00:00	1380	869	25.7	5.7	32	2	
2025-08-13T00:00	1400	867	25.5	5.2	30	2	
2025-08-13T00:00	1420	865	25.4	4.9	26	2	
2025-08-13T00:00	1440	863	25.3	4.6	20	1	
2025-08-13T00:00	1460	861	25.1	4.5	12	1	
2025-08-13T00:00	1480	859	25.0	4.4	1	1	
2025-08-13T00:00	1500	857	24.8	4.5	345	1	
2025-08-13T00:00	1520	855	24.5	4.7	316	0	
2025-08-13T00:00	1540	853	24.3	4.7	266	0	
2025-08-13T00:00	1560	851	24.1	4.6	214	0	
2025-08-13T00:00	1580	849	24.0	4.5	193	1	
2025-08-13T00:00	1600	847	23.8	4.3	175	1	
2025-08-13T00:00	1620	845	23.6	4.5	158	1	
2025-08-13T00:00	1640	843	23.4	4.5	141	1	
2025-08-13T00:00	1660	842	23.2	4.5	123	1	
2025-08-13T00:00	1680	840	23.1	4.6	104	1	
2025-08-13T00:00	1700	838	22.9	4.5	95	1	
2025-08-13T00:00	1720	836	22.7	4.5	92	1	
2025-08-13T00:00	1740	834	22.5	4.8	96	1	
2025-08-13T00:00	1760	832	22.3	5.0	104	1	
2025-08-13T00:00	1780	830	22.1	5.2	116	1	
2025-08-13T00:00	1800	828	21.8	5.9	126	1	
2025-08-13T00:00	1820	826	21.6	6.1	133	2	
2025-08-13T00:00	1840	824	21.4	6.4	138	2	
2025-08-13T00:00	1860	822	21.2	6.6	140	2	
2025-08-13T00:00	1880	820	21.0	6.5	140	3	
2025-08-13T00:00	1900	819	20.9	6.4	138	3	
2025-08-13T00:00	1920	817	20.8	6.4	136	3	
2025-08-13T00:00	1940	815	20.6	6.2	134	3	
2025-08-13T00:00	1960	813	20.5	5.9	130	2	
2025-08-13T00:00	1980	811	20.3	5.9	128	2	
2025-08-13T00:00	2000	809	20.2	5.4	130	2	
2025-08-13T00:00	2020	807	20.1	4.6	140	1	
2025-08-13T00:00	2040	805	20.1	4.2	162	1	
2025-08-13T00:00	2060	804	19.9	3.9	192	1	
2025-08-13T00:00	2080	802	19.8	3.6	215	1	
2025-08-13T00:00	2100	800	19.6	3.3	227	2	
2025-08-13T00:00	2120	798	19.5	3.3	235	2	
2025-08-13T00:00	2140	796	19.3	3.0	240	2	
2025-08-13T00:00	2160	794	19.1	2.9	246	2	
2025-08-13T00:00	2180	792	19.0	2.8	254	2	
2025-08-13T00:00	2200	791	18.8	2.7	266	1	
2025-08-13T00:00	2220	789	18.6	2.7	279	1	
2025-08-13T00:00	2240	787	18.4	2.6	290	1	
2025-08-13T00:00	2260	785	18.2	2.6	298	1	
2025-08-13T00:00	2280	783	18.0	2.6	303	1	
2025-08-13T00:00	2300	781	17.8	2.4	308	1	
2025-08-13T00:00	2320	780	17.7	2.4	314	1	
2025-08-13T00:00	2340	778	17.4	2.4	322	1	
2025-08-13T00:00	2360	776	17.2	2.3	331	1	
2025-08-13T00:00	2380	774	17.0	2.4	336	1	
2025-08-13T00:00	2400	772	16.9	2.3	334	1	
2025-08-13T00:00	2420	771	16.6	2.4	329	1	
2025-08-13T00:00	2440	769	16.5	2.1	323	1	
2025-08-13T00:00	2460	767	16.3	2.0	317	1	
2025-08-13T00:00	2480	765	16.1	1.9	312	2	
2025-08-13T00:00	2500	763	15.9	1.8	309	2	
2025-08-13T00:00	2520	762	15.8	1.7	306	2	
2025-08-13T00:00	2540	760	15.6	1.6	304	2	
2025-08-13T00:00	2560	758	15.4	1.6	301	2	
2025-08-13T00:00	2580	756	15.2	1.6	297	2	
2025-08-13T00:00	2600	754	15.0	1.6	292	2	
2025-08-13T00:00	2620	752	14.8	1.6	289	3	
2025-08-13T00:00	2640	751	14.6	1.6	286	3	
2025-08-13T00:00	2660	749	14.4	1.6	285	3	
2025-08-13T00:00	2680	747	14.2	1.5	285	3	
2025-08-13T00:00	2700	746	14.1	1.3	285	3	
2025-08-13T00:00	2720	744	13.9	1.2	287	3	
2025-08-13T00:00	2740	742	13.7	1.2	289	3	
2025-08-13T00:00	2760	740	13.5	1.3	291	3	
2025-08-13T00:00	2780	738	13.3	1.3	293	3	
2025-08-13T00:00	2800	737	13.1	1.2	296	3	
2025-08-13T00:00	2820	735	12.9	1.3	298	3	
2025-08-13T00:00	2840	733	12.7	1.2	301	3	
2025-08-13T00:00	2860	731	12.5	1.1	303	3	
2025-08-13T00:00	2880	730	12.4	0.7	303	3	
2025-08-13T00:00	2900	728	12.2	0.6	302	3	
2025-08-13T00:00	2920	726	12.0	-0.1	300	3	
2025-08-13T00:00	2940	724	11.9	-0.5	297	4	
2025-08-13T00:00	2960	723	11.8	-0.5	293	4	
2025-08-13T00:00	2980	721	11.6	-0.6	291	4	
2025-08-13T00:00	3000	719	11.4	-0.5	290	4	
2025-08-13T00:00	3020	718	11.2	-0.6	292	4	
2025-08-13T00:00	3040	716	11.0	-0.7	297	4	
2025-08-13T00:00	3060	714	10.8	-0.7	302	5	
2025-08-13T00:00	3080	712	10.6	-0.8	306	5	
2025-08-13T00:00	3100	711	10.5	-0.8	312	5	
2025-08-13T00:00	3120	709	10.3	-0.8	317	5	
2025-08-13T00:00	3140	707	10.1	-0.8	320	6	
2025-08-13T00:00	3160	706	9.9	-0.9	321	6	
2025-08-13T00:00	3180	704	9.7	-0.9	321	6	
2025-08-13T00:00	3200	702	9.5	-0.9	319	6	
2025-08-13T00:00	3220	700	9.3	-0.9	317	6	
2025-08-13T00:00	3240	699	9.1	-1.0	315	6	
2025-08-13T00:00	3260	697	8.9	-1.0	312	6	
2025-08-13T00:00	3280	696	8.7	-1.0	309	6	
2025-08-13T00:00	3300	694	8.6	-1.0	305	5	
2025-08-13T00:00	3320	692	8.4	-1.0	302	5	
2025-08-13T00:00	3340	690	8.2	-0.8	299	5	
2025-08-13T00:00	3360	689	8.0	-0.6	295	5	
2025-08-13T00:00	3380	687	7.8	-0.4	293	4	
2025-08-13T00:00	3400	685	7.8	-0.7	293	4	
2025-08-13T00:00	3420	684	7.7	-1.8	294	4	
2025-08-13T00:00	3440	682	7.7	-2.5	296	4	
2025-08-13T00:00	3460	681	7.5	-2.7	298	5	
2025-08-13T00:00	3480	679	7.3	-2.8	301	5	
2025-08-13T00:00	3500	677	7.1	-2.7	304	5	
2025-08-13T00:00	3520	676	6.9	-2.8	306	6	
2025-08-13T00:00	3540	674	6.7	-2.9	306	6	
2025-08-13T00:00	3560	672	6.5	-2.9	306	7	
2025-08-13T00:00	3580	670	6.3	-3.0	305	7	
2025-08-13T00:00	3600	669	6.1	-3.1	305	8	
2025-08-13T00:00	3620	667	5.9	-3.1	305	8	
2025-08-13T00:00	3640	666	5.7	-3.2	307	8	
2025-08-13T00:00	3660	664	5.6	-3.2	309	8	
2025-08-13T00:00	3680	662	5.4	-3.3	310	8	
2025-08-13T00:00	3700	661	5.2	-3.5	312	8	
2025-08-13T00:00	3720	659	5.0	-3.8	314	8	
2025-08-13T00:00	3740	658	4.9	-4.2	314	7	
2025-08-13T00:00	3760	656	4.9	-5.7	313	7	
2025-08-13T00:00	3780	654	5.0	-8.5	311	7	
2025-08-13T00:00	3800	653	5.2	-13.0	309	7	
2025-08-13T00:00	3820	651	5.2	-14.6	305	6	
2025-08-13T00:00	3840	650	5.2	-16.4	301	6	
2025-08-13T00:00	3860	648	5.2	-17.6	299	6	
2025-08-13T00:00	3880	646	5.1	-15.1	297	6	
2025-08-13T00:00	3900	645	4.9	-15.1	297	6	
2025-08-13T00:00	3920	643	4.8	-15.8	297	6	
2025-08-13T00:00	3940	642	4.7	-15.8	297	6	
2025-08-13T00:00	3960	640	4.5	-15.6	298	6	
2025-08-13T00:00	3980	638	4.4	-15.5	299	6	
2025-08-13T00:00	4000	637	4.2	-15.3	300	6	
2025-08-13T00:00	4020	635	4.0	-15.3	301	6	
2025-08-13T00:00	4040	634	3.8	-15.3	301	6	
2025-08-13T00:00	4060	632	3.6	-15.4	302	7	
2025-08-13T00:00	4080	631	3.5	-15.3	302	7	
2025-08-13T00:00	4100	629	3.3	-15.4	302	7	
2025-08-13T00:00	4120	628	3.1	-15.3	302	7	
2025-08-13T00:00	4140	626	2.9	-15.3	302	7	
2025-08-13T00:00	4160	624	2.7	-15.5	301	7	
2025-08-13T00:00	4180	623	2.5	-15.6	299	6	
2025-08-13T00:00	4200	621	2.3	-15.6	298	6	
2025-08-13T00:00	4220	620	2.1	-15.9	297	6	
2025-08-13T00:00	4240	618	1.9	-16.1	296	6	
2025-08-13T00:00	4260	617	1.7	-16.2	295	6	
2025-08-13T00:00	4280	615	1.6	-16.3	295	6	
2025-08-13T00:00	4300	614	1.4	-16.2	296	7	
2025-08-13T00:00	4320	612	1.2	-16.5	296	7	
2025-08-13T00:00	4340	611	1.0	-16.7	297	7	
2025-08-13T00:00	4360	609	0.8	-17.0	296	7	
2025-08-13T00:00	4380	608	0.6	-17.3	295	7	
2025-08-13T00:00	4400	606	0.4	-17.4	294	7	
2025-08-13T00:00	4420	605	0.2	-17.5	293	7	
2025-08-13T00:00	4440	603	0.1	-17.5	291	7	
2025-08-13T00:00	4460	602	-0.1	-17.6	290	7	
2025-08-13T00:00	4480	600	-0.3	-17.7	289	7	
2025-08-13T00:00	4500	599	-0.5	-17.9	289	6	
2025-08-13T00:00	4520	597	-0.7	-17.8	289	6	
2025-08-13T00:00	4540	596	-0.8	-17.9	289	6	
2025-08-13T00:00	4560	594	-1.0	-17.9	291	6	
2025-08-13T00:00	4580	593	-1.2	-18.0	291	5	
2025-08-13T00:00	4600	591	-1.4	-18.2	289	5	
2025-08-13T00:00	4620	590	-1.6	-18.1	286	5	
2025-08-13T00:00	4640	588	-1.8	-18.1	282	5	
2025-08-13T00:00	4660	587	-2.0	-18.1	280	5	
2025-08-13T00:00	4680	585	-2.1	-18.2	278	5	
2025-08-13T00:00	4700	584	-2.3	-18.3	278	5	
2025-08-13T00:00	4720	582	-2.5	-18.3	280	5	
2025-08-13T00:00	4740	581	-2.7	-18.2	285	5	
2025-08-13T00:00	4760	579	-2.9	-17.9	290	5	
2025-08-13T00:00	4780	578	-3.1	-18.0	294	5	
2025-08-13T00:00	4800	577	-3.3	-18.1	297	5	
2025-08-13T00:00	4820	575	-3.4	-18.3	298	6	
2025-08-13T00:00	4840	574	-3.6	-18.3	299	6	
2025-08-13T00:00	4860	572	-3.8	-18.4	299	6	
2025-08-13T00:00	4880	571	-4.0	-18.7	299	6	
2025-08-13T00:00	4900	569	-4.2	-19.1	298	7	
2025-08-13T00:00	4920	568	-4.3	-19.3	296	7	
2025-08-13T00:00	4940	566	-4.5	-19.6	294	8	
2025-08-13T00:00	4960	565	-4.6	-19.8	292	8	
2025-08-13T00:00	4980	564	-4.8	-19.9	291	8	
2025-08-13T00:00	5000	562	-4.9	-20.2	291	8	
2025-08-13T00:00	5020	561	-5.0	-20.8	292	7	
2025-08-13T00:00	5040	559	-5.1	-21.3	294	7	
2025-08-13T00:00	5060	558	-5.2	-20.5	296	7	
2025-08-13T00:00	5080	556	-5.3	-20.3	296	8	
2025-08-13T00:00	5100	555	-5.5	-20.0	296	8	
2025-08-13T00:00	5120	554	-5.6	-20.5	295	9	
2025-08-13T00:00	5140	552	-5.7	-20.7	294	9	
2025-08-13T00:00	5160	551	-5.9	-20.8	293	9	
2025-08-13T00:00	5180	549	-6.1	-21.0	293	9	
2025-08-13T00:00	5200	548	-6.2	-21.4	292	9	
2025-08-13T00:00	5220	546	-6.3	-21.5	290	9	
2025-08-13T00:00	5240	545	-6.4	-20.9	288	9	
2025-08-13T00:00	5260	544	-6.6	-21.1	287	9	
2025-08-13T00:00	5280	542	-6.8	-21.2	284	9	
2025-08-13T00:00	5300	541	-6.9	-21.2	283	9	
2025-08-13T00:00	5320	540	-7.1	-21.3	282	8	
2025-08-13T00:00	5340	538	-7.2	-21.5	283	8	
2025-08-13T00:00	5360	537	-7.4	-21.8	284	8	
2025-08-13T00:00	5380	535	-7.6	-21.9	285	8	
2025-08-13T00:00	5400	534	-7.8	-22.0	287	8	
2025-08-13T00:00	5420	533	-8.0	-22.1	289	8	
2025-08-13T00:00	5440	531	-8.1	-22.4	292	9	
2025-08-13T00:00	5460	530	-8.3	-22.6	295	9	
2025-08-13T00:00	5480	528	-8.4	-23.6	299	9	
2025-08-13T00:00	5500	527	-8.5	-23.8	301	9	
2025-08-13T00:00	5520	526	-8.6	-23.4	304	9	
2025-08-13T00:00	5540	524	-8.7	-23.8	306	9	
2025-08-13T00:00	5560	523	-8.8	-24.1	307	9	
2025-08-13T00:00	5580	522	-8.8	-24.5	307	9	
2025-08-13T00:00	5600	520	-8.9	-24.9	307	9	
2025-08-13T00:00	5620	519	-9.0	-25.1	308	9	
2025-08-13T00:00	5640	518	-9.1	-25.8	308	9	
2025-08-13T00:00	5660	516	-9.1	-27.2	309	9	
2025-08-13T00:00	5680	515	-9.1	-28.2	310	9	
2025-08-13T00:00	5700	514	-9.1	-28.9	311	8	
2025-08-13T00:00	5720	512	-9.0	-29.6	312	8	
2025-08-13T00:00	5740	511	-9.0	-28.7	312	8	
2025-08-13T00:00	5760	510	-9.1	-29.0	312	7	
2025-08-13T00:00	5780	508	-9.2	-29.3	310	7	
2025-08-13T00:00	5800	507	-9.3	-29.4	307	7	
2025-08-13T00:00	5820	506	-9.4	-29.8	303	6	
2025-08-13T00:00	5840	505	-9.5	-30.3	300	6	
2025-08-13T00:00	5860	503	-9.5	-31.5	297	7	
2025-08-13T00:00	5880	502	-9.6	-32.4	294	7	
2025-08-13T00:00	5900	500	-9.7	-32.7	291	6	
2025-08-13T00:00	5920	499	-9.8	-32.8	289	6	
2025-08-13T00:00	5940	498	-9.8	-30.9	287	6	
2025-08-13T00:00	5960	497	-9.9	-29.3	284	5	
2025-08-13T00:00	5980	495	-10.0	-28.8	282	5	
2025-08-13T00:00	6000	494	-10.0	-28.1	280	4	
2025-08-13T00:00	6020	493	-10.0	-27.8	278	4	
2025-08-13T00:00	6040	492	-10.0	-27.3	278	4	
2025-08-13T00:00	6060	490	-10.0	-26.7	281	4	
2025-08-13T00:00	6080	489	-10.1	-26.3	286	4	
2025-08-13T00:00	6100	488	-10.2	-26.1	291	4	
2025-08-13T00:00	6120	486	-10.4	-26.2	294	4	
2025-08-13T00:00	6140	485	-10.6	-26.5	296	4	
2025-08-13T00:00	6160	484	-10.7	-26.7	298	5	
2025-08-13T00:00	6180	483	-10.9	-26.7	298	5	
2025-08-13T00:00	6200	482	-11.0	-26.8	297	5	
2025-08-13T00:00	6220	480	-11.2	-26.8	295	5	
2025-08-13T00:00	6240	479	-11.3	-26.1	292	5	
2025-08-13T00:00	6260	478	-11.4	-25.6	288	5	
2025-08-13T00:00	6280	477	-11.6	-25.6	283	5	
2025-08-13T00:00	6300	475	-11.8	-25.8	280	5	
2025-08-13T00:00	6320	474	-12.0	-25.9	278	5	
2025-08-13T00:00	6340	473	-12.1	-26.1	277	5	
2025-08-13T00:00	6360	471	-12.3	-26.2	277	5	
2025-08-13T00:00	6380	470	-12.5	-26.4	278	5	
2025-08-13T00:00	6400	469	-12.6	-26.4	279	5	
2025-08-13T00:00	6420	468	-12.8	-26.5	280	5	
2025-08-13T00:00	6440	467	-13.0	-26.5	282	5	
2025-08-13T00:00	6460	465	-13.2	-26.6	283	4	
2025-08-13T00:00	6480	464	-13.4	-26.6	284	4	
2025-08-13T00:00	6500	463	-13.6	-26.6	285	4	
2025-08-13T00:00	6520	462	-13.8	-26.6	285	5	
2025-08-13T00:00	6540	460	-14.0	-26.6	286	5	
2025-08-13T00:00	6560	459	-14.2	-26.7	287	5	
2025-08-13T00:00	6580	458	-14.3	-26.7	289	5	
2025-08-13T00:00	6600	457	-14.5	-26.8	292	5	
2025-08-13T00:00	6620	456	-14.7	-26.8	295	5	
2025-08-13T00:00	6640	455	-14.8	-27.0	299	5	
2025-08-13T00:00	6660	453	-15.0	-27.1	302	5	
2025-08-13T00:00	6680	452	-15.2	-27.3	304	5	
2025-08-13T00:00	6700	451	-15.3	-27.3	306	5	
2025-08-13T00:00	6720	450	-15.5	-27.4	306	4	
2025-08-13T00:00	6740	448	-15.6	-27.8	304	4	
2025-08-13T00:00	6760	447	-15.7	-28.3	301	4	
2025-08-13T00:00	6780	446	-15.7	-28.8	298	4	
2025-08-13T00:00	6800	445	-15.7	-29.0	294	4	
2025-08-13T00:00	6820	444	-15.8	-29.3	291	5	
2025-08-13T00:00	6840	442	-15.9	-29.8	290	5	
2025-08-13T00:00	6860	441	-16.0	-29.9	288	5	
2025-08-13T00:00	6880	440	-16.1	-29.9	287	5	
2025-08-13T00:00	6900	439	-16.3	-29.8	287	6	
2025-08-13T00:00	6920	438	-16.5	-29.7	286	6	
2025-08-13T00:00	6940	437	-16.6	-29.7	285	6	
2025-08-13T00:00	6960	436	-16.8	-29.9	283	6	
2025-08-13T00:00	6980	434	-17.0	-30.0	282	6	
2025-08-13T00:00	7000	433	-17.2	-30.5	279	6	
2025-08-13T00:00	7020	432	-17.3	-30.9	278	6	
2025-08-13T00:00	7040	431	-17.4	-30.8	276	6	
2025-08-13T00:00	7060	430	-17.6	-30.7	274	6	
2025-08-13T00:00	7080	429	-17.8	-30.7	273	6	
2025-08-13T00:00	7100	427	-17.9	-30.5	272	6	
2025-08-13T00:00	7120	426	-18.1	-30.4	272	6	
2025-08-13T00:00	7140	425	-18.3	-30.4	273	5	
2025-08-13T00:00	7160	424	-18.5	-30.3	275	5	
2025-08-13T00:00	7180	423	-18.7	-30.3	277	5	
2025-08-13T00:00	7200	422	-18.9	-30.3	279	5	
2025-08-13T00:00	7220	421	-19.1	-30.5	281	5	
2025-08-13T00:00	7240	420	-19.3	-30.6	283	5	
2025-08-13T00:00	7260	418	-19.5	-30.8	285	6	
2025-08-13T00:00	7280	417	-19.6	-31.0	287	6	
2025-08-13T00:00	7300	416	-19.8	-31.4	288	6	
2025-08-13T00:00	7320	415	-19.9	-31.6	291	6	
2025-08-13T00:00	7340	414	-20.1	-31.6	294	6	
2025-08-13T00:00	7360	413	-20.2	-32.1	297	6	
2025-08-13T00:00	7380	412	-20.4	-32.4	300	6	
2025-08-13T00:00	7400	410	-20.5	-33.0	304	6	
2025-08-13T00:00	7420	409	-20.6	-33.9	306	6	
2025-08-13T00:00	7440	408	-20.8	-34.2	308	6	
2025-08-13T00:00	7460	407	-20.9	-34.2	309	7	
2025-08-13T00:00	7480	406	-21.1	-34.5	310	6	
2025-08-13T00:00	7500	405	-21.2	-34.8	311	6	
2025-08-13T00:00	7520	404	-21.4	-35.4	311	6	
2025-08-13T00:00	7540	403	-21.5	-35.8	312	6	
2025-08-13T00:00	7560	402	-21.6	-36.1	313	5	
2025-08-13T00:00	7580	401	-21.7	-36.2	314	5	
2025-08-13T00:00	7600	400	-21.8	-36.5	315	4	
2025-08-13T00:00	7620	398	-21.9	-36.8	315	4	
2025-08-13T00:00	7640	397	-22.1	-36.9	313	4	
2025-08-13T00:00	7660	396	-22.2	-37.1	310	4	
2025-08-13T00:00	7680	395	-22.3	-37.2	308	4	
2025-08-13T00:00	7700	394	-22.5	-37.4	305	4	
2025-08-13T00:00	7720	393	-22.6	-37.5	304	4	
2025-08-13T00:00	7740	392	-22.8	-37.7	304	4	
2025-08-13T00:00	7760	391	-23.0	-37.8	304	5	
2025-08-13T00:00	7780	390	-23.2	-37.9	304	5	
2025-08-13T00:00	7800	389	-23.4	-38.1	306	5	
2025-08-13T00:00	7820	388	-23.5	-38.6	307	4	
2025-08-13T00:00	7840	387	-23.6	-39.1	309	4	
2025-08-13T00:00	7860	386	-23.7	-39.2	311	4	
2025-08-13T00:00	7880	385	-23.9	-39.2	314	4	
2025-08-13T00:00	7900	384	-24.0	-39.2	316	4	
2025-08-13T00:00	7920	382	-24.2	-39.1	319	4	
2025-08-13T00:00	7940	381	-24.4	-39.2	322	4	
2025-08-13T00:00	7960	380	-24.5	-39.3	326	4	
2025-08-13T00:00	7980	380	-24.7	-39.6	327	4	
2025-08-13T00:00	8000	378	-24.9	-39.7	328	4	
2025-08-13T00:00	8020	377	-25.1	-40.2	328	3	
2025-08-13T00:00	8040	376	-25.2	-40.6	328	3	
2025-08-13T00:00	8060	375	-25.4	-40.7	328	3	
2025-08-13T00:00	8080	374	-25.5	-40.7	330	3	
2025-08-13T00:00	8100	373	-25.7	-40.6	333	3	
2025-08-13T00:00	8120	372	-25.9	-40.9	338	3	
2025-08-13T00:00	8140	371	-26.0	-41.5	344	3	
2025-08-13T00:00	8160	370	-26.1	-41.8	351	3	
2025-08-13T00:00	8180	369	-26.2	-41.5	356	3	
2025-08-13T00:00	8200	368	-26.4	-41.5	359	3	
2025-08-13T00:00	8220	367	-26.6	-41.5	1	4	
2025-08-13T00:00	8240	366	-26.8	-41.6	0	4	
2025-08-13T00:00	8260	365	-26.9	-41.9	359	4	
2025-08-13T00:00	8280	364	-27.0	-42.1	357	4	
2025-08-13T00:00	8300	363	-27.2	-42.3	354	4	
2025-08-13T00:00	8320	362	-27.4	-42.4	351	4	
2025-08-13T00:00	8340	361	-27.5	-41.7	349	4	
2025-08-13T00:00	8360	360	-27.7	-41.2	346	4	
2025-08-13T00:00	8380	359	-27.9	-41.6	344	4	
2025-08-13T00:00	8400	358	-28.0	-42.1	343	4	
2025-08-13T00:00	8420	357	-28.2	-42.5	344	4	
2025-08-13T00:00	8440	356	-28.4	-42.9	345	4	
2025-08-13T00:00	8460	355	-28.5	-43.3	346	4	
2025-08-13T00:00	8480	354	-28.7	-43.9	349	4	
2025-08-13T00:00	8500	353	-28.7	-44.2	350	3	
2025-08-13T00:00	8520	352	-28.9	-44.1	351	3	
2025-08-13T00:00	8540	351	-29.0	-44.2	351	3	
2025-08-13T00:00	8560	350	-29.2	-44.2	350	3	
2025-08-13T00:00	8580	349	-29.4	-44.1	349	3	
2025-08-13T00:00	8600	348	-29.6	-44.1	348	3	
2025-08-13T00:00	8620	347	-29.8	-44.3	348	4	
2025-08-13T00:00	8640	346	-30.0	-44.5	348	4	
2025-08-13T00:00	8660	345	-30.1	-45.0	348	4	
2025-08-13T00:00	8680	344	-30.3	-45.2	348	4	
2025-08-13T00:00	8700	343	-30.4	-45.3	348	4	
2025-08-13T00:00	8720	342	-30.6	-45.3	348	4	
2025-08-13T00:00	8740	341	-30.8	-45.4	348	4	
2025-08-13T00:00	8760	340	-31.0	-45.4	347	4	
2025-08-13T00:00	8780	339	-31.2	-45.3	346	4	
2025-08-13T00:00	8800	338	-31.4	-45.2	344	4	
2025-08-13T00:00	8820	338	-31.6	-45.3	343	5	
2025-08-13T00:00	8840	337	-31.8	-45.2	341	5	
2025-08-13T00:00	8860	336	-32.0	-45.2	340	5	
2025-08-13T00:00	8880	335	-32.2	-45.3	339	5	
2025-08-13T00:00	8900	334	-32.3	-45.4	338	5	
2025-08-13T00:00	8920	333	-32.5	-45.4	336	5	
2025-08-13T00:00	8940	332	-32.7	-45.3	335	5	
2025-08-13T00:00	8960	331	-32.9	-45.2	334	5	
2025-08-13T00:00	8980	330	-33.0	-45.3	332	5	
2025-08-13T00:00	9000	329	-33.2	-45.3	331	5	
2025-08-13T00:00	9020	328	-33.4	-45.4	330	5	
2025-08-13T00:00	9040	327	-33.6	-45.4	330	5	
2025-08-13T00:00	9060	326	-33.8	-45.4	330	5	
2025-08-13T00:00	9080	325	-33.9	-45.6	330	5	
2025-08-13T00:00	9100	324	-34.1	-46.0	330	5	
2025-08-13T00:00	9120	323	-34.3	-46.0	330	5	
2025-08-13T00:00	9140	322	-34.5	-46.2	329	5	
2025-08-13T00:00	9160	322	-34.7	-46.2	328	5	
2025-08-13T00:00	9180	321	-34.9	-46.1	328	5	
2025-08-13T00:00	9200	320	-35.1	-46.1	326	5	
2025-08-13T00:00	9220	319	-35.2	-46.2	325	5	
2025-08-13T00:00	9240	318	-35.4	-46.3	323	5	
2025-08-13T00:00	9260	317	-35.6	-46.5	322	5	
2025-08-13T00:00	9280	316	-35.8	-46.4	320	5	
2025-08-13T00:00	9300	315	-36.0	-46.4	319	5	
2025-08-13T00:00	9320	314	-36.2	-46.4	318	5	
2025-08-13T00:00	9340	313	-36.4	-46.4	317	5	
2025-08-13T00:00	9360	312	-36.6	-46.4	317	6	
2025-08-13T00:00	9380	312	-36.8	-46.5	317	6	
2025-08-13T00:00	9400	311	-37.0	-46.6	316	6	
2025-08-13T00:00	9420	310	-37.2	-46.7	315	6	
2025-08-13T00:00	9440	309	-37.3	-46.7	314	7	
2025-08-13T00:00	9460	308	-37.5	-47.1	313	7	
2025-08-13T00:00	9480	307	-37.6	-47.6	311	7	
2025-08-13T00:00	9500	306	-37.8	-47.7	311	7	
2025-08-13T00:00	9520	305	-37.9	-47.7	311	7	
2025-08-13T00:00	9540	304	-38.1	-47.7	311	7	
2025-08-13T00:00	9560	304	-38.3	-48.0	311	7	
2025-08-13T00:00	9580	303	-38.4	-48.6	311	7	
2025-08-13T00:00	9600	302	-38.5	-48.7	312	7	
2025-08-13T00:00	9620	301	-38.7	-48.6	311	7	
2025-08-13T00:00	9640	300	-38.9	-48.6	311	7	
2025-08-13T00:00	9660	299	-39.1	-48.5	309	7	
2025-08-13T00:00	9680	298	-39.3	-48.6	308	7	
2025-08-13T00:00	9700	297	-39.4	-49.0	307	7	
2025-08-13T00:00	9720	297	-39.6	-49.6	306	7	
2025-08-13T00:00	9740	296	-39.7	-50.3	306	7	
2025-08-13T00:00	9760	295	-39.8	-50.8	306	7	
2025-08-13T00:00	9780	294	-39.9	-50.7	307	7	
2025-08-13T00:00	9800	293	-40.1	-51.0	308	7	
2025-08-13T00:00	9820	292	-40.1	-51.8	309	7	
2025-08-13T00:00	9840	291	-40.1	-52.6	310	7	
2025-08-13T00:00	9860	290	-40.2	-52.7	311	6	
2025-08-13T00:00	9880	290	-40.3	-52.9	312	6	
2025-08-13T00:00	9900	289	-40.5	-52.9	313	5	
2025-08-13T00:00	9920	288	-40.6	-53.1	313	5	
2025-08-13T00:00	9940	287	-40.7	-53.5	314	4	
2025-08-13T00:00	9960	286	-40.8	-53.8	313	4	
2025-08-13T00:00	9980	285	-40.9	-54.0	313	3	
2025-08-13T00:00	10000	285	-41.1	-54.1	312	3	
2025-08-13T00:00	10018	284	-41.2	-54.2	312	2	
2025-08-13T00:00	10050	282	-41.4	-54.4	313	2	
2025-08-13T00:00	10100	280	-41.8	-54.9	314	1	
2025-08-13T00:00	10150	278	-42.2	-55.2	288	1	
2025-08-13T00:00	10200	276	-42.6	-55.5	246	1	
2025-08-13T00:00	10250	274	-43.0	-56.2	239	2	
2025-08-13T00:00	10300	272	-43.0	-57.6	244	3	
2025-08-13T00:00	10350	270	-43.2	-58.4	250	4	
2025-08-13T00:00	10400	268	-42.7	-60.0	252	5	
2025-08-13T00:00	10450	266	-42.6	-60.6	252	6	
2025-08-13T00:00	10500	264	-42.8	-60.9	255	6	
2025-08-13T00:00	10550	262	-43.2	-61.0	264	7	
2025-08-13T00:00	10600	260	-43.6	-61.1	275	7	
2025-08-13T00:00	10650	258	-43.9	-61.4	283	9	
2025-08-13T00:00	10700	256	-43.9	-62.6	290	10	
2025-08-13T00:00	10750	255	-44.1	-63.0	295	10	
2025-08-13T00:00	10800	253	-44.4	-63.3	300	10	
2025-08-13T00:00	10850	251	-44.4	-64.0	304	10	
2025-08-13T00:00	10900	249	-44.2	-64.8	306	9	
2025-08-13T00:00	10950	247	-44.0	-65.1	305	8	
2025-08-13T00:00	11000	245	-44.4	-65.3	306	9	
2025-08-13T00:00	11050	243	-44.5	-65.3	309	9	
2025-08-13T00:00	11100	242	-44.7	-65.6	313	10	
2025-08-13T00:00	11150	240	-44.4	-67.0	317	9	
2025-08-13T00:00	11200	238	-44.6	-67.1	319	8	
2025-08-13T00:00	11250	236	-44.8	-67.3	321	8	
2025-08-13T00:00	11300	235	-45.0	-67.3	322	9	
2025-08-13T00:00	11350	233	-45.2	-67.4	323	10	
2025-08-13T00:00	11400	231	-45.5	-67.6	325	10	
2025-08-13T00:00	11450	229	-45.6	-68.0	328	10	
2025-08-13T00:00	11500	228	-45.7	-68.3	332	9	
2025-08-13T00:00	11550	226	-46.0	-68.5	334	8	
2025-08-13T00:00	11600	224	-46.4	-68.7	337	8	
2025-08-13T00:00	11650	223	-46.8	-68.7	341	8	
2025-08-13T00:00	11700	221	-47.2	-68.8	344	8	
2025-08-13T00:00	11750	219	-47.6	-69.1	344	8	
2025-08-13T00:00	11800	218	-47.4	-69.8	343	8	
2025-08-13T00:00	11850	216	-47.5	-70.3	341	8	
2025-08-13T00:00	11900	214	-47.9	-70.5	341	7	
2025-08-13T00:00	11950	213	-48.2	-70.5	343	6	
2025-08-13T00:00	12000	211	-48.4	-70.9	349	5	
2025-08-13T00:00	12050	209	-48.3	-71.7	356	4	
2025-08-13T00:00	12100	208	-48.4	-71.9	354	4	
2025-08-13T00:00	12150	206	-48.4	-72.3	345	4	
2025-08-13T00:00	12200	205	-48.6	-72.6	344	5	
2025-08-13T00:00	12250	203	-48.8	-72.7	343	6	
2025-08-13T00:00	12300	202	-49.1	-72.9	339	7	
2025-08-13T00:00	12350	200	-49.4	-73.2	336	7	
2025-08-13T00:00	12400	199	-49.6	-73.4	336	8	
2025-08-13T00:00	12450	197	-50.0	-73.5	336	8	
2025-08-13T00:00	12500	196	-50.4	-73.6	335	9	
2025-08-13T00:00	12550	194	-50.9	-73.7	335	9	
2025-08-13T00:00	12600	193	-51.2	-73.9	337	9	
2025-08-13T00:00	12650	191	-51.5	-74.3	340	10	
2025-08-13T00:00	12700	190	-51.8	-74.6	343	10	
2025-08-13T00:00	12750	188	-51.9	-75.0	345	10	
2025-08-13T00:00	12800	187	-51.9	-75.4	346	10	
2025-08-13T00:00	12850	185	-52.1	-75.6	348	9	
2025-08-13T00:00	12900	184	-52.0	-75.9	352	8	
2025-08-13T00:00	12950	182	-52.2	-75.9	359	7	
2025-08-13T00:00	13000	181	-52.1	-76.3	8	6	
2025-08-13T00:00	13050	180	-52.1	-76.5	13	6	
2025-08-13T00:00	13100	178	-52.4	-76.4	16	6	
2025-08-13T00:00	13150	177	-52.8	-76.7	20	6	
2025-08-13T00:00	13200	175	-53.1	-76.9	25	6	
2025-08-13T00:00	13250	174	-53.5	-77.1	31	6	
2025-08-13T00:00	13300	173	-53.8	-77.5	37	6	
2025-08-13T00:00	13350	171	-54.0	-77.9	41	6	
2025-08-13T00:00	13400	170	-54.2	-78.1	42	6	
2025-08-13T00:00	13450	169	-54.4	-78.1	40	6	
2025-08-13T00:00	13500	167	-54.6	-78.6	38	6	
2025-08-13T00:00	13550	166	-54.7	-78.6	37	6	
2025-08-13T00:00	13600	165	-54.9	-78.4	38	6	
2025-08-13T00:00	13650	164	-55.2	-78.5	37	5	
2025-08-13T00:00	13700	162	-55.5	-78.8	37	4	
2025-08-13T00:00	13750	161	-55.7	-79.1	42	4	
2025-08-13T00:00	13800	160	-55.9	-79.5	48	4	
2025-08-13T00:00	13850	159	-56.0	-79.7	55	4	
2025-08-13T00:00	13900	157	-56.2	-80.0	54	4	
2025-08-13T00:00	13950	156	-56.6	-80.3	43	4	
2025-08-13T00:00	14000	155	-56.7	-80.6	39	4	
2025-08-13T00:00	14050	154	-56.6	-80.7	47	4	
2025-08-13T00:00	14100	152	-56.8	-81.0	65	4	
2025-08-13T00:00	14150	151	-56.7	-81.2	85	4	
2025-08-13T00:00	14200	150	-56.6	-81.2	102	4	
2025-08-13T00:00	14250	149	-56.7	-81.2	116	3	
2025-08-13T00:00	14300	148	-57.1	-81.3	143	2	
2025-08-13T00:00	14350	147	-57.3	-81.4	192	2	
2025-08-13T00:00	14400	145	-57.3	-81.5	204	3	
2025-08-13T00:00	14450	144	-57.2	-81.8	203	4	
2025-08-13T00:00	14500	143	-56.6	-82.1	202	4	
2025-08-13T00:00	14550	142	-56.5	-82.4	204	5	
2025-08-13T00:00	14600	141	-56.7	-82.4	206	5	
2025-08-13T00:00	14650	140	-57.0	-82.3	206	6	
2025-08-13T00:00	14700	139	-57.4	-82.5	210	6	
2025-08-13T00:00	14750	138	-57.4	-82.4	212	6	
2025-08-13T00:00	14800	136	-57.3	-82.4	215	6	
2025-08-13T00:00	14850	135	-57.4	-82.5	220	5	
2025-08-13T00:00	14900	134	-57.7	-82.5	222	5	
2025-08-13T00:00	14950	133	-57.7	-82.6	218	5	
2025-08-13T00:00	15000	132	-57.6	-82.7	217	5	
2025-08-13T00:00	15050	131	-57.9	-82.7	220	5	
2025-08-13T00:00	15100	130	-58.2	-82.8	222	5	
2025-08-13T00:00	15150	129	-58.2	-82.8	225	4	
2025-08-13T00:00	15200	128	-58.5	-82.9	226	4	
2025-08-13T00:00	15250	127	-58.7	-83.0	227	4	
2025-08-13T00:00	15300	126	-58.9	-83.0	231	5	
2025-08-13T00:00	15350	125	-59.2	-83.2	230	5	
2025-08-13T00:00	15400	124	-59.0	-83.2	223	5	
2025-08-13T00:00	15450	123	-58.7	-83.3	219	6	
2025-08-13T00:00	15500	122	-58.5	-83.3	220	6	
2025-08-13T00:00	15550	121	-58.4	-83.4	225	7	
2025-08-13T00:00	15600	120	-58.2	-83.4	233	7	
2025-08-13T00:00	15650	119	-58.2	-83.3	244	7	
2025-08-13T00:00	15700	118	-58.5	-83.3	253	7	
2025-08-13T00:00	15750	117	-58.9	-83.4	258	7	
2025-08-13T00:00	15800	116	-59.2	-83.5	262	6	
2025-08-13T00:00	15850	115	-59.4	-83.7	269	5	
2025-08-13T00:00	15900	115	-59.4	-83.7	280	6	
2025-08-13T00:00	15950	114	-59.6	-83.8	282	5	
2025-08-13T00:00	16000	113	-59.6	-83.9	268	5	
2025-08-13T00:00	16050	112	-59.4	-83.8	243	4	
2025-08-13T00:00	16100	111	-59.6	-83.9	216	5	
2025-08-13T00:00	16150	110	-59.9	-84.0	198	6	
2025-08-13T00:00	16200	109	-59.9	-83.9	192	7	
2025-08-13T00:00	16250	108	-60.1	-84.1	196	8	
2025-08-13T00:00	16300	107	-60.3	-84.2	204	8	
2025-08-13T00:00	16350	107	-60.4	-84.5	210	8	
2025-08-13T00:00	16400	106	-60.0	-84.4	212	8	
2025-08-13T00:00	16450	105	-59.7	-84.5	210	8	
2025-08-13T00:00	16500	104	-59.6	-84.5	208	8	
2025-08-13T00:00	16550	103	-59.6	-84.5	208	7	
2025-08-13T00:00	16600	102	-59.7	-84.5	208	6	
2025-08-13T00:00	16650	102	-59.8	-84.6	203	6	
2025-08-13T00:00	16700	101	-59.8	-84.6	198	7	
2025-08-13T00:00	16750	100	-59.9	-84.7	199	8	
2025-08-13T00:00	16800	99	-60.2	-84.6	202	8	
2025-08-13T00:00	16850	98	-60.6	-84.6	204	9	
2025-08-13T00:00	16900	98	-61.0	-84.6	205	9	
2025-08-13T00:00	16950	97	-61.5	-84.8	205	9	
2025-08-13T00:00	17000	96	-61.9	-85.0	205	10	
2025-08-13T00:00	17050	95	-61.9	-84.9	206	10	
2025-08-13T00:00	17100	95	-62.1	-85.0	209	10	
2025-08-13T00:00	17150	94	-62.6	-85.2	208	10	
2025-08-13T00:00	17200	93	-62.9	-85.3	204	9	
2025-08-13T00:00	17250	92	-63.1	-85.3	201	9	
2025-08-13T00:00	17300	91	-63.5	-85.5	204	9	
2025-08-13T00:00	17350	91	-63.6	-85.7	209	9	
2025-08-13T00:00	17400	90	-63.4	-85.8	211	9	
2025-08-13T00:00	17450	89	-63.0	-85.8	210	9	
2025-08-13T00:00	17500	89	-63.0	-85.9	212	8	
2025-08-13T00:00	17550	88	-62.8	-85.9	217	7	
2025-08-13T00:00	17600	87	-62.7	-86.1	224	6	
2025-08-13T00:00	17650	86	-62.1	-85.8	229	5	
2025-08-13T00:00	17700	86	-62.0	-85.8	230	5	
2025-08-13T00:00	17750	85	-62.2	-85.9	232	5	
2025-08-13T00:00	17800	84	-62.4	-85.9	241	5	
2025-08-13T00:00	17850	84	-62.3	-86.0	255	5	
2025-08-13T00:00	17900	83	-62.2	-85.9	266	5	
2025-08-13T00:00	17950	82	-62.4	-86.0	269	4	
2025-08-13T00:00	18000	82	-62.8	-86.1	270	4	
2025-08-13T00:00	18050	81	-63.0	-86.2	275	4	
2025-08-13T00:00	18100	80	-63.0	-86.2	280	2	
2025-08-13T00:00	18150	80	-63.1	-86.4	259	1	
2025-08-13T00:00	18200	79	-62.9	-86.5	202	2	
2025-08-13T00:00	18250	78	-62.8	-86.6	183	3	
2025-08-13T00:00	18300	78	-62.6	-86.7	181	5	
2025-08-13T00:00	18350	77	-62.6	-86.6	185	6	
2025-08-13T00:00	18400	77	-62.7	-86.7	191	7	
2025-08-13T00:00	18450	76	-62.5	-86.7	199	6	
2025-08-13T00:00	18500	75	-62.4	-86.7	209	6	
2025-08-13T00:00	18550	75	-62.6	-86.7	221	5	
2025-08-13T00:00	18600	74	-62.6	-86.7	230	4	
2025-08-13T00:00	18650	73	-62.6	-86.9	225	3	
2025-08-13T00:00	18700	73	-62.3	-86.9	202	3	
2025-08-13T00:00	18750	72	-62.0	-86.9	182	3	
2025-08-13T00:00	18800	72	-61.7	-86.8	165	3	
2025-08-13T00:00	18850	71	-61.5	-86.7	153	3	
2025-08-13T00:00	18900	71	-61.3	-86.7	142	3	
2025-08-13T00:00	18950	70	-61.2	-86.7	128	3	
2025-08-13T00:00	19000	69	-61.1	-86.7	120	3	
2025-08-13T00:00	19050	69	-60.9	-86.5	119	3	
2025-08-13T00:00	19100	68	-61.0	-86.5	126	3	
2025-08-13T00:00	19150	68	-61.0	-86.5	139	3	
2025-08-13T00:00	19200	67	-61.0	-86.6	142	4	
2025-08-13T00:00	19250	67	-61.0	-86.5	142	5	
2025-08-13T00:00	19300	66	-61.2	-86.6	142	5	
2025-08-13T00:00	19350	66	-61.1	-86.5	144	6	
2025-08-13T00:00	19400	65	-60.9	-86.5	149	7	
2025-08-13T00:00	19450	65	-60.9	-86.5	153	7	
2025-08-13T00:00	19500	64	-61.1	-86.5	159	7	
2025-08-13T00:00	19550	64	-61.3	-86.5	166	7	
2025-08-13T00:00	19600	63	-61.5	-86.6	174	6	
2025-08-13T00:00	19650	63	-61.6	-86.7	179	5	
2025-08-13T00:00	19700	62	-61.5	-86.8	181	4	
2025-08-13T00:00	19750	62	-61.3	-86.8	183	3	
2025-08-13T00:00	19800	61	-61.1	-86.7	184	2	
2025-08-13T00:00	19850	61	-61.2	-86.8	179	1	
2025-08-13T00:00	19900	60	-61.1	-86.8	98	0	
2025-08-13T00:00	19950	60	-60.9	-86.8	84	1	
2025-08-13T00:00	20000	59	-60.6	-86.8	103	2	
2025-08-13T00:00	20050	59	-60.2		117	3	
2025-08-13T00:00	20100	58	-59.7		122	4	
2025-08-13T00:00	20150	58	-59.6		118	4	
2025-08-13T00:00	20200	57	-59.7		117	4	
2025-08-13T00:00	20250	57	-59.4		129	4	
2025-08-13T00:00	20300	56	-59.4		144	4	
2025-08-13T00:00	20350	56	-59.1		150	4	
2025-08-13T00:00	20400	55	-58.9		143	3	
2025-08-13T00:00	20450	55	-58.8		129	3	
2025-08-13T00:00	20500	55	-58.8		111	3	
2025-08-13T00:00	20550	54	-58.6		94	3	
2025-08-13T00:00	20600	54	-58.5		87	4	
2025-08-13T00:00	20650	53	-58.1		89	5	
2025-08-13T00:00	20700	53	-57.9		92	6	
2025-08-13T00:00	20750	52	-58.1		96	7	
2025-08-13T00:00	20800	52	-58.0		104	7	
2025-08-13T00:00	20850	52	-58.0		114	6	
2025-08-13T00:00	20900	51	-58.1		119	6	
2025-08-13T00:00	20950	51	-58.1		118	7	
2025-08-13T00:00	21000	50	-58.1		118	8	
2025-08-13T00:00	21050	50	-58.0		119	8	
2025-08-13T00:00	21100	50	-58.1		119	7	
2025-08-13T00:00	21150	49	-58.3		120	6	
2025-08-13T00:00	21200	49	-58.5		116	4	
2025-08-13T00:00	21250	48	-58.7		101	3	
2025-08-13T00:00	21300	48	-58.5		76	3	
2025-08-13T00:00	21350	48	-58.3		63	3	
2025-08-13T00:00	21400	47	-58.3		61	4	
2025-08-13T00:00	21450	47	-57.8		60	4	
2025-08-13T00:00	21500	47	-57.3		58	5	
2025-08-13T00:00	21550	46	-56.9		61	6	
2025-08-13T00:00	21600	46	-56.7		73	6	
2025-08-13T00:00	21650	45	-56.5		87	6	
2025-08-13T00:00	21700	45	-56.3		95	6	
2025-08-13T00:00	21750	45	-56.1		93	5	
2025-08-13T00:00	21800	44	-56.0		85	5	
2025-08-13T00:00	21850	44	-55.8		80	5	
2025-08-13T00:00	21900	44	-55.5		86	6	
2025-08-13T00:00	21950	43	-55.3		98	7	
2025-08-13T00:00	22000	43	-55.4		108	7	
2025-08-13T00:00	22050	43	-55.4		113	6	
2025-08-13T00:00	22100	42	-55.4		109	5	
2025-08-13T00:00	22150	42	-55.3		96	5	
2025-08-13T00:00	22200	42	-55.1		83	5	
2025-08-13T00:00	22250	41	-55.2		81	6	
2025-08-13T00:00	22300	41	-54.9		84	7	
2025-08-13T00:00	22350	41	-54.7		88	8	
2025-08-13T00:00	22400	40	-54.8		92	9	
2025-08-13T00:00	22450	40	-54.5		98	9	
2025-08-13T00:00	22500	40	-54.5		105	9	
2025-08-13T00:00	22550	39	-54.7		112	9	
2025-08-13T00:00	22600	39	-55.0		119	8	
2025-08-13T00:00	22650	39	-55.3		125	8	
2025-08-13T00:00	22700	39	-55.6		131	8	
2025-08-13T00:00	22750	38	-55.9		136	8	
2025-08-13T00:00	22800	38	-56.3		142	8	
2025-08-13T00:00	22850	38	-56.7		148	8	
2025-08-13T00:00	22900	37	-56.8		153	8	
2025-08-13T00:00	22950	37	-56.9		156	8	
2025-08-13T00:00	23000	37	-57.1		156	6	
2025-08-13T00:00	23050	36	-56.8		151	4	
2025-08-13T00:00	23100	36	-56.6		129	2	
2025-08-13T00:00	23150	36	-56.5		80	2	
2025-08-13T00:00	23200	36	-56.3		65	3	
2025-08-13T00:00	23250	35	-56.2		71	3	
2025-08-13T00:00	23300	35	-56.2		83	4	
2025-08-13T00:00	23350	35	-55.9		91	4	
2025-08-13T00:00	23400	35	-55.7		84	4	
2025-08-13T00:00	23450	34	-55.6		67	5	
2025-08-13T00:00	23500	34	-55.3		61	6	
2025-08-13T00:00	23550	34	-55.0		63	7	
2025-08-13T00:00	23600	33	-54.9		65	8	
2025-08-13T00:00	23650	33	-54.7		65	8	
2025-08-13T00:00	23700	33	-54.7		65	9	
2025-08-13T00:00	23750	33	-54.8		68	9	
2025-08-13T00:00	23800	32	-54.8		76	9	
2025-08-13T00:00	23850	32	-54.8		85	9	
2025-08-13T00:00	23900	32	-54.9		94	8	
2025-08-13T00:00	23950	32	-55.2		102	7	
2025-08-13T00:00	24000	31	-55.2		108	6	
2025-08-13T00:00	24050	31	-55.2		105	5	
2025-08-13T00:00	24100	31	-55.2		93	5	
2025-08-13T00:00	24150	31	-54.7		83	6	
2025-08-13T00:00	24200	30	-54.3		80	7	
2025-08-13T00:00	24250	30	-53.6		83	8	
2025-08-13T00:00	24300	30	-53.3		88	10	
2025-08-13T00:00	24350	30	-52.9		92	10	
2025-08-13T00:00	24400	30	-52.6		96	10	
2025-08-13T00:00	24450	29	-52.7		98	8	
2025-08-13T00:00	24500	29	-52.9		98	7	
2025-08-13T00:00	24550	29	-53.0		103	7	
2025-08-13T00:00	24600	29	-53.1		108	7	
2025-08-13T00:00	24650	28	-53.2		111	8	
2025-08-13T00:00	24700	28	-53.4		113	8	
2025-08-13T00:00	24750	28	-53.5		114	7	
2025-08-13T00:00	24800	28	-53.8		108	7	
2025-08-13T00:00	24850	28	-53.6		101	8	
2025-08-13T00:00	24900	27	-53.3		100	10	
2025-08-13T00:00	24950	27	-52.8		102	10	
2025-08-13T00:00	25000	27	-52.1		106	9	
2025-08-13T00:00	25050	27	-52.0		110	8	
2025-08-13T00:00	25100	26	-52.0		109	7	
2025-08-13T00:00	25150	26	-51.7		105	7	
2025-08-13T00:00	25200	26	-51.5		102	8	
2025-08-13T00:00	25250	26	-51.4		101	9	
2025-08-13T00:00	25300	26	-51.4		100	10	
2025-08-13T00:00	25350	25	-51.4		101	11	
2025-08-13T00:00	25400	25	-51.6		104	12	
2025-08-13T00:00	25450	25	-51.6		110	13	
2025-08-13T00:00	25500	25	-51.6		116	13	
2025-08-13T00:00	25550	25	-51.4		121	13	
2025-08-13T00:00	25600	25	-51.2		124	13	
2025-08-13T00:00	25650	24	-51.0		125	12	
2025-08-13T00:00	25700	24	-50.9		123	11	
2025-08-13T00:00	25750	24	-51.0		121	10	
2025-08-13T00:00	25800	24	-51.1		118	9	
2025-08-13T00:00	25850	24	-51.0		120	9	
2025-08-13T00:00	25900	23	-51.1		124	9	
2025-08-13T00:00	25950	23	-51.2		124	9	
2025-08-13T00:00	26000	23	-50.8		116	8	
2025-08-13T00:00	26050	23	-50.6		104	8	
2025-08-13T00:00	26100	23	-50.4		96	9	
2025-08-13T00:00	26150	23	-49.9		95	8	
2025-08-13T00:00	26200	22	-49.5		96	8	
2025-08-13T00:00	26250	22	-49.2		97	7	
2025-08-13T00:00	26300	22	-49.0		93	7	
2025-08-13T00:00	26350	22	-48.8		88	7	
2025-08-13T00:00	26400	22	-48.2		84	8	
2025-08-13T00:00	26450	22	-47.4		79	8	
2025-08-13T00:00	26500	21	-46.7		75	9	
2025-08-13T00:00	26550	21	-46.7		73	9	
2025-08-13T00:00	26600	21	-46.5		76	9	
2025-08-13T00:00	26650	21	-46.2		81	9	
2025-08-13T00:00	26700	21	-46.2		89	8	
2025-08-13T00:00	26750	21	-46.2		95	8	
2025-08-13T00:00	26800	20	-46.3		97	7	
2025-08-13T00:00	26850	20	-46.4		94	6	
2025-08-13T00:00	26900	20	-46.6		86	5	
2025-08-13T00:00	26950	20	-46.4		77	5	
2025-08-13T00:00	27000	20	-46.3		69	5	
2025-08-13T00:00	27050	20	-46.2		63	5	
2025-08-13T00:00	27100	20	-46.1		56	6	
2025-08-13T00:00	27150	19	-45.9		50	6	
2025-08-13T00:00	27200	19	-45.5		48	7	
2025-08-13T00:00	27250	19	-45.2		52	7	
2025-08-13T00:00	27300	19	-45.0		60	7	
2025-08-13T00:00	27350	19	-45.1		67	8	
2025-08-13T00:00	27400	19	-45.5		74	8	
2025-08-13T00:00	27450	19	-45.7		78	9	
2025-08-13T00:00	27500	18	-45.8		80	9	
2025-08-13T00:00	27550	18	-45.8		82	9	
2025-08-13T00:00	27600	18	-45.6		87	9	
2025-08-13T00:00	27650	18	-45.5		92	9	
2025-08-13T00:00	27700	18	-45.3		96	9	
2025-08-13T00:00	27750	18	-45.2		97	9	
2025-08-13T00:00	27800	18	-45.1		97	9	
2025-08-13T00:00	27850	17	-44.8		97	9	
2025-08-13T00:00	27900	17	-44.6		100	10	
2025-08-13T00:00	27950	17	-44.5		103	11	
2025-08-13T00:00	28000	17	-44.5		105	11	
2025-08-13T00:00	28050	17	-44.6		107	11	
2025-08-13T00:00	28100	17	-44.6		108	10	
2025-08-13T00:00	28150	17	-44.6		108	9	
2025-08-13T00:00	28200	17	-44.6		108	8	
2025-08-13T00:00	28250	16	-44.8		105	7	
2025-08-13T00:00	28300	16	-45.0		97	6	
2025-08-13T00:00	28350	16	-45.0		87	6	
2025-08-13T00:00	28400	16	-45.0		78	7	
2025-08-13T00:00	28450	16	-44.8		72	8	
2025-08-13T00:00	28500	16	-44.6		70	9	
2025-08-13T00:00	28550	16	-44.4		72	10	
2025-08-13T00:00	28600	16	-44.3		75	10	
2025-08-13T00:00	28650	15	-44.2		81	11	
2025-08-13T00:00	28700	15	-44.1		87	11	
2025-08-13T00:00	28750	15	-44.1		92	11	
2025-08-13T00:00	28800	15	-44.1		97	12	
2025-08-13T00:00	28850	15	-44.4		100	12	
2025-08-13T00:00	28900	15	-44.6		104	12	
2025-08-13T00:00	28950	15	-44.9		107	12	
2025-08-13T00:00	29000	15	-45.1		109	11	
2025-08-13T00:00	29050	15	-45.3		109	10	
2025-08-13T00:00	29100	14	-45.4		107	9	
2025-08-13T00:00	29150	14	-45.2		103	9	
2025-08-13T00:00	29200	14	-45.2		100	9	
2025-08-13T00:00	29250	14	-45.2		100	10	
2025-08-13T00:00	29300	14	-45.0		102	11	
2025-08-13T00:00	29350	14	-44.7		105	11	
2025-08-13T00:00	29400	14	-44.5		107	10	
2025-08-13T00:00	29450	14	-44.3		108	10	
2025-08-13T00:00	29500	14	-44.2		109	9	
2025-08-13T00:00	29550	14	-44.1		106	8	
2025-08-13T00:00	29600	13	-44.0		100	9	
2025-08-13T00:00	29650	13	-43.5		97	10	
2025-08-13T00:00	29700	13	-42.7		98	11	
2025-08-13T00:00	29750	13	-42.4		101	12	
2025-08-13T00:00	29800	13	-42.5		104	12	
2025-08-13T00:00	29850	13	-42.7		108	11	
2025-08-13T00:00	29900	13	-42.9		111	11	
2025-08-13T00:00	29950	13	-43.0		114	10	
2025-08-13T00:00	30000	13	-43.2		116	10	
2025-08-13T00:00	30050	13	-43.3		117	9	
2025-08-13T00:00	30100	12	-43.3		115	9	
2025-08-13T00:00	30150	12	-43.1		111	8	
2025-08-13T00:00	30200	12	-43.1		105	8	
2025-08-13T00:00	30250	12	-43.1		100	8	
2025-08-13T00:00	30300	12	-43.0		96	8	
2025-08-13T00:00	30350	12	-42.8		95	8	
2025-08-13T00:00	30400	12	-42.8		93	8	
2025-08-13T00:00	30450	12	-42.9		90	8	
2025-08-13T00:00	30500	12	-43.1		86	8	
2025-08-13T00:00	30550	12	-43.1		83	8	
2025-08-13T00:00	30600	12	-43.0		82	9	
2025-08-13T00:00	30650	11	-42.9		83	9	
2025-08-13T00:00	30700	11	-42.8		85	10	
2025-08-13T00:00	30750	11	-42.8		86	10	
2025-08-13T00:00	30800	11	-42.7		85	10	
2025-08-13T00:00	30850	11	-42.4		83	10	
2025-08-13T00:00	30900	11	-42.2		80	9	
2025-08-13T00:00	30950	11	-42.1		79	9	
2025-08-13T00:00	31000	11	-42.2		83	8	
2025-08-13T00:00	31050	11	-42.2		91	8	
2025-08-13T00:00	31100	11	-42.0		97	7	
2025-08-13T00:00	31150	11	-41.7		94	7	
2025-08-13T00:00	31200	11	-41.2		86	8	
2025-08-13T00:00	31250	11	-40.8		83	9	
2025-08-13T00:00	31300	10	-40.4		88	9	
2025-08-13T00:00	31350	10	-40.1		95	9	
2025-08-13T00:00	31400	10	-40.2		98	9	
2025-08-13T00:00	31450	10	-40.2		93	8	
2025-08-13T00:00	31500	10	-39.9		80	7	
2025-08-13T00:00	31550	10	-39.6		73	8	
2025-08-13T00:00	31600	10	-39.5		74	8	
2025-08-13T00:00	31650	10	-39.3		78	9	
2025-08-13T00:00	31700	10	-39.0		80	10	
2025-08-13T00:00	31750	10	-38.7		79	11	
2025-08-13T00:00	31800	10	-38.6		78	11	
2025-08-13T00:00	31850	10	-38.7		76	12	
2025-08-13T00:00	31900	10	-38.6		75	13	
2025-08-13T00:00	31950	9	-38.5		75	13	
2025-08-13T00:00	32000	9	-38.6		75	12	
2025-08-13T00:00	32050	9	-38.8		75	12	
2025-08-13T00:00	32100	9	-39.0		75	11	
2025-08-13T00:00	32150	9	-39.3		74	11	
2025-08-13T00:00	32200	9	-39.3		74	11	
2025-08-13T00:00	32250	9	-39.1		76	11	
2025-08-13T00:00	32300	9	-38.8		80	11	
2025-08-13T00:00	32350	9	-38.3		85	11	
2025-08-13T00:00	32400	9	-38.3		88	10	
2025-08-13T00:00	32450	9	-38.5		87	10	
2025-08-13T00:00	32500	9	-38.3		84	10	
2025-08-13T00:00	32550	9	-37.9		82	11	
2025-08-13T00:00	32600	9	-37.5		80	11	
2025-08-13T00:00	32650	9	-37.3		76	12	
2025-08-13T00:00	32700	9	-37.2		70	13	
2025-08-13T00:00	32750	8	-36.8		66	15	
2025-08-13T00:00	32800	8	-36.6		65	16	
2025-08-13T00:00	32850	8	-36.6		68	16	
2025-08-13T00:00	32900	8	-36.6		71	14	
2025-08-13T00:00	32950	8	-36.6		74	13	
2025-08-13T00:00	33000	8	-36.6		77	13	
2025-08-13T00:00	33050	8	-36.5		81	13	
2025-08-13T00:00	33100	8	-36.4		83	13	
2025-08-13T00:00	33150	8	-36.3		84	14	
2025-08-13T00:00	33200	8	-36.1		82	13	
2025-08-13T00:00	33250	8	-35.9		79	13	
2025-08-13T00:00	33300	8	-35.6		77	12	
2025-08-13T00:00	33350	8	-35.6		76	12	
2025-08-13T00:00	33400	8	-35.5		76	13	
2025-08-13T00:00	33450	8	-35.1		75	13	
2025-08-13T00:00	33500	8	-35.0		75	15	
2025-08-13T00:00	33550	8	-34.9		76	16	
2025-08-13T00:00	33600	7	-34.8		79	17	
2025-08-13T00:00	33650	7	-34.7		82	18	
2025-08-13T00:00	33700	7	-34.2		85	18	
2025-08-13T00:00	33750	7	-34.0		86	17	
2025-08-13T00:00	33800	7	-33.9		87	17	
2025-08-13T00:00	33850	7	-33.5		87	16	
2025-08-13T00:00	33900	7	-33.3		88	15	
2025-08-13T00:00	33950	7	-33.2		90	15	
2025-08-13T00:00	34000	7	-33.4		92	14	
2025-08-13T00:00	34050	7	-33.4		93	14	
2025-08-13T00:00	34100	7	-33.4		96	14	
2025-08-13T00:00	34150	7	-33.6		98	14	
2025-08-13T00:00	34200	7	-33.7		97	14	
2025-08-13T00:00	34250	7	-33.9		93	15	
2025-08-13T00:00	34300	7	-33.8		88	16	
2025-08-13T00:00	34350	7	-33.7		86	17	
2025-08-13T00:00	34400	7	-33.7		85	18	
2025-08-13T00:00	34450	7	-33.2		86	19	
2025-08-13T00:00	34500	7	-32.9		87	18	
2025-08-13T00:00	34550	7	-32.5		86	17	
2025-08-13T00:00	34600	6	-32.2		85	17	
2025-08-13T00:00	34650	6	-32.1		82	18	
2025-08-13T00:00	34700	6	-31.9		80	18	
2025-08-13T00:00	34750	6	-31.6		80	18	
2025-08-13T00:00	34800	6	-31.6		81	17	
2025-08-13T00:00	34850	6	-31.7		84	16	
2025-08-13T00:00	34900	6	-31.7		87	15	
2025-08-13T00:00	34950	6	-31.2		88	15	
2025-08-13T00:00	35000	6	-31.2		89	14	
2025-08-13T00:00	35050	6	-31.5		89	14	
2025-08-13T00:00	35100	6	-31.8		89	14	
2025-08-13T00:00	35150	6	-32.0		89	15	
2025-08-13T00:00	35200	6	-32.2		91	16	
2025-08-13T00:00	35250	6	-32.4		93	17	
2025-08-13T00:00	35300	6	-32.4		95	16	
2025-08-13T00:00	35350	6	-32.4		97	15	
2025-08-13T00:00	35400	6	-32.4		98	14	
2025-08-13T00:00	35450	6	-32.6		98	12	
2025-08-13T00:00	35500	6	-32.5		95	12	
2025-08-13T00:00	35550	6	-32.6		93	13	
2025-08-13T00:00	35600	6	-32.3		92	14	
2025-08-13T00:00	35650	6	-32.2		92	15	
2025-08-13T00:00	35700	6	-32.0		91	16	
2025-08-13T00:00	35750	6	-31.9		88	17	
2025-08-13T00:00	35800	5	-31.3		85	16	
2025-08-13T00:00	35850	5	-31.1		82	15	
2025-08-13T00:00	35900	5	-31.3		78	13	
2025-08-13T00:00	35950	5	-31.5		76	12	
2025-08-13T00:00	36000	5	-31.7		74	12	
2025-08-13T00:00	36050	5	-31.9		75	12	
2025-08-13T00:00	36100	5	-31.9		80	14	
2025-08-13T00:00	36150	5	-32.0		84	15	
2025-08-13T00:00	36200	5	-32.2		88	16	
2025-08-13T00:00	36250	5	-32.4		91	18	
2025-08-13T00:00	36300	5	-32.5		94	18	
2025-08-13T00:00	36350	5	-32.6		97	19	
2025-08-13T00:00	36400	5	-32.5		100	18	
2025-08-13T00:00	36450	5	-32.1		102	18	
2025-08-13T00:00	36500	5	-32.1		101	17	
2025-08-13T00:00	36550	5	-32.2		98	16	
2025-08-13T00:00	36600	5	-32.0		94	15	
2025-08-13T00:00	36650	5	-31.6		90	16	
2025-08-13T00:00	36700	5	-31.4		87	16	
2025-08-13T00:00	36750	5	-31.4		85	16	
2025-08-13T00:00	36800	5	-31.6		85	17	
2025-08-13T00:00	36850	5	-31.7		86	17	
2025-08-13T00:00	36900	5	-31.7		88	17	
2025-08-13T00:00	36950	5	-31.6		90	17	
2025-08-13T00:00	37000	5	-31.6		91	17	
2025-08-13T00:00	37050	5	-31.4		91	16	
2025-08-13T00:00	37100	5	-31.5		89	16	
2025-08-13T00:00	37150	5	-31.6		88	15	
2025-08-13T00:00	37200	4	-31.7		89	15	
2025-08-13T00:00	37250	4	-31.7		90	15	
2025-08-13T00:00	37300	4	-31.6		91	15	
2025-08-13T00:00	37350	4	-31.6		90	15	
2025-08-13T00:00	37400	4	-31.6		86	14	
2025-08-13T00:00	37450	4	-31.4		80	15	
2025-08-13T00:00	37500	4	-31.0		73	15	
2025-08-13T00:00	37550	4	-30.8		67	16	
2025-08-13T00:00	37600	4	-30.5		66	17	
2025-08-13T00:00	37650	4	-30.2		69	18	
2025-08-13T00:00	37700	4	-30.0		72	18	
2025-08-13T00:00	37750	4	-29.8		74	19	
2025-08-13T00:00	37800	4	-29.7		76	21	
2025-08-13T00:00	37850	4	-29.6		78	22	
2025-08-13T00:00	37900	4	-29.4		78	24	
2025-08-13T00:00	37950	4	-29.2		76	25	
2025-08-13T12:00	491	961	30.9	13.7	350	2	5.5
2025-08-13T12:00	501	960	30.0	13.8	13	1	5.6
2025-08-13T12:00	520	959	29.5	13.6	15	2	5.6
2025-08-13T12:00	540	956	29.6	13.6	15	2	5.6
2025-08-13T12:00	560	954	29.6	13.5	14	3	5.6
2025-08-13T12:00	580	952	29.3	13.4	14	3	5.6
2025-08-13T12:00	600	950	29.1	13.5	15	3	5.6
2025-08-13T12:00	620	948	28.9	13.3	16	3	5.7
2025-08-13T12:00	640	946	28.5	13.4	19	2	5.7
2025-08-13T12:00	660	943	28.3	13.2	23	2	5.7
2025-08-13T12:00	680	941	28.1	13.2	30	2	5.6
2025-08-13T12:00	700	939	28.0	13.3	39	2	5.6
2025-08-13T12:00	720	937	27.8	13.2	56	1	5.6
2025-08-13T12:00	740	935	27.6	13.3	79	1	5.7
2025-08-13T12:00	760	933	27.4	13.1	96	1	5.7
2025-08-13T12:00	780	931	27.2	13.1	98	1	5.6
2025-08-13T12:00	800	929	27.1	13.1	89	1	5.6
2025-08-13T12:00	820	927	26.8	13.0	75	1	5.6
2025-08-13T12:00	840	925	26.6	13.0	66	2	5.6
2025-08-13T12:00	860	922	26.5	12.9	63	3	5.6
2025-08-13T12:00	880	920	26.6	12.2	66	4	5.6
2025-08-13T12:00	900	918	26.8	11.2	73	4	5.6
2025-08-13T12:00	920	916	27.1	10.5	80	5	5.7
2025-08-13T12:00	940	914	27.4	9.2	85	6	5.7
2025-08-13T12:00	960	912	27.5	8.5	88	6	5.8
2025-08-13T12:00	980	910	27.8	6.8	88	7	5.8
2025-08-13T12:00	1000	908	28.0	6.0	88	7	5.7
2025-08-13T12:00	1020	906	28.0	5.6	86	7	5.6
2025-08-13T12:00	1040	904	27.9	5.4	85	7	5.5
2025-08-13T12:00	1060	902	27.8	5.1	83	8	5.4
2025-08-13T12:00	1080	900	27.7	5.1	82	8	5.3
2025-08-13T12:00	1100	898	27.6	5.1	81	8	5.3
2025-08-13T12:00	1120	896	27.4	5.0	80	8	5.2
2025-08-13T12:00	1140	894	27.2	4.9	78	8	5.2
2025-08-13T12:00	1160	892	27.0	4.7	76	7	5.1
2025-08-13T12:00	1180	889	26.9	4.4	73	7	5.1
2025-08-13T12:00	1200	887	26.7	4.2	68	6	5.0
2025-08-13T12:00	1220	886	26.5	4.0	63	5	5.0
2025-08-13T12:00	1240	884	26.3	3.8	55	5	4.9
2025-08-13T12:00	1260	882	26.2	3.6	47	4	4.9
2025-08-13T12:00	1280	880	26.1	3.4	40	4	4.9
2025-08-13T12:00	1300	877	25.9	3.4	36	4	4.8
2025-08-13T12:00	1320	875	25.7	3.4	34	3	4.8
2025-08-13T12:00	1340	873	25.5	3.5	33	3	4.7
2025-08-13T12:00	1360	871	25.4	4.1	35	3	4.7
2025-08-13T12:00	1380	870	25.2	4.2	43	2	4.7
2025-08-13T12:00	1400	867	25.0	4.4	66	2	4.7
2025-08-13T12:00	1420	865	24.9	4.9	101	2	4.7
2025-08-13T12:00	1440	864	24.7	5.4	118	2	4.8
2025-08-13T12:00	1460	862	24.5	5.8	122	3	4.8
2025-08-13T12:00	1480	860	24.4	5.8	120	3	4.8
2025-08-13T12:00	1500	858	24.2	5.7	114	3	4.9
2025-08-13T12:00	1520	856	24.0	5.5	104	3	4.9
2025-08-13T12:00	1540	854	23.9	5.6	93	3	4.9
2025-08-13T12:00	1560	852	23.8	5.3	80	2	4.9
2025-08-13T12:00	1580	850	23.7	5.2	62	2	4.9
2025-08-13T12:00	1600	848	23.5	5.3	43	2	5.0
2025-08-13T12:00	1620	846	23.3	5.3	25	1	4.9
2025-08-13T12:00	1640	844	23.1	5.2	14	2	4.9
2025-08-13T12:00	1660	842	22.9	5.3	11	2	4.9
2025-08-13T12:00	1680	840	22.7	5.3	13	2	5.0
2025-08-13T12:00	1700	838	22.4	5.2	15	3	4.9
2025-08-13T12:00	1720	836	22.3	4.8	15	3	4.9
2025-08-13T12:00	1740	834	22.2	4.7	14	4	4.9
2025-08-13T12:00	1760	832	22.1	3.6	12	4	4.9
2025-08-13T12:00	1780	830	21.9	3.2	11	5	4.7
2025-08-13T12:00	1800	829	21.8	3.1	14	5	4.7
2025-08-13T12:00	1820	827	21.6	3.0	18	5	4.5
2025-08-13T12:00	1840	825	21.4	2.9	25	6	4.4
2025-08-13T12:00	1860	823	21.2	2.9	33	6	4.4
2025-08-13T12:00	1880	821	21.0	2.9	41	6	4.3
2025-08-13T12:00	1900	819	20.9	2.8	50	5	4.3
2025-08-13T12:00	1920	817	20.7	2.7	59	5	4.3
2025-08-13T12:00	1940	815	20.6	2.7	70	4	4.2
2025-08-13T12:00	1960	813	20.4	2.8	80	4	4.2
2025-08-13T12:00	1980	811	20.1	2.7	87	3	4.2
2025-08-13T12:00	2000	809	19.9	2.6	90	3	4.1
2025-08-13T12:00	2020	808	19.8	2.6	87	2	4.1
2025-08-13T12:00	2040	806	19.6	2.6	76	2	4.1
2025-08-13T12:00	2060	804	19.4	2.5	54	2	4.1
2025-08-13T12:00	2080	802	19.1	2.4	34	2	4.1
2025-08-13T12:00	2100	800	18.9	2.1	16	2	4.1
2025-08-13T12:00	2120	798	18.7	2.1	0	2	4.1
2025-08-13T12:00	2140	796	18.6	2.1	353	3	4.1
2025-08-13T12:00	2160	795	18.4	2.2	352	3	4.1
2025-08-13T12:00	2180	793	18.2	2.1	358	4	4.1
2025-08-13T12:00	2200	791	18.0	2.0	7	4	4.1
2025-08-13T12:00	2220	789	17.8	1.9	17	5	4.1
2025-08-13T12:00	2240	787	17.6	1.8	27	5	4.2
2025-08-13T12:00	2260	786	17.5	1.7	36	5	4.2
2025-08-13T12:00	2280	784	17.3	1.6	42	5	4.2
2025-08-13T12:00	2300	782	17.2	1.5	44	5	4.2
2025-08-13T12:00	2320	780	17.0	1.5	41	4	4.2
2025-08-13T12:00	2340	778	16.8	1.6	34	4	4.2
2025-08-13T12:00	2360	776	16.6	1.9	29	5	4.2
2025-08-13T12:00	2380	774	16.3	2.0	25	5	4.2
2025-08-13T12:00	2400	773	16.1	2.1	27	6	4.3
2025-08-13T12:00	2420	771	15.9	2.2	30	6	4.3
2025-08-13T12:00	2440	769	15.7	2.2	34	7	4.3
2025-08-13T12:00	2460	767	15.6	2.1	36	7	4.3
2025-08-13T12:00	2480	765	15.4	2.1	35	7	4.3
2025-08-13T12:00	2500	764	15.2	2.3	32	7	4.3
2025-08-13T12:00	2520	762	14.9	2.3	28	7	4.3
2025-08-13T12:00	2540	760	14.7	2.5	22	6	4.2
2025-08-13T12:00	2560	758	14.5	2.8	18	6	4.2
2025-08-13T12:00	2580	756	14.4	3.2	17	6	4.2
2025-08-13T12:00	2600	754	14.2	3.3	19	5	4.3
2025-08-13T12:00	2620	753	14.1	3.2	24	5	4.3
2025-08-13T12:00	2640	751	13.9	3.2	29	5	4.2
2025-08-13T12:00	2660	749	13.7	3.3	30	4	4.3
2025-08-13T12:00	2680	747	13.5	3.1	28	4	4.3
2025-08-13T12:00	2700	746	13.4	3.0	21	4	4.2
2025-08-13T12:00	2720	744	13.2	3.2	12	5	4.3
2025-08-13T12:00	2740	742	12.9	3.1	4	5	4.3
2025-08-13T12:00	2760	740	12.7	3.1	356	5	4.2
2025-08-13T12:00	2780	739	12.6	3.2	350	5	4.3
2025-08-13T12:00	2800	737	12.4	3.1	347	6	4.2
2025-08-13T12:00	2820	735	12.2	3.2	345	6	4.3
2025-08-13T12:00	2840	734	12.0	3.2	344	5	4.3
2025-08-13T12:00	2860	732	11.8	3.2	343	5	4.2
2025-08-13T12:00	2880	730	11.6	3.0	342	4	4.2
2025-08-13T12:00	2900	728	11.5	3.0	340	4	4.2
2025-08-13T12:00	2920	727	11.3	3.1	336	4	4.2
2025-08-13T12:00	2940	725	11.1	3.1	332	4	4.2
2025-08-13T12:00	2960	723	10.9	3.1	329	4	4.2
2025-08-13T12:00	2980	721	10.7	3.0	328	4	4.1
2025-08-13T12:00	3000	719	10.5	3.0	326	4	4.1
2025-08-13T12:00	3020	718	10.4	3.1	324	4	4.1
2025-08-13T12:00	3040	716	10.3	3.0	321	4	4.1
2025-08-13T12:00	3060	714	10.1	3.0	319	4	4.1
2025-08-13T12:00	3080	713	10.0	2.9	317	4	4.1
2025-08-13T12:00	3100	711	9.8	2.8	318	4	4.0
2025-08-13T12:00	3120	709	9.6	2.6	322	4	4.0
2025-08-13T12:00	3140	708	9.6	2.0	328	4	4.0
2025-08-13T12:00	3160	706	9.4	2.2	334	5	4.0
2025-08-13T12:00	3180	704	9.3	1.4	339	5	3.9
2025-08-13T12:00	3200	702	9.1	0.9	343	6	3.9
2025-08-13T12:00	3220	701	9.0	1.2	346	7	3.9
2025-08-13T12:00	3240	699	8.9	1.4	348	7	3.9
2025-08-13T12:00	3260	697	8.8	1.0	348	8	3.8
2025-08-13T12:00	3280	696	8.8	-1.1	347	8	3.9
2025-08-13T12:00	3300	694	8.8	-1.5	345	7	3.9
2025-08-13T12:00	3320	692	8.7	-1.0	343	7	4.0
2025-08-13T12:00	3340	691	8.7	-1.0	342	6	4.0
2025-08-13T12:00	3360	689	8.4	-0.8	343	6	4.1
2025-08-13T12:00	3380	687	8.3	-0.9	343	5	4.1
2025-08-13T12:00	3400	686	8.2	-0.7	343	4	4.0
2025-08-13T12:00	3420	684	8.1	-0.5	342	4	4.1
2025-08-13T12:00	3440	682	8.1	-0.8	340	4	4.2
2025-08-13T12:00	3460	681	8.0	-1.2	340	3	4.2
2025-08-13T12:00	3480	679	7.8	-1.2	343	3	4.2
2025-08-13T12:00	3500	678	7.5	-1.3	349	3	4.2
2025-08-13T12:00	3520	676	7.3	-1.5	353	3	4.2
2025-08-13T12:00	3540	674	7.2	-1.8	354	3	4.1
2025-08-13T12:00	3560	672	7.1	-1.8	352	3	4.1
2025-08-13T12:00	3580	671	6.9	-1.7	348	3	4.1
2025-08-13T12:00	3600	669	6.6	-1.6	344	3	4.0
2025-08-13T12:00	3620	668	6.4	-1.8	340	3	4.0
2025-08-13T12:00	3640	666	6.3	-1.9	334	3	4.0
2025-08-13T12:00	3660	664	6.1	-1.9	328	3	4.0
2025-08-13T12:00	3680	663	6.0	-1.9	319	2	4.0
2025-08-13T12:00	3700	661	5.7	-1.9	309	2	4.0
2025-08-13T12:00	3720	659	5.5	-2.0	299	1	4.0
2025-08-13T12:00	3740	658	5.4	-2.2	289	1	4.0
2025-08-13T12:00	3760	656	5.2	-2.3	279	1	4.0
2025-08-13T12:00	3780	655	5.0	-2.5	310	0	3.9
2025-08-13T12:00	3800	653	4.8	-2.6	59	1	3.9
2025-08-13T12:00	3820	651	4.7	-2.7	56	1	3.8
2025-08-13T12:00	3840	650	4.5	-2.8	50	2	3.7
2025-08-13T12:00	3860	648	4.2	-2.8	43	2	3.7
2025-08-13T12:00	3880	647	4.0	-2.9	36	2	3.7
2025-08-13T12:00	3900	645	3.9	-3.1	24	2	3.6
2025-08-13T12:00	3920	643	3.7	-3.1	3	1	3.6
2025-08-13T12:00	3940	642	3.5	-3.0	334	1	3.5
2025-08-13T12:00	3960	640	3.3	-2.9	302	1	3.5
2025-08-13T12:00	3980	639	3.2	-2.8	293	2	3.5
2025-08-13T12:00	4000	637	2.9	-2.6	299	2	3.6
2025-08-13T12:00	4020	636	2.6	-2.6	311	2	3.6
2025-08-13T12:00	4040	634	2.5	-2.8	325	2	3.6
2025-08-13T12:00	4060	633	2.4	-2.8	338	2	3.7
2025-08-13T12:00	4080	631	2.1	-2.8	353	2	3.7
2025-08-13T12:00	4100	629	1.9	-2.9	9	1	3.7
2025-08-13T12:00	4120	628	1.7	-3.0	29	1	3.7
2025-08-13T12:00	4140	626	1.6	-3.5	61	1	3.7
2025-08-13T12:00	4160	625	1.5	-4.0	96	1	3.6
2025-08-13T12:00	4180	623	1.4	-4.3	117	1	3.5
2025-08-13T12:00	4200	622	1.1	-4.3	114	0	3.5
2025-08-13T12:00	4220	620	0.9	-4.4	92	0	3.4
2025-08-13T12:00	4240	618	0.7	-4.8	76	1	3.3
2025-08-13T12:00	4260	617	0.5	-5.0	67	1	3.3
2025-08-13T12:00	4280	615	0.4	-5.2	63	1	3.2
2025-08-13T12:00	4300	614	0.2	-5.1	64	2	3.1
2025-08-13T12:00	4320	612	0.1	-5.2	63	2	3.1
2025-08-13T12:00	4340	611	0.0	-5.4	61	2	3.0
2025-08-13T12:00	4360	609	-0.2	-5.4	57	3	2.9
2025-08-13T12:00	4380	608	-0.4	-5.4	53	3	2.9
2025-08-13T12:00	4400	606	-0.7	-5.5	50	3	2.9
2025-08-13T12:00	4420	605	-0.8	-5.6	47	3	2.9
2025-08-13T12:00	4440	603	-1.0	-5.6	43	2	2.9
2025-08-13T12:00	4460	602	-1.1	-5.6	39	2	2.8
2025-08-13T12:00	4480	600	-1.4	-5.6	36	2	2.9
2025-08-13T12:00	4500	599	-1.6	-5.9	33	2	2.8
2025-08-13T12:00	4520	597	-1.7	-6.0	32	2	2.8
2025-08-13T12:00	4540	596	-1.8	-6.1	32	3	2.8
2025-08-13T12:00	4560	594	-2.0	-6.1	32	3	2.8
2025-08-13T12:00	4580	593	-2.3	-6.2	32	4	2.8
2025-08-13T12:00	4600	591	-2.5	-6.3	34	4	2.8
2025-08-13T12:00	4620	590	-2.6	-6.4	38	4	2.8
2025-08-13T12:00	4640	588	-2.8	-6.4	45	4	2.8
2025-08-13T12:00	4660	587	-3.0	-6.5	53	4	2.8
2025-08-13T12:00	4680	585	-3.1	-6.6	58	4	2.8
2025-08-13T12:00	4700	584	-3.3	-6.6	61	5	2.8
2025-08-13T12:00	4720	582	-3.5	-6.6	59	5	2.8
2025-08-13T12:00	4740	581	-3.7	-6.6	56	6	2.8
2025-08-13T12:00	4760	580	-3.9	-6.7	52	6	2.8
2025-08-13T12:00	4780	578	-4.1	-6.6	49	6	2.8
2025-08-13T12:00	4800	576	-4.4	-6.6	46	6	2.8
2025-08-13T12:00	4820	575	-4.6	-6.7	46	6	2.8
2025-08-13T12:00	4840	574	-4.8	-6.8	46	5	2.8
2025-08-13T12:00	4860	572	-4.9	-7.0	48	5	2.8
2025-08-13T12:00	4880	571	-5.0	-7.2	49	6	2.7
2025-08-13T12:00	4900	569	-5.2	-7.6	48	5	2.7
2025-08-13T12:00	4920	568	-5.3	-7.7	46	5	2.8
2025-08-13T12:00	4940	566	-5.6	-7.9	43	5	2.8
2025-08-13T12:00	4960	565	-5.8	-8.1	39	5	2.7
2025-08-13T12:00	4980	563	-5.9	-8.2	37	5	2.7
2025-08-13T12:00	5000	562	-6.0	-8.4	38	4	2.7
2025-08-13T12:00	5020	561	-6.3	-8.5	41	4	2.8
2025-08-13T12:00	5040	559	-6.6	-8.6	44	4	2.8
2025-08-13T12:00	5060	558	-6.7	-8.6	46	4	2.7
2025-08-13T12:00	5080	556	-6.9	-8.7	45	4	2.7
2025-08-13T12:00	5100	555	-7.0	-8.9	43	4	2.7
2025-08-13T12:00	5120	554	-7.2	-9.1	41	4	2.7
2025-08-13T12:00	5140	552	-7.3	-9.5	39	4	2.7
2025-08-13T12:00	5160	551	-7.5	-9.8	43	4	2.7
2025-08-13T12:00	5180	549	-7.7	-10.2	50	5	2.8
2025-08-13T12:00	5200	548	-7.8	-10.6	58	5	2.8
2025-08-13T12:00	5220	547	-8.0	-10.9	64	5	2.8
2025-08-13T12:00	5240	545	-8.1	-10.7	68	6	2.8
2025-08-13T12:00	5260	544	-8.2	-10.6	69	6	2.8
2025-08-13T12:00	5280	542	-8.4	-11.3	70	7	2.8
2025-08-13T12:00	5300	541	-8.5	-12.1	70	7	2.9
2025-08-13T12:00	5320	539	-8.7	-12.7	71	7	2.9
2025-08-13T12:00	5340	538	-8.8	-13.8	74	7	2.9
2025-08-13T12:00	5360	537	-8.8	-15.1	78	7	3.0
2025-08-13T12:00	5380	535	-8.9	-16.4	84	6	3.1
2025-08-13T12:00	5400	534	-8.8	-17.9	92	6	3.2
2025-08-13T12:00	5420	533	-8.8	-19.9	103	5	3.3
2025-08-13T12:00	5440	531	-8.7	-22.0	116	4	3.4
2025-08-13T12:00	5460	530	-8.7	-25.3	129	4	3.5
2025-08-13T12:00	5480	528	-8.6	-27.4	137	4	3.7
2025-08-13T12:00	5500	527	-8.8	-27.7	139	4	3.9
2025-08-13T12:00	5520	526	-9.1	-27.9	137	4	3.9
2025-08-13T12:00	5540	524	-9.1	-28.8	136	3	4.0
2025-08-13T12:00	5560	523	-9.2	-29.9	136	3	4.1
2025-08-13T12:00	5580	522	-9.3	-30.7	142	2	4.1
2025-08-13T12:00	5600	520	-9.4	-31.0	157	2	4.1
2025-08-13T12:00	5620	519	-9.4	-31.3	181	2	4.2
2025-08-13T12:00	5640	518	-9.5	-31.9	199	2	4.2
2025-08-13T12:00	5660	516	-9.7	-32.8	213	2	4.2
2025-08-13T12:00	5680	515	-9.6	-34.2	225	2	4.2
2025-08-13T12:00	5700	514	-9.7	-35.2	236	2	4.3
2025-08-13T12:00	5720	512	-9.6	-36.3	245	2	4.3
2025-08-13T12:00	5740	511	-9.6	-36.5	252	2	4.3
2025-08-13T12:00	5760	510	-9.6	-34.7	255	2	4.4
2025-08-13T12:00	5780	508	-9.8	-31.0	256	2	4.4
2025-08-13T12:00	5800	507	-9.9	-29.9	256	2	4.4
2025-08-13T12:00	5820	506	-9.9	-31.1	256	2	4.4
2025-08-13T12:00	5840	504	-10.1	-30.0	258	2	4.4
2025-08-13T12:00	5860	503	-10.1	-30.5	262	2	4.4
2025-08-13T12:00	5880	502	-10.3	-30.3	267	2	4.4
2025-08-13T12:00	5900	500	-10.5	-30.2	274	2	4.4
2025-08-13T12:00	5920	499	-10.4	-30.4	282	2	4.4
2025-08-13T12:00	5940	498	-10.5	-30.5	288	2	4.4
2025-08-13T12:00	5960	497	-10.7	-31.0	290	2	4.4
2025-08-13T12:00	5980	495	-10.8	-31.8	288	2	4.4
2025-08-13T12:00	6000	494	-10.8	-32.0	284	2	4.4
2025-08-13T12:00	6020	493	-11.1	-31.9	282	2	4.4
2025-08-13T12:00	6040	491	-11.2	-32.1	282	2	4.4
2025-08-13T12:00	6060	490	-11.3	-32.5	287	2	4.4
2025-08-13T12:00	6080	489	-11.4	-32.5	301	1	4.3
2025-08-13T12:00	6100	488	-11.5	-32.6	321	1	4.3
2025-08-13T12:00	6120	486	-11.6	-33.2	337	1	4.3
2025-08-13T12:00	6140	485	-11.7	-33.4	351	2	4.3
2025-08-13T12:00	6160	484	-11.7	-34.1	356	2	4.3
2025-08-13T12:00	6180	483	-11.7	-34.8	355	2	4.2
2025-08-13T12:00	6200	481	-11.6	-35.9	349	2	4.2
2025-08-13T12:00	6220	480	-11.5	-35.1	337	2	4.2
2025-08-13T12:00	6240	479	-11.6	-36.4	321	2	4.1
2025-08-13T12:00	6260	477	-11.6	-37.7	311	2	4.1
2025-08-13T12:00	6280	476	-11.8	-38.6	307	2	4.1
2025-08-13T12:00	6300	475	-11.9	-39.2	305	2	4.1
2025-08-13T12:00	6320	474	-12.0	-39.9	305	2	4.1
2025-08-13T12:00	6340	473	-12.2	-40.5	306	2	4.1
2025-08-13T12:00	6360	471	-12.2	-38.3	306	2	4.1
2025-08-13T12:00	6380	470	-12.4	-35.4	304	1	4.1
2025-08-13T12:00	6400	469	-12.5	-35.5	297	1	4.0
2025-08-13T12:00	6420	468	-12.5	-35.7	268	0	4.0
2025-08-13T12:00	6440	466	-12.8	-35.2	207	0	4.1
2025-08-13T12:00	6460	465	-12.9	-35.7	188	0	4.1
2025-08-13T12:00	6480	464	-13.0	-36.7	176	0	4.0
2025-08-13T12:00	6500	463	-13.1	-37.1	166	1	4.0
2025-08-13T12:00	6520	462	-13.3	-37.0	159	1	4.0
2025-08-13T12:00	6540	460	-13.3	-36.8	154	1	4.0
2025-08-13T12:00	6560	459	-13.4	-37.1	148	2	4.0
2025-08-13T12:00	6580	458	-13.5	-37.3	142	2	4.0
2025-08-13T12:00	6600	457	-13.6	-37.3	135	3	4.0
2025-08-13T12:00	6620	455	-13.8	-37.8	129	3	4.0
2025-08-13T12:00	6640	454	-14.0	-38.0	125	3	4.0
2025-08-13T12:00	6660	453	-14.2	-38.2	125	3	4.0
2025-08-13T12:00	6680	452	-14.3	-38.4	128	4	3.9
2025-08-13T12:00	6700	451	-14.4	-38.4	133	4	4.0
2025-08-13T12:00	6720	450	-14.6	-38.4	138	4	3.9
2025-08-13T12:00	6740	448	-14.8	-38.4	144	4	4.0
2025-08-13T12:00	6760	447	-15.0	-38.4	150	4	4.0
2025-08-13T12:00	6780	446	-15.1	-38.4	154	4	4.0
2025-08-13T12:00	6800	445	-15.3	-38.4	158	4	3.9
2025-08-13T12:00	6820	444	-15.4	-38.3	162	4	4.0
2025-08-13T12:00	6840	442	-15.7	-38.1	164	3	4.0
2025-08-13T12:00	6860	441	-15.8	-38.2	164	3	3.9
2025-08-13T12:00	6880	440	-16.0	-38.1	159	3	3.9
2025-08-13T12:00	6900	439	-16.3	-38.0	149	3	4.0
2025-08-13T12:00	6920	438	-16.4	-38.0	141	4	4.0
2025-08-13T12:00	6940	437	-16.6	-38.0	136	4	4.0
2025-08-13T12:00	6960	435	-16.8	-38.4	133	4	4.0
2025-08-13T12:00	6980	434	-16.9	-38.4	130	4	4.0
2025-08-13T12:00	7000	433	-17.0	-37.9	129	4	4.0
2025-08-13T12:00	7020	432	-17.2	-37.3	128	3	4.0
2025-08-13T12:00	7040	431	-17.4	-37.4	128	3	4.0
2025-08-13T12:00	7060	430	-17.5	-37.6	127	3	4.0
2025-08-13T12:00	7080	428	-17.6	-37.7	128	3	4.0
2025-08-13T12:00	7100	427	-17.7	-38.0	129	3	4.0
2025-08-13T12:00	7120	426	-17.8	-38.3	130	3	4.0
2025-08-13T12:00	7140	425	-18.0	-38.4	131	3	3.9
2025-08-13T12:00	7160	424	-18.2	-38.5	130	3	3.9
2025-08-13T12:00	7180	423	-18.3	-38.9	129	3	3.9
2025-08-13T12:00	7200	422	-18.2	-39.4	128	2	3.9
2025-08-13T12:00	7220	421	-18.3	-39.4	130	3	3.9
2025-08-13T12:00	7240	419	-18.5	-39.4	134	3	3.8
2025-08-13T12:00	7260	418	-18.5	-39.5	140	3	3.7
2025-08-13T12:00	7280	417	-18.7	-39.8	144	3	3.6
2025-08-13T12:00	7300	416	-18.8	-39.8	146	3	3.6
2025-08-13T12:00	7320	415	-18.8	-39.9	145	3	3.5
2025-08-13T12:00	7340	414	-19.1	-39.8	141	3	3.5
2025-08-13T12:00	7360	413	-19.3	-39.9	138	3	3.5
2025-08-13T12:00	7380	412	-19.4	-40.0	135	3	3.4
2025-08-13T12:00	7400	410	-19.5	-40.0	133	3	3.4
2025-08-13T12:00	7420	409	-19.8	-40.0	132	3	3.4
2025-08-13T12:00	7440	408	-19.9	-40.1	134	3	3.4
2025-08-13T12:00	7460	407	-20.1	-40.3	138	3	3.4
2025-08-13T12:00	7480	406	-20.2	-40.5	143	3	3.4
2025-08-13T12:00	7500	405	-20.4	-40.5	147	3	3.4
2025-08-13T12:00	7520	404	-20.7	-40.1	149	3	3.3
2025-08-13T12:00	7540	403	-20.8	-40.2	150	3	3.3
2025-08-13T12:00	7560	402	-21.0	-40.2	149	3	3.3
2025-08-13T12:00	7580	401	-21.2	-40.1	149	3	3.3
2025-08-13T12:00	7600	400	-21.4	-40.2	149	3	3.2
2025-08-13T12:00	7620	398	-21.5	-40.2	151	3	3.2
2025-08-13T12:00	7640	397	-21.7	-40.1	154	3	3.2
2025-08-13T12:00	7660	396	-22.0	-40.2	156	3	3.1
2025-08-13T12:00	7680	395	-22.2	-40.4	158	4	3.1
2025-08-13T12:00	7700	394	-22.2	-40.6	158	4	3.1
2025-08-13T12:00	7720	393	-22.3	-40.7	158	4	3.1
2025-08-13T12:00	7740	392	-22.6	-40.5	158	4	3.1
2025-08-13T12:00	7760	391	-22.8	-40.6	157	4	3.1
2025-08-13T12:00	7780	390	-22.9	-40.6	154	4	3.1
2025-08-13T12:00	7800	389	-23.1	-40.6	151	3	3.1
2025-08-13T12:00	7820	388	-23.4	-40.5	148	3	3.1
2025-08-13T12:00	7840	387	-23.5	-40.8	146	2	3.1
2025-08-13T12:00	7860	386	-23.7	-40.8	145	2	3.1
2025-08-13T12:00	7880	385	-23.9	-40.8	145	2	3.1
2025-08-13T12:00	7900	384	-24.1	-40.9	147	2	3.1
2025-08-13T12:00	7920	383	-24.3	-40.9	148	2	3.1
2025-08-13T12:00	7940	381	-24.5	-40.9	150	2	3.1
2025-08-13T12:00	7960	380	-24.7	-41.0	151	2	3.1
2025-08-13T12:00	7980	379	-24.8	-41.1	151	2	3.0
2025-08-13T12:00	8000	378	-25.0	-41.0	153	2	3.1
2025-08-13T12:00	8020	377	-25.2	-41.1	154	2	3.1
2025-08-13T12:00	8040	376	-25.4	-41.2	154	2	3.0
2025-08-13T12:00	8060	375	-25.6	-41.3	154	2	3.0
2025-08-13T12:00	8080	374	-25.8	-41.4	151	2	3.0
2025-08-13T12:00	8100	373	-26.0	-41.5	147	2	3.0
2025-08-13T12:00	8120	372	-26.2	-41.6	144	2	3.0
2025-08-13T12:00	8140	371	-26.3	-41.5	143	2	3.1
2025-08-13T12:00	8160	370	-26.6	-41.5	145	2	3.0
2025-08-13T12:00	8180	369	-26.7	-41.7	150	2	3.0
2025-08-13T12:00	8200	368	-26.9	-41.7	152	2	3.0
2025-08-13T12:00	8220	367	-27.1	-41.8	151	2	3.0
2025-08-13T12:00	8240	366	-27.3	-41.7	145	2	3.0
2025-08-13T12:00	8260	365	-27.5	-41.8	139	2	3.0
2025-08-13T12:00	8280	364	-27.7	-42.1	137	2	3.0
2025-08-13T12:00	8300	363	-27.7	-42.5	138	2	3.0
2025-08-13T12:00	8320	362	-27.9	-42.5	143	2	3.0
2025-08-13T12:00	8340	361	-28.1	-42.3	152	1	3.0
2025-08-13T12:00	8360	360	-28.3	-42.4	160	1	3.0
2025-08-13T12:00	8380	359	-28.4	-42.6	167	1	3.0
2025-08-13T12:00	8400	358	-28.5	-42.7	177	1	3.0
2025-08-13T12:00	8420	357	-28.7	-42.5	192	1	3.0
2025-08-13T12:00	8440	356	-28.9	-42.5	205	1	3.0
2025-08-13T12:00	8460	355	-29.1	-42.6	214	1	3.0
2025-08-13T12:00	8480	354	-29.4	-42.6	217	1	3.0
2025-08-13T12:00	8500	353	-29.6	-42.7	215	1	3.0
2025-08-13T12:00	8520	352	-29.7	-42.8	207	1	3.0
2025-08-13T12:00	8540	351	-29.9	-42.7	199	1	3.0
2025-08-13T12:00	8560	350	-30.1	-42.5	198	1	3.0
2025-08-13T12:00	8580	349	-30.2	-42.7	201	1	2.9
2025-08-13T12:00	8600	348	-30.4	-42.8	209	1	2.9
2025-08-13T12:00	8620	347	-30.6	-42.7	218	1	2.9
2025-08-13T12:00	8640	346	-30.9	-42.8	230	1	2.9
2025-08-13T12:00	8660	345	-31.0	-43.0	243	1	2.9
2025-08-13T12:00	8680	344	-31.3	-43.0	253	1	2.8
2025-08-13T12:00	8700	343	-31.4	-43.1	257	1	2.8
2025-08-13T12:00	8720	342	-31.6	-43.2	256	1	2.8
2025-08-13T12:00	8740	341	-31.8	-43.1	253	1	2.8
2025-08-13T12:00	8760	340	-31.9	-43.2	254	1	2.8
2025-08-13T12:00	8780	339	-32.1	-43.1	260	1	2.7
2025-08-13T12:00	8800	338	-32.4	-43.1	266	1	2.8
2025-08-13T12:00	8820	337	-32.5	-43.4	274	1	2.7
2025-08-13T12:00	8840	336	-32.7	-43.7	279	2	2.7
2025-08-13T12:00	8860	335	-32.7	-43.9	281	2	2.7
2025-08-13T12:00	8880	334	-33.0	-43.8	282	2	2.7
2025-08-13T12:00	8900	333	-33.3	-43.8	282	2	2.7
2025-08-13T12:00	8920	333	-33.4	-44.2	281	2	2.7
2025-08-13T12:00	8940	332	-33.6	-44.3	281	2	2.7
2025-08-13T12:00	8960	331	-33.7	-44.3	281	2	2.7
2025-08-13T12:00	8980	330	-34.0	-44.3	283	2	2.7
2025-08-13T12:00	9000	329	-34.1	-44.5	286	2	2.7
2025-08-13T12:00	9020	328	-34.3	-44.5	292	1	2.7
2025-08-13T12:00	9040	327	-34.5	-44.5	304	1	2.7
2025-08-13T12:00	9060	326	-34.7	-44.7	338	1	2.7
2025-08-13T12:00	9080	325	-34.9	-44.9	31	1	2.7
2025-08-13T12:00	9100	324	-35.0	-45.5	57	1	2.7
2025-08-13T12:00	9120	323	-35.2	-46.2	67	2	2.7
2025-08-13T12:00	9140	322	-35.2	-47.1	72	2	2.8
2025-08-13T12:00	9160	321	-35.4	-47.5	75	4	2.9
2025-08-13T12:00	9180	320	-35.5	-47.8	74	4	3.0
2025-08-13T12:00	9200	320	-35.5	-49.5	72	5	3.0
2025-08-13T12:00	9220	319	-35.3	-51.2	70	6	3.1
2025-08-13T12:00	9240	318	-35.3	-51.4	67	6	3.1
2025-08-13T12:00	9260	317	-35.5	-51.3	64	7	3.1
2025-08-13T12:00	9280	316	-35.5	-51.3	61	7	3.1
2025-08-13T12:00	9300	315	-35.5	-51.0	60	8	3.1
2025-08-13T12:00	9320	314	-35.5	-51.4	59	8	3.1
2025-08-13T12:00	9340	313	-35.6	-51.8	58	8	3.1
2025-08-13T12:00	9360	312	-35.6	-52.2	58	9	3.1
2025-08-13T12:00	9380	311	-35.7	-52.3	57	10	3.2
2025-08-13T12:00	9400	310	-35.9	-52.3	57	10	3.2
2025-08-13T12:00	9420	310	-35.9	-52.7	57	11	3.2
2025-08-13T12:00	9440	309	-35.9	-52.8	58	11	3.3
2025-08-13T12:00	9460	308	-36.1	-52.1	59	11	3.4
2025-08-13T12:00	9480	307	-36.2	-51.6	60	11	3.4
2025-08-13T12:00	9500	306	-36.3	-51.7	61	11	3.5
2025-08-13T12:00	9520	305	-36.4	-50.1	62	11	3.4
2025-08-13T12:00	9540	304	-36.5	-49.7	62	11	3.4
2025-08-13T12:00	9560	303	-36.7	-50.2	62	11	3.3
2025-08-13T12:00	9580	302	-36.9	-50.4	62	11	3.2
2025-08-13T12:00	9600	302	-37.0	-50.8	62	11	3.2
2025-08-13T12:00	9620	301	-37.2	-50.8	63	10	3.1
2025-08-13T12:00	9640	300	-37.5	-50.7	64	10	3.0
2025-08-13T12:00	9660	299	-37.6	-51.0	65	10	3.0
2025-08-13T12:00	9680	298	-37.8	-50.8	66	10	3.0
2025-08-13T12:00	9700	297	-37.9	-50.8	66	10	2.9
2025-08-13T12:00	9720	296	-38.0	-51.1	65	10	2.9
2025-08-13T12:00	9740	296	-38.1	-51.4	62	10	3.0
2025-08-13T12:00	9760	295	-38.3	-51.2	59	10	2.9
2025-08-13T12:00	9780	294	-38.5	-51.4	56	10	2.9
2025-08-13T12:00	9800	293	-38.7	-51.4	53	10	2.8
2025-08-13T12:00	9820	292	-38.9	-51.5	50	10	2.8
2025-08-13T12:00	9840	291	-39.1	-51.4	48	9	2.7
2025-08-13T12:00	9860	290	-39.3	-51.2	47	9	2.7
2025-08-13T12:00	9880	290	-39.4	-51.5	46	9	2.6
2025-08-13T12:00	9900	289	-39.6	-51.5	47	10	2.6
2025-08-13T12:00	9920	288	-39.8	-51.3	48	10	2.6
2025-08-13T12:00	9940	287	-40.0	-51.4	50	10	2.6
2025-08-13T12:00	9960	286	-40.3	-51.4	50	10	2.5
2025-08-13T12:00	9980	285	-40.4	-51.4	50	10	2.5
2025-08-13T12:00	10000	284	-40.7	-51.4	50	10	2.5
2025-08-13T12:00	10018	284	-40.8	-51.2	51	10	2.4
2025-08-13T12:00	10050	282	-41.0	-51.6	52	10	2.4
2025-08-13T12:00	10100	280	-41.6	-51.3	51	10	2.4
2025-08-13T12:00	10150	278	-42.1	-51.1	50	10	2.3
2025-08-13T12:00	10200	276	-42.6	-51.3	50	11	2.2
2025-08-13T12:00	10250	274	-42.9	-51.1	51	10	2.2
2025-08-13T12:00	10300	272	-43.4	-51.4	49	10	2.1
2025-08-13T12:00	10350	270	-43.8	-51.3	49	9	2.1
2025-08-13T12:00	10400	268	-44.3	-51.4	53	9	2.1
2025-08-13T12:00	10450	266	-44.7	-51.6	55	9	2.1
2025-08-13T12:00	10500	264	-45.2	-51.5	57	9	2.0
2025-08-13T12:00	10550	262	-45.5	-51.6	57	10	2.0
2025-08-13T12:00	10600	260	-46.0	-52.1	56	9	2.0
2025-08-13T12:00	10650	258	-46.3	-52.4	56	9	2.0
2025-08-13T12:00	10700	256	-46.7	-52.3	58	9	2.0
2025-08-13T12:00	10750	254	-47.2	-52.1	60	10	2.0
2025-08-13T12:00	10800	253	-46.9	-53.5	62	11	2.0
2025-08-13T12:00	10850	251	-46.4	-55.3	65	11	2.1
2025-08-13T12:00	10900	249	-46.5	-56.0	68	11	2.3
2025-08-13T12:00	10950	247	-46.9	-55.2	71	10	2.4
2025-08-13T12:00	11000	245	-47.3	-55.0	75	9	2.4
2025-08-13T12:00	11050	243	-47.2	-56.8	83	7	2.4
2025-08-13T12:00	11100	241	-47.2	-56.0	98	5	2.5
2025-08-13T12:00	11150	240	-47.3	-59.5	117	5	2.5
2025-08-13T12:00	11200	238	-47.5	-63.0	135	5	2.5
2025-08-13T12:00	11250	236	-47.8	-64.6	146	5	2.6
2025-08-13T12:00	11300	234	-47.5	-65.2	149	6	2.7
2025-08-13T12:00	11350	232	-47.2	-65.8	151	7	2.6
2025-08-13T12:00	11400	231	-47.4	-65.9	151	7	2.5
2025-08-13T12:00	11450	229	-47.6	-66.2	149	7	2.4
2025-08-13T12:00	11500	227	-47.7	-66.8	150	7	2.3
2025-08-13T12:00	11550	225	-47.4	-67.5	150	7	2.3
2025-08-13T12:00	11600	224	-47.5	-67.5	151	7	2.2
2025-08-13T12:00	11650	222	-47.8	-67.6	160	6	2.1
2025-08-13T12:00	11700	220	-48.1	-67.9	177	5	2.1
2025-08-13T12:00	11750	219	-48.3	-68.7	195	4	2.0
2025-08-13T12:00	11800	217	-47.9	-69.6	213	4	2.0
2025-08-13T12:00	11850	215	-47.8	-70.1	230	5	2.0
2025-08-13T12:00	11900	214	-48.0	-70.2	242	5	2.0
2025-08-13T12:00	11950	212	-48.4	-70.3	248	5	2.0
2025-08-13T12:00	12000	211	-48.8	-70.4	249	5	2.0
2025-08-13T12:00	12050	209	-49.1	-70.7	248	5	2.0
2025-08-13T12:00	12100	207	-49.3	-71.0	248	4	2.0
2025-08-13T12:00	12150	206	-49.4	-71.7	251	4	1.9
2025-08-13T12:00	12200	204	-49.4	-72.8	256	4	2.0
2025-08-13T12:00	12250	203	-49.6	-73.1	262	4	2.0
2025-08-13T12:00	12300	201	-49.9	-73.3	259	5	2.0
2025-08-13T12:00	12350	200	-50.1	-73.6	252	5	2.0
2025-08-13T12:00	12400	198	-50.4	-73.7	247	5	2.0
2025-08-13T12:00	12450	197	-50.9	-73.8	241	4	1.9
2025-08-13T12:00	12500	195	-51.4	-73.9	226	3	1.9
2025-08-13T12:00	12550	193	-51.7	-74.1	214	4	1.9
2025-08-13T12:00	12600	192	-52.1	-74.2	207	4	1.9
2025-08-13T12:00	12650	191	-52.5	-74.3	195	4	1.9
2025-08-13T12:00	12700	189	-52.8	-74.7	185	3	1.8
2025-08-13T12:00	12750	188	-53.0	-75.2	191	2	1.8
2025-08-13T12:00	12800	186	-53.0	-75.8	211	2	1.8
2025-08-13T12:00	12850	185	-53.1	-76.3	232	2	1.7
2025-08-13T12:00	12900	183	-53.5	-76.4	236	2	1.7
2025-08-13T12:00	12950	182	-53.7	-76.6	237	2	1.6
2025-08-13T12:00	13000	181	-54.1	-76.7	251	2	1.6
2025-08-13T12:00	13050	179	-54.5	-76.8	265	2	1.5
2025-08-13T12:00	13100	178	-54.7	-77.0	278	2	1.5
2025-08-13T12:00	13150	176	-54.8	-77.2	287	2	1.5
2025-08-13T12:00	13200	175	-55.2	-77.4	292	2	1.5
2025-08-13T12:00	13250	174	-55.6	-77.6	293	2	1.4
2025-08-13T12:00	13300	172	-55.9	-77.5	290	2	1.4
2025-08-13T12:00	13350	171	-56.1	-77.3	288	3	1.4
2025-08-13T12:00	13400	169	-56.1	-77.4	285	4	1.5
2025-08-13T12:00	13450	168	-55.8	-77.4	279	5	1.5
2025-08-13T12:00	13500	167	-55.5	-78.1	269	4	1.5
2025-08-13T12:00	13550	166	-54.9	-79.0	248	2	1.6
2025-08-13T12:00	13600	164	-54.1	-79.6	204	2	1.7
2025-08-13T12:00	13650	163	-53.6	-79.8	187	3	1.8
2025-08-13T12:00	13700	162	-53.8	-79.7	187	4	2.0
2025-08-13T12:00	13750	160	-54.3	-79.7	195	5	2.1
2025-08-13T12:00	13800	159	-54.6	-79.8	206	6	2.1
2025-08-13T12:00	13850	158	-55.0	-79.9	216	6	2.2
2025-08-13T12:00	13900	157	-55.1	-80.0	224	6	2.2
2025-08-13T12:00	13950	156	-55.3	-80.2	228	6	2.1
2025-08-13T12:00	14000	154	-55.4	-80.3	227	6	2.1
2025-08-13T12:00	14050	153	-55.5	-80.5	220	6	2.1
2025-08-13T12:00	14100	152	-55.5	-80.5	208	5	2.1
2025-08-13T12:00	14150	151	-55.6	-80.7	193	5	2.0
2025-08-13T12:00	14200	150	-55.5	-80.7	182	6	2.0
2025-08-13T12:00	14250	148	-55.8	-80.8	176	6	1.9
2025-08-13T12:00	14300	147	-56.2	-80.9	175	6	1.9
2025-08-13T12:00	14350	146	-56.3	-81.2	177	6	1.9
2025-08-13T12:00	14400	145	-56.4	-81.5	179	6	2.0
2025-08-13T12:00	14450	144	-56.7	-81.9	179	6	2.0
2025-08-13T12:00	14500	143	-56.8	-82.0	180	6	2.1
2025-08-13T12:00	14550	142	-57.0	-82.0	181	6	2.1
2025-08-13T12:00	14600	140	-57.2	-82.1	180	6	2.2
2025-08-13T12:00	14650	139	-57.4	-82.1	178	7	2.2
2025-08-13T12:00	14700	138	-57.9	-82.1	178	8	2.2
2025-08-13T12:00	14750	137	-58.2	-82.1	178	9	2.3
2025-08-13T12:00	14800	136	-58.2	-82.0	181	10	2.4
2025-08-13T12:00	14850	135	-58.3	-82.3	185	10	2.5
2025-08-13T12:00	14900	134	-57.8	-82.2	190	9	2.6
2025-08-13T12:00	14950	133	-57.8	-82.4	195	9	2.8
2025-08-13T12:00	15000	132	-57.3	-82.2	199	8	2.9
2025-08-13T12:00	15050	131	-57.3	-82.2	202	8	3.1
2025-08-13T12:00	15100	130	-57.7	-82.3	203	8	3.2
2025-08-13T12:00	15150	129	-57.9	-82.3	202	7	3.2
2025-08-13T12:00	15200	128	-58.1	-82.3	201	7	3.3
2025-08-13T12:00	15250	127	-58.6	-82.5	201	7	3.3
2025-08-13T12:00	15300	126	-59.0	-82.8	202	7	3.3
2025-08-13T12:00	15350	125	-58.9	-82.9	199	6	3.3
2025-08-13T12:00	15400	124	-58.2	-82.8	197	6	3.4
2025-08-13T12:00	15450	123	-58.5	-82.9	200	7	3.4
2025-08-13T12:00	15500	122	-58.7	-82.8	205	8	3.5
2025-08-13T12:00	15550	121	-58.7	-82.6	208	8	3.5
2025-08-13T12:00	15600	120	-58.8	-82.7	213	8	3.6
2025-08-13T12:00	15650	119	-59.1	-82.9	217	8	3.6
2025-08-13T12:00	15700	118	-59.0	-83.0	218	8	3.7
2025-08-13T12:00	15750	117	-58.5	-83.0	220	8	3.8
2025-08-13T12:00	15800	116	-58.4	-83.1	225	8	3.9
2025-08-13T12:00	15850	115	-58.7	-83.1	228	8	4.0
2025-08-13T12:00	15900	114	-59.0	-83.2	227	8	4.0
2025-08-13T12:00	15950	113	-58.8	-83.1	218	7	4.1
2025-08-13T12:00	16000	112	-58.9	-83.3	206	7	4.1
2025-08-13T12:00	16050	112	-58.9	-83.3	197	7	4.1
2025-08-13T12:00	16100	111	-59.1	-83.4	191	8	4.2
2025-08-13T12:00	16150	110	-59.4	-83.6	188	8	4.2
2025-08-13T12:00	16200	109	-59.4	-83.5	189	8	4.2
2025-08-13T12:00	16250	108	-59.6	-83.7	189	8	4.2
2025-08-13T12:00	16300	107	-59.9	-83.8	184	9	4.1
2025-08-13T12:00	16350	106	-59.7	-83.7	181	9	4.0
2025-08-13T12:00	16400	105	-59.9	-83.8	182	9	4.0
2025-08-13T12:00	16450	105	-60.0	-83.8	188	8	3.9
2025-08-13T12:00	16500	104	-60.0	-84.0	192	6	3.9
2025-08-13T12:00	16550	103	-59.5	-83.9	189	6	4.0
2025-08-13T12:00	16600	102	-59.3	-83.8	183	7	4.0
2025-08-13T12:00	16650	101	-59.7	-83.9	180	7	4.1
2025-08-13T12:00	16700	100	-60.1	-84.0	184	8	4.1
2025-08-13T12:00	16750	100	-60.1	-84.0	190	8	4.1
2025-08-13T12:00	16800	99	-60.2	-84.2	194	8	4.1
2025-08-13T12:00	16850	98	-60.4	-84.3	198	9	4.1
2025-08-13T12:00	16900	97	-60.4	-84.3	204	8	4.2
2025-08-13T12:00	16950	97	-60.6	-84.4	210	8	4.3
2025-08-13T12:00	17000	96	-60.7	-84.4	214	9	4.3
2025-08-13T12:00	17050	95	-60.7	-84.4	214	9	4.3
2025-08-13T12:00	17100	94	-60.6	-84.4	214	10	4.3
2025-08-13T12:00	17150	94	-60.7	-84.4	215	10	4.2
2025-08-13T12:00	17200	93	-60.9	-84.5	218	10	4.1
2025-08-13T12:00	17250	92	-61.0	-84.5	224	10	4.0
2025-08-13T12:00	17300	91	-61.1	-84.6	232	10	4.0
2025-08-13T12:00	17350	91	-61.3	-84.9	240	9	3.9
2025-08-13T12:00	17400	90	-60.3	-84.7	245	8	4.0
2025-08-13T12:00	17450	89	-60.1	-84.7	241	7	4.0
2025-08-13T12:00	17500	88	-60.4	-84.8	232	6	4.0
2025-08-13T12:00	17550	88	-60.6	-84.7	217	6	4.1
2025-08-13T12:00	17600	87	-60.9	-84.9	200	6	4.1
2025-08-13T12:00	17650	86	-61.0	-85.0	190	6	4.1
2025-08-13T12:00	17700	86	-60.6	-84.9	188	7	4.2
2025-08-13T12:00	17750	85	-60.3	-84.9	188	8	4.3
2025-08-13T12:00	17800	84	-60.1	-84.8	188	8	4.3
2025-08-13T12:00	17850	84	-60.4	-84.9	188	7	4.4
2025-08-13T12:00	17900	83	-60.8	-84.9	189	6	4.4
2025-08-13T12:00	17950	82	-61.1	-85.0	186	6	4.5
2025-08-13T12:00	18000	82	-61.2	-85.2	181	5	4.5
2025-08-13T12:00	18050	81	-61.1	-85.2	177	5	4.5
2025-08-13T12:00	18100	80	-61.3	-85.4	178	6	4.5
2025-08-13T12:00	18150	80	-61.4	-85.4	181	5	4.6
2025-08-13T12:00	18200	79	-61.6	-85.5	184	5	4.7
2025-08-13T12:00	18250	78	-61.6	-85.6	183	5	4.8
2025-08-13T12:00	18300	78	-61.7	-85.7	178	5	5.1
2025-08-13T12:00	18350	77	-62.0	-85.9	172	6	5.1
2025-08-13T12:00	18400	76	-62.1	-86.0	168	6	5.1
2025-08-13T12:00	18450	76	-62.0	-85.9	168	7	5.1
2025-08-13T12:00	18500	75	-62.0	-85.9	168	7	5.0
2025-08-13T12:00	18550	75	-62.1	-86.0	168	7	5.0
2025-08-13T12:00	18600	74	-62.1	-86.1	168	7	5.0
2025-08-13T12:00	18650	73	-61.9	-86.2	163	6	5.1
2025-08-13T12:00	18700	73	-61.6	-86.1	155	6	5.3
2025-08-13T12:00	18750	72	-61.4	-86.1	151	6	5.4
2025-08-13T12:00	18800	72	-61.4	-86.0	151	7	5.4
2025-08-13T12:00	18850	71	-61.5	-86.1	151	7	5.5
2025-08-13T12:00	18900	70	-61.4	-86.2	155	7	5.7
2025-08-13T12:00	18950	70	-61.3	-86.2	161	7	6.0
2025-08-13T12:00	19000	69	-61.0	-86.1	160	7	6.2
2025-08-13T12:00	19050	69	-61.0	-86.2	153	7	6.5
2025-08-13T12:00	19100	68	-60.9	-86.2	146	7	6.8
2025-08-13T12:00	19150	68	-60.8	-86.1	144	6	7.0
2025-08-13T12:00	19200	67	-60.8	-86.1	147	6	7.3
2025-08-13T12:00	19250	67	-60.9	-86.2	149	5	7.5
2025-08-13T12:00	19300	66	-60.4	-86.1	147	5	7.7
2025-08-13T12:00	19350	66	-60.4	-86.1	140	6	8.0
2025-08-13T12:00	19400	65	-60.2	-86.1	132	6	8.1
2025-08-13T12:00	19450	65	-60.2	-86.0	127	7	8.2
2025-08-13T12:00	19500	64	-60.3	-86.0	128	8	8.3
2025-08-13T12:00	19550	63	-60.2	-86.0	132	9	8.3
2025-08-13T12:00	19600	63	-60.1	-86.0	135	10	8.4
2025-08-13T12:00	19650	63	-60.1	-86.0	140	10	8.5
2025-08-13T12:00	19700	62	-60.2	-86.0	146	10	8.5
2025-08-13T12:00	19750	62	-60.3	-86.2	148	10	8.6
2025-08-13T12:00	19800	61	-59.8	-86.0	146	9	8.6
2025-08-13T12:00	19850	61	-59.5	-86.0	143	9	8.6
2025-08-13T12:00	19900	60	-59.2	-85.9	144	8	8.7
2025-08-13T12:00	19950	60	-59.2	-85.8	148	7	8.7
2025-08-13T12:00	20000	59	-58.9	-85.8	149	7	8.8
2025-08-13T12:00	20050	59	-58.8		146	7	8.8
2025-08-13T12:00	20100	58	-58.9		145	8	8.9
2025-08-13T12:00	20150	58	-58.9		142	8	9.0
2025-08-13T12:00	20200	57	-58.7		141	9	9.0
2025-08-13T12:00	20250	57	-58.7		144	10	9.0
2025-08-13T12:00	20300	56	-58.4		150	10	9.1
2025-08-13T12:00	20350	56	-58.3		157	9	9.2
2025-08-13T12:00	20400	55	-58.3		163	8	9.2
2025-08-13T12:00	20450	55	-57.9		164	7	9.3
2025-08-13T12:00	20500	55	-57.9		159	5	9.3
2025-08-13T12:00	20550	54	-58.0		144	4	9.2
2025-08-13T12:00	20600	54	-57.9		124	5	9.2
2025-08-13T12:00	20650	53	-57.6		112	5	9.3
2025-08-13T12:00	20700	53	-57.2		109	6	9.4
2025-08-13T12:00	20750	52	-57.2		114	6	9.6
2025-08-13T12:00	20800	52	-57.2		122	6	9.7
2025-08-13T12:00	20850	52	-57.2		130	5	9.8
2025-08-13T12:00	20900	51	-57.1		139	5	9.9
2025-08-13T12:00	20950	51	-56.9		147	6	10.0
2025-08-13T12:00	21000	50	-57.0		155	6	10.1
2025-08-13T12:00	21050	50	-57.2		160	7	10.2
2025-08-13T12:00	21100	50	-57.5		164	7	10.3
2025-08-13T12:00	21150	49	-57.6		169	6	10.4
2025-08-13T12:00	21200	49	-57.4		169	5	10.4
2025-08-13T12:00	21250	48	-56.5		164	5	10.5
2025-08-13T12:00	21300	48	-56.0		160	5	10.6
2025-08-13T12:00	21350	48	-55.7		158	5	10.7
2025-08-13T12:00	21400	47	-55.6		155	4	10.9
2025-08-13T12:00	21450	47	-55.4		155	4	11.0
2025-08-13T12:00	21500	47	-55.4		161	3	11.1
2025-08-13T12:00	21550	46	-55.8		150	2	11.1
2025-08-13T12:00	21600	46	-55.7		118	2	11.1
2025-08-13T12:00	21650	46	-55.6		103	4	11.2
2025-08-13T12:00	21700	45	-55.4		103	5	11.2
2025-08-13T12:00	21750	45	-55.4		106	6	11.3
2025-08-13T12:00	21800	44	-55.4		110	6	11.3
2025-08-13T12:00	21850	44	-55.5		112	7	11.3
2025-08-13T12:00	21900	44	-55.4		110	8	11.3
2025-08-13T12:00	21950	43	-55.2		106	9	11.3
2025-08-13T12:00	22000	43	-55.4		103	10	11.4
2025-08-13T12:00	22050	43	-55.4		107	10	11.4
2025-08-13T12:00	22100	42	-54.7		115	10	11.5
2025-08-13T12:00	22150	42	-54.7		122	9	11.6
2025-08-13T12:00	22200	42	-54.9		130	8	11.6
2025-08-13T12:00	22250	41	-54.9		139	7	11.6
2025-08-13T12:00	22300	41	-54.6		144	6	11.6
2025-08-13T12:00	22350	41	-54.4		140	5	11.6
2025-08-13T12:00	22400	40	-54.2		126	4	11.7
2025-08-13T12:00	22450	40	-54.1		112	5	11.7
2025-08-13T12:00	22500	40	-53.9		110	6	11.7
2025-08-13T12:00	22550	40	-54.1		113	8	11.7
2025-08-13T12:00	22600	39	-54.4		116	9	11.6
2025-08-13T12:00	22650	39	-54.7		120	9	11.6
2025-08-13T12:00	22700	39	-54.9		126	9	11.5
2025-08-13T12:00	22750	38	-54.6		131	8	11.5
2025-08-13T12:00	22800	38	-54.7		135	8	11.4
2025-08-13T12:00	22850	38	-54.8		136	7	11.3
2025-08-13T12:00	22900	37	-54.4		137	7	11.2
2025-08-13T12:00	22950	37	-53.9		140	6	11.2
2025-08-13T12:00	23000	37	-54.1		147	4	11.3
2025-08-13T12:00	23050	37	-54.3		155	3	11.3
2025-08-13T12:00	23100	36	-54.3		150	3	11.4
2025-08-13T12:00	23150	36	-54.0		136	4	11.3
2025-08-13T12:00	23200	36	-54.0		130	5	11.5
2025-08-13T12:00	23250	35	-54.1		129	5	11.7
2025-08-13T12:00	23300	35	-53.9		124	3	11.8
2025-08-13T12:00	23350	35	-53.8		108	2	12.0
2025-08-13T12:00	23400	35	-54.0		67	2	12.0
2025-08-13T12:00	23450	34	-54.2		43	2	12.2
2025-08-13T12:00	23500	34	-54.0		41	3	12.2
2025-08-13T12:00	23550	34	-53.9		47	3	12.3
2025-08-13T12:00	23600	34	-53.8		52	4	12.3
2025-08-13T12:00	23650	33	-53.8		54	4	12.3
2025-08-13T12:00	23700	33	-53.7		58	5	12.2
2025-08-13T12:00	23750	33	-53.8		67	5	12.0
2025-08-13T12:00	23800	33	-53.6		81	5	11.8
2025-08-13T12:00	23850	32	-53.4		97	5	11.6
2025-08-13T12:00	23900	32	-53.5		108	6	11.4
2025-08-13T12:00	23950	32	-53.6		109	6	11.3
2025-08-13T12:00	24000	32	-53.4		100	6	11.1
2025-08-13T12:00	24050	31	-53.2		88	7	11.0
2025-08-13T12:00	24100	31	-53.1		80	7	10.9
2025-08-13T12:00	24150	31	-52.9		76	8	10.9
2025-08-13T12:00	24200	31	-52.6		77	8	11.0
2025-08-13T12:00	24250	30	-52.3		84	9	11.0
2025-08-13T12:00	24300	30	-52.0		94	9	11.2
2025-08-13T12:00	24350	30	-52.0		103	10	11.3
2025-08-13T12:00	24400	30	-52.0		113	10	11.4
2025-08-13T12:00	24450	29	-51.8		125	10	11.6
2025-08-13T12:00	24500	29	-51.9		135	10	11.7
2025-08-13T12:00	24550	29	-51.7		138	10	11.9
2025-08-13T12:00	24600	29	-51.6		136	9	11.9
2025-08-13T12:00	24650	29	-51.5		134	8	12.0
2025-08-13T12:00	24700	28	-51.3		131	8	12.1
2025-08-13T12:00	24750	28	-51.2		125	8	12.1
2025-08-13T12:00	24800	28	-50.8		120	8	12.1
2025-08-13T12:00	24850	28	-50.5		120	8	12.1
2025-08-13T12:00	24900	27	-50.5		124	8	12.1
2025-08-13T12:00	24950	27	-50.6		128	7	12.1
2025-08-13T12:00	25000	27	-50.9		128	7	12.2
2025-08-13T12:00	25050	27	-50.8		120	6	12.2
2025-08-13T12:00	25100	27	-50.6		110	6	12.3
2025-08-13T12:00	25150	26	-50.3		102	7	12.4
2025-08-13T12:00	25200	26	-50.2		98	8	12.5
2025-08-13T12:00	25250	26	-50.4		93	9	12.5
2025-08-13T12:00	25300	26	-50.6		89	9	12.5
2025-08-13T12:00	25350	26	-50.6		89	10	12.4
2025-08-13T12:00	25400	25	-50.5		92	10	12.3
2025-08-13T12:00	25450	25	-50.5		99	11	12.2
2025-08-13T12:00	25500	25	-50.5		108	12	12.1
2025-08-13T12:00	25550	25	-50.5		116	12	12.0
2025-08-13T12:00	25600	25	-50.4		119	12	12.0
2025-08-13T12:00	25650	24	-50.1		120	11	11.9
2025-08-13T12:00	25700	24	-49.8		118	11	12.0
2025-08-13T12:00	25750	24	-49.4		116	10	12.1
2025-08-13T12:00	25800	24	-49.2		118	9	12.2
2025-08-13T12:00	25850	24	-49.0		122	9	12.3
2025-08-13T12:00	25900	24	-49.1		123	8	12.4
2025-08-13T12:00	25950	23	-49.1		117	7	12.4
2025-08-13T12:00	26000	23	-48.8		108	7	12.4
2025-08-13T12:00	26050	23	-48.4		104	7	12.4
2025-08-13T12:00	26100	23	-48.3		106	7	12.5
2025-08-13T12:00	26150	23	-48.4		112	7	12.6
2025-08-13T12:00	26200	22	-48.6		120	7	12.6
2025-08-13T12:00	26250	22	-48.8		126	7	12.6
2025-08-13T12:00	26300	22	-49.0		130	6	12.7
2025-08-13T12:00	26350	22	-49.2		130	6	12.7
2025-08-13T12:00	26400	22	-49.2		131	5	12.7
2025-08-13T12:00	26450	22	-49.2		134	5	12.7
2025-08-13T12:00	26500	21	-49.3		134	5	12.7
2025-08-13T12:00	26550	21	-49.4		123	4	12.6
2025-08-13T12:00	26600	21	-49.3		106	4	12.6
2025-08-13T12:00	26650	21	-49.3		96	5	12.5
2025-08-13T12:00	26700	21	-49.1		96	5	12.5
2025-08-13T12:00	26750	21	-48.7		105	6	12.5
2025-08-13T12:00	26800	21	-48.5		114	6	12.4
2025-08-13T12:00	26850	20	-48.3		122	5	12.5
2025-08-13T12:00	26900	20	-47.9		128	5	12.4
2025-08-13T12:00	26950	20	-47.6		131	4	12.4
2025-08-13T12:00	27000	20	-47.5		132	3	12.4
2025-08-13T12:00	27050	20	-47.5		130	2	12.3
2025-08-13T12:00	27100	20	-47.7		109	1	12.3
2025-08-13T12:00	27150	19	-47.9		72	2	12.3
2025-08-13T12:00	27200	19	-47.9		53	3	12.2
2025-08-13T12:00	27250	19	-47.8		47	4	12.1
2025-08-13T12:00	27300	19	-47.8		47	4	12.1
2025-08-13T12:00	27350	19	-47.8		50	4	12.1
2025-08-13T12:00	27400	19	-47.7		53	5	12.0
2025-08-13T12:00	27450	19	-47.4		57	6	12.0
2025-08-13T12:00	27500	18	-47.3		64	7	12.0
2025-08-13T12:00	27550	18	-47.2		71	8	12.0
2025-08-13T12:00	27600	18	-47.1		78	9	12.0
2025-08-13T12:00	27650	18	-47.1		84	9	12.0
2025-08-13T12:00	27700	18	-47.2		88	8	11.9
2025-08-13T12:00	27750	18	-47.3		92	8	11.9
2025-08-13T12:00	27800	18	-47.4		96	8	11.8
2025-08-13T12:00	27850	18	-47.2		100	9	11.8
2025-08-13T12:00	27900	17	-46.9		103	10	11.7
2025-08-13T12:00	27950	17	-46.4		107	10	11.7
2025-08-13T12:00	28000	17	-46.0		111	10	11.7
2025-08-13T12:00	28050	17	-45.8		116	9	11.6
2025-08-13T12:00	28100	17	-45.9		121	9	11.6
2025-08-13T12:00	28150	17	-46.1		126	8	11.5
2025-08-13T12:00	28200	17	-46.4		129	7	11.4
2025-08-13T12:00	28250	16	-46.6		129	6	11.3
2025-08-13T12:00	28300	16	-46.7		124	6	11.3
2025-08-13T12:00	28350	16	-46.5		116	6	11.2
2025-08-13T12:00	28400	16	-46.4		108	7	11.2
2025-08-13T12:00	28450	16	-46.1		104	7	11.2
2025-08-13T12:00	28500	16	-45.9		104	6	11.1
2025-08-13T12:00	28550	16	-45.9		104	5	11.1
2025-08-13T12:00	28600	16	-45.9		100	5	11.1
2025-08-13T12:00	28650	16	-45.7		90	6	11.1
2025-08-13T12:00	28700	15	-45.5		81	7	11.0
2025-08-13T12:00	28750	15	-45.4		78	8	11.0
2025-08-13T12:00	28800	15	-45.4		79	9	11.0
2025-08-13T12:00	28850	15	-45.4		83	10	10.9
2025-08-13T12:00	28900	15	-45.5		87	10	10.8
2025-08-13T12:00	28950	15	-45.4		92	11	10.8
2025-08-13T12:00	29000	15	-45.3		95	11	10.7
2025-08-13T12:00	29050	15	-45.1		93	10	10.6
2025-08-13T12:00	29100	15	-45.0		88	9	10.5
2025-08-13T12:00	29150	14	-45.0		80	9	10.5
2025-08-13T12:00	29200	14	-45.1		73	9	10.4
2025-08-13T12:00	29250	14	-45.1		69	10	10.4
2025-08-13T12:00	29300	14	-44.9		71	11	10.3
2025-08-13T12:00	29350	14	-44.8		76	12	10.2
2025-08-13T12:00	29400	14	-44.6		84	13	10.1
2025-08-13T12:00	29450	14	-44.2		91	13	10.1
2025-08-13T12:00	29500	14	-43.9		96	12	10.1
2025-08-13T12:00	29550	14	-43.7		98	11	9.9
2025-08-13T12:00	29600	13	-43.7		95	11	9.9
2025-08-13T12:00	29650	13	-43.8		90	11	9.9
2025-08-13T12:00	29700	13	-43.7		86	12	9.8
2025-08-13T12:00	29750	13	-43.2		86	13	9.7
2025-08-13T12:00	29800	13	-42.9		89	13	9.6
2025-08-13T12:00	29850	13	-42.8		92	13	9.6
2025-08-13T12:00	29900	13	-43.0		96	13	9.5
2025-08-13T12:00	29950	13	-43.1		99	13	9.5
2025-08-13T12:00	30000	13	-43.1		100	13	9.4
2025-08-13T12:00	30050	13	-43.1		100	13	9.4
2025-08-13T12:00	30100	13	-43.3		100	13	9.3
2025-08-13T12:00	30150	12	-43.5		100	13	9.2
2025-08-13T12:00	30200	12	-43.6		101	13	9.2
2025-08-13T12:00	30250	12	-43.8		103	12	9.2
2025-08-13T12:00	30300	12	-43.9		106	12	9.1
2025-08-13T12:00	30350	12	-43.8		113	11	9.0
2025-08-13T12:00	30400	12	-43.5		121	11	9.0
2025-08-13T12:00	30450	12	-43.3		127	11	8.9
2025-08-13T12:00	30500	12	-43.1		129	10	8.9
2025-08-13T12:00	30550	12	-43.0		125	9	8.8
2025-08-13T12:00	30600	12	-42.9		119	9	8.7
2025-08-13T12:00	30650	12	-42.7		116	9	8.7
2025-08-13T12:00	30700	11	-42.3		117	8	8.6
2025-08-13T12:00	30750	11	-42.0		121	8	8.5
2025-08-13T12:00	30800	11	-41.9		124	8	8.4
2025-08-13T12:00	30850	11	-41.9		123	8	8.4
2025-08-13T12:00	30900	11	-41.8		119	7	8.3
2025-08-13T12:00	30950	11	-41.7		115	7	8.3
2025-08-13T12:00	31000	11	-41.7		115	7	8.2
2025-08-13T12:00	31050	11	-41.8		116	6	8.2
2025-08-13T12:00	31100	11	-42.1		114	5	8.1
2025-08-13T12:00	31150	11	-42.2		106	5	8.1
2025-08-13T12:00	31200	11	-42.1		99	5	8.1
2025-08-13T12:00	31250	11	-42.1		97	5	8.0
2025-08-13T12:00	31300	10	-42.1		100	5	8.0
2025-08-13T12:00	31350	10	-42.1		106	5	7.9
2025-08-13T12:00	31400	10	-42.1		110	5	7.9
2025-08-13T12:00	31450	10	-42.2		107	5	7.9
2025-08-13T12:00	31500	10	-42.2		94	5	7.8
2025-08-13T12:00	31550	10	-42.0		84	6	7.7
2025-08-13T12:00	31600	10	-41.6		82	7	7.7
2025-08-13T12:00	31650	10	-41.3		85	8	7.6
2025-08-13T12:00	31700	10	-40.8		91	9	7.5
2025-08-13T12:00	31750	10	-40.5		95	8	7.5
2025-08-13T12:00	31800	10	-40.3		95	7	7.4
2025-08-13T12:00	31850	10	-39.9		92	7	7.4
2025-08-13T12:00	31900	10	-39.5		90	7	7.3
2025-08-13T12:00	31950	10	-39.2		91	8	7.3
2025-08-13T12:00	32000	9	-38.7		90	8	7.2
2025-08-13T12:00	32050	9	-38.2		88	9	7.2
2025-08-13T12:00	32100	9	-37.8		85	10	7.0
2025-08-13T12:00	32150	9	-37.6		86	11	7.0
2025-08-13T12:00	32200	9	-37.5		90	11	6.9
2025-08-13T12:00	32250	9	-37.5		92	11	6.9
2025-08-13T12:00	32300	9	-37.4		93	11	6.8
2025-08-13T12:00	32350	9	-37.4		93	11	6.8
2025-08-13T12:00	32400	9	-37.5		92	10	6.7
2025-08-13T12:00	32450	9	-37.5		92	11	6.7
2025-08-13T12:00	32500	9	-37.4		91	11	6.7
2025-08-13T12:00	32550	9	-37.4		91	12	6.6
2025-08-13T12:00	32600	9	-37.3		92	11	6.6
2025-08-13T12:00	32650	9	-37.2		95	11	6.5
2025-08-13T12:00	32700	9	-37.2		95	10	6.5
2025-08-13T12:00	32750	8	-37.3		93	10	6.4
2025-08-13T12:00	32800	8	-37.3		89	11	6.4
2025-08-13T12:00	32850	8	-37.3		87	11	6.3
2025-08-13T12:00	32900	8	-37.2		87	13	6.3
2025-08-13T12:00	32950	8	-37.1		88	13	6.2
2025-08-13T12:00	33000	8	-37.1		89	14	6.2
2025-08-13T12:00	33050	8	-37.1		92	15	6.1
2025-08-13T12:00	33100	8	-37.1		94	15	6.0
2025-08-13T12:00	33150	8	-37.1		94	15	6.0
2025-08-13T12:00	33200	8	-37.1		95	13	5.9
2025-08-13T12:00	33250	8	-37.2		98	12	5.8
2025-08-13T12:00	33300	8	-37.1		103	11	5.8
2025-08-13T12:00	33350	8	-37.1		104	10	5.8
2025-08-13T12:00	33400	8	-36.9		104	10	5.7
2025-08-13T12:00	33450	8	-36.6		104	10	5.7
2025-08-13T12:00	33500	8	-36.1		100	9	5.6
2025-08-13T12:00	33550	8	-35.7		94	9	5.6
2025-08-13T12:00	33600	7	-35.4		90	8	5.6
2025-08-13T12:00	33650	7	-35.2		92	9	5.5
2025-08-14T00:00	491	962	26.9	14.3	220	6	
2025-08-14T00:00	501	960	26.7	13.5	214	6	
2025-08-14T00:00	520	959	26.8	13.4	213	7	
2025-08-14T00:00	540	957	26.7	13.3	215	8	
2025-08-14T00:00	560	955	26.5	13.3	216	9	
2025-08-14T00:00	580	952	26.3	13.2	217	10	
2025-08-14T00:00	600	950	26.1	13.2	218	11	
2025-08-14T00:00	620	948	25.9	13.2	219	11	
2025-08-14T00:00	640	946	25.7	13.1	220	12	
2025-08-14T00:00	660	944	25.5	13.1	220	12	
2025-08-14T00:00	680	942	25.3	13.1	221	12	
2025-08-14T00:00	700	939	25.1	13.1	221	13	
2025-08-14T00:00	720	937	24.9	13.1	221	13	
2025-08-14T00:00	740	935	24.8	13.0	221	14	
2025-08-14T00:00	760	933	24.6	13.0	221	14	
2025-08-14T00:00	780	931	24.4	13.1	221	15	
2025-08-14T00:00	800	929	24.2	13.1	221	15	
2025-08-14T00:00	820	927	24.1	13.0	222	16	
2025-08-14T00:00	840	925	23.9	13.0	222	16	
2025-08-14T00:00	860	922	23.7	12.9	223	17	
2025-08-14T00:00	880	920	23.6	12.9	224	17	
2025-08-14T00:00	900	918	23.4	12.9	224	17	
2025-08-14T00:00	920	916	23.3	12.9	225	16	
2025-08-14T00:00	940	914	23.2	12.8	226	16	
2025-08-14T00:00	960	912	23.0	12.7	227	16	
2025-08-14T00:00	980	910	22.8	12.7	228	16	
2025-08-14T00:00	1000	908	22.6	12.7	229	16	
2025-08-14T00:00	1020	906	22.5	12.5	231	16	
2025-08-14T00:00	1040	904	22.4	12.5	233	16	
2025-08-14T00:00	1060	901	22.2	12.5	235	16	
2025-08-14T00:00	1080	899	22.2	12.2	239	16	
2025-08-14T00:00	1100	897	22.3	11.9	242	15	
2025-08-14T00:00	1120	895	22.1	11.9	245	15	
2025-08-14T00:00	1140	893	22.0	11.8	248	15	
2025-08-14T00:00	1160	891	22.0	11.7	252	14	
2025-08-14T00:00	1180	889	22.0	11.5	254	14	
2025-08-14T00:00	1200	887	22.0	11.1	256	14	
2025-08-14T00:00	1220	885	22.3	10.6	258	14	
2025-08-14T00:00	1240	883	22.3	10.5	258	14	
2025-08-14T00:00	1260	881	22.3	10.3	259	14	
2025-08-14T00:00	1280	879	22.3	10.0	259	14	
2025-08-14T00:00	1300	877	22.2	9.9	260	14	
2025-08-14T00:00	1320	875	22.0	9.8	260	14	
2025-08-14T00:00	1340	873	21.9	9.7	260	14	
2025-08-14T00:00	1360	871	21.7	9.6	261	14	
2025-08-14T00:00	1380	869	21.6	9.5	261	14	
2025-08-14T00:00	1400	867	21.5	9.5	261	14	
2025-08-14T00:00	1420	865	21.4	9.4	260	14	
2025-08-14T00:00	1440	863	21.3	9.4	260	14	
2025-08-14T00:00	1460	861	21.1	9.3	258	13	
2025-08-14T00:00	1480	859	20.9	9.3	256	13	
2025-08-14T00:00	1500	857	20.8	9.4	255	13	
2025-08-14T00:00	1520	855	20.6	9.3	254	13	
2025-08-14T00:00	1540	853	20.5	9.2	252	13	
2025-08-14T00:00	1560	851	20.3	9.2	250	13	
2025-08-14T00:00	1580	849	20.3	9.3	248	13	
2025-08-14T00:00	1600	847	20.4	9.2	246	13	
2025-08-14T00:00	1620	845	20.2	9.3	245	12	
2025-08-14T00:00	1640	843	19.9	9.2	243	12	
2025-08-14T00:00	1660	841	20.0	9.1	242	12	
2025-08-14T00:00	1680	839	20.1	8.8	241	11	
2025-08-14T00:00	1700	837	19.9	8.7	240	11	
2025-08-14T00:00	1720	835	19.7	8.7	241	10	
2025-08-14T00:00	1740	834	19.5	8.9	243	10	
2025-08-14T00:00	1760	832	19.3	8.8	244	10	
2025-08-14T00:00	1780	829	19.1	8.6	245	9	
2025-08-14T00:00	1800	828	18.9	8.6	246	9	
2025-08-14T00:00	1820	826	18.8	8.6	246	9	
2025-08-14T00:00	1840	824	18.6	8.6	247	9	
2025-08-14T00:00	1860	822	18.4	8.6	247	9	
2025-08-14T00:00	1880	820	18.2	8.5	248	9	
2025-08-14T00:00	1900	818	18.0	8.5	249	10	
2025-08-14T00:00	1920	816	17.8	8.5	250	10	
2025-08-14T00:00	1940	814	17.6	8.4	249	10	
2025-08-14T00:00	1960	812	17.4	8.4	248	10	
2025-08-14T00:00	1980	810	17.3	8.4	247	10	
2025-08-14T00:00	2000	808	17.1	8.4	245	10	
2025-08-14T00:00	2020	807	16.8	8.2	244	10	
2025-08-14T00:00	2040	805	16.6	8.3	244	10	
2025-08-14T00:00	2060	803	16.4	8.3	244	9	
2025-08-14T00:00	2080	801	16.3	8.2	244	9	
2025-08-14T00:00	2100	799	16.1	8.2	245	9	
2025-08-14T00:00	2120	797	15.9	8.2	246	8	
2025-08-14T00:00	2140	795	15.8	8.2	246	8	
2025-08-14T00:00	2160	794	15.6	8.0	246	8	
2025-08-14T00:00	2180	792	15.4	7.9	245	7	
2025-08-14T00:00	2200	790	15.3	7.8	243	6	
2025-08-14T00:00	2220	788	15.5	7.7	239	6	
2025-08-14T00:00	2240	786	15.1	7.9	235	5	
2025-08-14T00:00	2260	784	15.0	7.8	230	5	
2025-08-14T00:00	2280	782	14.8	7.5	224	4	
2025-08-14T00:00	2300	781	14.7	7.4	219	4	
2025-08-14T00:00	2320	779	14.5	7.5	215	4	
2025-08-14T00:00	2340	777	14.4	7.5	213	4	
2025-08-14T00:00	2360	775	14.5	7.3	216	4	
2025-08-14T00:00	2380	773	14.3	7.2	222	4	
2025-08-14T00:00	2400	772	14.2	7.3	229	3	
2025-08-14T00:00	2420	770	14.0	7.2	239	3	
2025-08-14T00:00	2440	768	13.8	7.2	250	3	
2025-08-14T00:00	2460	766	13.7	7.1	261	3	
2025-08-14T00:00	2480	764	13.5	7.0	272	2	
2025-08-14T00:00	2500	762	13.4	6.9	285	2	
2025-08-14T00:00	2520	760	13.3	6.9	296	1	
2025-08-14T00:00	2540	759	13.1	6.8	304	0	
2025-08-14T00:00	2560	757	13.0	6.7	131	1	
2025-08-14T00:00	2580	755	13.1	6.5	137	1	
2025-08-14T00:00	2600	753	13.0	6.3	144	2	
2025-08-14T00:00	2620	751	13.0	6.1	150	3	
2025-08-14T00:00	2640	749	12.9	5.9	155	3	
2025-08-14T00:00	2660	748	12.9	5.7	160	3	
2025-08-14T00:00	2680	746	12.8	5.6	163	4	
2025-08-14T00:00	2700	744	12.7	5.4	166	4	
2025-08-14T00:00	2720	742	12.5	5.3	166	4	
2025-08-14T00:00	2740	741	12.3	5.4	165	4	
2025-08-14T00:00	2760	739	12.3	5.1	162	5	
2025-08-14T00:00	2780	737	12.2	5.0	160	5	
2025-08-14T00:00	2800	735	12.0	4.8	157	5	
2025-08-14T00:00	2820	734	11.9	4.9	156	6	
2025-08-14T00:00	2840	732	11.7	4.9	156	6	
2025-08-14T00:00	2860	730	11.6	4.8	156	6	
2025-08-14T00:00	2880	728	11.4	4.7	156	7	
2025-08-14T00:00	2900	727	11.3	4.6	155	7	
2025-08-14T00:00	2920	725	11.2	4.4	154	7	
2025-08-14T00:00	2940	724	11.1	4.1	152	7	
2025-08-14T00:00	2960	722	11.0	3.9	151	7	
2025-08-14T00:00	2980	720	10.9	3.8	150	6	
2025-08-14T00:00	3000	718	10.7	3.7	149	6	
2025-08-14T00:00	3020	717	10.6	3.7	147	6	
2025-08-14T00:00	3040	715	10.4	3.4	144	5	
2025-08-14T00:00	3060	713	10.4	3.0	142	5	
2025-08-14T00:00	3080	711	10.3	2.3	139	5	
2025-08-14T00:00	3100	710	10.3	1.1	137	5	
2025-08-14T00:00	3120	708	10.2	-0.2	136	5	
2025-08-14T00:00	3140	706	10.1	-0.2	134	6	
2025-08-14T00:00	3160	705	9.9	-0.3	133	6	
2025-08-14T00:00	3180	703	9.7	-0.3	132	6	
2025-08-14T00:00	3200	701	9.5	-0.3	131	6	
2025-08-14T00:00	3220	700	9.3	-0.4	130	6	
2025-08-14T00:00	3240	698	9.1	-0.4	128	6	
2025-08-14T00:00	3260	696	8.9	-0.2	126	6	
2025-08-14T00:00	3280	695	8.7	-0.2	125	6	
2025-08-14T00:00	3300	693	8.5	-0.3	124	6	
2025-08-14T00:00	3320	691	8.3	-0.5	124	6	
2025-08-14T00:00	3340	689	8.2	-1.2	122	6	
2025-08-14T00:00	3360	688	8.1	-1.7	120	6	
2025-08-14T00:00	3380	686	8.0	-1.7	117	6	
2025-08-14T00:00	3400	684	7.7	-1.4	113	6	
2025-08-14T00:00	3420	683	7.5	-1.6	107	6	
2025-08-14T00:00	3440	681	7.4	-1.9	102	7	
2025-08-14T00:00	3460	679	7.2	-1.8	98	7	
2025-08-14T00:00	3480	678	7.0	-1.9	95	7	
2025-08-14T00:00	3500	676	6.7	-1.6	94	7	
2025-08-14T00:00	3520	675	6.5	-1.7	93	6	
2025-08-14T00:00	3540	673	6.4	-1.7	92	6	
2025-08-14T00:00	3560	671	6.3	-2.6	91	6	
2025-08-14T00:00	3580	670	6.3	-3.2	90	5	
2025-08-14T00:00	3600	668	6.2	-3.2	88	5	
2025-08-14T00:00	3620	666	6.0	-3.4	86	5	
2025-08-14T00:00	3640	665	5.8	-3.6	85	5	
2025-08-14T00:00	3660	663	5.7	-3.5	85	5	
2025-08-14T00:00	3680	661	5.4	-3.5	87	6	
2025-08-14T00:00	3700	660	5.3	-3.4	89	6	
2025-08-14T00:00	3720	658	5.1	-3.4	91	7	
2025-08-14T00:00	3740	657	4.9	-3.5	93	7	
2025-08-14T00:00	3760	655	4.7	-3.6	95	7	
2025-08-14T00:00	3780	653	4.5	-3.6	97	7	
2025-08-14T00:00	3800	652	4.3	-3.6	99	7	
2025-08-14T00:00	3820	650	4.1	-3.6	100	7	
2025-08-14T00:00	3840	648	3.9	-3.8	102	7	
2025-08-14T00:00	3860	647	3.8	-4.0	103	6	
2025-08-14T00:00	3880	645	3.7	-4.1	104	6	
2025-08-14T00:00	3900	644	3.6	-4.5	105	6	
2025-08-14T00:00	3920	642	3.4	-4.5	106	6	
2025-08-14T00:00	3940	641	3.3	-4.4	107	6	
2025-08-14T00:00	3960	639	3.1	-4.2	107	6	
2025-08-14T00:00	3980	637	2.9	-4.1	106	6	
2025-08-14T00:00	4000	636	2.7	-4.1	105	6	
2025-08-14T00:00	4020	634	2.5	-4.3	103	6	
2025-08-14T00:00	4040	633	2.3	-4.1	100	5	
2025-08-14T00:00	4060	631	2.1	-4.1	96	5	
2025-08-14T00:00	4080	630	1.9	-3.8	93	5	
2025-08-14T00:00	4100	628	1.7	-3.9	89	5	
2025-08-14T00:00	4120	627	1.5	-3.8	86	5	
2025-08-14T00:00	4140	625	1.3	-3.8	86	5	
2025-08-14T00:00	4160	623	1.1	-3.7	89	5	
2025-08-14T00:00	4180	622	0.9	-3.6	91	5	
2025-08-14T00:00	4200	620	0.7	-3.6	93	5	
2025-08-14T00:00	4220	619	0.5	-3.7	94	5	
2025-08-14T00:00	4240	617	0.3	-3.7	94	5	
2025-08-14T00:00	4260	616	0.2	-3.6	93	5	
2025-08-14T00:00	4280	614	0.0	-3.6	91	5	
2025-08-14T00:00	4300	613	-0.2	-3.6	88	5	
2025-08-14T00:00	4320	611	-0.4	-3.5	86	5	
2025-08-14T00:00	4340	610	-0.6	-3.2	83	4	
2025-08-14T00:00	4360	608	-0.8	-3.0	82	4	
2025-08-14T00:00	4380	607	-1.0	-2.4	80	4	
2025-08-14T00:00	4400	605	-1.1	-2.2	79	4	
2025-08-14T00:00	4420	603	-1.3	-2.4	78	4	
2025-08-14T00:00	4440	602	-1.5	-2.5	77	4	
2025-08-14T00:00	4460	600	-1.7	-2.5	73	3	
2025-08-14T00:00	4480	599	-1.9	-2.7	68	3	
2025-08-14T00:00	4500	597	-2.0	-3.0	63	3	
2025-08-14T00:00	4520	596	-2.2	-2.8	57	3	
2025-08-14T00:00	4540	595	-2.4	-3.0	51	4	
2025-08-14T00:00	4560	593	-2.6	-3.3	48	4	
2025-08-14T00:00	4580	592	-2.7	-3.3	48	4	
2025-08-14T00:00	4600	590	-2.9	-3.4	48	5	
2025-08-14T00:00	4620	589	-3.1	-3.5	49	5	
2025-08-14T00:00	4640	587	-3.3	-3.6	50	5	
2025-08-14T00:00	4660	586	-3.4	-3.8	50	5	
2025-08-14T00:00	4680	584	-3.5	-4.4	48	5	
2025-08-14T00:00	4700	583	-3.6	-4.6	46	4	
2025-08-14T00:00	4720	581	-3.8	-4.8	43	4	
2025-08-14T00:00	4740	580	-4.0	-5.1	42	4	
2025-08-14T00:00	4760	578	-4.1	-5.6	39	4	
2025-08-14T00:00	4780	577	-4.3	-5.6	37	4	
2025-08-14T00:00	4800	575	-4.4	-5.7	36	4	
2025-08-14T00:00	4820	574	-4.6	-6.2	36	4	
2025-08-14T00:00	4840	572	-4.7	-6.6	39	4	
2025-08-14T00:00	4860	571	-4.9	-6.8	43	4	
2025-08-14T00:00	4880	570	-5.0	-7.6	47	5	
2025-08-14T00:00	4900	568	-5.2	-7.6	50	5	
2025-08-14T00:00	4920	567	-5.4	-7.6	52	5	
2025-08-14T00:00	4940	565	-5.6	-7.6	53	6	
2025-08-14T00:00	4960	564	-5.7	-7.0	53	6	
2025-08-14T00:00	4980	562	-5.8	-7.1	53	6	
2025-08-14T00:00	5000	561	-6.1	-7.1	52	5	
2025-08-14T00:00	5020	559	-6.3	-7.3	52	5	
2025-08-14T00:00	5040	558	-6.4	-7.4	52	5	
2025-08-14T00:00	5060	557	-6.6	-7.3	52	5	
2025-08-14T00:00	5080	555	-6.8	-7.3	52	5	
2025-08-14T00:00	5100	554	-7.0	-7.4	52	5	
2025-08-14T00:00	5120	552	-7.2	-7.4	53	5	
2025-08-14T00:00	5140	551	-7.4	-7.4	53	5	
2025-08-14T00:00	5160	550	-7.6	-7.6	54	5	
2025-08-14T00:00	5180	548	-7.7	-7.8	55	5	
2025-08-14T00:00	5200	547	-7.9	-8.2	58	5	
2025-08-14T00:00	5220	545	-8.1	-8.4	61	5	
2025-08-14T00:00	5240	544	-8.2	-8.4	64	5	
2025-08-14T00:00	5260	543	-8.3	-8.4	68	5	
2025-08-14T00:00	5280	541	-8.5	-8.5	71	5	
2025-08-14T00:00	5300	540	-8.5	-8.6	74	5	
2025-08-14T00:00	5320	538	-8.7	-8.7	78	5	
2025-08-14T00:00	5340	537	-8.9	-8.9	81	5	
2025-08-14T00:00	5360	535	-9.0	-9.0	84	5	
2025-08-14T00:00	5380	534	-9.1	-9.2	87	5	
2025-08-14T00:00	5400	533	-9.3	-9.3	91	4	
2025-08-14T00:00	5420	531	-9.4	-9.4	96	4	
2025-08-14T00:00	5440	530	-9.6	-9.6	104	4	
2025-08-14T00:00	5460	529	-9.6	-9.6	113	3	
2025-08-14T00:00	5480	527	-9.8	-9.8	121	3	
2025-08-14T00:00	5500	526	-9.9	-9.9	127	4	
2025-08-14T00:00	5520	525	-10.0	-10.0	130	4	
2025-08-14T00:00	5540	523	-10.0	-10.1	131	4	
2025-08-14T00:00	5560	522	-10.2	-10.3	132	5	
2025-08-14T00:00	5580	521	-10.4	-10.4	132	6	
2025-08-14T00:00	5600	519	-10.6	-10.6	132	7	
2025-08-14T00:00	5620	518	-10.9	-10.9	132	8	
2025-08-14T00:00	5640	517	-11.2	-11.3	131	8	
2025-08-14T00:00	5660	515	-11.4	-13.0	130	9	
2025-08-14T00:00	5680	514	-11.6	-12.0	129	9	
2025-08-14T00:00	5700	512	-11.7	-13.3	129	10	
2025-08-14T00:00	5720	511	-11.9	-15.7	128	10	
2025-08-14T00:00	5740	510	-12.2	-13.4	129	10	
2025-08-14T00:00	5760	508	-12.1	-12.1	130	10	
2025-08-14T00:00	5780	507	-12.5	-12.6	130	10	
2025-08-14T00:00	5800	506	-12.7	-14.6	131	10	
2025-08-14T00:00	5820	505	-12.8	-14.8	131	10	
2025-08-14T00:00	5840	503	-13.0	-14.7	131	10	
2025-08-14T00:00	5860	502	-13.1	-14.7	130	10	
2025-08-14T00:00	5880	500	-13.1	-14.5	129	11	
2025-08-14T00:00	5900	499	-13.2	-14.4	129	11	
2025-08-14T00:00	5920	498	-13.3	-14.3	129	11	
2025-08-14T00:00	5940	497	-13.4	-14.2	130	11	
2025-08-14T00:00	5960	495	-13.3	-13.6	132	11	
2025-08-14T00:00	5980	494	-13.3	-13.4	134	11	
2025-08-14T00:00	6000	493	-13.2	-13.3	136	11	
2025-08-14T00:00	6020	492	-13.3	-13.4	138	11	
2025-08-14T00:00	6040	490	-13.3	-13.5	139	11	
2025-08-14T00:00	6060	489	-13.4	-13.5	140	11	
2025-08-14T00:00	6080	488	-13.5	-13.8	140	11	
2025-08-14T00:00	6100	486	-13.7	-15.3	140	11	
2025-08-14T00:00	6120	485	-14.0	-16.8	139	10	
2025-08-14T00:00	6140	484	-14.3	-19.9	138	10	
2025-08-14T00:00	6160	482	-14.5	-21.7	138	10	
2025-08-14T00:00	6180	481	-14.7	-20.9	137	10	
2025-08-14T00:00	6200	480	-15.0	-22.4	136	10	
2025-08-14T00:00	6220	479	-15.3	-25.4	135	10	
2025-08-14T00:00	6240	477	-15.5	-25.2	133	11	
2025-08-14T00:00	6260	476	-15.8	-25.7	131	11	
2025-08-14T00:00	6280	475	-16.0	-30.3	129	11	
2025-08-14T00:00	6300	474	-16.3	-32.2	128	12	
2025-08-14T00:00	6320	472	-16.5	-32.6	126	12	
2025-08-14T00:00	6340	471	-16.6	-34.4	125	12	
2025-08-14T00:00	6360	470	-16.4	-35.8	124	12	
2025-08-14T00:00	6380	469	-16.1	-34.7	123	12	
2025-08-14T00:00	6400	467	-16.0	-34.5	123	12	
2025-08-14T00:00	6420	466	-15.8	-34.8	123	13	
2025-08-14T00:00	6440	465	-15.3	-32.5	122	13	
2025-08-14T00:00	6460	464	-14.9	-30.3	121	13	
2025-08-14T00:00	6480	462	-14.8	-30.1	120	13	
2025-08-14T00:00	6500	461	-14.6	-30.9	120	12	
2025-08-14T00:00	6520	460	-14.4	-33.3	119	12	
2025-08-14T00:00	6540	459	-14.3	-35.2	118	12	
2025-08-14T00:00	6560	458	-14.3	-35.6	118	12	
2025-08-14T00:00	6580	456	-14.4	-35.7	117	12	
2025-08-14T00:00	6600	455	-14.5	-35.4	116	12	
2025-08-14T00:00	6620	454	-14.5	-35.5	116	12	
2025-08-14T00:00	6640	453	-14.5	-35.9	116	12	
2025-08-14T00:00	6660	452	-14.7	-36.0	116	12	
2025-08-14T00:00	6680	450	-14.9	-36.0	117	12	
2025-08-14T00:00	6700	449	-15.0	-36.4	117	13	
2025-08-14T00:00	6720	448	-15.1	-36.3	118	13	
2025-08-14T00:00	6740	447	-15.2	-35.7	119	13	
2025-08-14T00:00	6760	446	-15.4	-35.7	120	13	
2025-08-14T00:00	6780	445	-15.5	-36.0	121	13	
2025-08-14T00:00	6800	443	-15.6	-35.8	123	13	
2025-08-14T00:00	6820	442	-15.7	-35.7	124	13	
2025-08-14T00:00	6840	441	-15.8	-35.7	125	13	
2025-08-14T00:00	6860	440	-16.0	-35.8	125	13	
2025-08-14T00:00	6880	439	-16.1	-36.0	125	13	
2025-08-14T00:00	6900	437	-16.3	-36.2	125	12	
2025-08-14T00:00	6920	436	-16.4	-36.2	125	12	
2025-08-14T00:00	6940	435	-16.6	-36.4	124	12	
2025-08-14T00:00	6960	434	-16.8	-36.5	124	12	
2025-08-14T00:00	6980	433	-16.9	-36.9	123	12	
2025-08-14T00:00	7000	432	-17.1	-36.6	123	12	
2025-08-14T00:00	7020	430	-17.2	-36.8	122	12	
2025-08-14T00:00	7040	429	-17.3	-37.1	122	12	
2025-08-14T00:00	7060	428	-17.4	-37.4	121	12	
2025-08-14T00:00	7080	427	-17.5	-38.2	121	11	
2025-08-14T00:00	7100	426	-17.6	-38.6	120	11	
2025-08-14T00:00	7120	425	-17.8	-38.7	120	11	
2025-08-14T00:00	7140	424	-17.8	-38.8	120	11	
2025-08-14T00:00	7160	423	-18.0	-38.6	120	11	
2025-08-14T00:00	7180	421	-18.1	-38.2	119	11	
2025-08-14T00:00	7200	420	-18.3	-38.4	118	10	
2025-08-14T00:00	7220	419	-18.4	-38.8	117	10	
2025-08-14T00:00	7240	418	-18.5	-38.9	116	10	
2025-08-14T00:00	7260	417	-18.7	-38.8	115	10	
2025-08-14T00:00	7280	416	-18.9	-38.8	113	10	
2025-08-14T00:00	7300	415	-19.0	-39.1	112	10	
2025-08-14T00:00	7320	413	-19.2	-39.5	111	10	
2025-08-14T00:00	7340	412	-19.4	-39.8	111	10	
2025-08-14T00:00	7360	411	-19.6	-39.9	112	10	
2025-08-14T00:00	7380	410	-19.8	-40.0	112	10	
2025-08-14T00:00	7400	409	-19.9	-40.2	113	10	
2025-08-14T00:00	7420	408	-20.1	-40.1	114	10	
2025-08-14T00:00	7440	407	-20.3	-40.1	114	10	
2025-08-14T00:00	7460	406	-20.5	-40.1	114	10	
2025-08-14T00:00	7480	405	-20.7	-40.1	114	10	
2025-08-14T00:00	7500	404	-20.8	-40.1	113	10	
2025-08-14T00:00	7520	403	-21.0	-40.1	113	10	
2025-08-14T00:00	7540	401	-21.2	-40.2	113	10	
2025-08-14T00:00	7560	400	-21.4	-40.2	113	10	
2025-08-14T00:00	7580	399	-21.5	-40.3	113	10	
2025-08-14T00:00	7600	398	-21.7	-40.3	113	10	
2025-08-14T00:00	7620	397	-21.9	-40.2	113	10	
2025-08-14T00:00	7640	396	-22.1	-40.0	113	10	
2025-08-14T00:00	7660	395	-22.3	-39.8	113	10	
2025-08-14T00:00	7680	394	-22.5	-40.0	113	10	
2025-08-14T00:00	7700	393	-22.6	-40.3	113	10	
2025-08-14T00:00	7720	392	-22.8	-40.3	113	10	
2025-08-14T00:00	7740	391	-23.0	-40.4	112	10	
2025-08-14T00:00	7760	390	-23.2	-40.4	112	10	
2025-08-14T00:00	7780	389	-23.3	-40.6	111	10	
2025-08-14T00:00	7800	387	-23.5	-40.9	110	9	
2025-08-14T00:00	7820	386	-23.7	-41.2	109	9	
2025-08-14T00:00	7840	385	-23.9	-41.2	108	9	
2025-08-14T00:00	7860	384	-24.1	-41.4	108	9	
2025-08-14T00:00	7880	383	-24.3	-41.5	108	9	
2025-08-14T00:00	7900	382	-24.5	-41.5	107	9	
2025-08-14T00:00	7920	381	-24.6	-41.5	107	9	
2025-08-14T00:00	7940	380	-24.8	-41.7	107	9	
2025-08-14T00:00	7960	379	-25.0	-42.0	105	8	
2025-08-14T00:00	7980	378	-25.2	-42.7	104	8	
2025-08-14T00:00	8000	377	-25.1	-44.3	102	7	
2025-08-14T00:00	8020	376	-25.0	-45.5	100	7	
2025-08-14T00:00	8040	375	-25.1	-45.7	98	7	
2025-08-14T00:00	8060	374	-25.2	-46.3	96	6	
2025-08-14T00:00	8080	373	-25.4	-46.6	94	6	
2025-08-14T00:00	8100	372	-25.4	-47.2	94	5	
2025-08-14T00:00	8120	371	-25.4	-47.5	94	4	
2025-08-14T00:00	8140	370	-25.4	-48.1	96	4	
2025-08-14T00:00	8160	369	-25.5	-48.5	100	4	
2025-08-14T00:00	8180	368	-25.6	-48.8	104	3	
2025-08-14T00:00	8200	367	-25.7	-49.1	108	3	
2025-08-14T00:00	8220	366	-25.8	-49.4	113	3	
2025-08-14T00:00	8240	365	-25.9	-49.7	118	3	
2025-08-14T00:00	8260	364	-26.0	-49.7	123	3	
2025-08-14T00:00	8280	363	-26.2	-49.7	126	3	
2025-08-14T00:00	8300	362	-26.4	-49.8	128	3	
2025-08-14T00:00	8320	361	-26.5	-50.0	128	3	
2025-08-14T00:00	8340	360	-26.7	-50.1	127	3	
2025-08-14T00:00	8360	359	-26.9	-50.0	126	3	
2025-08-14T00:00	8380	358	-27.1	-50.1	125	2	
2025-08-14T00:00	8400	357	-27.3	-50.1	125	2	
2025-08-14T00:00	8420	356	-27.5	-50.3	126	2	
2025-08-14T00:00	8440	355	-27.6	-50.3	129	2	
2025-08-14T00:00	8460	354	-27.8	-50.3	134	2	
2025-08-14T00:00	8480	353	-28.0	-50.4	141	2	
2025-08-14T00:00	8500	352	-28.1	-50.5	145	2	
2025-08-14T00:00	8520	351	-28.2	-50.8	147	2	
2025-08-14T00:00	8540	350	-28.3	-50.9	150	2	
2025-08-14T00:00	8560	349	-28.5	-51.0	151	2	
2025-08-14T00:00	8580	348	-28.7	-51.0	152	3	
2025-08-14T00:00	8600	347	-28.9	-51.0	153	3	
2025-08-14T00:00	8620	346	-29.1	-51.1	154	3	
2025-08-14T00:00	8640	345	-29.2	-51.2	156	3	
2025-08-14T00:00	8660	344	-29.4	-51.6	158	3	
2025-08-14T00:00	8680	343	-29.5	-51.8	161	3	
2025-08-14T00:00	8700	342	-29.7	-51.9	164	3	
2025-08-14T00:00	8720	341	-29.8	-52.0	166	3	
2025-08-14T00:00	8740	340	-30.0	-52.1	169	3	
2025-08-14T00:00	8760	339	-30.2	-52.1	172	3	
2025-08-14T00:00	8780	338	-30.3	-52.0	175	3	
2025-08-14T00:00	8800	337	-30.3	-51.4	178	3	
2025-08-14T00:00	8820	336	-30.3	-51.2	181	3	
2025-08-14T00:00	8840	335	-30.5	-51.4	186	2	
2025-08-14T00:00	8860	334	-30.7	-51.4	191	2	
2025-08-14T00:00	8880	334	-30.9	-51.4	202	2	
2025-08-14T00:00	8900	332	-31.2	-51.3	220	1	
2025-08-14T00:00	8920	332	-31.3	-51.3	236	1	
2025-08-14T00:00	8940	331	-31.5	-51.3	248	1	
2025-08-14T00:00	8960	330	-31.8	-51.7	257	1	
2025-08-14T00:00	8980	329	-32.0	-52.0	265	1	
2025-08-14T00:00	9000	328	-32.2	-51.7	269	2	
2025-08-14T00:00	9020	327	-32.3	-51.2	272	2	
2025-08-14T00:00	9040	326	-32.5	-51.0	274	2	
2025-08-14T00:00	9060	325	-32.6	-51.2	276	2	
2025-08-14T00:00	9080	324	-32.8	-51.3	278	2	
2025-08-14T00:00	9100	323	-33.0	-50.3	281	2	
2025-08-14T00:00	9120	322	-33.2	-49.2	285	2	
2025-08-14T00:00	9140	321	-33.4	-50.0	288	2	
2025-08-14T00:00	9160	320	-33.7	-51.2	292	2	
2025-08-14T00:00	9180	320	-33.8	-50.1	295	2	
2025-08-14T00:00	9200	319	-33.9	-49.9	298	2	
2025-08-14T00:00	9220	318	-34.2	-50.3	299	2	
2025-08-14T00:00	9240	317	-34.3	-48.7	298	2	
2025-08-14T00:00	9260	316	-34.5	-48.7	296	3	
2025-08-14T00:00	9280	315	-34.7	-48.3	292	3	
2025-08-14T00:00	9300	314	-34.8	-47.0	288	3	
2025-08-14T00:00	9320	313	-35.0	-46.5	284	4	
2025-08-14T00:00	9340	312	-35.2	-46.4	282	5	
2025-08-14T00:00	9360	312	-35.3	-46.4	282	5	
2025-08-14T00:00	9380	311	-35.6	-45.9	281	6	
2025-08-14T00:00	9400	310	-35.8	-45.5	282	7	
2025-08-14T00:00	9420	309	-36.0	-45.5	284	7	
2025-08-14T00:00	9440	308	-36.2	-45.3	287	7	
2025-08-14T00:00	9460	307	-36.4	-44.9	290	7	
2025-08-14T00:00	9480	306	-36.5	-44.8	292	7	
2025-08-14T00:00	9500	305	-36.7	-45.1	294	6	
2025-08-14T00:00	9520	304	-36.8	-45.3	296	6	
2025-08-14T00:00	9540	304	-37.0	-45.3	296	6	
2025-08-14T00:00	9560	303	-37.2	-45.4	296	6	
2025-08-14T00:00	9580	302	-37.4	-45.3	296	6	
2025-08-14T00:00	9600	301	-37.5	-45.7	296	6	
2025-08-14T00:00	9620	300	-37.7	-45.5	297	6	
2025-08-14T00:00	9640	299	-37.9	-45.6	300	6	
2025-08-14T00:00	9660	298	-38.0	-45.7	302	6	
2025-08-14T00:00	9680	297	-38.2	-45.8	308	6	
2025-08-14T00:00	9700	297	-38.4	-45.8	311	6	
2025-08-14T00:00	9720	296	-38.5	-46.0	315	6	
2025-08-14T00:00	9740	295	-38.7	-46.2	317	6	
2025-08-14T00:00	9760	294	-38.8	-46.1	318	6	
2025-08-14T00:00	9780	293	-39.0	-46.2	320	6	
2025-08-14T00:00	9800	292	-39.1	-46.1	321	6	
2025-08-14T00:00	9820	291	-39.2	-46.0	321	6	
2025-08-14T00:00	9840	291	-39.5	-46.1	322	6	
2025-08-14T00:00	9860	290	-39.6	-46.1	323	6	
2025-08-14T00:00	9880	289	-39.8	-46.4	325	6	
2025-08-14T00:00	9900	288	-39.9	-46.6	326	6	
2025-08-14T00:00	9920	287	-40.1	-46.7	327	6	
2025-08-14T00:00	9940	286	-40.3	-46.6	327	6	
2025-08-14T00:00	9960	286	-40.5	-46.6	328	6	
2025-08-14T00:00	9980	285	-40.7	-46.5	328	6	
2025-08-14T00:00	10000	284	-40.8	-46.4	327	6	
2025-08-14T00:00	10018	283	-41.0	-46.4	327	5	
2025-08-14T00:00	10050	282	-41.3	-46.8	325	5	
2025-08-14T00:00	10100	280	-41.7	-47.1	322	5	
2025-08-14T00:00	10150	278	-42.1	-47.4	317	5	
2025-08-14T00:00	10200	276	-42.5	-47.3	308	5	
2025-08-14T00:00	10250	274	-42.9	-46.7	296	6	
2025-08-14T00:00	10300	272	-43.2	-50.7	286	6	
2025-08-14T00:00	10350	269	-43.1	-60.9	280	7	
2025-08-14T00:00	10400	267	-43.4	-58.8	278	7	
2025-08-14T00:00	10450	265	-43.7	-57.6	281	8	
2025-08-14T00:00	10500	264	-43.8	-57.4	283	9	
2025-08-14T00:00	10550	262	-44.0	-57.5	282	8	
2025-08-14T00:00	10600	260	-44.5	-57.5	281	8	
2025-08-14T00:00	10650	258	-44.9	-56.9	284	8	
2025-08-14T00:00	10700	256	-45.4	-55.5	292	8	
2025-08-14T00:00	10750	254	-45.9	-56.0	300	7	
2025-08-14T00:00	10800	252	-46.4	-55.7	305	6	
2025-08-14T00:00	10850	250	-46.9	-55.8	306	5	
2025-08-14T00:00	10900	248	-47.3	-55.8	309	5	
2025-08-14T00:00	10950	246	-47.8	-55.6	317	5	
2025-08-14T00:00	11000	244	-48.3	-55.9	324	5	
2025-08-14T00:00	11050	243	-48.7	-55.7	326	5	
2025-08-14T00:00	11100	241	-49.2	-55.5	325	5	
2025-08-14T00:00	11150	239	-49.7	-55.8	324	5	
2025-08-14T00:00	11200	237	-50.1	-56.5	322	5	
2025-08-14T00:00	11250	235	-50.6	-56.8	322	5	
2025-08-14T00:00	11300	234	-51.0	-57.0	325	5	
2025-08-14T00:00	11350	232	-51.5	-57.3	324	4	
2025-08-14T00:00	11400	230	-51.8	-57.5	321	4	
2025-08-14T00:00	11450	228	-52.2	-57.6	315	3	
2025-08-14T00:00	11500	226	-52.6	-57.8	313	3	
2025-08-14T00:00	11550	225	-52.8	-58.4	321	2	
2025-08-14T00:00	11600	223	-52.8	-60.0	312	1	
2025-08-14T00:00	11650	221	-52.2	-62.7	300	2	
2025-08-14T00:00	11700	220	-52.2	-64.0	294	3	
2025-08-14T00:00	11750	218	-52.6	-63.9	288	3	
2025-08-14T00:00	11800	216	-52.9	-64.1	286	3	
2025-08-14T00:00	11850	214	-53.4	-64.2	289	3	
2025-08-14T00:00	11900	213	-53.5	-65.8	294	2	
2025-08-14T00:00	11950	211	-53.1	-67.8	90	0	
2025-08-14T00:00	12000	210	-52.6	-69.0	111	2	
2025-08-14T00:00	12050	208	-52.5	-69.2	113	3	
2025-08-14T00:00	12100	206	-52.7	-69.2	116	4	
2025-08-14T00:00	12150	205	-52.9	-69.4	120	5	
2025-08-14T00:00	12200	203	-52.9	-70.2	120	6	
2025-08-14T00:00	12250	202	-52.8	-70.8	118	7	
2025-08-14T00:00	12300	200	-53.1	-70.8	118	9	
2025-08-14T00:00	12350	198	-53.5	-70.9	122	10	
2025-08-14T00:00	12400	197	-53.6	-71.3	126	10	
2025-08-14T00:00	12450	195	-53.4	-71.9	131	9	
2025-08-14T00:00	12500	194	-53.3	-72.6	136	8	
2025-08-14T00:00	12550	192	-53.2	-73.1	142	7	
2025-08-14T00:00	12600	191	-52.8	-74.0	142	7	
2025-08-14T00:00	12650	189	-52.0	-75.3	141	8	
2025-08-14T00:00	12700	188	-51.8	-75.7	142	9	
2025-08-14T00:00	12750	187	-51.9	-75.8	146	10	
2025-08-14T00:00	12800	185	-52.2	-75.9	152	10	
2025-08-14T00:00	12850	184	-52.5	-76.0	158	9	
2025-08-14T00:00	12900	182	-52.5	-76.4	164	9	
2025-08-14T00:00	12950	181	-52.5	-76.6	170	8	
2025-08-14T00:00	13000	179	-52.8	-76.8	177	7	
2025-08-14T00:00	13050	178	-52.9	-77.2	182	6	
2025-08-14T00:00	13100	177	-53.0	-77.4	186	5	
2025-08-14T00:00	13150	175	-53.3	-77.4	192	5	
2025-08-14T00:00	13200	174	-53.4	-77.8	197	6	
2025-08-14T00:00	13250	173	-53.0	-78.5	199	6	
2025-08-14T00:00	13300	171	-52.7	-78.9	202	6	
2025-08-14T00:00	13350	170	-53.0	-78.9	204	6	
2025-08-14T00:00	13400	169	-53.2	-79.1	207	7	
2025-08-14T00:00	13450	167	-52.9	-79.4	206	6	
2025-08-14T00:00	13500	166	-52.7	-79.6	200	5	
2025-08-14T00:00	13550	165	-52.8	-79.7	196	6	
2025-08-14T00:00	13600	163	-52.7	-80.0	201	8	
2025-08-14T00:00	13650	162	-52.5	-80.2	208	9	
2025-08-14T00:00	13700	161	-52.8	-80.2	213	9	
2025-08-14T00:00	13750	160	-53.1	-80.2	215	8	
2025-08-14T00:00	13800	158	-53.4	-80.4	214	8	
2025-08-14T00:00	13850	157	-53.8	-80.5	216	7	
2025-08-14T00:00	13900	156	-54.1	-80.8	220	7	
2025-08-14T00:00	13950	155	-53.8	-81.0	223	6	
2025-08-14T00:00	14000	154	-53.0	-81.3	227	5	
2025-08-14T00:00	14050	152	-52.2	-81.3	233	5	
2025-08-14T00:00	14100	151	-52.3	-81.2	239	5	
2025-08-14T00:00	14150	150	-52.7	-81.2	241	4	
2025-08-14T00:00	14200	149	-53.1	-81.3	238	4	
2025-08-14T00:00	14250	148	-53.2	-81.4	231	4	
2025-08-14T00:00	14300	147	-53.5	-81.5	224	4	
2025-08-14T00:00	14350	146	-53.8	-81.6	219	4	
2025-08-14T00:00	14400	144	-54.1	-81.6	216	4	
2025-08-14T00:00	14450	143	-54.5	-81.7	215	5	
2025-08-14T00:00	14500	142	-54.9	-81.9	216	5	
2025-08-14T00:00	14550	141	-55.0	-82.0	216	5	
2025-08-14T00:00	14600	140	-55.2	-82.2	214	6	
2025-08-14T00:00	14650	139	-55.2	-82.2	211	8	
2025-08-14T00:00	14700	138	-55.3	-82.3	211	9	
2025-08-14T00:00	14750	137	-55.6	-82.5	215	10	
2025-08-14T00:00	14800	136	-55.6	-82.5	218	10	
2025-08-14T00:00	14850	135	-54.6	-82.4	219	10	
2025-08-14T00:00	14900	133	-54.4	-82.3	219	9	
2025-08-14T00:00	14950	132	-54.8	-82.3	223	8	
2025-08-14T00:00	15000	131	-55.0	-82.4	232	8	
2025-08-14T00:00	15050	130	-54.9	-82.4	239	8	
2025-08-14T00:00	15100	129	-55.2	-82.4	242	8	
2025-08-14T00:00	15150	128	-55.7	-82.5	238	8	
2025-08-14T00:00	15200	127	-56.0	-82.7	229	7	
2025-08-14T00:00	15250	126	-56.0	-82.7	220	7	
2025-08-14T00:00	15300	125	-56.2	-82.8	216	8	
2025-08-14T00:00	15350	124	-56.6	-82.9	214	8	
2025-08-14T00:00	15400	123	-57.1	-82.9	212	8	
2025-08-14T00:00	15450	122	-57.6	-83.1	208	7	
2025-08-14T00:00	15500	121	-57.9	-83.2	202	8	
2025-08-14T00:00	15550	120	-58.3	-83.3	197	8	
2025-08-14T00:00	15600	120	-58.8	-83.5	195	9	
2025-08-14T00:00	15650	119	-59.1	-83.6	199	10	
2025-08-14T00:00	15700	118	-59.1	-83.5	205	10	
2025-08-14T00:00	15750	117	-59.3	-83.7	211	11	
2025-08-14T00:00	15800	116	-59.6	-83.8	214	12	
2025-08-14T00:00	15850	115	-59.8	-83.9	215	13	
2025-08-14T00:00	15900	114	-59.8	-83.9	215	13	
2025-08-14T00:00	15950	113	-59.9	-83.9	213	14	
2025-08-14T00:00	16000	112	-60.1	-83.9	212	14	
2025-08-14T00:00	16050	111	-60.5	-84.0	213	14	
2025-08-14T00:00	16100	110	-60.8	-84.2	217	13	
2025-08-14T00:00	16150	109	-60.6	-84.2	222	12	
2025-08-14T00:00	16200	109	-60.4	-84.3	225	10	
2025-08-14T00:00	16250	108	-60.3	-84.4	227	9	
2025-08-14T00:00	16300	107	-60.0	-84.5	228	7	
2025-08-14T00:00	16350	106	-59.6	-84.5	224	7	
2025-08-14T00:00	16400	105	-59.4	-84.5	218	7	
2025-08-14T00:00	16450	104	-59.4	-84.4	211	7	
2025-08-14T00:00	16500	104	-59.6	-84.5	201	7	
2025-08-14T00:00	16550	103	-59.6	-84.6	191	7	
2025-08-14T00:00	16600	102	-59.0	-84.3	182	7	
2025-08-14T00:00	16650	101	-59.1	-84.4	173	8	
2025-08-14T00:00	16700	100	-59.1	-84.3	167	9	
2025-08-14T00:00	16750	99	-59.2	-84.3	166	10	
2025-08-14T00:00	16800	99	-59.4	-84.4	169	10	
2025-08-14T00:00	16850	98	-59.7	-84.4	175	11	
2025-08-14T00:00	16900	97	-59.9	-84.5	178	11	
2025-08-14T00:00	16950	96	-60.0	-84.5	178	10	
2025-08-14T00:00	17000	96	-60.1	-84.7	175	10	
2025-08-14T00:00	17050	95	-60.1	-84.6	171	11	
2025-08-14T00:00	17100	94	-60.3	-84.8	167	11	
2025-08-14T00:00	17150	93	-60.4	-84.9	167	10	
2025-08-14T00:00	17200	93	-60.5	-85.0	167	10	
2025-08-14T00:00	17250	92	-60.4	-85.0	168	11	
2025-08-14T00:00	17300	91	-60.7	-85.0	171	11	
2025-08-14T00:00	17350	90	-60.8	-85.1	176	12	
2025-08-14T00:00	17400	90	-60.9	-85.2	180	12	
2025-08-14T00:00	17450	89	-61.2	-85.3	183	12	
2025-08-14T00:00	17500	88	-61.4	-85.4	187	12	
2025-08-14T00:00	17550	87	-61.1	-85.4	190	12	
2025-08-14T00:00	17600	87	-61.0	-85.6	191	12	
2025-08-14T00:00	17650	86	-60.7	-85.6	189	11	
2025-08-14T00:00	17700	85	-60.6	-85.6	189	10	
2025-08-14T00:00	17750	85	-60.7	-85.6	191	9	
2025-08-14T00:00	17800	84	-60.7	-85.6	198	9	
2025-08-14T00:00	17850	83	-60.8	-85.7	206	8	
2025-08-14T00:00	17900	83	-60.8	-85.8	211	8	
2025-08-14T00:00	17950	82	-60.5	-85.8	215	8	
2025-08-14T00:00	18000	81	-60.3	-85.8	220	8	
2025-08-14T00:00	18050	81	-60.5	-85.9	225	7	
2025-08-14T00:00	18100	80	-60.7	-86.0	225	7	
2025-08-14T00:00	18150	79	-60.7	-86.1	225	7	
2025-08-14T00:00	18200	79	-60.8	-86.2	233	6	
2025-08-14T00:00	18250	78	-60.7	-86.2	252	5	
2025-08-14T00:00	18300	78	-60.5	-86.3	271	5	
2025-08-14T00:00	18350	77	-60.4	-86.3	278	4	
2025-08-14T00:00	18400	76	-60.3	-86.3	268	3	
2025-08-14T00:00	18450	76	-60.2	-86.2	240	2	
2025-08-14T00:00	18500	75	-60.3	-86.3	195	1	
2025-08-14T00:00	18550	75	-60.4	-86.4	170	2	
2025-08-14T00:00	18600	74	-60.3	-86.4	181	2	
2025-08-14T00:00	18650	73	-60.1	-86.3	214	2	
2025-08-14T00:00	18700	73	-60.2	-86.4	231	2	
2025-08-14T00:00	18750	72	-60.4	-86.4	226	2	
2025-08-14T00:00	18800	72	-60.4	-86.4	211	3	
2025-08-14T00:00	18850	71	-60.5	-86.4	195	3	
2025-08-14T00:00	18900	70	-60.7	-86.5	188	4	
2025-08-14T00:00	18950	70	-60.9	-86.5	185	4	
2025-08-14T00:00	19000	69	-60.9	-86.6	181	3	
2025-08-14T00:00	19050	69	-61.1	-86.7	179	2	
2025-08-14T00:00	19100	68	-61.2	-86.8	175	2	
2025-08-14T00:00	19150	68	-61.2	-87.0	158	2	
2025-08-14T00:00	19200	67	-60.8	-87.0	133	2	
2025-08-14T00:00	19250	67	-60.6	-87.0	113	3	
2025-08-14T00:00	19300	66	-60.5	-86.9	103	3	
2025-08-14T00:00	19350	65	-60.4	-86.9	95	2	
2025-08-14T00:00	19400	65	-60.1	-86.7	86	2	
2025-08-14T00:00	19450	64	-60.2	-86.7	85	3	
2025-08-14T00:00	19500	64	-60.3	-86.8	87	4	
2025-08-14T00:00	19550	63	-60.1	-86.7	89	5	
2025-08-14T00:00	19600	63	-60.1	-86.8	94	6	
2025-08-14T00:00	19650	62	-59.9	-86.7	100	7	
2025-08-14T00:00	19700	62	-59.9	-86.7	103	7	
2025-08-14T00:00	19750	61	-60.0	-86.7	105	6	
2025-08-14T00:00	19800	61	-59.8	-86.8	111	5	
2025-08-14T00:00	19850	60	-59.5	-86.7	123	4	
2025-08-14T00:00	19900	60	-59.5	-86.8	126	4	
2025-08-14T00:00	19950	60	-59.1	-86.5	121	5	
2025-08-14T00:00	20000	59	-59.2	-86.6	118	7	
2025-08-14T00:00	20050	59	-59.3		117	7	
2025-08-14T00:00	20100	58	-59.2		118	7	
2025-08-14T00:00	20150	58	-58.4		118	8	
2025-08-14T00:00	20200	57	-57.9		120	8	
2025-08-14T00:00	20250	57	-57.5		125	9	
2025-08-14T00:00	20300	56	-57.3		130	9	
2025-08-14T00:00	20350	56	-56.9		134	9	
2025-08-14T00:00	20400	55	-56.3		136	10	
2025-08-14T00:00	20450	55	-56.3		138	10	
2025-08-14T00:00	20500	55	-56.4		142	10	
2025-08-14T00:00	20550	54	-56.6		147	9	
2025-08-14T00:00	20600	54	-56.7		155	8	
2025-08-14T00:00	20650	53	-57.0		165	7	
2025-08-14T00:00	20700	53	-57.0		175	5	
2025-08-14T00:00	20750	52	-57.0		180	4	
2025-08-14T00:00	20800	52	-57.1		172	3	
2025-08-14T00:00	20850	52	-56.9		153	3	
2025-08-14T00:00	20900	51	-57.0		141	4	
2025-08-14T00:00	20950	51	-57.1		136	5	
2025-08-14T00:00	21000	50	-57.2		136	5	
2025-08-14T00:00	21050	50	-57.1		139	7	
2025-08-14T00:00	21100	50	-57.3		144	8	
2025-08-14T00:00	21150	49	-57.5		149	9	
2025-08-14T00:00	21200	49	-57.5		151	9	
2025-08-14T00:00	21250	48	-57.4		151	9	
2025-08-14T00:00	21300	48	-57.5		152	9	
2025-08-14T00:00	21350	48	-57.7		154	9	
2025-08-14T00:00	21400	47	-57.7		154	9	
2025-08-14T00:00	21450	47	-57.8		153	9	
2025-08-14T00:00	21500	47	-57.7		155	8	
2025-08-14T00:00	21550	46	-57.6		160	8	
2025-08-14T00:00	21600	46	-57.7		167	7	
2025-08-14T00:00	21650	45	-57.9		174	7	
2025-08-14T00:00	21700	45	-57.7		180	5	
2025-08-14T00:00	21750	45	-57.7		184	3	
2025-08-14T00:00	21800	44	-57.4		150	2	
2025-08-14T00:00	21850	44	-57.0		98	3	
2025-08-14T00:00	21900	44	-56.6		91	5	
2025-08-14T00:00	21950	43	-56.3		93	7	
2025-08-14T00:00	22000	43	-56.2		97	7	
2025-08-14T00:00	22050	43	-56.2		99	7	
2025-08-14T00:00	22100	42	-56.0		100	6	
2025-08-14T00:00	22150	42	-55.9		99	7	
2025-08-14T00:00	22200	42	-55.7		100	7	
2025-08-14T00:00	22250	41	-55.8		103	8	
2025-08-14T00:00	22300	41	-55.7		107	8	
2025-08-14T00:00	22350	41	-55.6		114	8	
2025-08-14T00:00	22400	40	-55.6		122	7	
2025-08-14T00:00	22450	40	-55.8		127	7	
2025-08-14T00:00	22500	40	-55.5		126	6	
2025-08-14T00:00	22550	39	-55.4		121	4	
2025-08-14T00:00	22600	39	-55.6		116	4	
2025-08-14T00:00	22650	39	-55.4		113	3	
2025-08-14T00:00	22700	39	-55.0		108	4	
2025-08-14T00:00	22750	38	-55.1		98	4	
2025-08-14T00:00	22800	38	-55.3		88	5	
2025-08-14T00:00	22850	38	-55.5		78	6	
2025-08-14T00:00	22900	37	-55.6		74	6	
2025-08-14T00:00	22950	37	-55.4		80	7	
2025-08-14T00:00	23000	37	-55.1		85	6	
2025-08-14T00:00	23050	36	-54.5		84	6	
2025-08-14T00:00	23100	36	-54.1		80	5	
2025-08-14T00:00	23150	36	-53.9		82	5	
2025-08-14T00:00	23200	36	-54.0		89	5	
2025-08-14T00:00	23250	35	-54.1		95	5	
2025-08-14T00:00	23300	35	-53.7		94	5	
2025-08-14T00:00	23350	35	-53.4		85	5	
2025-08-14T00:00	23400	35	-53.4		72	5	
2025-08-14T00:00	23450	34	-53.4		62	6	
2025-08-14T00:00	23500	34	-53.3		59	7	
2025-08-14T00:00	23550	34	-53.2		60	8	
2025-08-14T00:00	23600	33	-53.1		63	9	
2025-08-14T00:00	23650	33	-53.1		67	9	
2025-08-14T00:00	23700	33	-53.3		70	9	
2025-08-14T00:00	23750	33	-53.2		72	10	
2025-08-14T00:00	23800	32	-52.8		74	10	
2025-08-14T00:00	23850	32	-52.6		77	9	
2025-08-14T00:00	23900	32	-52.4		81	8	
2025-08-14T00:00	23950	32	-52.4		82	7	
2025-08-14T00:00	24000	31	-52.4		78	7	
2025-08-14T00:00	24050	31	-52.4		71	7	
2025-08-14T00:00	24100	31	-52.0		67	8	
2025-08-14T00:00	24150	31	-51.8		67	9	
2025-08-14T00:00	24200	31	-51.6		70	10	
2025-08-14T00:00	24250	30	-51.4		77	12	
2025-08-14T00:00	24300	30	-50.9		84	13	
2025-08-14T00:00	24350	30	-50.4		92	13	
2025-08-14T00:00	24400	30	-50.4		99	13	
2025-08-14T00:00	24450	29	-50.5		103	14	
2025-08-14T00:00	24500	29	-50.6		104	14	
2025-08-14T00:00	24550	29	-50.7		106	14	
2025-08-14T00:00	24600	29	-50.7		111	13	
2025-08-14T00:00	24650	28	-50.9		116	12	
2025-08-14T00:00	24700	28	-51.1		119	12	
2025-08-14T00:00	24750	28	-51.0		121	12	
2025-08-14T00:00	24800	28	-50.8		124	11	
2025-08-14T00:00	24850	28	-50.5		130	11	
2025-08-14T00:00	24900	27	-50.5		136	10	
2025-08-14T00:00	24950	27	-50.7		143	9	
2025-08-14T00:00	25000	27	-50.8		149	9	
2025-08-14T00:00	25050	27	-50.9		153	8	
2025-08-14T00:00	25100	27	-51.0		158	8	
2025-08-14T00:00	25150	26	-51.3		160	7	
2025-08-14T00:00	25200	26	-51.5		157	7	
2025-08-14T00:00	25250	26	-51.6		150	6	
2025-08-14T00:00	25300	26	-51.7		139	6	
2025-08-14T00:00	25350	26	-51.8		130	7	
2025-08-14T00:00	25400	25	-51.7		124	7	
2025-08-14T00:00	25450	25	-51.6		119	7	
2025-08-14T00:00	25500	25	-51.6		113	8	
2025-08-14T00:00	25550	25	-51.5		107	8	
2025-08-14T00:00	25600	25	-51.4		102	8	
2025-08-14T00:00	25650	24	-51.3		99	7	
2025-08-14T00:00	25700	24	-51.2		98	7	
2025-08-14T00:00	25750	24	-51.0		101	8	
2025-08-14T00:00	25800	24	-50.9		107	8	
2025-08-14T00:00	25850	24	-50.4		110	8	
2025-08-14T00:00	25900	23	-50.2		106	8	
2025-08-14T00:00	25950	23	-49.6		102	7	
2025-08-14T00:00	26000	23	-49.1		101	8	
2025-08-14T00:00	26050	23	-48.9		100	8	
2025-08-14T00:00	26100	23	-48.7		100	9	
2025-08-14T00:00	26150	23	-48.4		102	9	
2025-08-14T00:00	26200	22	-48.3		105	9	
2025-08-14T00:00	26250	22	-48.0		109	9	
2025-08-14T00:00	26300	22	-48.1		112	9	
2025-08-14T00:00	26350	22	-48.1		114	8	
2025-08-14T00:00	26400	22	-47.9		112	8	
2025-08-14T00:00	26450	22	-47.6		109	7	
2025-08-14T00:00	26500	21	-47.6		107	7	
2025-08-14T00:00	26550	21	-47.5		106	7	
2025-08-14T00:00	26600	21	-47.5		108	7	
2025-08-14T00:00	26650	21	-47.3		110	7	
2025-08-14T00:00	26700	21	-46.9		112	7	
2025-08-14T00:00	26750	21	-46.6		112	6	
2025-08-14T00:00	26800	20	-46.6		112	5	
2025-08-14T00:00	26850	20	-46.3		110	4	
2025-08-14T00:00	26900	20	-45.9		106	4	
2025-08-14T00:00	26950	20	-45.8		95	3	
2025-08-14T00:00	27000	20	-45.8		77	2	
2025-08-14T00:00	27050	20	-45.7		52	2	
2025-08-14T00:00	27100	20	-45.8		41	2	
2025-08-14T00:00	27150	19	-45.7		48	3	
2025-08-14T00:00	27200	19	-45.7		57	4	
2025-08-14T00:00	27250	19	-45.6		61	4	
2025-08-14T00:00	27300	19	-45.4		63	4	
2025-08-14T00:00	27350	19	-45.4		66	4	
2025-08-14T00:00	27400	19	-45.3		68	5	
2025-08-14T00:00	27450	19	-45.4		64	5	
2025-08-14T00:00	27500	18	-45.3		58	6	
2025-08-14T00:00	27550	18	-45.4		57	7	
2025-08-14T00:00	27600	18	-45.3		59	8	
2025-08-14T00:00	27650	18	-45.3		60	9	
2025-08-14T00:00	27700	18	-45.2		63	10	
2025-08-14T00:00	27750	18	-44.9		69	11	
2025-08-14T00:00	27800	18	-44.6		77	11	
2025-08-14T00:00	27850	18	-44.3		85	11	
2025-08-14T00:00	27900	17	-44.2		91	11	
2025-08-14T00:00	27950	17	-44.0		95	11	
2025-08-14T00:00	28000	17	-44.2		98	11	
2025-08-14T00:00	28050	17	-44.5		101	10	
2025-08-14T00:00	28100	17	-44.5		101	10	
2025-08-14T00:00	28150	17	-44.6		99	9	
2025-08-14T00:00	28200	17	-44.8		94	8	
2025-08-14T00:00	28250	16	-44.9		89	8	
2025-08-14T00:00	28300	16	-44.7		86	7	
2025-08-14T00:00	28350	16	-44.4		86	7	
2025-08-14T00:00	28400	16	-43.8		88	7	
2025-08-14T00:00	28450	16	-43.3		90	7	
2025-08-14T00:00	28500	16	-43.1		89	8	
2025-08-14T00:00	28550	16	-43.0		84	8	
2025-08-14T00:00	28600	16	-42.8		80	9	
2025-08-14T00:00	28650	16	-42.7		77	9	
2025-08-14T00:00	28700	15	-42.5		77	10	
2025-08-14T00:00	28750	15	-42.4		79	10	
2025-08-14T00:00	28800	15	-42.1		82	9	
2025-08-14T00:00	28850	15	-41.9		85	8	
2025-08-14T00:00	28900	15	-42.1		89	7	
2025-08-14T00:00	28950	15	-42.3		92	6	
2025-08-14T00:00	29000	15	-42.5		91	5	
2025-08-14T00:00	29050	15	-42.6		88	6	
2025-08-14T00:00	29100	15	-42.5		85	7	
2025-08-14T00:00	29150	14	-42.5		82	8	
2025-08-14T00:00	29200	14	-42.9		81	8	
2025-08-14T00:00	29250	14	-43.0		80	9	
2025-08-14T00:00	29300	14	-42.8		79	8	
2025-08-14T00:00	29350	14	-42.4		79	8	
2025-08-14T00:00	29400	14	-42.3		80	7	
2025-08-14T00:00	29450	14	-42.3		83	7	
2025-08-14T00:00	29500	14	-42.6		84	6	
2025-08-14T00:00	29550	14	-42.6		80	7	
2025-08-14T00:00	29600	13	-42.7		75	7	
2025-08-14T00:00	29650	13	-42.9		71	8	
2025-08-14T00:00	29700	13	-42.8		69	9	
2025-08-14T00:00	29750	13	-43.0		70	10	
2025-08-14T00:00	29800	13	-43.0		73	10	
2025-08-14T00:00	29850	13	-43.1		78	10	
2025-08-14T00:00	29900	13	-43.2		84	10	
2025-08-14T00:00	29950	13	-43.3		87	10	
2025-08-14T00:00	30000	13	-43.5		89	10	
2025-08-14T00:00	30050	13	-43.7		87	10	
2025-08-14T00:00	30100	13	-43.8		85	10	
2025-08-14T00:00	30150	12	-43.9		84	11	
2025-08-14T00:00	30200	12	-44.0		84	12	
2025-08-14T00:00	30250	12	-44.0		86	12	
2025-08-14T00:00	30300	12	-44.0		89	13	
2025-08-14T00:00	30350	12	-43.8		90	14	
2025-08-14T00:00	30400	12	-43.8		92	15	
2025-08-14T00:00	30450	12	-43.9		94	15	
2025-08-14T00:00	30500	12	-43.9		97	15	
2025-08-14T00:00	30550	12	-43.8		98	13	
2025-08-14T00:00	30600	12	-43.7		97	12	
2025-08-14T00:00	30650	12	-43.6		97	13	
2025-08-14T00:00	30700	11	-43.0		98	13	
2025-08-14T00:00	30750	11	-42.6		98	14	
2025-08-14T00:00	30800	11	-42.2		98	14	
2025-08-14T00:00	30850	11	-41.8		100	13	
2025-08-14T00:00	30900	11	-41.8		105	13	
2025-08-14T00:00	30950	11	-42.0		111	12	
2025-08-14T00:00	31000	11	-42.0		114	11	
2025-08-14T00:00	31050	11	-42.0		113	10	
2025-08-14T00:00	31100	11	-42.1		109	9	
2025-08-14T00:00	31150	11	-41.6		103	8	
2025-08-14T00:00	31200	11	-41.3		98	8	
2025-08-14T00:00	31250	11	-41.5		94	8	
2025-08-14T00:00	31300	10	-41.6		90	9	
2025-08-14T00:00	31350	10	-41.7		87	9	
2025-08-14T00:00	31400	10	-41.4		85	9	
2025-08-14T00:00	31450	10	-40.8		85	8	
2025-08-14T00:00	31500	10	-40.3		85	7	
2025-08-14T00:00	31550	10	-40.1		82	6	
2025-08-14T00:00	31600	10	-40.2		77	5	
2025-08-14T00:00	31650	10	-40.5		72	5	
2025-08-14T00:00	31700	10	-40.8		72	5	
2025-08-14T00:00	31750	10	-41.0		76	5	
2025-08-14T00:00	31800	10	-41.0		81	6	
2025-08-14T00:00	31850	10	-41.1		84	8	
2025-08-14T00:00	31900	10	-40.8		86	9	
2025-08-14T00:00	31950	10	-40.4		84	9	
2025-08-14T00:00	32000	9	-39.9		80	8	
2025-08-14T00:00	32050	9	-39.7		75	7	
2025-08-14T00:00	32100	9	-39.6		71	7	
2025-08-14T00:00	32150	9	-39.7		69	6	
2025-08-14T00:00	32200	9	-39.9		68	7	
2025-08-14T00:00	32250	9	-39.7		70	8	
2025-08-14T00:00	32300	9	-39.7		72	8	
2025-08-14T00:00	32350	9	-39.6		77	8	
2025-08-14T00:00	32400	9	-39.7		84	8	
2025-08-14T00:00	32450	9	-39.9		89	8	
2025-08-14T00:00	32500	9	-40.0		91	7	
2025-08-14T00:00	32550	9	-40.1		90	7	
2025-08-14T00:00	32600	9	-40.1		84	7	
2025-08-14T00:00	32650	9	-39.8		78	7	
2025-08-14T00:00	32700	9	-39.8		73	7	
2025-08-14T00:00	32750	8	-39.7		69	7	
2025-08-14T00:00	32800	8	-39.6		64	6	
2025-08-14T00:00	32850	8	-39.7		60	6	
2025-08-14T00:00	32900	8	-39.8		56	6	
2025-08-14T00:00	32950	8	-39.7		55	7	
2025-08-14T00:00	33000	8	-39.6		55	8	
2025-08-14T00:00	33050	8	-39.6		56	9	
2025-08-14T00:00	33100	8	-39.5		58	9	
2025-08-14T00:00	33150	8	-39.6		62	10	
2025-08-14T00:00	33200	8	-39.8		65	11	
2025-08-14T00:00	33250	8	-39.9		68	11	
2025-08-14T00:00	33300	8	-39.9		71	11	
2025-08-14T00:00	33350	8	-39.8		75	10	
2025-08-14T00:00	33400	8	-39.7		80	8	
2025-08-14T00:00	33450	8	-39.7		82	8	
2025-08-14T00:00	33500	8	-39.6		80	7	
2025-08-14T00:00	33550	8	-39.2		76	8	
2025-08-14T00:00	33600	7	-39.0		74	8	
2025-08-14T00:00	33650	7	-38.6		74	7	
2025-08-14T00:00	33700	7	-38.2		76	6	
2025-08-14T00:00	33750	7	-38.2		77	7	
2025-08-14T00:00	33800	7	-38.0		77	8	
2025-08-14T00:00	33850	7	-37.9		78	9	
2025-08-14T00:00	33900	7	-37.5		79	10	
2025-08-14T00:00	33950	7	-36.8		80	11	
2025-08-14T00:00	34000	7	-35.9		83	11	
2025-08-14T00:00	34050	7	-35.8		80	11	
2025-08-14T00:00	34100	7	-35.4		75	11	
2025-08-14T00:00	34150	7	-34.9		74	11	
2025-08-14T00:00	34200	7	-34.5		76	10	
2025-08-14T00:00	34250	7	-34.4		75	9	
2025-08-14T00:00	34300	7	-34.5		70	9	
2025-08-14T00:00	34350	7	-34.7		63	8	
2025-08-14T00:00	34400	7	-35.0		56	8	
2025-08-14T00:00	34450	7	-35.2		47	8	
2025-08-14T00:00	34500	7	-35.4		40	8	
2025-08-14T00:00	34550	7	-35.5		37	9	
2025-08-14T00:00	34600	6	-35.3		39	10	
2025-08-14T00:00	34650	6	-35.3		43	11	
2025-08-14T00:00	34700	6	-35.5		48	11	
2025-08-14T00:00	34750	6	-35.5		52	12	
2025-08-14T00:00	34800	6	-35.7		56	13	
2025-08-14T00:00	34850	6	-35.8		61	13	
2025-08-14T00:00	34900	6	-35.8		65	14	
2025-08-14T00:00	34950	6	-35.9		68	14	
2025-08-14T00:00	35000	6	-36.0		70	14	
2025-08-14T00:00	35050	6	-35.7		69	13	
2025-08-14T00:00	35100	6	-35.5		64	12	
2025-08-14T00:00	35150	6	-35.7		57	11	
2025-08-14T00:00	35200	6	-35.8		50	11	
2025-08-14T00:00	35250	6	-35.9		44	11	
2025-08-14T00:00	35300	6	-35.8		45	12	
2025-08-14T00:00	35350	6	-35.3		51	13	
2025-08-14T00:00	35400	6	-35.1		56	14	
2025-08-14T00:00	35450	6	-34.4		57	15	
2025-08-14T00:00	35500	6	-34.3		53	14	
2025-08-14T00:00	35550	6	-34.0		47	14	
2025-08-14T00:00	35600	6	-33.8		42	14	
2025-08-14T00:00	35650	6	-33.6		45	14	
2025-08-14T00:00	35700	6	-33.5		52	14	
2025-08-14T00:00	35750	5	-33.4		59	15	
2025-08-14T00:00	35800	5	-33.3		63	16	
2025-08-14T00:00	35850	5	-32.8		64	16	
2025-08-14T00:00	35900	5	-32.4		63	16	
2025-08-14T00:00	35950	5	-31.8		63	16	
2025-08-14T00:00	36000	5	-31.4		63	16	
2025-08-14T00:00	36050	5	-31.0		63	16	
2025-08-14T00:00	36100	5	-30.7		60	16	
2025-08-14T00:00	36150	5	-30.5		55	16	
2025-08-14T00:00	36200	5	-30.3		51	16	
2025-08-14T00:00	36250	5	-30.2		49	16	
2025-08-14T00:00	36300	5	-30.2		49	17	
2025-08-14T00:00	36350	5	-30.5		52	18	
2025-08-14T00:00	36400	5	-30.4		56	19	
2025-08-14T00:00	36450	5	-29.9		61	19	
2025-08-14T00:00	36500	5	-30.2		65	20	
2025-08-14T00:00	36550	5	-30.4		68	20	
2025-08-14T00:00	36600	5	-30.5		72	22	
2025-08-14T00:00	36650	5	-30.8		74	23	
2025-08-14T00:00	36700	5	-31.1		75	24	
2025-08-14T00:00	36750	5	-31.3		76	24	
2025-08-14T00:00	36800	5	-31.4		76	23	
2025-08-14T00:00	36850	5	-31.2		75	23	
2025-08-14T00:00	36900	5	-31.1		73	23	
2025-08-14T00:00	36950	5	-31.2		69	23	
2025-08-14T00:00	37000	5	-31.2		67	24	
2025-08-14T12:00	491	962	31.0	15.0	42	1	
2025-08-14T12:00	501	961	28.8	14.4	43	2	
2025-08-14T12:00	520	959	28.3	14.1	42	2	
2025-08-14T12:00	540	956	28.3	14.1	41	3	
2025-08-14T12:00	560	954	28.3	14.1	40	3	
2025-08-14T12:00	580	952	27.8	13.9	39	3	
2025-08-14T12:00	600	950	27.4	13.8	38	3	
2025-08-14T12:00	620	948	27.2	13.8	39	3	
2025-08-14T12:00	640	946	27.0	13.7	40	3	
2025-08-14T12:00	660	944	26.9	13.8	42	3	
2025-08-14T12:00	680	941	26.7	13.7	44	3	
2025-08-14T12:00	700	939	26.5	13.7	45	3	
2025-08-14T12:00	720	937	26.3	13.6	44	3	
2025-08-14T12:00	740	935	26.1	13.5	42	3	
2025-08-14T12:00	760	933	25.9	13.5	39	3	
2025-08-14T12:00	780	931	25.7	13.5	34	3	
2025-08-14T12:00	800	929	25.5	13.5	29	3	
2025-08-14T12:00	820	927	25.3	13.5	25	4	
2025-08-14T12:00	840	925	25.1	13.5	23	4	
2025-08-14T12:00	860	923	25.0	13.3	23	3	
2025-08-14T12:00	880	921	24.8	13.4	24	3	
2025-08-14T12:00	900	918	24.5	13.5	27	3	
2025-08-14T12:00	920	916	24.3	13.5	29	2	
2025-08-14T12:00	940	914	24.1	13.5	31	2	
2025-08-14T12:00	960	912	23.9	13.4	26	2	
2025-08-14T12:00	980	910	23.7	13.4	16	2	
2025-08-14T12:00	1000	908	23.5	13.2	9	2	
2025-08-14T12:00	1020	906	23.4	13.3	7	2	
2025-08-14T12:00	1040	904	23.2	13.3	8	3	
2025-08-14T12:00	1060	902	23.0	13.2	10	4	
2025-08-14T12:00	1080	900	22.8	13.2	12	4	
2025-08-14T12:00	1100	897	22.6	13.2	14	5	
2025-08-14T12:00	1120	895	22.4	13.2	16	5	
2025-08-14T12:00	1140	893	22.2	13.1	18	4	
2025-08-14T12:00	1160	891	22.1	13.1	21	4	
2025-08-14T12:00	1180	889	22.0	12.6	24	4	
2025-08-14T12:00	1200	887	21.9	11.9	28	4	
2025-08-14T12:00	1220	885	22.1	10.3	32	4	
2025-08-14T12:00	1240	883	22.1	9.7	35	4	
2025-08-14T12:00	1260	881	21.9	9.8	36	4	
2025-08-14T12:00	1280	879	21.7	9.6	37	4	
2025-08-14T12:00	1300	877	21.6	9.5	38	4	
2025-08-14T12:00	1320	875	21.8	9.5	42	3	
2025-08-14T12:00	1340	873	21.8	9.6	47	4	
2025-08-14T12:00	1360	871	21.6	9.6	51	4	
2025-08-14T12:00	1380	869	21.4	9.4	55	4	
2025-08-14T12:00	1400	867	21.3	9.4	57	4	
2025-08-14T12:00	1420	865	21.2	9.3	59	4	
2025-08-14T12:00	1440	863	21.0	9.3	59	4	
2025-08-14T12:00	1460	861	20.8	9.3	60	3	
2025-08-14T12:00	1480	859	20.7	9.2	61	3	
2025-08-14T12:00	1500	857	20.6	9.0	63	3	
2025-08-14T12:00	1520	855	20.4	8.9	68	3	
2025-08-14T12:00	1540	853	20.3	8.9	73	3	
2025-08-14T12:00	1560	851	20.2	8.7	80	3	
2025-08-14T12:00	1580	849	20.1	8.7	86	3	
2025-08-14T12:00	1600	847	20.0	8.4	94	3	
2025-08-14T12:00	1620	845	20.0	8.3	100	3	
2025-08-14T12:00	1640	844	19.8	8.3	106	3	
2025-08-14T12:00	1660	841	19.7	8.4	112	3	
2025-08-14T12:00	1680	839	19.5	8.2	115	3	
2025-08-14T12:00	1700	837	19.4	8.1	116	3	
2025-08-14T12:00	1720	835	19.4	8.0	115	3	
2025-08-14T12:00	1740	833	19.4	7.9	113	3	
2025-08-14T12:00	1760	832	19.6	7.6	107	3	
2025-08-14T12:00	1780	830	19.6	7.4	100	3	
2025-08-14T12:00	1800	828	19.5	7.4	94	3	
2025-08-14T12:00	1820	826	19.5	7.0	89	3	
2025-08-14T12:00	1840	824	19.3	7.0	86	3	
2025-08-14T12:00	1860	822	19.2	7.0	85	3	
2025-08-14T12:00	1880	820	19.1	7.0	86	3	
2025-08-14T12:00	1900	818	18.9	7.0	88	3	
2025-08-14T12:00	1920	816	18.7	6.9	89	3	
2025-08-14T12:00	1940	814	18.6	6.9	90	3	
2025-08-14T12:00	1960	813	18.5	6.7	90	4	
2025-08-14T12:00	1980	811	18.4	6.1	89	3	
2025-08-14T12:00	2000	809	18.3	5.6	87	3	
2025-08-14T12:00	2020	807	18.2	5.5	85	3	
2025-08-14T12:00	2040	805	18.0	5.3	79	3	
2025-08-14T12:00	2060	803	17.8	5.3	73	2	
2025-08-14T12:00	2080	801	17.6	5.2	67	2	
2025-08-14T12:00	2100	799	17.4	5.3	65	3	
2025-08-14T12:00	2120	798	17.3	5.2	68	3	
2025-08-14T12:00	2140	796	17.1	5.3	72	3	
2025-08-14T12:00	2160	794	16.9	5.2	78	3	
2025-08-14T12:00	2180	792	16.7	4.8	86	4	
2025-08-14T12:00	2200	790	16.6	5.0	95	4	
2025-08-14T12:00	2220	788	16.4	5.1	106	4	
2025-08-14T12:00	2240	786	16.3	5.4	115	4	
2025-08-14T12:00	2260	784	16.1	6.2	121	4	
2025-08-14T12:00	2280	783	16.0	6.1	124	3	
2025-08-14T12:00	2300	781	15.8	5.9	120	3	
2025-08-14T12:00	2320	779	15.7	5.8	111	3	
2025-08-14T12:00	2340	777	15.7	5.6	101	2	
2025-08-14T12:00	2360	775	15.6	5.6	90	2	
2025-08-14T12:00	2380	773	15.4	5.6	83	3	
2025-08-14T12:00	2400	771	15.2	5.5	81	3	
2025-08-14T12:00	2420	770	15.1	5.2	84	3	
2025-08-14T12:00	2440	768	15.0	4.7	89	3	
2025-08-14T12:00	2460	766	14.9	4.5	94	3	
2025-08-14T12:00	2480	764	14.7	4.3	99	3	
2025-08-14T12:00	2500	762	14.6	3.8	101	3	
2025-08-14T12:00	2520	761	14.4	3.8	103	3	
2025-08-14T12:00	2540	759	14.2	3.8	103	3	
2025-08-14T12:00	2560	757	14.0	3.8	103	3	
2025-08-14T12:00	2580	755	13.8	3.8	103	3	
2025-08-14T12:00	2600	754	13.6	3.8	104	3	
2025-08-14T12:00	2620	752	13.5	3.8	105	3	
2025-08-14T12:00	2640	750	13.3	3.2	107	3	
2025-08-14T12:00	2660	748	13.1	3.7	107	3	
2025-08-14T12:00	2680	746	12.9	3.8	105	3	
2025-08-14T12:00	2700	745	12.8	3.5	100	2	
2025-08-14T12:00	2720	743	12.6	3.4	93	2	
2025-08-14T12:00	2740	741	12.4	3.3	81	2	
2025-08-14T12:00	2760	739	12.2	3.2	67	2	
2025-08-14T12:00	2780	738	12.1	3.1	58	2	
2025-08-14T12:00	2800	736	11.9	2.9	53	2	
2025-08-14T12:00	2820	734	11.8	2.4	52	2	
2025-08-14T12:00	2840	732	11.9	1.7	55	2	
2025-08-14T12:00	2860	731	12.0	1.1	64	2	
2025-08-14T12:00	2880	729	12.1	0.9	79	2	
2025-08-14T12:00	2900	727	12.1	0.3	101	1	
2025-08-14T12:00	2920	725	12.0	0.0	126	2	
2025-08-14T12:00	2940	723	11.8	-0.1	140	2	
2025-08-14T12:00	2960	722	11.7	-0.2	149	2	
2025-08-14T12:00	2980	720	11.6	-0.2	155	2	
2025-08-14T12:00	3000	718	11.4	-0.4	161	2	
2025-08-14T12:00	3020	717	11.2	-0.5	167	1	
2025-08-14T12:00	3040	715	11.0	-0.7	171	1	
2025-08-14T12:00	3060	713	10.9	-1.0	173	1	
2025-08-14T12:00	3080	712	10.8	-1.3	170	1	
2025-08-14T12:00	3100	710	10.6	-1.5	164	1	
2025-08-14T12:00	3120	708	10.4	-2.1	159	1	
2025-08-14T12:00	3140	707	10.3	-2.9	159	2	
2025-08-14T12:00	3160	705	10.2	-3.4	164	2	
2025-08-14T12:00	3180	703	10.0	-4.0	170	2	
2025-08-14T12:00	3200	701	9.9	-4.3	177	2	
2025-08-14T12:00	3220	700	9.7	-4.5	182	2	
2025-08-14T12:00	3240	698	9.5	-4.5	184	3	
2025-08-14T12:00	3260	696	9.4	-4.6	183	3	
2025-08-14T12:00	3280	695	9.2	-4.6	180	3	
2025-08-14T12:00	3300	693	9.0	-4.6	176	3	
2025-08-14T12:00	3320	691	8.9	-4.6	173	3	
2025-08-14T12:00	3340	690	8.7	-4.8	171	3	
2025-08-14T12:00	3360	688	8.5	-4.9	169	3	
2025-08-14T12:00	3380	686	8.3	-4.9	167	3	
2025-08-14T12:00	3400	685	8.1	-4.8	164	3	
2025-08-14T12:00	3420	683	7.9	-4.9	159	3	
2025-08-14T12:00	3440	681	7.8	-4.6	153	3	
2025-08-14T12:00	3460	680	7.6	-4.6	147	3	
2025-08-14T12:00	3480	678	7.4	-4.5	140	3	
2025-08-14T12:00	3500	676	7.2	-4.5	136	3	
2025-08-14T12:00	3520	675	7.0	-4.3	134	3	
2025-08-14T12:00	3540	673	6.8	-4.3	133	3	
2025-08-14T12:00	3560	671	6.6	-4.2	133	3	
2025-08-14T12:00	3580	670	6.4	-4.2	134	3	
2025-08-14T12:00	3600	668	6.2	-4.3	134	3	
2025-08-14T12:00	3620	667	6.0	-4.2	136	3	
2025-08-14T12:00	3640	665	5.8	-4.2	138	3	
2025-08-14T12:00	3660	663	5.6	-4.2	140	3	
2025-08-14T12:00	3680	662	5.4	-4.3	141	4	
2025-08-14T12:00	3700	660	5.2	-4.4	142	4	
2025-08-14T12:00	3720	658	5.0	-4.5	141	3	
2025-08-14T12:00	3740	657	4.8	-4.5	139	3	
2025-08-14T12:00	3760	655	4.7	-4.6	137	4	
2025-08-14T12:00	3780	654	4.5	-4.6	134	4	
2025-08-14T12:00	3800	652	4.3	-4.6	134	4	
2025-08-14T12:00	3820	650	4.0	-4.6	134	4	
2025-08-14T12:00	3840	649	3.9	-4.7	134	4	
2025-08-14T12:00	3860	647	3.7	-4.7	135	5	
2025-08-14T12:00	3880	646	3.5	-4.7	135	5	
2025-08-14T12:00	3900	644	3.3	-4.9	136	5	
2025-08-14T12:00	3920	642	3.1	-4.9	139	4	
2025-08-14T12:00	3940	641	2.9	-5.0	141	4	
2025-08-14T12:00	3960	639	2.7	-5.1	143	4	
2025-08-14T12:00	3980	638	2.5	-5.2	145	4	
2025-08-14T12:00	4000	636	2.3	-5.2	145	4	
2025-08-14T12:00	4020	634	2.1	-5.2	143	4	
2025-08-14T12:00	4040	633	1.9	-5.2	141	4	
2025-08-14T12:00	4060	631	1.8	-5.3	137	5	
2025-08-14T12:00	4080	630	1.6	-5.3	132	5	
2025-08-14T12:00	4100	628	1.4	-5.3	129	5	
2025-08-14T12:00	4120	627	1.2	-5.3	127	5	
2025-08-14T12:00	4140	625	1.0	-5.5	126	5	
2025-08-14T12:00	4160	624	0.8	-5.4	125	5	
2025-08-14T12:00	4180	622	0.6	-5.5	125	5	
2025-08-14T12:00	4200	621	0.4	-5.5	125	5	
2025-08-14T12:00	4220	619	0.2	-5.6	125	5	
2025-08-14T12:00	4240	618	0.0	-5.6	125	5	
2025-08-14T12:00	4260	616	-0.2	-5.6	126	5	
2025-08-14T12:00	4280	614	-0.4	-5.6	127	4	
2025-08-14T12:00	4300	613	-0.6	-5.6	129	4	
2025-08-14T12:00	4320	611	-0.8	-5.8	131	4	
2025-08-14T12:00	4340	610	-0.9	-5.9	134	4	
2025-08-14T12:00	4360	608	-1.1	-6.6	138	4	
2025-08-14T12:00	4380	607	-1.2	-7.1	143	4	
2025-08-14T12:00	4400	605	-1.4	-7.1	149	3	
2025-08-14T12:00	4420	604	-1.6	-7.2	156	3	
2025-08-14T12:00	4440	602	-1.8	-7.5	163	3	
2025-08-14T12:00	4460	601	-2.0	-7.8	166	4	
2025-08-14T12:00	4480	599	-2.1	-8.5	170	4	
2025-08-14T12:00	4500	598	-2.3	-8.8	173	4	
2025-08-14T12:00	4520	596	-2.5	-8.9	175	4	
2025-08-14T12:00	4540	595	-2.6	-9.0	178	4	
2025-08-14T12:00	4560	593	-2.8	-9.3	180	4	
2025-08-14T12:00	4580	592	-3.0	-9.4	181	4	
2025-08-14T12:00	4600	590	-3.2	-9.4	181	4	
2025-08-14T12:00	4620	589	-3.4	-9.9	180	4	
2025-08-14T12:00	4640	587	-3.6	-10.2	177	4	
2025-08-14T12:00	4660	586	-3.7	-10.3	175	4	
2025-08-14T12:00	4680	584	-3.9	-10.6	173	4	
2025-08-14T12:00	4700	583	-4.1	-10.7	173	4	
2025-08-14T12:00	4720	581	-4.3	-10.6	174	3	
2025-08-14T12:00	4740	580	-4.5	-10.7	181	3	
2025-08-14T12:00	4760	578	-4.7	-10.7	192	2	
2025-08-14T12:00	4780	577	-4.8	-10.8	204	2	
2025-08-14T12:00	4800	576	-5.0	-11.0	215	2	
2025-08-14T12:00	4820	574	-5.2	-11.1	226	2	
2025-08-14T12:00	4840	572	-5.3	-11.5	237	2	
2025-08-14T12:00	4860	571	-5.4	-12.1	240	2	
2025-08-14T12:00	4880	570	-5.6	-12.4	238	3	
2025-08-14T12:00	4900	568	-5.7	-12.4	235	3	
2025-08-14T12:00	4920	567	-5.9	-12.0	232	3	
2025-08-14T12:00	4940	565	-6.1	-11.4	229	3	
2025-08-14T12:00	4960	564	-6.2	-11.0	227	3	
2025-08-14T12:00	4980	562	-6.4	-10.8	226	3	
2025-08-14T12:00	5000	561	-6.6	-10.5	226	3	
2025-08-14T12:00	5020	560	-6.8	-10.4	229	3	
2025-08-14T12:00	5040	558	-6.9	-10.2	233	2	
2025-08-14T12:00	5060	557	-7.1	-10.3	236	2	
2025-08-14T12:00	5080	555	-7.2	-10.8	240	2	
2025-08-14T12:00	5100	554	-7.3	-12.4	244	2	
2025-08-14T12:00	5120	552	-7.2	-14.9	251	2	
2025-08-14T12:00	5140	551	-7.2	-13.3	258	1	
2025-08-14T12:00	5160	550	-7.3	-12.7	263	1	
2025-08-14T12:00	5180	548	-7.5	-12.0	269	1	
2025-08-14T12:00	5200	547	-7.6	-12.0	276	1	
2025-08-14T12:00	5220	545	-7.7	-12.2	282	1	
2025-08-14T12:00	5240	544	-7.9	-12.5	288	1	
2025-08-14T12:00	5260	543	-8.0	-12.6	297	1	
2025-08-14T12:00	5280	541	-8.1	-12.8	318	0	
2025-08-14T12:00	5300	540	-8.3	-12.8	27	0	
2025-08-14T12:00	5320	539	-8.5	-12.7	61	1	
2025-08-14T12:00	5340	537	-8.6	-12.9	70	1	
2025-08-14T12:00	5360	536	-8.8	-13.1	72	2	
2025-08-14T12:00	5380	534	-8.9	-13.1	72	2	
2025-08-14T12:00	5400	533	-9.1	-12.8	70	3	
2025-08-14T12:00	5420	531	-9.2	-12.7	68	3	
2025-08-14T12:00	5440	530	-9.4	-12.8	66	4	
2025-08-14T12:00	5460	529	-9.5	-12.9	64	4	
2025-08-14T12:00	5480	527	-9.4	-14.4	64	4	
2025-08-14T12:00	5500	526	-9.4	-14.8	66	4	
2025-08-14T12:00	5520	525	-9.6	-14.3	72	4	
2025-08-14T12:00	5540	523	-9.7	-13.3	79	5	
2025-08-14T12:00	5560	522	-9.9	-12.9	84	5	
2025-08-14T12:00	5580	520	-10.0	-12.7	88	5	
2025-08-14T12:00	5600	519	-10.0	-12.9	91	5	
2025-08-14T12:00	5620	518	-10.1	-14.8	93	6	
2025-08-14T12:00	5640	516	-10.1	-17.3	95	6	
2025-08-14T12:00	5660	515	-10.1	-18.1	97	6	
2025-08-14T12:00	5680	514	-10.1	-18.1	97	6	
2025-08-14T12:00	5700	513	-10.1	-18.2	98	6	
2025-08-14T12:00	5720	511	-10.1	-19.0	98	6	
2025-08-14T12:00	5740	510	-10.2	-19.6	98	6	
2025-08-14T12:00	5760	509	-10.2	-20.6	98	6	
2025-08-14T12:00	5780	507	-10.3	-21.9	98	6	
2025-08-14T12:00	5800	506	-10.4	-22.3	97	6	
2025-08-14T12:00	5820	504	-10.5	-22.1	96	6	
2025-08-14T12:00	5840	503	-10.6	-22.0	94	6	
2025-08-14T12:00	5860	502	-10.7	-21.7	91	5	
2025-08-14T12:00	5880	501	-10.6	-22.8	88	5	
2025-08-14T12:00	5900	500	-10.6	-24.1	87	5	
2025-08-14T12:00	5920	498	-10.7	-24.3	85	4	
2025-08-14T12:00	5940	497	-10.9	-24.1	84	4	
2025-08-14T12:00	5960	495	-11.1	-23.9	83	4	
2025-08-14T12:00	5980	494	-11.2	-23.6	81	3	
2025-08-14T12:00	6000	493	-11.4	-23.5	78	3	
2025-08-14T12:00	6020	492	-11.5	-23.2	76	3	
2025-08-14T12:00	6040	490	-11.7	-23.2	75	4	
2025-08-14T12:00	6060	489	-11.9	-23.1	75	4	
2025-08-14T12:00	6080	488	-12.1	-23.2	77	3	
2025-08-14T12:00	6100	487	-12.2	-23.4	80	3	
2025-08-14T12:00	6120	485	-12.4	-23.4	83	3	
2025-08-14T12:00	6140	484	-12.6	-23.4	86	3	
2025-08-14T12:00	6160	483	-12.7	-23.5	89	3	
2025-08-14T12:00	6180	482	-12.9	-23.0	92	2	
2025-08-14T12:00	6200	480	-13.0	-21.2	90	2	
2025-08-14T12:00	6220	479	-13.2	-20.1	84	3	
2025-08-14T12:00	6240	478	-13.4	-19.8	81	3	
2025-08-14T12:00	6260	477	-13.5	-19.3	80	3	
2025-08-14T12:00	6280	475	-13.7	-18.9	80	4	
2025-08-14T12:00	6300	474	-13.7	-18.4	81	4	
2025-08-14T12:00	6320	473	-13.7	-18.7	83	4	
2025-08-14T12:00	6340	471	-13.7	-19.8	85	4	
2025-08-14T12:00	6360	470	-13.8	-21.2	86	4	
2025-08-14T12:00	6380	469	-13.9	-22.5	87	4	
2025-08-14T12:00	6400	468	-14.0	-23.4	87	4	
2025-08-14T12:00	6420	466	-14.2	-23.9	87	5	
2025-08-14T12:00	6440	465	-14.3	-24.2	86	5	
2025-08-14T12:00	6460	464	-14.5	-24.9	85	5	
2025-08-14T12:00	6480	463	-14.7	-25.0	86	5	
2025-08-14T12:00	6500	461	-14.9	-25.5	88	5	
2025-08-14T12:00	6520	460	-15.0	-26.3	91	5	
2025-08-14T12:00	6540	459	-15.1	-26.4	94	5	
2025-08-14T12:00	6560	458	-15.3	-25.7	98	6	
2025-08-14T12:00	6580	457	-15.4	-25.6	101	6	
2025-08-14T12:00	6600	456	-15.6	-27.0	104	6	
2025-08-14T12:00	6620	454	-15.7	-26.8	106	6	
2025-08-14T12:00	6640	453	-15.9	-25.3	106	6	
2025-08-14T12:00	6660	452	-16.0	-24.2	106	5	
2025-08-14T12:00	6680	451	-16.2	-24.9	106	5	
2025-08-14T12:00	6700	450	-16.3	-25.7	107	5	
2025-08-14T12:00	6720	448	-16.5	-27.0	107	5	
2025-08-14T12:00	6740	447	-16.6	-28.7	109	5	
2025-08-14T12:00	6760	446	-16.7	-30.8	112	5	
2025-08-14T12:00	6780	445	-16.8	-32.5	115	4	
2025-08-14T12:00	6800	444	-17.0	-33.0	116	4	
2025-08-14T12:00	6820	442	-17.1	-33.1	118	4	
2025-08-14T12:00	6840	441	-17.3	-33.2	119	4	
2025-08-14T12:00	6860	440	-17.5	-33.2	120	4	
2025-08-14T12:00	6880	439	-17.7	-33.4	119	5	
2025-08-14T12:00	6900	438	-17.9	-33.4	119	5	
2025-08-14T12:00	6920	437	-18.1	-33.4	117	5	
2025-08-14T12:00	6940	435	-18.2	-33.5	116	5	
2025-08-14T12:00	6960	434	-18.4	-33.6	114	5	
2025-08-14T12:00	6980	433	-18.6	-33.6	112	6	
2025-08-14T12:00	7000	432	-18.8	-33.2	111	6	
2025-08-14T12:00	7020	431	-18.9	-33.1	110	6	
2025-08-14T12:00	7040	430	-19.1	-32.9	109	6	
2025-08-14T12:00	7060	428	-19.2	-33.1	109	6	
2025-08-14T12:00	7080	427	-19.4	-33.2	107	6	
2025-08-14T12:00	7100	426	-19.5	-32.2	106	6	
2025-08-14T12:00	7120	425	-19.7	-30.6	104	6	
2025-08-14T12:00	7140	424	-19.9	-29.5	102	6	
2025-08-14T12:00	7160	423	-20.0	-28.6	101	5	
2025-08-14T12:00	7180	422	-20.2	-28.4	99	5	
2025-08-14T12:00	7200	420	-20.3	-29.0	98	6	
2025-08-14T12:00	7220	419	-20.3	-29.6	98	6	
2025-08-14T12:00	7240	418	-20.3	-32.2	98	6	
2025-08-14T12:00	7260	417	-20.4	-34.1	99	6	
2025-08-14T12:00	7280	416	-20.6	-33.9	101	6	
2025-08-14T12:00	7300	415	-20.8	-34.6	103	7	
2025-08-14T12:00	7320	413	-21.0	-34.6	105	7	
2025-08-14T12:00	7340	412	-21.2	-34.8	106	7	
2025-08-14T12:00	7360	411	-21.3	-35.2	108	7	
2025-08-14T12:00	7380	410	-21.5	-35.7	109	7	
2025-08-14T12:00	7400	409	-21.7	-36.5	111	7	
2025-08-14T12:00	7420	408	-21.8	-37.7	111	7	
2025-08-14T12:00	7440	407	-22.0	-38.5	111	7	
2025-08-14T12:00	7460	406	-22.2	-38.9	110	7	
2025-08-14T12:00	7480	405	-22.3	-39.5	109	7	
2025-08-14T12:00	7500	404	-22.3	-41.5	108	7	
2025-08-14T12:00	7520	403	-22.4	-42.5	107	7	
2025-08-14T12:00	7540	402	-22.5	-42.5	107	7	
2025-08-14T12:00	7560	400	-22.7	-42.6	107	7	
2025-08-14T12:00	7580	399	-22.8	-43.0	106	7	
2025-08-14T12:00	7600	398	-23.0	-42.4	106	7	
2025-08-14T12:00	7620	397	-23.2	-41.6	106	7	
2025-08-14T12:00	7640	396	-23.3	-41.4	106	7	
2025-08-14T12:00	7660	395	-23.5	-41.0	106	7	
2025-08-14T12:00	7680	394	-23.7	-40.5	107	7	
2025-08-14T12:00	7700	393	-23.9	-40.0	108	7	
2025-08-14T12:00	7720	392	-24.1	-39.9	110	7	
2025-08-14T12:00	7740	391	-24.3	-40.0	111	7	
2025-08-14T12:00	7760	389	-24.5	-40.0	113	6	
2025-08-14T12:00	7780	388	-24.7	-39.9	114	6	
2025-08-14T12:00	7800	387	-24.8	-39.4	115	6	
2025-08-14T12:00	7820	386	-25.0	-38.9	114	6	
2025-08-14T12:00	7840	385	-25.2	-39.1	114	6	
2025-08-14T12:00	7860	384	-25.4	-39.3	111	6	
2025-08-14T12:00	7880	383	-25.6	-39.2	109	6	
2025-08-14T12:00	7900	382	-25.8	-39.0	107	6	
2025-08-14T12:00	7920	381	-26.0	-39.0	106	5	
2025-08-14T12:00	7940	380	-26.2	-38.7	104	5	
2025-08-14T12:00	7960	379	-26.4	-38.5	103	5	
2025-08-14T12:00	7980	378	-26.6	-38.5	103	5	
2025-08-14T12:00	8000	377	-26.8	-38.4	103	5	
2025-08-14T12:00	8020	376	-27.0	-38.2	104	5	
2025-08-14T12:00	8040	375	-27.1	-38.3	105	5	
2025-08-14T12:00	8060	374	-27.3	-38.1	106	5	
2025-08-14T12:00	8080	373	-27.5	-37.6	107	5	
2025-08-14T12:00	8100	372	-27.7	-37.6	108	5	
2025-08-14T12:00	8120	371	-27.9	-37.9	109	5	
2025-08-14T12:00	8140	370	-28.1	-38.0	109	6	
2025-08-14T12:00	8160	369	-28.3	-38.2	108	6	
2025-08-14T12:00	8180	368	-28.5	-38.6	108	6	
2025-08-14T12:00	8200	367	-28.7	-39.1	107	6	
2025-08-14T12:00	8220	365	-28.8	-39.4	107	6	
2025-08-14T12:00	8240	364	-29.0	-39.6	107	6	
2025-08-14T12:00	8260	363	-29.2	-40.3	107	6	
2025-08-14T12:00	8280	362	-29.4	-40.6	108	7	
2025-08-14T12:00	8300	361	-29.6	-41.1	107	7	
2025-08-14T12:00	8320	360	-29.8	-42.1	107	7	
2025-08-14T12:00	8340	359	-29.9	-42.1	106	7	
2025-08-14T12:00	8360	358	-30.1	-41.9	105	7	
2025-08-14T12:00	8380	357	-30.3	-41.9	104	7	
2025-08-14T12:00	8400	356	-30.4	-42.4	102	7	
2025-08-14T12:00	8420	355	-30.6	-42.3	100	7	
2025-08-14T12:00	8440	354	-30.8	-42.7	99	7	
2025-08-14T12:00	8460	353	-30.9	-42.9	98	7	
2025-08-14T12:00	8480	352	-31.0	-42.3	97	7	
2025-08-14T12:00	8500	351	-31.2	-40.6	96	7	
2025-08-14T12:00	8520	350	-31.3	-43.8	96	7	
2025-08-14T12:00	8540	349	-31.4	-45.4	94	7	
2025-08-14T12:00	8560	348	-31.5	-45.2	93	7	
2025-08-14T12:00	8580	348	-31.6	-43.8	92	7	
2025-08-14T12:00	8600	347	-31.8	-43.1	92	7	
2025-08-14T12:00	8620	346	-32.0	-42.4	93	7	
2025-08-14T12:00	8640	345	-32.2	-41.9	94	6	
2025-08-14T12:00	8660	344	-32.4	-41.1	96	6	
2025-08-14T12:00	8680	343	-32.5	-41.5	96	7	
2025-08-14T12:00	8700	342	-32.7	-41.9	96	6	
2025-08-14T12:00	8720	341	-32.9	-41.7	96	6	
2025-08-14T12:00	8740	340	-33.2	-41.5	94	6	
2025-08-14T12:00	8760	339	-33.4	-41.2	91	6	
2025-08-14T12:00	8780	338	-33.6	-40.5	89	6	
2025-08-14T12:00	8800	337	-33.7	-40.2	86	6	
2025-08-14T12:00	8820	336	-33.9	-39.8	84	6	
2025-08-14T12:00	8840	335	-34.0	-39.5	83	6	
2025-08-14T12:00	8860	334	-34.1	-41.3	83	7	
2025-08-14T12:00	8880	333	-34.1	-50.1	84	7	
2025-08-14T12:00	8900	332	-34.2	-54.1	84	7	
2025-08-14T12:00	8920	331	-34.2	-50.7	87	7	
2025-08-14T12:00	8940	330	-34.4	-48.0	90	8	
2025-08-14T12:00	8960	329	-34.5	-43.9	92	8	
2025-08-14T12:00	8980	328	-34.7	-40.1	94	8	
2025-08-14T12:00	9000	327	-34.9	-39.2	95	8	
2025-08-14T12:00	9020	326	-35.0	-39.8	96	8	
2025-08-14T12:00	9040	325	-35.2	-40.4	96	7	
2025-08-14T12:00	9060	324	-35.4	-40.5	96	7	
2025-08-14T12:00	9080	323	-35.5	-40.6	95	7	
2025-08-14T12:00	9100	323	-35.7	-41.0	94	7	
2025-08-14T12:00	9120	322	-35.9	-41.4	94	6	
2025-08-14T12:00	9140	321	-36.0	-41.2	93	6	
2025-08-14T12:00	9160	320	-36.2	-42.7	91	6	
2025-08-14T12:00	9180	319	-36.3	-44.5	90	6	
2025-08-14T12:00	9200	318	-36.5	-46.4	88	5	
2025-08-14T12:00	9220	317	-36.6	-47.3	87	5	
2025-08-14T12:00	9240	316	-36.6	-48.4	86	5	
2025-08-14T12:00	9260	315	-36.7	-49.3	85	5	
2025-08-14T12:00	9280	314	-36.8	-49.2	85	5	
2025-08-14T12:00	9300	313	-37.0	-50.5	87	6	
2025-08-14T12:00	9320	312	-37.1	-53.2	89	6	
2025-08-14T12:00	9340	312	-37.3	-53.4	91	6	
2025-08-14T12:00	9360	311	-37.4	-53.5	93	6	
2025-08-14T12:00	9380	310	-37.5	-53.3	94	6	
2025-08-14T12:00	9400	309	-37.7	-53.7	95	7	
2025-08-14T12:00	9420	308	-37.8	-54.1	95	7	
2025-08-14T12:00	9440	307	-38.0	-54.1	94	7	
2025-08-14T12:00	9460	306	-38.0	-54.3	93	7	
2025-08-14T12:00	9480	305	-38.0	-54.6	92	6	
2025-08-14T12:00	9500	304	-38.1	-54.6	90	6	
2025-08-14T12:00	9520	304	-38.2	-54.8	90	6	
2025-08-14T12:00	9540	303	-38.4	-54.9	89	6	
2025-08-14T12:00	9560	302	-38.5	-55.0	89	6	
2025-08-14T12:00	9580	301	-38.7	-55.0	89	6	
2025-08-14T12:00	9600	300	-38.8	-55.7	89	6	
2025-08-14T12:00	9620	299	-38.9	-55.9	90	6	
2025-08-14T12:00	9640	298	-39.0	-55.6	91	6	
2025-08-14T12:00	9660	297	-39.1	-56.0	93	6	
2025-08-14T12:00	9680	297	-39.1	-56.3	93	6	
2025-08-14T12:00	9700	296	-39.3	-56.3	94	6	
2025-08-14T12:00	9720	295	-39.5	-56.3	94	6	
2025-08-14T12:00	9740	294	-39.6	-56.2	94	6	
2025-08-14T12:00	9760	293	-39.7	-56.3	93	6	
2025-08-14T12:00	9780	292	-39.8	-56.5	92	6	
2025-08-14T12:00	9800	291	-39.9	-56.6	91	6	
2025-08-14T12:00	9820	291	-40.1	-56.6	88	6	
2025-08-14T12:00	9840	290	-40.2	-56.9	85	6	
2025-08-14T12:00	9860	289	-40.3	-56.8	82	6	
2025-08-14T12:00	9880	288	-40.4	-55.5	78	6	
2025-08-14T12:00	9900	287	-40.5	-54.9	74	6	
2025-08-14T12:00	9920	286	-40.7	-55.2	70	6	
2025-08-14T12:00	9940	285	-40.7	-55.9	65	6	
2025-08-14T12:00	9960	285	-40.8	-56.4	61	6	
2025-08-14T12:00	9980	284	-40.9	-57.6	57	6	
2025-08-14T12:00	10000	283	-41.0	-58.6	52	6	
2025-08-14T12:00	10018	282	-41.1	-59.1	50	6	
2025-08-14T12:00	10050	281	-41.3	-60.6	45	6	
2025-08-14T12:00	10100	279	-41.6	-59.2	35	6	
2025-08-14T12:00	10150	277	-41.9	-58.0	24	7	
2025-08-14T12:00	10200	275	-42.2	-58.0	18	7	
2025-08-14T12:00	10250	273	-42.5	-58.3	18	6	
2025-08-14T12:00	10300	271	-42.9	-58.7	20	6	
2025-08-14T12:00	10350	269	-43.3	-58.9	21	6	
2025-08-14T12:00	10400	267	-43.7	-58.7	24	6	
2025-08-14T12:00	10450	265	-44.1	-58.6	31	6	
2025-08-14T12:00	10500	263	-44.5	-58.8	38	6	
2025-08-14T12:00	10550	261	-44.9	-59.0	45	7	
2025-08-14T12:00	10600	259	-45.1	-59.5	45	6	
2025-08-14T12:00	10650	257	-45.0	-59.7	36	6	
2025-08-14T12:00	10700	255	-45.4	-59.6	26	6	
2025-08-14T12:00	10750	253	-45.8	-59.5	21	7	
2025-08-14T12:00	10800	251	-46.3	-58.9	20	7	
2025-08-14T12:00	10850	249	-46.8	-58.6	21	7	
2025-08-14T12:00	10900	248	-47.2	-58.6	22	7	
2025-08-14T12:00	10950	246	-47.6	-58.3	20	7	
2025-08-14T12:00	11000	244	-48.0	-57.9	15	8	
2025-08-14T12:00	11050	242	-48.4	-57.7	10	8	
2025-08-14T12:00	11100	240	-48.7	-58.5	11	7	
2025-08-14T12:00	11150	238	-49.1	-60.1	16	7	
2025-08-14T12:00	11200	236	-49.3	-61.6	22	6	
2025-08-14T12:00	11250	235	-49.5	-61.9	22	6	
2025-08-14T12:00	11300	233	-49.7	-62.5	16	5	
2025-08-14T12:00	11350	231	-50.0	-62.7	10	5	
2025-08-14T12:00	11400	229	-50.4	-62.9	7	6	
2025-08-14T12:00	11450	228	-50.9	-63.0	5	6	
2025-08-14T12:00	11500	226	-51.3	-63.0	3	6	
2025-08-14T12:00	11550	224	-51.7	-63.3	357	5	
2025-08-14T12:00	11600	222	-52.0	-63.6	346	5	
2025-08-14T12:00	11650	221	-52.4	-63.7	331	5	
2025-08-14T12:00	11700	219	-52.8	-63.8	327	6	
2025-08-14T12:00	11750	217	-53.3	-63.7	330	7	
2025-08-14T12:00	11800	216	-53.8	-63.9	332	8	
2025-08-14T12:00	11850	214	-54.0	-63.7	331	8	
2025-08-14T12:00	11900	212	-53.9	-64.1	332	8	
2025-08-14T12:00	11950	211	-53.9	-65.8	332	8	
2025-08-14T12:00	12000	209	-53.8	-65.9	336	8	
2025-08-14T12:00	12050	207	-54.0	-65.4	344	7	
2025-08-14T12:00	12100	206	-54.1	-65.8	355	6	
2025-08-14T12:00	12150	204	-53.7	-68.1	12	5	
2025-08-14T12:00	12200	203	-53.1	-70.6	37	5	
2025-08-14T12:00	12250	201	-52.8	-71.1	57	5	
2025-08-14T12:00	12300	200	-52.8	-71.5	69	6	
2025-08-14T12:00	12350	198	-52.8	-71.7	78	6	
2025-08-14T12:00	12400	196	-53.0	-71.9	85	7	
2025-08-14T12:00	12450	195	-53.0	-72.6	91	8	
2025-08-14T12:00	12500	193	-52.7	-73.4	96	9	
2025-08-14T12:00	12550	192	-52.6	-73.9	103	10	
2025-08-14T12:00	12600	190	-52.1	-75.1	108	11	
2025-08-14T12:00	12650	189	-51.8	-75.7	113	11	
2025-08-14T12:00	12700	187	-51.9	-76.0	120	10	
2025-08-14T12:00	12750	186	-51.6	-76.6	130	10	
2025-08-14T12:00	12800	184	-51.3	-76.5	145	10	
2025-08-14T12:00	12850	183	-51.3	-76.7	158	10	
2025-08-14T12:00	12900	182	-50.9	-77.3	167	9	
2025-08-14T12:00	12950	180	-50.6	-77.7	171	9	
2025-08-14T12:00	13000	179	-50.6	-77.7	173	9	
2025-08-14T12:00	13050	178	-50.6	-77.9	179	9	
2025-08-14T12:00	13100	176	-50.7	-77.9	187	10	
2025-08-14T12:00	13150	175	-50.9	-77.9	192	10	
2025-08-14T12:00	13200	174	-50.8	-78.2	194	10	
2025-08-14T12:00	13250	172	-50.7	-78.5	198	10	
2025-08-14T12:00	13300	171	-50.7	-78.8	204	10	
2025-08-14T12:00	13350	170	-51.0	-79.0	205	10	
2025-08-14T12:00	13400	168	-51.0	-79.2	198	10	
2025-08-14T12:00	13450	167	-50.9	-79.5	190	10	
2025-08-14T12:00	13500	166	-50.9	-79.6	188	11	
2025-08-14T12:00	13550	164	-51.1	-79.7	186	11	
2025-08-14T12:00	13600	163	-51.5	-79.8	184	12	
2025-08-14T12:00	13650	162	-51.7	-79.9	184	12	
2025-08-14T12:00	13700	161	-51.7	-80.1	185	13	
2025-08-14T12:00	13750	160	-51.8	-80.4	183	15	
2025-08-14T12:00	13800	158	-51.8	-80.6	183	15	
2025-08-14T12:00	13850	157	-52.0	-80.8	185	16	
2025-08-14T12:00	13900	156	-52.2	-80.8	189	15	
2025-08-14T12:00	13950	155	-52.3	-80.8	195	15	
2025-08-14T12:00	14000	153	-52.4	-80.9	201	14	
2025-08-14T12:00	14050	152	-52.4	-80.8	206	14	
2025-08-14T12:00	14100	151	-52.6	-80.9	210	13	
2025-08-14T12:00	14150	150	-52.6	-80.8	212	13	
2025-08-14T12:00	14200	149	-53.0	-80.9	212	12	
2025-08-14T12:00	14250	148	-53.4	-81.1	214	11	
2025-08-14T12:00	14300	146	-53.8	-81.2	219	11	
2025-08-14T12:00	14350	145	-54.1	-81.4	223	10	
2025-08-14T12:00	14400	144	-54.3	-81.5	226	10	
2025-08-14T12:00	14450	143	-54.7	-81.5	229	9	
2025-08-14T12:00	14500	142	-54.9	-81.7	233	7	
2025-08-14T12:00	14550	141	-54.9	-81.7	233	6	
2025-08-14T12:00	14600	140	-55.1	-81.8	224	5	
2025-08-14T12:00	14650	139	-55.2	-81.8	210	5	
2025-08-14T12:00	14700	138	-55.6	-81.7	200	5	
2025-08-14T12:00	14750	137	-55.9	-81.7	198	7	
2025-08-14T12:00	14800	135	-56.2	-81.7	201	8	
2025-08-14T12:00	14850	134	-56.5	-81.7	203	10	
2025-08-14T12:00	14900	133	-56.7	-81.8	205	10	
2025-08-14T12:00	14950	132	-56.7	-81.9	208	11	
2025-08-14T12:00	15000	131	-56.9	-82.1	212	11	
2025-08-14T12:00	15050	130	-56.5	-82.2	216	11	
2025-08-14T12:00	15100	129	-56.1	-82.3	219	11	
2025-08-14T12:00	15150	128	-56.0	-82.4	223	11	
2025-08-14T12:00	15200	127	-56.1	-82.6	226	12	
2025-08-14T12:00	15250	126	-56.1	-82.6	228	11	
2025-08-14T12:00	15300	125	-56.0	-82.6	229	10	
2025-08-14T12:00	15350	124	-56.2	-82.7	228	9	
2025-08-14T12:00	15400	123	-56.5	-82.8	224	9	
2025-08-14T12:00	15450	122	-56.7	-83.0	221	9	
2025-08-14T12:00	15500	121	-56.9	-83.2	219	9	
2025-08-14T12:00	15550	120	-56.9	-83.3	219	10	
2025-08-14T12:00	15600	119	-56.8	-83.3	220	10	
2025-08-14T12:00	15650	118	-56.9	-83.4	220	10	
2025-08-14T12:00	15700	118	-56.9	-83.3	220	11	
2025-08-14T12:00	15750	117	-57.1	-83.4	220	11	
2025-08-14T12:00	15800	116	-57.3	-83.4	221	10	
2025-08-14T12:00	15850	115	-57.2	-83.3	223	10	
2025-08-14T12:00	15900	114	-57.4	-83.5	222	9	
2025-08-14T12:00	15950	113	-57.5	-83.6	218	8	
2025-08-14T12:00	16000	112	-57.5	-83.6	217	8	
2025-08-14T12:00	16050	111	-57.6	-83.7	214	8	
2025-08-14T12:00	16100	110	-57.5	-83.9	206	8	
2025-08-14T12:00	16150	109	-57.4	-83.9	195	8	
2025-08-14T12:00	16200	109	-57.6	-83.9	188	9	
2025-08-14T12:00	16250	108	-58.0	-84.0	185	10	
2025-08-14T12:00	16300	107	-58.4	-83.9	186	11	
2025-08-14T12:00	16350	106	-58.8	-83.9	189	12	
2025-08-14T12:00	16400	105	-59.2	-84.0	190	12	
2025-08-14T12:00	16450	104	-59.4	-84.1	191	11	
2025-08-14T12:00	16500	104	-59.5	-84.1	191	10	
2025-08-14T12:00	16550	103	-59.5	-84.2	194	9	
2025-08-14T12:00	16600	102	-59.3	-84.1	200	10	
2025-08-14T12:00	16650	101	-59.2	-84.0	205	10	
2025-08-14T12:00	16700	100	-59.0	-83.6	208	10	
2025-08-14T12:00	16750	99	-59.1	-83.7	212	9	
2025-08-14T12:00	16800	99	-59.2	-83.9	215	8	
2025-08-14T12:00	16850	98	-59.0	-84.1	214	8	
2025-08-14T12:00	16900	97	-59.0	-84.2	212	7	
2025-08-14T12:00	16950	96	-59.1	-84.2	211	6	
2025-08-14T12:00	17000	96	-59.4	-84.3	205	5	
2025-08-14T12:00	17050	95	-59.6	-84.4	194	5	
2025-08-14T12:00	17100	94	-59.7	-84.6	183	5	
2025-08-14T12:00	17150	93	-59.6	-84.6	178	5	
2025-08-14T12:00	17200	93	-59.6	-84.7	182	6	
2025-08-14T12:00	17250	92	-60.0	-84.7	186	7	
2025-08-14T12:00	17300	91	-60.4	-84.8	191	8	
2025-08-14T12:00	17350	90	-60.8	-84.9	193	9	
2025-08-14T12:00	17400	90	-61.0	-85.1	193	8	
2025-08-14T12:00	17450	89	-60.7	-85.1	189	6	
2025-08-14T12:00	17500	88	-60.6	-85.2	185	5	
2025-08-14T12:00	17550	87	-60.7	-85.3	176	4	
2025-08-14T12:00	17600	87	-60.9	-85.4	160	4	
2025-08-14T12:00	17650	86	-61.0	-85.5	150	5	
2025-08-14T12:00	17700	85	-60.9	-85.5	153	6	
2025-08-14T12:00	17750	85	-60.8	-85.5	162	7	
2025-08-14T12:00	17800	84	-60.8	-85.6	171	7	
2025-08-14T12:00	17850	83	-60.7	-85.6	179	6	
2025-08-14T12:00	17900	83	-60.8	-85.8	186	6	
2025-08-14T12:00	17950	82	-60.6	-85.8	188	7	
2025-08-14T12:00	18000	81	-60.7	-86.0	183	6	
2025-08-14T12:00	18050	81	-60.3	-86.0	174	6	
2025-08-14T12:00	18100	80	-60.2	-86.2	165	7	
2025-08-14T12:00	18150	79	-59.7	-86.0	162	7	
2025-08-14T12:00	18200	79	-59.7	-86.0	166	7	
2025-08-14T12:00	18250	78	-59.7	-86.0	174	7	
2025-08-14T12:00	18300	78	-59.8	-86.0	180	7	
2025-08-14T12:00	18350	77	-59.8	-86.0	184	7	
2025-08-14T12:00	18400	76	-59.8	-86.1	185	7	
2025-08-14T12:00	18450	76	-59.7	-86.1	180	6	
2025-08-14T12:00	18500	75	-59.8	-86.1	172	5	
2025-08-14T12:00	18550	75	-60.0	-86.1	161	5	
2025-08-14T12:00	18600	74	-60.1	-86.1	153	6	
2025-08-14T12:00	18650	73	-59.9	-86.2	154	7	
2025-08-14T12:00	18700	73	-60.1	-86.3	158	7	
2025-08-14T12:00	18750	72	-60.0	-86.3	160	6	
2025-08-14T12:00	18800	72	-59.9	-86.4	158	5	
2025-08-14T12:00	18850	71	-59.6	-86.5	158	6	
2025-08-14T12:00	18900	70	-59.3	-86.4	159	6	
2025-08-14T12:00	18950	70	-59.3	-86.4	157	6	
2025-08-14T12:00	19000	69	-59.2	-86.4	156	5	
2025-08-14T12:00	19050	69	-59.1	-86.4	165	5	
2025-08-14T12:00	19100	68	-58.9	-86.3	179	5	
2025-08-14T12:00	19150	68	-58.7	-86.3	189	4	
2025-08-14T12:00	19200	67	-58.4	-86.3	195	4	
2025-08-14T12:00	19250	67	-58.3	-86.2	200	4	
2025-08-14T12:00	19300	66	-58.0	-86.0	201	6	
2025-08-14T12:00	19350	66	-58.1	-86.1	201	6	
2025-08-14T12:00	19400	65	-58.1	-86.1	202	6	
2025-08-14T12:00	19450	65	-57.9	-86.0	204	5	
2025-08-14T12:00	19500	64	-58.0	-86.0	201	3	
2025-08-14T12:00	19550	64	-58.1	-86.1	181	2	
2025-08-14T12:00	19600	63	-58.1	-86.0	142	2	
2025-08-14T12:00	19650	63	-58.2	-86.0	118	3	
2025-08-14T12:00	19700	62	-58.4	-86.1	110	3	
2025-08-14T12:00	19750	62	-58.3	-86.1	112	3	
2025-08-14T12:00	19800	61	-58.2	-86.2	118	4	
2025-08-14T12:00	19850	61	-57.9	-86.3	120	5	
2025-08-14T12:00	19900	60	-57.3	-86.1	115	5	
2025-08-14T12:00	19950	60	-57.3	-86.0	112	6	
2025-08-14T12:00	20000	59	-57.4	-85.8	113	5	
2025-08-14T12:00	20050	59	-57.8		118	5	
2025-08-14T12:00	20100	58	-58.1		119	5	
2025-08-14T12:00	20150	58	-58.4		111	4	
2025-08-14T12:00	20200	57	-58.6		96	3	
2025-08-14T12:00	20250	57	-58.7		85	4	
2025-08-14T12:00	20300	56	-58.6		82	4	
2025-08-14T12:00	20350	56	-58.6		84	5	
2025-08-14T12:00	20400	56	-58.4		89	6	
2025-08-14T12:00	20450	55	-58.5		95	7	
2025-08-14T12:00	20500	55	-58.6		101	8	
2025-08-14T12:00	20550	54	-58.8		106	9	
2025-08-14T12:00	20600	54	-58.9		112	9	
2025-08-14T12:00	20650	53	-58.8		118	9	
2025-08-14T12:00	20700	53	-58.7		124	10	
2025-08-14T12:00	20750	52	-58.4		125	10	
2025-08-14T12:00	20800	52	-58.4		125	9	
2025-08-14T12:00	20850	52	-58.1		127	9	
2025-08-14T12:00	20900	51	-57.8		129	9	
2025-08-14T12:00	20950	51	-57.6		131	8	
2025-08-14T12:00	21000	50	-57.3		132	8	
2025-08-14T12:00	21050	50	-56.9		130	8	
2025-08-14T12:00	21100	50	-56.8		127	9	
2025-08-14T12:00	21150	49	-56.8		125	10	
2025-08-14T12:00	21200	49	-57.0		126	11	
2025-08-14T12:00	21250	49	-57.3		128	12	
2025-08-14T12:00	21300	48	-57.4		132	12	
2025-08-14T12:00	21350	48	-57.2		137	11	
2025-08-14T12:00	21400	47	-57.3		139	10	
2025-08-14T12:00	21450	47	-57.2		139	10	
2025-08-14T12:00	21500	47	-56.8		141	10	
2025-08-14T12:00	21550	46	-56.5		144	10	
2025-08-14T12:00	21600	46	-55.8		149	10	
2025-08-14T12:00	21650	46	-55.6		152	9	
2025-08-14T12:00	21700	45	-55.7		154	8	
2025-08-14T12:00	21750	45	-55.6		152	8	
2025-08-14T12:00	21800	44	-55.7		147	7	
2025-08-14T12:00	21850	44	-55.9		140	7	
2025-08-14T12:00	21900	44	-56.1		133	7	
2025-08-14T12:00	21950	43	-56.0		130	6	
2025-08-14T12:00	22000	43	-55.8		134	5	
2025-08-14T12:00	22050	43	-55.9		137	5	
2025-08-14T12:00	22100	42	-56.1		127	4	
2025-08-14T12:00	22150	42	-55.9		96	4	
2025-08-14T12:00	22200	42	-55.1		73	5	
2025-08-14T12:00	22250	41	-54.9		69	7	
2025-08-14T12:00	22300	41	-54.9		72	7	
2025-08-14T12:00	22350	41	-54.9		81	7	
2025-08-14T12:00	22400	40	-54.9		91	7	
2025-08-14T12:00	22450	40	-54.9		97	8	
2025-08-14T12:00	22500	40	-54.8		98	8	
2025-08-14T12:00	22550	40	-54.6		98	9	
2025-08-14T12:00	22600	39	-54.7		101	8	
2025-08-14T12:00	22650	39	-54.9		102	8	
2025-08-14T12:00	22700	39	-54.8		97	7	
2025-08-14T12:00	22750	38	-54.8		90	7	
2025-08-14T12:00	22800	38	-54.8		87	7	
2025-08-14T12:00	22850	38	-54.9		87	7	
2025-08-14T12:00	22900	37	-54.8		89	8	
2025-08-14T12:00	22950	37	-54.6		93	9	
2025-08-14T12:00	23000	37	-54.4		99	9	
2025-08-14T12:00	23050	37	-54.2		105	8	
2025-08-14T12:00	23100	36	-54.1		107	8	
2025-08-14T12:00	23150	36	-54.0		109	8	
2025-08-14T12:00	23200	36	-53.6		111	8	
2025-08-14T12:00	23250	35	-53.3		114	8	
2025-08-14T12:00	23300	35	-53.2		118	8	
2025-08-14T12:00	23350	35	-53.3		123	8	
2025-08-14T12:00	23400	35	-53.4		125	8	
2025-08-14T12:00	23450	34	-53.5		124	7	
2025-08-14T12:00	23500	34	-53.5		121	7	
2025-08-14T12:00	23550	34	-53.6		114	6	
2025-08-14T12:00	23600	34	-53.5		106	7	
2025-08-14T12:00	23650	33	-53.4		102	8	
2025-08-14T12:00	23700	33	-53.5		104	8	
2025-08-14T12:00	23750	33	-53.4		108	8	
2025-08-14T12:00	23800	33	-53.3		113	7	
2025-08-14T12:00	23850	32	-53.4		116	6	
2025-08-14T12:00	23900	32	-53.5		116	6	
2025-08-14T12:00	23950	32	-53.6		113	6	
2025-08-14T12:00	24000	32	-53.5		107	7	
2025-08-14T12:00	24050	31	-53.4		104	8	
2025-08-14T12:00	24100	31	-53.1		104	9	
2025-08-14T12:00	24150	31	-52.5		107	10	
2025-08-14T12:00	24200	31	-51.6		109	10	
2025-08-14T12:00	24250	30	-51.2		108	11	
2025-08-14T12:00	24300	30	-51.3		107	12	
2025-08-14T12:00	24350	30	-50.8		110	13	
2025-08-14T12:00	24400	30	-50.7		114	13	
2025-08-14T12:00	24450	29	-50.8		119	13	
2025-08-14T12:00	24500	29	-51.1		124	13	
2025-08-14T12:00	24550	29	-51.5		130	13	
2025-08-14T12:00	24600	29	-51.5		134	12	
2025-08-14T12:00	24650	29	-51.4		137	12	
2025-08-14T12:00	24700	28	-51.3		139	11	
2025-08-14T12:00	24750	28	-51.1		140	10	
2025-08-14T12:00	24800	28	-50.9		140	9	
2025-08-14T12:00	24850	28	-51.0		142	9	
2025-08-14T12:00	24900	27	-51.1		150	8	
2025-08-14T12:00	24950	27	-51.0		158	8	
2025-08-14T12:00	25000	27	-50.8		164	8	
2025-08-14T12:00	25050	27	-50.2		166	7	
2025-08-14T12:00	25100	27	-49.9		165	6	
2025-08-14T12:00	25150	26	-49.9		161	4	
2025-08-14T12:00	25200	26	-49.9		145	2	
2025-08-14T12:00	25250	26	-49.8		103	2	
2025-08-14T12:00	25300	26	-50.0		76	2	
2025-08-14T12:00	25350	26	-50.0		83	2	
2025-08-14T12:00	25400	25	-49.7		108	3	
2025-08-14T12:00	25450	25	-49.5		122	3	
2025-08-14T12:00	25500	25	-49.4		119	4	
2025-08-14T12:00	25550	25	-49.3		106	4	
2025-08-14T12:00	25600	25	-49.2		90	4	
2025-08-14T12:00	25650	24	-49.2		77	5	
2025-08-14T12:00	25700	24	-49.0		70	6	
2025-08-14T12:00	25750	24	-48.9		66	7	
2025-08-14T12:00	25800	24	-49.0		67	7	
2025-08-14T12:00	25850	24	-48.9		68	7	
2025-08-14T12:00	25900	24	-48.8		69	7	
2025-08-14T12:00	25950	23	-48.7		71	7	
2025-08-14T12:00	26000	23	-48.4		72	7	
2025-08-14T12:00	26050	23	-48.1		72	8	
2025-08-14T12:00	26100	23	-48.1		75	9	
2025-08-14T12:00	26150	23	-48.2		81	9	
2025-08-14T12:00	26200	23	-48.3		87	10	
2025-08-14T12:00	26250	22	-48.4		92	10	
2025-08-14T12:00	26300	22	-48.6		97	11	
2025-08-14T12:00	26350	22	-48.8		103	11	
2025-08-14T12:00	26400	22	-48.9		109	10	
2025-08-14T12:00	26450	22	-48.7		114	9	
2025-08-14T12:00	26500	22	-48.6		118	8	
2025-08-14T12:00	26550	21	-48.6		117	7	
2025-08-14T12:00	26600	21	-48.7		111	7	
2025-08-14T12:00	26650	21	-48.6		103	7	
2025-08-14T12:00	26700	21	-48.5		98	7	
2025-08-14T12:00	26750	21	-48.3		96	8	
2025-08-14T12:00	26800	21	-47.9		100	9	
2025-08-14T12:00	26850	20	-47.6		105	10	
2025-08-14T12:00	26900	20	-47.6		111	9	
2025-08-14T12:00	26950	20	-47.4		115	8	
2025-08-14T12:00	27000	20	-47.2		117	8	
2025-08-14T12:00	27050	20	-47.1		117	8	
2025-08-14T12:00	27100	20	-46.9		116	8	
2025-08-14T12:00	27150	19	-46.9		116	8	
2025-08-14T12:00	27200	19	-46.8		119	7	
2025-08-14T12:00	27250	19	-46.7		125	6	
2025-08-14T12:00	27300	19	-46.6		132	6	
2025-08-14T12:00	27350	19	-46.4		134	5	
2025-08-14T12:00	27400	19	-46.2		132	5	
2025-08-14T12:00	27450	19	-46.1		126	5	
2025-08-14T12:00	27500	18	-46.2		116	4	
2025-08-14T12:00	27550	18	-46.4		100	3	
2025-08-14T12:00	27600	18	-46.4		76	3	
2025-08-14T12:00	27650	18	-46.4		59	4	
2025-08-14T12:00	27700	18	-46.3		49	5	
2025-08-14T12:00	27750	18	-46.0		46	6	
2025-08-14T12:00	27800	18	-45.6		48	7	
2025-08-14T12:00	27850	18	-45.4		50	8	
2025-08-14T12:00	27900	17	-45.5		54	9	
2025-08-14T12:00	27950	17	-45.8		59	9	
2025-08-14T12:00	28000	17	-46.0		66	9	
2025-08-14T12:00	28050	17	-46.2		74	9	
2025-08-14T12:00	28100	17	-46.3		83	9	
2025-08-14T12:00	28150	17	-46.5		92	10	
2025-08-14T12:00	28200	17	-46.7		99	10	
2025-08-14T12:00	28250	17	-46.9		105	9	
2025-08-14T12:00	28300	16	-46.9		107	8	
2025-08-14T12:00	28350	16	-46.8		105	8	
2025-08-14T12:00	28400	16	-46.7		100	7	
2025-08-14T12:00	28450	16	-46.6		90	7	
2025-08-14T12:00	28500	16	-46.4		81	8	
2025-08-14T12:00	28550	16	-46.2		74	9	
2025-08-14T12:00	28600	16	-46.2		71	10	
2025-08-14T12:00	28650	16	-46.0		71	10	
2025-08-14T12:00	28700	15	-45.7		71	10	
2025-08-14T12:00	28750	15	-45.8		74	10	
2025-08-14T12:00	28800	15	-45.9		78	10	
2025-08-14T12:00	28850	15	-46.0		83	10	
2025-08-14T12:00	28900	15	-46.1		88	10	
2025-08-14T12:00	28950	15	-46.0		90	10	
2025-08-14T12:00	29000	15	-46.1		90	10	
2025-08-14T12:00	29050	15	-46.2		89	11	
2025-08-14T12:00	29100	15	-46.1		89	12	
2025-08-14T12:00	29150	14	-46.0		91	13	
2025-08-14T12:00	29200	14	-45.8		92	13	
2025-08-14T12:00	29250	14	-45.6		92	13	
2025-08-14T12:00	29300	14	-45.3		92	12	
2025-08-14T12:00	29350	14	-45.3		90	11	
2025-08-14T12:00	29400	14	-45.4		88	11	
2025-08-14T12:00	29450	14	-45.3		90	12	
2025-08-14T12:00	29500	14	-45.2		94	13	
2025-08-14T12:00	29550	14	-45.0		97	13	
2025-08-14T12:00	29600	13	-44.6		96	12	
2025-08-14T12:00	29650	13	-44.4		92	11	
2025-08-14T12:00	29700	13	-44.1		87	10	
2025-08-14T12:00	29750	13	-44.0		85	10	
2025-08-14T12:00	29800	13	-43.8		86	10	
2025-08-14T12:00	29850	13	-43.6		88	10	
2025-08-14T12:00	29900	13	-43.4		87	10	
2025-08-14T12:00	29950	13	-43.2		83	10	
2025-08-14T12:00	30000	13	-43.1		77	9	
2025-08-14T12:00	30050	13	-42.9		76	10	
2025-08-14T12:00	30100	13	-42.6		79	11	
2025-08-14T12:00	30150	12	-42.4		83	11	
2025-08-14T12:00	30200	12	-42.4		86	11	
2025-08-14T12:00	30250	12	-42.3		88	10	
2025-08-14T12:00	30300	12	-42.4		87	10	
2025-08-14T12:00	30350	12	-42.5		84	9	
2025-08-14T12:00	30400	12	-42.5		80	8	
2025-08-14T12:00	30450	12	-42.4		77	8	
2025-08-14T12:00	30500	12	-42.3		76	8	
2025-08-14T12:00	30550	12	-42.3		76	8	
2025-08-14T12:00	30600	12	-42.4		77	9	
2025-08-14T12:00	30650	12	-42.4		79	9	
2025-08-14T12:00	30700	11	-42.3		81	9	
2025-08-14T12:00	30750	11	-42.3		84	10	
2025-08-14T12:00	30800	11	-42.2		86	11	
2025-08-14T12:00	30850	11	-42.1		89	12	
2025-08-14T12:00	30900	11	-42.0		92	13	
2025-08-14T12:00	30950	11	-41.9		94	13	
2025-08-14T12:00	31000	11	-41.9		96	12	
2025-08-14T12:00	31050	11	-41.8		96	11	
2025-08-14T12:00	31100	11	-41.8		95	10	
2025-08-14T12:00	31150	11	-41.9		94	8	
2025-08-14T12:00	31200	11	-42.0		95	7	
2025-08-14T12:00	31250	11	-42.2		93	7	
2025-08-14T12:00	31300	10	-42.2		89	7	
2025-08-14T12:00	31350	10	-42.3		85	7	
2025-08-14T12:00	31400	10	-42.4		84	8	
2025-08-14T12:00	31450	10	-42.3		86	9	
2025-08-14T12:00	31500	10	-42.2		88	10	
2025-08-14T12:00	31550	10	-41.9		89	10	
2025-08-14T12:00	31600	10	-41.4		89	10	
2025-08-14T12:00	31650	10	-41.1		89	10	
2025-08-14T12:00	31700	10	-40.9		87	10	
2025-08-14T12:00	31750	10	-40.6		86	11	
2025-08-14T12:00	31800	10	-40.5		86	11	
2025-08-14T12:00	31850	10	-40.2		88	12	
2025-08-14T12:00	31900	10	-40.0		92	13	
2025-08-14T12:00	31950	10	-39.9		95	13	
2025-08-14T12:00	32000	9	-39.8		97	13	
2025-08-14T12:00	32050	9	-39.6		96	13	
2025-08-14T12:00	32100	9	-39.4		93	12	
2025-08-14T12:00	32150	9	-39.3		91	12	
2025-08-14T12:00	32200	9	-39.2		92	12	
2025-08-14T12:00	32250	9	-39.0		97	13	
2025-08-14T12:00	32300	9	-38.8		102	14	
2025-08-14T12:00	32350	9	-38.8		107	15	
2025-08-14T12:00	32400	9	-38.7		108	15	
2025-08-14T12:00	32450	9	-38.7		107	14	
2025-08-14T12:00	32500	9	-38.6		105	13	
2025-08-14T12:00	32550	9	-38.6		102	12	
2025-08-14T12:00	32600	9	-38.7		99	11	
2025-08-14T12:00	32650	9	-38.6		97	12	
2025-08-14T12:00	32700	9	-38.4		96	12	
2025-08-14T12:00	32750	8	-38.2		97	13	
2025-08-14T12:00	32800	8	-38.1		99	13	
2025-08-14T12:00	32850	8	-37.9		98	13	
2025-08-14T12:00	32900	8	-37.6		95	13	
2025-08-14T12:00	32950	8	-37.4		92	13	
2025-08-14T12:00	33000	8	-37.4		91	13	
2025-08-14T12:00	33050	8	-37.4		91	12	
2025-08-14T12:00	33100	8	-37.6		90	12	
2025-08-14T12:00	33150	8	-37.6		89	12	
2025-08-14T12:00	33200	8	-37.5		90	13	
2025-08-14T12:00	33250	8	-37.5		92	15	
2025-08-14T12:00	33300	8	-37.5		94	16	
2025-08-14T12:00	33350	8	-37.3		96	17	
2025-08-14T12:00	33400	8	-37.1		95	16	
2025-08-14T12:00	33450	8	-36.9		94	16	
2025-08-14T12:00	33500	8	-36.8		92	15	
2025-08-14T12:00	33550	8	-36.8		89	14	
2025-08-14T12:00	33600	7	-36.9		88	13	
2025-08-14T12:00	33650	7	-37.0		88	13	
2025-08-14T12:00	33700	7	-37.0		89	13	
2025-08-14T12:00	33750	7	-36.9		92	14	
2025-08-14T12:00	33800	7	-36.9		96	15	
2025-08-14T12:00	33850	7	-37.0		101	16	
2025-08-14T12:00	33900	7	-37.1		106	17	
2025-08-14T12:00	33950	7	-37.2		110	17	
2025-08-14T12:00	34000	7	-37.4		114	18	
2025-08-14T12:00	34050	7	-37.5		118	18	
2025-08-14T12:00	34100	7	-37.7		120	19	
2025-08-14T12:00	34150	7	-37.7		122	18	
2025-08-14T12:00	34200	7	-37.4		122	17	
2025-08-14T12:00	34250	7	-37.0		121	16	
2025-08-14T12:00	34300	7	-36.8		120	15	
2025-08-14T12:00	34350	7	-36.5		119	15	
2025-08-14T12:00	34400	7	-36.3		118	14	
2025-08-14T12:00	34450	7	-36.0		116	14	
2025-08-14T12:00	34500	7	-35.7		115	13	
2025-08-14T12:00	34550	7	-35.4		113	12	
2025-08-14T12:00	34600	6	-35.3		111	10	
2025-08-14T12:00	34650	6	-35.3		108	8	
2025-08-14T12:00	34700	6	-35.1		103	7	
2025-08-14T12:00	34750	6	-34.7		98	7	
2025-08-14T12:00	34800	6	-34.2		96	8	
2025-08-14T12:00	34850	6	-33.8		98	8	
2025-08-14T12:00	34900	6	-33.6		101	7	
2025-08-14T12:00	34950	6	-33.3		104	6	
2025-08-14T12:00	35000	6	-33.1		104	6	
2025-08-14T12:00	35050	6	-32.8		102	6	
2025-08-14T12:00	35100	6	-32.6		101	6	
2025-08-14T12:00	35150	6	-32.2		102	6	
2025-08-14T12:00	35200	6	-31.9		105	7	
2025-08-15T00:00	491	964	22.1	13.5	188	4	
2025-08-15T00:00	501	962	22.8	12.2	200	3	
2025-08-15T00:00	520	961	23.8	11.8	204	4	
2025-08-15T00:00	540	959	24.5	11.9	204	5	
2025-08-15T00:00	560	956	24.5	11.8	204	5	
2025-08-15T00:00	580	954	24.6	11.7	204	6	
2025-08-15T00:00	600	952	24.9	11.4	204	7	
2025-08-15T00:00	620	950	25.1	10.7	205	7	
2025-08-15T00:00	640	948	25.1	10.5	206	7	
2025-08-15T00:00	660	946	25.1	11.1	207	8	
2025-08-15T00:00	680	943	25.0	11.7	208	8	
2025-08-15T00:00	700	941	24.9	12.1	210	8	
2025-08-15T00:00	720	939	24.7	12.5	212	8	
2025-08-15T00:00	740	937	24.5	13.1	213	8	
2025-08-15T00:00	760	935	24.4	13.5	213	7	
2025-08-15T00:00	780	933	24.3	13.5	214	7	
2025-08-15T00:00	800	930	24.6	12.5	215	6	
2025-08-15T00:00	820	928	24.8	11.6	215	5	
2025-08-15T00:00	840	926	25.2	10.4	216	4	
2025-08-15T00:00	860	924	25.7	10.5	216	4	
2025-08-15T00:00	880	922	25.5	10.7	217	3	
2025-08-15T00:00	900	920	25.3	10.5	216	2	
2025-08-15T00:00	920	918	25.1	10.2	212	1	
2025-08-15T00:00	940	916	24.9	10.2	200	1	
2025-08-15T00:00	960	914	24.7	11.1	167	1	
2025-08-15T00:00	980	912	24.6	12.4	131	1	
2025-08-15T00:00	1000	910	24.4	12.2	117	1	
2025-08-15T00:00	1020	907	24.3	12.3	109	1	
2025-08-15T00:00	1040	905	24.1	12.3	103	1	
2025-08-15T00:00	1060	903	23.9	12.5	97	2	
2025-08-15T00:00	1080	901	23.7	12.6	90	2	
2025-08-15T00:00	1100	899	23.5	12.6	85	2	
2025-08-15T00:00	1120	897	23.3	12.6	80	2	
2025-08-15T00:00	1140	895	23.1	12.6	77	2	
2025-08-15T00:00	1160	893	23.0	12.7	77	2	
2025-08-15T00:00	1180	891	22.8	12.7	77	2	
2025-08-15T00:00	1200	889	22.7	12.6	78	3	
2025-08-15T00:00	1220	887	22.5	12.6	80	3	
2025-08-15T00:00	1240	885	22.4	12.5	81	3	
2025-08-15T00:00	1260	883	22.2	12.5	83	3	
2025-08-15T00:00	1280	881	22.0	12.5	85	3	
2025-08-15T00:00	1300	879	21.9	12.4	86	3	
2025-08-15T00:00	1320	877	21.7	12.5	88	3	
2025-08-15T00:00	1340	875	21.5	12.5	87	3	
2025-08-15T00:00	1360	873	21.4	12.3	86	3	
2025-08-15T00:00	1380	871	21.2	12.2	83	3	
2025-08-15T00:00	1400	869	21.0	12.3	79	3	
2025-08-15T00:00	1420	867	20.9	12.3	75	4	
2025-08-15T00:00	1440	865	20.8	12.1	73	4	
2025-08-15T00:00	1460	863	20.7	11.8	71	4	
2025-08-15T00:00	1480	861	20.6	11.8	70	4	
2025-08-15T00:00	1500	859	20.4	11.8	69	4	
2025-08-15T00:00	1520	857	20.3	11.6	69	4	
2025-08-15T00:00	1540	855	20.1	11.6	69	4	
2025-08-15T00:00	1560	853	20.0	11.4	69	4	
2025-08-15T00:00	1580	851	19.8	11.3	68	4	
2025-08-15T00:00	1600	849	19.6	11.2	68	4	
2025-08-15T00:00	1620	847	19.4	11.3	68	4	
2025-08-15T00:00	1640	845	19.2	11.4	68	4	
2025-08-15T00:00	1660	843	19.0	11.4	69	4	
2025-08-15T00:00	1680	841	18.8	11.4	69	3	
2025-08-15T00:00	1700	839	18.7	11.3	69	3	
2025-08-15T00:00	1720	837	18.5	11.2	69	3	
2025-08-15T00:00	1740	835	18.3	11.2	67	3	
2025-08-15T00:00	1760	833	18.1	11.1	65	3	
2025-08-15T00:00	1780	831	18.0	10.7	60	3	
2025-08-15T00:00	1800	829	17.8	10.6	53	3	
2025-08-15T00:00	1820	827	17.8	10.0	44	3	
2025-08-15T00:00	1840	825	17.7	9.7	32	2	
2025-08-15T00:00	1860	823	17.6	9.2	19	3	
2025-08-15T00:00	1880	822	17.4	9.0	10	3	
2025-08-15T00:00	1900	820	17.4	7.9	2	3	
2025-08-15T00:00	1920	818	17.4	7.4	356	4	
2025-08-15T00:00	1940	816	17.2	7.2	353	4	
2025-08-15T00:00	1960	814	17.1	6.9	353	4	
2025-08-15T00:00	1980	812	16.9	6.6	353	4	
2025-08-15T00:00	2000	810	17.1	4.9	354	3	
2025-08-15T00:00	2020	808	17.1	3.5	355	3	
2025-08-15T00:00	2040	806	17.0	3.0	358	2	
2025-08-15T00:00	2060	804	16.9	2.4	3	2	
2025-08-15T00:00	2080	803	16.8	2.1	14	2	
2025-08-15T00:00	2100	800	16.6	1.9	27	2	
2025-08-15T00:00	2120	799	16.5	1.7	38	2	
2025-08-15T00:00	2140	797	16.4	1.4	49	2	
2025-08-15T00:00	2160	795	16.2	1.1	59	3	
2025-08-15T00:00	2180	793	16.2	0.6	66	3	
2025-08-15T00:00	2200	791	16.0	0.5	71	3	
2025-08-15T00:00	2220	789	15.8	0.8	73	4	
2025-08-15T00:00	2240	788	15.7	0.6	72	4	
2025-08-15T00:00	2260	786	15.5	0.7	69	4	
2025-08-15T00:00	2280	784	15.3	0.7	66	4	
2025-08-15T00:00	2300	782	15.1	0.6	63	4	
2025-08-15T00:00	2320	780	15.0	0.6	59	4	
2025-08-15T00:00	2340	778	14.8	0.5	56	4	
2025-08-15T00:00	2360	777	14.6	0.4	54	4	
2025-08-15T00:00	2380	775	14.5	0.2	53	4	
2025-08-15T00:00	2400	773	14.3	0.2	52	4	
2025-08-15T00:00	2420	771	14.2	0.0	51	4	
2025-08-15T00:00	2440	769	14.1	-0.5	52	4	
2025-08-15T00:00	2460	767	13.9	-0.2	55	4	
2025-08-15T00:00	2480	766	13.7	0.4	57	4	
2025-08-15T00:00	2500	764	13.5	0.2	59	4	
2025-08-15T00:00	2520	762	13.4	-0.7	61	3	
2025-08-15T00:00	2540	760	13.3	-0.8	62	3	
2025-08-15T00:00	2560	758	13.1	-0.4	61	3	
2025-08-15T00:00	2580	756	13.0	0.0	57	3	
2025-08-15T00:00	2600	755	12.8	0.1	51	3	
2025-08-15T00:00	2620	753	12.7	-0.2	42	2	
2025-08-15T00:00	2640	751	12.5	0.3	31	2	
2025-08-15T00:00	2660	749	12.4	0.7	20	2	
2025-08-15T00:00	2680	747	12.2	0.7	10	2	
2025-08-15T00:00	2700	746	12.1	0.5	2	2	
2025-08-15T00:00	2720	744	12.0	0.4	355	2	
2025-08-15T00:00	2740	742	11.9	1.3	351	2	
2025-08-15T00:00	2760	740	11.7	1.6	350	2	
2025-08-15T00:00	2780	739	11.6	2.1	350	2	
2025-08-15T00:00	2800	737	11.5	2.3	354	2	
2025-08-15T00:00	2820	735	11.4	2.0	358	2	
2025-08-15T00:00	2840	733	11.3	1.5	3	3	
2025-08-15T00:00	2860	732	11.2	1.4	6	3	
2025-08-15T00:00	2880	730	11.0	1.2	8	3	
2025-08-15T00:00	2900	728	10.9	0.7	9	3	
2025-08-15T00:00	2920	727	10.8	0.3	8	3	
2025-08-15T00:00	2940	725	10.6	0.0	7	3	
2025-08-15T00:00	2960	723	10.4	-0.3	5	4	
2025-08-15T00:00	2980	721	10.3	-0.4	3	4	
2025-08-15T00:00	3000	719	10.1	-0.8	1	3	
2025-08-15T00:00	3020	718	10.0	-1.2	1	3	
2025-08-15T00:00	3040	716	9.9	-1.6	5	3	
2025-08-15T00:00	3060	714	9.8	-1.7	11	2	
2025-08-15T00:00	3080	713	9.7	-1.7	18	2	
2025-08-15T00:00	3100	711	9.5	-2.3	26	2	
2025-08-15T00:00	3120	709	9.5	-3.5	35	2	
2025-08-15T00:00	3140	707	9.3	-3.7	40	2	
2025-08-15T00:00	3160	706	9.2	-3.9	42	2	
2025-08-15T00:00	3180	704	9.0	-4.1	40	3	
2025-08-15T00:00	3200	702	8.8	-4.2	37	3	
2025-08-15T00:00	3220	700	8.6	-4.3	34	3	
2025-08-15T00:00	3240	699	8.5	-4.1	31	3	
2025-08-15T00:00	3260	697	8.4	-4.1	29	3	
2025-08-15T00:00	3280	695	8.2	-4.1	27	3	
2025-08-15T00:00	3300	694	8.0	-4.1	28	3	
2025-08-15T00:00	3320	692	7.8	-4.2	31	3	
2025-08-15T00:00	3340	690	7.7	-4.2	37	3	
2025-08-15T00:00	3360	689	7.5	-4.1	42	4	
2025-08-15T00:00	3380	687	7.4	-3.7	46	4	
2025-08-15T00:00	3400	685	7.2	-3.9	48	5	
2025-08-15T00:00	3420	684	7.1	-4.0	48	5	
2025-08-15T00:00	3440	682	6.9	-4.0	48	5	
2025-08-15T00:00	3460	680	6.7	-4.1	47	5	
2025-08-15T00:00	3480	679	6.6	-4.1	45	5	
2025-08-15T00:00	3500	677	6.4	-4.2	44	5	
2025-08-15T00:00	3520	676	6.2	-4.2	44	5	
2025-08-15T00:00	3540	674	6.1	-4.2	46	5	
2025-08-15T00:00	3560	672	5.9	-4.2	46	5	
2025-08-15T00:00	3580	671	5.8	-4.1	46	5	
2025-08-15T00:00	3600	669	5.6	-4.0	45	5	
2025-08-15T00:00	3620	667	5.4	-4.0	45	5	
2025-08-15T00:00	3640	666	5.3	-4.1	47	5	
2025-08-15T00:00	3660	664	5.1	-4.1	49	5	
2025-08-15T00:00	3680	663	4.9	-4.2	51	6	
2025-08-15T00:00	3700	661	4.8	-4.3	52	6	
2025-08-15T00:00	3720	659	4.6	-4.6	52	6	
2025-08-15T00:00	3740	658	4.4	-4.8	51	6	
2025-08-15T00:00	3760	656	4.3	-5.0	50	6	
2025-08-15T00:00	3780	654	4.1	-5.1	48	6	
2025-08-15T00:00	3800	653	3.9	-5.1	47	6	
2025-08-15T00:00	3820	651	3.7	-5.2	45	6	
2025-08-15T00:00	3840	649	3.5	-5.2	44	6	
2025-08-15T00:00	3860	648	3.3	-5.2	44	5	
2025-08-15T00:00	3880	646	3.1	-5.3	43	5	
2025-08-15T00:00	3900	645	2.9	-5.3	41	5	
2025-08-15T00:00	3920	643	2.7	-5.3	40	5	
2025-08-15T00:00	3940	642	2.5	-5.7	40	5	
2025-08-15T00:00	3960	640	2.3	-5.6	42	5	
2025-08-15T00:00	3980	638	2.2	-6.0	45	5	
2025-08-15T00:00	4000	637	2.0	-6.8	51	5	
2025-08-15T00:00	4020	635	1.9	-7.4	59	4	
2025-08-15T00:00	4040	634	1.8	-7.5	66	4	
2025-08-15T00:00	4060	632	1.5	-7.8	72	4	
2025-08-15T00:00	4080	631	1.4	-8.4	76	4	
2025-08-15T00:00	4100	629	1.2	-8.5	79	4	
2025-08-15T00:00	4120	627	1.1	-8.5	80	4	
2025-08-15T00:00	4140	626	0.8	-8.5	79	4	
2025-08-15T00:00	4160	624	0.7	-8.3	78	4	
2025-08-15T00:00	4180	623	0.5	-8.4	76	4	
2025-08-15T00:00	4200	621	0.3	-8.4	75	4	
2025-08-15T00:00	4220	620	0.1	-8.5	74	4	
2025-08-15T00:00	4240	618	-0.1	-8.4	73	4	
2025-08-15T00:00	4260	616	-0.3	-8.4	73	4	
2025-08-15T00:00	4280	615	-0.5	-8.4	74	5	
2025-08-15T00:00	4300	614	-0.7	-8.2	75	5	
2025-08-15T00:00	4320	612	-0.9	-8.3	78	5	
2025-08-15T00:00	4340	610	-1.1	-8.3	80	5	
2025-08-15T00:00	4360	609	-1.3	-8.5	83	5	
2025-08-15T00:00	4380	607	-1.4	-8.8	85	5	
2025-08-15T00:00	4400	606	-1.6	-9.8	88	4	
2025-08-15T00:00	4420	604	-1.7	-10.3	90	4	
2025-08-15T00:00	4440	603	-1.9	-10.4	94	4	
2025-08-15T00:00	4460	601	-2.1	-10.7	97	4	
2025-08-15T00:00	4480	600	-2.2	-10.8	99	4	
2025-08-15T00:00	4500	598	-2.4	-10.8	102	3	
2025-08-15T00:00	4520	597	-2.6	-11.0	103	3	
2025-08-15T00:00	4540	595	-2.7	-11.1	102	3	
2025-08-15T00:00	4560	594	-2.9	-11.4	101	3	
2025-08-15T00:00	4580	592	-3.1	-12.0	98	3	
2025-08-15T00:00	4600	591	-3.2	-12.1	94	3	
2025-08-15T00:00	4620	589	-3.3	-12.6	90	3	
2025-08-15T00:00	4640	588	-3.5	-12.9	89	2	
2025-08-15T00:00	4660	586	-3.6	-12.9	93	2	
2025-08-15T00:00	4680	585	-3.8	-13.1	100	2	
2025-08-15T00:00	4700	583	-4.0	-13.2	107	2	
2025-08-15T00:00	4720	582	-4.1	-13.4	113	3	
2025-08-15T00:00	4740	580	-4.3	-13.7	119	3	
2025-08-15T00:00	4760	579	-4.5	-13.9	126	3	
2025-08-15T00:00	4780	578	-4.6	-13.9	128	3	
2025-08-15T00:00	4800	576	-4.8	-13.8	130	4	
2025-08-15T00:00	4820	575	-4.9	-12.2	129	4	
2025-08-15T00:00	4840	573	-5.1	-11.1	127	4	
2025-08-15T00:00	4860	572	-5.3	-10.4	124	4	
2025-08-15T00:00	4880	570	-5.4	-9.8	120	3	
2025-08-15T00:00	4900	569	-5.2	-12.6	116	3	
2025-08-15T00:00	4920	567	-5.2	-18.7	110	3	
2025-08-15T00:00	4940	566	-5.1	-21.6	105	3	
2025-08-15T00:00	4960	564	-5.1	-21.1	99	3	
2025-08-15T00:00	4980	563	-5.0	-24.9	92	3	
2025-08-15T00:00	5000	561	-5.1	-25.3	83	3	
2025-08-15T00:00	5020	560	-5.2	-25.8	73	3	
2025-08-15T00:00	5040	559	-5.4	-25.8	65	3	
2025-08-15T00:00	5060	557	-5.5	-25.9	56	3	
2025-08-15T00:00	5080	556	-5.6	-26.4	47	3	
2025-08-15T00:00	5100	554	-5.6	-26.4	41	3	
2025-08-15T00:00	5120	553	-5.8	-23.0	37	2	
2025-08-15T00:00	5140	552	-5.9	-21.1	35	2	
2025-08-15T00:00	5160	550	-6.0	-21.6	35	2	
2025-08-15T00:00	5180	549	-6.1	-18.4	38	2	
2025-08-15T00:00	5200	547	-6.2	-19.6	45	2	
2025-08-15T00:00	5220	546	-6.3	-20.0	57	2	
2025-08-15T00:00	5240	545	-6.5	-20.4	68	2	
2025-08-15T00:00	5260	543	-6.7	-20.3	78	2	
2025-08-15T00:00	5280	542	-6.9	-20.2	87	3	
2025-08-15T00:00	5300	540	-7.1	-19.9	93	3	
2025-08-15T00:00	5320	539	-7.3	-18.9	96	3	
2025-08-15T00:00	5340	538	-7.5	-17.8	96	3	
2025-08-15T00:00	5360	536	-7.7	-16.3	96	3	
2025-08-15T00:00	5380	535	-7.9	-16.0	93	3	
2025-08-15T00:00	5400	534	-8.0	-16.8	89	3	
2025-08-15T00:00	5420	532	-8.1	-17.5	84	3	
2025-08-15T00:00	5440	531	-8.2	-19.2	81	4	
2025-08-15T00:00	5460	529	-8.3	-20.6	79	4	
2025-08-15T00:00	5480	528	-8.4	-21.3	78	4	
2025-08-15T00:00	5500	527	-8.6	-20.8	77	4	
2025-08-15T00:00	5520	525	-8.7	-19.6	77	4	
2025-08-15T00:00	5540	524	-8.9	-18.6	77	4	
2025-08-15T00:00	5560	523	-9.1	-18.6	76	4	
2025-08-15T00:00	5580	521	-9.3	-18.7	75	4	
2025-08-15T00:00	5600	520	-9.4	-18.9	73	4	
2025-08-15T00:00	5620	519	-9.6	-19.2	71	4	
2025-08-15T00:00	5640	517	-9.8	-19.8	67	4	
2025-08-15T00:00	5660	516	-9.9	-20.2	65	4	
2025-08-15T00:00	5680	515	-10.1	-19.5	63	4	
2025-08-15T00:00	5700	513	-10.2	-19.6	62	4	
2025-08-15T00:00	5720	512	-10.4	-20.3	61	4	
2025-08-15T00:00	5740	511	-10.5	-21.9	61	4	
2025-08-15T00:00	5760	509	-10.6	-24.2	60	4	
2025-08-15T00:00	5780	508	-10.5	-29.1	60	4	
2025-08-15T00:00	5800	507	-10.6	-28.2	59	4	
2025-08-15T00:00	5820	505	-10.7	-28.9	59	4	
2025-08-15T00:00	5840	504	-10.6	-30.0	60	4	
2025-08-15T00:00	5860	503	-10.7	-28.2	61	4	
2025-08-15T00:00	5880	501	-10.8	-28.5	63	5	
2025-08-15T00:00	5900	500	-11.0	-26.9	65	5	
2025-08-15T00:00	5920	499	-11.1	-26.4	68	5	
2025-08-15T00:00	5940	497	-11.3	-26.1	71	5	
2025-08-15T00:00	5960	496	-11.4	-26.1	73	6	
2025-08-15T00:00	5980	495	-11.6	-26.0	75	6	
2025-08-15T00:00	6000	493	-11.8	-26.0	77	6	
2025-08-15T00:00	6020	492	-11.9	-26.1	77	6	
2025-08-15T00:00	6040	491	-12.1	-26.0	77	6	
2025-08-15T00:00	6060	490	-12.2	-25.9	77	6	
2025-08-15T00:00	6080	489	-12.4	-25.8	76	6	
2025-08-15T00:00	6100	487	-12.5	-26.1	74	6	
2025-08-15T00:00	6120	486	-12.7	-26.1	72	5	
2025-08-15T00:00	6140	485	-12.8	-26.3	70	5	
2025-08-15T00:00	6160	483	-13.0	-26.4	67	5	
2025-08-15T00:00	6180	482	-13.2	-26.6	65	5	
2025-08-15T00:00	6200	481	-13.3	-27.1	64	4	
2025-08-15T00:00	6220	480	-13.4	-28.3	65	4	
2025-08-15T00:00	6240	478	-13.5	-28.9	66	4	
2025-08-15T00:00	6260	477	-13.6	-29.4	70	4	
2025-08-15T00:00	6280	476	-13.7	-29.9	74	4	
2025-08-15T00:00	6300	474	-13.8	-30.8	78	4	
2025-08-15T00:00	6320	473	-13.9	-31.5	82	4	
2025-08-15T00:00	6340	472	-14.0	-32.2	85	4	
2025-08-15T00:00	6360	471	-14.1	-32.8	87	5	
2025-08-15T00:00	6380	470	-14.1	-33.8	88	5	
2025-08-15T00:00	6400	468	-14.1	-34.5	87	5	
2025-08-15T00:00	6420	467	-14.3	-34.6	86	5	
2025-08-15T00:00	6440	466	-14.5	-34.6	84	5	
2025-08-15T00:00	6460	465	-14.7	-34.8	83	5	
2025-08-15T00:00	6480	463	-14.8	-35.0	83	5	
2025-08-15T00:00	6500	462	-14.8	-35.3	83	5	
2025-08-15T00:00	6520	461	-14.9	-35.4	84	5	
2025-08-15T00:00	6540	460	-15.1	-35.0	85	5	
2025-08-15T00:00	6560	458	-15.3	-34.4	86	5	
2025-08-15T00:00	6580	457	-15.5	-34.0	86	5	
2025-08-15T00:00	6600	456	-15.7	-33.4	86	5	
2025-08-15T00:00	6620	455	-15.8	-33.4	85	5	
2025-08-15T00:00	6640	454	-16.0	-33.2	84	5	
2025-08-15T00:00	6660	453	-16.2	-32.8	81	5	
2025-08-15T00:00	6680	451	-16.4	-32.7	79	5	
2025-08-15T00:00	6700	450	-16.5	-33.2	76	4	
2025-08-15T00:00	6720	449	-16.6	-33.4	73	4	
2025-08-15T00:00	6740	448	-16.7	-33.1	70	4	
2025-08-15T00:00	6760	446	-16.9	-31.9	68	4	
2025-08-15T00:00	6780	445	-17.0	-31.4	66	4	
2025-08-15T00:00	6800	444	-17.2	-31.1	65	4	
2025-08-15T00:00	6820	443	-17.4	-30.2	63	4	
2025-08-15T00:00	6840	442	-17.6	-29.7	62	4	
2025-08-15T00:00	6860	441	-17.8	-29.8	61	4	
2025-08-15T00:00	6880	439	-17.9	-29.3	61	4	
2025-08-15T00:00	6900	438	-18.1	-28.2	61	4	
2025-08-15T00:00	6920	437	-18.2	-28.6	61	4	
2025-08-15T00:00	6940	436	-18.3	-29.3	61	4	
2025-08-15T00:00	6960	435	-18.4	-31.1	61	4	
2025-08-15T00:00	6980	434	-18.4	-32.1	60	4	
2025-08-15T00:00	7000	432	-18.6	-31.6	58	4	
2025-08-15T00:00	7020	431	-18.7	-31.8	56	4	
2025-08-15T00:00	7040	430	-18.9	-31.9	53	4	
2025-08-15T00:00	7060	429	-19.1	-32.7	49	4	
2025-08-15T00:00	7080	428	-19.2	-32.8	46	4	
2025-08-15T00:00	7100	427	-19.4	-33.4	42	5	
2025-08-15T00:00	7120	425	-19.6	-34.2	40	5	
2025-08-15T00:00	7140	424	-19.7	-34.2	39	5	
2025-08-15T00:00	7160	423	-19.9	-33.8	38	5	
2025-08-15T00:00	7180	422	-20.0	-36.2	38	5	
2025-08-15T00:00	7200	421	-20.1	-39.5	39	5	
2025-08-15T00:00	7220	420	-20.2	-42.4	39	5	
2025-08-15T00:00	7240	419	-20.3	-45.7	40	5	
2025-08-15T00:00	7260	418	-20.3	-46.7	41	5	
2025-08-15T00:00	7280	416	-20.5	-46.1	41	5	
2025-08-15T00:00	7300	415	-20.6	-45.6	41	5	
2025-08-15T00:00	7320	414	-20.7	-44.6	40	5	
2025-08-15T00:00	7340	413	-20.8	-46.4	39	5	
2025-08-15T00:00	7360	412	-20.9	-48.1	37	5	
2025-08-15T00:00	7380	411	-21.0	-45.0	35	5	
2025-08-15T00:00	7400	410	-21.1	-43.0	32	5	
2025-08-15T00:00	7420	409	-21.3	-42.3	29	5	
2025-08-15T00:00	7440	407	-21.5	-42.4	25	5	
2025-08-15T00:00	7460	406	-21.6	-42.3	20	5	
2025-08-15T00:00	7480	405	-21.8	-40.8	14	5	
2025-08-15T00:00	7500	404	-21.9	-38.9	9	5	
2025-08-15T00:00	7520	403	-22.1	-38.1	4	5	
2025-08-15T00:00	7540	402	-22.2	-38.7	359	5	
2025-08-15T00:00	7560	401	-22.3	-39.4	356	5	
2025-08-15T00:00	7580	400	-22.4	-40.8	357	4	
2025-08-15T00:00	7600	399	-22.5	-41.0	358	4	
2025-08-15T00:00	7620	398	-22.7	-40.3	360	4	
2025-08-15T00:00	7640	397	-22.9	-40.7	360	4	
2025-08-15T00:00	7660	395	-23.0	-43.2	359	4	
2025-08-15T00:00	7680	394	-23.1	-46.2	357	4	
2025-08-15T00:00	7700	393	-23.2	-46.7	354	4	
2025-08-15T00:00	7720	392	-23.3	-44.4	352	4	
2025-08-15T00:00	7740	391	-23.4	-42.1	351	4	
2025-08-15T00:00	7760	390	-23.4	-44.5	351	4	
2025-08-15T00:00	7780	389	-23.6	-44.9	352	4	
2025-08-15T00:00	7800	388	-23.8	-44.8	354	4	
2025-08-15T00:00	7820	387	-23.9	-44.8	356	4	
2025-08-15T00:00	7840	386	-24.1	-45.0	358	4	
2025-08-15T00:00	7860	385	-24.2	-46.2	0	4	
2025-08-15T00:00	7880	384	-24.3	-48.2	2	4	
2025-08-15T00:00	7900	383	-24.4	-48.8	3	4	
2025-08-15T00:00	7920	381	-24.5	-48.9	5	3	
2025-08-15T00:00	7940	381	-24.6	-48.7	6	3	
2025-08-15T00:00	7960	380	-24.7	-48.5	8	3	
2025-08-15T00:00	7980	378	-24.9	-48.0	9	3	
2025-08-15T00:00	8000	377	-25.0	-47.7	8	3	
2025-08-15T00:00	8020	376	-25.2	-47.5	6	3	
2025-08-15T00:00	8040	375	-25.3	-48.4	4	4	
2025-08-15T00:00	8060	374	-25.4	-49.1	2	4	
2025-08-15T00:00	8080	373	-25.6	-49.6	2	5	
2025-08-15T00:00	8100	372	-25.7	-50.4	3	5	
2025-08-15T00:00	8120	371	-25.9	-50.9	3	5	
2025-08-15T00:00	8140	370	-26.0	-51.1	4	5	
2025-08-15T00:00	8160	369	-26.2	-51.2	3	6	
2025-08-15T00:00	8180	368	-26.4	-51.1	2	6	
2025-08-15T00:00	8200	367	-26.6	-51.2	1	6	
2025-08-15T00:00	8220	366	-26.8	-51.3	359	6	
2025-08-15T00:00	8240	365	-26.9	-51.4	355	6	
2025-08-15T00:00	8260	364	-27.1	-51.7	352	6	
2025-08-15T00:00	8280	363	-27.2	-51.8	350	6	
2025-08-15T00:00	8300	362	-27.4	-51.8	348	7	
2025-08-15T00:00	8320	361	-27.6	-51.9	347	7	
2025-08-15T00:00	8340	360	-27.8	-52.3	346	7	
2025-08-15T00:00	8360	359	-27.9	-52.6	346	7	
2025-08-15T00:00	8380	358	-28.0	-53.4	346	7	
2025-08-15T00:00	8400	357	-28.0	-54.1	346	7	
2025-08-15T00:00	8420	356	-28.2	-54.0	346	7	
2025-08-15T00:00	8440	355	-28.4	-54.1	346	7	
2025-08-15T00:00	8460	354	-28.6	-54.2	346	6	
2025-08-15T00:00	8480	353	-28.8	-54.2	347	6	
2025-08-15T00:00	8500	352	-28.9	-54.3	347	6	
2025-08-15T00:00	8520	351	-29.1	-54.3	346	6	
2025-08-15T00:00	8540	350	-29.3	-54.4	346	6	
2025-08-15T00:00	8560	349	-29.5	-54.4	346	5	
2025-08-15T00:00	8580	348	-29.7	-54.5	346	6	
2025-08-15T00:00	8600	347	-29.8	-54.6	347	6	
2025-08-15T00:00	8620	346	-29.9	-54.7	347	6	
2025-08-15T00:00	8640	345	-30.1	-54.6	347	7	
2025-08-15T00:00	8660	344	-30.2	-54.6	348	7	
2025-08-15T00:00	8680	343	-30.4	-54.5	348	8	
2025-08-15T00:00	8700	342	-30.5	-54.3	348	8	
2025-08-15T00:00	8720	341	-30.6	-53.4	348	8	
2025-08-15T00:00	8740	340	-30.6	-51.4	348	8	
2025-08-15T00:00	8760	339	-30.7	-51.5	349	7	
2025-08-15T00:00	8780	339	-30.9	-51.8	350	7	
2025-08-15T00:00	8800	338	-31.0	-52.3	353	7	
2025-08-15T00:00	8820	337	-31.1	-52.4	355	7	
2025-08-15T00:00	8840	336	-31.2	-52.5	357	7	
2025-08-15T00:00	8860	335	-31.3	-52.6	358	6	
2025-08-15T00:00	8880	334	-31.5	-52.4	0	6	
2025-08-15T00:00	8900	333	-31.6	-52.4	2	6	
2025-08-15T00:00	8920	332	-31.8	-52.5	4	6	
2025-08-15T00:00	8940	331	-31.9	-52.4	6	7	
2025-08-15T00:00	8960	330	-32.1	-52.5	8	7	
2025-08-15T00:00	8980	329	-32.2	-52.5	10	7	
2025-08-15T00:00	9000	328	-32.3	-52.7	11	7	
2025-08-15T00:00	9020	327	-32.5	-52.7	12	7	
2025-08-15T00:00	9040	326	-32.7	-52.7	12	7	
2025-08-15T00:00	9060	325	-32.9	-52.8	11	7	
2025-08-15T00:00	9080	325	-33.1	-52.8	9	7	
2025-08-15T00:00	9100	324	-33.3	-52.9	7	7	
2025-08-15T00:00	9120	323	-33.4	-52.9	5	6	
2025-08-15T00:00	9140	322	-33.5	-53.0	3	6	
2025-08-15T00:00	9160	321	-33.6	-53.1	1	6	
2025-08-15T00:00	9180	320	-33.8	-53.2	359	6	
2025-08-15T00:00	9200	319	-33.9	-53.4	357	6	
2025-08-15T00:00	9220	318	-34.0	-53.7	356	6	
2025-08-15T00:00	9240	317	-34.2	-53.9	355	5	
2025-08-15T00:00	9260	316	-34.4	-53.8	354	5	
2025-08-15T00:00	9280	315	-34.6	-53.9	354	5	
2025-08-15T00:00	9300	314	-34.8	-54.2	353	5	
2025-08-15T00:00	9320	314	-34.9	-54.3	353	5	
2025-08-15T00:00	9340	313	-35.1	-54.0	352	6	
2025-08-15T00:00	9360	312	-35.2	-52.8	351	6	
2025-08-15T00:00	9380	311	-35.3	-51.3	351	6	
2025-08-15T00:00	9400	310	-35.5	-50.9	350	6	
2025-08-15T00:00	9420	309	-35.7	-50.6	350	6	
2025-08-15T00:00	9440	308	-35.8	-50.7	350	6	
2025-08-15T00:00	9460	307	-36.0	-50.9	350	6	
2025-08-15T00:00	9480	306	-36.2	-51.1	350	6	
2025-08-15T00:00	9500	305	-36.4	-51.2	350	6	
2025-08-15T00:00	9520	305	-36.6	-51.1	350	6	
2025-08-15T00:00	9540	304	-36.7	-51.0	348	6	
2025-08-15T00:00	9560	303	-36.9	-51.1	346	6	
2025-08-15T00:00	9580	302	-37.1	-51.1	344	6	
2025-08-15T00:00	9600	301	-37.3	-51.3	342	6	
2025-08-15T00:00	9620	300	-37.5	-51.1	340	7	
2025-08-15T00:00	9640	299	-37.6	-50.7	339	7	
2025-08-15T00:00	9660	299	-37.8	-50.6	338	7	
2025-08-15T00:00	9680	298	-37.9	-51.2	337	7	
2025-08-15T00:00	9700	297	-38.0	-51.6	336	7	
2025-08-15T00:00	9720	296	-38.2	-51.6	335	7	
2025-08-15T00:00	9740	295	-38.4	-51.9	333	7	
2025-08-15T00:00	9760	294	-38.5	-52.1	332	7	
2025-08-15T00:00	9780	293	-38.7	-52.1	331	6	
2025-08-15T00:00	9800	293	-38.9	-52.1	330	6	
2025-08-15T00:00	9820	292	-39.1	-52.1	329	6	
2025-08-15T00:00	9840	291	-39.2	-52.2	328	6	
2025-08-15T00:00	9860	290	-39.3	-52.1	327	6	
2025-08-15T00:00	9880	289	-39.5	-53.2	326	6	
2025-08-15T00:00	9900	288	-39.6	-53.4	326	6	
2025-08-15T00:00	9920	287	-39.8	-53.1	326	6	
2025-08-15T00:00	9940	287	-40.0	-53.1	325	6	
2025-08-15T00:00	9960	286	-40.2	-53.1	324	6	
2025-08-15T00:00	9980	285	-40.4	-53.1	324	6	
2025-08-15T00:00	10000	284	-40.6	-53.2	323	6	
2025-08-15T00:00	10018	283	-40.7	-53.3	323	6	
2025-08-15T00:00	10050	282	-41.1	-53.3	324	6	
2025-08-15T00:00	10100	280	-41.6	-53.4	327	6	
2025-08-15T00:00	10150	278	-42.0	-53.4	328	6	
2025-08-15T00:00	10200	276	-42.5	-53.5	327	7	
2025-08-15T00:00	10250	274	-43.0	-53.8	324	6	
2025-08-15T00:00	10300	272	-43.4	-54.0	320	7	
2025-08-15T00:00	10350	270	-43.9	-54.0	318	7	
2025-08-15T00:00	10400	268	-44.3	-54.9	315	7	
2025-08-15T00:00	10450	266	-44.8	-55.2	312	7	
2025-08-15T00:00	10500	264	-45.2	-56.3	309	8	
2025-08-15T00:00	10550	262	-45.6	-56.7	308	8	
2025-08-15T00:00	10600	260	-46.1	-56.0	308	7	
2025-08-15T00:00	10650	258	-46.5	-56.9	308	7	
2025-08-15T00:00	10700	256	-47.0	-57.1	306	7	
2025-08-15T00:00	10750	254	-47.4	-56.2	303	7	
2025-08-15T00:00	10800	252	-47.8	-56.3	301	7	
2025-08-15T00:00	10850	250	-48.1	-56.5	301	7	
2025-08-15T00:00	10900	248	-48.5	-56.5	303	7	
2025-08-15T00:00	10950	246	-48.9	-56.7	305	6	
2025-08-15T00:00	11000	245	-49.3	-57.4	307	6	
2025-08-15T00:00	11050	243	-49.7	-57.8	308	6	
2025-08-15T00:00	11100	241	-50.1	-57.4	307	6	
2025-08-15T00:00	11150	239	-50.5	-57.7	306	6	
2025-08-15T00:00	11200	237	-50.9	-58.3	303	6	
2025-08-15T00:00	11250	235	-51.2	-58.5	301	6	
2025-08-15T00:00	11300	234	-51.4	-58.7	306	6	
2025-08-15T00:00	11350	232	-51.4	-60.4	314	5	
2025-08-15T00:00	11400	230	-51.7	-60.9	312	6	
2025-08-15T00:00	11450	228	-51.7	-61.5	302	7	
2025-08-15T00:00	11500	226	-51.8	-61.9	295	9	
2025-08-15T00:00	11550	225	-52.1	-61.7	291	9	
2025-08-15T00:00	11600	223	-52.5	-61.7	290	10	
2025-08-15T00:00	11650	221	-53.0	-61.8	291	10	
2025-08-15T00:00	11700	220	-53.4	-61.8	293	10	
2025-08-15T00:00	11750	218	-53.9	-62.0	294	10	
2025-08-15T00:00	11800	216	-54.3	-62.1	298	10	
2025-08-15T00:00	11850	215	-54.5	-62.4	304	9	
2025-08-15T00:00	11900	213	-54.7	-62.5	304	8	
2025-08-15T00:00	11950	211	-54.8	-63.0	304	7	
2025-08-15T00:00	12000	210	-54.7	-63.4	307	6	
2025-08-15T00:00	12050	208	-53.4	-65.0	307	5	
2025-08-15T00:00	12100	206	-53.0	-65.5	300	5	
2025-08-15T00:00	12150	205	-53.2	-65.7	295	6	
2025-08-15T00:00	12200	203	-52.4	-68.0	295	8	
2025-08-15T00:00	12250	202	-51.8	-71.1	293	6	
2025-08-15T00:00	12300	200	-50.9	-74.2	283	4	
2025-08-15T00:00	12350	198	-50.4	-74.4	262	3	
2025-08-15T00:00	12400	197	-50.8	-73.9	238	3	
2025-08-15T00:00	12450	196	-51.1	-73.9	223	3	
2025-08-15T00:00	12500	194	-50.6	-74.2	216	5	
2025-08-15T00:00	12550	192	-49.9	-73.5	212	6	
2025-08-15T00:00	12600	191	-50.3	-72.7	208	6	
2025-08-15T00:00	12650	190	-50.6	-72.3	208	6	
2025-08-15T00:00	12700	188	-51.0	-72.2	213	6	
2025-08-15T00:00	12750	187	-51.4	-71.5	219	6	
2025-08-15T00:00	12800	185	-51.8	-70.4	224	6	
2025-08-15T00:00	12850	184	-52.2	-70.1	227	7	
2025-08-15T00:00	12900	182	-52.6	-70.2	229	7	
2025-08-15T00:00	12950	181	-52.9	-69.6	235	7	
2025-08-15T00:00	13000	180	-53.0	-68.2	246	7	
2025-08-15T00:00	13050	178	-53.0	-73.9	253	7	
2025-08-15T00:00	13100	177	-52.3	-82.0	252	7	
2025-08-15T00:00	13150	175	-52.2	-80.3	252	8	
2025-08-15T00:00	13200	174	-51.7	-79.8	255	8	
2025-08-15T00:00	13250	173	-51.2	-79.4	256	9	
2025-08-15T00:00	13300	171	-50.9	-79.3	255	10	
2025-08-15T00:00	13350	170	-50.7	-79.3	257	10	
2025-08-15T00:00	13400	169	-50.8	-79.3	253	10	
2025-08-15T00:00	13450	168	-50.5	-79.2	244	9	
2025-08-15T00:00	13500	166	-50.0	-78.9	235	8	
2025-08-15T00:00	13550	165	-49.9	-78.7	227	8	
2025-08-15T00:00	13600	164	-50.1	-78.7	219	7	
2025-08-15T00:00	13650	162	-50.4	-78.8	211	7	
2025-08-15T00:00	13700	161	-50.7	-78.9	201	7	
2025-08-15T00:00	13750	160	-51.0	-79.0	196	7	
2025-08-15T00:00	13800	159	-51.4	-79.0	193	7	
2025-08-15T00:00	13850	158	-51.9	-79.1	189	7	
2025-08-15T00:00	13900	156	-52.2	-79.2	186	7	
2025-08-15T00:00	13950	155	-52.6	-79.2	184	8	
2025-08-15T00:00	14000	154	-53.0	-79.1	182	8	
2025-08-15T00:00	14050	153	-53.1	-78.8	179	9	
2025-08-15T00:00	14100	152	-53.1	-78.7	181	10	
2025-08-15T00:00	14150	150	-53.1	-78.6	189	11	
2025-08-15T00:00	14200	149	-52.9	-78.7	198	12	
2025-08-15T00:00	14250	148	-51.9	-79.0	202	13	
2025-08-15T00:00	14300	147	-51.7	-79.5	203	14	
2025-08-15T00:00	14350	146	-52.0	-79.9	204	14	
2025-08-15T00:00	14400	145	-52.3	-80.2	202	15	
2025-08-15T00:00	14450	144	-52.6	-80.6	198	16	
2025-08-15T00:00	14500	142	-52.9	-80.8	199	16	
2025-08-15T00:00	14550	141	-53.3	-80.9	203	17	
2025-08-15T00:00	14600	140	-53.4	-80.9	207	17	
2025-08-15T00:00	14650	139	-53.6	-81.0	209	17	
2025-08-15T00:00	14700	138	-54.0	-81.1	210	16	
2025-08-15T00:00	14750	137	-54.4	-81.1	211	16	
2025-08-15T00:00	14800	136	-54.8	-81.3	214	15	
2025-08-15T00:00	14850	135	-55.1	-81.4	215	14	
2025-08-15T00:00	14900	134	-55.4	-81.6	216	13	
2025-08-15T00:00	14950	133	-55.7	-81.8	218	13	
2025-08-15T00:00	15000	132	-56.1	-82.1	221	12	
2025-08-15T00:00	15050	131	-56.5	-82.4	224	12	
2025-08-15T00:00	15100	130	-56.7	-82.5	225	11	
2025-08-15T00:00	15150	129	-57.1	-82.6	225	10	
2025-08-15T00:00	15200	128	-57.4	-82.7	225	9	
2025-08-15T00:00	15250	127	-57.2	-82.7	226	9	
2025-08-15T00:00	15300	126	-57.3	-82.6	228	9	
2025-08-15T00:00	15350	125	-57.4	-82.7	229	8	
2025-08-15T00:00	15400	124	-57.6	-82.8	230	8	
2025-08-15T00:00	15450	123	-57.6	-82.8	229	8	
2025-08-15T00:00	15500	122	-58.0	-82.9	225	8	
2025-08-15T00:00	15550	121	-58.3	-82.9	222	9	
2025-08-15T00:00	15600	120	-58.7	-83.0	220	10	
2025-08-15T00:00	15650	119	-59.0	-83.2	222	11	
2025-08-15T00:00	15700	118	-58.8	-83.1	224	11	
2025-08-15T00:00	15750	117	-59.1	-83.2	228	10	
2025-08-15T00:00	15800	116	-59.2	-83.3	233	10	
2025-08-15T00:00	15850	115	-59.1	-83.4	239	10	
2025-08-15T00:00	15900	114	-58.6	-83.4	243	9	
2025-08-15T00:00	15950	113	-58.5	-83.6	242	8	
2025-08-15T00:00	16000	112	-58.5	-83.8	233	7	
2025-08-15T00:00	16050	112	-58.5	-83.7	225	6	
2025-08-15T00:00	16100	111	-58.7	-83.8	226	7	
2025-08-15T00:00	16150	110	-59.0	-83.9	230	7	
2025-08-15T00:00	16200	109	-58.8	-84.0	233	6	
2025-08-15T00:00	16250	108	-58.2	-84.0	235	5	
2025-08-15T00:00	16300	107	-58.1	-84.0	239	4	
2025-08-15T00:00	16350	106	-58.2	-83.9	239	3	
2025-08-15T00:00	16400	105	-58.5	-83.9	227	3	
2025-08-15T00:00	16450	105	-58.6	-84.0	208	3	
2025-08-15T00:00	16500	104	-58.8	-83.9	194	3	
2025-08-15T00:00	16550	103	-59.1	-84.0	180	3	
2025-08-15T00:00	16600	102	-59.4	-84.1	164	3	
2025-08-15T00:00	16650	101	-59.6	-84.2	161	4	
2025-08-15T00:00	16700	101	-59.8	-84.2	171	5	
2025-08-15T00:00	16750	100	-60.0	-84.3	183	6	
2025-08-15T00:00	16800	99	-59.9	-84.2	196	7	
2025-08-15T00:00	16850	98	-60.0	-84.3	206	8	
2025-08-15T00:00	16900	97	-59.6	-84.1	215	8	
2025-08-15T00:00	16950	97	-59.5	-84.1	220	7	
2025-08-15T00:00	17000	96	-59.3	-84.1	223	7	
2025-08-15T00:00	17050	95	-59.3	-84.2	225	7	
2025-08-15T00:00	17100	94	-59.3	-84.2	227	7	
2025-08-15T00:00	17150	94	-59.3	-84.3	224	7	
2025-08-15T00:00	17200	93	-59.3	-84.4	216	7	
2025-08-15T00:00	17250	92	-59.2	-84.4	210	7	
2025-08-15T00:00	17300	91	-59.5	-84.5	212	8	
2025-08-15T00:00	17350	91	-59.7	-84.6	217	9	
2025-08-15T00:00	17400	90	-59.8	-84.7	221	8	
2025-08-15T00:00	17450	89	-59.7	-84.8	220	8	
2025-08-15T00:00	17500	88	-59.6	-84.7	212	8	
2025-08-15T00:00	17550	88	-59.9	-84.8	205	8	
2025-08-15T00:00	17600	87	-60.1	-84.8	202	8	
2025-08-15T00:00	17650	86	-60.4	-84.9	199	9	
2025-08-15T00:00	17700	86	-60.8	-85.1	195	8	
2025-08-15T00:00	17750	85	-60.9	-85.4	193	7	
2025-08-15T00:00	17800	84	-60.5	-85.4	195	7	
2025-08-15T00:00	17850	84	-60.5	-85.4	197	8	
2025-08-15T00:00	17900	83	-61.0	-85.6	196	8	
2025-08-15T00:00	17950	82	-61.2	-85.7	196	8	
2025-08-15T00:00	18000	82	-61.1	-85.7	198	7	
2025-08-15T00:00	18050	81	-60.9	-85.8	203	6	
2025-08-15T00:00	18100	80	-60.9	-85.9	210	5	
2025-08-15T00:00	18150	80	-60.7	-85.8	221	5	
2025-08-15T00:00	18200	79	-60.7	-85.9	232	5	
2025-08-15T00:00	18250	78	-60.5	-85.9	241	3	
2025-08-15T00:00	18300	78	-60.6	-86.0	267	1	
2025-08-15T00:00	18350	77	-60.3	-86.0	17	1	
2025-08-15T00:00	18400	77	-60.1	-85.8	85	1	
2025-08-15T00:00	18450	76	-60.4	-85.8	107	2	
2025-08-15T00:00	18500	75	-60.5	-85.9	117	3	
2025-08-15T00:00	18550	75	-60.6	-86.2	134	2	
2025-08-15T00:00	18600	74	-60.2	-86.2	163	2	
2025-08-15T00:00	18650	74	-60.0	-86.3	175	4	
2025-08-15T00:00	18700	73	-59.5	-86.1	182	5	
2025-08-15T00:00	18750	72	-59.3	-86.1	190	5	
2025-08-15T00:00	18800	72	-59.2	-86.1	195	6	
2025-08-15T00:00	18850	71	-59.0	-86.0	197	5	
2025-08-15T00:00	18900	71	-59.1	-86.0	203	4	
2025-08-15T00:00	18950	70	-59.3	-86.1	211	2	
2025-08-15T00:00	19000	70	-59.3	-86.1	201	1	
2025-08-15T00:00	19050	69	-59.0	-86.1	135	1	
2025-08-15T00:00	19100	68	-59.1	-86.1	116	2	
2025-08-15T00:00	19150	68	-59.0	-86.0	100	2	
2025-08-15T00:00	19200	67	-58.7	-86.0	86	3	
2025-08-15T00:00	19250	67	-58.5	-85.9	84	4	
2025-08-15T00:00	19300	66	-58.5	-86.0	92	5	
2025-08-15T00:00	19350	66	-58.2	-85.8	104	5	
2025-08-15T00:00	19400	65	-58.4	-85.8	117	6	
2025-08-15T00:00	19450	65	-58.6	-85.8	128	6	
2025-08-15T00:00	19500	64	-58.9	-85.9	141	6	
2025-08-15T00:00	19550	64	-58.9	-86.0	155	5	
2025-08-15T00:00	19600	63	-58.6	-86.0	158	5	
2025-08-15T00:00	19650	63	-58.3	-86.0	157	5	
2025-08-15T00:00	19700	62	-57.9	-85.9	159	6	
2025-08-15T00:00	19750	62	-57.5	-85.8	162	7	
2025-08-15T00:00	19800	61	-57.5	-85.8	162	7	
2025-08-15T00:00	19850	61	-57.2	-85.5	157	7	
2025-08-15T00:00	19900	60	-57.2	-85.5	148	6	
2025-08-15T00:00	19950	60	-57.2	-85.6	137	6	
2025-08-15T00:00	20000	59	-57.1	-85.6	129	5	
2025-08-15T00:00	20050	59	-57.1		127	5	
2025-08-15T00:00	20100	58	-57.0		127	4	
2025-08-15T00:00	20150	58	-57.0		130	4	
2025-08-15T00:00	20200	57	-57.2		137	3	
2025-08-15T00:00	20250	57	-57.4		138	4	
2025-08-15T00:00	20300	57	-57.3		141	4	
2025-08-15T00:00	20350	56	-57.4		157	3	
2025-08-15T00:00	20400	56	-57.4		178	2	
2025-08-15T00:00	20450	55	-57.6		169	1	
2025-08-15T00:00	20500	55	-57.6		107	2	
2025-08-15T00:00	20550	54	-57.5		87	3	
2025-08-15T00:00	20600	54	-57.6		82	4	
2025-08-15T00:00	20650	54	-57.9		81	5	
2025-08-15T00:00	20700	53	-57.8		81	5	
2025-08-15T00:00	20750	53	-57.9		82	4	
2025-08-15T00:00	20800	52	-58.1		80	4	
2025-08-15T00:00	20850	52	-58.3		71	3	
2025-08-15T00:00	20900	51	-58.4		57	3	
2025-08-15T00:00	20950	51	-58.6		44	3	
2025-08-15T00:00	21000	51	-58.7		43	4	
2025-08-15T00:00	21050	50	-58.9		51	5	
2025-08-15T00:00	21100	50	-59.1		58	5	
2025-08-15T00:00	21150	49	-59.4		62	6	
2025-08-15T00:00	21200	49	-59.3		64	6	
2025-08-15T00:00	21250	49	-59.5		66	6	
2025-08-15T00:00	21300	48	-59.5		69	6	
2025-08-15T00:00	21350	48	-59.2		76	7	
2025-08-15T00:00	21400	47	-59.2		84	8	
2025-08-15T00:00	21450	47	-59.1		91	8	
2025-08-15T00:00	21500	47	-59.0		94	9	
2025-08-15T00:00	21550	46	-58.7		94	9	
2025-08-15T00:00	21600	46	-58.3		92	9	
2025-08-15T00:00	21650	46	-58.2		91	9	
2025-08-15T00:00	21700	45	-58.2		94	9	
2025-08-15T00:00	21750	45	-58.0		99	9	
2025-08-15T00:00	21800	45	-58.0		103	9	
2025-08-15T00:00	21850	44	-58.0		105	9	
2025-08-15T00:00	21900	44	-57.8		108	8	
2025-08-15T00:00	21950	44	-57.3		110	7	
2025-08-15T00:00	22000	43	-57.2		109	6	
2025-08-15T00:00	22050	43	-57.1		111	6	
2025-08-15T00:00	22100	42	-57.0		119	6	
2025-08-15T00:00	22150	42	-56.8		128	6	
2025-08-15T00:00	22200	42	-56.9		132	6	
2025-08-15T00:00	22250	42	-56.7		125	5	
2025-08-15T00:00	22300	41	-55.9		106	5	
2025-08-15T00:00	22350	41	-55.6		91	6	
2025-08-15T00:00	22400	41	-55.2		84	7	
2025-08-15T00:00	22450	40	-54.9		78	8	
2025-08-15T00:00	22500	40	-54.7		70	8	
2025-08-15T00:00	22550	40	-54.5		68	9	
2025-08-15T00:00	22600	39	-54.3		72	9	
2025-08-15T00:00	22650	39	-54.3		78	9	
2025-08-15T00:00	22700	39	-54.5		82	9	
2025-08-15T00:00	22750	38	-54.7		87	9	
2025-08-15T00:00	22800	38	-54.9		92	9	
2025-08-15T00:00	22850	38	-55.0		96	9	
2025-08-15T00:00	22900	37	-55.1		99	9	
2025-08-15T00:00	22950	37	-55.0		101	9	
2025-08-15T00:00	23000	37	-55.1		104	8	
2025-08-15T00:00	23050	37	-55.1		107	7	
2025-08-15T00:00	23100	36	-55.2		110	6	
2025-08-15T00:00	23150	36	-55.3		108	6	
2025-08-15T00:00	23200	36	-55.2		96	6	
2025-08-15T00:00	23250	35	-54.7		85	6	
2025-08-15T00:00	23300	35	-54.3		81	6	
2025-08-15T00:00	23350	35	-54.2		78	7	
2025-08-15T00:00	23400	35	-54.2		73	8	
2025-08-15T00:00	23450	34	-54.2		70	8	
2025-08-15T00:00	23500	34	-54.3		70	8	
2025-08-15T00:00	23550	34	-54.3		72	7	
2025-08-15T00:00	23600	34	-54.2		74	7	
2025-08-15T00:00	23650	33	-54.1		76	7	
2025-08-15T00:00	23700	33	-54.0		76	8	
2025-08-15T00:00	23750	33	-54.1		78	8	
2025-08-15T00:00	23800	33	-54.1		82	8	
2025-08-15T00:00	23850	32	-53.9		86	8	
2025-08-15T00:00	23900	32	-53.8		90	7	
2025-08-15T00:00	23950	32	-54.1		91	6	
2025-08-15T00:00	24000	32	-54.2		90	6	
2025-08-15T00:00	24050	31	-54.0		89	7	
2025-08-15T00:00	24100	31	-54.2		87	7	
2025-08-15T00:00	24150	31	-54.5		85	7	
2025-08-15T00:00	24200	31	-54.2		90	7	
2025-08-15T00:00	24250	30	-53.5		99	7	
2025-08-15T00:00	24300	30	-53.1		100	7	
2025-08-15T00:00	24350	30	-52.7		95	8	
2025-08-15T00:00	24400	30	-52.2		90	9	
2025-08-15T00:00	24450	29	-52.0		89	10	
2025-08-15T00:00	24500	29	-52.1		91	11	
2025-08-15T00:00	24550	29	-52.4		94	11	
2025-08-15T00:00	24600	29	-52.5		99	12	
2025-08-15T00:00	24650	29	-52.3		106	12	
2025-08-15T00:00	24700	28	-52.2		112	12	
2025-08-15T00:00	24750	28	-52.1		117	11	
2025-08-15T00:00	24800	28	-52.3		121	11	
2025-08-15T00:00	24850	28	-52.3		125	10	
2025-08-15T00:00	24900	27	-52.2		127	9	
2025-08-15T00:00	24950	27	-51.9		124	8	
2025-08-15T00:00	25000	27	-51.2		122	7	
2025-08-15T00:00	25050	27	-50.9		127	6	
2025-08-15T00:00	25100	27	-50.5		135	6	
2025-08-15T00:00	25150	26	-50.3		134	6	
2025-08-15T00:00	25200	26	-50.1		121	5	
2025-08-15T00:00	25250	26	-49.9		104	5	
2025-08-15T00:00	25300	26	-49.7		90	5	
2025-08-15T00:00	25350	26	-49.6		87	5	
2025-08-15T00:00	25400	25	-49.4		94	5	
2025-08-15T00:00	25450	25	-49.4		106	5	
2025-08-15T00:00	25500	25	-49.3		115	4	
2025-08-15T00:00	25550	25	-49.2		116	4	
2025-08-15T00:00	25600	25	-49.1		111	4	
2025-08-15T00:00	25650	24	-48.7		106	4	
2025-08-15T00:00	25700	24	-48.7		102	4	
2025-08-15T00:00	25750	24	-48.6		102	4	
2025-08-15T00:00	25800	24	-48.5		99	4	
2025-08-15T00:00	25850	24	-48.8		88	4	
2025-08-15T00:00	25900	24	-48.9		75	4	
2025-08-15T00:00	25950	23	-48.7		72	5	
2025-08-15T00:00	26000	23	-48.3		75	6	
2025-08-15T00:00	26050	23	-48.1		78	8	
2025-08-15T00:00	26100	23	-48.2		80	10	
2025-08-15T00:00	26150	23	-48.3		81	11	
2025-08-15T00:00	26200	23	-48.3		84	12	
2025-08-15T00:00	26250	22	-48.2		88	13	
2025-08-15T00:00	26300	22	-48.2		93	12	
2025-08-15T00:00	26350	22	-48.4		99	12	
2025-08-15T00:00	26400	22	-48.5		102	11	
2025-08-15T00:00	26450	22	-48.5		104	9	
2025-08-15T00:00	26500	22	-48.1		102	8	
2025-08-15T00:00	26550	21	-48.0		98	7	
2025-08-15T00:00	26600	21	-48.1		90	7	
2025-08-15T00:00	26650	21	-48.0		84	8	
2025-08-15T00:00	26700	21	-47.8		83	9	
2025-08-15T00:00	26750	21	-47.6		84	10	
2025-08-15T00:00	26800	21	-47.6		86	10	
2025-08-15T00:00	26850	20	-47.7		89	11	
2025-08-15T00:00	26900	20	-47.9		92	11	
2025-08-15T00:00	26950	20	-47.9		95	11	
2025-08-15T00:00	27000	20	-47.8		98	11	
2025-08-15T00:00	27050	20	-47.6		99	9	
2025-08-15T00:00	27100	20	-47.5		101	9	
2025-08-15T00:00	27150	19	-47.3		104	9	
2025-08-15T00:00	27200	19	-47.2		107	10	
2025-08-15T00:00	27250	19	-47.2		109	10	
2025-08-15T00:00	27300	19	-47.0		110	9	
2025-08-15T00:00	27350	19	-47.0		110	9	
2025-08-15T00:00	27400	19	-47.0		108	8	
2025-08-15T00:00	27450	19	-47.0		106	7	
2025-08-15T00:00	27500	18	-46.9		101	6	
2025-08-15T00:00	27550	18	-46.8		93	4	
2025-08-15T00:00	27600	18	-46.9		80	4	
2025-08-15T00:00	27650	18	-46.9		60	4	
2025-08-15T00:00	27700	18	-47.0		37	4	
2025-08-15T00:00	27750	18	-47.1		23	6	
2025-08-15T00:00	27800	18	-46.7		18	8	
2025-08-15T00:00	27850	18	-46.4		17	10	
2025-08-15T00:00	27900	17	-46.2		21	11	
2025-08-15T00:00	27950	17	-46.2		26	11	
2025-08-15T00:00	28000	17	-46.1		35	10	
2025-08-15T00:00	28050	17	-46.1		46	10	
2025-08-15T00:00	28100	17	-45.9		56	10	
2025-08-15T00:00	28150	17	-46.2		65	10	
2025-08-15T00:00	28200	17	-46.4		70	9	
2025-08-15T00:00	28250	17	-46.5		70	9	
2025-08-15T00:00	28300	16	-46.5		64	9	
2025-08-15T00:00	28350	16	-46.5		56	8	
2025-08-15T00:00	28400	16	-46.6		52	9	
2025-08-15T00:00	28450	16	-46.5		52	9	
2025-08-15T00:00	28500	16	-46.3		56	9	
2025-08-15T00:00	28550	16	-46.2		60	10	
2025-08-15T00:00	28600	16	-46.0		63	10	
2025-08-15T00:00	28650	16	-45.7		65	9	
2025-08-15T00:00	28700	15	-45.7		65	8	
2025-08-15T00:00	28750	15	-45.9		60	8	
2025-08-15T00:00	28800	15	-46.1		51	8	
2025-08-15T00:00	28850	15	-45.8		45	10	
2025-08-15T00:00	28900	15	-45.5		45	11	
2025-08-15T00:00	28950	15	-45.3		49	12	
2025-08-15T00:00	29000	15	-44.7		54	13	
2025-08-15T00:00	29050	15	-44.6		58	13	
2025-08-15T00:00	29100	15	-44.7		59	12	
2025-08-15T00:00	29150	14	-44.7		59	12	
2025-08-15T00:00	29200	14	-44.7		58	11	
2025-08-15T00:00	29250	14	-44.8		58	11	
2025-08-15T00:00	29300	14	-44.7		61	12	
2025-08-15T00:00	29350	14	-44.8		67	12	
2025-08-15T00:00	29400	14	-44.8		75	12	
2025-08-15T00:00	29450	14	-44.9		84	13	
2025-08-15T00:00	29500	14	-45.1		91	13	
2025-08-15T00:00	29550	14	-45.0		96	13	
2025-08-15T00:00	29600	13	-44.9		97	12	
2025-08-15T00:00	29650	13	-45.1		95	11	
2025-08-15T00:00	29700	13	-44.9		92	11	
2025-08-15T00:00	29750	13	-44.9		87	10	
2025-08-15T00:00	29800	13	-45.1		80	10	
2025-08-15T00:00	29850	13	-45.1		75	11	
2025-08-15T00:00	29900	13	-45.0		74	11	
2025-08-15T00:00	29950	13	-44.8		76	12	
2025-08-15T00:00	30000	13	-44.8		80	12	
2025-08-15T00:00	30050	13	-44.8		82	13	
2025-08-15T00:00	30100	13	-44.9		80	13	
2025-08-15T00:00	30150	12	-44.8		75	13	
2025-08-15T00:00	30200	12	-44.8		71	13	
2025-08-15T00:00	30250	12	-44.7		71	13	
2025-08-15T00:00	30300	12	-44.8		75	12	
2025-08-15T00:00	30350	12	-44.9		81	12	
2025-08-15T00:00	30400	12	-45.1		85	11	
2025-08-15T00:00	30450	12	-45.4		89	11	
2025-08-15T00:00	30500	12	-45.7		91	11	
2025-08-15T00:00	30550	12	-45.6		89	11	
2025-08-15T00:00	30600	12	-45.2		84	12	
2025-08-15T00:00	30650	12	-45.2		78	12	
2025-08-15T00:00	30700	11	-44.8		75	12	
2025-08-15T00:00	30750	11	-44.3		75	10	
2025-08-15T00:00	30800	11	-44.2		76	9	
2025-08-15T00:00	30850	11	-44.4		72	8	
2025-08-15T00:00	30900	11	-44.4		66	8	
2025-08-15T00:00	30950	11	-44.4		62	9	
2025-08-15T00:00	31000	11	-44.2		62	10	
2025-08-15T00:00	31050	11	-44.1		66	11	
2025-08-15T00:00	31100	11	-44.1		72	11	
2025-08-15T00:00	31150	11	-44.0		80	10	
2025-08-15T00:00	31200	11	-43.9		88	10	
2025-08-15T00:00	31250	11	-43.8		90	10	
2025-08-15T00:00	31300	10	-43.9		87	10	
2025-08-15T00:00	31350	10	-43.8		80	10	
2025-08-15T00:00	31400	10	-43.6		74	11	
2025-08-15T00:00	31450	10	-43.4		70	12	
2025-08-15T00:00	31500	10	-43.4		68	13	
2025-08-15T00:00	31550	10	-43.3		69	13	
2025-08-15T00:00	31600	10	-43.2		72	13	
2025-08-15T00:00	31650	10	-43.2		76	13	
2025-08-15T00:00	31700	10	-43.2		80	13	
2025-08-15T00:00	31750	10	-43.2		82	13	
2025-08-15T00:00	31800	10	-43.1		81	13	
2025-08-15T00:00	31850	10	-42.9		81	14	
2025-08-15T00:00	31900	10	-42.8		84	14	
2025-08-15T00:00	31950	9	-42.6		87	14	
2025-08-15T00:00	32000	9	-42.7		87	14	
2025-08-15T00:00	32050	9	-42.4		85	14	
2025-08-15T00:00	32100	9	-42.1		85	14	
2025-08-15T00:00	32150	9	-42.2		85	13	
2025-08-15T00:00	32200	9	-42.0		82	12	
2025-08-15T00:00	32250	9	-41.4		78	12	
2025-08-15T00:00	32300	9	-41.1		74	12	
2025-08-15T00:00	32350	9	-40.9		73	11	
2025-08-15T00:00	32400	9	-40.7		75	11	
2025-08-15T00:00	32450	9	-40.4		78	11	
2025-08-15T00:00	32500	9	-40.1		80	11	
2025-08-15T00:00	32550	9	-39.3		79	12	
2025-08-15T00:00	32600	9	-38.6		76	12	
2025-08-15T00:00	32650	9	-37.9		71	13	
2025-08-15T00:00	32700	8	-37.7		68	14	
2025-08-15T00:00	32750	8	-37.7		67	15	
2025-08-15T00:00	32800	8	-37.7		66	15	
2025-08-15T00:00	32850	8	-37.4		65	14	
2025-08-15T00:00	32900	8	-37.2		62	13	
2025-08-15T00:00	32950	8	-37.3		59	12	
2025-08-15T00:00	33000	8	-37.5		57	12	
2025-08-15T00:00	33050	8	-37.6		59	13	
2025-08-15T00:00	33100	8	-37.3		64	14	
2025-08-15T00:00	33150	8	-37.1		72	15	
2025-08-15T00:00	33200	8	-37.0		78	17	
2025-08-15T00:00	33250	8	-37.0		82	18	
2025-08-15T00:00	33300	8	-37.0		85	19	
2025-08-15T00:00	33350	8	-37.3		86	19	
2025-08-15T00:00	33400	8	-37.1		87	18	
2025-08-15T00:00	33450	8	-36.6		86	17	
2025-08-15T00:00	33500	8	-36.4		84	16	
2025-08-15T00:00	33550	8	-36.3		81	16	
2025-08-15T00:00	33600	7	-36.4		79	15	
2025-08-15T00:00	33650	7	-36.5		79	14	
2025-08-15T00:00	33700	7	-36.5		81	14	
2025-08-15T00:00	33750	7	-36.3		85	15	
2025-08-15T00:00	33800	7	-36.4		88	15	
2025-08-15T00:00	33850	7	-36.8		90	16	
2025-08-15T00:00	33900	7	-37.1		93	15	
2025-08-15T00:00	33950	7	-37.3		96	15	
2025-08-15T00:00	34000	7	-36.9		99	14	
2025-08-15T00:00	34050	7	-36.8		100	13	
2025-08-15T00:00	34100	7	-36.9		99	12	
2025-08-15T00:00	34150	7	-36.6		96	12	
2025-08-15T00:00	34200	7	-35.9		92	11	
2025-08-15T00:00	34250	7	-35.8		91	10	
2025-08-15T00:00	34300	7	-36.0		90	10	
2025-08-15T00:00	34350	7	-36.1		88	9	
2025-08-15T00:00	34400	7	-35.7		89	8	
2025-08-15T00:00	34450	7	-35.4		90	8	
2025-08-15T00:00	34500	7	-35.5		87	8	
2025-08-15T00:00	34550	7	-35.5		79	8	
2025-08-15T00:00	34600	6	-35.2		69	8	
2025-08-15T00:00	34650	6	-35.0		64	8	
2025-08-15T00:00	34700	6	-34.8		66	9	
2025-08-15T00:00	34750	6	-34.6		76	9	
2025-08-15T00:00	34800	6	-34.4		87	9	
2025-08-15T00:00	34850	6	-34.6		94	9	
2025-08-15T00:00	34900	6	-34.8		95	9	
2025-08-15T00:00	34950	6	-34.4		92	9	
2025-08-15T00:00	35000	6	-34.4		88	9	
2025-08-15T00:00	35050	6	-34.5		87	9	
2025-08-15T00:00	35100	6	-34.7		88	9	
2025-08-15T00:00	35150	6	-34.7		89	9	
2025-08-15T00:00	35200	6	-34.9		86	9	
2025-08-15T00:00	35250	6	-34.8		81	10	
2025-08-15T00:00	35300	6	-34.7		76	11	
2025-08-15T00:00	35350	6	-34.6		70	11	
2025-08-15T00:00	35400	6	-34.4		68	12	
2025-08-15T00:00	35450	6	-34.4		69	12	
2025-08-15T00:00	35500	6	-34.5		73	12	
2025-08-15T00:00	35550	6	-34.3		76	12	
2025-08-15T00:00	35600	6	-34.2		77	12	
2025-08-15T00:00	35650	6	-33.9		79	12	
2025-08-15T00:00	35700	6	-33.7		85	12	
2025-08-15T00:00	35750	5	-33.5		92	11	
2025-08-15T00:00	35800	5	-33.4		91	11	
2025-08-15T00:00	35850	5	-32.9		85	11	
2025-08-15T00:00	35900	5	-32.4		83	10	
2025-08-15T00:00	35950	5	-32.1		75	11	
2025-08-15T00:00	36000	5	-31.6		66	13	
2025-08-15T00:00	36050	5	-30.9		64	14	
2025-08-15T00:00	36100	5	-30.7		63	15	
2025-08-15T00:00	36150	5	-30.4		64	16	
2025-08-15T00:00	36200	5	-30.1		68	18	
2025-08-15T00:00	36250	5	-29.4		74	19	
2025-08-15T00:00	36300	5	-28.9		77	20	
2025-08-15T00:00	36350	5	-29.0		77	19	
2025-08-15T00:00	36400	5	-29.0		75	19	
2025-08-15T00:00	36450	5	-28.9		72	20	
2025-08-15T00:00	36500	5	-28.8		69	20	
2025-08-15T00:00	36550	5	-28.9		69	21	
2025-08-15T00:00	36600	5	-29.0		70	21	
2025-08-15T00:00	36650	5	-29.1		72	22	
2025-08-15T00:00	36700	5	-29.0		76	22	
2025-08-15T00:00	36750	5	-28.7		78	22	
2025-08-15T00:00	36800	5	-28.3		80	22	
2025-08-15T00:00	36850	5	-28.0		81	22	
2025-08-15T00:00	36900	5	-28.1		83	21	
2025-08-15T00:00	36950	5	-27.7		86	21	
2025-08-15T00:00	37000	5	-27.3		90	21	
2025-08-15T00:00	37050	5	-27.3		93	21	
2025-08-15T00:00	37100	5	-27.3		95	21	
2025-08-15T00:00	37150	5	-27.6		98	20	
2025-08-15T00:00	37200	4	-27.9		102	19	
2025-08-15T00:00	37250	4	-28.1		104	18	
2025-08-15T00:00	37300	4	-28.3		105	17	
2025-08-15T00:00	37350	4	-28.3		103	16	
2025-08-15T00:00	37400	4	-28.2		99	16	
2025-08-15T00:00	37450	4	-28.2		94	16	
2025-08-15T00:00	37500	4	-27.9		88	15	
2025-08-15T12:00	491	964	30.3	16.0	336	3	4.4
2025-08-15T12:00	501	964	30.1	15.6	9	3	4.5
2025-08-15T12:00	520	962	29.1	15.3	9	3	4.7
2025-08-15T12:00	540	959	28.3	14.9	6	3	4.9
2025-08-15T12:00	560	957	28.3	14.8	6	3	5.1
2025-08-15T12:00	580	955	28.3	14.9	6	3	5.3
2025-08-15T12:00	600	953	27.9	15.0	6	4	5.4
2025-08-15T12:00	620	950	27.6	14.8	7	4	5.4
2025-08-15T12:00	640	948	27.6	14.8	8	4	5.4
2025-08-15T12:00	660	946	27.4	14.8	10	4	5.5
2025-08-15T12:00	680	944	27.0	14.7	12	4	5.5
2025-08-15T12:00	700	942	26.8	14.6	15	4	5.5
2025-08-15T12:00	720	940	26.6	14.5	17	4	5.5
2025-08-15T12:00	740	938	26.5	14.4	20	4	5.5
2025-08-15T12:00	760	936	26.4	14.3	23	4	5.5
2025-08-15T12:00	780	933	26.2	14.2	27	3	5.6
2025-08-15T12:00	800	931	26.0	14.2	31	3	5.6
2025-08-15T12:00	820	929	25.7	14.3	36	3	5.6
2025-08-15T12:00	840	927	25.6	14.3	43	3	5.6
2025-08-15T12:00	860	925	25.3	14.4	49	3	5.6
2025-08-15T12:00	880	923	25.1	14.2	55	3	5.6
2025-08-15T12:00	900	921	24.9	14.2	59	3	5.6
2025-08-15T12:00	920	919	24.7	14.0	62	4	5.6
2025-08-15T12:00	940	917	24.6	13.9	62	4	5.6
2025-08-15T12:00	960	915	24.6	13.4	61	4	5.6
2025-08-15T12:00	980	913	24.5	13.4	60	4	5.6
2025-08-15T12:00	1000	910	24.3	13.6	59	4	5.6
2025-08-15T12:00	1020	909	24.1	13.6	59	4	5.6
2025-08-15T12:00	1040	906	24.0	13.2	61	5	5.7
2025-08-15T12:00	1060	904	23.9	12.9	62	5	5.7
2025-08-15T12:00	1080	902	23.8	12.7	63	5	5.7
2025-08-15T12:00	1100	900	23.6	12.6	64	5	5.7
2025-08-15T12:00	1120	898	23.6	11.6	64	5	5.7
2025-08-15T12:00	1140	896	23.6	11.5	64	5	5.7
2025-08-15T12:00	1160	894	23.4	11.6	64	5	5.8
2025-08-15T12:00	1180	892	23.2	11.5	63	5	5.8
2025-08-15T12:00	1200	890	23.0	11.5	62	5	5.9
2025-08-15T12:00	1220	888	22.9	11.4	62	5	5.9
2025-08-15T12:00	1240	886	22.6	11.6	61	5	5.9
2025-08-15T12:00	1260	884	22.5	11.5	61	5	5.9
2025-08-15T12:00	1280	882	22.3	11.2	60	5	5.9
2025-08-15T12:00	1300	880	22.1	11.3	60	5	5.9
2025-08-15T12:00	1320	878	21.9	11.4	59	5	5.9
2025-08-15T12:00	1340	876	21.8	11.3	59	5	5.9
2025-08-15T12:00	1360	874	21.6	11.3	58	5	5.9
2025-08-15T12:00	1380	872	21.5	11.2	58	5	6.0
2025-08-15T12:00	1400	870	21.2	11.2	57	5	5.9
2025-08-15T12:00	1420	868	21.1	10.9	56	5	6.0
2025-08-15T12:00	1440	866	21.0	10.6	54	5	6.0
2025-08-15T12:00	1460	863	20.9	10.6	53	5	6.0
2025-08-15T12:00	1480	861	20.7	10.9	53	5	6.0
2025-08-15T12:00	1500	859	20.6	10.8	54	5	6.0
2025-08-15T12:00	1520	858	20.4	10.7	55	5	6.0
2025-08-15T12:00	1540	856	20.2	10.5	58	5	6.0
2025-08-15T12:00	1560	854	20.1	10.1	60	5	5.9
2025-08-15T12:00	1580	852	20.0	10.1	63	5	6.0
2025-08-15T12:00	1600	850	19.8	10.3	65	5	6.0
2025-08-15T12:00	1620	848	19.6	10.2	66	5	6.0
2025-08-15T12:00	1640	846	19.4	10.2	67	5	6.0
2025-08-15T12:00	1660	844	19.2	10.3	67	5	6.1
2025-08-15T12:00	1680	842	19.0	10.3	67	5	6.1
2025-08-15T12:00	1700	840	18.8	10.3	66	5	6.0
2025-08-15T12:00	1720	838	18.6	10.5	65	5	6.0
2025-08-15T12:00	1740	836	18.5	10.5	64	5	6.1
2025-08-15T12:00	1760	834	18.3	10.6	62	5	6.1
2025-08-15T12:00	1780	832	18.1	10.4	60	5	6.1
2025-08-15T12:00	1800	830	18.0	10.3	57	5	6.1
2025-08-15T12:00	1820	828	17.8	10.2	54	5	6.1
2025-08-15T12:00	1840	826	17.7	10.2	50	5	6.1
2025-08-15T12:00	1860	824	17.5	10.2	46	5	6.1
2025-08-15T12:00	1880	822	17.3	10.0	44	5	6.1
2025-08-15T12:00	1900	820	17.1	9.9	42	5	6.1
2025-08-15T12:00	1920	819	17.0	9.6	42	6	6.1
2025-08-15T12:00	1940	817	16.8	9.4	41	6	6.0
2025-08-15T12:00	1960	815	16.6	9.3	41	6	6.0
2025-08-15T12:00	1980	813	16.4	9.3	40	6	6.0
2025-08-15T12:00	2000	811	16.2	9.3	39	6	5.9
2025-08-15T12:00	2020	809	16.0	9.1	37	6	5.9
2025-08-15T12:00	2040	807	15.9	9.0	36	6	5.9
2025-08-15T12:00	2060	805	15.7	8.9	34	6	5.9
2025-08-15T12:00	2080	803	15.5	8.9	33	6	5.9
2025-08-15T12:00	2100	802	15.3	9.0	31	6	5.8
2025-08-15T12:00	2120	800	15.2	9.0	31	6	5.6
2025-08-15T12:00	2140	798	15.0	9.1	31	6	5.5
2025-08-15T12:00	2160	796	14.7	9.1	33	6	5.4
2025-08-15T12:00	2180	794	14.5	9.0	34	6	5.4
2025-08-15T12:00	2200	792	14.3	9.0	37	6	5.4
2025-08-15T12:00	2220	790	14.2	9.2	39	6	5.3
2025-08-15T12:00	2240	788	14.0	9.7	42	6	5.2
2025-08-15T12:00	2260	787	13.9	9.9	44	6	5.2
2025-08-15T12:00	2280	785	13.7	9.9	46	6	5.1
2025-08-15T12:00	2300	783	13.5	9.9	47	6	5.1
2025-08-15T12:00	2320	781	13.3	9.7	48	6	5.0
2025-08-15T12:00	2340	779	13.1	9.9	48	6	5.0
2025-08-15T12:00	2360	777	12.9	10.2	48	6	5.0
2025-08-15T12:00	2380	775	12.7	10.1	48	6	4.9
2025-08-15T12:00	2400	774	12.5	10.1	47	6	4.9
2025-08-15T12:00	2420	772	12.3	10.0	47	6	4.9
2025-08-15T12:00	2440	770	12.2	10.0	46	6	4.9
2025-08-15T12:00	2460	768	12.0	10.0	46	6	4.9
2025-08-15T12:00	2480	766	11.8	10.0	46	6	4.9
2025-08-15T12:00	2500	764	11.7	9.3	46	6	4.9
2025-08-15T12:00	2520	762	11.7	7.2	45	7	4.9
2025-08-15T12:00	2540	761	11.8	5.7	45	7	4.9
2025-08-15T12:00	2560	759	11.8	5.7	44	7	4.9
2025-08-15T12:00	2580	757	11.5	5.7	44	7	4.9
2025-08-15T12:00	2600	755	11.4	5.3	42	7	4.8
2025-08-15T12:00	2620	753	11.3	5.0	41	7	4.7
2025-08-15T12:00	2640	752	11.1	5.0	40	6	4.6
2025-08-15T12:00	2660	750	11.0	5.2	39	6	4.5
2025-08-15T12:00	2680	748	10.9	5.0	38	6	4.5
2025-08-15T12:00	2700	747	10.8	4.0	36	6	4.4
2025-08-15T12:00	2720	745	10.6	3.9	35	6	4.4
2025-08-15T12:00	2740	743	10.6	3.1	34	6	4.4
2025-08-15T12:00	2760	741	10.6	2.2	33	6	4.4
2025-08-15T12:00	2780	739	10.5	1.7	32	7	4.3
2025-08-15T12:00	2800	738	10.5	1.0	30	7	4.3
2025-08-15T12:00	2820	736	10.4	0.8	29	7	4.2
2025-08-15T12:00	2840	734	10.3	1.8	27	7	4.2
2025-08-15T12:00	2860	732	10.3	0.0	25	7	4.2
2025-08-15T12:00	2880	730	10.3	-1.3	24	8	4.2
2025-08-15T12:00	2900	729	10.3	-0.8	22	8	4.1
2025-08-15T12:00	2920	727	10.1	-0.3	21	8	4.1
2025-08-15T12:00	2940	725	9.9	0.8	20	8	4.1
2025-08-15T12:00	2960	723	9.8	0.6	19	8	4.1
2025-08-15T12:00	2980	722	9.8	0.3	18	7	4.1
2025-08-15T12:00	3000	720	9.8	-0.4	17	7	4.1
2025-08-15T12:00	3020	718	9.7	-0.7	17	7	4.1
2025-08-15T12:00	3040	717	9.7	-0.8	17	7	4.1
2025-08-15T12:00	3060	715	9.6	-0.8	16	7	4.1
2025-08-15T12:00	3080	713	9.4	-1.0	17	7	4.0
2025-08-15T12:00	3100	711	9.3	-2.0	17	6	4.0
2025-08-15T12:00	3120	710	9.3	-2.8	17	6	3.9
2025-08-15T12:00	3140	708	9.2	-3.1	18	6	3.9
2025-08-15T12:00	3160	706	9.1	-3.4	19	6	3.8
2025-08-15T12:00	3180	704	9.0	-3.6	20	6	3.7
2025-08-15T12:00	3200	703	8.9	-3.7	21	6	3.7
2025-08-15T12:00	3220	701	8.8	-3.7	21	6	3.6
2025-08-15T12:00	3240	699	8.6	-3.8	22	6	3.6
2025-08-15T12:00	3260	698	8.4	-3.8	22	6	3.5
2025-08-15T12:00	3280	696	8.3	-3.9	22	6	3.4
2025-08-15T12:00	3300	694	8.1	-3.8	22	6	3.4
2025-08-15T12:00	3320	693	7.8	-3.9	22	6	3.3
2025-08-15T12:00	3340	691	7.7	-4.0	22	6	3.3
2025-08-15T12:00	3360	689	7.4	-4.0	22	6	3.3
2025-08-15T12:00	3380	688	7.3	-4.1	22	6	3.3
2025-08-15T12:00	3400	686	7.1	-4.0	21	6	3.3
2025-08-15T12:00	3420	684	6.9	-4.1	20	6	3.2
2025-08-15T12:00	3440	683	6.7	-4.1	20	6	3.2
2025-08-15T12:00	3460	681	6.6	-3.9	19	6	3.2
2025-08-15T12:00	3480	679	6.4	-3.7	18	6	3.2
2025-08-15T12:00	3500	678	6.2	-3.8	18	6	3.2
2025-08-15T12:00	3520	676	6.0	-4.0	17	6	3.1
2025-08-15T12:00	3540	674	5.8	-4.1	17	6	3.1
2025-08-15T12:00	3560	673	5.7	-4.3	17	6	3.1
2025-08-15T12:00	3580	671	5.5	-4.4	17	6	3.1
2025-08-15T12:00	3600	670	5.3	-4.4	17	6	3.1
2025-08-15T12:00	3620	668	5.1	-4.4	17	6	3.1
2025-08-15T12:00	3640	666	4.9	-4.5	17	6	3.1
2025-08-15T12:00	3660	664	4.7	-4.5	16	6	3.1
2025-08-15T12:00	3680	663	4.5	-4.6	16	6	3.1
2025-08-15T12:00	3700	661	4.3	-4.6	15	6	3.1
2025-08-15T12:00	3720	660	4.2	-4.7	15	6	3.0
2025-08-15T12:00	3740	658	4.0	-4.7	14	6	3.0
2025-08-15T12:00	3760	656	3.8	-4.8	14	6	2.9
2025-08-15T12:00	3780	655	3.6	-4.8	14	6	2.9
2025-08-15T12:00	3800	653	3.5	-4.8	14	6	2.9
2025-08-15T12:00	3820	652	3.2	-4.8	15	6	2.9
2025-08-15T12:00	3840	650	3.0	-4.9	16	6	2.8
2025-08-15T12:00	3860	649	2.9	-5.0	17	6	2.8
2025-08-15T12:00	3880	647	2.7	-4.8	18	6	2.8
2025-08-15T12:00	3900	645	2.5	-4.7	19	6	2.8
2025-08-15T12:00	3920	644	2.4	-4.7	20	6	2.9
2025-08-15T12:00	3940	642	2.2	-4.7	22	6	2.8
2025-08-15T12:00	3960	640	2.0	-4.7	23	6	2.8
2025-08-15T12:00	3980	639	1.8	-4.7	24	6	2.8
2025-08-15T12:00	4000	637	1.7	-4.7	25	6	2.8
2025-08-15T12:00	4020	636	1.5	-4.6	25	6	2.8
2025-08-15T12:00	4040	634	1.3	-4.6	25	6	2.8
2025-08-15T12:00	4060	633	1.1	-4.6	24	6	2.8
2025-08-15T12:00	4080	631	0.9	-4.7	23	6	2.8
2025-08-15T12:00	4100	629	0.7	-4.5	22	6	2.8
2025-08-15T12:00	4120	628	0.5	-4.4	20	6	2.7
2025-08-15T12:00	4140	626	0.2	-4.4	17	6	2.7
2025-08-15T12:00	4160	625	0.1	-4.5	16	6	2.7
2025-08-15T12:00	4180	623	-0.1	-4.5	14	6	2.7
2025-08-15T12:00	4200	621	-0.3	-4.3	12	6	2.7
2025-08-15T12:00	4220	620	-0.4	-4.4	10	6	2.7
2025-08-15T12:00	4240	619	-0.6	-4.3	9	6	2.7
2025-08-15T12:00	4260	617	-0.8	-4.4	9	6	2.7
2025-08-15T12:00	4280	615	-0.9	-4.4	9	6	2.8
2025-08-15T12:00	4300	614	-1.1	-4.4	9	6	2.8
2025-08-15T12:00	4320	613	-1.3	-4.5	9	6	2.8
2025-08-15T12:00	4340	611	-1.5	-4.6	10	6	2.8
2025-08-15T12:00	4360	609	-1.7	-4.8	10	6	2.9
2025-08-15T12:00	4380	608	-1.9	-5.1	11	6	2.9
2025-08-15T12:00	4400	606	-2.0	-5.3	12	6	2.9
2025-08-15T12:00	4420	605	-2.2	-5.5	12	6	2.9
2025-08-15T12:00	4440	603	-2.4	-5.7	13	7	3.0
2025-08-15T12:00	4460	602	-2.5	-5.9	14	7	3.0
2025-08-15T12:00	4480	600	-2.8	-5.9	14	7	3.0
2025-08-15T12:00	4500	598	-3.0	-5.9	16	7	3.0
2025-08-15T12:00	4520	597	-3.1	-6.0	17	7	3.0
2025-08-15T12:00	4540	596	-3.3	-6.5	18	7	3.0
2025-08-15T12:00	4560	594	-3.4	-7.3	21	7	3.0
2025-08-15T12:00	4580	593	-3.6	-7.5	23	7	3.0
2025-08-15T12:00	4600	591	-3.8	-7.5	25	7	3.0
2025-08-15T12:00	4620	590	-3.9	-7.7	28	7	3.0
2025-08-15T12:00	4640	588	-4.0	-8.0	29	7	3.0
2025-08-15T12:00	4660	587	-4.1	-8.1	32	6	3.0
2025-08-15T12:00	4680	585	-4.3	-8.2	34	6	3.0
2025-08-15T12:00	4700	584	-4.4	-8.6	36	6	2.9
2025-08-15T12:00	4720	582	-4.5	-10.4	38	6	3.0
2025-08-15T12:00	4740	581	-4.5	-12.8	39	6	3.0
2025-08-15T12:00	4760	579	-4.3	-16.3	40	6	3.0
2025-08-15T12:00	4780	578	-4.2	-16.4	40	6	3.1
2025-08-15T12:00	4800	576	-4.3	-16.2	40	6	3.2
2025-08-15T12:00	4820	575	-4.5	-16.2	39	6	3.2
2025-08-15T12:00	4840	573	-4.6	-16.1	39	6	3.3
2025-08-15T12:00	4860	572	-4.7	-16.0	39	6	3.4
2025-08-15T12:00	4880	571	-4.8	-16.3	38	6	3.4
2025-08-15T12:00	4900	569	-4.8	-17.2	39	6	3.5
2025-08-15T12:00	4920	568	-4.9	-18.4	39	6	3.5
2025-08-15T12:00	4940	566	-4.9	-17.0	40	6	3.6
2025-08-15T12:00	4960	565	-5.1	-13.5	41	6	3.7
2025-08-15T12:00	4980	563	-5.3	-12.6	42	6	3.7
2025-08-15T12:00	5000	562	-5.5	-12.4	43	6	3.8
2025-08-15T12:00	5020	560	-5.7	-12.2	43	6	3.8
2025-08-15T12:00	5040	559	-5.9	-11.4	44	5	3.9
2025-08-15T12:00	5060	557	-6.0	-10.7	44	5	3.9
2025-08-15T12:00	5080	556	-6.1	-11.9	44	5	3.9
2025-08-15T12:00	5100	555	-6.1	-13.1	44	5	3.9
2025-08-15T12:00	5120	553	-6.3	-13.9	44	5	4.0
2025-08-15T12:00	5140	552	-6.4	-14.1	44	5	4.0
2025-08-15T12:00	5160	550	-6.6	-13.8	45	5	4.0
2025-08-15T12:00	5180	549	-6.8	-14.5	45	5	4.0
2025-08-15T12:00	5200	548	-6.9	-15.3	45	5	4.0
2025-08-15T12:00	5220	546	-7.0	-15.9	45	5	4.0
2025-08-15T12:00	5240	545	-7.2	-17.2	45	5	4.0
2025-08-15T12:00	5260	543	-7.3	-20.2	45	5	4.1
2025-08-15T12:00	5280	542	-7.3	-22.6	45	5	4.0
2025-08-15T12:00	5300	541	-7.3	-23.3	44	5	4.0
2025-08-15T12:00	5320	539	-7.4	-24.3	43	5	4.0
2025-08-15T12:00	5340	538	-7.4	-25.5	42	5	4.0
2025-08-15T12:00	5360	537	-7.5	-26.4	41	5	3.9
2025-08-15T12:00	5380	535	-7.6	-28.5	41	5	3.9
2025-08-15T12:00	5400	534	-7.6	-30.2	40	5	3.8
2025-08-15T12:00	5420	533	-7.7	-29.7	39	5	3.8
2025-08-15T12:00	5440	531	-7.9	-28.6	38	5	3.8
2025-08-15T12:00	5460	530	-8.1	-28.3	37	5	3.8
2025-08-15T12:00	5480	528	-8.3	-28.1	37	5	3.8
2025-08-15T12:00	5500	527	-8.5	-28.2	36	5	3.8
2025-08-15T12:00	5520	526	-8.6	-28.4	36	5	3.8
2025-08-15T12:00	5540	524	-8.8	-28.1	35	6	3.8
2025-08-15T12:00	5560	523	-9.0	-26.3	35	6	3.8
2025-08-15T12:00	5580	521	-9.3	-25.3	34	6	3.8
2025-08-15T12:00	5600	520	-9.4	-24.5	33	6	3.8
2025-08-15T12:00	5620	519	-9.6	-22.7	33	6	3.8
2025-08-15T12:00	5640	517	-9.8	-18.6	32	6	3.8
2025-08-15T12:00	5660	516	-10.0	-16.9	32	7	3.8
2025-08-15T12:00	5680	515	-10.2	-16.4	32	7	3.8
2025-08-15T12:00	5700	513	-10.4	-16.1	31	7	3.8
2025-08-15T12:00	5720	512	-10.5	-15.9	32	7	3.9
2025-08-15T12:00	5740	511	-10.6	-15.5	32	7	4.0
2025-08-15T12:00	5760	509	-10.7	-15.3	32	7	4.0
2025-08-15T12:00	5780	508	-10.8	-15.4	32	7	4.1
2025-08-15T12:00	5800	507	-10.9	-15.6	32	7	4.1
2025-08-15T12:00	5820	506	-10.9	-16.8	32	7	4.1
2025-08-15T12:00	5840	504	-11.0	-17.7	33	7	4.1
2025-08-15T12:00	5860	503	-11.1	-17.6	33	7	4.1
2025-08-15T12:00	5880	502	-11.1	-18.3	33	7	4.1
2025-08-15T12:00	5900	500	-11.2	-18.8	33	7	4.1
2025-08-15T12:00	5920	499	-11.3	-19.0	33	7	4.1
2025-08-15T12:00	5940	498	-11.4	-18.8	32	7	4.1
2025-08-15T12:00	5960	497	-11.5	-20.0	31	7	4.1
2025-08-15T12:00	5980	495	-11.6	-20.5	29	7	4.1
2025-08-15T12:00	6000	494	-11.8	-19.1	27	7	4.1
2025-08-15T12:00	6020	492	-11.9	-18.6	25	7	4.1
2025-08-15T12:00	6040	491	-12.0	-18.2	22	7	4.1
2025-08-15T12:00	6060	490	-12.0	-19.7	20	7	4.1
2025-08-15T12:00	6080	489	-12.1	-20.3	18	8	4.1
2025-08-15T12:00	6100	487	-12.3	-19.9	17	8	4.1
2025-08-15T12:00	6120	486	-12.5	-19.8	17	8	4.1
2025-08-15T12:00	6140	485	-12.6	-19.7	17	8	4.1
2025-08-15T12:00	6160	484	-12.8	-19.6	17	8	4.1
2025-08-15T12:00	6180	482	-13.0	-19.6	17	8	4.1
2025-08-15T12:00	6200	481	-13.2	-19.7	18	8	4.1
2025-08-15T12:00	6220	480	-13.4	-19.8	18	9	4.1
2025-08-15T12:00	6240	479	-13.6	-19.9	19	9	4.0
2025-08-15T12:00	6260	477	-13.7	-20.2	19	9	4.0
2025-08-15T12:00	6280	476	-13.9	-20.7	19	9	4.0
2025-08-15T12:00	6300	475	-14.0	-21.2	20	9	4.0
2025-08-15T12:00	6320	473	-14.0	-22.2	20	9	4.0
2025-08-15T12:00	6340	472	-14.1	-23.0	21	9	4.0
2025-08-15T12:00	6360	471	-14.2	-23.4	21	10	3.9
2025-08-15T12:00	6380	470	-14.3	-23.4	22	10	3.9
2025-08-15T12:00	6400	468	-14.5	-24.6	22	10	3.8
2025-08-15T12:00	6420	467	-14.6	-26.3	22	10	3.8
2025-08-15T12:00	6440	466	-14.8	-26.6	23	10	3.7
2025-08-15T12:00	6460	465	-14.9	-27.0	22	10	3.7
2025-08-15T12:00	6480	464	-15.1	-27.9	22	9	3.7
2025-08-15T12:00	6500	462	-15.3	-29.0	22	9	3.7
2025-08-15T12:00	6520	461	-15.4	-29.7	21	9	3.7
2025-08-15T12:00	6540	460	-15.6	-31.6	20	9	3.7
2025-08-15T12:00	6560	459	-15.7	-32.8	19	8	3.7
2025-08-15T12:00	6580	458	-15.6	-35.3	18	8	3.6
2025-08-15T12:00	6600	456	-15.4	-39.1	16	8	3.6
2025-08-15T12:00	6620	455	-15.5	-39.3	15	7	3.6
2025-08-15T12:00	6640	454	-15.6	-38.9	14	7	3.5
2025-08-15T12:00	6660	453	-15.6	-35.9	13	7	3.5
2025-08-15T12:00	6680	452	-15.7	-33.0	12	7	3.6
2025-08-15T12:00	6700	450	-15.9	-34.7	11	7	3.6
2025-08-15T12:00	6720	449	-16.0	-36.9	11	7	3.7
2025-08-15T12:00	6740	448	-16.2	-37.5	10	7	3.8
2025-08-15T12:00	6760	447	-16.3	-38.0	10	7	3.9
2025-08-15T12:00	6780	446	-16.4	-37.4	10	7	3.9
2025-08-15T12:00	6800	444	-16.5	-35.8	10	7	4.0
2025-08-15T12:00	6820	443	-16.7	-35.7	10	7	4.0
2025-08-15T12:00	6840	442	-16.9	-35.2	10	7	4.0
2025-08-15T12:00	6860	441	-17.0	-34.7	10	7	4.0
2025-08-15T12:00	6880	440	-17.1	-34.1	9	7	4.0
2025-08-15T12:00	6900	439	-17.3	-34.2	8	7	4.0
2025-08-15T12:00	6920	437	-17.5	-34.2	8	7	4.0
2025-08-15T12:00	6940	436	-17.7	-34.3	6	7	4.0
2025-08-15T12:00	6960	435	-17.9	-34.5	5	7	3.9
2025-08-15T12:00	6980	434	-18.1	-34.7	4	7	3.9
2025-08-15T12:00	7000	433	-18.2	-34.8	3	7	3.9
2025-08-15T12:00	7020	432	-18.4	-34.0	3	7	4.0
2025-08-15T12:00	7040	430	-18.6	-33.5	2	7	4.0
2025-08-15T12:00	7060	429	-18.7	-33.2	2	7	3.9
2025-08-15T12:00	7080	428	-18.9	-32.5	1	7	3.9
2025-08-15T12:00	7100	427	-19.1	-32.0	2	7	3.9
2025-08-15T12:00	7120	426	-19.3	-31.6	2	7	3.9
2025-08-15T12:00	7140	425	-19.5	-31.5	2	7	3.9
2025-08-15T12:00	7160	424	-19.5	-32.0	1	7	3.9
2025-08-15T12:00	7180	422	-19.7	-32.1	1	7	3.8
2025-08-15T12:00	7200	421	-19.8	-32.3	1	7	3.8
2025-08-15T12:00	7220	420	-20.0	-32.7	0	7	3.8
2025-08-15T12:00	7240	419	-20.1	-33.3	360	7	3.8
2025-08-15T12:00	7260	418	-20.2	-33.9	359	7	3.8
2025-08-15T12:00	7280	417	-20.2	-33.1	358	7	3.8
2025-08-15T12:00	7300	416	-20.3	-32.7	358	7	3.8
2025-08-15T12:00	7320	414	-20.5	-32.9	358	7	3.8
2025-08-15T12:00	7340	413	-20.7	-32.9	358	7	3.8
2025-08-15T12:00	7360	412	-20.8	-32.9	358	7	3.9
2025-08-15T12:00	7380	411	-21.0	-33.2	358	7	3.9
2025-08-15T12:00	7400	410	-21.2	-33.3	358	7	3.9
2025-08-15T12:00	7420	409	-21.3	-33.3	358	7	3.9
2025-08-15T12:00	7440	408	-21.5	-33.4	358	7	3.9
2025-08-15T12:00	7460	407	-21.7	-33.5	358	7	3.9
2025-08-15T12:00	7480	405	-21.9	-34.3	358	7	3.9
2025-08-15T12:00	7500	404	-22.0	-36.6	357	7	3.9
2025-08-15T12:00	7520	403	-22.1	-38.9	356	7	3.9
2025-08-15T12:00	7540	402	-22.2	-40.6	355	7	3.9
2025-08-15T12:00	7560	401	-22.2	-39.1	353	7	3.9
2025-08-15T12:00	7580	400	-22.3	-39.0	350	7	3.9
2025-08-15T12:00	7600	399	-22.3	-39.0	349	7	3.9
2025-08-15T12:00	7620	398	-22.5	-38.3	347	7	3.9
2025-08-15T12:00	7640	397	-22.7	-38.1	346	8	3.9
2025-08-15T12:00	7660	396	-22.8	-39.6	345	8	4.0
2025-08-15T12:00	7680	394	-22.8	-41.9	345	8	4.0
2025-08-15T12:00	7700	393	-22.8	-43.9	344	8	4.0
2025-08-15T12:00	7720	392	-22.9	-44.9	344	8	4.0
2025-08-15T12:00	7740	391	-23.1	-45.4	344	8	4.0
2025-08-15T12:00	7760	390	-23.2	-45.1	345	8	3.9
2025-08-15T12:00	7780	389	-23.3	-44.9	344	8	3.9
2025-08-15T12:00	7800	388	-23.5	-45.0	344	9	3.9
2025-08-15T12:00	7820	387	-23.6	-44.0	344	9	3.8
2025-08-15T12:00	7840	386	-23.7	-43.7	343	9	3.8
2025-08-15T12:00	7860	385	-23.9	-43.0	343	9	3.8
2025-08-15T12:00	7880	384	-24.1	-39.9	342	9	3.7
2025-08-15T12:00	7900	383	-24.2	-38.7	341	9	3.7
2025-08-15T12:00	7920	382	-24.4	-37.6	341	9	3.6
2025-08-15T12:00	7940	381	-24.6	-37.6	341	9	3.5
2025-08-15T12:00	7960	380	-24.8	-37.0	340	9	3.5
2025-08-15T12:00	7980	379	-25.0	-36.1	341	9	3.4
2025-08-15T12:00	8000	378	-25.2	-36.1	341	8	3.3
2025-08-15T12:00	8020	377	-25.4	-36.2	341	8	3.3
2025-08-15T12:00	8040	376	-25.6	-36.4	342	8	3.2
2025-08-15T12:00	8060	375	-25.7	-36.6	343	8	3.1
2025-08-15T12:00	8080	374	-25.8	-37.2	344	8	3.1
2025-08-15T12:00	8100	372	-26.0	-37.5	344	8	3.1
2025-08-15T12:00	8120	371	-26.2	-36.7	345	8	3.1
2025-08-15T12:00	8140	370	-26.4	-36.5	345	8	3.0
2025-08-15T12:00	8160	369	-26.6	-36.2	346	8	3.0
2025-08-15T12:00	8180	368	-26.8	-36.3	347	8	3.0
2025-08-15T12:00	8200	367	-26.9	-36.4	348	8	3.0
2025-08-15T12:00	8220	366	-27.0	-36.5	348	8	2.9
2025-08-15T12:00	8240	365	-27.2	-36.7	349	8	2.9
2025-08-15T12:00	8260	364	-27.4	-36.5	350	8	2.9
2025-08-15T12:00	8280	363	-27.6	-36.8	351	8	2.9
2025-08-15T12:00	8300	362	-27.7	-37.0	352	8	2.9
2025-08-15T12:00	8320	361	-27.9	-37.1	352	8	2.9
2025-08-15T12:00	8340	360	-28.0	-37.2	352	8	2.8
2025-08-15T12:00	8360	359	-28.2	-37.3	352	8	2.8
2025-08-15T12:00	8380	358	-28.3	-37.7	352	8	2.8
2025-08-15T12:00	8400	357	-28.5	-38.2	352	8	2.8
2025-08-15T12:00	8420	356	-28.7	-38.2	353	8	2.8
2025-08-15T12:00	8440	355	-28.8	-38.2	353	8	2.8
2025-08-15T12:00	8460	354	-29.0	-38.5	353	8	2.8
2025-08-15T12:00	8480	353	-29.2	-39.0	353	8	2.8
2025-08-15T12:00	8500	352	-29.4	-39.1	352	8	2.8
2025-08-15T12:00	8520	351	-29.5	-39.0	351	8	2.8
2025-08-15T12:00	8540	350	-29.7	-39.2	350	8	2.8
2025-08-15T12:00	8560	349	-29.8	-39.6	349	8	2.7
2025-08-15T12:00	8580	348	-30.0	-40.6	347	8	2.8
2025-08-15T12:00	8600	347	-30.0	-41.4	345	8	2.8
2025-08-15T12:00	8620	346	-30.2	-42.0	344	8	2.8
2025-08-15T12:00	8640	345	-30.3	-41.4	343	8	2.9
2025-08-15T12:00	8660	345	-30.4	-41.3	342	8	2.9
2025-08-15T12:00	8680	344	-30.6	-41.4	341	8	2.9
2025-08-15T12:00	8700	343	-30.8	-41.9	341	8	2.9
2025-08-15T12:00	8720	342	-30.9	-42.6	340	8	2.9
2025-08-15T12:00	8740	341	-31.0	-43.2	340	8	2.9
2025-08-15T12:00	8760	340	-31.2	-43.9	340	8	2.9
2025-08-15T12:00	8780	339	-31.4	-44.0	340	8	2.9
2025-08-15T12:00	8800	338	-31.6	-44.1	340	8	2.9
2025-08-15T12:00	8820	337	-31.7	-44.2	341	9	2.9
2025-08-15T12:00	8840	336	-31.9	-44.5	341	9	2.9
2025-08-15T12:00	8860	335	-32.0	-45.2	342	9	2.9
2025-08-15T12:00	8880	334	-32.2	-45.4	343	9	2.9
2025-08-15T12:00	8900	333	-32.3	-46.1	343	9	2.9
2025-08-15T12:00	8920	332	-32.5	-47.2	344	10	3.0
2025-08-15T12:00	8940	331	-32.7	-47.9	344	10	3.0
2025-08-15T12:00	8960	330	-32.9	-48.3	344	10	3.1
2025-08-15T12:00	8980	329	-33.0	-49.2	344	10	3.1
2025-08-15T12:00	9000	328	-33.1	-51.7	344	10	3.1
2025-08-15T12:00	9020	327	-33.3	-54.9	344	10	3.1
2025-08-15T12:00	9040	326	-33.4	-55.8	344	10	3.1
2025-08-15T12:00	9060	326	-33.5	-55.3	344	10	3.0
2025-08-15T12:00	9080	325	-33.7	-55.1	345	10	2.9
2025-08-15T12:00	9100	324	-33.9	-55.3	345	10	2.8
2025-08-15T12:00	9120	323	-34.0	-55.5	346	10	2.7
2025-08-15T12:00	9140	322	-34.1	-55.6	346	10	2.6
2025-08-15T12:00	9160	321	-34.3	-55.7	347	10	2.5
2025-08-15T12:00	9180	320	-34.5	-55.7	347	10	2.5
2025-08-15T12:00	9200	319	-34.7	-55.6	347	10	2.4
2025-08-15T12:00	9220	318	-34.8	-55.7	348	10	2.3
2025-08-15T12:00	9240	317	-34.9	-56.2	348	10	2.3
2025-08-15T12:00	9260	316	-35.1	-56.4	347	10	2.3
2025-08-15T12:00	9280	315	-35.3	-56.4	347	10	2.2
2025-08-15T12:00	9300	315	-35.5	-56.3	346	10	2.2
2025-08-15T12:00	9320	314	-35.7	-56.3	346	10	2.2
2025-08-15T12:00	9340	313	-35.8	-56.6	345	10	2.2
2025-08-15T12:00	9360	312	-36.0	-56.7	345	10	2.1
2025-08-15T12:00	9380	311	-36.2	-56.7	344	10	2.1
2025-08-15T12:00	9400	310	-36.3	-56.7	344	10	2.1
2025-08-15T12:00	9420	309	-36.4	-56.7	344	10	2.1
2025-08-15T12:00	9440	308	-36.6	-56.8	343	10	2.1
2025-08-15T12:00	9460	307	-36.8	-56.4	343	10	2.1
2025-08-15T12:00	9480	306	-37.0	-55.3	344	9	2.1
2025-08-15T12:00	9500	306	-37.1	-54.3	344	9	2.1
2025-08-15T12:00	9520	305	-37.3	-55.3	344	9	2.1
2025-08-15T12:00	9540	304	-37.5	-57.6	344	9	2.1
2025-08-15T12:00	9560	303	-37.7	-57.7	344	9	2.1
2025-08-15T12:00	9580	302	-37.8	-57.7	344	9	2.1
2025-08-15T12:00	9600	301	-37.9	-57.7	344	9	2.1
2025-08-15T12:00	9620	300	-38.1	-57.4	345	9	2.1
2025-08-15T12:00	9640	299	-38.2	-56.7	346	8	2.1
2025-08-15T12:00	9660	299	-38.3	-56.6	347	8	2.1
2025-08-15T12:00	9680	298	-38.6	-55.3	348	8	2.1
2025-08-15T12:00	9700	297	-38.8	-53.6	349	8	2.1
2025-08-15T12:00	9720	296	-38.9	-54.0	351	8	2.1
2025-08-15T12:00	9740	295	-39.1	-54.4	352	8	2.1
2025-08-15T12:00	9760	294	-39.2	-54.6	352	8	2.1
2025-08-15T12:00	9780	293	-39.3	-53.6	352	8	2.2
2025-08-15T12:00	9800	292	-39.6	-53.0	352	7	2.2
2025-08-15T12:00	9820	292	-39.7	-53.3	352	7	2.2
2025-08-15T12:00	9840	291	-39.8	-53.8	351	7	2.2
2025-08-15T12:00	9860	290	-40.0	-53.9	351	7	2.2
2025-08-15T12:00	9880	289	-40.2	-54.0	350	7	2.3
2025-08-15T12:00	9900	288	-40.4	-54.0	349	7	2.3
2025-08-15T12:00	9920	287	-40.4	-54.4	349	7	2.3
2025-08-15T12:00	9940	287	-40.6	-54.6	348	6	2.3
2025-08-15T12:00	9960	286	-40.8	-54.5	347	6	2.3
2025-08-15T12:00	9980	285	-40.9	-54.5	346	6	2.3
2025-08-15T12:00	10000	284	-41.1	-54.7	345	6	2.3
2025-08-15T12:00	10018	283	-41.3	-54.7	344	6	2.2
2025-08-15T12:00	10050	282	-41.5	-54.9	343	6	2.2
2025-08-15T12:00	10100	280	-42.0	-55.2	340	6	2.2
2025-08-15T12:00	10150	278	-42.3	-55.9	336	6	2.2
2025-08-15T12:00	10200	276	-42.6	-56.1	332	6	2.2
2025-08-15T12:00	10250	274	-43.1	-56.1	328	6	2.2
2025-08-15T12:00	10300	272	-43.5	-56.9	328	6	2.2
2025-08-15T12:00	10350	270	-43.8	-58.2	331	6	2.3
2025-08-15T12:00	10400	268	-44.2	-59.3	335	7	2.4
2025-08-15T12:00	10450	266	-44.6	-59.7	340	7	2.7
2025-08-15T12:00	10500	264	-45.0	-59.9	343	7	2.8
2025-08-15T12:00	10550	262	-45.4	-60.1	346	8	3.0
2025-08-15T12:00	10600	260	-45.7	-60.1	348	10	3.1
2025-08-15T12:00	10650	258	-45.9	-59.7	348	11	3.1
2025-08-15T12:00	10700	256	-46.2	-59.8	347	12	3.2
2025-08-15T12:00	10750	254	-46.4	-59.0	347	13	3.4
2025-08-15T12:00	10800	252	-46.8	-58.6	348	13	3.5
2025-08-15T12:00	10850	250	-47.3	-58.6	350	13	3.5
2025-08-15T12:00	10900	248	-47.7	-58.7	352	13	3.6
2025-08-15T12:00	10950	247	-48.2	-58.9	352	14	3.5
2025-08-15T12:00	11000	245	-48.6	-59.1	352	13	3.4
2025-08-15T12:00	11050	243	-48.7	-59.3	350	13	3.4
2025-08-15T12:00	11100	241	-48.8	-60.3	348	13	3.4
2025-08-15T12:00	11150	239	-48.8	-62.7	347	13	3.5
2025-08-15T12:00	11200	237	-48.5	-63.6	347	14	3.6
2025-08-15T12:00	11250	235	-48.8	-62.8	347	14	3.8
2025-08-15T12:00	11300	234	-49.4	-62.8	347	14	3.8
2025-08-15T12:00	11350	232	-49.8	-62.0	346	15	3.8
2025-08-15T12:00	11400	230	-50.2	-62.0	347	15	3.8
2025-08-15T12:00	11450	228	-50.5	-62.4	348	14	3.8
2025-08-15T12:00	11500	227	-50.4	-63.4	350	14	3.8
2025-08-15T12:00	11550	225	-50.5	-63.8	352	13	3.9
2025-08-15T12:00	11600	223	-50.5	-64.3	352	13	3.9
2025-08-15T12:00	11650	222	-50.6	-66.2	350	13	3.9
2025-08-15T12:00	11700	220	-50.5	-68.1	347	13	4.0
2025-08-15T12:00	11750	218	-50.3	-67.7	342	13	4.1
2025-08-15T12:00	11800	217	-50.3	-67.8	337	13	4.1
2025-08-15T12:00	11850	215	-50.4	-68.0	334	13	4.1
2025-08-15T12:00	11900	213	-50.3	-67.9	331	13	4.1
2025-08-15T12:00	11950	212	-50.3	-67.7	332	13	4.1
2025-08-15T12:00	12000	210	-50.4	-68.1	334	13	4.1
2025-08-15T12:00	12050	208	-50.5	-68.9	335	14	4.1
2025-08-15T12:00	12100	207	-50.5	-69.5	334	15	4.0
2025-08-15T12:00	12150	205	-50.7	-69.9	333	16	4.0
2025-08-15T12:00	12200	204	-50.9	-69.8	333	17	4.1
2025-08-15T12:00	12250	202	-50.9	-69.4	334	17	4.0
2025-08-15T12:00	12300	200	-51.1	-68.9	335	17	4.0
2025-08-15T12:00	12350	199	-51.3	-68.8	336	17	3.8
2025-08-15T12:00	12400	197	-51.4	-69.2	335	16	3.6
2025-08-15T12:00	12450	196	-51.6	-69.6	335	16	3.6
2025-08-15T12:00	12500	194	-51.9	-70.7	335	15	3.6
2025-08-15T12:00	12550	193	-52.1	-71.3	333	14	3.6
2025-08-15T12:00	12600	192	-52.3	-71.9	330	13	3.7
2025-08-15T12:00	12650	190	-52.4	-72.0	327	12	3.5
2025-08-15T12:00	12700	189	-52.6	-72.1	326	12	3.5
2025-08-15T12:00	12750	187	-52.8	-72.3	326	12	3.4
2025-08-15T12:00	12800	186	-53.2	-72.7	327	13	3.3
2025-08-15T12:00	12850	184	-53.2	-72.9	326	13	3.2
2025-08-15T12:00	12900	183	-53.4	-73.2	327	13	3.2
2025-08-15T12:00	12950	181	-53.6	-73.4	327	13	3.2
2025-08-15T12:00	13000	180	-53.6	-73.6	327	13	3.2
2025-08-15T12:00	13050	178	-53.5	-73.9	324	12	3.2
2025-08-15T12:00	13100	177	-53.3	-74.0	321	12	3.2
2025-08-15T12:00	13150	176	-53.1	-73.6	317	11	3.3
2025-08-15T12:00	13200	174	-52.7	-73.2	314	10	3.3
2025-08-15T12:00	13250	173	-52.7	-73.7	311	10	3.3
2025-08-15T12:00	13300	172	-53.1	-74.1	309	9	3.5
2025-08-15T12:00	13350	170	-53.3	-74.5	307	9	3.6
2025-08-15T12:00	13400	169	-53.4	-74.7	305	8	3.7
2025-08-15T12:00	13450	168	-53.4	-74.7	298	7	3.8
2025-08-15T12:00	13500	166	-53.7	-74.7	287	6	3.9
2025-08-15T12:00	13550	165	-53.8	-74.8	272	5	4.0
2025-08-15T12:00	13600	164	-54.0	-75.3	259	6	4.0
2025-08-15T12:00	13650	163	-53.6	-76.5	255	6	4.1
2025-08-15T12:00	13700	161	-52.8	-77.6	257	7	4.3
2025-08-15T12:00	13750	160	-53.1	-78.3	261	8	4.5
2025-08-15T12:00	13800	159	-53.5	-78.2	266	8	4.7
2025-08-15T12:00	13850	158	-53.8	-78.1	270	9	4.8
2025-08-15T12:00	13900	156	-54.1	-78.2	274	9	4.8
2025-08-15T12:00	13950	155	-54.5	-78.8	278	10	4.8
2025-08-15T12:00	14000	154	-54.1	-79.5	281	10	4.9
2025-08-15T12:00	14050	153	-54.0	-80.2	282	11	5.0
2025-08-15T12:00	14100	152	-54.1	-80.5	282	11	5.1
2025-08-15T12:00	14150	150	-54.0	-81.0	281	12	5.2
2025-08-15T12:00	14200	149	-53.7	-81.1	280	11	5.2
2025-08-15T12:00	14250	148	-53.7	-81.2	281	10	5.3
2025-08-15T12:00	14300	147	-53.8	-81.2	284	9	5.2
2025-08-15T12:00	14350	146	-53.9	-81.2	287	9	5.1
2025-08-15T12:00	14400	145	-54.2	-81.1	287	8	5.0
2025-08-15T12:00	14450	143	-54.1	-81.0	282	8	4.9
2025-08-15T12:00	14500	142	-54.2	-81.1	276	8	4.8
2025-08-15T12:00	14550	141	-54.5	-81.1	272	8	4.5
2025-08-15T12:00	14600	140	-54.6	-81.1	270	7	4.4
2025-08-15T12:00	14650	139	-55.0	-81.3	268	7	4.2
2025-08-15T12:00	14700	138	-55.4	-81.3	267	8	4.2
2025-08-15T12:00	14750	137	-55.9	-81.6	266	8	4.1
2025-08-15T12:00	14800	136	-56.1	-81.8	263	8	4.1
2025-08-15T12:00	14850	135	-56.0	-81.9	259	8	4.0
2025-08-15T12:00	14900	134	-56.1	-82.0	255	8	4.1
2025-08-15T12:00	14950	133	-56.3	-82.1	255	7	4.2
2025-08-15T12:00	15000	132	-56.5	-82.2	259	7	4.1
2025-08-15T12:00	15050	131	-56.9	-82.4	267	7	4.1
2025-08-15T12:00	15100	130	-57.0	-82.5	278	7	4.2
2025-08-15T12:00	15150	129	-56.9	-82.6	288	6	4.2
2025-08-15T12:00	15200	128	-56.6	-82.6	294	6	4.3
2025-08-15T12:00	15250	127	-56.3	-82.7	294	4	4.4
2025-08-15T12:00	15300	126	-56.3	-82.7	284	3	4.4
2025-08-15T12:00	15350	125	-56.6	-82.7	259	2	4.4
2025-08-15T12:00	15400	124	-56.9	-82.7	240	2	4.4
2025-08-15T12:00	15450	123	-57.4	-82.9	235	3	4.4
2025-08-15T12:00	15500	122	-57.8	-83.0	236	4	4.3
2025-08-15T12:00	15550	121	-58.1	-83.0	239	5	4.2
2025-08-15T12:00	15600	120	-58.2	-83.1	242	5	4.2
2025-08-15T12:00	15650	119	-57.9	-83.2	241	5	4.2
2025-08-15T12:00	15700	118	-57.6	-83.2	233	4	4.2
2025-08-15T12:00	15750	117	-57.6	-83.3	219	4	4.2
2025-08-15T12:00	15800	116	-57.6	-83.2	206	4	4.1
2025-08-15T12:00	15850	115	-57.9	-83.3	199	5	4.0
2025-08-15T12:00	15900	114	-58.1	-83.3	199	6	4.0
2025-08-15T12:00	15950	113	-58.2	-83.3	202	7	3.9
2025-08-15T12:00	16000	112	-58.3	-83.3	206	7	3.8
2025-08-15T12:00	16050	111	-58.5	-83.2	209	8	3.7
2025-08-15T12:00	16100	111	-58.9	-83.2	213	8	3.6
2025-08-15T12:00	16150	110	-59.2	-83.2	217	9	3.6
2025-08-15T12:00	16200	109	-59.3	-83.2	223	9	3.5
2025-08-15T12:00	16250	108	-59.8	-83.4	232	9	3.4
2025-08-15T12:00	16300	107	-59.9	-83.5	243	8	3.3
2025-08-15T12:00	16350	106	-60.0	-83.6	252	8	3.3
2025-08-15T12:00	16400	105	-60.0	-83.7	257	9	3.3
2025-08-15T12:00	16450	105	-59.7	-83.5	260	9	3.3
2025-08-15T12:00	16500	104	-59.9	-83.6	262	9	3.2
2025-08-15T12:00	16550	103	-60.1	-83.7	264	8	3.2
2025-08-15T12:00	16600	102	-60.3	-83.8	266	7	3.1
2025-08-15T12:00	16650	101	-60.3	-84.1	263	6	3.1
2025-08-15T12:00	16700	100	-59.9	-84.0	261	5	3.1
2025-08-15T12:00	16750	100	-59.8	-84.1	262	5	3.1
2025-08-15T12:00	16800	99	-59.8	-84.1	260	4	3.2
2025-08-15T12:00	16850	98	-59.7	-83.9	252	4	3.2
2025-08-15T12:00	16900	97	-59.7	-84.0	234	3	3.2
2025-08-15T12:00	16950	97	-60.0	-84.2	200	2	3.2
2025-08-15T12:00	17000	96	-59.9	-84.0	184	3	3.2
2025-08-15T12:00	17050	95	-60.1	-83.9	190	4	3.2
2025-08-15T12:00	17100	94	-60.3	-84.0	202	4	3.2
2025-08-15T12:00	17150	94	-60.4	-84.1	210	5	3.3
2025-08-15T12:00	17200	93	-60.4	-84.2	214	5	3.3
2025-08-15T12:00	17250	92	-60.5	-84.3	218	6	3.3
2025-08-15T12:00	17300	91	-60.5	-84.4	221	7	3.3
2025-08-15T12:00	17350	91	-60.5	-84.6	221	7	3.3
2025-08-15T12:00	17400	90	-60.4	-84.7	214	6	3.4
2025-08-15T12:00	17450	89	-60.0	-84.7	205	5	3.4
2025-08-15T12:00	17500	88	-59.8	-84.8	199	5	3.5
2025-08-15T12:00	17550	88	-59.5	-84.9	189	4	3.6
2025-08-15T12:00	17600	87	-59.2	-84.8	172	2	3.7
2025-08-15T12:00	17650	86	-59.2	-84.8	163	1	3.8
2025-08-15T12:00	17700	86	-59.3	-84.8	179	1	3.9
2025-08-15T12:00	17750	85	-59.4	-84.9	182	3	4.0
2025-08-15T12:00	17800	84	-59.5	-84.9	180	4	4.1
2025-08-15T12:00	17850	84	-60.0	-85.0	177	4	4.1
2025-08-15T12:00	17900	83	-60.5	-85.2	176	2	4.2
2025-08-15T12:00	17950	82	-60.5	-85.3	181	1	4.2
2025-08-15T12:00	18000	82	-60.6	-85.5	176	1	4.2
2025-08-15T12:00	18050	81	-60.5	-85.6	175	2	4.3
2025-08-15T12:00	18100	80	-60.4	-85.5	180	3	4.4
2025-08-15T12:00	18150	80	-60.7	-85.6	187	4	4.5
2025-08-15T12:00	18200	79	-61.1	-85.7	194	5	4.6
2025-08-15T12:00	18250	78	-61.4	-85.7	201	6	4.7
2025-08-15T12:00	18300	78	-61.6	-85.9	210	7	4.7
2025-08-15T12:00	18350	77	-61.4	-86.1	220	6	4.6
2025-08-15T12:00	18400	76	-60.7	-86.0	232	5	4.7
2025-08-15T12:00	18450	76	-60.5	-85.9	248	3	4.8
2025-08-15T12:00	18500	75	-60.7	-86.0	273	3	5.0
2025-08-15T12:00	18550	75	-60.8	-86.0	319	2	5.2
2025-08-15T12:00	18600	74	-60.5	-86.1	15	3	5.4
2025-08-15T12:00	18650	73	-60.0	-86.1	43	4	5.8
2025-08-15T12:00	18700	73	-60.0	-86.1	56	5	6.1
2025-08-15T12:00	18750	72	-59.8	-86.0	64	6	6.3
2025-08-15T12:00	18800	72	-59.7	-85.9	72	6	6.4
2025-08-15T12:00	18850	71	-59.9	-85.9	81	6	6.5
2025-08-15T12:00	18900	71	-60.1	-85.9	88	5	6.6
2025-08-15T12:00	18950	70	-60.4	-85.9	95	5	6.6
2025-08-15T12:00	19000	69	-60.5	-86.0	112	4	6.7
2025-08-15T12:00	19050	69	-60.7	-86.2	135	3	6.9
2025-08-15T12:00	19100	68	-60.6	-86.3	148	2	7.0
2025-08-15T12:00	19150	68	-60.4	-86.3	149	2	7.1
2025-08-15T12:00	19200	67	-60.4	-86.3	167	1	7.2
2025-08-15T12:00	19250	67	-60.2	-86.3	214	1	7.4
2025-08-15T12:00	19300	66	-59.8	-86.2	228	1	7.6
2025-08-15T12:00	19350	66	-59.5	-86.1	261	1	7.8
2025-08-15T12:00	19400	65	-59.5	-86.0	281	2	8.0
2025-08-15T12:00	19450	65	-59.8	-86.0	306	1	8.1
2025-08-15T12:00	19500	64	-59.5	-86.0	9	1	8.2
2025-08-15T12:00	19550	64	-59.5	-86.1	45	2	8.3
2025-08-15T12:00	19600	63	-59.4	-86.1	66	3	8.4
2025-08-15T12:00	19650	63	-59.1	-86.0	71	3	8.5
2025-08-15T12:00	19700	62	-59.0	-85.9	73	3	8.5
2025-08-15T12:00	19750	62	-59.0	-86.0	75	4	8.5
2025-08-15T12:00	19800	61	-58.7	-85.8	78	5	8.4
2025-08-15T12:00	19850	61	-58.7	-85.8	84	6	8.5
2025-08-15T12:00	19900	60	-59.0	-85.8	93	7	8.5
2025-08-15T12:00	19950	60	-59.2	-85.8	102	7	8.5
2025-08-15T12:00	20000	59	-59.3	-85.9	109	7	8.7
2025-08-15T12:00	20050	59	-59.0		118	7	8.7
2025-08-15T12:00	20100	58	-58.8		126	7	8.9
2025-08-15T12:00	20150	58	-59.1		129	6	9.0
2025-08-15T12:00	20200	57	-58.9		126	5	9.1
2025-08-15T12:00	20250	57	-58.8		124	5	9.2
2025-08-15T12:00	20300	56	-58.4		131	5	9.1
2025-08-15T12:00	20350	56	-57.8		148	4	9.1
2025-08-15T12:00	20400	56	-57.4		168	4	9.2
2025-08-15T12:00	20450	55	-57.3		179	4	9.3
2025-08-15T12:00	20500	55	-57.2		179	4	9.4
2025-08-15T12:00	20550	54	-57.0		160	3	9.3
2025-08-15T12:00	20600	54	-57.0		144	3	9.4
2025-08-15T12:00	20650	53	-56.9		159	3	9.5
2025-08-15T12:00	20700	53	-56.1		185	3	9.7
2025-08-15T12:00	20750	53	-56.0		212	2	9.8
2025-08-15T12:00	20800	52	-56.1		263	2	9.9
2025-08-15T12:00	20850	52	-56.0		330	2	9.9
2025-08-15T12:00	20900	51	-55.9		5	4	10.1
2025-08-15T12:00	20950	51	-55.7		18	6	10.1
2025-08-15T12:00	21000	51	-55.6		20	7	10.2
2025-08-15T12:00	21050	50	-55.7		27	8	10.3
2025-08-15T12:00	21100	50	-55.7		39	8	10.3
2025-08-15T12:00	21150	49	-55.6		54	8	10.4
2025-08-15T12:00	21200	49	-55.7		68	8	10.5
2025-08-15T12:00	21250	49	-55.9		79	8	10.5
2025-08-15T12:00	21300	48	-56.0		87	8	10.5
2025-08-15T12:00	21350	48	-55.8		95	7	10.6
2025-08-15T12:00	21400	47	-56.0		103	6	10.6
2025-08-15T12:00	21450	47	-56.1		110	6	10.7
2025-08-15T12:00	21500	47	-56.3		119	5	10.7
2025-08-15T12:00	21550	46	-56.6		127	3	10.7
2025-08-15T12:00	21600	46	-56.8		127	3	10.7
2025-08-15T12:00	21650	46	-57.1		113	2	10.7
2025-08-15T12:00	21700	45	-57.3		78	1	10.6
2025-08-15T12:00	21750	45	-57.4		50	2	10.7
2025-08-15T12:00	21800	45	-57.6		49	3	10.6
2025-08-15T12:00	21850	44	-57.7		58	4	10.6
2025-08-15T12:00	21900	44	-57.8		70	5	10.6
2025-08-15T12:00	21950	44	-57.5		77	5	10.6
2025-08-15T12:00	22000	43	-57.5		80	5	10.7
2025-08-15T12:00	22050	43	-57.4		83	4	10.8
2025-08-15T12:00	22100	42	-57.2		90	3	10.8
2025-08-15T12:00	22150	42	-57.0		99	4	10.9
2025-08-15T12:00	22200	42	-57.0		104	4	10.9
2025-08-15T12:00	22250	41	-57.0		101	4	10.8
2025-08-15T12:00	22300	41	-56.5		93	4	10.9
2025-08-15T12:00	22350	41	-56.5		86	3	10.9
2025-08-15T12:00	22400	41	-56.5		81	4	10.9
2025-08-15T12:00	22450	40	-56.6		81	5	11.0
2025-08-15T12:00	22500	40	-56.7		81	5	11.0
2025-08-15T12:00	22550	40	-56.8		79	5	11.1
2025-08-15T12:00	22600	39	-56.7		79	5	11.1
2025-08-15T12:00	22650	39	-56.6		78	5	11.0
2025-08-15T12:00	22700	39	-56.4		73	6	10.8
2025-08-15T12:00	22750	38	-56.5		70	7	10.7
2025-08-15T12:00	22800	38	-56.5		75	9	10.5
2025-08-15T12:00	22850	38	-56.6		83	10	10.3
2025-08-15T12:00	22900	37	-56.7		88	11	10.2
2025-08-15T12:00	22950	37	-56.6		91	12	10.1
2025-08-15T12:00	23000	37	-56.3		95	13	10.0
2025-08-15T12:00	23050	37	-55.8		102	13	9.9
2025-08-15T12:00	23100	36	-55.6		109	12	10.0
2025-08-15T12:00	23150	36	-55.5		113	11	10.1
2025-08-15T12:00	23200	36	-55.2		116	10	10.3
2025-08-15T12:00	23250	35	-54.9		119	10	10.7
2025-08-15T12:00	23300	35	-54.7		121	9	11.0
2025-08-15T12:00	23350	35	-54.4		118	8	11.3
2025-08-15T12:00	23400	35	-54.2		114	7	11.6
2025-08-15T12:00	23450	34	-54.0		109	7	11.7
2025-08-15T12:00	23500	34	-53.8		105	7	11.8
2025-08-15T12:00	23550	34	-53.8		104	6	11.7
2025-08-15T12:00	23600	34	-53.7		103	6	11.6
2025-08-15T12:00	23650	33	-53.7		101	7	11.4
2025-08-15T12:00	23700	33	-53.7		98	7	11.2
2025-08-15T12:00	23750	33	-53.6		93	7	11.0
2025-08-15T12:00	23800	33	-53.6		88	8	10.9
2025-08-15T12:00	23850	32	-53.5		85	10	10.9
2025-08-15T12:00	23900	32	-53.4		86	11	10.8
2025-08-15T12:00	23950	32	-53.3		88	10	10.8
2025-08-15T12:00	24000	32	-53.2		90	9	10.8
2025-08-15T12:00	24050	31	-53.3		95	8	10.8
2025-08-15T12:00	24100	31	-53.4		99	8	10.8
2025-08-15T12:00	24150	31	-53.5		99	8	10.9
2025-08-15T12:00	24200	31	-53.5		96	8	11.0
2025-08-15T12:00	24250	30	-53.6		92	8	11.0
2025-08-15T12:00	24300	30	-53.6		89	9	11.0
2025-08-15T12:00	24350	30	-53.6		88	9	11.0
2025-08-15T12:00	24400	30	-53.5		88	8	11.1
2025-08-15T12:00	24450	29	-53.3		91	8	11.3
2025-08-15T12:00	24500	29	-53.2		97	7	11.4
2025-08-15T12:00	24550	29	-52.9		103	7	11.5
2025-08-15T12:00	24600	29	-52.8		107	7	11.7
2025-08-15T12:00	24650	29	-52.8		110	7	11.7
2025-08-15T12:00	24700	28	-52.7		112	8	11.7
2025-08-15T12:00	24750	28	-52.7		113	9	11.8
2025-08-15T12:00	24800	28	-52.7		114	10	11.7
2025-08-15T12:00	24850	28	-52.8		116	11	11.7
2025-08-15T12:00	24900	27	-52.7		119	11	11.6
2025-08-15T12:00	24950	27	-52.5		120	10	11.6
2025-08-15T12:00	25000	27	-52.4		119	9	11.6
2025-08-15T12:00	25050	27	-52.4		117	8	11.7
2025-08-15T12:00	25100	27	-52.6		114	8	11.8
2025-08-15T12:00	25150	26	-52.6		110	8	11.8
2025-08-15T12:00	25200	26	-52.4		108	10	11.9
2025-08-15T12:00	25250	26	-52.2		107	10	11.9
2025-08-15T12:00	25300	26	-52.1		108	10	11.9
2025-08-15T12:00	25350	26	-52.1		110	10	11.8
2025-08-15T12:00	25400	25	-52.1		113	10	11.7
2025-08-15T12:00	25450	25	-52.1		116	10	11.7
2025-08-15T12:00	25500	25	-52.1		123	9	11.6
2025-08-15T12:00	25550	25	-51.8		131	9	11.6
2025-08-15T12:00	25600	25	-51.5		135	9	11.6
2025-08-15T12:00	25650	24	-51.5		132	8	11.7
2025-08-15T12:00	25700	24	-51.6		126	8	11.8
2025-08-15T12:00	25750	24	-51.5		124	7	11.8
2025-08-15T12:00	25800	24	-51.3		126	7	11.9
2025-08-15T12:00	25850	24	-51.1		128	7	12.1
2025-08-15T12:00	25900	23	-51.0		127	7	12.1
2025-08-15T12:00	25950	23	-50.9		125	6	12.2
2025-08-15T12:00	26000	23	-50.8		118	5	12.2
2025-08-15T12:00	26050	23	-50.6		98	4	12.3
2025-08-15T12:00	26100	23	-50.3		71	4	12.4
2025-08-15T12:00	26150	23	-49.8		57	6	12.4
2025-08-15T12:00	26200	22	-49.7		55	7	12.5
2025-08-15T12:00	26250	22	-49.5		61	7	12.5
2025-08-15T12:00	26300	22	-49.3		71	7	12.5
2025-08-15T12:00	26350	22	-49.2		80	8	12.6
2025-08-15T12:00	26400	22	-49.2		90	7	12.6
2025-08-15T12:00	26450	22	-49.3		102	7	12.5
2025-08-15T12:00	26500	21	-49.4		112	6	12.5
2025-08-15T12:00	26550	21	-49.3		115	6	12.4
2025-08-15T12:00	26600	21	-49.1		115	4	12.4
2025-08-15T12:00	26650	21	-49.1		110	3	12.4
2025-08-15T12:00	26700	21	-49.2		89	3	12.3
2025-08-15T12:00	26750	21	-49.2		65	4	12.3
2025-08-15T12:00	26800	20	-49.0		56	5	12.2
2025-08-15T12:00	26850	20	-48.8		54	6	12.1
2025-08-15T12:00	26900	20	-48.7		55	8	12.1
2025-08-15T12:00	26950	20	-48.5		58	9	12.0
2025-08-15T12:00	27000	20	-48.5		61	9	12.0
2025-08-15T12:00	27050	20	-48.4		64	9	11.9
2025-08-15T12:00	27100	20	-48.4		66	8	11.9
2025-08-15T12:00	27150	19	-48.5		68	8	11.8
2025-08-15T12:00	27200	19	-48.6		74	8	11.7
2025-08-15T12:00	27250	19	-48.7		83	8	11.7
2025-08-15T12:00	27300	19	-48.6		91	8	11.6
2025-08-15T12:00	27350	19	-48.6		96	9	11.6
2025-08-15T12:00	27400	19	-48.5		95	8	11.5
2025-08-15T12:00	27450	19	-48.2		93	8	11.5
2025-08-15T12:00	27500	18	-47.8		93	7	11.5
2025-08-15T12:00	27550	18	-47.3		93	6	11.6
2025-08-15T12:00	27600	18	-46.9		91	4	11.6
2025-08-15T12:00	27650	18	-46.8		83	3	11.6
2025-08-15T12:00	27700	18	-46.8		59	2	11.5
2025-08-15T12:00	27750	18	-47.0		29	2	11.5
2025-08-15T12:00	27800	18	-47.0		24	4	11.3
2025-08-15T12:00	27850	17	-46.8		27	6	11.3
2025-08-15T12:00	27900	17	-46.7		33	7	11.2
2025-08-15T12:00	27950	17	-46.4		40	8	11.2
2025-08-15T12:00	28000	17	-46.3		50	8	11.1
2025-08-15T12:00	28050	17	-46.1		60	9	11.0
2025-08-15T12:00	28100	17	-46.0		68	10	10.9
2025-08-15T12:00	28150	17	-46.0		74	10	10.9
2025-08-15T12:00	28200	17	-46.2		77	10	10.8
2025-08-15T12:00	28250	16	-46.4		77	9	10.7
2025-08-15T12:00	28300	16	-46.5		73	8	10.6
2025-08-15T12:00	28350	16	-46.5		65	7	10.6
2025-08-15T12:00	28400	16	-46.5		59	6	10.6
2025-08-15T12:00	28450	16	-46.5		54	6	10.5
2025-08-15T12:00	28500	16	-46.5		53	7	10.5
2025-08-15T12:00	28550	16	-46.2		55	8	10.5
2025-08-15T12:00	28600	16	-46.0		57	8	10.5
2025-08-15T12:00	28650	15	-45.9		59	8	10.5
2025-08-15T12:00	28700	15	-45.8		57	7	10.5
2025-08-15T12:00	28750	15	-45.6		55	7	10.5
2025-08-15T12:00	28800	15	-45.4		53	7	10.4
2025-08-15T12:00	28850	15	-45.2		51	8	10.4
2025-08-15T12:00	28900	15	-45.1		51	9	10.4
2025-08-15T12:00	28950	15	-45.3		54	10	10.4
2025-08-15T12:00	29000	15	-45.4		59	11	10.3
2025-08-15T12:00	29050	15	-45.6		65	11	10.2
2025-08-15T12:00	29100	14	-45.8		69	11	10.1
2025-08-15T12:00	29150	14	-46.0		71	11	10.1
2025-08-15T12:00	29200	14	-46.1		70	10	10.0
2025-08-15T12:00	29250	14	-46.1		69	10	9.9
2025-08-15T12:00	29300	14	-46.0		72	11	9.8
2025-08-15T12:00	29350	14	-45.6		78	13	9.7
2025-08-15T12:00	29400	14	-45.2		83	14	9.6
2025-08-15T12:00	29450	14	-45.2		87	15	9.5
2025-08-15T12:00	29500	14	-45.0		92	15	9.4
2025-08-15T12:00	29550	14	-45.0		97	15	9.4
2025-08-15T12:00	29600	13	-44.9		101	13	9.3
2025-08-15T12:00	29650	13	-44.5		103	12	9.3
2025-08-15T12:00	29700	13	-44.3		99	11	9.2
2025-08-15T12:00	29750	13	-44.1		93	10	9.1
2025-08-15T12:00	29800	13	-43.9		87	10	9.1
2025-08-15T12:00	29850	13	-43.6		82	11	9.1
2025-08-15T12:00	29900	13	-43.0		81	11	9.0
2025-08-15T12:00	29950	13	-42.3		84	11	9.0
2025-08-15T12:00	30000	13	-42.0		88	12	9.0
2025-08-15T12:00	30050	13	-42.1		92	13	8.9
2025-08-15T12:00	30100	12	-42.3		96	13	8.8
2025-08-15T12:00	30150	12	-42.5		100	13	8.8
2025-08-15T12:00	30200	12	-42.8		104	12	8.8
2025-08-15T12:00	30250	12	-43.1		107	12	8.7
2025-08-15T12:00	30300	12	-43.3		107	11	8.6
2025-08-15T12:00	30350	12	-43.4		105	12	8.6
2025-08-15T12:00	30400	12	-43.5		105	12	8.5
2025-08-15T12:00	30450	12	-43.4		104	13	8.5
2025-08-15T12:00	30500	12	-43.3		104	13	8.4
2025-08-15T12:00	30550	12	-43.2		104	12	8.3
2025-08-15T12:00	30600	12	-43.0		104	11	8.3
2025-08-15T12:00	30650	11	-42.9		103	11	8.2
2025-08-15T12:00	30700	11	-42.9		97	10	8.2
2025-08-15T12:00	30750	11	-43.0		89	9	8.2
2025-08-15T12:00	30800	11	-42.9		85	9	8.1
2025-08-15T12:00	30850	11	-42.6		87	9	8.1
2025-08-15T12:00	30900	11	-42.5		93	9	8.0
2025-08-15T12:00	30950	11	-42.6		100	9	8.0
2025-08-15T12:00	31000	11	-42.7		106	10	7.9
2025-08-15T12:00	31050	11	-42.8		114	10	7.8
2025-08-15T12:00	31100	11	-42.9		120	11	7.8
2025-08-15T12:00	31150	11	-43.0		124	10	7.7
2025-08-15T12:00	31200	11	-43.1		126	9	7.7
2025-08-15T12:00	31250	11	-43.2		126	8	7.6
2025-08-15T12:00	31300	10	-43.1		126	7	7.6
2025-08-15T12:00	31350	10	-43.0		122	7	7.5
2025-08-15T12:00	31400	10	-43.0		119	7	7.5
2025-08-15T12:00	31450	10	-42.9		117	8	7.4
2025-08-15T12:00	31500	10	-42.6		114	8	7.3
2025-08-15T12:00	31550	10	-42.3		108	8	7.3
2025-08-15T12:00	31600	10	-41.8		102	7	7.2
2025-08-15T12:00	31650	10	-41.5		99	6	7.2
2025-08-15T12:00	31700	10	-41.5		98	6	7.2
2025-08-15T12:00	31750	10	-41.5		95	5	7.1
2025-08-15T12:00	31800	10	-41.5		91	5	7.1
2025-08-15T12:00	31850	10	-41.4		88	6	7.0
2025-08-15T12:00	31900	10	-41.3		86	7	6.9
2025-08-15T12:00	31950	9	-41.1		84	7	6.9
2025-08-15T12:00	32000	9	-40.8		80	7	6.9
2025-08-15T12:00	32050	9	-40.3		79	6	6.8
2025-08-15T12:00	32100	9	-40.1		80	6	6.7
2025-08-15T12:00	32150	9	-40.1		80	6	6.7
2025-08-15T12:00	32200	9	-40.1		79	7	6.7
2025-08-15T12:00	32250	9	-40.0		77	8	6.6
2025-08-15T12:00	32300	9	-39.9		75	8	6.6
2025-08-15T12:00	32350	9	-39.5		75	9	6.5
2025-08-15T12:00	32400	9	-39.2		77	8	6.5
2025-08-15T12:00	32450	9	-39.1		82	8	6.5
2025-08-15T12:00	32500	9	-39.1		88	8	6.5
2025-08-15T12:00	32550	9	-39.0		91	8	6.5
2025-08-15T12:00	32600	9	-39.1		87	7	6.4
2025-08-15T12:00	32650	9	-38.9		75	7	6.3
2025-08-15T12:00	32700	8	-38.5		64	8	6.2
2025-08-15T12:00	32750	8	-38.2		59	9	6.2
2025-08-15T12:00	32800	8	-38.0		62	10	6.1
2025-08-15T12:00	32850	8	-37.7		69	10	6.0
2025-08-15T12:00	32900	8	-37.6		75	10	6.0
2025-08-15T12:00	32950	8	-37.6		80	10	5.9
2025-08-15T12:00	33000	8	-37.6		83	10	5.9
2025-08-15T12:00	33050	8	-37.5		83	11	5.8
2025-08-15T12:00	33100	8	-37.3		84	13	5.7
2025-08-15T12:00	33150	8	-37.0		86	14	5.7
2025-08-15T12:00	33200	8	-37.1		90	15	5.6
2025-08-15T12:00	33250	8	-37.0		94	15	5.6
2025-08-15T12:00	33300	8	-36.9		98	16	5.5
2025-08-15T12:00	33350	8	-37.0		101	16	5.5
2025-08-15T12:00	33400	8	-37.3		105	15	5.4
2025-08-15T12:00	33450	8	-37.5		108	15	5.4
2025-08-15T12:00	33500	8	-37.5		109	15	5.3
2025-08-15T12:00	33550	8	-37.5		109	15	5.3
2025-08-15T12:00	33600	7	-37.4		108	15	5.3
2025-08-16T00:00	491	964	21.0	17.8	129	0	
2025-08-16T00:00	520	961	23.7	17.5	26	1	
2025-08-16T00:00	540	958	23.9	17.6	23	1	
2025-08-16T00:00	560	956	24.0	17.6	21	2	
2025-08-16T00:00	580	954	24.2	17.4	19	2	
2025-08-16T00:00	600	952	24.3	17.1	18	2	
2025-08-16T00:00	620	950	24.4	16.8	17	2	
2025-08-16T00:00	640	948	24.5	16.6	16	2	
2025-08-16T00:00	660	946	24.5	16.5	15	2	
2025-08-16T00:00	680	944	24.7	16.2	17	2	
2025-08-16T00:00	700	941	24.9	15.7	24	2	
2025-08-16T00:00	720	939	25.0	15.4	36	2	
2025-08-16T00:00	740	937	25.1	15.0	48	3	
2025-08-16T00:00	760	935	25.2	14.7	58	3	
2025-08-16T00:00	780	933	25.3	14.5	67	3	
2025-08-16T00:00	800	931	25.4	14.4	72	4	
2025-08-16T00:00	820	929	25.4	14.4	73	4	
2025-08-16T00:00	840	926	25.3	14.5	72	4	
2025-08-16T00:00	860	924	25.2	14.6	71	5	
2025-08-16T00:00	880	922	25.0	14.6	68	5	
2025-08-16T00:00	900	920	24.8	14.9	65	5	
2025-08-16T00:00	920	918	24.6	15.0	61	5	
2025-08-16T00:00	940	916	24.4	15.2	59	6	
2025-08-16T00:00	960	914	24.2	15.2	58	6	
2025-08-16T00:00	980	912	24.0	15.2	58	6	
2025-08-16T00:00	1000	910	23.8	15.2	58	6	
2025-08-16T00:00	1020	908	23.7	15.1	59	6	
2025-08-16T00:00	1040	906	23.5	15.0	59	6	
2025-08-16T00:00	1060	903	23.2	15.0	60	7	
2025-08-16T00:00	1080	901	23.0	15.0	62	7	
2025-08-16T00:00	1100	899	22.9	14.9	63	8	
2025-08-16T00:00	1120	897	22.7	14.9	65	8	
2025-08-16T00:00	1140	895	22.5	14.9	65	7	
2025-08-16T00:00	1160	893	22.3	14.8	64	7	
2025-08-16T00:00	1180	891	22.2	14.7	61	6	
2025-08-16T00:00	1200	889	22.0	14.3	57	6	
2025-08-16T00:00	1220	887	21.9	13.9	53	6	
2025-08-16T00:00	1240	885	21.8	13.7	50	6	
2025-08-16T00:00	1260	883	21.7	13.5	48	7	
2025-08-16T00:00	1280	881	21.6	13.2	46	7	
2025-08-16T00:00	1300	879	21.4	12.9	45	7	
2025-08-16T00:00	1320	877	21.3	13.0	43	7	
2025-08-16T00:00	1340	875	21.2	13.0	40	7	
2025-08-16T00:00	1360	873	21.0	13.4	38	7	
2025-08-16T00:00	1380	871	20.8	13.5	36	7	
2025-08-16T00:00	1400	869	20.6	13.5	36	6	
2025-08-16T00:00	1420	867	20.4	13.7	40	5	
2025-08-16T00:00	1440	865	20.2	13.6	45	5	
2025-08-16T00:00	1460	863	20.0	13.6	51	5	
2025-08-16T00:00	1480	861	19.9	13.6	55	5	
2025-08-16T00:00	1500	859	19.7	13.3	58	5	
2025-08-16T00:00	1520	857	19.5	13.0	59	5	
2025-08-16T00:00	1540	855	19.3	12.8	59	5	
2025-08-16T00:00	1560	853	19.2	12.3	59	6	
2025-08-16T00:00	1580	851	19.1	11.6	60	6	
2025-08-16T00:00	1600	849	18.9	11.6	60	6	
2025-08-16T00:00	1620	847	18.7	11.8	62	6	
2025-08-16T00:00	1640	845	18.6	11.5	63	6	
2025-08-16T00:00	1660	843	18.5	10.8	65	6	
2025-08-16T00:00	1680	841	18.4	10.4	66	5	
2025-08-16T00:00	1700	839	18.3	10.6	68	5	
2025-08-16T00:00	1720	837	18.1	10.8	67	5	
2025-08-16T00:00	1740	835	18.0	10.9	65	5	
2025-08-16T00:00	1760	833	17.8	10.9	61	4	
2025-08-16T00:00	1780	831	17.6	11.0	56	4	
2025-08-16T00:00	1800	829	17.4	10.9	50	4	
2025-08-16T00:00	1820	828	17.3	10.8	47	5	
2025-08-16T00:00	1840	825	17.1	10.4	46	5	
2025-08-16T00:00	1860	823	17.0	9.9	46	5	
2025-08-16T00:00	1880	822	16.9	9.8	49	5	
2025-08-16T00:00	1900	820	16.7	9.7	52	5	
2025-08-16T00:00	1920	818	16.6	10.0	54	5	
2025-08-16T00:00	1940	816	16.4	10.1	56	5	
2025-08-16T00:00	1960	814	16.2	10.3	57	5	
2025-08-16T00:00	1980	812	16.1	9.8	58	5	
2025-08-16T00:00	2000	810	16.0	9.7	58	5	
2025-08-16T00:00	2020	808	15.8	9.8	57	5	
2025-08-16T00:00	2040	806	15.6	9.9	56	5	
2025-08-16T00:00	2060	805	15.5	9.6	55	5	
2025-08-16T00:00	2080	803	15.3	9.2	52	4	
2025-08-16T00:00	2100	801	15.1	9.0	48	4	
2025-08-16T00:00	2120	799	15.0	9.0	43	4	
2025-08-16T00:00	2140	797	14.8	8.9	36	4	
2025-08-16T00:00	2160	795	14.6	8.9	32	4	
2025-08-16T00:00	2180	793	14.5	8.7	30	4	
2025-08-16T00:00	2200	791	14.3	8.4	32	4	
2025-08-16T00:00	2220	789	14.1	8.3	34	4	
2025-08-16T00:00	2240	788	13.9	8.2	36	5	
2025-08-16T00:00	2260	786	13.7	8.2	37	5	
2025-08-16T00:00	2280	784	13.5	8.3	37	5	
2025-08-16T00:00	2300	782	13.4	8.3	36	5	
2025-08-16T00:00	2320	780	13.2	8.3	36	4	
2025-08-16T00:00	2340	778	13.0	8.5	36	4	
2025-08-16T00:00	2360	776	12.9	8.1	39	4	
2025-08-16T00:00	2380	774	12.8	8.1	41	4	
2025-08-16T00:00	2400	773	12.6	7.9	44	4	
2025-08-16T00:00	2420	771	12.4	7.5	45	4	
2025-08-16T00:00	2440	769	12.4	6.3	44	4	
2025-08-16T00:00	2460	767	12.2	6.2	41	4	
2025-08-16T00:00	2480	765	12.1	6.0	38	4	
2025-08-16T00:00	2500	764	11.9	5.8	33	4	
2025-08-16T00:00	2520	762	11.7	5.9	29	4	
2025-08-16T00:00	2540	760	11.5	5.8	25	4	
2025-08-16T00:00	2560	758	11.4	5.7	23	4	
2025-08-16T00:00	2580	756	11.2	6.8	23	4	
2025-08-16T00:00	2600	755	11.1	6.4	24	4	
2025-08-16T00:00	2620	753	11.1	5.5	27	5	
2025-08-16T00:00	2640	751	11.1	4.1	30	5	
2025-08-16T00:00	2660	749	11.0	3.3	32	5	
2025-08-16T00:00	2680	747	10.8	3.0	33	5	
2025-08-16T00:00	2700	745	10.7	3.3	34	5	
2025-08-16T00:00	2720	744	10.5	3.7	36	5	
2025-08-16T00:00	2740	742	10.4	3.6	38	5	
2025-08-16T00:00	2760	740	10.3	3.3	39	5	
2025-08-16T00:00	2780	738	10.3	3.2	41	5	
2025-08-16T00:00	2800	737	10.3	2.5	41	5	
2025-08-16T00:00	2820	735	10.2	2.0	41	5	
2025-08-16T00:00	2840	733	10.0	1.9	39	5	
2025-08-16T00:00	2860	732	9.9	1.4	38	5	
2025-08-16T00:00	2880	729	9.8	0.7	36	5	
2025-08-16T00:00	2900	728	9.7	0.6	35	5	
2025-08-16T00:00	2920	726	9.6	0.2	34	5	
2025-08-16T00:00	2940	724	9.6	-1.1	35	5	
2025-08-16T00:00	2960	723	9.6	-1.7	38	5	
2025-08-16T00:00	2980	721	9.5	-1.7	43	5	
2025-08-16T00:00	3000	719	9.3	-1.7	48	5	
2025-08-16T00:00	3020	717	9.2	-1.5	55	5	
2025-08-16T00:00	3040	716	9.0	-1.3	60	5	
2025-08-16T00:00	3060	714	8.9	-1.4	63	5	
2025-08-16T00:00	3080	712	8.8	-2.0	64	5	
2025-08-16T00:00	3100	711	8.8	-2.5	62	5	
2025-08-16T00:00	3120	709	8.6	-2.9	60	5	
2025-08-16T00:00	3140	707	8.5	-3.1	56	4	
2025-08-16T00:00	3160	705	8.3	-3.2	52	4	
2025-08-16T00:00	3180	704	8.1	-3.1	48	4	
2025-08-16T00:00	3200	702	7.9	-3.2	45	4	
2025-08-16T00:00	3220	700	7.8	-3.5	45	4	
2025-08-16T00:00	3240	699	7.6	-3.5	45	4	
2025-08-16T00:00	3260	697	7.4	-3.6	45	4	
2025-08-16T00:00	3280	695	7.2	-3.6	45	4	
2025-08-16T00:00	3300	693	7.0	-3.6	43	4	
2025-08-16T00:00	3320	692	6.9	-3.7	39	4	
2025-08-16T00:00	3340	690	6.8	-3.8	34	4	
2025-08-16T00:00	3360	688	6.6	-4.1	30	4	
2025-08-16T00:00	3380	687	6.5	-4.1	25	4	
2025-08-16T00:00	3400	685	6.3	-4.1	20	4	
2025-08-16T00:00	3420	683	6.1	-4.2	15	4	
2025-08-16T00:00	3440	682	6.0	-4.2	10	4	
2025-08-16T00:00	3460	680	5.7	-4.2	6	4	
2025-08-16T00:00	3480	678	5.5	-4.2	2	4	
2025-08-16T00:00	3500	677	5.4	-4.1	4	4	
2025-08-16T00:00	3520	675	5.2	-3.9	10	4	
2025-08-16T00:00	3540	673	5.1	-3.9	16	4	
2025-08-16T00:00	3560	672	4.9	-3.9	21	4	
2025-08-16T00:00	3580	670	4.7	-4.0	24	5	
2025-08-16T00:00	3600	669	4.6	-4.0	27	5	
2025-08-16T00:00	3620	667	4.4	-3.6	28	5	
2025-08-16T00:00	3640	665	4.2	-3.1	27	4	
2025-08-16T00:00	3660	664	4.1	-3.3	24	4	
2025-08-16T00:00	3680	662	4.0	-4.0	21	4	
2025-08-16T00:00	3700	660	3.9	-4.2	17	4	
2025-08-16T00:00	3720	659	3.7	-4.4	15	4	
2025-08-16T00:00	3740	657	3.6	-4.5	13	4	
2025-08-16T00:00	3760	655	3.4	-4.7	12	4	
2025-08-16T00:00	3780	654	3.2	-4.9	12	4	
2025-08-16T00:00	3800	652	3.1	-5.2	11	5	
2025-08-16T00:00	3820	651	2.9	-5.6	11	5	
2025-08-16T00:00	3840	649	2.8	-5.6	11	5	
2025-08-16T00:00	3860	648	2.6	-5.4	10	4	
2025-08-16T00:00	3880	646	2.4	-5.5	10	4	
2025-08-16T00:00	3900	644	2.3	-5.6	9	4	
2025-08-16T00:00	3920	643	2.1	-5.8	9	4	
2025-08-16T00:00	3940	641	2.0	-5.9	10	4	
2025-08-16T00:00	3960	639	1.8	-6.2	11	3	
2025-08-16T00:00	3980	638	1.6	-6.5	13	3	
2025-08-16T00:00	4000	636	1.4	-6.8	14	3	
2025-08-16T00:00	4020	635	1.3	-6.7	15	4	
2025-08-16T00:00	4040	633	1.1	-6.9	16	4	
2025-08-16T00:00	4060	632	1.0	-6.9	16	4	
2025-08-16T00:00	4080	630	0.8	-7.1	18	4	
2025-08-16T00:00	4100	628	0.7	-7.7	19	4	
2025-08-16T00:00	4120	627	0.6	-8.4	20	4	
2025-08-16T00:00	4140	625	0.6	-8.7	21	4	
2025-08-16T00:00	4160	624	0.4	-8.9	20	4	
2025-08-16T00:00	4180	622	0.3	-8.8	16	4	
2025-08-16T00:00	4200	621	0.2	-9.5	10	4	
2025-08-16T00:00	4220	619	0.1	-9.7	5	4	
2025-08-16T00:00	4240	618	0.0	-10.0	1	3	
2025-08-16T00:00	4260	616	-0.2	-10.2	360	4	
2025-08-16T00:00	4280	615	-0.4	-10.2	1	4	
2025-08-16T00:00	4300	613	-0.6	-10.2	3	4	
2025-08-16T00:00	4320	611	-0.8	-10.3	5	4	
2025-08-16T00:00	4340	610	-0.9	-10.3	6	4	
2025-08-16T00:00	4360	608	-1.1	-10.4	8	4	
2025-08-16T00:00	4380	607	-1.3	-10.4	10	4	
2025-08-16T00:00	4400	605	-1.5	-10.4	12	4	
2025-08-16T00:00	4420	604	-1.6	-10.2	12	4	
2025-08-16T00:00	4440	602	-1.8	-9.9	11	4	
2025-08-16T00:00	4460	601	-2.0	-9.5	8	4	
2025-08-16T00:00	4480	599	-2.0	-9.9	6	4	
2025-08-16T00:00	4500	598	-2.2	-10.3	1	4	
2025-08-16T00:00	4520	597	-2.3	-10.4	358	4	
2025-08-16T00:00	4540	595	-2.4	-10.8	354	5	
2025-08-16T00:00	4560	593	-2.4	-11.8	351	5	
2025-08-16T00:00	4580	592	-2.4	-11.6	350	5	
2025-08-16T00:00	4600	590	-2.4	-10.8	351	6	
2025-08-16T00:00	4620	589	-2.3	-12.3	354	7	
2025-08-16T00:00	4640	587	-2.4	-12.4	356	7	
2025-08-16T00:00	4660	586	-2.6	-12.5	357	8	
2025-08-16T00:00	4680	584	-2.8	-12.8	357	8	
2025-08-16T00:00	4700	583	-3.0	-13.1	356	8	
2025-08-16T00:00	4720	581	-3.1	-13.9	354	8	
2025-08-16T00:00	4740	580	-3.3	-14.2	352	8	
2025-08-16T00:00	4760	579	-3.5	-14.0	349	8	
2025-08-16T00:00	4780	577	-3.7	-13.9	346	8	
2025-08-16T00:00	4800	576	-3.9	-13.9	344	8	
2025-08-16T00:00	4820	574	-4.0	-14.1	342	8	
2025-08-16T00:00	4840	573	-4.1	-15.2	340	8	
2025-08-16T00:00	4860	571	-4.1	-18.1	339	8	
2025-08-16T00:00	4880	570	-4.1	-21.9	338	8	
2025-08-16T00:00	4900	568	-4.1	-25.0	339	8	
2025-08-16T00:00	4920	567	-4.2	-24.4	341	9	
2025-08-16T00:00	4940	566	-4.4	-23.6	343	9	
2025-08-16T00:00	4960	564	-4.5	-26.1	346	9	
2025-08-16T00:00	4980	563	-4.5	-32.3	348	9	
2025-08-16T00:00	5000	561	-4.4	-37.2	349	9	
2025-08-16T00:00	5020	560	-4.3	-41.0	350	9	
2025-08-16T00:00	5040	558	-4.3	-42.6	350	9	
2025-08-16T00:00	5060	557	-4.3	-42.1	350	9	
2025-08-16T00:00	5080	555	-4.4	-36.7	349	9	
2025-08-16T00:00	5100	554	-4.6	-33.4	349	9	
2025-08-16T00:00	5120	553	-4.8	-33.0	349	10	
2025-08-16T00:00	5140	551	-4.9	-32.8	349	10	
2025-08-16T00:00	5160	550	-5.0	-32.6	349	10	
2025-08-16T00:00	5180	548	-5.1	-34.1	348	10	
2025-08-16T00:00	5200	547	-5.0	-34.9	348	10	
2025-08-16T00:00	5220	546	-5.1	-34.1	347	10	
2025-08-16T00:00	5240	544	-5.3	-33.6	346	10	
2025-08-16T00:00	5260	543	-5.5	-33.1	346	10	
2025-08-16T00:00	5280	542	-5.6	-32.0	345	10	
2025-08-16T00:00	5300	540	-5.7	-30.0	346	10	
2025-08-16T00:00	5320	539	-5.9	-28.7	346	10	
2025-08-16T00:00	5340	537	-6.1	-28.2	346	9	
2025-08-16T00:00	5360	536	-6.2	-27.9	347	9	
2025-08-16T00:00	5380	535	-6.4	-25.2	347	9	
2025-08-16T00:00	5400	533	-6.6	-21.4	348	10	
2025-08-16T00:00	5420	532	-6.8	-21.3	349	10	
2025-08-16T00:00	5440	531	-7.0	-20.7	350	10	
2025-08-16T00:00	5460	529	-7.2	-20.4	350	10	
2025-08-16T00:00	5480	528	-7.4	-19.7	352	10	
2025-08-16T00:00	5500	527	-7.6	-19.6	353	10	
2025-08-16T00:00	5520	525	-7.8	-19.4	354	10	
2025-08-16T00:00	5540	524	-8.0	-19.4	354	10	
2025-08-16T00:00	5560	522	-8.2	-19.5	354	10	
2025-08-16T00:00	5580	521	-8.3	-19.6	353	11	
2025-08-16T00:00	5600	520	-8.5	-19.7	352	11	
2025-08-16T00:00	5620	518	-8.7	-19.9	350	11	
2025-08-16T00:00	5640	517	-8.9	-20.1	348	11	
2025-08-16T00:00	5660	516	-9.1	-20.1	345	11	
2025-08-16T00:00	5680	515	-9.2	-20.2	343	11	
2025-08-16T00:00	5700	513	-9.3	-20.8	340	10	
2025-08-16T00:00	5720	512	-9.5	-21.2	338	10	
2025-08-16T00:00	5740	510	-9.7	-21.1	335	10	
2025-08-16T00:00	5760	509	-9.8	-21.7	334	10	
2025-08-16T00:00	5780	508	-9.9	-21.8	333	10	
2025-08-16T00:00	5800	506	-10.0	-22.1	333	10	
2025-08-16T00:00	5820	505	-10.0	-22.5	333	10	
2025-08-16T00:00	5840	504	-10.1	-22.5	334	10	
2025-08-16T00:00	5860	503	-10.1	-24.3	335	10	
2025-08-16T00:00	5880	501	-10.2	-25.4	336	11	
2025-08-16T00:00	5900	500	-10.3	-26.0	338	11	
2025-08-16T00:00	5920	499	-10.4	-26.9	340	11	
2025-08-16T00:00	5940	497	-10.5	-27.4	342	11	
2025-08-16T00:00	5960	496	-10.6	-27.2	343	11	
2025-08-16T00:00	5980	495	-10.8	-26.7	344	11	
2025-08-16T00:00	6000	494	-10.9	-26.4	344	11	
2025-08-16T00:00	6020	492	-11.1	-26.1	344	11	
2025-08-16T00:00	6040	491	-11.3	-26.0	344	11	
2025-08-16T00:00	6060	490	-11.5	-26.0	344	11	
2025-08-16T00:00	6080	488	-11.7	-26.0	344	11	
2025-08-16T00:00	6100	487	-11.9	-26.1	343	11	
2025-08-16T00:00	6120	486	-12.1	-26.3	342	11	
2025-08-16T00:00	6140	485	-12.2	-26.6	342	11	
2025-08-16T00:00	6160	483	-12.4	-27.0	341	10	
2025-08-16T00:00	6180	482	-12.5	-27.1	341	10	
2025-08-16T00:00	6200	481	-12.7	-27.5	342	10	
2025-08-16T00:00	6220	480	-12.8	-28.6	343	10	
2025-08-16T00:00	6240	478	-12.8	-29.7	345	11	
2025-08-16T00:00	6260	477	-12.8	-31.5	346	11	
2025-08-16T00:00	6280	476	-12.8	-32.7	348	12	
2025-08-16T00:00	6300	474	-12.9	-33.5	349	12	
2025-08-16T00:00	6320	473	-13.1	-34.0	349	12	
2025-08-16T00:00	6340	472	-13.2	-34.8	351	13	
2025-08-16T00:00	6360	471	-13.3	-35.3	351	13	
2025-08-16T00:00	6380	469	-13.4	-35.7	353	13	
2025-08-16T00:00	6400	468	-13.6	-35.7	354	13	
2025-08-16T00:00	6420	467	-13.7	-36.2	355	13	
2025-08-16T00:00	6440	466	-13.8	-36.7	357	13	
2025-08-16T00:00	6460	465	-14.0	-36.7	358	13	
2025-08-16T00:00	6480	463	-14.2	-36.6	358	13	
2025-08-16T00:00	6500	462	-14.3	-36.3	358	13	
2025-08-16T00:00	6520	461	-14.5	-36.3	358	13	
2025-08-16T00:00	6540	460	-14.7	-36.4	358	13	
2025-08-16T00:00	6560	459	-14.8	-36.4	358	13	
2025-08-16T00:00	6580	457	-15.0	-36.6	357	14	
2025-08-16T00:00	6600	456	-15.2	-36.7	357	14	
2025-08-16T00:00	6620	455	-15.4	-37.0	356	15	
2025-08-16T00:00	6640	454	-15.5	-37.2	356	15	
2025-08-16T00:00	6660	452	-15.7	-37.3	355	16	
2025-08-16T00:00	6680	451	-15.9	-37.4	355	16	
2025-08-16T00:00	6700	450	-16.1	-37.4	355	16	
2025-08-16T00:00	6720	449	-16.2	-37.1	355	16	
2025-08-16T00:00	6740	448	-16.3	-36.6	356	16	
2025-08-16T00:00	6760	447	-16.4	-36.1	357	15	
2025-08-16T00:00	6780	445	-16.6	-36.4	358	15	
2025-08-16T00:00	6800	444	-16.7	-37.7	360	15	
2025-08-16T00:00	6820	443	-16.8	-37.0	1	15	
2025-08-16T00:00	6840	442	-16.9	-35.9	2	15	
2025-08-16T00:00	6860	441	-17.1	-35.3	3	15	
2025-08-16T00:00	6880	439	-17.3	-34.8	3	15	
2025-08-16T00:00	6900	438	-17.5	-34.8	2	15	
2025-08-16T00:00	6920	437	-17.7	-34.9	1	15	
2025-08-16T00:00	6940	436	-17.8	-35.8	360	15	
2025-08-16T00:00	6960	435	-18.0	-35.8	358	16	
2025-08-16T00:00	6980	434	-18.1	-35.4	358	16	
2025-08-16T00:00	7000	432	-18.3	-34.9	357	16	
2025-08-16T00:00	7020	431	-18.5	-34.7	357	16	
2025-08-16T00:00	7040	430	-18.5	-35.9	356	16	
2025-08-16T00:00	7060	429	-18.4	-36.9	356	16	
2025-08-16T00:00	7080	428	-18.5	-36.3	356	16	
2025-08-16T00:00	7100	427	-18.7	-36.4	356	16	
2025-08-16T00:00	7120	425	-18.9	-37.1	356	16	
2025-08-16T00:00	7140	424	-19.0	-38.1	355	16	
2025-08-16T00:00	7160	423	-19.1	-38.8	355	16	
2025-08-16T00:00	7180	422	-19.3	-38.8	354	16	
2025-08-16T00:00	7200	421	-19.4	-39.7	354	17	
2025-08-16T00:00	7220	420	-19.6	-40.3	353	17	
2025-08-16T00:00	7240	419	-19.7	-39.8	352	17	
2025-08-16T00:00	7260	418	-19.9	-39.7	352	17	
2025-08-16T00:00	7280	417	-20.1	-39.8	351	17	
2025-08-16T00:00	7300	415	-20.3	-39.9	350	17	
2025-08-16T00:00	7320	414	-20.5	-40.0	350	17	
2025-08-16T00:00	7340	413	-20.7	-40.1	350	17	
2025-08-16T00:00	7360	412	-20.8	-40.3	349	17	
2025-08-16T00:00	7380	411	-21.0	-40.5	349	17	
2025-08-16T00:00	7400	410	-21.2	-40.6	349	17	
2025-08-16T00:00	7420	409	-21.4	-41.0	348	17	
2025-08-16T00:00	7440	408	-21.5	-41.8	348	17	
2025-08-16T00:00	7460	406	-21.6	-42.2	348	17	
2025-08-16T00:00	7480	405	-21.7	-42.7	348	17	
2025-08-16T00:00	7500	404	-21.7	-42.0	348	17	
2025-08-16T00:00	7520	403	-21.6	-42.0	349	17	
2025-08-16T00:00	7540	402	-21.6	-42.3	349	17	
2025-08-16T00:00	7560	401	-21.7	-42.4	350	17	
2025-08-16T00:00	7580	400	-21.8	-43.0	351	17	
2025-08-16T00:00	7600	399	-21.9	-43.6	351	17	
2025-08-16T00:00	7620	398	-22.0	-43.2	351	17	
2025-08-16T00:00	7640	397	-22.1	-43.1	350	17	
2025-08-16T00:00	7660	396	-22.3	-42.2	348	17	
2025-08-16T00:00	7680	394	-22.5	-41.7	347	18	
2025-08-16T00:00	7700	393	-22.6	-41.4	345	18	
2025-08-16T00:00	7720	392	-22.8	-41.6	343	18	
2025-08-16T00:00	7740	391	-22.8	-42.1	342	18	
2025-08-16T00:00	7760	390	-22.9	-42.6	340	18	
2025-08-16T00:00	7780	389	-23.0	-43.1	340	18	
2025-08-16T00:00	7800	388	-23.2	-43.5	340	18	
2025-08-16T00:00	7820	387	-23.3	-43.9	340	17	
2025-08-16T00:00	7840	386	-23.4	-44.5	341	17	
2025-08-16T00:00	7860	385	-23.6	-44.8	341	17	
2025-08-16T00:00	7880	384	-23.8	-45.0	343	17	
2025-08-16T00:00	7900	383	-23.9	-45.1	344	17	
2025-08-16T00:00	7920	382	-24.1	-45.2	344	17	
2025-08-16T00:00	7940	381	-24.3	-45.4	346	16	
2025-08-16T00:00	7960	380	-24.4	-45.5	346	16	
2025-08-16T00:00	7980	379	-24.6	-45.6	347	16	
2025-08-16T00:00	8000	377	-24.8	-45.8	347	15	
2025-08-16T00:00	8020	377	-24.9	-45.9	347	15	
2025-08-16T00:00	8040	375	-25.1	-46.1	347	15	
2025-08-16T00:00	8060	374	-25.3	-46.4	346	15	
2025-08-16T00:00	8080	373	-25.4	-46.5	344	16	
2025-08-16T00:00	8100	372	-25.6	-46.5	343	16	
2025-08-16T00:00	8120	371	-25.8	-46.8	342	16	
2025-08-16T00:00	8140	370	-26.0	-47.1	341	16	
2025-08-16T00:00	8160	369	-26.1	-47.6	341	17	
2025-08-16T00:00	8180	368	-26.3	-48.0	341	17	
2025-08-16T00:00	8200	367	-26.5	-48.1	341	17	
2025-08-16T00:00	8220	366	-26.7	-48.2	342	17	
2025-08-16T00:00	8240	365	-26.9	-48.4	343	17	
2025-08-16T00:00	8260	364	-27.1	-48.5	343	17	
2025-08-16T00:00	8280	363	-27.2	-48.8	343	17	
2025-08-16T00:00	8300	362	-27.4	-49.1	343	17	
2025-08-16T00:00	8320	361	-27.6	-49.2	343	17	
2025-08-16T00:00	8340	360	-27.7	-49.3	343	17	
2025-08-16T00:00	8360	359	-27.9	-49.5	343	17	
2025-08-16T00:00	8380	358	-28.0	-49.7	343	17	
2025-08-16T00:00	8400	357	-28.2	-49.8	343	17	
2025-08-16T00:00	8420	356	-28.3	-49.9	343	17	
2025-08-16T00:00	8440	355	-28.5	-49.6	344	17	
2025-08-16T00:00	8460	354	-28.7	-49.5	344	17	
2025-08-16T00:00	8480	353	-28.9	-49.4	345	17	
2025-08-16T00:00	8500	352	-29.1	-49.5	346	18	
2025-08-16T00:00	8520	351	-29.3	-49.5	346	18	
2025-08-16T00:00	8540	350	-29.4	-49.5	346	18	
2025-08-16T00:00	8560	349	-29.6	-49.2	346	18	
2025-08-16T00:00	8580	348	-29.7	-49.1	346	18	
2025-08-16T00:00	8600	347	-29.9	-49.5	345	18	
2025-08-16T00:00	8620	346	-30.1	-49.5	344	18	
2025-08-16T00:00	8640	345	-30.2	-49.5	343	17	
2025-08-16T00:00	8660	344	-30.4	-49.7	341	17	
2025-08-16T00:00	8680	343	-30.6	-50.1	341	17	
2025-08-16T00:00	8700	343	-30.7	-50.3	340	17	
2025-08-16T00:00	8720	342	-30.8	-50.4	339	17	
2025-08-16T00:00	8740	341	-31.0	-50.5	339	16	
2025-08-16T00:00	8760	340	-31.2	-50.5	338	16	
2025-08-16T00:00	8780	339	-31.4	-50.6	338	16	
2025-08-16T00:00	8800	338	-31.6	-50.6	337	16	
2025-08-16T00:00	8820	337	-31.8	-50.7	337	17	
2025-08-16T00:00	8840	336	-31.9	-50.8	337	17	
2025-08-16T00:00	8860	335	-32.1	-50.9	337	17	
2025-08-16T00:00	8880	334	-32.3	-51.0	338	17	
2025-08-16T00:00	8900	333	-32.5	-51.0	339	17	
2025-08-16T00:00	8920	332	-32.7	-51.2	339	17	
2025-08-16T00:00	8940	331	-32.8	-51.4	340	18	
2025-08-16T00:00	8960	330	-33.0	-51.4	340	18	
2025-08-16T00:00	8980	329	-33.1	-51.6	340	18	
2025-08-16T00:00	9000	328	-33.3	-51.8	340	18	
2025-08-16T00:00	9020	327	-33.4	-52.3	340	18	
2025-08-16T00:00	9040	326	-33.4	-52.6	339	18	
2025-08-16T00:00	9060	325	-33.5	-52.9	339	18	
2025-08-16T00:00	9080	324	-33.6	-53.1	339	18	
2025-08-16T00:00	9100	324	-33.8	-53.1	339	18	
2025-08-16T00:00	9120	323	-33.9	-53.3	338	18	
2025-08-16T00:00	9140	322	-34.1	-53.4	338	18	
2025-08-16T00:00	9160	321	-34.2	-53.4	338	18	
2025-08-16T00:00	9180	320	-34.4	-53.3	338	18	
2025-08-16T00:00	9200	319	-34.5	-53.5	338	18	
2025-08-16T00:00	9220	318	-34.7	-53.6	338	17	
2025-08-16T00:00	9240	317	-34.9	-53.7	338	17	
2025-08-16T00:00	9260	316	-35.1	-53.9	338	17	
2025-08-16T00:00	9280	315	-35.2	-54.3	337	17	
2025-08-16T00:00	9300	314	-35.3	-55.0	336	17	
2025-08-16T00:00	9320	313	-35.4	-55.4	335	17	
2025-08-16T00:00	9340	313	-35.6	-55.4	334	17	
2025-08-16T00:00	9360	312	-35.7	-55.5	333	18	
2025-08-16T00:00	9380	311	-35.8	-55.6	332	18	
2025-08-16T00:00	9400	310	-36.0	-55.7	331	18	
2025-08-16T00:00	9420	309	-36.1	-55.8	331	18	
2025-08-16T00:00	9440	308	-36.2	-55.9	331	18	
2025-08-16T00:00	9460	307	-36.4	-55.9	331	18	
2025-08-16T00:00	9480	306	-36.6	-55.9	331	18	
2025-08-16T00:00	9500	306	-36.8	-55.9	332	18	
2025-08-16T00:00	9520	305	-36.9	-55.7	332	18	
2025-08-16T00:00	9540	304	-37.1	-55.4	333	18	
2025-08-16T00:00	9560	303	-37.3	-55.3	334	18	
2025-08-16T00:00	9580	302	-37.5	-55.1	335	18	
2025-08-16T00:00	9600	301	-37.6	-55.3	336	18	
2025-08-16T00:00	9620	300	-37.8	-55.1	337	18	
2025-08-16T00:00	9640	299	-37.9	-54.3	337	18	
2025-08-16T00:00	9660	298	-38.1	-54.5	338	18	
2025-08-16T00:00	9680	298	-38.2	-54.4	337	18	
2025-08-16T00:00	9700	297	-38.4	-54.3	337	17	
2025-08-16T00:00	9720	296	-38.6	-54.3	337	17	
2025-08-16T00:00	9740	295	-38.8	-54.4	336	17	
2025-08-16T00:00	9760	294	-39.0	-54.4	335	17	
2025-08-16T00:00	9780	293	-39.2	-54.3	334	17	
2025-08-16T00:00	9800	293	-39.3	-54.0	333	17	
2025-08-16T00:00	9820	292	-39.5	-53.2	333	17	
2025-08-16T00:00	9840	291	-39.7	-53.3	333	17	
2025-08-16T00:00	9860	290	-39.9	-53.4	333	17	
2025-08-16T00:00	9880	289	-40.1	-53.4	333	17	
2025-08-16T00:00	9900	288	-40.3	-53.8	334	18	
2025-08-16T00:00	9920	287	-40.4	-54.2	334	17	
2025-08-16T00:00	9940	287	-40.6	-54.7	335	17	
2025-08-16T00:00	9960	286	-40.7	-55.0	335	17	
2025-08-16T00:00	9980	285	-40.9	-54.9	335	17	
2025-08-16T00:00	10000	284	-41.0	-55.1	335	17	
2025-08-16T00:00	10018	283	-41.2	-55.3	335	17	
2025-08-16T00:00	10050	282	-41.5	-55.4	335	17	
2025-08-16T00:00	10100	280	-41.9	-55.4	336	17	
2025-08-16T00:00	10150	278	-42.4	-55.5	336	17	
2025-08-16T00:00	10200	276	-42.9	-55.5	335	16	
2025-08-16T00:00	10250	274	-43.3	-55.4	334	16	
2025-08-16T00:00	10300	272	-43.7	-56.4	334	16	
2025-08-16T00:00	10350	270	-44.0	-57.1	334	16	
2025-08-16T00:00	10400	268	-44.4	-57.2	332	16	
2025-08-16T00:00	10450	266	-44.7	-57.4	330	16	
2025-08-16T00:00	10500	264	-45.1	-57.6	328	16	
2025-08-16T00:00	10550	262	-45.6	-57.3	327	16	
2025-08-16T00:00	10600	260	-46.0	-57.2	327	16	
2025-08-16T00:00	10650	258	-46.3	-57.6	327	16	
2025-08-16T00:00	10700	256	-46.7	-58.3	328	16	
2025-08-16T00:00	10750	254	-47.0	-59.3	328	16	
2025-08-16T00:00	10800	252	-47.4	-59.2	328	17	
2025-08-16T00:00	10850	250	-47.7	-58.5	326	17	
2025-08-16T00:00	10900	248	-48.0	-58.3	325	17	
2025-08-16T00:00	10950	246	-48.3	-59.0	326	17	
2025-08-16T00:00	11000	245	-48.7	-59.0	327	17	
2025-08-16T00:00	11050	243	-49.1	-59.0	327	18	
2025-08-16T00:00	11100	241	-49.4	-59.2	327	18	
2025-08-16T00:00	11150	239	-49.6	-60.2	328	18	
2025-08-16T00:00	11200	237	-49.4	-61.9	329	17	
2025-08-16T00:00	11250	235	-49.5	-62.9	329	18	
2025-08-16T00:00	11300	234	-49.8	-63.1	328	18	
2025-08-16T00:00	11350	232	-49.9	-63.2	326	17	
2025-08-16T00:00	11400	230	-50.1	-63.0	323	17	
2025-08-16T00:00	11450	228	-50.3	-63.0	320	17	
2025-08-16T00:00	11500	226	-50.5	-63.6	317	18	
2025-08-16T00:00	11550	225	-50.6	-65.1	315	18	
2025-08-16T00:00	11600	223	-50.5	-66.6	314	18	
2025-08-16T00:00	11650	221	-50.6	-66.8	313	18	
2025-08-16T00:00	11700	220	-50.6	-67.3	313	19	
2025-08-16T00:00	11750	218	-50.9	-67.2	313	19	
2025-08-16T00:00	11800	216	-50.9	-66.7	315	19	
2025-08-16T00:00	11850	215	-51.0	-66.9	315	18	
2025-08-16T00:00	11900	213	-51.1	-67.2	313	18	
2025-08-16T00:00	11950	211	-51.4	-67.5	310	18	
2025-08-16T00:00	12000	210	-51.6	-67.9	309	19	
2025-08-16T00:00	12050	208	-51.6	-68.3	311	19	
2025-08-16T00:00	12100	207	-51.4	-68.8	315	17	
2025-08-16T00:00	12150	205	-50.9	-69.7	319	15	
2025-08-16T00:00	12200	203	-50.3	-70.2	320	13	
2025-08-16T00:00	12250	202	-50.4	-70.3	315	13	
2025-08-16T00:00	12300	200	-50.6	-70.4	311	13	
2025-08-16T00:00	12350	199	-50.7	-70.5	311	14	
2025-08-16T00:00	12400	197	-50.9	-70.4	312	14	
2025-08-16T00:00	12450	196	-51.0	-70.3	314	15	
2025-08-16T00:00	12500	194	-51.2	-70.3	316	16	
2025-08-16T00:00	12550	193	-51.3	-70.5	319	16	
2025-08-16T00:00	12600	191	-51.5	-70.8	321	16	
2025-08-16T00:00	12650	190	-51.8	-71.0	322	16	
2025-08-16T00:00	12700	188	-52.1	-71.2	322	16	
2025-08-16T00:00	12750	187	-52.2	-71.5	320	15	
2025-08-16T00:00	12800	185	-52.4	-71.7	316	14	
2025-08-16T00:00	12850	184	-52.7	-71.9	311	15	
2025-08-16T00:00	12900	183	-52.6	-72.3	306	16	
2025-08-16T00:00	12950	181	-52.4	-72.5	304	18	
2025-08-16T00:00	13000	180	-52.2	-72.8	305	19	
2025-08-16T00:00	13050	178	-51.9	-72.9	308	19	
2025-08-16T00:00	13100	177	-51.8	-72.9	310	20	
2025-08-16T00:00	13150	176	-51.6	-73.3	311	20	
2025-08-16T00:00	13200	174	-51.1	-74.4	312	20	
2025-08-16T00:00	13250	173	-50.3	-76.2	313	20	
2025-08-16T00:00	13300	172	-50.1	-77.2	315	20	
2025-08-16T00:00	13350	170	-50.2	-77.7	317	19	
2025-08-16T00:00	13400	169	-50.2	-78.2	320	18	
2025-08-16T00:00	13450	168	-50.3	-78.3	323	18	
2025-08-16T00:00	13500	167	-50.5	-78.5	325	18	
2025-08-16T00:00	13550	165	-50.8	-78.8	326	17	
2025-08-16T00:00	13600	164	-50.9	-79.2	327	16	
2025-08-16T00:00	13650	163	-51.3	-79.4	328	15	
2025-08-16T00:00	13700	161	-51.6	-79.5	328	14	
2025-08-16T00:00	13750	160	-51.9	-79.6	328	13	
2025-08-16T00:00	13800	159	-52.3	-79.7	327	12	
2025-08-16T00:00	13850	158	-52.6	-79.7	328	11	
2025-08-16T00:00	13900	157	-53.0	-79.8	325	10	
2025-08-16T00:00	13950	155	-53.3	-79.9	322	10	
2025-08-16T00:00	14000	154	-53.7	-79.9	318	10	
2025-08-16T00:00	14050	153	-54.1	-79.9	314	10	
2025-08-16T00:00	14100	152	-54.4	-79.9	311	10	
2025-08-16T00:00	14150	151	-54.5	-80.2	309	11	
2025-08-16T00:00	14200	149	-54.6	-81.0	307	12	
2025-08-16T00:00	14250	148	-54.6	-81.4	306	12	
2025-08-16T00:00	14300	147	-54.8	-81.4	305	13	
2025-08-16T00:00	14350	146	-55.2	-81.5	304	13	
2025-08-16T00:00	14400	145	-55.6	-81.6	306	13	
2025-08-16T00:00	14450	144	-56.0	-81.7	310	14	
2025-08-16T00:00	14500	143	-56.1	-81.9	313	14	
2025-08-16T00:00	14550	141	-56.3	-82.0	313	14	
2025-08-16T00:00	14600	140	-56.3	-82.0	311	14	
2025-08-16T00:00	14650	139	-56.5	-82.1	309	14	
2025-08-16T00:00	14700	138	-56.9	-82.2	306	14	
2025-08-16T00:00	14750	137	-57.2	-82.3	307	14	
2025-08-16T00:00	14800	136	-57.1	-82.3	309	13	
2025-08-16T00:00	14850	135	-56.9	-82.4	311	12	
2025-08-16T00:00	14900	134	-56.2	-82.4	312	11	
2025-08-16T00:00	14950	133	-56.2	-82.5	316	10	
2025-08-16T00:00	15000	132	-56.6	-82.4	322	9	
2025-08-16T00:00	15050	131	-56.6	-82.5	320	9	
2025-08-16T00:00	15100	130	-56.7	-82.6	313	9	
2025-08-16T00:00	15150	129	-56.9	-82.6	305	9	
2025-08-16T00:00	15200	128	-57.0	-82.5	299	9	
2025-08-16T00:00	15250	127	-57.3	-82.6	294	10	
2025-08-16T00:00	15300	126	-57.5	-82.5	292	10	
2025-08-16T00:00	15350	125	-57.8	-82.6	290	11	
2025-08-16T00:00	15400	124	-58.0	-82.8	288	12	
2025-08-16T00:00	15450	123	-58.1	-82.9	286	13	
2025-08-16T00:00	15500	122	-58.2	-83.1	289	13	
2025-08-16T00:00	15550	121	-58.1	-83.2	294	14	
2025-08-16T00:00	15600	120	-58.3	-83.3	296	14	
2025-08-16T00:00	15650	119	-58.1	-83.4	296	13	
2025-08-16T00:00	15700	118	-58.2	-83.7	296	12	
2025-08-16T00:00	15750	117	-58.2	-83.7	301	11	
2025-08-16T00:00	15800	116	-58.4	-83.8	306	10	
2025-08-16T00:00	15850	115	-58.5	-83.9	312	9	
2025-08-16T00:00	15900	114	-58.1	-83.8	316	7	
2025-08-16T00:00	15950	113	-58.1	-83.7	316	6	
2025-08-16T00:00	16000	112	-58.4	-83.8	316	5	
2025-08-16T00:00	16050	112	-58.8	-83.8	316	4	
2025-08-16T00:00	16100	111	-59.2	-83.9	314	4	
2025-08-16T00:00	16150	110	-59.5	-83.9	314	4	
2025-08-16T00:00	16200	109	-59.7	-84.1	312	4	
2025-08-16T00:00	16250	108	-59.7	-84.1	307	4	
2025-08-16T00:00	16300	107	-59.9	-84.2	310	6	
2025-08-16T00:00	16350	106	-60.0	-84.4	317	7	
2025-08-16T00:00	16400	105	-60.0	-84.5	324	7	
2025-08-16T00:00	16450	105	-59.9	-84.7	328	6	
2025-08-16T00:00	16500	104	-60.0	-84.8	331	5	
2025-08-16T00:00	16550	103	-59.9	-84.9	336	4	
2025-08-16T00:00	16600	102	-59.5	-84.8	344	3	
2025-08-16T00:00	16650	101	-59.3	-84.7	354	3	
2025-08-16T00:00	16700	101	-59.6	-84.7	8	2	
2025-08-16T00:00	16750	100	-59.8	-84.6	22	1	
2025-08-16T00:00	16800	99	-60.2	-84.7	3	1	
2025-08-16T00:00	16850	98	-60.7	-84.8	301	1	
2025-08-16T00:00	16900	97	-61.1	-84.9	273	2	
2025-08-16T00:00	16950	97	-61.4	-84.9	258	2	
2025-08-16T00:00	17000	96	-61.8	-84.9	247	3	
2025-08-16T00:00	17050	95	-62.2	-85.0	241	4	
2025-08-16T00:00	17100	94	-62.6	-85.0	240	4	
2025-08-16T00:00	17150	93	-63.0	-85.2	243	5	
2025-08-16T00:00	17200	93	-63.2	-85.2	247	6	
2025-08-16T00:00	17250	92	-63.5	-85.3	256	6	
2025-08-16T00:00	17300	91	-63.7	-85.4	270	6	
2025-08-16T00:00	17350	90	-63.2	-85.4	284	6	
2025-08-16T00:00	17400	90	-62.9	-85.4	301	6	
2025-08-16T00:00	17450	89	-62.7	-85.4	318	6	
2025-08-16T00:00	17500	88	-62.3	-85.3	332	5	
2025-08-16T00:00	17550	88	-61.8	-85.2	344	5	
2025-08-16T00:00	17600	87	-61.8	-85.1	351	5	
2025-08-16T00:00	17650	86	-62.0	-85.2	343	4	
2025-08-16T00:00	17700	85	-62.0	-85.3	317	3	
2025-08-16T00:00	17750	85	-62.1	-85.6	295	3	
2025-08-16T00:00	17800	84	-61.9	-85.8	303	3	
2025-08-16T00:00	17850	83	-60.9	-85.8	311	4	
2025-08-16T00:00	17900	83	-60.6	-85.9	306	4	
2025-08-16T00:00	17950	82	-60.1	-85.8	295	3	
2025-08-16T00:00	18000	81	-60.0	-85.8	288	1	
2025-08-16T00:00	18050	81	-60.2	-85.9	270	0	
2025-08-16T00:00	18100	80	-60.1	-85.9	125	2	
2025-08-16T00:00	18150	80	-59.7	-85.8	129	3	
2025-08-16T00:00	18200	79	-59.8	-85.8	138	4	
2025-08-16T00:00	18250	78	-60.2	-85.9	154	4	
2025-08-16T00:00	18300	78	-60.1	-85.9	169	5	
2025-08-16T00:00	18350	77	-60.0	-85.8	178	5	
2025-08-16T00:00	18400	76	-60.2	-86.0	187	6	
2025-08-16T00:00	18450	76	-60.4	-86.1	201	6	
2025-08-16T00:00	18500	75	-60.4	-86.2	220	6	
2025-08-16T00:00	18550	75	-60.0	-86.2	238	6	
2025-08-16T00:00	18600	74	-59.8	-86.1	250	6	
2025-08-16T00:00	18650	73	-59.9	-86.1	256	6	
2025-08-16T00:00	18700	73	-60.2	-86.1	262	6	
2025-08-16T00:00	18750	72	-60.5	-86.3	274	5	
2025-08-16T00:00	18800	72	-60.1	-86.3	293	4	
2025-08-16T00:00	18850	71	-59.8	-86.3	335	2	
2025-08-16T00:00	18900	70	-59.6	-86.3	29	3	
2025-08-16T00:00	18950	70	-59.6	-86.2	48	3	
2025-08-16T00:00	19000	69	-59.5	-86.3	57	4	
2025-08-16T00:00	19050	69	-59.1	-86.0	66	3	
2025-08-16T00:00	19100	68	-59.2	-86.0	75	3	
2025-08-16T00:00	19150	68	-59.4	-86.0	82	3	
2025-08-16T00:00	19200	67	-59.6	-86.1	94	3	
2025-08-16T00:00	19250	67	-59.4	-86.1	106	3	
2025-08-16T00:00	19300	66	-59.3	-86.2	108	3	
2025-08-16T00:00	19350	66	-59.2	-86.2	102	3	
2025-08-16T00:00	19400	65	-58.9	-86.0	93	2	
2025-08-16T00:00	19450	65	-59.0	-86.0	36	1	
2025-08-16T00:00	19500	64	-59.2	-86.0	322	1	
2025-08-16T00:00	19550	64	-59.3	-86.1	337	3	
2025-08-16T00:00	19600	63	-59.1	-86.1	354	4	
2025-08-16T00:00	19650	63	-59.0	-86.1	4	5	
2025-08-16T00:00	19700	62	-58.9	-86.0	10	6	
2025-08-16T00:00	19750	62	-58.8	-86.0	14	7	
2025-08-16T00:00	19800	61	-58.7	-86.0	17	8	
2025-08-16T00:00	19850	61	-58.7	-85.9	19	8	
2025-08-16T00:00	19900	60	-58.8	-85.9	22	8	
2025-08-16T00:00	19950	60	-59.1	-86.0	29	8	
2025-08-16T00:00	20000	59	-59.1	-86.0	39	7	
2025-08-16T00:00	20050	59	-59.2		52	6	
2025-08-16T00:00	20100	58	-59.2		67	5	
2025-08-16T00:00	20150	58	-59.4		83	4	
2025-08-16T00:00	20200	57	-59.7		93	3	
2025-08-16T00:00	20250	57	-59.6		92	3	
2025-08-16T00:00	20300	56	-59.4		87	2	
2025-08-16T00:00	20350	56	-59.5		66	1	
2025-08-16T00:00	20400	55	-59.3		45	2	
2025-08-16T00:00	20450	55	-58.9		50	3	
2025-08-16T00:00	20500	55	-58.9		64	4	
2025-08-16T00:00	20550	54	-58.8		88	3	
2025-08-16T00:00	20600	54	-58.4		118	3	
2025-08-16T00:00	20650	53	-58.2		138	3	
2025-08-16T00:00	20700	53	-58.4		155	3	
2025-08-16T00:00	20750	52	-58.3		168	2	
2025-08-16T00:00	20800	52	-58.0		155	1	
2025-08-16T00:00	20850	52	-57.9		58	1	
2025-08-16T00:00	20900	51	-57.5		76	1	
2025-08-16T00:00	20950	51	-57.1		102	1	
2025-08-16T00:00	21000	50	-56.8		85	1	
2025-08-16T00:00	21050	50	-56.5		360	1	
2025-08-16T00:00	21100	50	-56.4		344	2	
2025-08-16T00:00	21150	49	-56.7		338	2	
2025-08-16T00:00	21200	49	-57.2		329	2	
2025-08-16T00:00	21250	48	-57.6		329	3	
2025-08-16T00:00	21300	48	-58.1		350	3	
2025-08-16T00:00	21350	48	-58.1		19	3	
2025-08-16T00:00	21400	47	-57.9		41	5	
2025-08-16T00:00	21450	47	-58.2		55	6	
2025-08-16T00:00	21500	47	-58.4		66	7	
2025-08-16T00:00	21550	46	-58.4		77	8	
2025-08-16T00:00	21600	46	-58.5		88	8	
2025-08-16T00:00	21650	46	-58.7		96	8	
2025-08-16T00:00	21700	45	-58.8		102	8	
2025-08-16T00:00	21750	45	-59.1		107	8	
2025-08-16T00:00	21800	44	-59.3		112	7	
2025-08-16T00:00	21850	44	-59.4		119	6	
2025-08-16T00:00	21900	44	-59.5		123	5	
2025-08-16T00:00	21950	43	-59.2		116	5	
2025-08-16T00:00	22000	43	-58.5		107	5	
2025-08-16T00:00	22050	43	-58.6		106	6	
2025-08-16T00:00	22100	42	-58.5		105	5	
2025-08-16T00:00	22150	42	-58.6		97	5	
2025-08-16T00:00	22200	42	-58.1		84	5	
2025-08-16T00:00	22250	41	-57.3		82	5	
2025-08-16T00:00	22300	41	-56.7		86	5	
2025-08-16T00:00	22350	41	-56.6		85	5	
2025-08-16T00:00	22400	40	-56.1		77	5	
2025-08-16T00:00	22450	40	-56.0		71	4	
2025-08-16T00:00	22500	40	-56.0		63	3	
2025-08-16T00:00	22550	39	-55.9		51	3	
2025-08-16T00:00	22600	39	-56.0		37	3	
2025-08-16T00:00	22650	39	-56.1		31	4	
2025-08-16T00:00	22700	39	-56.1		34	5	
2025-08-16T00:00	22750	38	-56.0		40	6	
2025-08-16T00:00	22800	38	-56.1		45	7	
2025-08-16T00:00	22850	38	-56.1		48	8	
2025-08-16T00:00	22900	37	-56.0		52	8	
2025-08-16T00:00	22950	37	-56.0		59	9	
2025-08-16T00:00	23000	37	-56.3		68	10	
2025-08-16T00:00	23050	36	-56.3		74	10	
2025-08-16T00:00	23100	36	-56.1		73	10	
2025-08-16T00:00	23150	36	-55.8		69	10	
2025-08-16T00:00	23200	36	-55.5		70	11	
2025-08-16T00:00	23250	35	-55.2		76	11	
2025-08-16T00:00	23300	35	-54.9		84	11	
2025-08-16T00:00	23350	35	-54.4		88	10	
2025-08-16T00:00	23400	35	-54.4		90	9	
2025-08-16T00:00	23450	34	-54.2		91	8	
2025-08-16T00:00	23500	34	-54.2		90	7	
2025-08-16T00:00	23550	34	-54.1		86	6	
2025-08-16T00:00	23600	33	-54.2		78	6	
2025-08-16T00:00	23650	33	-54.1		74	7	
2025-08-16T00:00	23700	33	-54.0		74	9	
2025-08-16T00:00	23750	33	-54.0		77	10	
2025-08-16T00:00	23800	32	-54.1		81	11	
2025-08-16T00:00	23850	32	-54.4		84	12	
2025-08-16T00:00	23900	32	-54.5		85	12	
2025-08-16T00:00	23950	32	-54.5		82	11	
2025-08-16T00:00	24000	31	-54.5		75	10	
2025-08-16T00:00	24050	31	-54.5		69	10	
2025-08-16T00:00	24100	31	-54.5		67	10	
2025-08-16T00:00	24150	31	-54.6		72	10	
2025-08-16T00:00	24200	30	-54.3		78	11	
2025-08-16T00:00	24250	30	-54.4		83	11	
2025-08-16T00:00	24300	30	-54.6		86	12	
2025-08-16T00:00	24350	30	-54.6		88	11	
2025-08-16T00:00	24400	30	-54.7		88	10	
2025-08-16T00:00	24450	29	-54.5		88	10	
2025-08-16T00:00	24500	29	-54.4		91	9	
2025-08-16T00:00	24550	29	-54.3		95	9	
2025-08-16T00:00	24600	29	-54.0		97	9	
2025-08-16T00:00	24650	28	-53.7		94	8	
2025-08-16T00:00	24700	28	-53.4		90	8	
2025-08-16T00:00	24750	28	-53.1		89	8	
2025-08-16T00:00	24800	28	-52.7		89	8	
2025-08-16T00:00	24850	28	-52.2		85	7	
2025-08-16T00:00	24900	27	-51.7		80	7	
2025-08-16T00:00	24950	27	-51.6		75	7	
2025-08-16T00:00	25000	27	-51.7		71	8	
2025-08-16T00:00	25050	27	-51.9		69	9	
2025-08-16T00:00	25100	26	-52.0		68	10	
2025-08-16T00:00	25150	26	-52.0		72	10	
2025-08-16T00:00	25200	26	-51.7		79	11	
2025-08-16T00:00	25250	26	-51.7		85	11	
2025-08-16T00:00	25300	26	-51.8		89	11	
2025-08-16T00:00	25350	25	-52.0		92	11	
2025-08-16T00:00	25400	25	-52.0		95	10	
2025-08-16T00:00	25450	25	-52.1		97	9	
2025-08-16T00:00	25500	25	-52.0		98	9	
2025-08-16T00:00	25550	25	-51.9		99	10	
2025-08-16T00:00	25600	25	-51.7		102	10	
2025-08-16T00:00	25650	24	-51.4		106	10	
2025-08-16T00:00	25700	24	-51.5		107	11	
2025-08-16T00:00	25750	24	-51.6		105	11	
2025-08-16T00:00	25800	24	-51.7		102	10	
2025-08-16T00:00	25850	24	-51.5		99	9	
2025-08-16T00:00	25900	23	-51.6		98	8	
2025-08-16T00:00	25950	23	-51.4		100	7	
2025-08-16T00:00	26000	23	-51.6		103	6	
2025-08-16T00:00	26050	23	-51.7		101	4	
2025-08-16T00:00	26100	23	-51.5		94	3	
2025-08-16T00:00	26150	23	-50.9		89	3	
2025-08-16T00:00	26200	22	-50.5		87	4	
2025-08-16T00:00	26250	22	-50.5		84	5	
2025-08-16T00:00	26300	22	-50.4		86	6	
2025-08-16T00:00	26350	22	-50.2		93	7	
2025-08-16T00:00	26400	22	-50.0		103	8	
2025-08-16T00:00	26450	22	-50.2		114	7	
2025-08-16T00:00	26500	21	-50.2		124	7	
2025-08-16T00:00	26550	21	-49.7		130	5	
2025-08-16T00:00	26600	21	-49.3		134	4	
2025-08-16T00:00	26650	21	-49.2		133	3	
2025-08-16T00:00	26700	21	-49.3		123	2	
2025-08-16T00:00	26750	21	-49.3		103	2	
2025-08-16T00:00	26800	20	-49.2		87	3	
2025-08-16T00:00	26850	20	-48.9		79	4	
2025-08-16T00:00	26900	20	-48.7		76	5	
2025-08-16T00:00	26950	20	-48.4		74	6	
2025-08-16T00:00	27000	20	-48.2		75	7	
2025-08-16T00:00	27050	20	-48.2		75	7	
2025-08-16T00:00	27100	19	-48.1		73	7	
2025-08-16T00:00	27150	19	-47.9		72	7	
2025-08-16T00:00	27200	19	-47.9		72	6	
2025-08-16T00:00	27250	19	-47.7		75	6	
2025-08-16T00:00	27300	19	-47.4		79	6	
2025-08-16T00:00	27350	19	-47.2		85	6	
2025-08-16T00:00	27400	19	-46.8		90	7	
2025-08-16T00:00	27450	18	-46.8		94	7	
2025-08-16T00:00	27500	18	-46.7		96	8	
2025-08-16T00:00	27550	18	-46.6		96	9	
2025-08-16T00:00	27600	18	-46.5		98	8	
2025-08-16T00:00	27650	18	-46.5		100	7	
2025-08-16T00:00	27700	18	-46.8		102	6	
2025-08-16T00:00	27750	18	-47.1		101	5	
2025-08-16T00:00	27800	18	-47.2		90	3	
2025-08-16T00:00	27850	17	-47.2		62	3	
2025-08-16T00:00	27900	17	-46.9		33	4	
2025-08-16T00:00	27950	17	-46.4		20	5	
2025-08-16T00:00	28000	17	-46.3		19	6	
2025-08-16T00:00	28050	17	-46.1		25	6	
2025-08-16T00:00	28100	17	-45.9		38	5	
2025-08-16T00:00	28150	17	-45.8		53	5	
2025-08-16T00:00	28200	16	-45.6		63	6	
2025-08-16T00:00	28250	16	-45.6		65	6	
2025-08-16T00:00	28300	16	-45.5		62	7	
2025-08-16T00:00	28350	16	-45.5		61	7	
2025-08-16T00:00	28400	16	-45.3		65	7	
2025-08-16T00:00	28450	16	-45.0		74	7	
2025-08-16T00:00	28500	16	-44.8		78	7	
2025-08-16T00:00	28550	16	-44.5		71	6	
2025-08-16T00:00	28600	16	-44.4		57	6	
2025-08-16T00:00	28650	15	-44.2		43	6	
2025-08-16T00:00	28700	15	-43.9		33	6	
2025-08-16T00:00	28750	15	-44.1		24	6	
2025-08-16T00:00	28800	15	-44.2		16	6	
2025-08-16T00:00	28850	15	-44.4		11	7	
2025-08-16T00:00	28900	15	-44.5		11	7	
2025-08-16T00:00	28950	15	-44.5		17	8	
2025-08-16T00:00	29000	15	-44.4		26	9	
2025-08-16T00:00	29050	15	-44.4		35	10	
2025-08-16T00:00	29100	14	-44.3		43	11	
2025-08-16T00:00	29150	14	-44.3		48	11	
2025-08-16T00:00	29200	14	-44.4		51	12	
2025-08-16T00:00	29250	14	-44.5		53	13	
2025-08-16T00:00	29300	14	-44.3		56	14	
2025-08-16T00:00	29350	14	-44.0		60	14	
2025-08-16T00:00	29400	14	-44.2		64	14	
2025-08-16T00:00	29450	14	-44.4		68	14	
2025-08-16T00:00	29500	14	-44.8		74	13	
2025-08-16T00:00	29550	13	-45.1		80	13	
2025-08-16T00:00	29600	13	-45.3		86	12	
2025-08-16T00:00	29650	13	-45.5		90	12	
2025-08-16T00:00	29700	13	-45.6		93	11	
2025-08-16T00:00	29750	13	-45.8		91	10	
2025-08-16T00:00	29800	13	-45.6		85	9	
2025-08-16T00:00	29850	13	-45.5		77	9	
2025-08-16T00:00	29900	13	-45.6		70	8	
2025-08-16T00:00	29950	13	-45.3		66	9	
2025-08-16T00:00	30000	13	-45.0		64	9	
2025-08-16T00:00	30050	13	-44.8		65	10	
2025-08-16T00:00	30100	12	-44.6		66	11	
2025-08-16T00:00	30150	12	-44.3		64	11	
2025-08-16T00:00	30200	12	-44.2		61	11	
2025-08-16T00:00	30250	12	-44.1		59	11	
2025-08-16T00:00	30300	12	-44.1		61	11	
2025-08-16T00:00	30350	12	-44.3		64	11	
2025-08-16T00:00	30400	12	-44.3		69	11	
2025-08-16T00:00	30450	12	-44.2		73	11	
2025-08-16T00:00	30500	12	-44.1		76	11	
2025-08-16T00:00	30550	12	-44.0		78	11	
2025-08-16T00:00	30600	12	-43.9		82	11	
2025-08-16T00:00	30650	11	-43.9		85	10	
2025-08-16T00:00	30700	11	-44.0		84	10	
2025-08-16T00:00	30750	11	-44.0		78	11	
2025-08-16T00:00	30800	11	-43.8		70	11	
2025-08-16T00:00	30850	11	-43.8		62	12	
2025-08-16T00:00	30900	11	-43.9		58	12	
2025-08-16T00:00	30950	11	-44.0		59	13	
2025-08-16T00:00	31000	11	-43.9		65	13	
2025-08-16T00:00	31050	11	-44.0		74	12	
2025-08-16T00:00	31100	11	-44.2		82	12	
2025-08-16T00:00	31150	11	-44.4		88	11	
2025-08-16T00:00	31200	11	-44.4		90	11	
2025-08-16T00:00	31250	10	-44.3		87	10	
2025-08-16T00:00	31300	10	-44.0		79	9	
2025-08-16T00:00	31350	10	-43.4		72	9	
2025-08-16T00:00	31400	10	-43.1		71	9	
2025-08-16T00:00	31450	10	-43.0		76	10	
2025-08-16T00:00	31500	10	-42.9		82	10	
2025-08-16T00:00	31550	10	-42.8		85	9	
2025-08-16T00:00	31600	10	-42.7		83	9	
2025-08-16T00:00	31650	10	-42.1		74	8	
2025-08-16T00:00	31700	10	-41.9		66	9	
2025-08-16T00:00	31750	10	-41.6		60	10	
2025-08-16T00:00	31800	10	-41.6		59	10	
2025-08-16T00:00	31850	10	-41.5		62	11	
2025-08-16T00:00	31900	10	-40.9		68	11	
2025-08-16T00:00	31950	9	-40.5		73	12	
2025-08-16T00:00	32000	9	-40.2		76	12	
2025-08-16T00:00	32050	9	-40.0		79	12	
2025-08-16T00:00	32100	9	-39.7		83	13	
2025-08-16T00:00	32150	9	-39.7		87	14	
2025-08-16T00:00	32200	9	-39.5		90	15	
2025-08-16T00:00	32250	9	-39.1		94	16	
2025-08-16T00:00	32300	9	-39.2		98	16	
2025-08-16T00:00	32350	9	-39.4		103	15	
2025-08-16T00:00	32400	9	-39.5		107	15	
2025-08-16T00:00	32450	9	-39.3		109	14	
2025-08-16T00:00	32500	9	-39.2		109	13	
2025-08-16T00:00	32550	9	-39.1		107	13	
2025-08-16T00:00	32600	9	-39.1		103	13	
2025-08-16T00:00	32650	9	-39.0		100	13	
2025-08-16T00:00	32700	8	-39.1		98	13	
2025-08-16T00:00	32750	8	-39.1		99	13	
2025-08-16T00:00	32800	8	-38.8		101	14	
2025-08-16T00:00	32850	8	-38.6		105	14	
2025-08-16T00:00	32900	8	-38.6		110	13	
2025-08-16T00:00	32950	8	-38.6		114	13	
2025-08-16T00:00	33000	8	-38.7		116	12	
2025-08-16T00:00	33050	8	-38.6		113	11	
2025-08-16T00:00	33100	8	-38.6		106	11	
2025-08-16T00:00	33150	8	-38.4		101	11	
2025-08-16T00:00	33200	8	-38.3		98	12	
2025-08-16T00:00	33250	8	-38.1		99	13	
2025-08-16T00:00	33300	8	-38.2		101	13	
2025-08-16T00:00	33350	8	-38.3		104	13	
2025-08-16T00:00	33400	8	-38.4		107	13	
2025-08-16T00:00	33450	8	-38.5		110	13	
2025-08-16T00:00	33500	8	-38.6		110	12	
2025-08-16T00:00	33550	7	-38.2		107	11	
2025-08-16T00:00	33600	7	-38.3		102	10	
2025-08-16T00:00	33650	7	-38.5		95	10	
2025-08-16T00:00	33700	7	-38.4		87	10	
2025-08-16T00:00	33750	7	-38.3		83	10	
2025-08-16T00:00	33800	7	-38.0		85	11	
2025-08-16T00:00	33850	7	-37.6		89	12	
2025-08-16T00:00	33900	7	-37.7		94	13	
2025-08-16T00:00	33950	7	-37.6		100	13	
2025-08-16T00:00	34000	7	-37.6		104	13	
2025-08-16T00:00	34050	7	-37.5		103	12	
2025-08-16T00:00	34100	7	-37.4		97	12	
2025-08-16T00:00	34150	7	-37.0		87	12	
2025-08-16T00:00	34200	7	-36.8		81	13	
2025-08-16T00:00	34250	7	-36.7		79	14	
2025-08-16T00:00	34300	7	-36.6		81	15	
2025-08-16T00:00	34350	7	-36.6		85	15	
2025-08-16T00:00	34400	7	-36.9		90	15	
2025-08-16T00:00	34450	7	-36.8		95	15	
2025-08-16T00:00	34500	7	-36.4		98	14	
2025-08-16T00:00	34550	6	-36.2		99	13	
2025-08-16T00:00	34600	6	-36.1		96	12	
2025-08-16T00:00	34650	6	-36.0		89	11	
2025-08-16T00:00	34700	6	-35.6		85	11	
2025-08-16T00:00	34750	6	-35.3		87	11	
2025-08-16T00:00	34800	6	-35.1		92	11	
2025-08-16T00:00	34850	6	-34.9		96	10	
2025-08-16T00:00	34900	6	-35.1		97	9	
2025-08-16T00:00	34950	6	-35.3		93	9	
2025-08-16T00:00	35000	6	-35.3		85	8	
2025-08-16T00:00	35050	6	-35.4		74	8	
2025-08-16T00:00	35100	6	-35.4		64	8	
2025-08-16T00:00	35150	6	-35.4		59	9	
2025-08-16T00:00	35200	6	-35.3		56	9	
2025-08-16T00:00	35250	6	-35.4		54	9	
2025-08-16T00:00	35300	6	-35.4		51	10	
2025-08-16T00:00	35350	6	-35.3		48	11	
2025-08-16T00:00	35400	6	-35.1		49	12	
2025-08-16T00:00	35450	6	-35.1		50	13	
2025-08-16T00:00	35500	6	-35.2		52	14	
2025-08-16T00:00	35550	6	-35.1		54	16	
2025-08-16T00:00	35600	6	-35.1		56	16	
2025-08-16T00:00	35650	6	-35.0		58	16	
2025-08-16T00:00	35700	5	-34.8		59	15	
2025-08-16T00:00	35750	5	-34.4		60	14	
2025-08-16T00:00	35800	5	-34.4		62	12	
2025-08-16T00:00	35850	5	-34.7		65	11	
2025-08-16T00:00	35900	5	-34.9		67	10	
2025-08-16T00:00	35950	5	-35.1		63	10	
2025-08-16T00:00	36000	5	-34.8		57	10	
2025-08-16T00:00	36050	5	-34.8		53	10	
2025-08-16T00:00	36100	5	-34.5		49	9	
2025-08-16T00:00	36150	5	-34.4		46	9	
2025-08-16T00:00	36200	5	-33.9		47	10	
2025-08-16T00:00	36250	5	-33.5		51	12	
2025-08-16T00:00	36300	5	-33.3		52	12	
2025-08-16T00:00	36350	5	-33.0		48	10	
2025-08-16T00:00	36400	5	-33.3		43	10	
2025-08-16T00:00	36450	5	-33.7		37	9	
2025-08-16T00:00	36500	5	-34.1		30	8	
2025-08-16T00:00	36550	5	-34.3		22	8	
2025-08-16T00:00	36600	5	-34.6		19	8	
2025-08-16T00:00	36650	5	-34.8		22	9	
2025-08-16T00:00	36700	5	-34.4		29	10	
2025-08-16T00:00	36750	5	-33.8		38	12	
2025-08-16T00:00	36800	5	-33.4		46	13	
2025-08-16T00:00	36850	5	-33.3		52	14	
2025-08-16T00:00	36900	5	-33.3		56	15	
2025-08-16T00:00	36950	5	-32.9		58	15	
2025-08-16T00:00	37000	5	-32.3		63	15	
2025-08-16T00:00	37050	5	-31.6		67	16	
2025-08-16T00:00	37100	4	-31.5		66	15	
2025-08-16T12:00	491	963	29.8	17.6	19	4	
2025-08-16T12:00	501	961	29.0	16.8	11	2	
2025-08-16T12:00	520	959	27.8	16.5	8	2	
2025-08-16T12:00	540	957	27.6	16.2	11	2	
2025-08-16T12:00	560	955	27.4	16.0	13	2	
2025-08-16T12:00	580	953	27.2	16.0	17	2	
2025-08-16T12:00	600	951	27.0	15.9	20	3	
2025-08-16T12:00	620	949	26.8	15.9	21	3	
2025-08-16T12:00	640	947	26.6	16.1	20	3	
2025-08-16T12:00	660	944	26.3	16.1	18	3	
2025-08-16T12:00	680	942	26.1	16.1	15	3	
2025-08-16T12:00	700	940	25.9	16.0	12	2	
2025-08-16T12:00	720	938	25.8	15.9	9	2	
2025-08-16T12:00	740	936	25.6	15.8	8	2	
2025-08-16T12:00	760	934	25.4	15.8	9	1	
2025-08-16T12:00	780	932	25.2	15.7	17	1	
2025-08-16T12:00	800	930	25.0	15.7	34	1	
2025-08-16T12:00	820	927	24.8	15.7	57	1	
2025-08-16T12:00	840	925	24.6	15.6	73	1	
2025-08-16T12:00	860	923	24.4	15.6	82	2	
2025-08-16T12:00	880	921	24.2	15.5	86	2	
2025-08-16T12:00	900	919	24.1	15.2	86	2	
2025-08-16T12:00	920	917	23.9	15.2	80	2	
2025-08-16T12:00	940	915	23.7	15.4	69	2	
2025-08-16T12:00	960	913	23.5	15.4	55	2	
2025-08-16T12:00	980	911	23.4	15.2	40	2	
2025-08-16T12:00	1000	908	23.2	15.2	28	2	
2025-08-16T12:00	1020	907	23.0	15.5	21	2	
2025-08-16T12:00	1040	904	22.8	15.4	16	2	
2025-08-16T12:00	1060	902	22.5	15.4	13	2	
2025-08-16T12:00	1080	900	22.4	15.3	11	2	
2025-08-16T12:00	1100	898	22.2	15.3	12	2	
2025-08-16T12:00	1120	896	22.0	15.3	14	2	
2025-08-16T12:00	1140	894	21.8	15.3	16	1	
2025-08-16T12:00	1160	892	21.7	15.2	17	2	
2025-08-16T12:00	1180	890	21.5	15.1	16	2	
2025-08-16T12:00	1200	888	21.3	15.0	14	2	
2025-08-16T12:00	1220	886	21.1	15.1	12	2	
2025-08-16T12:00	1240	884	20.9	15.0	8	2	
2025-08-16T12:00	1260	882	20.8	14.8	4	1	
2025-08-16T12:00	1280	880	20.7	14.4	359	1	
2025-08-16T12:00	1300	878	20.6	14.1	357	1	
2025-08-16T12:00	1320	876	20.5	13.6	0	1	
2025-08-16T12:00	1340	874	20.4	13.4	8	1	
2025-08-16T12:00	1360	872	20.2	13.6	16	2	
2025-08-16T12:00	1380	870	20.1	13.4	23	2	
2025-08-16T12:00	1400	868	19.9	13.4	28	2	
2025-08-16T12:00	1420	866	19.7	13.4	32	3	
2025-08-16T12:00	1440	864	19.6	13.2	34	3	
2025-08-16T12:00	1460	862	19.4	13.1	35	3	
2025-08-16T12:00	1480	860	19.2	13.1	35	3	
2025-08-16T12:00	1500	858	19.1	13.0	35	2	
2025-08-16T12:00	1520	856	18.9	13.0	35	2	
2025-08-16T12:00	1540	854	18.7	12.9	35	2	
2025-08-16T12:00	1560	851	18.5	12.8	35	2	
2025-08-16T12:00	1580	850	18.3	12.8	36	2	
2025-08-16T12:00	1600	848	18.1	12.7	38	2	
2025-08-16T12:00	1620	846	17.9	12.7	40	2	
2025-08-16T12:00	1640	844	17.8	12.7	42	2	
2025-08-16T12:00	1660	842	17.6	12.5	45	2	
2025-08-16T12:00	1680	840	17.4	12.5	50	2	
2025-08-16T12:00	1700	838	17.2	12.5	55	2	
2025-08-16T12:00	1720	836	17.0	12.4	59	2	
2025-08-16T12:00	1740	834	16.9	12.1	62	2	
2025-08-16T12:00	1760	832	16.7	12.0	66	2	
2025-08-16T12:00	1780	830	16.5	11.9	69	2	
2025-08-16T12:00	1800	828	16.4	11.7	71	2	
2025-08-16T12:00	1820	826	16.2	11.5	76	2	
2025-08-16T12:00	1840	824	16.1	11.2	80	2	
2025-08-16T12:00	1860	822	15.9	11.1	85	2	
2025-08-16T12:00	1880	820	15.7	11.2	87	2	
2025-08-16T12:00	1900	819	15.5	11.2	90	2	
2025-08-16T12:00	1920	817	15.4	11.0	90	2	
2025-08-16T12:00	1940	815	15.2	10.9	92	2	
2025-08-16T12:00	1960	813	15.0	10.8	94	2	
2025-08-16T12:00	1980	811	14.9	10.6	100	1	
2025-08-16T12:00	2000	809	14.8	10.1	109	1	
2025-08-16T12:00	2020	807	14.7	9.2	119	1	
2025-08-16T12:00	2040	805	14.6	8.9	131	1	
2025-08-16T12:00	2060	803	14.5	9.0	141	1	
2025-08-16T12:00	2080	801	14.4	8.5	151	0	
2025-08-16T12:00	2100	799	14.3	8.2	281	0	
2025-08-16T12:00	2120	797	14.2	8.1	315	0	
2025-08-16T12:00	2140	796	14.1	8.0	317	1	
2025-08-16T12:00	2160	794	13.9	7.6	315	1	
2025-08-16T12:00	2180	792	13.8	7.2	313	2	
2025-08-16T12:00	2200	790	13.7	6.6	311	2	
2025-08-16T12:00	2220	788	13.7	5.7	309	2	
2025-08-16T12:00	2240	786	13.5	5.5	308	2	
2025-08-16T12:00	2260	784	13.3	5.4	308	2	
2025-08-16T12:00	2280	783	13.2	5.0	309	3	
2025-08-16T12:00	2300	781	13.0	4.9	309	3	
2025-08-16T12:00	2320	779	12.9	4.6	309	3	
2025-08-16T12:00	2340	777	12.8	4.2	308	3	
2025-08-16T12:00	2360	775	12.6	4.1	307	3	
2025-08-16T12:00	2380	773	12.4	4.2	306	3	
2025-08-16T12:00	2400	771	12.3	4.0	304	3	
2025-08-16T12:00	2420	770	12.1	3.8	302	3	
2025-08-16T12:00	2440	768	11.9	3.8	299	2	
2025-08-16T12:00	2460	766	11.7	3.7	293	2	
2025-08-16T12:00	2480	764	11.6	3.5	286	2	
2025-08-16T12:00	2500	762	11.4	3.5	280	1	
2025-08-16T12:00	2520	760	11.2	3.4	277	1	
2025-08-16T12:00	2540	759	11.0	3.3	278	1	
2025-08-16T12:00	2560	757	10.9	2.9	281	1	
2025-08-16T12:00	2580	755	10.8	2.3	283	1	
2025-08-16T12:00	2600	753	10.6	1.8	282	1	
2025-08-16T12:00	2620	751	10.5	1.6	281	2	
2025-08-16T12:00	2640	750	10.4	1.2	281	2	
2025-08-16T12:00	2660	748	10.3	1.0	283	2	
2025-08-16T12:00	2680	746	10.2	1.7	286	2	
2025-08-16T12:00	2700	744	10.0	2.0	288	2	
2025-08-16T12:00	2720	742	9.8	3.1	288	2	
2025-08-16T12:00	2740	741	9.6	2.9	285	3	
2025-08-16T12:00	2760	739	9.5	3.1	283	3	
2025-08-16T12:00	2780	737	9.3	3.1	281	3	
2025-08-16T12:00	2800	735	9.1	3.1	280	3	
2025-08-16T12:00	2820	734	8.9	2.9	280	3	
2025-08-16T12:00	2840	732	8.8	2.7	282	3	
2025-08-16T12:00	2860	730	8.6	2.4	284	2	
2025-08-16T12:00	2880	728	8.5	2.2	287	2	
2025-08-16T12:00	2900	726	8.3	2.3	287	1	
2025-08-16T12:00	2920	725	8.2	1.7	283	1	
2025-08-16T12:00	2940	723	8.0	1.5	276	1	
2025-08-16T12:00	2960	721	7.9	1.6	267	1	
2025-08-16T12:00	2980	720	7.8	1.0	260	2	
2025-08-16T12:00	3000	718	7.6	0.6	256	2	
2025-08-16T12:00	3020	716	7.5	0.1	254	2	
2025-08-16T12:00	3040	714	7.4	-1.0	255	2	
2025-08-16T12:00	3060	712	7.3	-2.1	259	2	
2025-08-16T12:00	3080	711	7.3	-2.3	265	2	
2025-08-16T12:00	3100	709	7.1	-2.5	273	2	
2025-08-16T12:00	3120	707	6.9	-2.3	282	2	
2025-08-16T12:00	3140	706	6.7	-2.2	291	2	
2025-08-16T12:00	3160	704	6.5	-1.9	296	2	
2025-08-16T12:00	3180	702	6.3	-1.7	299	2	
2025-08-16T12:00	3200	700	6.1	-1.6	300	2	
2025-08-16T12:00	3220	699	6.0	-1.6	298	2	
2025-08-16T12:00	3240	697	5.8	-1.6	294	2	
2025-08-16T12:00	3260	695	5.6	-1.6	291	2	
2025-08-16T12:00	3280	694	5.4	-1.6	289	3	
2025-08-16T12:00	3300	692	5.2	-1.7	291	3	
2025-08-16T12:00	3320	690	5.0	-1.7	296	3	
2025-08-16T12:00	3340	689	4.8	-1.6	305	3	
2025-08-16T12:00	3360	687	4.7	-1.6	315	4	
2025-08-16T12:00	3380	685	4.6	-1.7	325	4	
2025-08-16T12:00	3400	684	4.6	-2.1	331	5	
2025-08-16T12:00	3420	682	4.6	-2.4	334	5	
2025-08-16T12:00	3440	680	4.5	-3.1	335	5	
2025-08-16T12:00	3460	679	4.4	-4.0	335	5	
2025-08-16T12:00	3480	677	4.4	-4.9	333	5	
2025-08-16T12:00	3500	675	4.3	-6.8	331	5	
2025-08-16T12:00	3520	674	4.4	-9.4	330	5	
2025-08-16T12:00	3540	672	4.4	-10.9	330	5	
2025-08-16T12:00	3560	670	4.4	-11.5	332	5	
2025-08-16T12:00	3580	669	4.3	-12.3	334	5	
2025-08-16T12:00	3600	667	4.2	-13.6	337	5	
2025-08-16T12:00	3620	665	4.1	-15.1	338	6	
2025-08-16T12:00	3640	664	4.0	-16.0	341	6	
2025-08-16T12:00	3660	662	3.8	-14.9	342	6	
2025-08-16T12:00	3680	660	3.6	-9.3	343	7	
2025-08-16T12:00	3700	659	3.5	-4.1	343	7	
2025-08-16T12:00	3720	657	3.4	-4.1	343	8	
2025-08-16T12:00	3740	655	3.3	-4.4	343	8	
2025-08-16T12:00	3760	654	3.2	-4.7	343	8	
2025-08-16T12:00	3780	652	3.1	-4.2	343	8	
2025-08-16T12:00	3800	651	2.9	-3.9	343	8	
2025-08-16T12:00	3820	649	2.8	-3.8	343	8	
2025-08-16T12:00	3840	648	2.7	-4.0	342	9	
2025-08-16T12:00	3860	646	2.6	-4.0	340	9	
2025-08-16T12:00	3880	644	2.5	-4.0	339	10	
2025-08-16T12:00	3900	643	2.3	-4.0	339	10	
2025-08-16T12:00	3920	641	2.1	-4.1	338	10	
2025-08-16T12:00	3940	640	2.0	-4.1	338	10	
2025-08-16T12:00	3960	638	1.8	-4.1	338	11	
2025-08-16T12:00	3980	636	1.7	-4.3	338	11	
2025-08-16T12:00	4000	635	1.5	-4.3	339	10	
2025-08-16T12:00	4020	633	1.3	-4.5	341	10	
2025-08-16T12:00	4040	632	1.2	-5.2	342	10	
2025-08-16T12:00	4060	630	1.0	-5.5	343	9	
2025-08-16T12:00	4080	629	0.9	-5.8	343	9	
2025-08-16T12:00	4100	627	0.9	-6.8	343	9	
2025-08-16T12:00	4120	625	0.7	-7.1	342	9	
2025-08-16T12:00	4140	624	0.5	-7.1	340	8	
2025-08-16T12:00	4160	622	0.3	-6.8	339	8	
2025-08-16T12:00	4180	621	0.1	-7.7	338	9	
2025-08-16T12:00	4200	619	0.0	-8.1	338	9	
2025-08-16T12:00	4220	618	-0.2	-7.9	336	9	
2025-08-16T12:00	4240	616	-0.4	-7.7	335	9	
2025-08-16T12:00	4260	615	-0.5	-9.0	334	9	
2025-08-16T12:00	4280	613	-0.5	-10.0	332	9	
2025-08-16T12:00	4300	612	-0.6	-9.8	331	9	
2025-08-16T12:00	4320	610	-0.8	-10.0	330	9	
2025-08-16T12:00	4340	608	-0.9	-10.0	330	9	
2025-08-16T12:00	4360	607	-1.0	-10.1	331	9	
2025-08-16T12:00	4380	605	-1.2	-10.4	331	9	
2025-08-16T12:00	4400	604	-1.4	-10.4	332	9	
2025-08-16T12:00	4420	602	-1.5	-10.7	334	9	
2025-08-16T12:00	4440	601	-1.6	-10.8	335	9	
2025-08-16T12:00	4460	599	-1.8	-11.1	335	10	
2025-08-16T12:00	4480	598	-2.0	-11.2	335	10	
2025-08-16T12:00	4500	596	-2.2	-11.4	334	9	
2025-08-16T12:00	4520	595	-2.4	-11.6	333	10	
2025-08-16T12:00	4540	594	-2.6	-11.4	332	10	
2025-08-16T12:00	4560	592	-2.8	-11.3	331	10	
2025-08-16T12:00	4580	590	-2.9	-11.3	330	10	
2025-08-16T12:00	4600	589	-3.1	-11.3	329	10	
2025-08-16T12:00	4620	588	-3.2	-11.4	328	10	
2025-08-16T12:00	4640	586	-3.4	-11.6	329	10	
2025-08-16T12:00	4660	584	-3.6	-11.4	329	10	
2025-08-16T12:00	4680	583	-3.8	-11.2	330	11	
2025-08-16T12:00	4700	581	-3.9	-11.1	330	11	
2025-08-16T12:00	4720	580	-4.0	-10.9	330	11	
2025-08-16T12:00	4740	579	-4.0	-11.2	329	12	
2025-08-16T12:00	4760	577	-4.1	-11.8	329	12	
2025-08-16T12:00	4780	576	-4.2	-12.4	328	12	
2025-08-16T12:00	4800	574	-4.1	-13.7	327	13	
2025-08-16T12:00	4820	573	-4.2	-13.8	328	13	
2025-08-16T12:00	4840	571	-4.3	-14.3	328	13	
2025-08-16T12:00	4860	570	-4.4	-15.0	330	13	
2025-08-16T12:00	4880	568	-4.6	-15.0	332	13	
2025-08-16T12:00	4900	567	-4.8	-15.0	334	12	
2025-08-16T12:00	4920	566	-5.0	-15.1	336	12	
2025-08-16T12:00	4940	564	-5.2	-15.7	338	12	
2025-08-16T12:00	4960	563	-5.2	-16.9	340	11	
2025-08-16T12:00	4980	561	-5.3	-16.6	342	11	
2025-08-16T12:00	5000	560	-5.5	-16.7	342	11	
2025-08-16T12:00	5020	558	-5.5	-16.6	341	11	
2025-08-16T12:00	5040	557	-5.7	-16.8	340	11	
2025-08-16T12:00	5060	556	-5.9	-16.7	339	12	
2025-08-16T12:00	5080	554	-5.9	-16.3	339	12	
2025-08-16T12:00	5100	553	-5.6	-17.2	339	13	
2025-08-16T12:00	5120	551	-5.6	-17.9	339	13	
2025-08-16T12:00	5140	550	-5.7	-18.1	340	13	
2025-08-16T12:00	5160	548	-5.8	-18.8	341	13	
2025-08-16T12:00	5180	547	-6.0	-19.4	342	13	
2025-08-16T12:00	5200	546	-6.1	-19.7	344	13	
2025-08-16T12:00	5220	544	-6.3	-20.1	345	13	
2025-08-16T12:00	5240	543	-6.4	-20.4	346	13	
2025-08-16T12:00	5260	542	-6.5	-20.6	347	14	
2025-08-16T12:00	5280	540	-6.6	-20.8	347	14	
2025-08-16T12:00	5300	539	-6.8	-20.8	347	13	
2025-08-16T12:00	5320	537	-6.9	-21.0	347	13	
2025-08-16T12:00	5340	536	-7.1	-21.1	346	13	
2025-08-16T12:00	5360	535	-7.2	-21.4	345	13	
2025-08-16T12:00	5380	533	-7.4	-21.5	343	13	
2025-08-16T12:00	5400	532	-7.6	-21.3	342	13	
2025-08-16T12:00	5420	530	-7.8	-21.6	342	13	
2025-08-16T12:00	5440	529	-7.9	-23.0	341	13	
2025-08-16T12:00	5460	528	-8.0	-23.7	341	13	
2025-08-16T12:00	5480	526	-8.1	-23.7	341	14	
2025-08-16T12:00	5500	525	-8.3	-23.8	342	14	
2025-08-16T12:00	5520	524	-8.5	-23.8	342	14	
2025-08-16T12:00	5540	522	-8.6	-23.5	343	14	
2025-08-16T12:00	5560	521	-8.8	-23.4	343	14	
2025-08-16T12:00	5580	520	-8.9	-23.8	344	14	
2025-08-16T12:00	5600	518	-9.0	-24.6	344	14	
2025-08-16T12:00	5620	517	-9.0	-25.2	345	15	
2025-08-16T12:00	5640	516	-9.1	-24.6	345	15	
2025-08-16T12:00	5660	514	-9.2	-24.6	346	15	
2025-08-16T12:00	5680	513	-9.4	-24.3	346	15	
2025-08-16T12:00	5700	512	-9.4	-24.2	346	15	
2025-08-16T12:00	5720	510	-9.5	-24.1	346	15	
2025-08-16T12:00	5740	509	-9.7	-24.3	346	15	
2025-08-16T12:00	5760	508	-9.8	-24.6	346	14	
2025-08-16T12:00	5780	507	-10.0	-24.6	346	14	
2025-08-16T12:00	5800	505	-10.2	-24.7	346	13	
2025-08-16T12:00	5820	504	-10.4	-24.8	346	13	
2025-08-16T12:00	5840	502	-10.6	-25.5	347	13	
2025-08-16T12:00	5860	501	-10.7	-26.0	346	13	
2025-08-16T12:00	5880	500	-10.8	-26.4	346	13	
2025-08-16T12:00	5900	499	-11.0	-26.5	344	13	
2025-08-16T12:00	5920	497	-11.1	-26.7	344	13	
2025-08-16T12:00	5940	496	-11.2	-27.1	343	13	
2025-08-16T12:00	5960	495	-11.4	-27.2	343	13	
2025-08-16T12:00	5980	493	-11.5	-26.6	343	13	
2025-08-16T12:00	6000	492	-11.7	-26.4	342	14	
2025-08-16T12:00	6020	491	-11.9	-26.3	342	14	
2025-08-16T12:00	6040	489	-12.1	-26.5	342	15	
2025-08-16T12:00	6060	488	-12.3	-27.4	342	15	
2025-08-16T12:00	6080	487	-12.4	-28.3	343	16	
2025-08-16T12:00	6100	486	-12.4	-28.6	343	16	
2025-08-16T12:00	6120	484	-12.5	-28.4	343	16	
2025-08-16T12:00	6140	483	-12.6	-28.9	343	16	
2025-08-16T12:00	6160	482	-12.7	-29.3	343	17	
2025-08-16T12:00	6180	481	-12.8	-29.0	343	17	
2025-08-16T12:00	6200	479	-12.8	-29.7	343	17	
2025-08-16T12:00	6220	478	-12.8	-30.4	342	17	
2025-08-16T12:00	6240	477	-13.0	-30.3	342	18	
2025-08-16T12:00	6260	476	-13.1	-30.6	342	18	
2025-08-16T12:00	6280	474	-13.2	-31.0	342	18	
2025-08-16T12:00	6300	473	-13.3	-31.2	342	18	
2025-08-16T12:00	6320	472	-13.4	-31.4	342	18	
2025-08-16T12:00	6340	471	-13.4	-31.5	342	18	
2025-08-16T12:00	6360	469	-13.4	-35.4	342	18	
2025-08-16T12:00	6380	468	-13.5	-35.2	343	18	
2025-08-16T12:00	6400	467	-13.7	-32.9	343	18	
2025-08-16T12:00	6420	466	-13.8	-33.3	342	17	
2025-08-16T12:00	6440	465	-13.9	-35.2	342	18	
2025-08-16T12:00	6460	463	-14.1	-35.1	341	18	
2025-08-16T12:00	6480	462	-14.2	-34.6	340	18	
2025-08-16T12:00	6500	461	-14.3	-33.1	339	18	
2025-08-16T12:00	6520	460	-14.5	-33.1	338	18	
2025-08-16T12:00	6540	458	-14.7	-33.4	338	18	
2025-08-16T12:00	6560	457	-14.9	-33.7	338	18	
2025-08-16T12:00	6580	456	-15.1	-33.9	338	18	
2025-08-16T12:00	6600	455	-15.2	-34.1	338	18	
2025-08-16T12:00	6620	454	-15.4	-34.2	339	17	
2025-08-16T12:00	6640	452	-15.6	-34.4	339	17	
2025-08-16T12:00	6660	451	-15.7	-34.9	339	17	
2025-08-16T12:00	6680	450	-15.8	-35.8	339	17	
2025-08-16T12:00	6700	449	-15.9	-36.6	339	17	
2025-08-16T12:00	6720	448	-16.1	-37.3	339	18	
2025-08-16T12:00	6740	446	-16.2	-38.0	339	17	
2025-08-16T12:00	6760	445	-16.3	-38.3	338	18	
2025-08-16T12:00	6780	444	-16.5	-38.6	337	17	
2025-08-16T12:00	6800	443	-16.6	-38.7	336	17	
2025-08-16T12:00	6820	442	-16.7	-39.0	335	17	
2025-08-16T12:00	6840	441	-16.9	-39.7	334	17	
2025-08-16T12:00	6860	439	-17.0	-40.1	334	17	
2025-08-16T12:00	6880	438	-17.2	-39.9	334	18	
2025-08-16T12:00	6900	437	-17.3	-40.2	334	18	
2025-08-16T12:00	6920	436	-17.5	-40.8	334	18	
2025-08-16T12:00	6940	435	-17.7	-41.2	335	18	
2025-08-16T12:00	6960	433	-17.8	-41.2	335	18	
2025-08-16T12:00	6980	432	-18.0	-41.2	334	18	
2025-08-16T12:00	7000	431	-18.1	-41.3	334	18	
2025-08-16T12:00	7020	430	-18.3	-40.8	334	18	
2025-08-16T12:00	7040	429	-18.5	-37.8	333	18	
2025-08-16T12:00	7060	428	-18.7	-36.4	332	18	
2025-08-16T12:00	7080	427	-18.9	-35.1	331	18	
2025-08-16T12:00	7100	426	-19.1	-35.6	331	18	
2025-08-16T12:00	7120	424	-19.2	-37.4	330	17	
2025-08-16T12:00	7140	423	-19.4	-37.0	329	17	
2025-08-16T12:00	7160	422	-19.6	-37.2	329	17	
2025-08-16T12:00	7180	421	-19.8	-36.4	330	17	
2025-08-16T12:00	7200	420	-19.9	-37.1	331	17	
2025-08-16T12:00	7220	419	-20.2	-37.0	332	17	
2025-08-16T12:00	7240	418	-20.2	-37.5	334	17	
2025-08-16T12:00	7260	416	-20.2	-39.6	337	17	
2025-08-16T12:00	7280	415	-20.3	-43.0	340	17	
2025-08-16T12:00	7300	414	-20.4	-41.6	342	17	
2025-08-16T12:00	7320	413	-20.3	-46.1	342	17	
2025-08-16T12:00	7340	412	-20.4	-40.6	342	17	
2025-08-16T12:00	7360	411	-20.6	-40.3	341	17	
2025-08-16T12:00	7380	410	-20.7	-40.1	340	17	
2025-08-16T12:00	7400	409	-20.9	-40.2	340	17	
2025-08-16T12:00	7420	408	-21.0	-40.3	339	17	
2025-08-16T12:00	7440	406	-21.2	-40.7	339	17	
2025-08-16T12:00	7460	405	-21.4	-41.0	338	17	
2025-08-16T12:00	7480	404	-21.5	-41.5	338	17	
2025-08-16T12:00	7500	403	-21.7	-41.8	338	17	
2025-08-16T12:00	7520	402	-21.9	-42.0	338	16	
2025-08-16T12:00	7540	401	-22.0	-41.9	338	16	
2025-08-16T12:00	7560	400	-22.2	-42.3	338	16	
2025-08-16T12:00	7580	399	-22.3	-42.3	338	15	
2025-08-16T12:00	7600	398	-22.5	-42.1	337	15	
2025-08-16T12:00	7620	396	-22.6	-42.5	337	15	
2025-08-16T12:00	7640	395	-22.8	-42.9	337	15	
2025-08-16T12:00	7660	394	-22.9	-42.8	337	14	
2025-08-16T12:00	7680	393	-23.1	-42.8	338	14	
2025-08-16T12:00	7700	392	-23.2	-43.6	338	14	
2025-08-16T12:00	7720	391	-23.4	-43.9	339	14	
2025-08-16T12:00	7740	390	-23.6	-43.5	340	14	
2025-08-16T12:00	7760	389	-23.7	-44.1	340	14	
2025-08-16T12:00	7780	388	-23.9	-44.3	341	14	
2025-08-16T12:00	7800	387	-24.1	-44.4	341	15	
2025-08-16T12:00	7820	386	-24.3	-44.1	342	15	
2025-08-16T12:00	7840	385	-24.5	-43.9	341	15	
2025-08-16T12:00	7860	384	-24.7	-43.9	341	15	
2025-08-16T12:00	7880	383	-24.8	-43.8	341	15	
2025-08-16T12:00	7900	382	-25.0	-43.9	341	15	
2025-08-16T12:00	7920	381	-25.2	-43.9	340	15	
2025-08-16T12:00	7940	379	-25.4	-44.0	340	15	
2025-08-16T12:00	7960	378	-25.6	-44.1	340	15	
2025-08-16T12:00	7980	377	-25.8	-44.1	340	15	
2025-08-16T12:00	8000	376	-25.9	-44.5	340	15	
2025-08-16T12:00	8020	375	-26.1	-44.7	340	15	
2025-08-16T12:00	8040	374	-26.2	-45.0	340	15	
2025-08-16T12:00	8060	373	-26.4	-45.3	340	16	
2025-08-16T12:00	8080	372	-26.6	-45.4	341	16	
2025-08-16T12:00	8100	371	-26.8	-45.9	341	16	
2025-08-16T12:00	8120	370	-27.0	-48.0	341	17	
2025-08-16T12:00	8140	369	-27.1	-50.7	342	17	
2025-08-16T12:00	8160	368	-27.2	-50.8	342	18	
2025-08-16T12:00	8180	367	-27.3	-50.6	342	18	
2025-08-16T12:00	8200	366	-27.5	-50.3	341	18	
2025-08-16T12:00	8220	365	-27.7	-49.9	341	18	
2025-08-16T12:00	8240	364	-27.8	-49.5	340	17	
2025-08-16T12:00	8260	363	-27.9	-49.2	339	17	
2025-08-16T12:00	8280	362	-28.0	-49.6	339	17	
2025-08-16T12:00	8300	361	-28.1	-49.8	338	17	
2025-08-16T12:00	8320	360	-28.2	-49.9	337	17	
2025-08-16T12:00	8340	359	-28.4	-48.8	336	17	
2025-08-16T12:00	8360	358	-28.5	-46.0	336	17	
2025-08-16T12:00	8380	357	-28.7	-45.7	336	17	
2025-08-16T12:00	8400	356	-28.8	-46.3	336	17	
2025-08-16T12:00	8420	355	-28.9	-46.3	336	17	
2025-08-16T12:00	8440	354	-29.1	-46.0	336	17	
2025-08-16T12:00	8460	353	-29.2	-46.0	336	17	
2025-08-16T12:00	8480	352	-29.4	-45.4	336	17	
2025-08-16T12:00	8500	351	-29.6	-44.9	336	17	
2025-08-16T12:00	8520	350	-29.7	-44.8	336	17	
2025-08-16T12:00	8540	349	-29.8	-44.7	335	17	
2025-08-16T12:00	8560	348	-30.0	-44.3	335	17	
2025-08-16T12:00	8580	347	-30.1	-44.2	334	18	
2025-08-16T12:00	8600	346	-30.3	-44.2	333	18	
2025-08-16T12:00	8620	345	-30.5	-43.8	332	18	
2025-08-16T12:00	8640	344	-30.7	-43.6	331	18	
2025-08-16T12:00	8660	343	-30.9	-43.7	330	19	
2025-08-16T12:00	8680	342	-31.1	-43.7	329	19	
2025-08-16T12:00	8700	341	-31.3	-43.6	328	19	
2025-08-16T12:00	8720	340	-31.5	-43.5	327	19	
2025-08-16T12:00	8740	339	-31.7	-43.4	326	19	
2025-08-16T12:00	8760	338	-31.8	-43.1	326	19	
2025-08-16T12:00	8780	338	-31.9	-43.0	326	20	
2025-08-16T12:00	8800	337	-32.1	-43.0	326	20	
2025-08-16T12:00	8820	336	-32.3	-43.0	326	20	
2025-08-16T12:00	8840	335	-32.5	-43.0	326	20	
2025-08-16T12:00	8860	334	-32.7	-42.8	327	20	
2025-08-16T12:00	8880	333	-32.9	-42.9	327	20	
2025-08-16T12:00	8900	332	-33.1	-42.8	328	19	
2025-08-16T12:00	8920	331	-33.2	-43.0	328	19	
2025-08-16T12:00	8940	330	-33.4	-42.9	328	19	
2025-08-16T12:00	8960	329	-33.6	-42.8	329	19	
2025-08-16T12:00	8980	328	-33.8	-42.8	329	19	
2025-08-16T12:00	9000	327	-34.0	-42.8	330	20	
2025-08-16T12:00	9020	326	-34.2	-42.9	330	20	
2025-08-16T12:00	9040	325	-34.3	-42.9	331	20	
2025-08-16T12:00	9060	324	-34.5	-43.0	331	20	
2025-08-16T12:00	9080	323	-34.6	-43.2	331	20	
2025-08-16T12:00	9100	322	-34.8	-43.1	331	19	
2025-08-16T12:00	9120	321	-35.0	-43.1	331	19	
2025-08-16T12:00	9140	321	-35.2	-43.1	330	19	
2025-08-16T12:00	9160	320	-35.3	-43.2	330	19	
2025-08-16T12:00	9180	319	-35.5	-43.6	329	19	
2025-08-16T12:00	9200	318	-35.7	-44.0	328	19	
2025-08-16T12:00	9220	317	-35.8	-43.9	328	18	
2025-08-16T12:00	9240	316	-36.0	-43.9	327	18	
2025-08-16T12:00	9260	315	-36.2	-44.0	326	18	
2025-08-16T12:00	9280	314	-36.3	-44.3	326	18	
2025-08-16T12:00	9300	313	-36.5	-44.6	325	18	
2025-08-16T12:00	9320	312	-36.7	-44.6	324	18	
2025-08-16T12:00	9340	311	-36.8	-44.8	323	18	
2025-08-16T12:00	9360	311	-37.0	-45.2	323	18	
2025-08-16T12:00	9380	310	-37.1	-45.6	323	18	
2025-08-16T12:00	9400	309	-37.3	-45.7	323	18	
2025-08-16T12:00	9420	308	-37.4	-45.7	324	18	
2025-08-16T12:00	9440	307	-37.6	-45.8	324	18	
2025-08-16T12:00	9460	306	-37.8	-45.9	325	18	
2025-08-16T12:00	9480	305	-38.0	-46.1	325	19	
2025-08-16T12:00	9500	304	-38.2	-46.3	325	19	
2025-08-16T12:00	9520	304	-38.3	-46.2	325	19	
2025-08-16T12:00	9540	303	-38.5	-46.0	325	19	
2025-08-16T12:00	9560	302	-38.7	-46.2	325	19	
2025-08-16T12:00	9580	301	-38.9	-46.2	325	19	
2025-08-16T12:00	9600	300	-39.0	-46.2	324	18	
2025-08-16T12:00	9620	299	-39.2	-46.2	324	18	
2025-08-16T12:00	9640	298	-39.3	-46.5	324	18	
2025-08-16T12:00	9660	297	-39.4	-47.0	323	18	
2025-08-16T12:00	9680	296	-39.6	-47.2	323	18	
2025-08-16T12:00	9700	296	-39.8	-47.2	323	18	
2025-08-16T12:00	9720	295	-40.0	-47.4	322	18	
2025-08-16T12:00	9740	294	-40.1	-47.6	322	18	
2025-08-16T12:00	9760	293	-40.3	-47.5	322	18	
2025-08-16T12:00	9780	292	-40.5	-48.1	322	17	
2025-08-16T12:00	9800	291	-40.6	-48.6	322	17	
2025-08-16T12:00	9820	290	-40.8	-49.1	322	17	
2025-08-16T12:00	9840	290	-41.0	-49.5	322	17	
2025-08-16T12:00	9860	289	-41.2	-49.4	322	17	
2025-08-16T12:00	9880	288	-41.4	-49.3	322	17	
2025-08-16T12:00	9900	287	-41.6	-49.2	322	17	
2025-08-16T12:00	9920	286	-41.8	-49.0	322	17	
2025-08-16T12:00	9940	285	-41.9	-49.0	322	17	
2025-08-16T12:00	9960	285	-42.1	-49.1	322	17	
2025-08-16T12:00	9980	284	-42.3	-49.6	322	17	
2025-08-16T12:00	10000	283	-42.4	-50.6	322	17	
2025-08-16T12:00	10018	282	-42.6	-51.0	322	17	
2025-08-16T12:00	10050	281	-42.9	-51.1	323	17	
2025-08-16T12:00	10100	279	-43.3	-51.3	324	17	
2025-08-16T12:00	10150	277	-43.7	-51.5	324	17	
2025-08-16T12:00	10200	275	-44.2	-51.6	325	17	
2025-08-16T12:00	10250	273	-44.6	-52.4	324	17	
2025-08-16T12:00	10300	271	-45.0	-52.9	323	16	
2025-08-16T12:00	10350	268	-45.5	-52.4	323	16	
2025-08-16T12:00	10400	266	-45.9	-52.4	323	17	
2025-08-16T12:00	10450	265	-46.3	-53.0	324	17	
2025-08-16T12:00	10500	263	-46.8	-53.3	324	16	
2025-08-16T12:00	10550	261	-47.2	-53.5	323	16	
2025-08-16T12:00	10600	259	-47.6	-54.5	322	16	
2025-08-16T12:00	10650	257	-47.9	-55.0	322	16	
2025-08-16T12:00	10700	255	-48.3	-55.4	322	17	
2025-08-16T12:00	10750	253	-48.6	-56.5	324	17	
2025-08-16T12:00	10800	251	-48.9	-57.1	325	17	
2025-08-16T12:00	10850	249	-49.1	-57.7	325	17	
2025-08-16T12:00	10900	247	-49.4	-58.2	324	16	
2025-08-16T12:00	10950	245	-49.4	-59.8	323	16	
2025-08-16T12:00	11000	243	-49.5	-60.3	322	16	
2025-08-16T12:00	11050	241	-49.8	-60.6	322	16	
2025-08-16T12:00	11100	240	-50.0	-61.0	323	15	
2025-08-16T12:00	11150	238	-50.1	-61.6	323	15	
2025-08-16T12:00	11200	236	-50.2	-62.4	321	16	
2025-08-16T12:00	11250	234	-50.4	-62.1	318	17	
2025-08-16T12:00	11300	232	-50.7	-61.9	316	17	
2025-08-16T12:00	11350	231	-51.1	-62.3	315	18	
2025-08-16T12:00	11400	229	-51.2	-63.4	315	19	
2025-08-16T12:00	11450	227	-51.2	-64.2	315	19	
2025-08-16T12:00	11500	225	-51.3	-64.5	314	18	
2025-08-16T12:00	11550	224	-51.4	-64.8	313	18	
2025-08-16T12:00	11600	222	-51.5	-65.3	313	18	
2025-08-16T12:00	11650	220	-51.4	-65.9	313	18	
2025-08-16T12:00	11700	218	-51.6	-66.0	313	19	
2025-08-16T12:00	11750	217	-51.6	-66.3	314	20	
2025-08-16T12:00	11800	215	-51.5	-67.2	315	21	
2025-08-16T12:00	11850	213	-51.3	-68.1	315	22	
2025-08-16T12:00	11900	212	-51.3	-68.4	315	22	
2025-08-16T12:00	11950	210	-51.6	-68.5	316	22	
2025-08-16T12:00	12000	209	-51.8	-68.8	315	21	
2025-08-16T12:00	12050	207	-51.7	-69.3	313	20	
2025-08-16T12:00	12100	205	-51.6	-69.7	311	20	
2025-08-16T12:00	12150	204	-51.7	-70.0	312	20	
2025-08-16T12:00	12200	202	-51.9	-70.3	314	21	
2025-08-16T12:00	12250	201	-52.1	-70.6	316	21	
2025-08-16T12:00	12300	199	-52.2	-70.7	318	22	
2025-08-16T12:00	12350	198	-52.5	-70.8	318	23	
2025-08-16T12:00	12400	196	-52.5	-71.0	318	22	
2025-08-16T12:00	12450	195	-52.4	-71.8	317	22	
2025-08-16T12:00	12500	193	-52.4	-72.2	318	21	
2025-08-16T12:00	12550	192	-52.5	-72.6	316	20	
2025-08-16T12:00	12600	190	-52.5	-73.0	312	20	
2025-08-16T12:00	12650	189	-52.7	-73.5	310	20	
2025-08-16T12:00	12700	187	-52.5	-74.2	310	19	
2025-08-16T12:00	12750	186	-52.0	-75.4	312	20	
2025-08-16T12:00	12800	184	-52.0	-75.8	314	20	
2025-08-16T12:00	12850	183	-51.9	-76.0	313	21	
2025-08-16T12:00	12900	181	-52.0	-76.5	315	20	
2025-08-16T12:00	12950	180	-52.0	-77.0	315	19	
2025-08-16T12:00	13000	179	-52.3	-77.3	312	19	
2025-08-16T12:00	13050	177	-52.4	-77.8	308	19	
2025-08-16T12:00	13100	176	-52.0	-78.3	305	19	
2025-08-16T12:00	13150	175	-51.9	-78.0	305	20	
2025-08-16T12:00	13200	173	-52.0	-76.9	307	19	
2025-08-16T12:00	13250	172	-52.0	-76.1	309	19	
2025-08-16T12:00	13300	171	-51.7	-75.1	309	20	
2025-08-16T12:00	13350	169	-51.6	-75.3	307	21	
2025-08-16T12:00	13400	168	-51.3	-75.7	306	22	
2025-08-16T12:00	13450	167	-51.6	-75.9	305	23	
2025-08-16T12:00	13500	165	-51.5	-76.1	303	23	
2025-08-16T12:00	13550	164	-51.5	-76.3	301	24	
2025-08-16T12:00	13600	163	-51.8	-76.6	300	24	
2025-08-16T12:00	13650	162	-51.7	-77.0	300	23	
2025-08-16T12:00	13700	160	-51.2	-77.3	303	22	
2025-08-16T12:00	13750	159	-51.0	-77.5	306	20	
2025-08-16T12:00	13800	158	-51.1	-77.8	311	19	
2025-08-16T12:00	13850	157	-51.1	-78.1	316	17	
2025-08-16T12:00	13900	156	-51.1	-78.4	320	15	
2025-08-16T12:00	13950	154	-51.3	-78.7	321	12	
2025-08-16T12:00	14000	153	-51.5	-79.1	319	10	
2025-08-16T12:00	14050	152	-51.2	-79.5	312	9	
2025-08-16T12:00	14100	151	-50.9	-80.2	307	9	
2025-08-16T12:00	14150	150	-51.0	-80.7	305	11	
2025-08-16T12:00	14200	148	-51.3	-80.8	304	12	
2025-08-16T12:00	14250	147	-51.6	-80.7	302	11	
2025-08-16T12:00	14300	146	-51.7	-80.7	304	10	
2025-08-16T12:00	14350	145	-51.5	-80.3	310	10	
2025-08-16T12:00	14400	144	-51.5	-80.0	314	8	
2025-08-16T12:00	14450	143	-51.7	-80.0	316	7	
2025-08-16T12:00	14500	142	-51.9	-80.1	313	6	
2025-08-16T12:00	14550	141	-52.2	-80.2	306	5	
2025-08-16T12:00	14600	140	-52.6	-80.4	298	5	
2025-08-16T12:00	14650	139	-52.9	-80.5	290	5	
2025-08-16T12:00	14700	137	-53.2	-80.7	286	5	
2025-08-16T12:00	14750	136	-53.6	-80.8	282	6	
2025-08-16T12:00	14800	135	-54.0	-81.0	278	7	
2025-08-16T12:00	14850	134	-54.2	-81.1	272	8	
2025-08-16T12:00	14900	133	-54.5	-81.1	268	8	
2025-08-16T12:00	14950	132	-54.8	-80.9	268	9	
2025-08-16T12:00	15000	131	-55.1	-81.0	271	9	
2025-08-16T12:00	15050	130	-55.5	-81.2	276	10	
2025-08-16T12:00	15100	129	-55.8	-81.3	280	10	
2025-08-16T12:00	15150	128	-56.0	-81.4	283	9	
2025-08-16T12:00	15200	127	-56.5	-81.5	287	9	
2025-08-16T12:00	15250	126	-56.9	-81.7	292	10	
2025-08-16T12:00	15300	125	-57.4	-81.9	299	10	
2025-08-16T12:00	15350	124	-57.8	-82.1	306	11	
2025-08-16T12:00	15400	123	-57.8	-82.2	310	10	
2025-08-16T12:00	15450	122	-57.5	-82.1	313	9	
2025-08-16T12:00	15500	121	-57.6	-82.1	311	8	
2025-08-16T12:00	15550	120	-57.9	-82.3	304	7	
2025-08-16T12:00	15600	119	-57.8	-82.5	294	6	
2025-08-16T12:00	15650	118	-57.7	-83.0	291	6	
2025-08-16T12:00	15700	117	-57.4	-83.4	298	7	
2025-08-16T12:00	15750	117	-57.3	-83.5	306	8	
2025-08-16T12:00	15800	116	-57.3	-83.3	309	9	
2025-08-16T12:00	15850	115	-57.5	-83.2	311	9	
2025-08-16T12:00	15900	114	-57.7	-83.2	317	8	
2025-08-16T12:00	15950	113	-57.9	-83.2	326	8	
2025-08-16T12:00	16000	112	-58.3	-83.3	334	8	
2025-08-16T12:00	16050	111	-58.5	-83.3	340	8	
2025-08-16T12:00	16100	110	-58.7	-83.4	346	8	
2025-08-16T12:00	16150	109	-58.9	-83.5	351	8	
2025-08-16T12:00	16200	109	-59.2	-83.6	353	8	
2025-08-16T12:00	16250	108	-59.6	-83.6	354	9	
2025-08-16T12:00	16300	107	-60.1	-83.7	354	9	
2025-08-16T12:00	16350	106	-60.5	-83.9	355	10	
2025-08-16T12:00	16400	105	-60.9	-84.1	357	10	
2025-08-16T12:00	16450	104	-61.0	-84.1	0	10	
2025-08-16T12:00	16500	103	-61.1	-84.2	2	9	
2025-08-16T12:00	16550	103	-61.4	-84.4	2	9	
2025-08-16T12:00	16600	102	-61.8	-84.5	1	8	
2025-08-16T12:00	16650	101	-62.2	-84.6	2	7	
2025-08-16T12:00	16700	100	-62.6	-84.7	1	7	
2025-08-16T12:00	16750	99	-63.0	-84.9	359	5	
2025-08-16T12:00	16800	98	-63.1	-85.0	353	4	
2025-08-16T12:00	16850	98	-63.1	-85.2	334	3	
2025-08-16T12:00	16900	97	-63.2	-85.3	297	2	
2025-08-16T12:00	16950	96	-63.1	-85.3	265	3	
2025-08-16T12:00	17000	95	-63.2	-85.5	255	4	
2025-08-16T12:00	17050	95	-63.2	-85.6	255	6	
2025-08-16T12:00	17100	94	-63.0	-85.6	257	9	
2025-08-16T12:00	17150	93	-62.8	-85.7	262	10	
2025-08-16T12:00	17200	92	-62.6	-85.7	269	11	
2025-08-16T12:00	17250	92	-62.5	-85.7	278	11	
2025-08-16T12:00	17300	91	-62.5	-85.8	286	11	
2025-08-16T12:00	17350	90	-62.5	-85.8	290	11	
2025-08-16T12:00	17400	89	-62.4	-85.8	294	10	
2025-08-16T12:00	17450	89	-62.1	-85.9	294	9	
2025-08-16T12:00	17500	88	-61.5	-85.6	292	9	
2025-08-16T12:00	17550	87	-61.5	-85.6	291	10	
2025-08-16T12:00	17600	87	-61.5	-85.6	294	9	
2025-08-16T12:00	17650	86	-61.0	-85.6	301	8	
2025-08-16T12:00	17700	85	-60.7	-85.6	313	7	
2025-08-16T12:00	17750	84	-60.6	-85.7	325	7	
2025-08-16T12:00	17800	84	-60.5	-85.6	338	6	
2025-08-16T12:00	17850	83	-60.6	-85.8	350	5	
2025-08-16T12:00	17900	82	-60.5	-85.8	357	5	
2025-08-16T12:00	17950	82	-60.7	-85.8	358	3	
2025-08-16T12:00	18000	81	-61.1	-85.9	348	2	
2025-08-16T12:00	18050	80	-61.4	-85.9	330	2	
2025-08-16T12:00	18100	80	-61.7	-86.0	316	3	
2025-08-16T12:00	18150	79	-62.1	-86.3	311	4	
2025-08-16T12:00	18200	79	-61.9	-86.4	315	4	
2025-08-16T12:00	18250	78	-61.5	-86.4	325	5	
2025-08-16T12:00	18300	77	-61.5	-86.5	334	5	
2025-08-16T12:00	18350	77	-61.3	-86.5	341	5	
2025-08-16T12:00	18400	76	-61.2	-86.6	348	4	
2025-08-16T12:00	18450	75	-61.2	-86.6	354	3	
2025-08-16T12:00	18500	75	-60.8	-86.7	345	1	
2025-08-16T12:00	18550	74	-60.1	-86.5	298	1	
2025-08-16T12:00	18600	74	-60.1	-86.7	274	2	
2025-08-16T12:00	18650	73	-60.0	-86.6	281	2	
2025-08-16T12:00	18700	72	-59.8	-86.4	305	2	
2025-08-16T12:00	18750	72	-59.8	-86.5	326	3	
2025-08-16T12:00	18800	71	-59.5	-86.4	338	4	
2025-08-16T12:00	18850	71	-59.4	-86.4	348	5	
2025-08-16T12:00	18900	70	-59.5	-86.3	1	5	
2025-08-16T12:00	18950	70	-59.6	-86.4	17	6	
2025-08-16T12:00	19000	69	-59.5	-86.4	35	6	
2025-08-16T12:00	19050	69	-59.4	-86.5	50	7	
2025-08-16T12:00	19100	68	-59.2	-86.6	62	9	
2025-08-16T12:00	19150	67	-58.8	-86.3	69	10	
2025-08-16T12:00	19200	67	-58.6	-86.1	73	11	
2025-08-16T12:00	19250	66	-59.0	-86.1	77	11	
2025-08-16T12:00	19300	66	-59.4	-86.1	82	11	
2025-08-16T12:00	19350	65	-59.8	-86.2	89	11	
2025-08-16T12:00	19400	65	-59.9	-86.4	94	10	
2025-08-16T12:00	19450	64	-59.8	-86.5	97	9	
2025-08-16T12:00	19500	64	-59.6	-86.5	97	8	
2025-08-16T12:00	19550	63	-59.7	-86.5	94	6	
2025-08-16T12:00	19600	63	-60.0	-86.6	88	5	
2025-08-16T12:00	19650	62	-60.0	-86.6	82	4	
2025-08-16T12:00	19700	62	-59.8	-86.6	88	2	
2025-08-16T12:00	19750	61	-59.7	-86.6	95	2	
2025-08-16T12:00	19800	61	-59.9	-86.6	86	1	
2025-08-16T12:00	19850	60	-59.9	-86.5	14	0	
2025-08-16T12:00	19900	60	-60.1	-86.5	318	1	
2025-08-16T12:00	19950	59	-60.4	-86.7	345	1	
2025-08-16T12:00	20000	59	-60.5	-86.8	16	2	
2025-08-16T12:00	20050	58	-60.4		35	3	
2025-08-16T12:00	20100	58	-60.5		48	4	
2025-08-16T12:00	20150	57	-60.6		63	4	
2025-08-16T12:00	20200	57	-60.4		81	4	
2025-08-16T12:00	20250	57	-60.3		102	4	
2025-08-16T12:00	20300	56	-59.4		112	5	
2025-08-16T12:00	20350	56	-58.9		112	4	
2025-08-16T12:00	20400	55	-58.9		101	3	
2025-08-16T12:00	20450	55	-58.5		86	3	
2025-08-16T12:00	20500	54	-58.0		84	3	
2025-08-16T12:00	20550	54	-58.0		88	3	
2025-08-16T12:00	20600	53	-58.2		99	4	
2025-08-16T12:00	20650	53	-58.4		113	4	
2025-08-16T12:00	20700	53	-58.7		122	4	
2025-08-16T12:00	20750	52	-59.1		125	4	
2025-08-16T12:00	20800	52	-59.2		123	3	
2025-08-16T12:00	20850	51	-59.1		115	3	
2025-08-16T12:00	20900	51	-59.1		96	2	
2025-08-16T12:00	20950	51	-59.0		73	2	
2025-08-16T12:00	21000	50	-58.8		56	2	
2025-08-16T12:00	21050	50	-58.5		53	3	
2025-08-16T12:00	21100	49	-58.2		54	5	
2025-08-16T12:00	21150	49	-58.2		54	7	
2025-08-16T12:00	21200	49	-58.3		55	9	
2025-08-16T12:00	21250	48	-57.9		57	10	
2025-08-16T12:00	21300	48	-57.7		60	11	
2025-08-16T12:00	21350	47	-57.7		63	12	
2025-08-16T12:00	21400	47	-57.8		67	11	
2025-08-16T12:00	21450	47	-57.9		69	11	
2025-08-16T12:00	21500	46	-57.9		70	11	
2025-08-16T12:00	21550	46	-57.9		70	10	
2025-08-16T12:00	21600	46	-58.0		69	10	
2025-08-16T12:00	21650	45	-58.0		69	9	
2025-08-16T12:00	21700	45	-58.1		73	9	
2025-08-16T12:00	21750	45	-58.0		80	9	
2025-08-16T12:00	21800	44	-58.1		88	9	
2025-08-16T12:00	21850	44	-57.8		94	9	
2025-08-16T12:00	21900	43	-57.0		98	8	
2025-08-16T12:00	21950	43	-56.6		101	7	
2025-08-16T12:00	22000	43	-56.6		103	7	
2025-08-16T12:00	22050	42	-56.5		103	6	
2025-08-16T12:00	22100	42	-55.9		102	5	
2025-08-16T12:00	22150	42	-55.7		102	5	
2025-08-16T12:00	22200	41	-55.6		101	5	
2025-08-16T12:00	22250	41	-55.5		102	6	
2025-08-16T12:00	22300	41	-55.5		105	7	
2025-08-16T12:00	22350	41	-55.4		104	8	
2025-08-16T12:00	22400	40	-55.1		98	8	
2025-08-16T12:00	22450	40	-54.9		91	7	
2025-08-16T12:00	22500	40	-54.9		87	7	
2025-08-16T12:00	22550	39	-55.0		86	7	
2025-08-16T12:00	22600	39	-55.0		89	7	
2025-08-16T12:00	22650	39	-54.9		92	8	
2025-08-16T12:00	22700	38	-54.6		93	8	
2025-08-16T12:00	22750	38	-54.4		92	8	
2025-08-16T12:00	22800	38	-54.4		93	9	
2025-08-16T12:00	22850	37	-54.4		96	10	
2025-08-16T12:00	22900	37	-54.5		98	10	
2025-08-16T12:00	22950	37	-54.5		99	10	
2025-08-16T12:00	23000	37	-54.5		100	9	
2025-08-16T12:00	23050	36	-54.7		99	8	
2025-08-16T12:00	23100	36	-54.8		94	6	
2025-08-16T12:00	23150	36	-54.8		81	5	
2025-08-16T12:00	23200	35	-54.6		69	5	
2025-08-16T12:00	23250	35	-54.3		68	5	
2025-08-16T12:00	23300	35	-54.0		76	6	
2025-08-16T12:00	23350	35	-53.7		85	6	
2025-08-16T12:00	23400	34	-53.6		92	5	
2025-08-16T12:00	23450	34	-53.7		92	4	
2025-08-16T12:00	23500	34	-53.7		82	3	
2025-08-16T12:00	23550	34	-53.7		60	3	
2025-08-16T12:00	23600	33	-53.6		35	2	
2025-08-16T12:00	23650	33	-53.5		21	3	
2025-08-16T12:00	23700	33	-53.5		22	4	
2025-08-16T12:00	23750	33	-53.3		28	4	
2025-08-16T12:00	23800	32	-53.2		37	5	
2025-08-16T12:00	23850	32	-53.1		48	5	
2025-08-16T12:00	23900	32	-53.1		56	5	
2025-08-16T12:00	23950	32	-53.2		58	5	
2025-08-16T12:00	24000	31	-53.2		56	5	
2025-08-16T12:00	24050	31	-53.4		59	6	
2025-08-16T12:00	24100	31	-53.4		68	7	
2025-08-16T12:00	24150	31	-53.3		77	9	
2025-08-16T12:00	24200	30	-53.4		85	10	
2025-08-16T12:00	24250	30	-53.4		92	11	
2025-08-16T12:00	24300	30	-53.3		97	11	
2025-08-16T12:00	24350	30	-53.4		102	11	
2025-08-16T12:00	24400	29	-53.6		106	10	
2025-08-16T12:00	24450	29	-53.9		110	9	
2025-08-16T12:00	24500	29	-54.1		113	8	
2025-08-16T12:00	24550	29	-54.3		115	7	
2025-08-16T12:00	24600	29	-54.2		117	6	
2025-08-16T12:00	24650	28	-54.1		116	5	
2025-08-16T12:00	24700	28	-54.1		112	4	
2025-08-16T12:00	24750	28	-54.1		108	4	
2025-08-16T12:00	24800	28	-53.9		105	4	
2025-08-16T12:00	24850	27	-53.7		101	5	
2025-08-16T12:00	24900	27	-53.6		96	4	
2025-08-16T12:00	24950	27	-53.4		87	4	
2025-08-16T12:00	25000	27	-53.1		79	4	
2025-08-16T12:00	25050	27	-53.0		75	4	
2025-08-16T12:00	25100	26	-52.8		75	5	
2025-08-16T12:00	25150	26	-52.8		75	6	
2025-08-16T12:00	25200	26	-52.7		76	6	
2025-08-16T12:00	25250	26	-52.5		78	6	
2025-08-16T12:00	25300	26	-52.4		87	7	
2025-08-16T12:00	25350	25	-52.3		97	8	
2025-08-16T12:00	25400	25	-52.0		104	8	
2025-08-16T12:00	25450	25	-51.5		107	8	
2025-08-16T12:00	25500	25	-51.0		108	7	
2025-08-16T12:00	25550	25	-50.8		109	7	
2025-08-16T12:00	25600	24	-50.6		111	8	
2025-08-16T12:00	25650	24	-50.4		116	9	
2025-08-16T12:00	25700	24	-50.6		120	11	
2025-08-16T12:00	25750	24	-50.8		125	12	
2025-08-16T12:00	25800	24	-50.8		129	12	
2025-08-16T12:00	25850	24	-50.5		131	12	
2025-08-16T12:00	25900	23	-50.2		130	11	
2025-08-16T12:00	25950	23	-49.9		125	10	
2025-08-16T12:00	26000	23	-49.8		117	10	
2025-08-16T12:00	26050	23	-49.5		110	9	
2025-08-16T12:00	26100	23	-49.3		107	9	
2025-08-16T12:00	26150	22	-49.3		107	9	
2025-08-16T12:00	26200	22	-49.5		109	9	
2025-08-16T12:00	26250	22	-49.5		113	10	
2025-08-16T12:00	26300	22	-49.6		117	10	
2025-08-16T12:00	26350	22	-49.6		122	10	
2025-08-16T12:00	26400	22	-49.5		126	10	
2025-08-16T12:00	26450	21	-49.4		129	9	
2025-08-16T12:00	26500	21	-49.3		132	7	
2025-08-16T12:00	26550	21	-49.3		135	6	
2025-08-16T12:00	26600	21	-49.2		135	6	
2025-08-16T12:00	26650	21	-49.1		128	5	
2025-08-16T12:00	26700	21	-48.8		116	6	
2025-08-16T12:00	26750	20	-48.6		104	6	
2025-08-16T12:00	26800	20	-48.6		95	7	
2025-08-16T12:00	26850	20	-48.6		87	7	
2025-08-16T12:00	26900	20	-48.6		83	8	
2025-08-16T12:00	26950	20	-48.5		81	8	
2025-08-16T12:00	27000	20	-48.3		82	7	
2025-08-16T12:00	27050	20	-48.0		89	7	
2025-08-16T12:00	27100	19	-47.8		99	6	
2025-08-16T12:00	27150	19	-47.7		107	6	
2025-08-16T12:00	27200	19	-47.6		105	5	
2025-08-16T12:00	27250	19	-47.3		92	5	
2025-08-16T12:00	27300	19	-47.1		77	5	
2025-08-16T12:00	27350	19	-47.0		70	6	
2025-08-16T12:00	27400	19	-46.8		66	7	
2025-08-16T12:00	27450	18	-46.6		62	7	
2025-08-16T12:00	27500	18	-46.6		57	7	
2025-08-16T12:00	27550	18	-46.8		54	7	
2025-08-16T12:00	27600	18	-47.0		52	7	
2025-08-16T12:00	27650	18	-47.2		51	7	
2025-08-16T12:00	27700	18	-47.3		51	6	
2025-08-16T12:00	27750	18	-47.5		50	5	
2025-08-16T12:00	27800	17	-47.7		52	5	
2025-08-16T12:00	27850	17	-47.9		58	5	
2025-08-16T12:00	27900	17	-47.9		59	5	
2025-08-16T12:00	27950	17	-47.7		55	5	
2025-08-16T12:00	28000	17	-47.6		51	6	
2025-08-16T12:00	28050	17	-47.5		52	7	
2025-08-16T12:00	28100	17	-47.2		55	8	
2025-08-16T12:00	28150	17	-47.0		57	9	
2025-08-16T12:00	28200	16	-46.8		61	9	
2025-08-16T12:00	28250	16	-46.3		67	9	
2025-08-16T12:00	28300	16	-45.8		73	8	
2025-08-16T12:00	28350	16	-45.5		78	8	
2025-08-16T12:00	28400	16	-45.3		82	7	
2025-08-16T12:00	28450	16	-45.1		89	7	
2025-08-16T12:00	28500	16	-44.9		97	7	
2025-08-16T12:00	28550	16	-44.8		105	7	
2025-08-16T12:00	28600	15	-44.8		104	7	
2025-08-16T12:00	28650	15	-44.7		94	7	
2025-08-16T12:00	28700	15	-44.5		87	7	
2025-08-16T12:00	28750	15	-44.1		87	8	
2025-08-16T12:00	28800	15	-44.1		91	8	
2025-08-16T12:00	28850	15	-44.1		91	8	
2025-08-16T12:00	28900	15	-43.9		86	8	
2025-08-16T12:00	28950	15	-43.9		79	9	
2025-08-16T12:00	29000	15	-44.0		72	11	
2025-08-16T12:00	29050	14	-44.2		65	12	
2025-08-16T12:00	29100	14	-44.3		62	13	
2025-08-16T12:00	29150	14	-44.2		61	14	
2025-08-16T12:00	29200	14	-43.9		63	14	
2025-08-16T12:00	29250	14	-43.9		67	13	
2025-08-16T12:00	29300	14	-44.1		71	12	
2025-08-16T12:00	29350	14	-44.4		75	12	
2025-08-16T12:00	29400	14	-44.6		78	11	
2025-08-16T12:00	29450	14	-44.9		82	11	
2025-08-16T12:00	29500	14	-44.9		87	11	
2025-08-16T12:00	29550	13	-45.1		94	11	
2025-08-16T12:00	29600	13	-45.5		100	11	
2025-08-16T12:00	29650	13	-45.6		104	10	
2025-08-16T12:00	29700	13	-45.7		107	9	
2025-08-16T12:00	29750	13	-45.5		111	8	
2025-08-16T12:00	29800	13	-45.2		112	7	
2025-08-16T12:00	29850	13	-45.1		108	7	
2025-08-16T12:00	29900	13	-44.7		101	7	
2025-08-16T12:00	29950	13	-44.3		98	8	
2025-08-16T12:00	30000	13	-44.1		100	8	
2025-08-16T12:00	30050	12	-43.8		103	9	
2025-08-16T12:00	30100	12	-43.7		104	9	
2025-08-16T12:00	30150	12	-43.6		104	9	
2025-08-16T12:00	30200	12	-43.6		101	9	
2025-08-16T12:00	30250	12	-43.7		99	10	
2025-08-16T12:00	30300	12	-43.6		97	10	
2025-08-16T12:00	30350	12	-43.4		99	11	
2025-08-16T12:00	30400	12	-43.2		105	11	
2025-08-16T12:00	30450	12	-43.2		112	11	
2025-08-16T12:00	30500	12	-43.0		118	11	
2025-08-16T12:00	30550	12	-43.0		121	10	
2025-08-16T12:00	30600	11	-42.8		120	10	
2025-08-16T12:00	30650	11	-42.6		117	10	
2025-08-16T12:00	30700	11	-42.5		111	10	
2025-08-16T12:00	30750	11	-42.2		107	12	
2025-08-16T12:00	30800	11	-41.8		107	12	
2025-08-16T12:00	30850	11	-41.5		110	12	
2025-08-16T12:00	30900	11	-41.5		116	12	
2025-08-16T12:00	30950	11	-41.6		123	12	
2025-08-16T12:00	31000	11	-41.7		131	11	
2025-08-16T12:00	31050	11	-41.7		138	10	
2025-08-16T12:00	31100	11	-41.7		141	10	
2025-08-16T12:00	31150	11	-41.7		142	9	
2025-08-16T12:00	31200	11	-41.6		140	8	
2025-08-16T12:00	31250	10	-41.4		135	8	
2025-08-16T12:00	31300	10	-41.4		129	8	
2025-08-16T12:00	31350	10	-41.4		120	8	
2025-08-16T12:00	31400	10	-41.5		112	8	
2025-08-16T12:00	31450	10	-41.4		108	8	
2025-08-16T12:00	31500	10	-41.3		108	7	
2025-08-16T12:00	31550	10	-41.4		110	6	
2025-08-16T12:00	31600	10	-41.5		112	5	
2025-08-16T12:00	31650	10	-41.7		111	5	
2025-08-16T12:00	31700	10	-41.8		104	5	
2025-08-16T12:00	31750	10	-41.8		96	5	
2025-08-16T12:00	31800	10	-41.7		93	6	
2025-08-16T12:00	31850	10	-41.5		94	7	
2025-08-16T12:00	31900	9	-41.4		96	8	
2025-08-16T12:00	31950	9	-41.3		98	8	
2025-08-16T12:00	32000	9	-41.3		100	9	
2025-08-16T12:00	32050	9	-41.3		105	9	
2025-08-16T12:00	32100	9	-40.9		110	9	
2025-08-16T12:00	32150	9	-40.6		112	9	
2025-08-16T12:00	32200	9	-40.4		110	10	
2025-08-16T12:00	32250	9	-40.0		106	10	
2025-08-16T12:00	32300	9	-39.5		103	10	
2025-08-16T12:00	32350	9	-39.3		99	9	
2025-08-16T12:00	32400	9	-38.9		91	9	
2025-08-16T12:00	32450	9	-38.3		85	10	
2025-08-16T12:00	32500	9	-37.5		85	11	
2025-08-16T12:00	32550	9	-37.1		90	11	
2025-08-16T12:00	32600	9	-37.1		94	11	
2025-08-16T12:00	32650	9	-36.9		94	10	
2025-08-16T12:00	32700	8	-36.7		89	10	
2025-08-16T12:00	32750	8	-36.5		82	10	
2025-08-16T12:00	32800	8	-36.4		77	11	
2025-08-16T12:00	32850	8	-36.2		74	12	
2025-08-16T12:00	32900	8	-36.0		74	13	
2025-08-16T12:00	32950	8	-36.0		76	14	
2025-08-16T12:00	33000	8	-36.2		79	15	
2025-08-16T12:00	33050	8	-36.2		82	15	
2025-08-16T12:00	33100	8	-36.0		83	14	
2025-08-16T12:00	33150	8	-36.0		82	13	
2025-08-16T12:00	33200	8	-36.0		82	12	
2025-08-16T12:00	33250	8	-35.9		80	11	
2025-08-16T12:00	33300	8	-35.7		76	11	
2025-08-16T12:00	33350	8	-35.7		71	11	
2025-08-16T12:00	33400	8	-35.7		67	11	
2025-08-16T12:00	33450	8	-35.6		65	12	
2025-08-16T12:00	33500	8	-35.6		66	12	
2025-08-16T12:00	33550	7	-35.6		68	13	
2025-08-16T12:00	33600	7	-35.7		72	14	
2025-08-16T12:00	33650	7	-35.7		77	14	
2025-08-16T12:00	33700	7	-35.8		82	14	
2025-08-16T12:00	33750	7	-35.8		89	14	
2025-08-16T12:00	33800	7	-35.9		96	14	
2025-08-16T12:00	33850	7	-36.0		100	14	
2025-08-16T12:00	33900	7	-36.1		101	14	
2025-08-16T12:00	33950	7	-36.0		99	13	
2025-08-16T12:00	34000	7	-35.9		95	13	
2025-08-16T12:00	34050	7	-35.7		89	13	
2025-08-16T12:00	34100	7	-35.6		85	14	
2025-08-16T12:00	34150	7	-35.5		87	14	
2025-08-16T12:00	34200	7	-35.3		92	15	
2025-08-16T12:00	34250	7	-35.2		96	15	
2025-08-16T12:00	34300	7	-35.2		99	15	
2025-08-16T12:00	34350	7	-35.3		102	15	
2025-08-16T12:00	34400	7	-35.4		104	14	
2025-08-16T12:00	34450	7	-35.5		105	13	
2025-08-16T12:00	34500	7	-35.4		104	12	
2025-08-16T12:00	34550	6	-35.1		105	13	
2025-08-16T12:00	34600	6	-34.7		109	13	
2025-08-16T12:00	34650	6	-34.3		112	13	
2025-08-16T12:00	34700	6	-34.0		110	12	
2025-08-16T12:00	34750	6	-33.9		104	12	
2025-08-16T12:00	34800	6	-34.0		95	11	
2025-08-16T12:00	34850	6	-34.1		90	11	
2025-08-16T12:00	34900	6	-33.9		91	12	
2025-08-16T12:00	34950	6	-33.8		95	13	
2025-08-16T12:00	35000	6	-33.7		97	13	
2025-08-16T12:00	35050	6	-33.4		95	13	
2025-08-16T12:00	35100	6	-33.0		88	12	
2025-08-16T12:00	35150	6	-32.9		81	12	
2025-08-16T12:00	35200	6	-33.0		75	12	
2025-08-16T12:00	35250	6	-33.2		73	12	
2025-08-16T12:00	35300	6	-33.3		75	13	
2025-08-16T12:00	35350	6	-33.2		79	14	
2025-08-16T12:00	35400	6	-33.1		83	14	
2025-08-16T12:00	35450	6	-33.1		86	14	
2025-08-17T00:00	491	962	19.9	17.7	4	0	
2025-08-17T00:00	501	960	20.8	17.3	24	2	
2025-08-17T00:00	520	959	21.0	17.3	29	2	
2025-08-17T00:00	540	956	21.3	16.8	35	3	
2025-08-17T00:00	560	954	21.9	16.2	43	3	
2025-08-17T00:00	580	952	22.3	16.0	51	4	
2025-08-17T00:00	600	950	22.1	16.0	59	4	
2025-08-17T00:00	620	947	22.0	15.9	64	5	
2025-08-17T00:00	640	945	21.9	15.8	67	5	
2025-08-17T00:00	660	943	22.0	15.7	70	5	
2025-08-17T00:00	680	941	22.2	15.7	71	5	
2025-08-17T00:00	700	939	22.6	16.0	70	6	
2025-08-17T00:00	720	937	22.4	16.1	69	6	
2025-08-17T00:00	740	934	22.2	15.9	68	6	
2025-08-17T00:00	760	932	22.1	15.9	67	6	
2025-08-17T00:00	780	930	21.9	15.9	66	6	
2025-08-17T00:00	800	928	21.7	15.8	66	7	
2025-08-17T00:00	820	926	21.5	15.8	65	7	
2025-08-17T00:00	840	924	21.3	15.7	65	7	
2025-08-17T00:00	860	922	21.1	15.7	63	7	
2025-08-17T00:00	880	919	21.0	15.7	62	7	
2025-08-17T00:00	900	917	20.8	15.7	60	7	
2025-08-17T00:00	920	915	20.6	15.6	58	7	
2025-08-17T00:00	940	913	20.4	15.5	56	7	
2025-08-17T00:00	960	911	20.2	15.5	54	7	
2025-08-17T00:00	980	909	20.1	15.5	53	7	
2025-08-17T00:00	1000	907	19.9	15.5	53	7	
2025-08-17T00:00	1020	905	19.7	15.5	53	7	
2025-08-17T00:00	1040	903	19.5	15.4	53	7	
2025-08-17T00:00	1060	901	19.3	15.3	53	7	
2025-08-17T00:00	1080	899	19.1	15.3	52	7	
2025-08-17T00:00	1100	896	19.0	15.3	51	7	
2025-08-17T00:00	1120	894	18.8	15.2	50	7	
2025-08-17T00:00	1140	892	18.6	15.2	51	7	
2025-08-17T00:00	1160	890	18.4	15.2	53	7	
2025-08-17T00:00	1180	888	18.2	15.2	55	7	
2025-08-17T00:00	1200	886	18.0	15.2	56	7	
2025-08-17T00:00	1220	884	17.8	15.3	55	8	
2025-08-17T00:00	1240	882	17.7	15.1	54	8	
2025-08-17T00:00	1260	880	17.6	15.0	54	7	
2025-08-17T00:00	1280	878	17.4	15.0	54	7	
2025-08-17T00:00	1300	876	17.2	14.8	56	7	
2025-08-17T00:00	1320	874	17.2	14.6	58	6	
2025-08-17T00:00	1340	872	17.0	14.6	60	6	
2025-08-17T00:00	1360	870	16.9	14.7	62	5	
2025-08-17T00:00	1380	868	16.7	14.7	62	5	
2025-08-17T00:00	1400	866	16.8	14.2	62	4	
2025-08-17T00:00	1420	864	16.7	14.1	60	4	
2025-08-17T00:00	1440	862	16.6	13.7	58	4	
2025-08-17T00:00	1460	860	16.7	13.5	56	4	
2025-08-17T00:00	1480	858	16.5	13.5	55	4	
2025-08-17T00:00	1500	856	16.4	13.5	54	4	
2025-08-17T00:00	1520	854	16.2	13.3	53	4	
2025-08-17T00:00	1540	852	16.1	13.1	53	4	
2025-08-17T00:00	1560	850	16.0	13.0	54	4	
2025-08-17T00:00	1580	847	15.8	12.8	57	4	
2025-08-17T00:00	1600	845	15.6	12.8	61	4	
2025-08-17T00:00	1620	844	15.4	12.8	64	4	
2025-08-17T00:00	1640	842	15.2	12.7	67	3	
2025-08-17T00:00	1660	840	15.1	12.7	67	3	
2025-08-17T00:00	1680	838	14.9	12.7	62	2	
2025-08-17T00:00	1700	836	14.7	12.6	52	1	
2025-08-17T00:00	1720	834	14.5	12.7	49	1	
2025-08-17T00:00	1740	832	14.3	12.8	59	1	
2025-08-17T00:00	1760	830	14.2	12.8	70	1	
2025-08-17T00:00	1780	828	14.0	12.7	77	2	
2025-08-17T00:00	1800	826	13.9	12.5	80	2	
2025-08-17T00:00	1820	824	13.7	12.3	79	2	
2025-08-17T00:00	1840	822	13.6	12.1	74	2	
2025-08-17T00:00	1860	820	13.4	12.1	66	2	
2025-08-17T00:00	1880	818	13.2	12.1	57	2	
2025-08-17T00:00	1900	816	13.0	12.0	50	2	
2025-08-17T00:00	1920	814	12.8	12.0	44	2	
2025-08-17T00:00	1940	812	12.7	11.6	41	2	
2025-08-17T00:00	1960	810	12.6	11.1	39	2	
2025-08-17T00:00	1980	808	12.5	11.2	40	2	
2025-08-17T00:00	2000	807	12.3	11.1	42	2	
2025-08-17T00:00	2020	805	12.2	11.0	44	2	
2025-08-17T00:00	2040	803	12.0	10.6	44	3	
2025-08-17T00:00	2060	801	11.9	10.5	43	3	
2025-08-17T00:00	2080	799	11.8	10.2	41	3	
2025-08-17T00:00	2100	797	11.6	9.8	39	3	
2025-08-17T00:00	2120	795	11.6	9.6	36	3	
2025-08-17T00:00	2140	793	11.4	9.5	30	3	
2025-08-17T00:00	2160	791	11.3	9.0	22	2	
2025-08-17T00:00	2180	789	11.2	8.3	13	2	
2025-08-17T00:00	2200	788	11.2	7.8	3	2	
2025-08-17T00:00	2220	786	11.1	7.6	358	3	
2025-08-17T00:00	2240	784	11.0	7.4	359	3	
2025-08-17T00:00	2260	782	10.9	7.4	1	3	
2025-08-17T00:00	2280	780	10.7	7.3	2	3	
2025-08-17T00:00	2300	778	10.6	7.2	359	3	
2025-08-17T00:00	2320	776	10.5	6.6	352	3	
2025-08-17T00:00	2340	775	10.3	6.4	342	3	
2025-08-17T00:00	2360	773	10.2	6.2	332	3	
2025-08-17T00:00	2380	771	10.1	6.2	323	3	
2025-08-17T00:00	2400	769	10.1	6.3	316	3	
2025-08-17T00:00	2420	767	10.0	6.2	310	2	
2025-08-17T00:00	2440	765	9.9	5.9	305	2	
2025-08-17T00:00	2460	763	9.8	5.7	301	2	
2025-08-17T00:00	2480	762	9.8	4.0	296	2	
2025-08-17T00:00	2500	760	10.0	2.0	292	3	
2025-08-17T00:00	2520	758	9.8	2.2	288	3	
2025-08-17T00:00	2540	756	9.7	0.1	285	4	
2025-08-17T00:00	2560	754	10.1	-6.8	283	4	
2025-08-17T00:00	2580	752	10.0	-6.7	282	4	
2025-08-17T00:00	2600	751	9.8	-5.2	280	5	
2025-08-17T00:00	2620	749	9.6	-4.1	278	5	
2025-08-17T00:00	2640	747	9.4	-3.1	275	5	
2025-08-17T00:00	2660	745	9.2	-2.1	271	5	
2025-08-17T00:00	2680	743	8.9	-0.7	268	5	
2025-08-17T00:00	2700	742	8.6	0.9	265	5	
2025-08-17T00:00	2720	740	8.4	1.2	264	5	
2025-08-17T00:00	2740	738	8.2	0.8	264	5	
2025-08-17T00:00	2760	736	8.1	0.4	266	5	
2025-08-17T00:00	2780	734	7.9	0.4	269	4	
2025-08-17T00:00	2800	733	7.7	-0.1	272	4	
2025-08-17T00:00	2820	731	7.5	-1.1	278	4	
2025-08-17T00:00	2840	729	7.5	-2.9	288	3	
2025-08-17T00:00	2860	727	7.5	-6.1	298	3	
2025-08-17T00:00	2880	726	7.4	-3.7	306	3	
2025-08-17T00:00	2900	724	7.4	-5.5	312	3	
2025-08-17T00:00	2920	722	7.4	-5.3	317	3	
2025-08-17T00:00	2940	720	7.2	-5.2	318	4	
2025-08-17T00:00	2960	718	7.1	-5.3	316	4	
2025-08-17T00:00	2980	717	6.9	-5.3	312	4	
2025-08-17T00:00	3000	715	6.8	-5.4	309	4	
2025-08-17T00:00	3020	713	6.6	-5.4	303	4	
2025-08-17T00:00	3040	712	6.4	-5.2	295	4	
2025-08-17T00:00	3060	710	6.3	-5.2	289	4	
2025-08-17T00:00	3080	708	6.1	-5.1	286	4	
2025-08-17T00:00	3100	706	6.0	-5.1	287	4	
2025-08-17T00:00	3120	705	6.0	-5.6	295	3	
2025-08-17T00:00	3140	703	5.9	-5.8	301	3	
2025-08-17T00:00	3160	701	5.7	-5.9	302	3	
2025-08-17T00:00	3180	700	5.6	-5.4	300	3	
2025-08-17T00:00	3200	698	5.5	-4.9	298	4	
2025-08-17T00:00	3220	696	5.4	-5.4	297	4	
2025-08-17T00:00	3240	695	5.2	-5.8	298	4	
2025-08-17T00:00	3260	693	5.1	-6.6	300	4	
2025-08-17T00:00	3280	691	5.0	-6.5	305	4	
2025-08-17T00:00	3300	689	4.8	-6.5	312	4	
2025-08-17T00:00	3320	688	4.7	-6.4	321	4	
2025-08-17T00:00	3340	686	4.5	-5.8	331	4	
2025-08-17T00:00	3360	684	4.4	-5.5	340	4	
2025-08-17T00:00	3380	683	4.2	-5.8	346	4	
2025-08-17T00:00	3400	681	4.1	-6.4	349	4	
2025-08-17T00:00	3420	679	4.0	-7.1	351	5	
2025-08-17T00:00	3440	678	3.9	-7.6	350	5	
2025-08-17T00:00	3460	676	3.8	-8.5	347	5	
2025-08-17T00:00	3480	674	3.9	-10.0	341	6	
2025-08-17T00:00	3500	672	3.9	-10.9	337	6	
2025-08-17T00:00	3520	671	3.8	-11.1	335	6	
2025-08-17T00:00	3540	669	3.7	-11.5	333	6	
2025-08-17T00:00	3560	668	3.6	-11.5	332	7	
2025-08-17T00:00	3580	666	3.4	-11.5	331	7	
2025-08-17T00:00	3600	664	3.3	-11.4	331	7	
2025-08-17T00:00	3620	663	3.2	-10.8	330	7	
2025-08-17T00:00	3640	661	3.1	-10.7	330	7	
2025-08-17T00:00	3660	660	3.0	-10.9	330	7	
2025-08-17T00:00	3680	658	2.8	-11.0	329	7	
2025-08-17T00:00	3700	656	2.7	-10.9	329	6	
2025-08-17T00:00	3720	655	2.6	-11.5	329	6	
2025-08-17T00:00	3740	653	2.5	-13.1	330	6	
2025-08-17T00:00	3760	651	2.5	-15.0	332	7	
2025-08-17T00:00	3780	650	2.4	-15.9	335	7	
2025-08-17T00:00	3800	648	2.3	-17.1	338	7	
2025-08-17T00:00	3820	647	2.3	-19.0	341	7	
2025-08-17T00:00	3840	645	2.2	-20.4	344	7	
2025-08-17T00:00	3860	643	2.3	-23.5	347	7	
2025-08-17T00:00	3880	642	2.5	-29.4	350	8	
2025-08-17T00:00	3900	640	2.4	-30.9	351	8	
2025-08-17T00:00	3920	638	2.3	-31.8	350	8	
2025-08-17T00:00	3940	637	2.2	-31.9	349	8	
2025-08-17T00:00	3960	635	2.1	-33.5	347	8	
2025-08-17T00:00	3980	634	2.1	-34.8	346	9	
2025-08-17T00:00	4000	632	2.1	-35.3	345	9	
2025-08-17T00:00	4020	631	2.0	-33.7	344	9	
2025-08-17T00:00	4040	629	2.0	-33.9	344	9	
2025-08-17T00:00	4060	627	1.9	-34.6	344	9	
2025-08-17T00:00	4080	626	1.8	-33.4	344	8	
2025-08-17T00:00	4100	624	1.7	-32.3	343	8	
2025-08-17T00:00	4120	623	1.5	-32.3	342	8	
2025-08-17T00:00	4140	621	1.4	-32.8	341	9	
2025-08-17T00:00	4160	620	1.4	-33.2	340	9	
2025-08-17T00:00	4180	618	1.2	-33.4	338	9	
2025-08-17T00:00	4200	617	1.2	-33.5	337	9	
2025-08-17T00:00	4220	615	1.1	-33.7	337	9	
2025-08-17T00:00	4240	613	0.9	-34.0	337	9	
2025-08-17T00:00	4260	612	0.8	-34.4	337	9	
2025-08-17T00:00	4280	611	0.7	-34.3	338	9	
2025-08-17T00:00	4300	609	0.5	-34.1	339	9	
2025-08-17T00:00	4320	607	0.3	-34.2	341	9	
2025-08-17T00:00	4340	606	0.2	-34.3	342	9	
2025-08-17T00:00	4360	605	0.0	-34.1	344	9	
2025-08-17T00:00	4380	603	-0.2	-34.1	345	10	
2025-08-17T00:00	4400	602	-0.4	-34.1	346	10	
2025-08-17T00:00	4420	600	-0.5	-34.0	346	10	
2025-08-17T00:00	4440	599	-0.7	-33.9	347	10	
2025-08-17T00:00	4460	597	-0.8	-34.4	348	10	
2025-08-17T00:00	4480	595	-0.8	-35.4	349	11	
2025-08-17T00:00	4500	594	-0.9	-36.0	350	11	
2025-08-17T00:00	4520	592	-1.0	-36.2	351	11	
2025-08-17T00:00	4540	591	-1.1	-34.3	351	12	
2025-08-17T00:00	4560	589	-1.3	-35.0	352	12	
2025-08-17T00:00	4580	588	-1.5	-32.3	352	12	
2025-08-17T00:00	4600	587	-1.6	-31.9	351	13	
2025-08-17T00:00	4620	585	-1.7	-31.7	351	13	
2025-08-17T00:00	4640	584	-1.9	-31.3	350	13	
2025-08-17T00:00	4660	582	-2.0	-31.7	350	13	
2025-08-17T00:00	4680	581	-2.0	-32.5	349	13	
2025-08-17T00:00	4700	579	-2.0	-33.2	349	13	
2025-08-17T00:00	4720	578	-1.9	-35.0	349	13	
2025-08-17T00:00	4740	576	-1.8	-37.9	349	13	
2025-08-17T00:00	4760	575	-1.8	-38.6	349	13	
2025-08-17T00:00	4780	574	-2.0	-36.9	349	13	
2025-08-17T00:00	4800	572	-2.1	-36.5	349	13	
2025-08-17T00:00	4820	571	-2.3	-36.3	349	13	
2025-08-17T00:00	4840	569	-2.4	-36.4	349	13	
2025-08-17T00:00	4860	568	-2.6	-36.4	350	13	
2025-08-17T00:00	4880	566	-2.8	-36.2	350	13	
2025-08-17T00:00	4900	565	-2.9	-36.3	351	13	
2025-08-17T00:00	4920	564	-3.0	-36.4	352	13	
2025-08-17T00:00	4940	562	-3.2	-36.6	353	13	
2025-08-17T00:00	4960	560	-3.4	-37.1	354	13	
2025-08-17T00:00	4980	559	-3.6	-37.4	356	13	
2025-08-17T00:00	5000	558	-3.7	-37.3	357	13	
2025-08-17T00:00	5020	556	-3.8	-36.7	358	13	
2025-08-17T00:00	5040	555	-4.0	-36.6	360	12	
2025-08-17T00:00	5060	554	-4.1	-36.8	1	12	
2025-08-17T00:00	5080	552	-4.3	-37.0	1	12	
2025-08-17T00:00	5100	551	-4.5	-37.4	1	12	
2025-08-17T00:00	5120	549	-4.6	-38.6	1	13	
2025-08-17T00:00	5140	548	-4.7	-39.4	360	13	
2025-08-17T00:00	5160	547	-4.8	-38.9	359	13	
2025-08-17T00:00	5180	545	-5.0	-38.7	359	13	
2025-08-17T00:00	5200	544	-5.1	-38.7	359	14	
2025-08-17T00:00	5220	542	-5.2	-38.5	360	14	
2025-08-17T00:00	5240	541	-5.3	-38.9	360	13	
2025-08-17T00:00	5260	539	-5.5	-39.0	0	13	
2025-08-17T00:00	5280	538	-5.6	-39.2	360	13	
2025-08-17T00:00	5300	537	-5.6	-39.4	360	13	
2025-08-17T00:00	5320	535	-5.7	-40.0	358	13	
2025-08-17T00:00	5340	534	-5.7	-40.2	357	13	
2025-08-17T00:00	5360	533	-5.8	-40.8	356	13	
2025-08-17T00:00	5380	531	-5.9	-39.0	355	13	
2025-08-17T00:00	5400	530	-6.0	-34.3	355	13	
2025-08-17T00:00	5420	529	-6.2	-33.0	354	13	
2025-08-17T00:00	5440	527	-6.4	-32.6	354	13	
2025-08-17T00:00	5460	526	-6.6	-32.5	354	13	
2025-08-17T00:00	5480	525	-6.7	-32.8	355	12	
2025-08-17T00:00	5500	523	-6.9	-34.1	355	12	
2025-08-17T00:00	5520	522	-7.1	-34.2	355	12	
2025-08-17T00:00	5540	521	-7.3	-36.0	356	12	
2025-08-17T00:00	5560	519	-7.4	-37.7	356	12	
2025-08-17T00:00	5580	518	-7.6	-36.5	357	12	
2025-08-17T00:00	5600	517	-7.8	-36.0	357	12	
2025-08-17T00:00	5620	515	-7.9	-35.7	358	12	
2025-08-17T00:00	5640	514	-8.1	-34.2	358	13	
2025-08-17T00:00	5660	513	-8.2	-34.8	358	13	
2025-08-17T00:00	5680	511	-8.3	-37.2	358	13	
2025-08-17T00:00	5700	510	-8.4	-40.7	359	13	
2025-08-17T00:00	5720	509	-8.4	-41.5	359	13	
2025-08-17T00:00	5740	507	-8.5	-40.9	359	13	
2025-08-17T00:00	5760	506	-8.6	-41.0	359	13	
2025-08-17T00:00	5780	505	-8.8	-42.2	358	13	
2025-08-17T00:00	5800	503	-8.9	-41.6	358	13	
2025-08-17T00:00	5820	502	-9.0	-41.3	358	13	
2025-08-17T00:00	5840	501	-9.2	-39.9	357	13	
2025-08-17T00:00	5860	499	-9.3	-35.6	356	13	
2025-08-17T00:00	5880	498	-9.5	-34.4	354	13	
2025-08-17T00:00	5900	497	-9.7	-34.0	353	13	
2025-08-17T00:00	5920	496	-9.9	-33.8	352	13	
2025-08-17T00:00	5940	494	-10.1	-33.1	352	13	
2025-08-17T00:00	5960	493	-10.2	-32.9	352	12	
2025-08-17T00:00	5980	492	-10.4	-32.7	352	12	
2025-08-17T00:00	6000	491	-10.6	-32.4	353	12	
2025-08-17T00:00	6020	489	-10.8	-32.3	354	12	
2025-08-17T00:00	6040	488	-11.0	-32.5	355	12	
2025-08-17T00:00	6060	487	-11.2	-32.8	356	12	
2025-08-17T00:00	6080	486	-11.4	-31.9	357	12	
2025-08-17T00:00	6100	484	-11.6	-31.2	358	12	
2025-08-17T00:00	6120	483	-11.8	-30.0	360	12	
2025-08-17T00:00	6140	482	-11.9	-28.2	1	12	
2025-08-17T00:00	6160	480	-12.1	-27.1	2	12	
2025-08-17T00:00	6180	479	-12.3	-26.9	3	12	
2025-08-17T00:00	6200	478	-12.4	-26.5	4	13	
2025-08-17T00:00	6220	477	-12.6	-26.4	5	13	
2025-08-17T00:00	6240	475	-12.8	-26.2	6	13	
2025-08-17T00:00	6260	474	-13.0	-26.1	6	13	
2025-08-17T00:00	6280	473	-13.2	-26.0	7	13	
2025-08-17T00:00	6300	472	-13.4	-25.9	7	13	
2025-08-17T00:00	6320	471	-13.5	-25.7	7	13	
2025-08-17T00:00	6340	469	-13.7	-25.6	7	13	
2025-08-17T00:00	6360	468	-13.9	-25.4	7	13	
2025-08-17T00:00	6380	467	-14.1	-25.3	7	14	
2025-08-17T00:00	6400	466	-14.3	-25.1	7	14	
2025-08-17T00:00	6420	464	-14.5	-24.8	7	14	
2025-08-17T00:00	6440	463	-14.7	-24.7	7	15	
2025-08-17T00:00	6460	462	-14.8	-24.6	8	15	
2025-08-17T00:00	6480	461	-15.0	-24.1	8	15	
2025-08-17T00:00	6500	459	-15.2	-23.9	8	15	
2025-08-17T00:00	6520	458	-15.3	-23.8	8	15	
2025-08-17T00:00	6540	457	-15.4	-24.0	8	15	
2025-08-17T00:00	6560	456	-15.6	-24.3	8	15	
2025-08-17T00:00	6580	455	-15.7	-24.4	8	15	
2025-08-17T00:00	6600	453	-15.8	-24.8	7	15	
2025-08-17T00:00	6620	452	-16.0	-24.9	7	15	
2025-08-17T00:00	6640	451	-16.2	-24.8	6	15	
2025-08-17T00:00	6660	450	-16.3	-25.2	5	15	
2025-08-17T00:00	6680	449	-16.4	-25.4	4	15	
2025-08-17T00:00	6700	447	-16.6	-25.1	3	16	
2025-08-17T00:00	6720	446	-16.7	-25.5	2	16	
2025-08-17T00:00	6740	445	-16.9	-25.5	2	16	
2025-08-17T00:00	6760	444	-17.0	-25.5	1	16	
2025-08-17T00:00	6780	443	-17.2	-26.0	1	17	
2025-08-17T00:00	6800	441	-17.4	-26.5	2	17	
2025-08-17T00:00	6820	440	-17.5	-27.4	2	17	
2025-08-17T00:00	6840	439	-17.6	-27.6	2	17	
2025-08-17T00:00	6860	438	-17.8	-27.8	2	17	
2025-08-17T00:00	6880	437	-17.9	-26.6	2	17	
2025-08-17T00:00	6900	436	-18.1	-25.5	2	17	
2025-08-17T00:00	6920	434	-18.3	-25.6	2	16	
2025-08-17T00:00	6940	433	-18.5	-25.6	1	16	
2025-08-17T00:00	6960	432	-18.7	-25.7	1	16	
2025-08-17T00:00	6980	431	-18.9	-25.9	1	16	
2025-08-17T00:00	7000	430	-19.0	-25.9	1	16	
2025-08-17T00:00	7020	429	-19.2	-25.9	2	16	
2025-08-17T00:00	7040	427	-19.4	-25.5	3	16	
2025-08-17T00:00	7060	426	-19.6	-25.4	3	16	
2025-08-17T00:00	7080	425	-19.7	-25.2	4	16	
2025-08-17T00:00	7100	424	-19.8	-25.4	5	16	
2025-08-17T00:00	7120	423	-19.9	-25.7	5	16	
2025-08-17T00:00	7140	422	-20.1	-26.0	5	16	
2025-08-17T00:00	7160	421	-20.3	-26.1	5	16	
2025-08-17T00:00	7180	419	-20.4	-26.2	4	16	
2025-08-17T00:00	7200	418	-20.5	-26.1	4	16	
2025-08-17T00:00	7220	417	-20.6	-26.6	3	16	
2025-08-17T00:00	7240	416	-20.8	-26.6	3	16	
2025-08-17T00:00	7260	415	-20.9	-26.7	3	16	
2025-08-17T00:00	7280	414	-21.0	-27.1	3	16	
2025-08-17T00:00	7300	413	-21.2	-27.2	3	15	
2025-08-17T00:00	7320	412	-21.3	-27.4	4	15	
2025-08-17T00:00	7340	411	-21.4	-27.7	4	15	
2025-08-17T00:00	7360	409	-21.6	-28.2	4	15	
2025-08-17T00:00	7380	408	-21.7	-28.6	4	15	
2025-08-17T00:00	7400	407	-21.8	-28.7	4	15	
2025-08-17T00:00	7420	406	-22.0	-28.8	4	16	
2025-08-17T00:00	7440	405	-22.2	-28.8	4	16	
2025-08-17T00:00	7460	404	-22.4	-29.0	4	16	
2025-08-17T00:00	7480	403	-22.5	-29.2	4	16	
2025-08-17T00:00	7500	402	-22.7	-29.6	5	16	
2025-08-17T00:00	7520	401	-22.8	-29.9	5	16	
2025-08-17T00:00	7540	400	-23.0	-30.2	5	16	
2025-08-17T00:00	7560	398	-23.2	-30.3	5	16	
2025-08-17T00:00	7580	397	-23.3	-30.3	5	16	
2025-08-17T00:00	7600	396	-23.5	-30.3	5	16	
2025-08-17T00:00	7620	395	-23.7	-30.3	5	16	
2025-08-17T00:00	7640	394	-23.9	-30.5	4	16	
2025-08-17T00:00	7660	393	-24.0	-30.9	3	16	
2025-08-17T00:00	7680	392	-24.2	-31.1	2	16	
2025-08-17T00:00	7700	391	-24.4	-31.5	2	16	
2025-08-17T00:00	7720	390	-24.5	-31.8	1	16	
2025-08-17T00:00	7740	389	-24.7	-32.3	0	16	
2025-08-17T00:00	7760	388	-24.9	-32.6	0	16	
2025-08-17T00:00	7780	387	-25.0	-32.8	360	17	
2025-08-17T00:00	7800	385	-25.2	-32.9	360	17	
2025-08-17T00:00	7820	384	-25.4	-33.0	0	17	
2025-08-17T00:00	7840	383	-25.6	-33.2	0	16	
2025-08-17T00:00	7860	382	-25.7	-33.4	0	16	
2025-08-17T00:00	7880	381	-25.9	-33.4	0	16	
2025-08-17T00:00	7900	380	-26.1	-33.4	0	16	
2025-08-17T00:00	7920	379	-26.3	-33.4	1	16	
2025-08-17T00:00	7940	378	-26.5	-33.5	0	16	
2025-08-17T00:00	7960	377	-26.7	-33.5	0	16	
2025-08-17T00:00	7980	376	-26.9	-33.6	360	16	
2025-08-17T00:00	8000	375	-27.0	-33.8	359	16	
2025-08-17T00:00	8020	374	-27.2	-33.7	358	16	
2025-08-17T00:00	8040	373	-27.4	-33.9	358	16	
2025-08-17T00:00	8060	372	-27.5	-34.1	357	16	
2025-08-17T00:00	8080	371	-27.7	-34.2	357	16	
2025-08-17T00:00	8100	370	-27.8	-34.3	356	16	
2025-08-17T00:00	8120	369	-28.0	-34.9	357	16	
2025-08-17T00:00	8140	368	-28.1	-35.9	357	16	
2025-08-17T00:00	8160	367	-28.2	-36.2	358	16	
2025-08-17T00:00	8180	366	-28.4	-36.4	358	16	
2025-08-17T00:00	8200	365	-28.6	-37.0	358	16	
2025-08-17T00:00	8220	364	-28.7	-37.8	358	16	
2025-08-17T00:00	8240	363	-28.8	-38.7	358	16	
2025-08-17T00:00	8260	362	-28.9	-39.2	357	16	
2025-08-17T00:00	8280	361	-29.1	-39.1	356	16	
2025-08-17T00:00	8300	360	-29.3	-39.2	356	16	
2025-08-17T00:00	8320	359	-29.5	-39.4	355	16	
2025-08-17T00:00	8340	358	-29.6	-39.5	355	16	
2025-08-17T00:00	8360	357	-29.8	-39.6	355	16	
2025-08-17T00:00	8380	356	-30.0	-39.8	356	16	
2025-08-17T00:00	8400	355	-30.1	-40.3	357	16	
2025-08-17T00:00	8420	354	-30.2	-41.0	358	16	
2025-08-17T00:00	8440	353	-30.3	-42.1	359	16	
2025-08-17T00:00	8460	352	-30.4	-42.6	0	16	
2025-08-17T00:00	8480	351	-30.5	-42.9	2	16	
2025-08-17T00:00	8500	350	-30.6	-43.5	3	16	
2025-08-17T00:00	8520	349	-30.7	-43.9	4	17	
2025-08-17T00:00	8540	348	-30.8	-44.0	5	17	
2025-08-17T00:00	8560	347	-31.0	-44.2	6	17	
2025-08-17T00:00	8580	346	-31.1	-44.8	6	18	
2025-08-17T00:00	8600	345	-31.2	-45.5	6	18	
2025-08-17T00:00	8620	344	-31.3	-46.0	6	18	
2025-08-17T00:00	8640	343	-31.4	-46.3	6	18	
2025-08-17T00:00	8660	342	-31.5	-46.7	6	18	
2025-08-17T00:00	8680	341	-31.7	-46.8	6	18	
2025-08-17T00:00	8700	340	-31.9	-46.8	6	17	
2025-08-17T00:00	8720	339	-32.1	-46.7	6	17	
2025-08-17T00:00	8740	338	-32.3	-46.9	6	17	
2025-08-17T00:00	8760	337	-32.5	-47.4	7	17	
2025-08-17T00:00	8780	336	-32.6	-48.9	8	17	
2025-08-17T00:00	8800	335	-32.7	-51.3	9	17	
2025-08-17T00:00	8820	334	-32.6	-50.8	10	17	
2025-08-17T00:00	8840	333	-32.7	-49.3	11	17	
2025-08-17T00:00	8860	332	-32.9	-49.0	11	18	
2025-08-17T00:00	8880	331	-33.1	-49.2	12	18	
2025-08-17T00:00	8900	330	-33.3	-48.9	12	18	
2025-08-17T00:00	8920	329	-33.4	-48.9	12	18	
2025-08-17T00:00	8940	328	-33.6	-49.2	11	18	
2025-08-17T00:00	8960	328	-33.8	-49.2	11	18	
2025-08-17T00:00	8980	327	-34.0	-48.7	10	18	
2025-08-17T00:00	9000	326	-34.2	-47.8	10	18	
2025-08-17T00:00	9020	325	-34.3	-47.2	9	19	
2025-08-17T00:00	9040	324	-34.5	-46.9	8	19	
2025-08-17T00:00	9060	323	-34.7	-46.8	8	19	
2025-08-17T00:00	9080	322	-34.8	-46.7	7	19	
2025-08-17T00:00	9100	321	-35.0	-46.8	7	19	
2025-08-17T00:00	9120	320	-35.2	-46.9	6	19	
2025-08-17T00:00	9140	319	-35.4	-46.9	6	20	
2025-08-17T00:00	9160	318	-35.6	-46.9	6	20	
2025-08-17T00:00	9180	317	-35.8	-46.9	7	20	
2025-08-17T00:00	9200	316	-35.9	-47.0	7	20	
2025-08-17T00:00	9220	316	-36.1	-47.0	7	20	
2025-08-17T00:00	9240	315	-36.3	-47.2	7	20	
2025-08-17T00:00	9260	314	-36.4	-47.4	7	20	
2025-08-17T00:00	9280	313	-36.5	-47.6	7	20	
2025-08-17T00:00	9300	312	-36.7	-48.0	8	20	
2025-08-17T00:00	9320	311	-36.8	-48.2	8	20	
2025-08-17T00:00	9340	310	-37.0	-48.3	9	20	
2025-08-17T00:00	9360	309	-37.2	-48.4	10	20	
2025-08-17T00:00	9380	308	-37.3	-48.9	10	20	
2025-08-17T00:00	9400	308	-37.4	-49.2	11	20	
2025-08-17T00:00	9420	307	-37.6	-49.3	11	20	
2025-08-17T00:00	9440	306	-37.7	-49.3	11	20	
2025-08-17T00:00	9460	305	-37.9	-48.8	10	20	
2025-08-17T00:00	9480	304	-38.1	-48.7	10	20	
2025-08-17T00:00	9500	303	-38.2	-48.8	9	19	
2025-08-17T00:00	9520	302	-38.4	-48.7	9	19	
2025-08-17T00:00	9540	301	-38.5	-49.4	9	19	
2025-08-17T00:00	9560	300	-38.6	-50.3	9	19	
2025-08-17T00:00	9580	300	-38.8	-50.0	9	19	
2025-08-17T00:00	9600	299	-38.9	-49.8	10	19	
2025-08-17T00:00	9620	298	-39.1	-49.8	10	19	
2025-08-17T00:00	9640	297	-39.3	-49.9	11	19	
2025-08-17T00:00	9660	296	-39.5	-50.1	11	19	
2025-08-17T00:00	9680	295	-39.6	-50.0	12	19	
2025-08-17T00:00	9700	294	-39.8	-50.0	12	19	
2025-08-17T00:00	9720	294	-40.0	-49.9	12	19	
2025-08-17T00:00	9740	293	-40.2	-50.0	12	19	
2025-08-17T00:00	9760	292	-40.4	-50.1	12	19	
2025-08-17T00:00	9780	291	-40.6	-50.0	12	20	
2025-08-17T00:00	9800	290	-40.7	-50.1	11	20	
2025-08-17T00:00	9820	289	-40.9	-50.1	11	20	
2025-08-17T00:00	9840	288	-41.1	-50.2	11	20	
2025-08-17T00:00	9860	288	-41.2	-50.2	10	20	
2025-08-17T00:00	9880	287	-41.3	-50.5	10	21	
2025-08-17T00:00	9900	286	-41.5	-50.8	10	21	
2025-08-17T00:00	9920	285	-41.6	-50.9	10	21	
2025-08-17T00:00	9940	284	-41.7	-51.1	10	22	
2025-08-17T00:00	9960	283	-41.9	-51.7	10	22	
2025-08-17T00:00	9980	282	-42.0	-52.0	9	22	
2025-08-17T00:00	10000	282	-42.1	-52.1	9	22	
2025-08-17T00:00	10018	281	-42.2	-52.2	8	22	
2025-08-17T00:00	10050	280	-42.4	-52.3	8	21	
2025-08-17T00:00	10100	278	-42.8	-53.1	7	21	
2025-08-17T00:00	10150	275	-43.2	-53.1	8	21	
2025-08-17T00:00	10200	273	-43.6	-53.3	8	21	
2025-08-17T00:00	10250	271	-43.9	-53.6	8	20	
2025-08-17T00:00	10300	269	-44.3	-53.9	7	20	
2025-08-17T00:00	10350	267	-44.8	-54.1	6	20	
2025-08-17T00:00	10400	265	-45.2	-54.4	5	20	
2025-08-17T00:00	10450	263	-45.5	-55.1	6	20	
2025-08-17T00:00	10500	262	-45.8	-55.5	6	20	
2025-08-17T00:00	10550	259	-46.3	-55.4	5	20	
2025-08-17T00:00	10600	257	-46.8	-55.6	3	20	
2025-08-17T00:00	10650	256	-47.0	-56.6	1	20	
2025-08-17T00:00	10700	254	-47.4	-57.0	359	19	
2025-08-17T00:00	10750	252	-47.7	-57.2	356	19	
2025-08-17T00:00	10800	250	-48.1	-57.5	355	20	
2025-08-17T00:00	10850	248	-48.4	-57.7	356	20	
2025-08-17T00:00	10900	246	-48.8	-58.2	356	21	
2025-08-17T00:00	10950	244	-48.7	-59.5	356	21	
2025-08-17T00:00	11000	242	-48.8	-59.6	356	21	
2025-08-17T00:00	11050	240	-49.1	-59.9	357	20	
2025-08-17T00:00	11100	239	-49.5	-60.0	357	20	
2025-08-17T00:00	11150	237	-49.9	-59.9	356	19	
2025-08-17T00:00	11200	235	-50.2	-60.7	355	18	
2025-08-17T00:00	11250	233	-50.3	-61.2	354	18	
2025-08-17T00:00	11300	231	-50.7	-61.4	352	18	
2025-08-17T00:00	11350	230	-51.0	-62.2	349	18	
2025-08-17T00:00	11400	228	-51.1	-63.6	345	19	
2025-08-17T00:00	11450	226	-51.2	-64.5	342	19	
2025-08-17T00:00	11500	224	-51.5	-64.8	341	19	
2025-08-17T00:00	11550	223	-51.6	-65.1	342	20	
2025-08-17T00:00	11600	221	-51.9	-65.4	344	20	
2025-08-17T00:00	11650	219	-51.9	-65.7	346	21	
2025-08-17T00:00	11700	218	-52.2	-65.7	348	21	
2025-08-17T00:00	11750	216	-52.2	-66.1	351	21	
2025-08-17T00:00	11800	214	-52.3	-66.9	354	20	
2025-08-17T00:00	11850	213	-52.5	-67.1	356	19	
2025-08-17T00:00	11900	211	-52.5	-67.5	356	17	
2025-08-17T00:00	11950	209	-52.3	-68.5	354	16	
2025-08-17T00:00	12000	208	-52.2	-69.1	350	16	
2025-08-17T00:00	12050	206	-52.5	-69.7	347	17	
2025-08-17T00:00	12100	205	-52.9	-69.8	346	18	
2025-08-17T00:00	12150	203	-53.3	-69.9	344	19	
2025-08-17T00:00	12200	201	-53.7	-70.6	342	20	
2025-08-17T00:00	12250	200	-53.6	-72.3	340	21	
2025-08-17T00:00	12300	198	-52.2	-73.4	337	22	
2025-08-17T00:00	12350	197	-51.8	-74.2	335	22	
2025-08-17T00:00	12400	195	-51.8	-75.0	334	22	
2025-08-17T00:00	12450	194	-52.0	-75.2	334	22	
2025-08-17T00:00	12500	192	-52.2	-75.3	334	21	
2025-08-17T00:00	12550	191	-52.0	-74.8	334	21	
2025-08-17T00:00	12600	189	-52.1	-72.9	332	21	
2025-08-17T00:00	12650	188	-51.9	-72.9	330	21	
2025-08-17T00:00	12700	186	-51.2	-74.7	328	21	
2025-08-17T00:00	12750	185	-51.2	-79.3	327	22	
2025-08-17T00:00	12800	184	-51.4	-79.8	330	22	
2025-08-17T00:00	12850	182	-51.5	-79.5	332	22	
2025-08-17T00:00	12900	181	-51.5	-79.4	332	21	
2025-08-17T00:00	12950	179	-51.7	-79.6	330	21	
2025-08-17T00:00	13000	178	-51.6	-79.7	328	20	
2025-08-17T00:00	13050	177	-51.6	-79.9	328	21	
2025-08-17T00:00	13100	175	-51.8	-79.9	328	21	
2025-08-17T00:00	13150	174	-52.0	-79.9	327	21	
2025-08-17T00:00	13200	173	-52.0	-80.0	327	21	
2025-08-17T00:00	13250	171	-51.7	-80.1	329	21	
2025-08-17T00:00	13300	170	-51.6	-80.1	331	20	
2025-08-17T00:00	13350	169	-51.4	-80.3	330	20	
2025-08-17T00:00	13400	167	-51.3	-80.0	328	20	
2025-08-17T00:00	13450	166	-51.6	-79.4	327	21	
2025-08-17T00:00	13500	165	-52.1	-79.1	327	21	
2025-08-17T00:00	13550	164	-52.5	-78.9	329	21	
2025-08-17T00:00	13600	162	-52.9	-79.3	331	21	
2025-08-17T00:00	13650	161	-53.2	-79.7	330	22	
2025-08-17T00:00	13700	160	-53.5	-78.3	329	22	
2025-08-17T00:00	13750	159	-53.7	-76.7	328	22	
2025-08-17T00:00	13800	157	-53.8	-76.7	327	22	
2025-08-17T00:00	13850	156	-53.7	-76.9	326	22	
2025-08-17T00:00	13900	155	-54.0	-77.0	326	23	
2025-08-17T00:00	13950	154	-54.4	-77.2	327	22	
2025-08-17T00:00	14000	152	-54.7	-77.4	328	22	
2025-08-17T00:00	14050	151	-54.8	-77.5	327	21	
2025-08-17T00:00	14100	150	-55.1	-77.6	325	21	
2025-08-17T00:00	14150	149	-55.1	-77.7	322	20	
2025-08-17T00:00	14200	148	-55.2	-77.7	321	20	
2025-08-17T00:00	14250	147	-55.5	-77.9	320	21	
2025-08-17T00:00	14300	145	-55.7	-78.3	319	22	
2025-08-17T00:00	14350	144	-55.9	-79.2	320	23	
2025-08-17T00:00	14400	143	-55.8	-80.0	323	22	
2025-08-17T00:00	14450	142	-55.5	-80.2	328	21	
2025-08-17T00:00	14500	141	-55.3	-80.4	334	20	
2025-08-17T00:00	14550	140	-55.3	-80.5	338	19	
2025-08-17T00:00	14600	139	-55.3	-80.6	339	17	
2025-08-17T00:00	14650	138	-55.0	-80.8	333	14	
2025-08-17T00:00	14700	137	-54.7	-81.4	322	13	
2025-08-17T00:00	14750	136	-54.1	-82.0	313	13	
2025-08-17T00:00	14800	134	-54.1	-82.4	307	13	
2025-08-17T00:00	14850	133	-54.1	-82.5	305	13	
2025-08-17T00:00	14900	132	-53.4	-82.3	303	12	
2025-08-17T00:00	14950	131	-53.0	-82.1	300	12	
2025-08-17T00:00	15000	130	-53.1	-81.9	299	13	
2025-08-17T00:00	15050	129	-53.3	-81.8	298	13	
2025-08-17T00:00	15100	128	-53.6	-81.9	297	13	
2025-08-17T00:00	15150	127	-54.0	-82.0	296	13	
2025-08-17T00:00	15200	126	-54.5	-82.1	295	14	
2025-08-17T00:00	15250	125	-55.0	-82.2	295	15	
2025-08-17T00:00	15300	124	-55.3	-82.3	294	15	
2025-08-17T00:00	15350	123	-55.6	-82.4	294	16	
2025-08-17T00:00	15400	122	-55.9	-82.5	296	16	
2025-08-17T00:00	15450	122	-56.2	-82.6	299	16	
2025-08-17T00:00	15500	121	-56.4	-82.9	302	16	
2025-08-17T00:00	15550	120	-56.3	-83.1	306	15	
2025-08-17T00:00	15600	119	-56.2	-83.2	311	14	
2025-08-17T00:00	15650	118	-56.4	-83.4	316	13	
2025-08-17T00:00	15700	117	-56.3	-83.4	318	12	
2025-08-17T00:00	15750	116	-56.3	-83.3	317	11	
2025-08-17T00:00	15800	115	-56.6	-83.3	316	11	
2025-08-17T00:00	15850	114	-57.0	-83.4	314	10	
2025-08-17T00:00	15900	113	-57.4	-83.5	311	9	
2025-08-17T00:00	15950	112	-57.8	-83.6	306	9	
2025-08-17T00:00	16000	111	-58.1	-83.7	300	9	
2025-08-17T00:00	16050	111	-58.2	-83.9	297	9	
2025-08-17T00:00	16100	110	-58.3	-83.9	296	10	
2025-08-17T00:00	16150	109	-58.5	-84.0	298	12	
2025-08-17T00:00	16200	108	-58.7	-84.1	302	13	
2025-08-17T00:00	16250	107	-58.7	-84.2	307	14	
2025-08-17T00:00	16300	106	-58.3	-84.1	312	16	
2025-08-17T00:00	16350	105	-58.1	-84.1	314	17	
2025-08-17T00:00	16400	105	-57.9	-84.0	315	18	
2025-08-17T00:00	16450	104	-58.2	-84.1	315	18	
2025-08-17T00:00	16500	103	-58.6	-84.2	318	18	
2025-08-17T00:00	16550	102	-58.6	-84.3	323	18	
2025-08-17T00:00	16600	101	-58.4	-84.5	329	17	
2025-08-17T00:00	16650	100	-58.0	-84.6	335	16	
2025-08-17T00:00	16700	100	-57.8	-84.6	340	14	
2025-08-17T00:00	16750	99	-57.8	-84.7	345	13	
2025-08-17T00:00	16800	98	-57.8	-84.6	350	11	
2025-08-17T00:00	16850	97	-58.0	-84.7	356	9	
2025-08-17T00:00	16900	97	-58.3	-84.8	2	7	
2025-08-17T00:00	16950	96	-58.5	-84.9	7	6	
2025-08-17T00:00	17000	95	-58.7	-84.9	12	4	
2025-08-17T00:00	17050	94	-58.9	-85.0	24	2	
2025-08-17T00:00	17100	94	-59.1	-85.2	66	1	
2025-08-17T00:00	17150	93	-59.3	-85.2	83	0	
2025-08-17T00:00	17200	92	-59.3	-85.2	33	1	
2025-08-17T00:00	17250	91	-59.6	-85.3	18	3	
2025-08-17T00:00	17300	91	-59.9	-85.4	10	4	
2025-08-17T00:00	17350	90	-60.1	-85.5	6	4	
2025-08-17T00:00	17400	89	-60.2	-85.5	1	4	
2025-08-17T00:00	17450	88	-60.3	-85.5	346	3	
2025-08-17T00:00	17500	88	-60.3	-85.6	328	4	
2025-08-17T00:00	17550	87	-60.3	-85.4	310	4	
2025-08-17T00:00	17600	86	-60.6	-85.5	295	4	
2025-08-17T00:00	17650	86	-61.0	-85.6	283	4	
2025-08-17T00:00	17700	85	-61.4	-85.6	275	4	
2025-08-17T00:00	17750	84	-61.8	-85.7	275	5	
2025-08-17T00:00	17800	84	-62.3	-85.8	280	5	
2025-08-17T00:00	17850	83	-62.6	-86.0	288	7	
2025-08-17T00:00	17900	82	-62.2	-86.2	296	8	
2025-08-17T00:00	17950	82	-61.6	-86.4	306	9	
2025-08-17T00:00	18000	81	-60.7	-86.4	318	8	
2025-08-17T00:00	18050	80	-60.0	-86.3	332	7	
2025-08-17T00:00	18100	80	-60.0	-86.3	346	7	
2025-08-17T00:00	18150	79	-60.1	-86.2	1	6	
2025-08-17T00:00	18200	78	-60.3	-86.3	18	5	
2025-08-17T00:00	18250	78	-60.4	-86.4	35	4	
2025-08-17T00:00	18300	77	-60.4	-86.3	40	4	
2025-08-17T00:00	18350	77	-60.5	-86.3	31	4	
2025-08-17T00:00	18400	76	-60.8	-86.4	16	4	
2025-08-17T00:00	18450	75	-61.1	-86.6	360	5	
2025-08-17T00:00	18500	75	-61.1	-86.6	350	5	
2025-08-17T00:00	18550	74	-61.0	-86.7	346	5	
2025-08-17T00:00	18600	73	-60.7	-86.7	345	4	
2025-08-17T00:00	18650	73	-61.0	-86.7	336	3	
2025-08-17T00:00	18700	72	-61.3	-86.8	311	3	
2025-08-17T00:00	18750	72	-61.4	-87.0	281	4	
2025-08-17T00:00	18800	71	-61.3	-87.0	268	5	
2025-08-17T00:00	18850	71	-61.0	-87.0	269	5	
2025-08-17T00:00	18900	70	-61.0	-87.2	282	5	
2025-08-17T00:00	18950	69	-60.6	-87.1	295	6	
2025-08-17T00:00	19000	69	-60.5	-87.0	300	6	
2025-08-17T00:00	19050	68	-60.7	-87.0	302	6	
2025-08-17T00:00	19100	68	-60.7	-87.1	311	6	
2025-08-17T00:00	19150	67	-60.0	-87.1	331	6	
2025-08-17T00:00	19200	67	-59.7	-87.2	356	5	
2025-08-17T00:00	19250	66	-59.1	-86.9	15	6	
2025-08-17T00:00	19300	66	-59.0	-86.7	29	6	
2025-08-17T00:00	19350	65	-59.4	-86.6	39	6	
2025-08-17T00:00	19400	65	-59.8	-86.9	49	6	
2025-08-17T00:00	19450	64	-58.9	-86.6	61	6	
2025-08-17T00:00	19500	64	-58.7	-86.6	71	7	
2025-08-17T00:00	19550	63	-58.9	-86.6	78	7	
2025-08-17T00:00	19600	63	-59.1	-86.5	88	7	
2025-08-17T00:00	19650	62	-59.4	-86.7	96	6	
2025-08-17T00:00	19700	62	-59.2	-86.5	101	6	
2025-08-17T00:00	19750	61	-59.6	-86.7	105	5	
2025-08-17T00:00	19800	61	-59.8	-86.8	108	4	
2025-08-17T00:00	19850	60	-59.7	-86.8	111	3	
2025-08-17T00:00	19900	60	-59.3	-86.8	114	3	
2025-08-17T00:00	19950	59	-59.2	-86.8	110	3	
2025-08-17T00:00	20000	59	-59.0	-86.8	100	3	
2025-08-17T00:00	20050	58	-58.9		90	4	
2025-08-17T00:00	20100	58	-59.0		84	5	
2025-08-17T00:00	20150	57	-59.0		83	5	
2025-08-17T00:00	20200	57	-59.2		88	5	
2025-08-17T00:00	20250	56	-59.1		100	5	
2025-08-17T00:00	20300	56	-58.7		115	4	
2025-08-17T00:00	20350	56	-58.8		118	4	
2025-08-17T00:00	20400	55	-58.4		107	4	
2025-08-17T00:00	20450	55	-58.3		94	4	
2025-08-17T00:00	20500	54	-58.1		88	5	
2025-08-17T00:00	20550	54	-57.6		89	6	
2025-08-17T00:00	20600	53	-57.6		93	7	
2025-08-17T00:00	20650	53	-57.7		96	7	
2025-08-17T00:00	20700	53	-58.0		98	8	
2025-08-17T00:00	20750	52	-57.9		100	8	
2025-08-17T00:00	20800	52	-58.2		105	8	
2025-08-17T00:00	20850	51	-58.5		110	7	
2025-08-17T00:00	20900	51	-58.7		111	6	
2025-08-17T00:00	20950	50	-58.5		108	5	
2025-08-17T00:00	21000	50	-58.3		98	4	
2025-08-17T00:00	21050	50	-57.6		76	3	
2025-08-17T00:00	21100	49	-57.7		52	3	
2025-08-17T00:00	21150	49	-57.8		36	3	
2025-08-17T00:00	21200	49	-57.7		31	4	
2025-08-17T00:00	21250	48	-57.5		36	4	
2025-08-17T00:00	21300	48	-57.5		47	3	
2025-08-17T00:00	21350	47	-57.7		56	3	
2025-08-17T00:00	21400	47	-57.9		56	4	
2025-08-17T00:00	21450	47	-57.9		55	4	
2025-08-17T00:00	21500	46	-57.9		56	4	
2025-08-17T00:00	21550	46	-57.7		60	5	
2025-08-17T00:00	21600	46	-57.6		62	5	
2025-08-17T00:00	21650	45	-57.6		63	5	
2025-08-17T00:00	21700	45	-57.6		68	5	
2025-08-17T00:00	21750	44	-57.6		79	4	
2025-08-17T00:00	21800	44	-57.6		87	3	
2025-08-17T00:00	21850	44	-57.8		68	3	
2025-08-17T00:00	21900	43	-57.6		45	4	
2025-08-17T00:00	21950	43	-57.5		41	6	
2025-08-17T00:00	22000	43	-57.6		46	7	
2025-08-17T00:00	22050	42	-57.4		53	8	
2025-08-17T00:00	22100	42	-56.8		59	8	
2025-08-17T00:00	22150	42	-56.3		66	8	
2025-08-17T00:00	22200	41	-55.9		75	8	
2025-08-17T00:00	22250	41	-55.8		79	9	
2025-08-17T00:00	22300	41	-55.6		78	10	
2025-08-17T00:00	22350	40	-55.6		78	10	
2025-08-17T00:00	22400	40	-55.5		80	10	
2025-08-17T00:00	22450	40	-55.7		82	9	
2025-08-17T00:00	22500	40	-55.8		85	8	
2025-08-17T00:00	22550	39	-55.9		87	6	
2025-08-17T00:00	22600	39	-56.1		86	5	
2025-08-17T00:00	22650	39	-56.1		81	5	
2025-08-17T00:00	22700	38	-55.9		74	5	
2025-08-17T00:00	22750	38	-55.9		68	5	
2025-08-17T00:00	22800	38	-55.9		63	5	
2025-08-17T00:00	22850	37	-56.0		56	5	
2025-08-17T00:00	22900	37	-56.1		54	6	
2025-08-17T00:00	22950	37	-55.9		59	7	
2025-08-17T00:00	23000	37	-55.9		70	7	
2025-08-17T00:00	23050	36	-55.9		83	8	
2025-08-17T00:00	23100	36	-56.1		93	9	
2025-08-17T00:00	23150	36	-56.3		99	9	
2025-08-17T00:00	23200	35	-56.0		103	8	
2025-08-17T00:00	23250	35	-55.4		103	6	
2025-08-17T00:00	23300	35	-55.1		97	6	
2025-08-17T00:00	23350	35	-54.9		88	6	
2025-08-17T00:00	23400	34	-54.7		85	7	
2025-08-17T00:00	23450	34	-54.3		90	7	
2025-08-17T00:00	23500	34	-54.0		95	7	
2025-08-17T00:00	23550	33	-53.9		94	6	
2025-08-17T00:00	23600	33	-53.3		85	5	
2025-08-17T00:00	23650	33	-52.9		70	5	
2025-08-17T00:00	23700	33	-52.7		56	6	
2025-08-17T00:00	23750	32	-52.7		50	7	
2025-08-17T00:00	23800	32	-52.5		52	9	
2025-08-17T00:00	23850	32	-52.0		58	10	
2025-08-17T00:00	23900	32	-51.8		64	11	
2025-08-17T00:00	23950	31	-52.0		71	11	
2025-08-17T00:00	24000	31	-52.1		78	10	
2025-08-17T00:00	24050	31	-52.2		83	10	
2025-08-17T00:00	24100	31	-52.3		89	10	
2025-08-17T00:00	24150	31	-52.0		94	10	
2025-08-17T00:00	24200	30	-51.8		96	11	
2025-08-17T00:00	24250	30	-51.6		96	11	
2025-08-17T00:00	24300	30	-51.7		95	11	
2025-08-17T00:00	24350	30	-51.8		97	11	
2025-08-17T00:00	24400	29	-51.7		103	10	
2025-08-17T00:00	24450	29	-51.8		111	9	
2025-08-17T00:00	24500	29	-52.0		118	9	
2025-08-17T00:00	24550	29	-52.2		122	8	
2025-08-17T00:00	24600	28	-52.1		125	7	
2025-08-17T00:00	24650	28	-52.2		128	6	
2025-08-17T00:00	24700	28	-52.2		131	5	
2025-08-17T00:00	24750	28	-52.5		132	5	
2025-08-17T00:00	24800	28	-52.5		129	4	
2025-08-17T00:00	24850	27	-52.4		115	3	
2025-08-17T00:00	24900	27	-52.1		86	3	
2025-08-17T00:00	24950	27	-51.8		61	4	
2025-08-17T00:00	25000	27	-51.4		52	5	
2025-08-17T00:00	25050	27	-51.0		51	5	
2025-08-17T00:00	25100	26	-50.8		54	5	
2025-08-17T00:00	25150	26	-50.4		62	6	
2025-08-17T00:00	25200	26	-50.4		71	6	
2025-08-17T00:00	25250	26	-50.4		78	6	
2025-08-17T00:00	25300	26	-50.6		80	7	
2025-08-17T00:00	25350	25	-50.8		79	7	
2025-08-17T00:00	25400	25	-51.1		79	8	
2025-08-17T00:00	25450	25	-51.2		82	9	
2025-08-17T00:00	25500	25	-51.2		86	9	
2025-08-17T00:00	25550	25	-51.4		88	10	
2025-08-17T00:00	25600	24	-51.6		89	10	
2025-08-17T00:00	25650	24	-51.9		89	11	
2025-08-17T00:00	25700	24	-52.3		90	11	
2025-08-17T00:00	25750	24	-52.6		90	10	
2025-08-17T00:00	25800	24	-52.8		89	10	
2025-08-17T00:00	25850	24	-53.0		87	11	
2025-08-17T00:00	25900	23	-53.3		87	11	
2025-08-17T00:00	25950	23	-53.4		89	11	
2025-08-17T00:00	26000	23	-53.5		92	11	
2025-08-17T00:00	26050	23	-53.3		96	11	
2025-08-17T00:00	26100	23	-52.6		99	11	
2025-08-17T00:00	26150	22	-51.9		103	11	
2025-08-17T00:00	26200	22	-51.1		109	11	
2025-08-17T00:00	26250	22	-51.1		114	11	
2025-08-17T00:00	26300	22	-50.8		117	11	
2025-08-17T00:00	26350	22	-50.7		117	10	
2025-08-17T00:00	26400	22	-50.8		119	10	
2025-08-17T00:00	26450	21	-50.5		121	9	
2025-08-17T00:00	26500	21	-50.2		120	8	
2025-08-17T00:00	26550	21	-50.1		115	8	
2025-08-17T00:00	26600	21	-49.7		109	8	
2025-08-17T00:00	26650	21	-49.2		104	7	
2025-08-17T00:00	26700	21	-49.1		98	6	
2025-08-17T00:00	26750	20	-49.0		90	6	
2025-08-17T00:00	26800	20	-48.7		85	7	
2025-08-17T00:00	26850	20	-48.5		83	8	
2025-08-17T00:00	26900	20	-47.9		87	8	
2025-08-17T00:00	26950	20	-47.7		94	9	
2025-08-17T00:00	27000	20	-47.7		102	9	
2025-08-17T00:00	27050	20	-47.7		107	9	
2025-08-17T00:00	27100	19	-47.3		110	7	
2025-08-17T00:00	27150	19	-47.2		111	6	
2025-08-17T00:00	27200	19	-47.3		109	5	
2025-08-17T00:00	27250	19	-47.5		105	3	
2025-08-17T00:00	27300	19	-47.5		96	2	
2025-08-17T00:00	27350	19	-47.2		86	3	
2025-08-17T00:00	27400	19	-47.1		81	3	
2025-08-17T00:00	27450	18	-47.0		78	3	
2025-08-17T00:00	27500	18	-47.1		73	3	
2025-08-17T00:00	27550	18	-47.2		63	3	
2025-08-17T00:00	27600	18	-47.4		45	2	
2025-08-17T00:00	27650	18	-47.6		28	2	
2025-08-17T00:00	27700	18	-47.6		25	2	
2025-08-17T00:00	27750	18	-47.4		31	2	
2025-08-17T00:00	27800	17	-47.2		42	2	
2025-08-17T00:00	27850	17	-47.0		51	2	
2025-08-17T00:00	27900	17	-46.7		55	2	
2025-08-17T00:00	27950	17	-46.5		62	2	
2025-08-17T00:00	28000	17	-46.6		77	2	
2025-08-17T00:00	28050	17	-46.7		86	2	
2025-08-17T00:00	28100	17	-46.4		75	2	
2025-08-17T00:00	28150	17	-46.4		44	2	
2025-08-17T00:00	28200	16	-46.0		30	3	
2025-08-17T00:00	28250	16	-45.8		31	4	
2025-08-17T00:00	28300	16	-45.8		40	4	
2025-08-17T00:00	28350	16	-45.5		56	5	
2025-08-17T00:00	28400	16	-45.0		78	4	
2025-08-17T00:00	28450	16	-44.5		103	4	
2025-08-17T00:00	28500	16	-44.4		123	4	
2025-08-17T00:00	28550	16	-44.1		133	4	
2025-08-17T00:00	28600	15	-44.1		128	4	
2025-08-17T00:00	28650	15	-43.9		101	3	
2025-08-17T00:00	28700	15	-43.9		73	4	
2025-08-17T00:00	28750	15	-43.8		61	4	
2025-08-17T00:00	28800	15	-43.6		57	5	
2025-08-17T00:00	28850	15	-43.6		59	5	
2025-08-17T00:00	28900	15	-43.7		62	6	
2025-08-17T00:00	28950	15	-43.5		66	7	
2025-08-17T00:00	29000	15	-43.5		69	7	
2025-08-17T00:00	29050	14	-43.5		71	8	
2025-08-17T00:00	29100	14	-43.7		74	9	
2025-08-17T00:00	29150	14	-44.0		76	9	
2025-08-17T00:00	29200	14	-44.1		79	10	
2025-08-17T00:00	29250	14	-44.2		82	11	
2025-08-17T00:00	29300	14	-44.1		86	12	
2025-08-17T00:00	29350	14	-43.7		91	12	
2025-08-17T00:00	29400	14	-43.5		95	12	
2025-08-17T00:00	29450	14	-43.4		100	11	
2025-08-17T00:00	29500	14	-43.6		103	9	
2025-08-17T00:00	29550	13	-43.5		104	8	
2025-08-17T00:00	29600	13	-43.4		104	8	
2025-08-17T00:00	29650	13	-43.2		100	8	
2025-08-17T00:00	29700	13	-43.2		92	7	
2025-08-17T00:00	29750	13	-43.1		82	7	
2025-08-17T00:00	29800	13	-42.7		78	8	
2025-08-17T00:00	29850	13	-42.5		85	8	
2025-08-17T00:00	29900	13	-42.3		93	9	
2025-08-17T00:00	29950	13	-42.4		97	9	
2025-08-17T00:00	30000	13	-42.3		95	9	
2025-08-17T00:00	30050	12	-42.2		90	9	
2025-08-17T00:00	30100	12	-42.1		84	10	
2025-08-17T00:00	30150	12	-42.0		83	11	
2025-08-17T00:00	30200	12	-41.8		87	12	
2025-08-17T00:00	30250	12	-41.6		95	12	
2025-08-17T00:00	30300	12	-41.7		102	13	
2025-08-17T00:00	30350	12	-42.0		105	13	
2025-08-17T00:00	30400	12	-42.2		106	12	
2025-08-17T00:00	30450	12	-42.2		104	12	
2025-08-17T00:00	30500	12	-42.2		100	12	
2025-08-17T00:00	30550	12	-42.1		97	12	
2025-08-17T00:00	30600	11	-42.1		94	12	
2025-08-17T00:00	30650	11	-42.0		92	13	
2025-08-17T00:00	30700	11	-42.0		91	13	
2025-08-17T00:00	30750	11	-42.2		94	14	
2025-08-17T00:00	30800	11	-42.4		98	14	
2025-08-17T00:00	30850	11	-42.4		102	14	
2025-08-17T00:00	30900	11	-42.3		108	14	
2025-08-17T00:00	30950	11	-42.3		113	14	
2025-08-17T00:00	31000	11	-42.4		118	13	
2025-08-17T00:00	31050	11	-42.5		121	12	
2025-08-17T00:00	31100	11	-42.4		122	11	
2025-08-17T00:00	31150	11	-42.0		118	10	
2025-08-17T00:00	31200	11	-42.0		112	10	
2025-08-17T00:00	31250	10	-41.9		105	10	
2025-08-17T00:00	31300	10	-41.9		99	10	
2025-08-17T00:00	31350	10	-41.9		98	10	
2025-08-17T00:00	31400	10	-41.8		101	9	
2025-08-17T00:00	31450	10	-41.7		106	9	
2025-08-17T00:00	31500	10	-41.6		108	8	
2025-08-17T00:00	31550	10	-41.3		106	7	
2025-08-17T00:00	31600	10	-41.0		99	7	
2025-08-17T00:00	31650	10	-40.5		92	8	
2025-08-17T00:00	31700	10	-40.4		87	8	
2025-08-17T00:00	31750	10	-40.6		86	9	
2025-08-17T00:00	31800	10	-40.8		86	9	
2025-08-17T00:00	31850	10	-41.1		84	9	
2025-08-17T00:00	31900	9	-41.2		81	9	
2025-08-17T00:00	31950	9	-41.3		78	8	
2025-08-17T00:00	32000	9	-41.4		79	7	
2025-08-17T00:00	32050	9	-41.6		85	6	
2025-08-17T00:00	32100	9	-41.7		93	5	
2025-08-17T00:00	32150	9	-41.8		101	5	
2025-08-17T00:00	32200	9	-41.9		102	4	
2025-08-17T00:00	32250	9	-42.1		88	3	
2025-08-17T00:00	32300	9	-42.1		61	3	
2025-08-17T00:00	32350	9	-42.0		42	4	
2025-08-17T00:00	32400	9	-41.8		36	6	
2025-08-17T00:00	32450	9	-41.7		38	7	
2025-08-17T00:00	32500	9	-41.7		43	8	
2025-08-17T00:00	32550	9	-41.8		49	9	
2025-08-17T00:00	32600	9	-41.9		56	10	
2025-08-17T00:00	32650	8	-41.9		63	10	
2025-08-17T00:00	32700	8	-41.7		68	11	
2025-08-17T00:00	32750	8	-41.5		72	11	
2025-08-17T00:00	32800	8	-41.3		76	12	
2025-08-17T00:00	32850	8	-40.8		80	12	
2025-08-17T00:00	32900	8	-40.5		84	12	
2025-08-17T00:00	32950	8	-40.5		88	11	
2025-08-17T00:00	33000	8	-40.3		90	10	
2025-08-17T00:00	33050	8	-40.2		93	9	
2025-08-17T00:00	33100	8	-40.2		94	9	
2025-08-17T00:00	33150	8	-39.9		93	9	
2025-08-17T00:00	33200	8	-39.6		91	9	
2025-08-17T00:00	33250	8	-39.1		87	9	
2025-08-17T00:00	33300	8	-39.0		83	10	
2025-08-17T00:00	33350	8	-38.9		80	10	
2025-08-17T00:00	33400	8	-38.8		80	11	
2025-08-17T00:00	33450	8	-38.6		81	11	
2025-08-17T00:00	33500	7	-38.4		82	11	
2025-08-17T00:00	33550	7	-38.3		80	11	
2025-08-17T00:00	33600	7	-38.3		78	12	
2025-08-17T00:00	33650	7	-38.4		74	12	
2025-08-17T00:00	33700	7	-38.6		73	14	
2025-08-17T00:00	33750	7	-38.2		74	16	
2025-08-17T00:00	33800	7	-37.3		77	17	
2025-08-17T00:00	33850	7	-37.3		80	18	
2025-08-17T00:00	33900	7	-36.8		82	17	
2025-08-17T00:00	33950	7	-36.6		83	16	
2025-08-17T00:00	34000	7	-36.5		83	16	
2025-08-17T00:00	34050	7	-36.2		81	16	
2025-08-17T00:00	34100	7	-36.0		76	16	
2025-08-17T00:00	34150	7	-36.1		71	17	
2025-08-17T00:00	34200	7	-36.2		68	18	
2025-08-17T00:00	34250	7	-36.3		67	18	
2025-08-17T00:00	34300	7	-36.3		68	17	
2025-08-17T00:00	34350	7	-36.6		70	16	
2025-08-17T00:00	34400	7	-36.9		73	15	
2025-08-17T00:00	34450	7	-37.0		74	16	
2025-08-17T00:00	34500	6	-36.9		74	16	
2025-08-17T00:00	34550	6	-36.8		75	17	
2025-08-17T00:00	34600	6	-36.8		77	17	
2025-08-17T00:00	34650	6	-36.5		80	17	
2025-08-17T00:00	34700	6	-35.8		82	16	
2025-08-17T00:00	34750	6	-35.5		82	15	
2025-08-17T00:00	34800	6	-35.3		79	15	
2025-08-17T00:00	34850	6	-35.0		78	14	
2025-08-17T00:00	34900	6	-34.3		81	14	
2025-08-17T00:00	34950	6	-34.0		86	13	
2025-08-17T00:00	35000	6	-34.2		90	13	
2025-08-17T00:00	35050	6	-34.5		89	12	
2025-08-17T00:00	35100	6	-34.2		85	13	
2025-08-17T00:00	35150	6	-33.6		83	14	
2025-08-17T00:00	35200	6	-33.2		85	16	
2025-08-17T00:00	35250	6	-32.9		87	17	
2025-08-17T00:00	35300	6	-32.8		91	18	
2025-08-17T00:00	35350	6	-32.8		96	18	
2025-08-17T00:00	35400	6	-32.8		101	18	
2025-08-17T00:00	35450	6	-32.4		104	17	
2025-08-17T00:00	35500	6	-32.4		107	17	
2025-08-17T00:00	35550	6	-32.8		110	16	
2025-08-17T00:00	35600	6	-33.0		114	15	
2025-08-17T00:00	35650	6	-33.3		116	14	
2025-08-17T00:00	35700	5	-33.3		114	14	
2025-08-17T00:00	35750	5	-33.3		111	13	
2025-08-17T00:00	35800	5	-33.2		106	13	
2025-08-17T00:00	35850	5	-33.2		99	13	
2025-08-17T00:00	35900	5	-33.0		94	14	
2025-08-17T00:00	35950	5	-32.8		90	15	
2025-08-17T00:00	36000	5	-32.6		87	15	
2025-08-17T00:00	36050	5	-32.5		86	14	
2025-08-17T00:00	36100	5	-32.5		87	13	
2025-08-17T00:00	36150	5	-32.5		90	13	
2025-08-17T00:00	36200	5	-32.6		92	13	
2025-08-17T00:00	36250	5	-32.5		91	13	
2025-08-17T00:00	36300	5	-32.4		87	13	
2025-08-17T00:00	36350	5	-32.2		82	13	
2025-08-17T00:00	36400	5	-31.9		79	14	
2025-08-17T00:00	36450	5	-31.6		82	15	
2025-08-17T00:00	36500	5	-31.2		87	16	
2025-08-17T00:00	36550	5	-31.3		93	16	
2025-08-17T00:00	36600	5	-31.3		96	17	
2025-08-17T00:00	36650	5	-31.2		98	17	
2025-08-17T00:00	36700	5	-31.1		99	16	
2025-08-17T00:00	36750	5	-31.1		99	15	
2025-08-17T00:00	36800	5	-31.2		99	14	
2025-08-17T00:00	36850	5	-31.1		96	13	
2025-08-17T00:00	36900	5	-30.9		92	13	
2025-08-17T00:00	36950	5	-30.7		87	13	
2025-08-17T00:00	37000	5	-30.4		86	14	
2025-08-17T00:00	37050	5	-30.0		87	15	
2025-08-17T00:00	37100	4	-29.7		87	17	
2025-08-17T00:00	37150	4	-29.4		87	18	
2025-08-17T00:00	37200	4	-29.2		87	20	
2025-08-17T00:00	37250	4	-28.9		88	21	
2025-08-17T00:00	37300	4	-28.6		89	22	
2025-08-17T00:00	37350	4	-28.2		90	22	
2025-08-17T00:00	37400	4	-27.7		92	21	
2025-08-17T00:00	37450	4	-27.7		94	21	
2025-08-17T00:00	37500	4	-27.7		97	21	
2025-08-17T00:00	37550	4	-27.4		100	22	
2025-08-17T00:00	37600	4	-27.5		101	22	
2025-08-17T12:00	491	961	26.3	16.0	29	3	
2025-08-17T12:00	501	959	24.1	15.1	30	3	
2025-08-17T12:00	520	957	24.0	15.0	34	3	
2025-08-17T12:00	540	955	24.1	14.9	38	3	
2025-08-17T12:00	560	953	23.7	14.9	41	4	
2025-08-17T12:00	580	951	23.5	14.7	43	4	
2025-08-17T12:00	600	949	22.8	13.7	44	4	
2025-08-17T12:00	620	946	22.6	13.4	44	4	
2025-08-17T12:00	640	944	22.4	13.5	42	5	
2025-08-17T12:00	660	942	22.3	12.7	41	5	
2025-08-17T12:00	680	940	22.2	12.6	39	5	
2025-08-17T12:00	700	938	22.0	12.6	37	5	
2025-08-17T12:00	720	936	21.8	13.1	35	5	
2025-08-17T12:00	740	934	21.6	13.5	34	5	
2025-08-17T12:00	760	932	21.4	13.5	32	5	
2025-08-17T12:00	780	930	21.1	14.0	30	5	
2025-08-17T12:00	800	927	20.8	14.0	29	5	
2025-08-17T12:00	820	925	20.6	13.8	30	5	
2025-08-17T12:00	840	923	20.5	12.7	32	5	
2025-08-17T12:00	860	921	20.6	12.0	34	5	
2025-08-17T12:00	880	919	20.4	12.9	37	5	
2025-08-17T12:00	900	917	20.1	14.1	39	6	
2025-08-17T12:00	920	915	19.9	13.8	42	6	
2025-08-17T12:00	940	913	19.7	13.9	44	6	
2025-08-17T12:00	960	910	19.5	14.1	46	6	
2025-08-17T12:00	980	908	19.2	14.1	50	6	
2025-08-17T12:00	1000	906	19.0	14.1	52	6	
2025-08-17T12:00	1020	904	18.8	14.0	56	6	
2025-08-17T12:00	1040	902	18.6	14.0	58	6	
2025-08-17T12:00	1060	900	18.4	13.6	59	6	
2025-08-17T12:00	1080	897	18.3	13.3	58	6	
2025-08-17T12:00	1100	895	18.1	13.1	56	7	
2025-08-17T12:00	1120	893	17.9	12.9	54	7	
2025-08-17T12:00	1140	891	17.6	13.3	51	7	
2025-08-17T12:00	1160	889	17.4	13.2	48	7	
2025-08-17T12:00	1180	887	17.3	12.8	45	6	
2025-08-17T12:00	1200	885	17.0	13.2	44	6	
2025-08-17T12:00	1220	883	17.0	12.0	43	6	
2025-08-17T12:00	1240	881	17.0	11.4	42	6	
2025-08-17T12:00	1260	879	16.9	11.1	41	6	
2025-08-17T12:00	1280	877	16.7	11.0	40	6	
2025-08-17T12:00	1300	875	16.5	11.0	40	6	
2025-08-17T12:00	1320	873	16.3	10.9	40	6	
2025-08-17T12:00	1340	871	16.1	10.9	40	6	
2025-08-17T12:00	1360	868	15.9	10.7	42	5	
2025-08-17T12:00	1380	866	15.8	10.6	43	5	
2025-08-17T12:00	1400	864	15.6	10.6	44	5	
2025-08-17T12:00	1420	863	15.5	10.5	45	5	
2025-08-17T12:00	1440	861	15.4	10.4	46	5	
2025-08-17T12:00	1460	859	15.3	10.4	47	5	
2025-08-17T12:00	1480	857	15.1	10.3	48	5	
2025-08-17T12:00	1500	854	14.9	10.3	49	5	
2025-08-17T12:00	1520	852	14.7	10.3	50	5	
2025-08-17T12:00	1540	850	14.6	10.2	51	5	
2025-08-17T12:00	1560	848	14.5	10.5	51	5	
2025-08-17T12:00	1580	846	14.2	10.4	51	5	
2025-08-17T12:00	1600	844	14.1	10.2	50	5	
2025-08-17T12:00	1620	842	13.9	10.2	49	4	
2025-08-17T12:00	1640	840	13.7	10.2	48	4	
2025-08-17T12:00	1660	839	13.6	10.5	47	4	
2025-08-17T12:00	1680	837	13.4	10.6	46	4	
2025-08-17T12:00	1700	835	13.2	10.7	46	4	
2025-08-17T12:00	1720	833	13.0	10.7	46	4	
2025-08-17T12:00	1740	831	12.8	10.8	47	4	
2025-08-17T12:00	1760	829	12.6	10.8	47	4	
2025-08-17T12:00	1780	827	12.4	10.7	48	3	
2025-08-17T12:00	1800	825	12.3	10.7	48	3	
2025-08-17T12:00	1820	823	12.2	10.7	48	3	
2025-08-17T12:00	1840	821	12.1	10.5	45	2	
2025-08-17T12:00	1860	819	12.1	10.2	40	2	
2025-08-17T12:00	1880	817	12.0	10.3	25	1	
2025-08-17T12:00	1900	815	11.9	10.1	4	1	
2025-08-17T12:00	1920	813	11.8	10.0	347	2	
2025-08-17T12:00	1940	811	11.7	9.8	338	2	
2025-08-17T12:00	1960	809	11.6	9.5	334	2	
2025-08-17T12:00	1980	807	11.5	9.5	333	3	
2025-08-17T12:00	2000	805	11.5	9.2	334	3	
2025-08-17T12:00	2020	803	11.5	8.8	338	3	
2025-08-17T12:00	2040	802	11.3	8.9	342	3	
2025-08-17T12:00	2060	799	11.2	8.7	348	3	
2025-08-17T12:00	2080	797	11.0	8.6	353	3	
2025-08-17T12:00	2100	796	10.8	8.4	358	3	
2025-08-17T12:00	2120	794	10.7	8.4	1	3	
2025-08-17T12:00	2140	792	10.5	8.2	3	3	
2025-08-17T12:00	2160	790	10.3	8.2	4	3	
2025-08-17T12:00	2180	788	10.2	7.9	5	3	
2025-08-17T12:00	2200	786	10.0	7.8	4	3	
2025-08-17T12:00	2220	784	9.9	7.6	3	3	
2025-08-17T12:00	2240	782	9.8	7.4	1	3	
2025-08-17T12:00	2260	780	9.6	7.3	358	3	
2025-08-17T12:00	2280	779	9.5	7.2	355	2	
2025-08-17T12:00	2300	777	9.4	6.9	352	2	
2025-08-17T12:00	2320	775	9.3	6.3	352	3	
2025-08-17T12:00	2340	773	9.2	5.8	354	3	
2025-08-17T12:00	2360	771	9.0	5.4	358	3	
2025-08-17T12:00	2380	769	8.9	5.2	2	3	
2025-08-17T12:00	2400	767	8.8	5.0	6	3	
2025-08-17T12:00	2420	766	8.8	3.9	12	3	
2025-08-17T12:00	2440	764	8.9	1.7	19	3	
2025-08-17T12:00	2460	762	9.2	-1.9	25	3	
2025-08-17T12:00	2480	760	9.4	-3.5	29	3	
2025-08-17T12:00	2500	758	9.5	-6.4	31	3	
2025-08-17T12:00	2520	756	9.5	-7.2	30	2	
2025-08-17T12:00	2540	755	9.5	-7.9	28	2	
2025-08-17T12:00	2560	753	9.4	-8.6	24	2	
2025-08-17T12:00	2580	751	9.3	-8.9	19	2	
2025-08-17T12:00	2600	749	9.2	-9.1	15	1	
2025-08-17T12:00	2620	747	9.1	-10.5	11	1	
2025-08-17T12:00	2640	746	9.0	-10.6	8	1	
2025-08-17T12:00	2660	744	8.9	-10.1	6	1	
2025-08-17T12:00	2680	742	8.8	-9.7	7	1	
2025-08-17T12:00	2700	740	8.7	-10.0	10	1	
2025-08-17T12:00	2720	738	8.6	-10.0	11	1	
2025-08-17T12:00	2740	737	8.4	-9.6	9	1	
2025-08-17T12:00	2760	735	8.3	-9.2	3	1	
2025-08-17T12:00	2780	733	8.1	-8.9	354	1	
2025-08-17T12:00	2800	731	8.0	-8.5	347	1	
2025-08-17T12:00	2820	730	7.8	-7.2	342	1	
2025-08-17T12:00	2840	728	7.6	-6.2	340	1	
2025-08-17T12:00	2860	726	7.5	-6.0	341	2	
2025-08-17T12:00	2880	724	7.3	-5.9	344	2	
2025-08-17T12:00	2900	723	7.1	-5.8	348	2	
2025-08-17T12:00	2920	721	6.8	-5.7	351	2	
2025-08-17T12:00	2940	719	6.7	-5.7	354	2	
2025-08-17T12:00	2960	717	6.5	-5.8	356	2	
2025-08-17T12:00	2980	715	6.4	-7.0	353	1	
2025-08-17T12:00	3000	714	6.4	-10.4	347	1	
2025-08-17T12:00	3020	712	6.5	-15.1	340	1	
2025-08-17T12:00	3040	710	6.4	-14.9	332	1	
2025-08-17T12:00	3060	709	6.3	-16.3	330	1	
2025-08-17T12:00	3080	707	6.2	-18.0	336	1	
2025-08-17T12:00	3100	705	6.2	-20.3	345	1	
2025-08-17T12:00	3120	703	6.1	-21.4	353	2	
2025-08-17T12:00	3140	702	5.9	-22.0	1	2	
2025-08-17T12:00	3160	700	5.8	-23.8	5	2	
2025-08-17T12:00	3180	698	5.8	-22.9	6	2	
2025-08-17T12:00	3200	696	5.7	-19.8	5	3	
2025-08-17T12:00	3220	695	5.6	-18.1	3	3	
2025-08-17T12:00	3240	693	5.6	-21.7	1	3	
2025-08-17T12:00	3260	691	5.5	-23.4	358	3	
2025-08-17T12:00	3280	690	5.4	-24.6	357	3	
2025-08-17T12:00	3300	688	5.2	-26.0	355	3	
2025-08-17T12:00	3320	686	5.2	-27.7	354	3	
2025-08-17T12:00	3340	685	5.1	-28.7	352	3	
2025-08-17T12:00	3360	683	4.9	-29.4	351	4	
2025-08-17T12:00	3380	681	4.8	-30.6	351	4	
2025-08-17T12:00	3400	680	4.7	-30.7	352	4	
2025-08-17T12:00	3420	678	4.7	-30.1	352	5	
2025-08-17T12:00	3440	676	4.7	-28.8	352	5	
2025-08-17T12:00	3460	675	4.6	-29.0	351	5	
2025-08-17T12:00	3480	673	4.5	-29.1	349	5	
2025-08-17T12:00	3500	671	4.4	-28.2	349	6	
2025-08-17T12:00	3520	669	4.2	-28.0	348	6	
2025-08-17T12:00	3540	668	4.1	-27.9	348	6	
2025-08-17T12:00	3560	666	3.9	-27.8	348	6	
2025-08-17T12:00	3580	665	3.7	-27.6	348	6	
2025-08-17T12:00	3600	663	3.6	-27.7	349	6	
2025-08-17T12:00	3620	661	3.5	-27.5	350	6	
2025-08-17T12:00	3640	660	3.4	-26.4	350	6	
2025-08-17T12:00	3660	658	3.2	-25.2	350	6	
2025-08-17T12:00	3680	657	3.0	-24.4	349	6	
2025-08-17T12:00	3700	655	2.9	-23.4	348	6	
2025-08-17T12:00	3720	653	2.8	-21.5	348	6	
2025-08-17T12:00	3740	652	2.7	-21.2	348	6	
2025-08-17T12:00	3760	650	2.6	-21.8	347	6	
2025-08-17T12:00	3780	648	2.5	-24.4	346	6	
2025-08-17T12:00	3800	647	2.4	-26.2	345	6	
2025-08-17T12:00	3820	645	2.2	-24.7	342	6	
2025-08-17T12:00	3840	644	2.1	-23.6	340	6	
2025-08-17T12:00	3860	642	2.0	-20.5	338	6	
2025-08-17T12:00	3880	640	1.8	-18.4	337	6	
2025-08-17T12:00	3900	639	1.7	-14.7	337	7	
2025-08-17T12:00	3920	637	1.5	-14.9	337	7	
2025-08-17T12:00	3940	636	1.3	-15.0	338	7	
2025-08-17T12:00	3960	634	1.1	-15.2	339	7	
2025-08-17T12:00	3980	632	1.1	-15.9	340	8	
2025-08-17T12:00	4000	631	1.0	-16.0	341	8	
2025-08-17T12:00	4020	629	0.9	-16.7	342	8	
2025-08-17T12:00	4040	628	0.9	-16.5	342	8	
2025-08-17T12:00	4060	626	0.8	-16.0	343	8	
2025-08-17T12:00	4080	625	0.6	-15.4	343	8	
2025-08-17T12:00	4100	623	0.4	-13.2	343	8	
2025-08-17T12:00	4120	622	0.2	-10.2	343	8	
2025-08-17T12:00	4140	620	0.0	-9.8	343	8	
2025-08-17T12:00	4160	619	0.0	-12.7	343	8	
2025-08-17T12:00	4180	617	-0.1	-15.6	343	8	
2025-08-17T12:00	4200	616	-0.2	-15.8	343	8	
2025-08-17T12:00	4220	614	-0.4	-15.5	344	9	
2025-08-17T12:00	4240	612	-0.5	-16.7	345	9	
2025-08-17T12:00	4260	611	-0.4	-19.1	346	10	
2025-08-17T12:00	4280	609	-0.4	-19.0	346	10	
2025-08-17T12:00	4300	608	-0.4	-17.5	346	11	
2025-08-17T12:00	4320	606	-0.5	-17.1	345	11	
2025-08-17T12:00	4340	605	-0.7	-16.5	344	11	
2025-08-17T12:00	4360	603	-0.8	-15.8	342	11	
2025-08-17T12:00	4380	602	-0.9	-16.0	340	11	
2025-08-17T12:00	4400	600	-1.0	-15.7	339	11	
2025-08-17T12:00	4420	599	-1.1	-15.2	338	10	
2025-08-17T12:00	4440	597	-1.2	-14.6	338	10	
2025-08-17T12:00	4460	596	-1.2	-15.3	339	10	
2025-08-17T12:00	4480	594	-1.3	-15.8	340	10	
2025-08-17T12:00	4500	593	-1.3	-17.9	341	10	
2025-08-17T12:00	4520	591	-1.2	-17.9	342	10	
2025-08-17T12:00	4540	590	-1.3	-17.0	343	10	
2025-08-17T12:00	4560	588	-1.5	-16.2	343	10	
2025-08-17T12:00	4580	587	-1.6	-16.3	343	11	
2025-08-17T12:00	4600	585	-1.7	-16.8	344	11	
2025-08-17T12:00	4620	584	-1.8	-16.9	344	11	
2025-08-17T12:00	4640	582	-1.9	-17.0	344	12	
2025-08-17T12:00	4660	581	-2.1	-17.0	343	11	
2025-08-17T12:00	4680	579	-2.2	-16.9	343	11	
2025-08-17T12:00	4700	578	-2.4	-16.9	343	11	
2025-08-17T12:00	4720	577	-2.6	-17.0	342	11	
2025-08-17T12:00	4740	575	-2.8	-17.1	342	11	
2025-08-17T12:00	4760	574	-2.8	-17.4	342	11	
2025-08-17T12:00	4780	572	-3.0	-17.4	341	12	
2025-08-17T12:00	4800	571	-3.1	-17.3	341	12	
2025-08-17T12:00	4820	569	-3.3	-17.3	340	12	
2025-08-17T12:00	4840	568	-3.4	-17.5	340	11	
2025-08-17T12:00	4860	567	-3.6	-17.5	341	11	
2025-08-17T12:00	4880	565	-3.8	-17.4	342	11	
2025-08-17T12:00	4900	564	-3.9	-17.6	343	11	
2025-08-17T12:00	4920	562	-4.1	-17.9	344	11	
2025-08-17T12:00	4940	561	-4.2	-18.0	345	11	
2025-08-17T12:00	4960	559	-4.3	-18.0	346	11	
2025-08-17T12:00	4980	558	-4.5	-18.3	346	11	
2025-08-17T12:00	5000	556	-4.6	-18.5	345	12	
2025-08-17T12:00	5020	555	-4.8	-18.4	344	12	
2025-08-17T12:00	5040	554	-4.9	-18.6	343	12	
2025-08-17T12:00	5060	552	-5.1	-18.9	342	12	
2025-08-17T12:00	5080	551	-5.2	-19.0	341	12	
2025-08-17T12:00	5100	550	-5.4	-19.2	341	12	
2025-08-17T12:00	5120	548	-5.5	-19.8	341	12	
2025-08-17T12:00	5140	547	-5.6	-19.5	341	12	
2025-08-17T12:00	5160	545	-5.7	-19.5	342	12	
2025-08-17T12:00	5180	544	-5.8	-19.6	342	12	
2025-08-17T12:00	5200	542	-6.0	-20.0	342	12	
2025-08-17T12:00	5220	541	-6.1	-19.9	342	12	
2025-08-17T12:00	5240	540	-6.2	-20.1	341	12	
2025-08-17T12:00	5260	538	-6.3	-20.2	341	12	
2025-08-17T12:00	5280	537	-6.4	-20.7	341	12	
2025-08-17T12:00	5300	536	-6.5	-21.2	342	13	
2025-08-17T12:00	5320	534	-6.7	-20.8	344	13	
2025-08-17T12:00	5340	533	-6.9	-20.9	345	13	
2025-08-17T12:00	5360	532	-7.0	-21.1	346	13	
2025-08-17T12:00	5380	530	-7.1	-21.3	347	13	
2025-08-17T12:00	5400	529	-7.3	-21.4	349	12	
2025-08-17T12:00	5420	527	-7.5	-21.5	350	12	
2025-08-17T12:00	5440	526	-7.5	-21.9	351	12	
2025-08-17T12:00	5460	525	-7.5	-22.3	352	12	
2025-08-17T12:00	5480	523	-7.7	-22.8	352	12	
2025-08-17T12:00	5500	522	-7.8	-23.8	352	13	
2025-08-17T12:00	5520	521	-7.9	-25.1	351	13	
2025-08-17T12:00	5540	519	-8.0	-26.1	350	13	
2025-08-17T12:00	5560	518	-8.0	-26.6	349	13	
2025-08-17T12:00	5580	517	-8.1	-24.4	347	13	
2025-08-17T12:00	5600	515	-8.3	-23.7	346	13	
2025-08-17T12:00	5620	514	-8.5	-23.5	345	13	
2025-08-17T12:00	5640	513	-8.6	-23.6	344	13	
2025-08-17T12:00	5660	511	-8.7	-23.7	343	13	
2025-08-17T12:00	5680	510	-8.8	-23.9	343	14	
2025-08-17T12:00	5700	509	-9.0	-24.1	343	14	
2025-08-17T12:00	5720	507	-9.1	-24.3	343	14	
2025-08-17T12:00	5740	506	-9.2	-24.3	344	14	
2025-08-17T12:00	5760	505	-9.4	-24.5	344	14	
2025-08-17T12:00	5780	503	-9.5	-24.8	345	14	
2025-08-17T12:00	5800	502	-9.6	-24.9	346	14	
2025-08-17T12:00	5820	501	-9.7	-25.1	346	14	
2025-08-17T12:00	5840	500	-9.8	-25.5	346	14	
2025-08-17T12:00	5860	498	-9.9	-25.3	346	14	
2025-08-17T12:00	5880	497	-10.0	-25.1	345	14	
2025-08-17T12:00	5900	496	-10.2	-25.4	345	14	
2025-08-17T12:00	5920	494	-10.4	-25.9	345	14	
2025-08-17T12:00	5940	493	-10.5	-26.2	346	14	
2025-08-17T12:00	5960	492	-10.6	-26.5	346	14	
2025-08-17T12:00	5980	490	-10.7	-27.3	347	14	
2025-08-17T12:00	6000	489	-10.8	-27.6	347	14	
2025-08-17T12:00	6020	488	-10.9	-26.9	348	14	
2025-08-17T12:00	6040	487	-11.1	-26.8	348	14	
2025-08-17T12:00	6060	485	-11.1	-27.2	347	14	
2025-08-17T12:00	6080	484	-11.2	-27.4	347	14	
2025-08-17T12:00	6100	483	-11.4	-27.5	347	14	
2025-08-17T12:00	6120	482	-11.5	-27.9	346	14	
2025-08-17T12:00	6140	481	-11.6	-28.2	346	14	
2025-08-17T12:00	6160	479	-11.6	-28.4	346	14	
2025-08-17T12:00	6180	478	-11.7	-29.1	345	14	
2025-08-17T12:00	6200	477	-11.8	-29.1	345	14	
2025-08-17T12:00	6220	475	-12.0	-29.0	344	15	
2025-08-17T12:00	6240	474	-12.2	-29.0	344	15	
2025-08-17T12:00	6260	473	-12.4	-29.2	343	15	
2025-08-17T12:00	6280	472	-12.5	-29.3	343	15	
2025-08-17T12:00	6300	470	-12.7	-29.5	342	15	
2025-08-17T12:00	6320	469	-12.9	-30.2	342	15	
2025-08-17T12:00	6340	468	-13.0	-31.3	343	15	
2025-08-17T12:00	6360	467	-13.1	-32.5	343	15	
2025-08-17T12:00	6380	466	-13.2	-31.7	343	15	
2025-08-17T12:00	6400	465	-13.4	-30.8	343	15	
2025-08-17T12:00	6420	463	-13.5	-29.2	344	15	
2025-08-17T12:00	6440	462	-13.7	-27.6	344	15	
2025-08-17T12:00	6460	461	-13.8	-27.6	345	15	
2025-08-17T12:00	6480	460	-14.0	-27.6	346	15	
2025-08-17T12:00	6500	458	-14.2	-27.8	346	14	
2025-08-17T12:00	6520	457	-14.4	-27.9	346	14	
2025-08-17T12:00	6540	456	-14.5	-27.8	345	14	
2025-08-17T12:00	6560	455	-14.7	-27.8	345	13	
2025-08-17T12:00	6580	453	-14.9	-27.7	344	13	
2025-08-17T12:00	6600	452	-15.1	-27.8	344	13	
2025-08-17T12:00	6620	451	-15.2	-27.8	343	13	
2025-08-17T12:00	6640	450	-15.4	-28.0	342	13	
2025-08-17T12:00	6660	449	-15.6	-28.1	341	12	
2025-08-17T12:00	6680	447	-15.8	-28.2	340	12	
2025-08-17T12:00	6700	446	-15.9	-28.3	340	12	
2025-08-17T12:00	6720	445	-16.1	-28.4	339	12	
2025-08-17T12:00	6740	444	-16.2	-28.6	339	12	
2025-08-17T12:00	6760	443	-16.4	-28.7	339	12	
2025-08-17T12:00	6780	442	-16.5	-28.8	340	12	
2025-08-17T12:00	6800	441	-16.7	-29.0	341	11	
2025-08-17T12:00	6820	439	-16.8	-29.3	341	11	
2025-08-17T12:00	6840	438	-17.0	-29.4	341	12	
2025-08-17T12:00	6860	437	-17.1	-29.4	341	12	
2025-08-17T12:00	6880	436	-17.3	-29.4	341	12	
2025-08-17T12:00	6900	435	-17.4	-29.3	341	13	
2025-08-17T12:00	6920	433	-17.5	-29.2	340	13	
2025-08-17T12:00	6940	432	-17.7	-29.3	340	14	
2025-08-17T12:00	6960	431	-17.9	-29.6	340	14	
2025-08-17T12:00	6980	430	-18.0	-30.0	341	14	
2025-08-17T12:00	7000	429	-18.2	-30.3	341	15	
2025-08-17T12:00	7020	428	-18.4	-30.5	342	15	
2025-08-17T12:00	7040	427	-18.5	-30.5	342	15	
2025-08-17T12:00	7060	425	-18.7	-30.7	342	15	
2025-08-17T12:00	7080	424	-18.8	-31.1	342	15	
2025-08-17T12:00	7100	423	-19.0	-31.3	342	14	
2025-08-17T12:00	7120	422	-19.1	-31.4	341	14	
2025-08-17T12:00	7140	421	-19.3	-31.1	340	14	
2025-08-17T12:00	7160	420	-19.5	-31.0	339	14	
2025-08-17T12:00	7180	419	-19.7	-30.7	338	14	
2025-08-17T12:00	7200	418	-19.8	-30.4	337	14	
2025-08-17T12:00	7220	416	-20.0	-30.5	337	14	
2025-08-17T12:00	7240	415	-20.2	-30.7	337	14	
2025-08-17T12:00	7260	414	-20.4	-30.9	337	14	
2025-08-17T12:00	7280	413	-20.5	-31.3	337	14	
2025-08-17T12:00	7300	412	-20.7	-31.8	337	14	
2025-08-17T12:00	7320	411	-20.8	-31.9	337	14	
2025-08-17T12:00	7340	410	-21.0	-31.9	337	14	
2025-08-17T12:00	7360	408	-21.2	-32.0	337	14	
2025-08-17T12:00	7380	407	-21.4	-31.8	336	14	
2025-08-17T12:00	7400	406	-21.5	-31.8	336	14	
2025-08-17T12:00	7420	405	-21.6	-31.9	336	14	
2025-08-17T12:00	7440	404	-21.7	-31.9	336	14	
2025-08-17T12:00	7460	403	-21.8	-31.9	336	14	
2025-08-17T12:00	7480	402	-22.0	-32.0	337	13	
2025-08-17T12:00	7500	401	-22.1	-32.1	337	13	
2025-08-17T12:00	7520	400	-22.3	-32.3	337	13	
2025-08-17T12:00	7540	399	-22.5	-32.3	338	13	
2025-08-17T12:00	7560	398	-22.6	-32.5	339	13	
2025-08-17T12:00	7580	396	-22.8	-32.6	340	13	
2025-08-17T12:00	7600	395	-23.0	-32.6	341	13	
2025-08-17T12:00	7620	394	-23.1	-33.1	342	13	
2025-08-17T12:00	7640	393	-23.3	-32.9	342	12	
2025-08-17T12:00	7660	392	-23.4	-32.7	343	12	
2025-08-17T12:00	7680	391	-23.6	-32.7	343	12	
2025-08-17T12:00	7700	390	-23.8	-32.7	343	11	
2025-08-17T12:00	7720	389	-24.0	-32.6	343	11	
2025-08-17T12:00	7740	388	-24.2	-32.7	343	11	
2025-08-17T12:00	7760	387	-24.3	-33.1	343	11	
2025-08-17T12:00	7780	386	-24.5	-33.3	343	10	
2025-08-17T12:00	7800	385	-24.6	-33.6	343	10	
2025-08-17T12:00	7820	384	-24.8	-33.8	343	10	
2025-08-17T12:00	7840	383	-24.9	-33.8	343	10	
2025-08-17T12:00	7860	381	-25.1	-34.0	343	11	
2025-08-17T12:00	7880	381	-25.3	-34.3	343	11	
2025-08-17T12:00	7900	380	-25.4	-34.5	343	11	
2025-08-17T12:00	7920	378	-25.6	-34.6	343	11	
2025-08-17T12:00	7940	377	-25.8	-34.8	344	11	
2025-08-17T12:00	7960	376	-25.9	-34.9	344	11	
2025-08-17T12:00	7980	375	-26.1	-34.7	345	11	
2025-08-17T12:00	8000	374	-26.3	-34.9	345	11	
2025-08-17T12:00	8020	373	-26.5	-34.9	346	11	
2025-08-17T12:00	8040	372	-26.7	-35.0	346	11	
2025-08-17T12:00	8060	371	-26.8	-35.3	346	11	
2025-08-17T12:00	8080	370	-27.0	-35.5	346	11	
2025-08-17T12:00	8100	369	-27.2	-35.7	346	11	
2025-08-17T12:00	8120	368	-27.3	-35.6	346	12	
2025-08-17T12:00	8140	367	-27.5	-35.5	346	12	
2025-08-17T12:00	8160	366	-27.7	-35.3	345	12	
2025-08-17T12:00	8180	365	-27.9	-35.3	345	12	
2025-08-17T12:00	8200	364	-28.1	-35.4	344	12	
2025-08-17T12:00	8220	363	-28.3	-35.6	344	12	
2025-08-17T12:00	8240	362	-28.5	-35.8	344	12	
2025-08-17T12:00	8260	361	-28.7	-35.9	343	12	
2025-08-17T12:00	8280	360	-28.8	-36.2	343	12	
2025-08-17T12:00	8300	359	-29.0	-36.4	343	12	
2025-08-17T12:00	8320	358	-29.1	-36.4	342	12	
2025-08-17T12:00	8340	357	-29.2	-36.8	342	12	
2025-08-17T12:00	8360	356	-29.4	-37.0	342	13	
2025-08-17T12:00	8380	355	-29.6	-37.0	342	13	
2025-08-17T12:00	8400	354	-29.8	-37.1	342	13	
2025-08-17T12:00	8420	353	-30.0	-37.2	342	13	
2025-08-17T12:00	8440	352	-30.2	-37.2	342	13	
2025-08-17T12:00	8460	351	-30.3	-37.5	342	13	
2025-08-17T12:00	8480	350	-30.5	-37.9	342	13	
2025-08-17T12:00	8500	349	-30.6	-38.0	342	13	
2025-08-17T12:00	8520	348	-30.8	-38.3	343	13	
2025-08-17T12:00	8540	347	-31.0	-38.9	343	13	
2025-08-17T12:00	8560	346	-31.1	-39.2	343	13	
2025-08-17T12:00	8580	345	-31.3	-39.2	342	13	
2025-08-17T12:00	8600	344	-31.5	-39.3	342	13	
2025-08-17T12:00	8620	343	-31.7	-39.3	341	13	
2025-08-17T12:00	8640	342	-31.9	-39.3	340	13	
2025-08-17T12:00	8660	341	-32.1	-39.4	340	13	
2025-08-17T12:00	8680	340	-32.3	-39.4	339	14	
2025-08-17T12:00	8700	339	-32.5	-39.6	339	14	
2025-08-17T12:00	8720	338	-32.7	-39.8	339	14	
2025-08-17T12:00	8740	337	-32.9	-39.8	339	14	
2025-08-17T12:00	8760	336	-33.1	-39.9	339	14	
2025-08-17T12:00	8780	335	-33.3	-40.0	339	14	
2025-08-17T12:00	8800	334	-33.4	-40.2	339	14	
2025-08-17T12:00	8820	334	-33.6	-40.6	340	14	
2025-08-17T12:00	8840	333	-33.8	-41.0	341	14	
2025-08-17T12:00	8860	332	-33.9	-41.3	341	14	
2025-08-17T12:00	8880	331	-34.1	-41.5	342	13	
2025-08-17T12:00	8900	330	-34.2	-42.3	343	13	
2025-08-17T12:00	8920	329	-34.3	-42.9	343	13	
2025-08-17T12:00	8940	328	-34.4	-43.4	344	13	
2025-08-17T12:00	8960	327	-34.5	-44.1	343	13	
2025-08-17T12:00	8980	326	-34.6	-44.3	343	13	
2025-08-17T12:00	9000	325	-34.8	-44.3	343	13	
2025-08-17T12:00	9020	324	-34.9	-44.5	343	13	
2025-08-17T12:00	9040	323	-35.1	-44.7	343	13	
2025-08-17T12:00	9060	322	-35.2	-45.0	343	13	
2025-08-17T12:00	9080	321	-35.3	-45.2	344	13	
2025-08-17T12:00	9100	320	-35.4	-45.5	344	13	
2025-08-17T12:00	9120	320	-35.5	-45.4	344	14	
2025-08-17T12:00	9140	319	-35.7	-45.5	344	14	
2025-08-17T12:00	9160	318	-35.8	-45.5	344	14	
2025-08-17T12:00	9180	317	-36.0	-45.6	344	14	
2025-08-17T12:00	9200	316	-36.2	-45.9	343	14	
2025-08-17T12:00	9220	315	-36.3	-46.1	343	14	
2025-08-17T12:00	9240	314	-36.5	-46.2	343	13	
2025-08-17T12:00	9260	313	-36.7	-46.3	343	13	
2025-08-17T12:00	9280	312	-36.9	-46.3	342	13	
2025-08-17T12:00	9300	311	-37.0	-46.4	342	13	
2025-08-17T12:00	9320	311	-37.2	-46.4	341	13	
2025-08-17T12:00	9340	310	-37.3	-46.5	340	13	
2025-08-17T12:00	9360	309	-37.5	-47.1	339	13	
2025-08-17T12:00	9380	308	-37.6	-48.0	339	13	
2025-08-17T12:00	9400	307	-37.7	-48.5	338	13	
2025-08-17T12:00	9420	306	-37.9	-48.5	338	13	
2025-08-17T12:00	9440	305	-38.0	-48.4	337	13	
2025-08-17T12:00	9460	304	-38.2	-48.5	337	13	
2025-08-17T12:00	9480	303	-38.4	-48.5	337	13	
2025-08-17T12:00	9500	302	-38.6	-48.4	337	14	
2025-08-17T12:00	9520	301	-38.7	-48.4	337	14	
2025-08-17T12:00	9540	301	-38.9	-48.2	337	13	
2025-08-17T12:00	9560	300	-39.1	-48.4	337	13	
2025-08-17T12:00	9580	299	-39.2	-48.7	337	13	
2025-08-17T12:00	9600	298	-39.4	-48.8	336	14	
2025-08-17T12:00	9620	297	-39.6	-49.1	335	14	
2025-08-17T12:00	9640	296	-39.7	-48.8	335	14	
2025-08-17T12:00	9660	295	-39.9	-48.6	334	14	
2025-08-17T12:00	9680	295	-40.1	-48.7	333	14	
2025-08-17T12:00	9700	294	-40.2	-48.9	333	13	
2025-08-17T12:00	9720	293	-40.4	-49.0	332	13	
2025-08-17T12:00	9740	292	-40.6	-49.3	332	13	
2025-08-17T12:00	9760	291	-40.8	-49.5	332	13	
2025-08-17T12:00	9780	290	-41.0	-49.2	332	13	
2025-08-17T12:00	9800	289	-41.2	-49.2	332	13	
2025-08-17T12:00	9820	289	-41.3	-49.6	332	13	
2025-08-17T12:00	9840	288	-41.5	-50.1	332	13	
2025-08-17T12:00	9860	287	-41.7	-50.1	332	13	
2025-08-17T12:00	9880	286	-41.8	-50.2	332	13	
2025-08-17T12:00	9900	285	-41.9	-50.8	332	13	
2025-08-17T12:00	9920	284	-42.1	-51.4	331	13	
2025-08-17T12:00	9940	284	-42.3	-51.9	331	13	
2025-08-17T12:00	9960	283	-42.4	-52.8	330	12	
2025-08-17T12:00	9980	282	-42.6	-52.9	330	12	
2025-08-17T12:00	10000	281	-42.7	-52.1	329	12	
2025-08-17T12:00	10018	280	-42.9	-51.7	329	12	
2025-08-17T12:00	10050	279	-43.2	-51.7	330	12	
2025-08-17T12:00	10100	277	-43.6	-52.2	331	12	
2025-08-17T12:00	10150	275	-44.0	-53.7	332	13	
2025-08-17T12:00	10200	273	-44.3	-54.6	335	13	
2025-08-17T12:00	10250	271	-44.6	-54.0	337	12	
2025-08-17T12:00	10300	269	-44.9	-54.0	339	12	
2025-08-17T12:00	10350	267	-45.3	-54.2	339	13	
2025-08-17T12:00	10400	265	-45.6	-55.0	339	13	
2025-08-17T12:00	10450	263	-46.0	-55.4	340	13	
2025-08-17T12:00	10500	261	-46.4	-55.4	340	13	
2025-08-17T12:00	10550	259	-46.8	-56.0	340	13	
2025-08-17T12:00	10600	257	-47.2	-56.1	339	13	
2025-08-17T12:00	10650	255	-47.5	-56.6	339	13	
2025-08-17T12:00	10700	253	-47.9	-56.9	338	14	
2025-08-17T12:00	10750	251	-48.3	-57.1	337	14	
2025-08-17T12:00	10800	249	-48.6	-57.3	336	14	
2025-08-17T12:00	10850	247	-49.1	-57.5	335	13	
2025-08-17T12:00	10900	245	-49.6	-57.7	334	13	
2025-08-17T12:00	10950	243	-50.0	-57.9	333	13	
2025-08-17T12:00	11000	242	-50.4	-58.2	333	14	
2025-08-17T12:00	11050	240	-50.7	-58.1	335	14	
2025-08-17T12:00	11100	238	-51.1	-58.3	336	15	
2025-08-17T12:00	11150	236	-51.3	-59.0	337	15	
2025-08-17T12:00	11200	234	-51.5	-60.2	337	16	
2025-08-17T12:00	11250	233	-51.8	-60.4	336	16	
2025-08-17T12:00	11300	231	-52.1	-60.9	335	16	
2025-08-17T12:00	11350	229	-52.5	-61.0	335	17	
2025-08-17T12:00	11400	227	-52.8	-61.2	337	17	
2025-08-17T12:00	11450	226	-53.0	-61.5	336	16	
2025-08-17T12:00	11500	224	-53.1	-62.0	334	16	
2025-08-17T12:00	11550	222	-53.3	-62.6	332	16	
2025-08-17T12:00	11600	220	-53.3	-63.2	331	16	
2025-08-17T12:00	11650	219	-53.4	-63.7	331	16	
2025-08-17T12:00	11700	217	-53.5	-64.2	331	16	
2025-08-17T12:00	11750	215	-53.8	-64.2	333	16	
2025-08-17T12:00	11800	214	-54.2	-64.3	334	17	
2025-08-17T12:00	11850	212	-54.2	-64.9	335	17	
2025-08-17T12:00	11900	210	-54.2	-65.5	336	17	
2025-08-17T12:00	11950	209	-54.1	-66.3	338	16	
2025-08-17T12:00	12000	207	-54.2	-66.7	341	16	
2025-08-17T12:00	12050	205	-54.4	-66.9	343	15	
2025-08-17T12:00	12100	204	-54.4	-67.5	344	14	
2025-08-17T12:00	12150	202	-54.5	-67.8	343	14	
2025-08-17T12:00	12200	201	-54.4	-68.6	342	13	
2025-08-17T12:00	12250	199	-54.3	-69.0	340	14	
2025-08-17T12:00	12300	198	-54.4	-69.6	338	14	
2025-08-17T12:00	12350	196	-54.0	-71.4	338	15	
2025-08-17T12:00	12400	195	-53.8	-72.3	337	15	
2025-08-17T12:00	12450	193	-54.1	-72.7	336	16	
2025-08-17T12:00	12500	191	-54.4	-73.5	335	16	
2025-08-17T12:00	12550	190	-54.6	-74.2	336	17	
2025-08-17T12:00	12600	188	-54.3	-74.7	338	17	
2025-08-17T12:00	12650	187	-54.2	-75.2	338	17	
2025-08-17T12:00	12700	186	-54.1	-75.7	338	17	
2025-08-17T12:00	12750	184	-54.1	-75.9	337	17	
2025-08-17T12:00	12800	183	-54.3	-76.0	335	17	
2025-08-17T12:00	12850	181	-54.6	-74.9	332	17	
2025-08-17T12:00	12900	180	-54.9	-73.6	331	16	
2025-08-17T12:00	12950	178	-55.2	-73.9	332	16	
2025-08-17T12:00	13000	177	-55.3	-74.0	333	17	
2025-08-17T12:00	13050	176	-55.5	-76.2	334	17	
2025-08-17T12:00	13100	174	-55.2	-79.5	334	17	
2025-08-17T12:00	13150	173	-54.8	-80.0	334	17	
2025-08-17T12:00	13200	172	-54.6	-80.2	335	16	
2025-08-17T12:00	13250	170	-54.4	-80.2	336	16	
2025-08-17T12:00	13300	169	-54.4	-80.1	338	16	
2025-08-17T12:00	13350	168	-54.2	-79.8	338	16	
2025-08-17T12:00	13400	166	-54.3	-78.2	337	17	
2025-08-17T12:00	13450	165	-54.3	-75.7	338	17	
2025-08-17T12:00	13500	164	-54.1	-75.4	338	17	
2025-08-17T12:00	13550	162	-54.2	-75.7	337	16	
2025-08-17T12:00	13600	161	-54.3	-75.9	337	16	
2025-08-17T12:00	13650	160	-54.3	-76.2	335	15	
2025-08-17T12:00	13700	159	-54.4	-76.8	332	15	
2025-08-17T12:00	13750	157	-54.3	-77.1	326	15	
2025-08-17T12:00	13800	156	-54.2	-77.1	323	15	
2025-08-17T12:00	13850	155	-54.1	-77.7	323	16	
2025-08-17T12:00	13900	154	-53.8	-78.9	323	16	
2025-08-17T12:00	13950	153	-53.7	-80.1	321	17	
2025-08-17T12:00	14000	151	-53.9	-80.7	320	17	
2025-08-17T12:00	14050	150	-54.1	-80.8	320	17	
2025-08-17T12:00	14100	149	-54.4	-80.9	320	17	
2025-08-17T12:00	14150	148	-54.5	-81.0	321	17	
2025-08-17T12:00	14200	147	-54.6	-81.0	323	17	
2025-08-17T12:00	14250	146	-54.6	-81.1	326	17	
2025-08-17T12:00	14300	145	-54.6	-81.1	330	17	
2025-08-17T12:00	14350	143	-54.6	-81.0	332	17	
2025-08-17T12:00	14400	142	-54.7	-81.0	336	17	
2025-08-17T12:00	14450	141	-54.8	-81.2	338	16	
2025-08-17T12:00	14500	140	-54.8	-81.4	334	16	
2025-08-17T12:00	14550	139	-54.9	-81.5	330	16	
2025-08-17T12:00	14600	138	-54.8	-81.4	327	16	
2025-08-17T12:00	14650	137	-54.5	-81.4	327	15	
2025-08-17T12:00	14700	136	-54.6	-81.6	329	14	
2025-08-17T12:00	14750	135	-54.8	-81.8	331	13	
2025-08-17T12:00	14800	134	-54.9	-81.9	331	13	
2025-08-17T12:00	14850	133	-55.0	-81.9	329	13	
2025-08-17T12:00	14900	132	-55.1	-81.9	329	14	
2025-08-17T12:00	14950	131	-55.3	-81.8	331	13	
2025-08-17T12:00	15000	130	-55.4	-82.0	333	12	
2025-08-17T12:00	15050	129	-55.4	-82.2	332	11	
2025-08-17T12:00	15100	128	-55.7	-82.4	327	10	
2025-08-17T12:00	15150	127	-55.6	-82.5	320	9	
2025-08-17T12:00	15200	126	-55.3	-82.4	314	9	
2025-08-17T12:00	15250	125	-55.5	-82.5	307	9	
2025-08-17T12:00	15300	124	-55.5	-82.3	303	10	
2025-08-17T12:00	15350	123	-55.5	-82.3	304	11	
2025-08-17T12:00	15400	122	-55.6	-82.3	307	11	
2025-08-17T12:00	15450	121	-55.5	-82.3	310	11	
2025-08-17T12:00	15500	120	-55.3	-82.2	313	10	
2025-08-17T12:00	15550	119	-55.3	-82.1	316	10	
2025-08-17T12:00	15600	118	-55.5	-82.0	318	10	
2025-08-17T12:00	15650	117	-55.7	-82.0	314	10	
2025-08-17T12:00	15700	116	-56.0	-82.2	306	11	
2025-08-17T12:00	15750	115	-56.4	-82.3	299	11	
2025-08-17T12:00	15800	114	-56.7	-82.6	299	12	
2025-08-17T12:00	15850	113	-56.6	-82.9	303	12	
2025-08-17T12:00	15900	112	-56.5	-83.1	308	13	
2025-08-17T12:00	15950	112	-56.6	-83.2	311	14	
2025-08-17T12:00	16000	111	-56.9	-83.2	314	14	
2025-08-17T12:00	16050	110	-57.2	-83.3	317	13	
2025-08-17T12:00	16100	109	-57.5	-83.4	321	13	
2025-08-17T12:00	16150	108	-58.0	-83.6	325	12	
2025-08-17T12:00	16200	107	-58.0	-83.6	328	11	
2025-08-17T12:00	16250	106	-58.1	-83.6	329	11	
2025-08-17T12:00	16300	106	-58.4	-83.7	328	10	
2025-08-17T12:00	16350	105	-58.5	-83.8	326	9	
2025-08-17T12:00	16400	104	-58.6	-83.9	324	8	
2025-08-17T12:00	16450	103	-58.8	-83.8	321	7	
2025-08-17T12:00	16500	102	-59.1	-83.9	311	6	
2025-08-17T12:00	16550	101	-59.5	-84.0	298	6	
2025-08-17T12:00	16600	101	-59.7	-84.0	283	6	
2025-08-17T12:00	16650	100	-60.0	-84.2	275	7	
2025-08-17T12:00	16700	99	-59.8	-84.1	275	7	
2025-08-17T12:00	16750	98	-59.9	-84.2	282	7	
2025-08-17T12:00	16800	97	-59.9	-84.3	292	7	
2025-08-17T12:00	16850	97	-59.9	-84.4	302	7	
2025-08-17T12:00	16900	96	-59.9	-84.5	309	8	
2025-08-17T12:00	16950	95	-60.2	-84.6	315	9	
2025-08-17T12:00	17000	94	-60.4	-84.6	320	9	
2025-08-17T12:00	17050	94	-60.7	-84.8	324	9	
2025-08-17T12:00	17100	93	-60.8	-84.9	324	9	
2025-08-17T12:00	17150	92	-60.8	-85.1	324	9	
2025-08-17T12:00	17200	91	-60.7	-85.2	325	8	
2025-08-17T12:00	17250	91	-60.6	-85.3	324	7	
2025-08-17T12:00	17300	90	-60.3	-85.2	325	6	
2025-08-17T12:00	17350	89	-60.2	-85.4	332	7	
2025-08-17T12:00	17400	88	-59.4	-85.2	341	7	
2025-08-17T12:00	17450	88	-59.2	-85.0	347	6	
2025-08-17T12:00	17500	87	-59.3	-85.0	351	6	
2025-08-17T12:00	17550	86	-59.1	-85.0	358	5	
2025-08-17T12:00	17600	86	-58.4	-85.0	12	5	
2025-08-17T12:00	17650	85	-57.8	-84.8	25	4	
2025-08-17T12:00	17700	84	-58.0	-84.8	30	3	
2025-08-17T12:00	17750	84	-58.0	-84.7	20	3	
2025-08-17T12:00	17800	83	-58.1	-84.7	357	3	
2025-08-17T12:00	17850	82	-58.3	-84.7	336	3	
2025-08-17T12:00	17900	82	-58.4	-84.8	318	3	
2025-08-17T12:00	17950	81	-58.7	-85.1	312	3	
2025-08-17T12:00	18000	80	-58.7	-85.0	319	3	
2025-08-17T12:00	18050	80	-58.7	-85.0	331	3	
2025-08-17T12:00	18100	79	-58.9	-85.2	348	3	
2025-08-17T12:00	18150	79	-59.0	-85.3	9	3	
2025-08-17T12:00	18200	78	-58.8	-85.5	34	2	
2025-08-17T12:00	18250	77	-57.9	-85.2	70	2	
2025-08-17T12:00	18300	77	-58.1	-85.3	99	2	
2025-08-17T12:00	18350	76	-58.2	-85.2	107	3	
2025-08-17T12:00	18400	75	-58.6	-85.2	102	3	
2025-08-17T12:00	18450	75	-58.9	-85.3	89	2	
2025-08-17T12:00	18500	74	-58.8	-85.2	77	2	
2025-08-17T12:00	18550	74	-59.0	-85.3	61	1	
2025-08-17T12:00	18600	73	-59.3	-85.5	32	1	
2025-08-17T12:00	18650	73	-59.5	-85.6	24	1	
2025-08-17T12:00	18700	72	-59.7	-85.8	42	2	
2025-08-17T12:00	18750	71	-59.3	-85.8	67	3	
2025-08-17T12:00	18800	71	-59.0	-85.8	93	3	
2025-08-17T12:00	18850	70	-58.9	-85.8	121	2	
2025-08-17T12:00	18900	70	-58.9	-85.8	149	2	
2025-08-17T12:00	18950	69	-59.0	-85.8	172	3	
2025-08-17T12:00	19000	69	-59.0	-85.7	187	3	
2025-08-17T12:00	19050	68	-59.1	-85.7	196	3	
2025-08-17T12:00	19100	67	-59.2	-85.9	206	2	
2025-08-17T12:00	19150	67	-59.1	-85.8	234	1	
2025-08-17T12:00	19200	66	-59.2	-85.8	294	1	
2025-08-17T12:00	19250	66	-59.2	-85.8	318	2	
2025-08-17T12:00	19300	65	-59.2	-85.9	325	3	
2025-08-17T12:00	19350	65	-59.2	-86.0	329	4	
2025-08-17T12:00	19400	64	-58.6	-85.8	337	4	
2025-08-17T12:00	19450	64	-58.4	-85.8	353	3	
2025-08-17T12:00	19500	63	-58.6	-85.8	18	3	
2025-08-17T12:00	19550	63	-58.8	-85.7	44	4	
2025-08-17T12:00	19600	62	-59.0	-85.7	62	5	
2025-08-17T12:00	19650	62	-59.2	-85.8	73	6	
2025-08-17T12:00	19700	61	-59.4	-85.9	80	6	
2025-08-17T12:00	19750	61	-59.6	-85.9	87	7	
2025-08-17T12:00	19800	60	-59.9	-86.0	93	8	
2025-08-17T12:00	19850	60	-59.9	-86.2	97	7	
2025-08-17T12:00	19900	59	-59.6	-86.2	95	6	
2025-08-17T12:00	19950	59	-59.5	-86.2	84	5	
2025-08-17T12:00	20000	58	-59.7	-86.3	63	4	
2025-08-17T12:00	20050	58	-59.6		44	4	
2025-08-17T12:00	20100	58	-59.4		38	3	
2025-08-17T12:00	20150	57	-59.1		46	3	
2025-08-17T12:00	20200	57	-58.8		55	3	
2025-08-17T12:00	20250	56	-58.5		60	4	
2025-08-17T12:00	20300	56	-58.2		63	5	
2025-08-17T12:00	20350	55	-57.9		68	5	
2025-08-17T12:00	20400	55	-57.6		75	5	
2025-08-17T12:00	20450	54	-57.7		78	4	
2025-08-17T12:00	20500	54	-57.7		71	4	
2025-08-17T12:00	20550	54	-57.4		68	4	
2025-08-17T12:00	20600	53	-57.2		73	4	
2025-08-17T12:00	20650	53	-57.4		78	5	
2025-08-17T12:00	20700	52	-57.5		82	5	
2025-08-17T12:00	20750	52	-57.7		88	6	
2025-08-17T12:00	20800	51	-57.8		97	6	
2025-08-17T12:00	20850	51	-57.5		104	6	
2025-08-17T12:00	20900	51	-57.5		109	6	
2025-08-17T12:00	20950	50	-57.5		111	5	
2025-08-17T12:00	21000	50	-57.5		110	4	
2025-08-17T12:00	21050	49	-57.5		106	4	
2025-08-17T12:00	21100	49	-57.5		102	5	
2025-08-17T12:00	21150	49	-57.4		102	6	
2025-08-17T12:00	21200	48	-57.6		104	8	
2025-08-17T12:00	21250	48	-57.7		106	9	
2025-08-17T12:00	21300	48	-57.8		110	9	
2025-08-17T12:00	21350	47	-58.1		115	9	
2025-08-17T12:00	21400	47	-58.2		121	8	
2025-08-17T12:00	21450	46	-58.3		125	7	
2025-08-17T12:00	21500	46	-58.2		126	5	
2025-08-17T12:00	21550	46	-58.1		120	4	
2025-08-17T12:00	21600	45	-57.5		111	3	
2025-08-17T12:00	21650	45	-57.2		118	3	
2025-08-17T12:00	21700	45	-57.0		140	3	
2025-08-17T12:00	21750	44	-56.9		159	4	
2025-08-17T12:00	21800	44	-57.1		169	5	
2025-08-17T12:00	21850	44	-57.2		172	4	
2025-08-17T12:00	21900	43	-57.0		173	3	
2025-08-17T12:00	21950	43	-56.9		175	1	
2025-08-17T12:00	22000	43	-56.3		2	1	
2025-08-17T12:00	22050	42	-56.3		6	3	
2025-08-17T12:00	22100	42	-56.3		9	4	
2025-08-17T12:00	22150	42	-56.2		10	4	
2025-08-17T12:00	22200	41	-56.0		14	4	
2025-08-17T12:00	22250	41	-55.8		23	5	
2025-08-17T12:00	22300	41	-55.7		32	5	
2025-08-17T12:00	22350	40	-55.6		42	5	
2025-08-17T12:00	22400	40	-55.5		50	5	
2025-08-17T12:00	22450	40	-55.2		54	5	
2025-08-17T12:00	22500	39	-55.0		55	5	
2025-08-17T12:00	22550	39	-54.8		52	6	
2025-08-17T12:00	22600	39	-54.6		49	7	
2025-08-17T12:00	22650	38	-54.4		51	8	
2025-08-17T12:00	22700	38	-54.0		54	9	
2025-08-17T12:00	22750	38	-53.9		54	10	
2025-08-17T12:00	22800	38	-53.7		56	12	
2025-08-17T12:00	22850	37	-53.2		60	13	
2025-08-17T12:00	22900	37	-52.7		64	14	
2025-08-17T12:00	22950	37	-52.2		67	14	
2025-08-17T12:00	23000	36	-52.0		70	14	
2025-08-17T12:00	23050	36	-51.7		74	14	
2025-08-17T12:00	23100	36	-51.7		76	12	
2025-08-17T12:00	23150	36	-52.1		78	11	
2025-08-17T12:00	23200	35	-52.0		81	11	
2025-08-17T12:00	23250	35	-52.1		85	10	
2025-08-17T12:00	23300	35	-52.1		90	10	
2025-08-17T12:00	23350	34	-52.3		94	9	
2025-08-17T12:00	23400	34	-52.8		96	8	
2025-08-17T12:00	23450	34	-53.1		93	8	
2025-08-17T12:00	23500	34	-53.2		85	8	
2025-08-17T12:00	23550	33	-53.1		79	9	
2025-08-17T12:00	23600	33	-52.9		80	10	
2025-08-17T12:00	23650	33	-52.9		83	11	
2025-08-17T12:00	23700	33	-52.9		85	11	
2025-08-17T12:00	23750	32	-53.0		84	10	
2025-08-17T12:00	23800	32	-53.2		81	9	
2025-08-17T12:00	23850	32	-53.4		80	9	
2025-08-17T12:00	23900	32	-53.3		79	9	
2025-08-17T12:00	23950	31	-53.2		82	11	
2025-08-17T12:00	24000	31	-53.2		87	12	
2025-08-17T12:00	24050	31	-53.3		91	13	
2025-08-17T12:00	24100	31	-53.2		93	14	
2025-08-17T12:00	24150	30	-53.0		93	13	
2025-08-17T12:00	24200	30	-52.8		95	12	
2025-08-17T12:00	24250	30	-52.4		99	11	
2025-08-17T12:00	24300	30	-52.2		105	10	
2025-08-17T12:00	24350	30	-51.9		111	11	
2025-08-17T12:00	24400	29	-51.9		115	11	
2025-08-17T12:00	24450	29	-51.9		117	12	
2025-08-17T12:00	24500	29	-52.0		120	12	
2025-08-17T12:00	24550	29	-52.2		123	11	
2025-08-17T12:00	24600	28	-52.2		127	11	
2025-08-17T12:00	24650	28	-52.0		130	10	
2025-08-17T12:00	24700	28	-51.7		131	9	
2025-08-17T12:00	24750	28	-51.6		132	8	
2025-08-17T12:00	24800	28	-51.3		134	7	
2025-08-17T12:00	24850	27	-50.9		136	6	
2025-08-17T12:00	24900	27	-50.6		134	5	
2025-08-17T12:00	24950	27	-50.5		126	5	
2025-08-17T12:00	25000	27	-50.4		119	5	
2025-08-17T12:00	25050	27	-50.4		119	6	
2025-08-17T12:00	25100	26	-50.4		124	7	
2025-08-17T12:00	25150	26	-50.5		131	7	
2025-08-17T12:00	25200	26	-50.2		140	7	
2025-08-17T12:00	25250	26	-50.0		149	6	
2025-08-17T12:00	25300	26	-50.3		152	5	
2025-08-17T12:00	25350	25	-50.5		148	4	
2025-08-17T12:00	25400	25	-50.6		138	4	
2025-08-17T12:00	25450	25	-50.6		134	4	
2025-08-17T12:00	25500	25	-50.7		131	5	
2025-08-17T12:00	25550	25	-50.9		126	6	
2025-08-17T12:00	25600	24	-50.8		119	7	
2025-08-17T12:00	25650	24	-50.8		113	7	
2025-08-17T12:00	25700	24	-50.8		108	8	
2025-08-17T12:00	25750	24	-50.8		105	8	
2025-08-17T12:00	25800	24	-51.0		102	7	
2025-08-17T12:00	25850	23	-51.1		97	7	
2025-08-17T12:00	25900	23	-51.2		93	7	
2025-08-17T12:00	25950	23	-50.9		93	7	
2025-08-17T12:00	26000	23	-50.6		97	8	
2025-08-17T12:00	26050	23	-50.3		101	9	
2025-08-17T12:00	26100	23	-50.1		104	9	
2025-08-17T12:00	26150	22	-50.2		106	9	
2025-08-17T12:00	26200	22	-50.4		109	9	
2025-08-17T12:00	26250	22	-50.6		114	10	
2025-08-17T12:00	26300	22	-50.6		118	10	
2025-08-17T12:00	26350	22	-50.5		123	9	
2025-08-17T12:00	26400	22	-50.4		127	8	
2025-08-17T12:00	26450	21	-50.2		128	7	
2025-08-17T12:00	26500	21	-50.0		123	8	
2025-08-17T12:00	26550	21	-49.6		117	8	
2025-08-17T12:00	26600	21	-49.3		113	9	
2025-08-17T12:00	26650	21	-48.9		109	8	
2025-08-17T12:00	26700	21	-48.7		104	8	
2025-08-17T12:00	26750	20	-48.6		98	7	
2025-08-17T12:00	26800	20	-48.5		93	7	
2025-08-17T12:00	26850	20	-48.5		90	7	
2025-08-17T12:00	26900	20	-48.3		92	8	
2025-08-17T12:00	26950	20	-48.2		98	8	
2025-08-17T12:00	27000	20	-48.0		106	9	
2025-08-17T12:00	27050	20	-47.9		115	9	
2025-08-17T12:00	27100	19	-47.6		122	9	
2025-08-17T12:00	27150	19	-47.6		129	9	
2025-08-17T12:00	27200	19	-47.4		132	9	
2025-08-17T12:00	27250	19	-47.0		131	7	
2025-08-17T12:00	27300	19	-46.9		131	6	
2025-08-17T12:00	27350	19	-46.6		139	5	
2025-08-17T12:00	27400	19	-46.4		154	4	
2025-08-17T12:00	27450	18	-46.6		168	5	
2025-08-17T12:00	27500	18	-46.7		174	5	
2025-08-17T12:00	27550	18	-46.7		174	4	
2025-08-17T12:00	27600	18	-46.6		166	4	
2025-08-17T12:00	27650	18	-46.2		143	3	
2025-08-17T12:00	27700	18	-46.1		111	3	
2025-08-17T12:00	27750	18	-45.9		98	4	
2025-08-17T12:00	27800	17	-45.6		102	4	
2025-08-17T12:00	27850	17	-45.5		115	4	
2025-08-17T12:00	27900	17	-45.3		125	4	
2025-08-17T12:00	27950	17	-45.3		128	3	
2025-08-17T12:00	28000	17	-45.4		126	2	
2025-08-17T12:00	28050	17	-45.3		110	1	
2025-08-17T12:00	28100	17	-45.0		46	1	
2025-08-17T12:00	28150	17	-44.7		42	1	
2025-08-17T12:00	28200	16	-44.5		62	2	
2025-08-17T12:00	28250	16	-44.5		69	3	
2025-08-17T12:00	28300	16	-44.5		66	3	
2025-08-17T12:00	28350	16	-44.5		63	4	
2025-08-17T12:00	28400	16	-44.4		67	4	
2025-08-17T12:00	28450	16	-44.4		79	4	
2025-08-17T12:00	28500	16	-44.4		97	5	
2025-08-17T12:00	28550	16	-44.5		118	5	
2025-08-17T12:00	28600	15	-44.5		134	5	
2025-08-17T12:00	28650	15	-44.4		141	6	
2025-08-17T12:00	28700	15	-44.1		141	5	
2025-08-17T12:00	28750	15	-43.6		139	5	
2025-08-17T12:00	28800	15	-43.3		141	4	
2025-08-17T12:00	28850	15	-43.0		149	4	
2025-08-17T12:00	28900	15	-42.8		159	4	
2025-08-17T12:00	28950	15	-42.6		162	3	
2025-08-17T12:00	29000	15	-42.6		144	2	
2025-08-17T12:00	29050	14	-42.6		97	2	
2025-08-17T12:00	29100	14	-42.6		73	4	
2025-08-17T12:00	29150	14	-42.9		66	5	
2025-08-17T12:00	29200	14	-43.1		66	7	
2025-08-17T12:00	29250	14	-43.2		70	8	
2025-08-17T12:00	29300	14	-43.4		75	10	
2025-08-17T12:00	29350	14	-43.5		80	10	
2025-08-17T12:00	29400	14	-43.4		85	10	
2025-08-17T12:00	29450	14	-43.4		88	9	
2025-08-17T12:00	29500	14	-43.4		91	8	
2025-08-17T12:00	29550	13	-43.4		96	7	
2025-08-17T12:00	29600	13	-43.3		102	6	
2025-08-17T12:00	29650	13	-43.4		112	5	
2025-08-17T12:00	29700	13	-43.6		120	5	
2025-08-17T12:00	29750	13	-43.8		118	5	
2025-08-17T12:00	29800	13	-43.7		108	5	
2025-08-17T12:00	29850	13	-43.7		100	6	
2025-08-17T12:00	29900	13	-43.7		99	7	
2025-08-17T12:00	29950	13	-43.7		102	8	
2025-08-17T12:00	30000	13	-43.7		105	9	
2025-08-17T12:00	30050	12	-43.8		107	9	
2025-08-17T12:00	30100	12	-43.8		108	10	
2025-08-17T12:00	30150	12	-43.9		109	11	
2025-08-17T12:00	30200	12	-44.0		109	11	
2025-08-17T12:00	30250	12	-44.2		109	11	
2025-08-17T12:00	30300	12	-44.4		109	11	
2025-08-17T12:00	30350	12	-44.6		109	11	
2025-08-17T12:00	30400	12	-44.6		110	11	
2025-08-17T12:00	30450	12	-44.2		112	12	
2025-08-17T12:00	30500	12	-44.0		112	11	
2025-08-17T12:00	30550	12	-43.9		109	10	
2025-08-17T12:00	30600	11	-43.9		102	9	
2025-08-17T12:00	30650	11	-43.9		93	7	
2025-08-17T12:00	30700	11	-44.0		88	7	
2025-08-17T12:00	30750	11	-43.8		92	7	
2025-08-17T12:00	30800	11	-43.7		100	8	
2025-08-17T12:00	30850	11	-43.6		104	9	
2025-08-17T12:00	30900	11	-43.5		104	10	
2025-08-17T12:00	30950	11	-43.4		104	10	
2025-08-17T12:00	31000	11	-43.3		106	10	
2025-08-17T12:00	31050	11	-43.3		108	10	
2025-08-17T12:00	31100	11	-43.4		110	11	
2025-08-17T12:00	31150	11	-43.4		112	11	
2025-08-17T12:00	31200	10	-43.0		111	10	
2025-08-17T12:00	31250	10	-42.7		109	10	
2025-08-17T12:00	31300	10	-42.4		107	11	
2025-08-17T12:00	31350	10	-42.3		108	12	
2025-08-17T12:00	31400	10	-41.9		111	13	
2025-08-17T12:00	31450	10	-41.6		113	14	
2025-08-17T12:00	31500	10	-41.7		116	15	
2025-08-17T12:00	31550	10	-41.8		118	14	
2025-08-17T12:00	31600	10	-41.7		122	13	
2025-08-17T12:00	31650	10	-41.7		125	12	
2025-08-17T12:00	31700	10	-41.8		126	10	
2025-08-17T12:00	31750	10	-41.7		124	9	
2025-08-17T12:00	31800	10	-41.2		120	7	
2025-08-17T12:00	31850	10	-40.8		115	6	
2025-08-17T12:00	31900	9	-40.6		110	5	
2025-08-17T12:00	31950	9	-40.3		104	5	
2025-08-17T12:00	32000	9	-39.9		94	4	
2025-08-17T12:00	32050	9	-39.8		84	4	
2025-08-17T12:00	32100	9	-39.9		79	5	
2025-08-17T12:00	32150	9	-39.6		78	6	
2025-08-17T12:00	32200	9	-39.4		80	7	
2025-08-17T12:00	32250	9	-39.1		81	8	
2025-08-17T12:00	32300	9	-38.8		84	9	
2025-08-17T12:00	32350	9	-38.7		90	9	
2025-08-17T12:00	32400	9	-38.7		98	9	
2025-08-17T12:00	32450	9	-38.8		105	8	
2025-08-17T12:00	32500	9	-38.9		108	8	
2025-08-17T12:00	32550	9	-38.7		108	8	
2025-08-17T12:00	32600	9	-38.7		102	8	
2025-08-17T12:00	32650	8	-38.7		98	8	
2025-08-17T12:00	32700	8	-38.7		97	8	
2025-08-17T12:00	32750	8	-38.7		100	8	
2025-08-17T12:00	32800	8	-38.8		105	7	
2025-08-17T12:00	32850	8	-38.8		103	7	
2025-08-17T12:00	32900	8	-38.6		96	8	
2025-08-17T12:00	32950	8	-38.3		89	9	
2025-08-17T12:00	33000	8	-38.1		86	10	
2025-08-17T12:00	33050	8	-37.9		88	11	
2025-08-17T12:00	33100	8	-37.4		91	11	
2025-08-17T12:00	33150	8	-37.0		96	11	
2025-08-17T12:00	33200	8	-36.8		100	10	
2025-08-17T12:00	33250	8	-36.7		102	10	
2025-08-17T12:00	33300	8	-36.6		105	9	
2025-08-17T12:00	33350	8	-36.5		106	8	
2025-08-17T12:00	33400	8	-36.5		102	7	
2025-08-17T12:00	33450	8	-36.4		93	7	
2025-08-17T12:00	33500	8	-36.1		83	8	
2025-08-17T12:00	33550	7	-35.9		76	9	
2025-08-17T12:00	33600	7	-35.7		69	10	
2025-08-17T12:00	33650	7	-35.5		64	10	
2025-08-17T12:00	33700	7	-35.5		63	10	
2025-08-17T12:00	33750	7	-35.4		65	10	
2025-08-17T12:00	33800	7	-35.5		69	10	
2025-08-17T12:00	33850	7	-35.6		73	10	
2025-08-17T12:00	33900	7	-35.7		76	11	
2025-08-17T12:00	33950	7	-35.7		77	11	
2025-08-17T12:00	34000	7	-35.6		79	11	
2025-08-17T12:00	34050	7	-35.6		83	12	
2025-08-17T12:00	34100	7	-35.6		88	12	
2025-08-17T12:00	34150	7	-35.6		93	12	
2025-08-17T12:00	34200	7	-35.6		97	12	
2025-08-17T12:00	34250	7	-35.4		100	12	
2025-08-17T12:00	34300	7	-35.4		100	12	
2025-08-17T12:00	34350	7	-35.5		96	12	
2025-08-17T12:00	34400	7	-35.5		89	12	
2025-08-17T12:00	34450	7	-35.3		82	13	
2025-08-17T12:00	34500	6	-35.2		78	13	
2025-08-17T12:00	34550	6	-35.2		75	14	
2025-08-17T12:00	34600	6	-35.2		73	15	
2025-08-17T12:00	34650	6	-35.2		73	15	
2025-08-17T12:00	34700	6	-35.2		75	15	
2025-08-17T12:00	34750	6	-35.2		78	14	
2025-08-17T12:00	34800	6	-35.2		80	14	
2025-08-17T12:00	34850	6	-35.1		79	14	
2025-08-17T12:00	34900	6	-34.9		77	14	
2025-08-17T12:00	34950	6	-34.9		75	13	
2025-08-17T12:00	35000	6	-35.0		73	12	
2025-08-17T12:00	35050	6	-35.0		72	11	
2025-08-17T12:00	35100	6	-34.8		71	12	
2025-08-17T12:00	35150	6	-34.2		74	13	
2025-08-17T12:00	35200	6	-33.7		79	14	
2025-08-17T12:00	35250	6	-33.5		85	15	
2025-08-17T12:00	35300	6	-33.2		91	16	
2025-08-17T12:00	35350	6	-33.1		97	17	
2025-08-17T12:00	35400	6	-33.0		102	17	
2025-08-17T12:00	35450	6	-32.8		104	18	
2025-08-17T12:00	35500	6	-32.5		104	18	
2025-08-17T12:00	35550	6	-32.2		104	17	
2025-08-17T12:00	35600	6	-32.0		103	16	
2025-08-17T12:00	35650	6	-31.9		102	14	
2025-08-17T12:00	35700	5	-31.9		101	13	
2025-08-17T12:00	35750	5	-31.9		99	13	
2025-08-17T12:00	35800	5	-31.7		99	14	
2025-08-17T12:00	35850	5	-31.4		99	15	
2025-08-18T00:00	491	960	17.1	11.6	34	0	
2025-08-18T00:00	501	958	18.6	10.8	40	2	
2025-08-18T00:00	520	957	19.4	10.6	43	3	
2025-08-18T00:00	540	955	20.1	10.4	47	3	
2025-08-18T00:00	560	952	20.0	10.4	51	4	
2025-08-18T00:00	580	950	19.7	10.4	55	5	
2025-08-18T00:00	600	948	19.6	10.3	58	6	
2025-08-18T00:00	620	945	19.4	10.3	60	6	
2025-08-18T00:00	640	943	19.5	10.2	62	7	
2025-08-18T00:00	660	941	19.6	10.1	62	7	
2025-08-18T00:00	680	939	19.7	10.2	61	8	
2025-08-18T00:00	700	937	19.6	10.2	60	9	
2025-08-18T00:00	720	935	19.5	10.1	59	9	
2025-08-18T00:00	740	932	19.5	10.0	58	10	
2025-08-18T00:00	760	930	19.7	10.1	58	11	
2025-08-18T00:00	780	928	19.7	10.2	58	11	
2025-08-18T00:00	800	926	19.5	10.2	58	11	
2025-08-18T00:00	820	924	19.4	10.2	58	12	
2025-08-18T00:00	840	922	19.2	10.1	58	12	
2025-08-18T00:00	860	920	19.0	10.2	58	12	
2025-08-18T00:00	880	917	18.8	10.3	57	12	
2025-08-18T00:00	900	916	18.6	10.6	57	12	
2025-08-18T00:00	920	913	18.5	10.8	55	12	
2025-08-18T00:00	940	911	18.3	10.9	55	12	
2025-08-18T00:00	960	909	18.1	10.9	54	12	
2025-08-18T00:00	980	907	17.9	10.9	55	12	
2025-08-18T00:00	1000	905	17.7	11.0	56	12	
2025-08-18T00:00	1020	903	17.6	10.9	57	12	
2025-08-18T00:00	1040	900	17.4	11.0	58	12	
2025-08-18T00:00	1060	898	17.3	11.1	60	12	
2025-08-18T00:00	1080	897	17.1	11.0	62	12	
2025-08-18T00:00	1100	894	17.1	11.0	63	12	
2025-08-18T00:00	1120	892	17.0	11.1	64	11	
2025-08-18T00:00	1140	890	16.8	11.1	65	11	
2025-08-18T00:00	1160	888	16.6	11.1	65	11	
2025-08-18T00:00	1180	886	16.5	11.2	66	10	
2025-08-18T00:00	1200	884	16.4	11.2	66	10	
2025-08-18T00:00	1220	882	16.3	11.5	67	9	
2025-08-18T00:00	1240	880	16.3	11.5	67	9	
2025-08-18T00:00	1260	878	16.4	11.5	68	9	
2025-08-18T00:00	1280	876	16.2	11.6	68	9	
2025-08-18T00:00	1300	873	16.1	11.7	69	9	
2025-08-18T00:00	1320	872	15.9	11.7	69	9	
2025-08-18T00:00	1340	870	15.7	11.7	69	9	
2025-08-18T00:00	1360	868	15.6	11.8	68	9	
2025-08-18T00:00	1380	865	15.4	11.8	68	8	
2025-08-18T00:00	1400	863	15.2	11.7	67	8	
2025-08-18T00:00	1420	861	15.1	11.6	66	8	
2025-08-18T00:00	1440	859	15.0	11.5	66	8	
2025-08-18T00:00	1460	857	14.8	11.4	64	7	
2025-08-18T00:00	1480	855	14.6	11.4	63	7	
2025-08-18T00:00	1500	853	14.5	11.3	61	7	
2025-08-18T00:00	1520	851	14.4	11.3	60	6	
2025-08-18T00:00	1540	849	14.2	11.4	57	6	
2025-08-18T00:00	1560	847	14.1	11.4	55	6	
2025-08-18T00:00	1580	845	14.0	11.3	52	6	
2025-08-18T00:00	1600	843	13.8	11.4	50	6	
2025-08-18T00:00	1620	841	13.7	11.3	49	5	
2025-08-18T00:00	1640	839	13.5	11.2	48	5	
2025-08-18T00:00	1660	837	13.5	11.2	47	5	
2025-08-18T00:00	1680	835	13.4	11.1	47	5	
2025-08-18T00:00	1700	833	13.3	11.1	48	5	
2025-08-18T00:00	1720	831	13.1	11.1	50	5	
2025-08-18T00:00	1740	829	13.0	10.9	52	4	
2025-08-18T00:00	1760	827	13.1	8.5	54	4	
2025-08-18T00:00	1780	825	13.7	5.5	56	3	
2025-08-18T00:00	1800	823	13.6	5.4	56	3	
2025-08-18T00:00	1820	822	13.7	4.8	57	2	
2025-08-18T00:00	1840	820	13.8	4.2	59	2	
2025-08-18T00:00	1860	818	13.6	4.1	65	1	
2025-08-18T00:00	1880	816	13.6	3.2	80	1	
2025-08-18T00:00	1900	814	13.7	2.0	106	1	
2025-08-18T00:00	1920	812	13.9	-0.5	134	1	
2025-08-18T00:00	1940	810	13.9	0.5	149	1	
2025-08-18T00:00	1960	808	13.7	2.3	157	1	
2025-08-18T00:00	1980	806	13.4	3.6	164	2	
2025-08-18T00:00	2000	804	13.3	4.0	168	2	
2025-08-18T00:00	2020	802	13.1	5.5	173	2	
2025-08-18T00:00	2040	800	12.9	6.6	175	2	
2025-08-18T00:00	2060	799	13.0	3.0	177	2	
2025-08-18T00:00	2080	797	13.2	0.5	177	2	
2025-08-18T00:00	2100	795	13.1	-0.2	174	2	
2025-08-18T00:00	2120	793	13.0	-0.6	168	2	
2025-08-18T00:00	2140	791	12.9	-1.5	160	2	
2025-08-18T00:00	2160	789	12.8	-3.0	150	2	
2025-08-18T00:00	2180	787	12.9	-5.1	141	2	
2025-08-18T00:00	2200	785	12.8	-5.0	133	3	
2025-08-18T00:00	2220	783	12.6	-5.5	127	3	
2025-08-18T00:00	2240	782	12.6	-6.4	124	3	
2025-08-18T00:00	2260	780	12.7	-8.5	123	3	
2025-08-18T00:00	2280	778	12.7	-11.7	123	3	
2025-08-18T00:00	2300	776	12.9	-19.4	123	2	
2025-08-18T00:00	2320	774	13.0	-22.0	122	2	
2025-08-18T00:00	2340	772	13.0	-21.2	117	1	
2025-08-18T00:00	2360	770	12.9	-15.3	107	1	
2025-08-18T00:00	2380	769	12.8	-14.5	92	1	
2025-08-18T00:00	2400	767	12.6	-13.9	77	1	
2025-08-18T00:00	2420	765	12.4	-10.1	67	1	
2025-08-18T00:00	2440	763	12.2	-5.7	59	1	
2025-08-18T00:00	2460	761	11.9	-5.0	53	1	
2025-08-18T00:00	2480	759	11.7	-4.5	48	2	
2025-08-18T00:00	2500	758	11.5	-4.5	46	2	
2025-08-18T00:00	2520	756	11.4	-4.7	43	2	
2025-08-18T00:00	2540	754	11.2	-5.1	40	2	
2025-08-18T00:00	2560	752	11.0	-5.4	38	3	
2025-08-18T00:00	2580	750	10.8	-6.7	36	3	
2025-08-18T00:00	2600	748	10.7	-8.2	34	3	
2025-08-18T00:00	2620	747	10.7	-9.3	31	3	
2025-08-18T00:00	2640	745	10.6	-8.8	29	3	
2025-08-18T00:00	2660	743	10.5	-8.0	27	3	
2025-08-18T00:00	2680	741	10.3	-8.0	25	2	
2025-08-18T00:00	2700	740	10.2	-8.0	27	2	
2025-08-18T00:00	2720	738	10.1	-7.8	32	2	
2025-08-18T00:00	2740	736	10.0	-8.0	40	1	
2025-08-18T00:00	2760	734	9.9	-8.2	49	2	
2025-08-18T00:00	2780	733	9.8	-8.5	56	2	
2025-08-18T00:00	2800	731	9.8	-8.9	61	2	
2025-08-18T00:00	2820	729	9.6	-8.8	63	2	
2025-08-18T00:00	2840	727	9.5	-8.6	65	2	
2025-08-18T00:00	2860	725	9.3	-8.5	64	2	
2025-08-18T00:00	2880	724	9.2	-8.6	60	2	
2025-08-18T00:00	2900	722	9.1	-8.7	55	2	
2025-08-18T00:00	2920	720	8.9	-8.7	48	2	
2025-08-18T00:00	2940	719	8.7	-8.7	43	2	
2025-08-18T00:00	2960	717	8.6	-8.7	42	3	
2025-08-18T00:00	2980	715	8.4	-8.8	42	3	
2025-08-18T00:00	3000	713	8.2	-8.9	44	4	
2025-08-18T00:00	3020	712	8.0	-8.9	46	4	
2025-08-18T00:00	3040	710	7.8	-9.0	48	4	
2025-08-18T00:00	3060	708	7.7	-8.9	51	4	
2025-08-18T00:00	3080	706	7.5	-8.7	56	4	
2025-08-18T00:00	3100	705	7.4	-8.2	63	4	
2025-08-18T00:00	3120	703	7.2	-7.7	69	4	
2025-08-18T00:00	3140	701	7.1	-7.4	74	3	
2025-08-18T00:00	3160	700	6.9	-7.3	76	3	
2025-08-18T00:00	3180	698	6.8	-7.2	75	3	
2025-08-18T00:00	3200	696	6.6	-7.3	71	3	
2025-08-18T00:00	3220	695	6.5	-7.1	65	3	
2025-08-18T00:00	3240	693	6.3	-6.9	60	3	
2025-08-18T00:00	3260	691	6.1	-6.7	55	3	
2025-08-18T00:00	3280	689	6.0	-6.7	52	3	
2025-08-18T00:00	3300	688	5.9	-7.1	51	3	
2025-08-18T00:00	3320	686	5.8	-6.9	50	3	
2025-08-18T00:00	3340	684	5.6	-6.7	46	2	
2025-08-18T00:00	3360	683	5.4	-6.5	37	2	
2025-08-18T00:00	3380	681	5.3	-6.8	25	2	
2025-08-18T00:00	3400	679	5.1	-6.9	11	2	
2025-08-18T00:00	3420	678	5.0	-7.0	2	2	
2025-08-18T00:00	3440	676	4.8	-6.8	0	3	
2025-08-18T00:00	3460	674	4.7	-6.6	0	3	
2025-08-18T00:00	3480	673	4.5	-7.0	2	3	
2025-08-18T00:00	3500	671	4.4	-8.4	4	4	
2025-08-18T00:00	3520	669	4.5	-10.4	6	4	
2025-08-18T00:00	3540	668	4.5	-11.8	10	4	
2025-08-18T00:00	3560	666	4.5	-11.9	16	4	
2025-08-18T00:00	3580	664	4.4	-11.8	19	4	
2025-08-18T00:00	3600	663	4.3	-12.0	21	4	
2025-08-18T00:00	3620	661	4.3	-13.1	22	4	
2025-08-18T00:00	3640	660	4.3	-13.6	23	4	
2025-08-18T00:00	3660	658	4.2	-13.4	23	4	
2025-08-18T00:00	3680	656	4.0	-13.2	25	4	
2025-08-18T00:00	3700	655	4.0	-13.4	27	4	
2025-08-18T00:00	3720	653	3.8	-13.9	31	4	
2025-08-18T00:00	3740	652	3.7	-14.1	36	4	
2025-08-18T00:00	3760	650	3.6	-14.0	39	4	
2025-08-18T00:00	3780	648	3.5	-14.0	42	4	
2025-08-18T00:00	3800	647	3.4	-14.0	45	4	
2025-08-18T00:00	3820	645	3.2	-13.8	47	4	
2025-08-18T00:00	3840	643	3.0	-13.7	47	3	
2025-08-18T00:00	3860	642	2.8	-13.6	47	3	
2025-08-18T00:00	3880	640	2.7	-14.0	45	3	
2025-08-18T00:00	3900	639	2.6	-14.8	44	3	
2025-08-18T00:00	3920	637	2.5	-14.8	42	3	
2025-08-18T00:00	3940	636	2.4	-14.6	39	4	
2025-08-18T00:00	3960	634	2.3	-14.4	37	4	
2025-08-18T00:00	3980	633	2.2	-14.4	35	4	
2025-08-18T00:00	4000	631	2.0	-14.6	33	4	
2025-08-18T00:00	4020	629	1.9	-15.0	32	4	
2025-08-18T00:00	4040	628	1.8	-15.5	32	4	
2025-08-18T00:00	4060	626	1.6	-15.8	34	4	
2025-08-18T00:00	4080	625	1.4	-16.1	36	4	
2025-08-18T00:00	4100	623	1.3	-16.8	37	4	
2025-08-18T00:00	4120	622	1.2	-17.0	37	5	
2025-08-18T00:00	4140	620	1.1	-17.1	35	5	
2025-08-18T00:00	4160	618	0.9	-17.2	33	5	
2025-08-18T00:00	4180	617	0.8	-17.4	29	5	
2025-08-18T00:00	4200	615	0.6	-17.4	26	5	
2025-08-18T00:00	4220	614	0.5	-17.3	22	5	
2025-08-18T00:00	4240	612	0.3	-17.3	20	4	
2025-08-18T00:00	4260	611	0.1	-17.4	18	4	
2025-08-18T00:00	4280	609	-0.1	-17.5	17	4	
2025-08-18T00:00	4300	608	-0.2	-17.4	18	3	
2025-08-18T00:00	4320	606	-0.4	-17.4	20	3	
2025-08-18T00:00	4340	605	-0.6	-17.3	23	3	
2025-08-18T00:00	4360	603	-0.8	-17.2	25	3	
2025-08-18T00:00	4380	602	-0.9	-17.4	27	3	
2025-08-18T00:00	4400	600	-1.1	-17.5	27	3	
2025-08-18T00:00	4420	599	-1.2	-17.8	26	4	
2025-08-18T00:00	4440	597	-1.4	-17.6	25	4	
2025-08-18T00:00	4460	596	-1.5	-17.4	23	4	
2025-08-18T00:00	4480	594	-1.7	-17.4	20	4	
2025-08-18T00:00	4500	593	-1.8	-17.3	16	4	
2025-08-18T00:00	4520	591	-2.0	-17.2	11	4	
2025-08-18T00:00	4540	590	-2.1	-17.4	7	4	
2025-08-18T00:00	4560	588	-2.3	-17.4	3	5	
2025-08-18T00:00	4580	587	-2.5	-17.3	0	5	
2025-08-18T00:00	4600	585	-2.7	-17.3	359	5	
2025-08-18T00:00	4620	584	-2.8	-17.3	358	6	
2025-08-18T00:00	4640	583	-3.0	-17.3	359	5	
2025-08-18T00:00	4660	581	-3.2	-17.1	2	5	
2025-08-18T00:00	4680	580	-3.3	-17.1	5	5	
2025-08-18T00:00	4700	578	-3.4	-17.5	8	5	
2025-08-18T00:00	4720	577	-3.5	-17.7	11	5	
2025-08-18T00:00	4740	575	-3.6	-17.9	10	5	
2025-08-18T00:00	4760	574	-3.7	-18.3	9	5	
2025-08-18T00:00	4780	572	-3.8	-18.8	6	5	
2025-08-18T00:00	4800	571	-3.9	-18.9	4	5	
2025-08-18T00:00	4820	569	-3.9	-19.2	1	5	
2025-08-18T00:00	4840	568	-3.9	-19.3	359	6	
2025-08-18T00:00	4860	566	-4.0	-18.4	359	6	
2025-08-18T00:00	4880	565	-4.1	-17.8	359	6	
2025-08-18T00:00	4900	563	-4.3	-17.8	359	6	
2025-08-18T00:00	4920	562	-4.5	-17.3	358	5	
2025-08-18T00:00	4940	561	-4.6	-17.2	357	5	
2025-08-18T00:00	4960	559	-4.7	-17.8	357	6	
2025-08-18T00:00	4980	558	-4.8	-17.9	356	6	
2025-08-18T00:00	5000	556	-4.9	-18.0	357	6	
2025-08-18T00:00	5020	555	-5.0	-17.9	357	6	
2025-08-18T00:00	5040	554	-5.1	-18.2	359	6	
2025-08-18T00:00	5060	552	-5.3	-18.6	1	7	
2025-08-18T00:00	5080	551	-5.4	-19.2	3	7	
2025-08-18T00:00	5100	550	-5.6	-20.0	5	7	
2025-08-18T00:00	5120	548	-5.7	-20.5	6	7	
2025-08-18T00:00	5140	547	-5.9	-18.9	8	7	
2025-08-18T00:00	5160	545	-6.0	-19.4	9	7	
2025-08-18T00:00	5180	544	-6.0	-22.5	9	7	
2025-08-18T00:00	5200	542	-5.9	-25.2	8	7	
2025-08-18T00:00	5220	541	-6.0	-24.8	7	7	
2025-08-18T00:00	5240	540	-6.2	-24.3	6	7	
2025-08-18T00:00	5260	538	-6.2	-25.2	5	7	
2025-08-18T00:00	5280	537	-6.3	-26.7	3	6	
2025-08-18T00:00	5300	535	-6.2	-28.5	2	6	
2025-08-18T00:00	5320	534	-6.3	-28.8	2	6	
2025-08-18T00:00	5340	533	-6.5	-28.2	4	5	
2025-08-18T00:00	5360	532	-6.6	-27.7	6	5	
2025-08-18T00:00	5380	530	-6.8	-25.6	8	5	
2025-08-18T00:00	5400	529	-6.9	-24.2	10	5	
2025-08-18T00:00	5420	527	-7.0	-24.3	10	5	
2025-08-18T00:00	5440	526	-7.2	-24.9	9	5	
2025-08-18T00:00	5460	525	-7.3	-26.1	8	5	
2025-08-18T00:00	5480	523	-7.4	-26.3	6	5	
2025-08-18T00:00	5500	522	-7.6	-25.7	5	5	
2025-08-18T00:00	5520	521	-7.7	-25.7	4	6	
2025-08-18T00:00	5540	519	-7.8	-25.6	4	6	
2025-08-18T00:00	5560	518	-7.9	-26.4	5	5	
2025-08-18T00:00	5580	517	-8.0	-26.3	6	6	
2025-08-18T00:00	5600	515	-8.2	-26.0	8	6	
2025-08-18T00:00	5620	514	-8.3	-26.3	8	6	
2025-08-18T00:00	5640	513	-8.5	-27.2	9	6	
2025-08-18T00:00	5660	511	-8.6	-29.3	9	6	
2025-08-18T00:00	5680	510	-8.7	-30.2	8	6	
2025-08-18T00:00	5700	509	-8.9	-30.8	8	6	
2025-08-18T00:00	5720	507	-9.0	-28.8	7	6	
2025-08-18T00:00	5740	506	-9.2	-28.1	5	6	
2025-08-18T00:00	5760	505	-9.4	-27.6	4	6	
2025-08-18T00:00	5780	504	-9.5	-27.3	2	6	
2025-08-18T00:00	5800	502	-9.7	-27.0	1	7	
2025-08-18T00:00	5820	501	-9.8	-27.9	359	7	
2025-08-18T00:00	5840	500	-9.9	-28.2	360	7	
2025-08-18T00:00	5860	498	-10.1	-28.4	0	7	
2025-08-18T00:00	5880	497	-10.2	-28.2	1	7	
2025-08-18T00:00	5900	496	-10.3	-27.9	3	7	
2025-08-18T00:00	5920	494	-10.5	-28.1	5	7	
2025-08-18T00:00	5940	493	-10.7	-28.0	8	7	
2025-08-18T00:00	5960	492	-10.9	-28.2	11	7	
2025-08-18T00:00	5980	490	-11.1	-28.2	14	6	
2025-08-18T00:00	6000	489	-11.2	-28.2	16	6	
2025-08-18T00:00	6020	488	-11.4	-28.1	19	6	
2025-08-18T00:00	6040	487	-11.6	-28.1	21	6	
2025-08-18T00:00	6060	485	-11.7	-28.1	21	7	
2025-08-18T00:00	6080	484	-11.9	-28.2	20	7	
2025-08-18T00:00	6100	483	-12.0	-28.1	18	7	
2025-08-18T00:00	6120	482	-12.2	-27.1	14	7	
2025-08-18T00:00	6140	480	-12.3	-26.3	11	6	
2025-08-18T00:00	6160	479	-12.5	-25.9	8	6	
2025-08-18T00:00	6180	478	-12.7	-25.0	4	6	
2025-08-18T00:00	6200	477	-12.8	-24.9	2	6	
2025-08-18T00:00	6220	475	-13.0	-25.3	1	5	
2025-08-18T00:00	6240	474	-13.0	-26.8	3	5	
2025-08-18T00:00	6260	473	-13.1	-27.5	5	5	
2025-08-18T00:00	6280	472	-13.1	-27.7	8	6	
2025-08-18T00:00	6300	470	-13.2	-27.9	10	6	
2025-08-18T00:00	6320	469	-13.4	-28.0	11	6	
2025-08-18T00:00	6340	468	-13.5	-28.2	12	7	
2025-08-18T00:00	6360	467	-13.7	-28.3	14	7	
2025-08-18T00:00	6380	466	-13.9	-28.4	14	7	
2025-08-18T00:00	6400	464	-14.1	-28.5	14	8	
2025-08-18T00:00	6420	463	-14.2	-28.6	13	8	
2025-08-18T00:00	6440	462	-14.4	-28.7	13	8	
2025-08-18T00:00	6460	461	-14.6	-28.9	13	8	
2025-08-18T00:00	6480	459	-14.7	-29.2	12	8	
2025-08-18T00:00	6500	458	-14.8	-29.6	11	8	
2025-08-18T00:00	6520	457	-15.0	-29.9	11	8	
2025-08-18T00:00	6540	456	-15.1	-30.1	9	8	
2025-08-18T00:00	6560	455	-15.3	-30.2	6	7	
2025-08-18T00:00	6580	453	-15.5	-30.3	4	7	
2025-08-18T00:00	6600	452	-15.6	-30.5	1	7	
2025-08-18T00:00	6620	451	-15.7	-30.6	359	7	
2025-08-18T00:00	6640	450	-15.9	-30.8	358	7	
2025-08-18T00:00	6660	449	-16.0	-31.4	357	7	
2025-08-18T00:00	6680	447	-16.0	-32.1	357	7	
2025-08-18T00:00	6700	446	-16.1	-32.3	358	7	
2025-08-18T00:00	6720	445	-16.2	-32.8	359	7	
2025-08-18T00:00	6740	444	-16.3	-33.0	0	6	
2025-08-18T00:00	6760	443	-16.5	-33.1	3	6	
2025-08-18T00:00	6780	441	-16.7	-33.4	5	6	
2025-08-18T00:00	6800	440	-16.7	-33.9	7	6	
2025-08-18T00:00	6820	439	-16.9	-34.3	9	6	
2025-08-18T00:00	6840	438	-17.0	-35.1	9	7	
2025-08-18T00:00	6860	437	-17.1	-35.5	9	7	
2025-08-18T00:00	6880	436	-17.1	-35.8	8	7	
2025-08-18T00:00	6900	434	-17.2	-35.9	8	8	
2025-08-18T00:00	6920	433	-17.3	-35.7	7	8	
2025-08-18T00:00	6940	432	-17.4	-35.1	7	8	
2025-08-18T00:00	6960	431	-17.6	-34.7	6	8	
2025-08-18T00:00	6980	430	-17.8	-35.0	5	7	
2025-08-18T00:00	7000	429	-18.0	-35.1	4	7	
2025-08-18T00:00	7020	428	-18.1	-35.2	2	7	
2025-08-18T00:00	7040	426	-18.3	-35.5	0	7	
2025-08-18T00:00	7060	425	-18.5	-35.6	358	7	
2025-08-18T00:00	7080	424	-18.6	-36.1	357	7	
2025-08-18T00:00	7100	423	-18.7	-36.6	356	7	
2025-08-18T00:00	7120	422	-18.8	-37.1	356	8	
2025-08-18T00:00	7140	421	-18.9	-37.2	357	8	
2025-08-18T00:00	7160	420	-19.1	-37.6	358	8	
2025-08-18T00:00	7180	419	-19.2	-37.8	359	8	
2025-08-18T00:00	7200	417	-19.4	-38.0	1	8	
2025-08-18T00:00	7220	416	-19.6	-38.2	2	8	
2025-08-18T00:00	7240	415	-19.7	-38.3	4	8	
2025-08-18T00:00	7260	414	-19.9	-38.3	5	8	
2025-08-18T00:00	7280	413	-20.0	-38.7	6	8	
2025-08-18T00:00	7300	412	-20.2	-38.9	6	8	
2025-08-18T00:00	7320	411	-20.3	-39.0	7	8	
2025-08-18T00:00	7340	410	-20.5	-38.9	8	8	
2025-08-18T00:00	7360	408	-20.7	-39.1	8	8	
2025-08-18T00:00	7380	407	-20.9	-39.2	8	8	
2025-08-18T00:00	7400	406	-21.0	-39.3	8	8	
2025-08-18T00:00	7420	405	-21.1	-39.6	8	9	
2025-08-18T00:00	7440	404	-21.3	-39.7	7	9	
2025-08-18T00:00	7460	403	-21.4	-39.7	7	9	
2025-08-18T00:00	7480	402	-21.6	-39.8	6	9	
2025-08-18T00:00	7500	401	-21.7	-39.9	4	9	
2025-08-18T00:00	7520	400	-21.9	-40.1	3	9	
2025-08-18T00:00	7540	399	-22.0	-40.2	2	8	
2025-08-18T00:00	7560	398	-22.2	-40.1	1	8	
2025-08-18T00:00	7580	396	-22.3	-40.0	1	8	
2025-08-18T00:00	7600	395	-22.5	-40.0	1	8	
2025-08-18T00:00	7620	394	-22.7	-39.8	2	7	
2025-08-18T00:00	7640	393	-22.9	-39.7	3	7	
2025-08-18T00:00	7660	392	-23.1	-39.7	5	7	
2025-08-18T00:00	7680	391	-23.3	-39.6	7	7	
2025-08-18T00:00	7700	390	-23.4	-39.6	10	7	
2025-08-18T00:00	7720	389	-23.6	-39.8	13	7	
2025-08-18T00:00	7740	388	-23.8	-40.3	15	7	
2025-08-18T00:00	7760	387	-23.9	-40.9	17	8	
2025-08-18T00:00	7780	386	-24.0	-41.4	19	8	
2025-08-18T00:00	7800	385	-24.2	-41.9	20	8	
2025-08-18T00:00	7820	384	-24.3	-42.3	21	8	
2025-08-18T00:00	7840	383	-24.5	-42.6	21	8	
2025-08-18T00:00	7860	382	-24.6	-42.6	21	8	
2025-08-18T00:00	7880	380	-24.8	-42.4	22	8	
2025-08-18T00:00	7900	379	-25.0	-42.0	22	8	
2025-08-18T00:00	7920	378	-25.2	-41.8	23	8	
2025-08-18T00:00	7940	377	-25.4	-41.9	25	8	
2025-08-18T00:00	7960	376	-25.5	-42.7	27	8	
2025-08-18T00:00	7980	375	-25.7	-44.2	29	8	
2025-08-18T00:00	8000	374	-25.8	-45.4	31	8	
2025-08-18T00:00	8020	373	-26.0	-47.3	33	8	
2025-08-18T00:00	8040	372	-26.1	-48.0	35	8	
2025-08-18T00:00	8060	371	-26.3	-48.5	36	8	
2025-08-18T00:00	8080	370	-26.4	-49.2	36	8	
2025-08-18T00:00	8100	369	-26.6	-49.2	36	8	
2025-08-18T00:00	8120	368	-26.8	-49.2	36	8	
2025-08-18T00:00	8140	367	-27.0	-49.3	35	8	
2025-08-18T00:00	8160	366	-27.1	-49.4	34	8	
2025-08-18T00:00	8180	365	-27.3	-49.3	33	8	
2025-08-18T00:00	8200	364	-27.5	-49.5	33	8	
2025-08-18T00:00	8220	363	-27.7	-49.6	33	8	
2025-08-18T00:00	8240	362	-27.8	-49.8	34	8	
2025-08-18T00:00	8260	361	-28.0	-49.9	35	8	
2025-08-18T00:00	8280	360	-28.2	-50.1	36	8	
2025-08-18T00:00	8300	359	-28.3	-50.4	37	8	
2025-08-18T00:00	8320	358	-28.5	-50.4	38	8	
2025-08-18T00:00	8340	357	-28.6	-50.6	39	7	
2025-08-18T00:00	8360	356	-28.8	-50.6	39	7	
2025-08-18T00:00	8380	355	-29.0	-50.7	39	7	
2025-08-18T00:00	8400	354	-29.2	-50.8	38	7	
2025-08-18T00:00	8420	353	-29.3	-50.7	38	7	
2025-08-18T00:00	8440	352	-29.5	-50.7	38	7	
2025-08-18T00:00	8460	351	-29.7	-50.9	38	7	
2025-08-18T00:00	8480	350	-29.9	-51.0	37	7	
2025-08-18T00:00	8500	349	-30.1	-51.0	37	7	
2025-08-18T00:00	8520	348	-30.3	-50.5	37	7	
2025-08-18T00:00	8540	347	-30.5	-50.5	36	7	
2025-08-18T00:00	8560	346	-30.6	-50.4	36	7	
2025-08-18T00:00	8580	345	-30.8	-50.6	36	7	
2025-08-18T00:00	8600	344	-31.0	-50.7	35	7	
2025-08-18T00:00	8620	343	-31.2	-50.8	35	7	
2025-08-18T00:00	8640	342	-31.4	-51.0	34	6	
2025-08-18T00:00	8660	341	-31.6	-51.3	34	6	
2025-08-18T00:00	8680	340	-31.7	-51.4	33	6	
2025-08-18T00:00	8700	339	-31.9	-51.2	32	6	
2025-08-18T00:00	8720	338	-32.1	-51.1	31	6	
2025-08-18T00:00	8740	337	-32.3	-51.2	29	6	
2025-08-18T00:00	8760	336	-32.5	-51.4	28	7	
2025-08-18T00:00	8780	336	-32.6	-51.5	28	7	
2025-08-18T00:00	8800	334	-32.8	-51.8	28	7	
2025-08-18T00:00	8820	334	-32.9	-52.1	29	7	
2025-08-18T00:00	8840	333	-33.1	-52.1	29	7	
2025-08-18T00:00	8860	332	-33.3	-52.2	30	7	
2025-08-18T00:00	8880	331	-33.5	-52.1	30	8	
2025-08-18T00:00	8900	330	-33.6	-52.1	31	8	
2025-08-18T00:00	8920	329	-33.8	-52.1	31	8	
2025-08-18T00:00	8940	328	-34.0	-52.3	30	8	
2025-08-18T00:00	8960	327	-34.1	-52.3	30	8	
2025-08-18T00:00	8980	326	-34.3	-52.3	30	8	
2025-08-18T00:00	9000	325	-34.5	-52.3	29	8	
2025-08-18T00:00	9020	324	-34.6	-52.4	29	8	
2025-08-18T00:00	9040	323	-34.8	-52.5	28	8	
2025-08-18T00:00	9060	322	-35.0	-52.6	27	8	
2025-08-18T00:00	9080	321	-35.2	-52.7	26	7	
2025-08-18T00:00	9100	320	-35.4	-53.1	24	7	
2025-08-18T00:00	9120	320	-35.5	-53.4	23	7	
2025-08-18T00:00	9140	319	-35.7	-53.4	23	7	
2025-08-18T00:00	9160	318	-35.9	-53.5	23	7	
2025-08-18T00:00	9180	317	-36.0	-53.4	23	7	
2025-08-18T00:00	9200	316	-36.2	-53.5	24	7	
2025-08-18T00:00	9220	315	-36.4	-53.6	25	7	
2025-08-18T00:00	9240	314	-36.6	-53.7	26	7	
2025-08-18T00:00	9260	313	-36.8	-53.7	26	7	
2025-08-18T00:00	9280	312	-37.0	-53.8	26	7	
2025-08-18T00:00	9300	311	-37.2	-54.2	25	8	
2025-08-18T00:00	9320	310	-37.3	-54.3	25	8	
2025-08-18T00:00	9340	310	-37.5	-54.3	24	8	
2025-08-18T00:00	9360	309	-37.7	-54.2	23	8	
2025-08-18T00:00	9380	308	-37.8	-54.4	22	8	
2025-08-18T00:00	9400	307	-38.0	-54.7	20	8	
2025-08-18T00:00	9420	306	-38.2	-54.6	18	9	
2025-08-18T00:00	9440	305	-38.4	-54.7	17	9	
2025-08-18T00:00	9460	304	-38.5	-55.0	16	9	
2025-08-18T00:00	9480	303	-38.7	-55.2	15	9	
2025-08-18T00:00	9500	303	-38.8	-55.1	15	9	
2025-08-18T00:00	9520	302	-39.0	-55.1	15	9	
2025-08-18T00:00	9540	301	-39.2	-55.2	15	9	
2025-08-18T00:00	9560	300	-39.3	-55.2	15	9	
2025-08-18T00:00	9580	299	-39.5	-55.2	15	9	
2025-08-18T00:00	9600	298	-39.7	-55.3	15	9	
2025-08-18T00:00	9620	297	-39.9	-55.3	14	9	
2025-08-18T00:00	9640	296	-40.1	-55.5	12	9	
2025-08-18T00:00	9660	295	-40.2	-55.6	10	9	
2025-08-18T00:00	9680	295	-40.4	-55.8	7	9	
2025-08-18T00:00	9700	294	-40.5	-55.8	5	10	
2025-08-18T00:00	9720	293	-40.7	-55.9	2	10	
2025-08-18T00:00	9740	292	-40.8	-56.1	359	11	
2025-08-18T00:00	9760	291	-40.9	-56.3	358	11	
2025-08-18T00:00	9780	290	-41.1	-56.7	357	12	
2025-08-18T00:00	9800	289	-41.2	-56.8	357	12	
2025-08-18T00:00	9820	289	-41.3	-57.2	357	12	
2025-08-18T00:00	9840	288	-41.4	-57.3	358	12	
2025-08-18T00:00	9860	287	-41.5	-57.0	358	12	
2025-08-18T00:00	9880	286	-41.7	-56.8	359	12	
2025-08-18T00:00	9900	285	-41.8	-56.4	359	12	
2025-08-18T00:00	9920	284	-42.0	-56.3	360	12	
2025-08-18T00:00	9940	284	-42.2	-56.4	0	12	
2025-08-18T00:00	9960	283	-42.4	-56.1	1	12	
2025-08-18T00:00	9980	282	-42.6	-55.7	1	12	
2025-08-18T00:00	10000	281	-42.8	-55.6	2	12	
2025-08-18T00:00	10018	280	-42.9	-55.7	2	12	
2025-08-18T00:00	10050	279	-43.2	-55.5	2	12	
2025-08-18T00:00	10100	277	-43.7	-55.6	1	13	
2025-08-18T00:00	10150	275	-44.2	-55.6	2	13	
2025-08-18T00:00	10200	273	-44.7	-55.4	4	13	
2025-08-18T00:00	10250	271	-45.1	-55.3	6	13	
2025-08-18T00:00	10300	269	-45.5	-55.7	7	12	
2025-08-18T00:00	10350	267	-45.9	-55.9	6	11	
2025-08-18T00:00	10400	265	-46.2	-56.9	5	11	
2025-08-18T00:00	10450	263	-46.5	-57.3	5	11	
2025-08-18T00:00	10500	261	-46.8	-58.0	4	11	
2025-08-18T00:00	10550	259	-47.2	-58.3	3	11	
2025-08-18T00:00	10600	257	-47.6	-58.3	4	11	
2025-08-18T00:00	10650	255	-48.0	-58.1	7	11	
2025-08-18T00:00	10700	253	-48.5	-58.0	10	11	
2025-08-18T00:00	10750	251	-48.9	-58.2	10	11	
2025-08-18T00:00	10800	249	-49.2	-58.6	8	11	
2025-08-18T00:00	10850	247	-49.6	-58.7	7	11	
2025-08-18T00:00	10900	245	-50.0	-59.4	5	12	
2025-08-18T00:00	10950	243	-50.3	-60.2	2	12	
2025-08-18T00:00	11000	242	-50.7	-60.2	0	12	
2025-08-18T00:00	11050	240	-51.0	-60.3	359	11	
2025-08-18T00:00	11100	238	-51.3	-60.3	356	11	
2025-08-18T00:00	11150	236	-51.7	-60.6	353	11	
2025-08-18T00:00	11200	234	-52.1	-60.6	348	11	
2025-08-18T00:00	11250	233	-52.5	-60.6	342	11	
2025-08-18T00:00	11300	231	-52.8	-60.9	338	12	
2025-08-18T00:00	11350	229	-53.2	-61.2	336	13	
2025-08-18T00:00	11400	227	-53.5	-61.4	333	14	
2025-08-18T00:00	11450	225	-53.7	-61.6	330	14	
2025-08-18T00:00	11500	224	-54.0	-61.7	330	15	
2025-08-18T00:00	11550	222	-54.1	-62.0	331	17	
2025-08-18T00:00	11600	220	-54.1	-62.4	332	17	
2025-08-18T00:00	11650	218	-53.9	-62.7	333	17	
2025-08-18T00:00	11700	217	-53.9	-63.1	334	16	
2025-08-18T00:00	11750	215	-54.1	-63.5	335	16	
2025-08-18T00:00	11800	213	-54.2	-64.0	334	16	
2025-08-18T00:00	11850	212	-54.5	-63.9	334	16	
2025-08-18T00:00	11900	210	-54.8	-63.9	335	16	
2025-08-18T00:00	11950	208	-54.9	-64.3	337	15	
2025-08-18T00:00	12000	207	-55.0	-64.8	339	15	
2025-08-18T00:00	12050	205	-54.9	-65.1	341	15	
2025-08-18T00:00	12100	204	-55.1	-65.5	343	15	
2025-08-18T00:00	12150	202	-55.3	-65.8	344	15	
2025-08-18T00:00	12200	200	-55.3	-66.5	341	14	
2025-08-18T00:00	12250	199	-55.1	-67.6	337	14	
2025-08-18T00:00	12300	197	-54.9	-67.9	334	14	
2025-08-18T00:00	12350	196	-55.3	-68.0	334	14	
2025-08-18T00:00	12400	194	-55.6	-68.1	333	15	
2025-08-18T00:00	12450	193	-55.9	-68.3	333	16	
2025-08-18T00:00	12500	191	-56.2	-68.6	334	17	
2025-08-18T00:00	12550	190	-56.4	-69.3	337	17	
2025-08-18T00:00	12600	188	-56.2	-70.5	340	17	
2025-08-18T00:00	12650	187	-56.0	-72.2	342	17	
2025-08-18T00:00	12700	185	-55.3	-73.5	342	17	
2025-08-18T00:00	12750	184	-55.0	-73.3	342	18	
2025-08-18T00:00	12800	182	-55.2	-73.3	340	18	
2025-08-18T00:00	12850	181	-54.9	-74.0	337	18	
2025-08-18T00:00	12900	180	-54.9	-74.3	336	17	
2025-08-18T00:00	12950	178	-55.3	-74.3	336	17	
2025-08-18T00:00	13000	177	-55.4	-74.5	336	17	
2025-08-18T00:00	13050	175	-55.6	-74.8	336	16	
2025-08-18T00:00	13100	174	-55.5	-75.4	336	15	
2025-08-18T00:00	13150	173	-55.0	-76.9	338	15	
2025-08-18T00:00	13200	171	-54.6	-79.2	338	15	
2025-08-18T00:00	13250	170	-54.0	-79.7	336	14	
2025-08-18T00:00	13300	169	-53.8	-79.3	332	14	
2025-08-18T00:00	13350	167	-53.7	-78.7	327	13	
2025-08-18T00:00	13400	166	-53.9	-79.3	323	13	
2025-08-18T00:00	13450	165	-54.1	-79.9	322	13	
2025-08-18T00:00	13500	164	-54.1	-80.0	325	13	
2025-08-18T00:00	13550	162	-53.6	-78.2	328	14	
2025-08-18T00:00	13600	161	-53.7	-77.6	328	14	
2025-08-18T00:00	13650	160	-54.1	-78.2	328	14	
2025-08-18T00:00	13700	159	-54.3	-78.7	327	14	
2025-08-18T00:00	13750	157	-54.0	-79.4	327	13	
2025-08-18T00:00	13800	156	-54.1	-80.1	324	13	
2025-08-18T00:00	13850	155	-54.2	-80.4	320	13	
2025-08-18T00:00	13900	154	-54.1	-80.5	318	13	
2025-08-18T00:00	13950	152	-54.1	-80.7	321	12	
2025-08-18T00:00	14000	151	-54.1	-80.8	325	12	
2025-08-18T00:00	14050	150	-54.3	-81.0	323	11	
2025-08-18T00:00	14100	149	-54.1	-81.1	318	10	
2025-08-18T00:00	14150	148	-53.7	-81.0	314	11	
2025-08-18T00:00	14200	147	-54.1	-81.1	313	12	
2025-08-18T00:00	14250	145	-54.6	-81.2	312	12	
2025-08-18T00:00	14300	144	-55.0	-81.4	312	13	
2025-08-18T00:00	14350	143	-54.8	-81.4	313	13	
2025-08-18T00:00	14400	142	-55.0	-81.4	314	13	
2025-08-18T00:00	14450	141	-55.3	-81.5	316	13	
2025-08-18T00:00	14500	140	-55.2	-81.6	318	13	
2025-08-18T00:00	14550	139	-54.6	-81.5	321	14	
2025-08-18T00:00	14600	138	-54.6	-81.5	321	14	
2025-08-18T00:00	14650	137	-55.0	-81.5	319	14	
2025-08-18T00:00	14700	136	-55.4	-81.7	318	15	
2025-08-18T00:00	14750	135	-54.9	-81.6	320	15	
2025-08-18T00:00	14800	133	-55.0	-81.7	323	15	
2025-08-18T00:00	14850	132	-55.3	-81.9	325	14	
2025-08-18T00:00	14900	131	-55.3	-81.9	323	13	
2025-08-18T00:00	14950	130	-55.6	-82.1	321	12	
2025-08-18T00:00	15000	129	-55.7	-82.2	323	12	
2025-08-18T00:00	15050	128	-55.7	-82.4	328	12	
2025-08-18T00:00	15100	127	-56.0	-82.6	335	11	
2025-08-18T00:00	15150	126	-56.3	-82.7	339	11	
2025-08-18T00:00	15200	125	-56.3	-82.7	340	10	
2025-08-18T00:00	15250	124	-56.4	-82.8	339	10	
2025-08-18T00:00	15300	123	-56.8	-83.0	339	10	
2025-08-18T00:00	15350	122	-56.7	-82.9	341	10	
2025-08-18T00:00	15400	121	-57.0	-83.0	342	10	
2025-08-18T00:00	15450	121	-57.3	-83.1	344	9	
2025-08-18T00:00	15500	120	-57.3	-83.0	345	8	
2025-08-18T00:00	15550	119	-57.4	-83.0	343	7	
2025-08-18T00:00	15600	118	-57.5	-83.0	336	7	
2025-08-18T00:00	15650	117	-57.7	-83.1	327	6	
2025-08-18T00:00	15700	116	-57.9	-83.2	318	7	
2025-08-18T00:00	15750	115	-57.8	-83.1	314	7	
2025-08-18T00:00	15800	114	-57.7	-83.1	312	8	
2025-08-18T00:00	15850	113	-57.6	-83.2	311	8	
2025-08-18T00:00	15900	112	-57.6	-83.3	310	8	
2025-08-18T00:00	15950	111	-57.6	-83.3	306	8	
2025-08-18T00:00	16000	110	-57.9	-83.4	300	8	
2025-08-18T00:00	16050	110	-57.7	-83.5	291	9	
2025-08-18T00:00	16100	109	-57.1	-83.7	286	10	
2025-08-18T00:00	16150	108	-56.9	-83.7	286	10	
2025-08-18T00:00	16200	107	-57.0	-83.7	290	10	
2025-08-18T00:00	16250	106	-57.1	-83.7	296	10	
2025-08-18T00:00	16300	105	-57.1	-83.6	303	9	
2025-08-18T00:00	16350	104	-57.2	-83.6	308	9	
2025-08-18T00:00	16400	104	-57.5	-83.6	313	8	
2025-08-18T00:00	16450	103	-57.8	-83.8	319	8	
2025-08-18T00:00	16500	102	-57.5	-83.7	324	8	
2025-08-18T00:00	16550	101	-57.6	-83.8	325	7	
2025-08-18T00:00	16600	100	-57.8	-83.9	321	6	
2025-08-18T00:00	16650	100	-57.9	-84.0	315	6	
2025-08-18T00:00	16700	99	-57.8	-84.1	305	6	
2025-08-18T00:00	16750	98	-57.9	-84.4	296	6	
2025-08-18T00:00	16800	97	-57.9	-84.3	292	7	
2025-08-18T00:00	16850	97	-57.9	-84.3	291	6	
2025-08-18T00:00	16900	96	-57.9	-84.4	293	5	
2025-08-18T00:00	16950	95	-58.0	-84.4	292	5	
2025-08-18T00:00	17000	94	-58.1	-84.5	290	5	
2025-08-18T00:00	17050	94	-58.2	-84.6	292	5	
2025-08-18T00:00	17100	93	-58.2	-84.7	299	6	
2025-08-18T00:00	17150	92	-58.0	-84.7	306	6	
2025-08-18T00:00	17200	91	-58.0	-84.6	313	6	
2025-08-18T00:00	17250	91	-58.4	-84.6	319	7	
2025-08-18T00:00	17300	90	-58.7	-84.9	328	7	
2025-08-18T00:00	17350	89	-58.5	-84.8	340	6	
2025-08-18T00:00	17400	88	-58.6	-85.0	355	5	
2025-08-18T00:00	17450	88	-58.2	-84.8	8	5	
2025-08-18T00:00	17500	87	-58.3	-84.8	16	4	
2025-08-18T00:00	17550	86	-58.3	-84.8	13	2	
2025-08-18T00:00	17600	86	-58.5	-84.8	347	1	
2025-08-18T00:00	17650	85	-58.8	-84.8	302	1	
2025-08-18T00:00	17700	84	-59.1	-84.9	298	2	
2025-08-18T00:00	17750	84	-59.3	-85.0	304	3	
2025-08-18T00:00	17800	83	-59.6	-85.2	314	4	
2025-08-18T00:00	17850	82	-59.4	-85.4	330	4	
2025-08-18T00:00	17900	82	-58.7	-85.5	356	2	
2025-08-18T00:00	17950	81	-57.9	-85.3	78	1	
2025-08-18T00:00	18000	80	-57.8	-85.1	93	2	
2025-08-18T00:00	18050	80	-58.1	-85.0	70	2	
2025-08-18T00:00	18100	79	-58.4	-85.1	26	2	
2025-08-18T00:00	18150	78	-58.7	-85.2	1	3	
2025-08-18T00:00	18200	78	-58.8	-85.3	360	3	
2025-08-18T00:00	18250	77	-58.7	-85.4	10	4	
2025-08-18T00:00	18300	77	-58.6	-85.3	27	4	
2025-08-18T00:00	18350	76	-58.7	-85.4	44	4	
2025-08-18T00:00	18400	75	-58.8	-85.4	55	5	
2025-08-18T00:00	18450	75	-59.1	-85.5	63	5	
2025-08-18T00:00	18500	74	-59.5	-85.5	71	5	
2025-08-18T00:00	18550	74	-59.9	-85.6	80	4	
2025-08-18T00:00	18600	73	-60.4	-85.8	84	4	
2025-08-18T00:00	18650	72	-60.5	-86.2	84	3	
2025-08-18T00:00	18700	72	-59.9	-86.0	79	3	
2025-08-18T00:00	18750	71	-59.8	-86.1	70	2	
2025-08-18T00:00	18800	71	-59.9	-86.1	61	2	
2025-08-18T00:00	18850	70	-59.7	-86.2	60	2	
2025-08-18T00:00	18900	70	-59.4	-86.2	71	2	
2025-08-18T00:00	18950	69	-59.1	-86.2	92	3	
2025-08-18T00:00	19000	69	-58.4	-85.9	100	4	
2025-08-18T00:00	19050	68	-58.4	-85.9	91	3	
2025-08-18T00:00	19100	67	-58.6	-85.9	70	3	
2025-08-18T00:00	19150	67	-58.4	-85.7	56	2	
2025-08-18T00:00	19200	66	-58.7	-85.7	68	2	
2025-08-18T00:00	19250	66	-58.8	-85.8	117	1	
2025-08-18T00:00	19300	65	-59.0	-85.8	151	1	
2025-08-18T00:00	19350	65	-59.4	-85.9	182	1	
2025-08-18T00:00	19400	64	-59.5	-86.1	272	1	
2025-08-18T00:00	19450	64	-59.3	-86.3	313	2	
2025-08-18T00:00	19500	63	-58.4	-86.1	328	2	
2025-08-18T00:00	19550	63	-58.1	-85.9	347	2	
2025-08-18T00:00	19600	62	-58.3	-85.9	11	3	
2025-08-18T00:00	19650	62	-58.3	-85.7	24	4	
2025-08-18T00:00	19700	61	-58.4	-85.8	32	5	
2025-08-18T00:00	19750	61	-58.5	-85.9	39	5	
2025-08-18T00:00	19800	60	-58.5	-85.9	42	4	
2025-08-18T00:00	19850	60	-58.3	-85.9	42	3	
2025-08-18T00:00	19900	59	-58.1	-86.1	42	3	
2025-08-18T00:00	19950	59	-57.4	-85.9	52	3	
2025-08-18T00:00	20000	58	-56.8	-85.6	68	3	
2025-08-18T00:00	20050	58	-57.0		87	4	
2025-08-18T00:00	20100	58	-56.9		102	4	
2025-08-18T00:00	20150	57	-57.0		107	4	
2025-08-18T00:00	20200	57	-57.1		110	4	
2025-08-18T00:00	20250	56	-57.2		113	4	
2025-08-18T00:00	20300	56	-57.4		113	4	
2025-08-18T00:00	20350	55	-57.5		109	3	
2025-08-18T00:00	20400	55	-57.4		105	2	
2025-08-18T00:00	20450	54	-57.4		101	2	
2025-08-18T00:00	20500	54	-57.3		92	1	
2025-08-18T00:00	20550	54	-57.0		65	1	
2025-08-18T00:00	20600	53	-56.9		21	1	
2025-08-18T00:00	20650	53	-56.6		23	2	
2025-08-18T00:00	20700	52	-56.4		31	3	
2025-08-18T00:00	20750	52	-56.3		35	3	
2025-08-18T00:00	20800	52	-56.1		33	3	
2025-08-18T00:00	20850	51	-56.0		25	2	
2025-08-18T00:00	20900	51	-56.2		15	3	
2025-08-18T00:00	20950	50	-56.3		13	4	
2025-08-18T00:00	21000	50	-56.0		19	5	
2025-08-18T00:00	21050	50	-56.0		29	6	
2025-08-18T00:00	21100	49	-56.2		39	6	
2025-08-18T00:00	21150	49	-56.4		48	6	
2025-08-18T00:00	21200	48	-56.6		55	6	
2025-08-18T00:00	21250	48	-56.5		57	6	
2025-08-18T00:00	21300	48	-56.6		55	7	
2025-08-18T00:00	21350	47	-56.6		53	8	
2025-08-18T00:00	21400	47	-56.5		56	9	
2025-08-18T00:00	21450	46	-56.5		62	9	
2025-08-18T00:00	21500	46	-56.6		70	9	
2025-08-18T00:00	21550	46	-56.5		78	10	
2025-08-18T00:00	21600	45	-56.6		85	10	
2025-08-18T00:00	21650	45	-56.9		90	10	
2025-08-18T00:00	21700	45	-57.1		94	10	
2025-08-18T00:00	21750	44	-57.2		96	10	
2025-08-18T00:00	21800	44	-57.5		101	9	
2025-08-18T00:00	21850	44	-57.4		112	8	
2025-08-18T00:00	21900	43	-56.9		122	8	
2025-08-18T00:00	21950	43	-56.7		128	8	
2025-08-18T00:00	22000	43	-56.5		135	7	
2025-08-18T00:00	22050	42	-56.0		144	6	
2025-08-18T00:00	22100	42	-55.9		153	5	
2025-08-18T00:00	22150	42	-55.7		160	4	
2025-08-18T00:00	22200	41	-55.6		164	3	
2025-08-18T00:00	22250	41	-55.6		162	3	
2025-08-18T00:00	22300	41	-55.7		155	2	
2025-08-18T00:00	22350	40	-55.6		140	1	
2025-08-18T00:00	22400	40	-55.0		117	1	
2025-08-18T00:00	22450	40	-54.8		94	1	
2025-08-18T00:00	22500	39	-54.4		63	2	
2025-08-18T00:00	22550	39	-53.7		43	3	
2025-08-18T00:00	22600	39	-53.6		31	3	
2025-08-18T00:00	22650	38	-53.6		23	4	
2025-08-18T00:00	22700	38	-53.9		22	5	
2025-08-18T00:00	22750	38	-53.7		25	6	
2025-08-18T00:00	22800	38	-53.3		30	7	
2025-08-18T00:00	22850	37	-52.8		36	8	
2025-08-18T00:00	22900	37	-52.4		42	10	
2025-08-18T00:00	22950	37	-51.9		46	11	
2025-08-18T00:00	23000	36	-51.9		51	12	
2025-08-18T00:00	23050	36	-52.1		55	13	
2025-08-18T00:00	23100	36	-52.1		61	13	
2025-08-18T00:00	23150	36	-52.2		67	13	
2025-08-18T00:00	23200	35	-52.4		72	13	
2025-08-18T00:00	23250	35	-52.5		77	13	
2025-08-18T00:00	23300	35	-52.6		81	13	
2025-08-18T00:00	23350	35	-52.9		83	12	
2025-08-18T00:00	23400	34	-53.0		85	12	
2025-08-18T00:00	23450	34	-53.0		87	12	
2025-08-18T00:00	23500	34	-53.1		91	12	
2025-08-18T00:00	23550	33	-52.8		95	13	
2025-08-18T00:00	23600	33	-52.6		98	12	
2025-08-18T00:00	23650	33	-52.5		99	11	
2025-08-18T00:00	23700	33	-52.7		100	9	
2025-08-18T00:00	23750	32	-53.1		100	8	
2025-08-18T00:00	23800	32	-53.3		95	6	
2025-08-18T00:00	23850	32	-53.2		87	5	
2025-08-18T00:00	23900	32	-53.3		77	5	
2025-08-18T00:00	23950	31	-53.5		68	5	
2025-08-18T00:00	24000	31	-53.5		64	6	
2025-08-18T00:00	24050	31	-53.4		64	6	
2025-08-18T00:00	24100	31	-53.4		67	7	
2025-08-18T00:00	24150	31	-53.2		73	7	
2025-08-18T00:00	24200	30	-53.1		82	7	
2025-08-18T00:00	24250	30	-53.3		93	8	
2025-08-18T00:00	24300	30	-53.6		104	8	
2025-08-18T00:00	24350	30	-53.7		112	9	
2025-08-18T00:00	24400	29	-53.5		116	9	
2025-08-18T00:00	24450	29	-53.4		114	8	
2025-08-18T00:00	24500	29	-53.4		110	8	
2025-08-18T00:00	24550	29	-53.4		105	8	
2025-08-18T00:00	24600	28	-53.3		102	7	
2025-08-18T00:00	24650	28	-53.3		102	7	
2025-08-18T00:00	24700	28	-53.4		106	7	
2025-08-18T00:00	24750	28	-53.2		114	7	
2025-08-18T00:00	24800	28	-52.9		121	7	
2025-08-18T00:00	24850	27	-52.9		126	7	
2025-08-18T00:00	24900	27	-52.2		129	7	
2025-08-18T00:00	24950	27	-51.3		127	7	
2025-08-18T00:00	25000	27	-50.6		120	8	
2025-08-18T00:00	25050	27	-50.2		116	9	
2025-08-18T00:00	25100	26	-50.1		118	11	
2025-08-18T00:00	25150	26	-49.9		121	12	
2025-08-18T00:00	25200	26	-50.0		122	12	
2025-08-18T00:00	25250	26	-50.2		122	12	
2025-08-18T00:00	25300	26	-49.9		122	10	
2025-08-18T00:00	25350	25	-50.1		121	9	
2025-08-18T00:00	25400	25	-50.4		121	7	
2025-08-18T00:00	25450	25	-50.7		119	6	
2025-08-18T00:00	25500	25	-50.5		116	5	
2025-08-18T00:00	25550	25	-50.2		116	4	
2025-08-18T00:00	25600	24	-50.0		120	4	
2025-08-18T00:00	25650	24	-50.0		124	4	
2025-08-18T00:00	25700	24	-50.1		128	4	
2025-08-18T00:00	25750	24	-50.3		126	5	
2025-08-18T00:00	25800	24	-50.3		119	6	
2025-08-18T00:00	25850	23	-50.1		114	7	
2025-08-18T00:00	25900	23	-49.8		112	7	
2025-08-18T00:00	25950	23	-49.9		113	7	
2025-08-18T00:00	26000	23	-49.5		116	6	
2025-08-18T00:00	26050	23	-49.4		120	5	
2025-08-18T00:00	26100	23	-49.3		122	4	
2025-08-18T00:00	26150	22	-48.9		117	3	
2025-08-18T00:00	26200	22	-48.9		104	3	
2025-08-18T00:00	26250	22	-49.1		88	2	
2025-08-18T00:00	26300	22	-48.9		80	3	
2025-08-18T00:00	26350	22	-48.8		80	4	
2025-08-18T00:00	26400	22	-48.6		80	5	
2025-08-18T00:00	26450	21	-48.4		81	6	
2025-08-18T00:00	26500	21	-48.5		85	6	
2025-08-18T00:00	26550	21	-48.5		96	5	
2025-08-18T00:00	26600	21	-48.5		108	4	
2025-08-18T00:00	26650	21	-48.3		112	3	
2025-08-18T00:00	26700	21	-48.0		99	3	
2025-08-18T00:00	26750	20	-47.7		82	4	
2025-08-18T00:00	26800	20	-47.5		77	6	
2025-08-18T00:00	26850	20	-47.3		80	7	
2025-08-18T00:00	26900	20	-47.0		88	8	
2025-08-18T00:00	26950	20	-46.6		96	9	
2025-08-18T00:00	27000	20	-46.5		105	9	
2025-08-18T00:00	27050	20	-46.4		113	9	
2025-08-18T00:00	27100	19	-46.6		120	8	
2025-08-18T00:00	27150	19	-46.7		128	7	
2025-08-18T00:00	27200	19	-46.5		138	7	
2025-08-18T00:00	27250	19	-46.0		150	6	
2025-08-18T00:00	27300	19	-45.5		160	6	
2025-08-18T00:00	27350	19	-45.4		162	5	
2025-08-18T00:00	27400	19	-45.4		153	4	
2025-08-18T00:00	27450	18	-45.4		131	3	
2025-08-18T00:00	27500	18	-45.3		109	4	
2025-08-18T00:00	27550	18	-45.2		95	4	
2025-08-18T00:00	27600	18	-45.0		88	5	
2025-08-18T00:00	27650	18	-44.7		86	5	
2025-08-18T00:00	27700	18	-44.7		88	6	
2025-08-18T00:00	27750	18	-44.8		92	6	
2025-08-18T00:00	27800	17	-44.8		98	6	
2025-08-18T00:00	27850	17	-44.9		104	7	
2025-08-18T00:00	27900	17	-45.1		109	7	
2025-08-18T00:00	27950	17	-45.2		112	7	
2025-08-18T00:00	28000	17	-45.3		113	6	
2025-08-18T00:00	28050	17	-45.4		112	6	
2025-08-18T00:00	28100	17	-45.6		113	5	
2025-08-18T00:00	28150	17	-45.3		120	4	
2025-08-18T00:00	28200	16	-45.1		134	3	
2025-08-18T00:00	28250	16	-45.1		150	2	
2025-08-18T00:00	28300	16	-45.3		172	1	
2025-08-18T00:00	28350	16	-45.4		192	0	
2025-08-18T00:00	28400	16	-45.1		59	1	
2025-08-18T00:00	28450	16	-44.9		73	2	
2025-08-18T00:00	28500	16	-44.9		87	3	
2025-08-18T00:00	28550	16	-44.7		96	4	
2025-08-18T00:00	28600	15	-44.6		95	4	
2025-08-18T00:00	28650	15	-44.2		89	3	
2025-08-18T00:00	28700	15	-44.2		88	3	
2025-08-18T00:00	28750	15	-44.1		92	4	
2025-08-18T00:00	28800	15	-44.0		95	5	
2025-08-18T00:00	28850	15	-44.1		97	6	
2025-08-18T00:00	28900	15	-43.9		101	7	
2025-08-18T00:00	28950	15	-43.7		106	8	
2025-08-18T00:00	29000	15	-43.9		110	8	
2025-08-18T00:00	29050	14	-44.0		110	8	
2025-08-18T00:00	29100	14	-44.1		108	8	
2025-08-18T00:00	29150	14	-44.1		101	7	
2025-08-18T00:00	29200	14	-44.1		89	6	
2025-08-18T00:00	29250	14	-44.0		78	6	
2025-08-18T00:00	29300	14	-44.0		74	6	
2025-08-18T00:00	29350	14	-44.0		80	6	
2025-08-18T00:00	29400	14	-43.9		88	8	
2025-08-18T00:00	29450	14	-43.8		94	9	
2025-08-18T00:00	29500	14	-43.7		96	11	
2025-08-18T00:00	29550	13	-43.5		96	12	
2025-08-18T00:00	29600	13	-43.4		96	12	
2025-08-18T00:00	29650	13	-43.2		96	11	
2025-08-18T00:00	29700	13	-43.4		98	11	
2025-08-18T00:00	29750	13	-43.8		100	10	
2025-08-18T00:00	29800	13	-44.3		101	9	
2025-08-18T00:00	29850	13	-44.6		100	8	
2025-08-18T00:00	29900	13	-44.8		96	7	
2025-08-18T00:00	29950	13	-44.9		89	7	
2025-08-18T00:00	30000	13	-45.1		81	7	
2025-08-18T00:00	30050	12	-45.2		74	7	
2025-08-18T00:00	30100	12	-45.1		74	8	
2025-08-18T00:00	30150	12	-45.0		78	8	
2025-08-18T00:00	30200	12	-44.9		84	10	
2025-08-18T00:00	30250	12	-44.9		88	11	
2025-08-18T00:00	30300	12	-44.8		90	12	
2025-08-18T00:00	30350	12	-44.5		92	13	
2025-08-18T00:00	30400	12	-44.4		95	13	
2025-08-18T00:00	30450	12	-44.3		97	14	
2025-08-18T00:00	30500	12	-44.3		97	13	
2025-08-18T00:00	30550	12	-44.3		94	13	
2025-08-18T00:00	30600	12	-44.3		92	12	
2025-08-18T00:00	30650	11	-44.4		91	12	
2025-08-18T00:00	30700	11	-44.3		91	12	
2025-08-18T00:00	30750	11	-44.1		92	11	
2025-08-18T00:00	30800	11	-43.8		93	11	
2025-08-18T00:00	30850	11	-43.7		92	11	
2025-08-18T00:00	30900	11	-43.7		88	10	
2025-08-18T00:00	30950	11	-43.4		82	11	
2025-08-18T00:00	31000	11	-43.5		78	11	
2025-08-18T00:00	31050	11	-43.5		76	12	
2025-08-18T00:00	31100	11	-43.5		80	12	
2025-08-18T00:00	31150	11	-43.3		86	11	
2025-08-18T00:00	31200	11	-43.4		95	10	
2025-08-18T00:00	31250	10	-43.5		101	10	
2025-08-18T00:00	31300	10	-43.5		102	10	
2025-08-18T00:00	31350	10	-43.3		99	10	
2025-08-18T00:00	31400	10	-43.3		97	10	
2025-08-18T00:00	31450	10	-43.1		99	10	
2025-08-18T00:00	31500	10	-43.1		103	10	
2025-08-18T00:00	31550	10	-42.9		106	11	
2025-08-18T00:00	31600	10	-42.6		109	11	
2025-08-18T00:00	31650	10	-42.2		111	12	
2025-08-18T00:00	31700	10	-42.1		113	11	
2025-08-18T00:00	31750	10	-42.0		117	11	
2025-08-18T00:00	31800	10	-42.0		122	10	
2025-08-18T00:00	31850	10	-41.9		125	10	
2025-08-18T00:00	31900	9	-41.3		124	9	
2025-08-18T00:00	31950	9	-40.6		118	9	
2025-08-18T00:00	32000	9	-40.1		108	8	
2025-08-18T00:00	32050	9	-39.9		97	8	
2025-08-18T00:00	32100	9	-39.6		91	9	
2025-08-18T00:00	32150	9	-39.2		89	10	
2025-08-18T00:00	32200	9	-38.9		89	11	
2025-08-18T00:00	32250	9	-38.8		90	12	
2025-08-18T00:00	32300	9	-39.0		93	13	
2025-08-18T00:00	32350	9	-39.0		97	13	
2025-08-18T00:00	32400	9	-39.1		100	13	
2025-08-18T00:00	32450	9	-39.1		102	12	
2025-08-18T00:00	32500	9	-39.1		103	11	
2025-08-18T00:00	32550	9	-39.1		105	10	
2025-08-18T00:00	32600	9	-39.1		110	9	
2025-08-18T00:00	32650	8	-39.0		114	8	
2025-08-18T00:00	32700	8	-39.3		113	8	
2025-08-18T00:00	32750	8	-39.2		103	7	
2025-08-18T00:00	32800	8	-38.6		89	8	
2025-08-18T00:00	32850	8	-38.4		81	9	
2025-08-18T00:00	32900	8	-38.3		80	10	
2025-08-18T00:00	32950	8	-38.0		83	11	
2025-08-18T00:00	33000	8	-37.8		87	12	
2025-08-18T00:00	33050	8	-37.6		91	13	
2025-08-18T00:00	33100	8	-37.4		95	13	
2025-08-18T00:00	33150	8	-37.4		100	13	
2025-08-18T00:00	33200	8	-37.5		104	12	
2025-08-18T00:00	33250	8	-37.4		108	11	
2025-08-18T00:00	33300	8	-37.2		112	10	
2025-08-18T00:00	33350	8	-37.2		117	9	
2025-08-18T00:00	33400	8	-37.4		118	8	
2025-08-18T00:00	33450	8	-37.2		113	8	
2025-08-18T00:00	33500	8	-36.9		103	8	
2025-08-18T00:00	33550	7	-36.9		97	9	
2025-08-18T00:00	33600	7	-37.1		96	9	
2025-08-18T00:00	33650	7	-36.7		102	9	
2025-08-18T00:00	33700	7	-36.5		110	10	
2025-08-18T00:00	33750	7	-36.5		115	11	
2025-08-18T00:00	33800	7	-36.5		114	11	
2025-08-18T00:00	33850	7	-36.4		107	11	
2025-08-18T00:00	33900	7	-36.3		96	11	
2025-08-18T00:00	33950	7	-36.3		86	11	
2025-08-18T00:00	34000	7	-36.1		81	12	
2025-08-18T00:00	34050	7	-36.1		81	12	
2025-08-18T00:00	34100	7	-35.9		83	12	
2025-08-18T00:00	34150	7	-35.8		87	11	
2025-08-18T00:00	34200	7	-35.9		94	11	
2025-08-18T00:00	34250	7	-36.1		100	10	
2025-08-18T00:00	34300	7	-36.1		100	10	
2025-08-18T00:00	34350	7	-35.8		91	10	
2025-08-18T00:00	34400	7	-35.5		80	10	
2025-08-18T00:00	34450	7	-35.4		73	11	
2025-08-18T00:00	34500	7	-35.2		72	11	
2025-08-18T00:00	34550	6	-35.2		74	11	
2025-08-18T00:00	34600	6	-35.4		78	10	
2025-08-18T00:00	34650	6	-35.4		84	9	
2025-08-18T00:00	34700	6	-35.6		87	8	
2025-08-18T00:00	34750	6	-35.5		86	7	
2025-08-18T00:00	34800	6	-35.4		81	6	
2025-08-18T00:00	34850	6	-35.5		71	5	
2025-08-18T00:00	34900	6	-35.6		58	5	
2025-08-18T00:00	34950	6	-35.6		46	6	
2025-08-18T00:00	35000	6	-35.4		42	7	
2025-08-18T00:00	35050	6	-35.3		43	9	
2025-08-18T00:00	35100	6	-34.8		45	10	
2025-08-18T00:00	35150	6	-34.6		48	12	
2025-08-18T00:00	35200	6	-34.5		52	14	
2025-08-18T00:00	35250	6	-34.1		56	15	
2025-08-18T00:00	35300	6	-33.9		60	16	
2025-08-18T00:00	35350	6	-33.7		65	17	
2025-08-18T00:00	35400	6	-33.5		70	16	
2025-08-18T00:00	35450	6	-33.1		74	16	
2025-08-18T00:00	35500	6	-32.7		77	14	
2025-08-18T00:00	35550	6	-32.7		79	13	
2025-08-18T00:00	35600	6	-32.7		79	11	
2025-08-18T00:00	35650	6	-32.8		78	10	
2025-08-18T00:00	35700	5	-32.8		75	9	
2025-08-18T00:00	35750	5	-32.9		69	9	
2025-08-18T00:00	35800	5	-32.7		65	10	
2025-08-18T00:00	35850	5	-32.4		61	11	
2025-08-18T00:00	35900	5	-32.4		59	12	
2025-08-18T00:00	35950	5	-32.4		60	12	
2025-08-18T12:00	491	960	24.5	14.6	169	1	3.1
2025-08-18T12:00	501	958	23.9	13.9	4	2	3.2
2025-08-18T12:00	520	957	23.1	13.9	359	2	3.7
2025-08-18T12:00	540	954	23.1	13.8	356	3	4.0
2025-08-18T12:00	560	952	22.7	13.7	356	3	4.3
2025-08-18T12:00	580	950	22.5	13.6	358	3	4.4
2025-08-18T12:00	600	948	22.3	13.7	6	3	4.7
2025-08-18T12:00	620	946	22.1	13.7	15	3	4.9
2025-08-18T12:00	640	944	21.9	13.5	22	3	5.0
2025-08-18T12:00	660	941	21.7	13.5	25	2	5.0
2025-08-18T12:00	680	939	21.6	13.5	25	2	5.1
2025-08-18T12:00	700	937	21.2	13.5	27	2	5.2
2025-08-18T12:00	720	935	21.1	13.4	31	2	5.2
2025-08-18T12:00	740	933	21.1	13.4	36	3	5.2
2025-08-18T12:00	760	930	20.7	13.5	41	3	5.3
2025-08-18T12:00	780	928	20.6	13.2	47	2	5.2
2025-08-18T12:00	800	926	20.4	13.4	58	1	5.2
2025-08-18T12:00	820	924	20.2	13.2	65	1	5.3
2025-08-18T12:00	840	922	19.9	13.2	66	1	5.3
2025-08-18T12:00	860	920	19.8	13.1	75	0	5.3
2025-08-18T12:00	880	918	19.6	13.1	97	0	5.3
2025-08-18T12:00	900	916	19.4	13.1	116	1	5.3
2025-08-18T12:00	920	913	19.3	13.1	126	1	5.3
2025-08-18T12:00	940	911	19.0	13.1	125	0	5.3
2025-08-18T12:00	960	909	18.8	13.0	39	0	5.2
2025-08-18T12:00	980	907	18.7	12.9	356	0	5.2
2025-08-18T12:00	1000	905	18.5	13.0	11	1	5.2
2025-08-18T12:00	1020	903	18.2	12.9	39	1	5.2
2025-08-18T12:00	1040	901	18.1	12.8	65	1	5.2
2025-08-18T12:00	1060	899	17.9	12.7	81	2	5.2
2025-08-18T12:00	1080	897	17.8	12.7	91	2	5.2
2025-08-18T12:00	1100	895	17.6	12.7	97	2	5.2
2025-08-18T12:00	1120	892	17.4	12.8	101	2	5.2
2025-08-18T12:00	1140	890	17.2	12.7	106	2	5.2
2025-08-18T12:00	1160	888	17.0	12.4	111	2	5.2
2025-08-18T12:00	1180	886	16.9	12.4	120	2	5.2
2025-08-18T12:00	1200	884	16.7	12.4	133	1	5.2
2025-08-18T12:00	1220	882	16.6	12.4	141	1	5.2
2025-08-18T12:00	1240	880	16.5	12.0	147	1	5.2
2025-08-18T12:00	1260	878	16.7	11.3	151	1	5.2
2025-08-18T12:00	1280	876	16.8	11.3	157	1	5.2
2025-08-18T12:00	1300	874	16.7	11.1	176	1	5.2
2025-08-18T12:00	1320	872	16.6	10.9	214	1	5.3
2025-08-18T12:00	1340	870	16.4	10.8	235	1	5.3
2025-08-18T12:00	1360	868	16.3	10.7	245	1	5.3
2025-08-18T12:00	1380	866	16.2	10.7	249	2	5.3
2025-08-18T12:00	1400	864	16.0	10.6	249	2	5.4
2025-08-18T12:00	1420	862	16.0	10.4	249	2	5.4
2025-08-18T12:00	1440	860	16.0	10.4	249	2	5.4
2025-08-18T12:00	1460	857	15.9	10.6	249	2	5.4
2025-08-18T12:00	1480	855	15.8	10.6	250	2	5.4
2025-08-18T12:00	1500	853	15.8	10.3	251	2	5.4
2025-08-18T12:00	1520	851	15.7	10.0	253	2	5.4
2025-08-18T12:00	1540	850	15.6	9.9	254	2	5.5
2025-08-18T12:00	1560	848	15.4	9.9	254	2	5.5
2025-08-18T12:00	1580	846	15.3	9.4	251	2	5.5
2025-08-18T12:00	1600	843	15.3	8.0	247	2	5.5
2025-08-18T12:00	1620	841	15.3	6.0	241	2	5.5
2025-08-18T12:00	1640	839	15.3	4.3	238	2	5.5
2025-08-18T12:00	1660	837	15.2	3.9	237	3	5.5
2025-08-18T12:00	1680	835	15.1	3.4	238	3	5.5
2025-08-18T12:00	1700	834	15.2	1.1	241	3	5.5
2025-08-18T12:00	1720	832	15.1	2.1	245	4	5.5
2025-08-18T12:00	1740	830	14.7	6.0	249	4	5.5
2025-08-18T12:00	1760	828	14.6	3.1	253	5	5.5
2025-08-18T12:00	1780	826	14.8	-0.5	256	5	5.5
2025-08-18T12:00	1800	824	14.8	-0.9	258	5	5.5
2025-08-18T12:00	1820	822	14.7	-1.9	259	5	5.4
2025-08-18T12:00	1840	820	14.6	-3.8	259	5	5.5
2025-08-18T12:00	1860	818	14.7	-6.5	258	5	5.5
2025-08-18T12:00	1880	816	14.7	-5.1	256	5	5.4
2025-08-18T12:00	1900	814	14.4	-2.6	255	5	5.4
2025-08-18T12:00	1920	812	14.3	-5.5	252	5	5.3
2025-08-18T12:00	1940	810	14.4	-8.6	250	5	5.3
2025-08-18T12:00	1960	808	14.5	-7.5	247	5	5.3
2025-08-18T12:00	1980	806	14.5	-6.1	245	5	5.2
2025-08-18T12:00	2000	804	14.4	-4.1	241	5	5.1
2025-08-18T12:00	2020	803	14.1	-3.1	237	5	5.0
2025-08-18T12:00	2040	801	14.0	-3.0	234	6	4.9
2025-08-18T12:00	2060	799	14.0	-3.4	230	6	4.8
2025-08-18T12:00	2080	797	13.9	-3.5	227	6	4.7
2025-08-18T12:00	2100	795	13.7	-3.1	224	6	4.7
2025-08-18T12:00	2120	793	13.7	-2.4	221	6	4.6
2025-08-18T12:00	2140	791	13.7	-2.4	219	6	4.6
2025-08-18T12:00	2160	789	13.5	-2.3	218	6	4.5
2025-08-18T12:00	2180	788	13.2	-2.2	216	6	4.5
2025-08-18T12:00	2200	786	13.1	-1.8	216	6	4.4
2025-08-18T12:00	2220	784	13.0	-2.3	216	6	4.4
2025-08-18T12:00	2240	782	13.1	-2.9	216	6	4.3
2025-08-18T12:00	2260	780	13.0	-2.7	217	6	4.3
2025-08-18T12:00	2280	778	12.7	-2.8	219	6	4.3
2025-08-18T12:00	2300	776	12.5	-3.8	220	6	4.2
2025-08-18T12:00	2320	775	12.4	-4.8	221	6	4.2
2025-08-18T12:00	2340	773	12.4	-6.3	222	6	4.2
2025-08-18T12:00	2360	771	12.5	-8.5	222	6	4.1
2025-08-18T12:00	2380	769	12.5	-8.6	222	6	4.1
2025-08-18T12:00	2400	767	12.5	-8.6	221	6	4.1
2025-08-18T12:00	2420	765	12.3	-8.5	218	5	4.1
2025-08-18T12:00	2440	763	12.1	-8.6	215	5	4.1
2025-08-18T12:00	2460	762	12.2	-8.6	212	5	4.1
2025-08-18T12:00	2480	760	12.0	-8.5	210	5	4.1
2025-08-18T12:00	2500	758	11.9	-7.7	209	5	4.1
2025-08-18T12:00	2520	756	11.7	-6.9	209	5	4.1
2025-08-18T12:00	2540	755	11.6	-6.8	210	5	4.1
2025-08-18T12:00	2560	753	11.4	-6.7	212	5	4.1
2025-08-18T12:00	2580	751	11.2	-6.6	213	5	4.2
2025-08-18T12:00	2600	749	11.1	-6.5	215	5	4.2
2025-08-18T12:00	2620	747	11.0	-6.5	217	4	4.2
2025-08-18T12:00	2640	745	10.9	-6.6	220	4	4.2
2025-08-18T12:00	2660	743	10.7	-6.8	222	4	4.2
2025-08-18T12:00	2680	742	10.7	-7.3	225	4	4.2
2025-08-18T12:00	2700	740	10.4	-7.4	228	4	4.2
2025-08-18T12:00	2720	738	10.3	-7.9	230	4	4.2
2025-08-18T12:00	2740	737	10.2	-7.9	232	4	4.2
2025-08-18T12:00	2760	735	10.0	-7.8	233	4	4.3
2025-08-18T12:00	2780	733	9.8	-7.6	233	4	4.3
2025-08-18T12:00	2800	731	9.7	-7.3	232	4	4.3
2025-08-18T12:00	2820	729	9.6	-7.6	231	5	4.3
2025-08-18T12:00	2840	728	9.4	-8.0	229	5	4.3
2025-08-18T12:00	2860	726	9.4	-9.0	227	5	4.3
2025-08-18T12:00	2880	724	9.2	-8.9	226	5	4.3
2025-08-18T12:00	2900	722	9.0	-8.6	225	5	4.3
2025-08-18T12:00	2920	721	8.9	-8.3	225	4	4.3
2025-08-18T12:00	2940	719	8.8	-8.9	225	4	4.3
2025-08-18T12:00	2960	717	8.6	-9.5	226	4	4.3
2025-08-18T12:00	2980	715	8.4	-9.9	227	3	4.3
2025-08-18T12:00	3000	714	8.2	-10.1	230	3	4.4
2025-08-18T12:00	3020	712	8.2	-10.2	232	3	4.4
2025-08-18T12:00	3040	710	8.0	-10.0	235	3	4.4
2025-08-18T12:00	3060	709	7.8	-9.9	239	2	4.4
2025-08-18T12:00	3080	707	7.7	-9.7	242	2	4.4
2025-08-18T12:00	3100	705	7.6	-9.7	246	2	4.3
2025-08-18T12:00	3120	703	7.6	-9.8	249	2	4.3
2025-08-18T12:00	3140	702	7.4	-9.9	252	2	4.3
2025-08-18T12:00	3160	700	7.2	-9.9	253	2	4.3
2025-08-18T12:00	3180	698	6.9	-10.1	252	2	4.3
2025-08-18T12:00	3200	696	6.7	-10.1	251	2	4.3
2025-08-18T12:00	3220	695	6.6	-10.1	248	2	4.2
2025-08-18T12:00	3240	693	6.5	-10.0	245	2	4.2
2025-08-18T12:00	3260	692	6.3	-10.1	240	1	4.2
2025-08-18T12:00	3280	690	6.2	-10.2	233	1	4.2
2025-08-18T12:00	3300	688	6.2	-10.2	226	1	4.2
2025-08-18T12:00	3320	686	6.2	-10.4	222	1	4.2
2025-08-18T12:00	3340	685	6.1	-10.6	225	1	4.2
2025-08-18T12:00	3360	683	5.9	-10.6	233	1	4.2
2025-08-18T12:00	3380	682	5.7	-10.7	243	1	4.2
2025-08-18T12:00	3400	680	5.5	-10.8	254	1	4.2
2025-08-18T12:00	3420	678	5.3	-10.8	262	1	4.1
2025-08-18T12:00	3440	676	5.2	-10.9	267	2	4.1
2025-08-18T12:00	3460	675	5.1	-11.0	270	2	4.2
2025-08-18T12:00	3480	673	4.9	-11.2	272	2	4.2
2025-08-18T12:00	3500	671	4.8	-11.4	275	2	4.1
2025-08-18T12:00	3520	670	4.7	-11.4	279	2	4.1
2025-08-18T12:00	3540	668	4.6	-11.4	282	2	4.1
2025-08-18T12:00	3560	666	4.4	-11.8	286	2	4.1
2025-08-18T12:00	3580	665	4.4	-12.0	289	2	4.1
2025-08-18T12:00	3600	663	4.2	-12.0	291	2	4.1
2025-08-18T12:00	3620	662	4.0	-12.1	291	2	4.1
2025-08-18T12:00	3640	660	3.9	-12.4	287	2	4.1
2025-08-18T12:00	3660	658	3.8	-12.7	281	2	4.0
2025-08-18T12:00	3680	657	3.8	-13.1	270	1	4.1
2025-08-18T12:00	3700	655	3.6	-13.1	259	1	4.1
2025-08-18T12:00	3720	653	3.4	-13.1	253	2	4.1
2025-08-18T12:00	3740	652	3.4	-13.2	252	2	4.1
2025-08-18T12:00	3760	650	3.2	-13.5	256	2	4.1
2025-08-18T12:00	3780	649	3.2	-14.3	260	2	4.1
2025-08-18T12:00	3800	647	3.1	-15.8	266	2	4.1
2025-08-18T12:00	3820	646	3.1	-16.4	269	2	4.2
2025-08-18T12:00	3840	644	3.0	-16.7	272	2	4.2
2025-08-18T12:00	3860	643	2.9	-16.6	273	2	4.3
2025-08-18T12:00	3880	641	2.8	-16.4	274	2	4.3
2025-08-18T12:00	3900	639	2.7	-16.6	274	2	4.3
2025-08-18T12:00	3920	638	2.5	-16.0	274	2	4.3
2025-08-18T12:00	3940	636	2.4	-15.7	273	3	4.3
2025-08-18T12:00	3960	634	2.2	-15.8	273	3	4.3
2025-08-18T12:00	3980	633	2.1	-15.8	271	3	4.3
2025-08-18T12:00	4000	631	1.9	-16.0	270	3	4.3
2025-08-18T12:00	4020	630	1.8	-15.7	268	2	4.3
2025-08-18T12:00	4040	628	1.6	-15.6	266	2	4.4
2025-08-18T12:00	4060	626	1.4	-15.8	264	2	4.4
2025-08-18T12:00	4080	625	1.3	-16.2	262	2	4.4
2025-08-18T12:00	4100	624	1.2	-16.1	261	2	4.4
2025-08-18T12:00	4120	622	1.0	-15.8	260	2	4.4
2025-08-18T12:00	4140	620	0.9	-16.7	258	2	4.3
2025-08-18T12:00	4160	619	1.0	-17.3	256	2	4.3
2025-08-18T12:00	4180	617	1.0	-17.4	251	2	4.3
2025-08-18T12:00	4200	616	0.9	-17.7	243	1	4.3
2025-08-18T12:00	4220	614	0.9	-19.1	232	1	4.3
2025-08-18T12:00	4240	613	1.0	-25.1	222	1	4.3
2025-08-18T12:00	4260	611	0.9	-25.4	217	1	4.3
2025-08-18T12:00	4280	610	0.7	-22.8	216	2	4.2
2025-08-18T12:00	4300	608	0.5	-21.5	218	2	4.2
2025-08-18T12:00	4320	607	0.3	-21.1	224	2	4.2
2025-08-18T12:00	4340	605	0.2	-21.1	231	2	4.1
2025-08-18T12:00	4360	604	0.1	-21.0	238	2	4.1
2025-08-18T12:00	4380	602	0.0	-19.5	245	2	4.1
2025-08-18T12:00	4400	600	-0.3	-19.3	250	2	4.1
2025-08-18T12:00	4420	599	-0.5	-19.8	252	3	4.0
2025-08-18T12:00	4440	598	-0.6	-20.5	251	3	4.0
2025-08-18T12:00	4460	596	-0.6	-22.0	251	3	4.0
2025-08-18T12:00	4480	595	-0.7	-25.4	250	3	4.0
2025-08-18T12:00	4500	593	-0.9	-25.4	250	3	4.0
2025-08-18T12:00	4520	592	-1.2	-24.9	250	3	4.0
2025-08-18T12:00	4540	590	-1.2	-23.0	250	4	4.0
2025-08-18T12:00	4560	589	-1.3	-23.4	250	4	4.0
2025-08-18T12:00	4580	587	-1.5	-23.7	252	4	4.0
2025-08-18T12:00	4600	586	-1.8	-24.7	254	4	4.0
2025-08-18T12:00	4620	584	-2.0	-25.6	256	5	4.0
2025-08-18T12:00	4640	583	-2.0	-23.3	259	5	4.0
2025-08-18T12:00	4660	581	-2.2	-20.9	262	5	4.0
2025-08-18T12:00	4680	580	-2.3	-21.4	265	5	3.9
2025-08-18T12:00	4700	578	-2.5	-21.4	266	5	3.9
2025-08-18T12:00	4720	577	-2.5	-22.6	266	5	4.0
2025-08-18T12:00	4740	575	-2.6	-23.5	265	5	4.0
2025-08-18T12:00	4760	574	-2.8	-23.6	263	4	4.0
2025-08-18T12:00	4780	572	-3.0	-23.6	261	4	4.0
2025-08-18T12:00	4800	571	-3.1	-23.9	260	4	3.9
2025-08-18T12:00	4820	570	-3.2	-24.1	259	4	3.9
2025-08-18T12:00	4840	568	-3.4	-23.0	258	3	3.9
2025-08-18T12:00	4860	567	-3.6	-22.2	258	3	3.9
2025-08-18T12:00	4880	566	-3.8	-22.2	257	3	3.9
2025-08-18T12:00	4900	564	-3.9	-21.4	256	2	3.8
2025-08-18T12:00	4920	562	-4.0	-21.1	254	2	3.9
2025-08-18T12:00	4940	561	-4.2	-21.2	252	2	3.9
2025-08-18T12:00	4960	560	-4.3	-22.2	250	2	3.9
2025-08-18T12:00	4980	558	-4.5	-22.3	251	2	3.9
2025-08-18T12:00	5000	557	-4.5	-22.1	254	2	4.0
2025-08-18T12:00	5020	555	-4.7	-22.0	258	3	4.0
2025-08-18T12:00	5040	554	-4.9	-22.2	260	3	4.0
2025-08-18T12:00	5060	553	-5.0	-22.4	262	3	4.0
2025-08-18T12:00	5080	551	-5.2	-22.0	263	3	4.1
2025-08-18T12:00	5100	550	-5.3	-22.0	262	3	4.1
2025-08-18T12:00	5120	548	-5.4	-22.5	260	3	4.1
2025-08-18T12:00	5140	547	-5.5	-23.0	259	2	4.1
2025-08-18T12:00	5160	546	-5.7	-23.1	257	2	4.1
2025-08-18T12:00	5180	544	-5.9	-23.2	255	2	4.1
2025-08-18T12:00	5200	543	-6.1	-23.2	253	2	4.1
2025-08-18T12:00	5220	541	-6.2	-23.3	254	2	4.1
2025-08-18T12:00	5240	540	-6.4	-23.3	256	2	4.1
2025-08-18T12:00	5260	539	-6.5	-23.6	258	2	4.1
2025-08-18T12:00	5280	537	-6.6	-23.9	261	3	4.1
2025-08-18T12:00	5300	536	-6.8	-24.2	264	3	4.1
2025-08-18T12:00	5320	534	-6.9	-24.7	267	3	4.1
2025-08-18T12:00	5340	533	-6.9	-24.9	270	3	4.2
2025-08-18T12:00	5360	532	-7.0	-24.9	274	3	4.2
2025-08-18T12:00	5380	530	-7.2	-25.1	277	3	4.2
2025-08-18T12:00	5400	529	-7.3	-25.5	279	3	4.2
2025-08-18T12:00	5420	528	-7.5	-25.8	276	3	4.1
2025-08-18T12:00	5440	526	-7.7	-25.8	273	3	4.2
2025-08-18T12:00	5460	525	-7.9	-25.5	267	3	4.2
2025-08-18T12:00	5480	524	-8.0	-25.8	261	3	4.2
2025-08-18T12:00	5500	522	-8.0	-26.2	253	3	4.2
2025-08-18T12:00	5520	521	-8.1	-26.0	245	3	4.2
2025-08-18T12:00	5540	519	-8.4	-25.5	241	4	4.3
2025-08-18T12:00	5560	518	-8.6	-25.3	240	4	4.3
2025-08-18T12:00	5580	517	-8.6	-25.2	240	4	4.2
2025-08-18T12:00	5600	516	-8.8	-25.2	242	5	4.2
2025-08-18T12:00	5620	514	-9.0	-25.2	245	5	4.3
2025-08-18T12:00	5640	513	-9.2	-25.1	249	5	4.3
2025-08-18T12:00	5660	512	-9.4	-24.8	252	5	4.3
2025-08-18T12:00	5680	510	-9.5	-24.8	254	5	4.3
2025-08-18T12:00	5700	509	-9.7	-24.8	254	4	4.3
2025-08-18T12:00	5720	508	-9.9	-24.9	252	4	4.3
2025-08-18T12:00	5740	506	-10.1	-25.1	247	3	4.4
2025-08-18T12:00	5760	505	-10.1	-25.2	241	3	4.3
2025-08-18T12:00	5780	504	-10.2	-25.4	232	2	4.4
2025-08-18T12:00	5800	502	-10.4	-25.5	224	2	4.4
2025-08-18T12:00	5820	501	-10.6	-25.6	218	2	4.4
2025-08-18T12:00	5840	500	-10.9	-25.8	214	2	4.4
2025-08-18T12:00	5860	499	-11.0	-26.1	211	2	4.4
2025-08-18T12:00	5880	497	-11.0	-26.7	213	2	4.4
2025-08-18T12:00	5900	496	-11.1	-27.0	218	2	4.4
2025-08-18T12:00	5920	495	-11.2	-27.2	225	2	4.4
2025-08-18T12:00	5940	493	-11.3	-27.4	232	2	4.4
2025-08-18T12:00	5960	492	-11.3	-28.2	238	3	4.4
2025-08-18T12:00	5980	491	-11.4	-28.5	243	3	4.3
2025-08-18T12:00	6000	490	-11.4	-28.9	247	3	4.4
2025-08-18T12:00	6020	488	-11.6	-29.1	250	3	4.4
2025-08-18T12:00	6040	487	-11.7	-29.2	251	3	4.4
2025-08-18T12:00	6060	486	-11.6	-29.8	251	2	4.4
2025-08-18T12:00	6080	484	-11.7	-30.1	250	2	4.4
2025-08-18T12:00	6100	483	-11.8	-30.4	250	2	4.4
2025-08-18T12:00	6120	482	-11.9	-31.1	249	1	4.4
2025-08-18T12:00	6140	480	-12.1	-32.0	251	1	4.4
2025-08-18T12:00	6160	479	-12.3	-33.0	255	1	4.4
2025-08-18T12:00	6180	478	-12.3	-33.3	266	0	4.4
2025-08-18T12:00	6200	477	-12.4	-33.6	326	0	4.5
2025-08-18T12:00	6220	476	-12.5	-34.0	49	0	4.4
2025-08-18T12:00	6240	474	-12.5	-34.5	59	0	4.4
2025-08-18T12:00	6260	473	-12.6	-35.3	62	0	4.4
2025-08-18T12:00	6280	472	-12.8	-35.9	61	0	4.3
2025-08-18T12:00	6300	471	-12.9	-37.3	54	0	4.2
2025-08-18T12:00	6320	469	-13.0	-38.5	34	0	4.1
2025-08-18T12:00	6340	468	-13.1	-39.6	358	0	4.0
2025-08-18T12:00	6360	467	-13.2	-40.3	324	1	3.8
2025-08-18T12:00	6380	466	-13.3	-40.8	306	1	3.7
2025-08-18T12:00	6400	464	-13.5	-41.3	295	1	3.6
2025-08-18T12:00	6420	463	-13.6	-41.5	288	1	3.5
2025-08-18T12:00	6440	462	-13.8	-41.6	279	1	3.4
2025-08-18T12:00	6460	461	-13.9	-41.7	268	2	3.3
2025-08-18T12:00	6480	460	-14.0	-41.8	258	2	3.2
2025-08-18T12:00	6500	459	-14.0	-42.1	249	2	3.1
2025-08-18T12:00	6520	457	-14.1	-42.2	242	2	3.0
2025-08-18T12:00	6540	456	-14.3	-42.4	239	2	3.0
2025-08-18T12:00	6560	455	-14.5	-42.6	240	2	3.0
2025-08-18T12:00	6580	454	-14.6	-42.8	242	2	2.9
2025-08-18T12:00	6600	452	-14.8	-43.0	246	2	2.9
2025-08-18T12:00	6620	451	-14.9	-43.1	251	2	2.8
2025-08-18T12:00	6640	450	-15.1	-43.1	254	3	2.8
2025-08-18T12:00	6660	449	-15.2	-43.2	256	3	2.8
2025-08-18T12:00	6680	448	-15.4	-43.2	256	3	2.7
2025-08-18T12:00	6700	447	-15.6	-43.2	256	3	2.7
2025-08-18T12:00	6720	445	-15.8	-43.1	255	3	2.7
2025-08-18T12:00	6740	444	-15.8	-43.0	253	3	2.7
2025-08-18T12:00	6760	443	-16.0	-43.1	251	3	2.6
2025-08-18T12:00	6780	442	-16.0	-43.2	248	3	2.6
2025-08-18T12:00	6800	441	-16.1	-43.4	245	3	2.6
2025-08-18T12:00	6820	439	-16.3	-43.5	244	3	2.6
2025-08-18T12:00	6840	438	-16.4	-41.7	246	3	2.6
2025-08-18T12:00	6860	437	-16.6	-41.6	248	3	2.6
2025-08-18T12:00	6880	436	-16.7	-40.2	251	3	2.6
2025-08-18T12:00	6900	435	-16.8	-38.8	253	4	2.6
2025-08-18T12:00	6920	434	-17.0	-39.2	255	4	2.6
2025-08-18T12:00	6940	432	-17.1	-39.5	258	4	2.6
2025-08-18T12:00	6960	431	-17.3	-39.6	260	4	2.6
2025-08-18T12:00	6980	430	-17.6	-39.7	262	4	2.6
2025-08-18T12:00	7000	429	-17.7	-39.9	265	4	2.6
2025-08-18T12:00	7020	428	-17.8	-40.0	266	4	2.6
2025-08-18T12:00	7040	427	-18.1	-40.0	267	4	2.6
2025-08-18T12:00	7060	426	-18.3	-40.3	266	4	2.6
2025-08-18T12:00	7080	424	-18.5	-40.6	266	4	2.6
2025-08-18T12:00	7100	423	-18.6	-40.7	265	4	2.6
2025-08-18T12:00	7120	422	-18.7	-41.0	263	4	2.6
2025-08-18T12:00	7140	421	-18.9	-41.2	261	4	2.6
2025-08-18T12:00	7160	420	-19.1	-41.4	259	4	2.5
2025-08-18T12:00	7180	419	-19.3	-42.0	258	4	2.5
2025-08-18T12:00	7200	418	-19.4	-42.7	257	4	2.5
2025-08-18T12:00	7220	417	-19.6	-42.9	257	5	2.5
2025-08-18T12:00	7240	415	-19.7	-43.5	257	5	2.5
2025-08-18T12:00	7260	414	-19.9	-43.7	258	4	2.5
2025-08-18T12:00	7280	413	-20.1	-44.5	259	4	2.5
2025-08-18T12:00	7300	412	-20.3	-44.5	259	4	2.5
2025-08-18T12:00	7320	411	-20.4	-44.7	259	4	2.4
2025-08-18T12:00	7340	410	-20.6	-45.0	259	4	2.4
2025-08-18T12:00	7360	409	-20.8	-45.0	257	4	2.4
2025-08-18T12:00	7380	408	-21.0	-45.5	256	4	2.4
2025-08-18T12:00	7400	406	-21.1	-46.2	254	3	2.4
2025-08-18T12:00	7420	405	-21.3	-46.9	251	3	2.4
2025-08-18T12:00	7440	404	-21.5	-47.0	248	3	2.4
2025-08-18T12:00	7460	403	-21.6	-46.9	245	3	2.4
2025-08-18T12:00	7480	402	-21.8	-47.1	243	3	2.4
2025-08-18T12:00	7500	401	-22.0	-47.7	241	3	2.4
2025-08-18T12:00	7520	400	-22.1	-48.0	239	3	2.4
2025-08-18T12:00	7540	399	-22.3	-48.2	239	3	2.4
2025-08-18T12:00	7560	398	-22.5	-48.2	238	3	2.4
2025-08-18T12:00	7580	397	-22.6	-48.3	238	3	2.4
2025-08-18T12:00	7600	396	-22.8	-48.6	238	3	2.4
2025-08-18T12:00	7620	395	-23.0	-48.8	239	3	2.4
2025-08-18T12:00	7640	394	-23.2	-48.7	240	4	2.4
2025-08-18T12:00	7660	392	-23.3	-49.0	242	4	2.4
2025-08-18T12:00	7680	391	-23.4	-49.4	244	4	2.3
2025-08-18T12:00	7700	390	-23.6	-48.6	247	4	2.4
2025-08-18T12:00	7720	389	-23.8	-48.2	250	4	2.4
2025-08-18T12:00	7740	388	-24.0	-48.3	252	4	2.4
2025-08-18T12:00	7760	387	-24.2	-48.2	256	4	2.4
2025-08-18T12:00	7780	386	-24.4	-48.6	258	4	2.3
2025-08-18T12:00	7800	385	-24.6	-48.7	262	3	2.3
2025-08-18T12:00	7820	384	-24.7	-48.6	265	3	2.3
2025-08-18T12:00	7840	383	-24.9	-48.3	269	3	2.3
2025-08-18T12:00	7860	382	-25.0	-48.1	273	3	2.3
2025-08-18T12:00	7880	381	-25.3	-47.4	276	3	2.3
2025-08-18T12:00	7900	380	-25.5	-46.7	278	3	2.3
2025-08-18T12:00	7920	379	-25.6	-46.1	280	3	2.2
2025-08-18T12:00	7940	378	-25.9	-46.2	282	3	2.2
2025-08-18T12:00	7960	377	-26.1	-46.2	282	3	2.2
2025-08-18T12:00	7980	376	-26.2	-46.3	282	3	2.2
2025-08-18T12:00	8000	375	-26.4	-46.1	282	4	2.2
2025-08-18T12:00	8020	374	-26.6	-45.4	282	4	2.2
2025-08-18T12:00	8040	372	-26.8	-45.1	282	4	2.2
2025-08-18T12:00	8060	371	-27.0	-45.1	283	4	2.2
2025-08-18T12:00	8080	370	-27.2	-45.2	284	4	2.2
2025-08-18T12:00	8100	369	-27.3	-45.3	286	4	2.2
2025-08-18T12:00	8120	368	-27.5	-45.4	287	4	2.2
2025-08-18T12:00	8140	367	-27.6	-45.7	288	4	2.3
2025-08-18T12:00	8160	366	-27.8	-45.7	288	4	2.3
2025-08-18T12:00	8180	365	-28.1	-45.6	288	4	2.3
2025-08-18T12:00	8200	364	-28.2	-45.8	288	4	2.3
2025-08-18T12:00	8220	363	-28.4	-46.0	288	4	2.4
2025-08-18T12:00	8240	362	-28.5	-46.1	288	4	2.4
2025-08-18T12:00	8260	361	-28.7	-46.2	288	5	2.4
2025-08-18T12:00	8280	360	-28.9	-46.2	289	5	2.4
2025-08-18T12:00	8300	359	-29.0	-46.2	290	5	2.4
2025-08-18T12:00	8320	358	-29.2	-46.5	290	5	2.4
2025-08-18T12:00	8340	357	-29.4	-47.5	291	5	2.4
2025-08-18T12:00	8360	356	-29.5	-47.9	292	4	2.4
2025-08-18T12:00	8380	355	-29.7	-47.9	292	4	2.4
2025-08-18T12:00	8400	354	-29.9	-48.0	293	4	2.4
2025-08-18T12:00	8420	353	-30.1	-48.5	293	4	2.4
2025-08-18T12:00	8440	352	-30.2	-48.9	293	4	2.4
2025-08-18T12:00	8460	351	-30.3	-49.1	293	4	2.4
2025-08-18T12:00	8480	350	-30.4	-49.3	293	4	2.4
2025-08-18T12:00	8500	349	-30.6	-49.6	293	4	2.4
2025-08-18T12:00	8520	348	-30.8	-49.7	292	4	2.4
2025-08-18T12:00	8540	347	-31.0	-49.7	291	5	2.4
2025-08-18T12:00	8560	346	-31.1	-49.9	290	5	2.3
2025-08-18T12:00	8580	345	-31.3	-49.9	288	5	2.3
2025-08-18T12:00	8600	344	-31.5	-50.0	287	5	2.3
2025-08-18T12:00	8620	343	-31.6	-49.9	286	5	2.3
2025-08-18T12:00	8640	342	-31.8	-49.9	285	5	2.3
2025-08-18T12:00	8660	342	-32.0	-49.8	284	5	2.3
2025-08-18T12:00	8680	341	-32.1	-49.8	284	5	2.3
2025-08-18T12:00	8700	339	-32.3	-50.4	285	5	2.3
2025-08-18T12:00	8720	338	-32.5	-51.2	286	5	2.3
2025-08-18T12:00	8740	338	-32.6	-51.1	286	6	2.3
2025-08-18T12:00	8760	337	-32.8	-49.2	287	6	2.3
2025-08-18T12:00	8780	336	-32.9	-48.0	288	6	2.3
2025-08-18T12:00	8800	335	-33.1	-49.0	289	6	2.3
2025-08-18T12:00	8820	334	-33.3	-48.8	290	6	2.3
2025-08-18T12:00	8840	333	-33.4	-51.4	291	6	2.4
2025-08-18T12:00	8860	332	-33.5	-53.1	291	6	2.3
2025-08-18T12:00	8880	331	-33.7	-52.5	292	6	2.3
2025-08-18T12:00	8900	330	-33.8	-52.7	293	6	2.3
2025-08-18T12:00	8920	329	-33.9	-53.1	294	6	2.3
2025-08-18T12:00	8940	328	-34.1	-53.0	295	6	2.3
2025-08-18T12:00	8960	327	-34.3	-52.8	298	6	2.3
2025-08-18T12:00	8980	326	-34.5	-52.9	300	6	2.3
2025-08-18T12:00	9000	325	-34.6	-53.1	302	6	2.3
2025-08-18T12:00	9020	324	-34.8	-53.4	304	6	2.3
2025-08-18T12:00	9040	323	-34.9	-53.6	306	6	2.3
2025-08-18T12:00	9060	323	-35.0	-53.8	308	6	2.3
2025-08-18T12:00	9080	322	-35.2	-54.1	310	6	2.3
2025-08-18T12:00	9100	321	-35.3	-54.3	311	6	2.3
2025-08-18T12:00	9120	320	-35.5	-54.2	312	6	2.4
2025-08-18T12:00	9140	319	-35.7	-54.2	312	6	2.3
2025-08-18T12:00	9160	318	-35.8	-54.3	312	6	2.4
2025-08-18T12:00	9180	317	-36.0	-54.5	311	6	2.4
2025-08-18T12:00	9200	316	-36.2	-54.6	310	6	2.4
2025-08-18T12:00	9220	315	-36.4	-54.4	309	6	2.4
2025-08-18T12:00	9240	314	-36.5	-54.4	307	6	2.4
2025-08-18T12:00	9260	313	-36.7	-54.5	306	6	2.4
2025-08-18T12:00	9280	312	-36.8	-54.6	305	6	2.4
2025-08-18T12:00	9300	312	-37.1	-54.4	303	6	2.4
2025-08-18T12:00	9320	311	-37.2	-54.3	302	6	2.4
2025-08-18T12:00	9340	310	-37.4	-54.4	300	6	2.4
2025-08-18T12:00	9360	309	-37.6	-54.5	300	7	2.4
2025-08-18T12:00	9380	308	-37.7	-54.8	300	7	2.4
2025-08-18T12:00	9400	307	-37.9	-54.9	300	7	2.5
2025-08-18T12:00	9420	306	-38.1	-54.9	300	8	2.5
2025-08-18T12:00	9440	305	-38.2	-55.0	300	8	2.5
2025-08-18T12:00	9460	304	-38.4	-55.2	300	8	2.5
2025-08-18T12:00	9480	303	-38.5	-55.2	301	8	2.5
2025-08-18T12:00	9500	303	-38.6	-55.3	301	9	2.5
2025-08-18T12:00	9520	302	-38.8	-55.5	301	9	2.5
2025-08-18T12:00	9540	301	-39.0	-55.5	301	9	2.5
2025-08-18T12:00	9560	300	-39.2	-55.4	301	9	2.5
2025-08-18T12:00	9580	299	-39.4	-55.4	301	9	2.5
2025-08-18T12:00	9600	298	-39.5	-55.5	302	10	2.5
2025-08-18T12:00	9620	297	-39.6	-55.8	303	10	2.6
2025-08-18T12:00	9640	296	-39.8	-55.8	303	10	2.6
2025-08-18T12:00	9660	296	-39.9	-55.6	304	10	2.6
2025-08-18T12:00	9680	295	-40.1	-55.5	306	11	2.7
2025-08-18T12:00	9700	294	-40.2	-55.6	307	11	2.7
2025-08-18T12:00	9720	293	-40.4	-55.8	309	11	2.7
2025-08-18T12:00	9740	292	-40.6	-55.9	310	11	2.7
2025-08-18T12:00	9760	291	-40.7	-55.8	312	11	2.7
2025-08-18T12:00	9780	291	-40.9	-55.9	314	11	2.8
2025-08-18T12:00	9800	290	-41.1	-56.1	315	11	2.8
2025-08-18T12:00	9820	289	-41.2	-56.2	316	11	2.8
2025-08-18T12:00	9840	288	-41.3	-56.5	317	11	2.8
2025-08-18T12:00	9860	287	-41.5	-56.5	317	11	2.9
2025-08-18T12:00	9880	286	-41.6	-55.8	317	11	2.9
2025-08-18T12:00	9900	285	-41.7	-54.8	317	12	2.9
2025-08-18T12:00	9920	284	-41.9	-54.2	316	12	2.9
2025-08-18T12:00	9940	284	-42.1	-53.0	316	12	2.9
2025-08-18T12:00	9960	283	-42.3	-50.3	316	12	2.9
2025-08-18T12:00	9980	282	-42.5	-48.7	315	12	2.9
2025-08-18T12:00	10000	281	-42.6	-49.0	316	12	2.8
2025-08-18T12:00	10018	280	-42.7	-49.1	316	13	2.7
2025-08-18T12:00	10050	279	-43.0	-48.0	317	13	2.7
2025-08-18T12:00	10100	277	-43.4	-48.6	319	13	2.6
2025-08-18T12:00	10150	275	-43.7	-50.2	320	13	2.7
2025-08-18T12:00	10200	273	-44.2	-50.3	322	12	2.8
2025-08-18T12:00	10250	271	-44.6	-53.2	323	12	2.9
2025-08-18T12:00	10300	269	-44.8	-53.2	323	13	2.8
2025-08-18T12:00	10350	267	-45.3	-53.0	323	13	2.6
2025-08-18T12:00	10400	265	-45.6	-54.5	324	14	2.4
2025-08-18T12:00	10450	263	-46.0	-54.8	324	14	2.3
2025-08-18T12:00	10500	261	-46.4	-54.8	324	14	2.3
2025-08-18T12:00	10550	259	-46.9	-54.4	324	14	2.4
2025-08-18T12:00	10600	257	-47.3	-54.4	324	14	2.4
2025-08-18T12:00	10650	255	-47.7	-54.2	323	15	2.4
2025-08-18T12:00	10700	253	-48.2	-54.1	322	15	2.4
2025-08-18T12:00	10750	251	-48.6	-54.2	321	15	2.4
2025-08-18T12:00	10800	249	-49.0	-54.4	321	16	2.2
2025-08-18T12:00	10850	248	-49.4	-54.6	321	16	2.1
2025-08-18T12:00	10900	246	-49.8	-54.4	322	16	2.1
2025-08-18T12:00	10950	244	-50.2	-55.3	322	16	2.0
2025-08-18T12:00	11000	242	-50.6	-56.6	322	16	2.0
2025-08-18T12:00	11050	240	-51.0	-57.6	322	16	2.0
2025-08-18T12:00	11100	238	-51.4	-57.9	322	16	2.0
2025-08-18T12:00	11150	236	-51.9	-57.6	323	16	2.0
2025-08-18T12:00	11200	234	-52.2	-58.3	323	16	2.0
2025-08-18T12:00	11250	233	-52.6	-59.0	324	17	1.9
2025-08-18T12:00	11300	231	-52.8	-59.4	324	17	2.0
2025-08-18T12:00	11350	229	-53.2	-59.7	325	17	2.0
2025-08-18T12:00	11400	227	-53.6	-59.8	325	17	2.1
2025-08-18T12:00	11450	225	-54.0	-59.8	325	17	2.2
2025-08-18T12:00	11500	224	-54.4	-60.0	326	16	2.3
2025-08-18T12:00	11550	222	-54.8	-60.1	327	16	2.4
2025-08-18T12:00	11600	220	-55.1	-60.4	328	16	2.5
2025-08-18T12:00	11650	219	-55.5	-60.4	329	16	2.6
2025-08-18T12:00	11700	217	-55.8	-60.7	330	16	2.6
2025-08-18T12:00	11750	215	-56.1	-61.3	331	16	2.7
2025-08-18T12:00	11800	214	-56.3	-61.8	333	15	2.8
2025-08-18T12:00	11850	212	-56.6	-62.0	334	15	2.9
2025-08-18T12:00	11900	210	-56.9	-62.2	335	15	2.8
2025-08-18T12:00	11950	209	-57.1	-62.8	335	14	2.8
2025-08-18T12:00	12000	207	-57.0	-63.8	335	14	2.6
2025-08-18T12:00	12050	205	-56.7	-64.8	335	13	2.6
2025-08-18T12:00	12100	204	-57.0	-66.7	335	12	2.7
2025-08-18T12:00	12150	202	-57.1	-66.6	333	11	2.6
2025-08-18T12:00	12200	200	-57.1	-66.5	332	10	2.7
2025-08-18T12:00	12250	199	-57.1	-67.5	331	10	2.7
2025-08-18T12:00	12300	197	-57.1	-67.6	328	9	2.8
2025-08-18T12:00	12350	196	-57.2	-67.5	321	10	2.9
2025-08-18T12:00	12400	194	-57.1	-67.7	316	10	3.0
2025-08-18T12:00	12450	193	-57.3	-67.9	313	11	3.1
2025-08-18T12:00	12500	191	-57.4	-68.4	312	12	3.2
2025-08-18T12:00	12550	190	-57.8	-68.9	312	12	3.2
2025-08-18T12:00	12600	188	-58.1	-68.2	312	12	3.2
2025-08-18T12:00	12650	187	-58.5	-67.7	313	12	3.3
2025-08-18T12:00	12700	185	-58.7	-68.0	314	12	3.4
2025-08-18T12:00	12750	184	-58.7	-69.0	317	12	3.5
2025-08-18T12:00	12800	182	-58.5	-69.6	319	12	3.7
2025-08-18T12:00	12850	181	-58.8	-70.1	319	12	3.8
2025-08-18T12:00	12900	179	-58.7	-70.6	319	12	3.9
2025-08-18T12:00	12950	178	-58.0	-71.4	320	11	4.0
2025-08-18T12:00	13000	176	-58.1	-72.3	320	10	4.1
2025-08-18T12:00	13050	175	-57.8	-73.4	319	10	4.2
2025-08-18T12:00	13100	174	-57.4	-74.6	318	10	4.2
2025-08-18T12:00	13150	172	-57.6	-75.0	318	11	4.3
2025-08-18T12:00	13200	171	-57.9	-74.5	320	11	4.4
2025-08-18T12:00	13250	170	-58.2	-74.6	324	11	4.4
2025-08-18T12:00	13300	168	-58.1	-75.2	329	10	4.5
2025-08-18T12:00	13350	167	-57.8	-76.2	334	10	4.4
2025-08-18T12:00	13400	166	-57.6	-77.8	338	9	4.4
2025-08-18T12:00	13450	164	-56.6	-78.8	341	8	4.4
2025-08-18T12:00	13500	163	-56.3	-79.8	341	8	4.4
2025-08-18T12:00	13550	162	-56.4	-80.0	338	8	4.4
2025-08-18T12:00	13600	161	-56.4	-79.8	336	8	4.3
2025-08-18T12:00	13650	159	-56.5	-79.6	339	9	4.2
2025-08-18T12:00	13700	158	-56.5	-79.5	341	9	4.1
2025-08-18T12:00	13750	157	-56.7	-79.5	342	8	4.1
2025-08-18T12:00	13800	155	-56.5	-79.4	338	6	4.1
2025-08-18T12:00	13850	154	-56.3	-79.6	329	6	4.1
2025-08-18T12:00	13900	153	-56.1	-79.4	316	6	4.1
2025-08-18T12:00	13950	152	-55.9	-79.0	304	6	3.9
2025-08-18T12:00	14000	151	-55.4	-79.5	298	7	3.8
2025-08-18T12:00	14050	150	-55.2	-81.0	302	8	4.2
2025-08-18T12:00	14100	148	-55.3	-80.8	308	9	4.6
2025-08-18T12:00	14150	147	-55.4	-79.9	310	9	4.7
2025-08-18T12:00	14200	146	-55.4	-80.4	307	9	4.5
2025-08-18T12:00	14250	145	-55.3	-80.9	303	8	3.8
2025-08-18T12:00	14300	144	-55.3	-80.3	299	8	3.5
2025-08-18T12:00	14350	143	-55.3	-80.1	294	8	3.7
2025-08-18T12:00	14400	142	-55.5	-80.8	290	9	3.8
2025-08-18T12:00	14450	140	-55.5	-81.3	288	9	3.5
2025-08-18T12:00	14500	139	-55.8	-81.5	288	10	3.2
2025-08-18T12:00	14550	138	-56.2	-81.5	291	10	3.0
2025-08-18T12:00	14600	137	-56.6	-81.8	293	10	2.8
2025-08-18T12:00	14650	136	-56.7	-81.8	297	9	2.8
2025-08-18T12:00	14700	135	-56.6	-81.8	301	8	2.7
2025-08-18T12:00	14750	134	-56.6	-81.8	302	7	2.7
2025-08-18T12:00	14800	133	-56.4	-81.8	304	6	2.7
2025-08-18T12:00	14850	132	-55.8	-81.9	303	6	2.7
2025-08-18T12:00	14900	131	-55.3	-82.0	302	7	2.7
2025-08-18T12:00	14950	130	-55.5	-82.1	303	8	2.8
2025-08-18T12:00	15000	129	-55.8	-82.2	303	8	2.8
2025-08-18T12:00	15050	128	-56.3	-82.3	303	8	2.8
2025-08-18T12:00	15100	127	-56.7	-82.4	306	8	2.8
2025-08-18T12:00	15150	126	-56.9	-82.6	313	8	2.8
2025-08-18T12:00	15200	125	-56.7	-82.8	319	7	2.8
2025-08-18T12:00	15250	124	-56.6	-83.0	320	7	2.8
2025-08-18T12:00	15300	123	-56.7	-83.1	322	8	2.8
2025-08-18T12:00	15350	122	-57.0	-83.1	325	8	2.8
2025-08-18T12:00	15400	121	-57.1	-83.2	327	9	2.8
2025-08-18T12:00	15450	120	-57.2	-83.3	329	9	2.8
2025-08-18T12:00	15500	119	-56.9	-83.2	333	9	2.9
2025-08-18T12:00	15550	118	-56.8	-83.3	335	8	2.8
2025-08-18T12:00	15600	117	-56.8	-83.2	335	7	2.9
2025-08-18T12:00	15650	116	-57.0	-83.2	335	7	2.9
2025-08-18T12:00	15700	115	-57.2	-83.3	337	8	2.9
2025-08-18T12:00	15750	114	-57.5	-83.3	340	7	3.0
2025-08-18T12:00	15800	114	-57.6	-83.2	342	6	3.0
2025-08-18T12:00	15850	113	-57.7	-83.3	339	6	3.1
2025-08-18T12:00	15900	112	-57.7	-83.4	334	5	3.3
2025-08-18T12:00	15950	111	-57.6	-83.5	329	5	3.4
2025-08-18T12:00	16000	110	-57.7	-83.6	318	4	3.4
2025-08-18T12:00	16050	109	-57.6	-83.6	297	3	3.6
2025-08-18T12:00	16100	108	-57.5	-83.7	283	4	3.8
2025-08-18T12:00	16150	107	-57.0	-83.7	282	5	3.9
2025-08-18T12:00	16200	107	-56.6	-83.7	283	6	3.9
2025-08-18T12:00	16250	106	-57.0	-83.8	279	7	3.9
2025-08-18T12:00	16300	105	-56.9	-83.7	274	6	3.9
2025-08-18T12:00	16350	104	-56.8	-83.6	276	6	3.9
2025-08-18T12:00	16400	103	-57.2	-83.6	279	6	4.0
2025-08-18T12:00	16450	102	-57.5	-83.7	283	6	3.9
2025-08-18T12:00	16500	102	-57.8	-83.8	290	6	4.0
2025-08-18T12:00	16550	101	-57.7	-83.8	298	6	4.0
2025-08-18T12:00	16600	100	-57.5	-83.9	303	5	4.2
2025-08-18T12:00	16650	99	-57.7	-84.0	311	5	4.4
2025-08-18T12:00	16700	98	-57.9	-84.1	324	4	4.5
2025-08-18T12:00	16750	98	-58.0	-84.2	334	3	4.7
2025-08-18T12:00	16800	97	-58.3	-84.4	337	2	4.8
2025-08-18T12:00	16850	96	-58.6	-84.5	328	2	4.8
2025-08-18T12:00	16900	95	-58.7	-84.6	300	2	4.8
2025-08-18T12:00	16950	95	-58.7	-84.7	276	3	4.8
2025-08-18T12:00	17000	94	-58.8	-84.8	270	3	4.8
2025-08-18T12:00	17050	93	-59.0	-84.9	285	4	4.8
2025-08-18T12:00	17100	92	-59.1	-84.9	303	4	4.9
2025-08-18T12:00	17150	92	-59.1	-85.0	314	4	4.9
2025-08-18T12:00	17200	91	-58.9	-85.1	323	3	4.9
2025-08-18T12:00	17250	90	-58.6	-85.0	329	3	5.0
2025-08-18T12:00	17300	89	-58.7	-85.0	323	3	5.0
2025-08-18T12:00	17350	89	-58.6	-84.9	312	4	5.0
2025-08-18T12:00	17400	88	-58.9	-84.9	305	5	5.1
2025-08-18T12:00	17450	87	-59.3	-85.0	304	6	5.0
2025-08-18T12:00	17500	87	-59.6	-85.1	311	6	5.1
2025-08-18T12:00	17550	86	-59.8	-85.4	325	6	5.0
2025-08-18T12:00	17600	85	-59.3	-85.3	343	6	5.1
2025-08-18T12:00	17650	85	-59.1	-85.4	3	5	5.0
2025-08-18T12:00	17700	84	-58.7	-85.4	26	4	4.9
2025-08-18T12:00	17750	83	-58.3	-85.3	38	4	5.0
2025-08-18T12:00	17800	83	-58.0	-85.2	35	4	5.2
2025-08-18T12:00	17850	82	-58.2	-85.1	20	3	5.1
2025-08-18T12:00	17900	81	-58.6	-85.2	6	3	5.0
2025-08-18T12:00	17950	81	-58.6	-85.3	13	4	5.0
2025-08-18T12:00	18000	80	-58.2	-85.5	23	5	4.9
2025-08-18T12:00	18050	79	-57.4	-85.5	29	6	5.0
2025-08-18T12:00	18100	79	-56.6	-85.2	30	6	5.2
2025-08-18T12:00	18150	78	-56.6	-85.1	33	7	5.4
2025-08-18T12:00	18200	78	-56.7	-85.1	44	7	5.4
2025-08-18T12:00	18250	77	-56.5	-85.0	58	7	5.6
2025-08-18T12:00	18300	76	-56.6	-84.9	73	7	5.6
2025-08-18T12:00	18350	76	-56.8	-85.0	92	7	5.7
2025-08-18T12:00	18400	75	-56.9	-84.9	108	7	5.8
2025-08-18T12:00	18450	75	-56.9	-85.0	118	7	6.0
2025-08-18T12:00	18500	74	-57.2	-85.1	121	7	5.9
2025-08-18T12:00	18550	73	-56.9	-85.0	115	6	5.9
2025-08-18T12:00	18600	73	-57.2	-85.2	102	5	5.9
2025-08-18T12:00	18650	72	-57.4	-85.2	88	5	5.9
2025-08-18T12:00	18700	72	-57.4	-85.2	90	4	6.1
2025-08-18T12:00	18750	71	-57.5	-85.4	109	4	6.1
2025-08-18T12:00	18800	71	-57.4	-85.3	131	4	6.2
2025-08-18T12:00	18850	70	-57.4	-85.5	143	3	6.3
2025-08-18T12:00	18900	69	-57.3	-85.5	137	3	6.4
2025-08-18T12:00	18950	69	-57.0	-85.2	115	3	6.9
2025-08-18T12:00	19000	68	-57.3	-85.3	99	3	7.1
2025-08-18T12:00	19050	68	-57.6	-85.6	105	3	7.4
2025-08-18T12:00	19100	67	-57.0	-85.3	129	3	7.5
2025-08-18T12:00	19150	67	-56.9	-85.4	155	3	7.7
2025-08-18T12:00	19200	66	-57.1	-85.4	174	4	7.9
2025-08-18T12:00	19250	66	-57.2	-85.4	190	5	8.0
2025-08-18T12:00	19300	65	-57.1	-85.3	205	5	8.2
2025-08-18T12:00	19350	65	-57.3	-85.4	220	6	8.3
2025-08-18T12:00	19400	64	-57.5	-85.5	228	6	8.5
2025-08-18T12:00	19450	64	-57.2	-85.5	227	6	8.8
2025-08-18T12:00	19500	63	-57.1	-85.5	231	5	9.2
2025-08-18T12:00	19550	63	-57.3	-85.5	242	4	9.2
2025-08-18T12:00	19600	62	-57.4	-85.5	245	3	8.7
2025-08-18T12:00	19650	62	-57.1	-85.6	220	2	8.7
2025-08-18T12:00	19700	61	-56.7	-85.5	179	2	9.0
2025-08-18T12:00	19750	61	-56.4	-85.4	163	3	9.2
2025-08-18T12:00	19800	60	-56.3	-85.4	158	3	9.8
2025-08-18T12:00	19850	60	-56.1	-85.3	155	3	9.7
2025-08-18T12:00	19900	59	-56.0	-85.2	147	3	9.3
2025-08-18T12:00	19950	59	-55.7	-85.1	136	4	9.3
2025-08-18T12:00	20000	58	-55.6	-85.1	135	4	9.6
2025-08-18T12:00	20050	58	-55.4		141	5	9.7
2025-08-18T12:00	20100	57	-55.2		150	5	9.9
2025-08-18T12:00	20150	57	-55.4		159	5	10.2
2025-08-18T12:00	20200	57	-55.8		167	5	10.4
2025-08-18T12:00	20250	56	-56.0		167	5	10.4
2025-08-18T12:00	20300	56	-56.1		160	5	10.5
2025-08-18T12:00	20350	55	-56.2		151	4	10.6
2025-08-18T12:00	20400	55	-56.3		150	3	10.6
2025-08-18T12:00	20450	54	-56.3		156	3	10.7
2025-08-18T12:00	20500	54	-56.6		151	3	10.8
2025-08-18T12:00	20550	54	-56.8		141	3	11.0
2025-08-18T12:00	20600	53	-57.2		134	3	10.9
2025-08-18T12:00	20650	53	-57.5		137	3	10.8
2025-08-18T12:00	20700	52	-57.6		155	3	10.8
2025-08-18T12:00	20750	52	-57.5		172	4	10.7
2025-08-18T12:00	20800	51	-56.9		174	4	10.8
2025-08-18T12:00	20850	51	-56.7		168	4	10.8
2025-08-18T12:00	20900	51	-56.5		162	4	10.9
2025-08-18T12:00	20950	50	-56.0		153	2	11.1
2025-08-18T12:00	21000	50	-55.7		130	2	11.3
2025-08-18T12:00	21050	49	-55.4		121	2	11.5
2025-08-18T12:00	21100	49	-55.4		123	2	11.6
2025-08-18T12:00	21150	49	-55.1		116	2	11.7
2025-08-18T12:00	21200	48	-54.9		98	3	11.8
2025-08-18T12:00	21250	48	-54.8		85	3	11.7
2025-08-18T12:00	21300	48	-55.1		80	3	11.5
2025-08-18T12:00	21350	47	-55.5		73	3	11.5
2025-08-18T12:00	21400	47	-56.0		58	3	11.8
2025-08-18T12:00	21450	46	-56.4		39	4	11.7
2025-08-18T12:00	21500	46	-56.7		24	4	11.7
2025-08-18T12:00	21550	46	-56.9		20	5	11.6
2025-08-18T12:00	21600	45	-57.1		26	5	11.5
2025-08-18T12:00	21650	45	-57.1		41	6	11.5
2025-08-18T12:00	21700	45	-57.0		61	6	11.5
2025-08-18T12:00	21750	44	-57.2		81	6	11.5
2025-08-18T12:00	21800	44	-57.2		93	7	11.4
2025-08-18T12:00	21850	44	-57.1		97	8	11.3
2025-08-18T12:00	21900	43	-56.2		100	9	11.2
2025-08-18T12:00	21950	43	-55.3		107	9	11.4
2025-08-18T12:00	22000	43	-54.9		115	9	11.6
2025-08-18T12:00	22050	42	-55.2		120	9	11.6
2025-08-18T12:00	22100	42	-55.4		119	9	11.7
2025-08-18T12:00	22150	42	-55.4		120	8	11.8
2025-08-18T12:00	22200	41	-55.3		129	8	11.7
2025-08-18T12:00	22250	41	-55.3		139	7	11.5
2025-08-18T12:00	22300	41	-55.2		144	7	10.9
2025-08-18T12:00	22350	40	-54.9		136	6	10.7
2025-08-18T12:00	22400	40	-54.5		123	5	10.4
2025-08-18T12:00	22450	40	-54.1		128	5	10.3
2025-08-18T12:00	22500	39	-53.9		146	5	10.2
2025-08-18T12:00	22550	39	-54.0		158	5	10.3
2025-08-18T12:00	22600	39	-54.0		167	5	10.4
2025-08-18T12:00	22650	38	-54.1		174	5	10.4
2025-08-18T12:00	22700	38	-54.3		182	4	10.4
2025-08-18T12:00	22750	38	-54.3		191	3	10.2
2025-08-18T12:00	22800	38	-54.2		200	2	10.1
2025-08-18T12:00	22850	37	-54.2		238	1	10.2
2025-08-18T12:00	22900	37	-54.3		3	1	10.5
2025-08-18T12:00	22950	37	-53.3		35	2	10.9
2025-08-18T12:00	23000	36	-52.7		57	3	11.4
2025-08-18T12:00	23050	36	-52.5		69	4	11.8
2025-08-18T12:00	23100	36	-52.6		74	5	11.9
2025-08-18T12:00	23150	36	-52.4		78	6	11.8
2025-08-18T12:00	23200	35	-52.2		80	6	11.5
2025-08-18T12:00	23250	35	-52.3		83	7	11.5
2025-08-18T12:00	23300	35	-52.4		85	7	11.5
2025-08-18T12:00	23350	34	-52.4		88	8	11.4
2025-08-18T12:00	23400	34	-52.2		93	8	11.5
2025-08-18T12:00	23450	34	-52.4		97	9	11.5
2025-08-18T12:00	23500	34	-52.6		101	10	11.4
2025-08-18T12:00	23550	33	-52.6		104	10	11.4
2025-08-18T12:00	23600	33	-52.7		109	9	11.4
2025-08-18T12:00	23650	33	-52.8		117	9	11.4
2025-08-18T12:00	23700	33	-52.9		123	8	11.4
2025-08-18T12:00	23750	32	-53.0		123	7	11.4
2025-08-18T12:00	23800	32	-52.8		117	7	11.5
2025-08-18T12:00	23850	32	-52.6		112	8	11.5
2025-08-18T12:00	23900	32	-52.3		109	9	11.6
2025-08-18T12:00	23950	31	-52.0		104	9	11.8
2025-08-18T12:00	24000	31	-51.7		96	8	12.0
2025-08-18T12:00	24050	31	-51.6		88	7	12.2
2025-08-18T12:00	24100	31	-51.3		87	7	12.3
2025-08-18T12:00	24150	30	-50.9		91	8	12.4
2025-08-18T12:00	24200	30	-50.8		93	8	12.4
2025-08-18T12:00	24250	30	-50.9		90	8	12.5
2025-08-18T12:00	24300	30	-51.1		88	7	12.4
2025-08-18T12:00	24350	30	-50.9		92	7	12.4
2025-08-18T12:00	24400	29	-50.8		100	8	12.4
2025-08-18T12:00	24450	29	-50.9		106	9	12.4
2025-08-18T12:00	24500	29	-51.1		113	9	12.5
2025-08-18T12:00	24550	29	-51.4		116	9	12.4
2025-08-18T12:00	24600	28	-51.4		114	9	12.4
2025-08-18T12:00	24650	28	-51.3		110	8	12.5
2025-08-18T12:00	24700	28	-51.2		111	8	12.6
2025-08-18T12:00	24750	28	-51.0		117	8	12.6
2025-08-18T12:00	24800	28	-50.9		118	7	12.6
2025-08-18T12:00	24850	27	-50.6		112	7	12.6
2025-08-18T12:00	24900	27	-50.0		103	7	12.5
2025-08-18T12:00	24950	27	-49.8		101	7	12.5
2025-08-18T12:00	25000	27	-49.6		105	8	12.5
2025-08-18T12:00	25050	27	-49.2		109	8	12.4
2025-08-18T12:00	25100	26	-48.9		114	9	12.5
2025-08-18T12:00	25150	26	-48.7		120	9	12.6
2025-08-18T12:00	25200	26	-48.6		127	9	12.7
2025-08-18T12:00	25250	26	-48.7		134	10	12.9
2025-08-18T12:00	25300	26	-48.9		140	11	12.9
2025-08-18T12:00	25350	25	-49.1		146	11	13.0
2025-08-18T12:00	25400	25	-49.2		151	10	13.0
2025-08-18T12:00	25450	25	-49.1		155	8	13.0
2025-08-18T12:00	25500	25	-49.2		158	7	13.0
2025-08-18T12:00	25550	25	-49.5		158	6	12.9
2025-08-18T12:00	25600	24	-49.5		148	5	13.0
2025-08-18T12:00	25650	24	-49.3		130	5	13.0
2025-08-18T12:00	25700	24	-49.2		119	5	12.9
2025-08-18T12:00	25750	24	-49.2		116	5	12.9
2025-08-18T12:00	25800	24	-49.2		115	5	12.9
2025-08-18T12:00	25850	23	-48.8		115	5	12.9
2025-08-18T12:00	25900	23	-48.5		121	6	13.0
2025-08-18T12:00	25950	23	-48.2		129	8	13.1
2025-08-18T12:00	26000	23	-48.0		136	9	13.0
2025-08-18T12:00	26050	23	-47.9		144	9	12.9
2025-08-18T12:00	26100	23	-47.7		152	9	12.9
2025-08-18T12:00	26150	22	-47.6		162	8	12.9
2025-08-18T12:00	26200	22	-47.8		171	8	12.9
2025-08-18T12:00	26250	22	-48.0		176	8	12.9
2025-08-18T12:00	26300	22	-48.3		176	7	13.0
2025-08-18T12:00	26350	22	-48.2		171	6	13.0
2025-08-18T12:00	26400	22	-48.1		162	6	12.9
2025-08-18T12:00	26450	21	-47.9		155	6	12.9
2025-08-18T12:00	26500	21	-47.7		152	6	12.9
2025-08-18T12:00	26550	21	-47.6		153	5	12.8
2025-08-18T12:00	26600	21	-47.4		157	5	12.9
2025-08-18T12:00	26650	21	-47.3		160	4	12.9
2025-08-18T12:00	26700	21	-47.4		156	2	12.9
2025-08-18T12:00	26750	20	-47.2		133	2	12.8
2025-08-18T12:00	26800	20	-46.8		115	3	12.8
2025-08-18T12:00	26850	20	-46.4		116	3	12.8
2025-08-18T12:00	26900	20	-46.2		124	3	12.8
2025-08-18T12:00	26950	20	-46.0		129	3	12.8
2025-08-18T12:00	27000	20	-46.2		122	2	12.7
2025-08-18T12:00	27050	20	-46.5		100	2	12.7
2025-08-18T12:00	27100	19	-46.6		90	3	12.7
2025-08-18T12:00	27150	19	-46.4		95	4	12.7
2025-08-18T12:00	27200	19	-46.1		106	5	12.6
2025-08-18T12:00	27250	19	-46.0		118	6	12.6
2025-08-18T12:00	27300	19	-45.9		128	7	12.5
2025-08-18T12:00	27350	19	-45.8		137	7	12.5
2025-08-18T12:00	27400	19	-45.8		145	6	12.4
2025-08-18T12:00	27450	18	-45.6		151	5	12.3
2025-08-18T12:00	27500	18	-45.4		153	4	12.2
2025-08-18T12:00	27550	18	-45.3		148	3	12.2
2025-08-18T12:00	27600	18	-45.3		138	3	12.1
2025-08-18T12:00	27650	18	-45.2		127	4	12.1
2025-08-18T12:00	27700	18	-45.1		119	4	12.0
2025-08-18T12:00	27750	18	-45.1		112	5	11.9
2025-08-18T12:00	27800	18	-45.0		108	5	11.9
2025-08-18T12:00	27850	17	-45.0		105	5	11.8
2025-08-18T12:00	27900	17	-44.9		108	6	11.8
2025-08-18T12:00	27950	17	-44.9		114	6	11.7
2025-08-18T12:00	28000	17	-44.9		122	7	11.6
2025-08-18T12:00	28050	17	-45.0		129	8	11.6
2025-08-18T12:00	28100	17	-45.1		134	8	11.5
2025-08-18T12:00	28150	17	-45.0		138	8	11.5
2025-08-18T12:00	28200	16	-45.0		140	8	11.4
2025-08-18T12:00	28250	16	-44.9		141	8	11.3
2025-08-18T12:00	28300	16	-44.8		141	7	11.2
2025-08-18T12:00	28350	16	-44.5		137	6	11.2
2025-08-18T12:00	28400	16	-44.2		135	6	11.2
2025-08-18T12:00	28450	16	-44.2		138	6	11.1
2025-08-18T12:00	28500	16	-44.2		144	7	11.1
2025-08-18T12:00	28550	16	-44.3		149	7	11.1
2025-08-18T12:00	28600	16	-44.3		152	7	11.1
2025-08-18T12:00	28650	15	-44.2		155	6	11.1
2025-08-18T12:00	28700	15	-44.1		159	5	11.0
2025-08-18T12:00	28750	15	-44.2		164	4	11.0
2025-08-18T12:00	28800	15	-44.2		164	3	11.0
2025-08-18T12:00	28850	15	-44.2		152	3	11.0
2025-08-18T12:00	28900	15	-44.1		138	3	10.9
2025-08-18T12:00	28950	15	-44.0		129	4	10.9
2025-08-18T12:00	29000	15	-43.9		125	5	10.8
2025-08-18T12:00	29050	15	-43.8		130	6	10.8
2025-08-18T12:00	29100	14	-43.7		140	6	10.7
2025-08-18T12:00	29150	14	-43.4		152	6	10.6
2025-08-18T12:00	29200	14	-43.3		162	6	10.6
2025-08-18T12:00	29250	14	-43.3		169	5	10.5
2025-08-18T12:00	29300	14	-43.1		177	3	10.5
2025-08-18T12:00	29350	14	-43.1		186	2	10.5
2025-08-18T12:00	29400	14	-43.1		197	1	10.5
2025-08-18T12:00	29450	14	-43.2		29	0	10.4
2025-08-18T12:00	29500	14	-43.2		49	1	10.4
2025-08-18T12:00	29550	13	-43.1		71	2	10.3
2025-08-18T12:00	29600	13	-43.1		90	2	10.2
2025-08-18T12:00	29650	13	-42.9		103	2	10.2
2025-08-18T12:00	29700	13	-42.7		107	2	10.1
2025-08-18T12:00	29750	13	-42.6		88	2	10.0
2025-08-18T12:00	29800	13	-42.5		50	2	10.0
2025-08-18T12:00	29850	13	-42.3		32	4	9.9
2025-08-18T12:00	29900	13	-42.3		26	5	9.8
2025-08-18T12:00	29950	13	-42.5		25	6	9.7
2025-08-18T12:00	30000	13	-42.8		28	7	9.7
2025-08-18T12:00	30050	13	-42.9		35	8	9.6
2025-08-18T12:00	30100	12	-43.0		43	9	9.5
2025-08-18T12:00	30150	12	-43.2		50	11	9.5
2025-08-18T12:00	30200	12	-43.3		56	11	9.4
2025-08-18T12:00	30250	12	-43.4		61	11	9.3
2025-08-18T12:00	30300	12	-43.4		66	11	9.3
2025-08-18T12:00	30350	12	-43.2		71	11	9.2
2025-08-18T12:00	30400	12	-43.2		78	11	9.2
2025-08-18T12:00	30450	12	-43.5		84	11	9.1
2025-08-18T12:00	30500	12	-43.7		90	11	9.0
2025-08-18T12:00	30550	12	-43.9		94	10	9.0
2025-08-18T12:00	30600	12	-43.8		98	9	8.9
2025-08-18T12:00	30650	11	-43.7		103	9	8.8
2025-08-18T12:00	30700	11	-43.5		108	9	8.7
2025-08-18T12:00	30750	11	-43.5		111	9	8.6
2025-08-18T12:00	30800	11	-43.7		113	9	8.5
2025-08-18T12:00	30850	11	-43.6		113	9	8.4
2025-08-18T12:00	30900	11	-43.4		112	10	8.4
2025-08-18T12:00	30950	11	-43.1		112	10	8.3
2025-08-18T12:00	31000	11	-42.8		112	9	8.2
2025-08-18T12:00	31050	11	-42.8		113	9	8.1
2025-08-18T12:00	31100	11	-42.9		114	8	8.1
2025-08-18T12:00	31150	11	-43.0		118	8	8.0
2025-08-18T12:00	31200	11	-42.9		121	9	8.0
2025-08-18T12:00	31250	10	-42.9		121	10	8.0
2025-08-18T12:00	31300	10	-42.6		119	11	7.9
2025-08-18T12:00	31350	10	-42.3		120	10	7.9
2025-08-18T12:00	31400	10	-42.0		125	10	7.8
2025-08-18T12:00	31450	10	-42.2		130	10	7.8
2025-08-18T12:00	31500	10	-42.2		134	9	7.7
2025-08-18T12:00	31550	10	-42.2		135	9	7.7
2025-08-18T12:00	31600	10	-42.2		135	8	7.7
2025-08-18T12:00	31650	10	-42.2		135	7	7.7
2025-08-18T12:00	31700	10	-42.1		132	6	7.6
2025-08-18T12:00	31750	10	-41.8		129	7	7.5
2025-08-18T12:00	31800	10	-41.5		129	8	7.5
2025-08-18T12:00	31850	10	-41.3		133	9	7.4
2025-08-18T12:00	31900	10	-40.9		137	9	7.4
2025-08-18T12:00	31950	9	-40.1		139	8	7.3
2025-08-18T12:00	32000	9	-39.6		138	6	7.2
2025-08-18T12:00	32050	9	-39.5		130	5	7.2
2025-08-18T12:00	32100	9	-39.2		121	5	7.1
2025-08-18T12:00	32150	9	-38.7		120	6	7.1
2025-08-18T12:00	32200	9	-38.3		123	6	7.0
2025-08-18T12:00	32250	9	-38.2		123	5	6.9
2025-08-18T12:00	32300	9	-38.0		111	5	6.8
2025-08-18T12:00	32350	9	-37.8		88	5	6.8
2025-08-18T12:00	32400	9	-37.4		71	7	6.7
2025-08-18T12:00	32450	9	-37.0		60	8	6.8
2025-08-18T12:00	32500	9	-36.7		51	9	6.7
2025-08-18T12:00	32550	9	-36.4		45	11	6.6
2025-08-18T12:00	32600	9	-36.3		49	11	6.7
2025-08-18T12:00	32650	9	-36.2		56	11	6.6
2025-08-18T12:00	32700	8	-35.9		61	11	6.6
2025-08-18T12:00	32750	8	-35.8		63	13	6.5
2025-08-18T12:00	32800	8	-35.5		67	14	6.4
2025-08-18T12:00	32850	8	-35.0		73	14	6.4
2025-08-18T12:00	32900	8	-34.9		81	14	6.4
2025-08-18T12:00	32950	8	-34.9		88	15	6.3
2025-08-18T12:00	33000	8	-34.9		95	15	6.3
2025-08-18T12:00	33050	8	-35.1		100	15	6.2
2025-08-18T12:00	33100	8	-35.3		106	14	6.2
2025-08-18T12:00	33150	8	-35.3		112	14	6.1
2025-08-18T12:00	33200	8	-34.9		118	13	6.1
2025-08-18T12:00	33250	8	-34.7		120	12	6.1
2025-08-18T12:00	33300	8	-34.8		118	11	6.0
2025-08-18T12:00	33350	8	-35.0		112	9	6.0
2025-08-18T12:00	33400	8	-35.1		106	9	5.9
2025-08-18T12:00	33450	8	-35.0		103	9	5.9
2025-08-18T12:00	33500	8	-34.9		101	10	5.9
2025-08-18T12:00	33550	8	-34.9		99	10	5.8
2025-08-18T12:00	33600	7	-34.9		100	11	5.8
2025-08-18T12:00	33650	7	-34.9		103	11	5.7
2025-08-18T12:00	33700	7	-34.8		105	12	5.7
2025-08-18T12:00	33750	7	-34.7		105	12	5.6
2025-08-18T12:00	33800	7	-34.8		104	12	5.5
2025-08-18T12:00	33850	7	-34.9		105	11	5.5
2025-08-18T12:00	33900	7	-34.9		103	11	5.5
2025-08-18T12:00	33950	7	-34.9		100	11	5.4
2025-08-18T12:00	34000	7	-34.7		100	11	5.3
2025-08-18T12:00	34050	7	-34.6		102	11	5.2
2025-08-18T12:00	34100	7	-34.8		103	12	5.2
2025-08-18T12:00	34150	7	-34.8		105	12	5.1
2025-08-18T12:00	34200	7	-34.7		109	12	5.1
2025-08-18T12:00	34250	7	-34.6		112	12	5.0
2025-08-18T12:00	34300	7	-34.5		113	11	4.9
2025-08-18T12:00	34350	7	-34.5		112	10	4.9
2025-08-18T12:00	34400	7	-34.3		107	10	4.8
2025-08-18T12:00	34450	7	-33.8		102	11	4.8
2025-08-18T12:00	34500	7	-33.4		104	12	4.8
2025-08-18T12:00	34550	6	-33.2		109	14	4.7
2025-08-18T12:00	34600	6	-33.0		111	14	4.7
2025-08-18T12:00	34650	6	-32.8		110	14	4.6
2025-08-18T21:00	491	958	18.6	13.5	172	0	
2025-08-18T21:00	501	957	20.1	13.3	22	0	
2025-08-18T21:00	520	955	21.3	12.5	32	1	
2025-08-18T21:00	540	953	21.9	12.4	41	1	
2025-08-18T21:00	560	951	22.1	12.3	45	2	
2025-08-18T21:00	580	949	22.1	12.3	48	2	
2025-08-18T21:00	600	946	22.0	12.1	51	3	
2025-08-18T21:00	620	944	21.9	11.9	52	3	
2025-08-18T21:00	640	942	21.8	11.8	53	4	
2025-08-18T21:00	660	940	21.8	11.4	53	4	
2025-08-18T21:00	680	937	21.9	11.4	53	4	
2025-08-18T21:00	700	935	22.0	11.3	53	5	
2025-08-18T21:00	720	933	21.9	11.2	54	5	
2025-08-18T21:00	740	931	21.7	11.0	54	5	
2025-08-18T21:00	760	929	21.6	11.1	55	5	
2025-08-18T21:00	780	927	21.5	11.2	56	5	
2025-08-18T21:00	800	925	21.4	11.1	57	5	
2025-08-18T21:00	820	923	21.3	11.2	58	5	
2025-08-18T21:00	840	921	21.2	11.3	59	5	
2025-08-18T21:00	860	919	21.2	11.5	60	5	
2025-08-18T21:00	880	916	21.1	11.6	61	5	
2025-08-18T21:00	900	914	21.0	11.7	62	5	
2025-08-18T21:00	920	912	20.9	11.8	62	5	
2025-08-18T21:00	940	910	20.8	12.0	61	5	
2025-08-18T21:00	960	908	20.8	12.2	61	5	
2025-08-18T21:00	980	906	20.9	12.2	60	5	
2025-08-18T21:00	1000	904	20.9	12.2	58	5	
2025-08-18T21:00	1020	902	20.9	12.2	57	5	
2025-08-18T21:00	1040	900	20.8	12.0	56	5	
2025-08-18T21:00	1060	897	20.6	11.9	55	5	
2025-08-18T21:00	1080	895	20.4	11.7	54	5	
2025-08-18T21:00	1100	893	20.3	11.5	53	5	
2025-08-18T21:00	1120	891	20.2	11.3	53	4	
2025-08-18T21:00	1140	889	20.0	11.2	52	4	
2025-08-18T21:00	1160	887	19.8	11.0	52	4	
2025-08-18T21:00	1180	885	19.7	10.9	52	4	
2025-08-18T21:00	1200	883	19.7	10.5	51	4	
2025-08-18T21:00	1220	881	19.5	10.4	51	3	
2025-08-18T21:00	1240	879	19.4	10.5	50	3	
2025-08-18T21:00	1260	877	19.2	10.6	49	3	
2025-08-18T21:00	1280	875	19.1	10.7	47	2	
2025-08-18T21:00	1300	873	19.0	10.7	45	2	
2025-08-18T21:00	1320	871	18.9	10.8	42	2	
2025-08-18T21:00	1340	869	18.7	10.8	39	2	
2025-08-18T21:00	1360	867	18.6	10.8	36	1	
2025-08-18T21:00	1380	865	18.4	10.8	33	1	
2025-08-18T21:00	1400	862	18.2	10.8	31	1	
2025-08-18T21:00	1420	860	18.1	10.7	31	1	
2025-08-18T21:00	1440	859	17.9	10.8	31	1	
2025-08-18T21:00	1460	857	17.7	10.8	33	1	
2025-08-18T21:00	1480	855	17.5	10.7	38	1	
2025-08-18T21:00	1500	852	17.3	10.8	48	1	
2025-08-18T21:00	1520	850	17.1	10.7	73	0	
2025-08-18T21:00	1540	849	17.0	10.8	130	0	
2025-08-18T21:00	1560	847	16.8	10.9	169	0	
2025-08-18T21:00	1580	845	16.7	10.9	183	1	
2025-08-18T21:00	1600	843	16.6	10.7	190	1	
2025-08-18T21:00	1620	841	16.6	10.5	194	1	
2025-08-18T21:00	1640	839	16.5	10.4	197	2	
2025-08-18T21:00	1660	837	16.5	10.2	201	2	
2025-08-18T21:00	1680	835	16.4	10.3	204	2	
2025-08-18T21:00	1700	833	16.3	10.4	207	2	
2025-08-18T21:00	1720	831	16.2	10.4	209	2	
2025-08-18T21:00	1740	829	16.0	10.4	211	2	
2025-08-18T21:00	1760	827	15.9	10.1	213	2	
2025-08-18T21:00	1780	825	15.7	10.1	213	2	
2025-08-18T21:00	1800	823	15.5	10.0	213	3	
2025-08-18T21:00	1820	821	15.3	9.9	211	3	
2025-08-18T21:00	1840	819	15.2	9.9	210	3	
2025-08-18T21:00	1860	817	15.0	9.9	208	3	
2025-08-18T21:00	1880	816	14.9	9.9	207	3	
2025-08-18T21:00	1900	814	14.7	9.8	207	3	
2025-08-18T21:00	1920	812	14.5	9.8	207	4	
2025-08-18T21:00	1940	810	14.3	9.7	208	4	
2025-08-18T21:00	1960	808	14.2	9.5	209	4	
2025-08-18T21:00	1980	806	14.0	9.7	211	5	
2025-08-18T21:00	2000	804	13.9	9.8	213	5	
2025-08-18T21:00	2020	802	13.8	9.8	214	5	
2025-08-18T21:00	2040	800	13.6	9.8	216	6	
2025-08-18T21:00	2060	798	13.5	9.9	217	7	
2025-08-18T21:00	2080	797	13.3	10.0	218	7	
2025-08-18T21:00	2100	795	13.2	10.0	218	7	
2025-08-18T21:00	2120	793	13.1	9.7	219	8	
2025-08-18T21:00	2140	791	13.0	9.0	219	8	
2025-08-18T21:00	2160	789	13.0	8.4	220	8	
2025-08-18T21:00	2180	787	13.0	7.6	222	9	
2025-08-18T21:00	2200	785	12.9	7.1	223	9	
2025-08-18T21:00	2220	783	12.8	6.9	225	9	
2025-08-18T21:00	2240	781	12.7	6.5	227	9	
2025-08-18T21:00	2260	779	12.6	5.5	230	9	
2025-08-18T21:00	2280	778	12.5	5.1	233	9	
2025-08-18T21:00	2300	776	12.4	4.7	235	9	
2025-08-18T21:00	2320	774	12.4	3.6	238	9	
2025-08-18T21:00	2340	772	12.4	2.2	240	9	
2025-08-18T21:00	2360	770	12.5	1.0	242	9	
2025-08-18T21:00	2380	769	12.4	0.5	244	9	
2025-08-18T21:00	2400	767	12.4	-0.4	246	9	
2025-08-18T21:00	2420	765	12.2	-1.1	247	9	
2025-08-18T21:00	2440	763	12.2	-2.7	249	9	
2025-08-18T21:00	2460	761	12.2	-4.3	250	9	
2025-08-18T21:00	2480	760	12.2	-6.7	251	9	
2025-08-18T21:00	2500	758	12.3	-8.5	252	9	
2025-08-18T21:00	2520	756	12.1	-8.6	252	9	
2025-08-18T21:00	2540	754	11.9	-9.6	253	9	
2025-08-18T21:00	2560	752	11.9	-14.6	253	8	
2025-08-18T21:00	2580	750	12.0	-19.4	252	8	
2025-08-18T21:00	2600	749	12.1	-20.1	252	8	
2025-08-18T21:00	2620	747	11.9	-19.1	252	8	
2025-08-18T21:00	2640	745	11.8	-19.0	252	8	
2025-08-18T21:00	2660	743	11.6	-18.2	252	8	
2025-08-18T21:00	2680	741	11.5	-17.1	252	8	
2025-08-18T21:00	2700	740	11.3	-16.8	253	8	
2025-08-18T21:00	2720	738	11.2	-16.1	254	7	
2025-08-18T21:00	2740	736	11.0	-16.3	255	7	
2025-08-18T21:00	2760	734	10.9	-16.2	256	7	
2025-08-18T21:00	2780	733	10.7	-15.3	258	7	
2025-08-18T21:00	2800	731	10.5	-15.0	260	7	
2025-08-18T21:00	2820	729	10.3	-15.4	262	7	
2025-08-18T21:00	2840	727	10.2	-15.2	264	7	
2025-08-18T21:00	2860	726	10.0	-14.8	265	7	
2025-08-18T21:00	2880	724	9.9	-14.1	266	7	
2025-08-18T21:00	2900	722	9.7	-13.4	266	7	
2025-08-18T21:00	2920	721	9.6	-13.8	266	7	
2025-08-18T21:00	2940	719	9.5	-13.8	266	7	
2025-08-18T21:00	2960	717	9.3	-13.2	265	7	
2025-08-18T21:00	2980	715	9.1	-12.3	263	7	
2025-08-18T21:00	3000	713	8.9	-11.8	262	7	
2025-08-18T21:00	3020	712	8.8	-12.6	261	7	
2025-08-18T21:00	3040	710	8.7	-13.8	260	8	
2025-08-18T21:00	3060	708	8.5	-14.6	259	8	
2025-08-18T21:00	3080	706	8.4	-14.5	259	8	
2025-08-18T21:00	3100	705	8.3	-13.3	258	8	
2025-08-18T21:00	3120	703	8.2	-14.3	258	8	
2025-08-18T21:00	3140	701	8.1	-14.6	258	8	
2025-08-18T21:00	3160	700	7.9	-14.7	258	7	
2025-08-18T21:00	3180	698	7.8	-15.0	259	7	
2025-08-18T21:00	3200	696	7.7	-15.5	259	7	
2025-08-18T21:00	3220	694	7.5	-15.9	259	7	
2025-08-18T21:00	3240	693	7.4	-15.8	258	7	
2025-08-18T21:00	3260	691	7.2	-15.7	258	7	
2025-08-18T21:00	3280	689	7.0	-15.4	258	7	
2025-08-18T21:00	3300	688	6.8	-14.2	258	7	
2025-08-18T21:00	3320	686	6.6	-13.8	258	7	
2025-08-18T21:00	3340	684	6.4	-13.1	258	7	
2025-08-18T21:00	3360	683	6.1	-12.2	259	7	
2025-08-18T21:00	3380	681	5.9	-11.7	259	7	
2025-08-18T21:00	3400	679	5.8	-12.0	259	7	
2025-08-18T21:00	3420	678	5.6	-12.8	260	7	
2025-08-18T21:00	3440	676	5.5	-13.3	260	7	
2025-08-18T21:00	3460	675	5.4	-14.1	260	7	
2025-08-18T21:00	3480	673	5.3	-14.4	260	7	
2025-08-18T21:00	3500	671	5.2	-14.1	260	7	
2025-08-18T21:00	3520	670	5.0	-14.3	260	7	
2025-08-18T21:00	3540	668	4.8	-15.1	260	7	
2025-08-18T21:00	3560	667	4.7	-15.1	260	7	
2025-08-18T21:00	3580	665	4.5	-15.1	260	7	
2025-08-18T21:00	3600	663	4.3	-15.5	260	7	
2025-08-18T21:00	3620	661	4.1	-15.7	260	7	
2025-08-18T21:00	3640	660	4.0	-15.9	261	7	
2025-08-18T21:00	3660	658	3.8	-15.9	261	7	
2025-08-18T21:00	3680	657	3.6	-16.0	261	7	
2025-08-18T21:00	3700	655	3.5	-16.3	261	7	
2025-08-18T21:00	3720	654	3.4	-16.6	262	7	
2025-08-18T21:00	3740	652	3.3	-16.6	261	7	
2025-08-18T21:00	3760	650	3.1	-16.6	261	7	
2025-08-18T21:00	3780	649	3.0	-16.6	261	7	
2025-08-18T21:00	3800	647	2.8	-16.6	261	7	
2025-08-18T21:00	3820	645	2.7	-16.3	261	7	
2025-08-18T21:00	3840	644	2.5	-15.6	262	7	
2025-08-18T21:00	3860	642	2.4	-15.1	263	7	
2025-08-18T21:00	3880	641	2.2	-16.4	264	7	
2025-08-18T21:00	3900	639	2.1	-16.7	265	7	
2025-08-18T21:00	3920	637	2.0	-16.9	266	7	
2025-08-18T21:00	3940	636	1.9	-17.2	267	7	
2025-08-18T21:00	3960	634	1.8	-15.5	269	8	
2025-08-18T21:00	3980	633	1.7	-15.0	269	8	
2025-08-18T21:00	4000	631	1.5	-15.3	270	8	
2025-08-18T21:00	4020	629	1.3	-15.3	270	8	
2025-08-18T21:00	4040	628	1.1	-15.4	270	8	
2025-08-18T21:00	4060	626	0.9	-15.6	270	8	
2025-08-18T21:00	4080	625	0.8	-15.8	270	8	
2025-08-18T21:00	4100	623	0.7	-15.3	270	8	
2025-08-18T21:00	4120	622	0.6	-14.3	270	8	
2025-08-18T21:00	4140	620	0.4	-14.4	269	8	
2025-08-18T21:00	4160	619	0.3	-14.5	269	8	
2025-08-18T21:00	4180	617	0.2	-14.3	269	8	
2025-08-18T21:00	4200	616	0.0	-14.4	268	8	
2025-08-18T21:00	4220	614	-0.1	-14.4	268	8	
2025-08-18T21:00	4240	612	-0.3	-14.8	268	8	
2025-08-18T21:00	4260	611	-0.4	-15.5	269	7	
2025-08-18T21:00	4280	609	-0.5	-16.0	269	7	
2025-08-18T21:00	4300	608	-0.6	-16.2	270	7	
2025-08-18T21:00	4320	606	-0.7	-16.4	271	7	
2025-08-18T21:00	4340	605	-0.9	-16.6	272	7	
2025-08-18T21:00	4360	603	-0.9	-16.8	273	7	
2025-08-18T21:00	4380	602	-1.0	-16.8	274	7	
2025-08-18T21:00	4400	600	-1.1	-17.0	275	7	
2025-08-18T21:00	4420	599	-1.2	-17.1	276	7	
2025-08-18T21:00	4440	597	-1.3	-17.1	278	7	
2025-08-18T21:00	4460	596	-1.4	-17.2	279	7	
2025-08-18T21:00	4480	594	-1.5	-17.2	280	8	
2025-08-18T21:00	4500	593	-1.6	-17.4	281	8	
2025-08-18T21:00	4520	591	-1.8	-16.8	283	8	
2025-08-18T21:00	4540	590	-1.9	-16.5	284	8	
2025-08-18T21:00	4560	588	-2.0	-17.2	286	8	
2025-08-18T21:00	4580	587	-2.1	-17.9	287	8	
2025-08-18T21:00	4600	586	-2.3	-17.6	288	8	
2025-08-18T21:00	4620	584	-2.5	-17.3	289	9	
2025-08-18T21:00	4640	582	-2.7	-17.4	291	9	
2025-08-18T21:00	4660	581	-2.8	-18.0	291	9	
2025-08-18T21:00	4680	580	-2.9	-18.9	292	9	
2025-08-18T21:00	4700	578	-3.0	-19.3	293	9	
2025-08-18T21:00	4720	577	-3.1	-19.8	293	9	
2025-08-18T21:00	4740	575	-3.1	-20.5	294	9	
2025-08-18T21:00	4760	574	-3.2	-20.8	295	9	
2025-08-18T21:00	4780	572	-3.3	-21.2	295	9	
2025-08-18T21:00	4800	571	-3.4	-21.4	296	8	
2025-08-18T21:00	4820	569	-3.6	-21.5	297	8	
2025-08-18T21:00	4840	568	-3.8	-21.6	298	8	
2025-08-18T21:00	4860	566	-3.9	-21.5	299	8	
2025-08-18T21:00	4880	565	-4.1	-21.3	299	8	
2025-08-18T21:00	4900	564	-4.2	-21.1	299	8	
2025-08-18T21:00	4920	562	-4.3	-21.2	299	8	
2025-08-18T21:00	4940	561	-4.5	-21.4	300	8	
2025-08-18T21:00	4960	559	-4.6	-21.7	300	8	
2025-08-18T21:00	4980	558	-4.8	-21.9	300	8	
2025-08-18T21:00	5000	556	-4.9	-22.3	301	8	
2025-08-18T21:00	5020	555	-5.0	-22.6	302	8	
2025-08-18T21:00	5040	554	-5.1	-23.1	302	8	
2025-08-18T21:00	5060	552	-5.2	-23.3	303	9	
2025-08-18T21:00	5080	551	-5.3	-23.4	304	9	
2025-08-18T21:00	5100	549	-5.5	-23.4	305	9	
2025-08-18T21:00	5120	548	-5.6	-23.4	305	9	
2025-08-18T21:00	5140	547	-5.7	-23.6	306	9	
2025-08-18T21:00	5160	545	-5.8	-23.9	306	9	
2025-08-18T21:00	5180	544	-6.0	-24.1	306	9	
2025-08-18T21:00	5200	543	-6.1	-24.2	307	9	
2025-08-18T21:00	5220	541	-6.2	-24.3	307	9	
2025-08-18T21:00	5240	540	-6.3	-24.5	308	9	
2025-08-18T21:00	5260	538	-6.4	-24.7	308	9	
2025-08-18T21:00	5280	537	-6.5	-24.9	308	9	
2025-08-18T21:00	5300	536	-6.7	-25.1	309	9	
2025-08-18T21:00	5320	534	-6.8	-25.4	309	9	
2025-08-18T21:00	5340	533	-7.0	-25.5	310	9	
2025-08-18T21:00	5360	531	-7.1	-25.6	310	9	
2025-08-18T21:00	5380	530	-7.3	-25.7	310	9	
2025-08-18T21:00	5400	529	-7.4	-25.8	310	9	
2025-08-18T21:00	5420	528	-7.5	-26.1	310	9	
2025-08-18T21:00	5440	526	-7.6	-26.3	309	9	
2025-08-18T21:00	5460	525	-7.7	-26.6	308	9	
2025-08-18T21:00	5480	523	-7.8	-26.9	308	9	
2025-08-18T21:00	5500	522	-7.9	-26.9	307	9	
2025-08-18T21:00	5520	521	-8.1	-27.0	306	8	
2025-08-18T21:00	5540	519	-8.2	-27.1	305	8	
2025-08-18T21:00	5560	518	-8.3	-27.3	305	8	
2025-08-18T21:00	5580	517	-8.5	-27.4	304	8	
2025-08-18T21:00	5600	515	-8.6	-27.4	304	8	
2025-08-18T21:00	5620	514	-8.8	-27.5	304	8	
2025-08-18T21:00	5640	513	-9.0	-27.6	304	8	
2025-08-18T21:00	5660	511	-9.1	-27.6	304	8	
2025-08-18T21:00	5680	510	-9.3	-27.7	305	8	
2025-08-18T21:00	5700	509	-9.5	-27.9	305	8	
2025-08-18T21:00	5720	507	-9.6	-28.1	305	8	
2025-08-18T21:00	5740	506	-9.8	-28.3	305	8	
2025-08-18T21:00	5760	505	-9.9	-28.2	305	8	
2025-08-18T21:00	5780	503	-10.1	-27.4	304	7	
2025-08-18T21:00	5800	502	-10.2	-26.8	304	7	
2025-08-18T21:00	5820	501	-10.4	-26.7	304	8	
2025-08-18T21:00	5840	500	-10.6	-26.7	304	8	
2025-08-18T21:00	5860	498	-10.8	-26.7	304	7	
2025-08-18T21:00	5880	497	-10.9	-27.1	304	7	
2025-08-18T21:00	5900	496	-10.9	-27.8	304	7	
2025-08-18T21:00	5920	494	-11.0	-27.4	304	7	
2025-08-18T21:00	5940	493	-11.2	-27.2	304	7	
2025-08-18T21:00	5960	492	-11.4	-26.8	305	7	
2025-08-18T21:00	5980	490	-11.5	-26.8	305	7	
2025-08-18T21:00	6000	489	-11.7	-27.0	305	7	
2025-08-18T21:00	6020	488	-11.9	-27.1	305	7	
2025-08-18T21:00	6040	487	-12.0	-27.1	306	7	
2025-08-18T21:00	6060	485	-12.2	-27.2	306	7	
2025-08-18T21:00	6080	484	-12.4	-27.6	306	7	
2025-08-18T21:00	6100	483	-12.5	-28.3	306	7	
2025-08-18T21:00	6120	482	-12.7	-28.8	306	7	
2025-08-18T21:00	6140	480	-12.8	-29.3	306	7	
2025-08-18T21:00	6160	479	-13.0	-29.8	307	8	
2025-08-18T21:00	6180	478	-13.1	-30.0	307	8	
2025-08-18T21:00	6200	477	-13.2	-30.1	308	8	
2025-08-18T21:00	6220	475	-13.4	-30.5	309	8	
2025-08-18T21:00	6240	474	-13.5	-31.3	310	8	
2025-08-18T21:00	6260	473	-13.5	-32.5	310	8	
2025-08-18T21:00	6280	471	-13.5	-33.2	311	8	
2025-08-18T21:00	6300	470	-13.6	-33.7	312	9	
2025-08-18T21:00	6320	469	-13.6	-34.3	313	9	
2025-08-18T21:00	6340	468	-13.6	-35.3	314	9	
2025-08-18T21:00	6360	467	-13.6	-36.4	315	9	
2025-08-18T21:00	6380	465	-13.7	-36.8	316	9	
2025-08-18T21:00	6400	464	-13.7	-36.9	317	10	
2025-08-18T21:00	6420	463	-13.7	-36.9	318	10	
2025-08-18T21:00	6440	462	-13.7	-37.1	319	10	
2025-08-18T21:00	6460	461	-13.9	-37.3	320	11	
2025-08-18T21:00	6480	459	-14.1	-37.3	321	11	
2025-08-18T21:00	6500	458	-14.3	-37.4	321	11	
2025-08-18T21:00	6520	457	-14.4	-37.6	322	11	
2025-08-18T21:00	6540	456	-14.6	-37.9	322	11	
2025-08-18T21:00	6560	454	-14.6	-38.7	321	11	
2025-08-18T21:00	6580	453	-14.7	-39.6	321	10	
2025-08-18T21:00	6600	452	-14.7	-39.9	320	10	
2025-08-18T21:00	6620	451	-14.8	-40.0	319	10	
2025-08-18T21:00	6640	450	-14.9	-40.1	318	10	
2025-08-18T21:00	6660	449	-15.0	-40.1	317	10	
2025-08-18T21:00	6680	447	-15.1	-40.3	317	10	
2025-08-18T21:00	6700	446	-15.2	-40.9	317	11	
2025-08-18T21:00	6720	445	-15.4	-41.5	317	11	
2025-08-18T21:00	6740	444	-15.5	-41.8	317	11	
2025-08-18T21:00	6760	443	-15.6	-41.9	318	11	
2025-08-18T21:00	6780	441	-15.8	-42.1	318	11	
2025-08-18T21:00	6800	440	-15.9	-42.4	319	11	
2025-08-18T21:00	6820	439	-16.1	-42.5	320	11	
2025-08-18T21:00	6840	438	-16.2	-42.7	321	11	
2025-08-18T21:00	6860	437	-16.3	-42.8	321	12	
2025-08-18T21:00	6880	436	-16.5	-42.9	321	11	
2025-08-18T21:00	6900	434	-16.6	-43.1	322	11	
2025-08-18T21:00	6920	433	-16.8	-43.4	321	12	
2025-08-18T21:00	6940	432	-16.9	-43.9	321	12	
2025-08-18T21:00	6960	431	-17.1	-44.2	320	11	
2025-08-18T21:00	6980	430	-17.3	-44.3	319	11	
2025-08-18T21:00	7000	429	-17.5	-44.6	318	12	
2025-08-18T21:00	7020	428	-17.6	-45.3	317	12	
2025-08-18T21:00	7040	426	-17.6	-45.9	316	12	
2025-08-18T21:00	7060	425	-17.7	-46.2	314	12	
2025-08-18T21:00	7080	424	-17.8	-45.9	313	12	
2025-08-18T21:00	7100	423	-18.0	-45.5	312	12	
2025-08-18T21:00	7120	422	-18.2	-44.8	312	12	
2025-08-18T21:00	7140	421	-18.3	-44.0	311	12	
2025-08-18T21:00	7160	420	-18.4	-43.9	310	12	
2025-08-18T21:00	7180	418	-18.5	-43.5	310	12	
2025-08-18T21:00	7200	417	-18.6	-41.6	309	12	
2025-08-18T21:00	7220	416	-18.8	-41.6	309	12	
2025-08-18T21:00	7240	415	-18.9	-41.7	309	12	
2025-08-18T21:00	7260	414	-19.2	-41.6	309	12	
2025-08-18T21:00	7280	413	-19.3	-41.4	309	12	
2025-08-18T21:00	7300	412	-19.5	-41.2	309	12	
2025-08-18T21:00	7320	411	-19.7	-41.1	308	12	
2025-08-18T21:00	7340	410	-19.8	-40.6	308	12	
2025-08-18T21:00	7360	409	-19.9	-40.4	308	12	
2025-08-18T21:00	7380	408	-20.1	-40.4	308	12	
2025-08-18T21:00	7400	406	-20.3	-40.5	308	12	
2025-08-18T21:00	7420	405	-20.5	-40.8	307	12	
2025-08-18T21:00	7440	404	-20.7	-40.7	307	12	
2025-08-18T21:00	7460	403	-20.8	-40.7	306	12	
2025-08-18T21:00	7480	402	-21.0	-41.0	306	12	
2025-08-18T21:00	7500	401	-21.2	-41.3	306	12	
2025-08-18T21:00	7520	400	-21.4	-41.4	306	12	
2025-08-18T21:00	7540	399	-21.5	-41.9	306	12	
2025-08-18T21:00	7560	398	-21.7	-42.4	306	11	
2025-08-18T21:00	7580	397	-21.9	-42.5	307	11	
2025-08-18T21:00	7600	395	-22.1	-42.7	308	11	
2025-08-18T21:00	7620	394	-22.2	-43.1	309	11	
2025-08-18T21:00	7640	393	-22.4	-43.3	310	11	
2025-08-18T21:00	7660	392	-22.5	-43.3	310	11	
2025-08-18T21:00	7680	391	-22.7	-43.2	311	10	
2025-08-18T21:00	7700	390	-22.9	-43.3	311	10	
2025-08-18T21:00	7720	389	-23.0	-43.0	311	10	
2025-08-18T21:00	7740	388	-23.2	-42.3	310	10	
2025-08-18T21:00	7760	387	-23.3	-41.9	310	10	
2025-08-18T21:00	7780	386	-23.5	-42.0	308	10	
2025-08-18T21:00	7800	385	-23.7	-41.9	307	11	
2025-08-18T21:00	7820	384	-23.8	-42.0	306	11	
2025-08-18T21:00	7840	383	-24.0	-42.0	305	11	
2025-08-18T21:00	7860	382	-24.2	-42.2	303	11	
2025-08-18T21:00	7880	380	-24.4	-42.3	302	11	
2025-08-18T21:00	7900	379	-24.6	-42.5	302	11	
2025-08-18T21:00	7920	378	-24.7	-43.1	302	11	
2025-08-18T21:00	7940	378	-24.8	-44.3	302	12	
2025-08-18T21:00	7960	376	-24.9	-45.2	303	12	
2025-08-18T21:00	7980	375	-25.1	-45.3	303	12	
2025-08-18T21:00	8000	374	-25.2	-45.2	304	12	
2025-08-18T21:00	8020	373	-25.4	-45.1	305	12	
2025-08-18T21:00	8040	372	-25.6	-45.1	305	12	
2025-08-18T21:00	8060	371	-25.8	-45.2	306	12	
2025-08-18T21:00	8080	370	-26.0	-45.2	307	12	
2025-08-18T21:00	8100	369	-26.2	-45.0	308	12	
2025-08-18T21:00	8120	368	-26.3	-44.5	309	12	
2025-08-18T21:00	8140	367	-26.5	-44.2	309	12	
2025-08-18T21:00	8160	366	-26.6	-44.4	309	12	
2025-08-18T21:00	8180	365	-26.8	-44.9	309	12	
2025-08-18T21:00	8200	364	-26.9	-45.1	309	12	
2025-08-18T21:00	8220	363	-27.1	-45.2	309	12	
2025-08-18T21:00	8240	362	-27.2	-45.6	309	12	
2025-08-18T21:00	8260	361	-27.3	-45.7	308	12	
2025-08-18T21:00	8280	360	-27.4	-45.8	308	12	
2025-08-18T21:00	8300	359	-27.4	-45.7	308	12	
2025-08-18T21:00	8320	358	-27.6	-45.6	307	12	
2025-08-18T21:00	8340	357	-27.7	-45.7	307	12	
2025-08-18T21:00	8360	356	-27.9	-45.9	308	12	
2025-08-18T21:00	8380	355	-28.0	-46.0	308	12	
2025-08-18T21:00	8400	354	-28.0	-45.9	308	13	
2025-08-18T21:00	8420	353	-28.2	-45.8	309	13	
2025-08-18T21:00	8440	352	-28.3	-45.9	309	13	
2025-08-18T21:00	8460	351	-28.5	-46.1	309	13	
2025-08-18T21:00	8480	350	-28.6	-46.4	310	13	
2025-08-18T21:00	8500	349	-28.8	-46.4	310	13	
2025-08-18T21:00	8520	348	-29.0	-46.3	310	13	
2025-08-18T21:00	8540	347	-29.2	-46.1	310	14	
2025-08-18T21:00	8560	346	-29.3	-45.9	310	14	
2025-08-18T21:00	8580	345	-29.5	-45.8	309	14	
2025-08-18T21:00	8600	344	-29.7	-46.0	309	14	
2025-08-18T21:00	8620	344	-29.9	-46.2	309	14	
2025-08-18T21:00	8640	342	-30.1	-46.3	308	14	
2025-08-18T21:00	8660	342	-30.3	-46.6	308	15	
2025-08-18T21:00	8680	341	-30.4	-47.2	308	15	
2025-08-18T21:00	8700	340	-30.6	-47.9	308	15	
2025-08-18T21:00	8720	339	-30.8	-48.5	308	15	
2025-08-18T21:00	8740	338	-30.9	-48.9	308	15	
2025-08-18T21:00	8760	337	-31.0	-48.6	308	15	
2025-08-18T21:00	8780	336	-31.2	-48.2	308	15	
2025-08-18T21:00	8800	335	-31.3	-48.1	308	15	
2025-08-18T21:00	8820	334	-31.5	-48.2	308	15	
2025-08-18T21:00	8840	333	-31.7	-48.3	308	15	
2025-08-18T21:00	8860	332	-31.9	-48.5	309	15	
2025-08-18T21:00	8880	331	-32.0	-48.7	309	15	
2025-08-18T21:00	8900	330	-32.2	-49.1	309	15	
2025-08-18T21:00	8920	329	-32.3	-48.9	309	15	
2025-08-18T21:00	8940	328	-32.5	-47.1	309	15	
2025-08-18T21:00	8960	327	-32.7	-44.3	309	15	
2025-08-18T21:00	8980	326	-32.9	-42.9	309	15	
2025-08-18T21:00	9000	325	-33.1	-42.9	309	15	
2025-08-18T21:00	9020	324	-33.3	-43.1	309	15	
2025-08-18T21:00	9040	324	-33.5	-43.7	309	15	
2025-08-18T21:00	9060	323	-33.7	-44.1	308	15	
2025-08-18T21:00	9080	322	-33.9	-43.8	308	15	
2025-08-18T21:00	9100	321	-34.0	-43.8	308	14	
2025-08-18T21:00	9120	320	-34.2	-44.2	307	14	
2025-08-18T21:00	9140	319	-34.4	-44.6	307	14	
2025-08-18T21:00	9160	318	-34.5	-47.4	306	14	
2025-08-18T21:00	9180	317	-34.6	-49.4	306	14	
2025-08-18T21:00	9200	316	-34.8	-48.4	306	14	
2025-08-18T21:00	9220	315	-35.0	-47.3	306	14	
2025-08-18T21:00	9240	315	-35.2	-47.0	305	14	
2025-08-18T21:00	9260	314	-35.3	-46.6	305	14	
2025-08-18T21:00	9280	313	-35.5	-46.1	305	14	
2025-08-18T21:00	9300	312	-35.6	-45.9	305	15	
2025-08-18T21:00	9320	311	-35.8	-45.8	305	15	
2025-08-18T21:00	9340	310	-36.0	-45.7	305	15	
2025-08-18T21:00	9360	309	-36.2	-45.2	305	15	
2025-08-18T21:00	9380	308	-36.4	-44.6	305	15	
2025-08-18T21:00	9400	307	-36.6	-44.2	305	15	
2025-08-18T21:00	9420	307	-36.7	-44.2	306	15	
2025-08-18T21:00	9440	306	-37.0	-44.1	306	15	
2025-08-18T21:00	9460	305	-37.1	-43.6	306	15	
2025-08-18T21:00	9480	304	-37.3	-43.5	306	15	
2025-08-18T21:00	9500	303	-37.5	-43.6	306	15	
2025-08-18T21:00	9520	302	-37.7	-43.7	306	15	
2025-08-18T21:00	9540	301	-37.9	-43.6	306	15	
2025-08-18T21:00	9560	300	-38.1	-43.3	307	15	
2025-08-18T21:00	9580	299	-38.3	-43.1	307	15	
2025-08-18T21:00	9600	298	-38.5	-43.1	307	16	
2025-08-18T21:00	9620	298	-38.7	-43.2	308	16	
2025-08-18T21:00	9640	297	-38.8	-43.0	308	16	
2025-08-18T21:00	9660	296	-39.0	-42.4	309	16	
2025-08-18T21:00	9680	295	-39.2	-42.0	310	16	
2025-08-18T21:00	9700	294	-39.4	-42.0	310	16	
2025-08-18T21:00	9720	293	-39.6	-42.2	311	16	
2025-08-18T21:00	9740	292	-39.7	-42.5	311	16	
2025-08-18T21:00	9760	292	-39.9	-42.7	312	17	
2025-08-18T21:00	9780	291	-40.0	-43.1	312	17	
2025-08-18T21:00	9800	290	-40.0	-43.4	312	17	
2025-08-18T21:00	9820	289	-40.2	-43.6	312	17	
2025-08-18T21:00	9840	288	-40.3	-43.6	312	17	
2025-08-18T21:00	9860	287	-40.5	-43.9	312	18	
2025-08-18T21:00	9880	287	-40.6	-44.4	312	18	
2025-08-18T21:00	9900	286	-40.7	-45.5	312	18	
2025-08-18T21:00	9920	285	-40.8	-45.5	312	18	
2025-08-18T21:00	9940	284	-40.9	-44.4	312	18	
2025-08-18T21:00	9960	283	-41.1	-43.9	312	18	
2025-08-18T21:00	9980	282	-41.2	-44.3	313	18	
2025-08-18T21:00	10000	282	-41.4	-45.0	313	18	
2025-08-18T21:00	10018	281	-41.6	-45.3	313	18	
2025-08-18T21:00	10050	280	-41.8	-45.8	313	18	
2025-08-18T21:00	10100	278	-42.0	-48.3	313	18	
2025-08-18T21:00	10150	275	-42.4	-48.7	312	18	
2025-08-18T21:00	10200	273	-42.9	-48.6	312	18	
2025-08-18T21:00	10250	271	-43.3	-48.9	312	18	
2025-08-18T21:00	10300	269	-43.6	-49.8	311	18	
2025-08-18T21:00	10350	267	-44.0	-50.8	311	18	
2025-08-18T21:00	10400	265	-44.5	-52.5	309	18	
2025-08-18T21:00	10450	263	-44.9	-52.6	308	18	
2025-08-18T21:00	10500	261	-45.2	-53.5	307	19	
2025-08-18T21:00	10550	259	-45.6	-54.7	307	19	
2025-08-18T21:00	10600	258	-46.0	-54.5	308	19	
2025-08-18T21:00	10650	256	-46.4	-55.9	309	20	
2025-08-18T21:00	10700	253	-46.7	-58.7	310	20	
2025-08-18T21:00	10750	252	-47.0	-59.3	310	20	
2025-08-18T21:00	10800	250	-47.4	-58.7	309	21	
2025-08-18T21:00	10850	248	-47.9	-58.3	308	21	
2025-08-18T21:00	10900	246	-48.4	-58.5	307	22	
2025-08-18T21:00	10950	244	-48.9	-59.1	307	22	
2025-08-18T21:00	11000	242	-49.3	-60.4	307	23	
2025-08-18T21:00	11050	241	-49.7	-61.8	307	24	
2025-08-18T21:00	11100	239	-50.0	-62.6	306	24	
2025-08-18T21:00	11150	237	-50.4	-62.2	305	24	
2025-08-18T21:00	11200	235	-50.8	-60.9	305	24	
2025-08-18T21:00	11250	233	-51.3	-60.7	304	24	
2025-08-18T21:00	11300	231	-51.6	-62.8	304	24	
2025-08-18T21:00	11350	230	-52.0	-64.2	303	24	
2025-08-18T21:00	11400	228	-52.4	-63.8	303	24	
2025-08-18T21:00	11450	226	-52.9	-63.7	303	24	
2025-08-18T21:00	11500	224	-53.4	-63.8	303	24	
2025-08-18T21:00	11550	223	-53.8	-63.3	304	24	
2025-08-18T21:00	11600	221	-54.3	-62.6	305	24	
2025-08-18T21:00	11650	219	-54.8	-62.0	305	23	
2025-08-18T21:00	11700	218	-55.2	-61.4	304	23	
2025-08-18T21:00	11750	216	-55.6	-61.8	303	23	
2025-08-18T21:00	11800	214	-56.0	-62.5	303	24	
2025-08-18T21:00	11850	213	-56.5	-62.7	302	24	
2025-08-18T21:00	11900	211	-57.0	-62.8	302	24	
2025-08-18T21:00	11950	209	-57.4	-63.1	303	24	
2025-08-18T21:00	12000	207	-57.8	-64.5	303	24	
2025-08-18T21:00	12050	206	-58.0	-67.0	303	23	
2025-08-18T21:00	12100	204	-58.3	-68.3	303	23	
2025-08-18T21:00	12150	202	-58.4	-67.9	303	22	
2025-08-18T21:00	12200	201	-58.3	-67.2	304	21	
2025-08-18T21:00	12250	200	-58.4	-66.8	305	20	
2025-08-18T21:00	12300	198	-58.6	-66.5	305	19	
2025-08-18T21:00	12350	196	-59.0	-66.4	305	17	
2025-08-18T21:00	12400	195	-59.5	-66.4	304	16	
2025-08-18T21:00	12450	193	-59.8	-66.2	303	16	
2025-08-18T21:00	12500	192	-60.1	-65.9	302	15	
2025-08-18T21:00	12550	190	-60.2	-66.3	302	15	
2025-08-18T21:00	12600	189	-60.0	-66.9	304	14	
2025-08-18T21:00	12650	187	-60.3	-67.9	307	13	
2025-08-18T21:00	12700	186	-60.4	-68.5	309	11	
2025-08-18T21:00	12750	184	-60.3	-68.9	309	10	
2025-08-18T21:00	12800	183	-60.4	-69.3	308	10	
2025-08-18T21:00	12850	181	-60.4	-69.3	307	10	
2025-08-18T21:00	12900	180	-60.7	-69.3	306	10	
2025-08-18T21:00	12950	178	-60.9	-69.5	305	10	
2025-08-18T21:00	13000	177	-61.1	-70.0	303	9	
2025-08-18T21:00	13050	175	-61.0	-70.7	300	9	
2025-08-18T21:00	13100	174	-60.7	-71.4	297	9	
2025-08-18T21:00	13150	173	-60.2	-72.1	299	9	
2025-08-18T21:00	13200	171	-60.0	-72.7	306	10	
2025-08-18T21:00	13250	170	-59.8	-73.1	312	10	
2025-08-18T21:00	13300	169	-59.5	-73.3	317	10	
2025-08-18T21:00	13350	167	-59.3	-73.2	319	10	
2025-08-18T21:00	13400	166	-59.5	-73.3	320	9	
2025-08-18T21:00	13450	165	-59.6	-73.8	319	9	
2025-08-18T21:00	13500	163	-59.7	-74.9	318	8	
2025-08-18T21:00	13550	162	-59.8	-76.2	316	7	
2025-08-18T21:00	13600	161	-59.4	-76.6	313	6	
2025-08-18T21:00	13650	159	-59.3	-76.9	308	5	
2025-08-18T21:00	13700	158	-59.1	-77.6	304	5	
2025-08-18T21:00	13750	157	-59.0	-78.5	301	5	
2025-08-18T21:00	13800	156	-58.7	-78.7	300	5	
2025-08-18T21:00	13850	154	-58.7	-78.6	301	5	
2025-08-18T21:00	13900	153	-58.7	-78.2	308	4	
2025-08-18T21:00	13950	152	-58.4	-78.2	319	4	
2025-08-18T21:00	14000	151	-58.3	-78.7	332	4	
2025-08-18T21:00	14050	149	-58.3	-79.0	340	3	
2025-08-18T21:00	14100	148	-58.4	-78.9	344	3	
2025-08-18T21:00	14150	147	-58.0	-78.4	340	3	
2025-08-18T21:00	14200	146	-57.8	-78.4	331	3	
2025-08-18T21:00	14250	145	-57.6	-79.1	319	3	
2025-08-18T21:00	14300	144	-57.2	-80.1	307	3	
2025-08-18T21:00	14350	143	-57.6	-80.9	300	3	
2025-08-18T21:00	14400	141	-57.7	-81.1	298	3	
2025-08-18T21:00	14450	140	-57.6	-81.2	295	3	
2025-08-18T21:00	14500	139	-57.4	-81.4	288	3	
2025-08-18T21:00	14550	138	-57.3	-81.4	282	3	
2025-08-18T21:00	14600	137	-57.3	-81.5	285	4	
2025-08-18T21:00	14650	136	-57.2	-81.4	292	5	
2025-08-18T21:00	14700	135	-57.2	-81.3	302	5	
2025-08-18T21:00	14750	134	-57.6	-81.5	309	6	
2025-08-18T21:00	14800	133	-57.8	-81.7	314	6	
2025-08-18T21:00	14850	132	-57.5	-81.5	318	5	
2025-08-18T21:00	14900	131	-57.5	-81.6	314	4	
2025-08-18T21:00	14950	130	-57.6	-81.8	297	4	
2025-08-18T21:00	15000	129	-57.5	-81.9	288	4	
2025-08-18T21:00	15050	128	-57.0	-81.9	287	5	
2025-08-18T21:00	15100	127	-56.7	-82.1	290	6	
2025-08-18T21:00	15150	126	-56.0	-81.9	291	6	
2025-08-18T21:00	15200	125	-55.6	-81.8	289	6	
2025-08-18T21:00	15250	124	-55.8	-82.0	282	7	
2025-08-18T21:00	15300	123	-56.0	-82.0	276	8	
2025-08-18T21:00	15350	122	-55.9	-81.9	269	8	
2025-08-18T21:00	15400	121	-56.0	-82.1	263	8	
2025-08-18T21:00	15450	120	-55.8	-82.0	260	9	
2025-08-18T21:00	15500	119	-55.7	-82.1	261	9	
2025-08-18T21:00	15550	118	-55.8	-82.3	264	10	
2025-08-18T21:00	15600	117	-55.6	-82.2	268	11	
2025-08-18T21:00	15650	116	-55.3	-82.3	270	11	
2025-08-18T21:00	15700	115	-54.8	-82.0	272	11	
2025-08-18T21:00	15750	114	-54.9	-82.0	274	11	
2025-08-18T21:00	15800	113	-55.3	-82.0	278	11	
2025-08-18T21:00	15850	112	-55.6	-82.0	282	11	
2025-08-18T21:00	15900	112	-55.9	-82.1	284	10	
2025-08-18T21:00	15950	111	-56.3	-82.2	286	9	
2025-08-18T21:00	16000	110	-56.8	-82.4	289	8	
2025-08-18T21:00	16050	109	-57.0	-82.4	294	7	
2025-08-18T21:00	16100	108	-57.4	-82.5	300	6	
2025-08-18T21:00	16150	107	-57.8	-82.9	305	6	
2025-08-18T21:00	16200	106	-57.9	-83.0	310	6	
2025-08-18T21:00	16250	106	-57.5	-82.9	317	5	
2025-08-18T21:00	16300	105	-57.3	-83.0	327	5	
2025-08-18T21:00	16350	104	-57.3	-83.0	336	5	
2025-08-18T21:00	16400	103	-57.4	-83.1	338	4	
2025-08-18T21:00	16450	102	-57.6	-83.2	328	4	
2025-08-18T21:00	16500	102	-57.9	-83.3	312	4	
2025-08-18T21:00	16550	101	-57.8	-83.3	291	4	
2025-08-18T21:00	16600	100	-57.9	-83.3	274	5	
2025-08-18T21:00	16650	99	-57.7	-83.2	269	5	
2025-08-18T21:00	16700	98	-57.7	-83.4	280	4	
2025-08-18T21:00	16750	98	-57.4	-83.4	302	4	
2025-08-18T21:00	16800	97	-57.3	-83.4	314	4	
2025-08-18T21:00	16850	96	-57.3	-83.5	316	4	
2025-08-18T21:00	16900	95	-57.2	-83.4	310	4	
2025-08-18T21:00	16950	95	-57.4	-83.6	307	3	
2025-08-18T21:00	17000	94	-57.6	-83.6	313	2	
2025-08-18T21:00	17050	93	-57.5	-83.6	323	1	
2025-08-18T21:00	17100	92	-57.8	-83.7	319	2	
2025-08-18T21:00	17150	92	-58.1	-83.9	325	2	
2025-08-18T21:00	17200	91	-58.1	-84.1	345	2	
2025-08-18T21:00	17250	90	-57.5	-83.9	8	2	
2025-08-18T21:00	17300	89	-57.4	-84.0	26	2	
2025-08-18T21:00	17350	89	-57.3	-83.9	51	1	
2025-08-18T21:00	17400	88	-57.3	-83.9	207	1	
2025-08-18T21:00	17450	87	-57.4	-83.9	221	2	
2025-08-18T21:00	17500	87	-57.7	-84.0	227	3	
2025-08-18T21:00	17550	86	-57.7	-83.8	234	4	
2025-08-18T21:00	17600	85	-58.0	-83.9	245	4	
2025-08-18T21:00	17650	85	-58.3	-84.0	258	4	
2025-08-18T21:00	17700	84	-58.6	-84.2	269	3	
2025-08-18T21:00	17750	83	-58.6	-84.4	271	2	
2025-08-18T21:00	17800	83	-58.2	-84.4	259	1	
2025-08-18T21:00	17850	82	-57.8	-84.4	250	0	
2025-08-18T21:00	17900	81	-57.4	-84.2	298	1	
2025-08-18T21:00	17950	81	-57.7	-84.4	311	1	
2025-08-18T21:00	18000	80	-57.9	-84.6	319	2	
2025-08-18T21:00	18050	79	-57.4	-84.5	313	2	
2025-08-18T21:00	18100	79	-56.7	-84.3	288	2	
2025-08-18T21:00	18150	78	-56.3	-84.2	273	2	
2025-08-18T21:00	18200	78	-56.4	-84.2	277	2	
2025-08-18T21:00	18250	77	-56.3	-84.2	299	2	
2025-08-18T21:00	18300	76	-56.0	-84.0	331	2	
2025-08-18T21:00	18350	76	-56.1	-84.1	360	2	
2025-08-18T21:00	18400	75	-56.0	-84.1	29	1	
2025-08-18T21:00	18450	75	-55.6	-83.8	67	1	
2025-08-18T21:00	18500	74	-55.7	-83.8	108	1	
2025-08-18T21:00	18550	73	-56.0	-83.9	149	0	
2025-08-18T21:00	18600	73	-56.3	-83.9	243	1	
2025-08-18T21:00	18650	72	-56.4	-84.0	276	1	
2025-08-18T21:00	18700	72	-56.7	-84.0	287	2	
2025-08-18T21:00	18750	71	-57.0	-84.1	294	3	
2025-08-18T21:00	18800	71	-57.3	-84.3	299	3	
2025-08-18T21:00	18850	70	-57.6	-84.5	303	2	
2025-08-18T21:00	18900	69	-57.4	-84.4	307	1	
2025-08-18T21:00	18950	69	-57.6	-84.6	305	0	
2025-08-18T21:00	19000	68	-57.9	-84.8	301	0	
2025-08-18T21:00	19050	68	-57.7	-84.8	332	1	
2025-08-18T21:00	19100	67	-57.5	-84.8	358	2	
2025-08-18T21:00	19150	67	-57.1	-84.7	17	2	
2025-08-18T21:00	19200	66	-57.0	-84.7	37	2	
2025-08-18T21:00	19250	66	-56.9	-84.6	68	2	
2025-08-18T21:00	19300	65	-57.0	-84.6	98	3	
2025-08-18T21:00	19350	65	-57.1	-84.6	116	4	
2025-08-18T21:00	19400	64	-57.3	-84.6	128	6	
2025-08-18T21:00	19450	64	-57.4	-84.7	136	6	
2025-08-18T21:00	19500	63	-57.1	-84.8	142	6	
2025-08-18T21:00	19550	63	-56.6	-84.8	146	5	
2025-08-18T21:00	19600	62	-55.7	-84.4	146	5	
2025-08-18T21:00	19650	62	-55.7	-84.4	141	4	
2025-08-18T21:00	19700	61	-55.8	-84.4	139	4	
2025-08-18T21:00	19750	61	-55.6	-84.2	143	4	
2025-08-18T21:00	19800	60	-55.5	-84.1	152	4	
2025-08-18T21:00	19850	60	-55.6	-84.0	161	4	
2025-08-18T21:00	19900	59	-55.9	-84.1	161	4	
2025-08-18T21:00	19950	59	-55.9	-84.0	153	4	
2025-08-18T21:00	20000	58	-56.2	-84.1	142	4	
2025-08-18T21:00	20050	58	-56.3		137	4	
2025-08-18T21:00	20100	57	-56.6		139	5	
2025-08-18T21:00	20150	57	-56.7		141	5	
2025-08-18T21:00	20200	57	-56.6		140	5	
2025-08-18T21:00	20250	56	-56.2		139	6	
2025-08-18T21:00	20300	56	-56.1		143	5	
2025-08-18T21:00	20350	55	-56.4		152	5	
2025-08-18T21:00	20400	55	-56.5		163	4	
2025-08-18T21:00	20450	54	-56.6		167	3	
2025-08-18T21:00	20500	54	-56.6		156	2	
2025-08-18T21:00	20550	54	-56.2		121	2	
2025-08-18T21:00	20600	53	-55.9		86	2	
2025-08-18T21:00	20650	53	-55.7		69	3	
2025-08-18T21:00	20700	52	-55.6		61	3	
2025-08-18T21:00	20750	52	-55.7		55	3	
2025-08-18T21:00	20800	51	-55.8		57	3	
2025-08-18T21:00	20850	51	-55.3		66	4	
2025-08-18T21:00	20900	51	-54.6		80	4	
2025-08-18T21:00	20950	50	-54.3		90	5	
2025-08-18T21:00	21000	50	-54.3		96	6	
2025-08-18T21:00	21050	50	-54.0		101	6	
2025-08-18T21:00	21100	49	-53.9		109	7	
2025-08-18T21:00	21150	49	-53.9		118	7	
2025-08-18T21:00	21200	48	-54.0		126	7	
2025-08-18T21:00	21250	48	-54.2		133	7	
2025-08-18T21:00	21300	48	-54.5		139	7	
2025-08-18T21:00	21350	47	-54.8		148	6	
2025-08-18T21:00	21400	47	-55.0		157	5	
2025-08-18T21:00	21450	46	-54.8		166	4	
2025-08-18T21:00	21500	46	-54.8		171	3	
2025-08-18T21:00	21550	46	-55.0		169	1	
2025-08-18T21:00	21600	45	-55.1		126	0	
2025-08-18T21:00	21650	45	-55.0		358	1	
2025-08-18T21:00	21700	45	-55.0		10	1	
2025-08-18T21:00	21750	44	-55.0		38	2	
2025-08-18T21:00	21800	44	-54.6		76	2	
2025-08-18T21:00	21850	44	-54.2		107	2	
2025-08-18T21:00	21900	43	-54.2		123	3	
2025-08-18T21:00	21950	43	-54.4		128	3	
2025-08-18T21:00	22000	43	-54.5		121	2	
2025-08-18T21:00	22050	42	-54.3		99	2	
2025-08-18T21:00	22100	42	-54.4		76	2	
2025-08-18T21:00	22150	42	-54.5		66	2	
2025-08-18T21:00	22200	41	-54.6		64	3	
2025-08-18T21:00	22250	41	-54.7		65	4	
2025-08-18T21:00	22300	41	-55.1		69	5	
2025-08-18T21:00	22350	40	-55.2		74	4	
2025-08-18T21:00	22400	40	-55.2		76	4	
2025-08-18T21:00	22450	40	-55.2		72	2	
2025-08-18T21:00	22500	39	-55.3		67	2	
2025-08-18T21:00	22550	39	-55.6		73	2	
2025-08-18T21:00	22600	39	-55.5		84	3	
2025-08-18T21:00	22650	39	-55.3		90	4	
2025-08-18T21:00	22700	38	-55.1		96	5	
2025-08-18T21:00	22750	38	-54.8		105	5	
2025-08-18T21:00	22800	38	-54.6		120	5	
2025-08-18T21:00	22850	37	-54.0		143	4	
2025-08-18T21:00	22900	37	-54.1		165	5	
2025-08-18T21:00	22950	37	-54.1		176	5	
2025-08-18T21:00	23000	36	-54.2		179	5	
2025-08-18T21:00	23050	36	-54.0		178	4	
2025-08-18T21:00	23100	36	-53.8		174	3	
2025-08-18T21:00	23150	36	-53.6		165	2	
2025-08-18T21:00	23200	35	-53.2		149	2	
2025-08-18T21:00	23250	35	-52.8		136	3	
2025-08-18T21:00	23300	35	-52.6		132	4	
2025-08-18T21:00	23350	35	-52.3		134	4	
2025-08-18T21:00	23400	34	-51.8		140	5	
2025-08-18T21:00	23450	34	-51.7		148	4	
2025-08-18T21:00	23500	34	-51.3		157	4	
2025-08-18T21:00	23550	33	-51.5		166	3	
2025-08-18T21:00	23600	33	-51.8		173	2	
2025-08-18T21:00	23650	33	-52.2		171	1	
2025-08-18T21:00	23700	33	-52.3		64	1	
2025-08-18T21:00	23750	32	-52.5		45	2	
2025-08-18T21:00	23800	32	-52.1		55	2	
2025-08-18T21:00	23850	32	-51.6		72	3	
2025-08-18T21:00	23900	32	-51.4		87	3	
2025-08-18T21:00	23950	31	-51.4		94	3	
2025-08-18T21:00	24000	31	-51.3		93	3	
2025-08-18T21:00	24050	31	-51.1		85	3	
2025-08-18T21:00	24100	31	-50.8		78	3	
2025-08-18T21:00	24150	31	-50.3		78	4	
2025-08-18T21:00	24200	30	-50.2		89	4	
2025-08-18T21:00	24250	30	-49.7		106	4	
2025-08-18T21:00	24300	30	-49.3		118	4	
2025-08-18T21:00	24350	30	-49.3		122	4	
2025-08-18T21:00	24400	29	-49.2		113	4	
2025-08-18T21:00	24450	29	-49.0		96	5	
2025-08-18T21:00	24500	29	-48.9		83	5	
2025-08-18T21:00	24550	29	-49.0		79	5	
2025-08-18T21:00	24600	29	-48.8		76	5	
2025-08-18T21:00	24650	28	-49.1		71	4	
2025-08-18T21:00	24700	28	-49.5		67	4	
2025-08-18T21:00	24750	28	-49.7		66	4	
2025-08-18T21:00	24800	28	-49.4		70	5	
2025-08-18T21:00	24850	27	-49.4		76	5	
2025-08-18T21:00	24900	27	-49.5		86	5	
2025-08-18T21:00	24950	27	-49.8		94	4	
2025-08-18T21:00	25000	27	-49.9		98	4	
2025-08-18T21:00	25050	27	-49.9		96	4	
2025-08-18T21:00	25100	26	-49.9		90	4	
2025-08-18T21:00	25150	26	-49.5		88	5	
2025-08-18T21:00	25200	26	-49.3		91	6	
2025-08-18T21:00	25250	26	-49.2		97	7	
2025-08-18T21:00	25300	26	-48.9		104	9	
2025-08-18T21:00	25350	25	-49.0		111	10	
2025-08-18T21:00	25400	25	-48.9		120	12	
2025-08-18T21:00	25450	25	-48.6		127	12	
2025-08-18T21:00	25500	25	-48.5		135	12	
2025-08-18T21:00	25550	25	-48.3		142	11	
2025-08-18T21:00	25600	24	-48.2		149	10	
2025-08-18T21:00	25650	24	-48.4		152	9	
2025-08-18T21:00	25700	24	-48.7		151	8	
2025-08-18T21:00	25750	24	-48.7		144	8	
2025-08-18T21:00	25800	24	-48.4		134	8	
2025-08-18T21:00	25850	24	-48.2		126	8	
2025-08-18T21:00	25900	23	-48.2		120	8	
2025-08-18T21:00	25950	23	-48.3		114	8	
2025-08-18T21:00	26000	23	-48.1		112	9	
2025-08-18T21:00	26050	23	-47.9		115	10	
2025-08-18T21:00	26100	23	-47.7		121	10	
2025-08-18T21:00	26150	23	-47.6		129	11	
2025-08-18T21:00	26200	22	-47.7		136	10	
2025-08-18T21:00	26250	22	-47.9		141	10	
2025-08-18T21:00	26300	22	-47.9		143	9	
2025-08-18T21:00	26350	22	-47.9		146	8	
2025-08-18T21:00	26400	22	-47.8		152	7	
2025-08-18T21:00	26450	22	-47.7		156	7	
2025-08-18T21:00	26500	21	-47.6		155	7	
2025-08-18T21:00	26550	21	-47.1		150	7	
2025-08-18T21:00	26600	21	-47.1		146	7	
2025-08-18T21:00	26650	21	-47.2		143	7	
2025-08-18T21:00	26700	21	-47.1		141	6	
2025-08-18T21:00	26750	21	-47.0		140	6	
2025-08-18T21:00	26800	20	-46.9		142	7	
2025-08-18T21:00	26850	20	-46.8		147	7	
2025-08-18T21:00	26900	20	-46.9		152	8	
2025-08-18T21:00	26950	20	-46.7		157	8	
2025-08-18T21:00	27000	20	-46.5		162	8	
2025-08-18T21:00	27050	20	-46.5		167	7	
2025-08-18T21:00	27100	20	-46.6		174	6	
2025-08-18T21:00	27150	19	-46.7		185	5	
2025-08-18T21:00	27200	19	-46.9		197	4	
2025-08-18T21:00	27250	19	-47.1		207	3	
2025-08-18T21:00	27300	19	-47.3		206	2	
2025-08-18T21:00	27350	19	-47.0		156	1	
2025-08-18T21:00	27400	19	-46.8		102	2	
2025-08-18T21:00	27450	19	-46.7		99	3	
2025-08-18T21:00	27500	18	-46.8		105	3	
2025-08-18T21:00	27550	18	-46.8		111	4	
2025-08-18T21:00	27600	18	-46.9		112	4	
2025-08-18T21:00	27650	18	-46.9		107	4	
2025-08-18T21:00	27700	18	-47.0		98	3	
2025-08-18T21:00	27750	18	-46.9		91	3	
2025-08-18T21:00	27800	18	-46.8		87	3	
2025-08-18T21:00	27850	17	-46.7		83	3	
2025-08-18T21:00	27900	17	-46.4		75	3	
2025-08-18T21:00	27950	17	-46.1		65	3	
2025-08-18T21:00	28000	17	-46.0		61	3	
2025-08-19T00:00	491	959	17.1	13.2	214	1	
2025-08-19T00:00	520	955	19.3	12.8	86	0	
2025-08-19T00:00	540	953	20.4	12.6	63	1	
2025-08-19T00:00	560	951	20.7	12.4	46	1	
2025-08-19T00:00	580	949	20.6	12.3	35	1	
2025-08-19T00:00	600	946	20.6	11.9	29	1	
2025-08-19T00:00	620	944	20.6	11.8	26	2	
2025-08-19T00:00	640	942	20.5	11.6	26	2	
2025-08-19T00:00	660	940	20.7	11.3	28	2	
2025-08-19T00:00	680	938	21.0	11.2	31	2	
2025-08-19T00:00	700	936	21.1	11.3	34	2	
2025-08-19T00:00	720	934	21.0	11.5	37	2	
2025-08-19T00:00	740	931	20.9	11.4	40	2	
2025-08-19T00:00	760	929	20.8	11.2	41	2	
2025-08-19T00:00	780	927	20.7	11.2	43	3	
2025-08-19T00:00	800	925	20.7	11.3	44	3	
2025-08-19T00:00	820	923	20.7	11.3	45	3	
2025-08-19T00:00	840	921	20.5	11.4	46	3	
2025-08-19T00:00	860	919	20.3	11.4	47	3	
2025-08-19T00:00	880	916	20.2	11.5	47	4	
2025-08-19T00:00	900	914	20.1	11.6	47	3	
2025-08-19T00:00	920	912	20.1	12.1	46	3	
2025-08-19T00:00	940	910	20.1	12.4	44	3	
2025-08-19T00:00	960	908	20.1	12.8	42	3	
2025-08-19T00:00	980	906	20.0	12.9	41	3	
2025-08-19T00:00	1000	904	19.9	13.1	42	2	
2025-08-19T00:00	1020	902	19.8	13.1	48	2	
2025-08-19T00:00	1040	900	19.8	13.6	60	2	
2025-08-19T00:00	1060	897	19.7	13.8	72	2	
2025-08-19T00:00	1080	895	19.8	13.8	82	3	
2025-08-19T00:00	1100	894	19.8	13.6	88	3	
2025-08-19T00:00	1120	891	19.8	13.2	91	3	
2025-08-19T00:00	1140	889	19.7	13.0	91	3	
2025-08-19T00:00	1160	887	19.6	12.7	90	3	
2025-08-19T00:00	1180	885	19.6	12.2	87	3	
2025-08-19T00:00	1200	883	19.5	11.7	85	3	
2025-08-19T00:00	1220	881	19.4	11.2	83	3	
2025-08-19T00:00	1240	879	19.4	10.8	82	3	
2025-08-19T00:00	1260	877	19.2	10.8	84	2	
2025-08-19T00:00	1280	875	19.1	10.8	88	2	
2025-08-19T00:00	1300	873	19.0	10.8	94	2	
2025-08-19T00:00	1320	871	18.8	10.9	100	2	
2025-08-19T00:00	1340	869	18.7	10.8	105	2	
2025-08-19T00:00	1360	867	18.6	10.7	109	2	
2025-08-19T00:00	1380	865	18.4	10.7	113	2	
2025-08-19T00:00	1400	863	18.2	10.8	116	1	
2025-08-19T00:00	1420	861	18.0	10.8	121	1	
2025-08-19T00:00	1440	859	17.8	10.8	131	1	
2025-08-19T00:00	1460	857	17.6	10.8	155	1	
2025-08-19T00:00	1480	855	17.4	10.8	170	1	
2025-08-19T00:00	1500	853	17.4	10.7	174	1	
2025-08-19T00:00	1520	851	17.5	10.5	174	2	
2025-08-19T00:00	1540	849	17.4	10.4	174	2	
2025-08-19T00:00	1560	847	17.2	10.5	175	3	
2025-08-19T00:00	1580	845	17.0	10.4	178	3	
2025-08-19T00:00	1600	843	16.8	10.5	183	4	
2025-08-19T00:00	1620	841	16.4	10.5	189	4	
2025-08-19T00:00	1640	839	16.2	10.4	194	4	
2025-08-19T00:00	1660	837	16.1	10.3	199	4	
2025-08-19T00:00	1680	835	16.0	10.3	203	5	
2025-08-19T00:00	1700	833	16.2	10.3	206	5	
2025-08-19T00:00	1720	831	16.1	10.3	207	5	
2025-08-19T00:00	1740	829	15.9	10.4	208	5	
2025-08-19T00:00	1760	827	15.8	10.6	208	5	
2025-08-19T00:00	1780	825	15.6	10.6	209	6	
2025-08-19T00:00	1800	823	15.4	10.5	209	6	
2025-08-19T00:00	1820	822	15.3	10.6	210	6	
2025-08-19T00:00	1840	820	15.1	10.5	210	6	
2025-08-19T00:00	1860	818	14.9	10.4	211	6	
2025-08-19T00:00	1880	816	14.7	10.4	213	6	
2025-08-19T00:00	1900	814	14.5	10.4	215	7	
2025-08-19T00:00	1920	812	14.4	10.2	217	7	
2025-08-19T00:00	1940	810	14.3	9.8	219	7	
2025-08-19T00:00	1960	808	14.2	9.6	222	7	
2025-08-19T00:00	1980	806	14.1	9.3	225	8	
2025-08-19T00:00	2000	804	14.0	9.1	226	8	
2025-08-19T00:00	2020	802	13.9	8.9	227	8	
2025-08-19T00:00	2040	800	13.8	8.7	228	8	
2025-08-19T00:00	2060	798	13.7	8.6	229	9	
2025-08-19T00:00	2080	796	13.5	8.4	230	9	
2025-08-19T00:00	2100	794	13.3	8.3	231	9	
2025-08-19T00:00	2120	793	13.2	8.2	232	10	
2025-08-19T00:00	2140	791	13.0	8.2	232	10	
2025-08-19T00:00	2160	789	12.8	8.1	233	10	
2025-08-19T00:00	2180	787	12.7	7.9	233	10	
2025-08-19T00:00	2200	785	12.5	7.7	232	10	
2025-08-19T00:00	2220	783	12.3	7.7	231	10	
2025-08-19T00:00	2240	781	12.1	7.5	230	10	
2025-08-19T00:00	2260	780	12.0	6.5	229	10	
2025-08-19T00:00	2280	778	12.1	5.5	228	11	
2025-08-19T00:00	2300	776	11.9	4.9	227	11	
2025-08-19T00:00	2320	774	11.8	4.2	227	11	
2025-08-19T00:00	2340	772	11.7	3.6	228	11	
2025-08-19T00:00	2360	770	11.7	3.2	229	11	
2025-08-19T00:00	2380	769	11.5	2.8	230	11	
2025-08-19T00:00	2400	767	11.5	1.9	232	11	
2025-08-19T00:00	2420	765	11.7	-1.4	233	11	
2025-08-19T00:00	2440	763	11.8	-2.1	235	11	
2025-08-19T00:00	2460	761	11.6	-2.3	235	11	
2025-08-19T00:00	2480	759	11.5	-2.9	236	11	
2025-08-19T00:00	2500	758	11.4	-3.8	235	11	
2025-08-19T00:00	2520	756	11.3	-4.4	235	11	
2025-08-19T00:00	2540	754	11.1	-4.6	236	11	
2025-08-19T00:00	2560	752	11.0	-5.2	236	11	
2025-08-19T00:00	2580	750	10.8	-5.1	238	11	
2025-08-19T00:00	2600	749	10.6	-5.2	241	10	
2025-08-19T00:00	2620	747	10.4	-5.4	245	10	
2025-08-19T00:00	2640	745	10.3	-6.2	248	10	
2025-08-19T00:00	2660	743	10.1	-6.7	251	10	
2025-08-19T00:00	2680	741	10.0	-7.7	253	9	
2025-08-19T00:00	2700	739	9.9	-8.6	255	9	
2025-08-19T00:00	2720	738	9.7	-8.8	257	8	
2025-08-19T00:00	2740	736	9.5	-9.0	260	8	
2025-08-19T00:00	2760	734	9.5	-11.2	262	7	
2025-08-19T00:00	2780	732	9.6	-12.0	264	7	
2025-08-19T00:00	2800	731	9.6	-11.9	266	7	
2025-08-19T00:00	2820	729	9.5	-11.9	268	7	
2025-08-19T00:00	2840	727	9.4	-11.7	268	6	
2025-08-19T00:00	2860	725	9.2	-11.5	268	6	
2025-08-19T00:00	2880	724	9.1	-11.2	267	6	
2025-08-19T00:00	2900	722	8.9	-11.1	265	6	
2025-08-19T00:00	2920	720	8.8	-11.4	263	6	
2025-08-19T00:00	2940	718	8.7	-11.7	260	7	
2025-08-19T00:00	2960	717	8.6	-11.4	259	7	
2025-08-19T00:00	2980	715	8.5	-11.3	259	7	
2025-08-19T00:00	3000	713	8.3	-11.3	260	7	
2025-08-19T00:00	3020	712	8.2	-11.2	263	8	
2025-08-19T00:00	3040	710	8.0	-11.2	265	8	
2025-08-19T00:00	3060	708	7.9	-11.1	267	8	
2025-08-19T00:00	3080	706	7.7	-11.0	269	8	
2025-08-19T00:00	3100	705	7.6	-10.9	271	9	
2025-08-19T00:00	3120	703	7.5	-10.6	272	9	
2025-08-19T00:00	3140	701	7.4	-10.0	271	9	
2025-08-19T00:00	3160	700	7.3	-10.0	269	9	
2025-08-19T00:00	3180	698	7.2	-10.5	266	9	
2025-08-19T00:00	3200	696	7.1	-10.0	263	9	
2025-08-19T00:00	3220	694	7.0	-10.6	261	9	
2025-08-19T00:00	3240	693	6.9	-11.2	259	9	
2025-08-19T00:00	3260	691	6.7	-11.2	258	9	
2025-08-19T00:00	3280	689	6.6	-11.2	258	9	
2025-08-19T00:00	3300	688	6.4	-11.3	260	9	
2025-08-19T00:00	3320	686	6.2	-11.4	262	8	
2025-08-19T00:00	3340	684	6.0	-11.8	265	8	
2025-08-19T00:00	3360	683	5.8	-12.0	268	8	
2025-08-19T00:00	3380	681	5.7	-12.8	270	8	
2025-08-19T00:00	3400	679	5.6	-14.4	273	8	
2025-08-19T00:00	3420	678	5.5	-15.5	276	8	
2025-08-19T00:00	3440	676	5.5	-17.6	278	8	
2025-08-19T00:00	3460	674	5.4	-19.4	278	8	
2025-08-19T00:00	3480	673	5.3	-18.8	278	8	
2025-08-19T00:00	3500	671	5.2	-15.7	276	8	
2025-08-19T00:00	3520	669	5.1	-15.3	272	8	
2025-08-19T00:00	3540	668	4.9	-14.3	268	8	
2025-08-19T00:00	3560	666	4.8	-13.4	264	8	
2025-08-19T00:00	3580	664	4.6	-12.5	261	8	
2025-08-19T00:00	3600	663	4.4	-11.6	261	8	
2025-08-19T00:00	3620	661	4.3	-11.7	261	9	
2025-08-19T00:00	3640	659	4.1	-12.1	262	9	
2025-08-19T00:00	3660	658	4.0	-12.1	264	9	
2025-08-19T00:00	3680	656	3.8	-12.1	266	9	
2025-08-19T00:00	3700	655	3.7	-12.5	268	9	
2025-08-19T00:00	3720	653	3.5	-12.6	269	9	
2025-08-19T00:00	3740	652	3.4	-12.7	270	9	
2025-08-19T00:00	3760	650	3.2	-12.6	271	9	
2025-08-19T00:00	3780	648	3.0	-12.7	272	9	
2025-08-19T00:00	3800	647	2.9	-12.6	272	8	
2025-08-19T00:00	3820	645	2.7	-12.6	271	8	
2025-08-19T00:00	3840	644	2.6	-12.7	270	8	
2025-08-19T00:00	3860	642	2.5	-12.7	268	8	
2025-08-19T00:00	3880	640	2.3	-12.6	267	8	
2025-08-19T00:00	3900	639	2.2	-12.9	266	8	
2025-08-19T00:00	3920	637	2.0	-13.1	265	9	
2025-08-19T00:00	3940	636	1.9	-13.1	265	9	
2025-08-19T00:00	3960	634	1.7	-13.2	264	9	
2025-08-19T00:00	3980	632	1.5	-13.2	264	10	
2025-08-19T00:00	4000	631	1.4	-13.4	264	10	
2025-08-19T00:00	4020	629	1.3	-14.0	264	10	
2025-08-19T00:00	4040	628	1.1	-14.6	265	10	
2025-08-19T00:00	4060	626	1.0	-15.2	266	10	
2025-08-19T00:00	4080	625	0.9	-15.0	267	10	
2025-08-19T00:00	4100	623	0.8	-15.3	268	10	
2025-08-19T00:00	4120	622	0.7	-15.6	269	10	
2025-08-19T00:00	4140	620	0.6	-15.7	270	10	
2025-08-19T00:00	4160	618	0.5	-15.8	271	9	
2025-08-19T00:00	4180	617	0.3	-16.0	271	9	
2025-08-19T00:00	4200	615	0.1	-16.1	272	9	
2025-08-19T00:00	4220	614	0.0	-16.2	273	8	
2025-08-19T00:00	4240	612	-0.2	-16.2	274	8	
2025-08-19T00:00	4260	611	-0.4	-16.3	274	8	
2025-08-19T00:00	4280	609	-0.5	-16.4	275	9	
2025-08-19T00:00	4300	608	-0.6	-16.6	276	9	
2025-08-19T00:00	4320	606	-0.8	-16.8	278	9	
2025-08-19T00:00	4340	605	-0.9	-16.9	279	8	
2025-08-19T00:00	4360	603	-1.1	-17.0	280	8	
2025-08-19T00:00	4380	602	-1.2	-17.0	280	8	
2025-08-19T00:00	4400	600	-1.4	-17.1	280	9	
2025-08-19T00:00	4420	599	-1.6	-17.2	281	9	
2025-08-19T00:00	4440	597	-1.7	-17.4	283	9	
2025-08-19T00:00	4460	596	-1.9	-17.4	285	9	
2025-08-19T00:00	4480	594	-2.1	-17.6	286	10	
2025-08-19T00:00	4500	593	-2.1	-17.9	287	10	
2025-08-19T00:00	4520	591	-2.2	-18.2	289	10	
2025-08-19T00:00	4540	590	-2.4	-18.5	290	10	
2025-08-19T00:00	4560	588	-2.5	-18.5	291	10	
2025-08-19T00:00	4580	587	-2.7	-18.6	292	10	
2025-08-19T00:00	4600	585	-2.8	-18.9	293	10	
2025-08-19T00:00	4620	584	-3.0	-19.1	294	9	
2025-08-19T00:00	4640	582	-3.1	-19.3	296	9	
2025-08-19T00:00	4660	581	-3.3	-19.3	298	9	
2025-08-19T00:00	4680	579	-3.4	-19.3	301	8	
2025-08-19T00:00	4700	578	-3.6	-19.4	303	8	
2025-08-19T00:00	4720	576	-3.7	-19.6	305	8	
2025-08-19T00:00	4740	575	-3.7	-20.2	306	8	
2025-08-19T00:00	4760	573	-3.7	-20.6	306	9	
2025-08-19T00:00	4780	572	-3.8	-20.6	304	9	
2025-08-19T00:00	4800	571	-3.9	-20.8	303	10	
2025-08-19T00:00	4820	569	-4.0	-21.0	303	10	
2025-08-19T00:00	4840	568	-4.1	-21.1	303	10	
2025-08-19T00:00	4860	566	-4.3	-21.1	303	10	
2025-08-19T00:00	4880	565	-4.5	-21.1	303	10	
2025-08-19T00:00	4900	563	-4.6	-21.1	303	9	
2025-08-19T00:00	4920	562	-4.8	-21.1	303	9	
2025-08-19T00:00	4940	561	-5.0	-21.2	302	9	
2025-08-19T00:00	4960	559	-5.1	-21.4	301	9	
2025-08-19T00:00	4980	558	-5.2	-21.4	301	9	
2025-08-19T00:00	5000	556	-5.4	-21.6	300	9	
2025-08-19T00:00	5020	555	-5.5	-21.9	299	9	
2025-08-19T00:00	5040	553	-5.6	-22.2	298	9	
2025-08-19T00:00	5060	552	-5.7	-22.7	296	8	
2025-08-19T00:00	5080	551	-5.8	-22.9	294	8	
2025-08-19T00:00	5100	549	-6.0	-23.1	293	8	
2025-08-19T00:00	5120	548	-6.1	-23.5	293	8	
2025-08-19T00:00	5140	546	-6.2	-23.8	293	7	
2025-08-19T00:00	5160	545	-6.3	-23.7	294	7	
2025-08-19T00:00	5180	544	-6.4	-23.3	295	8	
2025-08-19T00:00	5200	542	-6.5	-23.3	296	8	
2025-08-19T00:00	5220	541	-6.6	-23.5	297	8	
2025-08-19T00:00	5240	540	-6.7	-23.9	296	7	
2025-08-19T00:00	5260	538	-6.8	-23.6	295	7	
2025-08-19T00:00	5280	537	-6.9	-24.0	294	7	
2025-08-19T00:00	5300	535	-7.1	-24.3	294	7	
2025-08-19T00:00	5320	534	-7.2	-24.6	296	7	
2025-08-19T00:00	5340	533	-7.3	-24.4	298	7	
2025-08-19T00:00	5360	531	-7.4	-24.1	302	7	
2025-08-19T00:00	5380	530	-7.6	-23.7	306	7	
2025-08-19T00:00	5400	529	-7.8	-23.6	309	6	
2025-08-19T00:00	5420	527	-7.9	-23.6	312	6	
2025-08-19T00:00	5440	526	-8.0	-23.6	312	6	
2025-08-19T00:00	5460	524	-8.0	-24.2	311	6	
2025-08-19T00:00	5480	523	-8.0	-26.4	308	6	
2025-08-19T00:00	5500	522	-8.0	-26.7	306	6	
2025-08-19T00:00	5520	520	-8.2	-26.3	303	6	
2025-08-19T00:00	5540	519	-8.3	-26.0	301	6	
2025-08-19T00:00	5560	518	-8.4	-25.6	300	6	
2025-08-19T00:00	5580	517	-8.5	-25.7	300	6	
2025-08-19T00:00	5600	515	-8.7	-26.4	301	6	
2025-08-19T00:00	5620	514	-8.9	-26.6	303	6	
2025-08-19T00:00	5640	512	-9.0	-27.0	305	6	
2025-08-19T00:00	5660	511	-9.2	-27.4	306	6	
2025-08-19T00:00	5680	510	-9.3	-27.6	307	6	
2025-08-19T00:00	5700	508	-9.5	-27.2	309	6	
2025-08-19T00:00	5720	507	-9.7	-27.3	311	6	
2025-08-19T00:00	5740	506	-9.8	-27.3	313	6	
2025-08-19T00:00	5760	505	-9.9	-26.8	315	6	
2025-08-19T00:00	5780	503	-10.1	-26.0	316	6	
2025-08-19T00:00	5800	502	-10.1	-26.3	317	6	
2025-08-19T00:00	5820	500	-10.3	-26.4	317	6	
2025-08-19T00:00	5840	499	-10.4	-26.5	316	6	
2025-08-19T00:00	5860	498	-10.6	-26.8	315	6	
2025-08-19T00:00	5880	497	-10.7	-26.9	313	6	
2025-08-19T00:00	5900	495	-10.8	-27.0	312	6	
2025-08-19T00:00	5920	494	-11.0	-27.1	311	6	
2025-08-19T00:00	5940	493	-11.1	-27.3	309	6	
2025-08-19T00:00	5960	492	-11.3	-27.4	308	6	
2025-08-19T00:00	5980	490	-11.4	-27.8	307	6	
2025-08-19T00:00	6000	489	-11.6	-28.3	306	6	
2025-08-19T00:00	6020	488	-11.7	-28.5	306	6	
2025-08-19T00:00	6040	486	-11.8	-28.9	306	6	
2025-08-19T00:00	6060	485	-11.9	-28.9	306	6	
2025-08-19T00:00	6080	484	-12.0	-28.9	307	7	
2025-08-19T00:00	6100	483	-12.2	-29.0	307	7	
2025-08-19T00:00	6120	481	-12.4	-29.1	308	7	
2025-08-19T00:00	6140	480	-12.5	-29.3	308	7	
2025-08-19T00:00	6160	479	-12.7	-29.5	308	7	
2025-08-19T00:00	6180	478	-12.9	-29.7	307	7	
2025-08-19T00:00	6200	476	-13.0	-30.1	307	7	
2025-08-19T00:00	6220	475	-13.1	-30.6	307	7	
2025-08-19T00:00	6240	474	-13.2	-31.3	307	7	
2025-08-19T00:00	6260	473	-13.3	-32.1	308	8	
2025-08-19T00:00	6280	471	-13.4	-32.2	309	8	
2025-08-19T00:00	6300	470	-13.6	-32.7	310	8	
2025-08-19T00:00	6320	469	-13.6	-33.4	310	8	
2025-08-19T00:00	6340	468	-13.8	-33.4	311	9	
2025-08-19T00:00	6360	467	-13.9	-33.8	311	9	
2025-08-19T00:00	6380	465	-14.0	-34.0	311	9	
2025-08-19T00:00	6400	464	-14.1	-34.1	311	9	
2025-08-19T00:00	6420	463	-14.2	-34.5	311	9	
2025-08-19T00:00	6440	462	-14.3	-35.2	312	8	
2025-08-19T00:00	6460	460	-14.4	-35.9	313	8	
2025-08-19T00:00	6480	459	-14.6	-36.4	314	8	
2025-08-19T00:00	6500	458	-14.7	-36.9	315	8	
2025-08-19T00:00	6520	457	-14.9	-37.3	315	8	
2025-08-19T00:00	6540	456	-14.9	-37.6	315	9	
2025-08-19T00:00	6560	454	-15.0	-38.2	315	9	
2025-08-19T00:00	6580	453	-15.0	-38.7	314	9	
2025-08-19T00:00	6600	452	-15.1	-39.0	313	9	
2025-08-19T00:00	6620	451	-15.2	-39.2	312	10	
2025-08-19T00:00	6640	449	-15.4	-39.3	311	10	
2025-08-19T00:00	6660	448	-15.4	-40.0	310	10	
2025-08-19T00:00	6680	447	-15.5	-40.7	310	10	
2025-08-19T00:00	6700	446	-15.6	-41.1	310	10	
2025-08-19T00:00	6720	445	-15.7	-41.4	310	10	
2025-08-19T00:00	6740	444	-15.8	-41.6	310	10	
2025-08-19T00:00	6760	442	-15.9	-41.9	310	10	
2025-08-19T00:00	6780	441	-16.0	-42.0	310	10	
2025-08-19T00:00	6800	440	-16.2	-42.1	310	10	
2025-08-19T00:00	6820	439	-16.3	-42.2	310	10	
2025-08-19T00:00	6840	438	-16.5	-42.4	310	10	
2025-08-19T00:00	6860	437	-16.6	-42.7	310	10	
2025-08-19T00:00	6880	435	-16.8	-43.7	311	10	
2025-08-19T00:00	6900	434	-16.9	-45.1	311	10	
2025-08-19T00:00	6920	433	-17.0	-46.0	311	10	
2025-08-19T00:00	6940	432	-17.2	-45.5	311	10	
2025-08-19T00:00	6960	431	-17.4	-43.8	311	10	
2025-08-19T00:00	6980	430	-17.6	-42.8	311	10	
2025-08-19T00:00	7000	428	-17.7	-42.2	311	10	
2025-08-19T00:00	7020	427	-17.9	-43.4	311	10	
2025-08-19T00:00	7040	426	-18.0	-44.3	310	10	
2025-08-19T00:00	7060	425	-18.2	-44.3	310	10	
2025-08-19T00:00	7080	424	-18.4	-43.7	310	10	
2025-08-19T00:00	7100	423	-18.5	-43.7	309	10	
2025-08-19T00:00	7120	422	-18.7	-43.2	309	10	
2025-08-19T00:00	7140	420	-18.8	-42.8	309	10	
2025-08-19T00:00	7160	419	-19.0	-42.0	309	10	
2025-08-19T00:00	7180	418	-19.1	-41.7	309	10	
2025-08-19T00:00	7200	417	-19.2	-42.8	309	10	
2025-08-19T00:00	7220	416	-19.3	-44.3	309	10	
2025-08-19T00:00	7240	415	-19.3	-44.0	309	10	
2025-08-19T00:00	7260	414	-19.5	-41.8	309	10	
2025-08-19T00:00	7280	413	-19.6	-41.0	309	10	
2025-08-19T00:00	7300	412	-19.8	-40.2	309	10	
2025-08-19T00:00	7320	411	-20.0	-39.8	308	11	
2025-08-19T00:00	7340	409	-20.2	-39.8	308	11	
2025-08-19T00:00	7360	408	-20.3	-41.0	307	11	
2025-08-19T00:00	7380	407	-20.5	-41.3	307	11	
2025-08-19T00:00	7400	406	-20.7	-41.4	306	11	
2025-08-19T00:00	7420	405	-20.8	-41.5	306	12	
2025-08-19T00:00	7440	404	-21.0	-41.6	306	12	
2025-08-19T00:00	7460	403	-21.2	-41.7	305	12	
2025-08-19T00:00	7480	402	-21.4	-41.5	304	12	
2025-08-19T00:00	7500	400	-21.6	-41.3	304	12	
2025-08-19T00:00	7520	400	-21.8	-41.2	303	11	
2025-08-19T00:00	7540	398	-22.0	-41.0	302	11	
2025-08-19T00:00	7560	397	-22.1	-40.7	301	11	
2025-08-19T00:00	7580	396	-22.3	-40.7	300	11	
2025-08-19T00:00	7600	395	-22.4	-40.7	300	11	
2025-08-19T00:00	7620	394	-22.6	-40.8	301	11	
2025-08-19T00:00	7640	393	-22.7	-40.5	302	11	
2025-08-19T00:00	7660	392	-22.9	-40.5	305	11	
2025-08-19T00:00	7680	391	-23.1	-40.4	307	11	
2025-08-19T00:00	7700	390	-23.2	-40.4	309	11	
2025-08-19T00:00	7720	389	-23.4	-40.4	309	11	
2025-08-19T00:00	7740	388	-23.6	-40.5	308	11	
2025-08-19T00:00	7760	387	-23.8	-40.6	308	11	
2025-08-19T00:00	7780	386	-23.9	-40.6	307	11	
2025-08-19T00:00	7800	385	-24.1	-40.7	307	11	
2025-08-19T00:00	7820	384	-24.3	-41.0	307	11	
2025-08-19T00:00	7840	382	-24.4	-41.3	307	11	
2025-08-19T00:00	7860	381	-24.6	-41.7	307	11	
2025-08-19T00:00	7880	380	-24.7	-42.0	306	11	
2025-08-19T00:00	7900	379	-24.9	-42.0	306	11	
2025-08-19T00:00	7920	378	-25.0	-42.3	305	11	
2025-08-19T00:00	7940	377	-25.1	-42.5	305	11	
2025-08-19T00:00	7960	376	-25.2	-42.6	304	11	
2025-08-19T00:00	7980	375	-25.4	-43.0	304	11	
2025-08-19T00:00	8000	374	-25.6	-43.0	304	11	
2025-08-19T00:00	8020	373	-25.8	-42.9	303	11	
2025-08-19T00:00	8040	372	-25.9	-42.9	303	11	
2025-08-19T00:00	8060	371	-26.1	-43.3	302	11	
2025-08-19T00:00	8080	370	-26.3	-43.3	301	12	
2025-08-19T00:00	8100	369	-26.5	-43.5	301	12	
2025-08-19T00:00	8120	368	-26.6	-43.8	300	12	
2025-08-19T00:00	8140	367	-26.8	-44.4	300	12	
2025-08-19T00:00	8160	366	-27.0	-45.0	300	12	
2025-08-19T00:00	8180	365	-27.1	-45.1	300	12	
2025-08-19T00:00	8200	364	-27.3	-45.1	299	13	
2025-08-19T00:00	8220	363	-27.5	-45.0	299	13	
2025-08-19T00:00	8240	362	-27.6	-45.3	299	13	
2025-08-19T00:00	8260	361	-27.7	-45.7	299	14	
2025-08-19T00:00	8280	360	-27.7	-45.6	298	14	
2025-08-19T00:00	8300	359	-27.8	-45.8	299	14	
2025-08-19T00:00	8320	358	-27.9	-45.8	299	14	
2025-08-19T00:00	8340	357	-28.0	-45.9	299	14	
2025-08-19T00:00	8360	356	-28.2	-45.9	300	14	
2025-08-19T00:00	8380	355	-28.4	-46.0	301	14	
2025-08-19T00:00	8400	354	-28.6	-46.1	302	13	
2025-08-19T00:00	8420	353	-28.8	-46.2	304	13	
2025-08-19T00:00	8440	352	-28.9	-46.4	304	13	
2025-08-19T00:00	8460	351	-29.1	-46.5	305	13	
2025-08-19T00:00	8480	350	-29.3	-46.5	305	13	
2025-08-19T00:00	8500	349	-29.5	-46.4	305	13	
2025-08-19T00:00	8520	348	-29.7	-46.5	305	13	
2025-08-19T00:00	8540	347	-29.8	-47.3	305	13	
2025-08-19T00:00	8560	346	-30.0	-46.3	304	13	
2025-08-19T00:00	8580	345	-30.2	-43.3	304	14	
2025-08-19T00:00	8600	344	-30.3	-42.3	305	14	
2025-08-19T00:00	8620	343	-30.5	-38.3	305	14	
2025-08-19T00:00	8640	342	-30.6	-38.6	305	14	
2025-08-19T00:00	8660	341	-30.8	-38.2	306	13	
2025-08-19T00:00	8680	340	-30.9	-36.3	306	13	
2025-08-19T00:00	8700	339	-30.9	-35.1	306	13	
2025-08-19T00:00	8720	338	-31.0	-36.0	306	13	
2025-08-19T00:00	8740	337	-31.0	-37.0	306	14	
2025-08-19T00:00	8760	337	-31.1	-37.3	307	14	
2025-08-19T00:00	8780	336	-31.3	-37.3	307	14	
2025-08-19T00:00	8800	335	-31.4	-37.6	307	14	
2025-08-19T00:00	8820	334	-31.5	-37.1	307	14	
2025-08-19T00:00	8840	333	-31.7	-36.2	306	14	
2025-08-19T00:00	8860	332	-31.8	-36.3	305	15	
2025-08-19T00:00	8880	331	-32.0	-36.1	305	15	
2025-08-19T00:00	8900	330	-32.2	-36.1	304	15	
2025-08-19T00:00	8920	329	-32.4	-36.1	303	16	
2025-08-19T00:00	8940	328	-32.6	-36.1	303	16	
2025-08-19T00:00	8960	327	-32.8	-36.3	303	16	
2025-08-19T00:00	8980	326	-32.9	-36.5	303	16	
2025-08-19T00:00	9000	325	-33.1	-36.7	303	16	
2025-08-19T00:00	9020	324	-33.3	-36.7	303	16	
2025-08-19T00:00	9040	323	-33.5	-36.7	303	15	
2025-08-19T00:00	9060	322	-33.7	-36.6	303	15	
2025-08-19T00:00	9080	321	-33.9	-36.7	303	15	
2025-08-19T00:00	9100	321	-34.0	-36.8	303	15	
2025-08-19T00:00	9120	320	-34.2	-36.8	303	15	
2025-08-19T00:00	9140	319	-34.3	-37.1	302	15	
2025-08-19T00:00	9160	318	-34.5	-37.3	302	15	
2025-08-19T00:00	9180	317	-34.7	-37.7	302	15	
2025-08-19T00:00	9200	316	-34.9	-38.2	302	15	
2025-08-19T00:00	9220	315	-35.0	-38.3	303	15	
2025-08-19T00:00	9240	314	-35.2	-38.5	304	15	
2025-08-19T00:00	9260	313	-35.4	-38.5	304	16	
2025-08-19T00:00	9280	312	-35.6	-38.5	304	16	
2025-08-19T00:00	9300	311	-35.8	-38.6	304	16	
2025-08-19T00:00	9320	311	-35.9	-38.8	304	16	
2025-08-19T00:00	9340	310	-36.1	-39.2	304	16	
2025-08-19T00:00	9360	309	-36.2	-39.6	303	16	
2025-08-19T00:00	9380	308	-36.4	-40.1	303	16	
2025-08-19T00:00	9400	307	-36.6	-40.6	303	16	
2025-08-19T00:00	9420	306	-36.8	-40.7	303	16	
2025-08-19T00:00	9440	305	-36.9	-40.6	303	16	
2025-08-19T00:00	9460	304	-37.1	-40.5	303	16	
2025-08-19T00:00	9480	304	-37.3	-40.7	303	16	
2025-08-19T00:00	9500	303	-37.5	-41.2	303	16	
2025-08-19T00:00	9520	302	-37.6	-41.2	302	16	
2025-08-19T00:00	9540	301	-37.8	-41.1	301	16	
2025-08-19T00:00	9560	300	-38.0	-41.2	301	16	
2025-08-19T00:00	9580	299	-38.2	-41.1	301	16	
2025-08-19T00:00	9600	298	-38.4	-41.0	302	16	
2025-08-19T00:00	9620	297	-38.6	-41.4	302	16	
2025-08-19T00:00	9640	297	-38.7	-41.6	303	17	
2025-08-19T00:00	9660	296	-38.9	-41.9	303	17	
2025-08-19T00:00	9680	295	-39.1	-41.7	304	17	
2025-08-19T00:00	9700	294	-39.3	-41.9	303	17	
2025-08-19T00:00	9720	293	-39.4	-42.2	303	17	
2025-08-19T00:00	9740	292	-39.6	-43.3	302	16	
2025-08-19T00:00	9760	291	-39.7	-43.9	302	16	
2025-08-19T00:00	9780	291	-39.9	-43.9	301	16	
2025-08-19T00:00	9800	290	-40.1	-44.0	301	16	
2025-08-19T00:00	9820	289	-40.3	-43.9	302	16	
2025-08-19T00:00	9840	288	-40.5	-43.9	302	16	
2025-08-19T00:00	9860	287	-40.7	-44.0	303	16	
2025-08-19T00:00	9880	286	-40.8	-44.1	303	16	
2025-08-19T00:00	9900	286	-41.0	-44.2	303	16	
2025-08-19T00:00	9920	285	-41.2	-44.2	304	16	
2025-08-19T00:00	9940	284	-41.4	-44.4	304	16	
2025-08-19T00:00	9960	283	-41.6	-44.5	304	16	
2025-08-19T00:00	9980	282	-41.8	-44.7	305	16	
2025-08-19T00:00	10000	281	-42.0	-45.3	305	16	
2025-08-19T00:00	10018	281	-42.1	-45.9	305	16	
2025-08-19T00:00	10050	279	-42.3	-46.1	305	15	
2025-08-19T00:00	10100	277	-42.4	-47.7	305	16	
2025-08-19T00:00	10150	275	-42.7	-50.0	303	16	
2025-08-19T00:00	10200	273	-42.8	-51.6	302	17	
2025-08-19T00:00	10250	271	-43.2	-51.4	301	18	
2025-08-19T00:00	10300	269	-43.6	-52.2	301	18	
2025-08-19T00:00	10350	267	-44.0	-53.3	301	17	
2025-08-19T00:00	10400	265	-44.4	-53.8	301	18	
2025-08-19T00:00	10450	263	-44.8	-54.6	301	19	
2025-08-19T00:00	10500	261	-45.1	-55.5	301	20	
2025-08-19T00:00	10550	259	-45.5	-56.4	301	20	
2025-08-19T00:00	10600	257	-45.7	-58.0	302	20	
2025-08-19T00:00	10650	255	-46.1	-59.4	304	20	
2025-08-19T00:00	10700	253	-46.5	-59.4	305	20	
2025-08-19T00:00	10750	251	-46.9	-58.8	306	20	
2025-08-19T00:00	10800	250	-47.3	-59.3	306	19	
2025-08-19T00:00	10850	248	-47.6	-60.8	308	19	
2025-08-19T00:00	10900	246	-48.0	-61.2	309	19	
2025-08-19T00:00	10950	244	-48.5	-61.3	309	20	
2025-08-19T00:00	11000	242	-48.9	-61.0	308	20	
2025-08-19T00:00	11050	240	-49.3	-61.1	307	20	
2025-08-19T00:00	11100	239	-49.8	-61.0	307	20	
2025-08-19T00:00	11150	237	-50.2	-60.8	307	21	
2025-08-19T00:00	11200	235	-50.7	-60.8	307	21	
2025-08-19T00:00	11250	233	-51.2	-60.7	307	21	
2025-08-19T00:00	11300	231	-51.6	-61.5	306	22	
2025-08-19T00:00	11350	230	-52.0	-63.2	306	22	
2025-08-19T00:00	11400	228	-52.3	-63.7	305	23	
2025-08-19T00:00	11450	226	-52.7	-63.3	305	23	
2025-08-19T00:00	11500	224	-53.2	-61.8	305	23	
2025-08-19T00:00	11550	223	-53.6	-60.8	306	24	
2025-08-19T00:00	11600	221	-53.9	-61.8	307	24	
2025-08-19T00:00	11650	219	-54.3	-63.1	308	25	
2025-08-19T00:00	11700	217	-54.8	-63.6	307	25	
2025-08-19T00:00	11750	216	-55.2	-64.0	307	25	
2025-08-19T00:00	11800	214	-55.5	-64.6	306	25	
2025-08-19T00:00	11850	212	-55.9	-64.6	305	26	
2025-08-19T00:00	11900	211	-56.4	-63.9	305	25	
2025-08-19T00:00	11950	209	-56.8	-64.2	306	25	
2025-08-19T00:00	12000	207	-57.1	-66.2	308	24	
2025-08-19T00:00	12050	206	-57.5	-67.1	309	24	
2025-08-19T00:00	12100	204	-58.0	-66.9	309	24	
2025-08-19T00:00	12150	202	-58.4	-66.7	309	24	
2025-08-19T00:00	12200	201	-58.9	-66.7	309	23	
2025-08-19T00:00	12250	199	-59.4	-66.9	308	23	
2025-08-19T00:00	12300	198	-59.9	-67.0	308	23	
2025-08-19T00:00	12350	196	-60.4	-67.0	308	22	
2025-08-19T00:00	12400	195	-60.9	-67.1	308	22	
2025-08-19T00:00	12450	193	-61.3	-67.2	308	22	
2025-08-19T00:00	12500	191	-61.8	-67.4	308	21	
2025-08-19T00:00	12550	190	-62.0	-67.8	309	20	
2025-08-19T00:00	12600	188	-61.8	-68.0	312	18	
2025-08-19T00:00	12650	187	-61.7	-68.1	315	16	
2025-08-19T00:00	12700	185	-61.7	-67.7	316	15	
2025-08-19T00:00	12750	184	-61.7	-67.6	315	13	
2025-08-19T00:00	12800	182	-61.4	-68.0	314	11	
2025-08-19T00:00	12850	181	-61.4	-68.8	314	10	
2025-08-19T00:00	12900	179	-61.6	-69.1	314	9	
2025-08-19T00:00	12950	178	-61.9	-69.8	313	9	
2025-08-19T00:00	13000	177	-61.8	-70.0	309	9	
2025-08-19T00:00	13050	175	-61.7	-70.4	306	9	
2025-08-19T00:00	13100	174	-61.5	-71.2	305	9	
2025-08-19T00:00	13150	172	-60.5	-72.0	308	9	
2025-08-19T00:00	13200	171	-60.3	-73.3	311	9	
2025-08-19T00:00	13250	170	-60.0	-73.4	312	9	
2025-08-19T00:00	13300	168	-59.9	-73.6	314	9	
2025-08-19T00:00	13350	167	-59.7	-73.5	318	8	
2025-08-19T00:00	13400	166	-59.8	-73.7	322	8	
2025-08-19T00:00	13450	164	-60.0	-74.1	327	7	
2025-08-19T00:00	13500	163	-60.3	-74.6	330	7	
2025-08-19T00:00	13550	162	-60.3	-74.7	329	6	
2025-08-19T00:00	13600	160	-59.8	-75.5	321	5	
2025-08-19T00:00	13650	159	-59.1	-77.4	309	5	
2025-08-19T00:00	13700	158	-58.5	-79.1	302	5	
2025-08-19T00:00	13750	157	-57.4	-79.8	302	5	
2025-08-19T00:00	13800	155	-56.4	-80.1	310	5	
2025-08-19T00:00	13850	154	-56.5	-80.3	327	4	
2025-08-19T00:00	13900	153	-55.7	-79.9	346	4	
2025-08-19T00:00	13950	152	-55.4	-80.7	353	3	
2025-08-19T00:00	14000	150	-55.6	-81.2	348	2	
2025-08-19T00:00	14050	149	-55.4	-80.8	330	1	
2025-08-19T00:00	14100	148	-55.4	-80.4	274	1	
2025-08-19T00:00	14150	147	-55.7	-80.7	238	2	
2025-08-19T00:00	14200	146	-55.7	-81.4	230	2	
2025-08-19T00:00	14250	145	-55.5	-81.5	228	3	
2025-08-19T00:00	14300	144	-55.5	-81.4	228	4	
2025-08-19T00:00	14350	142	-55.7	-81.6	229	4	
2025-08-19T00:00	14400	141	-55.9	-81.7	233	4	
2025-08-19T00:00	14450	140	-56.2	-81.8	239	5	
2025-08-19T00:00	14500	139	-56.4	-81.9	247	5	
2025-08-19T00:00	14550	138	-56.5	-82.1	257	4	
2025-08-19T00:00	14600	137	-56.6	-82.5	267	4	
2025-08-19T00:00	14650	136	-56.1	-82.4	273	4	
2025-08-19T00:00	14700	135	-55.8	-82.3	268	4	
2025-08-19T00:00	14750	134	-55.9	-82.5	254	4	
2025-08-19T00:00	14800	133	-55.7	-82.7	244	6	
2025-08-19T00:00	14850	132	-55.3	-82.4	242	7	
2025-08-19T00:00	14900	131	-55.3	-82.5	244	8	
2025-08-19T00:00	14950	130	-55.6	-82.7	248	8	
2025-08-19T00:00	15000	129	-55.7	-82.9	255	7	
2025-08-19T00:00	15050	128	-55.6	-82.8	260	7	
2025-08-19T00:00	15100	127	-55.5	-82.8	262	8	
2025-08-19T00:00	15150	126	-55.8	-83.0	264	8	
2025-08-19T00:00	15200	125	-55.8	-83.0	265	8	
2025-08-19T00:00	15250	124	-55.6	-83.1	269	7	
2025-08-19T00:00	15300	123	-55.4	-83.2	271	7	
2025-08-19T00:00	15350	122	-55.4	-83.2	270	7	
2025-08-19T00:00	15400	121	-55.2	-83.2	268	8	
2025-08-19T00:00	15450	120	-55.1	-83.2	264	8	
2025-08-19T00:00	15500	119	-55.4	-83.5	261	9	
2025-08-19T00:00	15550	118	-55.8	-83.5	259	9	
2025-08-19T00:00	15600	117	-56.1	-83.7	260	10	
2025-08-19T00:00	15650	116	-56.3	-83.8	267	10	
2025-08-19T00:00	15700	115	-56.3	-83.9	277	10	
2025-08-19T00:00	15750	114	-55.5	-83.9	289	9	
2025-08-19T00:00	15800	113	-55.2	-83.9	296	9	
2025-08-19T00:00	15850	113	-55.6	-83.7	301	8	
2025-08-19T00:00	15900	112	-55.9	-83.9	307	7	
2025-08-19T00:00	15950	111	-56.3	-83.9	314	6	
2025-08-19T00:00	16000	110	-56.7	-84.0	320	6	
2025-08-19T00:00	16050	109	-57.1	-84.1	331	5	
2025-08-19T00:00	16100	108	-57.4	-84.4	345	4	
2025-08-19T00:00	16150	107	-57.6	-84.4	352	4	
2025-08-19T00:00	16200	106	-57.6	-84.5	349	3	
2025-08-19T00:00	16250	106	-57.5	-84.7	353	1	
2025-08-19T00:00	16300	105	-57.5	-84.9	36	1	
2025-08-19T00:00	16350	104	-57.7	-85.0	68	1	
2025-08-19T00:00	16400	103	-57.8	-84.9	108	1	
2025-08-19T00:00	16450	102	-57.9	-85.0	159	1	
2025-08-19T00:00	16500	102	-57.7	-85.3	216	2	
2025-08-19T00:00	16550	101	-57.3	-85.2	233	4	
2025-08-19T00:00	16600	100	-57.4	-85.1	240	5	
2025-08-19T00:00	16650	99	-57.5	-85.2	247	6	
2025-08-19T00:00	16700	98	-57.5	-85.3	254	5	
2025-08-19T00:00	16750	98	-57.2	-85.2	260	4	
2025-08-19T00:00	16800	97	-57.4	-85.3	265	3	
2025-08-19T00:00	16850	96	-57.6	-85.3	268	2	
2025-08-19T00:00	16900	95	-57.8	-85.5	270	2	
2025-08-19T00:00	16950	95	-58.0	-85.7	273	3	
2025-08-19T00:00	17000	94	-58.0	-85.6	275	3	
2025-08-19T00:00	17050	93	-58.4	-85.8	273	3	
2025-08-19T00:00	17100	92	-58.3	-85.8	262	3	
2025-08-19T00:00	17150	92	-58.3	-85.7	252	3	
2025-08-19T00:00	17200	91	-58.6	-86.0	250	3	
2025-08-19T00:00	17250	90	-58.6	-86.2	243	2	
2025-08-19T00:00	17300	89	-58.1	-86.1	218	2	
2025-08-19T00:00	17350	89	-57.7	-86.0	204	3	
2025-08-19T00:00	17400	88	-57.8	-85.9	205	5	
2025-08-19T00:00	17450	87	-58.1	-86.0	208	6	
2025-08-19T00:00	17500	87	-58.4	-86.0	213	6	
2025-08-19T00:00	17550	86	-58.7	-86.0	221	6	
2025-08-19T00:00	17600	85	-59.0	-86.1	232	5	
2025-08-19T00:00	17650	85	-59.1	-86.1	250	4	
2025-08-19T00:00	17700	84	-59.1	-86.2	265	3	
2025-08-19T00:00	17750	83	-58.9	-86.4	253	2	
2025-08-19T00:00	17800	83	-58.4	-86.4	209	2	
2025-08-19T00:00	17850	82	-58.2	-86.4	190	2	
2025-08-19T00:00	17900	81	-58.0	-86.4	195	1	
2025-08-19T00:00	17950	81	-58.0	-86.4	261	0	
2025-08-19T00:00	18000	80	-58.0	-86.5	350	0	
2025-08-19T00:00	18050	79	-57.6	-86.6	11	0	
2025-08-19T00:00	18100	79	-57.0	-86.5	230	1	
2025-08-19T00:00	18150	78	-56.9	-86.4	235	2	
2025-08-19T00:00	18200	77	-57.0	-86.3	240	3	
2025-08-19T00:00	18250	77	-57.3	-86.2	251	3	
2025-08-19T00:00	18300	76	-57.6	-86.3	268	4	
2025-08-19T00:00	18350	76	-57.9	-86.5	286	3	
2025-08-19T00:00	18400	75	-57.5	-86.5	315	3	
2025-08-19T00:00	18450	74	-57.5	-86.5	352	3	
2025-08-19T00:00	18500	74	-57.7	-86.7	12	3	
2025-08-19T00:00	18550	73	-57.8	-86.7	20	2	
2025-08-19T00:00	18600	73	-57.6	-86.7	6	1	
2025-08-19T00:00	18650	72	-57.4	-86.8	322	1	
2025-08-19T00:00	18700	72	-57.5	-86.8	308	2	
2025-08-19T00:00	18750	71	-57.4	-86.7	314	3	
2025-08-19T00:00	18800	70	-57.5	-86.7	324	3	
2025-08-19T00:00	18850	70	-57.6	-86.7	337	3	
2025-08-19T00:00	18900	69	-57.5	-86.7	357	1	
2025-08-19T00:00	18950	69	-57.8	-86.8	114	1	
2025-08-19T00:00	19000	68	-58.2	-87.0	138	1	
2025-08-19T00:00	19050	68	-58.0	-87.0	90	0	
2025-08-19T00:00	19100	67	-57.8	-87.1	27	1	
2025-08-19T00:00	19150	67	-57.4	-87.0	35	2	
2025-08-19T00:00	19200	66	-57.4	-86.9	52	3	
2025-08-19T00:00	19250	66	-57.5	-86.9	78	3	
2025-08-19T00:00	19300	65	-57.7	-86.9	107	4	
2025-08-19T00:00	19350	65	-57.9	-87.0	129	5	
2025-08-19T00:00	19400	64	-57.7	-87.1	145	6	
2025-08-19T00:00	19450	64	-57.4	-87.2	159	7	
2025-08-19T00:00	19500	63	-57.0	-87.0	171	7	
2025-08-19T00:00	19550	63	-56.9	-87.0	183	6	
2025-08-19T00:00	19600	62	-56.8	-86.9	193	6	
2025-08-19T00:00	19650	62	-56.8	-86.8	199	4	
2025-08-19T00:00	19700	61	-56.9	-87.0	202	3	
2025-08-19T00:00	19750	61	-56.5	-86.9	217	2	
2025-08-19T00:00	19800	60	-56.2	-86.8	245	2	
2025-08-19T00:00	19850	60	-56.5	-86.8	254	2	
2025-08-19T00:00	19900	59	-56.4	-86.7	253	3	
2025-08-19T00:00	19950	59	-56.6	-86.8	260	3	
2025-08-19T00:00	20000	58	-56.6	-86.9	282	2	
2025-08-19T00:00	20050	58	-56.5		297	1	
2025-08-19T00:00	20100	57	-56.5		269	1	
2025-08-19T00:00	20150	57	-56.3		238	2	
2025-08-19T00:00	20200	56	-56.4		215	2	
2025-08-19T00:00	20250	56	-56.5		207	1	
2025-08-19T00:00	20300	56	-56.2		244	1	
2025-08-19T00:00	20350	55	-56.0		276	2	
2025-08-19T00:00	20400	55	-56.1		264	1	
2025-08-19T00:00	20450	54	-55.6		156	1	
2025-08-19T00:00	20500	54	-55.4		110	1	
2025-08-19T00:00	20550	53	-55.2		73	2	
2025-08-19T00:00	20600	53	-55.6		59	3	
2025-08-19T00:00	20650	53	-55.7		60	3	
2025-08-19T00:00	20700	52	-55.7		65	4	
2025-08-19T00:00	20750	52	-55.2		71	4	
2025-08-19T00:00	20800	51	-54.6		81	5	
2025-08-19T00:00	20850	51	-54.0		94	5	
2025-08-19T00:00	20900	51	-53.7		103	6	
2025-08-19T00:00	20950	50	-53.5		109	6	
2025-08-19T00:00	21000	50	-53.9		114	6	
2025-08-19T00:00	21050	49	-54.3		121	6	
2025-08-19T00:00	21100	49	-54.8		130	7	
2025-08-19T00:00	21150	49	-55.2		140	7	
2025-08-19T00:00	21200	48	-55.4		148	8	
2025-08-19T00:00	21250	48	-55.5		154	9	
2025-08-19T00:00	21300	48	-55.6		159	8	
2025-08-19T00:00	21350	47	-55.5		163	7	
2025-08-19T00:00	21400	47	-55.4		162	5	
2025-08-19T00:00	21450	46	-55.5		159	4	
2025-08-19T00:00	21500	46	-55.7		160	2	
2025-08-19T00:00	21550	46	-55.8		152	1	
2025-08-19T00:00	21600	45	-55.8		77	1	
2025-08-19T00:00	21650	45	-55.5		61	2	
2025-08-19T00:00	21700	45	-55.1		55	3	
2025-08-19T00:00	21750	44	-55.0		55	4	
2025-08-19T00:00	21800	44	-55.0		66	4	
2025-08-19T00:00	21850	44	-54.9		88	4	
2025-08-19T00:00	21900	43	-54.8		113	4	
2025-08-19T00:00	21950	43	-54.7		130	3	
2025-08-19T00:00	22000	43	-54.6		130	3	
2025-08-19T00:00	22050	42	-54.2		122	3	
2025-08-19T00:00	22100	42	-54.3		114	4	
2025-08-19T00:00	22150	42	-54.5		107	6	
2025-08-19T00:00	22200	41	-54.6		103	6	
2025-08-19T00:00	22250	41	-54.5		103	6	
2025-08-19T00:00	22300	41	-54.4		102	5	
2025-08-19T00:00	22350	40	-54.2		98	5	
2025-08-19T00:00	22400	40	-54.1		99	5	
2025-08-19T00:00	22450	40	-53.7		109	7	
2025-08-19T00:00	22500	39	-53.2		117	8	
2025-08-19T00:00	22550	39	-52.9		124	8	
2025-08-19T00:00	22600	39	-52.7		129	8	
2025-08-19T00:00	22650	38	-52.6		136	7	
2025-08-19T00:00	22700	38	-52.7		143	5	
2025-08-19T00:00	22750	38	-52.8		147	5	
2025-08-19T00:00	22800	38	-52.6		146	4	
2025-08-19T00:00	22850	37	-52.1		142	4	
2025-08-19T00:00	22900	37	-52.1		136	4	
2025-08-19T00:00	22950	37	-51.6		134	4	
2025-08-19T00:00	23000	36	-51.3		134	5	
2025-08-19T00:00	23050	36	-51.2		133	5	
2025-08-19T00:00	23100	36	-51.2		134	6	
2025-08-19T00:00	23150	36	-51.2		139	6	
2025-08-19T00:00	23200	35	-51.2		146	6	
2025-08-19T00:00	23250	35	-51.1		152	6	
2025-08-19T00:00	23300	35	-51.2		155	6	
2025-08-19T00:00	23350	35	-51.5		156	4	
2025-08-19T00:00	23400	34	-51.5		154	3	
2025-08-19T00:00	23450	34	-51.2		145	2	
2025-08-19T00:00	23500	34	-51.3		111	1	
2025-08-19T00:00	23550	34	-51.4		84	2	
2025-08-19T00:00	23600	33	-51.1		86	3	
2025-08-19T00:00	23650	33	-50.4		100	4	
2025-08-19T00:00	23700	33	-49.7		118	4	
2025-08-19T00:00	23750	32	-49.7		133	4	
2025-08-19T00:00	23800	32	-49.7		145	4	
2025-08-19T00:00	23850	32	-49.8		150	4	
2025-08-19T00:00	23900	32	-50.1		144	3	
2025-08-19T00:00	23950	32	-50.1		121	3	
2025-08-19T00:00	24000	31	-50.1		106	3	
2025-08-19T00:00	24050	31	-50.0		107	3	
2025-08-19T00:00	24100	31	-49.9		112	3	
2025-08-19T00:00	24150	31	-49.9		119	3	
2025-08-19T00:00	24200	30	-50.1		128	3	
2025-08-19T00:00	24250	30	-50.3		140	3	
2025-08-19T00:00	24300	30	-50.3		156	4	
2025-08-19T00:00	24350	30	-50.2		172	4	
2025-08-19T00:00	24400	29	-50.5		185	5	
2025-08-19T00:00	24450	29	-50.8		194	6	
2025-08-19T00:00	24500	29	-51.1		199	5	
2025-08-19T00:00	24550	29	-51.2		194	4	
2025-08-19T00:00	24600	29	-50.9		165	3	
2025-08-19T00:00	24650	28	-50.9		122	3	
2025-08-19T00:00	24700	28	-50.7		101	3	
2025-08-19T00:00	24750	28	-50.4		92	4	
2025-08-19T00:00	24800	28	-50.5		90	4	
2025-08-19T00:00	24850	27	-50.5		92	4	
2025-08-19T00:00	24900	27	-50.3		94	3	
2025-08-19T00:00	24950	27	-50.3		100	3	
2025-08-19T00:00	25000	27	-50.6		107	3	
2025-08-19T00:00	25050	27	-50.9		113	3	
2025-08-19T00:00	25100	26	-51.2		116	4	
2025-08-19T00:00	25150	26	-51.5		115	4	
2025-08-19T00:00	25200	26	-51.2		112	4	
2025-08-19T00:00	25250	26	-51.0		111	5	
2025-08-19T00:00	25300	26	-50.3		116	6	
2025-08-19T00:00	25350	25	-50.3		125	7	
2025-08-19T00:00	25400	25	-50.4		133	8	
2025-08-19T00:00	25450	25	-50.6		139	9	
2025-08-19T00:00	25500	25	-50.9		145	10	
2025-08-19T00:00	25550	25	-51.0		150	11	
2025-08-19T00:00	25600	24	-51.0		157	10	
2025-08-19T00:00	25650	24	-50.6		165	9	
2025-08-19T00:00	25700	24	-50.7		172	7	
2025-08-19T00:00	25750	24	-50.7		181	6	
2025-08-19T00:00	25800	24	-50.7		186	5	
2025-08-19T00:00	25850	24	-50.4		179	4	
2025-08-19T00:00	25900	23	-50.0		159	4	
2025-08-19T00:00	25950	23	-49.9		142	4	
2025-08-19T00:00	26000	23	-49.5		135	5	
2025-08-19T00:00	26050	23	-49.4		134	6	
2025-08-19T00:00	26100	23	-49.4		135	6	
2025-08-19T00:00	26150	22	-49.1		136	6	
2025-08-19T00:00	26200	22	-49.1		138	7	
2025-08-19T00:00	26250	22	-49.2		141	7	
2025-08-19T00:00	26300	22	-49.3		146	6	
2025-08-19T00:00	26350	22	-48.8		159	4	
2025-08-19T00:00	26400	22	-48.0		182	4	
2025-08-19T00:00	26450	21	-48.0		194	3	
2025-08-19T00:00	26500	21	-47.7		191	3	
2025-08-19T00:00	26550	21	-47.3		157	1	
2025-08-19T00:00	26600	21	-47.0		111	2	
2025-08-19T00:00	26650	21	-46.5		113	3	
2025-08-19T00:00	26700	21	-46.0		134	3	
2025-08-19T00:00	26750	21	-45.7		158	3	
2025-08-19T00:00	26800	20	-45.5		185	2	
2025-08-19T00:00	26850	20	-45.1		227	1	
2025-08-19T00:00	26900	20	-44.9		311	1	
2025-08-19T00:00	26950	20	-44.9		344	3	
2025-08-19T00:00	27000	20	-45.1		359	4	
2025-08-19T00:00	27050	20	-44.8		14	5	
2025-08-19T00:00	27100	19	-44.4		32	5	
2025-08-19T00:00	27150	19	-44.3		48	5	
2025-08-19T00:00	27200	19	-44.2		60	4	
2025-08-19T00:00	27250	19	-44.2		69	4	
2025-08-19T00:00	27300	19	-44.4		75	4	
2025-08-19T00:00	27350	19	-44.5		76	4	
2025-08-19T00:00	27400	19	-44.5		76	4	
2025-08-19T00:00	27450	18	-44.5		81	4	
2025-08-19T00:00	27500	18	-44.4		88	5	
2025-08-19T00:00	27550	18	-44.3		92	5	
2025-08-19T00:00	27600	18	-44.2		90	5	
2025-08-19T00:00	27650	18	-44.1		85	5	
2025-08-19T00:00	27700	18	-44.0		79	5	
2025-08-19T00:00	27750	18	-43.7		71	5	
2025-08-19T00:00	27800	18	-43.6		65	5	
2025-08-19T00:00	27850	17	-43.6		62	6	
2025-08-19T00:00	27900	17	-43.5		61	7	
2025-08-19T00:00	27950	17	-43.3		61	8	
2025-08-19T00:00	28000	17	-43.2		64	9	
2025-08-19T00:00	28050	17	-42.9		73	9	
2025-08-19T00:00	28100	17	-42.9		87	9	
2025-08-19T00:00	28150	17	-42.8		96	9	
2025-08-19T00:00	28200	17	-42.6		98	9	
2025-08-19T00:00	28250	16	-42.5		96	10	
2025-08-19T00:00	28300	16	-42.2		95	10	
2025-08-19T00:00	28350	16	-42.1		99	10	
2025-08-19T00:00	28400	16	-41.9		106	11	
2025-08-19T00:00	28450	16	-41.9		113	11	
2025-08-19T00:00	28500	16	-42.0		120	11	
2025-08-19T00:00	28550	16	-42.2		126	12	
2025-08-19T00:00	28600	16	-42.5		133	12	
2025-08-19T00:00	28650	15	-42.8		140	12	
2025-08-19T00:00	28700	15	-42.6		145	12	
2025-08-19T00:00	28750	15	-42.6		149	11	
2025-08-19T00:00	28800	15	-42.7		151	11	
2025-08-19T00:00	28850	15	-43.0		152	10	
2025-08-19T00:00	28900	15	-43.3		155	9	
2025-08-19T00:00	28950	15	-43.5		157	8	
2025-08-19T00:00	29000	15	-43.8		155	7	
2025-08-19T00:00	29050	15	-43.8		147	6	
2025-08-19T00:00	29100	14	-43.8		141	6	
2025-08-19T00:00	29150	14	-44.0		142	6	
2025-08-19T00:00	29200	14	-44.1		146	6	
2025-08-19T00:00	29250	14	-44.2		154	6	
2025-08-19T00:00	29300	14	-44.2		163	6	
2025-08-19T00:00	29350	14	-44.2		173	6	
2025-08-19T00:00	29400	14	-44.3		186	6	
2025-08-19T00:00	29450	14	-44.3		199	5	
2025-08-19T00:00	29500	14	-44.4		210	4	
2025-08-19T00:00	29550	14	-43.9		217	2	
2025-08-19T00:00	29600	13	-43.4		197	1	
2025-08-19T00:00	29650	13	-43.2		143	1	
2025-08-19T00:00	29700	13	-42.8		151	2	
2025-08-19T00:00	29750	13	-42.6		171	3	
2025-08-19T00:00	29800	13	-42.7		186	4	
2025-08-19T00:00	29850	13	-42.8		195	5	
2025-08-19T00:00	29900	13	-43.0		205	5	
2025-08-19T00:00	29950	13	-43.1		215	5	
2025-08-19T00:00	30000	13	-43.2		225	4	
2025-08-19T00:00	30050	13	-43.1		235	2	
2025-08-19T00:00	30100	12	-43.1		255	1	
2025-08-19T00:00	30150	12	-43.3		4	1	
2025-08-19T00:00	30200	12	-43.5		45	2	
2025-08-19T00:00	30250	12	-43.7		60	3	
2025-08-19T00:00	30300	12	-43.9		69	4	
2025-08-19T00:00	30350	12	-44.2		72	5	
2025-08-19T00:00	30400	12	-44.1		67	5	
2025-08-19T00:00	30450	12	-43.6		59	5	
2025-08-19T00:00	30500	12	-43.4		51	4	
2025-08-19T00:00	30550	12	-43.5		48	4	
2025-08-19T00:00	30600	12	-43.7		50	4	
2025-08-19T00:00	30650	11	-43.9		54	4	
2025-08-19T00:00	30700	11	-44.1		57	5	
2025-08-19T00:00	30750	11	-44.4		55	6	
2025-08-19T00:00	30800	11	-44.6		52	6	
2025-08-19T00:00	30850	11	-44.5		51	7	
2025-08-19T00:00	30900	11	-44.6		55	7	
2025-08-19T00:00	30950	11	-44.6		62	7	
2025-08-19T00:00	31000	11	-44.5		72	8	
2025-08-19T00:00	31050	11	-44.7		82	8	
2025-08-19T00:00	31100	11	-44.8		92	9	
2025-08-19T00:00	31150	11	-45.0		103	9	
2025-08-19T00:00	31200	11	-44.8		111	9	
2025-08-19T00:00	31250	11	-44.3		114	9	
2025-08-19T00:00	31300	10	-43.9		116	8	
2025-08-19T00:00	31350	10	-43.6		121	8	
2025-08-19T00:00	31400	10	-43.5		126	7	
2025-08-19T00:00	31450	10	-42.7		129	6	
2025-08-19T00:00	31500	10	-42.4		127	4	
2025-08-19T00:00	31550	10	-42.5		114	3	
2025-08-19T00:00	31600	10	-42.5		91	3	
2025-08-19T00:00	31650	10	-42.0		75	4	
2025-08-19T00:00	31700	10	-41.6		68	5	
2025-08-19T00:00	31750	10	-41.4		67	5	
2025-08-19T00:00	31800	10	-41.6		71	5	
2025-08-19T00:00	31850	10	-41.7		78	5	
2025-08-19T00:00	31900	10	-41.8		88	4	
2025-08-19T00:00	31950	9	-41.8		98	4	
2025-08-19T00:00	32000	9	-41.7		105	4	
2025-08-19T00:00	32050	9	-41.6		106	4	
2025-08-19T00:00	32100	9	-41.4		104	4	
2025-08-19T00:00	32150	9	-41.2		103	4	
2025-08-19T00:00	32200	9	-41.0		100	4	
2025-08-19T00:00	32250	9	-40.6		92	4	
2025-08-19T00:00	32300	9	-39.9		79	4	
2025-08-19T00:00	32350	9	-39.8		72	5	
2025-08-19T00:00	32400	9	-39.6		76	5	
2025-08-19T00:00	32450	9	-39.1		85	6	
2025-08-19T00:00	32500	9	-38.6		90	7	
2025-08-19T00:00	32550	9	-38.3		90	7	
2025-08-19T00:00	32600	9	-38.1		87	7	
2025-08-19T00:00	32650	9	-37.8		82	8	
2025-08-19T00:00	32700	8	-37.3		78	8	
2025-08-19T00:00	32750	8	-37.2		73	9	
2025-08-19T00:00	32800	8	-37.1		69	9	
2025-08-19T00:00	32850	8	-37.3		65	9	
2025-08-19T00:00	32900	8	-37.4		61	10	
2025-08-19T00:00	32950	8	-37.4		58	11	
2025-08-19T00:00	33000	8	-37.3		58	12	
2025-08-19T00:00	33050	8	-37.3		60	14	
2025-08-19T00:00	33100	8	-37.5		63	15	
2025-08-19T00:00	33150	8	-37.7		67	15	
2025-08-19T00:00	33200	8	-37.8		70	16	
2025-08-19T00:00	33250	8	-38.0		73	16	
2025-08-19T00:00	33300	8	-38.2		76	16	
2025-08-19T00:00	33350	8	-38.5		81	16	
2025-08-19T00:00	33400	8	-38.7		86	17	
2025-08-19T00:00	33450	8	-38.8		92	17	
2025-08-19T00:00	33500	8	-38.7		96	16	
2025-08-19T00:00	33550	8	-38.5		99	15	
2025-08-19T00:00	33600	7	-38.4		101	13	
2025-08-19T00:00	33650	7	-38.3		103	11	
2025-08-19T00:00	33700	7	-38.2		102	9	
2025-08-19T00:00	33750	7	-38.1		95	7	
2025-08-19T00:00	33800	7	-37.7		80	6	
2025-08-19T00:00	33850	7	-37.3		66	7	
2025-08-19T00:00	33900	7	-37.3		55	8	
2025-08-19T00:00	33950	7	-37.0		48	9	
2025-08-19T00:00	34000	7	-36.8		47	10	
2025-08-19T00:00	34050	7	-36.1		54	11	
2025-08-19T00:00	34100	7	-35.5		63	12	
2025-08-19T00:00	34150	7	-34.7		67	13	
2025-08-19T00:00	34200	7	-34.2		64	13	
2025-08-19T00:00	34250	7	-33.9		61	14	
2025-08-19T00:00	34300	7	-33.5		60	15	
2025-08-19T00:00	34350	7	-33.0		63	15	
2025-08-19T00:00	34400	7	-32.9		68	15	
2025-08-19T00:00	34450	7	-33.0		72	14	
2025-08-19T00:00	34500	7	-33.0		76	13	
2025-08-19T00:00	34550	6	-32.9		77	12	
2025-08-19T00:00	34600	6	-33.0		76	11	
2025-08-19T00:00	34650	6	-33.1		74	11	
2025-08-19T00:00	34700	6	-33.4		72	10	
2025-08-19T00:00	34750	6	-33.5		69	10	
2025-08-19T00:00	34800	6	-33.5		66	11	
2025-08-19T00:00	34850	6	-33.3		64	11	
2025-08-19T00:00	34900	6	-32.9		64	12	
2025-08-19T00:00	34950	6	-32.9		66	13	
2025-08-19T00:00	35000	6	-32.8		68	13	
2025-08-19T00:00	35050	6	-32.7		71	14	
2025-08-19T00:00	35100	6	-32.8		71	14	
2025-08-19T00:00	35150	6	-32.7		71	14	
2025-08-19T00:00	35200	6	-32.8		70	13	
2025-08-19T00:00	35250	6	-33.0		68	13	
2025-08-19T00:00	35300	6	-33.0		67	12	
2025-08-19T00:00	35350	6	-32.8		70	12	
2025-08-19T00:00	35400	6	-32.6		75	12	
2025-08-19T00:00	35450	6	-32.5		79	12	
2025-08-19T00:00	35500	6	-32.7		83	11	
2025-08-19T00:00	35550	6	-33.1		86	11	
2025-08-19T00:00	35600	6	-33.4		86	11	
2025-08-19T00:00	35650	6	-33.5		85	12	
2025-08-19T12:00	491	957	25.9	13.4	243	1	
2025-08-19T12:00	501	956	25.0	13.1	198	1	
2025-08-19T12:00	520	954	24.6	12.9	197	1	
2025-08-19T12:00	540	952	24.5	12.7	212	1	
2025-08-19T12:00	560	950	24.4	12.7	229	1	
2025-08-19T12:00	580	948	24.1	12.7	253	1	
2025-08-19T12:00	600	945	23.9	12.6	270	1	
2025-08-19T12:00	620	943	23.8	12.6	276	1	
2025-08-19T12:00	640	941	23.6	12.5	274	1	
2025-08-19T12:00	660	939	23.3	12.6	268	1	
2025-08-19T12:00	680	937	23.1	12.6	262	2	
2025-08-19T12:00	700	935	23.0	12.7	257	2	
2025-08-19T12:00	720	932	22.8	12.6	254	2	
2025-08-19T12:00	740	930	22.6	12.6	254	2	
2025-08-19T12:00	760	928	22.3	12.6	254	2	
2025-08-19T12:00	780	926	22.1	12.5	257	2	
2025-08-19T12:00	800	924	21.9	12.4	260	2	
2025-08-19T12:00	820	922	21.8	12.2	264	2	
2025-08-19T12:00	840	920	21.6	12.2	270	2	
2025-08-19T12:00	860	918	21.4	12.0	275	1	
2025-08-19T12:00	880	915	21.3	11.2	279	1	
2025-08-19T12:00	900	913	21.2	10.6	282	1	
2025-08-19T12:00	920	911	21.2	9.6	280	1	
2025-08-19T12:00	940	909	21.3	8.8	272	1	
2025-08-19T12:00	960	907	21.1	8.7	263	1	
2025-08-19T12:00	980	905	21.0	8.2	256	1	
2025-08-19T12:00	1000	903	20.8	8.0	252	1	
2025-08-19T12:00	1020	901	20.7	7.8	251	2	
2025-08-19T12:00	1040	899	20.6	7.6	251	2	
2025-08-19T12:00	1060	897	20.6	7.0	252	2	
2025-08-19T12:00	1080	895	20.6	6.6	254	2	
2025-08-19T12:00	1100	892	20.6	5.9	255	2	
2025-08-19T12:00	1120	890	20.6	5.6	257	2	
2025-08-19T12:00	1140	888	20.4	5.5	258	2	
2025-08-19T12:00	1160	886	20.2	5.5	259	2	
2025-08-19T12:00	1180	884	20.0	5.5	260	2	
2025-08-19T12:00	1200	882	19.9	5.6	260	2	
2025-08-19T12:00	1220	880	19.7	5.8	260	2	
2025-08-19T12:00	1240	878	19.6	6.1	260	2	
2025-08-19T12:00	1260	876	19.4	6.5	260	2	
2025-08-19T12:00	1280	874	19.3	6.5	260	3	
2025-08-19T12:00	1300	872	19.1	6.7	260	3	
2025-08-19T12:00	1320	870	18.9	6.7	260	3	
2025-08-19T12:00	1340	868	18.8	6.8	260	3	
2025-08-19T12:00	1360	866	18.6	6.8	259	3	
2025-08-19T12:00	1380	864	18.4	6.8	259	4	
2025-08-19T12:00	1400	862	18.3	6.6	260	4	
2025-08-19T12:00	1420	860	18.2	6.4	260	4	
2025-08-19T12:00	1440	858	18.0	5.8	259	4	
2025-08-19T12:00	1460	856	17.9	5.2	259	4	
2025-08-19T12:00	1480	854	17.7	5.0	259	5	
2025-08-19T12:00	1500	852	17.5	4.8	259	5	
2025-08-19T12:00	1520	850	17.4	4.6	259	5	
2025-08-19T12:00	1540	848	17.2	4.2	258	5	
2025-08-19T12:00	1560	846	17.1	3.9	258	5	
2025-08-19T12:00	1580	844	16.9	3.8	257	5	
2025-08-19T12:00	1600	842	16.8	3.5	257	5	
2025-08-19T12:00	1620	840	16.6	3.3	255	5	
2025-08-19T12:00	1640	838	16.5	3.0	253	5	
2025-08-19T12:00	1660	836	16.4	2.6	251	5	
2025-08-19T12:00	1680	834	16.2	2.3	249	5	
2025-08-19T12:00	1700	832	16.0	2.0	247	5	
2025-08-19T12:00	1720	830	15.9	1.8	246	5	
2025-08-19T12:00	1740	828	15.8	1.5	246	5	
2025-08-19T12:00	1760	826	15.6	1.4	246	5	
2025-08-19T12:00	1780	824	15.4	1.4	247	6	
2025-08-19T12:00	1800	822	15.3	1.6	248	6	
2025-08-19T12:00	1820	820	15.1	1.7	250	6	
2025-08-19T12:00	1840	818	14.9	1.7	251	6	
2025-08-19T12:00	1860	816	14.8	1.6	253	6	
2025-08-19T12:00	1880	814	14.6	1.7	254	7	
2025-08-19T12:00	1900	813	14.4	1.9	254	7	
2025-08-19T12:00	1920	811	14.2	2.1	255	7	
2025-08-19T12:00	1940	809	14.0	2.9	255	7	
2025-08-19T12:00	1960	807	13.9	3.8	254	7	
2025-08-19T12:00	1980	805	13.7	3.5	252	7	
2025-08-19T12:00	2000	803	13.5	3.3	251	7	
2025-08-19T12:00	2020	801	13.4	3.7	248	7	
2025-08-19T12:00	2040	799	13.3	4.2	246	7	
2025-08-19T12:00	2060	798	13.2	4.5	243	8	
2025-08-19T12:00	2080	796	13.1	4.8	241	8	
2025-08-19T12:00	2100	794	12.9	5.1	239	8	
2025-08-19T12:00	2120	792	12.8	5.3	237	8	
2025-08-19T12:00	2140	790	12.7	5.3	236	9	
2025-08-19T12:00	2160	788	12.6	5.0	235	9	
2025-08-19T12:00	2180	786	12.5	4.9	234	9	
2025-08-19T12:00	2200	784	12.3	4.9	234	9	
2025-08-19T12:00	2220	782	12.1	4.8	233	9	
2025-08-19T12:00	2240	781	12.0	4.6	233	9	
2025-08-19T12:00	2260	779	11.9	4.7	232	9	
2025-08-19T12:00	2280	777	11.8	4.6	231	9	
2025-08-19T12:00	2300	775	11.7	4.8	230	9	
2025-08-19T12:00	2320	773	11.5	4.7	229	9	
2025-08-19T12:00	2340	771	11.3	4.7	229	9	
2025-08-19T12:00	2360	769	11.2	4.9	229	9	
2025-08-19T12:00	2380	767	11.1	5.0	229	9	
2025-08-19T12:00	2400	765	11.1	4.3	231	9	
2025-08-19T12:00	2420	764	11.1	2.5	232	9	
2025-08-19T12:00	2440	762	11.2	0.5	233	9	
2025-08-19T12:00	2460	760	11.2	0.1	234	8	
2025-08-19T12:00	2480	758	11.0	0.4	235	8	
2025-08-19T12:00	2500	756	10.9	0.4	235	8	
2025-08-19T12:00	2520	755	10.7	0.4	236	8	
2025-08-19T12:00	2540	753	10.5	0.3	236	8	
2025-08-19T12:00	2560	751	10.3	0.3	237	8	
2025-08-19T12:00	2580	749	10.1	0.4	238	8	
2025-08-19T12:00	2600	748	9.9	0.8	238	8	
2025-08-19T12:00	2620	746	9.7	1.1	240	7	
2025-08-19T12:00	2640	744	9.5	1.2	242	7	
2025-08-19T12:00	2660	742	9.3	1.3	244	7	
2025-08-19T12:00	2680	740	9.1	1.8	246	7	
2025-08-19T12:00	2700	739	8.9	2.1	249	6	
2025-08-19T12:00	2720	737	8.7	2.0	251	6	
2025-08-19T12:00	2740	735	8.5	1.9	252	6	
2025-08-19T12:00	2760	733	8.3	1.9	253	6	
2025-08-19T12:00	2780	731	8.1	2.0	254	6	
2025-08-19T12:00	2800	730	7.9	2.3	254	6	
2025-08-19T12:00	2820	728	7.8	3.0	253	6	
2025-08-19T12:00	2840	726	7.7	2.0	252	5	
2025-08-19T12:00	2860	724	7.7	-0.1	251	6	
2025-08-19T12:00	2880	723	7.7	-1.9	250	5	
2025-08-19T12:00	2900	721	7.7	-4.1	251	6	
2025-08-19T12:00	2920	719	7.6	-4.7	252	6	
2025-08-19T12:00	2940	718	7.5	-5.4	255	6	
2025-08-19T12:00	2960	716	7.4	-5.7	258	6	
2025-08-19T12:00	2980	714	7.3	-5.7	261	6	
2025-08-19T12:00	3000	712	7.2	-5.8	263	6	
2025-08-19T12:00	3020	710	7.0	-5.8	265	6	
2025-08-19T12:00	3040	709	6.9	-5.8	266	6	
2025-08-19T12:00	3060	707	6.7	-5.8	267	7	
2025-08-19T12:00	3080	705	6.6	-5.7	267	7	
2025-08-19T12:00	3100	703	6.4	-4.2	267	7	
2025-08-19T12:00	3120	702	6.2	-0.7	267	7	
2025-08-19T12:00	3140	700	6.0	1.4	267	8	
2025-08-19T12:00	3160	698	6.1	1.4	267	8	
2025-08-19T12:00	3180	697	6.0	1.1	268	8	
2025-08-19T12:00	3200	695	5.9	-0.2	268	8	
2025-08-19T12:00	3220	693	6.0	-1.8	269	8	
2025-08-19T12:00	3240	692	5.9	-2.1	268	7	
2025-08-19T12:00	3260	690	5.8	-2.7	268	7	
2025-08-19T12:00	3280	688	5.6	-3.2	267	7	
2025-08-19T12:00	3300	687	5.5	-3.9	266	7	
2025-08-19T12:00	3320	685	5.4	-4.6	265	7	
2025-08-19T12:00	3340	683	5.2	-5.4	264	7	
2025-08-19T12:00	3360	682	5.1	-6.6	263	7	
2025-08-19T12:00	3380	680	5.0	-7.5	262	7	
2025-08-19T12:00	3400	678	4.9	-7.8	261	7	
2025-08-19T12:00	3420	677	4.7	-7.8	261	7	
2025-08-19T12:00	3440	675	4.5	-8.2	260	7	
2025-08-19T12:00	3460	673	4.3	-8.3	259	7	
2025-08-19T12:00	3480	672	4.2	-8.3	259	6	
2025-08-19T12:00	3500	670	4.0	-7.3	259	6	
2025-08-19T12:00	3520	668	3.9	-5.5	258	6	
2025-08-19T12:00	3540	667	3.7	-5.4	258	6	
2025-08-19T12:00	3560	665	3.5	-5.8	258	6	
2025-08-19T12:00	3580	663	3.3	-5.9	258	6	
2025-08-19T12:00	3600	662	3.1	-6.2	256	6	
2025-08-19T12:00	3620	660	3.0	-7.4	255	6	
2025-08-19T12:00	3640	658	2.8	-7.9	253	5	
2025-08-19T12:00	3660	657	2.7	-8.5	251	5	
2025-08-19T12:00	3680	655	2.5	-8.6	248	5	
2025-08-19T12:00	3700	654	2.4	-9.1	245	5	
2025-08-19T12:00	3720	652	2.4	-10.3	243	5	
2025-08-19T12:00	3740	651	2.3	-10.4	242	5	
2025-08-19T12:00	3760	649	2.2	-10.7	242	5	
2025-08-19T12:00	3780	647	2.0	-11.3	242	5	
2025-08-19T12:00	3800	646	1.9	-11.8	244	5	
2025-08-19T12:00	3820	644	1.7	-12.0	245	5	
2025-08-19T12:00	3840	642	1.6	-12.0	247	5	
2025-08-19T12:00	3860	641	1.4	-12.1	249	5	
2025-08-19T12:00	3880	639	1.3	-11.6	250	5	
2025-08-19T12:00	3900	638	1.1	-11.0	251	5	
2025-08-19T12:00	3920	636	0.9	-9.2	252	5	
2025-08-19T12:00	3940	634	0.8	-8.3	253	5	
2025-08-19T12:00	3960	633	0.6	-8.1	255	5	
2025-08-19T12:00	3980	631	0.4	-7.8	257	5	
2025-08-19T12:00	4000	630	0.3	-7.7	260	4	
2025-08-19T12:00	4020	628	0.1	-7.3	264	5	
2025-08-19T12:00	4040	627	-0.1	-7.2	266	5	
2025-08-19T12:00	4060	625	-0.3	-7.4	269	5	
2025-08-19T12:00	4080	624	-0.5	-7.7	270	5	
2025-08-19T12:00	4100	622	-0.6	-8.9	271	5	
2025-08-19T12:00	4120	620	-0.7	-10.5	270	4	
2025-08-19T12:00	4140	619	-0.7	-11.4	269	4	
2025-08-19T12:00	4160	617	-0.7	-9.5	268	4	
2025-08-19T12:00	4180	616	-0.8	-8.2	266	4	
2025-08-19T12:00	4200	614	-1.0	-8.0	264	4	
2025-08-19T12:00	4220	613	-1.1	-7.5	263	4	
2025-08-19T12:00	4240	611	-1.3	-7.4	263	4	
2025-08-19T12:00	4260	610	-1.4	-7.8	262	4	
2025-08-19T12:00	4280	608	-1.6	-8.3	262	4	
2025-08-19T12:00	4300	607	-1.7	-9.4	261	4	
2025-08-19T12:00	4320	605	-1.7	-9.0	260	4	
2025-08-19T12:00	4340	603	-1.8	-7.9	259	3	
2025-08-19T12:00	4360	602	-2.0	-6.8	259	3	
2025-08-19T12:00	4380	600	-2.1	-7.4	260	3	
2025-08-19T12:00	4400	599	-2.2	-6.6	262	3	
2025-08-19T12:00	4420	597	-2.3	-7.3	266	2	
2025-08-19T12:00	4440	596	-2.2	-4.2	270	2	
2025-08-19T12:00	4460	594	-2.2	-4.0	274	2	
2025-08-19T12:00	4480	593	-2.3	-3.9	275	2	
2025-08-19T12:00	4500	592	-2.5	-4.1	275	3	
2025-08-19T12:00	4520	590	-2.7	-4.1	274	3	
2025-08-19T12:00	4540	588	-2.9	-4.2	273	3	
2025-08-19T12:00	4560	587	-3.1	-4.2	271	3	
2025-08-19T12:00	4580	585	-3.2	-4.3	271	3	
2025-08-19T12:00	4600	584	-3.4	-4.5	270	3	
2025-08-19T12:00	4620	583	-3.5	-4.6	270	4	
2025-08-19T12:00	4640	581	-3.6	-4.9	270	4	
2025-08-19T12:00	4660	580	-3.6	-5.2	269	3	
2025-08-19T12:00	4680	578	-3.7	-5.4	268	3	
2025-08-19T12:00	4700	577	-3.8	-5.5	266	3	
2025-08-19T12:00	4720	575	-3.9	-5.8	264	3	
2025-08-19T12:00	4740	574	-4.0	-6.1	261	3	
2025-08-19T12:00	4760	572	-4.1	-6.2	259	3	
2025-08-19T12:00	4780	571	-4.1	-6.5	258	3	
2025-08-19T12:00	4800	570	-4.2	-6.7	257	2	
2025-08-19T12:00	4820	568	-4.3	-6.8	259	3	
2025-08-19T12:00	4840	567	-4.5	-6.8	261	3	
2025-08-19T12:00	4860	565	-4.6	-7.0	263	3	
2025-08-19T12:00	4880	564	-4.7	-7.0	266	3	
2025-08-19T12:00	4900	562	-4.9	-7.2	267	3	
2025-08-19T12:00	4920	561	-5.0	-7.6	268	3	
2025-08-19T12:00	4940	560	-5.0	-8.0	268	4	
2025-08-19T12:00	4960	558	-5.1	-8.1	266	4	
2025-08-19T12:00	4980	557	-5.3	-8.0	262	4	
2025-08-19T12:00	5000	555	-5.5	-8.1	258	4	
2025-08-19T12:00	5020	554	-5.7	-8.2	255	4	
2025-08-19T12:00	5040	552	-5.9	-8.1	253	4	
2025-08-19T12:00	5060	551	-6.1	-8.1	251	5	
2025-08-19T12:00	5080	550	-6.2	-8.2	250	5	
2025-08-19T12:00	5100	548	-6.4	-8.2	249	5	
2025-08-19T12:00	5120	547	-6.6	-8.2	248	5	
2025-08-19T12:00	5140	545	-6.8	-8.3	246	5	
2025-08-19T12:00	5160	544	-6.9	-8.3	244	5	
2025-08-19T12:00	5180	543	-7.0	-8.6	242	5	
2025-08-19T12:00	5200	541	-7.1	-8.6	240	5	
2025-08-19T12:00	5220	540	-7.2	-8.8	238	5	
2025-08-19T12:00	5240	539	-7.3	-9.0	236	5	
2025-08-19T12:00	5260	537	-7.5	-9.0	235	5	
2025-08-19T12:00	5280	536	-7.6	-9.2	233	5	
2025-08-19T12:00	5300	534	-7.8	-9.2	233	5	
2025-08-19T12:00	5320	533	-8.0	-9.2	233	5	
2025-08-19T12:00	5340	531	-8.2	-9.2	232	5	
2025-08-19T12:00	5360	530	-8.3	-9.3	232	5	
2025-08-19T12:00	5380	529	-8.5	-9.4	231	5	
2025-08-19T12:00	5400	527	-8.6	-9.5	231	5	
2025-08-19T12:00	5420	526	-8.8	-9.6	230	5	
2025-08-19T12:00	5440	525	-9.0	-9.7	230	5	
2025-08-19T12:00	5460	523	-9.2	-9.8	230	5	
2025-08-19T12:00	5480	522	-9.3	-9.9	231	5	
2025-08-19T12:00	5500	521	-9.5	-9.9	232	5	
2025-08-19T12:00	5520	519	-9.7	-10.0	233	5	
2025-08-19T12:00	5540	518	-9.9	-10.1	234	5	
2025-08-19T12:00	5560	517	-10.0	-10.2	235	5	
2025-08-19T12:00	5580	515	-10.2	-10.4	236	5	
2025-08-19T12:00	5600	514	-10.4	-10.5	237	5	
2025-08-19T12:00	5620	513	-10.5	-10.6	237	5	
2025-08-19T12:00	5640	511	-10.7	-10.7	238	5	
2025-08-19T12:00	5660	510	-10.7	-10.7	239	5	
2025-08-19T12:00	5680	509	-10.9	-10.9	241	6	
2025-08-19T12:00	5700	507	-11.0	-11.0	243	5	
2025-08-19T12:00	5720	506	-11.3	-11.6	244	5	
2025-08-19T12:00	5740	505	-11.4	-12.6	246	5	
2025-08-19T12:00	5760	503	-11.1	-13.4	247	6	
2025-08-19T12:00	5780	502	-10.9	-14.3	248	6	
2025-08-19T12:00	5800	501	-10.8	-14.9	248	6	
2025-08-19T12:00	5820	500	-10.7	-17.0	249	6	
2025-08-19T12:00	5840	498	-10.8	-17.4	250	6	
2025-08-19T12:00	5860	497	-10.9	-17.0	252	7	
2025-08-19T12:00	5880	496	-11.1	-16.5	253	7	
2025-08-19T12:00	5900	494	-11.3	-15.2	253	7	
2025-08-19T12:00	5920	493	-11.5	-14.4	252	7	
2025-08-19T12:00	5940	492	-11.6	-14.2	250	7	
2025-08-19T12:00	5960	491	-11.8	-14.0	246	7	
2025-08-19T12:00	5980	489	-12.0	-14.1	243	7	
2025-08-19T12:00	6000	488	-12.2	-14.2	239	7	
2025-08-19T12:00	6020	487	-12.3	-14.2	236	7	
2025-08-19T12:00	6040	486	-12.5	-14.2	236	7	
2025-08-19T12:00	6060	484	-12.7	-14.3	237	7	
2025-08-19T12:00	6080	483	-12.8	-14.4	239	7	
2025-08-19T12:00	6100	481	-13.0	-14.5	242	7	
2025-08-19T12:00	6120	480	-13.1	-14.6	243	7	
2025-08-19T12:00	6140	479	-13.3	-14.6	244	7	
2025-08-19T12:00	6160	478	-13.4	-14.6	243	7	
2025-08-19T12:00	6180	477	-13.6	-14.7	241	7	
2025-08-19T12:00	6200	475	-13.8	-14.8	239	7	
2025-08-19T12:00	6220	474	-13.9	-14.9	238	7	
2025-08-19T12:00	6240	473	-14.1	-14.9	238	7	
2025-08-19T12:00	6260	472	-14.2	-14.9	238	7	
2025-08-19T12:00	6280	470	-14.4	-15.0	239	7	
2025-08-19T12:00	6300	469	-14.6	-15.1	240	8	
2025-08-19T12:00	6320	468	-14.8	-15.1	240	8	
2025-08-19T12:00	6340	466	-15.0	-15.1	238	7	
2025-08-19T12:00	6360	465	-15.1	-15.2	236	7	
2025-08-19T12:00	6380	464	-15.3	-15.3	233	7	
2025-08-19T12:00	6400	463	-15.4	-15.4	232	7	
2025-08-19T12:00	6420	462	-15.5	-15.5	231	8	
2025-08-19T12:00	6440	460	-15.6	-15.6	231	8	
2025-08-19T12:00	6460	459	-15.9	-15.9	232	8	
2025-08-19T12:00	6480	458	-16.1	-16.1	233	8	
2025-08-19T12:00	6500	457	-16.2	-16.2	234	8	
2025-08-19T12:00	6520	456	-16.4	-16.4	235	8	
2025-08-19T12:00	6540	455	-16.5	-16.5	236	8	
2025-08-19T12:00	6560	453	-16.5	-16.5	237	8	
2025-08-19T12:00	6580	452	-16.6	-16.6	238	7	
2025-08-19T12:00	6600	451	-16.6	-16.6	238	7	
2025-08-19T12:00	6620	450	-16.7	-16.7	238	7	
2025-08-19T12:00	6640	448	-16.9	-17.0	238	7	
2025-08-19T12:00	6660	447	-17.2	-17.3	237	7	
2025-08-19T12:00	6680	446	-17.3	-17.3	237	7	
2025-08-19T12:00	6700	445	-17.5	-17.5	236	7	
2025-08-19T12:00	6720	444	-17.6	-18.3	235	7	
2025-08-19T12:00	6740	442	-17.5	-19.6	235	7	
2025-08-19T12:00	6760	441	-17.8	-19.9	234	7	
2025-08-19T12:00	6780	440	-18.0	-20.7	234	6	
2025-08-19T12:00	6800	439	-18.2	-22.1	235	6	
2025-08-19T12:00	6820	438	-18.4	-22.9	236	6	
2025-08-19T12:00	6840	437	-18.5	-23.0	237	5	
2025-08-19T12:00	6860	435	-18.6	-23.5	238	5	
2025-08-19T12:00	6880	434	-18.7	-23.9	239	5	
2025-08-19T12:00	6900	433	-18.7	-24.1	239	5	
2025-08-19T12:00	6920	432	-18.8	-24.3	240	5	
2025-08-19T12:00	6940	431	-18.9	-24.6	240	5	
2025-08-19T12:00	6960	429	-19.0	-25.1	241	6	
2025-08-19T12:00	6980	428	-19.1	-25.1	242	6	
2025-08-19T12:00	7000	427	-19.1	-25.1	244	6	
2025-08-19T12:00	7020	426	-19.3	-26.8	245	6	
2025-08-19T12:00	7040	425	-19.3	-24.8	246	6	
2025-08-19T12:00	7060	424	-19.3	-23.7	247	6	
2025-08-19T12:00	7080	423	-19.4	-23.5	247	6	
2025-08-19T12:00	7100	421	-19.5	-23.1	248	7	
2025-08-19T12:00	7120	420	-19.7	-23.0	247	6	
2025-08-19T12:00	7140	419	-19.8	-22.9	246	6	
2025-08-19T12:00	7160	418	-20.0	-22.8	246	6	
2025-08-19T12:00	7180	417	-20.2	-22.7	244	6	
2025-08-19T12:00	7200	416	-20.4	-22.6	243	6	
2025-08-19T12:00	7220	415	-20.5	-22.5	243	6	
2025-08-19T12:00	7240	414	-20.6	-22.6	242	6	
2025-08-19T12:00	7260	413	-20.8	-23.3	242	7	
2025-08-19T12:00	7280	411	-21.0	-24.5	243	7	
2025-08-19T12:00	7300	410	-21.1	-24.6	243	7	
2025-08-19T12:00	7320	409	-21.2	-23.5	244	7	
2025-08-19T12:00	7340	408	-21.4	-23.5	245	7	
2025-08-19T12:00	7360	407	-21.5	-23.2	245	7	
2025-08-19T12:00	7380	406	-21.7	-23.2	245	7	
2025-08-19T12:00	7400	405	-21.9	-23.2	245	7	
2025-08-19T12:00	7420	404	-22.0	-23.3	245	6	
2025-08-19T12:00	7440	403	-22.2	-23.4	245	6	
2025-08-19T12:00	7460	402	-22.3	-23.4	246	6	
2025-08-19T12:00	7480	400	-22.5	-23.5	246	6	
2025-08-19T12:00	7500	399	-22.6	-23.5	247	6	
2025-08-19T12:00	7520	398	-22.8	-23.5	247	5	
2025-08-19T12:00	7540	397	-23.0	-23.8	248	5	
2025-08-19T12:00	7560	396	-23.2	-23.7	247	5	
2025-08-19T12:00	7580	395	-23.3	-24.0	247	5	
2025-08-19T12:00	7600	394	-23.4	-24.2	247	6	
2025-08-19T12:00	7620	393	-23.5	-24.4	247	6	
2025-08-19T12:00	7640	392	-23.7	-24.7	247	6	
2025-08-19T12:00	7660	391	-23.8	-24.9	247	6	
2025-08-19T12:00	7680	390	-24.0	-25.0	247	7	
2025-08-19T12:00	7700	389	-24.1	-25.2	246	7	
2025-08-19T12:00	7720	387	-24.2	-25.4	246	7	
2025-08-19T12:00	7740	387	-24.3	-25.5	246	7	
2025-08-19T12:00	7760	385	-24.5	-25.8	247	6	
2025-08-19T12:00	7780	384	-24.6	-26.0	248	6	
2025-08-19T12:00	7800	383	-24.8	-26.2	249	6	
2025-08-19T12:00	7820	382	-24.9	-26.5	250	6	
2025-08-19T12:00	7840	381	-25.1	-26.6	249	5	
2025-08-19T12:00	7860	380	-25.2	-26.8	248	5	
2025-08-19T12:00	7880	379	-25.4	-26.9	246	5	
2025-08-19T12:00	7900	378	-25.6	-26.9	244	4	
2025-08-19T12:00	7920	377	-25.8	-27.1	244	4	
2025-08-19T12:00	7940	376	-26.0	-27.2	244	4	
2025-08-19T12:00	7960	375	-26.2	-27.2	245	4	
2025-08-19T12:00	7980	374	-26.4	-27.3	247	4	
2025-08-19T12:00	8000	373	-26.5	-27.6	248	4	
2025-08-19T12:00	8020	372	-26.6	-28.6	250	5	
2025-08-19T12:00	8040	371	-26.7	-28.8	250	5	
2025-08-19T12:00	8060	370	-26.8	-28.8	251	6	
2025-08-19T12:00	8080	369	-27.0	-28.9	251	6	
2025-08-19T12:00	8100	368	-27.1	-29.1	251	7	
2025-08-19T12:00	8120	367	-27.3	-29.2	250	7	
2025-08-19T12:00	8140	366	-27.4	-29.2	250	8	
2025-08-19T12:00	8160	365	-27.6	-29.3	249	8	
2025-08-19T12:00	8180	364	-27.7	-29.5	248	9	
2025-08-19T12:00	8200	363	-27.7	-30.0	246	9	
2025-08-19T12:00	8220	362	-27.8	-30.7	244	9	
2025-08-19T12:00	8240	361	-27.8	-31.4	243	10	
2025-08-19T12:00	8260	360	-27.9	-31.6	241	10	
2025-08-19T12:00	8280	359	-28.0	-31.9	240	10	
2025-08-19T12:00	8300	358	-28.2	-31.9	240	10	
2025-08-19T12:00	8320	357	-28.4	-31.9	239	10	
2025-08-19T12:00	8340	356	-28.5	-32.3	239	9	
2025-08-19T12:00	8360	355	-28.6	-33.0	240	9	
2025-08-19T12:00	8380	354	-28.7	-33.2	241	9	
2025-08-19T12:00	8400	353	-28.8	-33.3	242	9	
2025-08-19T12:00	8420	352	-29.0	-33.4	243	9	
2025-08-19T12:00	8440	351	-29.2	-33.6	244	9	
2025-08-19T12:00	8460	350	-29.3	-33.8	245	9	
2025-08-19T12:00	8480	349	-29.5	-34.0	247	9	
2025-08-19T12:00	8500	348	-29.7	-34.0	248	9	
2025-08-19T12:00	8520	347	-29.8	-34.0	249	9	
2025-08-19T12:00	8540	346	-30.0	-34.1	249	9	
2025-08-19T12:00	8560	345	-30.1	-34.2	249	9	
2025-08-19T12:00	8580	344	-30.3	-34.2	249	9	
2025-08-19T12:00	8600	343	-30.5	-34.0	248	9	
2025-08-19T12:00	8620	342	-30.6	-33.9	247	9	
2025-08-19T12:00	8640	341	-30.8	-34.1	245	10	
2025-08-19T12:00	8660	340	-30.9	-34.7	244	10	
2025-08-19T12:00	8680	339	-31.0	-35.3	243	10	
2025-08-19T12:00	8700	338	-31.1	-36.7	243	11	
2025-08-19T12:00	8720	337	-31.1	-39.0	243	11	
2025-08-19T12:00	8740	336	-31.3	-39.2	243	11	
2025-08-19T12:00	8760	335	-31.5	-39.3	243	12	
2025-08-19T12:00	8780	334	-31.6	-39.7	244	12	
2025-08-19T12:00	8800	333	-31.8	-40.0	244	12	
2025-08-19T12:00	8820	332	-32.0	-39.9	244	12	
2025-08-19T12:00	8840	332	-32.1	-39.9	243	13	
2025-08-19T12:00	8860	331	-32.3	-40.0	243	13	
2025-08-19T12:00	8880	330	-32.5	-40.3	242	13	
2025-08-19T12:00	8900	329	-32.6	-40.6	241	13	
2025-08-19T12:00	8920	328	-32.8	-40.7	241	13	
2025-08-19T12:00	8940	327	-33.0	-40.6	240	13	
2025-08-19T12:00	8960	326	-33.2	-40.6	239	13	
2025-08-19T12:00	8980	325	-33.4	-40.9	238	13	
2025-08-19T12:00	9000	324	-33.5	-41.6	238	13	
2025-08-19T12:00	9020	323	-33.7	-41.7	238	13	
2025-08-19T12:00	9040	322	-33.8	-41.8	237	13	
2025-08-19T12:00	9060	321	-34.0	-41.8	237	13	
2025-08-19T12:00	9080	320	-34.2	-41.9	237	13	
2025-08-19T12:00	9100	320	-34.4	-42.0	237	13	
2025-08-19T12:00	9120	319	-34.5	-42.3	237	13	
2025-08-19T12:00	9140	318	-34.7	-42.4	237	13	
2025-08-19T12:00	9160	317	-34.9	-42.5	237	13	
2025-08-19T12:00	9180	316	-35.1	-42.7	236	12	
2025-08-19T12:00	9200	315	-35.3	-42.8	236	12	
2025-08-19T12:00	9220	314	-35.5	-42.7	237	12	
2025-08-19T12:00	9240	313	-35.7	-42.7	237	12	
2025-08-19T12:00	9260	312	-35.9	-42.9	238	12	
2025-08-19T12:00	9280	311	-36.1	-43.3	239	12	
2025-08-19T12:00	9300	310	-36.2	-44.0	240	12	
2025-08-19T12:00	9320	310	-36.3	-44.6	241	12	
2025-08-19T12:00	9340	309	-36.5	-45.3	242	12	
2025-08-19T12:00	9360	308	-36.7	-45.5	244	11	
2025-08-19T12:00	9380	307	-36.9	-45.5	246	11	
2025-08-19T12:00	9400	306	-37.1	-45.4	247	11	
2025-08-19T12:00	9420	305	-37.3	-45.6	249	11	
2025-08-19T12:00	9440	304	-37.4	-46.2	250	10	
2025-08-19T12:00	9460	303	-37.6	-47.0	250	10	
2025-08-19T12:00	9480	302	-37.7	-48.4	250	10	
2025-08-19T12:00	9500	302	-37.7	-49.7	249	10	
2025-08-19T12:00	9520	301	-37.8	-50.6	248	10	
2025-08-19T12:00	9540	300	-38.0	-50.5	247	10	
2025-08-19T12:00	9560	299	-38.1	-50.5	246	10	
2025-08-19T12:00	9580	298	-38.3	-50.8	245	10	
2025-08-19T12:00	9600	297	-38.5	-51.0	245	10	
2025-08-19T12:00	9620	296	-38.7	-51.0	246	10	
2025-08-19T12:00	9640	296	-38.8	-51.1	246	10	
2025-08-19T12:00	9660	295	-39.0	-51.1	248	11	
2025-08-19T12:00	9680	294	-39.2	-51.2	249	11	
2025-08-19T12:00	9700	293	-39.4	-51.3	250	11	
2025-08-19T12:00	9720	292	-39.6	-51.5	251	11	
2025-08-19T12:00	9740	291	-39.8	-51.8	252	11	
2025-08-19T12:00	9760	290	-39.9	-52.3	252	11	
2025-08-19T12:00	9780	289	-40.1	-53.2	252	11	
2025-08-19T12:00	9800	289	-40.3	-53.2	252	11	
2025-08-19T12:00	9820	288	-40.5	-53.4	252	11	
2025-08-19T12:00	9840	287	-40.6	-53.9	252	12	
2025-08-19T12:00	9860	286	-40.8	-53.9	252	12	
2025-08-19T12:00	9880	285	-40.9	-53.8	252	12	
2025-08-19T12:00	9900	284	-41.1	-53.8	251	12	
2025-08-19T12:00	9920	284	-41.3	-53.9	250	12	
2025-08-19T12:00	9940	283	-41.5	-54.0	249	12	
2025-08-19T12:00	9960	282	-41.7	-54.0	248	12	
2025-08-19T12:00	9980	281	-41.9	-54.1	247	12	
2025-08-19T12:00	10000	280	-42.1	-54.2	246	12	
2025-08-19T12:00	10018	280	-42.2	-54.7	245	12	
2025-08-19T12:00	10050	278	-42.5	-55.4	244	12	
2025-08-19T12:00	10100	276	-42.9	-56.5	244	13	
2025-08-19T12:00	10150	274	-43.4	-56.6	244	13	
2025-08-19T12:00	10200	272	-43.8	-57.0	245	14	
2025-08-19T12:00	10250	270	-44.2	-58.8	244	14	
2025-08-19T12:00	10300	268	-44.6	-60.2	241	14	
2025-08-19T12:00	10350	266	-44.8	-61.5	236	15	
2025-08-19T12:00	10400	264	-44.9	-62.9	230	16	
2025-08-19T12:00	10450	262	-45.1	-62.4	227	16	
2025-08-19T12:00	10500	260	-45.4	-62.3	226	16	
2025-08-19T12:00	10550	258	-45.8	-61.0	224	16	
2025-08-19T12:00	10600	256	-46.2	-59.3	223	16	
2025-08-19T12:00	10650	254	-46.7	-59.0	223	16	
2025-08-19T12:00	10700	252	-47.1	-58.9	223	16	
2025-08-19T12:00	10750	250	-47.6	-58.2	224	16	
2025-08-19T12:00	10800	249	-48.1	-58.9	226	16	
2025-08-19T12:00	10850	247	-48.5	-57.1	227	16	
2025-08-19T12:00	10900	245	-49.0	-56.2	226	16	
2025-08-19T12:00	10950	243	-49.4	-56.3	224	16	
2025-08-19T12:00	11000	241	-49.9	-56.2	223	15	
2025-08-19T12:00	11050	239	-50.3	-56.9	223	14	
2025-08-19T12:00	11100	238	-50.6	-58.7	224	14	
2025-08-19T12:00	11150	236	-50.9	-60.2	224	13	
2025-08-19T12:00	11200	234	-51.3	-60.0	223	14	
2025-08-19T12:00	11250	232	-51.7	-60.7	224	14	
2025-08-19T12:00	11300	230	-52.0	-61.4	225	15	
2025-08-19T12:00	11350	228	-52.5	-61.6	226	15	
2025-08-19T12:00	11400	227	-53.0	-62.1	227	14	
2025-08-19T12:00	11450	225	-53.4	-62.7	229	14	
2025-08-19T12:00	11500	223	-53.8	-62.6	229	13	
2025-08-19T12:00	11550	222	-54.3	-62.8	228	13	
2025-08-19T12:00	11600	220	-54.7	-63.1	226	13	
2025-08-19T12:00	11650	218	-55.2	-63.4	224	12	
2025-08-19T12:00	11700	216	-55.6	-63.8	225	12	
2025-08-19T12:00	11750	215	-56.0	-64.0	225	12	
2025-08-19T12:00	11800	213	-56.5	-64.2	225	13	
2025-08-19T12:00	11850	211	-57.0	-64.1	226	13	
2025-08-19T12:00	11900	210	-57.4	-63.9	225	13	
2025-08-19T12:00	11950	208	-57.8	-64.1	224	13	
2025-08-19T12:00	12000	206	-58.2	-64.1	224	14	
2025-08-19T12:00	12050	205	-58.6	-64.4	224	14	
2025-08-19T12:00	12100	203	-59.0	-64.5	225	14	
2025-08-19T12:00	12150	202	-59.4	-64.5	225	14	
2025-08-19T12:00	12200	200	-59.7	-65.4	226	14	
2025-08-19T12:00	12250	198	-60.0	-66.1	224	13	
2025-08-19T12:00	12300	197	-60.3	-66.7	224	13	
2025-08-19T12:00	12350	195	-60.6	-67.3	224	12	
2025-08-19T12:00	12400	194	-61.1	-67.2	223	12	
2025-08-19T12:00	12450	192	-61.5	-67.1	222	12	
2025-08-19T12:00	12500	190	-62.0	-67.0	221	12	
2025-08-19T12:00	12550	189	-62.5	-67.0	220	12	
2025-08-19T12:00	12600	187	-63.0	-67.2	219	12	
2025-08-19T12:00	12650	186	-63.4	-67.3	219	12	
2025-08-19T12:00	12700	184	-63.9	-67.9	219	13	
2025-08-19T12:00	12750	183	-64.2	-68.6	220	13	
2025-08-19T12:00	12800	181	-64.5	-69.4	220	13	
2025-08-19T12:00	12850	180	-64.8	-69.6	219	13	
2025-08-19T12:00	12900	178	-64.4	-69.4	217	13	
2025-08-19T12:00	12950	177	-63.9	-69.3	217	12	
2025-08-19T12:00	13000	176	-64.0	-69.9	219	11	
2025-08-19T12:00	13050	174	-63.9	-70.6	222	10	
2025-08-19T12:00	13100	173	-63.1	-70.7	224	8	
2025-08-19T12:00	13150	171	-62.8	-71.7	221	7	
2025-08-19T12:00	13200	170	-62.7	-72.9	213	5	
2025-08-19T12:00	13250	168	-62.2	-74.0	204	5	
2025-08-19T12:00	13300	167	-61.0	-76.9	203	6	
2025-08-19T12:00	13350	166	-59.4	-79.9	208	7	
2025-08-19T12:00	13400	165	-58.3	-80.9	213	7	
2025-08-19T12:00	13450	163	-58.0	-80.3	220	7	
2025-08-19T12:00	13500	162	-57.9	-79.7	219	7	
2025-08-19T12:00	13550	161	-57.6	-79.4	210	7	
2025-08-19T12:00	13600	159	-57.7	-79.3	202	7	
2025-08-19T12:00	13650	158	-56.9	-79.4	202	7	
2025-08-19T12:00	13700	157	-56.8	-79.5	206	7	
2025-08-19T12:00	13750	156	-57.1	-79.6	211	8	
2025-08-19T12:00	13800	154	-57.0	-79.7	216	8	
2025-08-19T12:00	13850	153	-57.0	-79.7	217	7	
2025-08-19T12:00	13900	152	-56.8	-79.6	213	6	
2025-08-19T12:00	13950	151	-56.4	-79.4	205	5	
2025-08-19T12:00	14000	150	-56.5	-79.1	199	5	
2025-08-19T12:00	14050	149	-56.9	-78.8	194	6	
2025-08-19T12:00	14100	147	-57.0	-78.6	189	6	
2025-08-19T12:00	14150	146	-57.3	-78.8	185	7	
2025-08-19T12:00	14200	145	-57.4	-79.2	183	7	
2025-08-19T12:00	14250	144	-57.0	-80.0	187	7	
2025-08-19T12:00	14300	143	-56.8	-80.7	198	7	
2025-08-19T12:00	14350	142	-56.9	-81.1	212	8	
2025-08-19T12:00	14400	140	-56.4	-81.7	225	9	
2025-08-19T12:00	14450	139	-55.2	-81.9	234	9	
2025-08-19T12:00	14500	138	-54.7	-81.8	240	8	
2025-08-19T12:00	14550	137	-54.5	-81.6	243	7	
2025-08-19T12:00	14600	136	-54.3	-81.3	245	5	
2025-08-19T12:00	14650	135	-54.5	-81.1	244	4	
2025-08-19T12:00	14700	134	-54.9	-81.1	232	4	
2025-08-19T12:00	14750	133	-55.2	-81.2	213	4	
2025-08-19T12:00	14800	132	-55.6	-81.2	201	4	
2025-08-19T12:00	14850	131	-56.0	-81.3	198	5	
2025-08-19T12:00	14900	130	-56.4	-81.6	199	6	
2025-08-19T12:00	14950	129	-56.7	-81.8	203	7	
2025-08-19T12:00	15000	128	-56.8	-82.2	209	8	
2025-08-19T12:00	15050	127	-56.5	-82.5	214	9	
2025-08-19T12:00	15100	126	-56.5	-82.8	221	9	
2025-08-19T12:00	15150	125	-56.1	-82.8	226	8	
2025-08-19T12:00	15200	124	-55.7	-82.6	222	7	
2025-08-19T12:00	15250	123	-55.4	-82.4	212	7	
2025-08-19T12:00	15300	122	-55.4	-82.3	206	7	
2025-08-19T12:00	15350	121	-55.7	-82.4	209	8	
2025-08-19T12:00	15400	120	-56.0	-82.5	213	7	
2025-08-19T12:00	15450	119	-56.0	-82.7	217	6	
2025-08-19T12:00	15500	118	-55.4	-82.8	221	6	
2025-08-19T12:00	15550	117	-55.4	-82.9	227	6	
2025-08-19T12:00	15600	116	-55.7	-82.9	233	7	
2025-08-19T12:00	15650	115	-55.9	-82.9	238	7	
2025-08-19T12:00	15700	115	-56.1	-83.0	241	7	
2025-08-19T12:00	15750	114	-55.9	-83.0	238	7	
2025-08-19T12:00	15800	113	-56.1	-83.0	232	7	
2025-08-19T12:00	15850	112	-56.5	-83.1	225	8	
2025-08-19T12:00	15900	111	-56.9	-83.3	222	9	
2025-08-19T12:00	15950	110	-57.1	-83.5	223	10	
2025-08-19T12:00	16000	109	-56.8	-83.4	228	10	
2025-08-19T12:00	16050	108	-56.6	-83.4	234	10	
2025-08-19T12:00	16100	108	-56.8	-83.4	240	9	
2025-08-19T12:00	16150	107	-57.1	-83.5	246	9	
2025-08-19T12:00	16200	106	-57.4	-83.6	255	8	
2025-08-19T12:00	16250	105	-57.5	-83.6	267	7	
2025-08-19T12:00	16300	104	-57.6	-83.6	279	6	
2025-08-19T12:00	16350	103	-57.6	-83.8	291	5	
2025-08-19T12:00	16400	103	-57.4	-83.8	305	4	
2025-08-19T12:00	16450	102	-57.1	-83.8	319	2	
2025-08-19T12:00	16500	101	-57.3	-83.8	316	1	
2025-08-19T12:00	16550	100	-57.5	-83.9	181	1	
2025-08-19T12:00	16600	99	-57.4	-84.0	179	3	
2025-08-19T12:00	16650	99	-57.3	-84.1	188	4	
2025-08-19T12:00	16700	98	-57.1	-84.2	206	4	
2025-08-19T12:00	16750	97	-56.8	-84.1	227	5	
2025-08-19T12:00	16800	96	-57.0	-84.2	244	6	
2025-08-19T12:00	16850	95	-57.0	-84.2	259	6	
2025-08-19T12:00	16900	95	-56.9	-84.2	274	5	
2025-08-19T12:00	16950	94	-57.1	-84.3	293	4	
2025-08-19T12:00	17000	93	-57.2	-84.5	321	3	
2025-08-19T12:00	17050	93	-57.2	-84.6	350	2	
2025-08-19T12:00	17100	92	-57.1	-84.7	16	1	
2025-08-19T12:00	17150	91	-57.0	-84.7	116	0	
2025-08-19T12:00	17200	90	-57.0	-84.7	175	2	
2025-08-19T12:00	17250	90	-56.9	-84.5	178	3	
2025-08-19T12:00	17300	89	-56.9	-84.6	174	3	
2025-08-19T12:00	17350	88	-57.0	-84.6	167	4	
2025-08-19T12:00	17400	88	-57.3	-84.6	165	4	
2025-08-19T12:00	17450	87	-57.5	-84.7	173	3	
2025-08-19T12:00	17500	86	-57.5	-84.9	178	3	
2025-08-19T12:00	17550	85	-57.5	-85.0	172	3	
2025-08-19T12:00	17600	85	-57.3	-85.0	166	3	
2025-08-19T12:00	17650	84	-57.2	-85.0	169	3	
2025-08-19T12:00	17700	83	-57.1	-85.0	174	4	
2025-08-19T12:00	17750	83	-56.7	-85.0	185	4	
2025-08-19T12:00	17800	82	-56.6	-84.8	206	4	
2025-08-19T12:00	17850	82	-56.7	-84.8	230	4	
2025-08-19T12:00	17900	81	-56.8	-85.0	248	3	
2025-08-19T12:00	17950	80	-56.8	-85.1	254	2	
2025-08-19T12:00	18000	80	-56.5	-85.0	228	2	
2025-08-19T12:00	18050	79	-56.4	-85.0	206	3	
2025-08-19T12:00	18100	78	-56.7	-85.0	207	3	
2025-08-19T12:00	18150	78	-57.2	-85.1	214	4	
2025-08-19T12:00	18200	77	-57.5	-85.2	220	4	
2025-08-19T12:00	18250	77	-57.5	-85.3	228	4	
2025-08-19T12:00	18300	76	-57.1	-85.2	246	3	
2025-08-19T12:00	18350	75	-57.0	-85.4	273	2	
2025-08-19T12:00	18400	75	-56.7	-85.4	278	2	
2025-08-19T12:00	18450	74	-56.2	-85.1	255	3	
2025-08-19T12:00	18500	74	-56.2	-85.1	229	3	
2025-08-19T12:00	18550	73	-56.3	-85.1	220	4	
2025-08-19T12:00	18600	72	-56.5	-85.1	221	5	
2025-08-19T12:00	18650	72	-56.6	-85.2	226	5	
2025-08-19T12:00	18700	71	-56.8	-85.2	233	4	
2025-08-19T12:00	18750	71	-57.0	-85.3	239	4	
2025-08-19T12:00	18800	70	-56.8	-85.5	238	3	
2025-08-19T12:00	18850	70	-56.7	-85.4	235	3	
2025-08-19T12:00	18900	69	-56.4	-85.2	237	2	
2025-08-19T12:00	18950	69	-56.1	-85.2	243	2	
2025-08-19T12:00	19000	68	-55.7	-85.1	283	1	
2025-08-19T12:00	19050	67	-55.7	-85.1	28	1	
2025-08-19T12:00	19100	67	-55.9	-85.1	45	2	
2025-08-19T12:00	19150	66	-55.8	-85.1	55	3	
2025-08-19T12:00	19200	66	-55.7	-85.1	72	4	
2025-08-19T12:00	19250	65	-55.4	-85.1	98	4	
2025-08-19T12:00	19300	65	-55.1	-84.9	122	5	
2025-08-19T12:00	19350	64	-55.0	-84.8	139	6	
2025-08-19T12:00	19400	64	-55.0	-84.7	152	7	
2025-08-19T12:00	19450	63	-54.9	-84.7	162	6	
2025-08-19T12:00	19500	63	-54.9	-84.8	173	6	
2025-08-19T12:00	19550	62	-54.7	-84.7	183	6	
2025-08-19T12:00	19600	62	-54.7	-84.6	189	6	
2025-08-19T12:00	19650	61	-54.6	-84.6	189	6	
2025-08-19T12:00	19700	61	-54.5	-84.6	190	6	
2025-08-19T12:00	19750	60	-54.4	-84.4	195	6	
2025-08-19T12:00	19800	60	-54.7	-84.5	201	7	
2025-08-19T12:00	19850	60	-54.9	-84.6	205	7	
2025-08-19T12:00	19900	59	-54.9	-84.7	202	6	
2025-08-19T12:00	19950	59	-54.6	-84.7	190	5	
2025-08-19T12:00	20000	58	-54.8	-84.8	175	4	
2025-08-19T12:00	20050	58	-54.7		164	4	
2025-08-19T12:00	20100	57	-54.6		168	4	
2025-08-19T12:00	20150	57	-54.6		178	4	
2025-08-19T12:00	20200	56	-54.7		182	4	
2025-08-19T12:00	20250	56	-54.8		183	3	
2025-08-19T12:00	20300	55	-54.4		189	2	
2025-08-19T12:00	20350	55	-54.3		214	1	
2025-08-19T12:00	20400	55	-54.3		240	2	
2025-08-19T12:00	20450	54	-54.4		256	2	
2025-08-19T12:00	20500	54	-54.7		264	3	
2025-08-19T12:00	20550	53	-55.0		268	4	
2025-08-19T12:00	20600	53	-55.3		272	4	
2025-08-19T12:00	20650	53	-55.1		286	3	
2025-08-19T12:00	20700	52	-54.8		315	3	
2025-08-19T12:00	20750	52	-54.4		343	3	
2025-08-19T12:00	20800	51	-54.2		11	2	
2025-08-19T12:00	20850	51	-53.9		54	2	
2025-08-19T12:00	20900	51	-54.0		84	2	
2025-08-19T12:00	20950	50	-54.1		93	2	
2025-08-19T12:00	21000	50	-54.4		92	3	
2025-08-19T12:00	21050	49	-54.6		95	4	
2025-08-19T12:00	21100	49	-54.7		102	5	
2025-08-19T12:00	21150	49	-54.6		111	6	
2025-08-19T12:00	21200	48	-54.9		121	7	
2025-08-19T12:00	21250	48	-55.0		132	6	
2025-08-19T12:00	21300	47	-54.9		145	6	
2025-08-19T12:00	21350	47	-54.8		156	5	
2025-08-19T12:00	21400	47	-54.9		167	5	
2025-08-19T12:00	21450	46	-54.7		179	4	
2025-08-19T12:00	21500	46	-54.7		202	3	
2025-08-19T12:00	21550	46	-54.5		243	2	
2025-08-19T12:00	21600	45	-54.0		261	1	
2025-08-19T12:00	21650	45	-54.0		216	1	
2025-08-19T12:00	21700	45	-54.0		166	2	
2025-08-19T12:00	21750	44	-53.8		149	2	
2025-08-19T12:00	21800	44	-53.7		137	3	
2025-08-19T12:00	21850	44	-53.7		130	4	
2025-08-19T12:00	21900	43	-53.7		126	3	
2025-08-19T12:00	21950	43	-53.6		129	2	
2025-08-19T12:00	22000	43	-53.4		167	1	
2025-08-19T12:00	22050	42	-53.6		240	1	
2025-08-19T12:00	22100	42	-53.9		269	1	
2025-08-19T12:00	22150	42	-53.8		344	1	
2025-08-19T12:00	22200	41	-53.7		20	1	
2025-08-19T12:00	22250	41	-53.8		22	2	
2025-08-19T12:00	22300	41	-53.9		23	3	
2025-08-19T12:00	22350	40	-53.8		28	3	
2025-08-19T12:00	22400	40	-53.9		36	3	
2025-08-19T12:00	22450	40	-53.8		44	4	
2025-08-19T12:00	22500	39	-53.5		56	4	
2025-08-19T12:00	22550	39	-53.4		74	4	
2025-08-19T12:00	22600	39	-53.1		101	4	
2025-08-19T12:00	22650	38	-52.8		125	4	
2025-08-19T12:00	22700	38	-52.5		141	4	
2025-08-19T12:00	22750	38	-52.1		153	4	
2025-08-19T12:00	22800	38	-51.9		160	4	
2025-08-19T12:00	22850	37	-51.9		163	4	
2025-08-19T12:00	22900	37	-51.7		161	4	
2025-08-19T12:00	22950	37	-51.5		159	4	
2025-08-19T12:00	23000	36	-51.2		155	5	
2025-08-19T12:00	23050	36	-51.1		151	5	
2025-08-19T12:00	23100	36	-51.1		151	6	
2025-08-19T12:00	23150	36	-51.1		157	6	
2025-08-19T12:00	23200	35	-51.2		166	5	
2025-08-19T12:00	23250	35	-51.3		172	5	
2025-08-19T12:00	23300	35	-51.1		178	4	
2025-08-19T12:00	23350	35	-51.2		184	3	
2025-08-19T12:00	23400	34	-51.4		193	2	
2025-08-19T12:00	23450	34	-51.5		204	2	
2025-08-19T12:00	23500	34	-51.6		215	2	
2025-08-19T12:00	23550	33	-51.8		228	3	
2025-08-19T12:00	23600	33	-51.9		248	2	
2025-08-19T12:00	23650	33	-51.6		294	1	
2025-08-19T12:00	23700	33	-51.4		4	2	
2025-08-19T12:00	23750	32	-51.4		42	2	
2025-08-19T12:00	23800	32	-51.3		67	3	
2025-08-19T12:00	23850	32	-51.1		83	3	
2025-08-19T12:00	23900	32	-50.9		96	3	
2025-08-19T12:00	23950	31	-50.6		104	2	
2025-08-19T12:00	24000	31	-50.6		101	2	
2025-08-19T12:00	24050	31	-50.9		88	2	
2025-08-19T12:00	24100	31	-51.1		78	2	
2025-08-19T12:00	24150	31	-51.1		77	2	
2025-08-19T12:00	24200	30	-50.9		85	3	
2025-08-19T12:00	24250	30	-50.6		95	3	
2025-08-19T12:00	24300	30	-50.4		104	4	
2025-08-19T12:00	24350	30	-50.4		113	5	
2025-08-19T12:00	24400	29	-50.1		125	4	
2025-08-19T12:00	24450	29	-49.7		143	3	
2025-08-19T12:00	24500	29	-49.6		161	3	
2025-08-19T12:00	24550	29	-49.8		174	2	
2025-08-19T12:00	24600	28	-50.0		182	1	
2025-08-19T12:00	24650	28	-50.1		15	0	
2025-08-19T12:00	24700	28	-50.1		25	2	
2025-08-19T12:00	24750	28	-50.0		43	3	
2025-08-19T12:00	24800	28	-49.9		65	4	
2025-08-19T12:00	24850	27	-50.0		83	4	
2025-08-19T12:00	24900	27	-49.9		97	5	
2025-08-19T12:00	24950	27	-49.7		104	5	
2025-08-19T12:00	25000	27	-49.7		110	5	
2025-08-19T12:00	25050	27	-49.9		113	5	
2025-08-19T12:00	25100	26	-50.0		112	5	
2025-08-19T12:00	25150	26	-50.0		110	6	
2025-08-19T12:00	25200	26	-50.1		107	7	
2025-08-19T12:00	25250	26	-50.1		106	7	
2025-08-19T12:00	25300	26	-49.9		107	7	
2025-08-19T12:00	25350	25	-49.7		110	8	
2025-08-19T12:00	25400	25	-49.2		116	8	
2025-08-19T12:00	25450	25	-48.9		123	8	
2025-08-19T12:00	25500	25	-48.6		131	8	
2025-08-19T12:00	25550	25	-48.5		140	7	
2025-08-19T12:00	25600	24	-48.7		149	7	
2025-08-19T12:00	25650	24	-48.7		156	6	
2025-08-19T12:00	25700	24	-48.5		156	6	
2025-08-19T12:00	25750	24	-48.1		148	6	
2025-08-19T12:00	25800	24	-47.4		136	6	
2025-08-19T12:00	25850	24	-46.9		125	7	
2025-08-19T12:00	25900	23	-46.6		117	7	
2025-08-19T12:00	25950	23	-46.4		114	7	
2025-08-19T12:00	26000	23	-46.3		115	6	
2025-08-19T12:00	26050	23	-46.4		119	6	
2025-08-19T12:00	26100	23	-46.5		126	6	
2025-08-19T12:00	26150	22	-46.4		134	7	
2025-08-19T12:00	26200	22	-46.2		142	8	
2025-08-19T12:00	26250	22	-46.0		150	9	
2025-08-19T12:00	26300	22	-45.7		158	9	
2025-08-19T12:00	26350	22	-45.7		164	8	
2025-08-19T12:00	26400	22	-45.9		169	7	
2025-08-19T12:00	26450	21	-45.8		171	5	
2025-08-19T12:00	26500	21	-45.3		164	5	
2025-08-19T12:00	26550	21	-44.8		154	5	
2025-08-19T12:00	26600	21	-44.7		149	6	
2025-08-19T12:00	26650	21	-44.9		151	7	
2025-08-19T12:00	26700	21	-44.8		157	7	
2025-08-19T12:00	26750	21	-44.9		164	7	
2025-08-19T12:00	26800	20	-45.0		172	8	
2025-08-19T12:00	26850	20	-45.1		180	8	
2025-08-19T12:00	26900	20	-45.0		185	7	
2025-08-19T12:00	26950	20	-44.8		187	6	
2025-08-19T12:00	27000	20	-44.5		182	5	
2025-08-19T12:00	27050	20	-44.2		171	4	
2025-08-19T12:00	27100	20	-44.1		162	4	
2025-08-19T12:00	27150	19	-43.9		160	4	
2025-08-19T12:00	27200	19	-43.9		160	4	
2025-08-19T12:00	27250	19	-43.9		162	3	
2025-08-19T12:00	27300	19	-44.0		162	2	
2025-08-19T12:00	27350	19	-43.9		160	1	
2025-08-19T12:00	27400	19	-43.8		141	1	
2025-08-19T12:00	27450	19	-43.6		98	1	
2025-08-19T12:00	27500	18	-43.4		72	2	
2025-08-19T12:00	27550	18	-43.2		64	2	
2025-08-19T12:00	27600	18	-43.1		71	2	
2025-08-19T12:00	27650	18	-43.0		94	2	
2025-08-19T12:00	27700	18	-42.9		119	2	
2025-08-19T12:00	27750	18	-43.0		138	2	
2025-08-19T12:00	27800	18	-43.0		128	1	
2025-08-19T12:00	27850	17	-42.8		32	1	
2025-08-19T12:00	27900	17	-42.3		27	3	
2025-08-19T12:00	27950	17	-42.0		33	5	
2025-08-19T12:00	28000	17	-42.0		39	6	
2025-08-19T12:00	28050	17	-41.8		43	7	
2025-08-19T12:00	28100	17	-41.5		45	6	
2025-08-19T12:00	28150	17	-41.6		48	5	
2025-08-19T12:00	28200	17	-41.8		54	4	
2025-08-19T12:00	28250	16	-41.9		62	4	
2025-08-19T12:00	28300	16	-41.9		66	4	
2025-08-19T12:00	28350	16	-42.0		65	5	
2025-08-19T12:00	28400	16	-42.1		64	6	
2025-08-19T12:00	28450	16	-42.3		64	7	
2025-08-19T12:00	28500	16	-42.6		68	7	
2025-08-19T12:00	28550	16	-43.0		73	7	
2025-08-19T12:00	28600	16	-43.2		80	7	
2025-08-19T12:00	28650	16	-43.3		87	7	
2025-08-19T12:00	28700	15	-43.6		95	8	
2025-08-19T12:00	28750	15	-43.9		104	8	
2025-08-19T12:00	28800	15	-44.0		113	8	
2025-08-19T12:00	28850	15	-44.0		119	9	
2025-08-19T12:00	28900	15	-44.1		124	9	
2025-08-19T12:00	28950	15	-44.3		128	9	
2025-08-19T12:00	29000	15	-44.3		136	8	
2025-08-19T12:00	29050	15	-44.4		146	8	
2025-08-19T12:00	29100	14	-44.6		158	7	
2025-08-19T12:00	29150	14	-44.7		166	6	
2025-08-19T12:00	29200	14	-44.7		172	6	
2025-08-19T12:00	29250	14	-44.5		177	5	
2025-08-19T12:00	29300	14	-44.1		183	5	
2025-08-19T12:00	29350	14	-43.7		191	4	
2025-08-19T12:00	29400	14	-43.6		198	4	
2025-08-19T12:00	29450	14	-43.6		202	4	
2025-08-19T12:00	29500	14	-43.5		202	4	
2025-08-19T12:00	29550	14	-43.2		194	3	
2025-08-19T12:00	29600	13	-43.0		172	2	
2025-08-19T12:00	29650	13	-42.8		144	2	
2025-08-19T12:00	29700	13	-42.6		134	3	
2025-08-19T12:00	29750	13	-42.6		136	3	
2025-08-19T12:00	29800	13	-42.8		143	4	
2025-08-19T12:00	29850	13	-42.9		148	4	
2025-08-19T12:00	29900	13	-42.6		151	4	
2025-08-19T12:00	29950	13	-42.3		154	3	
2025-08-19T12:00	30000	13	-42.1		160	2	
2025-08-19T12:00	30050	13	-42.2		167	2	
2025-08-19T12:00	30100	12	-42.3		163	2	
2025-08-19T12:00	30150	12	-42.1		152	3	
2025-08-19T12:00	30200	12	-42.0		143	4	
2025-08-19T12:00	30250	12	-41.9		134	5	
2025-08-19T12:00	30300	12	-42.1		128	5	
2025-08-19T12:00	30350	12	-42.4		126	6	
2025-08-19T12:00	30400	12	-42.3		128	6	
2025-08-19T12:00	30450	12	-42.1		134	5	
2025-08-19T12:00	30500	12	-42.2		137	5	
2025-08-19T12:00	30550	12	-42.4		135	5	
2025-08-19T12:00	30600	12	-42.4		126	5	
2025-08-19T12:00	30650	12	-42.5		114	5	
2025-08-19T12:00	30700	11	-42.6		104	5	
2025-08-19T12:00	30750	11	-42.8		94	6	
2025-08-19T12:00	30800	11	-42.8		90	6	
2025-08-19T12:00	30850	11	-42.9		90	6	
2025-08-19T12:00	30900	11	-42.9		95	6	
2025-08-19T12:00	30950	11	-42.9		102	6	
2025-08-19T12:00	31000	11	-42.9		109	6	
2025-08-19T12:00	31050	11	-43.0		113	7	
2025-08-19T12:00	31100	11	-42.8		115	7	
2025-08-19T12:00	31150	11	-42.4		118	7	
2025-08-19T12:00	31200	11	-42.3		125	7	
2025-08-19T12:00	31250	11	-42.4		133	7	
2025-08-19T12:00	31300	10	-42.2		140	8	
2025-08-19T12:00	31350	10	-42.0		145	8	
2025-08-19T12:00	31400	10	-41.9		149	7	
2025-08-19T12:00	31450	10	-41.5		149	5	
2025-08-19T12:00	31500	10	-40.9		143	4	
2025-08-19T12:00	31550	10	-40.5		135	4	
2025-08-19T12:00	31600	10	-40.0		131	5	
2025-08-19T12:00	31650	10	-39.6		131	5	
2025-08-19T12:00	31700	10	-39.6		128	6	
2025-08-19T12:00	31750	10	-39.6		125	6	
2025-08-19T12:00	31800	10	-39.7		122	6	
2025-08-19T12:00	31850	10	-39.8		122	6	
2025-08-19T12:00	31900	10	-39.9		124	6	
2025-08-19T12:00	31950	10	-40.1		125	6	
2025-08-19T12:00	32000	9	-40.3		125	6	
2025-08-19T12:00	32050	9	-40.2		126	7	
2025-08-19T12:00	32100	9	-39.8		128	7	
2025-08-19T12:00	32150	9	-39.4		131	8	
2025-08-19T12:00	32200	9	-39.1		132	8	
2025-08-19T12:00	32250	9	-39.2		132	8	
2025-08-19T12:00	32300	9	-39.4		130	7	
2025-08-19T12:00	32350	9	-39.4		127	7	
2025-08-19T12:00	32400	9	-39.3		124	6	
2025-08-19T12:00	32450	9	-39.2		118	6	
2025-08-19T12:00	32500	9	-39.1		111	6	
2025-08-19T12:00	32550	9	-38.8		109	6	
2025-08-19T12:00	32600	9	-38.2		113	7	
2025-08-19T12:00	32650	9	-37.8		121	6	
2025-08-19T12:00	32700	9	-37.6		127	6	
2025-08-19T12:00	32750	8	-37.6		128	6	
2025-08-19T12:00	32800	8	-37.5		128	6	
2025-08-19T12:00	32850	8	-37.3		129	5	
2025-08-19T12:00	32900	8	-37.4		124	5	
2025-08-19T12:00	32950	8	-37.5		109	4	
2025-08-19T12:00	33000	8	-37.4		83	4	
2025-08-19T12:00	33050	8	-37.3		60	5	
2025-08-19T12:00	33100	8	-37.0		51	6	
2025-08-19T12:00	33150	8	-36.8		49	8	
2025-08-19T12:00	33200	8	-36.7		51	9	
2025-08-19T12:00	33250	8	-36.5		56	9	
2025-08-19T12:00	33300	8	-36.5		62	10	
2025-08-19T12:00	33350	8	-36.6		67	10	
2025-08-19T12:00	33400	8	-36.8		72	10	
2025-08-19T12:00	33450	8	-37.0		78	11	
2025-08-19T12:00	33500	8	-37.3		84	11	
2025-08-19T12:00	33550	8	-37.5		90	11	
2025-08-19T12:00	33600	7	-37.7		95	11	
2025-08-19T12:00	33650	7	-37.9		101	11	
2025-08-19T12:00	33700	7	-38.0		108	11	
2025-08-19T12:00	33750	7	-37.8		115	10	
2025-08-19T12:00	33800	7	-37.6		121	9	
2025-08-19T12:00	33850	7	-37.4		125	8	
2025-08-19T12:00	33900	7	-37.5		127	6	
2025-08-19T12:00	33950	7	-37.6		123	5	
2025-08-19T12:00	34000	7	-37.6		114	5	
2025-08-19T12:00	34050	7	-37.4		97	4	
2025-08-19T12:00	34100	7	-37.3		77	5	
2025-08-19T12:00	34150	7	-37.0		65	6	
2025-08-19T12:00	34200	7	-36.8		67	7	
2025-08-19T12:00	34250	7	-36.3		75	8	
2025-08-19T12:00	34300	7	-35.7		81	8	
2025-08-19T12:00	34350	7	-35.2		84	9	
2025-08-19T12:00	34400	7	-34.6		86	10	
2025-08-19T12:00	34450	7	-34.1		90	10	
2025-08-19T12:00	34500	7	-34.0		94	10	
2025-08-19T12:00	34550	7	-33.9		98	10	
2025-08-19T12:00	34600	6	-33.8		103	11	
2025-08-19T12:00	34650	6	-33.7		106	11	
2025-08-19T12:00	34700	6	-33.7		108	10	
2025-08-19T12:00	34750	6	-34.0		109	9	
2025-08-19T12:00	34800	6	-34.1		110	8	
2025-08-19T12:00	34850	6	-34.2		112	8	
2025-08-19T12:00	34900	6	-34.5		112	7	
2025-08-19T12:00	34950	6	-34.8		109	7	
2025-08-19T12:00	35000	6	-34.6		104	7	
2025-08-19T12:00	35050	6	-34.1		102	7	
2025-08-19T12:00	35100	6	-33.9		105	8	
2025-08-19T12:00	35150	6	-33.6		107	7	
2025-08-19T12:00	35200	6	-33.3		107	6	
2025-08-19T12:00	35250	6	-33.0		106	6	
2025-08-20T00:00	491	956	18.0	17.4	186	1	
2025-08-20T00:00	501	954	18.2	17.2	189	2	
2025-08-20T00:00	520	953	18.2	17.0	192	2	
2025-08-20T00:00	540	951	18.2	16.4	196	3	
2025-08-20T00:00	560	949	18.4	16.1	202	3	
2025-08-20T00:00	580	946	18.2	16.4	208	3	
2025-08-20T00:00	600	944	18.0	16.6	216	2	
2025-08-20T00:00	620	942	18.3	16.2	226	2	
2025-08-20T00:00	640	940	18.2	16.1	238	1	
2025-08-20T00:00	660	938	18.3	15.7	253	1	
2025-08-20T00:00	680	936	18.3	15.4	279	1	
2025-08-20T00:00	700	933	18.2	15.4	323	0	
2025-08-20T00:00	720	931	18.1	15.4	360	1	
2025-08-20T00:00	740	929	18.0	15.3	19	1	
2025-08-20T00:00	760	927	17.8	15.2	27	1	
2025-08-20T00:00	780	925	17.7	15.1	28	1	
2025-08-20T00:00	800	923	17.6	15.0	25	1	
2025-08-20T00:00	820	920	17.4	14.9	15	0	
2025-08-20T00:00	840	918	17.3	14.8	353	0	
2025-08-20T00:00	860	916	17.2	14.8	309	0	
2025-08-20T00:00	880	914	17.0	14.7	248	0	
2025-08-20T00:00	900	912	17.0	14.8	208	0	
2025-08-20T00:00	920	910	16.8	14.8	179	0	
2025-08-20T00:00	940	908	16.7	14.7	154	0	
2025-08-20T00:00	960	905	16.6	14.5	132	1	
2025-08-20T00:00	980	903	16.4	14.6	120	1	
2025-08-20T00:00	1000	901	16.3	14.5	116	1	
2025-08-20T00:00	1020	899	16.3	13.9	111	1	
2025-08-20T00:00	1040	897	16.3	13.6	106	1	
2025-08-20T00:00	1060	895	16.3	13.3	100	1	
2025-08-20T00:00	1080	893	16.3	13.0	93	1	
2025-08-20T00:00	1100	891	16.1	12.8	87	1	
2025-08-20T00:00	1120	889	16.0	12.8	80	1	
2025-08-20T00:00	1140	886	15.8	12.8	72	1	
2025-08-20T00:00	1160	884	15.6	12.8	69	1	
2025-08-20T00:00	1180	882	15.6	12.7	68	1	
2025-08-20T00:00	1200	880	15.5	12.5	70	1	
2025-08-20T00:00	1220	878	15.5	12.4	75	1	
2025-08-20T00:00	1240	876	15.4	12.5	83	1	
2025-08-20T00:00	1260	874	15.3	12.5	93	0	
2025-08-20T00:00	1280	872	15.2	12.0	103	0	
2025-08-20T00:00	1300	870	15.2	11.9	112	0	
2025-08-20T00:00	1320	868	15.0	12.0	120	0	
2025-08-20T00:00	1340	866	14.9	12.0	170	0	
2025-08-20T00:00	1360	864	14.7	12.0	233	0	
2025-08-20T00:00	1380	862	14.5	12.0	228	0	
2025-08-20T00:00	1400	860	14.3	12.0	219	0	
2025-08-20T00:00	1420	858	14.2	12.2	206	0	
2025-08-20T00:00	1440	856	14.0	12.2	191	1	
2025-08-20T00:00	1460	853	13.9	12.2	178	1	
2025-08-20T00:00	1480	851	13.8	12.2	167	1	
2025-08-20T00:00	1500	850	13.7	12.3	161	1	
2025-08-20T00:00	1520	848	13.6	12.2	157	1	
2025-08-20T00:00	1540	846	13.5	12.0	155	2	
2025-08-20T00:00	1560	843	13.6	11.4	155	2	
2025-08-20T00:00	1580	842	13.5	11.4	156	3	
2025-08-20T00:00	1600	840	13.3	11.3	158	3	
2025-08-20T00:00	1620	838	13.3	11.0	162	3	
2025-08-20T00:00	1640	836	13.2	10.7	166	3	
2025-08-20T00:00	1660	834	13.2	10.6	171	3	
2025-08-20T00:00	1680	832	13.1	10.3	174	3	
2025-08-20T00:00	1700	830	12.9	10.3	178	3	
2025-08-20T00:00	1720	828	12.7	10.3	182	3	
2025-08-20T00:00	1740	826	12.5	10.1	186	3	
2025-08-20T00:00	1760	824	12.4	10.0	191	3	
2025-08-20T00:00	1780	822	12.3	9.9	196	4	
2025-08-20T00:00	1800	820	12.2	9.7	200	4	
2025-08-20T00:00	1820	818	12.1	9.6	203	4	
2025-08-20T00:00	1840	816	11.9	9.4	206	4	
2025-08-20T00:00	1860	814	11.8	9.3	208	4	
2025-08-20T00:00	1880	812	11.7	9.3	208	4	
2025-08-20T00:00	1900	810	11.5	9.2	209	4	
2025-08-20T00:00	1920	808	11.3	9.1	210	4	
2025-08-20T00:00	1940	807	11.1	9.1	212	4	
2025-08-20T00:00	1960	805	11.0	9.1	216	4	
2025-08-20T00:00	1980	802	10.8	9.0	222	4	
2025-08-20T00:00	2000	800	10.6	9.0	228	4	
2025-08-20T00:00	2020	798	10.4	9.0	234	5	
2025-08-20T00:00	2040	797	10.2	9.0	238	5	
2025-08-20T00:00	2060	795	10.0	8.8	242	5	
2025-08-20T00:00	2080	793	9.8	8.8	244	5	
2025-08-20T00:00	2100	791	9.6	8.8	245	6	
2025-08-20T00:00	2120	789	9.4	8.7	244	6	
2025-08-20T00:00	2140	787	9.3	8.6	243	6	
2025-08-20T00:00	2160	785	9.1	8.6	241	7	
2025-08-20T00:00	2180	783	8.9	8.5	240	7	
2025-08-20T00:00	2200	782	8.8	8.2	240	7	
2025-08-20T00:00	2220	780	8.8	7.9	240	7	
2025-08-20T00:00	2240	778	8.6	7.7	241	7	
2025-08-20T00:00	2260	776	8.6	7.2	242	7	
2025-08-20T00:00	2280	774	8.5	7.1	243	7	
2025-08-20T00:00	2300	772	8.4	6.9	243	7	
2025-08-20T00:00	2320	770	8.4	6.7	241	7	
2025-08-20T00:00	2340	768	8.2	6.5	239	7	
2025-08-20T00:00	2360	766	8.1	6.3	236	7	
2025-08-20T00:00	2380	765	8.0	6.1	234	7	
2025-08-20T00:00	2400	763	7.9	6.1	231	7	
2025-08-20T00:00	2420	761	7.7	6.1	228	7	
2025-08-20T00:00	2440	759	7.5	5.9	226	7	
2025-08-20T00:00	2460	757	7.3	5.8	224	7	
2025-08-20T00:00	2480	756	7.2	5.7	222	7	
2025-08-20T00:00	2500	754	7.0	5.7	221	7	
2025-08-20T00:00	2520	752	6.9	5.5	219	6	
2025-08-20T00:00	2540	750	6.8	5.0	216	6	
2025-08-20T00:00	2560	748	6.6	5.1	213	6	
2025-08-20T00:00	2580	747	6.5	5.1	208	6	
2025-08-20T00:00	2600	745	6.4	4.7	204	6	
2025-08-20T00:00	2620	743	6.2	4.5	200	6	
2025-08-20T00:00	2640	741	6.1	4.5	197	7	
2025-08-20T00:00	2660	739	5.9	4.6	195	7	
2025-08-20T00:00	2680	737	5.8	4.7	194	7	
2025-08-20T00:00	2700	736	5.6	4.9	193	7	
2025-08-20T00:00	2720	734	5.5	5.0	193	7	
2025-08-20T00:00	2740	732	5.5	4.5	193	7	
2025-08-20T00:00	2760	730	5.4	4.4	192	7	
2025-08-20T00:00	2780	728	5.6	4.0	191	6	
2025-08-20T00:00	2800	727	5.8	3.2	190	5	
2025-08-20T00:00	2820	725	5.7	2.8	191	5	
2025-08-20T00:00	2840	723	5.8	2.4	193	5	
2025-08-20T00:00	2860	721	5.7	2.2	199	4	
2025-08-20T00:00	2880	720	5.6	2.1	207	4	
2025-08-20T00:00	2900	718	5.5	1.8	213	5	
2025-08-20T00:00	2920	716	5.5	1.4	219	5	
2025-08-20T00:00	2940	714	5.5	0.9	221	6	
2025-08-20T00:00	2960	713	5.4	0.7	221	7	
2025-08-20T00:00	2980	711	5.3	0.5	220	8	
2025-08-20T00:00	3000	709	5.2	0.5	219	8	
2025-08-20T00:00	3020	707	5.0	0.3	218	8	
2025-08-20T00:00	3040	706	4.9	0.0	217	8	
2025-08-20T00:00	3060	704	4.8	0.0	216	8	
2025-08-20T00:00	3080	702	4.7	-0.1	216	8	
2025-08-20T00:00	3100	700	4.6	-0.2	216	7	
2025-08-20T00:00	3120	699	4.5	-0.2	216	7	
2025-08-20T00:00	3140	697	4.3	-0.2	217	7	
2025-08-20T00:00	3160	695	4.1	-0.3	217	6	
2025-08-20T00:00	3180	694	3.9	-0.3	219	6	
2025-08-20T00:00	3200	692	3.7	-0.2	220	6	
2025-08-20T00:00	3220	690	3.6	-0.2	223	6	
2025-08-20T00:00	3240	689	3.4	-0.2	225	7	
2025-08-20T00:00	3260	687	3.2	-0.2	226	7	
2025-08-20T00:00	3280	685	3.1	-0.2	226	7	
2025-08-20T00:00	3300	684	2.9	-0.2	226	8	
2025-08-20T00:00	3320	682	2.8	-0.2	224	8	
2025-08-20T00:00	3340	680	2.7	-0.2	222	8	
2025-08-20T00:00	3360	678	2.5	-0.3	221	8	
2025-08-20T00:00	3380	677	2.4	-0.3	220	8	
2025-08-20T00:00	3400	675	2.3	-0.4	221	8	
2025-08-20T00:00	3420	673	2.2	-0.5	224	9	
2025-08-20T00:00	3440	672	2.2	-0.6	227	9	
2025-08-20T00:00	3460	670	2.2	-0.8	230	9	
2025-08-20T00:00	3480	668	2.1	-0.9	232	9	
2025-08-20T00:00	3500	667	1.9	-0.7	235	9	
2025-08-20T00:00	3520	665	1.7	-0.9	236	9	
2025-08-20T00:00	3540	664	1.7	-1.2	237	9	
2025-08-20T00:00	3560	662	1.5	-1.4	237	9	
2025-08-20T00:00	3580	660	1.4	-1.4	237	9	
2025-08-20T00:00	3600	658	1.2	-1.6	239	9	
2025-08-20T00:00	3620	657	1.1	-1.9	240	9	
2025-08-20T00:00	3640	655	1.0	-2.3	242	9	
2025-08-20T00:00	3660	654	0.9	-2.4	244	9	
2025-08-20T00:00	3680	652	0.8	-2.4	245	9	
2025-08-20T00:00	3700	650	0.6	-2.4	245	9	
2025-08-20T00:00	3720	649	0.4	-2.6	245	9	
2025-08-20T00:00	3740	647	0.3	-3.0	245	9	
2025-08-20T00:00	3760	645	0.2	-3.2	244	9	
2025-08-20T00:00	3780	644	0.1	-3.4	244	9	
2025-08-20T00:00	3800	642	0.0	-3.4	243	9	
2025-08-20T00:00	3820	641	-0.1	-3.4	242	9	
2025-08-20T00:00	3840	639	-0.3	-3.4	240	9	
2025-08-20T00:00	3860	638	-0.5	-3.5	238	10	
2025-08-20T00:00	3880	636	-0.6	-3.4	236	10	
2025-08-20T00:00	3900	634	-0.8	-3.5	234	11	
2025-08-20T00:00	3920	633	-0.9	-3.5	232	11	
2025-08-20T00:00	3940	631	-1.1	-3.5	230	11	
2025-08-20T00:00	3960	630	-1.2	-3.5	226	12	
2025-08-20T00:00	3980	628	-1.2	-3.6	223	12	
2025-08-20T00:00	4000	626	-1.1	-3.6	220	12	
2025-08-20T00:00	4020	625	-1.1	-3.8	218	12	
2025-08-20T00:00	4040	623	-1.1	-4.1	216	12	
2025-08-20T00:00	4060	622	-1.1	-4.3	215	11	
2025-08-20T00:00	4080	620	-1.1	-3.8	214	11	
2025-08-20T00:00	4100	619	-1.2	-3.8	215	10	
2025-08-20T00:00	4120	617	-1.4	-3.5	217	9	
2025-08-20T00:00	4140	615	-1.5	-3.2	218	9	
2025-08-20T00:00	4160	614	-1.6	-3.1	217	9	
2025-08-20T00:00	4180	612	-1.6	-3.0	215	9	
2025-08-20T00:00	4200	611	-1.6	-3.4	212	9	
2025-08-20T00:00	4220	609	-1.5	-3.7	209	9	
2025-08-20T00:00	4240	608	-1.6	-3.6	207	10	
2025-08-20T00:00	4260	606	-1.7	-3.7	206	10	
2025-08-20T00:00	4280	605	-1.9	-3.7	205	10	
2025-08-20T00:00	4300	603	-2.1	-3.7	205	10	
2025-08-20T00:00	4320	602	-2.2	-3.8	204	9	
2025-08-20T00:00	4340	600	-2.3	-4.0	203	9	
2025-08-20T00:00	4360	599	-2.4	-4.1	203	9	
2025-08-20T00:00	4380	597	-2.5	-4.1	201	9	
2025-08-20T00:00	4400	596	-2.6	-4.4	200	9	
2025-08-20T00:00	4420	594	-2.7	-4.6	199	8	
2025-08-20T00:00	4440	593	-2.7	-4.8	198	8	
2025-08-20T00:00	4460	591	-2.8	-5.0	197	9	
2025-08-20T00:00	4480	590	-2.8	-5.2	196	9	
2025-08-20T00:00	4500	588	-2.9	-5.3	195	9	
2025-08-20T00:00	4520	587	-3.1	-5.4	194	9	
2025-08-20T00:00	4540	585	-3.3	-5.5	193	9	
2025-08-20T00:00	4560	584	-3.4	-5.6	193	9	
2025-08-20T00:00	4580	582	-3.5	-5.7	194	9	
2025-08-20T00:00	4600	581	-3.7	-5.7	195	10	
2025-08-20T00:00	4620	579	-3.8	-5.9	196	10	
2025-08-20T00:00	4640	578	-3.9	-6.2	197	11	
2025-08-20T00:00	4660	577	-4.0	-6.1	198	11	
2025-08-20T00:00	4680	575	-4.2	-6.1	199	11	
2025-08-20T00:00	4700	574	-4.4	-6.1	199	11	
2025-08-20T00:00	4720	572	-4.5	-6.2	198	11	
2025-08-20T00:00	4740	571	-4.7	-6.3	197	11	
2025-08-20T00:00	4760	570	-4.8	-6.3	195	11	
2025-08-20T00:00	4780	568	-4.9	-6.5	193	11	
2025-08-20T00:00	4800	566	-5.1	-6.6	191	11	
2025-08-20T00:00	4820	565	-5.2	-6.7	189	11	
2025-08-20T00:00	4840	564	-5.3	-6.9	188	11	
2025-08-20T00:00	4860	562	-5.5	-7.0	188	11	
2025-08-20T00:00	4880	561	-5.6	-7.1	188	11	
2025-08-20T00:00	4900	559	-5.7	-7.2	188	11	
2025-08-20T00:00	4920	558	-5.9	-7.3	189	11	
2025-08-20T00:00	4940	556	-6.0	-7.4	189	11	
2025-08-20T00:00	4960	555	-6.1	-7.5	188	11	
2025-08-20T00:00	4980	554	-6.3	-7.7	188	11	
2025-08-20T00:00	5000	552	-6.3	-7.9	187	11	
2025-08-20T00:00	5020	551	-6.5	-8.0	186	11	
2025-08-20T00:00	5040	549	-6.6	-8.0	185	11	
2025-08-20T00:00	5060	548	-6.7	-8.1	185	11	
2025-08-20T00:00	5080	547	-6.9	-8.2	185	11	
2025-08-20T00:00	5100	545	-7.1	-8.3	185	11	
2025-08-20T00:00	5120	544	-7.2	-8.3	185	12	
2025-08-20T00:00	5140	542	-7.3	-8.3	185	12	
2025-08-20T00:00	5160	541	-7.5	-8.6	185	12	
2025-08-20T00:00	5180	540	-7.6	-8.6	185	11	
2025-08-20T00:00	5200	538	-7.8	-8.7	184	11	
2025-08-20T00:00	5220	537	-7.9	-8.8	183	11	
2025-08-20T00:00	5240	535	-8.0	-8.9	181	11	
2025-08-20T00:00	5260	534	-8.2	-9.0	180	10	
2025-08-20T00:00	5280	533	-8.3	-9.1	180	10	
2025-08-20T00:00	5300	531	-8.4	-9.1	179	10	
2025-08-20T00:00	5320	530	-8.4	-9.3	180	10	
2025-08-20T00:00	5340	529	-8.5	-9.4	181	10	
2025-08-20T00:00	5360	527	-8.6	-9.4	183	10	
2025-08-20T00:00	5380	526	-8.8	-9.4	186	10	
2025-08-20T00:00	5400	524	-9.1	-9.5	188	10	
2025-08-20T00:00	5420	523	-9.2	-9.7	190	10	
2025-08-20T00:00	5440	522	-9.3	-9.8	192	10	
2025-08-20T00:00	5460	521	-9.5	-9.9	191	10	
2025-08-20T00:00	5480	519	-9.6	-9.9	189	10	
2025-08-20T00:00	5500	518	-9.8	-10.0	188	10	
2025-08-20T00:00	5520	516	-9.9	-10.2	186	11	
2025-08-20T00:00	5540	515	-10.1	-10.6	185	11	
2025-08-20T00:00	5560	514	-10.2	-10.8	185	10	
2025-08-20T00:00	5580	512	-10.4	-10.7	185	10	
2025-08-20T00:00	5600	511	-10.5	-11.1	186	9	
2025-08-20T00:00	5620	510	-10.6	-11.2	187	9	
2025-08-20T00:00	5640	509	-10.8	-11.5	188	9	
2025-08-20T00:00	5660	507	-10.9	-11.6	190	8	
2025-08-20T00:00	5680	506	-11.0	-11.8	192	8	
2025-08-20T00:00	5700	504	-11.2	-11.8	194	9	
2025-08-20T00:00	5720	503	-11.3	-11.9	194	9	
2025-08-20T00:00	5740	502	-11.3	-12.2	194	9	
2025-08-20T00:00	5760	501	-11.3	-12.4	193	9	
2025-08-20T00:00	5780	499	-11.4	-12.6	192	10	
2025-08-20T00:00	5800	498	-11.5	-12.7	190	10	
2025-08-20T00:00	5820	497	-11.6	-12.8	189	10	
2025-08-20T00:00	5840	495	-11.7	-12.9	188	10	
2025-08-20T00:00	5860	494	-11.8	-12.9	188	11	
2025-08-20T00:00	5880	493	-11.8	-13.0	188	11	
2025-08-20T00:00	5900	492	-11.8	-13.2	188	11	
2025-08-20T00:00	5920	490	-11.9	-13.4	189	11	
2025-08-20T00:00	5940	489	-11.9	-13.6	189	12	
2025-08-20T00:00	5960	488	-12.0	-13.9	190	12	
2025-08-20T00:00	5980	486	-12.1	-14.3	191	12	
2025-08-20T00:00	6000	485	-12.2	-14.5	192	12	
2025-08-20T00:00	6020	484	-12.4	-14.8	193	12	
2025-08-20T00:00	6040	483	-12.4	-15.4	194	12	
2025-08-20T00:00	6060	481	-12.5	-15.7	195	13	
2025-08-20T00:00	6080	480	-12.6	-16.0	195	13	
2025-08-20T00:00	6100	479	-12.6	-16.5	195	13	
2025-08-20T00:00	6120	478	-12.7	-16.8	196	13	
2025-08-20T00:00	6140	476	-12.8	-17.0	195	13	
2025-08-20T00:00	6160	475	-13.0	-17.2	195	13	
2025-08-20T00:00	6180	474	-13.1	-17.2	195	13	
2025-08-20T00:00	6200	473	-13.2	-17.5	195	13	
2025-08-20T00:00	6220	471	-13.3	-17.7	195	13	
2025-08-20T00:00	6240	470	-13.4	-17.8	195	13	
2025-08-20T00:00	6260	469	-13.6	-17.9	195	13	
2025-08-20T00:00	6280	468	-13.7	-18.0	194	12	
2025-08-20T00:00	6300	466	-13.9	-18.0	193	12	
2025-08-20T00:00	6320	465	-14.1	-18.1	191	12	
2025-08-20T00:00	6340	464	-14.1	-18.3	189	12	
2025-08-20T00:00	6360	463	-14.1	-18.5	187	12	
2025-08-20T00:00	6380	461	-14.3	-18.5	186	12	
2025-08-20T00:00	6400	460	-14.4	-18.5	185	12	
2025-08-20T00:00	6420	459	-14.6	-18.5	185	12	
2025-08-20T00:00	6440	458	-14.7	-18.6	185	12	
2025-08-20T00:00	6460	457	-14.9	-18.7	185	12	
2025-08-20T00:00	6480	456	-15.1	-18.8	185	12	
2025-08-20T00:00	6500	454	-15.3	-18.8	184	12	
2025-08-20T00:00	6520	453	-15.4	-18.8	183	12	
2025-08-20T00:00	6540	452	-15.6	-18.9	183	12	
2025-08-20T00:00	6560	451	-15.8	-19.0	182	12	
2025-08-20T00:00	6580	449	-16.0	-19.1	181	12	
2025-08-20T00:00	6600	448	-16.2	-19.2	180	11	
2025-08-20T00:00	6620	447	-16.4	-19.0	180	11	
2025-08-20T00:00	6640	446	-16.6	-19.2	181	11	
2025-08-20T00:00	6660	445	-16.5	-19.9	181	11	
2025-08-20T00:00	6680	444	-16.6	-19.9	180	11	
2025-08-20T00:00	6700	442	-16.8	-19.8	179	11	
2025-08-20T00:00	6720	441	-16.9	-19.9	178	12	
2025-08-20T00:00	6740	440	-17.0	-20.0	177	12	
2025-08-20T00:00	6760	439	-17.0	-20.1	175	12	
2025-08-20T00:00	6780	438	-17.1	-20.3	175	12	
2025-08-20T00:00	6800	437	-17.2	-20.4	174	12	
2025-08-20T00:00	6820	435	-17.4	-20.5	173	12	
2025-08-20T00:00	6840	434	-17.6	-20.7	172	12	
2025-08-20T00:00	6860	433	-17.7	-21.3	172	11	
2025-08-20T00:00	6880	432	-17.8	-21.7	171	11	
2025-08-20T00:00	6900	431	-18.0	-21.7	169	11	
2025-08-20T00:00	6920	430	-18.2	-21.8	168	11	
2025-08-20T00:00	6940	428	-18.3	-21.8	166	11	
2025-08-20T00:00	6960	427	-18.5	-21.9	165	11	
2025-08-20T00:00	6980	426	-18.7	-22.0	164	11	
2025-08-20T00:00	7000	425	-18.9	-22.1	163	11	
2025-08-20T00:00	7020	424	-19.0	-22.1	163	11	
2025-08-20T00:00	7040	423	-19.2	-22.1	163	11	
2025-08-20T00:00	7060	422	-19.4	-22.1	164	11	
2025-08-20T00:00	7080	420	-19.6	-22.2	165	11	
2025-08-20T00:00	7100	419	-19.8	-22.3	166	11	
2025-08-20T00:00	7120	418	-20.0	-22.3	167	11	
2025-08-20T00:00	7140	417	-20.2	-22.5	169	11	
2025-08-20T00:00	7160	416	-20.3	-22.4	171	11	
2025-08-20T00:00	7180	415	-20.5	-22.4	173	11	
2025-08-20T00:00	7200	414	-20.7	-22.4	175	12	
2025-08-20T00:00	7220	413	-20.9	-22.4	177	12	
2025-08-20T00:00	7240	411	-21.1	-22.5	180	12	
2025-08-20T00:00	7260	410	-21.3	-22.8	181	12	
2025-08-20T00:00	7280	409	-21.4	-22.9	182	12	
2025-08-20T00:00	7300	408	-21.6	-22.9	183	12	
2025-08-20T00:00	7320	407	-21.8	-22.9	184	11	
2025-08-20T00:00	7340	406	-22.0	-23.1	184	11	
2025-08-20T00:00	7360	405	-22.1	-23.5	183	11	
2025-08-20T00:00	7380	404	-22.3	-23.7	183	11	
2025-08-20T00:00	7400	403	-22.4	-24.0	182	10	
2025-08-20T00:00	7420	402	-22.5	-24.5	182	10	
2025-08-20T00:00	7440	400	-22.7	-24.7	181	10	
2025-08-20T00:00	7460	399	-22.9	-25.0	181	10	
2025-08-20T00:00	7480	398	-23.0	-25.2	181	10	
2025-08-20T00:00	7500	397	-23.2	-25.4	182	11	
2025-08-20T00:00	7520	396	-23.3	-25.5	183	11	
2025-08-20T00:00	7540	395	-23.6	-25.6	184	11	
2025-08-20T00:00	7560	394	-23.6	-26.0	185	12	
2025-08-20T00:00	7580	393	-23.8	-26.1	186	12	
2025-08-20T00:00	7600	392	-24.0	-26.3	186	12	
2025-08-20T00:00	7620	391	-24.0	-26.9	186	13	
2025-08-20T00:00	7640	390	-24.2	-27.1	186	13	
2025-08-20T00:00	7660	389	-24.3	-26.9	186	13	
2025-08-20T00:00	7680	388	-24.5	-26.7	185	13	
2025-08-20T00:00	7700	386	-24.7	-26.8	184	13	
2025-08-20T00:00	7720	385	-24.9	-26.8	184	12	
2025-08-20T00:00	7740	384	-24.8	-27.1	184	12	
2025-08-20T00:00	7760	383	-24.8	-27.9	185	12	
2025-08-20T00:00	7780	382	-24.8	-28.8	187	12	
2025-08-20T00:00	7800	381	-24.9	-29.0	188	12	
2025-08-20T00:00	7820	380	-25.1	-29.2	189	12	
2025-08-20T00:00	7840	379	-25.2	-29.5	190	12	
2025-08-20T00:00	7860	378	-25.3	-29.8	190	12	
2025-08-20T00:00	7880	377	-25.4	-29.9	191	12	
2025-08-20T00:00	7900	376	-25.6	-29.9	191	12	
2025-08-20T00:00	7920	375	-25.8	-30.0	192	12	
2025-08-20T00:00	7940	374	-26.0	-30.1	192	12	
2025-08-20T00:00	7960	373	-26.1	-30.3	193	12	
2025-08-20T00:00	7980	372	-26.3	-30.4	193	12	
2025-08-20T00:00	8000	371	-26.5	-30.7	194	12	
2025-08-20T00:00	8020	370	-26.6	-30.7	194	12	
2025-08-20T00:00	8040	369	-26.8	-30.9	194	12	
2025-08-20T00:00	8060	368	-26.9	-31.0	193	11	
2025-08-20T00:00	8080	367	-27.1	-31.0	193	11	
2025-08-20T00:00	8100	366	-27.3	-31.0	193	11	
2025-08-20T00:00	8120	365	-27.5	-31.1	192	11	
2025-08-20T00:00	8140	364	-27.6	-31.5	192	11	
2025-08-20T00:00	8160	363	-27.7	-31.9	191	11	
2025-08-20T00:00	8180	362	-27.9	-31.9	191	11	
2025-08-20T00:00	8200	361	-28.1	-32.0	191	11	
2025-08-20T00:00	8220	360	-28.2	-32.3	191	11	
2025-08-20T00:00	8240	359	-28.3	-32.6	191	11	
2025-08-20T00:00	8260	358	-28.5	-32.5	190	10	
2025-08-20T00:00	8280	357	-28.6	-32.5	190	10	
2025-08-20T00:00	8300	356	-28.8	-32.6	190	10	
2025-08-20T00:00	8320	355	-28.9	-33.4	190	10	
2025-08-20T00:00	8340	354	-29.0	-34.4	189	10	
2025-08-20T00:00	8360	353	-29.1	-34.4	188	10	
2025-08-20T00:00	8380	352	-29.3	-34.3	187	10	
2025-08-20T00:00	8400	351	-29.5	-34.4	186	10	
2025-08-20T00:00	8420	350	-29.7	-34.4	184	11	
2025-08-20T00:00	8440	349	-29.9	-34.2	183	11	
2025-08-20T00:00	8460	348	-30.1	-34.5	181	11	
2025-08-20T00:00	8480	347	-30.3	-34.5	180	11	
2025-08-20T00:00	8500	346	-30.5	-34.5	179	11	
2025-08-20T00:00	8520	345	-30.7	-34.4	179	11	
2025-08-20T00:00	8540	344	-30.8	-34.8	179	11	
2025-08-20T00:00	8560	343	-31.0	-34.9	178	11	
2025-08-20T00:00	8580	342	-31.2	-34.9	177	11	
2025-08-20T00:00	8600	341	-31.4	-34.9	177	11	
2025-08-20T00:00	8620	340	-31.6	-35.0	177	11	
2025-08-20T00:00	8640	339	-31.8	-34.9	178	11	
2025-08-20T00:00	8660	338	-31.9	-35.0	179	12	
2025-08-20T00:00	8680	337	-32.1	-35.1	180	12	
2025-08-20T00:00	8700	336	-32.3	-35.6	181	12	
2025-08-20T00:00	8720	335	-32.4	-36.2	182	13	
2025-08-20T00:00	8740	334	-32.6	-36.4	183	13	
2025-08-20T00:00	8760	333	-32.8	-36.4	183	13	
2025-08-20T00:00	8780	332	-33.0	-36.4	184	13	
2025-08-20T00:00	8800	331	-33.1	-36.5	184	13	
2025-08-20T00:00	8820	331	-33.3	-36.6	185	13	
2025-08-20T00:00	8840	330	-33.5	-36.7	186	12	
2025-08-20T00:00	8860	329	-33.7	-37.0	186	12	
2025-08-20T00:00	8880	328	-33.9	-37.2	187	12	
2025-08-20T00:00	8900	327	-34.1	-37.0	187	12	
2025-08-20T00:00	8920	326	-34.3	-37.1	187	11	
2025-08-20T00:00	8940	325	-34.4	-37.1	187	11	
2025-08-20T00:00	8960	324	-34.6	-37.2	187	11	
2025-08-20T00:00	8980	323	-34.8	-37.5	187	11	
2025-08-20T00:00	9000	322	-35.0	-37.9	188	11	
2025-08-20T00:00	9020	321	-35.2	-37.7	189	12	
2025-08-20T00:00	9040	320	-35.4	-38.2	190	12	
2025-08-20T00:00	9060	319	-35.6	-38.8	191	12	
2025-08-20T00:00	9080	318	-35.8	-39.0	192	13	
2025-08-20T00:00	9100	317	-35.9	-39.2	192	13	
2025-08-20T00:00	9120	317	-36.1	-39.3	192	13	
2025-08-20T00:00	9140	316	-36.3	-39.5	192	13	
2025-08-20T00:00	9160	315	-36.5	-39.5	191	13	
2025-08-20T00:00	9180	314	-36.7	-39.6	191	13	
2025-08-20T00:00	9200	313	-36.9	-39.7	190	13	
2025-08-20T00:00	9220	312	-37.0	-40.0	190	13	
2025-08-20T00:00	9240	311	-37.2	-40.0	189	13	
2025-08-20T00:00	9260	310	-37.3	-40.1	189	13	
2025-08-20T00:00	9280	309	-37.5	-40.3	189	13	
2025-08-20T00:00	9300	309	-37.7	-40.4	188	13	
2025-08-20T00:00	9320	308	-37.8	-40.4	188	13	
2025-08-20T00:00	9340	307	-38.0	-40.6	188	13	
2025-08-20T00:00	9360	306	-38.2	-40.7	188	13	
2025-08-20T00:00	9380	305	-38.4	-41.0	187	13	
2025-08-20T00:00	9400	304	-38.5	-41.2	186	13	
2025-08-20T00:00	9420	303	-38.7	-41.6	186	12	
2025-08-20T00:00	9440	302	-38.9	-42.5	185	12	
2025-08-20T00:00	9460	301	-39.0	-43.0	185	12	
2025-08-20T00:00	9480	301	-39.2	-43.3	185	12	
2025-08-20T00:00	9500	300	-39.4	-43.7	185	12	
2025-08-20T00:00	9520	299	-39.6	-43.9	185	12	
2025-08-20T00:00	9540	298	-39.7	-44.3	185	12	
2025-08-20T00:00	9560	297	-39.9	-44.7	185	12	
2025-08-20T00:00	9580	296	-40.1	-44.6	185	13	
2025-08-20T00:00	9600	295	-40.2	-44.6	185	13	
2025-08-20T00:00	9620	294	-40.5	-44.9	185	13	
2025-08-20T00:00	9640	294	-40.7	-44.9	185	13	
2025-08-20T00:00	9660	293	-40.9	-44.9	184	13	
2025-08-20T00:00	9680	292	-41.0	-45.1	184	13	
2025-08-20T00:00	9700	291	-41.2	-45.2	183	13	
2025-08-20T00:00	9720	290	-41.4	-45.4	182	13	
2025-08-20T00:00	9740	289	-41.6	-45.8	182	14	
2025-08-20T00:00	9760	288	-41.7	-45.9	181	14	
2025-08-20T00:00	9780	288	-41.9	-46.1	181	14	
2025-08-20T00:00	9800	287	-41.9	-46.3	181	14	
2025-08-20T00:00	9820	286	-42.0	-46.5	182	15	
2025-08-20T00:00	9840	285	-42.2	-46.8	182	15	
2025-08-20T00:00	9860	284	-42.4	-46.8	182	15	
2025-08-20T00:00	9880	283	-42.6	-46.9	183	15	
2025-08-20T00:00	9900	282	-42.7	-47.1	183	14	
2025-08-20T00:00	9920	282	-42.9	-47.2	183	15	
2025-08-20T00:00	9940	281	-43.1	-47.4	182	15	
2025-08-20T00:00	9960	280	-43.3	-47.6	182	15	
2025-08-20T00:00	9980	279	-43.5	-47.8	182	15	
2025-08-20T00:00	10000	278	-43.6	-48.5	182	15	
2025-08-20T00:00	10018	278	-43.8	-49.2	181	15	
2025-08-20T00:00	10050	276	-44.0	-49.3	181	16	
2025-08-20T00:00	10100	274	-44.4	-49.1	180	16	
2025-08-20T00:00	10150	272	-44.9	-49.6	179	16	
2025-08-20T00:00	10200	270	-45.3	-50.1	178	16	
2025-08-20T00:00	10250	268	-45.7	-50.9	177	16	
2025-08-20T00:00	10300	266	-46.2	-51.5	175	16	
2025-08-20T00:00	10350	264	-46.6	-52.6	175	17	
2025-08-20T00:00	10400	262	-46.9	-53.3	175	17	
2025-08-20T00:00	10450	260	-47.2	-53.7	175	18	
2025-08-20T00:00	10500	258	-47.6	-53.9	176	19	
2025-08-20T00:00	10550	256	-48.0	-53.6	177	19	
2025-08-20T00:00	10600	254	-48.5	-54.1	177	19	
2025-08-20T00:00	10650	252	-48.9	-54.6	177	19	
2025-08-20T00:00	10700	250	-49.4	-54.9	177	20	
2025-08-20T00:00	10750	249	-49.8	-55.0	177	20	
2025-08-20T00:00	10800	247	-50.2	-55.6	178	20	
2025-08-20T00:00	10850	245	-50.7	-56.3	179	20	
2025-08-20T00:00	10900	243	-51.2	-57.7	178	21	
2025-08-20T00:00	10950	241	-51.6	-58.4	178	21	
2025-08-20T00:00	11000	239	-52.1	-58.6	177	21	
2025-08-20T00:00	11050	237	-52.5	-59.5	177	21	
2025-08-20T00:00	11100	236	-53.0	-60.1	176	21	
2025-08-20T00:00	11150	234	-53.4	-61.0	176	21	
2025-08-20T00:00	11200	232	-53.9	-61.2	178	22	
2025-08-20T00:00	11250	230	-54.3	-61.8	179	22	
2025-08-20T00:00	11300	228	-54.8	-62.5	179	22	
2025-08-20T00:00	11350	226	-55.2	-62.1	181	22	
2025-08-20T00:00	11400	225	-55.7	-61.8	182	22	
2025-08-20T00:00	11450	223	-56.1	-61.8	183	21	
2025-08-20T00:00	11500	221	-56.5	-62.1	184	21	
2025-08-20T00:00	11550	220	-56.9	-62.5	184	20	
2025-08-20T00:00	11600	218	-57.2	-62.5	185	21	
2025-08-20T00:00	11650	216	-57.6	-62.4	186	21	
2025-08-20T00:00	11700	214	-58.1	-62.6	186	20	
2025-08-20T00:00	11750	213	-58.6	-62.6	186	20	
2025-08-20T00:00	11800	211	-59.0	-62.7	186	20	
2025-08-20T00:00	11850	209	-59.4	-63.5	187	20	
2025-08-20T00:00	11900	208	-59.6	-64.0	189	20	
2025-08-20T00:00	11950	206	-59.9	-63.9	190	20	
2025-08-20T00:00	12000	204	-60.3	-63.6	190	19	
2025-08-20T00:00	12050	203	-60.6	-63.7	187	18	
2025-08-20T00:00	12100	201	-60.7	-64.5	183	17	
2025-08-20T00:00	12150	199	-60.9	-65.5	178	17	
2025-08-20T00:00	12200	198	-61.2	-65.8	174	18	
2025-08-20T00:00	12250	196	-61.6	-65.9	173	18	
2025-08-20T00:00	12300	195	-61.9	-66.0	175	18	
2025-08-20T00:00	12350	193	-62.1	-66.2	178	18	
2025-08-20T00:00	12400	192	-62.2	-67.0	183	19	
2025-08-20T00:00	12450	190	-61.4	-68.6	188	19	
2025-08-20T00:00	12500	188	-59.9	-70.8	192	20	
2025-08-20T00:00	12550	187	-59.8	-72.3	196	20	
2025-08-20T00:00	12600	186	-60.1	-72.2	197	19	
2025-08-20T00:00	12650	184	-60.4	-72.4	199	18	
2025-08-20T00:00	12700	183	-60.7	-72.6	201	16	
2025-08-20T00:00	12750	181	-60.8	-73.6	203	13	
2025-08-20T00:00	12800	180	-59.7	-74.2	205	10	
2025-08-20T00:00	12850	178	-59.3	-75.7	207	7	
2025-08-20T00:00	12900	177	-58.3	-76.8	202	5	
2025-08-20T00:00	12950	175	-57.5	-76.2	189	6	
2025-08-20T00:00	13000	174	-57.2	-76.4	183	8	
2025-08-20T00:00	13050	173	-57.1	-73.2	180	9	
2025-08-20T00:00	13100	171	-56.2	-69.1	180	9	
2025-08-20T00:00	13150	170	-56.2	-75.4	186	10	
2025-08-20T00:00	13200	169	-55.6	-80.1	196	10	
2025-08-20T00:00	13250	167	-54.8	-79.1	205	11	
2025-08-20T00:00	13300	166	-54.2	-78.7	211	11	
2025-08-20T00:00	13350	165	-54.2	-78.7	216	11	
2025-08-20T00:00	13400	163	-53.9	-79.2	218	11	
2025-08-20T00:00	13450	162	-53.3	-80.0	217	10	
2025-08-20T00:00	13500	161	-53.5	-80.0	215	9	
2025-08-20T00:00	13550	160	-53.5	-79.7	212	10	
2025-08-20T00:00	13600	158	-53.6	-78.9	211	10	
2025-08-20T00:00	13650	157	-53.7	-78.2	213	11	
2025-08-20T00:00	13700	156	-53.8	-78.3	216	11	
2025-08-20T00:00	13750	155	-53.6	-78.9	216	11	
2025-08-20T00:00	13800	154	-53.3	-80.2	212	11	
2025-08-20T00:00	13850	152	-53.4	-80.7	208	10	
2025-08-20T00:00	13900	151	-53.0	-80.3	207	10	
2025-08-20T00:00	13950	150	-52.9	-80.2	212	10	
2025-08-20T00:00	14000	149	-53.1	-80.4	218	10	
2025-08-20T00:00	14050	148	-53.2	-80.7	225	9	
2025-08-20T00:00	14100	147	-53.3	-81.0	229	9	
2025-08-20T00:00	14150	145	-53.1	-81.2	231	9	
2025-08-20T00:00	14200	144	-53.2	-81.1	234	9	
2025-08-20T00:00	14250	143	-53.6	-81.2	239	9	
2025-08-20T00:00	14300	142	-53.7	-81.5	243	9	
2025-08-20T00:00	14350	141	-53.6	-81.8	248	8	
2025-08-20T00:00	14400	140	-53.9	-81.8	253	7	
2025-08-20T00:00	14450	139	-54.3	-82.0	258	5	
2025-08-20T00:00	14500	138	-54.4	-82.2	260	3	
2025-08-20T00:00	14550	137	-54.3	-82.2	251	3	
2025-08-20T00:00	14600	136	-54.3	-82.3	231	3	
2025-08-20T00:00	14650	134	-54.3	-82.3	204	3	
2025-08-20T00:00	14700	133	-54.1	-82.2	193	3	
2025-08-20T00:00	14750	132	-54.2	-82.2	200	5	
2025-08-20T00:00	14800	131	-54.4	-82.2	207	6	
2025-08-20T00:00	14850	130	-54.7	-82.2	209	7	
2025-08-20T00:00	14900	129	-54.9	-82.3	210	9	
2025-08-20T00:00	14950	128	-55.1	-82.5	210	9	
2025-08-20T00:00	15000	127	-54.9	-82.5	210	8	
2025-08-20T00:00	15050	126	-54.9	-82.5	212	8	
2025-08-20T00:00	15100	125	-55.3	-82.6	216	7	
2025-08-20T00:00	15150	124	-55.6	-82.8	221	7	
2025-08-20T00:00	15200	123	-55.7	-83.0	228	8	
2025-08-20T00:00	15250	122	-54.7	-82.8	230	9	
2025-08-20T00:00	15300	122	-54.7	-82.8	228	10	
2025-08-20T00:00	15350	121	-54.7	-82.6	226	11	
2025-08-20T00:00	15400	120	-54.6	-82.4	228	11	
2025-08-20T00:00	15450	119	-54.7	-82.4	235	11	
2025-08-20T00:00	15500	118	-54.7	-82.5	244	11	
2025-08-20T00:00	15550	117	-54.5	-82.5	252	10	
2025-08-20T00:00	15600	116	-54.4	-82.5	260	9	
2025-08-20T00:00	15650	115	-54.4	-82.5	268	9	
2025-08-20T00:00	15700	114	-54.7	-82.6	273	9	
2025-08-20T00:00	15750	113	-54.8	-82.6	276	8	
2025-08-20T00:00	15800	112	-55.1	-82.7	276	7	
2025-08-20T00:00	15850	111	-55.4	-82.8	274	6	
2025-08-20T00:00	15900	111	-55.8	-82.9	269	5	
2025-08-20T00:00	15950	110	-56.2	-83.1	259	5	
2025-08-20T00:00	16000	109	-56.6	-83.2	245	5	
2025-08-20T00:00	16050	108	-56.5	-83.3	234	6	
2025-08-20T00:00	16100	107	-56.6	-83.5	225	7	
2025-08-20T00:00	16150	106	-56.5	-83.4	223	8	
2025-08-20T00:00	16200	106	-56.6	-83.3	228	9	
2025-08-20T00:00	16250	105	-56.8	-83.5	235	9	
2025-08-20T00:00	16300	104	-56.9	-83.5	240	10	
2025-08-20T00:00	16350	103	-57.1	-83.7	247	10	
2025-08-20T00:00	16400	102	-56.9	-83.6	256	10	
2025-08-20T00:00	16450	101	-56.7	-83.6	266	9	
2025-08-20T00:00	16500	101	-56.6	-83.7	272	8	
2025-08-20T00:00	16550	100	-56.2	-83.5	271	8	
2025-08-20T00:00	16600	99	-56.0	-83.5	264	7	
2025-08-20T00:00	16650	98	-56.1	-83.6	258	7	
2025-08-20T00:00	16700	98	-56.1	-83.5	252	7	
2025-08-20T00:00	16750	97	-56.2	-83.6	247	7	
2025-08-20T00:00	16800	96	-56.3	-83.7	249	8	
2025-08-20T00:00	16850	95	-56.4	-83.7	257	8	
2025-08-20T00:00	16900	95	-56.4	-83.8	266	7	
2025-08-20T00:00	16950	94	-56.0	-83.9	272	6	
2025-08-20T00:00	17000	93	-55.7	-83.9	275	4	
2025-08-20T00:00	17050	92	-55.7	-83.9	268	3	
2025-08-20T00:00	17100	92	-55.8	-83.9	250	3	
2025-08-20T00:00	17150	91	-56.0	-84.0	246	3	
2025-08-20T00:00	17200	90	-55.8	-83.9	259	3	
2025-08-20T00:00	17250	89	-56.0	-84.0	273	3	
2025-08-20T00:00	17300	89	-56.1	-84.1	287	4	
2025-08-20T00:00	17350	88	-55.9	-84.1	300	4	
2025-08-20T00:00	17400	87	-55.9	-84.2	309	3	
2025-08-20T00:00	17450	87	-55.6	-84.1	326	2	
2025-08-20T00:00	17500	86	-55.9	-84.2	347	1	
2025-08-20T00:00	17550	85	-56.0	-84.2	207	1	
2025-08-20T00:00	17600	85	-56.2	-84.3	206	2	
2025-08-20T00:00	17650	84	-56.1	-84.3	205	2	
2025-08-20T00:00	17700	83	-56.2	-84.5	209	3	
2025-08-20T00:00	17750	83	-55.9	-84.3	219	4	
2025-08-20T00:00	17800	82	-56.2	-84.5	231	5	
2025-08-20T00:00	17850	81	-56.3	-84.6	243	6	
2025-08-20T00:00	17900	81	-56.1	-84.6	254	6	
2025-08-20T00:00	17950	80	-55.9	-84.5	261	5	
2025-08-20T00:00	18000	79	-56.0	-84.6	262	4	
2025-08-20T00:00	18050	79	-55.9	-84.6	256	3	
2025-08-20T00:00	18100	78	-56.0	-84.6	241	3	
2025-08-20T00:00	18150	78	-56.1	-84.7	238	4	
2025-08-20T00:00	18200	77	-55.9	-84.7	243	5	
2025-08-20T00:00	18250	76	-55.7	-84.6	243	5	
2025-08-20T00:00	18300	76	-55.6	-84.7	235	6	
2025-08-20T00:00	18350	75	-55.6	-84.6	222	6	
2025-08-20T00:00	18400	75	-55.9	-84.8	210	6	
2025-08-20T00:00	18450	74	-55.7	-84.8	201	6	
2025-08-20T00:00	18500	73	-55.4	-84.7	197	7	
2025-08-20T00:00	18550	73	-55.4	-84.6	198	7	
2025-08-20T00:00	18600	72	-55.7	-84.6	204	7	
2025-08-20T00:00	18650	72	-56.0	-84.7	217	6	
2025-08-20T00:00	18700	71	-55.9	-84.8	230	6	
2025-08-20T00:00	18750	71	-55.5	-84.7	240	7	
2025-08-20T00:00	18800	70	-55.7	-84.7	244	7	
2025-08-20T00:00	18850	70	-56.1	-84.8	246	7	
2025-08-20T00:00	18900	69	-56.0	-84.8	248	7	
2025-08-20T00:00	18950	68	-56.0	-84.8	248	6	
2025-08-20T00:00	19000	68	-56.1	-85.0	248	6	
2025-08-20T00:00	19050	67	-56.0	-84.9	252	6	
2025-08-20T00:00	19100	67	-55.9	-84.9	260	6	
2025-08-20T00:00	19150	66	-55.8	-85.0	271	5	
2025-08-20T00:00	19200	66	-55.5	-85.0	285	5	
2025-08-20T00:00	19250	65	-55.1	-84.8	304	4	
2025-08-20T00:00	19300	65	-55.1	-84.9	320	3	
2025-08-20T00:00	19350	64	-54.6	-84.6	321	2	
2025-08-20T00:00	19400	64	-54.6	-84.6	294	1	
2025-08-20T00:00	19450	63	-54.3	-84.6	244	1	
2025-08-20T00:00	19500	63	-53.8	-84.4	197	2	
2025-08-20T00:00	19550	62	-53.7	-84.4	171	3	
2025-08-20T00:00	19600	62	-53.2	-84.0	157	4	
2025-08-20T00:00	19650	61	-53.3	-83.9	156	4	
2025-08-20T00:00	19700	61	-53.7	-83.9	162	5	
2025-08-20T00:00	19750	60	-54.0	-84.1	171	5	
2025-08-20T00:00	19800	60	-53.5	-83.9	181	5	
2025-08-20T00:00	19850	59	-53.6	-84.0	190	5	
2025-08-20T00:00	19900	59	-54.0	-84.0	199	4	
2025-08-20T00:00	19950	59	-54.3	-84.1	209	4	
2025-08-20T00:00	20000	58	-54.5	-84.2	213	4	
2025-08-20T00:00	20050	58	-54.4		206	4	
2025-08-20T00:00	20100	57	-54.2		200	4	
2025-08-20T00:00	20150	57	-54.2		208	4	
2025-08-20T00:00	20200	56	-54.2		233	4	
2025-08-20T00:00	20250	56	-53.9		250	4	
2025-08-20T00:00	20300	55	-53.6		251	5	
2025-08-20T00:00	20350	55	-53.7		247	7	
2025-08-20T00:00	20400	55	-53.8		245	7	
2025-08-20T00:00	20450	54	-54.0		247	8	
2025-08-20T00:00	20500	54	-54.4		252	8	
2025-08-20T00:00	20550	53	-54.7		260	8	
2025-08-20T00:00	20600	53	-54.4		268	8	
2025-08-20T00:00	20650	52	-54.1		276	8	
2025-08-20T00:00	20700	52	-54.3		283	8	
2025-08-20T00:00	20750	52	-54.0		287	8	
2025-08-20T00:00	20800	51	-53.9		290	7	
2025-08-20T00:00	20850	51	-54.2		295	6	
2025-08-20T00:00	20900	50	-54.2		306	5	
2025-08-20T00:00	20950	50	-54.3		324	5	
2025-08-20T00:00	21000	50	-53.8		336	6	
2025-08-20T00:00	21050	49	-53.7		343	7	
2025-08-20T00:00	21100	49	-53.7		349	7	
2025-08-20T00:00	21150	49	-53.8		354	7	
2025-08-20T00:00	21200	48	-54.0		360	6	
2025-08-20T00:00	21250	48	-54.2		6	5	
2025-08-20T00:00	21300	47	-54.3		9	4	
2025-08-20T00:00	21350	47	-54.1		6	3	
2025-08-20T00:00	21400	47	-54.1		349	2	
2025-08-20T00:00	21450	46	-54.3		311	2	
2025-08-20T00:00	21500	46	-54.3		297	2	
2025-08-20T00:00	21550	46	-54.1		308	2	
2025-08-20T00:00	21600	45	-53.8		325	2	
2025-08-20T00:00	21650	45	-53.6		349	2	
2025-08-20T00:00	21700	45	-53.7		19	1	
2025-08-20T00:00	21750	44	-53.7		36	2	
2025-08-20T00:00	21800	44	-53.6		43	3	
2025-08-20T00:00	21850	44	-53.7		49	4	
2025-08-20T00:00	21900	43	-53.9		63	4	
2025-08-20T00:00	21950	43	-53.8		82	3	
2025-08-20T00:00	22000	43	-53.8		102	3	
2025-08-20T00:00	22050	42	-53.9		120	3	
2025-08-20T00:00	22100	42	-54.3		132	3	
2025-08-20T00:00	22150	42	-54.4		135	3	
2025-08-20T00:00	22200	41	-54.3		132	2	
2025-08-20T00:00	22250	41	-54.3		126	1	
2025-08-20T00:00	22300	41	-54.3		112	0	
2025-08-20T00:00	22350	40	-54.3		9	0	
2025-08-20T00:00	22400	40	-54.1		348	1	
2025-08-20T00:00	22450	40	-53.6		345	2	
2025-08-20T00:00	22500	39	-53.6		344	3	
2025-08-20T00:00	22550	39	-53.5		349	4	
2025-08-20T00:00	22600	39	-53.4		358	4	
2025-08-20T00:00	22650	38	-53.1		14	4	
2025-08-20T00:00	22700	38	-52.9		33	4	
2025-08-20T00:00	22750	38	-52.6		55	3	
2025-08-20T00:00	22800	38	-52.6		75	3	
2025-08-20T00:00	22850	37	-52.4		90	2	
2025-08-20T00:00	22900	37	-52.5		99	2	
2025-08-20T00:00	22950	37	-52.4		104	1	
2025-08-20T00:00	23000	36	-52.6		93	1	
2025-08-20T00:00	23050	36	-52.9		69	2	
2025-08-20T00:00	23100	36	-52.7		60	2	
2025-08-20T00:00	23150	36	-52.5		64	3	
2025-08-20T00:00	23200	35	-52.4		74	3	
2025-08-20T00:00	23250	35	-52.4		85	3	
2025-08-20T00:00	23300	35	-52.4		97	3	
2025-08-20T00:00	23350	34	-52.2		110	3	
2025-08-20T00:00	23400	34	-52.1		122	3	
2025-08-20T00:00	23450	34	-52.2		132	3	
2025-08-20T00:00	23500	34	-52.1		139	3	
2025-08-20T00:00	23550	33	-52.1		144	4	
2025-08-20T00:00	23600	33	-51.7		145	3	
2025-08-20T00:00	23650	33	-51.7		142	2	
2025-08-20T00:00	23700	33	-51.7		7	0	
2025-08-20T00:00	23750	32	-51.7		353	2	
2025-08-20T00:00	23800	32	-51.5		8	3	
2025-08-20T00:00	23850	32	-51.0		31	3	
2025-08-20T00:00	23900	32	-51.1		61	3	
2025-08-20T00:00	23950	31	-51.1		82	3	
2025-08-20T00:00	24000	31	-50.6		86	3	
2025-08-20T00:00	24050	31	-50.0		80	3	
2025-08-20T00:00	24100	31	-49.7		71	3	
2025-08-20T00:00	24150	30	-49.7		63	4	
2025-08-20T00:00	24200	30	-49.8		59	4	
2025-08-20T00:00	24250	30	-49.9		61	5	
2025-08-20T00:00	24300	30	-50.2		66	6	
2025-08-20T00:00	24350	30	-50.1		76	6	
2025-08-20T00:00	24400	29	-49.8		86	6	
2025-08-20T00:00	24450	29	-49.6		95	6	
2025-08-20T00:00	24500	29	-49.8		103	6	
2025-08-20T00:00	24550	29	-49.8		113	5	
2025-08-20T00:00	24600	28	-49.8		126	4	
2025-08-20T00:00	24650	28	-50.1		137	3	
2025-08-20T00:00	24700	28	-50.4		128	2	
2025-08-20T00:00	24750	28	-50.3		92	2	
2025-08-20T00:00	24800	28	-50.1		74	4	
2025-08-20T00:00	24850	27	-50.0		74	5	
2025-08-20T00:00	24900	27	-49.8		80	6	
2025-08-20T00:00	24950	27	-49.6		86	7	
2025-08-20T00:00	25000	27	-49.6		89	7	
2025-08-20T00:00	25050	27	-49.6		90	7	
2025-08-20T00:00	25100	26	-49.6		91	7	
2025-08-20T00:00	25150	26	-49.6		93	7	
2025-08-20T00:00	25200	26	-49.8		92	7	
2025-08-20T00:00	25250	26	-49.9		88	7	
2025-08-20T00:00	25300	26	-49.6		83	7	
2025-08-20T00:00	25350	25	-49.1		81	7	
2025-08-20T00:00	25400	25	-48.8		86	8	
2025-08-20T00:00	25450	25	-48.7		94	8	
2025-08-20T00:00	25500	25	-48.1		104	9	
2025-08-20T00:00	25550	25	-48.1		114	9	
2025-08-20T00:00	25600	24	-48.1		123	9	
2025-08-20T00:00	25650	24	-48.2		130	10	
2025-08-20T00:00	25700	24	-48.4		135	9	
2025-08-20T00:00	25750	24	-48.3		139	8	
2025-08-20T00:00	25800	24	-48.1		144	7	
2025-08-20T00:00	25850	24	-47.9		149	5	
2025-08-20T00:00	25900	23	-48.0		154	5	
2025-08-20T00:00	25950	23	-47.8		159	4	
2025-08-20T00:00	26000	23	-47.7		165	4	
2025-08-20T00:00	26050	23	-47.8		176	3	
2025-08-20T00:00	26100	23	-47.6		187	2	
2025-08-20T00:00	26150	22	-47.5		175	2	
2025-08-20T00:00	26200	22	-47.6		137	2	
2025-08-20T00:00	26250	22	-47.4		119	3	
2025-08-20T00:00	26300	22	-47.4		115	4	
2025-08-20T00:00	26350	22	-47.6		116	5	
2025-08-20T00:00	26400	22	-47.6		119	6	
2025-08-20T00:00	26450	21	-47.4		126	6	
2025-08-20T00:00	26500	21	-47.4		136	6	
2025-08-20T00:00	26550	21	-47.3		145	6	
2025-08-20T00:00	26600	21	-47.3		152	5	
2025-08-20T00:00	26650	21	-47.1		160	3	
2025-08-20T00:00	26700	21	-47.1		162	3	
2025-08-20T00:00	26750	21	-46.8		151	3	
2025-08-20T00:00	26800	20	-46.5		141	5	
2025-08-20T00:00	26850	20	-46.2		142	6	
2025-08-20T00:00	26900	20	-46.0		149	7	
2025-08-20T00:00	26950	20	-45.9		157	6	
2025-08-20T00:00	27000	20	-45.6		166	5	
2025-08-20T00:00	27050	20	-45.0		171	4	
2025-08-20T00:00	27100	19	-44.7		174	3	
2025-08-20T00:00	27150	19	-44.4		181	3	
2025-08-20T00:00	27200	19	-44.3		196	3	
2025-08-20T00:00	27250	19	-44.2		209	3	
2025-08-20T00:00	27300	19	-43.9		214	3	
2025-08-20T00:00	27350	19	-43.4		213	2	
2025-08-20T00:00	27400	19	-43.1		211	1	
2025-08-20T00:00	27450	18	-43.1		207	1	
2025-08-20T00:00	27500	18	-43.0		194	1	
2025-08-20T00:00	27550	18	-42.6		182	2	
2025-08-20T00:00	27600	18	-42.4		176	3	
2025-08-20T00:00	27650	18	-42.4		173	4	
2025-08-20T00:00	27700	18	-42.7		177	3	
2025-08-20T00:00	27750	18	-42.8		190	3	
2025-08-20T00:00	27800	18	-43.0		211	3	
2025-08-20T00:00	27850	17	-43.1		231	2	
2025-08-20T00:00	27900	17	-43.2		248	2	
2025-08-20T00:00	27950	17	-43.4		257	3	
2025-08-20T00:00	28000	17	-43.2		259	3	
2025-08-20T00:00	28050	17	-42.8		262	3	
2025-08-20T00:00	28100	17	-42.5		274	3	
2025-08-20T00:00	28150	17	-42.3		292	3	
2025-08-20T00:00	28200	17	-42.3		306	4	
2025-08-20T00:00	28250	16	-42.6		311	4	
2025-08-20T00:00	28300	16	-42.7		310	4	
2025-08-20T00:00	28350	16	-42.9		307	5	
2025-08-20T00:00	28400	16	-43.1		304	5	
2025-08-20T00:00	28450	16	-43.3		305	5	
2025-08-20T00:00	28500	16	-43.5		308	5	
2025-08-20T00:00	28550	16	-43.7		315	5	
2025-08-20T00:00	28600	16	-43.6		327	5	
2025-08-20T00:00	28650	15	-43.7		340	5	
2025-08-20T00:00	28700	15	-43.9		349	5	
2025-08-20T00:00	28750	15	-44.0		358	4	
2025-08-20T00:00	28800	15	-44.3		12	3	
2025-08-20T00:00	28850	15	-44.2		40	2	
2025-08-20T00:00	28900	15	-44.2		87	2	
2025-08-20T00:00	28950	15	-44.6		116	3	
2025-08-20T00:00	29000	15	-44.8		127	4	
2025-08-20T00:00	29050	15	-45.1		132	5	
2025-08-20T00:00	29100	14	-45.4		136	6	
2025-08-20T00:00	29150	14	-45.5		142	6	
2025-08-20T00:00	29200	14	-45.4		148	5	
2025-08-20T00:00	29250	14	-45.4		152	4	
2025-08-20T00:00	29300	14	-45.4		154	2	
2025-08-20T00:00	29350	14	-45.6		153	1	
2025-08-20T00:00	29400	14	-45.7		154	1	
2025-08-20T00:00	29450	14	-45.8		154	1	
2025-08-20T00:00	29500	14	-46.0		148	2	
2025-08-20T00:00	29550	14	-46.2		143	2	
2025-08-20T00:00	29600	13	-46.2		145	3	
2025-08-20T00:00	29650	13	-46.3		153	3	
2025-08-20T00:00	29700	13	-46.4		160	3	
2025-08-20T00:00	29750	13	-46.4		163	2	
2025-08-20T00:00	29800	13	-46.4		36	1	
2025-08-20T00:00	29850	13	-46.2		13	2	
2025-08-20T00:00	29900	13	-45.7		16	4	
2025-08-20T00:00	29950	13	-45.5		22	4	
2025-08-20T00:00	30000	13	-45.4		32	3	
2025-08-20T00:00	30050	13	-45.3		55	2	
2025-08-20T00:00	30100	12	-45.0		94	2	
2025-08-20T00:00	30150	12	-44.8		118	2	
2025-08-20T00:00	30200	12	-44.9		111	2	
2025-08-20T00:00	30250	12	-44.6		86	2	
2025-08-20T00:00	30300	12	-44.3		61	3	
2025-08-20T00:00	30350	12	-44.1		47	4	
2025-08-20T00:00	30400	12	-43.8		47	5	
2025-08-20T00:00	30450	12	-43.5		50	6	
2025-08-20T00:00	30500	12	-43.0		48	6	
2025-08-20T00:00	30550	12	-42.7		42	5	
2025-08-20T00:00	30600	12	-42.8		38	4	
2025-08-20T00:00	30650	11	-42.7		28	3	
2025-08-20T00:00	30700	11	-42.1		13	3	
2025-08-20T00:00	30750	11	-42.2		3	3	
2025-08-20T00:00	30800	11	-42.3		6	3	
2025-08-20T00:00	30850	11	-42.5		19	4	
2025-08-20T00:00	30900	11	-42.4		35	4	
2025-08-20T00:00	30950	11	-42.6		46	5	
2025-08-20T00:00	31000	11	-42.6		52	6	
2025-08-20T00:00	31050	11	-42.8		52	7	
2025-08-20T00:00	31100	11	-43.0		50	8	
2025-08-20T00:00	31150	11	-43.2		50	9	
2025-08-20T00:00	31200	11	-43.2		52	10	
2025-08-20T00:00	31250	10	-42.9		55	11	
2025-08-20T00:00	31300	10	-42.4		58	10	
2025-08-20T00:00	31350	10	-42.0		59	10	
2025-08-20T00:00	31400	10	-41.6		60	10	
2025-08-20T00:00	31450	10	-41.6		61	10	
2025-08-20T00:00	31500	10	-41.8		64	9	
2025-08-20T00:00	31550	10	-41.9		69	9	
2025-08-20T00:00	31600	10	-42.0		70	9	
2025-08-20T00:00	31650	10	-41.8		68	9	
2025-08-20T00:00	31700	10	-41.8		66	10	
2025-08-20T00:00	31750	10	-42.1		64	11	
2025-08-20T00:00	31800	10	-42.2		65	12	
2025-08-20T00:00	31850	10	-42.2		68	12	
2025-08-20T00:00	31900	10	-42.4		72	13	
2025-08-20T00:00	31950	9	-42.6		76	13	
2025-08-20T00:00	32000	9	-42.6		80	13	
2025-08-20T00:00	32050	9	-42.5		82	13	
2025-08-20T00:00	32100	9	-42.7		84	13	
2025-08-20T00:00	32150	9	-42.9		84	12	
2025-08-20T00:00	32200	9	-43.1		83	11	
2025-08-20T00:00	32250	9	-43.3		80	10	
2025-08-20T00:00	32300	9	-43.5		78	10	
2025-08-20T00:00	32350	9	-43.6		77	10	
2025-08-20T00:00	32400	9	-43.4		78	11	
2025-08-20T00:00	32450	9	-43.3		80	11	
2025-08-20T00:00	32500	9	-42.6		83	10	
2025-08-20T00:00	32550	9	-42.1		84	9	
2025-08-20T00:00	32600	9	-41.8		84	8	
2025-08-20T00:00	32650	9	-41.5		84	8	
2025-08-20T00:00	32700	8	-40.8		86	9	
2025-08-20T00:00	32750	8	-40.2		89	10	
2025-08-20T00:00	32800	8	-39.6		91	10	
2025-08-20T00:00	32850	8	-39.2		93	10	
2025-08-20T00:00	32900	8	-38.5		95	10	
2025-08-20T00:00	32950	8	-38.5		96	10	
2025-08-20T00:00	33000	8	-38.5		94	9	
2025-08-20T00:00	33050	8	-38.4		87	8	
2025-08-20T00:00	33100	8	-38.3		75	8	
2025-08-20T00:00	33150	8	-37.9		67	9	
2025-08-20T00:00	33200	8	-37.7		66	11	
2025-08-20T00:00	33250	8	-37.3		69	14	
2025-08-20T00:00	33300	8	-37.2		73	15	
2025-08-20T00:00	33350	8	-37.1		77	16	
2025-08-20T00:00	33400	8	-36.9		84	16	
2025-08-20T00:00	33450	8	-36.9		92	16	
2025-08-20T00:00	33500	8	-36.8		100	15	
2025-08-20T00:00	33550	7	-36.6		109	15	
2025-08-20T00:00	33600	7	-36.0		116	14	
2025-08-20T00:00	33650	7	-35.9		122	14	
2025-08-20T00:00	33700	7	-35.9		128	14	
2025-08-20T00:00	33750	7	-35.7		132	13	
2025-08-20T00:00	33800	7	-35.8		134	12	
2025-08-20T00:00	33850	7	-35.9		134	11	
2025-08-20T00:00	33900	7	-35.9		130	10	
2025-08-20T00:00	33950	7	-35.4		122	9	
2025-08-20T00:00	34000	7	-35.3		113	8	
2025-08-20T00:00	34050	7	-35.2		106	8	
2025-08-20T00:00	34100	7	-35.1		103	8	
2025-08-20T00:00	34150	7	-35.0		99	7	
2025-08-20T00:00	34200	7	-34.7		93	7	
2025-08-20T00:00	34250	7	-34.1		88	7	
2025-08-20T00:00	34300	7	-33.6		86	7	
2025-08-20T00:00	34350	7	-33.4		87	9	
2025-08-20T00:00	34400	7	-33.0		90	10	
2025-08-20T00:00	34450	7	-32.8		92	10	
2025-08-20T00:00	34500	7	-32.6		93	10	
2025-08-20T00:00	34550	6	-32.4		91	10	
2025-08-20T00:00	34600	6	-32.5		87	9	
2025-08-20T00:00	34650	6	-32.8		83	8	
2025-08-20T00:00	34700	6	-33.1		80	8	
2025-08-20T00:00	34750	6	-33.3		77	8	
2025-08-20T00:00	34800	6	-33.3		77	9	
2025-08-20T00:00	34850	6	-33.3		79	10	
2025-08-20T00:00	34900	6	-33.1		77	10	
2025-08-20T00:00	34950	6	-32.9		72	9	
2025-08-20T00:00	35000	6	-32.5		62	8	
2025-08-20T00:00	35050	6	-32.3		52	7	
2025-08-20T00:00	35100	6	-32.3		50	8	
2025-08-20T00:00	35150	6	-31.8		57	10	
2025-08-20T00:00	35200	6	-31.4		66	11	
2025-08-20T00:00	35250	6	-31.2		74	13	
2025-08-20T00:00	35300	6	-31.0		78	14	
2025-08-20T00:00	35350	6	-30.8		79	14	
2025-08-20T00:00	35400	6	-30.7		77	14	
2025-08-20T00:00	35450	6	-30.7		73	13	
2025-08-20T00:00	35500	6	-30.8		67	13	
2025-08-20T00:00	35550	6	-31.0		62	12	
2025-08-20T00:00	35600	6	-31.0		56	12	
2025-08-20T00:00	35650	6	-31.1		51	12	
2025-08-20T00:00	35700	6	-31.1		47	12	
2025-08-20T00:00	35750	5	-31.2		45	13	
2025-08-20T00:00	35800	5	-31.4		43	13	
2025-08-20T00:00	35850	5	-31.6		43	13	
2025-08-20T00:00	35900	5	-31.9		46	13	
2025-08-20T00:00	35950	5	-31.8		52	13	
2025-08-20T00:00	36000	5	-32.0		58	14	
2025-08-20T00:00	36050	5	-32.2		64	14	
2025-08-20T00:00	36100	5	-32.1		68	15	
2025-08-20T00:00	36150	5	-32.0		73	15	
2025-08-20T00:00	36200	5	-31.9		77	15	
2025-08-20T00:00	36250	5	-31.5		81	15	
2025-08-20T00:00	36300	5	-31.4		81	15	
2025-08-20T00:00	36350	5	-31.6		80	15	
2025-08-20T00:00	36400	5	-31.4		78	16	
2025-08-20T00:00	36450	5	-31.3		79	16	
2025-08-20T00:00	36500	5	-31.1		83	17	
2025-08-20T00:00	36550	5	-30.7		86	16	
2025-08-20T00:00	36600	5	-30.3		87	15	
2025-08-20T00:00	36650	5	-29.8		85	14	
2025-08-20T00:00	36700	5	-29.0		81	14	
2025-08-20T00:00	36750	5	-28.0		81	15	
2025-08-20T00:00	36800	5	-27.7		84	15	
2025-08-20T12:00	491	954	20.3	15.1	187	1	3.9
2025-08-20T12:00	501	953	20.0	13.9	140	0	4.0
2025-08-20T12:00	520	951	19.8	13.8	126	0	4.1
2025-08-20T12:00	540	948	19.6	13.8	123	0	4.3
2025-08-20T12:00	560	946	19.4	13.7	299	0	4.3
2025-08-20T12:00	580	944	19.2	13.6	298	0	4.4
2025-08-20T12:00	600	942	19.0	13.6	296	1	4.5
2025-08-20T12:00	620	940	18.8	13.7	294	1	4.6
2025-08-20T12:00	640	937	18.6	13.7	288	1	4.6
2025-08-20T12:00	660	935	18.4	13.6	276	0	4.7
2025-08-20T12:00	680	933	18.2	13.6	251	0	4.7
2025-08-20T12:00	700	931	18.1	13.6	226	0	4.7
2025-08-20T12:00	720	929	17.9	13.6	216	1	4.7
2025-08-20T12:00	740	926	17.7	13.6	215	1	4.8
2025-08-20T12:00	760	924	17.6	13.5	220	1	4.8
2025-08-20T12:00	780	922	17.3	13.6	225	1	4.8
2025-08-20T12:00	800	920	17.1	13.5	228	1	4.8
2025-08-20T12:00	820	918	17.0	13.5	229	1	4.8
2025-08-20T12:00	840	916	16.9	13.6	227	2	4.8
2025-08-20T12:00	860	914	16.7	13.4	225	2	4.8
2025-08-20T12:00	880	912	16.5	13.4	225	2	4.8
2025-08-20T12:00	900	910	16.3	13.2	226	2	4.8
2025-08-20T12:00	920	907	16.2	13.1	228	3	4.8
2025-08-20T12:00	940	905	16.1	13.0	230	3	4.8
2025-08-20T12:00	960	903	15.9	12.9	230	4	4.8
2025-08-20T12:00	980	901	15.8	12.8	229	4	4.8
2025-08-20T12:00	1000	899	15.6	12.6	229	4	4.8
2025-08-20T12:00	1020	897	15.4	12.2	229	4	4.9
2025-08-20T12:00	1040	895	15.3	12.1	232	4	5.0
2025-08-20T12:00	1060	893	15.1	11.8	236	3	5.0
2025-08-20T12:00	1080	890	15.0	11.5	241	3	5.1
2025-08-20T12:00	1100	888	14.9	11.9	242	3	5.2
2025-08-20T12:00	1120	886	14.7	12.7	239	4	5.2
2025-08-20T12:00	1140	884	14.5	13.0	233	4	5.2
2025-08-20T12:00	1160	882	14.4	13.0	226	4	5.1
2025-08-20T12:00	1180	880	14.4	12.9	220	4	5.1
2025-08-20T12:00	1200	878	14.3	12.8	217	4	5.0
2025-08-20T12:00	1220	876	14.2	12.7	217	5	5.0
2025-08-20T12:00	1240	874	14.1	12.6	220	5	4.9
2025-08-20T12:00	1260	872	14.0	12.5	224	5	4.9
2025-08-20T12:00	1280	870	13.9	12.3	227	4	4.9
2025-08-20T12:00	1300	868	13.8	12.1	227	4	4.9
2025-08-20T12:00	1320	865	13.8	11.8	224	4	4.9
2025-08-20T12:00	1340	863	13.7	11.7	217	4	4.9
2025-08-20T12:00	1360	861	13.5	11.8	210	4	4.9
2025-08-20T12:00	1380	859	13.4	11.8	205	4	4.9
2025-08-20T12:00	1400	857	13.2	11.8	204	4	4.9
2025-08-20T12:00	1420	855	13.1	11.5	206	4	4.9
2025-08-20T12:00	1440	853	13.1	11.1	208	4	4.9
2025-08-20T12:00	1460	851	13.0	10.9	210	5	4.9
2025-08-20T12:00	1480	849	12.9	10.9	211	5	4.9
2025-08-20T12:00	1500	847	12.7	10.7	211	5	4.8
2025-08-20T12:00	1520	845	12.5	10.1	212	5	4.8
2025-08-20T12:00	1540	843	12.5	9.9	214	5	4.9
2025-08-20T12:00	1560	841	12.4	9.9	217	5	4.9
2025-08-20T12:00	1580	839	12.2	9.8	219	5	5.0
2025-08-20T12:00	1600	837	12.1	9.6	220	5	5.0
2025-08-20T12:00	1620	835	11.9	9.5	221	5	5.0
2025-08-20T12:00	1640	833	11.7	9.5	220	5	5.0
2025-08-20T12:00	1660	831	11.5	9.5	218	5	5.0
2025-08-20T12:00	1680	829	11.4	9.4	216	5	5.0
2025-08-20T12:00	1700	827	11.2	9.1	213	5	5.0
2025-08-20T12:00	1720	825	11.0	8.9	210	5	5.0
2025-08-20T12:00	1740	823	10.9	8.9	209	5	5.0
2025-08-20T12:00	1760	821	10.7	8.9	212	4	5.1
2025-08-20T12:00	1780	819	10.6	8.8	219	4	5.1
2025-08-20T12:00	1800	817	10.5	8.5	226	4	5.0
2025-08-20T12:00	1820	815	10.4	8.3	228	5	5.1
2025-08-20T12:00	1840	813	10.2	8.2	225	6	5.1
2025-08-20T12:00	1860	811	10.2	7.5	220	6	5.1
2025-08-20T12:00	1880	810	10.2	7.5	215	7	5.1
2025-08-20T12:00	1900	808	10.2	7.1	212	7	5.1
2025-08-20T12:00	1920	806	10.1	7.1	212	7	5.1
2025-08-20T12:00	1940	804	10.1	7.3	213	7	5.1
2025-08-20T12:00	1960	802	9.9	7.4	216	7	5.1
2025-08-20T12:00	1980	800	9.7	7.5	219	7	5.1
2025-08-20T12:00	2000	798	9.6	7.9	221	8	5.1
2025-08-20T12:00	2020	796	9.4	7.9	220	8	5.1
2025-08-20T12:00	2040	794	9.3	7.9	219	9	5.0
2025-08-20T12:00	2060	792	9.1	7.8	218	9	5.0
2025-08-20T12:00	2080	790	9.0	7.8	216	9	5.0
2025-08-20T12:00	2100	788	9.1	7.1	215	9	5.0
2025-08-20T12:00	2120	787	9.2	6.9	212	9	5.0
2025-08-20T12:00	2140	785	9.5	6.2	210	9	5.0
2025-08-20T12:00	2160	783	9.5	6.0	209	9	5.0
2025-08-20T12:00	2180	781	9.4	5.7	210	9	4.9
2025-08-20T12:00	2200	779	9.3	5.6	211	10	4.9
2025-08-20T12:00	2220	777	9.1	5.7	212	10	4.9
2025-08-20T12:00	2240	775	8.8	5.6	212	10	4.9
2025-08-20T12:00	2260	774	8.7	5.4	211	10	4.9
2025-08-20T12:00	2280	772	8.6	5.4	208	10	4.9
2025-08-20T12:00	2300	770	8.3	5.4	205	9	4.9
2025-08-20T12:00	2320	768	8.2	5.2	202	9	4.9
2025-08-20T12:00	2340	766	8.1	5.1	201	9	4.9
2025-08-20T12:00	2360	764	7.9	5.2	202	9	4.9
2025-08-20T12:00	2380	762	7.7	5.0	204	9	4.8
2025-08-20T12:00	2400	761	7.6	5.1	205	9	4.8
2025-08-20T12:00	2420	759	7.4	5.2	206	9	4.8
2025-08-20T12:00	2440	757	7.2	5.3	206	9	4.8
2025-08-20T12:00	2460	755	7.0	5.3	204	10	4.8
2025-08-20T12:00	2480	753	6.9	5.1	202	10	4.8
2025-08-20T12:00	2500	751	6.7	5.1	199	11	4.7
2025-08-20T12:00	2520	749	6.6	5.0	197	11	4.8
2025-08-20T12:00	2540	748	6.4	5.0	195	10	4.7
2025-08-20T12:00	2560	746	6.3	4.9	194	10	4.7
2025-08-20T12:00	2580	744	6.1	4.8	193	9	4.8
2025-08-20T12:00	2600	742	5.9	4.7	194	8	4.7
2025-08-20T12:00	2620	740	5.8	4.5	196	7	4.7
2025-08-20T12:00	2640	739	5.7	4.4	199	6	4.7
2025-08-20T12:00	2660	737	5.6	4.1	201	6	4.7
2025-08-20T12:00	2680	735	5.4	4.1	201	7	4.7
2025-08-20T12:00	2700	733	5.3	4.2	200	7	4.7
2025-08-20T12:00	2720	731	5.1	4.1	199	7	4.7
2025-08-20T12:00	2740	730	5.0	3.9	198	8	4.6
2025-08-20T12:00	2760	728	4.9	3.6	197	8	4.6
2025-08-20T12:00	2780	726	4.7	3.6	197	9	4.6
2025-08-20T12:00	2800	724	4.6	3.6	197	9	4.6
2025-08-20T12:00	2820	723	4.4	3.6	197	9	4.6
2025-08-20T12:00	2840	721	4.2	3.5	198	9	4.6
2025-08-20T12:00	2860	719	4.1	3.3	198	9	4.6
2025-08-20T12:00	2880	717	4.0	3.2	198	9	4.6
2025-08-20T12:00	2900	715	3.8	3.1	197	9	4.6
2025-08-20T12:00	2920	714	3.8	2.9	197	10	4.6
2025-08-20T12:00	2940	712	3.6	2.9	197	10	4.6
2025-08-20T12:00	2960	710	3.5	2.8	197	10	4.6
2025-08-20T12:00	2980	709	3.3	2.6	197	10	4.6
2025-08-20T12:00	3000	707	3.2	2.5	198	10	4.5
2025-08-20T12:00	3020	705	3.2	1.8	198	10	4.5
2025-08-20T12:00	3040	703	3.2	1.5	198	10	4.5
2025-08-20T12:00	3060	701	3.1	1.4	197	11	4.5
2025-08-20T12:00	3080	700	3.0	1.3	195	11	4.5
2025-08-20T12:00	3100	698	2.8	1.4	192	10	4.5
2025-08-20T12:00	3120	696	2.7	1.4	188	10	4.5
2025-08-20T12:00	3140	695	2.4	1.4	184	9	4.5
2025-08-20T12:00	3160	693	2.2	1.3	181	8	4.4
2025-08-20T12:00	3180	691	2.1	1.3	180	7	4.4
2025-08-20T12:00	3200	690	2.1	1.7	181	7	4.4
2025-08-20T12:00	3220	688	2.0	1.9	183	7	4.4
2025-08-20T12:00	3240	686	1.9	1.8	184	7	4.4
2025-08-20T12:00	3260	684	1.8	1.6	183	7	4.4
2025-08-20T12:00	3280	683	1.7	1.4	181	8	4.4
2025-08-20T12:00	3300	681	1.6	1.3	177	8	4.4
2025-08-20T12:00	3320	679	1.4	1.1	175	8	4.4
2025-08-20T12:00	3340	678	1.5	0.7	173	8	4.3
2025-08-20T12:00	3360	676	1.5	0.8	172	8	4.3
2025-08-20T12:00	3380	674	1.3	0.6	174	8	4.3
2025-08-20T12:00	3400	673	1.3	0.4	178	8	4.3
2025-08-20T12:00	3420	671	1.2	0.2	182	8	4.3
2025-08-20T12:00	3440	669	1.1	0.1	186	7	4.3
2025-08-20T12:00	3460	668	0.9	0.0	190	7	4.3
2025-08-20T12:00	3480	666	0.8	0.0	197	7	4.3
2025-08-20T12:00	3500	664	0.6	0.0	203	7	4.2
2025-08-20T12:00	3520	663	0.4	-0.1	207	8	4.2
2025-08-20T12:00	3540	661	0.3	-0.2	207	8	4.2
2025-08-20T12:00	3560	659	0.1	-0.3	205	9	4.2
2025-08-20T12:00	3580	658	0.0	-0.3	202	9	4.2
2025-08-20T12:00	3600	656	-0.1	-0.4	198	10	4.2
2025-08-20T12:00	3620	654	-0.3	-0.6	194	10	4.2
2025-08-20T12:00	3640	653	-0.4	-0.8	192	9	4.2
2025-08-20T12:00	3660	651	-0.4	-0.9	191	9	4.2
2025-08-20T12:00	3680	650	-0.6	-0.8	192	9	4.1
2025-08-20T12:00	3700	648	-0.8	-1.0	195	9	4.1
2025-08-20T12:00	3720	646	-0.9	-1.1	197	9	4.1
2025-08-20T12:00	3740	645	-1.0	-1.2	198	9	4.1
2025-08-20T12:00	3760	643	-1.1	-1.3	199	9	4.1
2025-08-20T12:00	3780	641	-1.3	-1.4	199	10	4.1
2025-08-20T12:00	3800	640	-1.4	-1.6	200	10	4.1
2025-08-20T12:00	3820	638	-1.6	-1.8	200	10	4.1
2025-08-20T12:00	3840	637	-1.6	-2.2	200	11	4.1
2025-08-20T12:00	3860	635	-1.6	-2.4	198	11	4.1
2025-08-20T12:00	3880	633	-1.6	-2.5	196	10	4.1
2025-08-20T12:00	3900	632	-1.7	-2.6	194	10	4.1
2025-08-20T12:00	3920	630	-1.9	-2.7	192	9	4.0
2025-08-20T12:00	3940	629	-2.1	-2.7	191	8	4.0
2025-08-20T12:00	3960	627	-2.2	-2.8	189	7	4.0
2025-08-20T12:00	3980	626	-2.4	-2.8	188	7	4.0
2025-08-20T12:00	4000	624	-2.5	-2.8	187	7	4.0
2025-08-20T12:00	4020	622	-2.6	-3.1	187	7	4.0
2025-08-20T12:00	4040	621	-2.4	-3.6	188	8	4.0
2025-08-20T12:00	4060	619	-2.4	-3.7	189	8	4.0
2025-08-20T12:00	4080	618	-2.5	-3.8	192	8	4.0
2025-08-20T12:00	4100	616	-2.6	-4.0	196	8	4.0
2025-08-20T12:00	4120	615	-2.7	-4.3	200	8	3.9
2025-08-20T12:00	4140	613	-3.0	-4.4	204	7	3.9
2025-08-20T12:00	4160	612	-3.1	-4.6	205	7	3.9
2025-08-20T12:00	4180	610	-3.2	-4.7	201	6	3.9
2025-08-20T12:00	4200	608	-3.2	-5.1	196	6	3.9
2025-08-20T12:00	4220	607	-3.3	-5.0	190	6	3.9
2025-08-20T12:00	4240	605	-3.4	-5.1	186	7	3.9
2025-08-20T12:00	4260	604	-3.5	-5.0	187	7	3.9
2025-08-20T12:00	4280	602	-3.6	-5.1	190	7	3.9
2025-08-20T12:00	4300	601	-3.7	-5.3	195	7	3.9
2025-08-20T12:00	4320	600	-3.8	-5.3	198	8	3.8
2025-08-20T12:00	4340	598	-4.1	-5.5	201	8	3.8
2025-08-20T12:00	4360	596	-4.2	-5.6	201	8	3.9
2025-08-20T12:00	4380	595	-4.3	-5.6	200	8	3.9
2025-08-20T12:00	4400	593	-4.3	-5.6	199	8	3.9
2025-08-20T12:00	4420	592	-4.6	-5.6	199	8	3.8
2025-08-20T12:00	4440	590	-4.8	-5.7	200	8	3.8
2025-08-20T12:00	4460	589	-5.0	-5.8	201	8	3.8
2025-08-20T12:00	4480	587	-5.1	-5.9	204	9	3.8
2025-08-20T12:00	4500	586	-5.3	-5.9	207	9	3.8
2025-08-20T12:00	4520	584	-5.5	-6.0	209	10	3.8
2025-08-20T12:00	4540	583	-5.5	-6.3	211	10	3.8
2025-08-20T12:00	4560	581	-5.5	-6.3	211	10	3.8
2025-08-20T12:00	4580	580	-5.6	-6.3	210	10	3.8
2025-08-20T12:00	4600	578	-5.8	-6.4	209	10	3.8
2025-08-20T12:00	4620	577	-5.9	-6.4	208	9	3.8
2025-08-20T12:00	4640	575	-6.1	-6.6	207	9	3.7
2025-08-20T12:00	4660	574	-6.1	-7.0	206	8	3.7
2025-08-20T12:00	4680	573	-6.1	-7.1	204	8	3.7
2025-08-20T12:00	4700	571	-6.2	-7.3	201	8	3.8
2025-08-20T12:00	4720	570	-6.2	-7.4	200	8	3.8
2025-08-20T12:00	4740	568	-6.2	-7.5	199	8	3.7
2025-08-20T12:00	4760	567	-6.4	-7.7	198	9	3.7
2025-08-20T12:00	4780	565	-6.4	-7.9	198	9	3.7
2025-08-20T12:00	4800	564	-6.6	-7.9	198	9	3.7
2025-08-20T12:00	4820	562	-6.7	-8.1	197	10	3.7
2025-08-20T12:00	4840	561	-6.8	-8.2	197	10	3.7
2025-08-20T12:00	4860	559	-7.0	-8.3	197	10	3.6
2025-08-20T12:00	4880	558	-7.0	-8.3	198	9	3.6
2025-08-20T12:00	4900	557	-7.2	-8.3	200	9	3.7
2025-08-20T12:00	4920	555	-7.4	-8.5	202	9	3.6
2025-08-20T12:00	4940	554	-7.5	-8.5	205	8	3.6
2025-08-20T12:00	4960	552	-7.7	-8.7	208	8	3.6
2025-08-20T12:00	4980	551	-7.8	-8.9	211	7	3.6
2025-08-20T12:00	5000	550	-8.0	-9.0	213	7	3.6
2025-08-20T12:00	5020	548	-8.1	-9.1	215	6	3.6
2025-08-20T12:00	5040	547	-8.3	-9.3	217	6	3.6
2025-08-20T12:00	5060	545	-8.3	-9.6	218	6	3.6
2025-08-20T12:00	5080	544	-8.3	-10.1	217	7	3.6
2025-08-20T12:00	5100	543	-8.4	-10.5	215	7	3.6
2025-08-20T12:00	5120	541	-8.4	-11.0	214	7	3.6
2025-08-20T12:00	5140	540	-8.5	-11.3	212	7	3.6
2025-08-20T12:00	5160	538	-8.7	-11.3	212	7	3.6
2025-08-20T12:00	5180	537	-9.0	-11.4	212	7	3.6
2025-08-20T12:00	5200	536	-9.1	-11.6	212	7	3.6
2025-08-20T12:00	5220	534	-9.3	-11.6	212	7	3.6
2025-08-20T12:00	5240	533	-9.3	-11.9	210	7	3.6
2025-08-20T12:00	5260	531	-9.4	-12.3	207	7	3.6
2025-08-20T12:00	5280	530	-9.5	-12.7	204	7	3.6
2025-08-20T12:00	5300	529	-9.6	-13.2	201	7	3.6
2025-08-20T12:00	5320	527	-9.6	-13.3	199	7	3.6
2025-08-20T12:00	5340	526	-9.4	-13.2	197	7	3.6
2025-08-20T12:00	5360	525	-9.4	-13.3	196	7	3.6
2025-08-20T12:00	5380	523	-9.6	-13.0	196	7	3.6
2025-08-20T12:00	5400	522	-9.6	-13.1	196	8	3.6
2025-08-20T12:00	5420	521	-9.5	-13.7	195	8	3.5
2025-08-20T12:00	5440	519	-9.6	-13.8	195	8	3.6
2025-08-20T12:00	5460	518	-9.8	-13.9	195	8	3.6
2025-08-20T12:00	5480	517	-10.0	-14.2	197	8	3.6
2025-08-20T12:00	5500	515	-10.1	-14.5	199	7	3.6
2025-08-20T12:00	5520	514	-10.2	-14.7	202	7	3.6
2025-08-20T12:00	5540	512	-10.4	-14.9	204	6	3.5
2025-08-20T12:00	5560	511	-10.5	-15.3	205	6	3.5
2025-08-20T12:00	5580	510	-10.5	-15.5	205	6	3.5
2025-08-20T12:00	5600	509	-10.6	-15.5	204	6	3.5
2025-08-20T12:00	5620	507	-10.8	-15.5	203	6	3.5
2025-08-20T12:00	5640	506	-11.1	-15.5	200	6	3.5
2025-08-20T12:00	5660	505	-11.2	-15.6	198	7	3.5
2025-08-20T12:00	5680	503	-11.3	-15.7	195	7	3.5
2025-08-20T12:00	5700	502	-11.6	-15.6	191	7	3.5
2025-08-20T12:00	5720	500	-11.8	-15.7	186	7	3.5
2025-08-20T12:00	5740	499	-11.9	-15.8	181	7	3.5
2025-08-20T12:00	5760	498	-12.0	-15.8	177	7	3.5
2025-08-20T12:00	5780	497	-12.2	-15.8	176	7	3.5
2025-08-20T12:00	5800	495	-12.4	-15.9	178	7	3.4
2025-08-20T12:00	5820	494	-12.5	-16.1	180	7	3.4
2025-08-20T12:00	5840	493	-12.7	-16.2	182	7	3.4
2025-08-20T12:00	5860	491	-12.9	-16.3	183	7	3.4
2025-08-20T12:00	5880	490	-13.1	-16.8	182	7	3.4
2025-08-20T12:00	5900	489	-13.1	-17.2	181	7	3.4
2025-08-20T12:00	5920	488	-13.3	-17.4	178	7	3.4
2025-08-20T12:00	5940	486	-13.6	-17.6	175	7	3.3
2025-08-20T12:00	5960	485	-13.5	-17.7	172	7	3.4
2025-08-20T12:00	5980	484	-13.7	-17.4	172	7	3.4
2025-08-20T12:00	6000	483	-13.9	-16.9	172	7	3.4
2025-08-20T12:00	6020	481	-14.1	-16.8	172	7	3.3
2025-08-20T12:00	6040	480	-14.2	-16.9	171	7	3.3
2025-08-20T12:00	6060	479	-14.3	-17.1	169	7	3.3
2025-08-20T12:00	6080	478	-14.5	-17.2	166	7	3.3
2025-08-20T12:00	6100	476	-14.7	-17.3	163	8	3.3
2025-08-20T12:00	6120	475	-14.8	-17.4	161	8	3.3
2025-08-20T12:00	6140	474	-14.9	-17.4	161	8	3.3
2025-08-20T12:00	6160	472	-15.1	-17.5	161	9	3.2
2025-08-20T12:00	6180	471	-15.3	-17.5	162	9	3.2
2025-08-20T12:00	6200	470	-15.4	-17.6	162	9	3.2
2025-08-20T12:00	6220	469	-15.6	-18.0	162	9	3.2
2025-08-20T12:00	6240	468	-15.7	-18.1	161	9	3.2
2025-08-20T12:00	6260	466	-15.8	-18.2	159	9	3.2
2025-08-20T12:00	6280	465	-16.1	-18.1	158	8	3.2
2025-08-20T12:00	6300	464	-16.2	-18.4	159	8	3.2
2025-08-20T12:00	6320	463	-16.3	-18.3	162	8	3.3
2025-08-20T12:00	6340	461	-16.4	-18.3	165	9	3.3
2025-08-20T12:00	6360	460	-16.5	-18.6	168	9	3.2
2025-08-20T12:00	6380	459	-16.6	-18.7	171	10	3.2
2025-08-20T12:00	6400	458	-16.7	-18.7	173	11	3.2
2025-08-20T12:00	6420	457	-16.9	-18.7	173	11	3.2
2025-08-20T12:00	6440	455	-17.1	-18.9	172	11	3.2
2025-08-20T12:00	6460	454	-17.2	-18.9	171	11	3.1
2025-08-20T12:00	6480	453	-17.4	-19.0	170	11	3.2
2025-08-20T12:00	6500	452	-17.7	-19.1	169	11	3.2
2025-08-20T12:00	6520	450	-17.8	-19.6	168	11	3.1
2025-08-20T12:00	6540	449	-17.8	-19.8	168	11	3.1
2025-08-20T12:00	6560	448	-18.1	-19.6	167	11	3.1
2025-08-20T12:00	6580	447	-18.3	-19.5	166	11	3.1
2025-08-20T12:00	6600	446	-18.4	-19.7	167	11	3.1
2025-08-20T12:00	6620	444	-18.6	-19.8	167	11	3.1
2025-08-20T12:00	6640	443	-18.8	-19.9	168	11	3.1
2025-08-20T12:00	6660	442	-19.0	-20.0	170	10	3.0
2025-08-20T12:00	6680	441	-19.1	-20.2	170	10	3.0
2025-08-20T12:00	6700	440	-19.2	-20.4	168	10	3.0
2025-08-20T12:00	6720	439	-19.3	-20.7	166	10	3.0
2025-08-20T12:00	6740	437	-19.3	-20.7	163	10	3.1
2025-08-20T12:00	6760	436	-19.4	-21.0	159	10	3.0
2025-08-20T12:00	6780	435	-19.4	-21.3	154	9	3.0
2025-08-20T12:00	6800	434	-19.7	-21.3	150	9	3.0
2025-08-20T12:00	6820	433	-19.7	-21.7	147	9	3.0
2025-08-20T12:00	6840	431	-19.9	-21.6	146	9	3.0
2025-08-20T12:00	6860	430	-20.0	-21.8	147	9	2.9
2025-08-20T12:00	6880	429	-20.2	-21.9	150	9	2.9
2025-08-20T12:00	6900	428	-20.3	-22.1	153	10	2.9
2025-08-20T12:00	6920	427	-20.4	-22.3	156	10	2.9
2025-08-20T12:00	6940	426	-20.7	-22.3	159	11	2.9
2025-08-20T12:00	6960	424	-20.7	-22.7	161	11	2.9
2025-08-20T12:00	6980	423	-20.6	-23.4	162	11	2.9
2025-08-20T12:00	7000	422	-20.7	-23.5	163	11	2.9
2025-08-20T12:00	7020	421	-21.0	-23.6	162	11	2.9
2025-08-20T12:00	7040	420	-21.2	-24.3	159	11	2.9
2025-08-20T12:00	7060	419	-21.3	-24.7	158	11	2.9
2025-08-20T12:00	7080	418	-21.6	-25.0	158	12	2.8
2025-08-20T12:00	7100	417	-21.7	-25.4	159	12	2.8
2025-08-20T12:00	7120	416	-21.8	-25.2	161	12	2.9
2025-08-20T12:00	7140	414	-21.8	-25.9	163	12	2.9
2025-08-20T12:00	7160	413	-21.9	-26.3	165	12	3.0
2025-08-20T12:00	7180	412	-22.1	-26.1	166	12	3.0
2025-08-20T12:00	7200	411	-22.3	-26.0	166	11	3.0
2025-08-20T12:00	7220	410	-22.4	-25.9	166	11	3.0
2025-08-20T12:00	7240	409	-22.6	-25.9	166	11	2.9
2025-08-20T12:00	7260	408	-22.7	-25.7	168	11	2.9
2025-08-20T12:00	7280	406	-23.0	-25.5	170	11	2.9
2025-08-20T12:00	7300	405	-23.1	-25.6	171	12	2.9
2025-08-20T12:00	7320	404	-23.3	-25.7	172	12	2.8
2025-08-20T12:00	7340	403	-23.4	-25.7	171	11	2.8
2025-08-20T12:00	7360	402	-23.5	-25.7	170	11	2.8
2025-08-20T12:00	7380	401	-23.8	-25.8	169	11	2.8
2025-08-20T12:00	7400	400	-24.0	-26.0	169	11	2.8
2025-08-20T12:00	7420	399	-24.2	-26.1	171	10	2.8
2025-08-20T12:00	7440	398	-24.3	-26.3	173	10	2.7
2025-08-20T12:00	7460	397	-24.5	-26.4	174	10	2.7
2025-08-20T12:00	7480	396	-24.6	-26.5	173	10	2.7
2025-08-20T12:00	7500	395	-24.9	-26.4	171	10	2.7
2025-08-20T12:00	7520	393	-25.0	-26.7	167	10	2.7
2025-08-20T12:00	7540	392	-25.1	-27.0	165	10	2.7
2025-08-20T12:00	7560	391	-25.3	-26.9	165	10	2.7
2025-08-20T12:00	7580	390	-25.5	-27.1	165	10	2.7
2025-08-20T12:00	7600	389	-25.6	-27.5	166	10	2.7
2025-08-20T12:00	7620	388	-25.6	-28.2	167	10	2.6
2025-08-20T12:00	7640	387	-25.7	-28.3	168	10	2.6
2025-08-20T12:00	7660	386	-25.9	-27.9	168	10	2.6
2025-08-20T12:00	7680	385	-26.1	-27.9	168	10	2.6
2025-08-20T12:00	7700	384	-26.2	-28.5	169	10	2.6
2025-08-20T12:00	7720	383	-26.3	-28.7	169	10	2.5
2025-08-20T12:00	7740	382	-26.5	-28.8	168	10	2.6
2025-08-20T12:00	7760	381	-26.7	-28.7	168	11	2.6
2025-08-20T12:00	7780	380	-26.8	-29.0	167	11	2.5
2025-08-20T12:00	7800	379	-26.9	-29.4	166	11	2.5
2025-08-20T12:00	7820	377	-27.1	-29.5	165	11	2.5
2025-08-20T12:00	7840	376	-27.2	-29.6	165	11	2.5
2025-08-20T12:00	7860	375	-27.3	-29.6	166	10	2.5
2025-08-20T12:00	7880	374	-27.5	-29.8	168	10	2.5
2025-08-20T12:00	7900	373	-27.8	-29.8	169	10	2.5
2025-08-20T12:00	7920	372	-27.9	-30.2	171	9	2.5
2025-08-20T12:00	7940	371	-28.0	-30.5	172	9	2.5
2025-08-20T12:00	7960	370	-28.3	-30.3	172	10	2.5
2025-08-20T12:00	7980	369	-28.4	-30.4	172	10	2.5
2025-08-20T12:00	8000	368	-28.6	-30.6	171	10	2.5
2025-08-20T12:00	8020	367	-28.7	-30.7	171	11	2.5
2025-08-20T12:00	8040	366	-28.9	-30.8	171	11	2.4
2025-08-20T12:00	8060	365	-29.0	-31.0	171	11	2.4
2025-08-20T12:00	8080	364	-29.1	-31.2	171	11	2.4
2025-08-20T12:00	8100	363	-29.3	-31.0	172	11	2.4
2025-08-20T12:00	8120	362	-29.6	-31.0	173	11	2.4
2025-08-20T12:00	8140	361	-29.7	-31.2	174	11	2.4
2025-08-20T12:00	8160	360	-29.7	-31.4	174	12	2.4
2025-08-20T12:00	8180	359	-30.0	-31.3	174	13	2.4
2025-08-20T12:00	8200	358	-30.0	-31.5	173	14	2.4
2025-08-20T12:00	8220	357	-30.1	-31.9	172	14	2.4
2025-08-20T12:00	8240	356	-30.2	-31.9	171	15	2.4
2025-08-20T12:00	8260	355	-30.4	-31.9	171	15	2.4
2025-08-20T12:00	8280	354	-30.5	-32.0	171	15	2.4
2025-08-20T12:00	8300	353	-30.7	-32.2	171	15	2.4
2025-08-20T12:00	8320	352	-30.9	-32.4	172	14	2.4
2025-08-20T12:00	8340	351	-31.0	-32.9	172	14	2.4
2025-08-20T12:00	8360	350	-31.3	-32.9	173	13	2.4
2025-08-20T12:00	8380	349	-31.4	-33.6	174	13	2.4
2025-08-20T12:00	8400	348	-31.5	-33.6	174	13	2.4
2025-08-20T12:00	8420	347	-31.6	-33.7	174	13	2.4
2025-08-20T12:00	8440	346	-31.8	-33.7	174	13	2.4
2025-08-20T12:00	8460	345	-31.9	-33.8	174	13	2.4
2025-08-20T12:00	8480	344	-32.2	-33.8	174	13	2.4
2025-08-20T12:00	8500	343	-32.4	-34.0	174	13	2.3
2025-08-20T12:00	8520	342	-32.6	-34.1	174	13	2.3
2025-08-20T12:00	8540	341	-32.7	-34.3	174	13	2.3
2025-08-20T12:00	8560	340	-32.9	-34.2	174	13	2.3
2025-08-20T12:00	8580	339	-33.1	-34.2	174	13	2.3
2025-08-20T12:00	8600	338	-33.2	-34.3	174	13	2.3
2025-08-20T12:00	8620	337	-33.1	-37.9	175	13	2.3
2025-08-20T12:00	8640	336	-32.8	-42.1	175	13	2.3
2025-08-20T12:00	8660	335	-32.9	-41.6	175	13	2.3
2025-08-20T12:00	8680	334	-33.0	-41.9	175	13	2.4
2025-08-20T12:00	8700	333	-33.2	-42.3	175	13	2.4
2025-08-20T12:00	8720	333	-33.2	-42.7	175	13	2.4
2025-08-20T12:00	8740	332	-33.4	-42.7	175	13	2.5
2025-08-20T12:00	8760	331	-33.6	-42.6	175	13	2.5
2025-08-20T12:00	8780	330	-33.8	-42.7	175	13	2.4
2025-08-20T12:00	8800	329	-34.0	-43.4	174	13	2.5
2025-08-20T12:00	8820	328	-34.1	-44.0	174	12	2.5
2025-08-20T12:00	8840	327	-34.2	-44.2	175	12	2.5
2025-08-20T12:00	8860	326	-34.5	-43.8	176	12	2.5
2025-08-20T12:00	8880	325	-34.8	-43.8	177	11	2.5
2025-08-20T12:00	8900	324	-34.9	-44.2	178	11	2.5
2025-08-20T12:00	8920	323	-35.0	-44.5	179	11	2.5
2025-08-20T12:00	8940	322	-35.3	-44.7	178	11	2.5
2025-08-20T12:00	8960	321	-35.5	-44.9	175	10	2.5
2025-08-20T12:00	8980	320	-35.7	-45.3	173	10	2.5
2025-08-20T12:00	9000	319	-35.9	-45.3	171	10	2.5
2025-08-20T12:00	9020	319	-36.0	-46.1	171	10	2.5
2025-08-20T12:00	9040	318	-36.2	-46.8	172	10	2.5
2025-08-20T12:00	9060	317	-36.5	-46.2	174	10	2.5
2025-08-20T12:00	9080	316	-36.6	-46.6	178	10	2.5
2025-08-20T12:00	9100	315	-36.8	-46.6	180	11	2.5
2025-08-20T12:00	9120	314	-37.0	-46.5	182	11	2.5
2025-08-20T12:00	9140	313	-37.2	-47.1	183	12	2.5
2025-08-20T12:00	9160	312	-37.2	-48.2	183	12	2.5
2025-08-20T12:00	9180	311	-37.5	-48.3	183	13	2.4
2025-08-20T12:00	9200	310	-37.7	-48.2	183	13	2.5
2025-08-20T12:00	9220	309	-37.8	-48.3	182	13	2.5
2025-08-20T12:00	9240	309	-38.0	-48.4	181	14	2.4
2025-08-20T12:00	9260	308	-38.3	-48.2	180	14	2.4
2025-08-20T12:00	9280	307	-38.4	-48.2	180	14	2.5
2025-08-20T12:00	9300	306	-38.6	-48.9	180	15	2.4
2025-08-20T12:00	9320	305	-38.7	-49.5	181	15	2.4
2025-08-20T12:00	9340	304	-38.8	-50.3	184	15	2.4
2025-08-20T12:00	9360	303	-38.9	-50.9	187	15	2.4
2025-08-20T12:00	9380	302	-39.0	-51.3	189	15	2.4
2025-08-20T12:00	9400	301	-39.3	-51.7	192	15	2.4
2025-08-20T12:00	9420	301	-39.5	-52.1	195	15	2.4
2025-08-20T12:00	9440	300	-39.6	-52.5	196	15	2.4
2025-08-20T12:00	9460	299	-39.8	-52.9	197	14	2.5
2025-08-20T12:00	9480	298	-40.1	-52.6	196	14	2.5
2025-08-20T12:00	9500	297	-40.3	-52.7	195	14	2.5
2025-08-20T12:00	9520	296	-40.4	-53.0	194	14	2.4
2025-08-20T12:00	9540	295	-40.6	-53.3	194	13	2.4
2025-08-20T12:00	9560	294	-40.8	-53.2	193	13	2.4
2025-08-20T12:00	9580	294	-41.0	-53.2	194	13	2.4
2025-08-20T12:00	9600	293	-41.2	-53.2	195	13	2.4
2025-08-20T12:00	9620	292	-41.4	-53.5	196	13	2.4
2025-08-20T12:00	9640	291	-41.5	-54.5	197	13	2.4
2025-08-20T12:00	9660	290	-41.7	-53.7	199	13	2.4
2025-08-20T12:00	9680	289	-42.0	-53.5	199	13	2.4
2025-08-20T12:00	9700	288	-42.2	-53.4	200	13	2.4
2025-08-20T12:00	9720	288	-42.3	-54.1	200	13	2.4
2025-08-20T12:00	9740	287	-42.4	-54.7	200	13	2.4
2025-08-20T12:00	9760	286	-42.7	-54.7	200	13	2.4
2025-08-20T12:00	9780	285	-42.9	-54.9	200	13	2.4
2025-08-20T12:00	9800	284	-43.1	-55.5	199	13	2.4
2025-08-20T12:00	9820	283	-43.2	-56.0	199	13	2.5
2025-08-20T12:00	9840	282	-43.4	-56.0	198	13	2.4
2025-08-20T12:00	9860	282	-43.5	-55.9	197	13	2.4
2025-08-20T12:00	9880	281	-43.8	-56.2	197	13	2.4
2025-08-20T12:00	9900	280	-44.0	-56.7	197	13	2.4
2025-08-20T12:00	9920	279	-44.2	-57.5	198	13	2.5
2025-08-20T12:00	9940	278	-44.4	-57.2	199	13	2.5
2025-08-20T12:00	9960	278	-44.5	-57.5	200	14	2.5
2025-08-20T12:00	9980	277	-44.7	-57.8	201	14	2.6
2025-08-20T12:00	10000	276	-44.8	-57.8	202	14	2.6
2025-08-20T12:00	10018	275	-45.0	-57.8	202	14	2.6
2025-08-20T12:00	10050	274	-45.3	-57.8	203	13	2.6
2025-08-20T12:00	10100	272	-45.9	-57.8	204	12	2.6
2025-08-20T12:00	10150	270	-46.2	-58.2	203	14	2.6
2025-08-20T12:00	10200	268	-46.7	-58.3	199	16	2.6
2025-08-20T12:00	10250	266	-47.0	-58.7	194	16	2.6
2025-08-20T12:00	10300	264	-47.5	-58.5	191	15	2.6
2025-08-20T12:00	10350	262	-48.1	-58.8	192	16	2.6
2025-08-20T12:00	10400	260	-48.4	-58.9	194	16	2.6
2025-08-20T12:00	10450	258	-49.0	-58.8	197	16	2.6
2025-08-20T12:00	10500	256	-49.4	-58.8	200	15	2.4
2025-08-20T12:00	10550	254	-50.0	-59.1	201	16	2.2
2025-08-20T12:00	10600	252	-50.4	-59.1	200	16	2.2
2025-08-20T12:00	10650	250	-51.0	-59.2	198	16	2.2
2025-08-20T12:00	10700	248	-51.4	-59.4	195	15	2.2
2025-08-20T12:00	10750	246	-52.0	-59.3	194	15	2.1
2025-08-20T12:00	10800	244	-52.3	-59.8	195	16	2.1
2025-08-20T12:00	10850	242	-52.7	-60.2	194	17	2.1
2025-08-20T12:00	10900	241	-53.1	-60.1	191	18	2.1
2025-08-20T12:00	10950	239	-53.6	-60.4	186	17	2.2
2025-08-20T12:00	11000	237	-54.1	-60.5	182	16	2.3
2025-08-20T12:00	11050	235	-54.7	-60.5	180	16	2.3
2025-08-20T12:00	11100	233	-55.0	-60.4	176	15	2.4
2025-08-20T12:00	11150	231	-55.5	-60.5	171	15	2.4
2025-08-20T12:00	11200	229	-56.0	-60.4	165	15	2.5
2025-08-20T12:00	11250	228	-56.4	-60.3	160	15	2.5
2025-08-20T12:00	11300	226	-56.8	-60.4	158	15	2.7
2025-08-20T12:00	11350	224	-57.1	-60.7	153	15	2.8
2025-08-20T12:00	11400	222	-57.1	-61.5	148	17	3.0
2025-08-20T12:00	11450	221	-57.3	-62.5	146	17	3.1
2025-08-20T12:00	11500	219	-57.5	-63.1	147	18	3.3
2025-08-20T12:00	11550	217	-57.7	-63.7	148	18	3.4
2025-08-20T12:00	11600	215	-57.8	-64.4	148	17	3.5
2025-08-20T12:00	11650	214	-57.6	-66.0	148	16	3.7
2025-08-20T12:00	11700	212	-57.5	-67.1	153	14	4.0
2025-08-20T12:00	11750	210	-57.4	-68.3	160	14	4.2
2025-08-20T12:00	11800	209	-57.4	-69.5	169	13	4.6
2025-08-20T12:00	11850	207	-57.5	-70.3	178	13	4.8
2025-08-20T12:00	11900	205	-57.1	-71.3	186	13	4.9
2025-08-20T12:00	11950	204	-57.4	-71.7	188	14	5.1
2025-08-20T12:00	12000	202	-58.0	-71.1	186	14	5.2
2025-08-20T12:00	12050	201	-58.0	-71.0	183	15	5.3
2025-08-20T12:00	12100	199	-57.7	-71.0	183	16	5.3
2025-08-20T12:00	12150	197	-57.4	-71.7	184	17	5.3
2025-08-20T12:00	12200	196	-57.4	-72.2	187	17	5.3
2025-08-20T12:00	12250	194	-57.5	-72.8	190	17	5.3
2025-08-20T12:00	12300	193	-56.9	-74.1	193	18	5.3
2025-08-20T12:00	12350	191	-56.3	-76.0	195	19	5.3
2025-08-20T12:00	12400	190	-55.9	-76.1	196	20	5.4
2025-08-20T12:00	12450	188	-55.4	-77.3	199	19	5.5
2025-08-20T12:00	12500	187	-55.4	-77.3	203	19	5.7
2025-08-20T12:00	12550	185	-55.2	-76.9	208	19	5.6
2025-08-20T12:00	12600	184	-55.0	-77.1	213	20	5.5
2025-08-20T12:00	12650	182	-54.3	-78.0	217	19	5.3
2025-08-20T12:00	12700	181	-53.6	-78.3	216	18	5.1
2025-08-20T12:00	12750	180	-52.8	-79.1	216	18	4.9
2025-08-20T12:00	12800	178	-52.5	-79.5	217	18	4.8
2025-08-20T12:00	12850	177	-51.9	-79.5	218	19	4.8
2025-08-20T12:00	12900	175	-51.7	-79.6	221	19	4.8
2025-08-20T12:00	12950	174	-51.8	-79.8	226	19	4.8
2025-08-20T12:00	13000	173	-51.4	-80.1	233	18	4.9
2025-08-20T12:00	13050	172	-50.4	-80.4	240	17	4.8
2025-08-20T12:00	13100	170	-49.8	-80.4	242	16	5.0
2025-08-20T12:00	13150	169	-49.8	-80.2	238	14	5.1
2025-08-20T12:00	13200	168	-49.9	-80.3	236	11	5.3
2025-08-20T12:00	13250	166	-50.0	-80.4	241	9	5.5
2025-08-20T12:00	13300	165	-50.4	-80.5	247	9	5.6
2025-08-20T12:00	13350	164	-50.8	-80.8	245	9	5.7
2025-08-20T12:00	13400	163	-51.0	-80.8	237	8	5.8
2025-08-20T12:00	13450	161	-51.2	-80.7	230	7	5.9
2025-08-20T12:00	13500	160	-51.7	-81.0	229	5	5.9
2025-08-20T12:00	13550	159	-52.0	-81.2	232	4	5.9
2025-08-20T12:00	13600	158	-52.5	-81.3	218	5	6.0
2025-08-20T12:00	13650	156	-52.9	-81.5	206	6	6.0
2025-08-20T12:00	13700	155	-53.1	-81.6	208	6	6.0
2025-08-20T12:00	13750	154	-53.3	-81.9	214	7	6.0
2025-08-20T12:00	13800	153	-53.1	-82.0	215	8	6.0
2025-08-20T12:00	13850	152	-53.0	-82.0	213	9	6.1
2025-08-20T12:00	13900	150	-53.2	-82.2	216	10	6.2
2025-08-20T12:00	13950	149	-52.8	-82.2	223	10	6.2
2025-08-20T12:00	14000	148	-52.5	-82.4	231	9	6.3
2025-08-20T12:00	14050	147	-52.5	-82.2	236	9	6.3
2025-08-20T12:00	14100	146	-52.6	-82.3	236	8	6.3
2025-08-20T12:00	14150	145	-52.3	-82.3	233	9	6.4
2025-08-20T12:00	14200	144	-52.3	-82.4	229	10	6.4
2025-08-20T12:00	14250	143	-52.7	-82.5	226	11	6.4
2025-08-20T12:00	14300	141	-52.9	-82.4	222	12	6.5
2025-08-20T12:00	14350	140	-53.3	-82.5	219	13	6.4
2025-08-20T12:00	14400	139	-53.6	-82.8	219	13	6.4
2025-08-20T12:00	14450	138	-53.7	-82.8	223	13	6.4
2025-08-20T12:00	14500	137	-53.6	-83.1	230	13	6.4
2025-08-20T12:00	14550	136	-52.9	-82.8	237	11	6.5
2025-08-20T12:00	14600	135	-52.9	-83.0	242	10	6.6
2025-08-20T12:00	14650	134	-52.7	-82.9	245	9	6.5
2025-08-20T12:00	14700	133	-53.0	-82.9	244	8	6.6
2025-08-20T12:00	14750	132	-53.3	-83.0	238	8	6.6
2025-08-20T12:00	14800	131	-53.4	-83.1	233	8	6.7
2025-08-20T12:00	14850	130	-53.6	-83.3	231	9	6.8
2025-08-20T12:00	14900	129	-53.6	-83.2	231	9	6.9
2025-08-20T12:00	14950	128	-53.4	-83.2	231	8	6.8
2025-08-20T12:00	15000	127	-53.3	-83.2	227	8	6.7
2025-08-20T12:00	15050	126	-53.5	-83.2	222	9	6.7
2025-08-20T12:00	15100	125	-53.6	-83.2	220	9	6.6
2025-08-20T12:00	15150	124	-54.0	-83.4	221	9	6.5
2025-08-20T12:00	15200	123	-54.2	-83.5	226	9	6.5
2025-08-20T12:00	15250	122	-54.3	-83.6	233	8	6.6
2025-08-20T12:00	15300	121	-54.3	-83.7	238	8	6.7
2025-08-20T12:00	15350	120	-54.5	-83.8	241	8	6.8
2025-08-20T12:00	15400	119	-54.7	-83.8	242	8	6.8
2025-08-20T12:00	15450	118	-54.8	-83.8	244	8	6.8
2025-08-20T12:00	15500	117	-55.0	-84.0	246	7	6.6
2025-08-20T12:00	15550	116	-54.9	-83.9	248	6	6.6
2025-08-20T12:00	15600	115	-55.1	-83.9	248	5	6.6
2025-08-20T12:00	15650	115	-55.5	-84.0	247	4	6.6
2025-08-20T12:00	15700	114	-55.9	-84.1	248	4	6.6
2025-08-20T12:00	15750	113	-55.9	-84.1	251	5	6.5
2025-08-20T12:00	15800	112	-56.1	-84.2	252	6	6.5
2025-08-20T12:00	15850	111	-56.1	-84.1	250	7	6.3
2025-08-20T12:00	15900	110	-56.4	-84.3	248	8	6.2
2025-08-20T12:00	15950	109	-56.2	-84.3	250	9	6.1
2025-08-20T12:00	16000	108	-55.8	-84.1	256	9	5.9
2025-08-20T12:00	16050	108	-55.8	-84.2	264	8	5.8
2025-08-20T12:00	16100	107	-56.0	-84.1	271	7	5.6
2025-08-20T12:00	16150	106	-56.5	-84.2	273	6	5.4
2025-08-20T12:00	16200	105	-56.6	-84.2	266	6	5.3
2025-08-20T12:00	16250	104	-56.7	-84.3	255	6	5.1
2025-08-20T12:00	16300	103	-56.8	-84.4	252	6	5.0
2025-08-20T12:00	16350	103	-56.6	-84.5	259	6	4.9
2025-08-20T12:00	16400	102	-56.4	-84.4	267	8	4.9
2025-08-20T12:00	16450	101	-56.6	-84.5	270	10	4.8
2025-08-20T12:00	16500	100	-56.5	-84.5	270	11	4.7
2025-08-20T12:00	16550	99	-56.2	-84.4	270	10	4.6
2025-08-20T12:00	16600	99	-56.2	-84.3	269	8	4.5
2025-08-20T12:00	16650	98	-56.5	-84.4	263	7	4.4
2025-08-20T12:00	16700	97	-56.5	-84.4	258	7	4.4
2025-08-20T12:00	16750	96	-56.5	-84.6	260	7	4.4
2025-08-20T12:00	16800	96	-56.3	-84.7	266	7	4.3
2025-08-20T12:00	16850	95	-55.9	-84.7	274	8	4.4
2025-08-20T12:00	16900	94	-56.0	-84.7	281	8	4.4
2025-08-20T12:00	16950	93	-56.0	-84.7	286	8	4.4
2025-08-20T12:00	17000	93	-56.1	-84.7	291	7	4.5
2025-08-20T12:00	17050	92	-56.1	-84.8	296	7	4.5
2025-08-20T12:00	17100	91	-56.1	-85.0	301	7	4.5
2025-08-20T12:00	17150	91	-55.8	-85.0	302	6	4.6
2025-08-20T12:00	17200	90	-55.5	-84.9	296	6	4.6
2025-08-20T12:00	17250	89	-55.6	-85.0	285	6	4.7
2025-08-20T12:00	17300	88	-55.7	-85.0	279	6	4.8
2025-08-20T12:00	17350	88	-55.7	-85.1	281	6	4.8
2025-08-20T12:00	17400	87	-55.6	-85.1	293	5	4.9
2025-08-20T12:00	17450	86	-55.3	-85.2	306	5	5.0
2025-08-20T12:00	17500	86	-55.1	-85.1	316	5	5.1
2025-08-20T12:00	17550	85	-55.4	-85.2	323	4	5.1
2025-08-20T12:00	17600	84	-55.4	-85.1	327	3	5.2
2025-08-20T12:00	17650	84	-55.6	-85.1	318	2	5.3
2025-08-20T12:00	17700	83	-55.8	-85.3	269	1	5.3
2025-08-20T12:00	17750	82	-55.7	-85.3	212	2	5.3
2025-08-20T12:00	17800	82	-55.8	-85.4	201	4	5.4
2025-08-20T12:00	17850	81	-55.9	-85.5	205	5	5.5
2025-08-20T12:00	17900	80	-55.5	-85.5	215	5	5.7
2025-08-20T12:00	17950	80	-55.4	-85.5	229	4	5.8
2025-08-20T12:00	18000	79	-55.5	-85.5	250	3	5.9
2025-08-20T12:00	18050	79	-55.7	-85.5	278	2	6.0
2025-08-20T12:00	18100	78	-55.9	-85.6	297	2	6.0
2025-08-20T12:00	18150	77	-55.6	-85.6	279	1	6.1
2025-08-20T12:00	18200	77	-55.4	-85.7	208	1	6.2
2025-08-20T12:00	18250	76	-55.5	-85.7	202	3	6.3
2025-08-20T12:00	18300	76	-55.6	-85.6	210	4	6.4
2025-08-20T12:00	18350	75	-55.8	-85.7	223	5	6.5
2025-08-20T12:00	18400	74	-55.7	-85.7	241	5	6.8
2025-08-20T12:00	18450	74	-55.5	-85.8	254	5	7.0
2025-08-20T12:00	18500	73	-55.5	-85.9	259	5	7.2
2025-08-20T12:00	18550	73	-55.2	-85.8	259	4	7.4
2025-08-20T12:00	18600	72	-55.2	-85.8	256	4	7.6
2025-08-20T12:00	18650	72	-55.3	-85.8	247	4	7.7
2025-08-20T12:00	18700	71	-55.1	-85.8	234	5	7.9
2025-08-20T12:00	18750	70	-55.0	-85.7	228	6	8.2
2025-08-20T12:00	18800	70	-55.2	-85.7	230	7	8.6
2025-08-20T12:00	18850	69	-55.3	-85.7	231	7	8.8
2025-08-20T12:00	18900	69	-55.5	-85.8	230	7	8.9
2025-08-20T12:00	18950	68	-55.5	-85.8	229	7	9.0
2025-08-20T12:00	19000	68	-55.4	-85.8	229	6	9.1
2025-08-20T12:00	19050	67	-55.3	-85.9	232	6	9.3
2025-08-20T12:00	19100	67	-55.3	-85.9	239	7	9.3
2025-08-20T12:00	19150	66	-55.4	-86.0	249	7	9.3
2025-08-20T12:00	19200	66	-55.3	-86.0	263	6	9.3
2025-08-20T12:00	19250	65	-54.9	-85.9	278	6	9.4
2025-08-20T12:00	19300	65	-54.8	-85.9	286	5	9.4
2025-08-20T12:00	19350	64	-54.5	-85.8	286	5	9.5
2025-08-20T12:00	19400	64	-54.3	-85.8	279	4	9.6
2025-08-20T12:00	19450	63	-54.2	-85.9	272	3	9.7
2025-08-20T12:00	19500	63	-54.0	-85.8	285	2	9.8
2025-08-20T12:00	19550	62	-53.7	-85.7	334	2	9.8
2025-08-20T12:00	19600	62	-53.0	-85.6	11	2	10.0
2025-08-20T12:00	19650	61	-52.7	-85.4	10	2	10.2
2025-08-20T12:00	19700	61	-52.7	-85.3	3	2	10.4
2025-08-20T12:00	19750	60	-52.8	-85.2	26	1	10.6
2025-08-20T12:00	19800	60	-52.7	-85.0	75	2	10.7
2025-08-20T12:00	19850	59	-52.9	-85.1	103	2	10.8
2025-08-20T12:00	19900	59	-53.2	-85.1	122	3	11.0
2025-08-20T12:00	19950	58	-53.3	-85.1	137	3	11.0
2025-08-20T12:00	20000	58	-53.3	-85.1	148	3	11.1
2025-08-20T12:00	20050	57	-53.4		158	3	11.1
2025-08-20T12:00	20100	57	-53.3		175	3	11.2
2025-08-20T12:00	20150	57	-53.3		189	4	11.2
2025-08-20T12:00	20200	56	-53.5		190	5	11.2
2025-08-20T12:00	20250	56	-53.4		186	5	11.2
2025-08-20T12:00	20300	55	-53.2		181	6	11.2
2025-08-20T12:00	20350	55	-53.4		180	7	11.2
2025-08-20T12:00	20400	54	-53.6		181	7	11.2
2025-08-20T12:00	20450	54	-53.6		184	8	11.2
2025-08-20T12:00	20500	54	-53.7		189	8	11.3
2025-08-20T12:00	20550	53	-54.0		195	9	11.4
2025-08-20T12:00	20600	53	-54.3		202	9	11.4
2025-08-20T12:00	20650	52	-54.6		210	8	11.4
2025-08-20T12:00	20700	52	-54.8		221	8	11.4
2025-08-20T12:00	20750	52	-54.6		233	7	11.4
2025-08-20T12:00	20800	51	-54.3		245	7	11.4
2025-08-20T12:00	20850	51	-54.2		257	6	11.4
2025-08-20T12:00	20900	50	-54.1		266	6	11.4
2025-08-20T12:00	20950	50	-54.2		271	6	11.4
2025-08-20T12:00	21000	50	-54.4		274	7	11.4
2025-08-20T12:00	21050	49	-54.4		276	7	11.5
2025-08-20T12:00	21100	49	-54.3		278	7	11.5
2025-08-20T12:00	21150	48	-54.2		280	8	11.5
2025-08-20T12:00	21200	48	-54.2		282	7	11.5
2025-08-20T12:00	21250	48	-54.3		285	6	11.6
2025-08-20T12:00	21300	47	-54.3		290	5	11.6
2025-08-20T12:00	21350	47	-54.2		294	3	11.6
2025-08-20T12:00	21400	47	-54.0		286	2	11.6
2025-08-20T12:00	21450	46	-54.1		254	2	11.7
2025-08-20T12:00	21500	46	-54.3		251	2	11.7
2025-08-20T12:00	21550	45	-53.8		260	3	11.7
2025-08-20T12:00	21600	45	-53.6		270	3	11.9
2025-08-20T12:00	21650	45	-53.7		281	3	12.0
2025-08-20T12:00	21700	44	-53.7		293	3	12.0
2025-08-20T12:00	21750	44	-53.8		299	3	12.1
2025-08-20T12:00	21800	44	-53.7		303	3	12.1
2025-08-20T12:00	21850	43	-53.6		305	2	11.9
2025-08-20T12:00	21900	43	-53.4		315	1	11.7
2025-08-20T12:00	21950	43	-53.3		116	0	11.4
2025-08-20T12:00	22000	42	-53.2		146	2	11.2
2025-08-20T12:00	22050	42	-52.9		162	2	11.1
2025-08-20T12:00	22100	42	-52.7		178	2	10.9
2025-08-20T12:00	22150	41	-52.7		202	2	10.8
2025-08-20T12:00	22200	41	-52.6		217	2	10.8
2025-08-20T12:00	22250	41	-52.1		218	4	10.8
2025-08-20T12:00	22300	40	-52.0		219	5	10.9
2025-08-20T12:00	22350	40	-52.1		224	6	10.9
2025-08-20T12:00	22400	40	-52.2		229	6	10.9
2025-08-20T12:00	22450	40	-52.2		239	5	10.9
2025-08-20T12:00	22500	39	-52.1		258	4	11.1
2025-08-20T12:00	22550	39	-52.2		286	4	11.1
2025-08-20T12:00	22600	39	-52.0		309	4	11.4
2025-08-20T12:00	22650	38	-52.1		324	5	11.6
2025-08-20T12:00	22700	38	-52.0		336	5	11.8
2025-08-20T12:00	22750	38	-52.2		346	5	12.0
2025-08-20T12:00	22800	37	-52.3		355	5	12.1
2025-08-20T12:00	22850	37	-52.3		360	4	12.3
2025-08-20T12:00	22900	37	-52.4		358	3	12.4
2025-08-20T12:00	22950	37	-52.5		347	3	12.5
2025-08-20T12:00	23000	36	-52.7		332	3	12.5
2025-08-20T12:00	23050	36	-52.8		322	4	12.6
2025-08-20T12:00	23100	36	-53.1		320	4	12.6
2025-08-20T12:00	23150	35	-53.2		323	5	12.5
2025-08-20T12:00	23200	35	-53.3		329	5	12.3
2025-08-20T12:00	23250	35	-53.3		339	5	12.2
2025-08-20T12:00	23300	35	-53.5		354	5	12.1
2025-08-20T12:00	23350	34	-53.6		11	5	12.0
2025-08-20T12:00	23400	34	-53.6		23	5	11.9
2025-08-20T12:00	23450	34	-53.6		31	5	11.7
2025-08-20T12:00	23500	34	-53.6		37	4	11.6
2025-08-20T12:00	23550	33	-53.6		43	4	11.4
2025-08-20T12:00	23600	33	-53.5		48	4	11.4
2025-08-20T12:00	23650	33	-53.2		52	4	11.3
2025-08-20T12:00	23700	33	-53.2		55	3	11.4
2025-08-20T12:00	23750	32	-53.0		55	2	11.4
2025-08-20T12:00	23800	32	-53.0		292	0	11.5
2025-08-20T12:00	23850	32	-52.7		275	2	11.6
2025-08-20T12:00	23900	32	-52.1		301	2	11.8
2025-08-20T12:00	23950	31	-51.5		352	1	12.0
2025-08-20T12:00	24000	31	-51.4		26	2	12.2
2025-08-20T12:00	24050	31	-51.4		50	2	12.4
2025-08-20T12:00	24100	31	-51.3		72	2	12.6
2025-08-20T12:00	24150	30	-51.1		92	1	12.7
2025-08-20T12:00	24200	30	-50.9		125	1	12.9
2025-08-20T12:00	24250	30	-50.6		171	1	12.9
2025-08-20T12:00	24300	30	-50.3		170	1	13.0
2025-08-20T12:00	24350	29	-50.1		134	2	13.1
2025-08-20T12:00	24400	29	-49.9		121	4	13.1
2025-08-20T12:00	24450	29	-49.9		121	5	13.1
2025-08-20T12:00	24500	29	-50.1		124	7	13.1
2025-08-20T12:00	24550	29	-50.3		129	9	13.1
2025-08-20T12:00	24600	28	-50.3		136	10	13.1
2025-08-20T12:00	24650	28	-50.2		144	10	13.1
2025-08-20T12:00	24700	28	-50.1		151	9	13.1
2025-08-20T12:00	24750	28	-49.8		157	7	13.0
2025-08-20T12:00	24800	28	-49.6		160	6	12.9
2025-08-20T12:00	24850	27	-49.4		162	6	12.9
2025-08-20T12:00	24900	27	-49.1		162	7	12.9
2025-08-20T12:00	24950	27	-48.9		158	7	12.9
2025-08-20T12:00	25000	27	-48.6		150	7	13.0
2025-08-20T12:00	25050	26	-48.5		146	7	13.0
2025-08-20T12:00	25100	26	-48.3		153	6	13.0
2025-08-20T12:00	25150	26	-48.3		163	6	13.1
2025-08-20T12:00	25200	26	-48.5		170	5	13.2
2025-08-20T12:00	25250	26	-48.6		170	4	13.3
2025-08-20T12:00	25300	25	-48.5		168	4	13.4
2025-08-20T12:00	25350	25	-48.6		170	4	13.5
2025-08-20T12:00	25400	25	-48.8		179	3	13.6
2025-08-20T12:00	25450	25	-48.6		190	2	13.6
2025-08-20T12:00	25500	25	-48.6		183	2	13.6
2025-08-20T12:00	25550	25	-48.6		159	2	13.6
2025-08-20T12:00	25600	24	-48.5		147	3	13.6
2025-08-20T12:00	25650	24	-48.5		143	4	13.6
2025-08-20T12:00	25700	24	-48.4		144	5	13.7
2025-08-20T12:00	25750	24	-48.2		148	5	13.6
2025-08-20T12:00	25800	24	-48.1		156	6	13.6
2025-08-20T12:00	25850	23	-48.3		164	7	13.5
2025-08-20T12:00	25900	23	-48.4		170	8	13.4
2025-08-20T12:00	25950	23	-48.5		174	8	13.5
2025-08-20T12:00	26000	23	-48.3		179	8	13.4
2025-08-20T12:00	26050	23	-48.2		187	7	13.4
2025-08-20T12:00	26100	23	-48.0		197	6	13.4
2025-08-20T12:00	26150	22	-47.5		205	5	13.5
2025-08-20T12:00	26200	22	-47.1		210	4	13.5
2025-08-20T12:00	26250	22	-46.9		214	3	13.6
2025-08-20T12:00	26300	22	-46.8		220	2	13.6
2025-08-20T12:00	26350	22	-46.8		237	1	13.7
2025-08-20T12:00	26400	22	-46.7		246	1	13.7
2025-08-20T12:00	26450	21	-46.6		239	2	13.7
2025-08-20T12:00	26500	21	-46.6		230	2	13.7
2025-08-20T12:00	26550	21	-46.8		226	3	13.6
2025-08-20T12:00	26600	21	-47.2		223	3	13.5
2025-08-20T12:00	26650	21	-47.3		220	3	13.4
2025-08-20T12:00	26700	21	-47.3		219	3	13.3
2025-08-20T12:00	26750	20	-47.4		222	3	13.3
2025-08-20T12:00	26800	20	-47.5		231	2	13.1
2025-08-20T12:00	26850	20	-47.2		272	1	13.1
2025-08-20T12:00	26900	20	-46.9		345	1	13.0
2025-08-20T12:00	26950	20	-46.6		11	1	13.0
2025-08-20T12:00	27000	20	-46.5		50	1	12.9
2025-08-20T12:00	27050	20	-46.6		101	1	12.8
2025-08-20T12:00	27100	19	-46.3		126	2	12.7
2025-08-20T12:00	27150	19	-46.2		149	1	12.6
2025-08-20T12:00	27200	19	-46.2		191	1	12.5
2025-08-20T12:00	27250	19	-46.0		229	1	12.5
2025-08-20T12:00	27300	19	-45.9		221	1	12.4
2025-08-20T12:00	27350	19	-45.8		194	1	12.3
2025-08-20T12:00	27400	19	-45.8		188	2	12.3
2025-08-20T12:00	27450	18	-45.9		190	2	12.2
2025-08-20T12:00	27500	18	-45.9		193	2	12.2
2025-08-20T12:00	27550	18	-45.9		200	2	12.1
2025-08-20T12:00	27600	18	-45.9		212	1	12.0
2025-08-20T12:00	27650	18	-45.8		9	0	12.0
2025-08-20T12:00	27700	18	-45.6		32	0	11.9
2025-08-20T12:00	27750	18	-45.8		106	0	11.9
2025-08-20T12:00	27800	17	-45.9		143	0	11.9
2025-08-20T12:00	27850	17	-46.0		52	0	11.9
2025-08-20T12:00	27900	17	-46.1		34	1	11.9
2025-08-20T12:00	27950	17	-46.1		40	2	11.9
2025-08-20T12:00	28000	17	-46.0		46	2	11.9
2025-08-20T12:00	28050	17	-46.1		50	2	11.8
2025-08-20T12:00	28100	17	-46.2		56	2	11.8
2025-08-20T12:00	28150	17	-46.2		67	2	11.7
2025-08-20T12:00	28200	16	-46.1		80	2	11.7
2025-08-20T12:00	28250	16	-46.0		90	1	11.7
2025-08-20T12:00	28300	16	-45.9		96	1	11.6
2025-08-20T12:00	28350	16	-45.7		297	0	11.6
2025-08-20T12:00	28400	16	-45.4		280	1	11.6
2025-08-20T12:00	28450	16	-45.3		272	2	11.5
2025-08-20T12:00	28500	16	-45.3		269	3	11.6
2025-08-20T12:00	28550	16	-45.4		274	3	11.5
2025-08-20T12:00	28600	15	-45.3		284	3	11.3
2025-08-20T12:00	28650	15	-45.3		296	3	11.3
2025-08-20T12:00	28700	15	-45.3		308	4	11.3
2025-08-20T12:00	28750	15	-45.0		323	4	11.3
2025-08-20T12:00	28800	15	-44.9		341	4	11.2
2025-08-20T12:00	28850	15	-44.9		356	5	11.2
2025-08-20T12:00	28900	15	-45.0		7	5	11.1
2025-08-20T12:00	28950	15	-45.2		16	6	11.0
2025-08-20T12:00	29000	15	-45.3		25	6	10.9
2025-08-20T12:00	29050	14	-45.1		37	6	10.8
2025-08-20T12:00	29100	14	-45.1		51	6	10.8
2025-08-20T12:00	29150	14	-45.2		66	5	10.8
2025-08-20T12:00	29200	14	-45.3		81	5	10.7
2025-08-20T12:00	29250	14	-45.3		94	5	10.6
2025-08-20T12:00	29300	14	-45.3		102	5	10.5
2025-08-20T12:00	29350	14	-44.9		101	5	10.4
2025-08-20T12:00	29400	14	-44.7		97	6	10.4
2025-08-20T12:00	29450	14	-44.5		97	7	10.3
2025-08-20T12:00	29500	14	-44.4		101	7	10.3
2025-08-20T12:00	29550	13	-44.3		106	7	10.2
2025-08-20T12:00	29600	13	-44.4		111	7	10.2
2025-08-20T12:00	29650	13	-44.5		113	6	10.1
2025-08-20T12:00	29700	13	-44.4		111	6	10.1
2025-08-20T12:00	29750	13	-44.2		106	6	10.1
2025-08-20T12:00	29800	13	-44.1		103	6	10.1
2025-08-20T12:00	29850	13	-43.8		104	8	10.1
2025-08-20T12:00	29900	13	-43.4		109	9	10.0
2025-08-20T12:00	29950	13	-43.3		112	10	10.0
2025-08-20T12:00	30000	13	-43.2		114	10	9.9
2025-08-20T12:00	30050	12	-42.9		116	8	9.8
2025-08-20T12:00	30100	12	-42.8		121	7	9.7
2025-08-20T12:00	30150	12	-42.9		128	6	9.7
2025-08-20T12:00	30200	12	-43.1		134	5	9.6
2025-08-20T12:00	30250	12	-43.1		135	5	9.5
2025-08-20T12:00	30300	12	-42.9		128	5	9.5
2025-08-20T12:00	30350	12	-42.7		117	5	9.5
2025-08-20T12:00	30400	12	-42.5		111	6	9.5
2025-08-20T12:00	30450	12	-42.3		113	7	9.5
2025-08-20T12:00	30500	12	-42.1		119	7	9.5
2025-08-20T12:00	30550	12	-41.8		124	8	9.4
2025-08-20T12:00	30600	11	-41.5		130	7	9.4
2025-08-20T12:00	30650	11	-41.4		134	7	9.3
2025-08-20T12:00	30700	11	-41.5		136	6	9.2
2025-08-20T12:00	30750	11	-41.7		135	5	9.1
2025-08-20T12:00	30800	11	-41.6		129	4	9.0
2025-08-20T12:00	30850	11	-41.5		113	3	8.9
2025-08-20T12:00	30900	11	-41.3		85	2	8.8
2025-08-20T12:00	30950	11	-41.2		55	2	8.7
2025-08-20T12:00	31000	11	-41.3		31	2	8.7
2025-08-20T12:00	31050	11	-41.5		27	2	8.6
2025-08-20T12:00	31100	11	-41.5		41	3	8.6
2025-08-20T12:00	31150	11	-41.5		61	4	8.6
2025-08-20T12:00	31200	11	-41.3		76	5	8.6
2025-08-20T12:00	31250	10	-41.2		86	7	8.6
2025-08-20T12:00	31300	10	-41.1		89	8	8.5
2025-08-20T12:00	31350	10	-40.9		87	8	8.4
2025-08-20T12:00	31400	10	-40.4		82	8	8.4
2025-08-20T12:00	31450	10	-40.0		77	8	8.3
2025-08-20T12:00	31500	10	-40.0		72	8	8.2
2025-08-20T12:00	31550	10	-40.0		66	8	8.2
2025-08-20T12:00	31600	10	-40.0		58	9	8.1
2025-08-20T12:00	31650	10	-40.1		52	10	8.0
2025-08-20T12:00	31700	10	-40.1		50	11	8.0
2025-08-20T12:00	31750	10	-39.9		53	12	8.0
2025-08-20T12:00	31800	10	-39.7		59	12	7.9
2025-08-20T12:00	31850	10	-39.7		64	12	7.9
2025-08-20T12:00	31900	10	-39.7		65	10	7.9
2025-08-20T12:00	31950	9	-39.7		59	9	7.8
2025-08-20T12:00	32000	9	-39.5		49	9	7.7
2025-08-20T12:00	32050	9	-39.4		41	9	7.6
2025-08-20T12:00	32100	9	-39.6		37	9	7.5
2025-08-20T12:00	32150	9	-39.8		38	10	7.4
2025-08-20T12:00	32200	9	-39.8		45	10	7.3
2025-08-20T12:00	32250	9	-39.9		55	11	7.3
2025-08-20T12:00	32300	9	-39.9		66	11	7.2
2025-08-20T12:00	32350	9	-40.0		75	11	7.2
2025-08-20T12:00	32400	9	-39.7		81	10	7.2
2025-08-20T12:00	32450	9	-39.5		82	8	7.2
2025-08-20T12:00	32500	9	-39.4		80	7	7.2
2025-08-20T12:00	32550	9	-39.5		75	6	7.1
2025-08-20T12:00	32600	9	-39.5		69	6	7.0
2025-08-20T12:00	32650	9	-39.3		65	7	7.0
2025-08-20T12:00	32700	8	-38.8		64	7	6.9
2025-08-20T12:00	32750	8	-38.6		66	8	6.8
2025-08-20T12:00	32800	8	-38.6		69	8	6.8
2025-08-20T12:00	32850	8	-38.5		74	9	6.8
2025-08-20T12:00	32900	8	-38.2		78	9	6.8
2025-08-20T12:00	32950	8	-38.0		80	9	6.8
2025-08-20T12:00	33000	8	-37.7		81	9	6.7
2025-08-20T12:00	33050	8	-37.6		82	8	6.6
2025-08-20T12:00	33100	8	-37.6		80	7	6.6
2025-08-20T12:00	33150	8	-37.5		75	7	6.6
2025-08-20T12:00	33200	8	-37.4		69	8	6.5
2025-08-20T12:00	33250	8	-37.2		68	10	6.4
2025-08-20T12:00	33300	8	-36.9		69	13	6.3
2025-08-20T12:00	33350	8	-36.3		70	15	6.2
2025-08-20T12:00	33400	8	-35.6		73	15	6.2
2025-08-20T12:00	33450	8	-35.4		78	15	6.1
2025-08-20T12:00	33500	8	-35.6		84	15	6.1
2025-08-20T12:00	33550	7	-35.6		90	15	6.1
2025-08-20T12:00	33600	7	-35.7		96	15	6.0
2025-08-20T12:00	33650	7	-35.9		102	14	6.0
2025-08-20T12:00	33700	7	-36.1		110	14	5.9
2025-08-20T12:00	33750	7	-36.1		118	14	5.9
2025-08-20T12:00	33800	7	-35.7		119	14	5.8
2025-08-21T00:00	491	953	16.4	15.4	207	2	
2025-08-21T00:00	520	950	16.2	15.2	222	2	
2025-08-21T00:00	540	948	16.1	15.0	223	3	
2025-08-21T00:00	560	945	15.9	14.8	221	3	
2025-08-21T00:00	580	943	15.9	14.5	220	4	
2025-08-21T00:00	600	941	15.9	14.1	220	4	
2025-08-21T00:00	620	939	16.0	13.8	220	5	
2025-08-21T00:00	640	937	15.9	13.7	222	5	
2025-08-21T00:00	660	934	15.8	13.7	226	5	
2025-08-21T00:00	680	932	15.6	13.7	231	5	
2025-08-21T00:00	700	930	15.5	13.7	237	6	
2025-08-21T00:00	720	928	15.4	13.5	242	6	
2025-08-21T00:00	740	926	15.4	13.3	246	6	
2025-08-21T00:00	760	923	15.4	13.2	249	6	
2025-08-21T00:00	780	921	15.3	13.2	251	6	
2025-08-21T00:00	800	919	15.3	13.1	252	6	
2025-08-21T00:00	820	917	15.3	12.8	254	6	
2025-08-21T00:00	840	915	15.2	12.7	255	6	
2025-08-21T00:00	860	913	15.0	12.7	257	6	
2025-08-21T00:00	880	911	14.8	12.6	259	6	
2025-08-21T00:00	900	908	14.6	12.6	261	6	
2025-08-21T00:00	920	906	14.4	12.6	263	7	
2025-08-21T00:00	940	904	14.2	12.5	262	7	
2025-08-21T00:00	960	902	14.0	12.5	260	7	
2025-08-21T00:00	980	900	13.8	12.5	256	6	
2025-08-21T00:00	1000	898	13.6	12.4	251	6	
2025-08-21T00:00	1020	896	13.5	12.4	247	5	
2025-08-21T00:00	1040	893	13.4	12.5	244	5	
2025-08-21T00:00	1060	891	13.2	12.4	244	5	
2025-08-21T00:00	1080	889	13.1	12.3	245	5	
2025-08-21T00:00	1100	887	12.9	12.3	246	5	
2025-08-21T00:00	1120	885	12.8	12.1	248	5	
2025-08-21T00:00	1140	883	12.7	12.0	250	5	
2025-08-21T00:00	1160	881	12.5	11.9	251	5	
2025-08-21T00:00	1180	879	12.4	11.8	253	5	
2025-08-21T00:00	1200	877	12.2	11.8	255	4	
2025-08-21T00:00	1220	875	12.1	11.8	256	4	
2025-08-21T00:00	1240	873	11.9	11.6	258	4	
2025-08-21T00:00	1260	870	11.9	11.6	261	4	
2025-08-21T00:00	1280	868	11.7	11.5	263	4	
2025-08-21T00:00	1300	866	11.6	11.2	265	4	
2025-08-21T00:00	1320	864	11.5	11.0	266	4	
2025-08-21T00:00	1340	862	11.4	11.0	267	4	
2025-08-21T00:00	1360	860	11.2	11.0	267	4	
2025-08-21T00:00	1380	858	11.1	10.8	267	4	
2025-08-21T00:00	1400	856	11.0	10.7	266	4	
2025-08-21T00:00	1420	854	10.8	10.5	265	4	
2025-08-21T00:00	1440	852	10.7	10.4	263	4	
2025-08-21T00:00	1460	850	10.5	10.3	260	4	
2025-08-21T00:00	1480	848	10.4	10.3	256	4	
2025-08-21T00:00	1500	846	10.3	10.3	253	4	
2025-08-21T00:00	1520	844	10.2	9.8	250	4	
2025-08-21T00:00	1540	842	10.2	9.6	248	4	
2025-08-21T00:00	1560	840	10.0	9.7	246	4	
2025-08-21T00:00	1580	838	9.9	9.4	245	4	
2025-08-21T00:00	1600	836	9.8	9.0	243	4	
2025-08-21T00:00	1620	834	9.7	8.9	240	4	
2025-08-21T00:00	1640	832	9.6	8.7	237	4	
2025-08-21T00:00	1660	830	9.5	8.6	231	4	
2025-08-21T00:00	1680	828	9.3	8.7	226	4	
2025-08-21T00:00	1700	826	9.1	8.9	223	4	
2025-08-21T00:00	1720	824	9.0	8.9	223	3	
2025-08-21T00:00	1740	822	8.9	8.7	224	3	
2025-08-21T00:00	1760	820	8.7	8.6	225	3	
2025-08-21T00:00	1780	818	8.6	8.5	224	3	
2025-08-21T00:00	1800	816	8.4	8.2	220	3	
2025-08-21T00:00	1820	814	8.4	7.6	216	2	
2025-08-21T00:00	1840	812	8.4	7.1	214	2	
2025-08-21T00:00	1860	810	8.2	7.2	215	2	
2025-08-21T00:00	1880	808	8.2	7.1	220	2	
2025-08-21T00:00	1900	806	8.2	7.1	227	2	
2025-08-21T00:00	1920	804	8.1	7.2	235	2	
2025-08-21T00:00	1940	802	7.9	6.9	240	2	
2025-08-21T00:00	1960	800	7.8	6.9	242	2	
2025-08-21T00:00	1980	798	7.7	6.7	242	2	
2025-08-21T00:00	2000	796	7.6	6.4	240	2	
2025-08-21T00:00	2020	795	7.5	6.0	238	2	
2025-08-21T00:00	2040	793	7.4	5.8	234	1	
2025-08-21T00:00	2060	790	7.2	5.6	224	1	
2025-08-21T00:00	2080	789	7.1	5.5	206	1	
2025-08-21T00:00	2100	787	7.1	5.5	183	1	
2025-08-21T00:00	2120	785	7.0	5.3	162	1	
2025-08-21T00:00	2140	783	6.9	5.2	151	1	
2025-08-21T00:00	2160	781	6.8	4.9	149	1	
2025-08-21T00:00	2180	779	6.6	4.8	154	1	
2025-08-21T00:00	2200	777	6.5	4.6	171	1	
2025-08-21T00:00	2220	775	6.4	4.2	203	0	
2025-08-21T00:00	2240	773	6.2	4.3	223	1	
2025-08-21T00:00	2260	772	6.1	4.3	227	1	
2025-08-21T00:00	2280	770	6.0	4.4	225	1	
2025-08-21T00:00	2300	768	5.8	4.4	222	1	
2025-08-21T00:00	2320	766	5.7	4.2	220	1	
2025-08-21T00:00	2340	764	5.5	4.0	223	1	
2025-08-21T00:00	2360	762	5.3	4.0	231	1	
2025-08-21T00:00	2380	760	5.2	3.9	247	1	
2025-08-21T00:00	2400	758	5.0	3.8	265	1	
2025-08-21T00:00	2420	757	4.9	3.7	281	2	
2025-08-21T00:00	2440	755	4.9	3.5	293	2	
2025-08-21T00:00	2460	753	4.9	3.5	299	2	
2025-08-21T00:00	2480	751	4.7	3.4	306	2	
2025-08-21T00:00	2500	749	4.6	3.2	310	2	
2025-08-21T00:00	2520	748	4.5	3.2	312	2	
2025-08-21T00:00	2540	746	4.4	3.1	309	1	
2025-08-21T00:00	2560	744	4.3	3.1	303	1	
2025-08-21T00:00	2580	742	4.2	3.1	295	1	
2025-08-21T00:00	2600	740	4.0	3.0	289	1	
2025-08-21T00:00	2620	738	3.9	2.9	285	1	
2025-08-21T00:00	2640	737	3.8	2.8	284	2	
2025-08-21T00:00	2660	735	3.7	2.7	282	2	
2025-08-21T00:00	2680	733	3.5	2.6	276	2	
2025-08-21T00:00	2700	731	3.4	2.4	265	1	
2025-08-21T00:00	2720	729	3.3	2.4	247	1	
2025-08-21T00:00	2740	728	3.1	2.4	230	1	
2025-08-21T00:00	2760	726	3.1	2.1	224	1	
2025-08-21T00:00	2780	724	3.0	1.5	229	1	
2025-08-21T00:00	2800	722	2.9	1.2	240	1	
2025-08-21T00:00	2820	720	2.7	1.6	254	2	
2025-08-21T00:00	2840	719	2.6	1.5	265	2	
2025-08-21T00:00	2860	717	2.5	1.3	270	2	
2025-08-21T00:00	2880	715	2.4	1.1	272	2	
2025-08-21T00:00	2900	713	2.3	1.2	270	2	
2025-08-21T00:00	2920	711	2.1	1.3	263	2	
2025-08-21T00:00	2940	710	2.0	1.2	248	2	
2025-08-21T00:00	2960	708	1.9	1.1	225	2	
2025-08-21T00:00	2980	706	1.7	1.0	208	2	
2025-08-21T00:00	3000	705	1.7	0.8	199	2	
2025-08-21T00:00	3020	703	1.6	0.7	195	2	
2025-08-21T00:00	3040	701	1.5	0.6	194	2	
2025-08-21T00:00	3060	700	1.5	0.6	197	1	
2025-08-21T00:00	3080	698	1.5	0.4	236	0	
2025-08-21T00:00	3100	696	1.5	0.3	314	1	
2025-08-21T00:00	3120	694	1.3	0.3	322	1	
2025-08-21T00:00	3140	692	1.2	0.2	322	1	
2025-08-21T00:00	3160	691	1.1	0.1	322	1	
2025-08-21T00:00	3180	689	1.0	0.1	325	1	
2025-08-21T00:00	3200	687	1.0	0.1	336	1	
2025-08-21T00:00	3220	685	1.0	0.0	356	0	
2025-08-21T00:00	3240	684	0.9	-0.1	27	0	
2025-08-21T00:00	3260	682	0.8	-0.1	60	0	
2025-08-21T00:00	3280	680	0.6	-0.2	83	0	
2025-08-21T00:00	3300	679	0.5	-0.2	98	1	
2025-08-21T00:00	3320	677	0.3	-0.2	104	1	
2025-08-21T00:00	3340	675	0.2	-0.2	103	1	
2025-08-21T00:00	3360	674	0.1	-0.2	98	1	
2025-08-21T00:00	3380	672	0.1	-0.4	80	1	
2025-08-21T00:00	3400	670	-0.1	-0.5	11	1	
2025-08-21T00:00	3420	669	-0.2	-0.6	330	1	
2025-08-21T00:00	3440	667	-0.2	-0.7	322	2	
2025-08-21T00:00	3460	665	-0.4	-0.7	323	3	
2025-08-21T00:00	3480	664	-0.5	-0.9	326	3	
2025-08-21T00:00	3500	662	-0.3	-1.3	328	3	
2025-08-21T00:00	3520	660	-0.4	-1.6	328	3	
2025-08-21T00:00	3540	659	-0.6	-1.7	325	3	
2025-08-21T00:00	3560	657	-0.8	-1.8	321	3	
2025-08-21T00:00	3580	655	-0.9	-1.9	319	3	
2025-08-21T00:00	3600	654	-1.1	-1.9	317	3	
2025-08-21T00:00	3620	652	-1.2	-1.9	314	3	
2025-08-21T00:00	3640	651	-1.4	-1.9	308	3	
2025-08-21T00:00	3660	649	-1.6	-2.0	302	3	
2025-08-21T00:00	3680	647	-1.7	-2.1	296	3	
2025-08-21T00:00	3700	646	-1.8	-2.3	294	4	
2025-08-21T00:00	3720	644	-1.9	-2.4	297	4	
2025-08-21T00:00	3740	642	-1.9	-2.7	301	4	
2025-08-21T00:00	3760	641	-2.0	-2.7	306	5	
2025-08-21T00:00	3780	639	-2.1	-2.8	307	4	
2025-08-21T00:00	3800	638	-2.2	-2.8	303	4	
2025-08-21T00:00	3820	636	-2.3	-3.0	293	4	
2025-08-21T00:00	3840	634	-2.3	-3.4	280	4	
2025-08-21T00:00	3860	633	-2.4	-3.6	269	4	
2025-08-21T00:00	3880	631	-2.5	-3.6	263	5	
2025-08-21T00:00	3900	630	-2.6	-3.8	261	6	
2025-08-21T00:00	3920	628	-2.7	-3.9	261	6	
2025-08-21T00:00	3940	627	-2.9	-4.0	262	6	
2025-08-21T00:00	3960	625	-3.0	-4.1	265	5	
2025-08-21T00:00	3980	623	-3.2	-4.3	269	5	
2025-08-21T00:00	4000	622	-3.3	-4.3	273	4	
2025-08-21T00:00	4020	620	-3.5	-4.5	275	4	
2025-08-21T00:00	4040	619	-3.6	-5.0	275	5	
2025-08-21T00:00	4060	617	-3.7	-5.2	274	5	
2025-08-21T00:00	4080	616	-3.9	-5.2	274	5	
2025-08-21T00:00	4100	614	-4.0	-5.4	274	5	
2025-08-21T00:00	4120	612	-4.1	-5.4	275	5	
2025-08-21T00:00	4140	611	-4.3	-5.5	277	6	
2025-08-21T00:00	4160	609	-4.4	-5.6	279	6	
2025-08-21T00:00	4180	608	-4.5	-5.8	282	6	
2025-08-21T00:00	4200	606	-4.6	-5.9	285	5	
2025-08-21T00:00	4220	605	-4.7	-5.9	289	5	
2025-08-21T00:00	4240	603	-4.9	-6.0	290	4	
2025-08-21T00:00	4260	601	-5.0	-6.0	288	4	
2025-08-21T00:00	4280	600	-5.0	-5.9	282	3	
2025-08-21T00:00	4300	599	-5.1	-6.0	270	2	
2025-08-21T00:00	4320	597	-5.2	-6.0	246	2	
2025-08-21T00:00	4340	596	-5.3	-6.0	218	2	
2025-08-21T00:00	4360	594	-5.3	-6.0	194	2	
2025-08-21T00:00	4380	592	-5.3	-6.0	174	2	
2025-08-21T00:00	4400	591	-5.4	-6.0	163	2	
2025-08-21T00:00	4420	589	-5.4	-6.1	156	2	
2025-08-21T00:00	4440	588	-5.5	-6.2	152	2	
2025-08-21T00:00	4460	586	-5.7	-6.3	153	2	
2025-08-21T00:00	4480	585	-5.8	-6.4	158	2	
2025-08-21T00:00	4500	583	-6.0	-6.4	166	2	
2025-08-21T00:00	4520	582	-6.1	-6.5	170	2	
2025-08-21T00:00	4540	581	-6.2	-6.7	172	2	
2025-08-21T00:00	4560	579	-6.3	-6.8	170	2	
2025-08-21T00:00	4580	578	-6.4	-6.9	166	2	
2025-08-21T00:00	4600	576	-6.5	-7.0	160	2	
2025-08-21T00:00	4620	575	-6.6	-7.1	153	2	
2025-08-21T00:00	4640	573	-6.7	-7.2	145	2	
2025-08-21T00:00	4660	572	-6.8	-7.3	139	2	
2025-08-21T00:00	4680	570	-6.9	-7.5	136	2	
2025-08-21T00:00	4700	569	-7.0	-7.6	137	2	
2025-08-21T00:00	4720	567	-7.2	-7.6	139	2	
2025-08-21T00:00	4740	566	-7.3	-7.8	141	2	
2025-08-21T00:00	4760	564	-7.4	-7.9	144	2	
2025-08-21T00:00	4780	563	-7.5	-8.0	145	2	
2025-08-21T00:00	4800	562	-7.6	-8.2	145	1	
2025-08-21T00:00	4820	560	-7.7	-8.3	143	1	
2025-08-21T00:00	4840	559	-7.8	-8.4	134	0	
2025-08-21T00:00	4860	557	-7.9	-8.6	351	0	
2025-08-21T00:00	4880	556	-8.0	-8.7	328	0	
2025-08-21T00:00	4900	554	-8.2	-8.8	316	0	
2025-08-21T00:00	4920	553	-8.3	-9.0	301	0	
2025-08-21T00:00	4940	552	-8.4	-9.0	267	0	
2025-08-21T00:00	4960	550	-8.5	-9.1	174	0	
2025-08-21T00:00	4980	549	-8.6	-9.2	127	0	
2025-08-21T00:00	5000	547	-8.7	-9.3	110	1	
2025-08-21T00:00	5020	546	-8.8	-9.4	98	1	
2025-08-21T00:00	5040	544	-8.9	-9.5	91	2	
2025-08-21T00:00	5060	543	-9.0	-9.6	87	2	
2025-08-21T00:00	5080	542	-9.1	-9.7	83	3	
2025-08-21T00:00	5100	540	-9.2	-9.8	82	3	
2025-08-21T00:00	5120	539	-9.4	-9.9	81	4	
2025-08-21T00:00	5140	538	-9.5	-10.0	83	3	
2025-08-21T00:00	5160	536	-9.6	-10.1	88	3	
2025-08-21T00:00	5180	535	-9.8	-10.2	97	2	
2025-08-21T00:00	5200	533	-9.9	-10.4	109	2	
2025-08-21T00:00	5220	532	-10.0	-10.6	122	2	
2025-08-21T00:00	5240	531	-10.1	-10.8	137	2	
2025-08-21T00:00	5260	529	-10.3	-10.7	149	2	
2025-08-21T00:00	5280	528	-10.4	-10.9	157	2	
2025-08-21T00:00	5300	526	-10.5	-10.9	162	2	
2025-08-21T00:00	5320	525	-10.6	-11.1	163	2	
2025-08-21T00:00	5340	524	-10.7	-11.2	162	2	
2025-08-21T00:00	5360	522	-10.9	-11.3	159	2	
2025-08-21T00:00	5380	521	-11.0	-11.5	156	2	
2025-08-21T00:00	5400	520	-11.1	-11.6	154	2	
2025-08-21T00:00	5420	518	-11.2	-11.8	155	2	
2025-08-21T00:00	5440	517	-11.4	-11.9	159	2	
2025-08-21T00:00	5460	516	-11.5	-12.1	163	3	
2025-08-21T00:00	5480	514	-11.7	-12.4	166	4	
2025-08-21T00:00	5500	513	-11.8	-12.6	168	4	
2025-08-21T00:00	5520	512	-12.0	-12.8	170	5	
2025-08-21T00:00	5540	510	-12.2	-13.0	169	5	
2025-08-21T00:00	5560	509	-12.4	-13.3	168	4	
2025-08-21T00:00	5580	508	-12.5	-13.4	165	4	
2025-08-21T00:00	5600	506	-12.7	-13.7	160	4	
2025-08-21T00:00	5620	505	-12.9	-13.9	157	4	
2025-08-21T00:00	5640	504	-13.1	-14.4	156	3	
2025-08-21T00:00	5660	502	-13.2	-14.6	157	3	
2025-08-21T00:00	5680	501	-13.4	-14.6	159	3	
2025-08-21T00:00	5700	500	-13.5	-14.6	160	3	
2025-08-21T00:00	5720	498	-13.6	-14.9	162	3	
2025-08-21T00:00	5740	497	-13.8	-14.9	163	3	
2025-08-21T00:00	5760	496	-13.9	-15.1	162	4	
2025-08-21T00:00	5780	494	-14.0	-15.0	159	4	
2025-08-21T00:00	5800	493	-14.2	-15.8	154	4	
2025-08-21T00:00	5820	492	-14.3	-15.7	150	4	
2025-08-21T00:00	5840	491	-14.4	-15.7	146	5	
2025-08-21T00:00	5860	489	-14.5	-15.7	142	5	
2025-08-21T00:00	5880	488	-14.6	-15.8	138	6	
2025-08-21T00:00	5900	487	-14.8	-15.7	134	6	
2025-08-21T00:00	5920	485	-14.9	-15.9	129	7	
2025-08-21T00:00	5940	484	-15.1	-16.2	126	7	
2025-08-21T00:00	5960	483	-15.3	-16.8	123	8	
2025-08-21T00:00	5980	482	-15.6	-18.2	121	8	
2025-08-21T00:00	6000	480	-15.9	-19.4	120	9	
2025-08-21T00:00	6020	479	-16.1	-21.4	121	9	
2025-08-21T00:00	6040	478	-16.4	-21.5	122	9	
2025-08-21T00:00	6060	476	-16.6	-21.5	123	9	
2025-08-21T00:00	6080	475	-16.8	-21.6	124	9	
2025-08-21T00:00	6100	474	-17.0	-23.1	125	9	
2025-08-21T00:00	6120	473	-17.3	-24.1	126	9	
2025-08-21T00:00	6140	471	-17.4	-25.1	128	8	
2025-08-21T00:00	6160	470	-17.7	-27.6	129	8	
2025-08-21T00:00	6180	469	-17.7	-27.4	130	8	
2025-08-21T00:00	6200	468	-17.5	-28.6	130	8	
2025-08-21T00:00	6220	466	-17.2	-32.8	129	8	
2025-08-21T00:00	6240	465	-16.9	-33.5	127	8	
2025-08-21T00:00	6260	464	-16.6	-37.5	126	8	
2025-08-21T00:00	6280	463	-16.7	-37.0	124	9	
2025-08-21T00:00	6300	461	-16.8	-37.8	124	9	
2025-08-21T00:00	6320	460	-16.6	-38.2	125	9	
2025-08-21T00:00	6340	459	-16.6	-37.1	126	9	
2025-08-21T00:00	6360	458	-16.7	-37.2	128	9	
2025-08-21T00:00	6380	456	-16.9	-36.4	130	9	
2025-08-21T00:00	6400	455	-17.0	-35.7	131	9	
2025-08-21T00:00	6420	454	-17.1	-35.1	132	9	
2025-08-21T00:00	6440	453	-17.3	-33.4	133	9	
2025-08-21T00:00	6460	452	-17.4	-32.1	132	9	
2025-08-21T00:00	6480	450	-17.6	-31.8	132	10	
2025-08-21T00:00	6500	449	-17.7	-31.7	131	10	
2025-08-21T00:00	6520	448	-17.9	-32.2	130	10	
2025-08-21T00:00	6540	447	-18.0	-32.7	130	10	
2025-08-21T00:00	6560	446	-18.2	-32.8	130	10	
2025-08-21T00:00	6580	444	-18.4	-32.9	130	10	
2025-08-21T00:00	6600	443	-18.5	-32.9	130	10	
2025-08-21T00:00	6620	442	-18.7	-32.9	130	10	
2025-08-21T00:00	6640	441	-18.9	-32.9	130	10	
2025-08-21T00:00	6660	440	-19.1	-33.2	130	10	
2025-08-21T00:00	6680	439	-19.2	-33.2	130	10	
2025-08-21T00:00	6700	437	-19.4	-33.1	129	11	
2025-08-21T00:00	6720	436	-19.6	-33.2	129	11	
2025-08-21T00:00	6740	435	-19.8	-33.3	128	11	
2025-08-21T00:00	6760	434	-20.0	-33.2	127	11	
2025-08-21T00:00	6780	433	-20.2	-33.2	126	11	
2025-08-21T00:00	6800	432	-20.4	-33.3	124	11	
2025-08-21T00:00	6820	430	-20.6	-32.9	122	11	
2025-08-21T00:00	6840	429	-20.8	-33.0	120	11	
2025-08-21T00:00	6860	428	-21.0	-32.9	118	11	
2025-08-21T00:00	6880	427	-21.2	-32.9	118	12	
2025-08-21T00:00	6900	426	-21.4	-32.7	118	12	
2025-08-21T00:00	6920	425	-21.6	-32.1	119	13	
2025-08-21T00:00	6940	423	-21.8	-32.3	121	14	
2025-08-21T00:00	6960	422	-22.0	-31.9	122	14	
2025-08-21T00:00	6980	421	-22.1	-31.4	123	14	
2025-08-21T00:00	7000	420	-22.3	-31.6	124	14	
2025-08-21T00:00	7020	419	-22.4	-32.7	125	14	
2025-08-21T00:00	7040	418	-22.3	-36.6	124	13	
2025-08-21T00:00	7060	417	-22.3	-35.9	124	13	
2025-08-21T00:00	7080	416	-22.4	-37.1	124	13	
2025-08-21T00:00	7100	414	-22.6	-36.7	124	13	
2025-08-21T00:00	7120	413	-22.8	-35.5	125	13	
2025-08-21T00:00	7140	412	-22.9	-36.4	125	14	
2025-08-21T00:00	7160	411	-23.1	-36.5	126	14	
2025-08-21T00:00	7180	410	-23.3	-37.0	127	14	
2025-08-21T00:00	7200	409	-23.4	-36.2	128	14	
2025-08-21T00:00	7220	408	-23.6	-35.6	128	14	
2025-08-21T00:00	7240	407	-23.8	-35.7	128	14	
2025-08-21T00:00	7260	405	-24.0	-35.9	127	14	
2025-08-21T00:00	7280	404	-24.2	-35.9	126	14	
2025-08-21T00:00	7300	403	-24.3	-36.2	125	14	
2025-08-21T00:00	7320	402	-24.5	-35.6	123	15	
2025-08-21T00:00	7340	401	-24.7	-35.5	123	16	
2025-08-21T00:00	7360	400	-25.0	-35.5	122	16	
2025-08-21T00:00	7380	399	-25.2	-35.6	120	17	
2025-08-21T00:00	7400	398	-25.4	-33.0	118	16	
2025-08-21T00:00	7420	397	-25.7	-32.0	114	16	
2025-08-21T00:00	7440	395	-25.8	-31.2	110	15	
2025-08-21T00:00	7460	394	-26.0	-30.9	108	15	
2025-08-21T00:00	7480	393	-26.1	-30.4	108	15	
2025-08-21T00:00	7500	392	-26.1	-30.0	109	15	
2025-08-21T00:00	7520	391	-26.2	-29.9	111	15	
2025-08-21T00:00	7540	390	-26.4	-30.0	112	16	
2025-08-21T00:00	7560	389	-26.6	-30.1	113	16	
2025-08-21T00:00	7580	388	-26.8	-30.1	113	16	
2025-08-21T00:00	7600	387	-26.9	-30.4	114	16	
2025-08-21T00:00	7620	386	-27.1	-30.4	114	16	
2025-08-21T00:00	7640	385	-27.3	-30.3	114	16	
2025-08-21T00:00	7660	384	-27.4	-30.3	113	15	
2025-08-21T00:00	7680	383	-27.6	-30.3	112	15	
2025-08-21T00:00	7700	381	-27.8	-30.5	110	15	
2025-08-21T00:00	7720	380	-28.0	-30.5	107	15	
2025-08-21T00:00	7740	379	-28.1	-29.8	104	14	
2025-08-21T00:00	7760	378	-28.1	-28.6	101	14	
2025-08-21T00:00	7780	377	-28.3	-29.3	96	14	
2025-08-21T00:00	7800	376	-28.4	-29.0	93	14	
2025-08-21T00:00	7820	375	-28.5	-29.2	91	14	
2025-08-21T00:00	7840	374	-28.8	-29.9	91	15	
2025-08-21T00:00	7860	373	-28.9	-29.8	92	15	
2025-08-21T00:00	7880	372	-29.0	-30.0	94	15	
2025-08-21T00:00	7900	371	-29.1	-30.0	96	15	
2025-08-21T00:00	7920	370	-29.2	-29.7	99	15	
2025-08-21T00:00	7940	369	-29.4	-30.4	101	15	
2025-08-21T00:00	7960	368	-29.5	-30.6	102	14	
2025-08-21T00:00	7980	367	-29.7	-30.7	102	14	
2025-08-21T00:00	8000	366	-29.8	-30.7	102	13	
2025-08-21T00:00	8020	365	-29.9	-30.7	101	12	
2025-08-21T00:00	8040	364	-30.1	-30.8	98	12	
2025-08-21T00:00	8060	363	-30.3	-31.0	96	12	
2025-08-21T00:00	8080	362	-30.4	-30.9	94	12	
2025-08-21T00:00	8100	361	-30.5	-31.0	93	12	
2025-08-21T00:00	8120	360	-30.7	-31.3	92	12	
2025-08-21T00:00	8140	359	-30.9	-31.6	93	12	
2025-08-21T00:00	8160	358	-31.1	-32.0	93	12	
2025-08-21T00:00	8180	357	-31.2	-31.5	94	12	
2025-08-21T00:00	8200	356	-31.3	-31.4	95	13	
2025-08-21T00:00	8220	355	-31.5	-31.8	97	13	
2025-08-21T00:00	8240	354	-31.6	-32.0	99	13	
2025-08-21T00:00	8260	353	-31.7	-32.3	100	13	
2025-08-21T00:00	8280	352	-31.9	-32.3	101	13	
2025-08-21T00:00	8300	351	-32.1	-32.4	101	13	
2025-08-21T00:00	8320	350	-32.2	-32.6	102	13	
2025-08-21T00:00	8340	349	-32.3	-33.0	102	13	
2025-08-21T00:00	8360	348	-32.5	-33.3	102	13	
2025-08-21T00:00	8380	347	-32.7	-33.3	102	13	
2025-08-21T00:00	8400	346	-32.8	-33.4	102	13	
2025-08-21T00:00	8420	345	-33.0	-33.8	103	13	
2025-08-21T00:00	8440	344	-33.2	-33.9	103	13	
2025-08-21T00:00	8460	343	-33.3	-33.7	104	13	
2025-08-21T00:00	8480	342	-33.6	-34.1	104	13	
2025-08-21T00:00	8500	341	-33.7	-34.5	104	13	
2025-08-21T00:00	8520	340	-34.0	-34.6	104	13	
2025-08-21T00:00	8540	339	-34.1	-35.1	103	13	
2025-08-21T00:00	8560	338	-34.3	-35.7	102	14	
2025-08-21T00:00	8580	337	-34.5	-36.5	100	14	
2025-08-21T00:00	8600	336	-34.7	-37.0	97	14	
2025-08-21T00:00	8620	335	-34.9	-36.7	95	15	
2025-08-21T00:00	8640	334	-35.1	-36.8	93	15	
2025-08-21T00:00	8660	333	-35.3	-37.2	92	15	
2025-08-21T00:00	8680	332	-35.4	-37.5	91	15	
2025-08-21T00:00	8700	331	-35.6	-37.7	91	15	
2025-08-21T00:00	8720	330	-35.7	-37.9	91	15	
2025-08-21T00:00	8740	329	-35.9	-38.5	92	15	
2025-08-21T00:00	8760	328	-36.0	-38.8	93	15	
2025-08-21T00:00	8780	327	-36.0	-38.8	94	15	
2025-08-21T00:00	8800	327	-36.2	-39.2	95	14	
2025-08-21T00:00	8820	326	-36.4	-39.7	96	14	
2025-08-21T00:00	8840	325	-36.6	-39.7	95	13	
2025-08-21T00:00	8860	324	-36.7	-40.0	94	13	
2025-08-21T00:00	8880	323	-36.9	-39.6	92	13	
2025-08-21T00:00	8900	322	-37.1	-40.1	90	13	
2025-08-21T00:00	8920	321	-37.3	-40.1	89	12	
2025-08-21T00:00	8940	320	-37.5	-40.2	89	12	
2025-08-21T00:00	8960	319	-37.6	-40.8	89	12	
2025-08-21T00:00	8980	318	-37.8	-41.1	90	12	
2025-08-21T00:00	9000	317	-38.0	-41.9	90	13	
2025-08-21T00:00	9020	316	-38.2	-41.9	90	13	
2025-08-21T00:00	9040	315	-38.3	-41.6	88	13	
2025-08-21T00:00	9060	314	-38.5	-42.0	87	13	
2025-08-21T00:00	9080	313	-38.7	-42.5	85	14	
2025-08-21T00:00	9100	313	-38.9	-42.9	84	14	
2025-08-21T00:00	9120	312	-39.1	-43.0	83	14	
2025-08-21T00:00	9140	311	-39.3	-43.0	83	14	
2025-08-21T00:00	9160	310	-39.4	-42.5	83	15	
2025-08-21T00:00	9180	309	-39.5	-42.8	84	15	
2025-08-21T00:00	9200	308	-39.7	-43.3	84	15	
2025-08-21T00:00	9220	307	-39.9	-43.8	84	15	
2025-08-21T00:00	9240	306	-40.0	-43.9	84	16	
2025-08-21T00:00	9260	305	-40.2	-43.9	83	16	
2025-08-21T00:00	9280	304	-40.4	-44.2	82	16	
2025-08-21T00:00	9300	304	-40.5	-44.5	82	17	
2025-08-21T00:00	9320	303	-40.7	-44.6	82	17	
2025-08-21T00:00	9340	302	-40.9	-44.7	82	17	
2025-08-21T00:00	9360	301	-41.0	-44.8	83	17	
2025-08-21T00:00	9380	300	-41.2	-44.8	84	17	
2025-08-21T00:00	9400	299	-41.4	-45.2	84	17	
2025-08-21T00:00	9420	298	-41.5	-45.6	85	17	
2025-08-21T00:00	9440	297	-41.7	-45.8	85	17	
2025-08-21T00:00	9460	296	-41.9	-45.8	86	17	
2025-08-21T00:00	9480	296	-42.1	-45.9	86	17	
2025-08-21T00:00	9500	295	-42.3	-46.1	86	16	
2025-08-21T00:00	9520	294	-42.5	-46.2	86	16	
2025-08-21T00:00	9540	293	-42.7	-46.5	86	16	
2025-08-21T00:00	9560	292	-42.9	-47.0	86	16	
2025-08-21T00:00	9580	291	-43.1	-47.4	85	16	
2025-08-21T00:00	9600	290	-43.3	-47.3	85	16	
2025-08-21T00:00	9620	290	-43.5	-47.7	85	17	
2025-08-21T00:00	9640	289	-43.6	-48.0	85	17	
2025-08-21T00:00	9660	288	-43.8	-48.0	85	17	
2025-08-21T00:00	9680	287	-43.9	-48.4	86	18	
2025-08-21T00:00	9700	286	-44.1	-48.6	87	18	
2025-08-21T00:00	9720	285	-44.2	-48.6	88	18	
2025-08-21T00:00	9740	284	-44.4	-48.5	88	18	
2025-08-21T00:00	9760	284	-44.6	-48.7	89	18	
2025-08-21T00:00	9780	283	-44.8	-48.9	89	19	
2025-08-21T00:00	9800	282	-45.0	-48.8	90	19	
2025-08-21T00:00	9820	281	-45.1	-48.8	90	19	
2025-08-21T00:00	9840	280	-45.3	-48.9	90	19	
2025-08-21T00:00	9860	279	-45.5	-49.0	90	19	
2025-08-21T00:00	9880	278	-45.7	-49.1	90	19	
2025-08-21T00:00	9900	278	-45.9	-49.2	89	19	
2025-08-21T00:00	9920	277	-46.1	-49.2	89	19	
2025-08-21T00:00	9940	276	-46.2	-49.2	89	19	
2025-08-21T00:00	9960	275	-46.4	-49.5	89	19	
2025-08-21T00:00	9980	274	-46.6	-50.1	89	19	
2025-08-21T00:00	10000	273	-46.8	-50.9	89	19	
2025-08-21T00:00	10018	273	-46.9	-51.4	89	19	
2025-08-21T00:00	10050	271	-47.2	-51.2	90	19	
2025-08-21T00:00	10100	269	-47.7	-51.5	92	19	
2025-08-21T00:00	10150	267	-48.2	-51.4	92	19	
2025-08-21T00:00	10200	265	-48.7	-51.5	93	19	
2025-08-21T00:00	10250	263	-49.1	-52.2	93	19	
2025-08-21T00:00	10300	261	-49.6	-52.3	93	19	
2025-08-21T00:00	10350	259	-50.1	-52.7	95	19	
2025-08-21T00:00	10400	257	-50.5	-53.4	96	19	
2025-08-21T00:00	10450	255	-51.0	-53.9	97	19	
2025-08-21T00:00	10500	253	-51.4	-54.7	97	20	
2025-08-21T00:00	10550	251	-51.8	-54.7	97	20	
2025-08-21T00:00	10600	250	-52.1	-55.2	100	20	
2025-08-21T00:00	10650	248	-52.5	-56.0	105	19	
2025-08-21T00:00	10700	246	-52.5	-58.3	109	18	
2025-08-21T00:00	10750	244	-52.3	-60.3	112	18	
2025-08-21T00:00	10800	242	-52.7	-59.5	113	18	
2025-08-21T00:00	10850	240	-53.1	-59.4	115	18	
2025-08-21T00:00	10900	238	-53.6	-59.4	119	17	
2025-08-21T00:00	10950	236	-54.0	-59.6	126	17	
2025-08-21T00:00	11000	234	-54.4	-60.9	133	17	
2025-08-21T00:00	11050	233	-54.2	-64.4	140	17	
2025-08-21T00:00	11100	231	-54.4	-65.1	147	17	
2025-08-21T00:00	11150	229	-54.1	-65.7	150	16	
2025-08-21T00:00	11200	227	-53.7	-66.4	149	15	
2025-08-21T00:00	11250	226	-53.3	-67.2	152	14	
2025-08-21T00:00	11300	224	-52.9	-67.9	156	14	
2025-08-21T00:00	11350	222	-52.7	-68.6	160	15	
2025-08-21T00:00	11400	220	-52.1	-69.0	166	16	
2025-08-21T00:00	11450	219	-52.0	-69.3	169	17	
2025-08-21T00:00	11500	217	-51.9	-69.3	171	17	
2025-08-21T00:00	11550	215	-51.6	-70.3	174	16	
2025-08-21T00:00	11600	214	-51.9	-70.8	180	15	
2025-08-21T00:00	11650	212	-51.9	-72.2	186	15	
2025-08-21T00:00	11700	210	-51.3	-72.7	188	15	
2025-08-21T00:00	11750	209	-51.1	-72.6	187	15	
2025-08-21T00:00	11800	207	-51.0	-73.4	186	15	
2025-08-21T00:00	11850	206	-50.6	-74.2	187	15	
2025-08-21T00:00	11900	204	-50.8	-74.8	187	14	
2025-08-21T00:00	11950	202	-51.0	-75.0	188	13	
2025-08-21T00:00	12000	201	-51.0	-75.6	188	14	
2025-08-21T00:00	12050	199	-50.9	-75.7	188	16	
2025-08-21T00:00	12100	198	-50.9	-75.9	189	17	
2025-08-21T00:00	12150	196	-50.3	-76.7	194	16	
2025-08-21T00:00	12200	195	-49.4	-77.9	198	14	
2025-08-21T00:00	12250	193	-49.4	-78.7	199	13	
2025-08-21T00:00	12300	192	-49.7	-79.2	201	13	
2025-08-21T00:00	12350	190	-49.4	-79.9	204	13	
2025-08-21T00:00	12400	189	-49.5	-80.3	208	15	
2025-08-21T00:00	12450	188	-49.1	-80.4	210	16	
2025-08-21T00:00	12500	186	-49.1	-80.4	210	17	
2025-08-21T00:00	12550	185	-49.4	-80.7	211	17	
2025-08-21T00:00	12600	183	-49.3	-80.8	214	17	
2025-08-21T00:00	12650	182	-49.2	-80.9	216	16	
2025-08-21T00:00	12700	181	-49.2	-81.2	219	15	
2025-08-21T00:00	12750	179	-48.8	-81.2	221	14	
2025-08-21T00:00	12800	178	-48.9	-81.2	221	13	
2025-08-21T00:00	12850	176	-49.2	-81.4	220	11	
2025-08-21T00:00	12900	175	-49.4	-81.7	218	10	
2025-08-21T00:00	12950	174	-49.3	-81.8	222	9	
2025-08-21T00:00	13000	172	-49.3	-81.7	226	9	
2025-08-21T00:00	13050	171	-49.6	-81.9	229	9	
2025-08-21T00:00	13100	170	-50.0	-82.0	232	10	
2025-08-21T00:00	13150	169	-50.4	-82.3	230	10	
2025-08-21T00:00	13200	167	-50.4	-82.4	223	9	
2025-08-21T00:00	13250	166	-50.5	-82.4	213	9	
2025-08-21T00:00	13300	165	-50.5	-82.5	207	10	
2025-08-21T00:00	13350	163	-50.4	-82.6	206	10	
2025-08-21T00:00	13400	162	-50.4	-82.6	207	10	
2025-08-21T00:00	13450	161	-50.6	-82.7	209	10	
2025-08-21T00:00	13500	160	-50.9	-82.7	213	10	
2025-08-21T00:00	13550	159	-51.1	-82.8	215	11	
2025-08-21T00:00	13600	157	-51.4	-83.0	216	10	
2025-08-21T00:00	13650	156	-51.4	-83.1	221	10	
2025-08-21T00:00	13700	155	-51.2	-83.0	226	9	
2025-08-21T00:00	13750	154	-51.1	-83.2	226	8	
2025-08-21T00:00	13800	153	-51.3	-83.2	223	8	
2025-08-21T00:00	13850	151	-51.6	-83.3	221	8	
2025-08-21T00:00	13900	150	-51.6	-83.5	221	9	
2025-08-21T00:00	13950	149	-51.7	-83.6	218	9	
2025-08-21T00:00	14000	148	-51.8	-83.6	216	9	
2025-08-21T00:00	14050	147	-52.2	-83.7	219	9	
2025-08-21T00:00	14100	146	-52.2	-83.7	221	10	
2025-08-21T00:00	14150	145	-52.1	-83.8	221	10	
2025-08-21T00:00	14200	143	-52.0	-84.0	219	9	
2025-08-21T00:00	14250	142	-52.1	-84.1	223	9	
2025-08-21T00:00	14300	141	-52.5	-84.0	227	9	
2025-08-21T00:00	14350	140	-52.9	-84.2	226	9	
2025-08-21T00:00	14400	139	-52.9	-84.2	226	9	
2025-08-21T00:00	14450	138	-53.3	-84.4	231	10	
2025-08-21T00:00	14500	137	-53.2	-84.5	238	10	
2025-08-21T00:00	14550	136	-53.4	-84.5	242	9	
2025-08-21T00:00	14600	135	-53.4	-84.6	247	9	
2025-08-21T00:00	14650	134	-53.3	-84.5	250	9	
2025-08-21T00:00	14700	133	-53.5	-84.7	251	8	
2025-08-21T00:00	14750	132	-53.3	-84.7	252	8	
2025-08-21T00:00	14800	131	-53.6	-84.8	255	7	
2025-08-21T00:00	14850	130	-53.7	-84.9	259	6	
2025-08-21T00:00	14900	129	-53.8	-85.0	262	7	
2025-08-21T00:00	14950	128	-53.6	-85.1	262	7	
2025-08-21T00:00	15000	127	-53.6	-85.0	264	8	
2025-08-21T00:00	15050	126	-53.8	-85.1	265	8	
2025-08-21T00:00	15100	125	-53.9	-85.2	263	9	
2025-08-21T00:00	15150	124	-54.1	-85.2	262	9	
2025-08-21T00:00	15200	123	-54.3	-85.2	264	10	
2025-08-21T00:00	15250	122	-54.1	-85.3	263	11	
2025-08-21T00:00	15300	121	-54.1	-85.3	262	11	
2025-08-21T00:00	15350	120	-54.2	-85.4	263	11	
2025-08-21T00:00	15400	119	-54.0	-85.5	262	9	
2025-08-21T00:00	15450	118	-54.1	-85.5	260	8	
2025-08-21T00:00	15500	117	-54.4	-85.5	261	7	
2025-08-21T00:00	15550	116	-54.5	-85.5	267	6	
2025-08-21T00:00	15600	115	-54.7	-85.5	271	7	
2025-08-21T00:00	15650	114	-55.1	-85.7	264	7	
2025-08-21T00:00	15700	114	-54.9	-85.7	248	7	
2025-08-21T00:00	15750	113	-54.6	-85.6	235	7	
2025-08-21T00:00	15800	112	-54.4	-85.6	235	8	
2025-08-21T00:00	15850	111	-54.1	-85.5	239	8	
2025-08-21T00:00	15900	110	-54.0	-85.5	242	9	
2025-08-21T00:00	15950	109	-54.2	-85.4	248	9	
2025-08-21T00:00	16000	108	-54.4	-85.4	255	8	
2025-08-21T00:00	16050	107	-54.7	-85.4	258	8	
2025-08-21T00:00	16100	107	-54.8	-85.4	257	7	
2025-08-21T00:00	16150	106	-55.1	-85.4	254	7	
2025-08-21T00:00	16200	105	-55.4	-85.5	248	7	
2025-08-21T00:00	16250	104	-55.7	-85.5	241	7	
2025-08-21T00:00	16300	103	-56.0	-85.6	237	8	
2025-08-21T00:00	16350	103	-56.2	-85.8	237	9	
2025-08-21T00:00	16400	102	-56.3	-85.9	241	10	
2025-08-21T00:00	16450	101	-56.0	-86.0	248	11	
2025-08-21T00:00	16500	100	-55.9	-86.1	253	12	
2025-08-21T00:00	16550	99	-55.8	-86.1	258	12	
2025-08-21T00:00	16600	99	-56.0	-86.1	263	12	
2025-08-21T00:00	16650	98	-56.2	-86.1	270	11	
2025-08-21T00:00	16700	97	-56.0	-86.0	277	11	
2025-08-21T00:00	16750	96	-56.2	-86.1	282	11	
2025-08-21T00:00	16800	96	-56.4	-86.2	282	11	
2025-08-21T00:00	16850	95	-56.4	-86.2	280	10	
2025-08-21T00:00	16900	94	-56.6	-86.2	278	10	
2025-08-21T00:00	16950	93	-56.8	-86.3	278	10	
2025-08-21T00:00	17000	93	-56.6	-86.4	280	11	
2025-08-21T00:00	17050	92	-56.5	-86.4	279	12	
2025-08-21T00:00	17100	91	-56.7	-86.4	279	12	
2025-08-21T00:00	17150	90	-57.0	-86.6	283	12	
2025-08-21T00:00	17200	90	-56.6	-86.7	289	11	
2025-08-21T00:00	17250	89	-56.6	-86.9	295	10	
2025-08-21T00:00	17300	88	-56.3	-86.9	300	9	
2025-08-21T00:00	17350	88	-56.2	-86.9	300	7	
2025-08-21T00:00	17400	87	-56.3	-86.9	295	6	
2025-08-21T00:00	17450	86	-56.3	-87.0	296	6	
2025-08-21T00:00	17500	86	-56.2	-86.9	302	5	
2025-08-21T00:00	17550	85	-56.3	-87.1	308	5	
2025-08-21T00:00	17600	84	-56.5	-87.2	308	6	
2025-08-21T00:00	17650	84	-56.3	-87.3	308	6	
2025-08-21T00:00	17700	83	-56.3	-87.4	314	6	
2025-08-21T00:00	17750	82	-56.0	-87.4	321	6	
2025-08-21T00:00	17800	82	-56.0	-87.4	321	5	
2025-08-21T00:00	17850	81	-56.2	-87.5	311	5	
2025-08-21T00:00	17900	80	-56.2	-87.5	298	4	
2025-08-21T00:00	17950	80	-56.2	-87.5	288	4	
2025-08-21T00:00	18000	79	-56.2	-87.7	281	4	
2025-08-21T00:00	18050	78	-56.0	-87.7	279	4	
2025-08-21T00:00	18100	78	-55.7	-87.8	283	3	
2025-08-21T00:00	18150	77	-55.7	-87.8	294	2	
2025-08-21T00:00	18200	77	-55.7	-87.8	300	2	
2025-08-21T00:00	18250	76	-55.5	-87.8	279	2	
2025-08-21T00:00	18300	75	-55.4	-87.9	260	2	
2025-08-21T00:00	18350	75	-55.1	-87.9	259	4	
2025-08-21T00:00	18400	74	-55.0	-87.9	261	4	
2025-08-21T00:00	18450	74	-54.8	-87.7	260	4	
2025-08-21T00:00	18500	73	-55.0	-87.8	253	5	
2025-08-21T00:00	18550	73	-55.0	-87.9	250	5	
2025-08-21T00:00	18600	72	-54.9	-87.9	248	5	
2025-08-21T00:00	18650	71	-54.7	-87.9	245	4	
2025-08-21T00:00	18700	71	-54.5	-87.9	244	4	
2025-08-21T00:00	18750	70	-54.5	-87.8	248	3	
2025-08-21T00:00	18800	70	-54.6	-87.7	260	3	
2025-08-21T00:00	18850	69	-54.6	-87.7	276	3	
2025-08-21T00:00	18900	69	-54.6	-87.8	280	3	
2025-08-21T00:00	18950	68	-54.6	-87.8	263	3	
2025-08-21T00:00	19000	68	-54.4	-87.7	236	3	
2025-08-21T00:00	19050	67	-54.6	-87.7	213	3	
2025-08-21T00:00	19100	67	-54.8	-87.7	197	3	
2025-08-21T00:00	19150	66	-55.1	-87.8	190	4	
2025-08-21T00:00	19200	66	-55.4	-87.9	190	4	
2025-08-21T00:00	19250	65	-55.2	-87.9	195	4	
2025-08-21T00:00	19300	64	-55.2	-88.0	203	4	
2025-08-21T00:00	19350	64	-55.4	-88.1	213	4	
2025-08-21T00:00	19400	64	-55.3	-87.9	223	4	
2025-08-21T00:00	19450	63	-55.6	-87.9	232	5	
2025-08-21T00:00	19500	63	-56.0	-88.0	241	5	
2025-08-21T00:00	19550	62	-56.2	-88.1	248	5	
2025-08-21T00:00	19600	62	-56.1	-88.1	251	5	
2025-08-21T00:00	19650	61	-56.2	-88.3	250	3	
2025-08-21T00:00	19700	61	-55.9	-88.5	243	2	
2025-08-21T00:00	19750	60	-55.5	-88.3	240	2	
2025-08-21T00:00	19800	60	-55.4	-88.2	247	2	
2025-08-21T00:00	19850	59	-55.5	-88.2	259	2	
2025-08-21T00:00	19900	59	-55.7	-88.3	265	3	
2025-08-21T00:00	19950	58	-55.4	-88.1	258	3	
2025-08-21T00:00	20000	58	-55.5	-88.2	245	3	
2025-08-21T00:00	20050	57	-55.2		232	2	
2025-08-21T00:00	20100	57	-54.9		221	2	
2025-08-21T00:00	20150	56	-54.8		192	2	
2025-08-21T00:00	20200	56	-54.9		168	2	
2025-08-21T00:00	20250	56	-54.9		165	3	
2025-08-21T00:00	20300	55	-55.1		171	3	
2025-08-21T00:00	20350	55	-55.4		182	4	
2025-08-21T00:00	20400	54	-55.5		192	4	
2025-08-21T00:00	20450	54	-55.8		196	4	
2025-08-21T00:00	20500	53	-55.6		200	4	
2025-08-21T00:00	20550	53	-55.8		203	5	
2025-08-21T00:00	20600	53	-55.6		201	5	
2025-08-21T00:00	20650	52	-55.5		201	6	
2025-08-21T00:00	20700	52	-54.8		205	6	
2025-08-21T00:00	20750	51	-54.9		211	6	
2025-08-21T00:00	20800	51	-55.0		219	6	
2025-08-21T00:00	20850	51	-54.5		227	6	
2025-08-21T00:00	20900	50	-54.1		230	6	
2025-08-21T00:00	20950	50	-53.9		227	7	
2025-08-21T00:00	21000	49	-53.8		224	7	
2025-08-21T00:00	21050	49	-53.9		226	7	
2025-08-21T00:00	21100	49	-53.8		230	7	
2025-08-21T00:00	21150	48	-53.7		237	6	
2025-08-21T00:00	21200	48	-53.7		250	5	
2025-08-21T00:00	21250	48	-53.7		269	5	
2025-08-21T00:00	21300	47	-53.8		291	5	
2025-08-21T00:00	21350	47	-53.7		307	5	
2025-08-21T00:00	21400	46	-53.5		310	4	
2025-08-21T00:00	21450	46	-53.3		296	3	
2025-08-21T00:00	21500	46	-53.1		279	4	
2025-08-21T00:00	21550	45	-53.0		274	5	
2025-08-21T00:00	21600	45	-53.3		275	6	
2025-08-21T00:00	21650	45	-53.3		280	6	
2025-08-21T00:00	21700	44	-53.2		288	6	
2025-08-21T00:00	21750	44	-52.9		294	6	
2025-08-21T00:00	21800	44	-52.8		300	6	
2025-08-21T00:00	21850	43	-53.2		305	5	
2025-08-21T00:00	21900	43	-53.1		306	5	
2025-08-21T00:00	21950	43	-53.1		305	4	
2025-08-21T00:00	22000	42	-53.3		306	4	
2025-08-21T00:00	22050	42	-53.6		311	3	
2025-08-21T00:00	22100	42	-53.9		324	2	
2025-08-21T00:00	22150	41	-54.2		348	1	
2025-08-21T00:00	22200	41	-54.2		127	0	
2025-08-21T00:00	22250	41	-54.1		169	1	
2025-08-21T00:00	22300	40	-53.8		196	1	
2025-08-21T00:00	22350	40	-53.8		211	1	
2025-08-21T00:00	22400	40	-53.8		200	0	
2025-08-21T00:00	22450	39	-53.5		154	1	
2025-08-21T00:00	22500	39	-53.3		169	1	
2025-08-21T00:00	22550	39	-53.4		196	2	
2025-08-21T00:00	22600	39	-53.5		229	3	
2025-08-21T00:00	22650	38	-53.3		251	4	
2025-08-21T00:00	22700	38	-52.8		265	4	
2025-08-21T00:00	22750	38	-52.5		272	4	
2025-08-21T00:00	22800	37	-52.2		273	3	
2025-08-21T00:00	22850	37	-52.1		271	2	
2025-08-21T00:00	22900	37	-52.2		248	1	
2025-08-21T00:00	22950	36	-52.4		213	2	
2025-08-21T00:00	23000	36	-52.5		217	2	
2025-08-21T00:00	23050	36	-52.5		241	3	
2025-08-21T00:00	23100	36	-52.6		265	3	
2025-08-21T00:00	23150	35	-52.6		281	4	
2025-08-21T00:00	23200	35	-52.6		297	4	
2025-08-21T00:00	23250	35	-52.4		312	4	
2025-08-21T00:00	23300	35	-52.0		328	3	
2025-08-21T00:00	23350	34	-51.8		339	3	
2025-08-21T00:00	23400	34	-51.8		337	3	
2025-08-21T00:00	23450	34	-51.7		332	3	
2025-08-21T00:00	23500	34	-51.5		338	2	
2025-08-21T00:00	23550	33	-51.4		355	1	
2025-08-21T00:00	23600	33	-51.4		175	1	
2025-08-21T00:00	23650	33	-51.3		202	2	
2025-08-21T00:00	23700	33	-51.5		220	3	
2025-08-21T00:00	23750	32	-51.2		237	4	
2025-08-21T00:00	23800	32	-51.1		252	5	
2025-08-21T00:00	23850	32	-50.7		268	4	
2025-08-21T00:00	23900	32	-50.3		291	3	
2025-08-21T00:00	23950	31	-49.9		320	2	
2025-08-21T00:00	24000	31	-49.8		344	1	
2025-08-21T00:00	24050	31	-49.2		208	0	
2025-08-21T00:00	24100	31	-49.0		195	1	
2025-08-21T00:00	24150	30	-49.1		209	2	
2025-08-21T00:00	24200	30	-48.8		239	1	
2025-08-21T00:00	24250	30	-48.8		322	1	
2025-08-21T00:00	24300	30	-49.1		0	2	
2025-08-21T00:00	24350	29	-49.4		14	3	
2025-08-21T00:00	24400	29	-49.3		26	4	
2025-08-21T00:00	24450	29	-49.3		39	5	
2025-08-21T00:00	24500	29	-49.1		55	5	
2025-08-21T00:00	24550	29	-49.1		72	5	
2025-08-21T00:00	24600	28	-49.5		88	5	
2025-08-21T00:00	24650	28	-49.7		100	5	
2025-08-21T00:00	24700	28	-49.9		110	5	
2025-08-21T00:00	24750	28	-49.9		121	4	
2025-08-21T00:00	24800	27	-50.1		134	4	
2025-08-21T00:00	24850	27	-49.9		143	4	
2025-08-21T00:00	24900	27	-49.5		147	4	
2025-08-21T00:00	24950	27	-49.4		144	3	
2025-08-21T00:00	25000	27	-49.3		136	2	
2025-08-21T00:00	25050	26	-49.4		132	2	
2025-08-21T00:00	25100	26	-49.5		138	2	
2025-08-21T00:00	25150	26	-49.4		146	2	
2025-08-21T00:00	25200	26	-49.4		153	2	
2025-08-21T00:00	25250	26	-49.6		162	2	
2025-08-21T00:00	25300	25	-49.4		172	2	
2025-08-21T00:00	25350	25	-49.7		187	2	
2025-08-21T00:00	25400	25	-50.0		210	2	
2025-08-21T00:00	25450	25	-50.3		228	3	
2025-08-21T00:00	25500	25	-50.5		238	3	
2025-08-21T00:00	25550	24	-50.6		244	3	
2025-08-21T00:00	25600	24	-50.8		250	3	
2025-08-21T00:00	25650	24	-50.7		260	2	
2025-08-21T00:00	25700	24	-50.7		278	2	
2025-08-21T00:00	25750	24	-50.9		295	1	
2025-08-21T00:00	25800	24	-50.9		315	1	
2025-08-21T00:00	25850	23	-51.0		18	1	
2025-08-21T00:00	25900	23	-50.6		52	1	
2025-08-21T00:00	25950	23	-50.1		55	2	
2025-08-21T00:00	26000	23	-50.0		59	3	
2025-08-21T00:00	26050	23	-50.0		71	4	
2025-08-21T00:00	26100	23	-49.9		90	4	
2025-08-21T00:00	26150	22	-49.8		116	4	
2025-08-21T00:00	26200	22	-49.7		144	4	
2025-08-21T00:00	26250	22	-49.6		165	4	
2025-08-21T00:00	26300	22	-49.7		181	5	
2025-08-21T00:00	26350	22	-49.9		194	5	
2025-08-21T00:00	26400	22	-49.7		208	4	
2025-08-21T00:00	26450	21	-49.4		219	5	
2025-08-21T00:00	26500	21	-49.1		222	5	
2025-08-21T00:00	26550	21	-48.9		221	5	
2025-08-21T00:00	26600	21	-48.8		218	4	
2025-08-21T00:00	26650	21	-48.8		219	4	
2025-08-21T00:00	26700	21	-48.9		223	3	
2025-08-21T00:00	26750	20	-49.0		233	3	
2025-08-21T00:00	26800	20	-49.1		258	2	
2025-08-21T00:00	26850	20	-49.2		287	3	
2025-08-21T00:00	26900	20	-49.2		304	3	
2025-08-21T00:00	26950	20	-48.6		316	3	
2025-08-21T00:00	27000	20	-48.2		328	4	
2025-08-21T00:00	27050	19	-47.8		341	3	
2025-08-21T00:00	27100	19	-47.3		352	3	
2025-08-21T00:00	27150	19	-46.7		349	2	
2025-08-21T00:00	27200	19	-46.6		324	1	
2025-08-21T00:00	27250	19	-46.7		326	1	
2025-08-21T00:00	27300	19	-46.8		28	1	
2025-08-21T00:00	27350	19	-46.3		43	3	
2025-08-21T00:00	27400	18	-46.0		48	4	
2025-08-21T00:00	27450	18	-45.8		55	4	
2025-08-21T00:00	27500	18	-45.6		64	4	
2025-08-21T00:00	27550	18	-45.4		70	4	
2025-08-21T00:00	27600	18	-45.0		70	4	
2025-08-21T00:00	27650	18	-45.0		69	4	
2025-08-21T00:00	27700	18	-45.4		69	4	
2025-08-21T00:00	27750	18	-45.5		71	4	
2025-08-21T00:00	27800	17	-45.3		74	3	
2025-08-21T00:00	27850	17	-45.4		76	2	
2025-08-21T00:00	27900	17	-45.6		73	2	
2025-08-21T00:00	27950	17	-45.7		67	2	
2025-08-21T00:00	28000	17	-45.5		64	4	
2025-08-21T00:00	28050	17	-45.5		66	5	
2025-08-21T00:00	28100	17	-45.9		69	7	
2025-08-21T00:00	28150	17	-46.2		73	8	
2025-08-21T00:00	28200	16	-46.4		78	9	
2025-08-21T00:00	28250	16	-46.5		81	8	
2025-08-21T00:00	28300	16	-46.4		84	7	
2025-08-21T00:00	28350	16	-46.0		87	6	
2025-08-21T00:00	28400	16	-45.7		94	5	
2025-08-21T00:00	28450	16	-45.3		101	5	
2025-08-21T00:00	28500	16	-45.0		106	6	
2025-08-21T00:00	28550	16	-44.8		106	6	
2025-08-21T00:00	28600	15	-44.5		102	5	
2025-08-21T00:00	28650	15	-44.4		93	4	
2025-08-21T00:00	28700	15	-44.6		72	2	
2025-08-21T00:00	28750	15	-44.6		49	2	
2025-08-21T00:00	28800	15	-44.3		42	3	
2025-08-21T00:00	28850	15	-44.4		48	4	
2025-08-21T00:00	28900	15	-44.2		61	5	
2025-08-21T00:00	28950	15	-43.8		76	6	
2025-08-21T00:00	29000	15	-43.7		88	8	
2025-08-21T00:00	29050	14	-43.5		97	10	
2025-08-21T00:00	29100	14	-43.5		103	10	
2025-08-21T00:00	29150	14	-43.5		104	10	
2025-08-21T00:00	29200	14	-43.4		101	9	
2025-08-21T00:00	29250	14	-43.3		95	9	
2025-08-21T00:00	29300	14	-43.3		92	9	
2025-08-21T00:00	29350	14	-43.0		92	10	
2025-08-21T00:00	29400	14	-43.1		95	11	
2025-08-21T00:00	29450	14	-43.2		98	11	
2025-08-21T00:00	29500	13	-43.4		101	11	
2025-08-21T00:00	29550	13	-43.5		101	10	
2025-08-21T00:00	29600	13	-43.7		101	10	
2025-08-21T00:00	29650	13	-43.9		99	9	
2025-08-21T00:00	29700	13	-43.8		94	8	
2025-08-21T00:00	29750	13	-43.9		86	8	
2025-08-21T00:00	29800	13	-43.9		78	9	
2025-08-21T00:00	29850	13	-43.8		74	9	
2025-08-21T00:00	29900	13	-43.8		77	10	
2025-08-21T00:00	29950	13	-43.8		84	11	
2025-08-21T00:00	30000	13	-43.8		90	11	
2025-08-21T00:00	30050	12	-43.9		96	11	
2025-08-21T00:00	30100	12	-43.9		102	11	
2025-08-21T00:00	30150	12	-43.8		110	10	
2025-08-21T00:00	30200	12	-43.9		120	10	
2025-08-21T00:00	30250	12	-44.0		125	9	
2025-08-21T00:00	30300	12	-43.9		123	8	
2025-08-21T00:00	30350	12	-43.6		115	7	
2025-08-21T00:00	30400	12	-43.4		107	6	
2025-08-21T00:00	30450	12	-42.9		110	6	
2025-08-21T00:00	30500	12	-42.7		122	7	
2025-08-21T00:00	30550	12	-42.3		136	7	
2025-08-21T00:00	30600	11	-41.9		146	7	
2025-08-21T00:00	30650	11	-41.3		153	7	
2025-08-21T00:00	30700	11	-40.8		157	6	
2025-08-21T00:00	30750	11	-40.8		154	6	
2025-08-21T00:00	30800	11	-40.6		142	5	
2025-08-21T00:00	30850	11	-40.3		127	5	
2025-08-21T00:00	30900	11	-40.2		110	4	
2025-08-21T00:00	30950	11	-40.3		92	4	
2025-08-21T00:00	31000	11	-40.2		72	4	
2025-08-21T00:00	31050	11	-39.8		56	5	
2025-08-21T00:00	31100	11	-39.7		49	6	
2025-08-21T00:00	31150	11	-40.0		50	6	
2025-08-21T00:00	31200	10	-40.1		56	7	
2025-08-21T00:00	31250	10	-39.9		64	6	
2025-08-21T00:00	31300	10	-39.8		72	6	
2025-08-21T00:00	31350	10	-39.9		81	5	
2025-08-21T00:00	31400	10	-40.0		88	5	
2025-08-21T00:00	31450	10	-40.3		90	4	
2025-08-21T00:00	31500	10	-40.4		82	3	
2025-08-21T00:00	31550	10	-40.1		65	3	
2025-08-21T00:00	31600	10	-40.0		51	4	
2025-08-21T00:00	31650	10	-40.3		42	6	
2025-08-21T00:00	31700	10	-40.5		38	8	
2025-08-21T00:00	31750	10	-40.6		38	9	
2025-08-21T00:00	31800	10	-40.8		40	11	
2025-08-21T00:00	31850	10	-41.0		42	12	
2025-08-21T00:00	31900	9	-41.2		47	13	
2025-08-21T00:00	31950	9	-41.4		54	13	
2025-08-21T00:00	32000	9	-41.5		62	12	
2025-08-21T00:00	32050	9	-41.5		69	11	
2025-08-21T00:00	32100	9	-41.4		75	10	
2025-08-21T00:00	32150	9	-41.5		78	9	
2025-08-21T00:00	32200	9	-41.9		81	8	
2025-08-21T00:00	32250	9	-42.2		81	7	
2025-08-21T00:00	32300	9	-42.4		77	6	
2025-08-21T00:00	32350	9	-42.5		70	6	
2025-08-21T00:00	32400	9	-42.5		67	7	
2025-08-21T00:00	32450	9	-42.5		71	8	
2025-08-21T00:00	32500	9	-42.4		77	9	
2025-08-21T00:00	32550	9	-42.3		82	10	
2025-08-21T00:00	32600	9	-42.2		86	10	
2025-08-21T00:00	32650	8	-42.3		88	9	
2025-08-21T00:00	32700	8	-42.3		89	7	
2025-08-21T00:00	32750	8	-42.2		87	6	
2025-08-21T00:00	32800	8	-42.2		81	5	
2025-08-21T00:00	32850	8	-42.3		71	5	
2025-08-21T00:00	32900	8	-42.4		61	4	
2025-08-21T00:00	32950	8	-42.2		52	4	
2025-08-21T00:00	33000	8	-41.7		45	3	
2025-08-21T00:00	33050	8	-41.7		42	3	
2025-08-21T00:00	33100	8	-41.6		39	3	
2025-08-21T00:00	33150	8	-41.5		38	3	
2025-08-21T00:00	33200	8	-41.3		38	3	
2025-08-21T00:00	33250	8	-40.9		36	3	
2025-08-21T00:00	33300	8	-40.6		31	3	
2025-08-21T00:00	33350	8	-40.5		28	4	
2025-08-21T00:00	33400	8	-40.2		29	5	
2025-08-21T00:00	33450	8	-40.1		33	7	
2025-08-21T00:00	33500	7	-39.9		36	9	
2025-08-21T00:00	33550	7	-39.6		37	10	
2025-08-21T00:00	33600	7	-39.5		41	11	
2025-08-21T00:00	33650	7	-38.9		50	12	
2025-08-21T00:00	33700	7	-38.2		60	13	
2025-08-21T00:00	33750	7	-37.4		71	14	
2025-08-21T00:00	33800	7	-37.1		80	14	
2025-08-21T00:00	33850	7	-36.7		87	14	
2025-08-21T00:00	33900	7	-36.4		92	13	
2025-08-21T00:00	33950	7	-36.6		98	13	
2025-08-21T00:00	34000	7	-36.9		104	12	
2025-08-21T00:00	34050	7	-37.2		111	13	
2025-08-21T00:00	34100	7	-37.3		116	13	
2025-08-21T00:00	34150	7	-37.5		120	14	
2025-08-21T00:00	34200	7	-37.8		123	14	
2025-08-21T00:00	34250	7	-38.2		125	14	
2025-08-21T00:00	34300	7	-38.6		126	13	
2025-08-21T00:00	34350	7	-39.0		126	11	
2025-08-21T00:00	34400	7	-38.7		123	10	
2025-08-21T00:00	34450	7	-38.0		117	9	
2025-08-21T00:00	34500	6	-37.9		109	8	
2025-08-21T00:00	34550	6	-37.8		95	7	
2025-08-21T00:00	34600	6	-37.7		78	7	
2025-08-21T00:00	34650	6	-37.2		70	8	
2025-08-21T00:00	34700	6	-36.3		70	10	
2025-08-21T00:00	34750	6	-35.6		72	12	
2025-08-21T00:00	34800	6	-35.0		74	13	
2025-08-21T00:00	34850	6	-34.6		75	13	
2025-08-21T00:00	34900	6	-34.7		76	11	
2025-08-21T00:00	34950	6	-34.9		76	10	
2025-08-21T00:00	35000	6	-34.9		72	9	
2025-08-21T00:00	35050	6	-34.6		67	9	
2025-08-21T00:00	35100	6	-34.4		60	9	
2025-08-21T00:00	35150	6	-34.2		55	9	
2025-08-21T00:00	35200	6	-34.1		54	8	
2025-08-21T00:00	35250	6	-34.0		58	7	
2025-08-21T00:00	35300	6	-34.0		63	7	
2025-08-21T00:00	35350	6	-34.0		67	8	
2025-08-21T00:00	35400	6	-34.2		68	8	
2025-08-21T00:00	35450	6	-34.2		70	9	
2025-08-21T00:00	35500	6	-33.9		72	11	
2025-08-21T00:00	35550	6	-33.8		74	12	
2025-08-21T00:00	35600	6	-33.7		78	13	
2025-08-21T00:00	35650	5	-33.6		81	14	
2025-08-21T00:00	35700	5	-33.6		84	14	
2025-08-21T00:00	35750	5	-33.3		85	14	
2025-08-21T00:00	35800	5	-33.4		85	13	
2025-08-21T00:00	35850	5	-33.5		85	13	
2025-08-21T00:00	35900	5	-33.6		85	12	
2025-08-21T00:00	35950	5	-33.5		83	12	
2025-08-21T00:00	36000	5	-33.4		81	11	
2025-08-21T00:00	36050	5	-33.4		79	11	
2025-08-21T00:00	36100	5	-33.7		78	11	
2025-08-21T00:00	36150	5	-33.7		79	11	
2025-08-21T00:00	36200	5	-33.4		81	13	
2025-08-21T00:00	36250	5	-33.3		79	14	
2025-08-21T00:00	36300	5	-32.6		75	14	
2025-08-21T00:00	36350	5	-31.7		71	13	
2025-08-21T00:00	36400	5	-31.4		69	12	
2025-08-21T00:00	36450	5	-31.4		67	12	
2025-08-21T00:00	36500	5	-31.1		71	13	
2025-08-21T00:00	36550	5	-30.9		80	15	
2025-08-21T00:00	36600	5	-30.6		86	15	
2025-08-21T00:00	36650	5	-30.1		86	15	
2025-08-21T00:00	36700	5	-29.7		82	14	
2025-08-21T00:00	36750	5	-29.4		78	14	
2025-08-21T00:00	36800	5	-29.1		74	15	
2025-08-21T00:00	36850	5	-29.1		72	16	
2025-08-21T00:00	36900	5	-29.2		70	18	
2025-08-21T00:00	36950	5	-28.9		70	19	
2025-08-21T00:00	37000	5	-28.8		73	20	
2025-08-21T00:00	37050	4	-28.8		77	20	
2025-08-21T00:00	37100	4	-28.8		81	20	
2025-08-21T00:00	37150	4	-28.9		85	19	
2025-08-21T00:00	37200	4	-29.2		88	19	
2025-08-21T00:00	37250	4	-29.3		90	18	
2025-08-21T00:00	37300	4	-29.2		91	18	
2025-08-21T00:00	37350	4	-29.1		90	18	
2025-08-21T00:00	37400	4	-29.1		87	18	
2025-08-21T00:00	37450	4	-28.9		85	18	
2025-08-21T00:00	37500	4	-28.8		82	18	
2025-08-21T00:00	37550	4	-28.6		78	17	
2025-08-21T00:00	37600	4	-28.5		73	16	
2025-08-21T00:00	37650	4	-28.6		68	15	
2025-08-21T00:00	37700	4	-28.6		62	15	
2025-08-21T00:00	37750	4	-28.1		57	15	
2025-08-21T00:00	37800	4	-27.3		58	17	
2025-08-21T00:00	37850	4	-26.2		66	19	
2025-08-21T00:00	37900	4	-24.9		74	21	
2025-08-21T00:00	37950	4	-24.3		77	22	
2025-08-21T00:00	38000	4	-23.3		80	20	
2025-08-21T00:00	38050	4	-23.1		79	17	
2025-08-21T12:00	491	953	19.4	13.8	323	3	
2025-08-21T12:00	501	952	19.0	13.2	304	2	
2025-08-21T12:00	520	950	18.8	13.1	302	3	
2025-08-21T12:00	540	947	18.4	12.9	305	3	
2025-08-21T12:00	560	945	18.2	12.8	306	4	
2025-08-21T12:00	580	943	18.0	12.7	306	4	
2025-08-21T12:00	600	941	17.8	12.7	306	4	
2025-08-21T12:00	620	939	17.6	12.7	306	4	
2025-08-21T12:00	640	937	17.4	12.7	307	4	
2025-08-21T12:00	660	934	17.2	12.7	307	3	
2025-08-21T12:00	680	932	17.0	12.7	309	3	
2025-08-21T12:00	700	930	16.8	12.6	310	3	
2025-08-21T12:00	720	928	16.7	12.5	311	3	
2025-08-21T12:00	740	926	16.5	12.5	311	3	
2025-08-21T12:00	760	923	16.3	12.5	311	3	
2025-08-21T12:00	780	921	16.1	12.5	311	3	
2025-08-21T12:00	800	919	15.9	12.4	310	3	
2025-08-21T12:00	820	917	15.7	12.4	310	3	
2025-08-21T12:00	840	915	15.5	12.4	308	3	
2025-08-21T12:00	860	913	15.3	12.3	306	3	
2025-08-21T12:00	880	911	15.1	12.3	302	3	
2025-08-21T12:00	900	908	14.9	12.3	298	3	
2025-08-21T12:00	920	906	14.7	12.3	294	3	
2025-08-21T12:00	940	904	14.5	12.2	290	3	
2025-08-21T12:00	960	902	14.4	12.1	288	3	
2025-08-21T12:00	980	900	14.2	12.1	287	3	
2025-08-21T12:00	1000	898	14.0	12.1	288	3	
2025-08-21T12:00	1020	896	13.7	12.0	292	3	
2025-08-21T12:00	1040	894	13.6	12.1	296	3	
2025-08-21T12:00	1060	891	13.4	12.1	302	3	
2025-08-21T12:00	1080	889	13.2	12.0	307	2	
2025-08-21T12:00	1100	887	13.0	11.9	310	2	
2025-08-21T12:00	1120	885	12.8	11.9	311	2	
2025-08-21T12:00	1140	883	12.6	11.9	312	2	
2025-08-21T12:00	1160	881	12.4	11.9	311	2	
2025-08-21T12:00	1180	879	12.2	11.9	309	2	
2025-08-21T12:00	1200	877	12.1	11.8	307	2	
2025-08-21T12:00	1220	875	11.9	11.7	305	2	
2025-08-21T12:00	1240	873	11.7	11.7	303	2	
2025-08-21T12:00	1260	870	11.5	11.5	301	2	
2025-08-21T12:00	1280	868	11.4	11.4	299	2	
2025-08-21T12:00	1300	866	11.3	11.3	299	2	
2025-08-21T12:00	1320	864	11.2	11.2	299	2	
2025-08-21T12:00	1340	862	11.1	11.1	301	2	
2025-08-21T12:00	1360	860	11.0	11.0	303	2	
2025-08-21T12:00	1380	858	10.7	10.7	305	2	
2025-08-21T12:00	1400	856	10.4	10.4	308	3	
2025-08-21T12:00	1420	854	10.3	10.3	310	3	
2025-08-21T12:00	1440	852	10.2	10.2	311	3	
2025-08-21T12:00	1460	850	10.2	10.2	313	3	
2025-08-21T12:00	1480	848	9.9	9.9	314	4	
2025-08-21T12:00	1500	846	9.7	9.7	315	4	
2025-08-21T12:00	1520	844	9.6	9.6	316	3	
2025-08-21T12:00	1540	842	9.6	9.6	318	3	
2025-08-21T12:00	1560	840	9.4	9.4	323	3	
2025-08-21T12:00	1580	838	9.2	9.2	330	3	
2025-08-21T12:00	1600	836	9.0	9.0	337	3	
2025-08-21T12:00	1620	834	8.9	8.9	343	3	
2025-08-21T12:00	1640	832	8.8	8.8	348	3	
2025-08-21T12:00	1660	830	8.7	8.7	351	3	
2025-08-21T12:00	1680	828	8.6	8.6	353	3	
2025-08-21T12:00	1700	826	8.5	8.5	353	3	
2025-08-21T12:00	1720	824	8.3	8.3	350	3	
2025-08-21T12:00	1740	822	8.2	8.2	346	3	
2025-08-21T12:00	1760	820	8.1	8.1	342	3	
2025-08-21T12:00	1780	818	8.0	8.0	336	3	
2025-08-21T12:00	1800	816	7.9	7.9	330	3	
2025-08-21T12:00	1820	814	7.8	7.8	328	3	
2025-08-21T12:00	1840	812	7.7	7.7	325	3	
2025-08-21T12:00	1860	810	7.6	7.6	324	3	
2025-08-21T12:00	1880	808	7.5	7.5	321	3	
2025-08-21T12:00	1900	806	7.4	7.4	316	3	
2025-08-21T12:00	1920	804	7.3	7.3	309	2	
2025-08-21T12:00	1940	802	7.2	7.2	303	2	
2025-08-21T12:00	1960	800	7.1	7.1	297	2	
2025-08-21T12:00	1980	798	6.9	6.9	292	2	
2025-08-21T12:00	2000	796	6.8	6.8	292	2	
2025-08-21T12:00	2020	794	6.7	6.7	297	2	
2025-08-21T12:00	2040	792	6.6	6.6	305	2	
2025-08-21T12:00	2060	790	6.4	6.4	313	2	
2025-08-21T12:00	2080	788	6.3	6.3	319	2	
2025-08-21T12:00	2100	787	6.2	6.2	321	2	
2025-08-21T12:00	2120	785	6.1	6.1	321	2	
2025-08-21T12:00	2140	783	6.3	6.3	321	2	
2025-08-21T12:00	2160	781	6.3	6.3	321	2	
2025-08-21T12:00	2180	779	6.3	6.3	322	2	
2025-08-21T12:00	2200	777	6.2	6.2	324	3	
2025-08-21T12:00	2220	775	6.2	6.2	328	3	
2025-08-21T12:00	2240	773	6.0	6.0	331	3	
2025-08-21T12:00	2260	771	5.9	5.9	334	3	
2025-08-21T12:00	2280	770	5.7	5.7	335	3	
2025-08-21T12:00	2300	768	5.5	5.5	337	3	
2025-08-21T12:00	2320	766	5.4	5.4	337	3	
2025-08-21T12:00	2340	764	5.1	5.1	336	3	
2025-08-21T12:00	2360	762	5.0	5.0	334	3	
2025-08-21T12:00	2380	760	5.0	5.0	331	3	
2025-08-21T12:00	2400	759	5.0	5.0	326	2	
2025-08-21T12:00	2420	757	4.9	4.9	319	2	
2025-08-21T12:00	2440	755	4.8	4.8	311	2	
2025-08-21T12:00	2460	753	4.7	4.7	303	2	
2025-08-21T12:00	2480	751	4.6	4.6	296	3	
2025-08-21T12:00	2500	749	4.5	4.5	291	3	
2025-08-21T12:00	2520	748	4.5	4.5	287	3	
2025-08-21T12:00	2540	746	4.5	4.5	284	3	
2025-08-21T12:00	2560	744	4.4	4.4	280	3	
2025-08-21T12:00	2580	742	4.2	4.2	277	4	
2025-08-21T12:00	2600	740	4.1	4.1	274	4	
2025-08-21T12:00	2620	738	4.0	4.0	271	4	
2025-08-21T12:00	2640	736	3.9	3.9	266	4	
2025-08-21T12:00	2660	734	3.6	3.6	261	3	
2025-08-21T12:00	2680	733	3.5	3.5	256	3	
2025-08-21T12:00	2700	731	3.4	3.4	252	3	
2025-08-21T12:00	2720	729	3.3	3.3	249	3	
2025-08-21T12:00	2740	727	3.3	3.3	246	3	
2025-08-21T12:00	2760	726	3.2	3.2	244	3	
2025-08-21T12:00	2780	724	3.1	3.1	243	3	
2025-08-21T12:00	2800	722	3.1	3.1	244	3	
2025-08-21T12:00	2820	720	2.9	2.9	246	4	
2025-08-21T12:00	2840	719	2.9	2.9	248	4	
2025-08-21T12:00	2860	717	2.9	2.9	252	4	
2025-08-21T12:00	2880	715	2.7	2.7	256	4	
2025-08-21T12:00	2900	713	2.6	2.6	259	4	
2025-08-21T12:00	2920	711	2.4	2.4	263	4	
2025-08-21T12:00	2940	710	2.3	2.3	267	4	
2025-08-21T12:00	2960	708	2.1	2.1	270	4	
2025-08-21T12:00	2980	706	2.0	2.0	272	4	
2025-08-21T12:00	3000	704	1.9	1.9	274	4	
2025-08-21T12:00	3020	703	1.7	1.7	275	4	
2025-08-21T12:00	3040	701	1.6	1.6	275	4	
2025-08-21T12:00	3060	699	1.6	1.6	274	4	
2025-08-21T12:00	3080	698	1.5	1.5	272	3	
2025-08-21T12:00	3100	696	1.3	1.3	266	3	
2025-08-21T12:00	3120	694	1.2	1.2	258	3	
2025-08-21T12:00	3140	693	1.1	1.1	252	3	
2025-08-21T12:00	3160	691	1.0	1.0	249	3	
2025-08-21T12:00	3180	689	0.8	0.8	252	4	
2025-08-21T12:00	3200	687	0.7	0.7	257	4	
2025-08-21T12:00	3220	685	0.6	0.6	263	4	
2025-08-21T12:00	3240	684	0.5	0.5	268	3	
2025-08-21T12:00	3260	682	0.4	0.4	271	3	
2025-08-21T12:00	3280	680	0.3	0.3	271	2	
2025-08-21T12:00	3300	679	0.2	0.2	268	2	
2025-08-21T12:00	3320	677	0.2	0.2	265	3	
2025-08-21T12:00	3340	675	0.2	0.2	264	3	
2025-08-21T12:00	3360	673	0.1	0.1	264	3	
2025-08-21T12:00	3380	672	0.1	0.1	267	3	
2025-08-21T12:00	3400	670	-0.1	-0.1	272	3	
2025-08-21T12:00	3420	668	-0.2	-0.2	278	3	
2025-08-21T12:00	3440	667	-0.4	-0.4	285	3	
2025-08-21T12:00	3460	665	-0.5	-0.5	292	2	
2025-08-21T12:00	3480	664	-0.5	-0.5	296	2	
2025-08-21T12:00	3500	662	-0.7	-0.7	300	2	
2025-08-21T12:00	3520	660	-0.8	-0.8	302	2	
2025-08-21T12:00	3540	659	-0.9	-0.9	301	1	
2025-08-21T12:00	3560	657	-1.0	-1.0	292	1	
2025-08-21T12:00	3580	655	-1.1	-1.1	275	0	
2025-08-21T12:00	3600	654	-1.2	-1.2	267	0	
2025-08-21T12:00	3620	652	-1.3	-1.3	300	0	
2025-08-21T12:00	3640	651	-1.3	-1.3	331	1	
2025-08-21T12:00	3660	649	-1.4	-1.4	340	1	
2025-08-21T12:00	3680	647	-1.5	-1.5	342	1	
2025-08-21T12:00	3700	646	-1.6	-1.6	340	1	
2025-08-21T12:00	3720	644	-1.8	-1.8	335	1	
2025-08-21T12:00	3740	642	-2.0	-2.0	327	1	
2025-08-21T12:00	3760	641	-2.1	-2.1	317	1	
2025-08-21T12:00	3780	639	-2.1	-2.1	306	1	
2025-08-21T12:00	3800	637	-2.1	-2.1	293	1	
2025-08-21T12:00	3820	636	-2.3	-2.3	283	1	
2025-08-21T12:00	3840	634	-2.4	-2.4	273	1	
2025-08-21T12:00	3860	633	-2.4	-2.4	264	1	
2025-08-21T12:00	3880	631	-2.5	-2.5	256	1	
2025-08-21T12:00	3900	629	-2.6	-2.6	248	1	
2025-08-21T12:00	3920	628	-2.6	-2.6	241	1	
2025-08-21T12:00	3940	626	-2.7	-2.7	231	1	
2025-08-21T12:00	3960	625	-2.9	-2.9	218	1	
2025-08-21T12:00	3980	623	-3.0	-3.0	206	1	
2025-08-21T12:00	4000	622	-2.9	-2.9	195	1	
2025-08-21T12:00	4020	620	-3.0	-3.0	184	2	
2025-08-21T12:00	4040	618	-3.1	-3.1	177	2	
2025-08-21T12:00	4060	617	-3.2	-3.2	173	2	
2025-08-21T12:00	4080	616	-3.4	-3.4	169	2	
2025-08-21T12:00	4100	614	-3.4	-3.4	164	2	
2025-08-21T12:00	4120	612	-3.4	-3.4	158	2	
2025-08-21T12:00	4140	611	-3.5	-3.5	151	2	
2025-08-21T12:00	4160	609	-3.6	-3.6	143	2	
2025-08-21T12:00	4180	608	-3.7	-3.7	135	2	
2025-08-21T12:00	4200	606	-3.9	-3.9	124	2	
2025-08-21T12:00	4220	605	-4.0	-4.0	116	2	
2025-08-21T12:00	4240	603	-4.2	-4.2	111	2	
2025-08-21T12:00	4260	601	-4.3	-4.3	109	2	
2025-08-21T12:00	4280	600	-4.6	-4.6	112	2	
2025-08-21T12:00	4300	599	-4.8	-4.8	120	2	
2025-08-21T12:00	4320	597	-4.9	-4.9	131	2	
2025-08-21T12:00	4340	596	-5.0	-5.0	140	2	
2025-08-21T12:00	4360	594	-5.1	-5.1	142	3	
2025-08-21T12:00	4380	592	-5.2	-5.2	138	3	
2025-08-21T12:00	4400	591	-5.3	-5.3	131	3	
2025-08-21T12:00	4420	590	-5.4	-5.4	124	3	
2025-08-21T12:00	4440	588	-5.4	-5.4	118	4	
2025-08-21T12:00	4460	586	-5.6	-5.6	114	4	
2025-08-21T12:00	4480	585	-5.8	-5.8	111	4	
2025-08-21T12:00	4500	584	-5.8	-5.8	110	4	
2025-08-21T12:00	4520	582	-5.8	-5.8	112	4	
2025-08-21T12:00	4540	581	-5.8	-5.8	113	4	
2025-08-21T12:00	4560	579	-5.9	-5.9	114	4	
2025-08-21T12:00	4580	578	-6.0	-6.0	113	4	
2025-08-21T12:00	4600	576	-6.1	-6.1	110	4	
2025-08-21T12:00	4620	575	-6.2	-6.2	107	4	
2025-08-21T12:00	4640	573	-6.4	-6.4	104	4	
2025-08-21T12:00	4660	572	-6.4	-6.5	100	4	
2025-08-21T12:00	4680	570	-6.5	-6.9	97	4	
2025-08-21T12:00	4700	569	-6.7	-8.5	91	4	
2025-08-21T12:00	4720	567	-7.0	-9.0	84	3	
2025-08-21T12:00	4740	566	-7.3	-9.2	79	3	
2025-08-21T12:00	4760	565	-7.5	-8.8	73	3	
2025-08-21T12:00	4780	563	-7.7	-9.0	70	2	
2025-08-21T12:00	4800	562	-8.0	-9.8	72	2	
2025-08-21T12:00	4820	560	-8.3	-9.9	78	2	
2025-08-21T12:00	4840	559	-8.5	-9.9	85	2	
2025-08-21T12:00	4860	557	-8.7	-9.3	91	2	
2025-08-21T12:00	4880	556	-8.7	-8.9	93	2	
2025-08-21T12:00	4900	554	-8.7	-8.9	89	2	
2025-08-21T12:00	4920	553	-9.0	-9.1	82	2	
2025-08-21T12:00	4940	551	-9.1	-9.1	73	2	
2025-08-21T12:00	4960	550	-9.4	-10.6	64	2	
2025-08-21T12:00	4980	549	-9.5	-10.6	55	1	
2025-08-21T12:00	5000	547	-9.1	-9.3	45	1	
2025-08-21T12:00	5020	546	-9.3	-9.5	25	1	
2025-08-21T12:00	5040	545	-9.3	-9.5	3	1	
2025-08-21T12:00	5060	543	-9.6	-9.9	353	1	
2025-08-21T12:00	5080	542	-10.0	-11.8	355	2	
2025-08-21T12:00	5100	540	-10.2	-11.8	1	3	
2025-08-21T12:00	5120	539	-10.4	-11.7	9	4	
2025-08-21T12:00	5140	537	-10.6	-12.0	18	4	
2025-08-21T12:00	5160	536	-10.8	-12.3	27	4	
2025-08-21T12:00	5180	535	-11.0	-12.8	40	3	
2025-08-21T12:00	5200	533	-11.2	-13.1	58	3	
2025-08-21T12:00	5220	532	-11.2	-13.0	70	2	
2025-08-21T12:00	5240	531	-11.0	-11.6	73	2	
2025-08-21T12:00	5260	529	-11.0	-11.0	67	2	
2025-08-21T12:00	5280	528	-11.1	-11.8	56	2	
2025-08-21T12:00	5300	526	-11.3	-12.4	46	2	
2025-08-21T12:00	5320	525	-11.5	-12.1	47	2	
2025-08-21T12:00	5340	524	-11.8	-12.8	61	2	
2025-08-21T12:00	5360	522	-12.0	-12.9	75	2	
2025-08-21T12:00	5380	521	-12.1	-13.1	82	2	
2025-08-21T12:00	5400	520	-12.4	-14.3	85	2	
2025-08-21T12:00	5420	518	-12.5	-13.8	88	2	
2025-08-21T12:00	5440	517	-11.6	-11.7	93	1	
2025-08-21T12:00	5460	515	-11.4	-11.7	101	1	
2025-08-21T12:00	5480	514	-11.7	-12.1	120	1	
2025-08-21T12:00	5500	513	-11.6	-11.9	136	1	
2025-08-21T12:00	5520	511	-11.6	-11.9	137	1	
2025-08-21T12:00	5540	510	-11.6	-11.9	132	1	
2025-08-21T12:00	5560	509	-11.7	-12.1	122	2	
2025-08-21T12:00	5580	508	-12.0	-12.3	111	2	
2025-08-21T12:00	5600	506	-12.1	-12.5	102	2	
2025-08-21T12:00	5620	505	-12.3	-12.7	96	2	
2025-08-21T12:00	5640	504	-12.4	-12.7	93	2	
2025-08-21T12:00	5660	502	-12.5	-12.9	93	3	
2025-08-21T12:00	5680	501	-12.9	-13.3	95	3	
2025-08-21T12:00	5700	500	-13.0	-13.4	96	4	
2025-08-21T12:00	5720	498	-13.3	-14.1	98	4	
2025-08-21T12:00	5740	497	-13.4	-14.5	97	4	
2025-08-21T12:00	5760	496	-13.6	-15.2	94	4	
2025-08-21T12:00	5780	494	-13.9	-15.1	88	3	
2025-08-21T12:00	5800	493	-14.1	-15.4	82	2	
2025-08-21T12:00	5820	492	-14.4	-16.1	79	2	
2025-08-21T12:00	5840	490	-14.6	-17.1	81	2	
2025-08-21T12:00	5860	489	-14.9	-22.4	85	2	
2025-08-21T12:00	5880	488	-15.1	-22.8	86	2	
2025-08-21T12:00	5900	487	-15.4	-22.3	85	3	
2025-08-21T12:00	5920	485	-15.6	-22.5	83	3	
2025-08-21T12:00	5940	484	-15.9	-22.8	84	4	
2025-08-21T12:00	5960	483	-16.1	-23.2	87	4	
2025-08-21T12:00	5980	482	-16.3	-23.6	91	4	
2025-08-21T12:00	6000	480	-16.6	-23.3	94	4	
2025-08-21T12:00	6020	479	-16.9	-23.2	96	5	
2025-08-21T12:00	6040	478	-17.1	-22.8	97	5	
2025-08-21T12:00	6060	476	-17.4	-22.0	96	5	
2025-08-21T12:00	6080	475	-17.6	-22.0	93	6	
2025-08-21T12:00	6100	474	-17.8	-21.4	87	6	
2025-08-21T12:00	6120	473	-17.7	-19.1	82	6	
2025-08-21T12:00	6140	471	-17.0	-17.9	77	5	
2025-08-21T12:00	6160	470	-17.2	-18.8	74	5	
2025-08-21T12:00	6180	469	-17.3	-18.7	70	5	
2025-08-21T12:00	6200	468	-17.5	-18.7	69	4	
2025-08-21T12:00	6220	466	-17.6	-18.8	71	4	
2025-08-21T12:00	6240	465	-17.8	-19.2	76	3	
2025-08-21T12:00	6260	464	-18.0	-19.4	80	3	
2025-08-21T12:00	6280	462	-18.2	-19.6	82	4	
2025-08-21T12:00	6300	461	-18.4	-20.0	83	4	
2025-08-21T12:00	6320	460	-18.6	-20.2	83	4	
2025-08-21T12:00	6340	459	-18.7	-20.2	83	4	
2025-08-21T12:00	6360	458	-18.9	-20.4	81	4	
2025-08-21T12:00	6380	457	-19.1	-20.5	75	4	
2025-08-21T12:00	6400	455	-19.2	-20.7	68	4	
2025-08-21T12:00	6420	454	-19.4	-20.9	61	4	
2025-08-21T12:00	6440	453	-19.6	-21.0	56	4	
2025-08-21T12:00	6460	452	-19.7	-21.1	54	4	
2025-08-21T12:00	6480	450	-19.9	-21.8	56	5	
2025-08-21T12:00	6500	449	-20.2	-22.0	62	5	
2025-08-21T12:00	6520	448	-20.4	-22.1	68	5	
2025-08-21T12:00	6540	447	-20.6	-22.4	72	4	
2025-08-21T12:00	6560	446	-20.7	-22.6	75	4	
2025-08-21T12:00	6580	444	-20.9	-22.6	78	3	
2025-08-21T12:00	6600	443	-21.0	-22.7	86	3	
2025-08-21T12:00	6620	442	-21.2	-23.1	97	2	
2025-08-21T12:00	6640	441	-21.5	-23.8	107	2	
2025-08-21T12:00	6660	440	-21.8	-25.2	112	2	
2025-08-21T12:00	6680	438	-22.1	-25.3	113	2	
2025-08-21T12:00	6700	437	-22.3	-26.6	111	2	
2025-08-21T12:00	6720	436	-22.5	-28.0	106	2	
2025-08-21T12:00	6740	435	-22.8	-29.5	98	2	
2025-08-21T12:00	6760	434	-23.0	-30.3	83	2	
2025-08-21T12:00	6780	432	-23.3	-30.9	71	2	
2025-08-21T12:00	6800	431	-23.5	-32.3	64	2	
2025-08-21T12:00	6820	430	-23.7	-33.1	62	3	
2025-08-21T12:00	6840	429	-23.9	-33.8	65	3	
2025-08-21T12:00	6860	428	-24.0	-35.7	65	3	
2025-08-21T12:00	6880	427	-24.0	-36.2	64	4	
2025-08-21T12:00	6900	425	-24.1	-36.0	61	4	
2025-08-21T12:00	6920	424	-24.2	-36.0	56	4	
2025-08-21T12:00	6940	423	-24.3	-36.0	52	5	
2025-08-21T12:00	6960	422	-24.4	-36.1	49	5	
2025-08-21T12:00	6980	421	-24.4	-35.3	47	5	
2025-08-21T12:00	7000	419	-24.4	-33.9	46	5	
2025-08-21T12:00	7020	418	-24.4	-32.7	47	5	
2025-08-21T12:00	7040	417	-24.5	-32.9	51	4	
2025-08-21T12:00	7060	416	-24.7	-32.6	55	4	
2025-08-21T12:00	7080	415	-24.8	-32.8	62	4	
2025-08-21T12:00	7100	414	-24.9	-32.2	69	5	
2025-08-21T12:00	7120	413	-25.0	-32.0	72	5	
2025-08-21T12:00	7140	412	-25.2	-32.0	73	5	
2025-08-21T12:00	7160	410	-25.3	-32.3	73	6	
2025-08-21T12:00	7180	409	-25.5	-32.3	74	6	
2025-08-21T12:00	7200	408	-25.6	-32.4	74	6	
2025-08-21T12:00	7220	407	-25.8	-32.4	74	6	
2025-08-21T12:00	7240	406	-26.0	-32.8	74	6	
2025-08-21T12:00	7260	405	-26.2	-33.2	74	6	
2025-08-21T12:00	7280	404	-26.4	-34.2	74	6	
2025-08-21T12:00	7300	402	-26.5	-35.4	74	6	
2025-08-21T12:00	7320	401	-26.7	-35.1	73	6	
2025-08-21T12:00	7340	400	-26.9	-35.8	72	6	
2025-08-21T12:00	7360	399	-27.1	-36.8	71	6	
2025-08-21T12:00	7380	398	-27.3	-37.2	70	6	
2025-08-21T12:00	7400	397	-27.5	-38.4	68	6	
2025-08-21T12:00	7420	396	-27.7	-39.0	66	6	
2025-08-21T12:00	7440	395	-27.8	-39.8	64	6	
2025-08-21T12:00	7460	394	-28.0	-40.4	62	7	
2025-08-21T12:00	7480	393	-28.1	-40.0	62	7	
2025-08-21T12:00	7500	391	-28.2	-39.8	62	7	
2025-08-21T12:00	7520	390	-28.3	-39.9	63	7	
2025-08-21T12:00	7540	389	-28.4	-40.2	64	7	
2025-08-21T12:00	7560	388	-28.6	-40.9	67	7	
2025-08-21T12:00	7580	387	-28.7	-41.9	69	7	
2025-08-21T12:00	7600	386	-28.9	-41.2	71	7	
2025-08-21T12:00	7620	385	-29.0	-41.9	71	7	
2025-08-21T12:00	7640	384	-29.1	-41.9	71	8	
2025-08-21T12:00	7660	383	-29.2	-41.9	70	8	
2025-08-21T12:00	7680	382	-29.3	-41.8	70	8	
2025-08-21T12:00	7700	381	-29.3	-41.9	69	8	
2025-08-21T12:00	7720	380	-29.5	-42.0	69	9	
2025-08-21T12:00	7740	379	-29.5	-42.4	68	9	
2025-08-21T12:00	7760	378	-29.6	-42.7	67	9	
2025-08-21T12:00	7780	376	-29.8	-42.6	65	9	
2025-08-21T12:00	7800	375	-29.9	-42.5	64	9	
2025-08-21T12:00	7820	374	-29.8	-42.1	63	9	
2025-08-21T12:00	7840	373	-29.9	-41.6	62	9	
2025-08-21T12:00	7860	372	-30.0	-41.6	61	10	
2025-08-21T12:00	7880	371	-30.2	-41.9	60	10	
2025-08-21T12:00	7900	370	-30.3	-41.8	58	10	
2025-08-21T12:00	7920	369	-30.5	-41.9	57	10	
2025-08-21T12:00	7940	368	-30.7	-42.2	57	10	
2025-08-21T12:00	7960	367	-30.9	-42.4	57	10	
2025-08-21T12:00	7980	366	-31.0	-41.8	57	10	
2025-08-21T12:00	8000	365	-31.2	-42.0	57	10	
2025-08-21T12:00	8020	364	-31.3	-41.5	57	10	
2025-08-21T12:00	8040	363	-31.5	-41.7	57	10	
2025-08-21T12:00	8060	362	-31.6	-41.0	57	10	
2025-08-21T12:00	8080	361	-31.8	-40.9	57	10	
2025-08-21T12:00	8100	360	-31.9	-40.4	57	10	
2025-08-21T12:00	8120	359	-32.1	-40.8	57	10	
2025-08-21T12:00	8140	358	-32.3	-41.4	57	10	
2025-08-21T12:00	8160	357	-32.5	-41.4	58	10	
2025-08-21T12:00	8180	356	-32.6	-41.4	59	9	
2025-08-21T12:00	8200	355	-32.8	-41.9	60	10	
2025-08-21T12:00	8220	354	-33.0	-41.9	61	10	
2025-08-21T12:00	8240	353	-33.1	-41.7	61	10	
2025-08-21T12:00	8260	352	-33.3	-41.9	61	10	
2025-08-21T12:00	8280	351	-33.4	-41.7	61	10	
2025-08-21T12:00	8300	350	-33.6	-41.9	62	11	
2025-08-21T12:00	8320	349	-33.8	-41.8	63	11	
2025-08-21T12:00	8340	348	-33.9	-42.6	64	11	
2025-08-21T12:00	8360	347	-34.1	-43.6	66	11	
2025-08-21T12:00	8380	346	-34.3	-43.7	67	11	
2025-08-21T12:00	8400	345	-34.4	-44.0	68	11	
2025-08-21T12:00	8420	344	-34.5	-42.2	68	11	
2025-08-21T12:00	8440	343	-34.7	-42.9	67	11	
2025-08-21T12:00	8460	342	-34.9	-43.1	65	12	
2025-08-21T12:00	8480	341	-35.0	-44.0	64	12	
2025-08-21T12:00	8500	340	-35.2	-44.1	62	12	
2025-08-21T12:00	8520	339	-35.3	-45.0	61	12	
2025-08-21T12:00	8540	338	-35.4	-44.9	60	12	
2025-08-21T12:00	8560	337	-35.6	-44.2	59	12	
2025-08-21T12:00	8580	336	-35.8	-44.2	58	12	
2025-08-21T12:00	8600	335	-36.0	-44.2	58	12	
2025-08-21T12:00	8620	334	-36.1	-44.4	57	12	
2025-08-21T12:00	8640	333	-36.2	-44.3	57	12	
2025-08-21T12:00	8660	332	-36.4	-44.0	57	13	
2025-08-21T12:00	8680	331	-36.6	-43.5	57	13	
2025-08-21T12:00	8700	330	-36.7	-43.6	57	14	
2025-08-21T12:00	8720	329	-36.8	-44.0	57	14	
2025-08-21T12:00	8740	328	-37.1	-43.4	56	15	
2025-08-21T12:00	8760	327	-37.2	-42.8	55	15	
2025-08-21T12:00	8780	326	-37.3	-42.7	54	15	
2025-08-21T12:00	8800	325	-37.5	-42.2	52	15	
2025-08-21T12:00	8820	325	-37.6	-41.5	51	15	
2025-08-21T12:00	8840	324	-37.7	-41.5	50	15	
2025-08-21T12:00	8860	323	-37.8	-41.1	50	16	
2025-08-21T12:00	8880	322	-37.8	-40.6	51	16	
2025-08-21T12:00	8900	321	-38.0	-41.6	52	16	
2025-08-21T12:00	8920	320	-38.2	-41.8	52	16	
2025-08-21T12:00	8940	319	-38.3	-42.0	51	17	
2025-08-21T12:00	8960	318	-38.5	-42.2	50	17	
2025-08-21T12:00	8980	317	-38.7	-42.1	49	17	
2025-08-21T12:00	9000	316	-38.8	-42.4	48	17	
2025-08-21T12:00	9020	315	-38.9	-42.4	48	18	
2025-08-21T12:00	9040	314	-38.9	-42.0	48	18	
2025-08-21T12:00	9060	313	-39.1	-42.3	49	18	
2025-08-21T12:00	9080	312	-39.2	-42.2	49	18	
2025-08-21T12:00	9100	312	-39.4	-42.3	49	18	
2025-08-21T12:00	9120	311	-39.6	-42.3	49	18	
2025-08-21T12:00	9140	310	-39.7	-42.6	49	18	
2025-08-21T12:00	9160	309	-39.9	-42.7	49	17	
2025-08-21T12:00	9180	308	-40.1	-42.9	49	17	
2025-08-21T12:00	9200	307	-40.3	-43.1	49	17	
2025-08-21T12:00	9220	306	-40.4	-43.2	49	16	
2025-08-21T12:00	9240	305	-40.6	-43.4	48	16	
2025-08-21T12:00	9260	304	-40.8	-43.3	47	16	
2025-08-21T12:00	9280	303	-41.0	-43.5	46	16	
2025-08-21T12:00	9300	303	-41.2	-43.9	45	16	
2025-08-21T12:00	9320	302	-41.3	-44.5	44	16	
2025-08-21T12:00	9340	301	-41.6	-44.4	43	16	
2025-08-21T12:00	9360	300	-41.8	-44.6	43	16	
2025-08-21T12:00	9380	299	-42.0	-45.2	42	16	
2025-08-21T12:00	9400	298	-42.1	-45.5	43	16	
2025-08-21T12:00	9420	297	-42.3	-45.3	43	16	
2025-08-21T12:00	9440	296	-42.5	-45.4	44	16	
2025-08-21T12:00	9460	295	-42.7	-45.5	46	16	
2025-08-21T12:00	9480	295	-42.8	-45.9	46	16	
2025-08-21T12:00	9500	294	-43.0	-46.0	47	16	
2025-08-21T12:00	9520	293	-43.2	-46.2	47	16	
2025-08-21T12:00	9540	292	-43.3	-46.3	47	17	
2025-08-21T12:00	9560	291	-43.5	-46.2	47	17	
2025-08-21T12:00	9580	290	-43.7	-46.3	47	17	
2025-08-21T12:00	9600	289	-43.9	-46.6	47	17	
2025-08-21T12:00	9620	289	-44.1	-46.5	47	17	
2025-08-21T12:00	9640	288	-44.3	-46.7	47	17	
2025-08-21T12:00	9660	287	-44.4	-47.2	46	17	
2025-08-21T12:00	9680	286	-44.6	-47.4	46	17	
2025-08-21T12:00	9700	285	-44.8	-47.6	47	17	
2025-08-21T12:00	9720	284	-44.9	-47.7	47	17	
2025-08-21T12:00	9740	283	-45.2	-47.9	47	17	
2025-08-21T12:00	9760	283	-45.4	-48.0	48	17	
2025-08-21T12:00	9780	282	-45.6	-48.4	48	18	
2025-08-21T12:00	9800	281	-45.8	-49.3	48	18	
2025-08-21T12:00	9820	280	-45.9	-49.4	49	18	
2025-08-21T12:00	9840	279	-46.1	-49.2	49	19	
2025-08-21T12:00	9860	278	-46.3	-49.2	49	19	
2025-08-21T12:00	9880	278	-46.5	-49.5	49	19	
2025-08-21T12:00	9900	277	-46.7	-49.7	48	20	
2025-08-21T12:00	9920	276	-46.9	-49.8	47	20	
2025-08-21T12:00	9940	275	-47.0	-49.9	46	20	
2025-08-21T12:00	9960	274	-47.2	-50.2	45	20	
2025-08-21T12:00	9980	273	-47.2	-50.5	44	20	
2025-08-21T12:00	10000	273	-47.3	-50.4	42	20	
2025-08-21T12:00	10018	272	-47.5	-50.4	42	21	
2025-08-21T12:00	10050	271	-47.8	-50.5	41	21	
2025-08-21T12:00	10100	269	-48.3	-51.0	40	22	
2025-08-21T12:00	10150	266	-48.7	-51.8	40	21	
2025-08-21T12:00	10200	264	-49.2	-52.0	41	21	
2025-08-21T12:00	10250	262	-49.7	-52.3	39	20	
2025-08-21T12:00	10300	260	-50.2	-54.0	39	20	
2025-08-21T12:00	10350	258	-50.7	-54.2	40	20	
2025-08-21T12:00	10400	256	-51.2	-54.7	40	20	
2025-08-21T12:00	10450	254	-51.6	-55.0	40	20	
2025-08-21T12:00	10500	252	-52.1	-55.5	42	20	
2025-08-21T12:00	10550	251	-52.7	-56.1	44	20	
2025-08-21T12:00	10600	248	-53.1	-56.8	45	21	
2025-08-21T12:00	10650	247	-53.6	-57.4	46	21	
2025-08-21T12:00	10700	245	-54.1	-57.8	46	21	
2025-08-21T12:00	10750	243	-54.6	-58.0	47	21	
2025-08-21T12:00	10800	241	-55.0	-58.5	49	22	
2025-08-21T12:00	10850	239	-55.5	-59.2	52	22	
2025-08-21T12:00	10900	237	-55.4	-59.2	54	21	
2025-08-21T12:00	10950	235	-55.1	-59.6	57	19	
2025-08-21T12:00	11000	234	-55.3	-59.9	61	17	
2025-08-21T12:00	11050	232	-55.4	-60.8	65	15	
2025-08-21T12:00	11100	230	-54.8	-62.4	66	13	
2025-08-21T12:00	11150	228	-54.7	-62.7	65	13	
2025-08-21T12:00	11200	226	-55.0	-63.0	68	12	
2025-08-21T12:00	11250	225	-55.0	-63.5	72	11	
2025-08-21T12:00	11300	223	-55.0	-63.9	71	10	
2025-08-21T12:00	11350	221	-54.2	-65.2	65	10	
2025-08-21T12:00	11400	219	-53.7	-65.6	58	9	
2025-08-21T12:00	11450	218	-53.1	-65.7	53	9	
2025-08-21T12:00	11500	216	-52.9	-66.0	49	8	
2025-08-21T12:00	11550	214	-52.6	-66.0	46	7	
2025-08-21T12:00	11600	213	-52.2	-66.4	45	8	
2025-08-21T12:00	11650	211	-51.8	-66.4	50	8	
2025-08-21T12:00	11700	209	-51.8	-67.3	57	7	
2025-08-21T12:00	11750	208	-51.8	-68.3	66	6	
2025-08-21T12:00	11800	206	-51.4	-66.8	73	5	
2025-08-21T12:00	11850	205	-51.3	-66.9	71	5	
2025-08-21T12:00	11900	203	-51.5	-66.8	66	5	
2025-08-21T12:00	11950	202	-50.7	-66.7	64	5	
2025-08-21T12:00	12000	200	-50.4	-67.2	66	3	
2025-08-21T12:00	12050	198	-49.9	-66.8	69	2	
2025-08-21T12:00	12100	197	-50.0	-66.2	83	2	
2025-08-21T12:00	12150	195	-49.8	-67.4	127	1	
2025-08-21T12:00	12200	194	-49.6	-67.3	169	2	
2025-08-21T12:00	12250	192	-49.4	-66.8	176	2	
2025-08-21T12:00	12300	191	-49.4	-66.3	184	1	
2025-08-21T12:00	12350	190	-49.6	-66.6	177	1	
2025-08-21T12:00	12400	188	-49.9	-67.6	177	2	
2025-08-21T12:00	12450	187	-49.7	-67.8	182	3	
2025-08-21T12:00	12500	185	-49.3	-67.8	191	4	
2025-08-21T12:00	12550	184	-48.9	-69.3	213	4	
2025-08-21T12:00	12600	182	-48.9	-66.9	217	4	
2025-08-21T12:00	12650	181	-49.0	-67.4	218	4	
2025-08-21T12:00	12700	180	-49.1	-66.7	227	4	
2025-08-21T12:00	12750	178	-49.2	-67.5	237	5	
2025-08-21T12:00	12800	177	-49.2	-67.5	249	6	
2025-08-21T12:00	12850	176	-49.1	-68.1	261	6	
2025-08-21T12:00	12900	174	-49.2	-67.8	270	7	
2025-08-21T12:00	12950	173	-49.5	-68.1	278	6	
2025-08-21T12:00	13000	172	-49.7	-67.3	281	6	
2025-08-21T12:00	13050	170	-49.8	-67.7	278	5	
2025-08-21T12:00	13100	169	-50.0	-68.4	283	5	
2025-08-21T12:00	13150	168	-50.0	-68.6	297	5	
2025-08-21T12:00	13200	166	-50.2	-68.4	307	5	
2025-08-21T12:00	13250	165	-50.5	-69.0	308	5	
2025-08-21T12:00	13300	164	-50.5	-68.6	293	3	
2025-08-21T12:00	13350	163	-50.5	-69.3	266	3	
2025-08-21T12:00	13400	161	-50.6	-69.2	249	3	
2025-08-21T12:00	13450	160	-50.9	-69.2	242	3	
2025-08-21T12:00	13500	159	-50.9	-68.6	249	3	
2025-08-21T12:00	13550	158	-51.1	-68.7	248	3	
2025-08-21T12:00	13600	157	-51.1	-69.0	221	3	
2025-08-21T12:00	13650	155	-50.8	-69.0	207	5	
2025-08-21T12:00	13700	154	-51.0	-68.9	207	6	
2025-08-21T12:00	13750	153	-51.2	-69.7	212	5	
2025-08-21T12:00	13800	152	-51.2	-70.2	221	4	
2025-08-21T12:00	13850	151	-51.5	-70.6	228	5	
2025-08-21T12:00	13900	149	-51.4	-70.6	234	7	
2025-08-21T12:00	13950	148	-51.0	-69.5	238	8	
2025-08-21T12:00	14000	147	-50.9	-69.1	239	8	
2025-08-21T12:00	14050	146	-50.8	-69.2	237	7	
2025-08-21T12:00	14100	145	-50.8	-68.8	235	7	
2025-08-21T12:00	14150	144	-50.8	-68.7	234	7	
2025-08-21T12:00	14200	143	-50.5	-69.2	240	8	
2025-08-21T12:00	14250	142	-50.6	-69.0	244	9	
2025-08-21T12:00	14300	141	-50.8	-69.5	247	9	
2025-08-21T12:00	14350	140	-50.9	-69.3	252	9	
2025-08-21T12:00	14400	138	-51.0	-68.9	257	8	
2025-08-21T12:00	14450	137	-51.3	-69.5	261	8	
2025-08-21T12:00	14500	136	-51.4	-70.6	268	7	
2025-08-21T12:00	14550	135	-51.3	-70.8	278	7	
2025-08-21T12:00	14600	134	-51.4	-70.3	282	7	
2025-08-21T12:00	14650	133	-51.4	-69.9	279	7	
2025-08-21T12:00	14700	132	-51.4	-69.9	274	8	
2025-08-21T12:00	14750	131	-51.5	-70.0	270	8	
2025-08-21T12:00	14800	130	-51.7	-71.1	269	9	
2025-08-21T12:00	14850	129	-52.0	-70.5	269	10	
2025-08-21T12:00	14900	128	-52.4	-70.8	267	10	
2025-08-21T12:00	14950	127	-52.8	-70.8	267	11	
2025-08-21T12:00	15000	126	-53.2	-70.7	270	10	
2025-08-21T12:00	15050	125	-53.0	-71.4	274	10	
2025-08-21T12:00	15100	124	-53.1	-71.4	279	9	
2025-08-21T12:00	15150	123	-53.1	-70.4	282	7	
2025-08-21T12:00	15200	122	-52.9	-71.6	282	6	
2025-08-21T12:00	15250	121	-52.8	-71.8	283	5	
2025-08-21T12:00	15300	120	-52.7	-70.8	290	5	
2025-08-21T12:00	15350	120	-52.9	-71.6	296	5	
2025-08-21T12:00	15400	119	-53.3	-72.5	285	4	
2025-08-21T12:00	15450	118	-53.4	-72.3	253	4	
2025-08-21T12:00	15500	117	-53.1	-72.3	233	5	
2025-08-21T12:00	15550	116	-52.8	-72.7	228	6	
2025-08-21T12:00	15600	115	-52.5	-71.7	232	6	
2025-08-21T12:00	15650	114	-52.6	-71.1	237	7	
2025-08-21T12:00	15700	113	-52.8	-71.5	239	8	
2025-08-21T12:00	15750	112	-53.1	-71.4	240	8	
2025-08-21T12:00	15800	111	-53.1	-70.9	239	8	
2025-08-21T12:00	15850	111	-53.1	-71.4	235	8	
2025-08-21T12:00	15900	110	-53.3	-71.9	231	7	
2025-08-21T12:00	15950	109	-53.7	-71.8	227	7	
2025-08-21T12:00	16000	108	-54.1	-72.4	221	7	
2025-08-21T12:00	16050	107	-54.5	-72.4	216	6	
2025-08-21T12:00	16100	106	-54.8	-71.7	217	7	
2025-08-21T12:00	16150	106	-54.9	-72.3	227	7	
2025-08-21T12:00	16200	105	-54.9	-72.6	240	8	
2025-08-21T12:00	16250	104	-55.0	-73.6	247	8	
2025-08-21T12:00	16300	103	-54.7	-73.4	249	9	
2025-08-21T12:00	16350	102	-54.2	-73.0	252	10	
2025-08-21T12:00	16400	102	-54.0	-73.3	258	10	
2025-08-21T12:00	16450	101	-54.1	-72.6	263	10	
2025-08-21T12:00	16500	100	-54.2	-73.4	266	11	
2025-08-21T12:00	16550	99	-54.4	-74.7	271	11	
2025-08-21T12:00	16600	98	-54.7	-73.0	275	11	
2025-08-21T12:00	16650	98	-55.1	-72.8	274	11	
2025-08-21T12:00	16700	97	-55.2	-73.7	271	11	
2025-08-21T12:00	16750	96	-55.5	-73.2	274	11	
2025-08-21T12:00	16800	95	-55.6	-72.6	281	11	
2025-08-21T12:00	16850	95	-55.7	-73.2	287	11	
2025-08-21T12:00	16900	94	-55.8	-74.5	287	10	
2025-08-21T12:00	16950	93	-56.2	-75.0	284	10	
2025-08-21T12:00	17000	92	-56.4	-75.1	279	10	
2025-08-21T12:00	17050	92	-56.2	-74.8	275	10	
2025-08-21T12:00	17100	91	-56.1	-74.4	274	10	
2025-08-21T12:00	17150	90	-56.0	-74.7	276	9	
2025-08-21T12:00	17200	90	-55.9	-74.4	280	8	
2025-08-21T12:00	17250	89	-56.1	-73.3	285	8	
2025-08-21T12:00	17300	88	-56.3	-73.2	290	7	
2025-08-21T12:00	17350	87	-56.4	-73.7	293	6	
2025-08-21T12:00	17400	87	-56.4	-74.5	296	4	
2025-08-21T12:00	17450	86	-56.3	-74.1	287	4	
2025-08-21T12:00	17500	85	-56.5	-74.1	265	4	
2025-08-21T12:00	17550	85	-56.3	-75.4	255	5	
2025-08-21T12:00	17600	84	-56.2	-76.5	254	7	
2025-08-21T12:00	17650	83	-56.4	-75.1	254	7	
2025-08-21T12:00	17700	83	-56.1	-74.5	255	7	
2025-08-21T12:00	17750	82	-56.0	-75.0	256	7	
2025-08-21T12:00	17800	81	-56.0	-74.6	258	6	
2025-08-21T12:00	17850	81	-56.3	-74.2	261	5	
2025-08-21T12:00	17900	80	-56.3	-74.9	258	4	
2025-08-21T12:00	17950	80	-56.0	-75.6	255	4	
2025-08-21T12:00	18000	79	-56.0	-76.1	254	4	
2025-08-21T12:00	18050	78	-56.1	-76.6	249	5	
2025-08-21T12:00	18100	78	-56.0	-75.9	245	5	
2025-08-21T12:00	18150	77	-56.0	-75.1	251	5	
2025-08-21T12:00	18200	76	-56.0	-74.5	261	4	
2025-08-21T12:00	18250	76	-56.0	-74.3	264	4	
2025-08-21T12:00	18300	75	-55.8	-74.3	259	3	
2025-08-21T12:00	18350	75	-55.8	-74.9	258	3	
2025-08-21T12:00	18400	74	-55.7	-74.8	269	3	
2025-08-21T12:00	18450	74	-55.6	-75.0	282	4	
2025-08-21T12:00	18500	73	-55.9	-75.1	282	4	
2025-08-21T12:00	18550	72	-56.0	-74.1	266	4	
2025-08-21T12:00	18600	72	-56.2	-73.7	243	4	
2025-08-21T12:00	18650	71	-56.2	-73.9	230	4	
2025-08-21T12:00	18700	71	-56.3	-74.7	227	4	
2025-08-21T12:00	18750	70	-56.3	-75.4	222	5	
2025-08-21T12:00	18800	70	-56.2	-74.5	215	6	
2025-08-21T12:00	18850	69	-55.9	-73.9	210	6	
2025-08-21T12:00	18900	69	-56.1	-74.8	213	7	
2025-08-21T12:00	18950	68	-55.7	-75.6	221	7	
2025-08-21T12:00	19000	67	-55.9	-76.4	231	7	
2025-08-21T12:00	19050	67	-56.0	-76.1	248	6	
2025-08-21T12:00	19100	66	-55.9	-74.3	269	6	
2025-08-21T12:00	19150	66	-55.7	-73.1	289	6	
2025-08-21T12:00	19200	65	-55.6	-74.0	304	6	
2025-08-21T12:00	19250	65	-55.6	-75.7	314	6	
2025-08-21T12:00	19300	64	-56.0	-76.5	319	6	
2025-08-21T12:00	19350	64	-56.1	-76.2	317	5	
2025-08-21T12:00	19400	63	-56.0	-74.6	302	3	
2025-08-21T12:00	19450	63	-56.0	-74.6	275	3	
2025-08-21T12:00	19500	62	-55.9	-76.6	261	3	
2025-08-21T12:00	19550	62	-55.4	-76.9	261	4	
2025-08-21T12:00	19600	61	-55.3	-75.6	261	4	
2025-08-21T12:00	19650	61	-55.4	-75.4	257	4	
2025-08-21T12:00	19700	60	-55.6	-75.7	258	4	
2025-08-21T12:00	19750	60	-55.6	-76.1	262	4	
2025-08-21T12:00	19800	59	-55.3	-76.6	255	4	
2025-08-21T12:00	19850	59	-55.0	-76.1	236	4	
2025-08-21T12:00	19900	59	-54.6	-74.9	228	5	
2025-08-21T12:00	19950	58	-54.9	-74.4	228	5	
2025-08-21T12:00	20000	58	-55.1	-74.4	231	5	
2025-08-21T12:00	20050	57	-55.4		234	5	
2025-08-21T12:00	20100	57	-55.2		233	5	
2025-08-21T12:00	20150	56	-55.1		233	5	
2025-08-21T12:00	20200	56	-55.0		231	4	
2025-08-21T12:00	20250	55	-55.0		226	3	
2025-08-21T12:00	20300	55	-55.0		222	3	
2025-08-21T12:00	20350	55	-55.1		212	3	
2025-08-21T12:00	20400	54	-55.3		194	3	
2025-08-21T12:00	20450	54	-55.5		189	3	
2025-08-21T12:00	20500	53	-55.5		199	4	
2025-08-21T12:00	20550	53	-55.6		215	5	
2025-08-21T12:00	20600	52	-55.2		227	6	
2025-08-21T12:00	20650	52	-55.1		232	7	
2025-08-21T12:00	20700	52	-54.6		234	6	
2025-08-21T12:00	20750	51	-54.4		232	6	
2025-08-21T12:00	20800	51	-54.3		229	5	
2025-08-21T12:00	20850	50	-54.3		222	5	
2025-08-21T12:00	20900	50	-54.2		208	5	
2025-08-21T12:00	20950	50	-53.9		197	6	
2025-08-21T12:00	21000	49	-53.7		194	7	
2025-08-21T12:00	21050	49	-53.7		199	8	
2025-08-21T12:00	21100	49	-53.7		207	8	
2025-08-21T12:00	21150	48	-53.5		216	7	
2025-08-21T12:00	21200	48	-53.5		226	7	
2025-08-21T12:00	21250	47	-53.5		234	7	
2025-08-21T12:00	21300	47	-53.4		237	8	
2025-08-21T12:00	21350	47	-53.1		238	7	
2025-08-21T12:00	21400	46	-53.0		239	7	
2025-08-21T12:00	21450	46	-52.9		238	6	
2025-08-21T12:00	21500	46	-52.9		233	6	
2025-08-21T12:00	21550	45	-52.8		228	6	
2025-08-21T12:00	21600	45	-53.0		232	6	
2025-08-21T12:00	21650	45	-52.9		247	6	
2025-08-21T12:00	21700	44	-52.8		259	6	
2025-08-21T12:00	21750	44	-52.6		254	7	
2025-08-21T12:00	21800	44	-52.6		250	7	
2025-08-21T12:00	21850	43	-52.9		254	8	
2025-08-21T12:00	21900	43	-52.9		262	9	
2025-08-21T12:00	21950	43	-52.9		266	10	
2025-08-21T12:00	22000	42	-52.9		270	10	
2025-08-21T12:00	22050	42	-53.0		272	10	
2025-08-21T12:00	22100	42	-53.1		274	9	
2025-08-21T12:00	22150	41	-53.0		276	7	
2025-08-21T12:00	22200	41	-52.8		281	6	
2025-08-21T12:00	22250	41	-52.8		291	5	
2025-08-21T12:00	22300	40	-52.9		304	5	
2025-08-21T12:00	22350	40	-52.7		315	4	
2025-08-21T12:00	22400	40	-52.2		323	2	
2025-08-21T12:00	22450	39	-52.3		317	2	
2025-08-21T12:00	22500	39	-52.3		289	2	
2025-08-21T12:00	22550	39	-52.2		272	3	
2025-08-21T12:00	22600	38	-52.3		263	4	
2025-08-21T12:00	22650	38	-52.6		259	4	
2025-08-21T12:00	22700	38	-52.6		258	3	
2025-08-21T12:00	22750	38	-52.6		252	2	
2025-08-21T12:00	22800	37	-52.5		229	1	
2025-08-21T12:00	22850	37	-52.1		159	1	
2025-08-21T12:00	22900	37	-51.9		138	1	
2025-08-21T12:00	22950	36	-51.7		154	2	
2025-08-21T12:00	23000	36	-51.6		169	3	
2025-08-21T12:00	23050	36	-51.9		179	4	
2025-08-21T12:00	23100	36	-52.3		186	5	
2025-08-21T12:00	23150	35	-52.7		193	6	
2025-08-21T12:00	23200	35	-52.9		201	6	
2025-08-21T12:00	23250	35	-53.0		207	6	
2025-08-21T12:00	23300	35	-53.1		213	6	
2025-08-21T12:00	23350	34	-53.3		220	5	
2025-08-21T12:00	23400	34	-53.3		228	4	
2025-08-21T12:00	23450	34	-53.0		230	4	
2025-08-21T12:00	23500	33	-52.8		227	4	
2025-08-21T12:00	23550	33	-52.8		225	3	
2025-08-21T12:00	23600	33	-52.5		227	2	
2025-08-21T12:00	23650	33	-52.0		217	1	
2025-08-21T12:00	23700	32	-51.9		112	1	
2025-08-21T12:00	23750	32	-52.1		109	1	
2025-08-21T12:00	23800	32	-52.3		134	2	
2025-08-21T12:00	23850	32	-52.4		162	3	
2025-08-21T12:00	23900	31	-52.4		183	4	
2025-08-21T12:00	23950	31	-52.3		202	4	
2025-08-21T12:00	24000	31	-52.2		219	5	
2025-08-21T12:00	24050	31	-52.2		229	5	
2025-08-21T12:00	24100	30	-51.7		233	4	
2025-08-21T12:00	24150	30	-51.1		233	3	
2025-08-21T12:00	24200	30	-50.9		221	2	
2025-08-21T12:00	24250	30	-51.0		214	2	
2025-08-21T12:00	24300	30	-50.8		236	2	
2025-08-21T12:00	24350	29	-50.4		260	3	
2025-08-21T12:00	24400	29	-50.2		278	4	
2025-08-21T12:00	24450	29	-50.1		291	5	
2025-08-21T12:00	24500	29	-49.9		302	6	
2025-08-21T12:00	24550	28	-49.8		311	6	
2025-08-21T12:00	24600	28	-49.4		316	5	
2025-08-21T12:00	24650	28	-49.3		316	3	
2025-08-21T12:00	24700	28	-49.3		302	1	
2025-08-21T12:00	24750	28	-49.3		193	1	
2025-08-21T12:00	24800	27	-48.8		208	1	
2025-08-21T12:00	24850	27	-48.4		243	2	
2025-08-21T12:00	24900	27	-48.3		250	3	
2025-08-21T12:00	24950	27	-48.2		229	3	
2025-08-21T12:00	25000	27	-48.3		199	3	
2025-08-21T12:00	25050	26	-48.4		178	4	
2025-08-21T12:00	25100	26	-48.5		171	4	
2025-08-21T12:00	25150	26	-48.7		170	5	
2025-08-21T12:00	25200	26	-48.6		174	5	
2025-08-21T12:00	25250	26	-48.6		180	5	
2025-08-21T12:00	25300	25	-48.3		186	4	
2025-08-21T12:00	25350	25	-48.0		193	4	
2025-08-21T12:00	25400	25	-47.9		202	3	
2025-08-21T12:00	25450	25	-47.7		212	2	
2025-08-21T12:00	25500	25	-47.6		222	2	
2025-08-21T12:00	25550	24	-47.8		234	2	
2025-08-21T12:00	25600	24	-48.0		244	3	
2025-08-21T12:00	25650	24	-48.0		248	3	
2025-08-21T12:00	25700	24	-48.1		241	2	
2025-08-21T12:00	25750	24	-48.2		227	2	
2025-08-21T12:00	25800	24	-48.1		216	2	
2025-08-21T12:00	25850	23	-48.0		210	3	
2025-08-21T12:00	25900	23	-48.0		204	2	
2025-08-21T12:00	25950	23	-48.3		192	2	
2025-08-21T12:00	26000	23	-48.4		169	2	
2025-08-21T12:00	26050	23	-48.3		132	2	
2025-08-21T12:00	26100	22	-48.5		104	2	
2025-08-21T12:00	26150	22	-48.8		98	3	
2025-08-21T12:00	26200	22	-49.1		108	3	
2025-08-21T12:00	26250	22	-49.3		121	5	
2025-08-21T12:00	26300	22	-49.3		132	6	
2025-08-21T12:00	26350	22	-49.4		142	7	
2025-08-21T12:00	26400	21	-49.2		150	7	
2025-08-21T12:00	26450	21	-49.2		157	8	
2025-08-21T12:00	26500	21	-48.9		162	9	
2025-08-21T12:00	26550	21	-48.6		167	9	
2025-08-21T12:00	26600	21	-48.5		170	8	
2025-08-21T12:00	26650	21	-48.5		168	7	
2025-08-21T12:00	26700	21	-48.5		163	7	
2025-08-21T12:00	26750	20	-48.2		161	6	
2025-08-21T12:00	26800	20	-48.0		165	6	
2025-08-21T12:00	26850	20	-48.0		172	6	
2025-08-21T12:00	26900	20	-48.1		176	6	
2025-08-21T12:00	26950	20	-47.9		181	6	
2025-08-21T12:00	27000	20	-47.7		184	6	
2025-08-21T12:00	27050	19	-47.5		183	5	
2025-08-21T12:00	27100	19	-47.4		180	5	
2025-08-21T12:00	27150	19	-47.4		180	6	
2025-08-21T12:00	27200	19	-47.4		186	6	
2025-08-21T12:00	27250	19	-47.5		193	6	
2025-08-21T12:00	27300	19	-47.5		203	6	
2025-08-21T12:00	27350	19	-47.6		213	5	
2025-08-21T12:00	27400	18	-47.6		223	5	
2025-08-21T12:00	27450	18	-47.6		235	4	
2025-08-21T12:00	27500	18	-47.6		257	2	
2025-08-21T12:00	27550	18	-47.5		325	1	
2025-08-21T12:00	27600	18	-47.3		30	1	
2025-08-21T12:00	27650	18	-47.2		69	2	
2025-08-21T12:00	27700	18	-47.1		90	3	
2025-08-21T12:00	27750	17	-46.6		104	3	
2025-08-21T12:00	27800	17	-46.4		117	3	
2025-08-21T12:00	27850	17	-46.1		133	3	
2025-08-21T12:00	27900	17	-46.1		150	3	
2025-08-21T12:00	27950	17	-46.0		165	3	
2025-08-21T12:00	28000	17	-45.9		174	3	
2025-08-21T12:00	28050	17	-45.9		181	3	
2025-08-21T12:00	28100	17	-46.0		193	3	
2025-08-21T12:00	28150	16	-46.2		209	3	
2025-08-21T12:00	28200	16	-46.5		219	3	
2025-08-21T12:00	28250	16	-46.6		215	2	
2025-08-21T12:00	28300	16	-46.7		155	1	
2025-08-21T12:00	28350	16	-46.7		104	2	
2025-08-21T12:00	28400	16	-46.7		93	4	
2025-08-21T12:00	28450	16	-46.7		90	6	
2025-08-21T12:00	28500	16	-46.5		92	7	
2025-08-21T12:00	28550	16	-46.4		99	7	
2025-08-21T12:00	28600	15	-46.5		108	7	
2025-08-21T12:00	28650	15	-46.6		113	6	
2025-08-21T12:00	28700	15	-46.6		111	5	
2025-08-21T12:00	28750	15	-46.5		103	4	
2025-08-21T12:00	28800	15	-46.4		96	4	
2025-08-21T12:00	28850	15	-46.1		97	4	
2025-08-21T12:00	28900	15	-45.9		100	4	
2025-08-21T12:00	28950	15	-45.6		101	4	
2025-08-21T12:00	29000	14	-45.3		100	3	
2025-08-21T12:00	29050	14	-45.1		93	3	
2025-08-21T12:00	29100	14	-45.0		79	4	
2025-08-21T12:00	29150	14	-44.9		70	4	
2025-08-21T12:00	29200	14	-44.4		71	5	
2025-08-21T12:00	29250	14	-43.9		75	6	
2025-08-21T12:00	29300	14	-43.5		77	7	
2025-08-21T12:00	29350	14	-43.4		78	7	
2025-08-21T12:00	29400	14	-43.5		77	7	
2025-08-21T12:00	29450	14	-43.6		78	7	
2025-08-21T12:00	29500	13	-43.8		79	7	
2025-08-21T12:00	29550	13	-43.8		82	7	
2025-08-21T12:00	29600	13	-44.0		85	8	
2025-08-21T12:00	29650	13	-44.4		89	8	
2025-08-21T12:00	29700	13	-44.7		94	7	
2025-08-21T12:00	29750	13	-44.9		98	7	
2025-08-21T12:00	29800	13	-45.2		100	6	
2025-08-21T12:00	29850	13	-45.4		99	5	
2025-08-21T12:00	29900	13	-45.3		94	5	
2025-08-21T12:00	29950	13	-44.9		84	5	
2025-08-21T12:00	30000	12	-44.7		72	5	
2025-08-21T12:00	30050	12	-44.9		62	5	
2025-08-21T12:00	30100	12	-44.9		57	5	
2025-08-21T12:00	30150	12	-45.0		57	6	
2025-08-21T12:00	30200	12	-44.9		63	6	
2025-08-21T12:00	30250	12	-45.0		70	6	
2025-08-21T12:00	30300	12	-45.0		80	7	
2025-08-21T12:00	30350	12	-45.2		89	7	
2025-08-21T12:00	30400	12	-45.2		96	7	
2025-08-21T12:00	30450	12	-45.1		100	7	
2025-08-21T12:00	30500	12	-44.8		101	6	
2025-08-21T12:00	30550	12	-44.7		96	6	
2025-08-21T12:00	30600	11	-44.4		89	6	
2025-08-21T12:00	30650	11	-43.7		85	7	
2025-08-21T12:00	30700	11	-43.3		86	7	
2025-08-21T12:00	30750	11	-43.1		91	8	
2025-08-21T12:00	30800	11	-43.0		98	8	
2025-08-21T12:00	30850	11	-42.9		104	8	
2025-08-21T12:00	30900	11	-42.7		109	8	
2025-08-21T12:00	30950	11	-42.5		111	8	
2025-08-21T12:00	31000	11	-42.4		111	8	
2025-08-21T12:00	31050	11	-42.4		113	7	
2025-08-21T12:00	31100	11	-42.6		117	7	
2025-08-21T12:00	31150	11	-42.9		123	6	
2025-08-21T12:00	31200	10	-43.0		126	6	
2025-08-21T12:00	31250	10	-42.8		123	6	
2025-08-21T12:00	31300	10	-42.6		121	7	
2025-08-21T12:00	31350	10	-42.3		120	8	
2025-08-21T12:00	31400	10	-42.2		123	9	
2025-08-21T12:00	31450	10	-42.2		127	10	
2025-08-21T12:00	31500	10	-42.1		130	11	
2025-08-21T12:00	31550	10	-41.7		131	11	
2025-08-21T12:00	31600	10	-41.1		131	10	
2025-08-21T12:00	31650	10	-40.7		128	10	
2025-08-21T12:00	31700	10	-40.4		126	11	
2025-08-21T12:00	31750	10	-40.1		124	12	
2025-08-21T12:00	31800	10	-39.8		122	13	
2025-08-21T12:00	31850	9	-39.7		122	14	
2025-08-21T12:00	31900	9	-39.9		125	14	
2025-08-21T12:00	31950	9	-40.1		129	13	
2025-08-21T12:00	32000	9	-40.2		133	12	
2025-08-21T12:00	32050	9	-40.3		134	11	
2025-08-21T12:00	32100	9	-40.5		133	10	
2025-08-21T12:00	32150	9	-40.7		130	9	
2025-08-21T12:00	32200	9	-40.9		125	8	
2025-08-21T12:00	32250	9	-40.9		121	8	
2025-08-21T12:00	32300	9	-40.8		122	9	
2025-08-21T12:00	32350	9	-40.3		126	10	
2025-08-21T12:00	32400	9	-39.9		132	11	
2025-08-21T12:00	32450	9	-39.9		139	12	
2025-08-21T12:00	32500	9	-40.2		144	12	
2025-08-21T12:00	32550	9	-40.2		147	11	
2025-08-21T12:00	32600	8	-39.9		147	9	
2025-08-21T12:00	32650	8	-39.9		145	8	
2025-08-21T12:00	32700	8	-39.9		145	8	
2025-08-21T12:00	32750	8	-39.7		145	9	
2025-08-21T12:00	32800	8	-39.8		144	9	
2025-08-21T12:00	32850	8	-39.8		141	9	
2025-08-21T12:00	32900	8	-39.5		139	9	
2025-08-21T12:00	32950	8	-39.2		136	9	
2025-08-21T12:00	33000	8	-38.9		137	7	
2025-08-21T12:00	33050	8	-38.5		141	6	
2025-08-21T12:00	33100	8	-38.0		148	5	
2025-08-21T12:00	33150	8	-37.7		151	3	
2025-08-21T12:00	33200	8	-37.5		142	2	
2025-08-21T12:00	33250	8	-37.5		94	1	
2025-08-21T12:00	33300	8	-37.3		39	2	
2025-08-21T12:00	33350	8	-37.4		29	3	
2025-08-21T12:00	33400	8	-37.5		27	4	
2025-08-21T12:00	33450	8	-37.5		29	6	
2025-08-21T12:00	33500	7	-37.4		31	6	
2025-08-21T12:00	33550	7	-37.2		33	7	
2025-08-21T12:00	33600	7	-37.2		34	8	
2025-08-21T12:00	33650	7	-37.2		37	9	
2025-08-21T12:00	33700	7	-37.3		43	10	
2025-08-21T12:00	33750	7	-37.2		52	10	
2025-08-21T12:00	33800	7	-37.0		63	9	
2025-08-21T12:00	33850	7	-37.0		73	9	
2025-08-21T12:00	33900	7	-37.2		83	9	
2025-08-21T12:00	33950	7	-37.4		94	9	
2025-08-21T12:00	34000	7	-37.6		103	10	
2025-08-21T12:00	34050	7	-37.6		108	11	
2025-08-21T12:00	34100	7	-37.4		110	11	
2025-08-21T12:00	34150	7	-37.2		110	11	
2025-08-21T12:00	34200	7	-37.2		113	10	
2025-08-21T12:00	34250	7	-37.3		117	10	
2025-08-21T12:00	34300	7	-37.3		122	9	
2025-08-21T12:00	34350	7	-37.4		125	9	
2025-08-21T12:00	34400	7	-37.5		125	8	
2025-08-21T12:00	34450	6	-37.6		120	6	
2025-08-21T12:00	34500	6	-37.7		108	5	
2025-08-21T12:00	34550	6	-37.6		91	4	
2025-08-21T12:00	34600	6	-37.5		78	4	
2025-08-21T12:00	34650	6	-37.2		75	4	
2025-08-21T12:00	34700	6	-36.9		78	5	
2025-08-21T12:00	34750	6	-36.5		81	6	
2025-08-21T12:00	34800	6	-36.2		87	7	
2025-08-21T12:00	34850	6	-35.9		95	8	
2025-08-21T12:00	34900	6	-35.6		104	8	
2025-08-21T12:00	34950	6	-35.5		111	9	
2025-08-21T12:00	35000	6	-35.4		115	8	
2025-08-21T12:00	35050	6	-35.1		114	7	
2025-08-21T12:00	35100	6	-34.8		111	7	
2025-08-21T12:00	35150	6	-34.6		105	6	
2025-08-21T12:00	35200	6	-34.5		96	5	
2025-08-21T12:00	35250	6	-34.5		86	5	
2025-08-21T12:00	35300	6	-34.4		75	5	
2025-08-21T12:00	35350	6	-34.4		67	5	
2025-08-21T12:00	35400	6	-34.4		67	6	
2025-08-21T12:00	35450	6	-34.4		74	6	
2025-08-21T12:00	35500	6	-34.3		81	8	
2025-08-21T12:00	35550	6	-34.2		84	9	
2025-08-21T12:00	35600	6	-34.0		82	9	
2025-08-21T12:00	35650	5	-33.9		79	10	
2025-08-21T12:00	35700	5	-33.7		81	11	
2025-08-21T12:00	35750	5	-33.5		87	12	
2025-08-21T12:00	35800	5	-33.3		96	12	
2025-08-21T12:00	35850	5	-33.2		105	12	
2025-08-21T12:00	35900	5	-33.3		114	11	
2025-08-21T12:00	35950	5	-33.4		123	11	
2025-08-21T12:00	36000	5	-33.5		128	11	
2025-08-21T12:00	36050	5	-33.4		129	11	
2025-08-21T12:00	36100	5	-33.2		125	11	
2025-08-21T12:00	36150	5	-33.2		118	10	
2025-08-21T12:00	36200	5	-33.1		112	9	
2025-08-21T12:00	36250	5	-32.7		109	9	
2025-08-21T12:00	36300	5	-32.4		107	10	
2025-08-21T12:00	36350	5	-32.1		101	10	
2025-08-21T12:00	36400	5	-31.8		92	10	
2025-08-21T12:00	36450	5	-31.6		83	11	
2025-08-21T12:00	36500	5	-31.5		76	11	
2025-08-21T12:00	36550	5	-31.3		73	11	
2025-08-21T12:00	36600	5	-31.0		73	10	
2025-08-21T12:00	36650	5	-30.8		74	10	
2025-08-21T12:00	36700	5	-30.7		75	10	
2025-08-21T12:00	36750	5	-30.6		74	10	
2025-08-21T12:00	36800	5	-30.4		69	11	
2025-08-21T12:00	36850	5	-30.1		63	12	
2025-08-21T12:00	36900	5	-29.6		57	13	
2025-08-21T12:00	36950	5	-29.4		53	14	
2025-08-21T12:00	37000	5	-29.4		51	16	
2025-08-21T12:00	37050	4	-29.2		51	17	
2025-08-21T12:00	37100	4	-28.8		53	17	
2025-08-21T12:00	37150	4	-28.2		57	15	
2025-08-21T12:00	37200	4	-28.0		63	14	
2025-08-21T12:00	37250	4	-27.9		73	13	
2025-08-21T12:00	37300	4	-27.7		83	13	
2025-08-21T12:00	37350	4	-27.6		92	13	
2025-08-21T12:00	37400	4	-27.4		96	13	
2025-08-21T12:00	37450	4	-27.2		94	13	
2025-08-22T00:00	491	958	15.7	15.1	204	2	
2025-08-22T00:00	501	957	15.7	15.2	191	2	
2025-08-22T00:00	520	955	15.7	14.8	192	2	
2025-08-22T00:00	540	952	15.9	14.4	194	3	
2025-08-22T00:00	560	950	15.9	14.2	196	3	
2025-08-22T00:00	580	948	15.9	14.0	199	4	
2025-08-22T00:00	600	946	15.9	13.8	202	4	
2025-08-22T00:00	620	944	16.0	13.6	204	4	
2025-08-22T00:00	640	941	16.1	13.2	206	4	
2025-08-22T00:00	660	939	16.0	13.1	209	3	
2025-08-22T00:00	680	937	16.0	13.1	212	3	
2025-08-22T00:00	700	935	16.0	13.0	217	3	
2025-08-22T00:00	720	932	15.9	13.0	224	2	
2025-08-22T00:00	740	930	15.8	12.9	234	2	
2025-08-22T00:00	760	928	15.7	12.9	241	2	
2025-08-22T00:00	780	926	15.5	12.8	248	3	
2025-08-22T00:00	800	924	15.3	12.8	256	3	
2025-08-22T00:00	820	922	15.2	12.8	264	2	
2025-08-22T00:00	840	920	15.3	13.1	277	2	
2025-08-22T00:00	860	917	15.1	13.0	293	2	
2025-08-22T00:00	880	915	15.0	12.9	312	2	
2025-08-22T00:00	900	913	14.8	12.9	329	2	
2025-08-22T00:00	920	911	14.7	12.9	341	2	
2025-08-22T00:00	940	909	14.6	12.8	347	3	
2025-08-22T00:00	960	907	14.5	12.7	350	3	
2025-08-22T00:00	980	904	14.4	12.6	350	3	
2025-08-22T00:00	1000	902	14.3	12.5	350	3	
2025-08-22T00:00	1020	900	14.1	12.4	348	4	
2025-08-22T00:00	1040	898	13.9	12.3	347	4	
2025-08-22T00:00	1060	896	13.9	12.1	347	4	
2025-08-22T00:00	1080	894	13.7	12.1	346	4	
2025-08-22T00:00	1100	892	13.5	12.1	347	4	
2025-08-22T00:00	1120	890	13.4	12.0	348	4	
2025-08-22T00:00	1140	887	13.2	11.9	349	4	
2025-08-22T00:00	1160	885	13.0	11.9	350	4	
2025-08-22T00:00	1180	883	12.9	11.8	349	5	
2025-08-22T00:00	1200	881	12.7	11.7	348	6	
2025-08-22T00:00	1220	879	12.6	11.6	347	6	
2025-08-22T00:00	1240	877	12.4	11.5	347	6	
2025-08-22T00:00	1260	875	12.2	11.4	348	6	
2025-08-22T00:00	1280	873	12.0	11.4	352	6	
2025-08-22T00:00	1300	871	11.9	11.3	355	6	
2025-08-22T00:00	1320	869	11.7	11.2	358	7	
2025-08-22T00:00	1340	867	11.5	11.1	359	7	
2025-08-22T00:00	1360	865	11.4	11.1	359	7	
2025-08-22T00:00	1380	862	11.2	11.0	357	8	
2025-08-22T00:00	1400	860	11.1	11.0	357	8	
2025-08-22T00:00	1420	858	10.9	10.9	357	8	
2025-08-22T00:00	1440	856	10.8	10.6	357	7	
2025-08-22T00:00	1460	854	10.6	10.6	357	7	
2025-08-22T00:00	1480	852	10.4	10.4	358	7	
2025-08-22T00:00	1500	850	10.3	10.3	359	7	
2025-08-22T00:00	1520	848	10.2	10.2	1	7	
2025-08-22T00:00	1540	846	10.0	10.0	3	8	
2025-08-22T00:00	1560	844	9.9	9.9	5	8	
2025-08-22T00:00	1580	842	9.8	9.8	9	8	
2025-08-22T00:00	1600	840	9.6	9.6	14	8	
2025-08-22T00:00	1620	838	9.5	9.5	22	8	
2025-08-22T00:00	1640	836	9.3	9.2	27	8	
2025-08-22T00:00	1660	834	9.2	8.9	33	8	
2025-08-22T00:00	1680	832	9.1	8.8	35	8	
2025-08-22T00:00	1700	830	9.0	8.7	37	8	
2025-08-22T00:00	1720	828	8.9	8.3	37	8	
2025-08-22T00:00	1740	826	8.9	8.0	36	8	
2025-08-22T00:00	1760	824	9.0	7.9	37	7	
2025-08-22T00:00	1780	822	9.1	7.6	39	7	
2025-08-22T00:00	1800	820	9.0	7.3	44	7	
2025-08-22T00:00	1820	818	8.9	7.1	47	7	
2025-08-22T00:00	1840	816	8.8	7.1	50	7	
2025-08-22T00:00	1860	814	8.6	7.1	52	7	
2025-08-22T00:00	1880	812	8.5	7.1	51	7	
2025-08-22T00:00	1900	810	8.3	7.0	49	8	
2025-08-22T00:00	1920	808	8.1	7.0	46	8	
2025-08-22T00:00	1940	806	7.9	6.9	42	8	
2025-08-22T00:00	1960	804	7.8	6.9	39	8	
2025-08-22T00:00	1980	802	7.6	6.8	37	8	
2025-08-22T00:00	2000	800	7.4	6.9	35	8	
2025-08-22T00:00	2020	799	7.2	6.8	34	7	
2025-08-22T00:00	2040	797	7.1	6.7	34	7	
2025-08-22T00:00	2060	795	6.9	6.7	33	7	
2025-08-22T00:00	2080	793	6.8	6.6	33	7	
2025-08-22T00:00	2100	791	6.7	6.5	33	7	
2025-08-22T00:00	2120	789	6.5	6.5	32	7	
2025-08-22T00:00	2140	787	6.4	6.4	31	7	
2025-08-22T00:00	2160	785	6.4	6.2	30	8	
2025-08-22T00:00	2180	783	6.3	6.0	30	7	
2025-08-22T00:00	2200	781	6.4	5.7	30	7	
2025-08-22T00:00	2220	779	6.3	5.5	31	7	
2025-08-22T00:00	2240	777	6.2	5.5	32	7	
2025-08-22T00:00	2260	775	6.1	5.3	31	6	
2025-08-22T00:00	2280	774	5.9	5.1	29	6	
2025-08-22T00:00	2300	772	6.0	4.5	25	6	
2025-08-22T00:00	2320	770	5.9	4.3	19	6	
2025-08-22T00:00	2340	768	5.8	4.3	14	6	
2025-08-22T00:00	2360	766	5.7	4.1	11	6	
2025-08-22T00:00	2380	764	5.5	4.0	9	6	
2025-08-22T00:00	2400	762	5.4	3.9	9	7	
2025-08-22T00:00	2420	761	5.3	3.7	12	7	
2025-08-22T00:00	2440	759	5.1	3.7	14	7	
2025-08-22T00:00	2460	757	4.9	3.6	15	7	
2025-08-22T00:00	2480	755	4.7	3.5	15	7	
2025-08-22T00:00	2500	753	4.7	3.0	13	6	
2025-08-22T00:00	2520	751	4.6	3.0	10	6	
2025-08-22T00:00	2540	749	4.4	2.9	6	6	
2025-08-22T00:00	2560	748	4.2	2.8	3	6	
2025-08-22T00:00	2580	746	4.1	2.7	3	6	
2025-08-22T00:00	2600	744	4.0	2.3	3	6	
2025-08-22T00:00	2620	742	3.9	2.2	4	6	
2025-08-22T00:00	2640	740	3.8	1.8	4	6	
2025-08-22T00:00	2660	739	3.7	1.7	4	6	
2025-08-22T00:00	2680	737	3.5	1.7	3	5	
2025-08-22T00:00	2700	735	3.3	1.5	2	5	
2025-08-22T00:00	2720	733	3.2	1.2	2	5	
2025-08-22T00:00	2740	731	3.2	0.8	1	5	
2025-08-22T00:00	2760	729	3.2	0.6	0	6	
2025-08-22T00:00	2780	728	3.0	0.7	359	6	
2025-08-22T00:00	2800	726	2.8	0.6	356	7	
2025-08-22T00:00	2820	724	2.6	0.5	353	7	
2025-08-22T00:00	2840	722	2.5	0.5	350	7	
2025-08-22T00:00	2860	720	2.3	0.3	349	7	
2025-08-22T00:00	2880	719	2.2	0.2	348	8	
2025-08-22T00:00	2900	717	2.0	0.1	348	8	
2025-08-22T00:00	2920	715	1.9	0.2	349	7	
2025-08-22T00:00	2940	714	1.8	-0.1	350	7	
2025-08-22T00:00	2960	712	1.7	-0.3	351	6	
2025-08-22T00:00	2980	710	1.5	-0.3	353	6	
2025-08-22T00:00	3000	708	1.4	-0.5	356	5	
2025-08-22T00:00	3020	707	1.2	-0.5	360	5	
2025-08-22T00:00	3040	705	1.1	-0.6	2	5	
2025-08-22T00:00	3060	703	1.0	-0.7	4	5	
2025-08-22T00:00	3080	701	0.8	-0.9	5	5	
2025-08-22T00:00	3100	700	0.7	-1.0	5	5	
2025-08-22T00:00	3120	698	0.5	-0.9	4	5	
2025-08-22T00:00	3140	696	0.4	-1.0	4	4	
2025-08-22T00:00	3160	694	0.3	-1.0	4	4	
2025-08-22T00:00	3180	693	0.2	-0.9	5	3	
2025-08-22T00:00	3200	691	0.0	-0.9	7	3	
2025-08-22T00:00	3220	689	-0.1	-1.1	12	2	
2025-08-22T00:00	3240	688	-0.1	-1.3	20	2	
2025-08-22T00:00	3260	686	-0.3	-1.5	31	2	
2025-08-22T00:00	3280	684	-0.4	-1.7	43	2	
2025-08-22T00:00	3300	682	-0.5	-1.7	51	2	
2025-08-22T00:00	3320	680	-0.6	-1.6	52	2	
2025-08-22T00:00	3340	679	-0.7	-2.0	50	3	
2025-08-22T00:00	3360	677	-0.4	-2.5	46	4	
2025-08-22T00:00	3380	675	0.0	-3.5	43	4	
2025-08-22T00:00	3400	674	0.1	-4.9	40	5	
2025-08-22T00:00	3420	672	0.1	-5.7	39	6	
2025-08-22T00:00	3440	670	0.0	-5.8	37	6	
2025-08-22T00:00	3460	669	-0.1	-5.2	35	6	
2025-08-22T00:00	3480	667	-0.1	-5.8	30	7	
2025-08-22T00:00	3500	665	-0.1	-7.9	24	7	
2025-08-22T00:00	3520	664	-0.2	-8.6	18	7	
2025-08-22T00:00	3540	662	-0.3	-9.0	14	7	
2025-08-22T00:00	3560	660	-0.5	-9.2	10	6	
2025-08-22T00:00	3580	659	-0.6	-9.4	7	6	
2025-08-22T00:00	3600	657	-0.6	-9.1	6	6	
2025-08-22T00:00	3620	656	-0.6	-9.1	6	6	
2025-08-22T00:00	3640	654	-0.8	-9.2	6	7	
2025-08-22T00:00	3660	652	-0.9	-9.3	5	7	
2025-08-22T00:00	3680	651	-1.1	-9.6	3	7	
2025-08-22T00:00	3700	649	-1.0	-9.9	1	7	
2025-08-22T00:00	3720	647	-1.2	-10.1	359	8	
2025-08-22T00:00	3740	646	-1.3	-10.2	357	8	
2025-08-22T00:00	3760	644	-1.5	-10.4	357	9	
2025-08-22T00:00	3780	643	-1.6	-10.7	357	9	
2025-08-22T00:00	3800	641	-1.8	-11.1	358	9	
2025-08-22T00:00	3820	639	-1.9	-11.6	360	9	
2025-08-22T00:00	3840	638	-2.0	-12.6	1	9	
2025-08-22T00:00	3860	636	-2.0	-15.6	3	9	
2025-08-22T00:00	3880	635	-1.9	-19.5	4	9	
2025-08-22T00:00	3900	633	-1.8	-20.1	5	9	
2025-08-22T00:00	3920	631	-1.9	-18.7	6	9	
2025-08-22T00:00	3940	630	-2.0	-18.2	6	9	
2025-08-22T00:00	3960	628	-2.2	-17.4	7	9	
2025-08-22T00:00	3980	626	-2.3	-16.7	7	9	
2025-08-22T00:00	4000	625	-2.5	-16.9	7	10	
2025-08-22T00:00	4020	623	-2.7	-17.0	7	10	
2025-08-22T00:00	4040	622	-2.9	-17.1	8	10	
2025-08-22T00:00	4060	620	-3.1	-17.2	9	10	
2025-08-22T00:00	4080	619	-3.2	-18.3	10	10	
2025-08-22T00:00	4100	617	-3.4	-19.8	11	10	
2025-08-22T00:00	4120	616	-3.5	-20.4	13	10	
2025-08-22T00:00	4140	614	-3.6	-20.4	13	9	
2025-08-22T00:00	4160	612	-3.7	-20.3	12	8	
2025-08-22T00:00	4180	611	-3.9	-20.2	11	8	
2025-08-22T00:00	4200	609	-4.1	-20.0	10	8	
2025-08-22T00:00	4220	608	-4.2	-19.6	8	8	
2025-08-22T00:00	4240	606	-4.4	-19.1	6	8	
2025-08-22T00:00	4260	605	-4.5	-18.6	3	9	
2025-08-22T00:00	4280	603	-4.7	-18.5	1	9	
2025-08-22T00:00	4300	602	-4.8	-18.5	359	9	
2025-08-22T00:00	4320	600	-4.9	-18.3	358	9	
2025-08-22T00:00	4340	599	-5.0	-18.3	357	9	
2025-08-22T00:00	4360	597	-5.0	-18.2	358	9	
2025-08-22T00:00	4380	596	-5.0	-18.6	359	10	
2025-08-22T00:00	4400	594	-5.1	-18.8	1	10	
2025-08-22T00:00	4420	593	-5.2	-18.9	4	10	
2025-08-22T00:00	4440	591	-5.3	-19.1	7	10	
2025-08-22T00:00	4460	590	-5.3	-19.4	10	10	
2025-08-22T00:00	4480	588	-5.3	-20.6	11	9	
2025-08-22T00:00	4500	586	-5.2	-21.2	11	9	
2025-08-22T00:00	4520	585	-5.4	-21.3	11	9	
2025-08-22T00:00	4540	584	-5.6	-21.3	10	9	
2025-08-22T00:00	4560	582	-5.8	-21.3	10	8	
2025-08-22T00:00	4580	581	-6.0	-21.6	10	8	
2025-08-22T00:00	4600	579	-6.1	-22.0	11	8	
2025-08-22T00:00	4620	578	-6.2	-22.3	13	8	
2025-08-22T00:00	4640	576	-6.3	-22.4	15	8	
2025-08-22T00:00	4660	575	-6.4	-22.7	16	8	
2025-08-22T00:00	4680	573	-6.5	-23.0	16	9	
2025-08-22T00:00	4700	572	-6.6	-23.3	15	9	
2025-08-22T00:00	4720	570	-6.8	-23.5	13	10	
2025-08-22T00:00	4740	569	-6.9	-23.6	11	11	
2025-08-22T00:00	4760	567	-6.9	-23.0	9	11	
2025-08-22T00:00	4780	566	-7.0	-21.4	8	12	
2025-08-22T00:00	4800	564	-7.1	-20.3	8	12	
2025-08-22T00:00	4820	563	-7.2	-19.3	9	12	
2025-08-22T00:00	4840	562	-7.3	-18.6	10	12	
2025-08-22T00:00	4860	560	-7.4	-20.3	11	12	
2025-08-22T00:00	4880	559	-7.5	-20.6	12	11	
2025-08-22T00:00	4900	557	-7.7	-21.1	15	11	
2025-08-22T00:00	4920	556	-7.8	-21.9	16	11	
2025-08-22T00:00	4940	555	-8.0	-21.0	17	10	
2025-08-22T00:00	4960	553	-8.2	-19.5	18	10	
2025-08-22T00:00	4980	551	-8.3	-20.0	17	10	
2025-08-22T00:00	5000	550	-8.4	-21.0	15	10	
2025-08-22T00:00	5020	549	-8.5	-22.1	13	10	
2025-08-22T00:00	5040	547	-8.6	-23.1	11	10	
2025-08-22T00:00	5060	546	-8.7	-24.1	9	10	
2025-08-22T00:00	5080	544	-8.9	-24.4	9	10	
2025-08-22T00:00	5100	543	-9.0	-24.4	8	10	
2025-08-22T00:00	5120	542	-9.2	-24.4	9	10	
2025-08-22T00:00	5140	540	-9.3	-24.1	11	10	
2025-08-22T00:00	5160	539	-9.5	-24.3	13	11	
2025-08-22T00:00	5180	537	-9.7	-24.2	15	11	
2025-08-22T00:00	5200	536	-9.8	-23.8	17	11	
2025-08-22T00:00	5220	535	-10.0	-23.5	18	11	
2025-08-22T00:00	5240	533	-10.1	-23.7	19	11	
2025-08-22T00:00	5260	532	-10.2	-24.0	18	10	
2025-08-22T00:00	5280	531	-10.3	-24.1	18	10	
2025-08-22T00:00	5300	529	-10.5	-24.5	18	10	
2025-08-22T00:00	5320	528	-10.6	-25.0	18	10	
2025-08-22T00:00	5340	526	-10.7	-25.5	18	11	
2025-08-22T00:00	5360	525	-10.9	-26.9	19	11	
2025-08-22T00:00	5380	524	-11.0	-27.2	19	11	
2025-08-22T00:00	5400	522	-11.1	-27.0	20	11	
2025-08-22T00:00	5420	521	-11.3	-26.5	20	11	
2025-08-22T00:00	5440	519	-11.5	-25.4	21	11	
2025-08-22T00:00	5460	518	-11.6	-25.9	21	11	
2025-08-22T00:00	5480	517	-11.6	-29.5	21	11	
2025-08-22T00:00	5500	515	-11.8	-28.3	20	11	
2025-08-22T00:00	5520	514	-11.9	-27.6	20	11	
2025-08-22T00:00	5540	513	-12.1	-27.0	19	11	
2025-08-22T00:00	5560	511	-12.3	-27.0	19	11	
2025-08-22T00:00	5580	510	-12.4	-27.0	18	11	
2025-08-22T00:00	5600	509	-12.6	-27.1	18	11	
2025-08-22T00:00	5620	507	-12.8	-27.2	18	11	
2025-08-22T00:00	5640	506	-12.8	-27.5	19	11	
2025-08-22T00:00	5660	505	-12.9	-28.0	19	11	
2025-08-22T00:00	5680	503	-13.0	-28.6	21	11	
2025-08-22T00:00	5700	502	-13.2	-28.8	22	12	
2025-08-22T00:00	5720	501	-13.4	-28.9	23	12	
2025-08-22T00:00	5740	500	-13.5	-28.9	23	12	
2025-08-22T00:00	5760	498	-13.7	-29.0	24	12	
2025-08-22T00:00	5780	497	-13.9	-29.1	24	12	
2025-08-22T00:00	5800	496	-14.0	-29.3	25	12	
2025-08-22T00:00	5820	494	-14.2	-29.3	24	12	
2025-08-22T00:00	5840	493	-14.3	-29.5	24	12	
2025-08-22T00:00	5860	492	-14.5	-29.7	24	12	
2025-08-22T00:00	5880	490	-14.7	-29.9	24	12	
2025-08-22T00:00	5900	489	-14.9	-30.0	24	12	
2025-08-22T00:00	5920	488	-15.0	-30.1	24	12	
2025-08-22T00:00	5940	487	-15.2	-30.1	24	12	
2025-08-22T00:00	5960	485	-15.3	-30.2	24	12	
2025-08-22T00:00	5980	484	-15.5	-30.6	23	12	
2025-08-22T00:00	6000	483	-15.5	-31.0	23	12	
2025-08-22T00:00	6020	481	-15.6	-31.0	22	11	
2025-08-22T00:00	6040	480	-15.7	-31.0	21	12	
2025-08-22T00:00	6060	479	-15.8	-31.2	20	12	
2025-08-22T00:00	6080	478	-15.9	-31.8	18	12	
2025-08-22T00:00	6100	476	-16.1	-32.0	17	12	
2025-08-22T00:00	6120	475	-16.3	-32.2	16	12	
2025-08-22T00:00	6140	474	-16.4	-32.4	14	12	
2025-08-22T00:00	6160	473	-16.6	-32.1	13	12	
2025-08-22T00:00	6180	471	-16.8	-32.0	11	12	
2025-08-22T00:00	6200	470	-16.9	-32.4	10	12	
2025-08-22T00:00	6220	469	-16.9	-32.9	8	11	
2025-08-22T00:00	6240	468	-17.0	-34.0	8	11	
2025-08-22T00:00	6260	466	-17.1	-34.5	8	11	
2025-08-22T00:00	6280	465	-17.2	-34.3	9	11	
2025-08-22T00:00	6300	464	-17.2	-33.8	11	11	
2025-08-22T00:00	6320	462	-17.3	-34.2	11	11	
2025-08-22T00:00	6340	461	-17.4	-34.4	11	11	
2025-08-22T00:00	6360	460	-17.6	-35.0	11	11	
2025-08-22T00:00	6380	459	-17.7	-35.6	10	11	
2025-08-22T00:00	6400	458	-17.7	-36.4	8	11	
2025-08-22T00:00	6420	456	-17.8	-36.8	6	11	
2025-08-22T00:00	6440	455	-17.8	-36.4	4	11	
2025-08-22T00:00	6460	454	-18.0	-36.5	2	11	
2025-08-22T00:00	6480	453	-18.1	-36.7	0	11	
2025-08-22T00:00	6500	452	-18.3	-36.9	359	11	
2025-08-22T00:00	6520	450	-18.5	-37.0	359	11	
2025-08-22T00:00	6540	449	-18.7	-37.1	358	11	
2025-08-22T00:00	6560	448	-18.9	-37.1	357	11	
2025-08-22T00:00	6580	447	-19.1	-37.2	355	11	
2025-08-22T00:00	6600	445	-19.3	-37.3	354	11	
2025-08-22T00:00	6620	444	-19.5	-37.5	353	11	
2025-08-22T00:00	6640	443	-19.6	-37.7	352	11	
2025-08-22T00:00	6660	442	-19.8	-37.7	351	11	
2025-08-22T00:00	6680	441	-19.9	-37.9	350	11	
2025-08-22T00:00	6700	440	-20.0	-38.1	351	10	
2025-08-22T00:00	6720	438	-20.2	-38.3	351	10	
2025-08-22T00:00	6740	437	-20.3	-38.4	352	10	
2025-08-22T00:00	6760	436	-20.4	-38.2	353	9	
2025-08-22T00:00	6780	435	-20.6	-38.4	354	9	
2025-08-22T00:00	6800	434	-20.8	-38.3	355	9	
2025-08-22T00:00	6820	433	-20.9	-38.3	356	8	
2025-08-22T00:00	6840	431	-21.0	-38.3	357	8	
2025-08-22T00:00	6860	430	-21.2	-38.5	358	8	
2025-08-22T00:00	6880	429	-21.2	-39.0	359	8	
2025-08-22T00:00	6900	428	-21.4	-39.3	0	8	
2025-08-22T00:00	6920	427	-21.5	-39.4	1	8	
2025-08-22T00:00	6940	426	-21.7	-39.3	1	8	
2025-08-22T00:00	6960	424	-21.9	-39.4	2	8	
2025-08-22T00:00	6980	423	-22.0	-40.6	3	8	
2025-08-22T00:00	7000	422	-22.1	-42.3	3	7	
2025-08-22T00:00	7020	421	-22.1	-44.1	4	7	
2025-08-22T00:00	7040	420	-22.1	-45.8	4	7	
2025-08-22T00:00	7060	419	-22.0	-49.6	4	6	
2025-08-22T00:00	7080	417	-21.8	-50.8	4	6	
2025-08-22T00:00	7100	416	-21.9	-51.0	1	5	
2025-08-22T00:00	7120	415	-22.0	-51.3	358	5	
2025-08-22T00:00	7140	414	-22.1	-51.5	353	5	
2025-08-22T00:00	7160	413	-22.2	-51.9	350	5	
2025-08-22T00:00	7180	412	-22.3	-50.9	347	5	
2025-08-22T00:00	7200	411	-22.4	-50.3	344	6	
2025-08-22T00:00	7220	410	-22.6	-50.8	343	6	
2025-08-22T00:00	7240	409	-22.7	-51.8	343	6	
2025-08-22T00:00	7260	407	-22.9	-52.1	344	6	
2025-08-22T00:00	7280	406	-23.1	-52.2	345	7	
2025-08-22T00:00	7300	405	-23.2	-52.4	347	7	
2025-08-22T00:00	7320	404	-23.4	-52.6	350	7	
2025-08-22T00:00	7340	403	-23.6	-52.5	354	7	
2025-08-22T00:00	7360	402	-23.8	-52.6	357	7	
2025-08-22T00:00	7380	401	-24.0	-52.6	359	7	
2025-08-22T00:00	7400	400	-24.2	-52.8	1	7	
2025-08-22T00:00	7420	398	-24.4	-53.1	2	8	
2025-08-22T00:00	7440	397	-24.6	-53.1	3	8	
2025-08-22T00:00	7460	396	-24.8	-53.3	3	8	
2025-08-22T00:00	7480	395	-25.0	-53.4	3	8	
2025-08-22T00:00	7500	394	-25.2	-53.5	3	8	
2025-08-22T00:00	7520	393	-25.3	-53.6	3	8	
2025-08-22T00:00	7540	392	-25.5	-53.6	4	8	
2025-08-22T00:00	7560	391	-25.8	-53.7	3	9	
2025-08-22T00:00	7580	390	-26.0	-53.8	3	9	
2025-08-22T00:00	7600	389	-26.2	-53.9	2	9	
2025-08-22T00:00	7620	388	-26.3	-54.0	0	9	
2025-08-22T00:00	7640	387	-26.4	-54.1	359	9	
2025-08-22T00:00	7660	386	-26.6	-54.2	357	9	
2025-08-22T00:00	7680	385	-26.8	-54.3	355	9	
2025-08-22T00:00	7700	383	-27.0	-54.4	352	9	
2025-08-22T00:00	7720	382	-27.1	-54.8	350	9	
2025-08-22T00:00	7740	381	-27.3	-55.1	348	9	
2025-08-22T00:00	7760	380	-27.4	-55.3	346	9	
2025-08-22T00:00	7780	379	-27.5	-55.7	343	9	
2025-08-22T00:00	7800	378	-27.6	-56.1	341	9	
2025-08-22T00:00	7820	377	-27.7	-56.0	339	9	
2025-08-22T00:00	7840	376	-27.9	-56.1	337	8	
2025-08-22T00:00	7860	375	-28.1	-55.9	335	8	
2025-08-22T00:00	7880	374	-28.2	-55.5	334	9	
2025-08-22T00:00	7900	373	-28.4	-55.1	334	9	
2025-08-22T00:00	7920	372	-28.5	-54.3	334	9	
2025-08-22T00:00	7940	371	-28.6	-54.0	335	9	
2025-08-22T00:00	7960	370	-28.8	-54.0	335	9	
2025-08-22T00:00	7980	369	-29.0	-54.1	336	9	
2025-08-22T00:00	8000	368	-29.1	-53.4	337	8	
2025-08-22T00:00	8020	367	-29.3	-52.8	338	8	
2025-08-22T00:00	8040	366	-29.5	-52.0	338	8	
2025-08-22T00:00	8060	365	-29.7	-50.8	338	8	
2025-08-22T00:00	8080	364	-29.8	-50.3	338	7	
2025-08-22T00:00	8100	363	-30.0	-50.4	338	7	
2025-08-22T00:00	8120	362	-30.2	-50.6	339	7	
2025-08-22T00:00	8140	361	-30.3	-50.4	340	7	
2025-08-22T00:00	8160	360	-30.5	-50.6	341	7	
2025-08-22T00:00	8180	359	-30.7	-50.6	342	7	
2025-08-22T00:00	8200	358	-30.9	-50.7	344	7	
2025-08-22T00:00	8220	357	-31.0	-50.8	345	7	
2025-08-22T00:00	8240	356	-31.2	-51.0	346	7	
2025-08-22T00:00	8260	355	-31.4	-51.1	347	7	
2025-08-22T00:00	8280	353	-31.6	-51.1	347	7	
2025-08-22T00:00	8300	353	-31.7	-51.1	348	7	
2025-08-22T00:00	8320	352	-31.9	-51.2	348	7	
2025-08-22T00:00	8340	351	-32.1	-51.3	348	7	
2025-08-22T00:00	8360	350	-32.3	-51.3	348	7	
2025-08-22T00:00	8380	349	-32.5	-51.3	348	7	
2025-08-22T00:00	8400	348	-32.7	-51.4	348	7	
2025-08-22T00:00	8420	347	-32.8	-51.5	347	7	
2025-08-22T00:00	8440	346	-33.0	-51.6	347	7	
2025-08-22T00:00	8460	345	-33.1	-51.9	346	8	
2025-08-22T00:00	8480	344	-33.3	-52.1	346	8	
2025-08-22T00:00	8500	343	-33.4	-52.4	345	7	
2025-08-22T00:00	8520	342	-33.6	-52.9	344	7	
2025-08-22T00:00	8540	341	-33.7	-53.1	343	7	
2025-08-22T00:00	8560	340	-33.9	-53.3	341	7	
2025-08-22T00:00	8580	339	-34.1	-53.5	340	7	
2025-08-22T00:00	8600	338	-34.3	-53.8	339	7	
2025-08-22T00:00	8620	337	-34.5	-54.2	337	7	
2025-08-22T00:00	8640	336	-34.6	-54.3	337	6	
2025-08-22T00:00	8660	335	-34.8	-54.9	336	6	
2025-08-22T00:00	8680	334	-34.9	-55.3	336	7	
2025-08-22T00:00	8700	333	-35.1	-55.1	336	7	
2025-08-22T00:00	8720	332	-35.3	-54.9	334	7	
2025-08-22T00:00	8740	331	-35.4	-55.0	333	7	
2025-08-22T00:00	8760	330	-35.6	-55.7	330	7	
2025-08-22T00:00	8780	329	-35.7	-55.9	327	7	
2025-08-22T00:00	8800	328	-35.9	-55.8	324	7	
2025-08-22T00:00	8820	327	-36.1	-55.9	321	7	
2025-08-22T00:00	8840	326	-36.3	-54.7	319	7	
2025-08-22T00:00	8860	325	-36.5	-52.9	318	7	
2025-08-22T00:00	8880	325	-36.6	-51.5	318	6	
2025-08-22T00:00	8900	324	-36.8	-48.7	318	6	
2025-08-22T00:00	8920	323	-37.0	-48.9	320	7	
2025-08-22T00:00	8940	322	-37.2	-48.2	322	7	
2025-08-22T00:00	8960	321	-37.4	-48.6	323	7	
2025-08-22T00:00	8980	320	-37.6	-49.5	324	7	
2025-08-22T00:00	9000	319	-37.7	-50.0	324	7	
2025-08-22T00:00	9020	318	-37.9	-50.3	324	7	
2025-08-22T00:00	9040	317	-38.1	-50.6	324	7	
2025-08-22T00:00	9060	316	-38.3	-50.8	323	7	
2025-08-22T00:00	9080	315	-38.4	-49.9	323	7	
2025-08-22T00:00	9100	314	-38.6	-48.1	322	7	
2025-08-22T00:00	9120	313	-38.8	-48.3	322	7	
2025-08-22T00:00	9140	312	-39.0	-48.6	321	7	
2025-08-22T00:00	9160	312	-39.2	-48.8	320	7	
2025-08-22T00:00	9180	311	-39.3	-49.1	318	7	
2025-08-22T00:00	9200	310	-39.5	-49.1	317	7	
2025-08-22T00:00	9220	309	-39.7	-49.2	316	7	
2025-08-22T00:00	9240	308	-39.9	-49.4	315	7	
2025-08-22T00:00	9260	307	-40.1	-49.4	314	7	
2025-08-22T00:00	9280	306	-40.2	-49.4	312	7	
2025-08-22T00:00	9300	305	-40.4	-49.4	311	7	
2025-08-22T00:00	9320	304	-40.6	-49.4	310	7	
2025-08-22T00:00	9340	303	-40.8	-49.6	309	8	
2025-08-22T00:00	9360	303	-40.9	-49.9	307	8	
2025-08-22T00:00	9380	302	-41.2	-49.9	306	8	
2025-08-22T00:00	9400	301	-41.3	-50.2	305	8	
2025-08-22T00:00	9420	300	-41.4	-50.7	304	8	
2025-08-22T00:00	9440	299	-41.6	-50.8	303	8	
2025-08-22T00:00	9460	298	-41.8	-50.9	302	8	
2025-08-22T00:00	9480	297	-42.0	-51.4	301	8	
2025-08-22T00:00	9500	296	-42.1	-51.8	301	9	
2025-08-22T00:00	9520	295	-42.2	-52.2	301	9	
2025-08-22T00:00	9540	295	-42.4	-52.3	302	9	
2025-08-22T00:00	9560	294	-42.5	-52.2	303	9	
2025-08-22T00:00	9580	293	-42.7	-52.0	305	9	
2025-08-22T00:00	9600	292	-42.8	-51.9	306	9	
2025-08-22T00:00	9620	291	-43.0	-51.5	307	9	
2025-08-22T00:00	9640	290	-43.1	-51.3	308	9	
2025-08-22T00:00	9660	289	-43.3	-50.9	309	9	
2025-08-22T00:00	9680	289	-43.5	-51.0	310	9	
2025-08-22T00:00	9700	288	-43.6	-51.3	312	9	
2025-08-22T00:00	9720	287	-43.8	-51.4	316	9	
2025-08-22T00:00	9740	286	-43.9	-51.4	318	9	
2025-08-22T00:00	9760	285	-44.0	-51.6	320	9	
2025-08-22T00:00	9780	284	-44.1	-51.8	321	9	
2025-08-22T00:00	9800	283	-44.3	-51.6	322	9	
2025-08-22T00:00	9820	283	-44.4	-51.5	322	9	
2025-08-22T00:00	9840	282	-44.6	-52.0	321	9	
2025-08-22T00:00	9860	281	-44.7	-52.9	321	9	
2025-08-22T00:00	9880	280	-44.9	-53.0	320	9	
2025-08-22T00:00	9900	279	-45.0	-52.6	319	9	
2025-08-22T00:00	9920	278	-45.2	-52.3	319	9	
2025-08-22T00:00	9940	278	-45.4	-52.3	318	9	
2025-08-22T00:00	9960	277	-45.6	-52.5	318	10	
2025-08-22T00:00	9980	276	-45.7	-52.5	318	10	
2025-08-22T00:00	10000	275	-45.9	-52.7	320	10	
2025-08-22T00:00	10018	274	-46.1	-53.0	321	10	
2025-08-22T00:00	10050	273	-46.3	-53.8	322	10	
2025-08-22T00:00	10100	271	-46.7	-54.5	321	11	
2025-08-22T00:00	10150	269	-47.2	-54.3	317	12	
2025-08-22T00:00	10200	267	-47.6	-55.0	313	12	
2025-08-22T00:00	10250	265	-48.0	-57.3	312	12	
2025-08-22T00:00	10300	263	-48.4	-57.9	312	11	
2025-08-22T00:00	10350	261	-48.8	-58.1	312	11	
2025-08-22T00:00	10400	259	-49.3	-56.0	314	11	
2025-08-22T00:00	10450	257	-49.8	-54.2	316	11	
2025-08-22T00:00	10500	255	-50.2	-54.7	318	11	
2025-08-22T00:00	10550	253	-50.5	-56.3	320	11	
2025-08-22T00:00	10600	251	-50.8	-57.3	322	12	
2025-08-22T00:00	10650	249	-51.3	-57.1	323	12	
2025-08-22T00:00	10700	247	-51.8	-57.0	323	11	
2025-08-22T00:00	10750	245	-52.2	-57.2	323	11	
2025-08-22T00:00	10800	243	-52.7	-57.6	323	11	
2025-08-22T00:00	10850	242	-53.1	-57.5	322	11	
2025-08-22T00:00	10900	240	-53.6	-57.5	321	11	
2025-08-22T00:00	10950	238	-54.0	-58.0	322	11	
2025-08-22T00:00	11000	236	-54.4	-58.3	323	12	
2025-08-22T00:00	11050	234	-54.8	-58.7	323	13	
2025-08-22T00:00	11100	232	-55.3	-59.1	320	14	
2025-08-22T00:00	11150	231	-55.7	-59.3	316	13	
2025-08-22T00:00	11200	229	-56.0	-59.8	312	13	
2025-08-22T00:00	11250	227	-56.3	-60.5	311	13	
2025-08-22T00:00	11300	225	-56.5	-61.0	312	13	
2025-08-22T00:00	11350	223	-56.8	-61.6	314	13	
2025-08-22T00:00	11400	222	-57.1	-62.6	316	13	
2025-08-22T00:00	11450	220	-57.5	-63.0	320	13	
2025-08-22T00:00	11500	218	-57.7	-63.6	326	12	
2025-08-22T00:00	11550	216	-57.7	-64.4	330	12	
2025-08-22T00:00	11600	215	-58.0	-64.2	330	11	
2025-08-22T00:00	11650	213	-58.4	-63.9	330	10	
2025-08-22T00:00	11700	211	-58.6	-64.0	331	10	
2025-08-22T00:00	11750	210	-58.8	-64.7	334	10	
2025-08-22T00:00	11800	208	-58.6	-67.5	336	10	
2025-08-22T00:00	11850	206	-58.7	-68.6	335	9	
2025-08-22T00:00	11900	205	-58.7	-68.3	335	10	
2025-08-22T00:00	11950	203	-58.5	-68.6	335	10	
2025-08-22T00:00	12000	201	-58.7	-69.7	333	10	
2025-08-22T00:00	12050	200	-58.6	-70.2	333	10	
2025-08-22T00:00	12100	198	-58.3	-71.2	334	12	
2025-08-22T00:00	12150	197	-57.5	-71.2	331	13	
2025-08-22T00:00	12200	195	-57.0	-72.4	328	14	
2025-08-22T00:00	12250	194	-56.9	-73.5	325	15	
2025-08-22T00:00	12300	192	-56.7	-73.7	324	16	
2025-08-22T00:00	12350	191	-56.0	-75.2	323	15	
2025-08-22T00:00	12400	189	-55.3	-75.3	321	15	
2025-08-22T00:00	12450	188	-54.8	-76.2	322	14	
2025-08-22T00:00	12500	186	-54.2	-77.6	323	14	
2025-08-22T00:00	12550	185	-53.8	-78.0	324	14	
2025-08-22T00:00	12600	183	-53.8	-77.9	322	13	
2025-08-22T00:00	12650	182	-53.7	-78.5	318	13	
2025-08-22T00:00	12700	180	-53.6	-79.0	313	13	
2025-08-22T00:00	12750	179	-53.0	-79.4	310	14	
2025-08-22T00:00	12800	178	-53.0	-79.4	309	15	
2025-08-22T00:00	12850	176	-52.5	-79.0	311	16	
2025-08-22T00:00	12900	175	-51.6	-79.6	312	15	
2025-08-22T00:00	12950	174	-51.2	-80.1	313	13	
2025-08-22T00:00	13000	172	-50.8	-80.4	312	11	
2025-08-22T00:00	13050	171	-50.9	-80.3	312	9	
2025-08-22T00:00	13100	170	-51.1	-80.3	313	8	
2025-08-22T00:00	13150	168	-51.3	-80.5	311	7	
2025-08-22T00:00	13200	167	-51.6	-80.5	305	7	
2025-08-22T00:00	13250	166	-51.9	-80.5	297	7	
2025-08-22T00:00	13300	164	-52.3	-80.6	291	7	
2025-08-22T00:00	13350	163	-52.3	-80.8	288	7	
2025-08-22T00:00	13400	162	-51.9	-80.5	287	7	
2025-08-22T00:00	13450	161	-51.9	-80.6	291	8	
2025-08-22T00:00	13500	159	-52.2	-81.2	295	9	
2025-08-22T00:00	13550	158	-52.4	-81.6	297	10	
2025-08-22T00:00	13600	157	-52.5	-81.4	298	9	
2025-08-22T00:00	13650	156	-52.0	-81.3	293	8	
2025-08-22T00:00	13700	155	-51.8	-81.1	284	7	
2025-08-22T00:00	13750	153	-51.9	-80.7	278	8	
2025-08-22T00:00	13800	152	-52.0	-80.6	277	8	
2025-08-22T00:00	13850	151	-52.4	-80.6	278	9	
2025-08-22T00:00	13900	150	-52.6	-80.7	281	10	
2025-08-22T00:00	13950	149	-52.4	-80.9	282	10	
2025-08-22T00:00	14000	148	-52.4	-81.0	283	11	
2025-08-22T00:00	14050	146	-52.3	-81.1	286	12	
2025-08-22T00:00	14100	145	-52.4	-81.3	289	13	
2025-08-22T00:00	14150	144	-52.5	-81.5	293	13	
2025-08-22T00:00	14200	143	-52.5	-81.5	298	13	
2025-08-22T00:00	14250	142	-52.6	-81.6	302	12	
2025-08-22T00:00	14300	141	-52.9	-81.8	306	12	
2025-08-22T00:00	14350	140	-53.3	-81.8	309	12	
2025-08-22T00:00	14400	139	-53.7	-81.8	313	11	
2025-08-22T00:00	14450	138	-54.2	-82.0	318	11	
2025-08-22T00:00	14500	137	-54.4	-82.3	320	9	
2025-08-22T00:00	14550	136	-54.2	-82.5	316	7	
2025-08-22T00:00	14600	134	-54.0	-82.5	304	6	
2025-08-22T00:00	14650	133	-53.9	-82.7	289	6	
2025-08-22T00:00	14700	132	-53.7	-82.7	276	7	
2025-08-22T00:00	14750	131	-53.6	-83.0	269	9	
2025-08-22T00:00	14800	130	-52.9	-83.1	265	10	
2025-08-22T00:00	14850	129	-52.6	-83.2	264	12	
2025-08-22T00:00	14900	128	-52.1	-83.0	264	13	
2025-08-22T00:00	14950	127	-51.8	-82.9	265	15	
2025-08-22T00:00	15000	126	-51.9	-82.9	266	16	
2025-08-22T00:00	15050	125	-52.1	-82.7	268	17	
2025-08-22T00:00	15100	124	-52.3	-82.8	270	17	
2025-08-22T00:00	15150	124	-52.4	-82.9	272	17	
2025-08-22T00:00	15200	123	-52.4	-83.0	277	16	
2025-08-22T00:00	15250	122	-52.5	-82.9	280	16	
2025-08-22T00:00	15300	121	-52.8	-83.0	284	16	
2025-08-22T00:00	15350	120	-53.1	-83.0	287	16	
2025-08-22T00:00	15400	119	-53.4	-83.2	290	16	
2025-08-22T00:00	15450	118	-53.7	-83.3	292	15	
2025-08-22T00:00	15500	117	-53.9	-83.3	295	15	
2025-08-22T00:00	15550	116	-54.3	-83.4	297	14	
2025-08-22T00:00	15600	115	-54.7	-83.6	300	14	
2025-08-22T00:00	15650	114	-55.2	-83.7	304	13	
2025-08-22T00:00	15700	113	-55.4	-83.8	305	12	
2025-08-22T00:00	15750	112	-55.3	-83.9	301	10	
2025-08-22T00:00	15800	112	-55.2	-83.9	295	9	
2025-08-22T00:00	15850	111	-55.3	-84.1	287	8	
2025-08-22T00:00	15900	110	-55.1	-84.1	282	8	
2025-08-22T00:00	15950	109	-55.1	-84.2	279	8	
2025-08-22T00:00	16000	108	-54.9	-84.2	275	8	
2025-08-22T00:00	16050	107	-55.0	-84.2	272	9	
2025-08-22T00:00	16100	106	-54.9	-84.2	270	10	
2025-08-22T00:00	16150	106	-54.7	-84.2	266	11	
2025-08-22T00:00	16200	105	-54.3	-84.3	264	12	
2025-08-22T00:00	16250	104	-54.2	-84.3	262	12	
2025-08-22T00:00	16300	103	-54.4	-84.4	263	13	
2025-08-22T00:00	16350	102	-54.5	-84.6	267	14	
2025-08-22T00:00	16400	102	-54.5	-84.6	273	14	
2025-08-22T00:00	16450	101	-54.5	-84.7	278	13	
2025-08-22T00:00	16500	100	-54.6	-84.7	280	12	
2025-08-22T00:00	16550	99	-54.7	-84.7	283	11	
2025-08-22T00:00	16600	98	-54.9	-84.8	284	9	
2025-08-22T00:00	16650	98	-54.9	-84.9	279	10	
2025-08-22T00:00	16700	97	-54.7	-85.1	274	10	
2025-08-22T00:00	16750	96	-54.6	-85.2	267	9	
2025-08-22T00:00	16800	95	-53.9	-85.0	257	8	
2025-08-22T00:00	16850	95	-53.9	-85.0	251	8	
2025-08-22T00:00	16900	94	-54.0	-84.9	254	9	
2025-08-22T00:00	16950	93	-54.3	-84.9	257	10	
2025-08-22T00:00	17000	93	-54.6	-85.0	259	11	
2025-08-22T00:00	17050	92	-54.7	-85.0	261	11	
2025-08-22T00:00	17100	91	-54.8	-85.0	262	12	
2025-08-22T00:00	17150	90	-54.8	-85.0	264	12	
2025-08-22T00:00	17200	90	-54.8	-85.1	265	12	
2025-08-22T00:00	17250	89	-55.0	-85.1	265	12	
2025-08-22T00:00	17300	88	-55.4	-85.1	266	12	
2025-08-22T00:00	17350	88	-55.7	-85.2	269	13	
2025-08-22T00:00	17400	87	-55.8	-85.3	272	12	
2025-08-22T00:00	17450	86	-55.9	-85.5	273	12	
2025-08-22T00:00	17500	86	-55.8	-85.6	274	12	
2025-08-22T00:00	17550	85	-55.7	-85.6	275	12	
2025-08-22T00:00	17600	84	-55.8	-85.6	276	12	
2025-08-22T00:00	17650	84	-56.0	-85.7	277	13	
2025-08-22T00:00	17700	83	-55.9	-85.7	278	14	
2025-08-22T00:00	17750	82	-56.1	-85.9	280	14	
2025-08-22T00:00	17800	82	-56.2	-85.9	282	14	
2025-08-22T00:00	17850	81	-56.3	-85.8	283	14	
2025-08-22T00:00	17900	80	-56.3	-86.1	283	13	
2025-08-22T00:00	17950	80	-56.1	-86.1	282	12	
2025-08-22T00:00	18000	79	-56.2	-86.1	282	11	
2025-08-22T00:00	18050	78	-56.3	-86.1	285	11	
2025-08-22T00:00	18100	78	-56.3	-86.2	285	10	
2025-08-22T00:00	18150	77	-56.1	-86.1	282	9	
2025-08-22T00:00	18200	77	-56.2	-86.2	279	9	
2025-08-22T00:00	18250	76	-56.4	-86.3	280	9	
2025-08-22T00:00	18300	75	-56.4	-86.2	282	9	
2025-08-22T00:00	18350	75	-56.3	-86.2	285	8	
2025-08-22T00:00	18400	74	-56.5	-86.4	287	8	
2025-08-22T00:00	18450	74	-56.3	-86.4	291	9	
2025-08-22T00:00	18500	73	-56.3	-86.4	298	10	
2025-08-22T00:00	18550	73	-56.1	-86.2	303	9	
2025-08-22T00:00	18600	72	-56.3	-86.4	303	8	
2025-08-22T00:00	18650	71	-56.3	-86.5	297	7	
2025-08-22T00:00	18700	71	-56.1	-86.5	288	7	
2025-08-22T00:00	18750	70	-56.1	-86.6	281	7	
2025-08-22T00:00	18800	70	-55.8	-86.5	281	7	
2025-08-22T00:00	18850	69	-55.6	-86.4	285	7	
2025-08-22T00:00	18900	69	-55.3	-86.4	290	8	
2025-08-22T00:00	18950	68	-55.2	-86.3	290	7	
2025-08-22T00:00	19000	68	-55.1	-86.1	283	7	
2025-08-22T00:00	19050	67	-55.0	-86.0	270	6	
2025-08-22T00:00	19100	67	-55.2	-86.0	255	5	
2025-08-22T00:00	19150	66	-55.6	-86.1	241	5	
2025-08-22T00:00	19200	65	-55.8	-86.3	236	7	
2025-08-22T00:00	19250	65	-55.7	-86.3	238	8	
2025-08-22T00:00	19300	64	-55.6	-86.4	241	8	
2025-08-22T00:00	19350	64	-55.4	-86.4	244	7	
2025-08-22T00:00	19400	63	-55.0	-86.2	247	7	
2025-08-22T00:00	19450	63	-55.0	-86.3	251	7	
2025-08-22T00:00	19500	62	-54.8	-86.2	257	6	
2025-08-22T00:00	19550	62	-54.7	-86.1	264	6	
2025-08-22T00:00	19600	61	-54.6	-86.0	269	6	
2025-08-22T00:00	19650	61	-54.8	-86.0	271	5	
2025-08-22T00:00	19700	61	-55.1	-86.1	269	5	
2025-08-22T00:00	19750	60	-55.3	-86.0	263	6	
2025-08-22T00:00	19800	60	-55.5	-86.0	257	7	
2025-08-22T00:00	19850	59	-55.9	-86.2	253	8	
2025-08-22T00:00	19900	59	-56.2	-86.4	254	8	
2025-08-22T00:00	19950	58	-56.0	-86.5	256	8	
2025-08-22T00:00	20000	58	-55.7	-86.6	260	8	
2025-08-22T00:00	20050	57	-55.1		263	8	
2025-08-22T00:00	20100	57	-54.7		265	9	
2025-08-22T00:00	20150	56	-55.1		265	9	
2025-08-22T00:00	20200	56	-55.4		264	10	
2025-08-22T00:00	20250	56	-55.7		263	10	
2025-08-22T00:00	20300	55	-55.5		265	10	
2025-08-22T00:00	20350	55	-55.5		267	9	
2025-08-22T00:00	20400	54	-55.7		267	8	
2025-08-22T00:00	20450	54	-55.7		264	7	
2025-08-22T00:00	20500	53	-55.4		259	6	
2025-08-22T00:00	20550	53	-55.2		250	4	
2025-08-22T00:00	20600	53	-55.0		250	4	
2025-08-22T00:00	20650	52	-54.9		263	4	
2025-08-22T00:00	20700	52	-55.0		273	5	
2025-08-22T00:00	20750	51	-55.1		281	6	
2025-08-22T00:00	20800	51	-55.1		290	7	
2025-08-22T00:00	20850	51	-55.0		297	7	
2025-08-22T00:00	20900	50	-55.0		299	6	
2025-08-22T00:00	20950	50	-55.2		293	4	
2025-08-22T00:00	21000	49	-55.4		282	4	
2025-08-22T00:00	21050	49	-55.3		275	5	
2025-08-22T00:00	21100	49	-55.1		271	5	
2025-08-22T00:00	21150	48	-55.2		265	6	
2025-08-22T00:00	21200	48	-55.2		258	5	
2025-08-22T00:00	21250	47	-54.8		252	5	
2025-08-22T00:00	21300	47	-54.5		248	4	
2025-08-22T00:00	21350	47	-54.5		250	4	
2025-08-22T00:00	21400	46	-54.2		253	5	
2025-08-22T00:00	21450	46	-54.2		254	5	
2025-08-22T00:00	21500	46	-53.9		258	4	
2025-08-22T00:00	21550	45	-53.4		271	3	
2025-08-22T00:00	21600	45	-53.1		284	3	
2025-08-22T00:00	21650	45	-53.1		278	3	
2025-08-22T00:00	21700	44	-53.0		252	3	
2025-08-22T00:00	21750	44	-53.3		239	4	
2025-08-22T00:00	21800	44	-53.4		237	5	
2025-08-22T00:00	21850	43	-53.8		242	5	
2025-08-22T00:00	21900	43	-54.2		248	5	
2025-08-22T00:00	21950	43	-54.4		253	5	
2025-08-22T00:00	22000	42	-54.2		254	5	
2025-08-22T00:00	22050	42	-54.1		254	5	
2025-08-22T00:00	22100	42	-54.3		258	5	
2025-08-22T00:00	22150	41	-54.0		265	5	
2025-08-22T00:00	22200	41	-53.4		271	4	
2025-08-22T00:00	22250	41	-53.1		279	4	
2025-08-22T00:00	22300	40	-53.0		291	4	
2025-08-22T00:00	22350	40	-53.1		305	4	
2025-08-22T00:00	22400	40	-52.7		320	4	
2025-08-22T00:00	22450	39	-52.4		334	4	
2025-08-22T00:00	22500	39	-52.1		346	3	
2025-08-22T00:00	22550	39	-52.0		353	3	
2025-08-22T00:00	22600	38	-52.1		348	3	
2025-08-22T00:00	22650	38	-52.1		339	2	
2025-08-22T00:00	22700	38	-52.1		339	2	
2025-08-22T00:00	22750	38	-52.2		351	2	
2025-08-22T00:00	22800	37	-52.4		7	2	
2025-08-22T00:00	22850	37	-52.2		23	3	
2025-08-22T00:00	22900	37	-51.9		33	3	
2025-08-22T00:00	22950	36	-51.7		39	3	
2025-08-22T00:00	23000	36	-51.4		55	2	
2025-08-22T00:00	23050	36	-51.3		126	2	
2025-08-22T00:00	23100	36	-50.9		165	3	
2025-08-22T00:00	23150	35	-50.7		174	5	
2025-08-22T00:00	23200	35	-50.9		175	6	
2025-08-22T00:00	23250	35	-51.2		176	7	
2025-08-22T00:00	23300	35	-51.6		178	6	
2025-08-22T00:00	23350	34	-52.0		181	6	
2025-08-22T00:00	23400	34	-52.3		185	5	
2025-08-22T00:00	23450	34	-52.5		189	5	
2025-08-22T00:00	23500	33	-52.7		188	4	
2025-08-22T00:00	23550	33	-52.3		185	3	
2025-08-22T00:00	23600	33	-52.1		193	3	
2025-08-22T00:00	23650	33	-51.7		211	4	
2025-08-22T00:00	23700	32	-51.2		225	4	
2025-08-22T00:00	23750	32	-51.1		237	4	
2025-08-22T00:00	23800	32	-51.0		244	4	
2025-08-22T00:00	23850	32	-51.3		239	3	
2025-08-22T00:00	23900	31	-51.1		218	3	
2025-08-22T00:00	23950	31	-51.2		199	3	
2025-08-22T00:00	24000	31	-51.5		190	4	
2025-08-22T00:00	24050	31	-51.7		191	5	
2025-08-22T00:00	24100	31	-51.8		198	5	
2025-08-22T00:00	24150	30	-51.4		206	6	
2025-08-22T00:00	24200	30	-50.7		216	6	
2025-08-22T00:00	24250	30	-50.6		226	7	
2025-08-22T00:00	24300	30	-50.5		238	7	
2025-08-22T00:00	24350	29	-50.6		247	8	
2025-08-22T00:00	24400	29	-50.7		251	8	
2025-08-22T00:00	24450	29	-50.8		251	8	
2025-08-22T00:00	24500	29	-51.0		247	7	
2025-08-22T00:00	24550	28	-51.2		239	6	
2025-08-22T00:00	24600	28	-51.3		230	5	
2025-08-22T00:00	24650	28	-51.3		229	5	
2025-08-22T00:00	24700	28	-51.2		240	5	
2025-08-22T00:00	24750	28	-51.2		259	5	
2025-08-22T00:00	24800	27	-50.8		276	5	
2025-08-22T00:00	24850	27	-50.4		289	5	
2025-08-22T00:00	24900	27	-50.4		295	4	
2025-08-22T00:00	24950	27	-50.1		286	3	
2025-08-22T00:00	25000	27	-49.7		256	2	
2025-08-22T00:00	25050	26	-49.5		236	2	
2025-08-22T00:00	25100	26	-49.1		257	1	
2025-08-22T00:00	25150	26	-48.2		311	2	
2025-08-22T00:00	25200	26	-47.9		338	2	
2025-08-22T00:00	25250	26	-47.8		355	2	
2025-08-22T00:00	25300	25	-47.5		7	2	
2025-08-22T00:00	25350	25	-47.6		31	1	
2025-08-22T00:00	25400	25	-47.7		100	1	
2025-08-22T00:00	25450	25	-47.9		138	2	
2025-08-22T00:00	25500	25	-47.8		155	3	
2025-08-22T00:00	25550	24	-47.9		167	3	
2025-08-22T00:00	25600	24	-48.3		180	3	
2025-08-22T00:00	25650	24	-48.6		191	3	
2025-08-22T00:00	25700	24	-48.8		191	2	
2025-08-22T00:00	25750	24	-48.3		171	1	
2025-08-22T00:00	25800	24	-48.0		147	1	
2025-08-22T00:00	25850	23	-48.0		141	1	
2025-08-22T00:00	25900	23	-47.8		298	0	
2025-08-22T00:00	25950	23	-47.6		334	1	
2025-08-22T00:00	26000	23	-47.6		348	2	
2025-08-22T00:00	26050	23	-47.7		360	3	
2025-08-22T00:00	26100	23	-47.6		13	4	
2025-08-22T00:00	26150	22	-47.5		29	4	
2025-08-22T00:00	26200	22	-47.6		46	4	
2025-08-22T00:00	26250	22	-47.6		63	4	
2025-08-22T00:00	26300	22	-47.7		79	4	
2025-08-22T00:00	26350	22	-47.7		90	4	
2025-08-22T00:00	26400	22	-48.0		101	4	
2025-08-22T00:00	26450	21	-48.3		114	3	
2025-08-22T00:00	26500	21	-48.5		129	3	
2025-08-22T00:00	26550	21	-48.6		149	2	
2025-08-22T00:00	26600	21	-48.7		168	1	
2025-08-22T00:00	26650	21	-48.6		160	1	
2025-08-22T00:00	26700	21	-48.6		127	1	
2025-08-22T00:00	26750	20	-48.4		124	2	
2025-08-22T00:00	26800	20	-48.3		130	3	
2025-08-22T00:00	26850	20	-48.1		137	4	
2025-08-22T00:00	26900	20	-48.0		143	5	
2025-08-22T00:00	26950	20	-48.1		147	6	
2025-08-22T00:00	27000	20	-48.3		150	7	
2025-08-22T00:00	27050	19	-48.5		154	7	
2025-08-22T00:00	27100	19	-48.2		158	6	
2025-08-22T00:00	27150	19	-47.8		164	6	
2025-08-22T00:00	27200	19	-47.2		172	5	
2025-08-22T00:00	27250	19	-46.9		186	4	
2025-08-22T00:00	27300	19	-46.8		203	4	
2025-08-22T00:00	27350	19	-47.0		223	3	
2025-08-22T00:00	27400	18	-47.2		247	3	
2025-08-22T00:00	27450	18	-47.3		275	3	
2025-08-22T00:00	27500	18	-47.2		301	3	
2025-08-22T00:00	27550	18	-47.2		324	3	
2025-08-22T00:00	27600	18	-47.1		343	4	
2025-08-22T00:00	27650	18	-47.0		359	4	
2025-08-22T00:00	27700	18	-46.8		21	3	
2025-08-22T00:00	27750	18	-46.3		54	3	
2025-08-22T00:00	27800	17	-46.3		82	4	
2025-08-22T00:00	27850	17	-46.2		96	5	
2025-08-22T00:00	27900	17	-46.3		103	6	
2025-08-22T00:00	27950	17	-46.4		111	7	
2025-08-22T00:00	28000	17	-46.3		120	7	
2025-08-22T00:00	28050	17	-46.2		128	7	
2025-08-22T00:00	28100	17	-46.2		131	6	
2025-08-22T00:00	28150	16	-46.3		129	6	
2025-08-22T00:00	28200	16	-46.0		118	5	
2025-08-22T00:00	28250	16	-46.0		103	5	
2025-08-22T00:00	28300	16	-46.0		90	6	
2025-08-22T00:00	28350	16	-46.1		85	6	
2025-08-22T00:00	28400	16	-46.2		85	6	
2025-08-22T00:00	28450	16	-46.3		89	7	
2025-08-22T00:00	28500	16	-46.5		92	7	
2025-08-22T00:00	28550	16	-46.7		94	6	
2025-08-22T00:00	28600	15	-46.4		95	6	
2025-08-22T00:00	28650	15	-46.4		96	5	
2025-08-22T00:00	28700	15	-46.7		96	5	
2025-08-22T00:00	28750	15	-47.1		95	4	
2025-08-22T00:00	28800	15	-47.2		97	3	
2025-08-22T00:00	28850	15	-47.3		104	3	
2025-08-22T00:00	28900	15	-47.4		110	3	
2025-08-22T00:00	28950	15	-47.7		107	3	
2025-08-22T00:00	29000	15	-47.8		92	3	
2025-08-22T00:00	29050	14	-47.8		69	3	
2025-08-22T00:00	29100	14	-47.8		45	4	
2025-08-22T00:00	29150	14	-47.5		33	4	
2025-08-22T00:00	29200	14	-47.1		34	4	
2025-08-22T00:00	29250	14	-46.7		47	4	
2025-08-22T00:00	29300	14	-46.4		67	4	
2025-08-22T00:00	29350	14	-46.3		80	4	
2025-08-22T00:00	29400	14	-46.1		84	4	
2025-08-22T00:00	29450	14	-45.8		89	3	
2025-08-22T00:00	29500	13	-45.5		100	3	
2025-08-22T00:00	29550	13	-45.3		113	3	
2025-08-22T00:00	29600	13	-45.5		126	2	
2025-08-22T00:00	29650	13	-45.7		141	1	
2025-08-22T00:00	29700	13	-46.0		181	1	
2025-08-22T00:00	29750	13	-46.4		240	1	
2025-08-22T00:00	29800	13	-46.7		275	1	
2025-08-22T00:00	29850	13	-46.6		315	1	
2025-08-22T00:00	29900	13	-46.2		354	1	
2025-08-22T00:00	29950	13	-46.1		4	2	
2025-08-22T00:00	30000	12	-46.0		359	2	
2025-08-22T00:00	30050	12	-45.9		353	3	
2025-08-22T00:00	30100	12	-46.0		350	4	
2025-08-22T00:00	30150	12	-46.3		352	5	
2025-08-22T00:00	30200	12	-46.5		356	6	
2025-08-22T00:00	30250	12	-46.7		3	6	
2025-08-22T00:00	30300	12	-46.8		14	5	
2025-08-22T00:00	30350	12	-46.4		30	4	
2025-08-22T00:00	30400	12	-46.4		49	4	
2025-08-22T00:00	30450	12	-46.2		57	4	
2025-08-22T00:00	30500	12	-45.5		51	5	
2025-08-22T00:00	30550	11	-45.2		44	6	
2025-08-22T00:00	30600	11	-45.0		42	7	
2025-08-22T00:00	30650	11	-44.8		45	8	
2025-08-22T00:00	30700	11	-44.3		52	9	
2025-08-22T00:00	30750	11	-44.0		62	9	
2025-08-22T00:00	30800	11	-43.8		72	9	
2025-08-22T00:00	30850	11	-43.6		80	9	
2025-08-22T00:00	30900	11	-43.4		85	10	
2025-08-22T00:00	30950	11	-43.1		89	10	
2025-08-22T00:00	31000	11	-42.7		90	11	
2025-08-22T00:00	31050	11	-42.1		88	12	
2025-08-22T00:00	31100	11	-42.1		84	13	
2025-08-22T00:00	31150	11	-42.1		80	14	
2025-08-22T00:00	31200	10	-42.0		79	15	
2025-08-22T00:00	31250	10	-42.1		81	15	
2025-08-22T00:00	31300	10	-42.2		86	14	
2025-08-22T00:00	31350	10	-41.8		91	13	
2025-08-22T00:00	31400	10	-41.4		95	13	
2025-08-22T00:00	31450	10	-41.5		96	12	
2025-08-22T00:00	31500	10	-41.4		91	12	
2025-08-22T00:00	31550	10	-41.1		81	13	
2025-08-22T00:00	31600	10	-40.7		74	14	
2025-08-22T00:00	31650	10	-40.2		73	15	
2025-08-22T00:00	31700	10	-40.0		75	15	
2025-08-22T00:00	31750	10	-40.1		79	15	
2025-08-22T00:00	31800	10	-40.1		83	15	
2025-08-22T00:00	31850	9	-40.2		86	14	
2025-08-22T00:00	31900	9	-40.4		91	14	
2025-08-22T00:00	31950	9	-40.5		95	13	
2025-08-22T00:00	32000	9	-40.8		98	12	
2025-08-22T00:00	32050	9	-41.3		97	11	
2025-08-22T00:00	32100	9	-41.5		93	10	
2025-08-22T00:00	32150	9	-41.4		88	10	
2025-08-22T00:00	32200	9	-41.5		80	10	
2025-08-22T00:00	32250	9	-41.6		75	10	
2025-08-22T00:00	32300	9	-41.8		73	11	
2025-08-22T00:00	32350	9	-41.6		76	11	
2025-08-22T00:00	32400	9	-41.7		81	11	
2025-08-22T00:00	32450	9	-41.8		88	11	
2025-08-22T00:00	32500	9	-42.0		96	12	
2025-08-22T00:00	32550	9	-42.0		104	12	
2025-08-22T00:00	32600	8	-41.8		110	12	
2025-08-22T00:00	32650	8	-41.4		114	11	
2025-08-22T00:00	32700	8	-40.9		113	9	
2025-08-22T00:00	32750	8	-41.0		109	8	
2025-08-22T00:00	32800	8	-41.0		102	8	
2025-08-22T00:00	32850	8	-41.0		100	8	
2025-08-22T00:00	32900	8	-40.7		104	7	
2025-08-22T00:00	32950	8	-40.5		113	7	
2025-08-22T00:00	33000	8	-40.6		122	7	
2025-08-22T00:00	33050	8	-40.8		130	6	
2025-08-22T00:00	33100	8	-40.7		139	6	
2025-08-22T00:00	33150	8	-40.8		148	6	
2025-08-22T00:00	33200	8	-40.9		156	5	
2025-08-22T00:00	33250	8	-40.3		161	5	
2025-08-22T00:00	33300	8	-40.3		160	4	
2025-08-22T00:00	33350	8	-40.2		149	3	
2025-08-22T00:00	33400	8	-40.2		113	2	
2025-08-22T00:00	33450	7	-39.9		75	3	
2025-08-22T00:00	33500	7	-39.4		61	5	
2025-08-22T00:00	33550	7	-39.3		58	7	
2025-08-22T00:00	33600	7	-38.7		59	8	
2025-08-22T00:00	33650	7	-38.6		64	10	
2025-08-22T00:00	33700	7	-38.6		70	11	
2025-08-22T00:00	33750	7	-38.7		76	12	
2025-08-22T00:00	33800	7	-38.4		83	12	
2025-08-22T00:00	33850	7	-38.2		87	12	
2025-08-22T00:00	33900	7	-38.1		89	12	
2025-08-22T00:00	33950	7	-38.0		88	12	
2025-08-22T00:00	34000	7	-37.5		90	12	
2025-08-22T00:00	34050	7	-37.2		94	11	
2025-08-22T00:00	34100	7	-36.9		100	10	
2025-08-22T00:00	34150	7	-36.7		105	9	
2025-08-22T00:00	34200	7	-36.7		107	8	
2025-08-22T00:00	34250	7	-36.3		105	7	
2025-08-22T00:00	34300	7	-35.6		105	8	
2025-08-22T00:00	34350	7	-34.8		107	10	
2025-08-22T00:00	34400	7	-34.5		110	11	
2025-08-22T00:00	34450	6	-34.3		114	12	
2025-08-22T00:00	34500	6	-34.3		118	14	
2025-08-22T00:00	34550	6	-34.2		121	15	
2025-08-22T00:00	34600	6	-34.1		125	15	
2025-08-22T00:00	34650	6	-34.2		127	16	
2025-08-22T00:00	34700	6	-34.2		129	15	
2025-08-22T00:00	34750	6	-34.3		128	14	
2025-08-22T00:00	34800	6	-34.3		129	13	
2025-08-22T00:00	34850	6	-34.3		132	12	
2025-08-22T00:00	34900	6	-34.3		137	11	
2025-08-22T00:00	34950	6	-34.5		144	11	
2025-08-22T00:00	35000	6	-34.6		149	10	
2025-08-22T00:00	35050	6	-34.6		149	9	
2025-08-22T00:00	35100	6	-34.6		143	8	
2025-08-22T00:00	35150	6	-34.4		131	7	
2025-08-22T00:00	35200	6	-34.3		118	7	
2025-08-22T00:00	35250	6	-34.3		106	7	
2025-08-22T00:00	35300	6	-34.1		96	8	
2025-08-22T00:00	35350	6	-33.7		91	9	
2025-08-22T00:00	35400	6	-33.4		91	11	
2025-08-22T00:00	35450	6	-33.1		95	12	
2025-08-22T00:00	35500	6	-32.8		99	12	
2025-08-22T00:00	35550	6	-32.8		104	12	
2025-08-22T00:00	35600	5	-32.9		110	11	
2025-08-22T00:00	35650	5	-32.8		116	11	
2025-08-22T00:00	35700	5	-33.0		123	10	
2025-08-22T00:00	35750	5	-33.2		127	10	
2025-08-22T00:00	35800	5	-33.3		126	10	
2025-08-22T00:00	35850	5	-33.4		119	10	
2025-08-22T00:00	35900	5	-33.4		112	10	
2025-08-22T00:00	35950	5	-33.3		106	10	
2025-08-22T00:00	36000	5	-33.2		100	10	
2025-08-22T00:00	36050	5	-32.9		97	11	
2025-08-22T00:00	36100	5	-32.5		95	12	
2025-08-22T00:00	36150	5	-32.1		94	12	
2025-08-22T00:00	36200	5	-31.7		92	11	
2025-08-22T00:00	36250	5	-31.0		90	11	
2025-08-22T00:00	36300	5	-30.5		92	11	
2025-08-22T00:00	36350	5	-30.3		96	11	
2025-08-22T00:00	36400	5	-30.0		99	10	
2025-08-22T00:00	36450	5	-29.9		101	10	
2025-08-22T00:00	36500	5	-29.9		101	11	
2025-08-22T00:00	36550	5	-29.6		101	12	
2025-08-22T00:00	36600	5	-29.8		100	13	
2025-08-22T00:00	36650	5	-29.7		100	13	
2025-08-22T00:00	36700	5	-29.3		99	13	
2025-08-22T00:00	36750	5	-29.1		97	13	
2025-08-22T00:00	36800	5	-29.2		95	14	
2025-08-22T00:00	36850	5	-29.1		95	15	
2025-08-22T00:00	36900	5	-29.0		98	16	
2025-08-22T00:00	36950	5	-28.9		102	16	
2025-08-22T00:00	37000	5	-28.7		105	15	
2025-08-22T00:00	37050	4	-28.5		106	13	
2025-08-22T00:00	37100	4	-28.5		106	12	
2025-08-22T00:00	37150	4	-28.6		105	10	
2025-08-22T00:00	37200	4	-28.7		106	9	
2025-08-22T00:00	37250	4	-28.7		104	7	
2025-08-22T00:00	37300	4	-28.3		99	5	
2025-08-22T00:00	37350	4	-27.7		88	4	
2025-08-22T00:00	37400	4	-27.3		68	4	
2025-08-22T00:00	37450	4	-26.8		52	5	
2025-08-22T00:00	37500	4	-26.2		52	7	
2025-08-22T00:00	37550	4	-25.6		58	9	
2025-08-22T00:00	37600	4	-25.3		63	11	
2025-08-22T00:00	37650	4	-25.3		67	12	
2025-08-22T00:00	37700	4	-25.1		70	13	
2025-08-22T00:00	37750	4	-24.8		73	13	
2025-08-22T00:00	37800	4	-24.3		78	12	
2025-08-22T00:00	37850	4	-23.9		82	10	
2025-08-22T00:00	37900	4	-24.0		88	9	
2025-08-22T00:00	37950	4	-24.2		98	7	
2025-08-22T00:00	38000	4	-24.5		105	6	
2025-08-22T00:00	38050	4	-24.5		104	4	
2025-08-22T07:00	491	959	15.8	14.0	225	1	
2025-08-22T07:00	501	958	16.0	14.6	189	1	
2025-08-22T07:00	520	956	15.7	14.2	181	1	
2025-08-22T07:00	540	954	15.3	13.8	182	1	
2025-08-22T07:00	560	951	15.3	13.6	183	1	
2025-08-22T07:00	580	949	15.6	13.2	185	1	
2025-08-22T07:00	600	947	15.6	12.9	188	1	
2025-08-22T07:00	620	945	15.5	12.7	192	1	
2025-08-22T07:00	640	942	15.4	12.5	198	1	
2025-08-22T07:00	660	940	15.3	12.4	204	1	
2025-08-22T07:00	680	938	15.1	12.2	212	1	
2025-08-22T07:00	700	936	14.9	12.1	225	1	
2025-08-22T07:00	720	934	14.8	12.1	245	0	
2025-08-22T07:00	740	931	14.6	12.0	286	0	
2025-08-22T07:00	760	929	14.5	11.9	318	1	
2025-08-22T07:00	780	927	14.3	12.2	332	1	
2025-08-22T07:00	800	925	14.2	12.1	340	1	
2025-08-22T07:00	820	923	14.1	12.1	344	2	
2025-08-22T07:00	840	921	13.9	12.2	345	2	
2025-08-22T07:00	860	919	13.7	12.0	346	2	
2025-08-22T07:00	880	916	13.6	11.7	347	3	
2025-08-22T07:00	900	914	13.5	11.6	349	3	
2025-08-22T07:00	920	912	13.4	11.3	350	3	
2025-08-22T07:00	940	909	13.4	11.0	352	3	
2025-08-22T07:00	960	907	13.4	10.7	355	3	
2025-08-22T07:00	980	905	13.4	10.5	360	3	
2025-08-22T07:00	1000	903	13.3	10.6	5	3	
2025-08-22T07:00	1020	901	13.4	10.5	10	3	
2025-08-22T07:00	1040	899	13.4	10.4	16	3	
2025-08-22T07:00	1060	897	13.3	10.6	21	2	
2025-08-22T07:00	1080	895	13.2	10.5	24	2	
2025-08-22T07:00	1100	893	13.0	10.5	27	2	
2025-08-22T07:00	1120	891	12.9	10.4	27	2	
2025-08-22T07:00	1140	889	12.8	10.4	25	2	
2025-08-22T07:00	1160	886	12.6	10.4	23	2	
2025-08-22T07:00	1180	884	12.4	10.4	21	2	
2025-08-22T07:00	1200	882	12.3	10.3	19	2	
2025-08-22T07:00	1220	880	12.1	10.2	18	2	
2025-08-22T07:00	1240	878	12.0	10.2	18	2	
2025-08-22T07:00	1260	876	12.0	10.3	17	2	
2025-08-22T07:00	1280	873	11.8	10.3	16	2	
2025-08-22T07:00	1300	872	11.6	10.4	12	1	
2025-08-22T07:00	1320	869	11.5	10.3	4	1	
2025-08-22T07:00	1340	867	11.3	10.4	351	1	
2025-08-22T07:00	1360	865	11.2	10.2	332	1	
2025-08-22T07:00	1380	863	11.1	10.2	316	1	
2025-08-22T07:00	1400	861	10.9	10.2	307	1	
2025-08-22T07:00	1420	859	10.7	10.1	303	1	
2025-08-22T07:00	1440	857	10.6	10.1	305	2	
2025-08-22T07:00	1460	855	10.5	9.8	309	2	
2025-08-22T07:00	1480	853	10.5	9.8	318	2	
2025-08-22T07:00	1500	851	10.4	9.5	332	2	
2025-08-22T07:00	1520	849	10.4	9.1	342	2	
2025-08-22T07:00	1540	847	10.4	8.4	351	2	
2025-08-22T07:00	1560	845	10.7	7.2	358	2	
2025-08-22T07:00	1580	843	10.7	7.1	1	3	
2025-08-22T07:00	1600	841	10.6	6.8	1	3	
2025-08-22T07:00	1620	839	10.5	6.8	1	3	
2025-08-22T07:00	1640	837	10.3	6.8	360	3	
2025-08-22T07:00	1660	835	10.1	6.7	359	3	
2025-08-22T07:00	1680	833	9.9	6.6	358	3	
2025-08-22T07:00	1700	831	9.7	6.6	359	3	
2025-08-22T07:00	1720	829	9.5	6.5	359	3	
2025-08-22T07:00	1740	827	9.3	6.5	2	3	
2025-08-22T07:00	1760	825	9.2	6.4	4	2	
2025-08-22T07:00	1780	823	9.0	6.3	8	2	
2025-08-22T07:00	1800	821	8.8	6.3	13	2	
2025-08-22T07:00	1820	819	8.6	6.2	17	2	
2025-08-22T07:00	1840	817	8.4	6.1	20	2	
2025-08-22T07:00	1860	815	8.3	6.0	23	2	
2025-08-22T07:00	1880	813	8.1	6.0	23	2	
2025-08-22T07:00	1900	811	7.9	6.1	22	3	
2025-08-22T07:00	1920	809	7.7	6.0	21	3	
2025-08-22T07:00	1940	807	7.5	5.8	20	3	
2025-08-22T07:00	1960	805	7.3	5.6	18	3	
2025-08-22T07:00	1980	803	7.2	5.5	17	3	
2025-08-22T07:00	2000	801	7.0	5.4	16	3	
2025-08-22T07:00	2020	799	6.8	5.3	15	3	
2025-08-22T07:00	2040	797	6.6	5.3	14	3	
2025-08-22T07:00	2060	795	6.4	5.2	14	3	
2025-08-22T07:00	2080	793	6.2	5.1	14	3	
2025-08-22T07:00	2100	791	6.0	5.1	14	3	
2025-08-22T07:00	2120	789	5.8	5.1	14	3	
2025-08-22T07:00	2140	788	5.7	4.8	13	2	
2025-08-22T07:00	2160	786	5.5	4.7	12	2	
2025-08-22T07:00	2180	784	5.3	4.5	9	2	
2025-08-22T07:00	2200	782	5.2	4.4	5	2	
2025-08-22T07:00	2220	780	5.0	4.0	358	2	
2025-08-22T07:00	2240	778	4.9	3.9	350	1	
2025-08-22T07:00	2260	776	4.8	3.7	342	1	
2025-08-22T07:00	2280	774	4.6	3.5	331	1	
2025-08-22T07:00	2300	772	4.5	3.2	320	1	
2025-08-22T07:00	2320	770	4.3	2.9	311	1	
2025-08-22T07:00	2340	769	4.2	2.7	304	1	
2025-08-22T07:00	2360	767	4.1	2.5	299	1	
2025-08-22T07:00	2380	765	3.9	2.4	294	1	
2025-08-22T07:00	2400	763	3.9	1.8	291	1	
2025-08-22T07:00	2420	761	3.7	1.8	287	1	
2025-08-22T07:00	2440	759	3.5	1.7	282	1	
2025-08-22T07:00	2460	757	3.5	1.5	277	1	
2025-08-22T07:00	2480	755	3.3	1.4	272	1	
2025-08-22T07:00	2500	753	3.1	1.3	267	2	
2025-08-22T07:00	2520	752	3.0	1.1	263	2	
2025-08-22T07:00	2540	750	2.8	0.9	258	2	
2025-08-22T07:00	2560	748	2.7	0.7	253	2	
2025-08-22T07:00	2580	746	2.6	0.2	249	2	
2025-08-22T07:00	2600	744	2.5	0.0	244	2	
2025-08-22T07:00	2620	742	2.4	-0.2	237	1	
2025-08-22T07:00	2640	741	2.3	-0.3	230	1	
2025-08-22T07:00	2660	739	2.1	-0.1	223	1	
2025-08-22T07:00	2680	737	2.0	-0.7	211	1	
2025-08-22T07:00	2700	735	1.9	-1.3	198	1	
2025-08-22T07:00	2720	733	1.9	-1.9	185	1	
2025-08-22T07:00	2740	732	1.9	-3.3	178	1	
2025-08-22T07:00	2760	730	1.9	-4.1	181	1	
2025-08-22T07:00	2780	728	1.9	-4.2	197	1	
2025-08-22T07:00	2800	726	1.7	-4.4	228	1	
2025-08-22T07:00	2820	724	1.6	-4.5	252	1	
2025-08-22T07:00	2840	723	1.5	-4.6	269	1	
2025-08-22T07:00	2860	721	1.6	-5.1	279	1	
2025-08-22T07:00	2880	719	1.8	-6.6	286	1	
2025-08-22T07:00	2900	717	2.0	-9.9	293	1	
2025-08-22T07:00	2920	715	2.3	-13.0	302	1	
2025-08-22T07:00	2940	714	2.5	-13.3	311	1	
2025-08-22T07:00	2960	712	2.5	-13.0	319	2	
2025-08-22T07:00	2980	710	2.5	-10.7	327	2	
2025-08-22T07:00	3000	708	2.3	-9.2	334	2	
2025-08-22T07:00	3020	707	2.3	-10.2	340	2	
2025-08-22T07:00	3040	705	2.3	-10.9	344	3	
2025-08-22T07:00	3060	703	2.1	-11.5	347	4	
2025-08-22T07:00	3080	701	2.1	-14.0	350	4	
2025-08-22T07:00	3100	700	2.3	-17.6	353	5	
2025-08-22T07:00	3120	698	2.2	-18.9	355	5	
2025-08-22T07:00	3140	696	2.2	-20.2	358	6	
2025-08-22T07:00	3160	695	2.0	-21.0	360	6	
2025-08-22T07:00	3180	693	2.0	-24.7	2	6	
2025-08-22T07:00	3200	691	2.1	-31.1	5	7	
2025-08-22T07:00	3220	689	2.3	-37.8	7	7	
2025-08-22T07:00	3240	688	2.7	-40.5	8	7	
2025-08-22T07:00	3260	686	2.7	-39.7	10	6	
2025-08-22T07:00	3280	684	2.6	-39.6	11	6	
2025-08-22T07:00	3300	683	2.6	-28.9	12	6	
2025-08-22T07:00	3320	681	2.5	-16.8	13	6	
2025-08-22T07:00	3340	679	2.2	-14.5	13	6	
2025-08-22T07:00	3360	677	2.0	-14.4	13	6	
2025-08-22T07:00	3380	676	1.9	-17.3	13	6	
2025-08-22T07:00	3400	674	1.7	-15.3	11	6	
2025-08-22T07:00	3420	673	1.6	-13.9	10	6	
2025-08-22T07:00	3440	671	1.3	-12.6	8	6	
2025-08-22T07:00	3460	669	1.1	-12.0	6	6	
2025-08-22T07:00	3480	667	0.9	-12.0	3	7	
2025-08-22T07:00	3500	666	0.7	-12.2	0	7	
2025-08-22T07:00	3520	664	0.6	-12.2	357	7	
2025-08-22T07:00	3540	663	0.3	-11.4	355	7	
2025-08-22T07:00	3560	661	0.2	-11.0	352	7	
2025-08-22T07:00	3580	659	0.0	-10.8	350	7	
2025-08-22T07:00	3600	658	-0.1	-10.7	348	7	
2025-08-22T07:00	3620	656	-0.3	-10.7	346	7	
2025-08-22T07:00	3640	654	-0.4	-10.7	345	7	
2025-08-22T07:00	3660	653	-0.5	-10.9	344	7	
2025-08-22T07:00	3680	651	-0.7	-10.9	343	6	
2025-08-22T07:00	3700	649	-0.9	-11.0	343	6	
2025-08-22T07:00	3720	648	-1.0	-10.9	343	6	
2025-08-22T07:00	3740	646	-1.1	-11.1	343	6	
2025-08-22T07:00	3760	644	-1.3	-11.0	343	5	
2025-08-22T07:00	3780	643	-1.4	-11.2	344	5	
2025-08-22T07:00	3800	641	-1.6	-11.4	344	5	
2025-08-22T07:00	3820	640	-1.6	-12.0	344	5	
2025-08-22T07:00	3840	638	-1.7	-12.8	344	5	
2025-08-22T07:00	3860	636	-1.7	-13.8	344	6	
2025-08-22T07:00	3880	635	-1.6	-14.5	343	6	
2025-08-22T07:00	3900	633	-1.7	-14.5	343	6	
2025-08-22T07:00	3920	632	-1.9	-14.6	343	7	
2025-08-22T07:00	3940	630	-2.0	-14.8	343	7	
2025-08-22T07:00	3960	628	-2.0	-15.1	343	7	
2025-08-22T07:00	3980	627	-2.1	-15.8	343	7	
2025-08-22T07:00	4000	625	-2.3	-16.1	343	7	
2025-08-22T07:00	4020	624	-2.4	-16.1	343	7	
2025-08-22T07:00	4040	622	-2.6	-16.4	342	7	
2025-08-22T07:00	4060	621	-2.7	-16.8	342	7	
2025-08-22T07:00	4080	619	-2.8	-16.5	340	7	
2025-08-22T07:00	4100	617	-2.8	-16.8	339	7	
2025-08-22T07:00	4120	616	-3.0	-17.2	338	7	
2025-08-22T07:00	4140	614	-3.0	-17.6	337	8	
2025-08-22T07:00	4160	613	-3.2	-17.6	336	8	
2025-08-22T07:00	4180	611	-3.4	-17.5	336	8	
2025-08-22T07:00	4200	610	-3.5	-17.7	335	8	
2025-08-22T07:00	4220	608	-3.5	-18.3	335	8	
2025-08-22T07:00	4240	607	-3.6	-18.7	335	8	
2025-08-22T07:00	4260	605	-3.7	-19.0	335	8	
2025-08-22T07:00	4280	604	-3.8	-19.5	335	8	
2025-08-22T07:00	4300	602	-4.0	-20.2	335	8	
2025-08-22T07:00	4320	601	-4.1	-20.8	335	8	
2025-08-22T07:00	4340	599	-4.1	-21.4	335	8	
2025-08-22T07:00	4360	598	-4.2	-23.2	335	8	
2025-08-22T07:00	4380	596	-4.4	-24.6	335	8	
2025-08-22T07:00	4400	594	-4.4	-24.7	334	8	
2025-08-22T07:00	4420	593	-4.5	-24.1	334	8	
2025-08-22T07:00	4440	591	-4.6	-25.1	333	8	
2025-08-22T07:00	4460	590	-4.8	-21.8	332	8	
2025-08-22T07:00	4480	588	-4.9	-21.2	331	8	
2025-08-22T07:00	4500	587	-5.1	-21.8	330	8	
2025-08-22T07:00	4520	586	-5.1	-23.5	330	8	
2025-08-22T07:00	4540	584	-5.1	-25.5	329	8	
2025-08-22T07:00	4560	582	-5.1	-25.7	329	8	
2025-08-22T07:00	4580	581	-5.2	-23.1	329	8	
2025-08-22T07:00	4600	579	-5.2	-25.3	329	8	
2025-08-22T07:00	4620	578	-5.2	-26.7	329	8	
2025-08-22T07:00	4640	577	-5.3	-28.0	329	8	
2025-08-22T07:00	4660	575	-5.4	-28.4	329	8	
2025-08-22T07:00	4680	574	-5.5	-28.2	329	8	
2025-08-22T07:00	4700	572	-5.6	-29.3	328	8	
2025-08-22T07:00	4720	571	-5.8	-29.5	328	8	
2025-08-22T07:00	4740	569	-5.9	-29.1	328	8	
2025-08-22T07:00	4760	568	-6.0	-29.0	327	8	
2025-08-22T07:00	4780	566	-6.1	-29.0	327	8	
2025-08-22T07:00	4800	565	-6.3	-29.0	327	8	
2025-08-22T07:00	4820	563	-6.4	-27.3	328	7	
2025-08-22T07:00	4840	562	-6.5	-26.7	328	7	
2025-08-22T07:00	4860	561	-6.7	-26.6	329	7	
2025-08-22T07:00	4880	559	-6.9	-26.7	330	7	
2025-08-22T07:00	4900	558	-7.1	-26.6	331	7	
2025-08-22T07:00	4920	556	-7.3	-26.6	332	7	
2025-08-22T07:00	4940	555	-7.5	-26.5	333	7	
2025-08-22T07:00	4960	554	-7.7	-26.1	333	8	
2025-08-22T07:00	4980	552	-7.8	-25.6	334	8	
2025-08-22T07:00	5000	551	-7.9	-27.0	334	8	
2025-08-22T07:00	5020	549	-8.0	-27.6	334	8	
2025-08-22T07:00	5040	548	-8.1	-28.4	333	8	
2025-08-22T07:00	5060	546	-8.2	-29.1	333	8	
2025-08-22T07:00	5080	545	-8.4	-29.3	332	8	
2025-08-22T07:00	5100	544	-8.4	-29.7	331	8	
2025-08-22T07:00	5120	542	-8.5	-28.6	331	9	
2025-08-22T07:00	5140	541	-8.6	-28.8	330	9	
2025-08-22T07:00	5160	539	-8.8	-28.6	330	9	
2025-08-22T07:00	5180	538	-8.9	-28.9	330	9	
2025-08-22T07:00	5200	537	-9.1	-28.8	330	9	
2025-08-22T07:00	5220	535	-9.3	-28.9	330	8	
2025-08-22T07:00	5240	534	-9.5	-28.7	331	8	
2025-08-22T07:00	5260	532	-9.7	-28.6	332	8	
2025-08-22T07:00	5280	531	-9.8	-28.4	333	8	
2025-08-22T07:00	5300	530	-9.9	-29.2	333	8	
2025-08-22T07:00	5320	528	-10.0	-32.0	334	8	
2025-08-22T07:00	5340	527	-10.0	-33.5	335	8	
2025-08-22T07:00	5360	526	-10.1	-34.7	336	7	
2025-08-22T07:00	5380	524	-10.2	-35.1	337	7	
2025-08-22T07:00	5400	523	-10.3	-35.0	337	7	
2025-08-22T07:00	5420	522	-10.4	-33.7	338	7	
2025-08-22T07:00	5440	520	-10.6	-33.3	337	7	
2025-08-22T07:00	5460	519	-10.6	-33.0	337	7	
2025-08-22T07:00	5480	517	-10.8	-32.6	336	7	
2025-08-22T07:00	5500	516	-10.9	-32.2	335	7	
2025-08-22T07:00	5520	515	-11.1	-32.8	334	8	
2025-08-22T07:00	5540	513	-11.2	-35.1	333	8	
2025-08-22T07:00	5560	512	-11.3	-35.8	333	8	
2025-08-22T07:00	5580	511	-11.5	-35.4	332	8	
2025-08-22T07:00	5600	509	-11.7	-35.2	332	8	
2025-08-22T07:00	5620	508	-11.9	-33.9	332	8	
2025-08-22T07:00	5640	507	-12.0	-34.2	332	8	
2025-08-22T07:00	5660	505	-12.1	-35.0	331	8	
2025-08-22T07:00	5680	504	-12.3	-34.7	331	8	
2025-08-22T07:00	5700	503	-12.5	-31.1	330	8	
2025-08-22T07:00	5720	502	-12.7	-30.8	329	8	
2025-08-22T07:00	5740	500	-12.8	-31.2	327	8	
2025-08-22T07:00	5760	499	-13.0	-30.4	325	8	
2025-08-22T07:00	5780	498	-13.2	-30.4	324	8	
2025-08-22T07:00	5800	496	-13.3	-30.8	323	8	
2025-08-22T07:00	5820	495	-13.6	-31.0	321	8	
2025-08-22T07:00	5840	493	-13.8	-30.4	319	8	
2025-08-22T07:00	5860	492	-13.9	-30.7	318	8	
2025-08-22T07:00	5880	491	-14.1	-30.5	317	8	
2025-08-22T07:00	5900	490	-14.3	-30.6	316	8	
2025-08-22T07:00	5920	488	-14.4	-31.1	315	7	
2025-08-22T07:00	5940	487	-14.5	-31.2	315	7	
2025-08-22T07:00	5960	486	-14.6	-31.2	314	7	
2025-08-22T07:00	5980	485	-14.8	-31.3	313	7	
2025-08-22T07:00	6000	483	-15.0	-31.4	312	7	
2025-08-22T07:00	6020	482	-15.1	-31.8	312	6	
2025-08-22T07:00	6040	481	-15.2	-32.0	312	6	
2025-08-22T07:00	6060	479	-15.4	-32.0	313	6	
2025-08-22T07:00	6080	478	-15.7	-32.0	314	6	
2025-08-22T07:00	6100	477	-15.8	-32.1	316	6	
2025-08-22T07:00	6120	476	-15.9	-32.4	319	5	
2025-08-22T07:00	6140	474	-16.1	-32.3	321	6	
2025-08-22T07:00	6160	473	-16.3	-32.4	322	6	
2025-08-22T07:00	6180	472	-16.5	-32.4	324	6	
2025-08-22T07:00	6200	471	-16.7	-32.4	324	6	
2025-08-22T07:00	6220	470	-16.8	-32.6	324	6	
2025-08-22T07:00	6240	468	-17.0	-33.0	323	7	
2025-08-22T07:00	6260	467	-17.2	-33.6	323	7	
2025-08-22T07:00	6280	466	-17.3	-34.0	322	7	
2025-08-22T07:00	6300	464	-17.5	-34.5	320	7	
2025-08-22T07:00	6320	463	-17.7	-34.7	319	7	
2025-08-22T07:00	6340	462	-17.9	-34.8	316	7	
2025-08-22T07:00	6360	461	-18.1	-35.1	314	7	
2025-08-22T07:00	6380	459	-18.2	-35.3	311	7	
2025-08-22T07:00	6400	458	-18.3	-35.4	309	7	
2025-08-22T07:00	6420	457	-18.6	-35.2	307	7	
2025-08-22T07:00	6440	456	-18.7	-35.2	305	7	
2025-08-22T07:00	6460	455	-18.9	-35.6	305	7	
2025-08-22T07:00	6480	453	-19.0	-36.6	304	7	
2025-08-22T07:00	6500	452	-19.1	-37.8	304	7	
2025-08-22T07:00	6520	451	-19.2	-38.3	305	7	
2025-08-22T07:00	6540	450	-19.2	-38.2	305	7	
2025-08-22T07:00	6560	449	-19.2	-38.3	305	7	
2025-08-22T07:00	6580	447	-19.4	-37.9	305	7	
2025-08-22T07:00	6600	446	-19.6	-37.9	306	7	
2025-08-22T07:00	6620	445	-19.8	-37.7	307	7	
2025-08-22T07:00	6640	444	-20.0	-36.8	307	6	
2025-08-22T07:00	6660	442	-20.1	-37.3	308	6	
2025-08-22T07:00	6680	441	-20.3	-37.1	309	6	
2025-08-22T07:00	6700	440	-20.4	-36.3	310	6	
2025-08-22T07:00	6720	439	-20.6	-36.2	311	6	
2025-08-22T07:00	6740	438	-20.8	-36.0	311	7	
2025-08-22T07:00	6760	437	-21.0	-36.2	311	7	
2025-08-22T07:00	6780	435	-21.2	-36.6	310	7	
2025-08-22T07:00	6800	434	-21.4	-36.9	309	7	
2025-08-22T07:00	6820	433	-21.5	-37.1	308	7	
2025-08-22T07:00	6840	432	-21.5	-37.7	307	7	
2025-08-22T07:00	6860	431	-21.7	-38.5	306	7	
2025-08-22T07:00	6880	429	-21.7	-38.7	306	8	
2025-08-22T07:00	6900	428	-21.8	-38.9	306	8	
2025-08-22T07:00	6920	427	-22.0	-38.9	306	8	
2025-08-22T07:00	6940	426	-22.2	-38.9	307	8	
2025-08-22T07:00	6960	425	-22.4	-39.0	306	8	
2025-08-22T07:00	6980	424	-22.6	-39.2	306	8	
2025-08-22T07:00	7000	422	-22.7	-39.2	306	8	
2025-08-22T07:00	7020	421	-22.9	-39.5	305	8	
2025-08-22T07:00	7040	420	-23.0	-39.5	304	8	
2025-08-22T07:00	7060	419	-23.2	-39.5	303	8	
2025-08-22T07:00	7080	418	-23.4	-39.6	302	7	
2025-08-22T07:00	7100	417	-23.5	-39.9	302	7	
2025-08-22T07:00	7120	416	-23.7	-39.9	301	7	
2025-08-22T07:00	7140	414	-23.9	-40.1	301	7	
2025-08-22T07:00	7160	413	-24.0	-40.5	301	7	
2025-08-22T07:00	7180	412	-24.2	-40.7	301	7	
2025-08-22T07:00	7200	411	-24.3	-40.9	302	7	
2025-08-22T07:00	7220	410	-24.5	-41.0	302	7	
2025-08-22T07:00	7240	409	-24.6	-41.0	302	7	
2025-08-22T07:00	7260	408	-24.8	-41.2	303	7	
2025-08-22T07:00	7280	407	-24.9	-41.2	303	7	
2025-08-22T07:00	7300	405	-25.1	-41.3	304	7	
2025-08-22T07:00	7320	404	-25.3	-41.5	305	8	
2025-08-22T07:00	7340	403	-25.4	-41.6	305	8	
2025-08-22T07:00	7360	402	-25.5	-41.7	306	8	
2025-08-22T07:00	7380	401	-25.6	-42.1	306	8	
2025-08-22T07:00	7400	400	-25.8	-42.2	306	8	
2025-08-22T07:00	7420	399	-25.9	-42.8	306	8	
2025-08-22T07:00	7440	398	-26.1	-43.3	306	8	
2025-08-22T07:00	7460	397	-26.3	-43.1	305	8	
2025-08-22T07:00	7480	396	-26.5	-43.2	304	8	
2025-08-22T07:00	7500	394	-26.6	-43.8	304	9	
2025-08-22T07:00	7520	393	-26.7	-43.9	303	9	
2025-08-22T07:00	7540	392	-26.9	-43.8	302	9	
2025-08-22T07:00	7560	391	-27.0	-44.1	302	9	
2025-08-22T07:00	7580	390	-27.3	-44.3	301	9	
2025-08-22T07:00	7600	389	-27.4	-44.1	301	9	
2025-08-22T07:00	7620	388	-27.6	-43.9	301	9	
2025-08-22T07:00	7640	387	-27.7	-44.0	301	9	
2025-08-22T07:00	7660	386	-28.0	-44.2	301	9	
2025-08-22T07:00	7680	385	-28.2	-44.1	302	9	
2025-08-22T07:00	7700	384	-28.3	-44.1	302	9	
2025-08-22T07:00	7720	383	-28.5	-44.2	303	8	
2025-08-22T07:00	7740	382	-28.6	-44.4	304	8	
2025-08-22T07:00	7760	381	-28.8	-44.9	304	8	
2025-08-22T07:00	7780	379	-28.9	-45.6	304	7	
2025-08-22T07:00	7800	378	-29.0	-46.3	304	7	
2025-08-22T07:00	7820	377	-29.2	-44.9	304	7	
2025-08-22T07:00	7840	376	-29.4	-43.0	303	7	
2025-08-22T07:00	7860	375	-29.5	-42.9	303	7	
2025-08-22T07:00	7880	374	-29.7	-42.9	303	7	
2025-08-22T07:00	7900	373	-29.8	-42.9	303	7	
2025-08-22T07:00	7920	372	-30.0	-42.8	303	7	
2025-08-22T07:00	7940	371	-30.3	-42.5	303	7	
2025-08-22T07:00	7960	370	-30.4	-42.8	303	7	
2025-08-22T07:00	7980	369	-30.6	-43.5	302	7	
2025-08-22T07:00	8000	368	-30.8	-43.6	301	7	
2025-08-22T07:00	8020	367	-31.0	-43.5	300	7	
2025-08-22T07:00	8040	366	-31.2	-43.8	299	7	
2025-08-22T07:00	8060	365	-31.3	-44.3	297	7	
2025-08-22T07:00	8080	364	-31.4	-44.3	296	8	
2025-08-22T07:00	8100	363	-31.7	-44.6	294	8	
2025-08-22T07:00	8120	362	-31.9	-44.2	292	8	
2025-08-22T07:00	8140	361	-32.0	-44.4	290	8	
2025-08-22T07:00	8160	360	-32.2	-44.6	288	8	
2025-08-22T07:00	8180	359	-32.4	-44.8	286	8	
2025-08-22T07:00	8200	358	-32.5	-44.9	285	8	
2025-08-22T07:00	8220	357	-32.6	-45.0	284	8	
2025-08-22T07:00	8240	356	-32.8	-44.7	283	8	
2025-08-22T07:00	8260	355	-33.0	-44.3	283	8	
2025-08-22T07:00	8280	354	-33.2	-44.6	284	9	
2025-08-22T07:00	8300	352	-33.4	-46.2	284	9	
2025-08-22T07:00	8320	352	-33.5	-46.9	284	9	
2025-08-22T07:00	8340	351	-33.6	-46.6	284	9	
2025-08-22T07:00	8360	350	-33.8	-45.9	284	9	
2025-08-22T07:00	8380	349	-34.0	-46.0	284	10	
2025-08-22T07:00	8400	348	-34.2	-46.2	284	10	
2025-08-22T07:00	8420	347	-34.4	-46.4	283	10	
2025-08-22T07:00	8440	346	-34.5	-46.4	282	10	
2025-08-22T07:00	8460	345	-34.7	-46.3	281	10	
2025-08-22T07:00	8480	344	-34.8	-45.7	280	10	
2025-08-22T07:00	8500	342	-35.1	-45.5	278	9	
2025-08-22T07:00	8520	342	-35.2	-45.9	277	9	
2025-08-22T07:00	8540	341	-35.3	-46.6	276	9	
2025-08-22T07:00	8560	340	-35.5	-47.2	275	9	
2025-08-22T07:00	8580	339	-35.6	-47.6	274	9	
2025-08-22T07:00	8600	338	-35.7	-47.9	274	9	
2025-08-22T07:00	8620	337	-35.9	-47.5	274	9	
2025-08-22T07:00	8640	336	-36.1	-46.2	275	9	
2025-08-22T07:00	8660	335	-36.3	-45.8	276	9	
2025-08-22T07:00	8680	334	-36.4	-46.2	277	9	
2025-08-22T07:00	8700	333	-36.6	-46.4	278	9	
2025-08-22T07:00	8720	332	-36.8	-46.5	280	9	
2025-08-22T07:00	8740	331	-37.0	-46.5	281	9	
2025-08-22T07:00	8760	330	-37.2	-46.7	282	9	
2025-08-22T07:00	8780	329	-37.3	-47.0	283	10	
2025-08-22T07:00	8800	328	-37.5	-47.5	284	10	
2025-08-22T07:00	8820	327	-37.7	-48.2	285	10	
2025-08-22T07:00	8840	326	-37.8	-48.9	285	10	
2025-08-22T07:00	8860	325	-38.0	-49.3	286	10	
2025-08-22T07:00	8880	324	-38.1	-50.0	286	10	
2025-08-22T07:00	8900	323	-38.3	-51.3	286	10	
2025-08-22T07:00	8920	322	-38.3	-52.9	287	9	
2025-08-22T07:00	8940	322	-38.4	-53.6	287	9	
2025-08-22T07:00	8960	321	-38.4	-53.5	288	9	
2025-08-22T07:00	8980	320	-38.5	-54.3	289	9	
2025-08-22T07:00	9000	319	-38.6	-55.1	290	9	
2025-08-22T07:00	9020	318	-38.8	-55.3	292	9	
2025-08-22T07:00	9040	317	-38.9	-55.5	293	9	
2025-08-22T07:00	9060	316	-39.0	-55.8	296	9	
2025-08-22T07:00	9080	315	-39.1	-55.9	297	9	
2025-08-22T07:00	9100	314	-39.3	-56.0	299	9	
2025-08-22T07:00	9120	313	-39.5	-56.3	300	9	
2025-08-22T07:00	9140	312	-39.6	-57.5	301	10	
2025-08-22T07:00	9160	311	-39.6	-59.2	302	10	
2025-08-22T07:00	9180	310	-39.7	-59.6	302	10	
2025-08-22T07:00	9200	310	-39.8	-59.5	302	10	
2025-08-22T07:00	9220	309	-39.9	-59.5	302	9	
2025-08-22T07:00	9240	308	-40.0	-58.8	302	9	
2025-08-22T07:00	9260	307	-40.0	-58.4	301	9	
2025-08-22T07:00	9280	306	-40.2	-58.5	301	9	
2025-08-22T07:00	9300	305	-40.5	-58.7	301	9	
2025-08-22T07:00	9320	304	-40.5	-59.2	301	9	
2025-08-22T07:00	9340	303	-40.5	-59.5	302	9	
2025-08-22T07:00	9360	302	-40.8	-59.6	302	9	
2025-08-22T07:00	9380	301	-40.9	-59.5	303	9	
2025-08-22T07:00	9400	300	-41.1	-59.6	303	9	
2025-08-22T07:00	9420	300	-41.1	-59.9	303	10	
2025-08-22T07:00	9440	299	-41.3	-60.0	303	10	
2025-08-22T07:00	9460	298	-41.5	-60.0	303	10	
2025-08-22T07:00	9480	297	-41.7	-60.0	303	11	
2025-08-22T07:00	9500	296	-41.8	-60.1	302	11	
2025-08-22T07:00	9520	295	-41.9	-60.1	302	11	
2025-08-22T07:00	9540	294	-42.0	-60.1	302	11	
2025-08-22T07:00	9560	294	-42.1	-60.4	301	11	
2025-08-22T07:00	9580	293	-42.2	-60.6	301	11	
2025-08-22T07:00	9600	292	-42.4	-60.8	301	10	
2025-08-22T07:00	9620	291	-42.5	-60.9	301	10	
2025-08-22T07:00	9640	290	-42.7	-61.0	301	10	
2025-08-22T07:00	9660	289	-42.9	-61.0	302	9	
2025-08-22T07:00	9680	288	-43.0	-61.2	303	9	
2025-08-22T07:00	9700	288	-43.2	-61.2	303	9	
2025-08-22T07:00	9720	287	-43.3	-61.2	304	8	
2025-08-22T07:00	9740	286	-43.5	-61.4	304	8	
2025-08-22T07:00	9760	285	-43.7	-61.4	304	8	
2025-08-22T07:00	9780	284	-43.8	-61.3	304	8	
2025-08-22T07:00	9800	283	-43.9	-61.0	304	8	
2025-08-22T07:00	9820	282	-44.0	-59.7	304	8	
2025-08-22T07:00	9840	282	-44.2	-58.0	304	8	
2025-08-22T07:00	9860	281	-44.3	-57.1	304	8	
2025-08-22T07:00	9880	280	-44.5	-57.0	304	8	
2025-08-22T07:00	9900	279	-44.7	-57.2	304	8	
2025-08-22T07:00	9920	278	-44.9	-57.0	304	8	
2025-08-22T07:00	9940	277	-45.1	-57.1	304	8	
2025-08-22T07:00	9960	277	-45.2	-57.6	304	8	
2025-08-22T07:00	9980	276	-45.4	-57.8	304	8	
2025-08-22T07:00	10000	275	-45.6	-58.0	304	8	
2025-08-22T07:00	10018	274	-45.7	-58.0	304	8	
2025-08-22T07:00	10050	273	-46.0	-57.7	304	8	
2025-08-22T07:00	10100	271	-46.4	-57.4	304	8	
2025-08-22T07:00	10150	269	-46.8	-57.8	303	8	
2025-08-22T07:00	10200	267	-47.2	-58.0	299	8	
2025-08-22T07:00	10250	265	-47.6	-58.1	293	8	
2025-08-22T07:00	10300	263	-48.1	-58.1	288	8	
2025-08-22T07:00	10350	261	-48.5	-58.4	284	8	
2025-08-22T07:00	10400	259	-48.9	-58.9	283	8	
2025-08-22T07:00	10450	257	-49.2	-59.5	286	9	
2025-08-22T07:00	10500	255	-49.6	-59.9	288	9	
2025-08-22T07:00	10550	253	-50.0	-60.0	290	10	
2025-08-22T07:00	10600	251	-50.4	-60.0	290	10	
2025-08-22T07:00	10650	249	-50.7	-60.4	290	10	
2025-08-22T07:00	10700	247	-51.1	-60.9	291	10	
2025-08-22T07:00	10750	245	-51.6	-60.9	293	10	
2025-08-22T07:00	10800	243	-51.9	-61.3	294	10	
2025-08-22T07:00	10850	242	-52.3	-61.5	293	10	
2025-08-22T07:00	10900	240	-52.6	-61.5	292	11	
2025-08-22T07:00	10950	238	-53.0	-61.7	290	11	
2025-08-22T07:00	11000	236	-53.4	-62.2	290	11	
2025-08-22T07:00	11050	234	-53.7	-62.5	289	11	
2025-08-22T07:00	11100	232	-53.9	-63.3	288	11	
2025-08-22T07:00	11150	231	-54.4	-63.9	287	12	
2025-08-22T07:00	11200	229	-54.7	-63.7	286	12	
2025-08-22T07:00	11250	227	-55.0	-63.4	286	12	
2025-08-22T07:00	11300	225	-55.4	-63.7	284	12	
2025-08-22T07:00	11350	223	-55.6	-64.2	283	12	
2025-08-22T07:00	11400	222	-55.9	-64.7	282	12	
2025-08-22T07:00	11450	220	-56.1	-64.9	281	12	
2025-08-22T07:00	11500	218	-56.5	-65.1	282	11	
2025-08-22T07:00	11550	216	-56.9	-65.3	283	11	
2025-08-22T07:00	11600	215	-57.2	-65.4	283	12	
2025-08-22T07:00	11650	213	-57.3	-65.5	282	12	
2025-08-22T07:00	11700	211	-57.6	-65.7	282	13	
2025-08-22T07:00	11750	210	-57.5	-65.6	282	13	
2025-08-22T07:00	11800	208	-57.9	-65.7	283	13	
2025-08-22T07:00	11850	206	-58.1	-65.6	285	14	
2025-08-22T07:00	11900	205	-58.3	-66.2	287	14	
2025-08-22T07:00	11950	203	-58.1	-67.4	289	14	
2025-08-22T07:00	12000	202	-58.1	-68.1	290	13	
2025-08-22T07:00	12050	200	-58.1	-68.2	289	12	
2025-08-22T07:00	12100	198	-58.2	-68.0	284	12	
2025-08-22T07:00	12150	197	-58.3	-68.3	280	13	
2025-08-22T07:00	12200	195	-57.8	-69.3	279	14	
2025-08-22T07:00	12250	194	-57.1	-70.7	280	14	
2025-08-22T07:00	12300	192	-57.0	-71.7	281	14	
2025-08-22T07:00	12350	191	-56.8	-71.7	281	14	
2025-08-22T07:00	12400	189	-56.5	-72.1	281	13	
2025-08-22T07:00	12450	188	-55.8	-73.0	281	12	
2025-08-22T07:00	12500	186	-55.0	-74.3	280	11	
2025-08-22T07:00	12550	185	-54.4	-75.2	277	10	
2025-08-22T07:00	12600	183	-54.0	-75.5	276	11	
2025-08-22T07:00	12650	182	-54.0	-75.5	276	11	
2025-08-22T07:00	12700	181	-53.9	-75.9	275	11	
2025-08-22T07:00	12750	179	-53.7	-76.0	272	11	
2025-08-22T07:00	12800	178	-53.6	-75.4	267	10	
2025-08-22T07:00	12850	176	-53.7	-75.2	264	9	
2025-08-22T07:00	12900	175	-53.9	-75.1	263	9	
2025-08-22T07:00	12950	174	-54.3	-75.2	265	8	
2025-08-22T07:00	13000	172	-54.5	-75.2	268	8	
2025-08-22T07:00	13050	171	-54.6	-75.2	270	9	
2025-08-22T07:00	13100	170	-54.7	-75.5	271	10	
2025-08-22T07:00	13150	168	-54.7	-76.0	271	11	
2025-08-22T07:00	13200	167	-54.3	-76.5	272	12	
2025-08-22T07:00	13250	166	-54.4	-77.0	271	13	
2025-08-22T07:00	13300	164	-54.5	-77.3	271	14	
2025-08-22T07:00	13350	163	-54.6	-77.5	272	14	
2025-08-22T07:00	13400	162	-54.7	-77.9	275	15	
2025-08-22T07:00	13450	161	-54.6	-78.4	277	14	
2025-08-22T07:00	13500	159	-54.6	-78.9	279	13	
2025-08-22T07:00	13550	158	-54.8	-79.5	279	13	
2025-08-22T07:00	13600	157	-54.7	-80.2	280	13	
2025-08-22T07:00	13650	156	-53.9	-80.8	283	13	
2025-08-22T07:00	13700	155	-53.5	-81.2	287	13	
2025-08-22T07:00	13750	153	-53.2	-81.1	289	13	
2025-08-22T07:00	13800	152	-53.1	-81.0	290	13	
2025-08-22T07:00	13850	151	-53.3	-80.9	291	13	
2025-08-22T07:00	13900	150	-53.3	-80.8	292	13	
2025-08-22T07:00	13950	149	-53.3	-80.7	295	13	
2025-08-22T07:00	14000	147	-53.4	-80.7	296	13	
2025-08-22T07:00	14050	146	-53.4	-80.6	297	13	
2025-08-22T07:00	14100	145	-53.3	-80.5	297	14	
2025-08-22T07:00	14150	144	-53.2	-80.5	295	14	
2025-08-22T07:00	14200	143	-53.3	-80.6	293	15	
2025-08-22T07:00	14250	142	-53.4	-80.6	291	15	
2025-08-22T07:00	14300	141	-53.6	-80.7	287	16	
2025-08-22T07:00	14350	140	-53.4	-80.6	285	16	
2025-08-22T07:00	14400	139	-53.0	-80.4	284	17	
2025-08-22T07:00	14450	137	-53.1	-80.5	284	18	
2025-08-22T07:00	14500	136	-53.0	-80.4	283	19	
2025-08-22T07:00	14550	135	-52.9	-80.7	283	19	
2025-08-22T07:00	14600	134	-52.9	-80.7	283	19	
2025-08-22T07:00	14650	133	-53.1	-80.8	285	19	
2025-08-22T07:00	14700	132	-53.4	-80.9	286	18	
2025-08-22T07:00	14750	131	-53.6	-81.0	288	17	
2025-08-22T07:00	14800	130	-53.8	-81.0	289	16	
2025-08-22T07:00	14850	129	-53.7	-81.1	290	15	
2025-08-22T07:00	14900	128	-53.5	-81.0	290	14	
2025-08-22T07:00	14950	127	-53.4	-80.9	289	13	
2025-08-22T07:00	15000	126	-53.3	-80.9	287	12	
2025-08-22T07:00	15050	125	-53.7	-81.2	285	12	
2025-08-22T07:00	15100	124	-54.0	-81.4	285	12	
2025-08-22T07:00	15150	123	-53.7	-81.5	285	13	
2025-08-22T07:00	15200	122	-52.7	-81.3	287	13	
2025-08-22T07:00	15250	121	-52.3	-81.3	288	13	
2025-08-22T07:00	15300	121	-52.3	-81.3	291	12	
2025-08-22T07:00	15350	119	-52.4	-81.2	292	13	
2025-08-22T07:00	15400	119	-52.4	-81.1	292	13	
2025-08-22T07:00	15450	118	-52.8	-81.3	291	13	
2025-08-22T07:00	15500	117	-52.7	-81.2	290	13	
2025-08-22T07:00	15550	116	-52.6	-81.2	289	13	
2025-08-22T07:00	15600	115	-52.6	-81.2	288	12	
2025-08-22T07:00	15650	114	-52.8	-81.3	289	12	
2025-08-22T07:00	15700	113	-52.9	-81.4	290	11	
2025-08-22T07:00	15750	112	-53.0	-81.4	291	11	
2025-08-22T07:00	15800	111	-53.1	-81.4	290	11	
2025-08-22T07:00	15850	111	-53.3	-81.5	287	10	
2025-08-22T07:00	15900	110	-53.3	-81.6	283	10	
2025-08-22T07:00	15950	109	-53.2	-81.6	279	10	
2025-08-22T07:00	16000	108	-53.2	-81.7	276	9	
2025-08-22T07:00	16050	107	-53.2	-81.6	274	9	
2025-08-22T07:00	16100	106	-53.3	-81.6	273	8	
2025-08-22T07:00	16150	106	-53.7	-81.8	271	8	
2025-08-22T07:00	16200	105	-53.9	-81.9	269	7	
2025-08-22T07:00	16250	104	-54.1	-82.0	264	7	
2025-08-22T07:00	16300	103	-54.2	-82.0	256	6	
2025-08-22T07:00	16350	102	-54.3	-82.0	247	6	
2025-08-22T07:00	16400	102	-54.6	-82.2	241	7	
2025-08-22T07:00	16450	101	-54.7	-82.2	240	8	
2025-08-22T07:00	16500	100	-54.9	-82.2	242	8	
2025-08-22T07:00	16550	99	-55.1	-82.4	246	9	
2025-08-22T07:00	16600	98	-55.3	-82.5	250	9	
2025-08-22T07:00	16650	98	-55.5	-82.6	255	10	
2025-08-22T07:00	16700	97	-55.7	-82.7	261	10	
2025-08-22T07:00	16750	96	-56.0	-82.8	268	10	
2025-08-22T07:00	16800	95	-56.2	-83.0	274	10	
2025-08-22T07:00	16850	95	-56.3	-83.1	278	10	
2025-08-22T07:00	16900	94	-56.2	-83.1	282	10	
2025-08-22T07:00	16950	93	-56.4	-83.2	285	10	
2025-08-22T07:00	17000	92	-56.4	-83.2	288	9	
2025-08-22T07:00	17050	92	-56.5	-83.3	291	8	
2025-08-22T07:00	17100	91	-56.7	-83.4	293	8	
2025-08-22T07:00	17150	90	-57.0	-83.4	292	6	
2025-08-22T07:00	17200	90	-57.2	-83.5	286	5	
2025-08-22T07:00	17250	89	-57.4	-83.7	278	5	
2025-08-22T07:00	17300	88	-57.3	-83.7	271	6	
2025-08-22T07:00	17350	87	-57.5	-84.0	267	7	
2025-08-22T07:00	17400	87	-57.4	-84.0	264	8	
2025-08-22T07:00	17450	86	-57.3	-83.9	264	9	
2025-08-22T07:00	17500	85	-57.3	-84.0	266	10	
2025-08-22T07:00	17550	85	-57.3	-84.0	269	11	
2025-08-22T07:00	17600	84	-57.2	-84.0	271	11	
2025-08-22T07:00	17650	83	-57.0	-84.0	273	10	
2025-08-22T07:00	17700	83	-57.0	-84.1	273	10	
2025-08-22T07:00	17750	82	-56.7	-84.2	274	10	
2025-08-22T07:00	17800	81	-56.5	-84.2	274	11	
2025-08-22T07:00	17850	81	-56.0	-84.0	272	12	
2025-08-22T07:00	17900	80	-55.9	-84.0	270	13	
2025-08-22T07:00	17950	80	-55.8	-84.1	268	14	
2025-08-22T07:00	18000	79	-55.4	-84.0	268	14	
2025-08-22T07:00	18050	78	-54.8	-83.7	271	14	
2025-08-22T07:00	18100	78	-54.5	-83.6	275	13	
2025-08-22T07:00	18150	77	-54.4	-83.6	279	13	
2025-08-22T07:00	18200	76	-54.4	-83.5	283	12	
2025-08-22T07:00	18250	76	-54.2	-83.4	287	11	
2025-08-22T07:00	18300	75	-54.2	-83.5	291	10	
2025-08-22T07:00	18350	75	-54.0	-83.4	293	8	
2025-08-22T07:00	18400	74	-53.8	-83.2	290	7	
2025-08-22T07:00	18450	74	-53.9	-83.1	280	7	
2025-08-22T07:00	18500	73	-53.9	-83.0	269	7	
2025-08-22T07:00	18550	72	-54.2	-83.0	259	8	
2025-08-22T07:00	18600	72	-54.6	-83.2	256	9	
2025-08-22T07:00	18650	71	-55.0	-83.2	254	9	
2025-08-22T07:00	18700	71	-55.3	-83.3	256	10	
2025-08-22T07:00	18750	70	-55.6	-83.3	259	10	
2025-08-22T07:00	18800	70	-56.1	-83.6	264	10	
2025-08-22T07:00	18850	69	-56.2	-83.8	267	9	
2025-08-22T07:00	18900	69	-56.2	-83.9	270	9	
2025-08-22T07:00	18950	68	-56.1	-84.0	273	9	
2025-08-22T07:00	19000	67	-56.1	-84.1	274	9	
2025-08-22T07:00	19050	67	-56.3	-84.2	273	8	
2025-08-22T07:00	19100	66	-56.3	-84.2	271	8	
2025-08-22T07:00	19150	66	-56.2	-84.1	269	8	
2025-08-22T07:00	19200	65	-56.2	-84.0	268	8	
2025-08-22T07:00	19250	65	-56.5	-84.1	268	8	
2025-08-22T07:00	19300	64	-56.9	-84.2	270	8	
2025-08-22T07:00	19350	64	-57.3	-84.3	271	8	
2025-08-22T07:00	19400	63	-57.6	-84.6	271	7	
2025-08-22T07:00	19450	63	-57.6	-84.6	269	7	
2025-08-22T07:00	19500	62	-57.5	-84.6	268	6	
2025-08-22T07:00	19550	62	-57.4	-84.7	267	6	
2025-08-22T07:00	19600	61	-57.2	-84.8	266	6	
2025-08-22T07:00	19650	61	-56.9	-84.7	264	6	
2025-08-22T07:00	19700	60	-56.6	-84.6	263	6	
2025-08-22T07:00	19750	60	-56.8	-84.7	265	7	
2025-08-22T07:00	19800	59	-56.8	-84.8	266	7	
2025-08-22T07:00	19850	59	-56.1	-84.6	266	6	
2025-08-22T07:00	19900	59	-55.6	-84.4	269	5	
2025-08-22T07:00	19950	58	-55.6	-84.3	270	5	
2025-08-22T07:00	20000	58	-55.7	-84.2	269	6	
2025-08-22T07:00	20050	57	-55.8		266	7	
2025-08-22T07:00	20100	57	-56.0		265	8	
2025-08-22T07:00	20150	56	-56.2		268	9	
2025-08-22T07:00	20200	56	-56.4		273	9	
2025-08-22T07:00	20250	55	-56.6		278	9	
2025-08-22T07:00	20300	55	-56.5		284	8	
2025-08-22T07:00	20350	55	-56.1		288	7	
2025-08-22T07:00	20400	54	-55.7		290	7	
2025-08-22T07:00	20450	54	-55.2		287	7	
2025-08-22T07:00	20500	53	-55.0		283	7	
2025-08-22T07:00	20550	53	-54.9		280	7	
2025-08-22T07:00	20600	52	-54.9		281	7	
2025-08-22T07:00	20650	52	-54.5		283	7	
2025-08-22T07:00	20700	52	-53.8		283	7	
2025-08-22T07:00	20750	51	-53.7		279	7	
2025-08-22T07:00	20800	51	-53.4		274	8	
2025-08-22T07:00	20850	50	-53.6		271	8	
2025-08-22T07:00	20900	50	-53.7		273	9	
2025-08-22T07:00	20950	50	-53.7		277	8	
2025-08-22T07:00	21000	49	-53.9		284	8	
2025-08-22T07:00	21050	49	-53.7		289	8	
2025-08-22T07:00	21100	49	-53.5		289	8	
2025-08-22T07:00	21150	48	-53.3		284	7	
2025-08-22T07:00	21200	48	-52.6		275	6	
2025-08-22T07:00	21250	47	-52.5		264	5	
2025-08-22T07:00	21300	47	-52.3		257	6	
2025-08-22T07:00	21350	47	-52.6		256	6	
2025-08-22T07:00	21400	46	-52.8		256	7	
2025-08-22T07:00	21450	46	-52.9		256	7	
2025-08-22T07:00	21500	46	-52.9		256	6	
2025-08-22T07:00	21550	45	-52.8		259	6	
2025-08-22T07:00	21600	45	-52.8		266	6	
2025-08-22T07:00	21650	45	-52.7		271	5	
2025-08-22T07:00	21700	44	-52.8		271	5	
2025-08-22T07:00	21750	44	-52.8		269	4	
2025-08-22T07:00	21800	44	-53.0		274	3	
2025-08-22T07:00	21850	43	-53.0		285	3	
2025-08-22T07:00	21900	43	-53.1		292	4	
2025-08-22T07:00	21950	43	-52.9		295	4	
2025-08-22T07:00	22000	42	-52.7		302	4	
2025-08-22T07:00	22050	42	-52.3		316	3	
2025-08-22T07:00	22100	42	-51.8		335	3	
2025-08-22T07:00	22150	41	-51.3		358	3	
2025-08-22T07:00	22200	41	-51.4		22	2	
2025-08-22T07:00	22250	41	-51.5		46	2	
2025-08-22T07:00	22300	40	-51.6		74	2	
2025-08-22T07:00	22350	40	-51.8		102	1	
2025-08-22T07:00	22400	40	-52.0		125	1	
2025-08-22T07:00	22450	39	-52.4		187	1	
2025-08-22T07:00	22500	39	-52.8		233	1	
2025-08-22T07:00	22550	39	-53.2		236	2	
2025-08-22T07:00	22600	38	-53.6		230	3	
2025-08-22T07:00	22650	38	-53.2		219	3	
2025-08-22T07:00	22700	38	-52.4		208	4	
2025-08-22T07:00	22750	38	-51.9		200	5	
2025-08-22T07:00	22800	37	-51.9		197	6	
2025-08-22T07:00	22850	37	-52.1		197	7	
2025-08-22T07:00	22900	37	-52.5		200	7	
2025-08-22T07:00	22950	36	-52.9		203	7	
2025-08-22T07:00	23000	36	-53.0		207	6	
2025-08-22T07:00	23050	36	-53.1		214	6	
2025-08-22T07:00	23100	36	-53.1		227	5	
2025-08-22T07:00	23150	35	-53.3		239	5	
2025-08-22T07:00	23200	35	-53.7		246	5	
2025-08-22T07:00	23250	35	-53.5		253	5	
2025-08-22T07:00	23300	35	-52.9		261	5	
2025-08-22T07:00	23350	34	-52.0		270	5	
2025-08-22T07:00	23400	34	-51.3		279	6	
2025-08-22T07:00	23450	34	-51.2		286	6	
2025-08-22T07:00	23500	33	-51.0		293	6	
2025-08-22T07:00	23550	33	-50.6		299	5	
2025-08-22T07:00	23600	33	-50.5		299	3	
2025-08-22T07:00	23650	33	-50.7		298	2	
2025-08-22T07:00	23700	32	-50.7		301	1	
2025-08-22T07:00	23750	32	-50.5		243	0	
2025-08-22T07:00	23800	32	-50.4		230	1	
2025-08-22T07:00	23850	32	-50.5		240	3	
2025-08-22T07:00	23900	31	-50.7		246	4	
2025-08-22T07:00	23950	31	-50.7		251	5	
2025-08-22T07:00	24000	31	-50.6		254	6	
2025-08-22T07:00	24050	31	-50.6		258	5	
2025-08-22T07:00	24100	31	-50.5		265	3	
2025-08-22T07:00	24150	30	-50.3		284	2	
2025-08-22T07:00	24200	30	-50.4		345	1	
2025-08-22T07:00	24250	30	-50.5		50	1	
2025-08-22T07:00	24300	30	-50.6		73	2	
2025-08-22T07:00	24350	29	-50.5		80	3	
2025-08-22T07:00	24400	29	-50.4		77	3	
2025-08-22T07:00	24450	29	-50.4		63	2	
2025-08-22T07:00	24500	29	-50.3		40	2	
2025-08-22T07:00	24550	28	-50.5		37	2	
2025-08-22T07:00	24600	28	-50.6		57	3	
2025-08-22T07:00	24650	28	-50.2		82	3	
2025-08-22T07:00	24700	28	-50.2		98	4	
2025-08-22T07:00	24750	28	-50.4		110	4	
2025-08-22T07:00	24800	27	-50.8		122	5	
2025-08-22T07:00	24850	27	-51.0		133	6	
2025-08-22T07:00	24900	27	-51.2		146	6	
2025-08-22T07:00	24950	27	-51.3		160	5	
2025-08-22T07:00	25000	27	-50.9		173	5	
2025-08-22T07:00	25050	26	-50.9		187	4	
2025-08-22T07:00	25100	26	-51.0		208	4	
2025-08-22T07:00	25150	26	-51.3		231	4	
2025-08-22T07:00	25200	26	-51.6		243	5	
2025-08-22T07:00	25250	26	-51.8		247	5	
2025-08-22T07:00	25300	25	-51.7		244	5	
2025-08-22T07:00	25350	25	-51.1		235	5	
2025-08-22T07:00	25400	25	-51.0		227	4	
2025-08-22T07:00	25450	25	-50.9		229	4	
2025-08-22T07:00	25500	25	-50.4		241	4	
2025-08-22T07:00	25550	24	-49.9		257	4	
2025-08-22T07:00	25600	24	-49.5		271	4	
2025-08-22T07:00	25650	24	-49.2		280	4	
2025-08-22T07:00	25700	24	-49.1		285	4	
2025-08-22T07:00	25750	24	-48.8		284	4	
2025-08-22T07:00	25800	24	-48.5		283	3	
2025-08-22T07:00	25850	23	-48.6		288	3	
2025-08-22T07:00	25900	23	-48.7		304	3	
2025-08-22T07:00	25950	23	-48.6		324	2	
2025-08-22T07:00	26000	23	-48.4		332	2	
2025-08-22T07:00	26050	23	-48.4		316	1	
2025-08-22T07:00	26100	22	-48.4		255	1	
2025-08-22T07:00	26150	22	-48.2		248	2	
2025-08-22T07:00	26200	22	-48.0		266	2	
2025-08-22T07:00	26250	22	-47.7		287	3	
2025-08-22T07:00	26300	22	-47.4		315	2	
2025-08-22T07:00	26350	22	-47.3		11	2	
2025-08-22T07:00	26400	21	-47.1		54	3	
2025-08-22T07:00	26450	21	-46.8		69	4	
2025-08-22T07:00	26500	21	-46.4		73	5	
2025-08-22T07:00	26550	21	-46.6		70	4	
2025-08-22T07:00	26600	21	-46.6		64	4	
2025-08-22T07:00	26650	21	-46.5		55	3	
2025-08-22T07:00	26700	21	-46.6		44	3	
2025-08-22T07:00	26750	20	-46.4		34	3	
2025-08-22T07:00	26800	20	-46.5		29	2	
2025-08-22T07:00	26850	20	-46.7		28	2	
2025-08-22T07:00	26900	20	-46.8		29	3	
2025-08-22T07:00	26950	20	-46.9		29	3	
2025-08-22T07:00	27000	20	-47.1		30	2	
2025-08-22T07:00	27050	19	-47.3		25	2	
2025-08-22T07:00	27100	19	-47.4		19	3	
2025-08-22T07:00	27150	19	-47.5		20	4	
2025-08-22T07:00	27200	19	-47.4		27	5	
2025-08-22T07:00	27250	19	-47.4		37	6	
2025-08-22T07:00	27300	19	-47.4		49	6	
2025-08-22T07:00	27350	19	-47.4		63	6	
2025-08-22T07:00	27400	18	-47.3		73	7	
2025-08-22T07:00	27450	18	-47.5		80	7	
2025-08-22T07:00	27500	18	-47.6		85	8	
2025-08-22T07:00	27550	18	-47.8		91	9	
2025-08-22T07:00	27600	18	-47.8		97	9	
2025-08-22T07:00	27650	18	-47.9		102	9	
2025-08-22T07:00	27700	18	-47.9		106	9	
2025-08-22T07:00	27750	17	-47.8		107	8	
2025-08-22T07:00	27800	17	-47.7		107	7	
2025-08-22T07:00	27850	17	-47.6		108	6	
2025-08-22T07:00	27900	17	-47.4		112	5	
2025-08-22T07:00	27950	17	-47.6		119	5	
2025-08-22T07:00	28000	17	-47.8		122	4	
2025-08-22T07:00	28050	17	-48.0		115	3	
2025-08-22T07:00	28100	17	-48.0		96	3	
2025-08-22T07:00	28150	16	-47.9		79	4	
2025-08-22T07:00	28200	16	-47.8		74	5	
2025-08-22T07:00	28250	16	-47.4		76	6	
2025-08-22T07:00	28300	16	-47.2		84	6	
2025-08-22T07:00	28350	16	-47.0		94	6	
2025-08-22T07:00	28400	16	-46.9		100	6	
2025-08-22T07:00	28450	16	-47.0		100	6	
2025-08-22T07:00	28500	16	-46.9		96	6	
2025-08-22T07:00	28550	16	-46.6		91	6	
2025-08-22T07:00	28600	15	-46.5		87	7	
2025-08-22T07:00	28650	15	-46.4		88	7	
2025-08-22T07:00	28700	15	-46.2		96	8	
2025-08-22T07:00	28750	15	-46.2		105	9	
2025-08-22T07:00	28800	15	-46.1		112	9	
2025-08-22T07:00	28850	15	-46.0		115	10	
2025-08-22T07:00	28900	15	-46.3		115	11	
2025-08-22T07:00	28950	15	-46.8		114	10	
2025-08-22T07:00	29000	14	-46.5		113	10	
2025-08-22T07:00	29050	14	-46.0		112	8	
2025-08-22T07:00	29100	14	-45.7		109	7	
2025-08-22T07:00	29150	14	-45.7		103	6	
2025-08-22T07:00	29200	14	-45.6		94	6	
2025-08-22T07:00	29250	14	-45.4		87	6	
2025-08-22T07:00	29300	14	-45.1		82	7	
2025-08-22T07:00	29350	14	-44.6		79	7	
2025-08-22T07:00	29400	14	-44.3		79	8	
2025-08-22T07:00	29450	14	-44.2		79	9	
2025-08-22T07:00	29500	13	-43.6		80	9	
2025-08-22T07:00	29550	13	-42.7		82	10	
2025-08-22T07:00	29600	13	-42.6		84	10	
2025-08-22T07:00	29650	13	-42.8		86	11	
2025-08-22T07:00	29700	13	-43.0		88	11	
2025-08-22T07:00	29750	13	-43.3		90	12	
2025-08-22T07:00	29800	13	-43.5		93	13	
2025-08-22T07:00	29850	13	-43.7		97	13	
2025-08-22T07:00	29900	13	-43.5		100	14	
2025-08-22T07:00	29950	13	-43.5		105	13	
2025-08-22T07:00	30000	12	-43.6		109	12	
2025-08-22T07:00	30050	12	-43.7		112	11	
2025-08-22T07:00	30100	12	-43.8		113	10	
2025-08-22T07:00	30150	12	-43.8		112	10	
2025-08-22T07:00	30200	12	-43.7		112	10	
2025-08-22T07:00	30250	12	-43.4		115	11	
2025-08-22T07:00	30300	12	-43.2		120	11	
2025-08-22T07:00	30350	12	-42.6		125	11	
2025-08-22T07:00	30400	12	-41.9		130	10	
2025-08-22T07:00	30450	12	-41.5		131	10	
2025-08-22T07:00	30500	12	-41.5		131	9	
2025-08-22T07:00	30550	11	-41.6		131	9	
2025-08-22T07:00	30600	11	-41.5		131	8	
2025-08-22T07:00	30650	11	-41.6		132	7	
2025-08-22T07:00	30700	11	-41.7		131	7	
2025-08-22T07:00	30750	11	-41.8		129	6	
2025-08-22T07:00	30800	11	-41.8		128	6	
2025-08-22T07:00	30850	11	-42.0		126	6	
2025-08-22T07:00	30900	11	-42.3		123	6	
2025-08-22T07:00	30950	11	-42.7		121	7	
2025-08-22T07:00	31000	11	-42.8		121	7	
2025-08-22T07:00	31050	11	-42.8		124	7	
2025-08-22T07:00	31100	11	-42.7		128	7	
2025-08-22T07:00	31150	11	-42.7		131	7	
2025-08-22T07:00	31200	10	-42.9		132	7	
2025-08-22T07:00	31250	10	-42.8		133	6	
2025-08-22T07:00	31300	10	-42.7		134	6	
2025-08-22T07:00	31350	10	-42.7		132	6	
2025-08-22T07:00	31400	10	-42.6		127	6	
2025-08-22T07:00	31450	10	-42.5		124	6	
2025-08-22T07:00	31500	10	-42.6		123	7	
2025-08-22T07:00	31550	10	-42.6		123	8	
2025-08-22T07:00	31600	10	-42.7		124	8	
2025-08-22T07:00	31650	10	-42.9		127	8	
2025-08-22T07:00	31700	10	-42.8		131	8	
2025-08-22T07:00	31750	10	-42.9		133	7	
2025-08-22T07:00	31800	10	-42.9		132	6	
2025-08-22T07:00	31850	9	-42.7		128	5	
2025-08-22T07:00	31900	9	-42.4		124	5	
2025-08-22T07:00	31950	9	-42.1		122	6	
2025-08-22T07:00	32000	9	-41.8		121	7	
2025-08-22T07:00	32050	9	-41.6		120	8	
2025-08-22T07:00	32100	9	-41.6		119	10	
2025-08-22T07:00	32150	9	-41.8		119	11	
2025-08-22T07:00	32200	9	-41.7		119	11	
2025-08-22T07:00	32250	9	-41.5		121	10	
2025-08-22T07:00	32300	9	-41.6		121	8	
2025-08-22T07:00	32350	9	-41.5		120	6	
2025-08-22T07:00	32400	9	-41.4		113	5	
2025-08-22T07:00	32450	9	-40.9		102	5	
2025-08-22T07:00	32500	9	-40.3		94	6	
2025-08-22T07:00	32550	9	-39.8		88	7	
2025-08-22T07:00	32600	8	-39.5		82	7	
2025-08-22T07:00	32650	8	-39.3		75	7	
2025-08-22T07:00	32700	8	-39.3		68	7	
2025-08-22T07:00	32750	8	-39.1		63	8	
2025-08-22T07:00	32800	8	-39.1		61	9	
2025-08-22T07:00	32850	8	-39.3		60	10	
2025-08-22T07:00	32900	8	-39.4		61	11	
2025-08-22T07:00	32950	8	-39.5		62	12	
2025-08-22T07:00	33000	8	-39.8		64	12	
2025-08-22T07:00	33050	8	-39.8		66	12	
2025-08-22T07:00	33100	8	-39.9		68	13	
2025-08-22T07:00	33150	8	-40.1		71	13	
2025-08-22T07:00	33200	8	-40.1		74	14	
2025-08-22T07:00	33250	8	-39.8		78	15	
2025-08-22T07:00	33300	8	-39.9		82	15	
2025-08-22T07:00	33350	8	-39.9		86	15	
2025-08-22T07:00	33400	8	-39.9		92	15	
2025-08-22T07:00	33450	8	-40.1		98	14	
2025-08-22T07:00	33500	7	-40.3		104	14	
2025-08-22T07:00	33550	7	-40.1		111	13	
2025-08-22T07:00	33600	7	-40.1		116	11	
2025-08-22T07:00	33650	7	-40.0		119	10	
2025-08-22T07:00	33700	7	-39.9		121	10	
2025-08-22T07:00	33750	7	-40.1		120	9	
2025-08-22T07:00	33800	7	-40.0		118	10	
2025-08-22T07:00	33850	7	-39.6		116	10	
2025-08-22T07:00	33900	7	-39.0		111	9	
2025-08-22T07:00	33950	7	-38.5		102	8	
2025-08-22T07:00	34000	7	-38.3		91	9	
2025-08-22T07:00	34050	7	-37.8		85	11	
2025-08-22T07:00	34100	7	-36.8		82	12	
2025-08-22T07:00	34150	7	-36.3		81	13	
2025-08-22T07:00	34200	7	-36.1		79	13	
2025-08-22T07:00	34250	7	-35.9		78	12	
2025-08-22T07:00	34300	7	-35.9		80	10	
2025-08-22T07:00	34350	7	-35.7		84	10	
2025-08-22T07:00	34400	7	-35.8		85	10	
2025-08-22T07:00	34450	6	-35.8		80	9	
2025-08-22T07:00	34500	6	-35.7		70	9	
2025-08-22T07:00	34550	6	-35.7		59	9	
2025-08-22T07:00	34600	6	-35.4		52	9	
2025-08-22T07:00	34650	6	-35.2		49	9	
2025-08-22T07:00	34700	6	-35.4		51	10	
2025-08-22T07:00	34750	6	-35.4		56	10	
2025-08-22T07:00	34800	6	-35.1		62	11	
2025-08-22T07:00	34850	6	-34.9		68	12	
2025-08-22T07:00	34900	6	-34.7		74	13	
2025-08-22T07:00	34950	6	-34.5		78	14	
2025-08-22T07:00	35000	6	-34.5		80	14	
2025-08-22T07:00	35050	6	-34.7		78	14	
2025-08-22T07:00	35100	6	-34.7		75	13	
2025-08-22T07:00	35150	6	-34.8		71	13	
2025-08-22T07:00	35200	6	-34.9		68	13	
2025-08-22T07:00	35250	6	-34.9		69	13	
2025-08-22T07:00	35300	6	-34.9		74	13	
2025-08-22T07:00	35350	6	-34.9		81	13	
2025-08-22T07:00	35400	6	-34.8		85	13	
2025-08-22T07:00	35450	6	-34.7		85	13	
2025-08-22T07:00	35500	6	-34.6		78	12	
2025-08-22T07:00	35550	6	-34.4		70	12	
2025-08-22T07:00	35600	5	-34.0		64	13	
2025-08-22T07:00	35650	5	-33.8		60	14	
2025-08-22T07:00	35700	5	-33.6		59	15	
2025-08-22T07:00	35750	5	-33.1		61	15	
2025-08-22T07:00	35800	5	-32.4		62	15	
2025-08-22T12:00	491	960	20.0	13.5	353	2	4.2
2025-08-22T12:00	501	959	19.7	12.3	1	2	4.3
2025-08-22T12:00	520	956	19.2	12.0	357	2	4.4
2025-08-22T12:00	540	954	19.1	11.7	357	3	4.5
2025-08-22T12:00	560	952	19.1	11.7	358	3	4.6
2025-08-22T12:00	580	950	18.8	11.6	359	3	4.6
2025-08-22T12:00	600	948	18.6	11.5	360	3	4.7
2025-08-22T12:00	620	946	18.4	11.6	0	3	4.8
2025-08-22T12:00	640	943	18.2	11.4	1	3	4.8
2025-08-22T12:00	660	941	18.0	11.6	3	3	4.8
2025-08-22T12:00	680	939	17.8	11.7	5	3	4.8
2025-08-22T12:00	700	937	17.6	11.6	8	3	4.8
2025-08-22T12:00	720	935	17.4	11.7	10	3	4.9
2025-08-22T12:00	740	932	17.2	11.7	12	3	4.9
2025-08-22T12:00	760	930	17.0	11.8	13	3	4.8
2025-08-22T12:00	780	928	16.9	11.6	12	4	4.8
2025-08-22T12:00	800	926	16.7	11.5	11	3	4.8
2025-08-22T12:00	820	924	16.5	11.4	9	3	4.8
2025-08-22T12:00	840	921	16.4	11.2	9	4	4.8
2025-08-22T12:00	860	920	16.2	11.1	9	3	4.8
2025-08-22T12:00	880	917	16.0	11.0	12	3	4.8
2025-08-22T12:00	900	915	15.8	10.6	19	3	4.8
2025-08-22T12:00	920	913	15.6	10.7	25	3	4.8
2025-08-22T12:00	940	911	15.5	10.4	29	3	4.8
2025-08-22T12:00	960	909	15.4	10.7	29	3	4.8
2025-08-22T12:00	980	906	15.1	10.9	25	3	4.8
2025-08-22T12:00	1000	904	14.9	11.1	20	3	4.8
2025-08-22T12:00	1020	902	14.6	11.6	18	3	4.8
2025-08-22T12:00	1040	900	14.5	11.3	21	2	4.8
2025-08-22T12:00	1060	898	14.3	11.2	31	2	4.7
2025-08-22T12:00	1080	896	14.2	11.3	41	2	4.7
2025-08-22T12:00	1100	894	13.9	11.4	46	2	4.7
2025-08-22T12:00	1120	892	13.7	11.3	48	2	4.7
2025-08-22T12:00	1140	890	13.6	11.0	48	2	4.7
2025-08-22T12:00	1160	887	13.4	10.7	45	2	4.8
2025-08-22T12:00	1180	885	13.3	10.6	42	2	4.8
2025-08-22T12:00	1200	883	13.2	10.7	38	2	4.7
2025-08-22T12:00	1220	881	13.0	10.4	34	2	4.6
2025-08-22T12:00	1240	879	12.9	10.2	29	2	4.7
2025-08-22T12:00	1260	877	12.8	10.0	25	2	4.7
2025-08-22T12:00	1280	875	12.6	9.9	20	2	4.7
2025-08-22T12:00	1300	872	12.3	9.9	16	2	4.7
2025-08-22T12:00	1320	870	12.1	9.9	13	2	4.7
2025-08-22T12:00	1340	869	12.0	9.9	11	2	4.7
2025-08-22T12:00	1360	866	11.8	9.8	11	2	4.7
2025-08-22T12:00	1380	864	11.7	9.7	13	2	4.7
2025-08-22T12:00	1400	862	11.5	9.5	15	3	4.7
2025-08-22T12:00	1420	860	11.4	9.1	18	3	4.7
2025-08-22T12:00	1440	858	11.3	8.8	20	3	4.7
2025-08-22T12:00	1460	856	11.1	8.8	22	3	4.7
2025-08-22T12:00	1480	854	10.9	8.6	24	3	4.7
2025-08-22T12:00	1500	852	10.7	8.4	24	2	4.7
2025-08-22T12:00	1520	850	10.6	8.3	25	2	4.7
2025-08-22T12:00	1540	848	10.4	8.2	28	2	4.8
2025-08-22T12:00	1560	846	10.4	7.7	33	1	4.8
2025-08-22T12:00	1580	844	10.3	7.6	39	1	4.8
2025-08-22T12:00	1600	842	10.1	7.5	44	1	4.8
2025-08-22T12:00	1620	840	10.1	7.0	47	1	4.8
2025-08-22T12:00	1640	838	10.1	6.6	43	1	4.8
2025-08-22T12:00	1660	836	10.0	6.5	29	1	4.9
2025-08-22T12:00	1680	834	9.9	6.3	13	0	4.9
2025-08-22T12:00	1700	832	9.7	6.4	358	0	4.9
2025-08-22T12:00	1720	830	9.6	6.0	178	0	4.9
2025-08-22T12:00	1740	828	9.6	5.7	167	0	4.9
2025-08-22T12:00	1760	826	9.5	5.8	163	1	4.9
2025-08-22T12:00	1780	824	9.3	5.8	162	1	4.9
2025-08-22T12:00	1800	822	9.2	5.6	164	1	4.9
2025-08-22T12:00	1820	820	9.1	5.4	170	1	4.9
2025-08-22T12:00	1840	818	8.9	5.4	180	1	4.9
2025-08-22T12:00	1860	816	8.8	5.2	190	1	4.9
2025-08-22T12:00	1880	814	8.6	5.1	196	1	4.9
2025-08-22T12:00	1900	812	8.5	4.9	199	1	4.9
2025-08-22T12:00	1920	810	8.3	5.0	199	2	4.9
2025-08-22T12:00	1940	808	8.1	4.9	196	2	4.9
2025-08-22T12:00	1960	806	8.0	5.0	192	2	4.9
2025-08-22T12:00	1980	804	7.8	5.3	186	2	4.9
2025-08-22T12:00	2000	802	7.6	5.2	181	2	4.8
2025-08-22T12:00	2020	800	7.6	5.2	177	3	4.8
2025-08-22T12:00	2040	798	7.4	5.1	177	3	4.8
2025-08-22T12:00	2060	796	7.2	4.8	182	3	4.8
2025-08-22T12:00	2080	794	7.1	4.6	190	3	4.7
2025-08-22T12:00	2100	793	7.0	4.6	201	3	4.7
2025-08-22T12:00	2120	791	6.8	4.5	209	3	4.7
2025-08-22T12:00	2140	789	6.7	4.2	214	3	4.6
2025-08-22T12:00	2160	787	6.7	3.6	214	3	4.7
2025-08-22T12:00	2180	785	6.5	3.4	212	3	4.7
2025-08-22T12:00	2200	783	6.3	3.3	208	3	4.7
2025-08-22T12:00	2220	781	6.2	3.3	204	3	4.7
2025-08-22T12:00	2240	779	6.1	3.2	201	3	4.8
2025-08-22T12:00	2260	777	5.9	3.1	198	3	4.8
2025-08-22T12:00	2280	775	5.7	3.2	196	3	4.8
2025-08-22T12:00	2300	773	5.6	3.2	197	3	4.7
2025-08-22T12:00	2320	772	5.4	3.0	199	3	4.6
2025-08-22T12:00	2340	770	5.4	2.8	201	3	4.6
2025-08-22T12:00	2360	768	5.2	2.8	203	3	4.6
2025-08-22T12:00	2380	766	5.1	2.6	203	4	4.6
2025-08-22T12:00	2400	764	5.0	2.4	203	4	4.6
2025-08-22T12:00	2420	762	4.8	2.3	203	4	4.6
2025-08-22T12:00	2440	760	4.7	1.9	202	4	4.6
2025-08-22T12:00	2460	758	4.6	1.8	202	4	4.6
2025-08-22T12:00	2480	757	4.5	1.7	202	4	4.6
2025-08-22T12:00	2500	755	4.3	1.4	202	4	4.6
2025-08-22T12:00	2520	753	4.3	0.8	203	3	4.5
2025-08-22T12:00	2540	751	4.1	1.1	204	3	4.6
2025-08-22T12:00	2560	749	3.9	1.1	206	4	4.6
2025-08-22T12:00	2580	747	3.8	0.6	208	4	4.5
2025-08-22T12:00	2600	746	3.8	-0.2	209	4	4.5
2025-08-22T12:00	2620	744	3.6	-0.2	212	3	4.5
2025-08-22T12:00	2640	742	3.4	-0.3	213	3	4.5
2025-08-22T12:00	2660	740	3.4	-0.8	215	3	4.5
2025-08-22T12:00	2680	738	3.3	-0.9	216	3	4.5
2025-08-22T12:00	2700	736	3.2	-1.1	216	3	4.5
2025-08-22T12:00	2720	735	3.0	-1.2	216	3	4.5
2025-08-22T12:00	2740	733	2.8	-1.2	215	3	4.5
2025-08-22T12:00	2760	731	2.7	-1.5	215	3	4.5
2025-08-22T12:00	2780	729	2.7	-1.7	214	3	4.5
2025-08-22T12:00	2800	727	2.5	-1.9	216	2	4.5
2025-08-22T12:00	2820	726	2.3	-2.3	218	2	4.5
2025-08-22T12:00	2840	724	2.2	-3.0	224	2	4.4
2025-08-22T12:00	2860	722	2.2	-4.8	233	1	4.5
2025-08-22T12:00	2880	720	2.0	-4.9	244	1	4.4
2025-08-22T12:00	2900	719	1.9	-4.5	263	1	4.4
2025-08-22T12:00	2920	717	1.6	-5.6	287	1	4.4
2025-08-22T12:00	2940	715	1.7	-8.0	311	1	4.4
2025-08-22T12:00	2960	713	1.9	-10.9	329	2	4.4
2025-08-22T12:00	2980	712	1.8	-15.7	338	2	4.3
2025-08-22T12:00	3000	710	2.0	-23.6	342	3	4.3
2025-08-22T12:00	3020	708	2.2	-30.9	344	4	4.2
2025-08-22T12:00	3040	706	2.3	-33.0	344	4	4.3
2025-08-22T12:00	3060	704	2.4	-35.3	345	5	4.3
2025-08-22T12:00	3080	703	2.5	-35.8	345	5	4.2
2025-08-22T12:00	3100	701	2.7	-36.1	347	5	4.1
2025-08-22T12:00	3120	699	2.7	-35.7	349	5	4.0
2025-08-22T12:00	3140	697	2.7	-35.7	350	5	3.9
2025-08-22T12:00	3160	696	2.6	-35.2	352	5	3.8
2025-08-22T12:00	3180	694	2.5	-30.6	353	5	3.8
2025-08-22T12:00	3200	692	2.3	-16.9	353	5	3.7
2025-08-22T12:00	3220	690	2.1	-12.3	351	5	3.7
2025-08-22T12:00	3240	689	2.0	-11.9	350	4	3.6
2025-08-22T12:00	3260	687	2.0	-11.9	347	4	3.6
2025-08-22T12:00	3280	686	1.8	-12.0	345	4	3.5
2025-08-22T12:00	3300	684	1.6	-12.1	343	3	3.5
2025-08-22T12:00	3320	682	1.6	-12.3	342	3	3.4
2025-08-22T12:00	3340	680	1.5	-12.0	343	3	3.4
2025-08-22T12:00	3360	679	1.3	-11.8	345	3	3.4
2025-08-22T12:00	3380	677	1.2	-11.9	347	3	3.3
2025-08-22T12:00	3400	675	1.0	-11.7	348	3	3.3
2025-08-22T12:00	3420	674	0.8	-11.6	346	4	3.3
2025-08-22T12:00	3440	672	0.6	-11.6	343	4	3.3
2025-08-22T12:00	3460	670	0.6	-12.0	338	4	3.3
2025-08-22T12:00	3480	669	0.5	-12.2	334	5	3.3
2025-08-22T12:00	3500	667	0.5	-12.8	330	5	3.3
2025-08-22T12:00	3520	665	0.5	-13.2	326	5	3.3
2025-08-22T12:00	3540	664	0.5	-13.4	324	5	3.4
2025-08-22T12:00	3560	662	0.4	-12.9	324	5	3.4
2025-08-22T12:00	3580	660	0.3	-12.1	324	5	3.4
2025-08-22T12:00	3600	659	0.2	-12.0	327	5	3.5
2025-08-22T12:00	3620	657	0.0	-12.0	330	5	3.5
2025-08-22T12:00	3640	655	-0.2	-12.0	332	5	3.4
2025-08-22T12:00	3660	654	-0.4	-12.2	333	5	3.4
2025-08-22T12:00	3680	652	-0.5	-12.4	334	5	3.4
2025-08-22T12:00	3700	651	-0.7	-13.0	335	5	3.4
2025-08-22T12:00	3720	649	-0.8	-14.8	335	5	3.4
2025-08-22T12:00	3740	647	-1.0	-15.7	335	5	3.4
2025-08-22T12:00	3760	646	-1.1	-14.6	335	4	3.4
2025-08-22T12:00	3780	644	-1.2	-14.3	333	4	3.4
2025-08-22T12:00	3800	643	-1.3	-15.6	332	4	3.4
2025-08-22T12:00	3820	641	-1.5	-16.1	331	4	3.4
2025-08-22T12:00	3840	639	-1.6	-16.4	330	4	3.4
2025-08-22T12:00	3860	638	-1.6	-16.8	330	4	3.5
2025-08-22T12:00	3880	636	-1.7	-17.3	330	5	3.5
2025-08-22T12:00	3900	634	-1.7	-17.6	330	5	3.5
2025-08-22T12:00	3920	633	-1.7	-17.7	331	5	3.5
2025-08-22T12:00	3940	631	-1.9	-17.7	331	6	3.5
2025-08-22T12:00	3960	630	-2.1	-17.8	330	6	3.5
2025-08-22T12:00	3980	628	-2.2	-18.3	329	6	3.5
2025-08-22T12:00	4000	626	-2.3	-18.9	329	6	3.5
2025-08-22T12:00	4020	625	-2.4	-20.1	328	6	3.4
2025-08-22T12:00	4040	623	-2.4	-20.5	328	6	3.4
2025-08-22T12:00	4060	622	-2.4	-20.6	328	6	3.4
2025-08-22T12:00	4080	620	-2.6	-20.7	328	6	3.3
2025-08-22T12:00	4100	619	-2.7	-20.7	328	6	3.3
2025-08-22T12:00	4120	617	-2.9	-20.6	327	6	3.3
2025-08-22T12:00	4140	616	-3.1	-20.5	326	6	3.3
2025-08-22T12:00	4160	614	-3.1	-21.1	325	6	3.3
2025-08-22T12:00	4180	612	-3.1	-22.0	323	6	3.2
2025-08-22T12:00	4200	611	-3.2	-22.3	321	6	3.3
2025-08-22T12:00	4220	609	-3.2	-21.8	319	6	3.4
2025-08-22T12:00	4240	608	-3.3	-22.0	317	6	3.5
2025-08-22T12:00	4260	606	-3.3	-25.2	316	6	3.6
2025-08-22T12:00	4280	605	-3.4	-28.5	313	7	3.7
2025-08-22T12:00	4300	603	-3.5	-28.5	311	7	3.7
2025-08-22T12:00	4320	602	-3.5	-28.5	310	7	3.7
2025-08-22T12:00	4340	600	-3.7	-27.1	309	7	3.7
2025-08-22T12:00	4360	599	-3.8	-22.2	309	7	3.7
2025-08-22T12:00	4380	597	-4.0	-22.0	310	7	3.8
2025-08-22T12:00	4400	595	-4.0	-22.4	312	7	4.0
2025-08-22T12:00	4420	594	-4.2	-22.6	313	7	4.2
2025-08-22T12:00	4440	593	-4.4	-23.7	314	7	4.3
2025-08-22T12:00	4460	591	-4.5	-24.2	314	7	4.3
2025-08-22T12:00	4480	589	-4.7	-24.4	314	7	4.3
2025-08-22T12:00	4500	588	-4.7	-24.6	314	7	4.2
2025-08-22T12:00	4520	586	-4.8	-24.9	313	7	4.1
2025-08-22T12:00	4540	585	-5.0	-25.6	312	7	4.0
2025-08-22T12:00	4560	583	-5.2	-26.4	311	8	4.0
2025-08-22T12:00	4580	582	-5.3	-26.3	310	8	4.0
2025-08-22T12:00	4600	581	-5.4	-26.0	310	8	3.9
2025-08-22T12:00	4620	579	-5.5	-25.7	309	8	3.8
2025-08-22T12:00	4640	578	-5.6	-26.0	308	8	3.7
2025-08-22T12:00	4660	576	-5.7	-25.5	307	8	3.5
2025-08-22T12:00	4680	575	-5.8	-26.4	306	7	3.4
2025-08-22T12:00	4700	573	-5.9	-26.4	304	7	3.3
2025-08-22T12:00	4720	572	-6.0	-26.8	302	7	3.2
2025-08-22T12:00	4740	570	-6.2	-27.5	302	7	3.2
2025-08-22T12:00	4760	569	-6.3	-28.4	302	7	3.2
2025-08-22T12:00	4780	567	-6.5	-28.9	302	7	3.1
2025-08-22T12:00	4800	566	-6.5	-28.7	303	7	3.1
2025-08-22T12:00	4820	564	-6.6	-28.8	305	8	3.2
2025-08-22T12:00	4840	563	-6.6	-28.9	306	8	3.2
2025-08-22T12:00	4860	561	-6.8	-29.3	308	8	3.2
2025-08-22T12:00	4880	560	-6.8	-30.7	309	8	3.3
2025-08-22T12:00	4900	559	-6.9	-31.1	309	8	3.3
2025-08-22T12:00	4920	557	-6.9	-30.9	308	8	3.2
2025-08-22T12:00	4940	556	-7.0	-30.6	306	8	3.1
2025-08-22T12:00	4960	554	-7.2	-30.3	304	8	3.1
2025-08-22T12:00	4980	553	-7.4	-30.8	303	8	3.1
2025-08-22T12:00	5000	552	-7.6	-30.5	302	8	3.0
2025-08-22T12:00	5020	550	-7.8	-28.7	301	8	3.0
2025-08-22T12:00	5040	549	-7.8	-26.5	302	8	3.0
2025-08-22T12:00	5060	547	-7.9	-26.5	303	8	3.0
2025-08-22T12:00	5080	546	-8.1	-26.7	305	7	3.0
2025-08-22T12:00	5100	545	-8.4	-29.1	307	7	3.0
2025-08-22T12:00	5120	543	-8.4	-32.1	309	7	3.0
2025-08-22T12:00	5140	542	-8.5	-32.1	309	7	3.0
2025-08-22T12:00	5160	540	-8.7	-32.2	309	7	3.0
2025-08-22T12:00	5180	539	-8.9	-31.8	307	7	3.0
2025-08-22T12:00	5200	537	-9.1	-31.6	305	7	3.0
2025-08-22T12:00	5220	536	-9.2	-31.5	302	7	3.0
2025-08-22T12:00	5240	535	-9.3	-31.1	299	7	3.0
2025-08-22T12:00	5260	533	-9.5	-31.4	296	7	3.0
2025-08-22T12:00	5280	532	-9.7	-31.6	294	7	2.9
2025-08-22T12:00	5300	530	-9.8	-31.6	293	7	2.9
2025-08-22T12:00	5320	529	-10.0	-31.5	293	7	3.0
2025-08-22T12:00	5340	528	-10.2	-31.9	293	7	3.0
2025-08-22T12:00	5360	527	-10.3	-32.1	293	7	2.9
2025-08-22T12:00	5380	525	-10.4	-31.4	294	7	3.0
2025-08-22T12:00	5400	524	-10.6	-31.9	295	7	3.0
2025-08-22T12:00	5420	522	-10.7	-32.7	295	7	3.0
2025-08-22T12:00	5440	521	-10.9	-32.1	295	7	3.0
2025-08-22T12:00	5460	520	-11.1	-31.9	293	7	3.0
2025-08-22T12:00	5480	518	-11.3	-31.5	291	7	3.0
2025-08-22T12:00	5500	517	-11.5	-30.9	289	7	3.0
2025-08-22T12:00	5520	516	-11.7	-30.5	287	7	3.0
2025-08-22T12:00	5540	514	-11.9	-29.4	285	7	2.9
2025-08-22T12:00	5560	513	-12.1	-29.0	284	7	2.9
2025-08-22T12:00	5580	512	-12.3	-28.8	284	7	2.9
2025-08-22T12:00	5600	510	-12.5	-28.2	285	7	2.9
2025-08-22T12:00	5620	509	-12.6	-28.1	286	7	2.8
2025-08-22T12:00	5640	508	-12.8	-28.4	287	6	2.8
2025-08-22T12:00	5660	506	-13.0	-28.6	288	6	2.7
2025-08-22T12:00	5680	505	-13.1	-28.8	289	7	2.7
2025-08-22T12:00	5700	504	-13.3	-28.9	289	7	2.7
2025-08-22T12:00	5720	502	-13.4	-29.1	290	7	2.6
2025-08-22T12:00	5740	501	-13.6	-29.2	290	7	2.6
2025-08-22T12:00	5760	500	-13.8	-29.3	290	7	2.6
2025-08-22T12:00	5780	498	-14.0	-29.4	290	7	2.6
2025-08-22T12:00	5800	497	-14.1	-29.5	290	7	2.6
2025-08-22T12:00	5820	496	-14.3	-29.6	290	7	2.5
2025-08-22T12:00	5840	494	-14.4	-29.6	289	7	2.5
2025-08-22T12:00	5860	493	-14.5	-29.7	289	8	2.5
2025-08-22T12:00	5880	492	-14.7	-29.9	288	8	2.5
2025-08-22T12:00	5900	490	-14.8	-29.9	287	8	2.5
2025-08-22T12:00	5920	489	-14.9	-29.8	286	8	2.5
2025-08-22T12:00	5940	488	-15.1	-29.9	285	8	2.5
2025-08-22T12:00	5960	487	-15.4	-29.9	285	8	2.5
2025-08-22T12:00	5980	485	-15.5	-30.1	285	8	2.5
2025-08-22T12:00	6000	484	-15.5	-30.3	285	8	2.5
2025-08-22T12:00	6020	483	-15.7	-30.7	285	8	2.4
2025-08-22T12:00	6040	481	-15.9	-31.4	286	8	2.4
2025-08-22T12:00	6060	480	-16.1	-32.2	286	8	2.4
2025-08-22T12:00	6080	479	-16.3	-33.6	286	8	2.4
2025-08-22T12:00	6100	478	-16.4	-34.0	286	8	2.5
2025-08-22T12:00	6120	476	-16.5	-33.3	285	8	2.5
2025-08-22T12:00	6140	475	-16.6	-32.5	284	8	2.5
2025-08-22T12:00	6160	474	-16.7	-32.7	283	8	2.5
2025-08-22T12:00	6180	473	-17.0	-32.4	283	8	2.5
2025-08-22T12:00	6200	471	-17.2	-32.3	284	8	2.5
2025-08-22T12:00	6220	470	-17.3	-32.4	286	8	2.4
2025-08-22T12:00	6240	469	-17.5	-32.6	288	8	2.4
2025-08-22T12:00	6260	468	-17.6	-32.7	289	8	2.4
2025-08-22T12:00	6280	467	-17.8	-33.1	290	8	2.4
2025-08-22T12:00	6300	465	-18.0	-33.3	290	8	2.4
2025-08-22T12:00	6320	464	-18.1	-33.9	290	8	2.4
2025-08-22T12:00	6340	463	-18.3	-34.3	289	8	2.4
2025-08-22T12:00	6360	461	-18.4	-34.5	289	8	2.4
2025-08-22T12:00	6380	460	-18.6	-34.8	289	8	2.4
2025-08-22T12:00	6400	459	-18.7	-35.2	289	8	2.4
2025-08-22T12:00	6420	458	-18.9	-36.2	289	8	2.4
2025-08-22T12:00	6440	456	-19.0	-37.3	289	8	2.4
2025-08-22T12:00	6460	455	-19.1	-38.0	290	8	2.4
2025-08-22T12:00	6480	454	-19.2	-37.0	290	8	2.5
2025-08-22T12:00	6500	453	-19.4	-36.6	291	8	2.5
2025-08-22T12:00	6520	452	-19.6	-38.3	292	8	2.6
2025-08-22T12:00	6540	450	-19.7	-36.9	292	7	2.7
2025-08-22T12:00	6560	449	-19.9	-36.6	293	7	2.8
2025-08-22T12:00	6580	448	-20.0	-36.5	294	7	2.8
2025-08-22T12:00	6600	447	-20.1	-36.0	294	7	2.9
2025-08-22T12:00	6620	446	-20.3	-35.4	295	8	2.9
2025-08-22T12:00	6640	444	-20.6	-35.0	295	8	3.0
2025-08-22T12:00	6660	443	-20.7	-34.5	295	8	3.1
2025-08-22T12:00	6680	442	-20.9	-34.6	294	9	3.2
2025-08-22T12:00	6700	441	-21.0	-34.4	294	9	3.3
2025-08-22T12:00	6720	440	-21.2	-34.4	293	9	3.3
2025-08-22T12:00	6740	438	-21.4	-34.5	292	10	3.4
2025-08-22T12:00	6760	437	-21.5	-34.6	291	10	3.4
2025-08-22T12:00	6780	436	-21.6	-34.6	291	10	3.4
2025-08-22T12:00	6800	435	-21.8	-34.6	290	10	3.5
2025-08-22T12:00	6820	434	-22.0	-34.6	290	10	3.5
2025-08-22T12:00	6840	432	-22.1	-34.2	291	10	3.5
2025-08-22T12:00	6860	431	-22.3	-34.2	291	10	3.5
2025-08-22T12:00	6880	430	-22.4	-34.2	292	10	3.5
2025-08-22T12:00	6900	429	-22.6	-33.9	292	10	3.5
2025-08-22T12:00	6920	428	-22.8	-33.9	293	10	3.5
2025-08-22T12:00	6940	427	-22.8	-34.6	293	10	3.6
2025-08-22T12:00	6960	425	-23.0	-36.2	292	10	3.6
2025-08-22T12:00	6980	424	-23.1	-36.8	292	10	3.6
2025-08-22T12:00	7000	423	-23.2	-36.9	292	10	3.5
2025-08-22T12:00	7020	422	-23.4	-37.0	292	10	3.5
2025-08-22T12:00	7040	421	-23.6	-37.6	291	10	3.5
2025-08-22T12:00	7060	420	-23.7	-37.4	291	10	3.5
2025-08-22T12:00	7080	418	-23.9	-35.5	290	10	3.5
2025-08-22T12:00	7100	417	-24.0	-33.9	289	10	3.4
2025-08-22T12:00	7120	416	-24.1	-33.3	289	10	3.4
2025-08-22T12:00	7140	415	-24.4	-33.5	288	10	3.4
2025-08-22T12:00	7160	414	-24.5	-33.6	288	9	3.4
2025-08-22T12:00	7180	413	-24.7	-33.8	287	9	3.4
2025-08-22T12:00	7200	412	-24.9	-33.6	287	9	3.4
2025-08-22T12:00	7220	410	-25.1	-33.6	287	9	3.4
2025-08-22T12:00	7240	409	-25.3	-33.5	287	9	3.4
2025-08-22T12:00	7260	408	-25.5	-33.3	287	9	3.4
2025-08-22T12:00	7280	407	-25.6	-33.3	288	9	3.3
2025-08-22T12:00	7300	406	-25.8	-33.5	288	9	3.3
2025-08-22T12:00	7320	405	-26.1	-33.8	288	9	3.4
2025-08-22T12:00	7340	404	-26.2	-34.1	288	9	3.4
2025-08-22T12:00	7360	403	-26.3	-34.1	288	9	3.5
2025-08-22T12:00	7380	402	-26.5	-34.1	288	9	3.5
2025-08-22T12:00	7400	400	-26.8	-34.3	289	9	3.5
2025-08-22T12:00	7420	399	-26.9	-34.3	289	9	3.5
2025-08-22T12:00	7440	398	-27.0	-34.4	290	9	3.6
2025-08-22T12:00	7460	397	-27.2	-34.8	290	9	3.6
2025-08-22T12:00	7480	396	-27.3	-34.9	291	9	3.6
2025-08-22T12:00	7500	395	-27.5	-35.2	291	9	3.5
2025-08-22T12:00	7520	394	-27.6	-35.2	291	9	3.5
2025-08-22T12:00	7540	393	-27.8	-35.2	291	9	3.5
2025-08-22T12:00	7560	392	-27.9	-35.7	291	9	3.5
2025-08-22T12:00	7580	391	-28.0	-36.1	291	9	3.5
2025-08-22T12:00	7600	390	-28.2	-36.2	291	9	3.5
2025-08-22T12:00	7620	388	-28.4	-36.6	291	10	3.5
2025-08-22T12:00	7640	387	-28.5	-36.8	291	10	3.5
2025-08-22T12:00	7660	386	-28.6	-36.8	291	10	3.4
2025-08-22T12:00	7680	385	-28.7	-36.8	291	10	3.4
2025-08-22T12:00	7700	384	-28.9	-36.6	291	10	3.4
2025-08-22T12:00	7720	383	-29.1	-36.7	291	11	3.4
2025-08-22T12:00	7740	382	-29.2	-37.1	291	11	3.3
2025-08-22T12:00	7760	381	-29.4	-37.5	291	11	3.3
2025-08-22T12:00	7780	380	-29.5	-38.1	290	11	3.2
2025-08-22T12:00	7800	379	-29.5	-39.1	290	11	3.2
2025-08-22T12:00	7820	378	-29.7	-39.4	290	11	3.1
2025-08-22T12:00	7840	377	-29.8	-39.4	290	11	3.1
2025-08-22T12:00	7860	376	-30.0	-39.3	290	11	3.1
2025-08-22T12:00	7880	374	-30.2	-39.5	290	11	3.1
2025-08-22T12:00	7900	373	-30.4	-39.3	290	11	3.1
2025-08-22T12:00	7920	372	-30.5	-39.5	290	11	3.1
2025-08-22T12:00	7940	371	-30.7	-39.9	290	11	3.1
2025-08-22T12:00	7960	370	-30.8	-40.3	290	11	3.1
2025-08-22T12:00	7980	369	-31.0	-40.5	290	11	3.0
2025-08-22T12:00	8000	368	-31.2	-40.5	290	11	3.0
2025-08-22T12:00	8020	367	-31.4	-40.5	289	12	3.0
2025-08-22T12:00	8040	366	-31.6	-40.6	288	11	3.0
2025-08-22T12:00	8060	365	-31.7	-40.8	287	11	3.0
2025-08-22T12:00	8080	364	-31.8	-40.9	286	11	3.0
2025-08-22T12:00	8100	363	-32.0	-41.2	285	11	3.0
2025-08-22T12:00	8120	362	-32.2	-41.2	284	11	3.0
2025-08-22T12:00	8140	361	-32.3	-41.6	283	11	3.0
2025-08-22T12:00	8160	360	-32.4	-41.8	283	11	3.0
2025-08-22T12:00	8180	359	-32.5	-42.1	283	11	3.0
2025-08-22T12:00	8200	358	-32.7	-43.2	283	11	3.0
2025-08-22T12:00	8220	357	-32.9	-43.7	284	11	2.9
2025-08-22T12:00	8240	356	-33.0	-44.1	285	11	2.9
2025-08-22T12:00	8260	355	-33.1	-45.2	286	11	2.9
2025-08-22T12:00	8280	354	-33.2	-46.2	288	11	2.8
2025-08-22T12:00	8300	353	-33.3	-46.4	289	11	2.8
2025-08-22T12:00	8320	352	-33.5	-46.5	289	11	2.8
2025-08-22T12:00	8340	351	-33.6	-46.5	290	11	2.7
2025-08-22T12:00	8360	350	-33.8	-46.1	290	11	2.7
2025-08-22T12:00	8380	349	-34.0	-45.5	290	11	2.7
2025-08-22T12:00	8400	348	-34.1	-44.5	289	11	2.7
2025-08-22T12:00	8420	347	-34.2	-44.4	289	11	2.7
2025-08-22T12:00	8440	346	-34.4	-45.4	288	11	2.8
2025-08-22T12:00	8460	345	-34.5	-46.6	287	11	2.8
2025-08-22T12:00	8480	344	-34.7	-46.9	286	11	2.8
2025-08-22T12:00	8500	343	-34.8	-46.9	285	11	2.8
2025-08-22T12:00	8520	342	-35.0	-47.4	284	12	2.8
2025-08-22T12:00	8540	341	-35.1	-47.9	283	12	2.8
2025-08-22T12:00	8560	340	-35.2	-48.4	282	12	2.8
2025-08-22T12:00	8580	339	-35.4	-48.5	282	12	2.8
2025-08-22T12:00	8600	338	-35.6	-48.7	281	12	2.8
2025-08-22T12:00	8620	337	-35.7	-49.3	281	12	2.7
2025-08-22T12:00	8640	336	-35.8	-50.0	281	12	2.7
2025-08-22T12:00	8660	335	-35.9	-51.0	281	12	2.7
2025-08-22T12:00	8680	334	-36.1	-50.3	281	12	2.7
2025-08-22T12:00	8700	333	-36.3	-50.8	281	12	2.6
2025-08-22T12:00	8720	332	-36.4	-51.4	280	12	2.5
2025-08-22T12:00	8740	331	-36.5	-52.2	280	12	2.5
2025-08-22T12:00	8760	330	-36.6	-53.0	280	12	2.5
2025-08-22T12:00	8780	329	-36.7	-52.2	280	12	2.4
2025-08-22T12:00	8800	328	-36.9	-50.7	280	12	2.4
2025-08-22T12:00	8820	327	-37.1	-50.7	280	12	2.4
2025-08-22T12:00	8840	327	-37.2	-50.8	280	12	2.3
2025-08-22T12:00	8860	326	-37.4	-51.3	280	12	2.3
2025-08-22T12:00	8880	325	-37.5	-51.7	280	12	2.3
2025-08-22T12:00	8900	324	-37.8	-51.7	280	12	2.2
2025-08-22T12:00	8920	323	-37.9	-51.8	280	12	2.2
2025-08-22T12:00	8940	322	-38.0	-52.6	279	12	2.2
2025-08-22T12:00	8960	321	-38.2	-53.7	279	12	2.2
2025-08-22T12:00	8980	320	-38.4	-53.1	279	12	2.2
2025-08-22T12:00	9000	319	-38.5	-52.5	278	12	2.2
2025-08-22T12:00	9020	318	-38.6	-52.6	278	12	2.2
2025-08-22T12:00	9040	317	-38.8	-52.6	278	11	2.2
2025-08-22T12:00	9060	316	-39.0	-52.3	277	11	2.2
2025-08-22T12:00	9080	315	-39.2	-52.1	277	11	2.2
2025-08-22T12:00	9100	314	-39.3	-52.7	276	11	2.2
2025-08-22T12:00	9120	313	-39.5	-53.2	275	11	2.1
2025-08-22T12:00	9140	313	-39.7	-53.1	275	11	2.1
2025-08-22T12:00	9160	312	-39.8	-53.3	274	11	2.1
2025-08-22T12:00	9180	311	-40.0	-53.6	273	11	2.1
2025-08-22T12:00	9200	310	-40.1	-54.1	272	11	2.1
2025-08-22T12:00	9220	309	-40.3	-54.2	271	12	2.1
2025-08-22T12:00	9240	308	-40.4	-54.2	271	12	2.1
2025-08-22T12:00	9260	307	-40.5	-54.4	270	12	2.1
2025-08-22T12:00	9280	306	-40.7	-54.3	270	12	2.1
2025-08-22T12:00	9300	305	-40.8	-54.4	270	12	2.1
2025-08-22T12:00	9320	304	-41.0	-54.6	270	12	2.1
2025-08-22T12:00	9340	303	-41.2	-54.6	270	12	2.1
2025-08-22T12:00	9360	303	-41.3	-54.9	270	12	2.1
2025-08-22T12:00	9380	302	-41.4	-55.1	270	12	2.1
2025-08-22T12:00	9400	301	-41.6	-55.1	270	12	2.1
2025-08-22T12:00	9420	300	-41.8	-54.7	269	12	2.2
2025-08-22T12:00	9440	299	-42.0	-54.6	269	12	2.2
2025-08-22T12:00	9460	298	-42.1	-55.0	269	12	2.2
2025-08-22T12:00	9480	297	-42.2	-55.6	269	12	2.2
2025-08-22T12:00	9500	296	-42.4	-56.1	268	12	2.2
2025-08-22T12:00	9520	296	-42.6	-55.4	268	12	2.2
2025-08-22T12:00	9540	295	-42.7	-53.6	268	12	2.2
2025-08-22T12:00	9560	294	-42.8	-52.5	268	12	2.3
2025-08-22T12:00	9580	293	-42.9	-52.3	267	12	2.3
2025-08-22T12:00	9600	292	-43.2	-52.6	267	12	2.4
2025-08-22T12:00	9620	291	-43.2	-53.6	266	12	2.4
2025-08-22T12:00	9640	290	-43.4	-55.0	266	12	2.5
2025-08-22T12:00	9660	290	-43.5	-57.0	266	12	2.5
2025-08-22T12:00	9680	289	-43.7	-58.3	265	12	2.5
2025-08-22T12:00	9700	288	-43.9	-58.1	265	12	2.5
2025-08-22T12:00	9720	287	-44.0	-58.0	266	12	2.5
2025-08-22T12:00	9740	286	-44.2	-57.8	266	12	2.5
2025-08-22T12:00	9760	285	-44.3	-55.9	267	12	2.5
2025-08-22T12:00	9780	284	-44.4	-55.2	268	12	2.5
2025-08-22T12:00	9800	284	-44.5	-55.7	268	12	2.5
2025-08-22T12:00	9820	283	-44.7	-56.1	269	11	2.5
2025-08-22T12:00	9840	282	-44.8	-56.2	270	11	2.6
2025-08-22T12:00	9860	281	-44.9	-56.9	270	11	2.6
2025-08-22T12:00	9880	280	-45.0	-57.5	271	11	2.7
2025-08-22T12:00	9900	279	-45.2	-57.8	272	11	2.7
2025-08-22T12:00	9920	278	-45.3	-57.8	272	11	2.7
2025-08-22T12:00	9940	278	-45.5	-57.9	273	11	2.7
2025-08-22T12:00	9960	277	-45.6	-58.0	273	11	2.7
2025-08-22T12:00	9980	276	-45.8	-58.1	274	11	2.7
2025-08-22T12:00	10000	275	-45.9	-58.2	274	11	2.7
2025-08-22T12:00	10018	274	-46.1	-58.2	274	11	2.7
2025-08-22T12:00	10050	273	-46.4	-58.3	275	11	2.8
2025-08-22T12:00	10100	271	-46.8	-58.4	275	11	2.8
2025-08-22T12:00	10150	269	-47.1	-58.5	276	11	2.9
2025-08-22T12:00	10200	267	-47.5	-58.5	276	11	3.0
2025-08-22T12:00	10250	265	-47.8	-58.7	277	11	3.1
2025-08-22T12:00	10300	263	-48.3	-59.3	278	11	3.2
2025-08-22T12:00	10350	261	-48.8	-59.6	278	11	3.1
2025-08-22T12:00	10400	259	-49.3	-59.7	277	11	2.8
2025-08-22T12:00	10450	257	-49.7	-60.2	275	11	2.5
2025-08-22T12:00	10500	255	-50.1	-60.2	273	11	2.3
2025-08-22T12:00	10550	253	-50.5	-60.1	272	11	2.2
2025-08-22T12:00	10600	251	-51.0	-60.0	270	11	2.1
2025-08-22T12:00	10650	249	-51.4	-60.2	268	11	2.1
2025-08-22T12:00	10700	247	-51.9	-60.5	265	11	2.1
2025-08-22T12:00	10750	245	-52.2	-60.9	262	11	2.0
2025-08-22T12:00	10800	244	-52.7	-60.9	259	12	2.0
2025-08-22T12:00	10850	242	-53.2	-60.8	256	12	2.1
2025-08-22T12:00	10900	240	-53.5	-60.8	253	13	2.2
2025-08-22T12:00	10950	238	-53.7	-61.9	250	14	2.5
2025-08-22T12:00	11000	236	-54.0	-63.8	248	14	2.7
2025-08-22T12:00	11050	234	-54.3	-64.5	247	15	2.7
2025-08-22T12:00	11100	232	-54.5	-65.7	245	16	2.6
2025-08-22T12:00	11150	231	-54.7	-66.5	244	16	2.5
2025-08-22T12:00	11200	229	-55.0	-66.7	243	16	2.4
2025-08-22T12:00	11250	227	-55.5	-66.7	243	17	2.3
2025-08-22T12:00	11300	225	-55.9	-66.5	242	17	2.2
2025-08-22T12:00	11350	224	-56.2	-66.6	242	17	2.1
2025-08-22T12:00	11400	222	-56.3	-66.6	241	18	2.1
2025-08-22T12:00	11450	220	-56.7	-66.6	241	19	2.1
2025-08-22T12:00	11500	218	-57.1	-66.5	242	19	2.1
2025-08-22T12:00	11550	217	-57.5	-66.6	244	19	2.1
2025-08-22T12:00	11600	215	-57.9	-66.8	246	19	2.1
2025-08-22T12:00	11650	213	-58.0	-67.1	248	18	2.1
2025-08-22T12:00	11700	211	-57.9	-67.1	250	17	2.2
2025-08-22T12:00	11750	210	-58.3	-67.1	249	16	2.3
2025-08-22T12:00	11800	208	-57.9	-67.1	249	16	2.4
2025-08-22T12:00	11850	207	-57.2	-68.1	248	16	2.7
2025-08-22T12:00	11900	205	-56.8	-69.0	250	15	3.0
2025-08-22T12:00	11950	203	-56.5	-69.5	254	15	3.2
2025-08-22T12:00	12000	202	-56.2	-71.4	258	14	3.3
2025-08-22T12:00	12050	200	-55.9	-75.9	263	13	3.5
2025-08-22T12:00	12100	198	-55.9	-77.9	267	13	4.0
2025-08-22T12:00	12150	197	-55.8	-77.5	268	13	4.2
2025-08-22T12:00	12200	195	-55.7	-77.3	268	13	4.5
2025-08-22T12:00	12250	194	-55.6	-77.2	269	13	4.7
2025-08-22T12:00	12300	192	-55.6	-77.1	270	12	4.9
2025-08-22T12:00	12350	191	-55.4	-77.2	273	11	4.9
2025-08-22T12:00	12400	189	-54.7	-77.4	277	10	5.0
2025-08-22T12:00	12450	188	-54.5	-77.3	279	10	4.9
2025-08-22T12:00	12500	186	-54.5	-78.1	281	10	4.7
2025-08-22T12:00	12550	185	-54.3	-79.0	282	11	4.8
2025-08-22T12:00	12600	183	-54.3	-79.5	281	11	5.1
2025-08-22T12:00	12650	182	-54.1	-79.7	280	12	5.4
2025-08-22T12:00	12700	181	-54.0	-79.1	279	13	5.6
2025-08-22T12:00	12750	179	-53.9	-77.5	280	13	5.7
2025-08-22T12:00	12800	178	-53.8	-76.7	281	14	5.5
2025-08-22T12:00	12850	177	-53.7	-77.0	281	14	5.3
2025-08-22T12:00	12900	175	-53.4	-77.6	282	14	5.1
2025-08-22T12:00	12950	174	-53.3	-78.4	283	14	5.0
2025-08-22T12:00	13000	172	-53.1	-79.4	284	14	4.9
2025-08-22T12:00	13050	171	-53.0	-79.3	285	14	4.9
2025-08-22T12:00	13100	170	-53.0	-78.3	288	14	5.0
2025-08-22T12:00	13150	168	-53.0	-77.9	291	13	4.9
2025-08-22T12:00	13200	167	-52.9	-78.2	293	12	4.9
2025-08-22T12:00	13250	166	-52.9	-78.8	293	12	4.8
2025-08-22T12:00	13300	165	-52.6	-79.6	291	13	4.9
2025-08-22T12:00	13350	163	-52.7	-80.4	290	13	5.0
2025-08-22T12:00	13400	162	-52.1	-80.6	290	13	5.2
2025-08-22T12:00	13450	161	-51.8	-80.6	291	13	5.4
2025-08-22T12:00	13500	160	-51.8	-80.6	291	13	5.5
2025-08-22T12:00	13550	158	-51.9	-80.6	290	12	5.5
2025-08-22T12:00	13600	157	-52.1	-80.6	286	11	5.6
2025-08-22T12:00	13650	156	-52.4	-80.8	283	11	5.6
2025-08-22T12:00	13700	155	-52.4	-80.6	280	11	5.7
2025-08-22T12:00	13750	154	-52.3	-80.6	280	11	5.7
2025-08-22T12:00	13800	152	-52.1	-80.4	279	12	5.3
2025-08-22T12:00	13850	151	-52.3	-80.6	280	12	4.9
2025-08-22T12:00	13900	150	-52.3	-80.5	281	11	4.6
2025-08-22T12:00	13950	149	-52.2	-80.6	282	10	4.4
2025-08-22T12:00	14000	148	-52.1	-80.5	280	10	4.3
2025-08-22T12:00	14050	147	-52.2	-80.6	279	10	4.3
2025-08-22T12:00	14100	145	-52.3	-80.6	279	11	4.3
2025-08-22T12:00	14150	144	-52.4	-80.6	281	12	4.5
2025-08-22T12:00	14200	143	-52.7	-80.7	280	12	4.6
2025-08-22T12:00	14250	142	-52.8	-80.9	277	11	4.7
2025-08-22T12:00	14300	141	-52.6	-80.8	272	11	4.8
2025-08-22T12:00	14350	140	-52.9	-81.0	268	11	5.1
2025-08-22T12:00	14400	139	-53.0	-81.0	265	11	5.3
2025-08-22T12:00	14450	138	-53.1	-81.0	264	11	5.5
2025-08-22T12:00	14500	137	-53.3	-81.0	264	11	5.6
2025-08-22T12:00	14550	136	-53.3	-80.9	267	12	5.6
2025-08-22T12:00	14600	135	-53.3	-80.9	272	13	5.6
2025-08-22T12:00	14650	134	-53.2	-81.0	276	14	5.5
2025-08-22T12:00	14700	133	-53.2	-81.3	279	14	5.4
2025-08-22T12:00	14750	131	-53.4	-81.4	281	14	5.3
2025-08-22T12:00	14800	130	-53.5	-81.3	282	14	5.2
2025-08-22T12:00	14850	129	-53.5	-81.4	283	14	5.2
2025-08-22T12:00	14900	128	-53.6	-81.6	282	14	5.1
2025-08-22T12:00	14950	127	-53.7	-81.7	279	14	5.0
2025-08-22T12:00	15000	126	-53.8	-81.7	276	15	4.9
2025-08-22T12:00	15050	125	-53.8	-81.8	275	16	4.7
2025-08-22T12:00	15100	125	-53.7	-81.7	274	16	4.6
2025-08-22T12:00	15150	124	-53.9	-81.7	277	15	4.4
2025-08-22T12:00	15200	123	-54.0	-81.8	281	15	4.4
2025-08-22T12:00	15250	122	-54.1	-81.7	283	13	4.3
2025-08-22T12:00	15300	121	-54.2	-81.7	283	12	4.3
2025-08-22T12:00	15350	120	-54.4	-81.8	281	12	4.4
2025-08-22T12:00	15400	119	-54.4	-81.9	280	11	4.4
2025-08-22T12:00	15450	118	-54.4	-82.0	280	12	4.5
2025-08-22T12:00	15500	117	-54.6	-82.0	283	12	4.5
2025-08-22T12:00	15550	116	-54.6	-82.1	286	12	4.5
2025-08-22T12:00	15600	115	-54.4	-82.0	287	12	4.5
2025-08-22T12:00	15650	114	-54.5	-82.0	283	12	4.6
2025-08-22T12:00	15700	113	-54.7	-82.1	279	12	4.7
2025-08-22T12:00	15750	112	-55.0	-82.2	274	12	4.6
2025-08-22T12:00	15800	112	-55.2	-82.4	270	12	4.6
2025-08-22T12:00	15850	111	-55.3	-82.6	270	12	4.5
2025-08-22T12:00	15900	110	-55.3	-82.6	273	12	4.4
2025-08-22T12:00	15950	109	-55.4	-82.7	271	11	4.4
2025-08-22T12:00	16000	108	-55.5	-82.8	266	11	4.5
2025-08-22T12:00	16050	107	-55.4	-82.8	264	12	4.5
2025-08-22T12:00	16100	107	-55.3	-82.9	265	12	4.5
2025-08-22T12:00	16150	106	-55.3	-82.9	267	13	4.5
2025-08-22T12:00	16200	105	-55.3	-83.0	270	13	4.5
2025-08-22T12:00	16250	104	-55.3	-83.0	272	13	4.6
2025-08-22T12:00	16300	103	-55.4	-83.0	274	13	4.6
2025-08-22T12:00	16350	102	-55.6	-83.0	276	13	4.6
2025-08-22T12:00	16400	102	-55.7	-83.1	277	12	4.6
2025-08-22T12:00	16450	101	-55.5	-83.1	278	12	4.6
2025-08-22T12:00	16500	100	-55.8	-83.2	279	11	4.6
2025-08-22T12:00	16550	99	-56.1	-83.2	278	11	4.7
2025-08-22T12:00	16600	98	-56.2	-83.3	276	11	4.7
2025-08-22T12:00	16650	98	-56.4	-83.4	275	12	4.8
2025-08-22T12:00	16700	97	-56.7	-83.5	278	11	4.7
2025-08-22T12:00	16750	96	-56.8	-83.6	283	10	4.7
2025-08-22T12:00	16800	95	-56.7	-83.8	283	9	4.8
2025-08-22T12:00	16850	95	-56.1	-83.8	279	9	4.9
2025-08-22T12:00	16900	94	-55.7	-83.8	274	8	5.0
2025-08-22T12:00	16950	93	-55.7	-83.8	267	9	5.2
2025-08-22T12:00	17000	92	-55.6	-83.7	260	10	5.3
2025-08-22T12:00	17050	92	-55.5	-83.7	257	11	5.4
2025-08-22T12:00	17100	91	-55.4	-83.6	258	12	5.5
2025-08-22T12:00	17150	90	-55.6	-83.7	260	13	5.5
2025-08-22T12:00	17200	90	-55.3	-83.6	263	13	5.4
2025-08-22T12:00	17250	89	-55.1	-83.6	267	11	5.5
2025-08-22T12:00	17300	88	-55.1	-83.7	268	10	5.6
2025-08-22T12:00	17350	87	-54.7	-83.6	264	8	5.6
2025-08-22T12:00	17400	87	-54.5	-83.6	256	7	5.8
2025-08-22T12:00	17450	86	-54.3	-83.5	254	7	5.9
2025-08-22T12:00	17500	86	-54.2	-83.5	256	8	6.0
2025-08-22T12:00	17550	85	-54.3	-83.5	257	10	6.2
2025-08-22T12:00	17600	84	-54.3	-83.5	258	11	6.4
2025-08-22T12:00	17650	84	-54.4	-83.4	261	12	6.5
2025-08-22T12:00	17700	83	-54.8	-83.5	264	13	6.6
2025-08-22T12:00	17750	82	-55.2	-83.7	266	14	6.6
2025-08-22T12:00	17800	82	-55.3	-83.8	268	14	6.6
2025-08-22T12:00	17850	81	-55.1	-83.9	269	13	6.6
2025-08-22T12:00	17900	80	-55.0	-83.8	271	12	6.7
2025-08-22T12:00	17950	80	-55.1	-83.9	276	12	6.7
2025-08-22T12:00	18000	79	-55.0	-83.8	284	12	6.8
2025-08-22T12:00	18050	78	-55.1	-83.9	291	12	6.8
2025-08-22T12:00	18100	78	-55.1	-83.9	296	13	6.8
2025-08-22T12:00	18150	77	-55.0	-83.9	300	12	6.9
2025-08-22T12:00	18200	77	-55.1	-84.0	302	11	6.9
2025-08-22T12:00	18250	76	-54.8	-83.9	300	10	7.0
2025-08-22T12:00	18300	75	-55.0	-84.0	295	9	7.1
2025-08-22T12:00	18350	75	-55.1	-84.0	288	7	7.3
2025-08-22T12:00	18400	74	-55.0	-84.0	278	6	7.6
2025-08-22T12:00	18450	74	-54.9	-83.9	264	6	7.9
2025-08-22T12:00	18500	73	-55.1	-83.9	255	6	8.2
2025-08-22T12:00	18550	73	-55.4	-84.0	248	7	8.4
2025-08-22T12:00	18600	72	-55.7	-84.0	244	8	8.5
2025-08-22T12:00	18650	71	-56.1	-84.2	243	8	8.5
2025-08-22T12:00	18700	71	-56.5	-84.3	245	9	8.6
2025-08-22T12:00	18750	70	-56.9	-84.5	249	11	8.6
2025-08-22T12:00	18800	70	-57.3	-84.6	253	12	8.6
2025-08-22T12:00	18850	69	-57.6	-84.8	258	12	8.5
2025-08-22T12:00	18900	69	-57.5	-85.0	265	12	8.4
2025-08-22T12:00	18950	68	-57.3	-85.1	272	11	8.4
2025-08-22T12:00	19000	68	-57.0	-85.0	276	11	8.6
2025-08-22T12:00	19050	67	-56.8	-84.9	278	11	8.9
2025-08-22T12:00	19100	66	-56.5	-84.8	277	11	9.4
2025-08-22T12:00	19150	66	-56.3	-84.7	276	10	9.6
2025-08-22T12:00	19200	65	-56.0	-84.7	276	10	9.5
2025-08-22T12:00	19250	65	-55.7	-84.6	275	10	9.4
2025-08-22T12:00	19300	64	-55.7	-84.6	272	8	9.3
2025-08-22T12:00	19350	64	-55.6	-84.6	266	7	9.4
2025-08-22T12:00	19400	63	-55.0	-84.4	258	7	9.4
2025-08-22T12:00	19450	63	-54.9	-84.3	250	8	9.5
2025-08-22T12:00	19500	62	-55.0	-84.3	245	8	9.5
2025-08-22T12:00	19550	62	-55.0	-84.2	246	8	9.6
2025-08-22T12:00	19600	61	-55.0	-84.3	248	8	9.6
2025-08-22T12:00	19650	61	-54.7	-84.2	248	7	9.7
2025-08-22T12:00	19700	61	-54.5	-84.2	243	5	9.8
2025-08-22T12:00	19750	60	-54.3	-84.2	239	5	9.8
2025-08-22T12:00	19800	60	-53.8	-83.9	238	5	10.0
2025-08-22T12:00	19850	59	-53.9	-83.8	239	5	10.1
2025-08-22T12:00	19900	59	-54.3	-83.8	244	5	10.2
2025-08-22T12:00	19950	58	-54.8	-83.8	256	5	10.3
2025-08-22T12:00	20000	58	-55.2	-83.9	267	5	10.3
2025-08-22T12:00	20050	57	-55.6		277	6	10.2
2025-08-22T12:00	20100	57	-56.0		284	6	10.2
2025-08-22T12:00	20150	56	-56.1		288	7	10.2
2025-08-22T12:00	20200	56	-55.8		293	6	10.3
2025-08-22T12:00	20250	56	-55.5		297	5	10.4
2025-08-22T12:00	20300	55	-55.3		291	3	10.6
2025-08-22T12:00	20350	55	-54.7		268	3	10.7
2025-08-22T12:00	20400	54	-54.4		250	3	11.0
2025-08-22T12:00	20450	54	-54.7		243	5	11.1
2025-08-22T12:00	20500	53	-55.0		241	6	11.3
2025-08-22T12:00	20550	53	-55.1		245	6	11.3
2025-08-22T12:00	20600	53	-54.5		251	6	11.3
2025-08-22T12:00	20650	52	-54.2		252	6	11.5
2025-08-22T12:00	20700	52	-54.2		249	6	11.7
2025-08-22T12:00	20750	51	-54.4		249	6	11.9
2025-08-22T12:00	20800	51	-54.7		249	6	11.8
2025-08-22T12:00	20850	51	-55.0		251	6	11.8
2025-08-22T12:00	20900	50	-55.2		255	6	11.9
2025-08-22T12:00	20950	50	-55.1		260	6	11.8
2025-08-22T12:00	21000	49	-55.0		265	7	11.8
2025-08-22T12:00	21050	49	-55.0		270	7	11.9
2025-08-22T12:00	21100	49	-54.7		275	7	11.8
2025-08-22T12:00	21150	48	-54.1		277	6	11.8
2025-08-22T12:00	21200	48	-53.5		273	5	11.9
2025-08-22T12:00	21250	47	-53.1		259	4	11.9
2025-08-22T12:00	21300	47	-53.0		246	5	12.0
2025-08-22T12:00	21350	47	-53.2		242	5	12.0
2025-08-22T12:00	21400	46	-53.6		245	5	11.7
2025-08-22T12:00	21450	46	-53.8		248	5	11.8
2025-08-22T12:00	21500	46	-53.7		249	4	11.8
2025-08-22T12:00	21550	45	-53.5		247	4	11.8
2025-08-22T12:00	21600	45	-53.3		245	4	11.9
2025-08-22T12:00	21650	45	-53.1		244	3	12.0
2025-08-22T12:00	21700	44	-53.2		228	3	12.2
2025-08-22T12:00	21750	44	-53.1		209	4	12.2
2025-08-22T12:00	21800	44	-53.0		206	5	12.5
2025-08-22T12:00	21850	43	-53.1		209	6	11.9
2025-08-22T12:00	21900	43	-53.4		212	6	12.1
2025-08-22T12:00	21950	43	-53.8		215	6	11.7
2025-08-22T12:00	22000	42	-54.3		218	6	11.6
2025-08-22T12:00	22050	42	-54.7		223	5	11.3
2025-08-22T12:00	22100	42	-55.0		230	4	11.1
2025-08-22T12:00	22150	41	-55.2		238	4	11.0
2025-08-22T12:00	22200	41	-55.3		240	4	10.9
2025-08-22T12:00	22250	41	-55.3		243	4	10.8
2025-08-22T12:00	22300	40	-55.4		247	4	10.6
2025-08-22T12:00	22350	40	-54.8		240	3	10.4
2025-08-22T12:00	22400	40	-54.7		220	3	10.3
2025-08-22T12:00	22450	39	-54.7		208	3	10.2
2025-08-22T12:00	22500	39	-55.0		210	4	10.3
2025-08-22T12:00	22550	39	-55.4		225	5	10.3
2025-08-22T12:00	22600	38	-55.5		245	5	10.1
2025-08-22T12:00	22650	38	-55.1		256	7	10.2
2025-08-22T12:00	22700	38	-54.8		260	7	10.4
2025-08-22T12:00	22750	38	-54.3		265	8	10.7
2025-08-22T12:00	22800	37	-53.4		273	8	11.2
2025-08-22T12:00	22850	37	-52.7		282	9	11.6
2025-08-22T12:00	22900	37	-52.4		287	9	11.9
2025-08-22T12:00	22950	36	-52.5		292	9	12.1
2025-08-22T12:00	23000	36	-52.7		299	9	12.2
2025-08-22T12:00	23050	36	-52.4		308	8	12.0
2025-08-22T12:00	23100	36	-52.0		315	7	11.9
2025-08-22T12:00	23150	35	-51.4		314	6	11.7
2025-08-22T12:00	23200	35	-51.4		307	5	11.6
2025-08-22T12:00	23250	35	-51.5		302	4	11.6
2025-08-22T12:00	23300	35	-51.3		306	3	11.6
2025-08-22T12:00	23350	34	-50.8		326	3	11.8
2025-08-22T12:00	23400	34	-50.4		346	3	12.1
2025-08-22T12:00	23450	34	-50.0		11	1	12.3
2025-08-22T12:00	23500	33	-49.6		170	1	12.6
2025-08-22T12:00	23550	33	-49.4		182	3	12.8
2025-08-22T12:00	23600	33	-49.3		181	4	13.0
2025-08-22T12:00	23650	33	-49.4		182	5	13.1
2025-08-22T12:00	23700	32	-49.8		187	6	13.1
2025-08-22T12:00	23750	32	-50.1		191	5	13.1
2025-08-22T12:00	23800	32	-50.4		196	4	13.1
2025-08-22T12:00	23850	32	-50.5		212	1	13.1
2025-08-22T12:00	23900	31	-50.3		359	1	13.2
2025-08-22T12:00	23950	31	-50.2		35	2	13.1
2025-08-22T12:00	24000	31	-50.3		54	3	13.1
2025-08-22T12:00	24050	31	-50.5		75	3	13.0
2025-08-22T12:00	24100	31	-50.3		104	3	13.0
2025-08-22T12:00	24150	30	-50.1		132	4	13.0
2025-08-22T12:00	24200	30	-50.1		146	5	13.1
2025-08-22T12:00	24250	30	-50.2		154	7	13.1
2025-08-22T12:00	24300	30	-50.3		159	8	13.1
2025-08-22T12:00	24350	29	-50.6		162	8	13.1
2025-08-22T12:00	24400	29	-51.0		163	9	13.2
2025-08-22T12:00	24450	29	-51.2		162	8	13.1
2025-08-22T12:00	24500	29	-50.9		153	7	13.1
2025-08-22T12:00	24550	28	-50.9		141	6	13.0
2025-08-22T12:00	24600	28	-50.9		139	6	12.9
2025-08-22T12:00	24650	28	-51.0		150	6	12.9
2025-08-22T12:00	24700	28	-51.1		165	6	12.8
2025-08-22T12:00	24750	28	-50.7		175	6	12.9
2025-08-22T12:00	24800	27	-50.7		182	5	13.1
2025-08-22T12:00	24850	27	-50.6		188	5	13.2
2025-08-22T12:00	24900	27	-50.3		194	4	13.3
2025-08-22T12:00	24950	27	-50.1		198	3	13.4
2025-08-22T12:00	25000	27	-50.2		200	1	13.5
2025-08-22T12:00	25050	26	-50.1		76	0	13.5
2025-08-22T12:00	25100	26	-50.1		44	1	13.5
2025-08-22T12:00	25150	26	-50.2		44	2	13.5
2025-08-22T12:00	25200	26	-50.0		45	2	13.5
2025-08-22T12:00	25250	26	-49.4		64	0	13.5
2025-08-22T12:00	25300	25	-49.2		198	1	13.5
2025-08-22T12:00	25350	25	-49.4		193	1	13.4
2025-08-22T12:00	25400	25	-48.8		173	1	13.4
2025-08-22T12:00	25450	25	-48.5		146	1	13.3
2025-08-22T12:00	25500	25	-48.3		130	2	13.4
2025-08-22T12:00	25550	24	-48.0		123	3	13.3
2025-08-22T12:00	25600	24	-47.8		121	4	13.3
2025-08-22T12:00	25650	24	-48.1		124	4	13.2
2025-08-22T12:00	25700	24	-48.2		129	4	13.2
2025-08-22T12:00	25750	24	-48.2		136	4	13.1
2025-08-22T12:00	25800	24	-48.1		147	5	13.2
2025-08-22T12:00	25850	23	-48.1		157	5	13.1
2025-08-22T12:00	25900	23	-47.8		166	5	13.0
2025-08-22T12:00	25950	23	-47.8		176	5	13.0
2025-08-22T12:00	26000	23	-48.1		185	6	13.0
2025-08-22T12:00	26050	23	-48.5		191	6	12.9
2025-08-22T12:00	26100	22	-48.7		191	6	12.8
2025-08-22T12:00	26150	22	-48.5		182	5	12.8
2025-08-22T12:00	26200	22	-48.2		165	4	12.8
2025-08-22T12:00	26250	22	-47.8		145	4	12.8
2025-08-22T12:00	26300	22	-47.4		136	4	12.8
2025-08-22T12:00	26350	22	-47.3		142	5	12.8
2025-08-22T12:00	26400	22	-47.1		151	6	12.8
2025-08-22T12:00	26450	21	-47.1		159	7	12.7
2025-08-22T12:00	26500	21	-46.9		167	7	12.6
2025-08-22T12:00	26550	21	-46.7		172	6	12.6
2025-08-22T12:00	26600	21	-46.7		176	6	12.7
2025-08-22T12:00	26650	21	-46.8		182	5	12.6
2025-08-22T12:00	26700	21	-47.0		184	4	12.6
2025-08-22T12:00	26750	20	-47.1		175	4	12.6
2025-08-22T12:00	26800	20	-47.1		163	4	12.6
2025-08-22T12:00	26850	20	-46.9		158	3	12.5
2025-08-22T12:00	26900	20	-46.9		161	1	12.4
2025-08-22T12:00	26950	20	-46.9		145	0	12.4
2025-08-22T12:00	27000	20	-46.9		72	1	12.4
2025-08-22T12:00	27050	19	-46.9		98	2	12.3
2025-08-22T12:00	27100	19	-46.6		115	3	12.3
2025-08-22T12:00	27150	19	-46.6		127	5	12.2
2025-08-22T12:00	27200	19	-46.7		137	6	12.2
2025-08-22T12:00	27250	19	-46.9		143	7	12.1
2025-08-22T12:00	27300	19	-47.0		149	8	12.0
2025-08-22T12:00	27350	19	-46.6		159	7	12.0
2025-08-22T12:00	27400	18	-46.4		172	7	11.9
2025-08-22T12:00	27450	18	-46.2		188	6	11.8
2025-08-22T12:00	27500	18	-46.2		203	5	11.8
2025-08-22T12:00	27550	18	-46.1		215	5	11.9
2025-08-22T12:00	27600	18	-46.0		225	5	11.8
2025-08-22T12:00	27650	18	-46.2		235	4	11.8
2025-08-22T12:00	27700	18	-46.2		250	3	11.8
2025-08-22T12:00	27750	18	-46.0		274	2	11.8
2025-08-22T12:00	27800	17	-45.9		302	2	11.7
2025-08-22T12:00	27850	17	-45.7		341	2	11.6
2025-08-22T12:00	27900	17	-45.6		21	2	11.6
2025-08-22T12:00	27950	17	-45.5		59	2	11.5
2025-08-22T12:00	28000	17	-45.6		97	3	11.4
2025-08-22T12:00	28050	17	-45.6		121	4	11.4
2025-08-22T12:00	28100	17	-45.7		132	4	11.2
2025-08-22T12:00	28150	17	-45.8		139	4	11.2
2025-08-22T12:00	28200	16	-45.7		148	2	11.1
2025-08-22T12:00	28250	16	-45.7		153	2	11.0
2025-08-22T12:00	28300	16	-45.7		135	2	11.0
2025-08-22T12:00	28350	16	-45.5		124	3	10.9
2025-08-22T12:00	28400	16	-45.2		123	4	10.9
2025-08-22T12:00	28450	16	-45.1		129	5	10.9
2025-08-22T12:00	28500	16	-44.9		140	5	10.8
2025-08-22T12:00	28550	16	-44.8		154	4	10.8
2025-08-22T12:00	28600	15	-44.9		168	4	10.7
2025-08-22T12:00	28650	15	-45.0		177	3	10.7
2025-08-22T12:00	28700	15	-45.0		178	3	10.6
2025-08-22T12:00	28750	15	-44.6		175	3	10.6
2025-08-22T12:00	28800	15	-44.2		171	3	10.5
2025-08-22T12:00	28850	15	-44.0		166	3	10.5
2025-08-22T12:00	28900	15	-44.0		147	2	10.4
2025-08-22T12:00	28950	15	-43.8		124	3	10.3
2025-08-22T12:00	29000	15	-43.5		116	4	10.2
2025-08-22T12:00	29050	14	-43.6		121	5	10.1
2025-08-22T12:00	29100	14	-43.7		128	6	10.1
2025-08-22T12:00	29150	14	-43.5		134	7	9.9
2025-08-22T12:00	29200	14	-43.3		138	8	9.9
2025-08-22T12:00	29250	14	-43.1		140	8	9.8
2025-08-22T12:00	29300	14	-43.2		144	9	9.7
2025-08-22T12:00	29350	14	-43.4		148	9	9.7
2025-08-22T12:00	29400	14	-43.7		150	9	9.5
2025-08-22T12:00	29450	14	-43.9		151	8	9.5
2025-08-22T12:00	29500	13	-43.7		152	7	9.4
2025-08-22T12:00	29550	13	-43.5		154	5	9.3
2025-08-22T12:00	29600	13	-43.4		158	4	9.2
2025-08-22T12:00	29650	13	-43.5		164	4	9.2
2025-08-22T12:00	29700	13	-43.8		175	3	9.1
2025-08-22T12:00	29750	13	-44.1		191	2	9.0
2025-08-22T12:00	29800	13	-44.4		206	2	9.0
2025-08-22T12:00	29850	13	-44.7		206	2	8.9
2025-08-22T12:00	29900	13	-44.8		193	2	8.8
2025-08-22T12:00	29950	13	-44.7		191	2	8.8
2025-08-22T12:00	30000	13	-44.8		208	2	8.7
2025-08-22T12:00	30050	12	-44.9		217	2	8.7
2025-08-22T12:00	30100	12	-45.1		207	2	8.6
2025-08-22T12:00	30150	12	-45.2		180	2	8.6
2025-08-22T12:00	30200	12	-45.4		161	3	8.5
2025-08-22T12:00	30250	12	-45.6		154	4	8.5
2025-08-22T12:00	30300	12	-45.7		155	5	8.4
2025-08-22T12:00	30350	12	-45.5		161	6	8.4
2025-08-22T12:00	30400	12	-45.4		170	6	8.3
2025-08-22T12:00	30450	12	-45.2		180	6	8.2
2025-08-22T12:00	30500	12	-44.8		188	5	8.2
2025-08-22T12:00	30550	12	-44.6		200	3	8.1
2025-08-22T12:00	30600	11	-44.4		231	1	8.0
2025-08-22T12:00	30650	11	-44.0		322	1	8.0
2025-08-22T12:00	30700	11	-43.8		359	2	7.9
2025-08-22T12:00	30750	11	-43.6		16	3	7.8
2025-08-22T12:00	30800	11	-43.4		24	4	7.7
2025-08-22T12:00	30850	11	-43.3		29	5	7.7
2025-08-22T12:00	30900	11	-43.1		40	6	7.6
2025-08-22T12:00	30950	11	-42.9		56	6	7.6
2025-08-22T12:00	31000	11	-42.6		71	7	7.5
2025-08-22T12:00	31050	11	-42.4		82	7	7.4
2025-08-22T12:00	31100	11	-42.2		86	7	7.3
2025-08-22T12:00	31150	11	-42.1		82	7	7.3
2025-08-22T12:00	31200	10	-42.0		75	8	7.2
2025-08-22T12:00	31250	10	-41.8		71	8	7.2
2025-08-22T12:00	31300	10	-41.4		71	8	7.1
2025-08-22T12:00	31350	10	-41.1		75	8	7.0
2025-08-22T12:00	31400	10	-41.2		80	8	7.0
2025-08-22T12:00	31450	10	-41.4		87	8	6.9
2025-08-22T12:00	31500	10	-41.5		93	8	6.9
2025-08-22T12:00	31550	10	-41.6		94	8	6.8
2025-08-22T12:00	31600	10	-41.7		90	8	6.7
2025-08-22T12:00	31650	10	-41.7		82	8	6.7
2025-08-22T12:00	31700	10	-41.6		75	8	6.6
2025-08-22T12:00	31750	10	-41.6		73	9	6.6
2025-08-22T12:00	31800	10	-41.5		77	9	6.5
2025-08-22T12:00	31850	10	-41.2		83	9	6.5
2025-08-22T12:00	31900	9	-40.9		87	8	6.4
2025-08-22T12:00	31950	9	-40.8		92	7	6.3
2025-08-22T12:00	32000	9	-40.9		101	6	6.3
2025-08-22T12:00	32050	9	-40.9		109	5	6.2
2025-08-22T12:00	32100	9	-41.0		109	5	6.2
2025-08-22T12:00	32150	9	-40.9		101	5	6.2
2025-08-22T12:00	32200	9	-40.7		92	5	6.1
2025-08-22T12:00	32250	9	-40.4		86	6	6.0
2025-08-22T12:00	32300	9	-40.3		83	7	6.0
2025-08-22T12:00	32350	9	-40.3		81	8	5.9
2025-08-22T12:00	32400	9	-40.3		79	9	5.9
2025-08-22T12:00	32450	9	-40.4		78	10	5.8
2025-08-22T12:00	32500	9	-40.4		79	10	5.8
2025-08-22T12:00	32550	9	-40.6		81	11	5.7
2025-08-22T12:00	32600	9	-40.7		83	12	5.7
2025-08-23T00:00	491	961	15.8	12.0	35	1	
2025-08-23T00:00	501	959	16.9	10.9	1	1	
2025-08-23T00:00	520	958	17.1	10.9	353	2	
2025-08-23T00:00	540	955	17.1	10.7	353	2	
2025-08-23T00:00	560	953	17.1	10.5	354	2	
2025-08-23T00:00	580	951	17.1	10.6	356	3	
2025-08-23T00:00	600	948	17.1	10.7	359	3	
2025-08-23T00:00	620	946	17.0	11.0	5	3	
2025-08-23T00:00	640	944	16.8	11.0	11	3	
2025-08-23T00:00	660	942	16.6	11.0	19	3	
2025-08-23T00:00	680	940	16.4	11.1	26	3	
2025-08-23T00:00	700	937	16.2	11.0	32	3	
2025-08-23T00:00	720	935	16.1	11.0	38	3	
2025-08-23T00:00	740	933	15.8	10.9	43	3	
2025-08-23T00:00	760	931	15.7	10.9	48	4	
2025-08-23T00:00	780	929	15.5	10.9	52	4	
2025-08-23T00:00	800	926	15.3	10.9	55	4	
2025-08-23T00:00	820	924	15.1	10.8	58	4	
2025-08-23T00:00	840	922	15.0	10.8	60	4	
2025-08-23T00:00	860	920	14.8	10.7	60	4	
2025-08-23T00:00	880	918	14.7	10.6	59	4	
2025-08-23T00:00	900	916	14.6	10.5	58	4	
2025-08-23T00:00	920	914	14.6	10.5	57	4	
2025-08-23T00:00	940	911	14.4	10.4	55	4	
2025-08-23T00:00	960	909	14.2	10.3	53	4	
2025-08-23T00:00	980	907	14.1	10.3	52	4	
2025-08-23T00:00	1000	905	13.9	10.1	51	4	
2025-08-23T00:00	1020	903	13.7	10.0	51	5	
2025-08-23T00:00	1040	901	13.5	9.9	51	5	
2025-08-23T00:00	1060	899	13.3	9.9	51	5	
2025-08-23T00:00	1080	896	13.1	9.9	50	5	
2025-08-23T00:00	1100	894	13.0	9.7	50	5	
2025-08-23T00:00	1120	892	12.8	9.6	50	4	
2025-08-23T00:00	1140	890	12.6	9.5	50	4	
2025-08-23T00:00	1160	888	12.4	9.4	49	4	
2025-08-23T00:00	1180	886	12.2	9.4	49	4	
2025-08-23T00:00	1200	884	12.1	9.4	46	4	
2025-08-23T00:00	1220	882	11.9	9.3	43	4	
2025-08-23T00:00	1240	879	11.7	9.4	38	3	
2025-08-23T00:00	1260	877	11.5	9.3	36	3	
2025-08-23T00:00	1280	875	11.3	9.5	36	3	
2025-08-23T00:00	1300	873	11.1	9.5	39	3	
2025-08-23T00:00	1320	871	10.9	9.6	44	3	
2025-08-23T00:00	1340	869	10.7	9.6	49	3	
2025-08-23T00:00	1360	867	10.6	9.4	52	3	
2025-08-23T00:00	1380	865	10.5	9.0	52	3	
2025-08-23T00:00	1400	863	10.3	8.8	57	2	
2025-08-23T00:00	1420	861	10.2	8.6	64	2	
2025-08-23T00:00	1440	859	10.2	8.2	75	2	
2025-08-23T00:00	1460	857	10.2	8.1	87	3	
2025-08-23T00:00	1480	855	10.2	8.2	96	4	
2025-08-23T00:00	1500	853	10.0	8.2	100	4	
2025-08-23T00:00	1520	850	9.9	8.1	102	5	
2025-08-23T00:00	1540	848	9.9	8.0	103	5	
2025-08-23T00:00	1560	846	9.8	8.1	104	5	
2025-08-23T00:00	1580	844	9.7	8.4	105	5	
2025-08-23T00:00	1600	842	9.5	8.6	107	5	
2025-08-23T00:00	1620	840	9.4	8.7	110	5	
2025-08-23T00:00	1640	838	9.2	8.5	112	4	
2025-08-23T00:00	1660	836	9.1	8.4	116	4	
2025-08-23T00:00	1680	834	9.1	8.2	119	4	
2025-08-23T00:00	1700	832	9.1	8.0	121	3	
2025-08-23T00:00	1720	830	9.0	7.8	124	3	
2025-08-23T00:00	1740	828	8.9	7.8	129	3	
2025-08-23T00:00	1760	826	8.8	7.6	136	2	
2025-08-23T00:00	1780	824	8.7	7.3	147	2	
2025-08-23T00:00	1800	822	8.5	7.3	161	2	
2025-08-23T00:00	1820	820	8.5	7.1	179	2	
2025-08-23T00:00	1840	818	8.4	7.0	195	2	
2025-08-23T00:00	1860	816	8.2	7.0	204	2	
2025-08-23T00:00	1880	814	8.1	6.9	209	2	
2025-08-23T00:00	1900	812	7.9	6.7	212	2	
2025-08-23T00:00	1920	811	7.9	6.6	214	2	
2025-08-23T00:00	1940	809	7.7	6.4	215	2	
2025-08-23T00:00	1960	807	7.7	6.1	216	2	
2025-08-23T00:00	1980	805	7.5	6.0	218	3	
2025-08-23T00:00	2000	803	7.5	5.6	222	3	
2025-08-23T00:00	2020	800	7.4	5.4	225	4	
2025-08-23T00:00	2040	799	7.2	5.1	229	4	
2025-08-23T00:00	2060	797	7.1	4.9	233	4	
2025-08-23T00:00	2080	795	6.9	4.8	238	4	
2025-08-23T00:00	2100	793	6.8	4.8	244	4	
2025-08-23T00:00	2120	791	6.6	4.8	251	3	
2025-08-23T00:00	2140	789	6.4	4.7	256	3	
2025-08-23T00:00	2160	787	6.3	4.5	259	3	
2025-08-23T00:00	2180	785	6.1	4.4	258	3	
2025-08-23T00:00	2200	783	5.9	4.4	252	3	
2025-08-23T00:00	2220	781	5.8	4.1	248	4	
2025-08-23T00:00	2240	779	5.7	3.3	245	4	
2025-08-23T00:00	2260	778	5.6	3.1	244	4	
2025-08-23T00:00	2280	776	5.5	3.0	246	4	
2025-08-23T00:00	2300	774	5.3	2.5	252	4	
2025-08-23T00:00	2320	772	5.2	2.3	260	4	
2025-08-23T00:00	2340	770	5.1	1.9	266	4	
2025-08-23T00:00	2360	768	5.2	0.4	269	5	
2025-08-23T00:00	2380	766	5.3	-1.1	270	5	
2025-08-23T00:00	2400	764	5.4	-3.2	270	6	
2025-08-23T00:00	2420	762	5.5	-4.9	269	7	
2025-08-23T00:00	2440	761	5.4	-5.6	269	7	
2025-08-23T00:00	2460	759	5.4	-7.9	269	7	
2025-08-23T00:00	2480	757	5.6	-13.5	269	7	
2025-08-23T00:00	2500	755	5.7	-17.9	269	7	
2025-08-23T00:00	2520	753	5.7	-19.1	269	7	
2025-08-23T00:00	2540	751	5.7	-17.6	269	7	
2025-08-23T00:00	2560	750	5.7	-12.6	269	6	
2025-08-23T00:00	2580	748	5.5	-7.9	269	6	
2025-08-23T00:00	2600	746	5.4	-7.4	270	6	
2025-08-23T00:00	2620	744	5.2	-7.5	272	6	
2025-08-23T00:00	2640	742	5.0	-7.5	275	6	
2025-08-23T00:00	2660	740	4.9	-7.6	281	6	
2025-08-23T00:00	2680	739	4.7	-7.6	287	6	
2025-08-23T00:00	2700	737	4.5	-7.6	292	6	
2025-08-23T00:00	2720	735	4.4	-7.3	296	6	
2025-08-23T00:00	2740	733	4.3	-6.9	297	7	
2025-08-23T00:00	2760	731	4.2	-6.5	296	7	
2025-08-23T00:00	2780	730	4.1	-6.6	292	7	
2025-08-23T00:00	2800	728	4.1	-6.7	286	7	
2025-08-23T00:00	2820	726	4.1	-6.8	281	7	
2025-08-23T00:00	2840	724	4.0	-7.0	278	7	
2025-08-23T00:00	2860	722	3.9	-7.6	276	7	
2025-08-23T00:00	2880	721	3.8	-8.0	275	7	
2025-08-23T00:00	2900	719	3.7	-8.0	278	6	
2025-08-23T00:00	2920	717	3.5	-7.9	281	6	
2025-08-23T00:00	2940	715	3.4	-7.9	286	6	
2025-08-23T00:00	2960	713	3.2	-8.2	290	6	
2025-08-23T00:00	2980	712	3.0	-8.2	291	6	
2025-08-23T00:00	3000	710	2.9	-8.3	290	7	
2025-08-23T00:00	3020	708	2.7	-8.3	289	7	
2025-08-23T00:00	3040	707	2.5	-8.5	287	7	
2025-08-23T00:00	3060	705	2.4	-8.6	285	7	
2025-08-23T00:00	3080	703	2.2	-8.6	283	7	
2025-08-23T00:00	3100	701	2.0	-8.7	281	7	
2025-08-23T00:00	3120	700	1.9	-8.7	282	7	
2025-08-23T00:00	3140	698	1.7	-8.9	285	7	
2025-08-23T00:00	3160	696	1.5	-8.9	288	7	
2025-08-23T00:00	3180	694	1.3	-8.9	293	7	
2025-08-23T00:00	3200	693	1.1	-9.1	296	7	
2025-08-23T00:00	3220	691	1.0	-9.0	299	7	
2025-08-23T00:00	3240	689	0.8	-9.0	300	7	
2025-08-23T00:00	3260	688	0.6	-9.6	300	7	
2025-08-23T00:00	3280	686	0.5	-10.4	298	6	
2025-08-23T00:00	3300	684	0.4	-10.8	294	6	
2025-08-23T00:00	3320	682	0.3	-11.0	290	7	
2025-08-23T00:00	3340	681	0.2	-10.9	288	7	
2025-08-23T00:00	3360	679	0.2	-11.1	287	7	
2025-08-23T00:00	3380	677	0.1	-11.5	287	7	
2025-08-23T00:00	3400	676	0.0	-11.6	287	7	
2025-08-23T00:00	3420	674	-0.1	-12.1	288	7	
2025-08-23T00:00	3440	672	-0.3	-12.5	289	6	
2025-08-23T00:00	3460	670	-0.3	-13.4	288	6	
2025-08-23T00:00	3480	669	-0.4	-12.4	286	6	
2025-08-23T00:00	3500	667	-0.5	-10.8	284	6	
2025-08-23T00:00	3520	666	-0.6	-10.4	284	6	
2025-08-23T00:00	3540	664	-0.7	-10.7	285	7	
2025-08-23T00:00	3560	662	-0.7	-10.9	287	7	
2025-08-23T00:00	3580	661	-0.9	-10.8	288	7	
2025-08-23T00:00	3600	659	-1.0	-11.1	290	8	
2025-08-23T00:00	3620	657	-1.1	-11.3	290	8	
2025-08-23T00:00	3640	656	-1.2	-11.7	289	8	
2025-08-23T00:00	3660	654	-1.3	-12.1	288	8	
2025-08-23T00:00	3680	652	-1.5	-11.7	286	8	
2025-08-23T00:00	3700	651	-1.6	-12.0	286	8	
2025-08-23T00:00	3720	649	-1.7	-12.8	286	8	
2025-08-23T00:00	3740	648	-1.8	-15.1	288	8	
2025-08-23T00:00	3760	646	-1.8	-16.1	290	8	
2025-08-23T00:00	3780	644	-1.9	-17.0	291	8	
2025-08-23T00:00	3800	643	-2.0	-17.6	292	8	
2025-08-23T00:00	3820	641	-2.1	-17.5	293	8	
2025-08-23T00:00	3840	639	-2.2	-17.8	294	8	
2025-08-23T00:00	3860	638	-2.3	-18.2	294	9	
2025-08-23T00:00	3880	636	-2.4	-18.5	295	9	
2025-08-23T00:00	3900	635	-2.5	-18.7	294	9	
2025-08-23T00:00	3920	633	-2.7	-18.8	293	9	
2025-08-23T00:00	3940	631	-2.7	-18.9	291	9	
2025-08-23T00:00	3960	630	-2.9	-18.8	288	9	
2025-08-23T00:00	3980	628	-3.0	-18.0	285	9	
2025-08-23T00:00	4000	627	-3.0	-18.6	280	8	
2025-08-23T00:00	4020	625	-2.8	-20.0	278	8	
2025-08-23T00:00	4040	624	-2.8	-19.8	278	8	
2025-08-23T00:00	4060	622	-2.8	-24.8	282	8	
2025-08-23T00:00	4080	620	-2.8	-27.9	288	8	
2025-08-23T00:00	4100	619	-2.9	-32.8	293	8	
2025-08-23T00:00	4120	617	-2.9	-38.5	296	9	
2025-08-23T00:00	4140	616	-2.9	-41.8	298	9	
2025-08-23T00:00	4160	614	-3.0	-41.1	300	9	
2025-08-23T00:00	4180	612	-3.0	-38.4	300	9	
2025-08-23T00:00	4200	611	-3.1	-36.5	300	9	
2025-08-23T00:00	4220	609	-3.3	-35.2	300	9	
2025-08-23T00:00	4240	608	-3.4	-35.5	299	9	
2025-08-23T00:00	4260	606	-3.5	-35.3	296	8	
2025-08-23T00:00	4280	605	-3.6	-32.8	294	8	
2025-08-23T00:00	4300	603	-3.8	-32.2	293	7	
2025-08-23T00:00	4320	602	-3.9	-31.7	291	7	
2025-08-23T00:00	4340	600	-4.0	-30.3	290	7	
2025-08-23T00:00	4360	599	-4.1	-30.8	290	7	
2025-08-23T00:00	4380	597	-4.3	-30.6	291	6	
2025-08-23T00:00	4400	596	-4.4	-29.9	291	6	
2025-08-23T00:00	4420	594	-4.6	-30.7	292	7	
2025-08-23T00:00	4440	593	-4.7	-31.0	293	7	
2025-08-23T00:00	4460	591	-4.9	-32.0	293	7	
2025-08-23T00:00	4480	590	-5.0	-32.1	294	7	
2025-08-23T00:00	4500	588	-5.2	-29.9	296	7	
2025-08-23T00:00	4520	587	-5.4	-29.4	298	7	
2025-08-23T00:00	4540	585	-5.5	-29.3	300	7	
2025-08-23T00:00	4560	584	-5.7	-28.6	303	7	
2025-08-23T00:00	4580	582	-5.9	-28.0	305	7	
2025-08-23T00:00	4600	581	-6.0	-28.2	307	7	
2025-08-23T00:00	4620	579	-6.2	-28.3	309	8	
2025-08-23T00:00	4640	578	-6.4	-28.2	310	8	
2025-08-23T00:00	4660	576	-6.6	-28.2	309	8	
2025-08-23T00:00	4680	575	-6.7	-29.1	309	8	
2025-08-23T00:00	4700	573	-6.8	-29.8	308	8	
2025-08-23T00:00	4720	572	-7.0	-30.7	307	8	
2025-08-23T00:00	4740	570	-7.1	-31.8	305	8	
2025-08-23T00:00	4760	569	-7.2	-31.5	304	8	
2025-08-23T00:00	4780	567	-7.4	-30.6	304	8	
2025-08-23T00:00	4800	566	-7.5	-29.3	305	7	
2025-08-23T00:00	4820	565	-7.7	-29.3	306	7	
2025-08-23T00:00	4840	563	-7.8	-29.8	307	7	
2025-08-23T00:00	4860	562	-7.9	-30.2	308	7	
2025-08-23T00:00	4880	560	-8.0	-30.3	310	7	
2025-08-23T00:00	4900	559	-8.1	-30.1	311	7	
2025-08-23T00:00	4920	557	-8.3	-29.6	310	7	
2025-08-23T00:00	4940	556	-8.5	-29.8	310	7	
2025-08-23T00:00	4960	554	-8.6	-29.8	308	7	
2025-08-23T00:00	4980	553	-8.8	-29.7	304	8	
2025-08-23T00:00	5000	552	-8.9	-29.5	301	8	
2025-08-23T00:00	5020	550	-9.1	-29.6	299	8	
2025-08-23T00:00	5040	549	-9.2	-29.7	298	8	
2025-08-23T00:00	5060	547	-9.4	-30.1	298	8	
2025-08-23T00:00	5080	546	-9.5	-30.4	300	7	
2025-08-23T00:00	5100	545	-9.7	-31.0	301	7	
2025-08-23T00:00	5120	543	-9.8	-31.5	304	7	
2025-08-23T00:00	5140	542	-10.0	-31.7	307	7	
2025-08-23T00:00	5160	540	-10.1	-32.0	308	7	
2025-08-23T00:00	5180	539	-10.2	-32.2	307	7	
2025-08-23T00:00	5200	538	-10.3	-32.3	306	7	
2025-08-23T00:00	5220	536	-10.4	-32.6	305	7	
2025-08-23T00:00	5240	535	-10.6	-32.6	304	7	
2025-08-23T00:00	5260	533	-10.8	-32.6	304	7	
2025-08-23T00:00	5280	532	-10.9	-32.6	305	7	
2025-08-23T00:00	5300	530	-11.1	-32.7	306	7	
2025-08-23T00:00	5320	529	-11.3	-32.8	308	7	
2025-08-23T00:00	5340	528	-11.4	-33.1	308	7	
2025-08-23T00:00	5360	526	-11.5	-33.3	308	8	
2025-08-23T00:00	5380	525	-11.6	-33.5	308	8	
2025-08-23T00:00	5400	524	-11.7	-33.8	308	8	
2025-08-23T00:00	5420	522	-11.8	-34.2	308	9	
2025-08-23T00:00	5440	521	-11.9	-34.7	308	9	
2025-08-23T00:00	5460	520	-11.9	-34.9	308	9	
2025-08-23T00:00	5480	518	-12.1	-35.0	308	9	
2025-08-23T00:00	5500	517	-12.2	-34.7	308	9	
2025-08-23T00:00	5520	515	-12.3	-34.5	308	9	
2025-08-23T00:00	5540	514	-12.5	-34.4	308	9	
2025-08-23T00:00	5560	513	-12.6	-34.7	306	9	
2025-08-23T00:00	5580	511	-12.8	-35.2	306	9	
2025-08-23T00:00	5600	510	-12.9	-35.3	305	9	
2025-08-23T00:00	5620	509	-13.1	-35.1	305	10	
2025-08-23T00:00	5640	507	-13.3	-34.7	305	10	
2025-08-23T00:00	5660	506	-13.4	-34.8	305	10	
2025-08-23T00:00	5680	505	-13.6	-35.0	305	10	
2025-08-23T00:00	5700	503	-13.7	-35.3	306	9	
2025-08-23T00:00	5720	502	-13.9	-35.3	306	9	
2025-08-23T00:00	5740	501	-14.0	-35.2	307	9	
2025-08-23T00:00	5760	500	-14.1	-34.8	307	9	
2025-08-23T00:00	5780	498	-14.3	-34.7	309	9	
2025-08-23T00:00	5800	497	-14.5	-34.4	310	9	
2025-08-23T00:00	5820	495	-14.6	-34.4	310	9	
2025-08-23T00:00	5840	494	-14.8	-34.7	311	9	
2025-08-23T00:00	5860	493	-14.9	-34.9	311	10	
2025-08-23T00:00	5880	492	-15.1	-34.8	311	10	
2025-08-23T00:00	5900	490	-15.3	-34.8	312	10	
2025-08-23T00:00	5920	489	-15.5	-34.8	312	10	
2025-08-23T00:00	5940	488	-15.6	-34.8	312	10	
2025-08-23T00:00	5960	487	-15.8	-35.0	312	10	
2025-08-23T00:00	5980	485	-15.9	-35.1	312	10	
2025-08-23T00:00	6000	484	-16.1	-35.3	311	10	
2025-08-23T00:00	6020	483	-16.2	-35.3	310	10	
2025-08-23T00:00	6040	481	-16.3	-35.2	310	10	
2025-08-23T00:00	6060	480	-16.5	-35.2	309	10	
2025-08-23T00:00	6080	479	-16.6	-35.5	309	10	
2025-08-23T00:00	6100	477	-16.7	-35.9	309	10	
2025-08-23T00:00	6120	476	-16.9	-36.3	310	10	
2025-08-23T00:00	6140	475	-17.0	-36.3	310	11	
2025-08-23T00:00	6160	474	-17.2	-36.4	310	11	
2025-08-23T00:00	6180	473	-17.3	-36.4	311	11	
2025-08-23T00:00	6200	471	-17.5	-36.5	311	12	
2025-08-23T00:00	6220	470	-17.6	-36.9	310	12	
2025-08-23T00:00	6240	469	-17.7	-36.4	310	12	
2025-08-23T00:00	6260	467	-17.8	-36.5	309	12	
2025-08-23T00:00	6280	466	-17.9	-36.7	308	12	
2025-08-23T00:00	6300	465	-18.0	-36.8	307	12	
2025-08-23T00:00	6320	464	-18.1	-37.1	306	12	
2025-08-23T00:00	6340	462	-18.2	-37.2	306	12	
2025-08-23T00:00	6360	461	-18.4	-37.4	305	12	
2025-08-23T00:00	6380	460	-18.5	-37.7	304	12	
2025-08-23T00:00	6400	459	-18.6	-37.9	304	12	
2025-08-23T00:00	6420	457	-18.8	-37.9	305	12	
2025-08-23T00:00	6440	456	-18.9	-38.2	307	11	
2025-08-23T00:00	6460	455	-19.0	-38.6	309	12	
2025-08-23T00:00	6480	454	-19.1	-38.7	311	12	
2025-08-23T00:00	6500	452	-19.3	-39.0	312	12	
2025-08-23T00:00	6520	451	-19.4	-39.0	313	12	
2025-08-23T00:00	6540	450	-19.6	-38.9	314	12	
2025-08-23T00:00	6560	449	-19.6	-38.0	314	12	
2025-08-23T00:00	6580	448	-19.8	-37.8	315	12	
2025-08-23T00:00	6600	446	-20.0	-37.8	315	13	
2025-08-23T00:00	6620	445	-20.2	-37.6	314	13	
2025-08-23T00:00	6640	444	-20.3	-38.1	314	12	
2025-08-23T00:00	6660	443	-20.4	-38.4	313	12	
2025-08-23T00:00	6680	442	-20.5	-38.5	313	12	
2025-08-23T00:00	6700	441	-20.7	-38.8	311	12	
2025-08-23T00:00	6720	439	-20.8	-39.0	310	12	
2025-08-23T00:00	6740	438	-21.0	-39.3	309	12	
2025-08-23T00:00	6760	437	-21.2	-39.4	308	12	
2025-08-23T00:00	6780	436	-21.3	-39.5	307	12	
2025-08-23T00:00	6800	435	-21.5	-39.8	307	12	
2025-08-23T00:00	6820	433	-21.6	-40.1	306	12	
2025-08-23T00:00	6840	432	-21.8	-40.1	306	12	
2025-08-23T00:00	6860	431	-21.9	-40.2	306	12	
2025-08-23T00:00	6880	430	-22.1	-40.4	307	12	
2025-08-23T00:00	6900	429	-22.3	-41.0	307	11	
2025-08-23T00:00	6920	427	-22.4	-41.3	307	11	
2025-08-23T00:00	6940	426	-22.5	-41.3	307	11	
2025-08-23T00:00	6960	425	-22.7	-41.4	307	11	
2025-08-23T00:00	6980	424	-22.9	-41.7	307	11	
2025-08-23T00:00	7000	423	-22.9	-42.2	307	11	
2025-08-23T00:00	7020	422	-23.0	-42.4	308	11	
2025-08-23T00:00	7040	421	-23.2	-42.6	308	11	
2025-08-23T00:00	7060	420	-23.3	-42.7	308	11	
2025-08-23T00:00	7080	418	-23.5	-42.7	309	12	
2025-08-23T00:00	7100	417	-23.7	-42.8	308	12	
2025-08-23T00:00	7120	416	-23.9	-42.9	308	12	
2025-08-23T00:00	7140	415	-24.0	-43.0	308	12	
2025-08-23T00:00	7160	414	-24.2	-43.4	307	12	
2025-08-23T00:00	7180	413	-24.3	-43.7	307	12	
2025-08-23T00:00	7200	412	-24.4	-43.8	306	12	
2025-08-23T00:00	7220	410	-24.5	-44.1	306	11	
2025-08-23T00:00	7240	409	-24.7	-44.5	306	11	
2025-08-23T00:00	7260	408	-24.9	-44.8	306	11	
2025-08-23T00:00	7280	407	-25.0	-45.4	308	11	
2025-08-23T00:00	7300	406	-25.1	-45.6	309	11	
2025-08-23T00:00	7320	405	-25.3	-45.7	310	11	
2025-08-23T00:00	7340	404	-25.4	-45.9	311	12	
2025-08-23T00:00	7360	402	-25.6	-46.0	312	12	
2025-08-23T00:00	7380	401	-25.7	-46.0	312	12	
2025-08-23T00:00	7400	400	-25.9	-46.2	312	12	
2025-08-23T00:00	7420	399	-26.0	-46.7	312	12	
2025-08-23T00:00	7440	398	-26.1	-47.1	312	12	
2025-08-23T00:00	7460	397	-26.2	-47.0	311	12	
2025-08-23T00:00	7480	396	-26.4	-47.0	311	12	
2025-08-23T00:00	7500	395	-26.5	-47.7	310	12	
2025-08-23T00:00	7520	394	-26.6	-48.0	310	12	
2025-08-23T00:00	7540	393	-26.7	-48.1	310	12	
2025-08-23T00:00	7560	392	-26.8	-48.0	311	12	
2025-08-23T00:00	7580	390	-27.0	-48.0	311	12	
2025-08-23T00:00	7600	389	-27.2	-48.2	312	12	
2025-08-23T00:00	7620	388	-27.3	-48.2	313	12	
2025-08-23T00:00	7640	387	-27.5	-48.1	314	12	
2025-08-23T00:00	7660	386	-27.6	-48.2	314	12	
2025-08-23T00:00	7680	385	-27.8	-48.4	314	12	
2025-08-23T00:00	7700	384	-27.9	-48.5	315	12	
2025-08-23T00:00	7720	383	-28.1	-48.5	315	11	
2025-08-23T00:00	7740	382	-28.3	-48.3	315	11	
2025-08-23T00:00	7760	381	-28.4	-48.3	315	11	
2025-08-23T00:00	7780	380	-28.6	-48.7	315	11	
2025-08-23T00:00	7800	379	-28.7	-49.1	315	11	
2025-08-23T00:00	7820	378	-28.8	-49.2	315	11	
2025-08-23T00:00	7840	377	-29.0	-49.6	316	11	
2025-08-23T00:00	7860	376	-29.1	-50.9	316	11	
2025-08-23T00:00	7880	374	-29.3	-52.3	316	11	
2025-08-23T00:00	7900	373	-29.5	-53.4	316	11	
2025-08-23T00:00	7920	372	-29.6	-53.3	316	11	
2025-08-23T00:00	7940	371	-29.7	-52.3	316	11	
2025-08-23T00:00	7960	370	-29.9	-51.1	316	11	
2025-08-23T00:00	7980	369	-30.0	-49.2	316	11	
2025-08-23T00:00	8000	368	-30.2	-48.7	316	11	
2025-08-23T00:00	8020	367	-30.3	-49.4	316	11	
2025-08-23T00:00	8040	366	-30.5	-49.0	316	11	
2025-08-23T00:00	8060	365	-30.6	-48.6	316	11	
2025-08-23T00:00	8080	364	-30.7	-47.6	316	11	
2025-08-23T00:00	8100	363	-30.9	-45.8	316	11	
2025-08-23T00:00	8120	362	-31.0	-45.9	317	11	
2025-08-23T00:00	8140	361	-31.0	-45.4	317	11	
2025-08-23T00:00	8160	360	-31.2	-38.9	318	11	
2025-08-23T00:00	8180	359	-31.3	-36.8	319	11	
2025-08-23T00:00	8200	358	-31.5	-36.1	319	11	
2025-08-23T00:00	8220	357	-31.6	-36.5	320	11	
2025-08-23T00:00	8240	356	-31.8	-36.8	321	11	
2025-08-23T00:00	8260	355	-31.9	-37.0	321	11	
2025-08-23T00:00	8280	354	-32.1	-37.3	321	10	
2025-08-23T00:00	8300	353	-32.2	-37.4	321	10	
2025-08-23T00:00	8320	352	-32.4	-37.6	321	10	
2025-08-23T00:00	8340	351	-32.5	-37.5	321	10	
2025-08-23T00:00	8360	350	-32.7	-37.5	321	10	
2025-08-23T00:00	8380	349	-32.9	-37.6	321	10	
2025-08-23T00:00	8400	348	-33.1	-37.6	321	10	
2025-08-23T00:00	8420	347	-33.3	-37.7	321	10	
2025-08-23T00:00	8440	346	-33.5	-37.6	322	10	
2025-08-23T00:00	8460	345	-33.7	-37.5	322	10	
2025-08-23T00:00	8480	344	-33.9	-37.6	323	10	
2025-08-23T00:00	8500	343	-34.1	-37.9	323	11	
2025-08-23T00:00	8520	342	-34.2	-37.9	323	11	
2025-08-23T00:00	8540	341	-34.4	-38.1	323	11	
2025-08-23T00:00	8560	340	-34.5	-38.4	323	11	
2025-08-23T00:00	8580	339	-34.7	-38.6	323	11	
2025-08-23T00:00	8600	338	-34.8	-39.0	324	11	
2025-08-23T00:00	8620	337	-34.8	-39.5	324	12	
2025-08-23T00:00	8640	336	-35.0	-39.5	324	12	
2025-08-23T00:00	8660	335	-35.1	-39.5	325	12	
2025-08-23T00:00	8680	334	-35.2	-39.7	325	12	
2025-08-23T00:00	8700	333	-35.4	-39.6	326	12	
2025-08-23T00:00	8720	332	-35.5	-39.9	327	12	
2025-08-23T00:00	8740	331	-35.6	-40.5	327	12	
2025-08-23T00:00	8760	331	-35.7	-40.3	328	12	
2025-08-23T00:00	8780	329	-35.9	-40.2	328	12	
2025-08-23T00:00	8800	329	-36.1	-40.3	328	12	
2025-08-23T00:00	8820	328	-36.3	-40.5	329	12	
2025-08-23T00:00	8840	327	-36.5	-40.3	329	12	
2025-08-23T00:00	8860	326	-36.7	-40.2	330	12	
2025-08-23T00:00	8880	325	-36.9	-40.3	331	12	
2025-08-23T00:00	8900	324	-37.1	-40.4	332	13	
2025-08-23T00:00	8920	323	-37.3	-40.4	332	13	
2025-08-23T00:00	8940	322	-37.4	-40.5	332	13	
2025-08-23T00:00	8960	321	-37.6	-40.8	333	13	
2025-08-23T00:00	8980	320	-37.8	-41.1	333	13	
2025-08-23T00:00	9000	319	-37.9	-41.7	333	13	
2025-08-23T00:00	9020	318	-38.0	-42.0	334	13	
2025-08-23T00:00	9040	317	-38.1	-41.9	334	13	
2025-08-23T00:00	9060	317	-38.2	-42.7	334	13	
2025-08-23T00:00	9080	316	-38.3	-43.8	334	14	
2025-08-23T00:00	9100	315	-38.5	-44.5	334	14	
2025-08-23T00:00	9120	314	-38.6	-45.7	334	15	
2025-08-23T00:00	9140	313	-38.7	-46.1	334	15	
2025-08-23T00:00	9160	312	-38.8	-46.1	334	15	
2025-08-23T00:00	9180	311	-39.0	-46.1	333	15	
2025-08-23T00:00	9200	310	-39.2	-46.4	333	15	
2025-08-23T00:00	9220	309	-39.4	-46.5	333	15	
2025-08-23T00:00	9240	308	-39.5	-46.7	333	15	
2025-08-23T00:00	9260	307	-39.7	-46.7	333	15	
2025-08-23T00:00	9280	306	-39.9	-46.6	333	15	
2025-08-23T00:00	9300	306	-40.0	-46.6	333	15	
2025-08-23T00:00	9320	305	-40.2	-46.7	333	15	
2025-08-23T00:00	9340	304	-40.4	-46.7	333	15	
2025-08-23T00:00	9360	303	-40.6	-46.8	333	15	
2025-08-23T00:00	9380	302	-40.7	-46.9	333	15	
2025-08-23T00:00	9400	301	-40.9	-47.2	333	15	
2025-08-23T00:00	9420	300	-41.1	-47.2	333	15	
2025-08-23T00:00	9440	299	-41.3	-47.1	332	14	
2025-08-23T00:00	9460	298	-41.5	-47.1	333	15	
2025-08-23T00:00	9480	298	-41.7	-47.2	333	15	
2025-08-23T00:00	9500	297	-41.9	-47.3	333	15	
2025-08-23T00:00	9520	296	-42.0	-47.3	334	15	
2025-08-23T00:00	9540	295	-42.2	-47.4	334	15	
2025-08-23T00:00	9560	294	-42.4	-47.6	334	15	
2025-08-23T00:00	9580	293	-42.6	-47.8	334	15	
2025-08-23T00:00	9600	292	-42.8	-48.4	334	15	
2025-08-23T00:00	9620	292	-43.0	-49.1	333	15	
2025-08-23T00:00	9640	291	-43.1	-49.6	333	15	
2025-08-23T00:00	9660	290	-43.3	-49.6	332	15	
2025-08-23T00:00	9680	289	-43.5	-49.6	332	15	
2025-08-23T00:00	9700	288	-43.7	-49.9	332	15	
2025-08-23T00:00	9720	287	-43.8	-50.8	332	15	
2025-08-23T00:00	9740	286	-44.0	-51.1	332	15	
2025-08-23T00:00	9760	285	-44.1	-51.4	332	15	
2025-08-23T00:00	9780	285	-44.3	-51.5	331	15	
2025-08-23T00:00	9800	284	-44.4	-51.5	331	15	
2025-08-23T00:00	9820	283	-44.6	-51.3	331	15	
2025-08-23T00:00	9840	282	-44.8	-51.3	331	15	
2025-08-23T00:00	9860	281	-45.0	-51.4	331	16	
2025-08-23T00:00	9880	280	-45.1	-51.4	331	16	
2025-08-23T00:00	9900	280	-45.3	-51.6	332	16	
2025-08-23T00:00	9920	279	-45.5	-51.7	332	16	
2025-08-23T00:00	9940	278	-45.7	-52.1	332	16	
2025-08-23T00:00	9960	277	-45.8	-52.4	333	16	
2025-08-23T00:00	9980	276	-46.0	-52.3	333	16	
2025-08-23T00:00	10000	275	-46.2	-52.3	333	16	
2025-08-23T00:00	10018	275	-46.4	-52.3	334	16	
2025-08-23T00:00	10050	273	-46.7	-52.3	334	16	
2025-08-23T00:00	10100	271	-47.2	-52.3	334	16	
2025-08-23T00:00	10150	269	-47.6	-52.5	333	15	
2025-08-23T00:00	10200	267	-48.1	-52.9	333	15	
2025-08-23T00:00	10250	265	-48.5	-53.3	331	16	
2025-08-23T00:00	10300	263	-48.9	-52.6	330	16	
2025-08-23T00:00	10350	261	-49.3	-53.0	329	15	
2025-08-23T00:00	10400	259	-49.6	-54.4	329	15	
2025-08-23T00:00	10450	257	-50.0	-54.7	330	14	
2025-08-23T00:00	10500	255	-50.4	-55.8	330	14	
2025-08-23T00:00	10550	253	-50.7	-55.8	329	14	
2025-08-23T00:00	10600	251	-51.0	-56.8	329	14	
2025-08-23T00:00	10650	249	-51.5	-57.4	330	14	
2025-08-23T00:00	10700	248	-51.9	-57.5	330	14	
2025-08-23T00:00	10750	246	-52.3	-58.0	331	14	
2025-08-23T00:00	10800	244	-52.8	-58.0	332	14	
2025-08-23T00:00	10850	242	-53.2	-58.1	332	14	
2025-08-23T00:00	10900	240	-53.6	-58.4	332	14	
2025-08-23T00:00	10950	238	-53.9	-58.7	332	15	
2025-08-23T00:00	11000	236	-54.3	-59.0	332	16	
2025-08-23T00:00	11050	234	-54.4	-60.0	333	17	
2025-08-23T00:00	11100	233	-54.6	-61.0	334	18	
2025-08-23T00:00	11150	231	-54.4	-62.9	334	18	
2025-08-23T00:00	11200	229	-54.5	-63.2	333	17	
2025-08-23T00:00	11250	227	-54.6	-63.6	331	17	
2025-08-23T00:00	11300	225	-54.5	-64.1	329	17	
2025-08-23T00:00	11350	224	-54.7	-64.4	327	17	
2025-08-23T00:00	11400	222	-54.9	-64.0	326	16	
2025-08-23T00:00	11450	220	-55.0	-64.0	327	16	
2025-08-23T00:00	11500	218	-55.3	-65.2	331	16	
2025-08-23T00:00	11550	217	-55.4	-66.6	334	16	
2025-08-23T00:00	11600	215	-55.0	-67.2	334	17	
2025-08-23T00:00	11650	213	-54.4	-68.4	333	17	
2025-08-23T00:00	11700	212	-54.1	-69.1	332	16	
2025-08-23T00:00	11750	210	-53.3	-69.7	332	16	
2025-08-23T00:00	11800	208	-52.8	-71.2	332	17	
2025-08-23T00:00	11850	207	-52.5	-72.2	333	16	
2025-08-23T00:00	11900	205	-52.1	-73.2	334	16	
2025-08-23T00:00	11950	204	-52.3	-72.8	333	15	
2025-08-23T00:00	12000	202	-52.7	-72.2	331	13	
2025-08-23T00:00	12050	201	-52.9	-71.0	330	13	
2025-08-23T00:00	12100	199	-53.2	-71.8	328	13	
2025-08-23T00:00	12150	197	-53.2	-73.5	327	14	
2025-08-23T00:00	12200	196	-53.0	-74.9	327	14	
2025-08-23T00:00	12250	194	-53.4	-74.7	327	14	
2025-08-23T00:00	12300	193	-53.4	-74.8	327	14	
2025-08-23T00:00	12350	191	-53.4	-75.4	326	14	
2025-08-23T00:00	12400	190	-53.2	-75.9	325	13	
2025-08-23T00:00	12450	189	-53.2	-75.7	325	13	
2025-08-23T00:00	12500	187	-53.2	-76.2	324	12	
2025-08-23T00:00	12550	186	-53.3	-78.0	322	12	
2025-08-23T00:00	12600	184	-53.3	-78.8	319	12	
2025-08-23T00:00	12650	183	-53.1	-78.4	314	11	
2025-08-23T00:00	12700	181	-53.2	-77.5	311	12	
2025-08-23T00:00	12750	180	-53.6	-76.2	309	13	
2025-08-23T00:00	12800	179	-53.5	-75.1	306	13	
2025-08-23T00:00	12850	177	-53.4	-76.5	304	13	
2025-08-23T00:00	12900	176	-53.3	-78.8	301	14	
2025-08-23T00:00	12950	174	-52.9	-79.7	298	14	
2025-08-23T00:00	13000	173	-53.1	-79.8	296	14	
2025-08-23T00:00	13050	172	-53.4	-80.0	296	15	
2025-08-23T00:00	13100	170	-53.5	-80.0	296	16	
2025-08-23T00:00	13150	169	-53.4	-80.1	296	15	
2025-08-23T00:00	13200	168	-53.6	-80.1	300	15	
2025-08-23T00:00	13250	166	-53.8	-80.2	303	16	
2025-08-23T00:00	13300	165	-54.1	-80.5	305	17	
2025-08-23T00:00	13350	164	-54.3	-80.6	307	18	
2025-08-23T00:00	13400	163	-54.3	-80.8	311	18	
2025-08-23T00:00	13450	161	-54.1	-81.1	314	18	
2025-08-23T00:00	13500	160	-54.0	-81.3	315	17	
2025-08-23T00:00	13550	159	-54.2	-81.4	315	17	
2025-08-23T00:00	13600	158	-54.4	-81.4	315	16	
2025-08-23T00:00	13650	156	-54.3	-81.4	316	15	
2025-08-23T00:00	13700	155	-54.3	-81.4	314	15	
2025-08-23T00:00	13750	154	-54.3	-81.2	311	14	
2025-08-23T00:00	13800	153	-54.4	-81.1	307	14	
2025-08-23T00:00	13850	152	-54.6	-80.9	305	14	
2025-08-23T00:00	13900	150	-54.8	-80.9	304	14	
2025-08-23T00:00	13950	149	-55.0	-81.0	304	14	
2025-08-23T00:00	14000	148	-55.1	-81.2	304	13	
2025-08-23T00:00	14050	147	-54.8	-81.3	302	13	
2025-08-23T00:00	14100	146	-55.1	-81.5	297	14	
2025-08-23T00:00	14150	145	-55.3	-81.7	293	14	
2025-08-23T00:00	14200	143	-55.4	-81.8	293	14	
2025-08-23T00:00	14250	142	-55.6	-82.0	293	15	
2025-08-23T00:00	14300	141	-55.8	-82.1	293	15	
2025-08-23T00:00	14350	140	-55.6	-82.3	291	15	
2025-08-23T00:00	14400	139	-55.1	-82.1	289	15	
2025-08-23T00:00	14450	138	-55.4	-82.2	288	16	
2025-08-23T00:00	14500	137	-55.5	-82.4	290	16	
2025-08-23T00:00	14550	136	-55.4	-82.4	293	15	
2025-08-23T00:00	14600	135	-55.5	-82.5	296	14	
2025-08-23T00:00	14650	134	-55.3	-82.5	298	14	
2025-08-23T00:00	14700	133	-55.1	-82.5	297	14	
2025-08-23T00:00	14750	132	-55.0	-82.5	296	15	
2025-08-23T00:00	14800	131	-55.2	-82.5	296	15	
2025-08-23T00:00	14850	130	-55.2	-82.5	295	15	
2025-08-23T00:00	14900	129	-55.1	-82.6	295	15	
2025-08-23T00:00	14950	128	-54.9	-82.6	296	14	
2025-08-23T00:00	15000	127	-54.8	-82.7	295	13	
2025-08-23T00:00	15050	126	-54.4	-82.7	292	11	
2025-08-23T00:00	15100	125	-54.1	-82.6	289	10	
2025-08-23T00:00	15150	124	-54.3	-82.6	288	10	
2025-08-23T00:00	15200	123	-54.1	-82.7	289	11	
2025-08-23T00:00	15250	122	-54.2	-82.8	291	12	
2025-08-23T00:00	15300	121	-54.2	-82.7	291	12	
2025-08-23T00:00	15350	120	-54.2	-82.8	289	12	
2025-08-23T00:00	15400	119	-54.2	-82.7	285	12	
2025-08-23T00:00	15450	118	-54.3	-82.8	282	12	
2025-08-23T00:00	15500	117	-54.2	-82.7	282	13	
2025-08-23T00:00	15550	116	-54.4	-82.7	285	13	
2025-08-23T00:00	15600	115	-54.4	-82.7	290	13	
2025-08-23T00:00	15650	114	-54.5	-82.8	290	13	
2025-08-23T00:00	15700	113	-54.5	-82.9	286	12	
2025-08-23T00:00	15750	113	-54.6	-82.9	281	11	
2025-08-23T00:00	15800	112	-54.6	-83.0	275	11	
2025-08-23T00:00	15850	111	-54.3	-83.0	271	11	
2025-08-23T00:00	15900	110	-54.3	-83.1	269	11	
2025-08-23T00:00	15950	109	-54.4	-83.2	269	11	
2025-08-23T00:00	16000	108	-54.6	-83.2	268	12	
2025-08-23T00:00	16050	107	-54.6	-83.2	266	12	
2025-08-23T00:00	16100	107	-54.8	-83.2	265	12	
2025-08-23T00:00	16150	106	-55.3	-83.2	266	12	
2025-08-23T00:00	16200	105	-55.7	-83.4	269	12	
2025-08-23T00:00	16250	104	-56.0	-83.6	274	12	
2025-08-23T00:00	16300	103	-56.3	-83.7	277	13	
2025-08-23T00:00	16350	102	-56.4	-83.9	278	13	
2025-08-23T00:00	16400	102	-56.4	-84.2	277	13	
2025-08-23T00:00	16450	101	-56.3	-84.2	277	14	
2025-08-23T00:00	16500	100	-56.3	-84.2	278	14	
2025-08-23T00:00	16550	99	-56.3	-84.2	279	14	
2025-08-23T00:00	16600	99	-56.5	-84.3	281	15	
2025-08-23T00:00	16650	98	-56.2	-84.2	283	16	
2025-08-23T00:00	16700	97	-56.1	-84.2	284	16	
2025-08-23T00:00	16750	96	-56.1	-84.2	286	16	
2025-08-23T00:00	16800	95	-55.6	-84.3	287	15	
2025-08-23T00:00	16850	95	-55.2	-84.1	283	15	
2025-08-23T00:00	16900	94	-54.8	-84.1	276	15	
2025-08-23T00:00	16950	93	-54.6	-84.0	274	16	
2025-08-23T00:00	17000	93	-54.3	-83.8	276	16	
2025-08-23T00:00	17050	92	-54.6	-83.8	280	16	
2025-08-23T00:00	17100	91	-54.8	-83.9	281	16	
2025-08-23T00:00	17150	90	-54.7	-83.8	278	14	
2025-08-23T00:00	17200	90	-54.9	-83.9	275	13	
2025-08-23T00:00	17250	89	-55.2	-84.0	275	13	
2025-08-23T00:00	17300	88	-55.3	-84.0	278	13	
2025-08-23T00:00	17350	88	-55.6	-84.1	281	13	
2025-08-23T00:00	17400	87	-55.8	-84.2	280	13	
2025-08-23T00:00	17450	86	-56.1	-84.3	275	13	
2025-08-23T00:00	17500	86	-56.1	-84.3	271	13	
2025-08-23T00:00	17550	85	-56.3	-84.4	269	12	
2025-08-23T00:00	17600	84	-56.6	-84.6	273	12	
2025-08-23T00:00	17650	84	-56.7	-84.7	280	12	
2025-08-23T00:00	17700	83	-56.3	-84.5	285	12	
2025-08-23T00:00	17750	82	-56.5	-84.7	286	11	
2025-08-23T00:00	17800	82	-56.3	-84.6	283	12	
2025-08-23T00:00	17850	81	-56.4	-84.6	278	12	
2025-08-23T00:00	17900	80	-56.7	-84.7	273	12	
2025-08-23T00:00	17950	80	-56.9	-84.8	270	12	
2025-08-23T00:00	18000	79	-56.9	-84.9	268	12	
2025-08-23T00:00	18050	78	-56.8	-84.9	266	12	
2025-08-23T00:00	18100	78	-56.6	-84.9	264	11	
2025-08-23T00:00	18150	77	-56.3	-84.9	261	11	
2025-08-23T00:00	18200	77	-56.4	-84.9	259	10	
2025-08-23T00:00	18250	76	-56.4	-84.7	256	10	
2025-08-23T00:00	18300	75	-56.5	-84.7	256	10	
2025-08-23T00:00	18350	75	-56.7	-84.9	256	11	
2025-08-23T00:00	18400	74	-56.8	-84.9	256	12	
2025-08-23T00:00	18450	74	-56.8	-84.8	257	13	
2025-08-23T00:00	18500	73	-57.2	-84.9	261	14	
2025-08-23T00:00	18550	72	-57.4	-85.2	266	15	
2025-08-23T00:00	18600	72	-57.3	-85.2	272	15	
2025-08-23T00:00	18650	71	-57.3	-85.2	275	14	
2025-08-23T00:00	18700	71	-57.4	-85.3	276	13	
2025-08-23T00:00	18750	70	-57.2	-85.4	276	12	
2025-08-23T00:00	18800	70	-56.9	-85.4	276	12	
2025-08-23T00:00	18850	69	-56.5	-85.3	273	12	
2025-08-23T00:00	18900	69	-56.2	-85.1	271	12	
2025-08-23T00:00	18950	68	-56.3	-85.1	273	13	
2025-08-23T00:00	19000	67	-56.5	-85.1	275	13	
2025-08-23T00:00	19050	67	-56.8	-85.1	278	13	
2025-08-23T00:00	19100	66	-56.7	-85.2	281	13	
2025-08-23T00:00	19150	66	-56.3	-85.2	283	14	
2025-08-23T00:00	19200	65	-56.1	-85.1	284	14	
2025-08-23T00:00	19250	65	-56.0	-85.2	285	13	
2025-08-23T00:00	19300	64	-55.5	-85.0	287	12	
2025-08-23T00:00	19350	64	-55.4	-84.9	289	12	
2025-08-23T00:00	19400	63	-55.3	-84.8	291	12	
2025-08-23T00:00	19450	63	-55.4	-84.8	294	11	
2025-08-23T00:00	19500	62	-55.3	-84.8	297	10	
2025-08-23T00:00	19550	62	-55.1	-84.7	298	10	
2025-08-23T00:00	19600	61	-54.8	-84.6	295	11	
2025-08-23T00:00	19650	61	-54.7	-84.6	290	12	
2025-08-23T00:00	19700	60	-54.7	-84.5	287	13	
2025-08-23T00:00	19750	60	-54.9	-84.7	288	13	
2025-08-23T00:00	19800	60	-54.6	-84.6	293	13	
2025-08-23T00:00	19850	59	-54.1	-84.2	299	12	
2025-08-23T00:00	19900	59	-54.4	-84.3	302	11	
2025-08-23T00:00	19950	58	-54.8	-84.4	306	10	
2025-08-23T00:00	20000	58	-54.6	-84.3	309	8	
2025-08-23T00:00	20050	57	-54.6		308	7	
2025-08-23T00:00	20100	57	-54.3		302	6	
2025-08-23T00:00	20150	56	-54.6		294	4	
2025-08-23T00:00	20200	56	-54.9		286	4	
2025-08-23T00:00	20250	56	-54.8		282	4	
2025-08-23T00:00	20300	55	-54.9		287	5	
2025-08-23T00:00	20350	55	-54.8		293	7	
2025-08-23T00:00	20400	54	-54.8		299	8	
2025-08-23T00:00	20450	54	-54.4		298	7	
2025-08-23T00:00	20500	53	-54.0		285	5	
2025-08-23T00:00	20550	53	-53.6		257	4	
2025-08-23T00:00	20600	53	-53.5		233	4	
2025-08-23T00:00	20650	52	-53.6		228	5	
2025-08-23T00:00	20700	52	-53.9		239	5	
2025-08-23T00:00	20750	51	-53.9		258	5	
2025-08-23T00:00	20800	51	-54.0		277	5	
2025-08-23T00:00	20850	51	-54.0		294	6	
2025-08-23T00:00	20900	50	-54.1		308	6	
2025-08-23T00:00	20950	50	-54.2		319	6	
2025-08-23T00:00	21000	49	-54.2		326	5	
2025-08-23T00:00	21050	49	-54.1		330	3	
2025-08-23T00:00	21100	49	-54.2		323	2	
2025-08-23T00:00	21150	48	-54.2		269	1	
2025-08-23T00:00	21200	48	-54.1		248	2	
2025-08-23T00:00	21250	47	-54.0		252	3	
2025-08-23T00:00	21300	47	-54.1		258	4	
2025-08-23T00:00	21350	47	-54.4		264	5	
2025-08-23T00:00	21400	46	-54.4		270	4	
2025-08-23T00:00	21450	46	-54.3		271	3	
2025-08-23T00:00	21500	46	-54.1		255	1	
2025-08-23T00:00	21550	45	-53.7		187	1	
2025-08-23T00:00	21600	45	-53.4		164	2	
2025-08-23T00:00	21650	45	-53.8		169	3	
2025-08-23T00:00	21700	44	-54.2		179	4	
2025-08-23T00:00	21750	44	-54.3		192	4	
2025-08-23T00:00	21800	44	-54.3		209	4	
2025-08-23T00:00	21850	43	-54.4		225	3	
2025-08-23T00:00	21900	43	-54.5		231	3	
2025-08-23T00:00	21950	43	-54.6		229	4	
2025-08-23T00:00	22000	42	-54.7		230	5	
2025-08-23T00:00	22050	42	-54.1		237	4	
2025-08-23T00:00	22100	42	-53.4		242	5	
2025-08-23T00:00	22150	41	-53.2		241	5	
2025-08-23T00:00	22200	41	-53.2		239	5	
2025-08-23T00:00	22250	41	-53.1		240	4	
2025-08-23T00:00	22300	40	-53.0		243	2	
2025-08-23T00:00	22350	40	-53.0		237	2	
2025-08-23T00:00	22400	40	-53.0		220	2	
2025-08-23T00:00	22450	39	-53.0		217	2	
2025-08-23T00:00	22500	39	-53.0		221	3	
2025-08-23T00:00	22550	39	-53.3		224	4	
2025-08-23T00:00	22600	38	-53.4		230	6	
2025-08-23T00:00	22650	38	-53.3		238	6	
2025-08-23T00:00	22700	38	-53.4		244	7	
2025-08-23T00:00	22750	38	-53.1		244	7	
2025-08-23T00:00	22800	37	-52.8		239	7	
2025-08-23T00:00	22850	37	-52.8		238	7	
2025-08-23T00:00	22900	37	-52.2		245	7	
2025-08-23T00:00	22950	36	-52.0		256	7	
2025-08-23T00:00	23000	36	-52.2		269	8	
2025-08-23T00:00	23050	36	-52.1		280	8	
2025-08-23T00:00	23100	36	-51.9		289	7	
2025-08-23T00:00	23150	35	-51.7		296	7	
2025-08-23T00:00	23200	35	-51.3		298	6	
2025-08-23T00:00	23250	35	-51.0		296	5	
2025-08-23T00:00	23300	35	-51.0		293	5	
2025-08-23T00:00	23350	34	-51.0		288	5	
2025-08-23T00:00	23400	34	-51.1		286	4	
2025-08-23T00:00	23450	34	-51.1		293	4	
2025-08-23T00:00	23500	33	-51.0		303	5	
2025-08-23T00:00	23550	33	-51.0		311	6	
2025-08-23T00:00	23600	33	-51.0		318	6	
2025-08-23T00:00	23650	33	-50.9		322	5	
2025-08-23T00:00	23700	32	-50.6		316	4	
2025-08-23T00:00	23750	32	-50.5		285	3	
2025-08-23T00:00	23800	32	-50.6		264	4	
2025-08-23T00:00	23850	32	-50.1		266	4	
2025-08-23T00:00	23900	31	-49.5		277	4	
2025-08-23T00:00	23950	31	-49.1		291	4	
2025-08-23T00:00	24000	31	-48.9		314	3	
2025-08-23T00:00	24050	31	-48.9		344	3	
2025-08-23T00:00	24100	31	-48.9		13	3	
2025-08-23T00:00	24150	30	-48.8		34	4	
2025-08-23T00:00	24200	30	-48.8		47	4	
2025-08-23T00:00	24250	30	-48.8		57	4	
2025-08-23T00:00	24300	30	-48.6		64	3	
2025-08-23T00:00	24350	29	-48.5		68	3	
2025-08-23T00:00	24400	29	-48.7		70	2	
2025-08-23T00:00	24450	29	-48.8		75	2	
2025-08-23T00:00	24500	29	-48.8		87	3	
2025-08-23T00:00	24550	29	-48.7		103	3	
2025-08-23T00:00	24600	28	-48.5		119	4	
2025-08-23T00:00	24650	28	-48.4		132	6	
2025-08-23T00:00	24700	28	-48.1		142	6	
2025-08-23T00:00	24750	28	-48.3		149	6	
2025-08-23T00:00	24800	27	-48.5		155	6	
2025-08-23T00:00	24850	27	-48.8		162	5	
2025-08-23T00:00	24900	27	-49.1		170	5	
2025-08-23T00:00	24950	27	-49.5		181	4	
2025-08-23T00:00	25000	27	-49.8		193	4	
2025-08-23T00:00	25050	26	-50.2		202	4	
2025-08-23T00:00	25100	26	-50.4		206	4	
2025-08-23T00:00	25150	26	-50.0		202	4	
2025-08-23T00:00	25200	26	-49.5		185	3	
2025-08-23T00:00	25250	26	-49.5		156	3	
2025-08-23T00:00	25300	25	-49.6		128	3	
2025-08-23T00:00	25350	25	-49.3		116	4	
2025-08-23T00:00	25400	25	-48.9		120	4	
2025-08-23T00:00	25450	25	-48.9		132	3	
2025-08-23T00:00	25500	25	-48.9		141	2	
2025-08-23T00:00	25550	24	-48.6		137	1	
2025-08-23T00:00	25600	24	-48.6		124	1	
2025-08-23T00:00	25650	24	-48.4		130	2	
2025-08-23T00:00	25700	24	-48.2		134	3	
2025-08-23T00:00	25750	24	-47.9		132	4	
2025-08-23T00:00	25800	24	-47.7		128	4	
2025-08-23T00:00	25850	23	-47.8		126	5	
2025-08-23T00:00	25900	23	-48.0		125	5	
2025-08-23T00:00	25950	23	-48.2		126	6	
2025-08-23T00:00	26000	23	-48.4		131	6	
2025-08-23T00:00	26050	23	-48.5		139	7	
2025-08-23T00:00	26100	23	-48.6		148	8	
2025-08-23T00:00	26150	22	-48.8		154	8	
2025-08-23T00:00	26200	22	-48.8		158	7	
2025-08-23T00:00	26250	22	-49.0		159	6	
2025-08-23T00:00	26300	22	-49.0		161	4	
2025-08-23T00:00	26350	22	-49.1		162	3	
2025-08-23T00:00	26400	22	-49.0		148	2	
2025-08-23T00:00	26450	21	-49.0		105	1	
2025-08-23T00:00	26500	21	-48.8		100	2	
2025-08-23T00:00	26550	21	-48.6		115	4	
2025-08-23T00:00	26600	21	-48.6		130	5	
2025-08-23T00:00	26650	21	-48.4		142	7	
2025-08-23T00:00	26700	21	-48.3		152	8	
2025-08-23T00:00	26750	20	-48.2		162	7	
2025-08-23T00:00	26800	20	-48.2		170	7	
2025-08-23T00:00	26850	20	-48.4		175	6	
2025-08-23T00:00	26900	20	-48.0		173	5	
2025-08-23T00:00	26950	20	-47.6		169	3	
2025-08-23T00:00	27000	20	-47.4		177	2	
2025-08-23T00:00	27050	19	-47.5		239	1	
2025-08-23T00:00	27100	19	-47.6		286	2	
2025-08-23T00:00	27150	19	-47.8		310	2	
2025-08-23T00:00	27200	19	-47.9		4	1	
2025-08-23T00:00	27250	19	-47.8		57	2	
2025-08-23T00:00	27300	19	-47.4		81	4	
2025-08-23T00:00	27350	19	-47.4		94	5	
2025-08-23T00:00	27400	18	-47.4		103	6	
2025-08-23T00:00	27450	18	-47.5		111	6	
2025-08-23T00:00	27500	18	-47.3		119	7	
2025-08-23T00:00	27550	18	-47.2		131	7	
2025-08-23T00:00	27600	18	-47.4		142	7	
2025-08-23T00:00	27650	18	-47.6		153	7	
2025-08-23T00:00	27700	18	-47.8		163	7	
2025-08-23T00:00	27750	18	-47.9		175	6	
2025-08-23T00:00	27800	17	-48.0		186	5	
2025-08-23T00:00	27850	17	-48.1		201	4	
2025-08-23T00:00	27900	17	-48.3		228	3	
2025-08-23T00:00	27950	17	-48.1		261	3	
2025-08-23T00:00	28000	17	-47.9		294	3	
2025-08-23T00:00	28050	17	-47.4		326	3	
2025-08-23T00:00	28100	17	-47.0		357	3	
2025-08-23T00:00	28150	17	-46.9		25	4	
2025-08-23T00:00	28200	16	-46.7		46	4	
2025-08-23T00:00	28250	16	-46.7		59	4	
2025-08-23T00:00	28300	16	-46.7		63	5	
2025-08-23T00:00	28350	16	-46.6		64	6	
2025-08-23T00:00	28400	16	-46.5		68	6	
2025-08-23T00:00	28450	16	-46.1		76	7	
2025-08-23T00:00	28500	16	-46.0		87	7	
2025-08-23T00:00	28550	16	-46.1		99	7	
2025-08-23T00:00	28600	15	-46.1		108	7	
2025-08-23T00:00	28650	15	-46.2		112	8	
2025-08-23T00:00	28700	15	-46.0		113	8	
2025-08-23T00:00	28750	15	-46.0		114	7	
2025-08-23T00:00	28800	15	-46.0		115	7	
2025-08-23T00:00	28850	15	-46.1		115	7	
2025-08-23T00:00	28900	15	-45.9		114	7	
2025-08-23T00:00	28950	15	-45.5		112	8	
2025-08-23T00:00	29000	15	-45.5		109	8	
2025-08-23T00:00	29050	14	-45.6		104	8	
2025-08-23T00:00	29100	14	-45.6		96	9	
2025-08-23T00:00	29150	14	-45.0		87	9	
2025-08-23T00:00	29200	14	-44.8		81	10	
2025-08-23T00:00	29250	14	-45.0		80	11	
2025-08-23T00:00	29300	14	-44.8		84	12	
2025-08-23T00:00	29350	14	-44.7		89	12	
2025-08-23T00:00	29400	14	-44.7		95	12	
2025-08-23T00:00	29450	14	-44.6		100	12	
2025-08-23T00:00	29500	13	-44.8		105	11	
2025-08-23T00:00	29550	13	-45.0		110	11	
2025-08-23T00:00	29600	13	-44.9		114	10	
2025-08-23T00:00	29650	13	-45.1		117	9	
2025-08-23T00:00	29700	13	-45.0		117	8	
2025-08-23T00:00	29750	13	-44.7		113	7	
2025-08-23T00:00	29800	13	-44.7		108	6	
2025-08-23T00:00	29850	13	-44.5		102	6	
2025-08-23T00:00	29900	13	-44.1		97	6	
2025-08-23T00:00	29950	13	-43.7		97	6	
2025-08-23T00:00	30000	12	-43.5		101	7	
2025-08-23T00:00	30050	12	-43.7		105	8	
2025-08-23T00:00	30100	12	-43.6		109	8	
2025-08-23T00:00	30150	12	-43.6		111	8	
2025-08-23T00:00	30200	12	-43.5		111	8	
2025-08-23T00:00	30250	12	-43.4		110	7	
2025-08-23T00:00	30300	12	-43.5		112	6	
2025-08-23T00:00	30350	12	-43.7		116	6	
2025-08-23T00:00	30400	12	-43.9		118	5	
2025-08-23T00:00	30450	12	-43.7		115	5	
2025-08-23T00:00	30500	12	-43.9		104	4	
2025-08-23T00:00	30550	12	-43.6		84	4	
2025-08-23T00:00	30600	11	-43.2		64	4	
2025-08-23T00:00	30650	11	-42.9		49	5	
2025-08-23T00:00	30700	11	-42.7		38	5	
2025-08-23T00:00	30750	11	-42.7		32	6	
2025-08-23T00:00	30800	11	-42.9		30	7	
2025-08-23T00:00	30850	11	-42.8		34	8	
2025-08-23T00:00	30900	11	-42.7		41	9	
2025-08-23T00:00	30950	11	-42.4		48	10	
2025-08-23T00:00	31000	11	-42.2		54	11	
2025-08-23T00:00	31050	11	-42.1		60	11	
2025-08-23T00:00	31100	11	-42.1		66	12	
2025-08-23T00:00	31150	11	-42.0		73	11	
2025-08-23T00:00	31200	10	-41.9		81	11	
2025-08-23T00:00	31250	10	-42.1		90	10	
2025-08-23T00:00	31300	10	-42.0		98	9	
2025-08-23T00:00	31350	10	-41.8		101	8	
2025-08-23T00:00	31400	10	-41.8		97	7	
2025-08-23T00:00	31450	10	-41.4		85	6	
2025-08-23T00:00	31500	10	-41.5		69	5	
2025-08-23T00:00	31550	10	-41.7		61	5	
2025-08-23T00:00	31600	10	-41.7		67	5	
2025-08-23T00:00	31650	10	-41.6		84	5	
2025-08-23T00:00	31700	10	-41.5		99	6	
2025-08-23T00:00	31750	10	-41.5		112	6	
2025-08-23T00:00	31800	10	-40.9		129	5	
2025-08-23T00:00	31850	10	-40.3		146	5	
2025-08-23T00:00	31900	9	-40.1		160	4	
2025-08-23T00:00	31950	9	-40.0		170	3	
2025-08-23T00:00	32000	9	-40.1		179	2	
2025-08-23T00:00	32050	9	-40.2		179	1	
2025-08-23T00:00	32100	9	-40.3		68	0	
2025-08-23T00:00	32150	9	-40.5		46	2	
2025-08-23T00:00	32200	9	-40.5		42	3	
2025-08-23T00:00	32250	9	-40.6		40	5	
2025-08-23T00:00	32300	9	-40.3		37	6	
2025-08-23T00:00	32350	9	-40.1		38	7	
2025-08-23T00:00	32400	9	-39.7		41	7	
2025-08-23T00:00	32450	9	-39.6		48	6	
2025-08-23T00:00	32500	9	-39.6		57	6	
2025-08-23T00:00	32550	9	-39.8		67	6	
2025-08-23T00:00	32600	9	-40.0		72	6	
2025-08-23T00:00	32650	8	-39.9		74	7	
2025-08-23T00:00	32700	8	-39.9		74	8	
2025-08-23T00:00	32750	8	-39.8		74	9	
2025-08-23T00:00	32800	8	-39.8		74	11	
2025-08-23T00:00	32850	8	-39.9		75	11	
2025-08-23T00:00	32900	8	-39.8		77	12	
2025-08-23T00:00	32950	8	-39.6		81	11	
2025-08-23T00:00	33000	8	-39.4		85	10	
2025-08-23T00:00	33050	8	-39.6		88	9	
2025-08-23T00:00	33100	8	-39.6		90	7	
2025-08-23T00:00	33150	8	-39.7		93	6	
2025-08-23T00:00	33200	8	-39.6		95	5	
2025-08-23T00:00	33250	8	-39.5		89	5	
2025-08-23T00:00	33300	8	-39.2		76	5	
2025-08-23T00:00	33350	8	-39.0		71	5	
2025-08-23T00:00	33400	8	-38.6		73	6	
2025-08-23T00:00	33450	8	-38.1		75	8	
2025-08-23T00:00	33500	7	-38.0		79	8	
2025-08-23T00:00	33550	7	-37.5		88	9	
2025-08-23T00:00	33600	7	-37.1		99	10	
2025-08-23T00:00	33650	7	-36.8		108	10	
2025-08-23T00:00	33700	7	-36.5		111	10	
2025-08-23T00:00	33750	7	-36.3		109	10	
2025-08-23T00:00	33800	7	-36.1		107	10	
2025-08-23T00:00	33850	7	-36.0		106	9	
2025-08-23T00:00	33900	7	-35.8		108	9	
2025-08-23T00:00	33950	7	-35.5		110	9	
2025-08-23T00:00	34000	7	-35.5		107	8	
2025-08-23T00:00	34050	7	-35.3		100	8	
2025-08-23T00:00	34100	7	-35.3		90	8	
2025-08-23T00:00	34150	7	-35.2		78	8	
2025-08-23T00:00	34200	7	-35.0		67	9	
2025-08-23T00:00	34250	7	-34.8		59	10	
2025-08-23T00:00	34300	7	-34.6		55	11	
2025-08-23T00:00	34350	7	-34.5		55	13	
2025-08-23T00:00	34400	7	-34.5		59	14	
2025-08-23T00:00	34450	7	-34.5		64	15	
2025-08-23T00:00	34500	6	-34.3		71	16	
2025-08-23T00:00	34550	6	-34.2		76	16	
2025-08-23T00:00	34600	6	-34.2		79	16	
2025-08-23T00:00	34650	6	-34.2		83	16	
2025-08-23T00:00	34700	6	-34.4		86	16	
2025-08-23T00:00	34750	6	-34.5		91	15	
2025-08-23T00:00	34800	6	-34.7		96	15	
2025-08-23T00:00	34850	6	-35.0		100	14	
2025-08-23T00:00	34900	6	-35.1		104	13	
2025-08-23T00:00	34950	6	-35.0		107	12	
2025-08-23T00:00	35000	6	-35.0		109	11	
2025-08-23T00:00	35050	6	-35.2		109	10	
2025-08-23T00:00	35100	6	-35.3		109	9	
2025-08-23T00:00	35150	6	-35.5		105	8	
2025-08-23T00:00	35200	6	-35.6		99	8	
2025-08-23T00:00	35250	6	-35.6		92	9	
2025-08-23T00:00	35300	6	-35.5		91	10	
2025-08-23T00:00	35350	6	-35.3		93	11	
2025-08-23T00:00	35400	6	-35.0		95	11	
2025-08-23T00:00	35450	6	-34.7		96	12	
2025-08-23T00:00	35500	6	-34.6		98	12	
2025-08-23T00:00	35550	6	-34.4		100	12	
2025-08-23T00:00	35600	6	-34.5		102	11	
2025-08-23T00:00	35650	5	-34.3		99	10	
2025-08-23T00:00	35700	5	-34.2		94	10	
2025-08-23T00:00	35750	5	-34.1		87	11	
2025-08-23T00:00	35800	5	-33.9		81	12	
2025-08-23T00:00	35850	5	-33.7		79	14	
2025-08-23T00:00	35900	5	-33.7		78	15	
2025-08-23T00:00	35950	5	-33.6		80	15	
2025-08-23T12:00	491	961	21.7	11.4	34	2	
2025-08-23T12:00	501	959	20.9	9.9	10	1	
2025-08-23T12:00	520	958	19.1	9.8	3	1	
2025-08-23T12:00	540	956	18.9	9.4	8	1	
2025-08-23T12:00	560	954	18.4	9.0	15	1	
2025-08-23T12:00	580	951	18.4	9.0	20	2	
2025-08-23T12:00	600	949	18.2	8.9	25	2	
2025-08-23T12:00	620	947	17.8	8.8	29	2	
2025-08-23T12:00	640	945	17.7	8.8	32	1	
2025-08-23T12:00	660	942	17.5	8.8	35	1	
2025-08-23T12:00	680	940	17.2	8.7	39	1	
2025-08-23T12:00	700	938	17.1	8.9	43	1	
2025-08-23T12:00	720	936	16.9	8.7	47	1	
2025-08-23T12:00	740	934	16.7	8.5	52	1	
2025-08-23T12:00	760	932	16.6	8.5	55	1	
2025-08-23T12:00	780	929	16.4	8.5	54	1	
2025-08-23T12:00	800	927	16.1	8.4	45	1	
2025-08-23T12:00	820	925	15.9	8.4	33	1	
2025-08-23T12:00	840	923	15.7	8.3	18	1	
2025-08-23T12:00	860	921	15.5	8.3	8	1	
2025-08-23T12:00	880	918	15.3	8.4	4	1	
2025-08-23T12:00	900	916	15.1	8.1	5	2	
2025-08-23T12:00	920	914	14.9	8.2	8	2	
2025-08-23T12:00	940	912	14.7	8.2	10	2	
2025-08-23T12:00	960	910	14.5	8.2	13	2	
2025-08-23T12:00	980	907	14.2	8.1	14	2	
2025-08-23T12:00	1000	905	14.1	8.0	14	2	
2025-08-23T12:00	1020	903	13.9	7.8	12	2	
2025-08-23T12:00	1040	901	13.7	7.9	9	2	
2025-08-23T12:00	1060	899	13.6	7.9	4	2	
2025-08-23T12:00	1080	897	13.4	7.9	357	2	
2025-08-23T12:00	1100	895	13.2	7.8	351	2	
2025-08-23T12:00	1120	893	13.0	7.6	346	3	
2025-08-23T12:00	1140	891	12.8	7.5	342	3	
2025-08-23T12:00	1160	888	12.6	7.6	340	3	
2025-08-23T12:00	1180	886	12.5	7.8	339	4	
2025-08-23T12:00	1200	884	12.3	7.9	338	4	
2025-08-23T12:00	1220	882	12.1	7.9	338	4	
2025-08-23T12:00	1240	880	11.9	7.9	338	4	
2025-08-23T12:00	1260	878	11.7	8.0	337	3	
2025-08-23T12:00	1280	876	11.5	8.0	335	3	
2025-08-23T12:00	1300	874	11.3	8.0	331	3	
2025-08-23T12:00	1320	872	11.1	8.0	326	3	
2025-08-23T12:00	1340	870	10.9	7.8	318	2	
2025-08-23T12:00	1360	867	10.6	7.3	308	2	
2025-08-23T12:00	1380	865	10.5	6.8	299	2	
2025-08-23T12:00	1400	863	10.4	6.5	292	2	
2025-08-23T12:00	1420	861	10.3	6.1	288	2	
2025-08-23T12:00	1440	859	10.2	5.9	286	3	
2025-08-23T12:00	1460	857	10.0	6.0	284	3	
2025-08-23T12:00	1480	855	9.8	5.9	283	3	
2025-08-23T12:00	1500	853	9.6	5.8	283	3	
2025-08-23T12:00	1520	851	9.4	5.6	283	3	
2025-08-23T12:00	1540	849	9.2	5.3	283	3	
2025-08-23T12:00	1560	847	9.1	5.2	283	3	
2025-08-23T12:00	1580	845	8.9	5.1	282	3	
2025-08-23T12:00	1600	843	8.8	4.8	280	3	
2025-08-23T12:00	1620	841	8.7	4.7	277	2	
2025-08-23T12:00	1640	839	8.6	5.1	275	2	
2025-08-23T12:00	1660	837	8.3	5.2	274	2	
2025-08-23T12:00	1680	835	8.2	4.8	274	2	
2025-08-23T12:00	1700	833	7.9	5.1	276	2	
2025-08-23T12:00	1720	831	7.8	4.7	279	2	
2025-08-23T12:00	1740	828	7.7	4.2	280	2	
2025-08-23T12:00	1760	827	7.7	3.4	275	2	
2025-08-23T12:00	1780	825	7.7	2.9	262	2	
2025-08-23T12:00	1800	823	7.4	3.5	242	2	
2025-08-23T12:00	1820	821	6.8	5.0	229	2	
2025-08-23T12:00	1840	819	6.6	4.7	220	3	
2025-08-23T12:00	1860	817	7.0	1.7	216	3	
2025-08-23T12:00	1880	815	7.0	2.1	217	4	
2025-08-23T12:00	1900	813	6.5	4.0	221	4	
2025-08-23T12:00	1920	811	6.3	2.8	228	3	
2025-08-23T12:00	1940	809	6.1	3.5	237	3	
2025-08-23T12:00	1960	807	6.2	0.9	243	3	
2025-08-23T12:00	1980	805	6.3	-0.2	246	3	
2025-08-23T12:00	2000	803	6.6	-1.6	246	4	
2025-08-23T12:00	2020	801	6.4	-2.7	246	4	
2025-08-23T12:00	2040	799	6.5	-3.4	247	4	
2025-08-23T12:00	2060	797	6.4	-4.7	250	4	
2025-08-23T12:00	2080	795	6.3	-6.1	254	4	
2025-08-23T12:00	2100	793	6.3	-7.4	258	4	
2025-08-23T12:00	2120	791	6.4	-8.9	261	4	
2025-08-23T12:00	2140	789	6.3	-9.1	264	4	
2025-08-23T12:00	2160	787	6.1	-9.4	266	5	
2025-08-23T12:00	2180	785	5.9	-9.4	267	5	
2025-08-23T12:00	2200	783	5.8	-9.6	266	5	
2025-08-23T12:00	2220	782	5.6	-9.6	266	5	
2025-08-23T12:00	2240	780	5.4	-10.0	264	5	
2025-08-23T12:00	2260	778	5.3	-10.2	262	5	
2025-08-23T12:00	2280	776	5.1	-10.7	261	5	
2025-08-23T12:00	2300	774	5.2	-13.6	261	4	
2025-08-23T12:00	2320	772	5.3	-16.5	261	4	
2025-08-23T12:00	2340	770	5.3	-17.6	263	4	
2025-08-23T12:00	2360	768	5.2	-19.1	265	4	
2025-08-23T12:00	2380	766	5.2	-19.9	268	3	
2025-08-23T12:00	2400	765	5.1	-21.5	272	3	
2025-08-23T12:00	2420	763	5.0	-21.4	277	3	
2025-08-23T12:00	2440	761	4.9	-20.1	281	3	
2025-08-23T12:00	2460	759	4.7	-21.2	284	3	
2025-08-23T12:00	2480	757	4.8	-26.0	285	3	
2025-08-23T12:00	2500	755	4.6	-26.1	286	3	
2025-08-23T12:00	2520	753	4.4	-26.1	288	3	
2025-08-23T12:00	2540	751	4.3	-25.7	291	3	
2025-08-23T12:00	2560	750	4.1	-25.4	295	3	
2025-08-23T12:00	2580	748	4.1	-22.6	297	3	
2025-08-23T12:00	2600	746	4.1	-18.3	299	4	
2025-08-23T12:00	2620	744	4.0	-16.3	300	4	
2025-08-23T12:00	2640	742	3.9	-14.4	299	5	
2025-08-23T12:00	2660	740	3.9	-14.0	298	5	
2025-08-23T12:00	2680	739	3.9	-13.9	298	5	
2025-08-23T12:00	2700	737	3.7	-13.2	297	6	
2025-08-23T12:00	2720	735	3.7	-10.6	297	6	
2025-08-23T12:00	2740	733	3.5	-7.5	296	6	
2025-08-23T12:00	2760	732	3.4	-6.4	296	6	
2025-08-23T12:00	2780	730	3.3	-5.6	295	5	
2025-08-23T12:00	2800	728	3.1	-5.1	295	5	
2025-08-23T12:00	2820	726	3.0	-4.5	294	5	
2025-08-23T12:00	2840	724	2.8	-4.4	293	4	
2025-08-23T12:00	2860	723	2.6	-4.3	291	4	
2025-08-23T12:00	2880	721	2.5	-4.1	288	4	
2025-08-23T12:00	2900	719	2.3	-4.3	284	4	
2025-08-23T12:00	2920	717	2.1	-4.2	280	4	
2025-08-23T12:00	2940	715	2.0	-3.8	277	4	
2025-08-23T12:00	2960	714	1.9	-2.8	276	5	
2025-08-23T12:00	2980	712	1.7	-1.8	277	5	
2025-08-23T12:00	3000	710	1.6	-1.8	278	5	
2025-08-23T12:00	3020	708	1.4	-1.7	282	5	
2025-08-23T12:00	3040	706	1.3	-1.5	288	6	
2025-08-23T12:00	3060	705	1.2	-1.3	292	6	
2025-08-23T12:00	3080	703	1.1	-1.5	296	6	
2025-08-23T12:00	3100	701	1.1	-2.1	299	6	
2025-08-23T12:00	3120	700	1.0	-2.5	302	6	
2025-08-23T12:00	3140	698	0.8	-2.5	303	5	
2025-08-23T12:00	3160	696	0.7	-2.6	301	5	
2025-08-23T12:00	3180	694	0.6	-2.9	298	5	
2025-08-23T12:00	3200	693	0.5	-3.1	295	5	
2025-08-23T12:00	3220	691	0.4	-3.3	294	5	
2025-08-23T12:00	3240	689	0.3	-3.4	294	6	
2025-08-23T12:00	3260	688	0.2	-3.5	296	6	
2025-08-23T12:00	3280	686	0.1	-3.7	299	6	
2025-08-23T12:00	3300	684	-0.1	-4.0	300	6	
2025-08-23T12:00	3320	683	-0.2	-4.1	301	6	
2025-08-23T12:00	3340	681	-0.3	-4.5	300	6	
2025-08-23T12:00	3360	679	-0.4	-4.6	298	6	
2025-08-23T12:00	3380	677	-0.5	-4.6	297	6	
2025-08-23T12:00	3400	676	-0.7	-4.6	298	6	
2025-08-23T12:00	3420	674	-0.8	-4.8	299	7	
2025-08-23T12:00	3440	672	-1.0	-4.9	299	7	
2025-08-23T12:00	3460	670	-1.2	-5.0	299	7	
2025-08-23T12:00	3480	669	-1.3	-5.2	299	7	
2025-08-23T12:00	3500	667	-1.4	-5.4	298	7	
2025-08-23T12:00	3520	665	-1.6	-5.4	298	7	
2025-08-23T12:00	3540	664	-1.7	-5.5	298	7	
2025-08-23T12:00	3560	662	-1.8	-5.6	298	7	
2025-08-23T12:00	3580	660	-1.9	-5.9	299	7	
2025-08-23T12:00	3600	659	-2.0	-6.7	300	7	
2025-08-23T12:00	3620	657	-2.1	-6.9	301	7	
2025-08-23T12:00	3640	656	-2.2	-6.8	304	8	
2025-08-23T12:00	3660	654	-2.4	-6.8	307	8	
2025-08-23T12:00	3680	652	-2.6	-6.9	311	8	
2025-08-23T12:00	3700	650	-2.7	-7.1	315	8	
2025-08-23T12:00	3720	649	-2.6	-7.6	319	9	
2025-08-23T12:00	3740	647	-2.6	-8.0	323	9	
2025-08-23T12:00	3760	646	-2.6	-8.4	326	9	
2025-08-23T12:00	3780	644	-2.5	-9.0	329	9	
2025-08-23T12:00	3800	642	-2.6	-9.4	330	9	
2025-08-23T12:00	3820	641	-2.7	-9.5	331	9	
2025-08-23T12:00	3840	639	-2.7	-9.1	332	9	
2025-08-23T12:00	3860	638	-2.9	-9.3	331	9	
2025-08-23T12:00	3880	636	-3.0	-9.8	330	9	
2025-08-23T12:00	3900	634	-3.2	-10.0	328	8	
2025-08-23T12:00	3920	633	-3.3	-10.1	325	8	
2025-08-23T12:00	3940	631	-3.3	-10.3	322	8	
2025-08-23T12:00	3960	630	-3.2	-10.4	320	8	
2025-08-23T12:00	3980	628	-3.3	-10.5	319	8	
2025-08-23T12:00	4000	627	-3.3	-11.4	319	8	
2025-08-23T12:00	4020	625	-3.2	-15.0	320	8	
2025-08-23T12:00	4040	623	-3.3	-19.1	320	8	
2025-08-23T12:00	4060	622	-3.3	-24.1	321	8	
2025-08-23T12:00	4080	620	-3.3	-25.0	322	8	
2025-08-23T12:00	4100	619	-3.3	-26.1	323	8	
2025-08-23T12:00	4120	617	-3.4	-27.3	325	8	
2025-08-23T12:00	4140	615	-3.4	-29.7	327	9	
2025-08-23T12:00	4160	614	-3.4	-33.2	328	9	
2025-08-23T12:00	4180	612	-3.5	-35.7	328	10	
2025-08-23T12:00	4200	611	-3.6	-36.9	328	11	
2025-08-23T12:00	4220	609	-3.7	-37.2	326	11	
2025-08-23T12:00	4240	608	-3.8	-37.2	324	12	
2025-08-23T12:00	4260	606	-3.9	-37.1	321	12	
2025-08-23T12:00	4280	605	-3.9	-36.9	319	12	
2025-08-23T12:00	4300	603	-3.9	-35.3	319	13	
2025-08-23T12:00	4320	602	-3.9	-33.8	319	13	
2025-08-23T12:00	4340	600	-4.0	-34.6	320	13	
2025-08-23T12:00	4360	598	-4.1	-33.9	322	14	
2025-08-23T12:00	4380	597	-4.2	-33.8	324	14	
2025-08-23T12:00	4400	595	-4.2	-33.1	325	14	
2025-08-23T12:00	4420	594	-4.3	-32.3	326	14	
2025-08-23T12:00	4440	592	-4.4	-32.7	326	13	
2025-08-23T12:00	4460	591	-4.4	-33.0	326	13	
2025-08-23T12:00	4480	589	-4.5	-33.3	325	12	
2025-08-23T12:00	4500	588	-4.6	-33.9	323	12	
2025-08-23T12:00	4520	586	-4.7	-34.6	322	12	
2025-08-23T12:00	4540	585	-4.8	-34.9	321	13	
2025-08-23T12:00	4560	583	-4.9	-35.8	321	13	
2025-08-23T12:00	4580	582	-5.0	-36.0	321	14	
2025-08-23T12:00	4600	580	-5.1	-35.8	321	14	
2025-08-23T12:00	4620	579	-5.2	-36.0	321	14	
2025-08-23T12:00	4640	578	-5.4	-36.1	321	14	
2025-08-23T12:00	4660	576	-5.5	-36.1	321	14	
2025-08-23T12:00	4680	575	-5.7	-36.2	321	14	
2025-08-23T12:00	4700	573	-5.8	-36.3	322	13	
2025-08-23T12:00	4720	572	-6.0	-36.4	322	13	
2025-08-23T12:00	4740	570	-6.1	-36.8	323	13	
2025-08-23T12:00	4760	569	-6.2	-37.2	323	13	
2025-08-23T12:00	4780	567	-6.3	-37.5	323	12	
2025-08-23T12:00	4800	566	-6.5	-37.5	323	12	
2025-08-23T12:00	4820	564	-6.6	-37.8	324	12	
2025-08-23T12:00	4840	563	-6.7	-39.1	324	12	
2025-08-23T12:00	4860	562	-6.7	-40.0	324	12	
2025-08-23T12:00	4880	560	-6.8	-40.4	324	12	
2025-08-23T12:00	4900	559	-6.9	-40.5	325	13	
2025-08-23T12:00	4920	557	-7.0	-40.8	325	13	
2025-08-23T12:00	4940	556	-7.1	-40.6	326	14	
2025-08-23T12:00	4960	554	-7.2	-39.4	326	14	
2025-08-23T12:00	4980	553	-7.3	-37.1	327	14	
2025-08-23T12:00	5000	551	-7.4	-32.2	327	15	
2025-08-23T12:00	5020	550	-7.5	-33.1	327	15	
2025-08-23T12:00	5040	549	-7.4	-30.7	327	15	
2025-08-23T12:00	5060	547	-7.4	-26.0	327	15	
2025-08-23T12:00	5080	546	-7.5	-24.7	327	16	
2025-08-23T12:00	5100	544	-7.7	-23.5	328	16	
2025-08-23T12:00	5120	543	-7.9	-22.8	328	16	
2025-08-23T12:00	5140	542	-8.1	-23.1	329	17	
2025-08-23T12:00	5160	540	-8.3	-23.6	330	17	
2025-08-23T12:00	5180	539	-8.4	-23.8	330	17	
2025-08-23T12:00	5200	538	-8.6	-23.9	330	17	
2025-08-23T12:00	5220	536	-8.7	-23.8	331	17	
2025-08-23T12:00	5240	535	-8.9	-23.1	331	17	
2025-08-23T12:00	5260	533	-9.0	-23.9	331	16	
2025-08-23T12:00	5280	532	-9.2	-25.8	331	16	
2025-08-23T12:00	5300	531	-9.3	-26.7	331	16	
2025-08-23T12:00	5320	529	-9.3	-32.1	331	16	
2025-08-23T12:00	5340	528	-9.3	-38.8	331	16	
2025-08-23T12:00	5360	526	-9.4	-39.1	330	16	
2025-08-23T12:00	5380	525	-9.5	-38.7	330	16	
2025-08-23T12:00	5400	524	-9.6	-38.0	330	16	
2025-08-23T12:00	5420	522	-9.8	-35.8	330	16	
2025-08-23T12:00	5440	521	-9.9	-33.9	329	16	
2025-08-23T12:00	5460	520	-10.1	-29.5	328	16	
2025-08-23T12:00	5480	518	-10.4	-24.5	328	16	
2025-08-23T12:00	5500	517	-10.6	-22.2	327	15	
2025-08-23T12:00	5520	516	-10.7	-27.6	326	15	
2025-08-23T12:00	5540	514	-10.8	-27.8	325	15	
2025-08-23T12:00	5560	513	-11.0	-27.4	324	15	
2025-08-23T12:00	5580	512	-11.2	-25.8	322	16	
2025-08-23T12:00	5600	510	-11.4	-22.8	321	16	
2025-08-23T12:00	5620	509	-11.6	-24.3	320	16	
2025-08-23T12:00	5640	507	-11.7	-22.4	319	17	
2025-08-23T12:00	5660	506	-11.9	-21.3	318	17	
2025-08-23T12:00	5680	505	-12.1	-20.5	317	17	
2025-08-23T12:00	5700	504	-12.2	-20.1	316	17	
2025-08-23T12:00	5720	502	-12.3	-19.6	315	16	
2025-08-23T12:00	5740	501	-12.5	-19.4	315	16	
2025-08-23T12:00	5760	500	-12.6	-19.1	315	16	
2025-08-23T12:00	5780	498	-12.8	-19.1	315	16	
2025-08-23T12:00	5800	497	-13.0	-19.2	316	15	
2025-08-23T12:00	5820	496	-13.2	-19.5	317	15	
2025-08-23T12:00	5840	495	-13.3	-19.9	318	15	
2025-08-23T12:00	5860	493	-13.5	-19.7	320	15	
2025-08-23T12:00	5880	492	-13.7	-19.3	321	15	
2025-08-23T12:00	5900	491	-13.8	-19.1	322	16	
2025-08-23T12:00	5920	489	-14.0	-19.2	323	16	
2025-08-23T12:00	5940	488	-14.2	-19.5	324	16	
2025-08-23T12:00	5960	487	-14.3	-19.9	325	16	
2025-08-23T12:00	5980	486	-14.4	-20.3	326	17	
2025-08-23T12:00	6000	484	-14.5	-20.4	326	17	
2025-08-23T12:00	6020	483	-14.5	-20.8	326	17	
2025-08-23T12:00	6040	482	-14.5	-21.4	327	17	
2025-08-23T12:00	6060	480	-14.6	-21.6	327	17	
2025-08-23T12:00	6080	479	-14.7	-21.8	327	18	
2025-08-23T12:00	6100	478	-14.9	-22.0	327	18	
2025-08-23T12:00	6120	477	-15.1	-22.1	328	18	
2025-08-23T12:00	6140	475	-15.3	-22.2	328	18	
2025-08-23T12:00	6160	474	-15.4	-22.2	329	18	
2025-08-23T12:00	6180	473	-15.6	-22.3	330	18	
2025-08-23T12:00	6200	471	-15.9	-22.6	330	18	
2025-08-23T12:00	6220	470	-16.0	-22.9	331	18	
2025-08-23T12:00	6240	469	-16.2	-23.1	331	18	
2025-08-23T12:00	6260	468	-16.3	-24.0	331	18	
2025-08-23T12:00	6280	467	-16.3	-24.5	330	18	
2025-08-23T12:00	6300	465	-16.4	-24.8	330	18	
2025-08-23T12:00	6320	464	-16.4	-24.9	329	18	
2025-08-23T12:00	6340	463	-16.5	-24.9	328	18	
2025-08-23T12:00	6360	462	-16.7	-24.7	327	18	
2025-08-23T12:00	6380	460	-16.9	-24.8	327	18	
2025-08-23T12:00	6400	459	-17.0	-25.1	326	19	
2025-08-23T12:00	6420	458	-17.2	-25.1	326	19	
2025-08-23T12:00	6440	457	-17.3	-25.1	326	19	
2025-08-23T12:00	6460	455	-17.5	-25.1	326	19	
2025-08-23T12:00	6480	454	-17.6	-25.0	326	19	
2025-08-23T12:00	6500	453	-17.8	-25.0	326	19	
2025-08-23T12:00	6520	452	-18.0	-25.2	326	18	
2025-08-23T12:00	6540	451	-18.2	-26.0	326	18	
2025-08-23T12:00	6560	450	-18.3	-26.0	325	18	
2025-08-23T12:00	6580	448	-18.5	-25.6	325	18	
2025-08-23T12:00	6600	447	-18.7	-25.5	325	18	
2025-08-23T12:00	6620	446	-18.8	-25.7	324	18	
2025-08-23T12:00	6640	445	-19.0	-25.7	324	18	
2025-08-23T12:00	6660	443	-19.2	-25.8	323	19	
2025-08-23T12:00	6680	442	-19.4	-25.9	323	19	
2025-08-23T12:00	6700	441	-19.5	-25.9	323	19	
2025-08-23T12:00	6720	440	-19.7	-25.9	322	20	
2025-08-23T12:00	6740	439	-19.9	-26.0	322	20	
2025-08-23T12:00	6760	437	-20.0	-25.9	321	20	
2025-08-23T12:00	6780	436	-20.2	-25.8	321	20	
2025-08-23T12:00	6800	435	-20.3	-25.7	320	20	
2025-08-23T12:00	6820	434	-20.5	-25.7	321	20	
2025-08-23T12:00	6840	433	-20.7	-25.7	321	20	
2025-08-23T12:00	6860	432	-20.9	-25.7	321	19	
2025-08-23T12:00	6880	431	-21.0	-25.9	321	19	
2025-08-23T12:00	6900	429	-21.2	-25.9	321	19	
2025-08-23T12:00	6920	428	-21.4	-25.9	321	19	
2025-08-23T12:00	6940	427	-21.6	-25.8	321	19	
2025-08-23T12:00	6960	426	-21.8	-25.8	320	19	
2025-08-23T12:00	6980	425	-22.0	-25.9	319	19	
2025-08-23T12:00	7000	423	-22.2	-25.8	318	20	
2025-08-23T12:00	7020	422	-22.3	-25.7	318	20	
2025-08-23T12:00	7040	421	-22.5	-25.8	317	20	
2025-08-23T12:00	7060	420	-22.6	-26.1	317	20	
2025-08-23T12:00	7080	419	-22.8	-26.5	317	20	
2025-08-23T12:00	7100	418	-22.9	-27.3	318	21	
2025-08-23T12:00	7120	417	-23.0	-27.9	318	21	
2025-08-23T12:00	7140	416	-23.1	-28.7	319	21	
2025-08-23T12:00	7160	414	-23.2	-29.0	320	21	
2025-08-23T12:00	7180	413	-23.3	-28.9	320	21	
2025-08-23T12:00	7200	412	-23.4	-29.1	321	21	
2025-08-23T12:00	7220	411	-23.5	-29.7	321	21	
2025-08-23T12:00	7240	410	-23.6	-30.2	321	21	
2025-08-23T12:00	7260	409	-23.8	-30.5	320	21	
2025-08-23T12:00	7280	408	-24.0	-31.0	320	21	
2025-08-23T12:00	7300	407	-24.2	-31.4	319	20	
2025-08-23T12:00	7320	405	-24.3	-31.8	318	20	
2025-08-23T12:00	7340	404	-24.5	-31.8	317	20	
2025-08-23T12:00	7360	403	-24.6	-31.6	316	20	
2025-08-23T12:00	7380	402	-24.8	-31.4	316	20	
2025-08-23T12:00	7400	401	-24.9	-31.4	315	20	
2025-08-23T12:00	7420	400	-25.1	-31.5	315	20	
2025-08-23T12:00	7440	399	-25.3	-31.5	315	20	
2025-08-23T12:00	7460	398	-25.5	-31.9	314	20	
2025-08-23T12:00	7480	397	-25.6	-32.1	314	20	
2025-08-23T12:00	7500	396	-25.8	-32.4	313	20	
2025-08-23T12:00	7520	394	-25.9	-33.1	313	20	
2025-08-23T12:00	7540	393	-26.0	-33.1	313	21	
2025-08-23T12:00	7560	392	-26.2	-32.6	313	21	
2025-08-23T12:00	7580	391	-26.4	-33.2	313	21	
2025-08-23T12:00	7600	390	-26.5	-35.2	313	21	
2025-08-23T12:00	7620	389	-26.7	-36.3	312	21	
2025-08-23T12:00	7640	388	-26.9	-35.9	312	22	
2025-08-23T12:00	7660	387	-27.0	-36.4	312	22	
2025-08-23T12:00	7680	386	-27.2	-36.5	311	22	
2025-08-23T12:00	7700	385	-27.3	-35.8	311	22	
2025-08-23T12:00	7720	384	-27.5	-36.2	311	22	
2025-08-23T12:00	7740	382	-27.6	-36.7	311	23	
2025-08-23T12:00	7760	381	-27.8	-37.2	311	23	
2025-08-23T12:00	7780	381	-28.0	-36.8	311	23	
2025-08-23T12:00	7800	380	-28.1	-36.4	310	23	
2025-08-23T12:00	7820	378	-28.3	-36.4	310	23	
2025-08-23T12:00	7840	377	-28.5	-35.9	310	24	
2025-08-23T12:00	7860	376	-28.6	-35.2	310	24	
2025-08-23T12:00	7880	375	-28.8	-32.8	310	24	
2025-08-23T12:00	7900	374	-28.8	-32.3	310	23	
2025-08-23T12:00	7920	373	-28.9	-33.1	310	23	
2025-08-23T12:00	7940	372	-29.0	-32.8	310	23	
2025-08-23T12:00	7960	371	-29.2	-32.6	311	23	
2025-08-23T12:00	7980	370	-29.3	-32.8	311	23	
2025-08-23T12:00	8000	369	-29.4	-33.1	311	24	
2025-08-23T12:00	8020	368	-29.4	-33.5	311	24	
2025-08-23T12:00	8040	367	-29.4	-33.6	311	24	
2025-08-23T12:00	8060	366	-29.5	-33.6	311	24	
2025-08-23T12:00	8080	365	-29.5	-33.7	311	24	
2025-08-23T12:00	8100	364	-29.7	-33.7	312	24	
2025-08-23T12:00	8120	363	-29.8	-33.7	312	24	
2025-08-23T12:00	8140	362	-29.9	-33.7	312	24	
2025-08-23T12:00	8160	361	-30.1	-33.9	312	24	
2025-08-23T12:00	8180	360	-30.2	-34.1	312	24	
2025-08-23T12:00	8200	359	-30.4	-34.1	312	24	
2025-08-23T12:00	8220	358	-30.6	-34.2	312	24	
2025-08-23T12:00	8240	357	-30.7	-34.2	311	24	
2025-08-23T12:00	8260	356	-30.9	-34.4	311	25	
2025-08-23T12:00	8280	355	-31.0	-34.7	311	25	
2025-08-23T12:00	8300	354	-31.1	-34.9	311	25	
2025-08-23T12:00	8320	353	-31.1	-35.0	311	25	
2025-08-23T12:00	8340	352	-31.2	-35.1	312	26	
2025-08-23T12:00	8360	351	-31.2	-35.0	312	26	
2025-08-23T12:00	8380	350	-31.3	-34.8	313	26	
2025-08-23T12:00	8400	349	-31.3	-34.9	313	26	
2025-08-23T12:00	8420	348	-31.3	-35.3	314	26	
2025-08-23T12:00	8440	347	-31.4	-35.5	315	25	
2025-08-23T12:00	8460	346	-31.5	-35.5	315	25	
2025-08-23T12:00	8480	345	-31.7	-35.5	316	25	
2025-08-23T12:00	8500	344	-31.9	-35.6	316	25	
2025-08-23T12:00	8520	343	-32.0	-35.7	316	25	
2025-08-23T12:00	8540	342	-32.1	-36.0	317	25	
2025-08-23T12:00	8560	341	-32.2	-36.0	317	25	
2025-08-23T12:00	8580	340	-32.3	-36.1	317	25	
2025-08-23T12:00	8600	339	-32.5	-36.2	317	26	
2025-08-23T12:00	8620	338	-32.7	-36.3	317	26	
2025-08-23T12:00	8640	337	-32.9	-36.5	316	26	
2025-08-23T12:00	8660	336	-33.1	-36.6	316	26	
2025-08-23T12:00	8680	335	-33.2	-36.7	316	26	
2025-08-23T12:00	8700	334	-33.4	-36.8	316	26	
2025-08-23T12:00	8720	333	-33.6	-36.9	315	26	
2025-08-23T12:00	8740	332	-33.8	-36.9	315	26	
2025-08-23T12:00	8760	331	-34.0	-36.9	315	26	
2025-08-23T12:00	8780	331	-34.1	-36.9	315	25	
2025-08-23T12:00	8800	330	-34.2	-37.0	315	25	
2025-08-23T12:00	8820	329	-34.4	-37.1	315	25	
2025-08-23T12:00	8840	328	-34.6	-37.3	314	26	
2025-08-23T12:00	8860	327	-34.8	-37.6	314	26	
2025-08-23T12:00	8880	326	-35.0	-37.6	314	26	
2025-08-23T12:00	8900	325	-35.1	-37.8	314	26	
2025-08-23T12:00	8920	324	-35.2	-37.9	314	26	
2025-08-23T12:00	8940	323	-35.4	-38.0	315	26	
2025-08-23T12:00	8960	322	-35.5	-38.3	315	26	
2025-08-23T12:00	8980	321	-35.6	-38.6	315	26	
2025-08-23T12:00	9000	320	-35.8	-38.9	315	26	
2025-08-23T12:00	9020	319	-35.9	-39.1	316	26	
2025-08-23T12:00	9040	318	-36.1	-39.2	316	26	
2025-08-23T12:00	9060	317	-36.2	-39.3	316	26	
2025-08-23T12:00	9080	317	-36.3	-39.6	316	26	
2025-08-23T12:00	9100	316	-36.4	-39.7	316	25	
2025-08-23T12:00	9120	315	-36.6	-39.9	316	25	
2025-08-23T12:00	9140	314	-36.7	-40.0	316	25	
2025-08-23T12:00	9160	313	-36.9	-40.2	315	25	
2025-08-23T12:00	9180	312	-37.1	-40.5	315	24	
2025-08-23T12:00	9200	311	-37.3	-40.3	315	24	
2025-08-23T12:00	9220	310	-37.5	-40.3	315	24	
2025-08-23T12:00	9240	309	-37.6	-40.4	315	24	
2025-08-23T12:00	9260	308	-37.8	-40.4	314	24	
2025-08-23T12:00	9280	308	-38.0	-40.5	314	24	
2025-08-23T12:00	9300	307	-38.2	-40.8	314	24	
2025-08-23T12:00	9320	306	-38.3	-41.0	313	24	
2025-08-23T12:00	9340	305	-38.5	-41.3	312	24	
2025-08-23T12:00	9360	304	-38.6	-41.6	312	24	
2025-08-23T12:00	9380	303	-38.8	-42.1	311	24	
2025-08-23T12:00	9400	302	-39.0	-42.3	310	24	
2025-08-23T12:00	9420	301	-39.1	-42.5	310	24	
2025-08-23T12:00	9440	300	-39.2	-43.1	310	24	
2025-08-23T12:00	9460	300	-39.4	-43.2	310	24	
2025-08-23T12:00	9480	299	-39.5	-43.4	310	24	
2025-08-23T12:00	9500	298	-39.6	-43.8	310	24	
2025-08-23T12:00	9520	297	-39.8	-44.1	311	24	
2025-08-23T12:00	9540	296	-39.9	-44.1	311	24	
2025-08-23T12:00	9560	295	-40.1	-44.5	312	24	
2025-08-23T12:00	9580	294	-40.2	-44.7	312	25	
2025-08-23T12:00	9600	293	-40.4	-44.5	313	25	
2025-08-23T12:00	9620	293	-40.6	-44.7	313	25	
2025-08-23T12:00	9640	292	-40.8	-44.7	313	25	
2025-08-23T12:00	9660	291	-40.9	-44.8	313	25	
2025-08-23T12:00	9680	290	-41.0	-45.5	313	25	
2025-08-23T12:00	9700	289	-41.1	-46.0	314	24	
2025-08-23T12:00	9720	288	-41.3	-45.8	314	24	
2025-08-23T12:00	9740	288	-41.5	-45.9	314	24	
2025-08-23T12:00	9760	287	-41.6	-46.1	314	24	
2025-08-23T12:00	9780	286	-41.8	-46.3	314	24	
2025-08-23T12:00	9800	285	-41.9	-46.5	314	24	
2025-08-23T12:00	9820	284	-42.1	-46.6	314	24	
2025-08-23T12:00	9840	283	-42.2	-46.7	314	24	
2025-08-23T12:00	9860	282	-42.4	-46.8	313	24	
2025-08-23T12:00	9880	282	-42.5	-46.8	313	25	
2025-08-23T12:00	9900	281	-42.7	-47.0	312	25	
2025-08-23T12:00	9920	280	-42.8	-47.2	312	25	
2025-08-23T12:00	9940	279	-42.9	-47.6	312	25	
2025-08-23T12:00	9960	278	-42.9	-48.0	312	25	
2025-08-23T12:00	9980	277	-43.0	-48.2	312	25	
2025-08-23T12:00	10000	277	-43.1	-48.3	312	25	
2025-08-23T12:00	10018	276	-43.2	-48.5	312	25	
2025-08-23T12:00	10050	274	-43.5	-48.6	312	25	
2025-08-23T12:00	10100	273	-43.8	-48.6	312	25	
2025-08-23T12:00	10150	271	-44.1	-48.3	312	26	
2025-08-23T12:00	10200	269	-44.5	-48.6	312	26	
2025-08-23T12:00	10250	267	-44.9	-49.2	312	27	
2025-08-23T12:00	10300	264	-45.3	-49.7	313	27	
2025-08-23T12:00	10350	262	-45.7	-50.4	314	27	
2025-08-23T12:00	10400	261	-46.1	-51.1	314	27	
2025-08-23T12:00	10450	259	-46.5	-51.2	313	28	
2025-08-23T12:00	10500	257	-46.8	-51.7	313	28	
2025-08-23T12:00	10550	255	-47.2	-52.1	313	28	
2025-08-23T12:00	10600	253	-47.6	-52.6	313	28	
2025-08-23T12:00	10650	251	-48.0	-53.2	313	28	
2025-08-23T12:00	10700	249	-48.4	-54.0	313	28	
2025-08-23T12:00	10750	247	-48.8	-54.2	314	28	
2025-08-23T12:00	10800	245	-49.3	-54.3	314	28	
2025-08-23T12:00	10850	243	-49.7	-54.6	314	28	
2025-08-23T12:00	10900	242	-50.1	-54.9	313	28	
2025-08-23T12:00	10950	240	-50.5	-55.1	312	28	
2025-08-23T12:00	11000	238	-51.0	-55.6	313	28	
2025-08-23T12:00	11050	236	-51.5	-56.3	313	29	
2025-08-23T12:00	11100	234	-51.8	-56.9	314	28	
2025-08-23T12:00	11150	232	-52.2	-57.4	313	28	
2025-08-23T12:00	11200	231	-52.7	-57.6	313	29	
2025-08-23T12:00	11250	229	-53.2	-57.9	312	29	
2025-08-23T12:00	11300	227	-53.6	-58.3	313	29	
2025-08-23T12:00	11350	225	-54.1	-58.5	313	29	
2025-08-23T12:00	11400	224	-54.5	-59.2	312	29	
2025-08-23T12:00	11450	222	-54.9	-60.3	312	29	
2025-08-23T12:00	11500	220	-55.2	-60.9	312	29	
2025-08-23T12:00	11550	218	-55.6	-61.2	312	29	
2025-08-23T12:00	11600	217	-56.0	-61.5	311	29	
2025-08-23T12:00	11650	215	-56.4	-61.7	310	29	
2025-08-23T12:00	11700	213	-56.8	-62.1	310	28	
2025-08-23T12:00	11750	212	-57.2	-62.7	310	28	
2025-08-23T12:00	11800	210	-57.6	-63.1	310	28	
2025-08-23T12:00	11850	208	-58.0	-63.3	310	28	
2025-08-23T12:00	11900	207	-58.4	-63.7	309	29	
2025-08-23T12:00	11950	205	-58.7	-64.6	308	29	
2025-08-23T12:00	12000	203	-59.0	-64.8	308	28	
2025-08-23T12:00	12050	202	-58.8	-64.1	309	26	
2025-08-23T12:00	12100	200	-58.1	-64.3	310	26	
2025-08-23T12:00	12150	199	-57.7	-65.2	310	26	
2025-08-23T12:00	12200	197	-57.9	-65.9	311	28	
2025-08-23T12:00	12250	196	-58.1	-66.4	310	29	
2025-08-23T12:00	12300	194	-58.4	-66.8	310	30	
2025-08-23T12:00	12350	192	-58.7	-67.1	310	31	
2025-08-23T12:00	12400	191	-58.9	-67.6	311	31	
2025-08-23T12:00	12450	189	-58.9	-68.5	314	30	
2025-08-23T12:00	12500	188	-58.5	-70.2	318	28	
2025-08-23T12:00	12550	186	-58.0	-73.3	321	26	
2025-08-23T12:00	12600	185	-57.4	-76.0	321	24	
2025-08-23T12:00	12650	183	-57.3	-76.5	318	22	
2025-08-23T12:00	12700	182	-57.1	-76.4	314	21	
2025-08-23T12:00	12750	181	-57.1	-76.6	307	20	
2025-08-23T12:00	12800	179	-57.1	-76.7	301	20	
2025-08-23T12:00	12850	178	-56.9	-77.3	296	21	
2025-08-23T12:00	12900	176	-57.0	-77.5	294	22	
2025-08-23T12:00	12950	175	-57.0	-77.8	294	23	
2025-08-23T12:00	13000	174	-56.7	-78.0	295	24	
2025-08-23T12:00	13050	172	-56.8	-78.0	297	25	
2025-08-23T12:00	13100	171	-56.8	-77.8	302	26	
2025-08-23T12:00	13150	169	-56.5	-77.9	307	25	
2025-08-23T12:00	13200	168	-55.7	-78.4	311	23	
2025-08-23T12:00	13250	167	-55.2	-78.8	312	21	
2025-08-23T12:00	13300	166	-55.1	-79.0	310	19	
2025-08-23T12:00	13350	164	-55.0	-79.1	307	19	
2025-08-23T12:00	13400	163	-55.3	-79.2	304	20	
2025-08-23T12:00	13450	162	-55.6	-79.2	302	21	
2025-08-23T12:00	13500	160	-55.6	-79.4	301	22	
2025-08-23T12:00	13550	159	-55.7	-79.4	302	22	
2025-08-23T12:00	13600	158	-55.6	-79.5	304	21	
2025-08-23T12:00	13650	157	-55.5	-79.8	305	20	
2025-08-23T12:00	13700	155	-55.7	-80.0	303	18	
2025-08-23T12:00	13750	154	-55.8	-80.4	299	17	
2025-08-23T12:00	13800	153	-55.8	-80.9	295	18	
2025-08-23T12:00	13850	152	-55.8	-81.1	294	19	
2025-08-23T12:00	13900	151	-55.8	-81.3	295	19	
2025-08-23T12:00	13950	149	-55.5	-81.2	294	19	
2025-08-23T12:00	14000	148	-55.5	-81.1	291	19	
2025-08-23T12:00	14050	147	-55.8	-81.2	289	20	
2025-08-23T12:00	14100	146	-56.1	-81.2	289	21	
2025-08-23T12:00	14150	145	-56.2	-81.2	290	22	
2025-08-23T12:00	14200	144	-56.2	-81.2	292	23	
2025-08-23T12:00	14250	143	-56.2	-81.4	293	23	
2025-08-23T12:00	14300	141	-56.2	-81.5	296	23	
2025-08-23T12:00	14350	140	-56.3	-81.6	299	23	
2025-08-23T12:00	14400	139	-56.3	-81.6	302	22	
2025-08-23T12:00	14450	138	-56.4	-81.6	304	21	
2025-08-23T12:00	14500	137	-56.7	-81.6	304	21	
2025-08-23T12:00	14550	136	-56.7	-81.5	304	20	
2025-08-23T12:00	14600	135	-56.8	-81.6	302	21	
2025-08-23T12:00	14650	134	-57.1	-81.9	302	21	
2025-08-23T12:00	14700	133	-56.9	-82.3	302	21	
2025-08-23T12:00	14750	132	-56.9	-82.5	302	20	
2025-08-23T12:00	14800	131	-56.8	-82.5	302	19	
2025-08-23T12:00	14850	130	-57.0	-82.4	301	18	
2025-08-23T12:00	14900	129	-57.0	-82.3	299	17	
2025-08-23T12:00	14950	128	-57.1	-82.3	297	16	
2025-08-23T12:00	15000	127	-57.2	-82.3	293	16	
2025-08-23T12:00	15050	126	-57.3	-82.4	289	16	
2025-08-23T12:00	15100	125	-57.4	-82.5	285	17	
2025-08-23T12:00	15150	124	-57.3	-82.6	283	17	
2025-08-23T12:00	15200	123	-57.4	-82.6	282	18	
2025-08-23T12:00	15250	122	-57.4	-82.6	281	18	
2025-08-23T12:00	15300	121	-57.5	-82.7	280	18	
2025-08-23T12:00	15350	120	-57.8	-82.9	280	18	
2025-08-23T12:00	15400	119	-57.9	-83.0	283	19	
2025-08-23T12:00	15450	118	-57.9	-83.2	286	19	
2025-08-23T12:00	15500	117	-57.8	-83.5	288	19	
2025-08-23T12:00	15550	116	-57.7	-83.7	291	19	
2025-08-23T12:00	15600	115	-57.7	-83.9	292	19	
2025-08-23T12:00	15650	114	-57.7	-83.9	292	19	
2025-08-23T12:00	15700	113	-57.6	-83.9	290	19	
2025-08-23T12:00	15750	112	-57.5	-83.8	288	19	
2025-08-23T12:00	15800	112	-57.5	-83.6	288	19	
2025-08-23T12:00	15850	111	-57.5	-83.6	289	19	
2025-08-23T12:00	15900	110	-57.6	-83.6	290	19	
2025-08-23T12:00	15950	109	-57.5	-83.6	292	19	
2025-08-23T12:00	16000	108	-57.1	-83.7	293	18	
2025-08-23T12:00	16050	107	-56.9	-84.0	296	18	
2025-08-23T12:00	16100	106	-56.5	-84.1	300	18	
2025-08-23T12:00	16150	106	-56.4	-84.0	302	17	
2025-08-23T12:00	16200	105	-56.1	-83.8	302	16	
2025-08-23T12:00	16250	104	-56.3	-83.9	301	16	
2025-08-23T12:00	16300	103	-56.3	-83.9	299	15	
2025-08-23T12:00	16350	102	-56.3	-83.9	298	15	
2025-08-23T12:00	16400	101	-56.3	-84.0	296	13	
2025-08-23T12:00	16450	101	-56.1	-83.9	294	13	
2025-08-23T12:00	16500	100	-56.1	-83.9	293	14	
2025-08-23T12:00	16550	99	-56.1	-84.0	291	14	
2025-08-23T12:00	16600	98	-56.0	-84.0	290	13	
2025-08-23T12:00	16650	98	-55.7	-84.0	286	12	
2025-08-23T12:00	16700	97	-55.8	-83.9	280	11	
2025-08-23T12:00	16750	96	-56.0	-83.9	272	11	
2025-08-23T12:00	16800	95	-56.2	-83.8	267	11	
2025-08-23T12:00	16850	95	-56.5	-83.9	264	12	
2025-08-23T12:00	16900	94	-56.8	-84.0	264	13	
2025-08-23T12:00	16950	93	-57.2	-84.3	268	13	
2025-08-23T12:00	17000	92	-57.3	-84.4	273	14	
2025-08-23T12:00	17050	92	-57.2	-84.6	276	14	
2025-08-23T12:00	17100	91	-56.9	-84.6	276	14	
2025-08-23T12:00	17150	90	-56.7	-84.6	276	14	
2025-08-23T12:00	17200	89	-56.4	-84.5	279	14	
2025-08-23T12:00	17250	89	-56.1	-84.4	282	15	
2025-08-23T12:00	17300	88	-56.3	-84.4	284	15	
2025-08-23T12:00	17350	87	-56.1	-84.4	284	14	
2025-08-23T12:00	17400	87	-56.0	-84.4	283	14	
2025-08-23T12:00	17450	86	-55.9	-84.4	285	13	
2025-08-23T12:00	17500	85	-55.5	-84.3	287	13	
2025-08-23T12:00	17550	85	-55.4	-84.3	290	13	
2025-08-23T12:00	17600	84	-55.5	-84.2	293	13	
2025-08-23T12:00	17650	83	-55.6	-84.2	294	13	
2025-08-23T12:00	17700	83	-55.7	-84.2	291	12	
2025-08-23T12:00	17750	82	-55.5	-84.3	287	12	
2025-08-23T12:00	17800	81	-55.1	-84.2	282	11	
2025-08-23T12:00	17850	81	-55.0	-84.2	279	11	
2025-08-23T12:00	17900	80	-55.0	-84.1	279	11	
2025-08-23T12:00	17950	80	-54.8	-84.1	276	11	
2025-08-23T12:00	18000	79	-54.5	-84.1	270	10	
2025-08-23T12:00	18050	78	-54.1	-83.9	265	11	
2025-08-23T12:00	18100	78	-54.1	-83.7	265	11	
2025-08-23T12:00	18150	77	-54.3	-83.7	266	11	
2025-08-23T12:00	18200	76	-54.7	-83.8	268	11	
2025-08-23T12:00	18250	76	-54.8	-83.8	270	11	
2025-08-23T12:00	18300	75	-55.0	-83.9	272	11	
2025-08-23T12:00	18350	75	-55.4	-84.0	273	11	
2025-08-23T12:00	18400	74	-55.5	-84.0	274	11	
2025-08-23T12:00	18450	74	-55.7	-84.1	275	11	
2025-08-23T12:00	18500	73	-55.8	-84.1	278	11	
2025-08-23T12:00	18550	72	-56.0	-84.3	282	11	
2025-08-23T12:00	18600	72	-56.1	-84.3	284	11	
2025-08-23T12:00	18650	71	-56.4	-84.4	285	10	
2025-08-23T12:00	18700	71	-56.7	-84.6	286	10	
2025-08-23T12:00	18750	70	-56.6	-84.6	287	10	
2025-08-23T12:00	18800	70	-56.8	-84.8	285	10	
2025-08-23T12:00	18850	69	-56.7	-84.9	280	10	
2025-08-23T12:00	18900	69	-56.2	-84.8	276	10	
2025-08-23T12:00	18950	68	-56.2	-84.6	275	10	
2025-08-23T12:00	19000	67	-56.6	-84.6	274	10	
2025-08-23T12:00	19050	67	-56.8	-84.7	272	10	
2025-08-23T12:00	19100	66	-57.0	-84.9	268	10	
2025-08-23T12:00	19150	66	-57.0	-84.9	265	11	
2025-08-23T12:00	19200	65	-56.8	-84.9	266	12	
2025-08-23T12:00	19250	65	-56.9	-85.1	270	13	
2025-08-23T12:00	19300	64	-56.5	-85.0	275	13	
2025-08-23T12:00	19350	64	-56.1	-85.0	279	13	
2025-08-23T12:00	19400	63	-55.4	-84.8	282	12	
2025-08-23T12:00	19450	63	-55.0	-84.6	282	10	
2025-08-23T12:00	19500	62	-55.0	-84.5	281	9	
2025-08-23T12:00	19550	62	-55.0	-84.4	280	9	
2025-08-23T12:00	19600	61	-54.8	-84.4	278	9	
2025-08-23T12:00	19650	61	-54.6	-84.4	272	9	
2025-08-23T12:00	19700	60	-53.9	-84.1	262	10	
2025-08-23T12:00	19750	60	-53.8	-84.1	252	10	
2025-08-23T12:00	19800	59	-53.5	-83.8	245	11	
2025-08-23T12:00	19850	59	-53.5	-83.7	243	12	
2025-08-23T12:00	19900	59	-53.8	-83.7	243	13	
2025-08-23T12:00	19950	58	-54.1	-83.7	246	13	
2025-08-23T12:00	20000	58	-54.4	-83.7	250	13	
2025-08-23T12:00	20050	57	-54.6		255	13	
2025-08-23T12:00	20100	57	-54.9		261	13	
2025-08-23T12:00	20150	56	-55.0		268	14	
2025-08-23T12:00	20200	56	-55.1		274	13	
2025-08-23T12:00	20250	55	-55.2		280	13	
2025-08-23T12:00	20300	55	-55.1		284	12	
2025-08-23T12:00	20350	55	-55.0		285	11	
2025-08-23T12:00	20400	54	-55.3		284	9	
2025-08-23T12:00	20450	54	-55.5		285	8	
2025-08-23T12:00	20500	53	-55.3		289	8	
2025-08-23T12:00	20550	53	-55.0		294	9	
2025-08-23T12:00	20600	52	-55.2		296	10	
2025-08-23T12:00	20650	52	-55.4		297	11	
2025-08-23T12:00	20700	52	-55.5		297	10	
2025-08-23T12:00	20750	51	-55.5		292	8	
2025-08-23T12:00	20800	51	-54.4		281	7	
2025-08-23T12:00	20850	50	-53.8		282	7	
2025-08-23T12:00	20900	50	-53.1		295	8	
2025-08-23T12:00	20950	50	-52.7		308	8	
2025-08-23T12:00	21000	49	-52.4		319	6	
2025-08-23T12:00	21050	49	-52.0		327	4	
2025-08-23T12:00	21100	49	-51.5		327	2	
2025-08-23T12:00	21150	48	-51.3		298	1	
2025-08-23T12:00	21200	48	-51.4		253	2	
2025-08-23T12:00	21250	47	-51.8		239	2	
2025-08-23T12:00	21300	47	-52.1		243	3	
2025-08-23T12:00	21350	47	-52.5		253	4	
2025-08-23T12:00	21400	46	-52.5		267	4	
2025-08-23T12:00	21450	46	-52.5		286	4	
2025-08-23T12:00	21500	46	-52.6		303	4	
2025-08-23T12:00	21550	45	-52.7		313	4	
2025-08-23T12:00	21600	45	-52.7		317	5	
2025-08-23T12:00	21650	45	-52.7		318	5	
2025-08-23T12:00	21700	44	-52.5		319	4	
2025-08-23T12:00	21750	44	-52.1		325	3	
2025-08-23T12:00	21800	44	-52.2		338	2	
2025-08-23T12:00	21850	43	-52.3		352	1	
2025-08-23T12:00	21900	43	-52.4		221	0	
2025-08-23T12:00	21950	43	-52.6		208	2	
2025-08-23T12:00	22000	42	-52.4		210	4	
2025-08-23T12:00	22050	42	-52.5		215	5	
2025-08-23T12:00	22100	42	-52.8		225	5	
2025-08-23T12:00	22150	41	-52.6		236	5	
2025-08-23T12:00	22200	41	-52.2		245	5	
2025-08-23T12:00	22250	41	-52.0		255	4	
2025-08-23T12:00	22300	40	-51.8		272	2	
2025-08-23T12:00	22350	40	-52.0		306	1	
2025-08-23T12:00	22400	40	-51.8		52	1	
2025-08-23T12:00	22450	39	-51.3		128	2	
2025-08-23T12:00	22500	39	-51.3		147	3	
2025-08-23T12:00	22550	39	-51.3		164	4	
2025-08-23T12:00	22600	39	-51.2		179	3	
2025-08-23T12:00	22650	38	-51.3		183	4	
2025-08-23T12:00	22700	38	-51.1		180	5	
2025-08-23T12:00	22750	38	-51.2		181	5	
2025-08-23T12:00	22800	37	-50.9		184	5	
2025-08-23T12:00	22850	37	-50.3		188	5	
2025-08-23T12:00	22900	37	-50.5		193	6	
2025-08-23T12:00	22950	36	-50.7		199	6	
2025-08-23T12:00	23000	36	-50.8		204	7	
2025-08-23T12:00	23050	36	-50.8		208	7	
2025-08-23T12:00	23100	36	-50.7		212	7	
2025-08-23T12:00	23150	35	-50.2		217	5	
2025-08-23T12:00	23200	35	-49.9		221	4	
2025-08-23T12:00	23250	35	-50.0		223	4	
2025-08-23T12:00	23300	35	-50.1		221	4	
2025-08-23T12:00	23350	34	-49.9		218	4	
2025-08-23T12:00	23400	34	-49.9		217	5	
2025-08-23T12:00	23450	34	-49.9		219	4	
2025-08-23T12:00	23500	34	-49.8		221	4	
2025-08-23T12:00	23550	33	-50.1		230	3	
2025-08-23T12:00	23600	33	-50.0		244	2	
2025-08-23T12:00	23650	33	-49.8		256	2	
2025-08-23T12:00	23700	33	-49.6		273	1	
2025-08-23T12:00	23750	32	-49.6		353	0	
2025-08-23T12:00	23800	32	-49.6		11	0	
2025-08-23T12:00	23850	32	-49.6		194	1	
2025-08-23T12:00	23900	32	-49.5		193	3	
2025-08-23T12:00	23950	31	-49.6		197	3	
2025-08-23T12:00	24000	31	-49.4		205	3	
2025-08-23T12:00	24050	31	-49.5		218	2	
2025-08-23T12:00	24100	31	-49.5		231	2	
2025-08-23T12:00	24150	30	-49.6		236	3	
2025-08-23T12:00	24200	30	-49.5		236	4	
2025-08-23T12:00	24250	30	-49.7		234	5	
2025-08-23T12:00	24300	30	-49.6		233	6	
2025-08-23T12:00	24350	29	-49.5		238	6	
2025-08-23T12:00	24400	29	-49.4		246	6	
2025-08-23T12:00	24450	29	-49.2		254	6	
2025-08-23T12:00	24500	29	-49.1		260	5	
2025-08-23T12:00	24550	29	-49.2		263	4	
2025-08-23T12:00	24600	28	-49.5		265	3	
2025-08-23T12:00	24650	28	-49.6		259	2	
2025-08-23T12:00	24700	28	-49.5		235	1	
2025-08-23T12:00	24750	28	-49.6		152	0	
2025-08-23T12:00	24800	27	-50.0		85	1	
2025-08-23T12:00	24850	27	-50.4		78	2	
2025-08-23T12:00	24900	27	-50.6		88	3	
2025-08-23T12:00	24950	27	-50.2		106	4	
2025-08-23T12:00	25000	27	-50.1		126	4	
2025-08-23T12:00	25050	26	-50.1		142	5	
2025-08-23T12:00	25100	26	-50.0		157	5	
2025-08-23T12:00	25150	26	-49.4		171	4	
2025-08-23T12:00	25200	26	-49.2		185	3	
2025-08-23T12:00	25250	26	-49.4		202	2	
2025-08-23T12:00	25300	25	-49.8		225	1	
2025-08-23T12:00	25350	25	-49.7		242	1	
2025-08-23T12:00	25400	25	-49.1		185	0	
2025-08-23T12:00	25450	25	-48.8		153	1	
2025-08-23T12:00	25500	25	-48.6		147	1	
2025-08-23T12:00	25550	25	-48.7		136	2	
2025-08-23T12:00	25600	24	-48.7		129	3	
2025-08-23T12:00	25650	24	-48.6		127	4	
2025-08-23T12:00	25700	24	-48.4		126	6	
2025-08-23T12:00	25750	24	-48.1		125	7	
2025-08-23T12:00	25800	24	-47.8		124	8	
2025-08-23T12:00	25850	23	-47.7		123	9	
2025-08-23T12:00	25900	23	-47.5		125	9	
2025-08-23T12:00	25950	23	-47.4		129	9	
2025-08-23T12:00	26000	23	-47.7		134	9	
2025-08-23T12:00	26050	23	-48.0		140	8	
2025-08-23T12:00	26100	23	-48.4		146	8	
2025-08-23T12:00	26150	22	-48.6		152	7	
2025-08-23T12:00	26200	22	-48.9		157	7	
2025-08-23T12:00	26250	22	-49.2		163	6	
2025-08-23T12:00	26300	22	-49.3		168	5	
2025-08-23T12:00	26350	22	-49.1		167	4	
2025-08-23T12:00	26400	22	-48.9		151	3	
2025-08-23T12:00	26450	21	-48.6		126	3	
2025-08-23T12:00	26500	21	-48.6		104	3	
2025-08-23T12:00	26550	21	-48.6		95	4	
2025-08-23T12:00	26600	21	-48.6		100	5	
2025-08-23T12:00	26650	21	-48.5		112	7	
2025-08-23T12:00	26700	21	-48.5		123	8	
2025-08-23T12:00	26750	20	-48.6		131	10	
2025-08-23T12:00	26800	20	-48.8		137	11	
2025-08-23T12:00	26850	20	-49.0		141	12	
2025-08-23T12:00	26900	20	-48.8		143	12	
2025-08-23T12:00	26950	20	-49.0		145	12	
2025-08-23T12:00	27000	20	-49.2		149	11	
2025-08-23T12:00	27050	20	-49.1		154	11	
2025-08-23T12:00	27100	19	-49.1		160	10	
2025-08-23T12:00	27150	19	-49.2		162	10	
2025-08-23T12:00	27200	19	-49.0		161	9	
2025-08-23T12:00	27250	19	-48.6		154	7	
2025-08-23T12:00	27300	19	-48.3		140	5	
2025-08-23T12:00	27350	19	-48.1		125	5	
2025-08-23T12:00	27400	19	-47.8		122	6	
2025-08-23T12:00	27450	18	-47.5		125	8	
2025-08-23T12:00	27500	18	-47.5		129	9	
2025-08-23T12:00	27550	18	-47.3		135	10	
2025-08-23T12:00	27600	18	-47.6		142	11	
2025-08-23T12:00	27650	18	-48.1		149	11	
2025-08-23T12:00	27700	18	-48.3		154	11	
2025-08-23T12:00	27750	18	-48.6		160	11	
2025-08-23T12:00	27800	17	-48.7		166	11	
2025-08-23T12:00	27850	17	-48.8		173	10	
2025-08-23T12:00	27900	17	-48.7		179	8	
2025-08-23T12:00	27950	17	-48.8		183	7	
2025-08-23T12:00	28000	17	-48.6		181	6	
2025-08-23T12:00	28050	17	-48.3		177	5	
2025-08-23T12:00	28100	17	-48.0		173	4	
2025-08-23T12:00	28150	17	-47.5		168	3	
2025-08-23T12:00	28200	16	-47.0		153	3	
2025-08-23T12:00	28250	16	-46.8		132	3	
2025-08-23T12:00	28300	16	-46.8		119	3	
2025-08-23T12:00	28350	16	-46.7		108	2	
2025-08-23T12:00	28400	16	-46.6		86	2	
2025-08-23T12:00	28450	16	-46.5		66	2	
2025-08-23T12:00	28500	16	-46.4		64	3	
2025-08-23T12:00	28550	16	-46.5		69	5	
2025-08-23T12:00	28600	15	-46.4		75	6	
2025-08-23T12:00	28650	15	-46.3		83	7	
2025-08-23T12:00	28700	15	-46.2		90	7	
2025-08-23T12:00	28750	15	-46.2		93	8	
2025-08-23T12:00	28800	15	-46.1		91	7	
2025-08-23T12:00	28850	15	-46.0		87	7	
2025-08-23T12:00	28900	15	-45.8		88	6	
2025-08-23T12:00	28950	15	-45.5		93	6	
2025-08-23T12:00	29000	15	-45.4		96	6	
2025-08-23T12:00	29050	14	-45.4		98	6	
2025-08-23T12:00	29100	14	-45.3		97	5	
2025-08-23T12:00	29150	14	-45.2		92	5	
2025-08-23T12:00	29200	14	-45.0		87	6	
2025-08-23T12:00	29250	14	-44.8		87	7	
2025-08-23T12:00	29300	14	-44.5		91	8	
2025-08-23T12:00	29350	14	-44.3		98	8	
2025-08-23T12:00	29400	14	-44.3		107	8	
2025-08-23T12:00	29450	14	-44.3		115	8	
2025-08-23T12:00	29500	13	-44.6		123	8	
2025-08-23T12:00	29550	13	-44.9		130	8	
2025-08-23T12:00	29600	13	-44.8		138	8	
2025-08-23T12:00	29650	13	-44.8		144	8	
2025-08-23T12:00	29700	13	-45.2		147	7	
2025-08-23T12:00	29750	13	-45.4		146	7	
2025-08-23T12:00	29800	13	-45.3		139	6	
2025-08-23T12:00	29850	13	-45.1		126	5	
2025-08-23T12:00	29900	13	-45.2		111	5	
2025-08-23T12:00	29950	13	-45.4		96	5	
2025-08-23T12:00	30000	13	-45.2		84	5	
2025-08-23T12:00	30050	12	-44.8		78	6	
2025-08-23T12:00	30100	12	-44.5		77	7	
2025-08-23T12:00	30150	12	-44.4		78	7	
2025-08-23T12:00	30200	12	-44.4		80	8	
2025-08-23T12:00	30250	12	-44.7		85	8	
2025-08-23T12:00	30300	12	-44.8		94	8	
2025-08-23T12:00	30350	12	-44.8		103	8	
2025-08-23T12:00	30400	12	-44.6		112	7	
2025-08-23T12:00	30450	12	-44.4		117	7	
2025-08-23T12:00	30500	12	-44.3		118	6	
2025-08-23T12:00	30550	12	-44.2		115	5	
2025-08-23T12:00	30600	11	-44.1		105	4	
2025-08-23T12:00	30650	11	-43.7		87	3	
2025-08-23T12:00	30700	11	-43.4		70	4	
2025-08-23T12:00	30750	11	-43.2		61	5	
2025-08-23T12:00	30800	11	-43.0		56	6	
2025-08-23T12:00	30850	11	-42.8		47	6	
2025-08-23T12:00	30900	11	-42.8		37	7	
2025-08-23T12:00	30950	11	-42.7		33	7	
2025-08-23T12:00	31000	11	-42.2		37	8	
2025-08-23T12:00	31050	11	-41.8		45	8	
2025-08-23T12:00	31100	11	-41.6		54	8	
2025-08-23T12:00	31150	11	-41.5		63	8	
2025-08-23T12:00	31200	10	-41.5		71	8	
2025-08-23T12:00	31250	10	-41.4		75	8	
2025-08-23T12:00	31300	10	-41.0		73	8	
2025-08-23T12:00	31350	10	-40.3		71	9	
2025-08-23T12:00	31400	10	-39.4		74	9	
2025-08-23T12:00	31450	10	-38.7		82	10	
2025-08-23T12:00	31500	10	-38.5		93	10	
2025-08-23T12:00	31550	10	-38.8		104	10	
2025-08-23T12:00	31600	10	-39.0		112	11	
2025-08-23T12:00	31650	10	-39.1		116	10	
2025-08-23T12:00	31700	10	-39.1		113	10	
2025-08-23T12:00	31750	10	-38.9		105	9	
2025-08-23T12:00	31800	10	-38.5		91	9	
2025-08-23T12:00	31850	10	-37.9		83	9	
2025-08-23T12:00	31900	9	-37.5		85	9	
2025-08-23T12:00	31950	9	-37.0		95	9	
2025-08-23T12:00	32000	9	-37.0		108	9	
2025-08-23T12:00	32050	9	-36.7		115	9	
2025-08-23T12:00	32100	9	-36.5		112	9	
2025-08-23T12:00	32150	9	-36.3		103	8	
2025-08-23T12:00	32200	9	-36.3		93	9	
2025-08-23T12:00	32250	9	-36.2		84	9	
2025-08-23T12:00	32300	9	-36.1		77	10	
2025-08-23T12:00	32350	9	-36.0		72	11	
2025-08-23T12:00	32400	9	-36.0		71	11	
2025-08-23T12:00	32450	9	-36.0		72	10	
2025-08-23T12:00	32500	9	-36.3		76	9	
2025-08-23T12:00	32550	9	-36.6		83	9	
2025-08-23T12:00	32600	9	-36.8		95	8	
2025-08-23T12:00	32650	8	-36.9		110	8	
2025-08-23T12:00	32700	8	-36.8		121	9	
2025-08-23T12:00	32750	8	-36.6		128	9	
2025-08-23T12:00	32800	8	-36.5		134	8	
2025-08-23T12:00	32850	8	-36.5		136	8	
2025-08-23T12:00	32900	8	-36.4		134	7	
2025-08-23T12:00	32950	8	-36.0		125	7	
2025-08-23T12:00	33000	8	-35.5		116	7	
2025-08-23T12:00	33050	8	-35.4		111	9	
2025-08-23T12:00	33100	8	-35.4		107	10	
2025-08-23T12:00	33150	8	-35.4		105	11	
2025-08-23T12:00	33200	8	-35.1		101	13	
2025-08-23T12:00	33250	8	-35.0		97	14	
2025-08-23T12:00	33300	8	-35.0		95	15	
2025-08-23T12:00	33350	8	-34.9		95	16	
2025-08-23T12:00	33400	8	-34.8		96	18	
2025-08-23T12:00	33450	8	-34.7		99	19	
2025-08-23T12:00	33500	8	-34.5		101	19	
2025-08-23T12:00	33550	7	-34.4		103	18	
2025-08-23T12:00	33600	7	-34.4		106	16	
2025-08-23T12:00	33650	7	-34.8		111	15	
2025-08-23T12:00	33700	7	-35.1		115	14	
2025-08-23T12:00	33750	7	-34.9		118	12	
2025-08-23T12:00	33800	7	-34.8		119	11	
2025-08-23T12:00	33850	7	-34.3		117	10	
2025-08-23T12:00	33900	7	-33.8		113	10	
2025-08-23T12:00	33950	7	-33.7		109	10	
2025-08-23T12:00	34000	7	-33.5		106	10	
2025-08-23T12:00	34050	7	-33.2		103	10	
2025-08-23T12:00	34100	7	-32.9		103	10	
2025-08-23T12:00	34150	7	-32.5		104	10	
2025-08-23T12:00	34200	7	-32.4		107	11	
2025-08-23T12:00	34250	7	-32.1		109	12	
2025-08-23T12:00	34300	7	-31.8		111	13	
2025-08-23T12:00	34350	7	-31.8		114	14	
2025-08-23T12:00	34400	7	-31.9		116	14	
2025-08-23T12:00	34450	7	-32.1		118	14	
2025-08-23T12:00	34500	7	-32.1		121	14	
2025-08-23T12:00	34550	6	-32.1		125	14	
2025-08-23T12:00	34600	6	-32.4		128	14	
2025-08-23T12:00	34650	6	-32.3		129	13	
2025-08-23T12:00	34700	6	-32.1		130	13	
2025-08-23T12:00	34750	6	-32.1		132	12	
2025-08-23T12:00	34800	6	-32.1		134	11	
2025-08-23T12:00	34850	6	-32.0		136	10	
2025-08-23T12:00	34900	6	-32.1		138	10	
2025-08-23T12:00	34950	6	-32.0		139	10	
2025-08-23T12:00	35000	6	-32.2		141	10	
2025-08-23T12:00	35050	6	-32.5		141	10	
2025-08-23T12:00	35100	6	-32.8		140	9	
2025-08-23T12:00	35150	6	-33.0		135	9	
2025-08-23T12:00	35200	6	-33.0		129	9	
2025-08-23T12:00	35250	6	-32.7		124	8	
2025-08-23T12:00	35300	6	-32.4		120	8	
2025-08-23T12:00	35350	6	-32.5		118	7	
2025-08-23T12:00	35400	6	-32.5		118	7	
2025-08-23T12:00	35450	6	-32.5		119	8	
2025-08-23T12:00	35500	6	-32.4		120	8	
2025-08-23T12:00	35550	6	-32.2		120	10	
2025-08-23T12:00	35600	6	-32.0		120	11	
2025-08-23T12:00	35650	6	-31.8		121	12	
2025-08-23T12:00	35700	5	-31.6		123	12	
2025-08-23T12:00	35750	5	-31.4		125	12	
2025-08-23T12:00	35800	5	-31.4		124	11	
2025-08-24T00:00	491	962	12.3	9.7	40	1	
2025-08-24T00:00	501	960	13.6	8.4	67	2	
2025-08-24T00:00	520	959	14.4	8.2	72	2	
2025-08-24T00:00	540	956	14.7	7.8	72	3	
2025-08-24T00:00	560	954	14.9	7.6	71	3	
2025-08-24T00:00	580	952	14.9	7.5	71	4	
2025-08-24T00:00	600	950	14.9	7.4	70	4	
2025-08-24T00:00	620	947	14.8	7.2	70	5	
2025-08-24T00:00	640	945	14.9	7.1	70	5	
2025-08-24T00:00	660	943	14.9	6.9	69	6	
2025-08-24T00:00	680	941	15.0	6.8	69	6	
2025-08-24T00:00	700	939	14.9	6.7	68	7	
2025-08-24T00:00	720	936	14.8	6.6	67	8	
2025-08-24T00:00	740	934	14.6	6.7	66	8	
2025-08-24T00:00	760	932	14.4	6.5	65	8	
2025-08-24T00:00	780	929	14.3	6.1	64	8	
2025-08-24T00:00	800	927	14.2	5.9	63	8	
2025-08-24T00:00	820	925	14.0	5.7	61	8	
2025-08-24T00:00	840	923	13.9	5.5	60	8	
2025-08-24T00:00	860	921	13.8	5.4	59	8	
2025-08-24T00:00	880	919	13.6	5.3	58	8	
2025-08-24T00:00	900	916	13.4	5.2	57	8	
2025-08-24T00:00	920	914	13.3	5.2	56	8	
2025-08-24T00:00	940	912	13.1	5.2	55	8	
2025-08-24T00:00	960	910	12.9	5.1	54	8	
2025-08-24T00:00	980	908	12.7	4.8	54	8	
2025-08-24T00:00	1000	906	12.6	4.8	53	7	
2025-08-24T00:00	1020	904	12.4	4.8	53	7	
2025-08-24T00:00	1040	901	12.2	5.1	53	7	
2025-08-24T00:00	1060	899	12.1	5.2	52	7	
2025-08-24T00:00	1080	897	12.0	4.9	52	6	
2025-08-24T00:00	1100	895	11.8	4.7	51	6	
2025-08-24T00:00	1120	893	11.6	4.7	52	6	
2025-08-24T00:00	1140	891	11.5	4.7	52	6	
2025-08-24T00:00	1160	889	11.4	4.8	53	6	
2025-08-24T00:00	1180	887	11.2	4.9	54	6	
2025-08-24T00:00	1200	884	11.2	4.9	55	5	
2025-08-24T00:00	1220	882	11.0	4.9	56	5	
2025-08-24T00:00	1240	880	10.8	4.9	57	5	
2025-08-24T00:00	1260	878	10.7	4.7	58	5	
2025-08-24T00:00	1280	876	10.6	4.6	59	5	
2025-08-24T00:00	1300	874	10.5	4.7	61	5	
2025-08-24T00:00	1320	872	10.3	4.8	62	5	
2025-08-24T00:00	1340	870	10.2	4.6	63	5	
2025-08-24T00:00	1360	868	10.0	4.4	64	5	
2025-08-24T00:00	1380	865	9.8	4.4	65	5	
2025-08-24T00:00	1400	863	9.7	4.3	66	5	
2025-08-24T00:00	1420	861	9.5	4.2	66	5	
2025-08-24T00:00	1440	859	9.4	4.3	67	5	
2025-08-24T00:00	1460	857	9.2	4.3	67	5	
2025-08-24T00:00	1480	855	9.0	4.5	68	5	
2025-08-24T00:00	1500	853	8.9	4.6	69	4	
2025-08-24T00:00	1520	851	8.7	4.6	72	5	
2025-08-24T00:00	1540	849	8.5	4.6	75	5	
2025-08-24T00:00	1560	847	8.4	4.7	78	5	
2025-08-24T00:00	1580	845	8.2	4.6	80	5	
2025-08-24T00:00	1600	843	8.0	4.5	81	5	
2025-08-24T00:00	1620	841	7.9	4.4	81	5	
2025-08-24T00:00	1640	839	7.7	4.3	78	5	
2025-08-24T00:00	1660	837	7.5	4.1	71	5	
2025-08-24T00:00	1680	835	7.3	4.0	62	5	
2025-08-24T00:00	1700	833	7.2	3.6	54	5	
2025-08-24T00:00	1720	831	7.1	3.6	49	5	
2025-08-24T00:00	1740	829	7.0	3.6	46	5	
2025-08-24T00:00	1760	827	6.9	3.8	46	4	
2025-08-24T00:00	1780	825	6.8	4.1	50	3	
2025-08-24T00:00	1800	822	6.8	4.3	56	2	
2025-08-24T00:00	1820	821	6.7	4.2	63	2	
2025-08-24T00:00	1840	819	6.5	4.2	72	1	
2025-08-24T00:00	1860	817	6.4	4.3	56	0	
2025-08-24T00:00	1880	815	6.5	4.3	290	0	
2025-08-24T00:00	1900	813	6.8	3.3	289	1	
2025-08-24T00:00	1920	811	7.1	1.7	293	1	
2025-08-24T00:00	1940	809	7.1	0.8	299	2	
2025-08-24T00:00	1960	807	7.0	-0.3	305	2	
2025-08-24T00:00	1980	805	7.1	-3.2	309	2	
2025-08-24T00:00	2000	803	7.2	-1.6	309	2	
2025-08-24T00:00	2020	801	7.0	0.8	301	2	
2025-08-24T00:00	2040	799	6.9	0.7	288	2	
2025-08-24T00:00	2060	797	6.8	0.2	274	2	
2025-08-24T00:00	2080	795	6.6	-0.2	262	2	
2025-08-24T00:00	2100	793	6.5	-0.6	255	2	
2025-08-24T00:00	2120	791	6.4	-0.3	249	2	
2025-08-24T00:00	2140	789	6.3	0.8	243	2	
2025-08-24T00:00	2160	787	6.2	1.5	239	1	
2025-08-24T00:00	2180	785	6.1	1.7	240	1	
2025-08-24T00:00	2200	783	5.9	1.6	260	1	
2025-08-24T00:00	2220	781	5.6	1.6	299	1	
2025-08-24T00:00	2240	780	5.5	1.4	312	1	
2025-08-24T00:00	2260	778	5.3	1.1	313	1	
2025-08-24T00:00	2280	776	5.2	1.0	313	1	
2025-08-24T00:00	2300	774	5.1	1.0	314	1	
2025-08-24T00:00	2320	772	5.0	1.0	318	1	
2025-08-24T00:00	2340	770	4.9	0.9	322	1	
2025-08-24T00:00	2360	768	4.8	0.8	325	1	
2025-08-24T00:00	2380	766	4.6	0.6	325	1	
2025-08-24T00:00	2400	764	4.6	0.4	316	1	
2025-08-24T00:00	2420	763	4.5	0.5	302	1	
2025-08-24T00:00	2440	761	4.4	0.3	283	1	
2025-08-24T00:00	2460	759	4.2	0.2	262	1	
2025-08-24T00:00	2480	757	4.1	0.0	253	2	
2025-08-24T00:00	2500	755	4.1	-0.6	254	2	
2025-08-24T00:00	2520	753	4.0	-1.0	258	2	
2025-08-24T00:00	2540	751	3.8	-1.2	263	2	
2025-08-24T00:00	2560	750	3.7	-1.5	268	3	
2025-08-24T00:00	2580	748	3.6	-1.7	269	3	
2025-08-24T00:00	2600	746	3.6	-2.0	269	3	
2025-08-24T00:00	2620	744	3.4	-1.6	267	3	
2025-08-24T00:00	2640	742	3.2	-1.6	264	3	
2025-08-24T00:00	2660	740	3.1	-1.6	260	3	
2025-08-24T00:00	2680	739	2.9	-1.6	257	3	
2025-08-24T00:00	2700	737	2.8	-1.7	256	3	
2025-08-24T00:00	2720	735	2.7	-2.0	255	3	
2025-08-24T00:00	2740	733	2.5	-2.1	254	3	
2025-08-24T00:00	2760	731	2.5	-2.6	254	3	
2025-08-24T00:00	2780	730	2.5	-3.1	255	3	
2025-08-24T00:00	2800	728	2.4	-3.4	256	3	
2025-08-24T00:00	2820	726	2.3	-3.8	258	3	
2025-08-24T00:00	2840	724	2.1	-4.1	262	3	
2025-08-24T00:00	2860	722	2.0	-4.5	267	3	
2025-08-24T00:00	2880	721	1.9	-4.8	271	3	
2025-08-24T00:00	2900	719	1.8	-4.7	274	2	
2025-08-24T00:00	2920	717	1.6	-4.4	275	2	
2025-08-24T00:00	2940	715	1.5	-5.1	273	2	
2025-08-24T00:00	2960	714	1.4	-5.5	268	2	
2025-08-24T00:00	2980	712	1.2	-5.6	263	2	
2025-08-24T00:00	3000	710	1.1	-5.8	260	2	
2025-08-24T00:00	3020	708	1.0	-5.3	261	2	
2025-08-24T00:00	3040	706	0.8	-5.6	265	2	
2025-08-24T00:00	3060	705	0.9	-7.9	270	2	
2025-08-24T00:00	3080	703	1.1	-12.2	273	3	
2025-08-24T00:00	3100	701	1.2	-14.4	276	3	
2025-08-24T00:00	3120	700	1.2	-15.0	278	4	
2025-08-24T00:00	3140	698	1.1	-16.4	281	4	
2025-08-24T00:00	3160	696	1.1	-17.2	283	5	
2025-08-24T00:00	3180	694	0.9	-17.5	286	5	
2025-08-24T00:00	3200	692	0.8	-18.4	289	6	
2025-08-24T00:00	3220	691	1.0	-20.6	293	6	
2025-08-24T00:00	3240	689	1.1	-22.2	296	6	
2025-08-24T00:00	3260	687	1.1	-23.0	300	6	
2025-08-24T00:00	3280	686	1.1	-24.3	305	6	
2025-08-24T00:00	3300	684	1.2	-25.1	309	6	
2025-08-24T00:00	3320	682	1.2	-26.0	313	6	
2025-08-24T00:00	3340	680	1.2	-27.0	316	6	
2025-08-24T00:00	3360	679	1.3	-26.8	320	6	
2025-08-24T00:00	3380	677	1.3	-20.8	323	6	
2025-08-24T00:00	3400	676	1.2	-17.8	325	6	
2025-08-24T00:00	3420	674	1.0	-16.7	326	6	
2025-08-24T00:00	3440	672	0.8	-14.7	326	6	
2025-08-24T00:00	3460	670	0.5	-9.9	326	6	
2025-08-24T00:00	3480	669	0.3	-8.8	326	6	
2025-08-24T00:00	3500	667	0.2	-8.8	326	6	
2025-08-24T00:00	3520	666	0.0	-8.5	326	6	
2025-08-24T00:00	3540	664	-0.1	-8.6	326	7	
2025-08-24T00:00	3560	662	-0.3	-8.7	325	7	
2025-08-24T00:00	3580	660	-0.5	-8.9	324	7	
2025-08-24T00:00	3600	659	-0.6	-9.2	323	8	
2025-08-24T00:00	3620	657	-0.7	-10.7	322	8	
2025-08-24T00:00	3640	656	-0.7	-12.7	322	9	
2025-08-24T00:00	3660	654	-0.7	-13.0	322	9	
2025-08-24T00:00	3680	652	-0.7	-11.2	323	9	
2025-08-24T00:00	3700	651	-0.9	-11.3	323	9	
2025-08-24T00:00	3720	649	-0.9	-12.0	324	10	
2025-08-24T00:00	3740	647	-0.9	-13.7	323	10	
2025-08-24T00:00	3760	646	-0.9	-15.2	322	10	
2025-08-24T00:00	3780	644	-0.9	-16.8	320	10	
2025-08-24T00:00	3800	643	-0.8	-20.9	319	10	
2025-08-24T00:00	3820	641	-0.8	-22.9	318	10	
2025-08-24T00:00	3840	639	-0.9	-24.8	317	10	
2025-08-24T00:00	3860	638	-1.0	-26.5	317	10	
2025-08-24T00:00	3880	636	-0.9	-33.7	318	10	
2025-08-24T00:00	3900	635	-0.8	-38.0	319	10	
2025-08-24T00:00	3920	633	-0.9	-38.4	321	10	
2025-08-24T00:00	3940	631	-1.0	-37.1	325	10	
2025-08-24T00:00	3960	630	-1.1	-33.9	328	10	
2025-08-24T00:00	3980	628	-1.2	-27.8	330	10	
2025-08-24T00:00	4000	627	-1.4	-25.8	331	10	
2025-08-24T00:00	4020	625	-1.6	-21.8	330	11	
2025-08-24T00:00	4040	624	-1.9	-15.9	328	11	
2025-08-24T00:00	4060	622	-2.1	-15.2	327	11	
2025-08-24T00:00	4080	620	-2.3	-15.8	326	12	
2025-08-24T00:00	4100	619	-2.4	-18.0	325	12	
2025-08-24T00:00	4120	617	-2.4	-27.3	325	12	
2025-08-24T00:00	4140	616	-2.4	-37.8	326	13	
2025-08-24T00:00	4160	614	-2.5	-33.0	326	13	
2025-08-24T00:00	4180	613	-2.6	-27.7	327	13	
2025-08-24T00:00	4200	611	-2.8	-28.8	327	13	
2025-08-24T00:00	4220	609	-2.9	-29.7	325	12	
2025-08-24T00:00	4240	608	-2.9	-36.8	324	12	
2025-08-24T00:00	4260	606	-3.0	-41.2	323	12	
2025-08-24T00:00	4280	605	-3.1	-41.8	322	12	
2025-08-24T00:00	4300	603	-3.2	-39.8	322	13	
2025-08-24T00:00	4320	602	-3.3	-37.7	323	13	
2025-08-24T00:00	4340	600	-3.4	-37.3	323	13	
2025-08-24T00:00	4360	599	-3.5	-35.6	323	13	
2025-08-24T00:00	4380	597	-3.7	-28.1	322	13	
2025-08-24T00:00	4400	596	-3.9	-24.3	322	13	
2025-08-24T00:00	4420	594	-4.0	-31.0	320	13	
2025-08-24T00:00	4440	593	-4.0	-37.0	319	13	
2025-08-24T00:00	4460	591	-4.1	-37.6	318	13	
2025-08-24T00:00	4480	590	-4.2	-37.7	318	13	
2025-08-24T00:00	4500	588	-4.3	-37.9	318	14	
2025-08-24T00:00	4520	587	-4.5	-38.2	318	14	
2025-08-24T00:00	4540	585	-4.6	-38.6	319	14	
2025-08-24T00:00	4560	584	-4.6	-38.9	319	14	
2025-08-24T00:00	4580	582	-4.7	-39.1	319	15	
2025-08-24T00:00	4600	581	-4.8	-38.9	318	15	
2025-08-24T00:00	4620	579	-4.9	-39.0	316	15	
2025-08-24T00:00	4640	578	-5.0	-39.3	315	15	
2025-08-24T00:00	4660	576	-5.1	-39.5	314	15	
2025-08-24T00:00	4680	575	-5.1	-39.8	313	15	
2025-08-24T00:00	4700	573	-5.2	-39.7	311	15	
2025-08-24T00:00	4720	572	-5.3	-39.5	311	15	
2025-08-24T00:00	4740	571	-5.4	-39.6	310	15	
2025-08-24T00:00	4760	569	-5.5	-39.6	310	15	
2025-08-24T00:00	4780	567	-5.7	-39.7	311	15	
2025-08-24T00:00	4800	566	-5.9	-39.8	311	15	
2025-08-24T00:00	4820	565	-6.0	-39.9	312	15	
2025-08-24T00:00	4840	563	-6.1	-39.6	314	15	
2025-08-24T00:00	4860	562	-6.2	-37.6	316	15	
2025-08-24T00:00	4880	560	-6.3	-36.4	317	15	
2025-08-24T00:00	4900	559	-6.3	-33.1	319	16	
2025-08-24T00:00	4920	557	-6.5	-30.7	319	16	
2025-08-24T00:00	4940	556	-6.6	-29.3	318	16	
2025-08-24T00:00	4960	555	-6.8	-27.4	318	16	
2025-08-24T00:00	4980	553	-6.9	-23.8	316	16	
2025-08-24T00:00	5000	552	-7.1	-22.5	315	16	
2025-08-24T00:00	5020	551	-7.3	-21.2	314	16	
2025-08-24T00:00	5040	549	-7.5	-19.9	314	16	
2025-08-24T00:00	5060	548	-7.7	-19.2	314	17	
2025-08-24T00:00	5080	546	-7.8	-19.1	315	17	
2025-08-24T00:00	5100	545	-7.9	-19.4	316	17	
2025-08-24T00:00	5120	543	-8.1	-19.6	316	17	
2025-08-24T00:00	5140	542	-8.3	-19.8	317	16	
2025-08-24T00:00	5160	541	-8.4	-19.8	316	16	
2025-08-24T00:00	5180	539	-8.6	-19.9	315	16	
2025-08-24T00:00	5200	538	-8.7	-20.0	315	16	
2025-08-24T00:00	5220	537	-8.9	-20.3	314	16	
2025-08-24T00:00	5240	535	-9.1	-20.9	313	16	
2025-08-24T00:00	5260	534	-9.2	-21.2	313	17	
2025-08-24T00:00	5280	532	-9.3	-21.9	313	17	
2025-08-24T00:00	5300	531	-9.4	-22.3	313	17	
2025-08-24T00:00	5320	530	-9.6	-22.0	313	17	
2025-08-24T00:00	5340	528	-9.8	-21.9	313	18	
2025-08-24T00:00	5360	527	-10.0	-21.6	314	18	
2025-08-24T00:00	5380	525	-10.2	-21.4	314	18	
2025-08-24T00:00	5400	524	-10.4	-21.3	314	18	
2025-08-24T00:00	5420	523	-10.6	-21.3	314	18	
2025-08-24T00:00	5440	521	-10.7	-21.4	314	18	
2025-08-24T00:00	5460	520	-10.9	-21.2	314	18	
2025-08-24T00:00	5480	519	-11.1	-21.2	314	18	
2025-08-24T00:00	5500	517	-11.2	-21.1	314	18	
2025-08-24T00:00	5520	516	-11.4	-21.3	315	18	
2025-08-24T00:00	5540	515	-11.5	-21.6	315	18	
2025-08-24T00:00	5560	513	-11.7	-21.4	316	18	
2025-08-24T00:00	5580	512	-11.9	-21.5	316	18	
2025-08-24T00:00	5600	511	-12.0	-21.7	316	18	
2025-08-24T00:00	5620	509	-12.2	-21.7	316	18	
2025-08-24T00:00	5640	508	-12.4	-21.8	316	17	
2025-08-24T00:00	5660	507	-12.6	-22.1	316	17	
2025-08-24T00:00	5680	505	-12.8	-22.4	316	17	
2025-08-24T00:00	5700	504	-12.9	-22.4	316	17	
2025-08-24T00:00	5720	503	-13.1	-22.5	315	17	
2025-08-24T00:00	5740	501	-13.3	-22.6	315	17	
2025-08-24T00:00	5760	500	-13.4	-22.7	314	18	
2025-08-24T00:00	5780	499	-13.6	-22.8	314	18	
2025-08-24T00:00	5800	497	-13.7	-22.9	313	18	
2025-08-24T00:00	5820	496	-13.8	-23.2	313	18	
2025-08-24T00:00	5840	495	-14.0	-23.2	312	18	
2025-08-24T00:00	5860	493	-14.2	-23.3	312	18	
2025-08-24T00:00	5880	492	-14.3	-23.4	312	18	
2025-08-24T00:00	5900	491	-14.5	-23.6	311	18	
2025-08-24T00:00	5920	490	-14.6	-23.6	310	18	
2025-08-24T00:00	5940	488	-14.8	-23.5	309	17	
2025-08-24T00:00	5960	487	-15.0	-23.7	308	17	
2025-08-24T00:00	5980	486	-15.1	-24.0	307	17	
2025-08-24T00:00	6000	484	-15.3	-24.1	306	17	
2025-08-24T00:00	6020	483	-15.4	-24.2	305	17	
2025-08-24T00:00	6040	482	-15.3	-24.1	305	17	
2025-08-24T00:00	6060	481	-15.3	-23.8	304	17	
2025-08-24T00:00	6080	479	-15.4	-23.6	305	17	
2025-08-24T00:00	6100	478	-15.5	-23.8	305	18	
2025-08-24T00:00	6120	477	-15.6	-24.2	305	18	
2025-08-24T00:00	6140	476	-15.7	-24.6	305	18	
2025-08-24T00:00	6160	474	-15.7	-24.3	305	18	
2025-08-24T00:00	6180	473	-15.8	-24.1	306	18	
2025-08-24T00:00	6200	472	-15.9	-24.1	306	18	
2025-08-24T00:00	6220	470	-16.1	-24.0	306	18	
2025-08-24T00:00	6240	469	-16.2	-23.9	306	19	
2025-08-24T00:00	6260	468	-16.4	-24.0	307	19	
2025-08-24T00:00	6280	467	-16.6	-23.9	307	19	
2025-08-24T00:00	6300	466	-16.7	-23.8	307	20	
2025-08-24T00:00	6320	464	-16.9	-23.7	308	20	
2025-08-24T00:00	6340	463	-17.1	-23.8	308	20	
2025-08-24T00:00	6360	462	-17.2	-23.8	308	20	
2025-08-24T00:00	6380	461	-17.4	-23.8	308	20	
2025-08-24T00:00	6400	459	-17.6	-24.0	309	20	
2025-08-24T00:00	6420	458	-17.7	-24.0	309	20	
2025-08-24T00:00	6440	457	-17.9	-24.0	309	20	
2025-08-24T00:00	6460	456	-18.0	-24.1	308	20	
2025-08-24T00:00	6480	454	-18.1	-24.3	308	19	
2025-08-24T00:00	6500	453	-18.2	-24.6	307	19	
2025-08-24T00:00	6520	452	-18.4	-24.7	306	19	
2025-08-24T00:00	6540	451	-18.5	-24.9	306	19	
2025-08-24T00:00	6560	450	-18.6	-25.1	305	19	
2025-08-24T00:00	6580	448	-18.8	-25.2	305	19	
2025-08-24T00:00	6600	447	-18.9	-25.4	305	19	
2025-08-24T00:00	6620	446	-19.0	-25.6	305	19	
2025-08-24T00:00	6640	445	-19.1	-25.7	305	20	
2025-08-24T00:00	6660	444	-19.3	-25.7	306	20	
2025-08-24T00:00	6680	442	-19.4	-25.8	306	20	
2025-08-24T00:00	6700	441	-19.5	-26.1	306	20	
2025-08-24T00:00	6720	440	-19.7	-26.4	306	20	
2025-08-24T00:00	6740	439	-19.8	-26.4	306	20	
2025-08-24T00:00	6760	438	-20.0	-26.2	305	20	
2025-08-24T00:00	6780	437	-20.1	-26.4	305	20	
2025-08-24T00:00	6800	435	-20.2	-26.8	305	20	
2025-08-24T00:00	6820	434	-20.4	-27.0	305	21	
2025-08-24T00:00	6840	433	-20.6	-27.1	305	21	
2025-08-24T00:00	6860	432	-20.7	-27.3	305	21	
2025-08-24T00:00	6880	431	-20.8	-27.5	305	21	
2025-08-24T00:00	6900	430	-20.9	-27.7	304	22	
2025-08-24T00:00	6920	428	-21.0	-28.0	304	22	
2025-08-24T00:00	6940	427	-21.1	-28.2	304	22	
2025-08-24T00:00	6960	426	-21.3	-28.2	303	22	
2025-08-24T00:00	6980	425	-21.5	-28.3	303	22	
2025-08-24T00:00	7000	424	-21.7	-28.3	303	21	
2025-08-24T00:00	7020	422	-21.8	-28.5	302	21	
2025-08-24T00:00	7040	421	-22.0	-28.7	303	21	
2025-08-24T00:00	7060	420	-22.1	-28.8	303	21	
2025-08-24T00:00	7080	419	-22.2	-28.9	303	20	
2025-08-24T00:00	7100	418	-22.3	-29.2	304	20	
2025-08-24T00:00	7120	417	-22.4	-29.5	305	20	
2025-08-24T00:00	7140	416	-22.5	-29.8	306	20	
2025-08-24T00:00	7160	415	-22.5	-29.9	306	20	
2025-08-24T00:00	7180	413	-22.6	-30.1	307	20	
2025-08-24T00:00	7200	412	-22.8	-30.1	308	20	
2025-08-24T00:00	7220	411	-22.9	-30.2	308	20	
2025-08-24T00:00	7240	410	-23.0	-30.5	308	21	
2025-08-24T00:00	7260	409	-23.1	-30.9	308	21	
2025-08-24T00:00	7280	408	-23.2	-31.0	308	21	
2025-08-24T00:00	7300	407	-23.3	-30.7	308	22	
2025-08-24T00:00	7320	406	-23.4	-30.9	308	22	
2025-08-24T00:00	7340	405	-23.5	-30.9	308	22	
2025-08-24T00:00	7360	403	-23.7	-30.9	307	22	
2025-08-24T00:00	7380	402	-23.9	-31.0	307	22	
2025-08-24T00:00	7400	401	-24.1	-31.1	307	22	
2025-08-24T00:00	7420	400	-24.3	-31.2	308	22	
2025-08-24T00:00	7440	399	-24.4	-31.3	308	22	
2025-08-24T00:00	7460	398	-24.5	-31.5	309	22	
2025-08-24T00:00	7480	397	-24.6	-31.6	310	22	
2025-08-24T00:00	7500	396	-24.8	-31.7	311	22	
2025-08-24T00:00	7520	395	-25.0	-31.7	311	22	
2025-08-24T00:00	7540	394	-25.1	-32.0	312	22	
2025-08-24T00:00	7560	393	-25.3	-32.1	312	22	
2025-08-24T00:00	7580	391	-25.4	-32.2	312	22	
2025-08-24T00:00	7600	390	-25.5	-32.4	312	22	
2025-08-24T00:00	7620	389	-25.7	-32.3	312	22	
2025-08-24T00:00	7640	388	-25.8	-32.3	312	22	
2025-08-24T00:00	7660	387	-26.0	-32.7	312	22	
2025-08-24T00:00	7680	386	-26.2	-32.8	311	22	
2025-08-24T00:00	7700	385	-26.3	-33.0	311	22	
2025-08-24T00:00	7720	384	-26.5	-33.6	310	22	
2025-08-24T00:00	7740	383	-26.7	-34.1	310	22	
2025-08-24T00:00	7760	382	-26.9	-34.3	310	22	
2025-08-24T00:00	7780	381	-27.1	-34.4	309	22	
2025-08-24T00:00	7800	380	-27.2	-34.5	309	22	
2025-08-24T00:00	7820	379	-27.4	-34.7	310	22	
2025-08-24T00:00	7840	377	-27.6	-34.6	310	22	
2025-08-24T00:00	7860	377	-27.7	-34.8	309	22	
2025-08-24T00:00	7880	376	-27.8	-35.1	309	22	
2025-08-24T00:00	7900	374	-27.9	-35.0	309	22	
2025-08-24T00:00	7920	373	-28.0	-35.4	308	22	
2025-08-24T00:00	7940	372	-28.1	-36.1	308	22	
2025-08-24T00:00	7960	371	-28.1	-36.8	307	22	
2025-08-24T00:00	7980	370	-28.2	-36.7	306	22	
2025-08-24T00:00	8000	369	-28.4	-36.7	306	23	
2025-08-24T00:00	8020	368	-28.5	-37.2	306	23	
2025-08-24T00:00	8040	367	-28.6	-37.6	305	23	
2025-08-24T00:00	8060	366	-28.7	-37.5	305	23	
2025-08-24T00:00	8080	365	-28.9	-37.4	305	23	
2025-08-24T00:00	8100	364	-29.0	-37.6	305	23	
2025-08-24T00:00	8120	363	-29.2	-38.2	305	23	
2025-08-24T00:00	8140	362	-29.3	-38.5	304	23	
2025-08-24T00:00	8160	361	-29.5	-38.4	304	23	
2025-08-24T00:00	8180	360	-29.6	-38.5	304	23	
2025-08-24T00:00	8200	359	-29.8	-38.6	303	23	
2025-08-24T00:00	8220	358	-30.1	-38.7	303	22	
2025-08-24T00:00	8240	357	-30.2	-38.8	304	22	
2025-08-24T00:00	8260	356	-30.4	-38.5	304	22	
2025-08-24T00:00	8280	355	-30.6	-39.8	304	22	
2025-08-24T00:00	8300	354	-30.7	-40.2	304	22	
2025-08-24T00:00	8320	353	-30.8	-40.3	304	23	
2025-08-24T00:00	8340	352	-31.0	-40.5	304	23	
2025-08-24T00:00	8360	351	-31.2	-40.7	304	23	
2025-08-24T00:00	8380	350	-31.3	-40.5	304	24	
2025-08-24T00:00	8400	349	-31.5	-40.6	304	24	
2025-08-24T00:00	8420	348	-31.6	-40.8	304	24	
2025-08-24T00:00	8440	347	-31.8	-41.0	305	24	
2025-08-24T00:00	8460	346	-32.0	-41.4	305	25	
2025-08-24T00:00	8480	345	-32.1	-41.6	306	25	
2025-08-24T00:00	8500	344	-32.3	-41.8	307	25	
2025-08-24T00:00	8520	343	-32.4	-41.8	307	25	
2025-08-24T00:00	8540	342	-32.5	-42.0	308	25	
2025-08-24T00:00	8560	341	-32.7	-42.2	308	25	
2025-08-24T00:00	8580	340	-32.8	-42.4	308	25	
2025-08-24T00:00	8600	339	-33.0	-42.6	308	25	
2025-08-24T00:00	8620	338	-33.1	-42.8	308	26	
2025-08-24T00:00	8640	337	-33.3	-42.7	308	26	
2025-08-24T00:00	8660	336	-33.5	-42.9	307	26	
2025-08-24T00:00	8680	335	-33.6	-43.1	307	26	
2025-08-24T00:00	8700	334	-33.8	-43.2	306	26	
2025-08-24T00:00	8720	334	-34.0	-43.4	306	26	
2025-08-24T00:00	8740	333	-34.2	-43.8	305	26	
2025-08-24T00:00	8760	332	-34.3	-43.9	305	26	
2025-08-24T00:00	8780	331	-34.5	-44.0	305	26	
2025-08-24T00:00	8800	330	-34.7	-43.9	305	26	
2025-08-24T00:00	8820	329	-34.8	-44.2	305	26	
2025-08-24T00:00	8840	328	-35.0	-44.8	305	27	
2025-08-24T00:00	8860	327	-35.2	-45.1	305	27	
2025-08-24T00:00	8880	326	-35.3	-45.7	305	27	
2025-08-24T00:00	8900	325	-35.4	-46.0	305	28	
2025-08-24T00:00	8920	324	-35.6	-46.3	305	28	
2025-08-24T00:00	8940	323	-35.7	-46.5	304	29	
2025-08-24T00:00	8960	322	-35.8	-47.6	305	29	
2025-08-24T00:00	8980	321	-35.8	-49.8	305	29	
2025-08-24T00:00	9000	321	-35.8	-51.6	305	30	
2025-08-24T00:00	9020	320	-35.8	-52.2	305	30	
2025-08-24T00:00	9040	319	-35.9	-52.1	305	30	
2025-08-24T00:00	9060	318	-36.1	-52.2	305	30	
2025-08-24T00:00	9080	317	-36.2	-52.4	306	31	
2025-08-24T00:00	9100	316	-36.3	-53.2	306	31	
2025-08-24T00:00	9120	315	-36.4	-53.5	306	31	
2025-08-24T00:00	9140	314	-36.6	-52.8	306	31	
2025-08-24T00:00	9160	313	-36.8	-52.5	306	31	
2025-08-24T00:00	9180	312	-37.0	-52.6	306	31	
2025-08-24T00:00	9200	311	-37.2	-52.3	306	31	
2025-08-24T00:00	9220	310	-37.4	-52.2	306	32	
2025-08-24T00:00	9240	309	-37.6	-52.2	306	32	
2025-08-24T00:00	9260	309	-37.8	-52.1	306	32	
2025-08-24T00:00	9280	308	-38.0	-51.7	306	32	
2025-08-24T00:00	9300	307	-38.2	-51.5	306	32	
2025-08-24T00:00	9320	306	-38.4	-51.9	306	32	
2025-08-24T00:00	9340	305	-38.6	-51.8	305	32	
2025-08-24T00:00	9360	304	-38.8	-51.6	305	32	
2025-08-24T00:00	9380	303	-38.9	-51.7	305	32	
2025-08-24T00:00	9400	302	-39.1	-51.2	305	32	
2025-08-24T00:00	9420	301	-39.4	-50.7	305	32	
2025-08-24T00:00	9440	301	-39.5	-50.8	305	32	
2025-08-24T00:00	9460	300	-39.7	-50.9	306	32	
2025-08-24T00:00	9480	299	-39.9	-50.9	306	32	
2025-08-24T00:00	9500	298	-40.1	-50.9	306	32	
2025-08-24T00:00	9520	297	-40.4	-51.1	306	32	
2025-08-24T00:00	9540	296	-40.5	-51.0	306	32	
2025-08-24T00:00	9560	295	-40.7	-50.9	306	32	
2025-08-24T00:00	9580	295	-40.9	-51.1	307	32	
2025-08-24T00:00	9600	294	-41.1	-51.3	307	32	
2025-08-24T00:00	9620	293	-41.3	-51.7	307	32	
2025-08-24T00:00	9640	292	-41.5	-52.4	308	32	
2025-08-24T00:00	9660	291	-41.7	-52.6	308	32	
2025-08-24T00:00	9680	290	-41.9	-52.8	308	32	
2025-08-24T00:00	9700	289	-42.1	-52.8	309	32	
2025-08-24T00:00	9720	288	-42.2	-52.9	309	32	
2025-08-24T00:00	9740	288	-42.4	-53.1	309	32	
2025-08-24T00:00	9760	287	-42.6	-53.5	309	32	
2025-08-24T00:00	9780	286	-42.7	-54.0	309	32	
2025-08-24T00:00	9800	285	-42.9	-54.1	308	32	
2025-08-24T00:00	9820	284	-43.0	-54.5	308	32	
2025-08-24T00:00	9840	283	-43.1	-55.1	308	32	
2025-08-24T00:00	9860	283	-43.3	-55.5	308	32	
2025-08-24T00:00	9880	282	-43.5	-55.8	308	32	
2025-08-24T00:00	9900	281	-43.6	-55.7	308	32	
2025-08-24T00:00	9920	280	-43.8	-55.6	308	32	
2025-08-24T00:00	9940	279	-44.0	-55.5	308	32	
2025-08-24T00:00	9960	278	-44.2	-55.5	308	32	
2025-08-24T00:00	9980	278	-44.3	-55.4	308	32	
2025-08-24T00:00	10000	277	-44.5	-55.4	308	32	
2025-08-24T00:00	10018	276	-44.7	-55.3	307	32	
2025-08-24T00:00	10050	275	-44.9	-55.3	306	32	
2025-08-24T00:00	10100	273	-45.4	-55.3	305	32	
2025-08-24T00:00	10150	270	-45.9	-55.5	305	33	
2025-08-24T00:00	10200	268	-46.3	-55.6	304	33	
2025-08-24T00:00	10250	266	-46.8	-55.8	304	33	
2025-08-24T00:00	10300	264	-47.2	-56.2	304	33	
2025-08-24T00:00	10350	263	-47.6	-57.1	304	33	
2025-08-24T00:00	10400	260	-48.0	-57.4	303	33	
2025-08-24T00:00	10450	259	-48.4	-57.4	302	33	
2025-08-24T00:00	10500	257	-48.8	-57.3	301	33	
2025-08-24T00:00	10550	255	-49.3	-57.1	301	33	
2025-08-24T00:00	10600	253	-49.7	-56.8	302	32	
2025-08-24T00:00	10650	251	-50.1	-57.0	303	32	
2025-08-24T00:00	10700	249	-50.4	-58.3	303	32	
2025-08-24T00:00	10750	247	-50.8	-59.1	304	32	
2025-08-24T00:00	10800	245	-51.2	-59.2	304	32	
2025-08-24T00:00	10850	243	-51.6	-59.1	305	32	
2025-08-24T00:00	10900	241	-52.0	-59.3	306	32	
2025-08-24T00:00	10950	240	-52.1	-59.8	307	32	
2025-08-24T00:00	11000	238	-52.5	-59.8	308	32	
2025-08-24T00:00	11050	236	-52.9	-59.9	308	32	
2025-08-24T00:00	11100	234	-53.4	-59.9	308	33	
2025-08-24T00:00	11150	232	-53.5	-60.7	307	34	
2025-08-24T00:00	11200	230	-53.4	-61.7	307	35	
2025-08-24T00:00	11250	229	-53.5	-61.9	307	36	
2025-08-24T00:00	11300	227	-53.7	-62.1	307	35	
2025-08-24T00:00	11350	225	-54.0	-62.3	306	34	
2025-08-24T00:00	11400	223	-54.1	-63.1	306	32	
2025-08-24T00:00	11450	222	-53.5	-66.0	306	31	
2025-08-24T00:00	11500	220	-53.3	-67.5	306	31	
2025-08-24T00:00	11550	218	-53.5	-67.4	306	31	
2025-08-24T00:00	11600	216	-53.7	-67.7	306	31	
2025-08-24T00:00	11650	215	-53.7	-68.4	305	31	
2025-08-24T00:00	11700	213	-53.8	-69.0	305	31	
2025-08-24T00:00	11750	212	-53.9	-69.4	305	31	
2025-08-24T00:00	11800	210	-54.1	-70.0	307	30	
2025-08-24T00:00	11850	208	-53.9	-71.2	309	30	
2025-08-24T00:00	11900	207	-53.4	-72.1	311	30	
2025-08-24T00:00	11950	205	-53.7	-72.2	311	30	
2025-08-24T00:00	12000	203	-53.8	-72.6	310	30	
2025-08-24T00:00	12050	202	-53.8	-73.2	309	29	
2025-08-24T00:00	12100	200	-54.0	-73.4	307	28	
2025-08-24T00:00	12150	199	-54.3	-73.6	305	28	
2025-08-24T00:00	12200	197	-54.5	-73.9	304	27	
2025-08-24T00:00	12250	196	-54.2	-74.3	303	27	
2025-08-24T00:00	12300	194	-54.1	-74.7	301	27	
2025-08-24T00:00	12350	193	-54.2	-74.8	299	27	
2025-08-24T00:00	12400	191	-53.9	-75.2	299	26	
2025-08-24T00:00	12450	190	-54.0	-75.5	298	26	
2025-08-24T00:00	12500	188	-54.1	-75.7	298	26	
2025-08-24T00:00	12550	187	-54.4	-75.8	298	26	
2025-08-24T00:00	12600	185	-54.7	-75.8	297	26	
2025-08-24T00:00	12650	184	-55.0	-76.0	296	26	
2025-08-24T00:00	12700	182	-55.2	-76.1	295	26	
2025-08-24T00:00	12750	181	-55.3	-76.2	296	27	
2025-08-24T00:00	12800	180	-55.6	-76.3	297	27	
2025-08-24T00:00	12850	178	-55.9	-76.6	297	28	
2025-08-24T00:00	12900	177	-55.5	-77.0	294	29	
2025-08-24T00:00	12950	175	-55.4	-77.1	293	29	
2025-08-24T00:00	13000	174	-55.6	-77.2	293	30	
2025-08-24T00:00	13050	173	-55.8	-77.4	295	31	
2025-08-24T00:00	13100	171	-56.0	-77.7	297	31	
2025-08-24T00:00	13150	170	-56.1	-78.0	300	31	
2025-08-24T00:00	13200	169	-56.0	-78.3	304	31	
2025-08-24T00:00	13250	167	-56.0	-78.6	307	30	
2025-08-24T00:00	13300	166	-56.0	-78.8	310	29	
2025-08-24T00:00	13350	165	-56.2	-79.0	312	28	
2025-08-24T00:00	13400	163	-56.4	-79.1	313	26	
2025-08-24T00:00	13450	162	-56.5	-79.3	313	25	
2025-08-24T00:00	13500	161	-56.6	-79.5	312	23	
2025-08-24T00:00	13550	159	-56.5	-79.7	309	22	
2025-08-24T00:00	13600	158	-56.4	-80.0	304	21	
2025-08-24T00:00	13650	157	-56.6	-80.1	299	21	
2025-08-24T00:00	13700	156	-56.9	-80.2	294	21	
2025-08-24T00:00	13750	155	-57.1	-80.4	290	23	
2025-08-24T00:00	13800	153	-57.0	-80.6	289	24	
2025-08-24T00:00	13850	152	-56.5	-80.7	289	26	
2025-08-24T00:00	13900	151	-56.5	-80.8	291	26	
2025-08-24T00:00	13950	150	-56.6	-81.0	293	27	
2025-08-24T00:00	14000	149	-56.5	-81.1	296	27	
2025-08-24T00:00	14050	147	-56.5	-81.1	297	27	
2025-08-24T00:00	14100	146	-56.5	-81.2	299	27	
2025-08-24T00:00	14150	145	-56.5	-81.3	301	27	
2025-08-24T00:00	14200	144	-56.7	-81.4	303	26	
2025-08-24T00:00	14250	143	-56.8	-81.4	306	25	
2025-08-24T00:00	14300	142	-57.0	-81.7	308	24	
2025-08-24T00:00	14350	141	-57.0	-81.7	309	23	
2025-08-24T00:00	14400	139	-57.2	-81.8	307	22	
2025-08-24T00:00	14450	138	-57.5	-82.0	305	21	
2025-08-24T00:00	14500	137	-57.4	-82.1	303	20	
2025-08-24T00:00	14550	136	-57.1	-82.1	300	19	
2025-08-24T00:00	14600	135	-57.3	-82.2	297	20	
2025-08-24T00:00	14650	134	-57.5	-82.2	297	21	
2025-08-24T00:00	14700	133	-57.6	-82.2	297	21	
2025-08-24T00:00	14750	132	-57.7	-82.3	295	22	
2025-08-24T00:00	14800	131	-57.7	-82.3	293	22	
2025-08-24T00:00	14850	130	-57.5	-82.5	290	22	
2025-08-24T00:00	14900	129	-57.0	-82.5	291	23	
2025-08-24T00:00	14950	128	-56.6	-82.6	295	23	
2025-08-24T00:00	15000	127	-56.6	-82.7	300	23	
2025-08-24T00:00	15050	126	-56.5	-82.8	303	22	
2025-08-24T00:00	15100	125	-56.3	-82.7	304	22	
2025-08-24T00:00	15150	124	-56.3	-82.6	302	22	
2025-08-24T00:00	15200	123	-56.7	-82.6	301	23	
2025-08-24T00:00	15250	122	-57.1	-82.7	302	23	
2025-08-24T00:00	15300	121	-57.1	-82.7	305	22	
2025-08-24T00:00	15350	120	-57.2	-82.8	307	22	
2025-08-24T00:00	15400	119	-57.3	-82.9	309	21	
2025-08-24T00:00	15450	118	-57.5	-83.2	309	20	
2025-08-24T00:00	15500	117	-57.2	-83.2	309	19	
2025-08-24T00:00	15550	116	-57.4	-83.3	307	17	
2025-08-24T00:00	15600	115	-57.7	-83.3	304	17	
2025-08-24T00:00	15650	114	-58.0	-83.4	300	17	
2025-08-24T00:00	15700	114	-58.3	-83.4	295	17	
2025-08-24T00:00	15750	113	-58.6	-83.5	293	17	
2025-08-24T00:00	15800	112	-58.4	-83.5	294	18	
2025-08-24T00:00	15850	111	-58.2	-83.5	293	18	
2025-08-24T00:00	15900	110	-58.1	-83.6	290	18	
2025-08-24T00:00	15950	109	-58.0	-83.7	288	19	
2025-08-24T00:00	16000	108	-57.8	-83.8	288	19	
2025-08-24T00:00	16050	107	-57.6	-84.1	288	20	
2025-08-24T00:00	16100	107	-57.5	-84.3	289	19	
2025-08-24T00:00	16150	106	-57.1	-84.2	291	19	
2025-08-24T00:00	16200	105	-56.9	-84.1	293	19	
2025-08-24T00:00	16250	104	-56.9	-83.9	295	19	
2025-08-24T00:00	16300	103	-57.1	-84.0	298	19	
2025-08-24T00:00	16350	102	-57.3	-84.1	301	19	
2025-08-24T00:00	16400	102	-57.1	-84.1	303	18	
2025-08-24T00:00	16450	101	-57.1	-84.2	302	17	
2025-08-24T00:00	16500	100	-57.0	-84.1	299	17	
2025-08-24T00:00	16550	99	-56.9	-84.1	297	17	
2025-08-24T00:00	16600	98	-56.9	-84.1	297	17	
2025-08-24T00:00	16650	98	-56.8	-84.1	298	17	
2025-08-24T00:00	16700	97	-56.9	-84.1	298	17	
2025-08-24T00:00	16750	96	-56.9	-84.1	298	16	
2025-08-24T00:00	16800	95	-56.9	-84.2	298	16	
2025-08-24T00:00	16850	95	-56.8	-84.2	298	16	
2025-08-24T00:00	16900	94	-56.5	-84.2	299	16	
2025-08-24T00:00	16950	93	-56.3	-84.2	298	16	
2025-08-24T00:00	17000	92	-56.3	-84.2	297	15	
2025-08-24T00:00	17050	92	-56.3	-84.2	294	15	
2025-08-24T00:00	17100	91	-56.2	-84.3	291	15	
2025-08-24T00:00	17150	90	-55.9	-84.3	290	15	
2025-08-24T00:00	17200	90	-55.7	-84.2	290	15	
2025-08-24T00:00	17250	89	-55.4	-84.1	290	15	
2025-08-24T00:00	17300	88	-55.5	-84.0	288	15	
2025-08-24T00:00	17350	88	-55.7	-84.0	287	15	
2025-08-24T00:00	17400	87	-55.9	-84.1	288	15	
2025-08-24T00:00	17450	86	-55.9	-84.1	290	14	
2025-08-24T00:00	17500	85	-56.0	-84.1	291	14	
2025-08-24T00:00	17550	85	-56.1	-84.2	290	14	
2025-08-24T00:00	17600	84	-56.0	-84.3	289	13	
2025-08-24T00:00	17650	83	-55.6	-84.2	289	13	
2025-08-24T00:00	17700	83	-55.7	-84.1	288	12	
2025-08-24T00:00	17750	82	-55.9	-84.2	286	12	
2025-08-24T00:00	17800	82	-56.2	-84.3	283	12	
2025-08-24T00:00	17850	81	-56.3	-84.3	279	12	
2025-08-24T00:00	17900	80	-56.1	-84.3	277	12	
2025-08-24T00:00	17950	80	-56.0	-84.3	274	12	
2025-08-24T00:00	18000	79	-56.2	-84.3	270	12	
2025-08-24T00:00	18050	78	-56.3	-84.3	267	12	
2025-08-24T00:00	18100	78	-56.4	-84.4	266	13	
2025-08-24T00:00	18150	77	-56.5	-84.7	269	13	
2025-08-24T00:00	18200	77	-55.7	-84.5	277	12	
2025-08-24T00:00	18250	76	-55.4	-84.4	286	12	
2025-08-24T00:00	18300	75	-55.4	-84.3	294	12	
2025-08-24T00:00	18350	75	-55.5	-84.2	300	12	
2025-08-24T00:00	18400	74	-55.7	-84.1	301	12	
2025-08-24T00:00	18450	74	-55.9	-84.2	297	11	
2025-08-24T00:00	18500	73	-56.1	-84.3	290	11	
2025-08-24T00:00	18550	72	-56.1	-84.2	285	11	
2025-08-24T00:00	18600	72	-56.5	-84.3	280	11	
2025-08-24T00:00	18650	71	-57.0	-84.5	276	11	
2025-08-24T00:00	18700	71	-57.2	-84.7	272	11	
2025-08-24T00:00	18750	70	-57.2	-84.8	269	12	
2025-08-24T00:00	18800	70	-57.1	-84.8	269	12	
2025-08-24T00:00	18850	69	-57.3	-84.9	273	12	
2025-08-24T00:00	18900	69	-57.5	-84.9	278	12	
2025-08-24T00:00	18950	68	-57.8	-85.1	285	12	
2025-08-24T00:00	19000	67	-57.4	-85.1	291	12	
2025-08-24T00:00	19050	67	-57.2	-85.1	297	12	
2025-08-24T00:00	19100	66	-57.2	-85.1	301	12	
2025-08-24T00:00	19150	66	-57.1	-85.0	303	11	
2025-08-24T00:00	19200	65	-57.1	-85.1	301	10	
2025-08-24T00:00	19250	65	-56.8	-84.9	297	10	
2025-08-24T00:00	19300	64	-56.8	-84.9	293	10	
2025-08-24T00:00	19350	64	-57.0	-84.8	290	11	
2025-08-24T00:00	19400	63	-57.4	-85.1	289	11	
2025-08-24T00:00	19450	63	-57.4	-85.2	288	12	
2025-08-24T00:00	19500	62	-56.9	-84.9	290	12	
2025-08-24T00:00	19550	62	-57.3	-85.1	294	11	
2025-08-24T00:00	19600	61	-57.6	-85.1	299	11	
2025-08-24T00:00	19650	61	-57.8	-85.2	303	11	
2025-08-24T00:00	19700	60	-57.7	-85.3	306	10	
2025-08-24T00:00	19750	60	-57.4	-85.3	305	9	
2025-08-24T00:00	19800	59	-57.2	-85.4	300	8	
2025-08-24T00:00	19850	59	-56.9	-85.2	290	8	
2025-08-24T00:00	19900	59	-56.8	-85.2	282	9	
2025-08-24T00:00	19950	58	-56.3	-84.9	279	10	
2025-08-24T00:00	20000	58	-56.4	-85.1	280	10	
2025-08-24T00:00	20050	57	-55.9		281	10	
2025-08-24T00:00	20100	57	-54.9		277	10	
2025-08-24T00:00	20150	56	-54.8		269	10	
2025-08-24T00:00	20200	56	-54.5		265	9	
2025-08-24T00:00	20250	55	-54.5		266	9	
2025-08-24T00:00	20300	55	-54.9		271	9	
2025-08-24T00:00	20350	55	-55.3		279	9	
2025-08-24T00:00	20400	54	-55.6		288	9	
2025-08-24T00:00	20450	54	-55.9		296	10	
2025-08-24T00:00	20500	53	-56.1		304	9	
2025-08-24T00:00	20550	53	-55.6		309	8	
2025-08-24T00:00	20600	52	-55.4		310	7	
2025-08-24T00:00	20650	52	-55.5		306	6	
2025-08-24T00:00	20700	52	-55.6		298	5	
2025-08-24T00:00	20750	51	-55.9		291	5	
2025-08-24T00:00	20800	51	-56.3		289	5	
2025-08-24T00:00	20850	50	-56.6		289	5	
2025-08-24T00:00	20900	50	-56.2		286	5	
2025-08-24T00:00	20950	50	-55.9		282	5	
2025-08-24T00:00	21000	49	-55.3		285	5	
2025-08-24T00:00	21050	49	-55.2		293	7	
2025-08-24T00:00	21100	48	-54.7		301	8	
2025-08-24T00:00	21150	48	-54.1		309	9	
2025-08-24T00:00	21200	48	-53.7		317	10	
2025-08-24T00:00	21250	47	-53.2		322	9	
2025-08-24T00:00	21300	47	-52.4		325	8	
2025-08-24T00:00	21350	47	-52.4		328	6	
2025-08-24T00:00	21400	46	-52.0		329	5	
2025-08-24T00:00	21450	46	-51.6		324	3	
2025-08-24T00:00	21500	46	-51.3		307	3	
2025-08-24T00:00	21550	45	-51.3		284	3	
2025-08-24T00:00	21600	45	-51.6		273	4	
2025-08-24T00:00	21650	45	-51.9		275	4	
2025-08-24T00:00	21700	44	-51.5		286	4	
2025-08-24T00:00	21750	44	-51.3		304	4	
2025-08-24T00:00	21800	44	-51.1		323	3	
2025-08-24T00:00	21850	43	-51.0		332	2	
2025-08-24T00:00	21900	43	-51.0		311	1	
2025-08-24T00:00	21950	43	-51.1		189	1	
2025-08-24T00:00	22000	42	-51.2		174	2	
2025-08-24T00:00	22050	42	-51.4		174	2	
2025-08-24T00:00	22100	42	-51.8		180	2	
2025-08-24T00:00	22150	41	-52.1		188	3	
2025-08-24T00:00	22200	41	-52.1		196	4	
2025-08-24T00:00	22250	41	-52.5		204	5	
2025-08-24T00:00	22300	40	-52.4		214	6	
2025-08-24T00:00	22350	40	-52.2		223	6	
2025-08-24T00:00	22400	40	-52.0		231	5	
2025-08-24T00:00	22450	39	-51.6		235	4	
2025-08-24T00:00	22500	39	-51.5		239	3	
2025-08-24T00:00	22550	39	-51.6		243	2	
2025-08-24T00:00	22600	38	-51.8		225	1	
2025-08-24T00:00	22650	38	-52.0		103	1	
2025-08-24T00:00	22700	38	-52.1		91	1	
2025-08-24T00:00	22750	38	-51.8		75	1	
2025-08-24T00:00	22800	37	-51.6		46	1	
2025-08-24T00:00	22850	37	-51.4		26	1	
2025-08-24T00:00	22900	37	-50.9		28	1	
2025-08-24T00:00	22950	36	-51.0		119	1	
2025-08-24T00:00	23000	36	-51.3		147	1	
2025-08-24T00:00	23050	36	-51.3		149	2	
2025-08-24T00:00	23100	36	-51.5		146	2	
2025-08-24T00:00	23150	35	-51.3		126	1	
2025-08-24T00:00	23200	35	-51.1		100	1	
2025-08-24T00:00	23250	35	-51.3		115	1	
2025-08-24T00:00	23300	35	-51.2		134	2	
2025-08-24T00:00	23350	34	-51.3		147	2	
2025-08-24T00:00	23400	34	-50.8		154	3	
2025-08-24T00:00	23450	34	-50.4		156	3	
2025-08-24T00:00	23500	33	-50.0		158	2	
2025-08-24T00:00	23550	33	-49.7		179	1	
2025-08-24T00:00	23600	33	-48.7		249	1	
2025-08-24T00:00	23650	33	-48.4		282	1	
2025-08-24T00:00	23700	32	-48.5		319	1	
2025-08-24T00:00	23750	32	-48.5		41	1	
2025-08-24T00:00	23800	32	-48.6		77	1	
2025-08-24T00:00	23850	32	-48.7		108	1	
2025-08-24T00:00	23900	31	-48.8		134	2	
2025-08-24T00:00	23950	31	-48.9		142	3	
2025-08-24T00:00	24000	31	-49.1		144	3	
2025-08-24T00:00	24050	31	-49.5		149	3	
2025-08-24T00:00	24100	31	-49.8		155	3	
2025-08-24T00:00	24150	30	-49.8		161	4	
2025-08-24T00:00	24200	30	-50.0		168	5	
2025-08-24T00:00	24250	30	-50.3		175	5	
2025-08-24T00:00	24300	30	-50.4		182	6	
2025-08-24T00:00	24350	29	-50.6		192	6	
2025-08-24T00:00	24400	29	-50.1		199	6	
2025-08-24T00:00	24450	29	-50.1		205	6	
2025-08-24T00:00	24500	29	-50.3		212	5	
2025-08-24T00:00	24550	29	-50.3		225	4	
2025-08-24T00:00	24600	28	-50.0		249	2	
2025-08-24T00:00	24650	28	-49.9		295	2	
2025-08-24T00:00	24700	28	-50.1		337	2	
2025-08-24T00:00	24750	28	-49.9		358	3	
2025-08-24T00:00	24800	27	-49.7		14	4	
2025-08-24T00:00	24850	27	-49.3		30	4	
2025-08-24T00:00	24900	27	-49.0		48	3	
2025-08-24T00:00	24950	27	-49.2		67	3	
2025-08-24T00:00	25000	27	-49.3		92	3	
2025-08-24T00:00	25050	26	-49.3		111	3	
2025-08-24T00:00	25100	26	-49.5		122	4	
2025-08-24T00:00	25150	26	-49.7		130	5	
2025-08-24T00:00	25200	26	-49.9		138	5	
2025-08-24T00:00	25250	26	-50.0		149	5	
2025-08-24T00:00	25300	25	-50.1		165	4	
2025-08-24T00:00	25350	25	-50.4		189	3	
2025-08-24T00:00	25400	25	-50.7		209	3	
2025-08-24T00:00	25450	25	-50.7		213	3	
2025-08-24T00:00	25500	25	-50.7		196	2	
2025-08-24T00:00	25550	24	-50.7		152	2	
2025-08-24T00:00	25600	24	-50.5		114	2	
2025-08-24T00:00	25650	24	-50.1		84	3	
2025-08-24T00:00	25700	24	-49.8		67	3	
2025-08-24T00:00	25750	24	-49.8		63	4	
2025-08-24T00:00	25800	24	-49.4		65	4	
2025-08-24T00:00	25850	23	-49.2		65	5	
2025-08-24T00:00	25900	23	-49.1		62	5	
2025-08-24T00:00	25950	23	-49.0		61	4	
2025-08-24T00:00	26000	23	-48.9		70	4	
2025-08-24T00:00	26050	23	-48.7		90	3	
2025-08-24T00:00	26100	22	-48.7		105	3	
2025-08-24T00:00	26150	22	-48.4		111	3	
2025-08-24T00:00	26200	22	-48.0		99	2	
2025-08-24T00:00	26250	22	-47.9		55	2	
2025-08-24T00:00	26300	22	-47.1		42	3	
2025-08-24T00:00	26350	22	-47.0		47	4	
2025-08-24T00:00	26400	21	-46.4		56	5	
2025-08-24T00:00	26450	21	-46.4		62	6	
2025-08-24T00:00	26500	21	-46.6		67	7	
2025-08-24T00:00	26550	21	-46.7		72	7	
2025-08-24T00:00	26600	21	-46.7		79	8	
2025-08-24T00:00	26650	21	-46.7		86	8	
2025-08-24T00:00	26700	21	-46.5		95	8	
2025-08-24T00:00	26750	20	-46.7		102	8	
2025-08-24T00:00	26800	20	-46.9		104	8	
2025-08-24T00:00	26850	20	-46.9		103	7	
2025-08-24T00:00	26900	20	-47.0		103	6	
2025-08-24T00:00	26950	20	-47.1		105	5	
2025-08-24T00:00	27000	20	-47.2		103	4	
2025-08-24T00:00	27050	19	-47.3		91	4	
2025-08-24T00:00	27100	19	-47.1		74	4	
2025-08-24T00:00	27150	19	-47.1		66	5	
2025-08-24T00:00	27200	19	-46.6		69	6	
2025-08-24T00:00	27250	19	-46.0		77	7	
2025-08-24T00:00	27300	19	-46.0		87	7	
2025-08-24T00:00	27350	19	-46.1		99	8	
2025-08-24T00:00	27400	18	-46.1		109	9	
2025-08-24T00:00	27450	18	-46.0		116	11	
2025-08-24T00:00	27500	18	-45.9		121	11	
2025-08-24T00:00	27550	18	-45.7		122	10	
2025-08-24T00:00	27600	18	-45.7		120	8	
2025-08-24T00:00	27650	18	-45.7		118	7	
2025-08-24T00:00	27700	18	-45.9		116	5	
2025-08-24T00:00	27750	18	-46.1		112	5	
2025-08-24T00:00	27800	17	-46.0		108	5	
2025-08-24T00:00	27850	17	-45.9		106	5	
2025-08-24T00:00	27900	17	-45.9		108	6	
2025-08-24T00:00	27950	17	-46.1		112	7	
2025-08-24T00:00	28000	17	-46.1		115	6	
2025-08-24T00:00	28050	17	-46.0		116	4	
2025-08-24T00:00	28100	17	-45.8		109	3	
2025-08-24T00:00	28150	17	-45.7		83	2	
2025-08-24T00:00	28200	16	-45.7		26	2	
2025-08-24T00:00	28250	16	-45.7		6	3	
2025-08-24T00:00	28300	16	-45.4		6	4	
2025-08-24T00:00	28350	16	-45.1		13	5	
2025-08-24T00:00	28400	16	-44.7		24	5	
2025-08-24T00:00	28450	16	-44.6		36	6	
2025-08-24T00:00	28500	16	-44.5		45	6	
2025-08-24T00:00	28550	16	-44.5		55	6	
2025-08-24T00:00	28600	15	-44.3		70	6	
2025-08-24T00:00	28650	15	-44.4		85	6	
2025-08-24T00:00	28700	15	-44.6		94	7	
2025-08-24T00:00	28750	15	-44.5		97	7	
2025-08-24T00:00	28800	15	-44.5		96	7	
2025-08-24T00:00	28850	15	-44.5		92	7	
2025-08-24T00:00	28900	15	-44.5		86	6	
2025-08-24T00:00	28950	15	-44.5		79	5	
2025-08-24T00:00	29000	15	-44.4		72	5	
2025-08-24T00:00	29050	14	-44.3		68	5	
2025-08-24T00:00	29100	14	-44.1		69	5	
2025-08-24T00:00	29150	14	-43.9		70	6	
2025-08-24T00:00	29200	14	-43.7		73	7	
2025-08-24T00:00	29250	14	-43.7		80	8	
2025-08-24T00:00	29300	14	-43.6		90	9	
2025-08-24T00:00	29350	14	-43.5		98	9	
2025-08-24T00:00	29400	14	-43.3		104	8	
2025-08-24T00:00	29450	14	-43.2		107	7	
2025-08-24T00:00	29500	14	-43.1		104	5	
2025-08-24T00:00	29550	13	-42.8		92	4	
2025-08-24T00:00	29600	13	-42.8		69	3	
2025-08-24T00:00	29650	13	-42.9		46	3	
2025-08-24T00:00	29700	13	-42.6		35	3	
2025-08-24T00:00	29750	13	-42.1		32	4	
2025-08-24T00:00	29800	13	-41.7		31	5	
2025-08-24T00:00	29850	13	-41.8		31	6	
2025-08-24T00:00	29900	13	-41.8		36	6	
2025-08-24T00:00	29950	13	-41.7		47	6	
2025-08-24T00:00	30000	13	-41.5		60	6	
2025-08-24T00:00	30050	12	-41.5		72	6	
2025-08-24T00:00	30100	12	-41.6		83	7	
2025-08-24T00:00	30150	12	-41.4		93	7	
2025-08-24T00:00	30200	12	-41.5		101	7	
2025-08-24T00:00	30250	12	-41.7		109	7	
2025-08-24T00:00	30300	12	-41.8		116	7	
2025-08-24T00:00	30350	12	-41.9		120	6	
2025-08-24T00:00	30400	12	-41.8		119	6	
2025-08-24T00:00	30450	12	-41.7		112	4	
2025-08-24T00:00	30500	12	-41.7		99	4	
2025-08-24T00:00	30550	12	-41.8		85	4	
2025-08-24T00:00	30600	11	-41.9		75	4	
2025-08-24T00:00	30650	11	-42.0		69	4	
2025-08-24T00:00	30700	11	-42.0		64	5	
2025-08-24T00:00	30750	11	-42.0		64	6	
2025-08-24T00:00	30800	11	-41.6		75	6	
2025-08-24T00:00	30850	11	-41.2		91	8	
2025-08-24T00:00	30900	11	-40.9		105	9	
2025-08-24T00:00	30950	11	-40.9		115	10	
2025-08-24T00:00	31000	11	-41.0		123	10	
2025-08-24T00:00	31050	11	-41.1		131	10	
2025-08-24T00:00	31100	11	-41.1		136	10	
2025-08-24T00:00	31150	11	-41.2		137	8	
2025-08-24T00:00	31200	11	-41.1		131	7	
2025-08-24T00:00	31250	10	-40.7		118	7	
2025-08-24T00:00	31300	10	-40.7		100	7	
2025-08-24T00:00	31350	10	-40.7		86	8	
2025-08-24T00:00	31400	10	-40.6		76	9	
2025-08-24T00:00	31450	10	-40.1		70	11	
2025-08-24T00:00	31500	10	-40.1		68	13	
2025-08-24T00:00	31550	10	-39.9		70	14	
2025-08-24T00:00	31600	10	-39.9		76	15	
2025-08-24T00:00	31650	10	-39.7		81	15	
2025-08-24T00:00	31700	10	-39.6		86	15	
2025-08-24T00:00	31750	10	-39.8		91	14	
2025-08-24T00:00	31800	10	-40.2		96	14	
2025-08-24T00:00	31850	10	-40.5		100	14	
2025-08-24T00:00	31900	9	-40.7		105	13	
2025-08-24T00:00	31950	9	-40.8		109	13	
2025-08-24T00:00	32000	9	-40.9		111	12	
2025-08-24T00:00	32050	9	-41.0		111	11	
2025-08-24T00:00	32100	9	-40.7		109	11	
2025-08-24T00:00	32150	9	-40.6		108	11	
2025-08-24T00:00	32200	9	-40.7		109	11	
2025-08-24T00:00	32250	9	-40.9		111	11	
2025-08-24T00:00	32300	9	-41.0		115	11	
2025-08-24T00:00	32350	9	-41.2		119	11	
2025-08-24T00:00	32400	9	-41.6		123	11	
2025-08-24T00:00	32450	9	-41.9		127	10	
2025-08-24T00:00	32500	9	-42.1		129	9	
2025-08-24T00:00	32550	9	-42.0		130	8	
2025-08-24T00:00	32600	9	-41.8		129	8	
2025-08-24T00:00	32650	8	-41.7		129	8	
2025-08-24T00:00	32700	8	-41.5		131	8	
2025-08-24T00:00	32750	8	-41.3		130	8	
2025-08-24T00:00	32800	8	-41.1		127	8	
2025-08-24T00:00	32850	8	-40.8		124	9	
2025-08-24T00:00	32900	8	-40.7		124	10	
2025-08-24T00:00	32950	8	-40.5		124	11	
2025-08-24T00:00	33000	8	-40.3		122	11	
2025-08-24T00:00	33050	8	-39.9		119	11	
2025-08-24T00:00	33100	8	-39.8		117	10	
2025-08-24T00:00	33150	8	-39.9		117	10	
2025-08-24T00:00	33200	8	-40.0		118	10	
2025-08-24T00:00	33250	8	-40.3		114	10	
2025-08-24T00:00	33300	8	-40.4		106	10	
2025-08-24T00:00	33350	8	-40.4		98	10	
2025-08-24T00:00	33400	8	-40.2		92	11	
2025-08-24T00:00	33450	8	-39.9		87	11	
2025-08-24T00:00	33500	7	-39.6		83	11	
2025-08-24T00:00	33550	7	-39.6		80	12	
2025-08-24T00:00	33600	7	-39.8		79	12	
2025-08-24T00:00	33650	7	-39.7		80	13	
2025-08-24T00:00	33700	7	-39.7		82	13	
2025-08-24T00:00	33750	7	-39.3		85	14	
2025-08-24T00:00	33800	7	-38.9		88	14	
2025-08-24T00:00	33850	7	-38.5		93	13	
2025-08-24T00:00	33900	7	-38.3		97	13	
2025-08-24T00:00	33950	7	-38.1		101	12	
2025-08-24T00:00	34000	7	-37.8		103	11	
2025-08-24T00:00	34050	7	-37.4		105	10	
2025-08-24T00:00	34100	7	-37.1		106	9	
2025-08-24T00:00	34150	7	-36.6		105	9	
2025-08-24T00:00	34200	7	-36.6		101	8	
2025-08-24T00:00	34250	7	-36.7		95	7	
2025-08-24T00:00	34300	7	-36.6		85	6	
2025-08-24T00:00	34350	7	-36.4		72	6	
2025-08-24T00:00	34400	7	-36.4		64	8	
2025-08-24T00:00	34450	7	-35.8		63	9	
2025-08-24T00:00	34500	6	-35.4		65	11	
2025-08-24T00:00	34550	6	-35.2		68	13	
2025-08-24T00:00	34600	6	-34.9		71	15	
2025-08-24T00:00	34650	6	-34.8		74	16	
2025-08-24T00:00	34700	6	-34.8		77	17	
2025-08-24T00:00	34750	6	-34.9		79	17	
2025-08-24T00:00	34800	6	-34.6		81	17	
2025-08-24T00:00	34850	6	-34.4		83	17	
2025-08-24T00:00	34900	6	-34.2		85	16	
2025-08-24T00:00	34950	6	-34.0		87	16	
2025-08-24T00:00	35000	6	-33.7		90	15	
2025-08-24T00:00	35050	6	-33.6		94	14	
2025-08-24T00:00	35100	6	-33.5		96	13	
2025-08-24T00:00	35150	6	-33.5		96	14	
2025-08-24T00:00	35200	6	-33.5		96	15	
2025-08-24T00:00	35250	6	-32.9		96	16	
2025-08-24T00:00	35300	6	-32.4		96	16	
2025-08-24T00:00	35350	6	-32.2		98	16	
2025-08-24T00:00	35400	6	-32.1		103	15	
2025-08-24T00:00	35450	6	-32.2		107	14	
2025-08-24T00:00	35500	6	-32.3		109	15	
2025-08-24T00:00	35550	6	-32.1		107	16	
2025-08-24T00:00	35600	6	-31.8		104	17	
2025-08-24T00:00	35650	5	-31.9		102	19	
2025-08-24T00:00	35700	5	-31.9		101	20	
2025-08-24T00:00	35750	5	-31.7		101	21	
2025-08-24T00:00	35800	5	-31.6		104	20	
2025-08-24T00:00	35850	5	-31.2		107	19	
2025-08-24T00:00	35900	5	-31.2		111	18	
2025-08-24T00:00	35950	5	-30.9		113	18	
2025-08-24T00:00	36000	5	-30.5		114	17	
2025-08-24T00:00	36050	5	-30.2		115	18	
2025-08-24T00:00	36100	5	-29.9		116	19	
2025-08-24T00:00	36150	5	-29.7		116	19	
2025-08-24T00:00	36200	5	-29.7		116	19	
2025-08-24T00:00	36250	5	-29.6		117	18	
2025-08-24T00:00	36300	5	-29.7		119	17	
2025-08-24T00:00	36350	5	-29.9		121	16	
2025-08-24T00:00	36400	5	-29.8		123	15	
2025-08-24T00:00	36450	5	-29.7		125	14	
2025-08-24T00:00	36500	5	-29.2		130	14	
2025-08-24T00:00	36550	5	-29.3		134	13	
2025-08-24T00:00	36600	5	-29.6		137	12	
2025-08-24T00:00	36650	5	-29.9		135	11	
2025-08-24T00:00	36700	5	-29.6		130	10	
2025-08-24T00:00	36750	5	-29.2		122	10	
2025-08-24T00:00	36800	5	-28.9		115	10	
2025-08-24T00:00	36850	5	-28.8		109	11	
2025-08-24T00:00	36900	5	-28.7		104	12	
2025-08-24T00:00	36950	5	-28.6		102	14	
2025-08-24T00:00	37000	5	-28.5		104	15	
2025-08-24T00:00	37050	5	-28.4		108	16	
2025-08-24T00:00	37100	4	-28.4		111	17	
2025-08-24T00:00	37150	4	-28.3		113	17	
2025-08-24T12:00	491	961	20.0	10.1	41	1	
2025-08-24T12:00	501	959	18.7	9.8	52	2	
2025-08-24T12:00	520	958	18.3	9.4	52	2	
2025-08-24T12:00	540	956	18.1	9.2	47	2	
2025-08-24T12:00	560	954	17.9	9.0	39	3	
2025-08-24T12:00	580	952	17.7	8.8	32	3	
2025-08-24T12:00	600	950	17.5	8.8	23	3	
2025-08-24T12:00	620	947	17.4	8.9	13	2	
2025-08-24T12:00	640	945	17.2	8.9	3	2	
2025-08-24T12:00	660	943	17.1	9.0	356	2	
2025-08-24T12:00	680	940	17.0	9.1	349	2	
2025-08-24T12:00	700	938	16.8	9.0	346	2	
2025-08-24T12:00	720	936	16.6	9.0	344	2	
2025-08-24T12:00	740	934	16.4	8.9	345	1	
2025-08-24T12:00	760	932	16.2	8.9	349	1	
2025-08-24T12:00	780	929	16.1	8.9	358	1	
2025-08-24T12:00	800	927	15.9	8.9	4	2	
2025-08-24T12:00	820	925	15.7	8.9	6	2	
2025-08-24T12:00	840	923	15.4	8.7	7	2	
2025-08-24T12:00	860	921	15.2	8.6	7	2	
2025-08-24T12:00	880	918	14.8	7.7	4	3	
2025-08-24T12:00	900	916	14.6	7.9	2	3	
2025-08-24T12:00	920	914	14.4	7.7	1	3	
2025-08-24T12:00	940	912	14.2	6.8	3	3	
2025-08-24T12:00	960	910	14.1	6.4	6	3	
2025-08-24T12:00	980	908	14.0	6.3	9	3	
2025-08-24T12:00	1000	906	13.8	6.3	10	3	
2025-08-24T12:00	1020	904	13.6	6.3	10	3	
2025-08-24T12:00	1040	901	13.5	6.6	11	2	
2025-08-24T12:00	1060	899	13.1	7.9	13	2	
2025-08-24T12:00	1080	897	12.9	8.0	17	2	
2025-08-24T12:00	1100	895	12.7	8.1	22	2	
2025-08-24T12:00	1120	893	12.4	8.1	23	1	
2025-08-24T12:00	1140	891	12.3	7.6	20	2	
2025-08-24T12:00	1160	889	12.2	7.6	15	2	
2025-08-24T12:00	1180	886	12.0	7.3	9	2	
2025-08-24T12:00	1200	884	11.8	6.6	5	2	
2025-08-24T12:00	1220	882	11.7	5.9	1	3	
2025-08-24T12:00	1240	880	11.6	6.1	359	2	
2025-08-24T12:00	1260	878	11.2	7.0	359	2	
2025-08-24T12:00	1280	876	11.0	6.9	358	2	
2025-08-24T12:00	1300	874	11.1	5.5	358	1	
2025-08-24T12:00	1320	872	11.2	5.1	360	1	
2025-08-24T12:00	1340	870	11.0	5.1	1	1	
2025-08-24T12:00	1360	868	10.9	5.0	3	1	
2025-08-24T12:00	1380	866	10.8	4.8	5	1	
2025-08-24T12:00	1400	864	10.6	4.8	9	1	
2025-08-24T12:00	1420	861	10.5	4.7	18	1	
2025-08-24T12:00	1440	859	10.3	4.3	35	0	
2025-08-24T12:00	1460	857	10.2	3.9	82	0	
2025-08-24T12:00	1480	855	10.2	3.1	149	0	
2025-08-24T12:00	1500	853	10.2	2.6	175	0	
2025-08-24T12:00	1520	851	10.1	1.3	190	1	
2025-08-24T12:00	1540	849	10.2	-0.2	202	1	
2025-08-24T12:00	1560	847	10.2	-1.0	213	1	
2025-08-24T12:00	1580	845	10.2	-1.3	223	1	
2025-08-24T12:00	1600	843	10.1	-1.3	232	2	
2025-08-24T12:00	1620	841	10.0	-1.0	240	2	
2025-08-24T12:00	1640	839	9.9	-0.4	245	2	
2025-08-24T12:00	1660	837	9.9	0.2	248	2	
2025-08-24T12:00	1680	835	9.8	0.2	254	2	
2025-08-24T12:00	1700	833	9.7	1.3	262	2	
2025-08-24T12:00	1720	831	9.5	1.4	272	2	
2025-08-24T12:00	1740	829	9.4	0.9	282	2	
2025-08-24T12:00	1760	827	9.3	0.5	288	2	
2025-08-24T12:00	1780	825	9.2	0.1	292	2	
2025-08-24T12:00	1800	823	9.4	-0.7	290	2	
2025-08-24T12:00	1820	821	9.4	-0.7	284	2	
2025-08-24T12:00	1840	819	9.3	-0.7	279	2	
2025-08-24T12:00	1860	817	9.1	-0.7	277	2	
2025-08-24T12:00	1880	815	8.9	-0.8	276	2	
2025-08-24T12:00	1900	813	8.8	-0.9	275	2	
2025-08-24T12:00	1920	811	8.7	-1.1	274	2	
2025-08-24T12:00	1940	809	8.5	-1.3	274	2	
2025-08-24T12:00	1960	807	8.4	-1.5	273	2	
2025-08-24T12:00	1980	805	8.2	-1.3	271	2	
2025-08-24T12:00	2000	803	8.0	-1.3	266	2	
2025-08-24T12:00	2020	801	7.8	-1.0	258	2	
2025-08-24T12:00	2040	799	7.7	-1.0	254	2	
2025-08-24T12:00	2060	797	7.6	-1.1	248	2	
2025-08-24T12:00	2080	796	7.5	-1.3	244	3	
2025-08-24T12:00	2100	794	7.4	-1.8	242	3	
2025-08-24T12:00	2120	792	7.3	-1.9	242	3	
2025-08-24T12:00	2140	790	7.2	-2.0	241	3	
2025-08-24T12:00	2160	788	7.1	-1.9	239	2	
2025-08-24T12:00	2180	786	7.0	-1.5	234	2	
2025-08-24T12:00	2200	784	6.9	-2.1	222	1	
2025-08-24T12:00	2220	782	6.8	-2.5	194	1	
2025-08-24T12:00	2240	780	6.7	-2.9	157	1	
2025-08-24T12:00	2260	778	6.7	-3.8	139	1	
2025-08-24T12:00	2280	776	6.6	-4.2	129	2	
2025-08-24T12:00	2300	775	6.6	-5.5	122	2	
2025-08-24T12:00	2320	773	6.6	-7.1	116	2	
2025-08-24T12:00	2340	771	6.5	-7.1	108	2	
2025-08-24T12:00	2360	769	6.3	-7.3	91	1	
2025-08-24T12:00	2380	767	6.1	-7.2	48	1	
2025-08-24T12:00	2400	765	5.9	-7.0	359	1	
2025-08-24T12:00	2420	763	5.8	-6.3	340	2	
2025-08-24T12:00	2440	761	5.7	-5.3	334	3	
2025-08-24T12:00	2460	759	5.7	-4.4	333	3	
2025-08-24T12:00	2480	758	5.6	-4.2	334	3	
2025-08-24T12:00	2500	756	5.4	-4.2	335	3	
2025-08-24T12:00	2520	754	5.3	-4.2	335	3	
2025-08-24T12:00	2540	752	5.2	-4.1	332	3	
2025-08-24T12:00	2560	750	5.2	-4.7	322	2	
2025-08-24T12:00	2580	748	5.3	-5.4	307	2	
2025-08-24T12:00	2600	746	5.3	-5.9	291	2	
2025-08-24T12:00	2620	745	5.3	-6.0	277	2	
2025-08-24T12:00	2640	743	5.2	-6.1	265	2	
2025-08-24T12:00	2660	741	5.1	-6.5	256	2	
2025-08-24T12:00	2680	739	5.0	-6.9	248	2	
2025-08-24T12:00	2700	738	4.9	-7.3	239	2	
2025-08-24T12:00	2720	736	4.9	-7.7	233	2	
2025-08-24T12:00	2740	734	4.9	-7.7	232	2	
2025-08-24T12:00	2760	732	4.9	-7.3	234	2	
2025-08-24T12:00	2780	730	4.9	-5.9	240	2	
2025-08-24T12:00	2800	729	4.8	-6.2	248	2	
2025-08-24T12:00	2820	727	4.6	-6.9	257	2	
2025-08-24T12:00	2840	725	4.4	-6.9	263	2	
2025-08-24T12:00	2860	723	4.2	-6.8	268	3	
2025-08-24T12:00	2880	721	4.0	-6.9	271	3	
2025-08-24T12:00	2900	720	3.9	-7.3	273	3	
2025-08-24T12:00	2920	718	3.8	-7.4	273	3	
2025-08-24T12:00	2940	716	3.7	-7.3	273	3	
2025-08-24T12:00	2960	714	3.6	-7.3	271	4	
2025-08-24T12:00	2980	713	3.6	-8.2	270	4	
2025-08-24T12:00	3000	711	3.6	-9.3	270	4	
2025-08-24T12:00	3020	709	3.6	-10.5	271	4	
2025-08-24T12:00	3040	707	3.4	-9.1	273	5	
2025-08-24T12:00	3060	706	3.3	-7.8	275	5	
2025-08-24T12:00	3080	704	3.3	-10.5	278	4	
2025-08-24T12:00	3100	702	3.2	-9.5	281	4	
2025-08-24T12:00	3120	700	3.1	-9.1	283	4	
2025-08-24T12:00	3140	699	2.9	-9.6	284	4	
2025-08-24T12:00	3160	697	2.8	-9.1	284	4	
2025-08-24T12:00	3180	695	2.7	-9.7	285	4	
2025-08-24T12:00	3200	693	2.7	-13.3	287	4	
2025-08-24T12:00	3220	692	2.6	-14.2	288	4	
2025-08-24T12:00	3240	690	2.6	-17.0	291	4	
2025-08-24T12:00	3260	688	2.5	-17.8	294	4	
2025-08-24T12:00	3280	687	2.4	-19.1	297	4	
2025-08-24T12:00	3300	685	2.3	-20.9	301	4	
2025-08-24T12:00	3320	683	2.1	-21.7	305	4	
2025-08-24T12:00	3340	682	2.1	-23.8	307	5	
2025-08-24T12:00	3360	680	2.0	-24.8	308	6	
2025-08-24T12:00	3380	678	1.9	-24.7	309	7	
2025-08-24T12:00	3400	677	1.8	-13.9	309	7	
2025-08-24T12:00	3420	675	1.6	-9.9	309	8	
2025-08-24T12:00	3440	673	1.5	-10.9	310	8	
2025-08-24T12:00	3460	671	1.5	-11.2	311	9	
2025-08-24T12:00	3480	670	1.4	-11.5	312	9	
2025-08-24T12:00	3500	668	1.2	-11.8	315	9	
2025-08-24T12:00	3520	667	1.1	-12.5	317	8	
2025-08-24T12:00	3540	665	1.1	-12.8	319	8	
2025-08-24T12:00	3560	663	0.9	-12.1	321	8	
2025-08-24T12:00	3580	662	0.8	-11.9	322	8	
2025-08-24T12:00	3600	660	0.7	-12.4	322	8	
2025-08-24T12:00	3620	658	0.5	-12.0	322	8	
2025-08-24T12:00	3640	656	0.3	-12.1	321	8	
2025-08-24T12:00	3660	655	0.2	-11.8	320	8	
2025-08-24T12:00	3680	654	0.1	-12.3	320	9	
2025-08-24T12:00	3700	652	0.2	-13.7	319	10	
2025-08-24T12:00	3720	650	0.3	-17.1	319	10	
2025-08-24T12:00	3740	648	0.4	-18.0	319	11	
2025-08-24T12:00	3760	647	0.4	-13.8	320	11	
2025-08-24T12:00	3780	645	0.3	-13.8	321	11	
2025-08-24T12:00	3800	644	0.2	-14.6	322	11	
2025-08-24T12:00	3820	642	0.2	-15.4	322	11	
2025-08-24T12:00	3840	640	0.0	-15.6	322	12	
2025-08-24T12:00	3860	639	-0.1	-15.8	322	12	
2025-08-24T12:00	3880	637	-0.2	-15.8	321	12	
2025-08-24T12:00	3900	636	-0.3	-16.0	320	12	
2025-08-24T12:00	3920	634	-0.3	-23.5	319	13	
2025-08-24T12:00	3940	632	-0.1	-32.9	318	13	
2025-08-24T12:00	3960	631	-0.2	-31.1	317	13	
2025-08-24T12:00	3980	629	-0.4	-28.9	317	14	
2025-08-24T12:00	4000	628	-0.6	-24.4	316	14	
2025-08-24T12:00	4020	626	-0.7	-18.4	316	13	
2025-08-24T12:00	4040	625	-0.8	-17.2	316	13	
2025-08-24T12:00	4060	623	-0.9	-17.0	315	13	
2025-08-24T12:00	4080	621	-1.1	-16.7	314	13	
2025-08-24T12:00	4100	620	-1.2	-16.6	313	13	
2025-08-24T12:00	4120	618	-1.4	-16.5	312	13	
2025-08-24T12:00	4140	617	-1.6	-16.9	311	13	
2025-08-24T12:00	4160	615	-1.7	-17.8	311	13	
2025-08-24T12:00	4180	614	-1.8	-18.1	311	14	
2025-08-24T12:00	4200	612	-1.9	-18.5	311	14	
2025-08-24T12:00	4220	611	-2.1	-18.8	312	14	
2025-08-24T12:00	4240	609	-2.2	-20.2	313	15	
2025-08-24T12:00	4260	607	-2.3	-22.7	315	15	
2025-08-24T12:00	4280	606	-2.4	-20.6	316	15	
2025-08-24T12:00	4300	605	-2.6	-19.3	318	15	
2025-08-24T12:00	4320	603	-2.8	-18.3	320	15	
2025-08-24T12:00	4340	602	-3.0	-17.8	321	15	
2025-08-24T12:00	4360	600	-3.1	-17.6	321	16	
2025-08-24T12:00	4380	598	-3.3	-18.2	322	16	
2025-08-24T12:00	4400	597	-3.5	-18.5	321	16	
2025-08-24T12:00	4420	595	-3.6	-18.2	320	16	
2025-08-24T12:00	4440	594	-3.8	-17.2	318	17	
2025-08-24T12:00	4460	592	-3.9	-17.1	317	17	
2025-08-24T12:00	4480	591	-4.1	-17.3	316	17	
2025-08-24T12:00	4500	589	-4.3	-17.7	316	16	
2025-08-24T12:00	4520	588	-4.5	-17.7	316	16	
2025-08-24T12:00	4540	586	-4.6	-17.9	316	16	
2025-08-24T12:00	4560	585	-4.8	-18.2	316	16	
2025-08-24T12:00	4580	584	-5.0	-18.7	315	16	
2025-08-24T12:00	4600	582	-5.1	-19.0	314	16	
2025-08-24T12:00	4620	581	-5.3	-19.0	313	15	
2025-08-24T12:00	4640	579	-5.5	-19.2	311	16	
2025-08-24T12:00	4660	578	-5.6	-19.9	311	16	
2025-08-24T12:00	4680	576	-5.8	-20.3	311	17	
2025-08-24T12:00	4700	575	-5.9	-20.1	312	17	
2025-08-24T12:00	4720	573	-6.1	-20.0	312	17	
2025-08-24T12:00	4740	572	-6.3	-19.9	313	18	
2025-08-24T12:00	4760	570	-6.5	-19.6	312	18	
2025-08-24T12:00	4780	569	-6.6	-19.3	312	18	
2025-08-24T12:00	4800	567	-6.8	-19.4	311	18	
2025-08-24T12:00	4820	566	-7.0	-19.4	310	18	
2025-08-24T12:00	4840	564	-7.1	-19.6	310	18	
2025-08-24T12:00	4860	563	-7.3	-19.4	309	18	
2025-08-24T12:00	4880	562	-7.5	-19.3	309	18	
2025-08-24T12:00	4900	560	-7.7	-19.4	309	18	
2025-08-24T12:00	4920	559	-7.9	-19.3	309	17	
2025-08-24T12:00	4940	557	-8.0	-18.6	309	17	
2025-08-24T12:00	4960	556	-8.3	-18.5	310	17	
2025-08-24T12:00	4980	554	-8.4	-18.5	310	17	
2025-08-24T12:00	5000	553	-8.6	-19.0	310	17	
2025-08-24T12:00	5020	551	-8.8	-20.4	310	16	
2025-08-24T12:00	5040	550	-8.9	-20.0	310	16	
2025-08-24T12:00	5060	549	-9.0	-17.8	310	16	
2025-08-24T12:00	5080	547	-9.1	-17.5	310	15	
2025-08-24T12:00	5100	546	-9.3	-16.9	309	15	
2025-08-24T12:00	5120	544	-9.5	-16.6	310	15	
2025-08-24T12:00	5140	543	-9.7	-16.3	310	15	
2025-08-24T12:00	5160	542	-9.9	-16.3	310	14	
2025-08-24T12:00	5180	540	-10.1	-16.0	310	14	
2025-08-24T12:00	5200	539	-10.2	-15.6	309	14	
2025-08-24T12:00	5220	537	-10.3	-15.8	308	14	
2025-08-24T12:00	5240	536	-10.4	-16.5	307	14	
2025-08-24T12:00	5260	535	-10.6	-16.8	305	14	
2025-08-24T12:00	5280	533	-10.7	-16.9	304	14	
2025-08-24T12:00	5300	532	-10.9	-17.0	303	14	
2025-08-24T12:00	5320	530	-11.1	-17.1	302	14	
2025-08-24T12:00	5340	529	-11.2	-17.2	301	15	
2025-08-24T12:00	5360	528	-11.4	-17.4	300	15	
2025-08-24T12:00	5380	526	-11.5	-17.8	299	15	
2025-08-24T12:00	5400	525	-11.6	-18.1	299	15	
2025-08-24T12:00	5420	524	-11.7	-18.4	299	15	
2025-08-24T12:00	5440	522	-11.8	-18.6	300	15	
2025-08-24T12:00	5460	521	-11.9	-18.7	301	16	
2025-08-24T12:00	5480	519	-12.0	-18.0	301	16	
2025-08-24T12:00	5500	518	-12.1	-17.2	302	16	
2025-08-24T12:00	5520	517	-12.2	-17.1	303	17	
2025-08-24T12:00	5540	515	-12.4	-17.2	303	17	
2025-08-24T12:00	5560	514	-12.4	-17.6	303	17	
2025-08-24T12:00	5580	513	-12.5	-18.0	303	18	
2025-08-24T12:00	5600	511	-12.6	-18.3	303	18	
2025-08-24T12:00	5620	510	-12.6	-18.9	303	18	
2025-08-24T12:00	5640	509	-12.6	-19.9	303	18	
2025-08-24T12:00	5660	507	-12.6	-20.6	303	18	
2025-08-24T12:00	5680	506	-12.7	-20.9	303	18	
2025-08-24T12:00	5700	505	-12.8	-21.1	303	18	
2025-08-24T12:00	5720	503	-12.9	-20.9	303	18	
2025-08-24T12:00	5740	502	-13.0	-21.1	303	18	
2025-08-24T12:00	5760	501	-13.1	-21.3	303	18	
2025-08-24T12:00	5780	500	-13.3	-21.4	303	17	
2025-08-24T12:00	5800	498	-13.4	-21.5	303	17	
2025-08-24T12:00	5820	497	-13.6	-21.5	303	17	
2025-08-24T12:00	5840	496	-13.7	-21.4	303	17	
2025-08-24T12:00	5860	494	-13.8	-21.6	302	16	
2025-08-24T12:00	5880	493	-13.9	-21.4	302	16	
2025-08-24T12:00	5900	492	-14.0	-21.5	302	16	
2025-08-24T12:00	5920	490	-14.0	-21.5	302	16	
2025-08-24T12:00	5940	489	-14.2	-21.5	302	16	
2025-08-24T12:00	5960	488	-14.3	-21.4	302	16	
2025-08-24T12:00	5980	486	-14.5	-21.5	303	16	
2025-08-24T12:00	6000	485	-14.7	-21.5	303	16	
2025-08-24T12:00	6020	484	-14.8	-21.6	304	17	
2025-08-24T12:00	6040	483	-15.0	-21.6	305	17	
2025-08-24T12:00	6060	481	-15.2	-21.7	306	17	
2025-08-24T12:00	6080	480	-15.4	-21.7	307	17	
2025-08-24T12:00	6100	479	-15.6	-21.6	307	18	
2025-08-24T12:00	6120	478	-15.7	-21.5	307	18	
2025-08-24T12:00	6140	476	-15.9	-21.4	307	18	
2025-08-24T12:00	6160	475	-16.1	-21.3	307	18	
2025-08-24T12:00	6180	474	-16.3	-21.4	306	18	
2025-08-24T12:00	6200	473	-16.5	-21.4	306	18	
2025-08-24T12:00	6220	471	-16.6	-21.4	305	19	
2025-08-24T12:00	6240	470	-16.8	-21.4	305	19	
2025-08-24T12:00	6260	469	-17.0	-21.6	304	18	
2025-08-24T12:00	6280	468	-17.2	-21.8	304	18	
2025-08-24T12:00	6300	466	-17.3	-21.7	304	18	
2025-08-24T12:00	6320	465	-17.5	-21.6	304	18	
2025-08-24T12:00	6340	464	-17.7	-21.5	304	18	
2025-08-24T12:00	6360	462	-17.9	-21.5	304	18	
2025-08-24T12:00	6380	461	-18.0	-21.6	304	18	
2025-08-24T12:00	6400	460	-18.0	-22.5	305	18	
2025-08-24T12:00	6420	459	-17.8	-24.1	305	18	
2025-08-24T12:00	6440	457	-17.6	-25.4	305	18	
2025-08-24T12:00	6460	456	-17.7	-25.5	305	18	
2025-08-24T12:00	6480	455	-17.7	-25.9	305	19	
2025-08-24T12:00	6500	454	-17.8	-26.3	304	19	
2025-08-24T12:00	6520	453	-17.9	-26.5	304	19	
2025-08-24T12:00	6540	451	-18.0	-26.6	304	19	
2025-08-24T12:00	6560	450	-18.2	-26.6	304	19	
2025-08-24T12:00	6580	449	-18.2	-26.8	304	19	
2025-08-24T12:00	6600	448	-18.4	-26.9	304	19	
2025-08-24T12:00	6620	447	-18.5	-27.0	305	19	
2025-08-24T12:00	6640	446	-18.5	-27.2	305	20	
2025-08-24T12:00	6660	444	-18.6	-27.8	305	20	
2025-08-24T12:00	6680	443	-18.7	-28.1	305	20	
2025-08-24T12:00	6700	442	-18.8	-28.1	305	20	
2025-08-24T12:00	6720	441	-19.0	-28.2	305	20	
2025-08-24T12:00	6740	440	-19.1	-28.6	305	20	
2025-08-24T12:00	6760	438	-19.2	-28.7	304	20	
2025-08-24T12:00	6780	437	-19.3	-28.8	304	20	
2025-08-24T12:00	6800	436	-19.5	-28.8	304	20	
2025-08-24T12:00	6820	435	-19.7	-29.0	304	20	
2025-08-24T12:00	6840	434	-19.8	-29.1	304	20	
2025-08-24T12:00	6860	432	-20.0	-29.1	304	20	
2025-08-24T12:00	6880	431	-20.1	-29.2	304	20	
2025-08-24T12:00	6900	430	-20.3	-29.4	304	19	
2025-08-24T12:00	6920	429	-20.5	-29.6	305	19	
2025-08-24T12:00	6940	428	-20.6	-30.0	305	19	
2025-08-24T12:00	6960	427	-20.8	-30.2	304	19	
2025-08-24T12:00	6980	426	-20.9	-30.3	304	19	
2025-08-24T12:00	7000	424	-21.1	-30.5	304	19	
2025-08-24T12:00	7020	423	-21.2	-31.0	304	19	
2025-08-24T12:00	7040	422	-21.4	-31.0	303	19	
2025-08-24T12:00	7060	421	-21.6	-31.0	303	19	
2025-08-24T12:00	7080	420	-21.8	-31.0	303	19	
2025-08-24T12:00	7100	419	-21.9	-31.1	303	19	
2025-08-24T12:00	7120	418	-22.1	-31.3	303	19	
2025-08-24T12:00	7140	416	-22.3	-31.4	303	19	
2025-08-24T12:00	7160	415	-22.4	-31.6	304	19	
2025-08-24T12:00	7180	414	-22.6	-31.9	304	19	
2025-08-24T12:00	7200	413	-22.8	-32.1	304	19	
2025-08-24T12:00	7220	412	-22.9	-32.3	305	19	
2025-08-24T12:00	7240	411	-23.1	-32.3	305	19	
2025-08-24T12:00	7260	410	-23.3	-32.5	305	19	
2025-08-24T12:00	7280	408	-23.4	-32.8	304	19	
2025-08-24T12:00	7300	407	-23.5	-33.1	304	20	
2025-08-24T12:00	7320	406	-23.7	-33.3	304	20	
2025-08-24T12:00	7340	405	-23.8	-33.5	304	20	
2025-08-24T12:00	7360	404	-23.9	-33.6	304	20	
2025-08-24T12:00	7380	403	-24.0	-34.1	304	20	
2025-08-24T12:00	7400	402	-24.1	-34.7	304	20	
2025-08-24T12:00	7420	401	-24.3	-35.1	304	20	
2025-08-24T12:00	7440	400	-24.3	-35.4	305	20	
2025-08-24T12:00	7460	399	-24.4	-35.7	305	20	
2025-08-24T12:00	7480	398	-24.5	-36.0	305	21	
2025-08-24T12:00	7500	396	-24.6	-36.7	306	21	
2025-08-24T12:00	7520	395	-24.7	-37.3	306	21	
2025-08-24T12:00	7540	394	-24.8	-37.5	307	21	
2025-08-24T12:00	7560	393	-24.9	-38.2	307	21	
2025-08-24T12:00	7580	392	-25.0	-38.5	307	21	
2025-08-24T12:00	7600	391	-25.1	-38.6	307	21	
2025-08-24T12:00	7620	390	-25.1	-39.8	307	21	
2025-08-24T12:00	7640	389	-25.0	-41.2	307	21	
2025-08-24T12:00	7660	388	-25.1	-41.2	307	21	
2025-08-24T12:00	7680	387	-25.2	-41.7	307	21	
2025-08-24T12:00	7700	386	-25.3	-42.4	307	21	
2025-08-24T12:00	7720	384	-25.4	-43.6	307	21	
2025-08-24T12:00	7740	383	-25.5	-44.8	307	22	
2025-08-24T12:00	7760	383	-25.6	-45.3	308	22	
2025-08-24T12:00	7780	381	-25.8	-45.7	308	22	
2025-08-24T12:00	7800	380	-25.9	-45.4	309	22	
2025-08-24T12:00	7820	379	-26.1	-45.3	311	22	
2025-08-24T12:00	7840	378	-26.2	-45.7	312	22	
2025-08-24T12:00	7860	377	-26.3	-46.2	313	22	
2025-08-24T12:00	7880	376	-26.4	-46.7	314	23	
2025-08-24T12:00	7900	375	-26.5	-47.3	315	23	
2025-08-24T12:00	7920	374	-26.7	-47.7	315	24	
2025-08-24T12:00	7940	373	-26.7	-49.1	314	24	
2025-08-24T12:00	7960	372	-26.7	-48.9	314	24	
2025-08-24T12:00	7980	371	-26.9	-48.6	313	24	
2025-08-24T12:00	8000	370	-27.0	-48.5	313	25	
2025-08-24T12:00	8020	369	-27.2	-48.3	313	25	
2025-08-24T12:00	8040	368	-27.3	-47.9	313	25	
2025-08-24T12:00	8060	367	-27.5	-47.0	312	25	
2025-08-24T12:00	8080	366	-27.6	-45.6	312	25	
2025-08-24T12:00	8100	365	-27.8	-43.5	311	25	
2025-08-24T12:00	8120	364	-27.9	-42.4	310	26	
2025-08-24T12:00	8140	363	-28.0	-42.3	310	26	
2025-08-24T12:00	8160	362	-28.2	-41.9	309	26	
2025-08-24T12:00	8180	361	-28.3	-41.4	308	26	
2025-08-24T12:00	8200	360	-28.5	-40.6	307	26	
2025-08-24T12:00	8220	359	-28.6	-40.4	307	26	
2025-08-24T12:00	8240	358	-28.8	-40.6	307	26	
2025-08-24T12:00	8260	357	-28.9	-40.6	306	26	
2025-08-24T12:00	8280	356	-29.1	-40.7	306	25	
2025-08-24T12:00	8300	355	-29.3	-40.9	306	25	
2025-08-24T12:00	8320	354	-29.4	-40.8	306	25	
2025-08-24T12:00	8340	353	-29.5	-40.8	306	25	
2025-08-24T12:00	8360	352	-29.7	-40.9	306	25	
2025-08-24T12:00	8380	351	-29.9	-41.1	306	25	
2025-08-24T12:00	8400	350	-30.1	-41.1	306	25	
2025-08-24T12:00	8420	349	-30.2	-41.2	306	25	
2025-08-24T12:00	8440	348	-30.4	-41.4	305	25	
2025-08-24T12:00	8460	347	-30.5	-41.0	305	25	
2025-08-24T12:00	8480	346	-30.7	-40.8	305	25	
2025-08-24T12:00	8500	345	-30.8	-41.1	305	25	
2025-08-24T12:00	8520	344	-30.9	-41.8	306	25	
2025-08-24T12:00	8540	343	-31.0	-41.7	307	25	
2025-08-24T12:00	8560	342	-31.2	-41.4	307	26	
2025-08-24T12:00	8580	341	-31.3	-41.5	307	26	
2025-08-24T12:00	8600	340	-31.5	-41.9	308	26	
2025-08-24T12:00	8620	339	-31.7	-42.4	308	27	
2025-08-24T12:00	8640	338	-31.8	-42.3	309	27	
2025-08-24T12:00	8660	337	-31.9	-42.4	309	27	
2025-08-24T12:00	8680	336	-32.0	-42.7	309	27	
2025-08-24T12:00	8700	335	-32.2	-42.9	308	28	
2025-08-24T12:00	8720	334	-32.3	-43.0	308	28	
2025-08-24T12:00	8740	333	-32.5	-43.1	308	28	
2025-08-24T12:00	8760	333	-32.7	-43.1	308	28	
2025-08-24T12:00	8780	332	-32.9	-43.0	307	28	
2025-08-24T12:00	8800	331	-33.1	-43.1	307	28	
2025-08-24T12:00	8820	330	-33.2	-43.5	307	28	
2025-08-24T12:00	8840	329	-33.4	-43.9	306	28	
2025-08-24T12:00	8860	328	-33.5	-44.2	306	28	
2025-08-24T12:00	8880	327	-33.7	-44.4	306	27	
2025-08-24T12:00	8900	326	-33.9	-44.5	305	28	
2025-08-24T12:00	8920	325	-34.0	-44.5	305	27	
2025-08-24T12:00	8940	324	-34.2	-44.5	305	28	
2025-08-24T12:00	8960	323	-34.4	-44.4	305	28	
2025-08-24T12:00	8980	322	-34.6	-44.5	305	28	
2025-08-24T12:00	9000	321	-34.7	-44.8	305	28	
2025-08-24T12:00	9020	320	-34.9	-44.9	306	28	
2025-08-24T12:00	9040	320	-35.1	-45.2	306	29	
2025-08-24T12:00	9060	318	-35.2	-45.6	305	29	
2025-08-24T12:00	9080	318	-35.4	-45.7	305	29	
2025-08-24T12:00	9100	317	-35.6	-45.8	305	29	
2025-08-24T12:00	9120	316	-35.8	-45.9	304	29	
2025-08-24T12:00	9140	315	-36.0	-46.1	304	29	
2025-08-24T12:00	9160	314	-36.1	-46.2	304	29	
2025-08-24T12:00	9180	313	-36.3	-46.3	303	29	
2025-08-24T12:00	9200	312	-36.5	-46.4	303	29	
2025-08-24T12:00	9220	311	-36.7	-46.7	304	29	
2025-08-24T12:00	9240	310	-36.8	-47.2	304	29	
2025-08-24T12:00	9260	309	-37.0	-47.3	304	29	
2025-08-24T12:00	9280	309	-37.2	-47.6	305	29	
2025-08-24T12:00	9300	308	-37.4	-48.1	305	29	
2025-08-24T12:00	9320	307	-37.5	-48.2	306	30	
2025-08-24T12:00	9340	306	-37.7	-48.0	306	30	
2025-08-24T12:00	9360	305	-37.9	-47.7	306	30	
2025-08-24T12:00	9380	304	-38.0	-47.3	306	30	
2025-08-24T12:00	9400	303	-38.2	-47.7	305	30	
2025-08-24T12:00	9420	302	-38.3	-48.4	305	30	
2025-08-24T12:00	9440	302	-38.5	-48.7	304	30	
2025-08-24T12:00	9460	301	-38.7	-48.8	304	30	
2025-08-24T12:00	9480	300	-38.8	-49.7	304	30	
2025-08-24T12:00	9500	299	-38.9	-50.6	303	31	
2025-08-24T12:00	9520	298	-39.1	-50.9	303	31	
2025-08-24T12:00	9540	297	-39.2	-50.8	303	31	
2025-08-24T12:00	9560	296	-39.4	-51.4	303	31	
2025-08-24T12:00	9580	295	-39.6	-51.6	303	31	
2025-08-24T12:00	9600	295	-39.8	-51.5	302	31	
2025-08-24T12:00	9620	294	-39.9	-51.6	302	30	
2025-08-24T12:00	9640	293	-40.1	-51.3	302	30	
2025-08-24T12:00	9660	292	-40.3	-51.3	302	30	
2025-08-24T12:00	9680	291	-40.5	-51.4	302	30	
2025-08-24T12:00	9700	290	-40.7	-51.1	302	30	
2025-08-24T12:00	9720	289	-40.9	-50.7	302	31	
2025-08-24T12:00	9740	289	-41.0	-50.7	302	31	
2025-08-24T12:00	9760	288	-41.1	-51.6	302	31	
2025-08-24T12:00	9780	287	-41.2	-52.2	302	31	
2025-08-24T12:00	9800	286	-41.3	-52.6	302	31	
2025-08-24T12:00	9820	285	-41.5	-53.2	302	31	
2025-08-24T12:00	9840	284	-41.6	-53.9	302	32	
2025-08-24T12:00	9860	284	-41.8	-54.1	302	32	
2025-08-24T12:00	9880	283	-42.0	-53.7	302	32	
2025-08-24T12:00	9900	282	-42.1	-52.6	302	32	
2025-08-24T12:00	9920	281	-42.3	-51.8	302	32	
2025-08-24T12:00	9940	280	-42.5	-51.9	302	32	
2025-08-24T12:00	9960	279	-42.7	-52.1	302	32	
2025-08-24T12:00	9980	278	-42.9	-52.1	303	32	
2025-08-24T12:00	10000	278	-43.0	-52.1	304	32	
2025-08-24T12:00	10018	277	-43.2	-52.3	304	32	
2025-08-24T12:00	10050	276	-43.4	-52.9	306	32	
2025-08-24T12:00	10100	274	-43.8	-53.1	308	32	
2025-08-24T12:00	10150	272	-44.3	-53.3	308	32	
2025-08-24T12:00	10200	270	-44.7	-53.2	308	32	
2025-08-24T12:00	10250	268	-45.2	-53.3	309	32	
2025-08-24T12:00	10300	266	-45.7	-53.2	310	32	
2025-08-24T12:00	10350	264	-46.1	-53.3	310	32	
2025-08-24T12:00	10400	262	-46.5	-53.9	309	32	
2025-08-24T12:00	10450	260	-47.0	-53.9	309	32	
2025-08-24T12:00	10500	258	-47.4	-54.0	310	32	
2025-08-24T12:00	10550	256	-47.8	-54.2	310	32	
2025-08-24T12:00	10600	254	-48.3	-55.2	311	33	
2025-08-24T12:00	10650	252	-48.7	-56.5	310	33	
2025-08-24T12:00	10700	250	-48.9	-58.9	310	33	
2025-08-24T12:00	10750	248	-49.2	-59.4	310	32	
2025-08-24T12:00	10800	246	-49.7	-59.4	309	32	
2025-08-24T12:00	10850	244	-50.2	-59.3	309	33	
2025-08-24T12:00	10900	242	-50.6	-59.5	309	33	
2025-08-24T12:00	10950	241	-51.0	-60.2	309	33	
2025-08-24T12:00	11000	239	-51.4	-61.0	310	32	
2025-08-24T12:00	11050	237	-51.7	-60.8	309	32	
2025-08-24T12:00	11100	235	-52.2	-60.5	309	32	
2025-08-24T12:00	11150	233	-52.7	-60.3	310	32	
2025-08-24T12:00	11200	231	-53.2	-60.2	310	33	
2025-08-24T12:00	11250	230	-53.7	-60.2	310	33	
2025-08-24T12:00	11300	228	-54.2	-60.2	309	33	
2025-08-24T12:00	11350	226	-54.6	-60.4	308	33	
2025-08-24T12:00	11400	224	-55.1	-60.7	308	32	
2025-08-24T12:00	11450	223	-55.4	-61.7	308	32	
2025-08-24T12:00	11500	221	-55.6	-63.5	309	32	
2025-08-24T12:00	11550	219	-55.8	-64.4	310	32	
2025-08-24T12:00	11600	217	-56.2	-65.0	310	32	
2025-08-24T12:00	11650	216	-56.5	-65.3	311	32	
2025-08-24T12:00	11700	214	-56.7	-65.2	310	31	
2025-08-24T12:00	11750	212	-57.0	-65.7	310	31	
2025-08-24T12:00	11800	211	-57.1	-67.4	311	31	
2025-08-24T12:00	11850	209	-57.2	-67.8	310	31	
2025-08-24T12:00	11900	207	-57.3	-68.2	309	31	
2025-08-24T12:00	11950	206	-57.5	-68.4	309	32	
2025-08-24T12:00	12000	204	-57.6	-67.6	309	32	
2025-08-24T12:00	12050	202	-57.7	-67.1	309	32	
2025-08-24T12:00	12100	201	-57.6	-67.0	311	33	
2025-08-24T12:00	12150	199	-57.6	-67.6	314	33	
2025-08-24T12:00	12200	198	-56.8	-69.5	315	33	
2025-08-24T12:00	12250	196	-56.1	-71.9	315	32	
2025-08-24T12:00	12300	195	-54.9	-75.0	314	31	
2025-08-24T12:00	12350	193	-54.5	-75.2	315	30	
2025-08-24T12:00	12400	192	-54.4	-75.0	316	30	
2025-08-24T12:00	12450	190	-54.7	-74.7	317	29	
2025-08-24T12:00	12500	189	-55.1	-74.6	318	28	
2025-08-24T12:00	12550	187	-55.3	-74.7	318	27	
2025-08-24T12:00	12600	186	-55.6	-75.1	317	26	
2025-08-24T12:00	12650	184	-55.8	-75.6	315	25	
2025-08-24T12:00	12700	183	-56.0	-75.9	313	24	
2025-08-24T12:00	12750	181	-56.3	-76.1	310	24	
2025-08-24T12:00	12800	180	-56.5	-76.4	308	24	
2025-08-24T12:00	12850	179	-56.5	-76.8	308	24	
2025-08-24T12:00	12900	177	-56.5	-77.1	307	25	
2025-08-24T12:00	12950	176	-56.0	-77.3	305	25	
2025-08-24T12:00	13000	174	-55.8	-77.5	303	24	
2025-08-24T12:00	13050	173	-55.9	-77.6	299	24	
2025-08-24T12:00	13100	172	-56.1	-77.7	297	24	
2025-08-24T12:00	13150	170	-56.0	-77.7	294	24	
2025-08-24T12:00	13200	169	-56.3	-77.9	292	24	
2025-08-24T12:00	13250	168	-55.9	-77.9	290	24	
2025-08-24T12:00	13300	166	-55.8	-78.2	291	24	
2025-08-24T12:00	13350	165	-55.7	-78.9	294	24	
2025-08-24T12:00	13400	164	-55.6	-79.3	294	24	
2025-08-24T12:00	13450	163	-55.3	-79.7	292	24	
2025-08-24T12:00	13500	161	-55.2	-79.9	290	25	
2025-08-24T12:00	13550	160	-54.9	-80.0	290	26	
2025-08-24T12:00	13600	159	-54.8	-80.0	289	27	
2025-08-24T12:00	13650	157	-54.9	-79.9	290	28	
2025-08-24T12:00	13700	156	-55.0	-79.6	291	28	
2025-08-24T12:00	13750	155	-55.1	-79.1	292	29	
2025-08-24T12:00	13800	154	-55.5	-78.7	293	29	
2025-08-24T12:00	13850	153	-55.6	-78.7	296	29	
2025-08-24T12:00	13900	151	-55.7	-78.8	300	28	
2025-08-24T12:00	13950	150	-55.7	-78.9	302	28	
2025-08-24T12:00	14000	149	-55.8	-78.8	301	28	
2025-08-24T12:00	14050	148	-56.0	-78.8	301	29	
2025-08-24T12:00	14100	147	-56.1	-79.1	302	28	
2025-08-24T12:00	14150	146	-56.3	-79.3	304	28	
2025-08-24T12:00	14200	144	-56.6	-79.6	306	27	
2025-08-24T12:00	14250	143	-56.6	-79.9	309	26	
2025-08-24T12:00	14300	142	-56.8	-80.3	311	25	
2025-08-24T12:00	14350	141	-57.0	-80.7	311	24	
2025-08-24T12:00	14400	140	-57.1	-81.2	310	22	
2025-08-24T12:00	14450	139	-57.1	-81.6	307	21	
2025-08-24T12:00	14500	138	-57.4	-81.7	304	20	
2025-08-24T12:00	14550	137	-57.6	-82.0	301	20	
2025-08-24T12:00	14600	136	-57.4	-82.2	299	20	
2025-08-24T12:00	14650	135	-56.9	-82.2	296	20	
2025-08-24T12:00	14700	133	-56.8	-82.4	291	21	
2025-08-24T12:00	14750	132	-56.6	-82.3	287	21	
2025-08-24T12:00	14800	131	-56.6	-82.3	285	22	
2025-08-24T12:00	14850	130	-56.9	-82.3	286	23	
2025-08-24T12:00	14900	129	-57.1	-82.3	289	24	
2025-08-24T12:00	14950	128	-57.2	-82.5	293	25	
2025-08-24T12:00	15000	127	-57.4	-82.5	296	25	
2025-08-24T12:00	15050	126	-57.7	-82.7	300	25	
2025-08-24T12:00	15100	125	-57.6	-82.7	304	25	
2025-08-24T12:00	15150	124	-57.7	-82.8	307	24	
2025-08-24T12:00	15200	123	-58.0	-82.8	309	23	
2025-08-24T12:00	15250	122	-58.2	-82.9	312	22	
2025-08-24T12:00	15300	121	-58.5	-83.0	314	21	
2025-08-24T12:00	15350	120	-58.7	-83.1	315	19	
2025-08-24T12:00	15400	119	-58.7	-83.2	313	18	
2025-08-24T12:00	15450	118	-58.9	-83.3	308	17	
2025-08-24T12:00	15500	118	-59.0	-83.4	301	16	
2025-08-24T12:00	15550	117	-59.2	-83.5	293	16	
2025-08-24T12:00	15600	116	-59.2	-83.6	287	17	
2025-08-24T12:00	15650	115	-59.2	-83.8	286	18	
2025-08-24T12:00	15700	114	-59.1	-83.9	290	18	
2025-08-24T12:00	15750	113	-58.8	-83.9	297	19	
2025-08-24T12:00	15800	112	-58.4	-83.9	302	19	
2025-08-24T12:00	15850	111	-58.1	-84.0	305	18	
2025-08-24T12:00	15900	110	-58.0	-84.0	305	18	
2025-08-24T12:00	15950	109	-57.9	-84.0	304	17	
2025-08-24T12:00	16000	109	-57.8	-83.9	304	17	
2025-08-24T12:00	16050	108	-58.0	-84.1	302	16	
2025-08-24T12:00	16100	107	-58.2	-84.1	301	16	
2025-08-24T12:00	16150	106	-58.6	-84.1	299	15	
2025-08-24T12:00	16200	105	-58.9	-84.2	298	16	
2025-08-24T12:00	16250	104	-58.9	-84.3	298	16	
2025-08-24T12:00	16300	104	-58.9	-84.4	301	17	
2025-08-24T12:00	16350	103	-58.6	-84.4	303	17	
2025-08-24T12:00	16400	102	-58.1	-84.1	305	16	
2025-08-24T12:00	16450	101	-58.2	-84.2	304	16	
2025-08-24T12:00	16500	100	-58.2	-84.3	300	17	
2025-08-24T12:00	16550	99	-58.0	-84.3	297	18	
2025-08-24T12:00	16600	99	-58.1	-84.4	297	18	
2025-08-24T12:00	16650	98	-58.2	-84.5	301	18	
2025-08-24T12:00	16700	97	-58.2	-84.6	306	17	
2025-08-24T12:00	16750	96	-58.1	-84.5	307	16	
2025-08-24T12:00	16800	96	-58.3	-84.6	306	16	
2025-08-24T12:00	16850	95	-58.6	-84.8	303	15	
2025-08-24T12:00	16900	94	-58.9	-84.9	302	15	
2025-08-24T12:00	16950	93	-58.6	-84.9	305	15	
2025-08-24T12:00	17000	93	-58.4	-85.0	305	14	
2025-08-24T12:00	17050	92	-58.2	-84.9	305	13	
2025-08-24T12:00	17100	91	-58.0	-84.9	306	12	
2025-08-24T12:00	17150	90	-57.9	-84.9	305	12	
2025-08-24T12:00	17200	90	-57.9	-84.9	305	12	
2025-08-24T12:00	17250	89	-57.6	-84.9	305	12	
2025-08-24T12:00	17300	88	-57.5	-84.9	306	11	
2025-08-24T12:00	17350	88	-57.4	-84.9	305	11	
2025-08-24T12:00	17400	87	-57.3	-84.8	306	10	
2025-08-24T12:00	17450	86	-57.4	-84.8	306	9	
2025-08-24T12:00	17500	86	-57.5	-84.9	302	8	
2025-08-24T12:00	17550	85	-57.5	-85.0	296	8	
2025-08-24T12:00	17600	84	-57.3	-84.9	293	9	
2025-08-24T12:00	17650	84	-57.0	-84.9	292	9	
2025-08-24T12:00	17700	83	-56.9	-84.8	296	9	
2025-08-24T12:00	17750	82	-56.8	-84.8	301	9	
2025-08-24T12:00	17800	82	-56.8	-84.9	305	9	
2025-08-24T12:00	17850	81	-56.6	-84.8	306	8	
2025-08-24T12:00	17900	80	-56.6	-84.7	302	7	
2025-08-24T12:00	17950	80	-56.8	-84.7	296	7	
2025-08-24T12:00	18000	79	-56.9	-84.7	289	7	
2025-08-24T12:00	18050	78	-57.0	-84.7	281	7	
2025-08-24T12:00	18100	78	-57.1	-84.8	278	8	
2025-08-24T12:00	18150	77	-57.1	-84.9	280	9	
2025-08-24T12:00	18200	77	-57.1	-85.0	286	10	
2025-08-24T12:00	18250	76	-56.8	-84.9	292	10	
2025-08-24T12:00	18300	75	-56.5	-84.8	295	10	
2025-08-24T12:00	18350	75	-56.6	-84.8	296	10	
2025-08-24T12:00	18400	74	-56.7	-84.7	299	10	
2025-08-24T12:00	18450	74	-57.0	-84.8	304	10	
2025-08-24T12:00	18500	73	-57.2	-84.9	308	10	
2025-08-24T12:00	18550	72	-57.2	-85.0	308	9	
2025-08-24T12:00	18600	72	-57.0	-84.9	303	8	
2025-08-24T12:00	18650	71	-57.1	-85.0	294	7	
2025-08-24T12:00	18700	71	-57.1	-85.0	284	7	
2025-08-24T12:00	18750	70	-56.9	-85.0	280	8	
2025-08-24T12:00	18800	70	-56.8	-85.0	283	8	
2025-08-24T12:00	18850	69	-56.6	-84.9	290	8	
2025-08-24T12:00	18900	69	-56.6	-84.9	292	8	
2025-08-24T12:00	18950	68	-56.5	-84.8	286	8	
2025-08-24T12:00	19000	67	-56.5	-84.7	278	9	
2025-08-24T12:00	19050	67	-57.0	-84.9	275	9	
2025-08-24T12:00	19100	66	-57.2	-85.0	274	9	
2025-08-24T12:00	19150	66	-57.1	-85.1	275	10	
2025-08-24T12:00	19200	65	-56.9	-85.1	280	9	
2025-08-24T12:00	19250	65	-56.9	-85.1	285	8	
2025-08-24T12:00	19300	64	-56.8	-85.0	292	7	
2025-08-24T12:00	19350	64	-56.7	-85.1	301	5	
2025-08-24T12:00	19400	63	-56.5	-85.1	300	5	
2025-08-24T12:00	19450	63	-56.2	-84.9	287	5	
2025-08-24T12:00	19500	62	-56.3	-85.0	277	7	
2025-08-24T12:00	19550	62	-56.1	-84.9	277	8	
2025-08-24T12:00	19600	61	-55.8	-84.7	280	10	
2025-08-24T12:00	19650	61	-55.9	-84.8	283	10	
2025-08-24T12:00	19700	60	-55.8	-84.8	282	10	
2025-08-24T12:00	19750	60	-55.4	-84.7	277	9	
2025-08-24T12:00	19800	60	-55.4	-84.6	273	8	
2025-08-24T12:00	19850	59	-55.3	-84.6	273	9	
2025-08-24T12:00	19900	59	-55.1	-84.6	276	9	
2025-08-24T12:00	19950	58	-54.8	-84.5	281	9	
2025-08-24T12:00	20000	58	-54.5	-84.4	285	8	
2025-08-24T12:00	20050	57	-54.2		287	8	
2025-08-24T12:00	20100	57	-54.4		284	8	
2025-08-24T12:00	20150	56	-54.4		282	7	
2025-08-24T12:00	20200	56	-54.7		282	7	
2025-08-24T12:00	20250	55	-54.5		285	6	
2025-08-24T12:00	20300	55	-54.3		294	6	
2025-08-24T12:00	20350	55	-54.4		302	6	
2025-08-24T12:00	20400	54	-54.5		307	6	
2025-08-24T12:00	20450	54	-54.4		309	6	
2025-08-24T12:00	20500	53	-54.3		310	6	
2025-08-24T12:00	20550	53	-54.0		312	7	
2025-08-24T12:00	20600	52	-54.1		316	8	
2025-08-24T12:00	20650	52	-54.3		320	9	
2025-08-24T12:00	20700	52	-54.3		325	9	
2025-08-24T12:00	20750	51	-54.0		330	8	
2025-08-24T12:00	20800	51	-53.7		332	7	
2025-08-24T12:00	20850	50	-53.1		326	5	
2025-08-24T12:00	20900	50	-53.1		311	4	
2025-08-24T12:00	20950	50	-53.2		280	3	
2025-08-24T12:00	21000	49	-53.3		241	3	
2025-08-24T12:00	21050	49	-53.2		230	5	
2025-08-24T12:00	21100	49	-53.3		236	6	
2025-08-24T12:00	21150	48	-53.2		248	7	
2025-08-24T12:00	21200	48	-52.9		260	6	
2025-08-24T12:00	21250	47	-52.3		274	5	
2025-08-24T12:00	21300	47	-52.1		294	5	
2025-08-24T12:00	21350	47	-52.3		317	5	
2025-08-24T12:00	21400	46	-52.4		334	5	
2025-08-24T12:00	21450	46	-52.7		345	5	
2025-08-24T12:00	21500	46	-52.5		352	4	
2025-08-24T12:00	21550	45	-52.5		348	2	
2025-08-24T12:00	21600	45	-52.5		312	2	
2025-08-24T12:00	21650	45	-52.6		290	3	
2025-08-24T12:00	21700	44	-52.8		288	4	
2025-08-24T12:00	21750	44	-52.8		294	4	
2025-08-24T12:00	21800	44	-52.6		302	3	
2025-08-24T12:00	21850	43	-52.3		301	2	
2025-08-24T12:00	21900	43	-52.1		260	1	
2025-08-24T12:00	21950	43	-52.1		161	1	
2025-08-24T12:00	22000	42	-52.3		154	2	
2025-08-24T12:00	22050	42	-52.4		156	3	
2025-08-24T12:00	22100	42	-52.4		158	4	
2025-08-24T12:00	22150	41	-52.3		160	4	
2025-08-24T12:00	22200	41	-52.4		162	4	
2025-08-24T12:00	22250	41	-52.3		163	5	
2025-08-24T12:00	22300	40	-51.9		160	5	
2025-08-24T12:00	22350	40	-51.7		157	5	
2025-08-24T12:00	22400	40	-51.5		156	5	
2025-08-24T12:00	22450	39	-51.7		161	4	
2025-08-24T12:00	22500	39	-51.9		171	4	
2025-08-24T12:00	22550	39	-51.7		181	3	
2025-08-24T12:00	22600	39	-51.4		199	2	
2025-08-24T12:00	22650	38	-51.3		233	2	
2025-08-24T12:00	22700	38	-51.3		253	3	
2025-08-24T12:00	22750	38	-51.4		256	3	
2025-08-24T12:00	22800	37	-51.6		258	4	
2025-08-24T12:00	22850	37	-51.8		260	3	
2025-08-24T12:00	22900	37	-51.1		255	2	
2025-08-24T12:00	22950	37	-50.8		217	2	
2025-08-24T12:00	23000	36	-50.6		176	2	
2025-08-24T12:00	23050	36	-50.8		158	2	
2025-08-24T12:00	23100	36	-50.8		133	1	
2025-08-24T12:00	23150	35	-50.9		39	1	
2025-08-24T12:00	23200	35	-50.9		28	1	
2025-08-24T12:00	23250	35	-50.8		43	1	
2025-08-24T12:00	23300	35	-50.4		70	2	
2025-08-24T12:00	23350	34	-50.1		98	2	
2025-08-24T12:00	23400	34	-50.2		111	2	
2025-08-24T12:00	23450	34	-50.4		121	2	
2025-08-24T12:00	23500	34	-50.3		141	2	
2025-08-24T12:00	23550	33	-50.1		160	3	
2025-08-24T12:00	23600	33	-50.2		170	3	
2025-08-24T12:00	23650	33	-50.2		177	3	
2025-08-24T12:00	23700	33	-49.8		183	4	
2025-08-24T12:00	23750	32	-49.7		191	4	
2025-08-24T12:00	23800	32	-49.8		197	3	
2025-08-24T12:00	23850	32	-49.7		205	3	
2025-08-24T12:00	23900	32	-49.9		217	2	
2025-08-24T12:00	23950	31	-50.2		215	1	
2025-08-24T12:00	24000	31	-50.2		171	1	
2025-08-24T12:00	24050	31	-50.1		143	2	
2025-08-24T12:00	24100	31	-50.3		129	2	
2025-08-24T12:00	24150	30	-50.2		122	3	
2025-08-24T12:00	24200	30	-50.4		119	3	
2025-08-24T12:00	24250	30	-50.6		120	3	
2025-08-24T12:00	24300	30	-50.7		125	3	
2025-08-24T12:00	24350	29	-50.6		135	3	
2025-08-24T12:00	24400	29	-50.4		146	3	
2025-08-24T12:00	24450	29	-50.1		153	4	
2025-08-24T12:00	24500	29	-49.8		158	4	
2025-08-24T12:00	24550	29	-49.7		164	4	
2025-08-24T12:00	24600	28	-49.8		172	4	
2025-08-24T12:00	24650	28	-50.0		184	3	
2025-08-24T12:00	24700	28	-50.2		199	2	
2025-08-24T12:00	24750	28	-50.1		206	2	
2025-08-24T12:00	24800	27	-49.9		198	2	
2025-08-24T12:00	24850	27	-49.6		176	2	
2025-08-24T12:00	24900	27	-49.2		161	2	
2025-08-24T12:00	24950	27	-49.0		160	4	
2025-08-24T12:00	25000	27	-48.5		163	5	
2025-08-24T12:00	25050	26	-48.6		166	7	
2025-08-24T12:00	25100	26	-49.0		172	7	
2025-08-24T12:00	25150	26	-49.3		179	7	
2025-08-24T12:00	25200	26	-49.3		184	7	
2025-08-24T12:00	25250	26	-49.0		188	6	
2025-08-24T12:00	25300	25	-48.9		195	5	
2025-08-24T12:00	25350	25	-49.2		207	4	
2025-08-24T12:00	25400	25	-48.8		216	3	
2025-08-24T12:00	25450	25	-48.3		215	3	
2025-08-24T12:00	25500	25	-48.2		214	3	
2025-08-24T12:00	25550	25	-48.3		228	2	
2025-08-24T12:00	25600	24	-48.3		283	1	
2025-08-24T12:00	25650	24	-48.0		334	1	
2025-08-24T12:00	25700	24	-47.8		351	2	
2025-08-24T12:00	25750	24	-47.3		13	2	
2025-08-24T12:00	25800	24	-47.0		30	2	
2025-08-24T12:00	25850	23	-47.0		33	2	
2025-08-24T12:00	25900	23	-47.1		27	1	
2025-08-24T12:00	25950	23	-47.3		243	1	
2025-08-24T12:00	26000	23	-47.6		239	1	
2025-08-24T12:00	26050	23	-47.8		271	2	
2025-08-24T12:00	26100	23	-47.4		324	2	
2025-08-24T12:00	26150	22	-46.7		355	3	
2025-08-24T12:00	26200	22	-46.3		15	5	
2025-08-24T12:00	26250	22	-46.0		31	6	
2025-08-24T12:00	26300	22	-45.9		43	7	
2025-08-24T12:00	26350	22	-45.7		54	8	
2025-08-24T12:00	26400	22	-45.2		66	8	
2025-08-24T12:00	26450	21	-44.9		77	7	
2025-08-24T12:00	26500	21	-45.1		86	7	
2025-08-24T12:00	26550	21	-45.5		93	6	
2025-08-24T12:00	26600	21	-45.8		95	6	
2025-08-24T12:00	26650	21	-45.9		95	6	
2025-08-24T12:00	26700	21	-46.0		95	5	
2025-08-24T12:00	26750	20	-46.4		95	5	
2025-08-24T12:00	26800	20	-46.6		93	5	
2025-08-24T12:00	26850	20	-46.4		89	5	
2025-08-24T12:00	26900	20	-46.4		83	5	
2025-08-24T12:00	26950	20	-46.7		78	4	
2025-08-24T12:00	27000	20	-46.9		75	4	
2025-08-24T12:00	27050	20	-46.8		72	5	
2025-08-24T12:00	27100	19	-46.5		70	6	
2025-08-24T12:00	27150	19	-46.4		67	7	
2025-08-24T12:00	27200	19	-46.3		65	8	
2025-08-24T12:00	27250	19	-46.0		66	10	
2025-08-24T12:00	27300	19	-45.6		70	11	
2025-08-24T12:00	27350	19	-44.8		76	11	
2025-08-24T12:00	27400	19	-44.5		85	11	
2025-08-24T12:00	27450	18	-44.7		93	11	
2025-08-24T12:00	27500	18	-44.9		100	11	
2025-08-24T12:00	27550	18	-45.2		107	11	
2025-08-24T12:00	27600	18	-45.2		116	10	
2025-08-24T12:00	27650	18	-45.1		124	9	
2025-08-24T12:00	27700	18	-45.1		131	9	
2025-08-24T12:00	27750	18	-45.3		140	8	
2025-08-24T12:00	27800	17	-45.5		150	9	
2025-08-24T12:00	27850	17	-45.5		157	9	
2025-08-24T12:00	27900	17	-45.5		161	10	
2025-08-24T12:00	27950	17	-45.2		164	10	
2025-08-24T12:00	28000	17	-44.9		166	9	
2025-08-24T12:00	28050	17	-44.6		166	7	
2025-08-24T12:00	28100	17	-44.5		164	6	
2025-08-24T12:00	28150	17	-44.3		166	5	
2025-08-24T12:00	28200	16	-44.2		171	3	
2025-08-24T12:00	28250	16	-44.4		166	2	
2025-08-24T12:00	28300	16	-44.1		124	2	
2025-08-24T12:00	28350	16	-43.7		95	3	
2025-08-24T12:00	28400	16	-43.5		91	5	
2025-08-24T12:00	28450	16	-43.5		95	6	
2025-08-24T12:00	28500	16	-43.4		104	7	
2025-08-24T12:00	28550	16	-43.2		114	7	
2025-08-24T12:00	28600	16	-43.0		124	7	
2025-08-24T12:00	28650	15	-42.8		133	6	
2025-08-24T12:00	28700	15	-42.8		139	6	
2025-08-24T12:00	28750	15	-42.6		136	6	
2025-08-24T12:00	28800	15	-42.3		127	6	
2025-08-24T12:00	28850	15	-42.0		120	7	
2025-08-24T12:00	28900	15	-41.8		115	6	
2025-08-24T12:00	28950	15	-41.8		111	6	
2025-08-24T12:00	29000	15	-41.9		108	5	
2025-08-24T12:00	29050	15	-42.1		105	6	
2025-08-24T12:00	29100	14	-42.1		103	7	
2025-08-24T12:00	29150	14	-42.1		104	8	
2025-08-24T12:00	29200	14	-42.2		108	8	
2025-08-24T12:00	29250	14	-42.3		114	8	
2025-08-24T12:00	29300	14	-42.4		124	8	
2025-08-24T12:00	29350	14	-42.7		135	7	
2025-08-24T12:00	29400	14	-43.1		145	7	
2025-08-24T12:00	29450	14	-43.2		155	8	
2025-08-24T12:00	29500	14	-43.3		163	7	
2025-08-24T12:00	29550	13	-43.5		169	7	
2025-08-24T12:00	29600	13	-43.5		171	6	
2025-08-24T12:00	29650	13	-43.4		165	5	
2025-08-24T12:00	29700	13	-43.0		150	4	
2025-08-24T12:00	29750	13	-42.8		135	4	
2025-08-24T12:00	29800	13	-42.5		129	4	
2025-08-24T12:00	29850	13	-42.2		130	3	
2025-08-24T12:00	29900	13	-41.8		131	2	
2025-08-24T12:00	29950	13	-41.6		126	2	
2025-08-24T12:00	30000	13	-41.5		121	3	
2025-08-24T12:00	30050	13	-41.2		122	4	
2025-08-24T12:00	30100	12	-41.0		125	4	
2025-08-24T12:00	30150	12	-40.7		131	4	
2025-08-24T12:00	30200	12	-40.6		137	5	
2025-08-24T12:00	30250	12	-40.7		142	4	
2025-08-24T12:00	30300	12	-40.9		144	4	
2025-08-24T12:00	30350	12	-40.8		143	4	
2025-08-24T12:00	30400	12	-40.7		139	3	
2025-08-24T12:00	30450	12	-40.6		130	3	
2025-08-24T12:00	30500	12	-40.5		115	3	
2025-08-24T12:00	30550	12	-40.3		100	5	
2025-08-24T12:00	30600	12	-40.0		92	6	
2025-08-24T12:00	30650	11	-40.0		88	6	
2025-08-24T12:00	30700	11	-39.9		90	7	
2025-08-24T12:00	30750	11	-39.7		94	6	
2025-08-24T12:00	30800	11	-39.6		97	6	
2025-08-24T12:00	30850	11	-39.6		98	5	
2025-08-24T12:00	30900	11	-39.8		96	5	
2025-08-24T12:00	30950	11	-39.9		95	4	
2025-08-24T12:00	31000	11	-40.1		100	4	
2025-08-24T12:00	31050	11	-40.2		108	5	
2025-08-24T12:00	31100	11	-40.3		110	5	
2025-08-24T12:00	31150	11	-40.2		106	5	
2025-08-24T12:00	31200	11	-39.9		97	5	
2025-08-24T12:00	31250	10	-39.7		92	6	
2025-08-24T12:00	31300	10	-39.6		90	6	
2025-08-24T12:00	31350	10	-39.4		93	7	
2025-08-24T12:00	31400	10	-39.2		96	8	
2025-08-24T12:00	31450	10	-39.1		99	9	
2025-08-24T12:00	31500	10	-39.1		102	9	
2025-08-24T12:00	31550	10	-39.3		104	9	
2025-08-24T12:00	31600	10	-39.5		102	9	
2025-08-24T12:00	31650	10	-39.5		96	9	
2025-08-24T12:00	31700	10	-39.6		90	10	
2025-08-24T12:00	31750	10	-39.5		87	10	
2025-08-24T12:00	31800	10	-39.3		88	10	
2025-08-24T12:00	31850	10	-39.5		91	10	
2025-08-24T12:00	31900	10	-39.7		94	10	
2025-08-24T12:00	31950	9	-39.8		96	10	
2025-08-24T12:00	32000	9	-39.9		100	11	
2025-08-24T12:00	32050	9	-40.0		104	11	
2025-08-24T12:00	32100	9	-39.8		107	11	
2025-08-24T12:00	32150	9	-39.8		112	11	
2025-08-24T12:00	32200	9	-39.7		115	11	
2025-08-24T12:00	32250	9	-39.6		118	10	
2025-08-24T12:00	32300	9	-39.5		119	9	
2025-08-24T12:00	32350	9	-39.2		119	9	
2025-08-24T12:00	32400	9	-39.0		119	8	
2025-08-24T12:00	32450	9	-39.0		118	8	
2025-08-24T12:00	32500	9	-38.8		118	9	
2025-08-24T12:00	32550	9	-38.7		120	10	
2025-08-24T12:00	32600	9	-38.6		119	12	
2025-08-24T12:00	32650	9	-38.5		119	13	
2025-08-24T12:00	32700	8	-38.5		120	14	
2025-08-24T12:00	32750	8	-38.4		121	14	
2025-08-24T12:00	32800	8	-38.3		122	14	
2025-08-24T12:00	32850	8	-38.5		124	13	
2025-08-24T12:00	32900	8	-38.6		128	12	
2025-08-24T12:00	32950	8	-38.9		132	12	
2025-08-24T12:00	33000	8	-39.1		135	12	
2025-08-24T12:00	33050	8	-38.9		135	11	
2025-08-24T12:00	33100	8	-38.8		134	11	
2025-08-24T12:00	33150	8	-38.7		132	10	
2025-08-24T12:00	33200	8	-38.8		130	8	
2025-08-24T12:00	33250	8	-39.0		126	7	
2025-08-24T12:00	33300	8	-39.3		119	6	
2025-08-24T12:00	33350	8	-39.3		106	4	
2025-08-24T12:00	33400	8	-39.1		82	3	
2025-08-24T12:00	33450	8	-38.9		64	3	
2025-08-24T12:00	33500	8	-38.5		65	4	
2025-08-24T12:00	33550	7	-38.1		75	4	
2025-08-24T12:00	33600	7	-37.9		84	5	
2025-08-24T12:00	33650	7	-38.0		90	5	
2025-08-24T12:00	33700	7	-38.2		94	5	
2025-08-24T12:00	33750	7	-38.2		95	6	
2025-08-24T12:00	33800	7	-38.3		97	6	
2025-08-24T12:00	33850	7	-38.2		103	7	
2025-08-24T12:00	33900	7	-38.1		110	8	
2025-08-24T12:00	33950	7	-38.1		116	8	
2025-08-24T12:00	34000	7	-38.3		121	9	
2025-08-24T12:00	34050	7	-38.4		123	9	
2025-08-24T12:00	34100	7	-38.1		120	9	
2025-08-24T12:00	34150	7	-37.7		115	8	
2025-08-24T12:00	34200	7	-37.6		112	7	
2025-08-24T12:00	34250	7	-37.6		111	6	
2025-08-24T12:00	34300	7	-37.6		113	6	
2025-08-24T12:00	34350	7	-37.5		118	6	
2025-08-24T12:00	34400	7	-37.1		123	6	
2025-08-24T12:00	34450	7	-36.7		122	7	
2025-08-24T12:00	34500	7	-36.2		116	7	
2025-08-24T12:00	34550	6	-35.8		103	7	
2025-08-24T12:00	34600	6	-35.7		91	7	
2025-08-24T12:00	34650	6	-35.7		82	7	
2025-08-24T12:00	34700	6	-35.8		73	7	
2025-08-24T12:00	34750	6	-36.0		67	8	
2025-08-24T12:00	34800	6	-36.0		66	8	
2025-08-24T12:00	34850	6	-35.7		69	8	
2025-08-24T12:00	34900	6	-35.4		76	9	
2025-08-24T12:00	34950	6	-35.3		83	10	
2025-08-24T12:00	35000	6	-35.2		91	10	
2025-08-24T12:00	35050	6	-34.8		96	11	
2025-08-24T12:00	35100	6	-34.4		95	12	
2025-08-24T12:00	35150	6	-34.0		91	13	
2025-08-24T12:00	35200	6	-33.7		90	14	
2025-08-24T12:00	35250	6	-33.3		94	14	
2025-08-24T12:00	35300	6	-32.9		99	13	
2025-08-24T12:00	35350	6	-32.7		106	13	
2025-08-24T12:00	35400	6	-32.6		112	12	
2025-08-24T12:00	35450	6	-32.6		113	11	
2025-08-24T12:00	35500	6	-32.4		107	11	
2025-08-24T12:00	35550	6	-32.2		100	12	
2025-08-24T12:00	35600	6	-32.0		94	13	
2025-08-24T12:00	35650	6	-32.0		89	13	
2025-08-24T12:00	35700	6	-32.0		87	14	
2025-08-24T12:00	35750	5	-31.9		86	15	
2025-08-24T12:00	35800	5	-31.6		87	15	
2025-08-24T12:00	35850	5	-31.3		89	15	
2025-08-24T12:00	35900	5	-31.2		92	15	
2025-08-24T12:00	35950	5	-31.2		95	15	
2025-08-24T12:00	36000	5	-31.0		96	15	
2025-08-24T12:00	36050	5	-31.1		96	15	
2025-08-24T12:00	36100	5	-31.0		97	15	
2025-08-24T12:00	36150	5	-30.9		98	15	
2025-08-24T12:00	36200	5	-30.7		102	15	
2025-08-24T12:00	36250	5	-30.5		106	15	
2025-08-24T12:00	36300	5	-30.5		108	14	
2025-08-24T12:00	36350	5	-30.3		107	14	
2025-08-24T12:00	36400	5	-30.0		106	13	
2025-08-24T12:00	36450	5	-29.6		107	13	
2025-08-24T12:00	36500	5	-29.1		108	12	
2025-08-25T00:00	491	962	12.6	11.0	165	0	
2025-08-25T00:00	501	960	14.0	10.2	114	0	
2025-08-25T00:00	520	958	15.0	10.5	93	0	
2025-08-25T00:00	540	956	15.6	9.8	76	1	
2025-08-25T00:00	560	954	16.1	9.3	61	1	
2025-08-25T00:00	580	952	16.0	9.4	49	1	
2025-08-25T00:00	600	950	16.1	9.1	42	1	
2025-08-25T00:00	620	947	16.2	8.8	39	2	
2025-08-25T00:00	640	945	16.3	8.5	41	2	
2025-08-25T00:00	660	943	16.4	8.4	45	3	
2025-08-25T00:00	680	941	16.4	8.4	49	3	
2025-08-25T00:00	700	938	16.3	8.3	55	3	
2025-08-25T00:00	720	936	16.3	8.2	59	4	
2025-08-25T00:00	740	934	16.3	8.0	62	4	
2025-08-25T00:00	760	932	16.4	7.5	62	5	
2025-08-25T00:00	780	930	16.3	7.4	62	5	
2025-08-25T00:00	800	928	16.2	7.3	61	5	
2025-08-25T00:00	820	925	16.1	7.2	60	6	
2025-08-25T00:00	840	923	15.8	7.2	58	6	
2025-08-25T00:00	860	921	15.7	7.2	57	6	
2025-08-25T00:00	880	919	15.5	7.2	56	6	
2025-08-25T00:00	900	917	15.3	7.1	56	6	
2025-08-25T00:00	920	914	15.2	7.1	56	6	
2025-08-25T00:00	940	912	15.2	7.0	58	6	
2025-08-25T00:00	960	910	15.0	6.9	59	6	
2025-08-25T00:00	980	908	14.9	6.6	60	6	
2025-08-25T00:00	1000	906	14.7	6.5	62	6	
2025-08-25T00:00	1020	904	14.6	6.5	63	6	
2025-08-25T00:00	1040	902	14.4	6.7	64	6	
2025-08-25T00:00	1060	899	14.2	7.2	65	6	
2025-08-25T00:00	1080	897	14.1	7.7	66	6	
2025-08-25T00:00	1100	895	13.9	8.0	66	5	
2025-08-25T00:00	1120	893	13.8	8.4	66	5	
2025-08-25T00:00	1140	891	13.7	9.0	64	4	
2025-08-25T00:00	1160	889	13.8	9.3	63	4	
2025-08-25T00:00	1180	887	13.8	9.4	61	4	
2025-08-25T00:00	1200	885	13.7	9.2	58	4	
2025-08-25T00:00	1220	883	13.6	9.4	56	3	
2025-08-25T00:00	1240	880	13.6	9.1	51	3	
2025-08-25T00:00	1260	878	13.5	8.7	47	3	
2025-08-25T00:00	1280	876	13.4	8.5	44	3	
2025-08-25T00:00	1300	874	13.2	8.1	40	3	
2025-08-25T00:00	1320	872	13.1	7.8	37	2	
2025-08-25T00:00	1340	870	13.0	7.6	35	2	
2025-08-25T00:00	1360	868	12.8	7.4	34	2	
2025-08-25T00:00	1380	866	12.7	6.8	34	2	
2025-08-25T00:00	1400	864	12.6	6.6	36	1	
2025-08-25T00:00	1420	862	12.5	7.0	44	1	
2025-08-25T00:00	1440	860	12.4	6.9	73	0	
2025-08-25T00:00	1460	858	12.6	6.2	170	0	
2025-08-25T00:00	1480	856	12.6	6.0	192	1	
2025-08-25T00:00	1500	854	12.6	6.4	198	1	
2025-08-25T00:00	1520	852	12.6	6.5	200	1	
2025-08-25T00:00	1540	850	12.5	6.6	202	1	
2025-08-25T00:00	1560	847	12.3	6.7	204	1	
2025-08-25T00:00	1580	846	12.1	6.6	209	1	
2025-08-25T00:00	1600	844	12.0	6.5	215	2	
2025-08-25T00:00	1620	841	11.8	6.5	223	2	
2025-08-25T00:00	1640	839	11.6	6.6	230	2	
2025-08-25T00:00	1660	838	11.5	6.5	236	2	
2025-08-25T00:00	1680	836	11.3	6.5	241	2	
2025-08-25T00:00	1700	834	11.1	6.5	246	3	
2025-08-25T00:00	1720	832	11.0	6.5	250	3	
2025-08-25T00:00	1740	830	10.9	6.6	255	4	
2025-08-25T00:00	1760	828	10.8	6.8	260	4	
2025-08-25T00:00	1780	826	10.6	6.8	265	4	
2025-08-25T00:00	1800	824	10.5	6.6	269	5	
2025-08-25T00:00	1820	822	10.5	6.0	272	5	
2025-08-25T00:00	1840	820	10.5	5.2	275	5	
2025-08-25T00:00	1860	818	10.4	4.9	278	5	
2025-08-25T00:00	1880	816	10.3	4.2	279	5	
2025-08-25T00:00	1900	814	10.3	3.8	279	5	
2025-08-25T00:00	1920	812	10.2	3.4	278	5	
2025-08-25T00:00	1940	810	10.0	3.1	277	5	
2025-08-25T00:00	1960	808	9.9	2.9	275	5	
2025-08-25T00:00	1980	806	9.7	3.1	273	5	
2025-08-25T00:00	2000	804	9.5	3.0	272	5	
2025-08-25T00:00	2020	802	9.3	2.9	270	5	
2025-08-25T00:00	2040	800	9.1	2.7	269	5	
2025-08-25T00:00	2060	798	9.0	2.3	267	5	
2025-08-25T00:00	2080	797	8.8	2.1	266	5	
2025-08-25T00:00	2100	795	8.7	2.0	264	5	
2025-08-25T00:00	2120	793	8.5	2.1	262	5	
2025-08-25T00:00	2140	791	8.3	2.2	262	5	
2025-08-25T00:00	2160	789	8.1	1.7	261	5	
2025-08-25T00:00	2180	787	8.0	1.2	260	5	
2025-08-25T00:00	2200	785	7.9	1.3	259	5	
2025-08-25T00:00	2220	783	7.7	1.7	258	5	
2025-08-25T00:00	2240	781	7.5	1.3	256	5	
2025-08-25T00:00	2260	779	7.4	1.0	254	5	
2025-08-25T00:00	2280	777	7.3	0.7	252	5	
2025-08-25T00:00	2300	776	7.2	0.2	249	4	
2025-08-25T00:00	2320	774	7.2	-1.3	247	4	
2025-08-25T00:00	2340	772	7.3	-4.0	245	4	
2025-08-25T00:00	2360	770	7.3	-5.2	243	4	
2025-08-25T00:00	2380	768	7.2	-4.7	240	4	
2025-08-25T00:00	2400	766	7.1	-5.2	239	3	
2025-08-25T00:00	2420	764	7.0	-5.0	237	3	
2025-08-25T00:00	2440	762	6.8	-5.2	237	4	
2025-08-25T00:00	2460	760	6.8	-5.6	238	4	
2025-08-25T00:00	2480	759	6.7	-5.9	240	4	
2025-08-25T00:00	2500	757	6.6	-7.2	242	4	
2025-08-25T00:00	2520	755	6.6	-8.5	243	5	
2025-08-25T00:00	2540	753	6.4	-9.1	244	5	
2025-08-25T00:00	2560	751	6.3	-9.3	244	5	
2025-08-25T00:00	2580	749	6.3	-9.4	245	5	
2025-08-25T00:00	2600	748	6.2	-9.9	246	5	
2025-08-25T00:00	2620	746	6.1	-10.1	248	4	
2025-08-25T00:00	2640	744	6.0	-7.4	250	4	
2025-08-25T00:00	2660	742	5.9	-7.5	256	4	
2025-08-25T00:00	2680	740	6.0	-12.0	262	4	
2025-08-25T00:00	2700	738	6.3	-12.8	270	4	
2025-08-25T00:00	2720	737	6.4	-12.8	278	4	
2025-08-25T00:00	2740	735	6.5	-14.4	287	5	
2025-08-25T00:00	2760	733	6.5	-14.9	293	5	
2025-08-25T00:00	2780	731	6.5	-18.6	297	5	
2025-08-25T00:00	2800	730	6.4	-21.4	300	5	
2025-08-25T00:00	2820	728	6.5	-26.3	302	5	
2025-08-25T00:00	2840	726	6.7	-33.1	302	6	
2025-08-25T00:00	2860	724	6.6	-34.9	301	6	
2025-08-25T00:00	2880	722	6.6	-31.9	298	7	
2025-08-25T00:00	2900	721	6.6	-27.1	295	7	
2025-08-25T00:00	2920	719	6.6	-23.3	293	8	
2025-08-25T00:00	2940	717	6.5	-21.3	289	8	
2025-08-25T00:00	2960	715	6.4	-20.2	286	9	
2025-08-25T00:00	2980	714	6.3	-17.5	285	9	
2025-08-25T00:00	3000	712	6.3	-13.3	284	9	
2025-08-25T00:00	3020	710	6.1	-10.9	284	9	
2025-08-25T00:00	3040	708	5.9	-10.3	286	9	
2025-08-25T00:00	3060	707	5.8	-10.0	288	8	
2025-08-25T00:00	3080	705	5.6	-10.0	290	8	
2025-08-25T00:00	3100	703	5.4	-10.0	292	8	
2025-08-25T00:00	3120	702	5.2	-10.1	294	8	
2025-08-25T00:00	3140	700	5.0	-10.2	294	8	
2025-08-25T00:00	3160	698	4.8	-10.3	294	8	
2025-08-25T00:00	3180	697	4.6	-10.2	294	7	
2025-08-25T00:00	3200	695	4.5	-10.6	294	7	
2025-08-25T00:00	3220	693	4.3	-11.9	294	7	
2025-08-25T00:00	3240	691	4.3	-13.6	294	7	
2025-08-25T00:00	3260	690	4.2	-15.4	295	7	
2025-08-25T00:00	3280	688	4.1	-14.2	295	8	
2025-08-25T00:00	3300	686	3.8	-10.7	296	8	
2025-08-25T00:00	3320	685	3.7	-10.6	298	8	
2025-08-25T00:00	3340	683	3.5	-11.7	299	8	
2025-08-25T00:00	3360	681	3.4	-13.2	300	8	
2025-08-25T00:00	3380	680	3.3	-15.9	302	8	
2025-08-25T00:00	3400	678	3.2	-18.0	303	8	
2025-08-25T00:00	3420	676	3.1	-16.9	303	8	
2025-08-25T00:00	3440	674	2.9	-14.0	300	8	
2025-08-25T00:00	3460	673	2.7	-13.7	298	8	
2025-08-25T00:00	3480	671	2.5	-12.9	296	8	
2025-08-25T00:00	3500	670	2.4	-13.0	294	9	
2025-08-25T00:00	3520	668	2.4	-13.4	295	9	
2025-08-25T00:00	3540	666	2.3	-13.6	296	8	
2025-08-25T00:00	3560	664	2.1	-13.8	298	8	
2025-08-25T00:00	3580	663	2.0	-14.2	300	8	
2025-08-25T00:00	3600	661	1.9	-14.8	302	8	
2025-08-25T00:00	3620	660	1.8	-15.3	303	8	
2025-08-25T00:00	3640	658	1.6	-15.3	303	7	
2025-08-25T00:00	3660	656	1.4	-15.4	303	7	
2025-08-25T00:00	3680	655	1.3	-15.0	303	6	
2025-08-25T00:00	3700	653	1.1	-14.9	302	6	
2025-08-25T00:00	3720	652	1.0	-15.1	301	6	
2025-08-25T00:00	3740	650	0.9	-15.7	301	7	
2025-08-25T00:00	3760	648	0.8	-16.6	301	7	
2025-08-25T00:00	3780	647	0.7	-18.1	301	8	
2025-08-25T00:00	3800	645	0.6	-18.6	301	8	
2025-08-25T00:00	3820	644	0.5	-19.0	301	9	
2025-08-25T00:00	3840	642	0.4	-18.7	301	9	
2025-08-25T00:00	3860	640	0.2	-18.2	301	9	
2025-08-25T00:00	3880	639	0.1	-18.1	300	9	
2025-08-25T00:00	3900	637	0.0	-18.0	299	10	
2025-08-25T00:00	3920	636	-0.1	-17.5	298	10	
2025-08-25T00:00	3940	634	-0.3	-18.4	298	10	
2025-08-25T00:00	3960	632	-0.4	-16.9	298	10	
2025-08-25T00:00	3980	631	-0.6	-15.6	299	10	
2025-08-25T00:00	4000	629	-0.7	-15.5	300	10	
2025-08-25T00:00	4020	627	-0.8	-15.5	302	9	
2025-08-25T00:00	4040	626	-0.9	-17.6	304	9	
2025-08-25T00:00	4060	624	-1.0	-18.4	307	8	
2025-08-25T00:00	4080	623	-1.1	-18.3	309	8	
2025-08-25T00:00	4100	621	-1.3	-18.1	310	8	
2025-08-25T00:00	4120	620	-1.4	-17.8	311	8	
2025-08-25T00:00	4140	618	-1.5	-17.8	311	8	
2025-08-25T00:00	4160	617	-1.7	-17.9	311	8	
2025-08-25T00:00	4180	615	-1.8	-18.5	310	9	
2025-08-25T00:00	4200	613	-1.9	-18.1	310	10	
2025-08-25T00:00	4220	612	-1.9	-17.2	309	10	
2025-08-25T00:00	4240	610	-2.0	-15.7	309	10	
2025-08-25T00:00	4260	609	-2.1	-14.6	309	11	
2025-08-25T00:00	4280	607	-2.2	-12.3	309	11	
2025-08-25T00:00	4300	606	-2.3	-11.6	309	11	
2025-08-25T00:00	4320	604	-2.3	-11.9	308	11	
2025-08-25T00:00	4340	603	-2.4	-12.8	308	11	
2025-08-25T00:00	4360	601	-2.5	-12.9	307	11	
2025-08-25T00:00	4380	600	-2.7	-12.8	307	11	
2025-08-25T00:00	4400	598	-2.8	-12.3	307	11	
2025-08-25T00:00	4420	597	-3.0	-12.6	307	11	
2025-08-25T00:00	4440	595	-3.1	-13.0	307	11	
2025-08-25T00:00	4460	594	-3.3	-13.2	307	12	
2025-08-25T00:00	4480	592	-3.4	-13.2	307	12	
2025-08-25T00:00	4500	591	-3.5	-13.3	307	12	
2025-08-25T00:00	4520	589	-3.6	-12.9	305	12	
2025-08-25T00:00	4540	588	-3.8	-12.0	304	12	
2025-08-25T00:00	4560	586	-3.9	-11.3	303	12	
2025-08-25T00:00	4580	585	-4.0	-11.7	300	12	
2025-08-25T00:00	4600	583	-4.1	-12.3	299	11	
2025-08-25T00:00	4620	582	-4.2	-12.6	299	11	
2025-08-25T00:00	4640	580	-4.3	-12.8	299	11	
2025-08-25T00:00	4660	579	-4.5	-12.9	299	11	
2025-08-25T00:00	4680	577	-4.7	-12.8	299	11	
2025-08-25T00:00	4700	576	-4.8	-12.5	299	11	
2025-08-25T00:00	4720	575	-4.9	-12.6	300	12	
2025-08-25T00:00	4740	573	-5.0	-13.1	301	12	
2025-08-25T00:00	4760	571	-5.1	-13.6	302	12	
2025-08-25T00:00	4780	570	-5.2	-13.7	303	12	
2025-08-25T00:00	4800	569	-5.2	-14.2	304	12	
2025-08-25T00:00	4820	567	-5.2	-14.2	304	12	
2025-08-25T00:00	4840	566	-5.3	-14.2	304	12	
2025-08-25T00:00	4860	564	-5.4	-14.0	303	12	
2025-08-25T00:00	4880	563	-5.4	-13.6	302	12	
2025-08-25T00:00	4900	561	-5.5	-13.7	302	13	
2025-08-25T00:00	4920	560	-5.6	-13.3	302	13	
2025-08-25T00:00	4940	558	-5.8	-13.3	302	13	
2025-08-25T00:00	4960	557	-6.0	-13.6	303	13	
2025-08-25T00:00	4980	556	-6.1	-14.2	305	13	
2025-08-25T00:00	5000	554	-6.2	-14.4	307	13	
2025-08-25T00:00	5020	553	-6.4	-14.7	309	13	
2025-08-25T00:00	5040	552	-6.5	-14.9	312	13	
2025-08-25T00:00	5060	550	-6.7	-14.8	314	14	
2025-08-25T00:00	5080	549	-6.9	-14.7	316	14	
2025-08-25T00:00	5100	547	-7.0	-14.7	316	14	
2025-08-25T00:00	5120	546	-7.2	-14.8	317	14	
2025-08-25T00:00	5140	544	-7.4	-14.9	317	15	
2025-08-25T00:00	5160	543	-7.5	-14.9	317	15	
2025-08-25T00:00	5180	542	-7.7	-14.8	317	15	
2025-08-25T00:00	5200	540	-7.8	-14.7	316	15	
2025-08-25T00:00	5220	539	-8.0	-14.8	315	16	
2025-08-25T00:00	5240	538	-8.1	-14.9	314	16	
2025-08-25T00:00	5260	536	-8.3	-15.0	313	16	
2025-08-25T00:00	5280	535	-8.4	-15.2	311	16	
2025-08-25T00:00	5300	533	-8.5	-15.5	309	15	
2025-08-25T00:00	5320	532	-8.6	-15.5	308	15	
2025-08-25T00:00	5340	531	-8.7	-15.8	307	15	
2025-08-25T00:00	5360	529	-8.8	-15.9	306	15	
2025-08-25T00:00	5380	528	-8.9	-16.1	305	16	
2025-08-25T00:00	5400	526	-9.1	-16.3	305	15	
2025-08-25T00:00	5420	525	-9.2	-16.3	306	15	
2025-08-25T00:00	5440	524	-9.3	-16.7	307	15	
2025-08-25T00:00	5460	522	-9.4	-17.9	308	15	
2025-08-25T00:00	5480	521	-9.3	-20.1	309	15	
2025-08-25T00:00	5500	520	-9.4	-21.1	310	15	
2025-08-25T00:00	5520	518	-9.5	-21.0	312	15	
2025-08-25T00:00	5540	517	-9.7	-20.9	313	15	
2025-08-25T00:00	5560	516	-9.8	-21.2	313	15	
2025-08-25T00:00	5580	515	-9.9	-21.7	314	15	
2025-08-25T00:00	5600	513	-10.0	-21.9	314	15	
2025-08-25T00:00	5620	512	-10.1	-22.1	314	15	
2025-08-25T00:00	5640	510	-10.3	-22.2	314	15	
2025-08-25T00:00	5660	509	-10.4	-22.3	315	16	
2025-08-25T00:00	5680	508	-10.5	-22.4	315	16	
2025-08-25T00:00	5700	507	-10.6	-22.7	314	16	
2025-08-25T00:00	5720	505	-10.7	-22.8	314	16	
2025-08-25T00:00	5740	504	-10.9	-22.9	314	16	
2025-08-25T00:00	5760	503	-11.0	-23.0	313	17	
2025-08-25T00:00	5780	501	-11.2	-23.2	313	17	
2025-08-25T00:00	5800	500	-11.3	-23.3	312	17	
2025-08-25T00:00	5820	499	-11.5	-23.5	311	17	
2025-08-25T00:00	5840	497	-11.6	-23.5	310	16	
2025-08-25T00:00	5860	496	-11.8	-23.7	309	16	
2025-08-25T00:00	5880	495	-12.0	-23.9	308	16	
2025-08-25T00:00	5900	493	-12.1	-24.1	307	15	
2025-08-25T00:00	5920	492	-12.3	-24.3	307	15	
2025-08-25T00:00	5940	491	-12.5	-24.5	307	14	
2025-08-25T00:00	5960	490	-12.6	-24.6	307	14	
2025-08-25T00:00	5980	488	-12.7	-24.7	308	14	
2025-08-25T00:00	6000	487	-12.9	-25.0	308	14	
2025-08-25T00:00	6020	486	-13.0	-25.1	309	14	
2025-08-25T00:00	6040	484	-13.1	-25.3	310	14	
2025-08-25T00:00	6060	483	-13.2	-25.5	312	14	
2025-08-25T00:00	6080	482	-13.3	-25.9	314	14	
2025-08-25T00:00	6100	480	-13.3	-26.6	315	14	
2025-08-25T00:00	6120	479	-13.4	-26.7	316	14	
2025-08-25T00:00	6140	478	-13.6	-26.8	317	14	
2025-08-25T00:00	6160	477	-13.7	-26.9	318	14	
2025-08-25T00:00	6180	475	-13.9	-27.0	318	14	
2025-08-25T00:00	6200	474	-14.1	-27.0	319	14	
2025-08-25T00:00	6220	473	-14.2	-27.2	318	14	
2025-08-25T00:00	6240	472	-14.4	-27.2	318	14	
2025-08-25T00:00	6260	471	-14.6	-27.1	317	15	
2025-08-25T00:00	6280	469	-14.7	-27.1	316	15	
2025-08-25T00:00	6300	468	-14.9	-27.2	315	15	
2025-08-25T00:00	6320	467	-15.1	-27.3	314	15	
2025-08-25T00:00	6340	466	-15.2	-27.4	314	16	
2025-08-25T00:00	6360	464	-15.4	-27.4	313	16	
2025-08-25T00:00	6380	463	-15.6	-27.5	313	16	
2025-08-25T00:00	6400	462	-15.8	-27.6	312	16	
2025-08-25T00:00	6420	461	-16.0	-27.6	312	16	
2025-08-25T00:00	6440	459	-16.2	-27.8	311	16	
2025-08-25T00:00	6460	458	-16.2	-27.9	311	16	
2025-08-25T00:00	6480	457	-16.3	-28.2	310	16	
2025-08-25T00:00	6500	456	-16.4	-28.4	310	16	
2025-08-25T00:00	6520	455	-16.6	-28.4	309	16	
2025-08-25T00:00	6540	453	-16.7	-28.3	309	16	
2025-08-25T00:00	6560	452	-16.9	-28.3	309	17	
2025-08-25T00:00	6580	451	-17.0	-27.8	309	17	
2025-08-25T00:00	6600	450	-17.1	-27.6	308	17	
2025-08-25T00:00	6620	449	-17.3	-27.7	308	17	
2025-08-25T00:00	6640	447	-17.5	-27.7	308	17	
2025-08-25T00:00	6660	446	-17.7	-27.6	309	17	
2025-08-25T00:00	6680	445	-17.9	-27.0	309	17	
2025-08-25T00:00	6700	444	-18.0	-26.7	309	17	
2025-08-25T00:00	6720	443	-18.1	-26.5	309	17	
2025-08-25T00:00	6740	441	-18.2	-26.3	310	17	
2025-08-25T00:00	6760	440	-18.4	-26.6	310	17	
2025-08-25T00:00	6780	439	-18.6	-26.8	310	16	
2025-08-25T00:00	6800	438	-18.8	-27.2	310	16	
2025-08-25T00:00	6820	437	-18.9	-27.2	310	16	
2025-08-25T00:00	6840	436	-19.1	-26.9	310	16	
2025-08-25T00:00	6860	434	-19.2	-27.2	311	17	
2025-08-25T00:00	6880	433	-19.3	-27.8	312	17	
2025-08-25T00:00	6900	432	-19.5	-28.1	312	17	
2025-08-25T00:00	6920	431	-19.6	-28.6	313	17	
2025-08-25T00:00	6940	430	-19.7	-29.9	313	16	
2025-08-25T00:00	6960	429	-19.8	-30.3	313	16	
2025-08-25T00:00	6980	427	-20.0	-30.4	313	16	
2025-08-25T00:00	7000	426	-20.2	-30.7	311	15	
2025-08-25T00:00	7020	425	-20.3	-31.0	310	15	
2025-08-25T00:00	7040	424	-20.5	-31.3	309	15	
2025-08-25T00:00	7060	423	-20.6	-30.8	307	15	
2025-08-25T00:00	7080	422	-20.7	-30.5	306	15	
2025-08-25T00:00	7100	421	-20.8	-30.1	305	15	
2025-08-25T00:00	7120	420	-20.9	-29.4	304	15	
2025-08-25T00:00	7140	418	-21.1	-28.9	304	16	
2025-08-25T00:00	7160	417	-21.2	-28.4	304	16	
2025-08-25T00:00	7180	416	-21.4	-27.7	305	16	
2025-08-25T00:00	7200	415	-21.6	-27.4	305	17	
2025-08-25T00:00	7220	414	-21.7	-27.3	305	17	
2025-08-25T00:00	7240	413	-21.9	-27.8	306	18	
2025-08-25T00:00	7260	412	-22.0	-28.4	306	18	
2025-08-25T00:00	7280	411	-22.0	-28.6	307	18	
2025-08-25T00:00	7300	409	-22.1	-28.3	308	18	
2025-08-25T00:00	7320	408	-22.3	-27.5	308	18	
2025-08-25T00:00	7340	407	-22.4	-27.6	309	18	
2025-08-25T00:00	7360	406	-22.3	-27.9	309	18	
2025-08-25T00:00	7380	405	-22.3	-28.0	309	18	
2025-08-25T00:00	7400	404	-22.4	-28.0	309	19	
2025-08-25T00:00	7420	403	-22.6	-27.9	309	19	
2025-08-25T00:00	7440	402	-22.7	-28.0	309	19	
2025-08-25T00:00	7460	400	-22.8	-28.2	308	19	
2025-08-25T00:00	7480	399	-22.9	-28.4	308	18	
2025-08-25T00:00	7500	398	-22.9	-28.2	307	18	
2025-08-25T00:00	7520	397	-23.0	-28.4	307	18	
2025-08-25T00:00	7540	396	-23.1	-28.4	307	17	
2025-08-25T00:00	7560	395	-23.3	-27.9	307	17	
2025-08-25T00:00	7580	394	-23.4	-27.9	307	16	
2025-08-25T00:00	7600	393	-23.4	-29.0	307	16	
2025-08-25T00:00	7620	392	-23.5	-30.7	307	15	
2025-08-25T00:00	7640	391	-23.5	-32.0	307	15	
2025-08-25T00:00	7660	390	-23.6	-32.4	307	14	
2025-08-25T00:00	7680	389	-23.7	-33.1	307	14	
2025-08-25T00:00	7700	388	-23.8	-34.0	307	14	
2025-08-25T00:00	7720	386	-24.0	-35.1	307	14	
2025-08-25T00:00	7740	385	-24.1	-36.4	307	14	
2025-08-25T00:00	7760	384	-24.2	-37.0	307	14	
2025-08-25T00:00	7780	383	-24.4	-37.4	307	14	
2025-08-25T00:00	7800	382	-24.5	-37.9	307	15	
2025-08-25T00:00	7820	381	-24.7	-37.9	307	15	
2025-08-25T00:00	7840	380	-24.8	-38.3	308	15	
2025-08-25T00:00	7860	379	-25.0	-38.9	308	16	
2025-08-25T00:00	7880	378	-25.1	-38.5	309	16	
2025-08-25T00:00	7900	377	-25.2	-38.0	309	16	
2025-08-25T00:00	7920	376	-25.4	-37.4	310	17	
2025-08-25T00:00	7940	375	-25.6	-36.5	311	17	
2025-08-25T00:00	7960	374	-25.8	-36.2	312	17	
2025-08-25T00:00	7980	373	-25.9	-36.0	313	18	
2025-08-25T00:00	8000	372	-26.1	-36.2	314	18	
2025-08-25T00:00	8020	371	-26.2	-35.8	314	18	
2025-08-25T00:00	8040	370	-26.3	-35.2	314	18	
2025-08-25T00:00	8060	369	-26.5	-34.6	313	18	
2025-08-25T00:00	8080	368	-26.7	-33.7	313	18	
2025-08-25T00:00	8100	367	-26.8	-33.1	312	18	
2025-08-25T00:00	8120	366	-27.0	-33.1	312	18	
2025-08-25T00:00	8140	365	-27.1	-33.7	312	18	
2025-08-25T00:00	8160	364	-27.2	-36.4	312	19	
2025-08-25T00:00	8180	363	-27.3	-36.4	312	19	
2025-08-25T00:00	8200	362	-27.4	-35.1	312	19	
2025-08-25T00:00	8220	361	-27.6	-35.0	311	19	
2025-08-25T00:00	8240	360	-27.7	-34.8	311	19	
2025-08-25T00:00	8260	359	-27.8	-33.8	310	19	
2025-08-25T00:00	8280	358	-27.9	-34.3	309	19	
2025-08-25T00:00	8300	357	-28.1	-34.5	308	19	
2025-08-25T00:00	8320	356	-28.2	-34.6	308	19	
2025-08-25T00:00	8340	355	-28.4	-34.8	307	19	
2025-08-25T00:00	8360	354	-28.6	-34.9	307	19	
2025-08-25T00:00	8380	353	-28.7	-35.2	307	19	
2025-08-25T00:00	8400	352	-28.9	-35.4	307	19	
2025-08-25T00:00	8420	351	-29.0	-35.4	307	19	
2025-08-25T00:00	8440	350	-29.2	-35.5	307	19	
2025-08-25T00:00	8460	349	-29.4	-35.4	307	19	
2025-08-25T00:00	8480	348	-29.6	-35.4	307	19	
2025-08-25T00:00	8500	347	-29.8	-35.5	307	19	
2025-08-25T00:00	8520	346	-29.9	-35.8	307	19	
2025-08-25T00:00	8540	345	-30.0	-36.9	307	20	
2025-08-25T00:00	8560	344	-30.1	-37.5	307	20	
2025-08-25T00:00	8580	343	-30.3	-37.9	307	20	
2025-08-25T00:00	8600	342	-30.4	-38.1	307	20	
2025-08-25T00:00	8620	341	-30.5	-38.7	308	20	
2025-08-25T00:00	8640	340	-30.7	-39.3	307	20	
2025-08-25T00:00	8660	339	-30.8	-39.6	307	20	
2025-08-25T00:00	8680	338	-31.0	-39.2	307	20	
2025-08-25T00:00	8700	337	-31.1	-39.2	306	19	
2025-08-25T00:00	8720	336	-31.2	-39.3	306	19	
2025-08-25T00:00	8740	335	-31.4	-39.5	306	19	
2025-08-25T00:00	8760	334	-31.5	-39.8	306	19	
2025-08-25T00:00	8780	334	-31.7	-39.8	306	19	
2025-08-25T00:00	8800	333	-31.9	-39.9	306	19	
2025-08-25T00:00	8820	332	-32.0	-40.1	306	20	
2025-08-25T00:00	8840	331	-32.2	-40.9	306	20	
2025-08-25T00:00	8860	330	-32.4	-41.5	306	20	
2025-08-25T00:00	8880	329	-32.5	-41.8	306	20	
2025-08-25T00:00	8900	328	-32.7	-41.9	306	21	
2025-08-25T00:00	8920	327	-32.8	-41.7	306	21	
2025-08-25T00:00	8940	326	-33.0	-41.2	305	21	
2025-08-25T00:00	8960	325	-33.2	-40.8	304	21	
2025-08-25T00:00	8980	324	-33.4	-40.8	304	21	
2025-08-25T00:00	9000	323	-33.5	-41.5	304	21	
2025-08-25T00:00	9020	322	-33.6	-42.3	303	21	
2025-08-25T00:00	9040	321	-33.7	-42.0	304	20	
2025-08-25T00:00	9060	320	-33.9	-41.2	304	20	
2025-08-25T00:00	9080	320	-34.1	-41.3	304	20	
2025-08-25T00:00	9100	319	-34.2	-41.9	305	20	
2025-08-25T00:00	9120	318	-34.3	-42.1	305	20	
2025-08-25T00:00	9140	317	-34.5	-41.8	306	20	
2025-08-25T00:00	9160	316	-34.7	-41.7	306	20	
2025-08-25T00:00	9180	315	-34.8	-41.7	306	20	
2025-08-25T00:00	9200	314	-35.0	-41.6	306	20	
2025-08-25T00:00	9220	313	-35.2	-41.7	306	21	
2025-08-25T00:00	9240	312	-35.4	-42.4	306	21	
2025-08-25T00:00	9260	311	-35.5	-44.0	306	21	
2025-08-25T00:00	9280	311	-35.6	-45.1	306	21	
2025-08-25T00:00	9300	310	-35.8	-45.2	306	21	
2025-08-25T00:00	9320	309	-36.0	-45.2	306	21	
2025-08-25T00:00	9340	308	-36.1	-45.1	307	21	
2025-08-25T00:00	9360	307	-36.3	-44.7	307	22	
2025-08-25T00:00	9380	306	-36.5	-44.4	307	22	
2025-08-25T00:00	9400	305	-36.7	-43.0	307	22	
2025-08-25T00:00	9420	304	-36.8	-41.9	307	22	
2025-08-25T00:00	9440	303	-37.0	-41.9	307	22	
2025-08-25T00:00	9460	303	-37.1	-42.2	307	22	
2025-08-25T00:00	9480	302	-37.3	-42.8	307	22	
2025-08-25T00:00	9500	301	-37.4	-43.0	307	23	
2025-08-25T00:00	9520	300	-37.6	-43.0	307	23	
2025-08-25T00:00	9540	299	-37.7	-43.5	307	23	
2025-08-25T00:00	9560	298	-37.9	-44.2	307	24	
2025-08-25T00:00	9580	297	-38.1	-44.1	306	24	
2025-08-25T00:00	9600	296	-38.3	-45.5	306	25	
2025-08-25T00:00	9620	296	-38.4	-50.5	306	25	
2025-08-25T00:00	9640	295	-38.5	-56.1	307	25	
2025-08-25T00:00	9660	294	-38.7	-60.0	307	25	
2025-08-25T00:00	9680	293	-38.8	-60.8	307	25	
2025-08-25T00:00	9700	292	-39.0	-60.0	307	25	
2025-08-25T00:00	9720	291	-39.2	-59.7	308	25	
2025-08-25T00:00	9740	291	-39.4	-59.7	308	25	
2025-08-25T00:00	9760	290	-39.6	-59.8	308	24	
2025-08-25T00:00	9780	289	-39.8	-59.6	308	24	
2025-08-25T00:00	9800	288	-40.0	-59.6	308	24	
2025-08-25T00:00	9820	287	-40.2	-59.6	308	24	
2025-08-25T00:00	9840	286	-40.3	-59.8	308	24	
2025-08-25T00:00	9860	285	-40.5	-58.6	308	24	
2025-08-25T00:00	9880	285	-40.6	-56.7	308	24	
2025-08-25T00:00	9900	284	-40.8	-55.9	308	24	
2025-08-25T00:00	9920	283	-41.0	-53.6	307	24	
2025-08-25T00:00	9940	282	-41.2	-51.0	307	24	
2025-08-25T00:00	9960	281	-41.3	-47.7	306	24	
2025-08-25T00:00	9980	281	-41.5	-45.4	306	24	
2025-08-25T00:00	10000	280	-41.7	-45.4	305	23	
2025-08-25T00:00	10018	279	-41.8	-46.1	305	23	
2025-08-25T00:00	10050	278	-42.1	-46.6	305	23	
2025-08-25T00:00	10100	276	-42.5	-46.6	305	23	
2025-08-25T00:00	10150	273	-43.0	-46.3	305	23	
2025-08-25T00:00	10200	271	-43.3	-47.3	306	23	
2025-08-25T00:00	10250	269	-43.7	-48.1	307	22	
2025-08-25T00:00	10300	267	-44.1	-48.7	308	22	
2025-08-25T00:00	10350	265	-44.4	-49.4	308	22	
2025-08-25T00:00	10400	264	-44.8	-49.9	307	22	
2025-08-25T00:00	10450	262	-45.3	-50.0	307	22	
2025-08-25T00:00	10500	260	-45.7	-50.9	307	22	
2025-08-25T00:00	10550	258	-46.2	-51.2	307	22	
2025-08-25T00:00	10600	256	-46.6	-51.4	306	22	
2025-08-25T00:00	10650	254	-47.0	-51.5	306	22	
2025-08-25T00:00	10700	252	-47.4	-52.0	307	22	
2025-08-25T00:00	10750	250	-47.8	-52.4	307	22	
2025-08-25T00:00	10800	248	-48.2	-52.9	307	22	
2025-08-25T00:00	10850	246	-48.7	-53.1	307	23	
2025-08-25T00:00	10900	244	-49.1	-53.9	307	23	
2025-08-25T00:00	10950	242	-49.5	-54.1	308	23	
2025-08-25T00:00	11000	241	-49.9	-54.5	309	23	
2025-08-25T00:00	11050	239	-50.3	-55.0	309	23	
2025-08-25T00:00	11100	237	-50.7	-56.8	309	23	
2025-08-25T00:00	11150	235	-51.0	-60.0	309	23	
2025-08-25T00:00	11200	233	-51.4	-58.9	308	23	
2025-08-25T00:00	11250	232	-51.8	-57.6	307	23	
2025-08-25T00:00	11300	230	-52.1	-58.2	308	23	
2025-08-25T00:00	11350	228	-52.5	-60.3	308	23	
2025-08-25T00:00	11400	226	-52.9	-62.3	308	23	
2025-08-25T00:00	11450	224	-53.3	-63.3	308	23	
2025-08-25T00:00	11500	223	-53.6	-62.5	308	22	
2025-08-25T00:00	11550	221	-54.0	-61.1	308	22	
2025-08-25T00:00	11600	219	-54.5	-60.1	308	22	
2025-08-25T00:00	11650	218	-54.9	-60.7	307	22	
2025-08-25T00:00	11700	216	-55.4	-61.2	307	22	
2025-08-25T00:00	11750	214	-55.8	-61.3	306	22	
2025-08-25T00:00	11800	213	-56.1	-63.1	305	22	
2025-08-25T00:00	11850	211	-56.5	-65.2	305	22	
2025-08-25T00:00	11900	209	-56.9	-65.6	306	22	
2025-08-25T00:00	11950	208	-57.3	-65.3	307	22	
2025-08-25T00:00	12000	206	-57.6	-64.3	308	22	
2025-08-25T00:00	12050	204	-57.9	-63.8	307	22	
2025-08-25T00:00	12100	203	-58.4	-63.9	306	21	
2025-08-25T00:00	12150	201	-58.7	-64.5	305	21	
2025-08-25T00:00	12200	200	-58.9	-65.4	304	20	
2025-08-25T00:00	12250	198	-59.1	-66.1	303	20	
2025-08-25T00:00	12300	196	-59.4	-66.2	303	21	
2025-08-25T00:00	12350	195	-59.9	-66.1	302	21	
2025-08-25T00:00	12400	193	-60.2	-66.4	301	22	
2025-08-25T00:00	12450	192	-60.2	-66.6	300	22	
2025-08-25T00:00	12500	190	-60.4	-66.6	300	22	
2025-08-25T00:00	12550	189	-60.7	-66.7	300	23	
2025-08-25T00:00	12600	187	-60.8	-66.9	301	23	
2025-08-25T00:00	12650	186	-60.4	-67.1	302	24	
2025-08-25T00:00	12700	184	-60.4	-67.9	302	24	
2025-08-25T00:00	12750	183	-60.1	-68.5	302	23	
2025-08-25T00:00	12800	181	-60.5	-69.3	301	21	
2025-08-25T00:00	12850	180	-60.6	-70.4	299	20	
2025-08-25T00:00	12900	178	-60.3	-72.7	295	20	
2025-08-25T00:00	12950	177	-59.7	-74.0	293	21	
2025-08-25T00:00	13000	175	-59.6	-73.6	291	23	
2025-08-25T00:00	13050	174	-59.3	-72.5	287	24	
2025-08-25T00:00	13100	173	-58.9	-71.7	285	24	
2025-08-25T00:00	13150	171	-58.8	-71.6	287	24	
2025-08-25T00:00	13200	170	-58.6	-71.9	290	24	
2025-08-25T00:00	13250	169	-58.7	-73.2	292	23	
2025-08-25T00:00	13300	167	-58.6	-75.3	292	22	
2025-08-25T00:00	13350	166	-58.3	-75.6	291	21	
2025-08-25T00:00	13400	165	-58.4	-75.2	290	21	
2025-08-25T00:00	13450	163	-58.4	-73.9	288	22	
2025-08-25T00:00	13500	162	-58.0	-72.7	289	22	
2025-08-25T00:00	13550	161	-57.5	-72.3	291	22	
2025-08-25T00:00	13600	160	-57.6	-72.6	293	21	
2025-08-25T00:00	13650	158	-57.8	-73.2	296	21	
2025-08-25T00:00	13700	157	-57.8	-74.6	298	19	
2025-08-25T00:00	13750	156	-57.4	-78.0	297	19	
2025-08-25T00:00	13800	155	-57.6	-79.2	294	18	
2025-08-25T00:00	13850	153	-57.6	-79.8	291	19	
2025-08-25T00:00	13900	152	-57.5	-80.2	288	19	
2025-08-25T00:00	13950	151	-57.6	-79.9	285	19	
2025-08-25T00:00	14000	150	-57.8	-79.8	282	19	
2025-08-25T00:00	14050	149	-58.0	-79.8	282	20	
2025-08-25T00:00	14100	147	-58.0	-79.3	282	20	
2025-08-25T00:00	14150	146	-57.8	-78.7	284	20	
2025-08-25T00:00	14200	145	-57.6	-78.8	288	19	
2025-08-25T00:00	14250	144	-57.2	-79.0	291	19	
2025-08-25T00:00	14300	143	-57.3	-79.2	294	18	
2025-08-25T00:00	14350	142	-57.7	-79.3	294	19	
2025-08-25T00:00	14400	140	-57.9	-79.4	294	19	
2025-08-25T00:00	14450	139	-58.2	-79.5	295	19	
2025-08-25T00:00	14500	138	-58.3	-79.6	298	19	
2025-08-25T00:00	14550	137	-58.5	-79.8	302	19	
2025-08-25T00:00	14600	136	-58.4	-80.1	306	19	
2025-08-25T00:00	14650	135	-58.0	-80.3	307	19	
2025-08-25T00:00	14700	134	-58.1	-80.5	307	17	
2025-08-25T00:00	14750	133	-58.3	-80.7	307	16	
2025-08-25T00:00	14800	132	-58.0	-80.8	305	14	
2025-08-25T00:00	14850	131	-58.1	-81.1	303	14	
2025-08-25T00:00	14900	130	-57.9	-81.4	305	14	
2025-08-25T00:00	14950	129	-58.0	-81.8	308	14	
2025-08-25T00:00	15000	128	-58.1	-82.0	308	14	
2025-08-25T00:00	15050	127	-58.1	-82.2	304	14	
2025-08-25T00:00	15100	126	-58.3	-82.3	299	13	
2025-08-25T00:00	15150	125	-58.4	-82.4	295	14	
2025-08-25T00:00	15200	124	-58.7	-82.5	292	14	
2025-08-25T00:00	15250	123	-58.9	-82.5	290	14	
2025-08-25T00:00	15300	122	-59.3	-82.7	288	15	
2025-08-25T00:00	15350	121	-59.5	-82.8	284	17	
2025-08-25T00:00	15400	120	-59.3	-83.0	284	18	
2025-08-25T00:00	15450	119	-58.6	-82.9	287	19	
2025-08-25T00:00	15500	118	-58.4	-83.0	292	20	
2025-08-25T00:00	15550	117	-58.3	-83.2	297	20	
2025-08-25T00:00	15600	116	-58.1	-83.1	302	19	
2025-08-25T00:00	15650	115	-58.2	-83.2	306	18	
2025-08-25T00:00	15700	114	-58.3	-83.3	307	17	
2025-08-25T00:00	15750	113	-58.5	-83.4	307	17	
2025-08-25T00:00	15800	112	-58.3	-83.5	306	16	
2025-08-25T00:00	15850	112	-58.4	-83.5	306	16	
2025-08-25T00:00	15900	111	-58.5	-83.6	306	15	
2025-08-25T00:00	15950	110	-58.5	-83.7	303	15	
2025-08-25T00:00	16000	109	-58.4	-83.8	300	15	
2025-08-25T00:00	16050	108	-58.3	-83.8	299	16	
2025-08-25T00:00	16100	107	-58.5	-83.8	300	16	
2025-08-25T00:00	16150	106	-58.8	-83.8	302	17	
2025-08-25T00:00	16200	106	-59.0	-84.0	303	18	
2025-08-25T00:00	16250	105	-58.9	-84.1	306	18	
2025-08-25T00:00	16300	104	-58.9	-84.1	308	18	
2025-08-25T00:00	16350	103	-59.0	-84.2	309	16	
2025-08-25T00:00	16400	102	-59.2	-84.4	307	15	
2025-08-25T00:00	16450	101	-59.1	-84.4	305	14	
2025-08-25T00:00	16500	101	-58.7	-84.3	306	14	
2025-08-25T00:00	16550	100	-58.4	-84.2	306	14	
2025-08-25T00:00	16600	99	-58.4	-84.2	303	14	
2025-08-25T00:00	16650	98	-58.5	-84.1	299	14	
2025-08-25T00:00	16700	97	-58.3	-84.2	299	14	
2025-08-25T00:00	16750	97	-57.8	-84.2	302	13	
2025-08-25T00:00	16800	96	-58.0	-84.4	305	12	
2025-08-25T00:00	16850	95	-58.0	-84.3	304	11	
2025-08-25T00:00	16900	94	-58.1	-84.4	300	11	
2025-08-25T00:00	16950	94	-58.4	-84.5	297	11	
2025-08-25T00:00	17000	93	-58.2	-84.6	297	12	
2025-08-25T00:00	17050	92	-58.1	-84.6	299	12	
2025-08-25T00:00	17100	91	-57.9	-84.6	301	12	
2025-08-25T00:00	17150	91	-58.0	-84.6	303	11	
2025-08-25T00:00	17200	90	-58.0	-84.6	303	11	
2025-08-25T00:00	17250	89	-58.1	-84.6	302	12	
2025-08-25T00:00	17300	89	-58.3	-84.7	303	13	
2025-08-25T00:00	17350	88	-58.2	-84.7	306	13	
2025-08-25T00:00	17400	87	-58.2	-84.8	308	13	
2025-08-25T00:00	17450	86	-58.1	-84.8	309	13	
2025-08-25T00:00	17500	86	-58.2	-84.8	307	13	
2025-08-25T00:00	17550	85	-58.2	-84.9	305	13	
2025-08-25T00:00	17600	84	-58.0	-84.9	305	13	
2025-08-25T00:00	17650	84	-57.7	-84.9	309	13	
2025-08-25T00:00	17700	83	-57.6	-84.9	313	14	
2025-08-25T00:00	17750	82	-57.3	-84.7	316	13	
2025-08-25T00:00	17800	82	-57.2	-84.6	318	13	
2025-08-25T00:00	17850	81	-57.3	-84.6	321	13	
2025-08-25T00:00	17900	81	-57.4	-84.6	324	13	
2025-08-25T00:00	17950	80	-57.6	-84.7	323	13	
2025-08-25T00:00	18000	79	-57.8	-84.8	319	12	
2025-08-25T00:00	18050	79	-57.6	-84.8	314	10	
2025-08-25T00:00	18100	78	-57.6	-84.9	312	10	
2025-08-25T00:00	18150	77	-57.5	-84.9	313	10	
2025-08-25T00:00	18200	77	-57.2	-84.7	316	10	
2025-08-25T00:00	18250	76	-57.2	-84.8	317	10	
2025-08-25T00:00	18300	76	-57.2	-84.8	316	9	
2025-08-25T00:00	18350	75	-57.0	-84.7	312	9	
2025-08-25T00:00	18400	74	-56.7	-84.6	309	9	
2025-08-25T00:00	18450	74	-56.7	-84.6	311	8	
2025-08-25T00:00	18500	73	-56.6	-84.5	313	8	
2025-08-25T00:00	18550	73	-56.7	-84.5	306	7	
2025-08-25T00:00	18600	72	-56.6	-84.6	294	8	
2025-08-25T00:00	18650	72	-56.6	-84.6	289	8	
2025-08-25T00:00	18700	71	-56.3	-84.5	290	9	
2025-08-25T00:00	18750	70	-56.2	-84.4	294	9	
2025-08-25T00:00	18800	70	-56.2	-84.5	300	9	
2025-08-25T00:00	18850	69	-56.1	-84.4	309	8	
2025-08-25T00:00	18900	69	-56.1	-84.4	317	8	
2025-08-25T00:00	18950	68	-56.1	-84.4	317	7	
2025-08-25T00:00	19000	68	-56.3	-84.4	310	7	
2025-08-25T00:00	19050	67	-56.4	-84.4	302	7	
2025-08-25T00:00	19100	67	-56.6	-84.4	299	8	
2025-08-25T00:00	19150	66	-56.8	-84.7	301	8	
2025-08-25T00:00	19200	66	-56.2	-84.6	306	9	
2025-08-25T00:00	19250	65	-55.8	-84.6	311	8	
2025-08-25T00:00	19300	65	-55.6	-84.6	317	8	
2025-08-25T00:00	19350	64	-55.3	-84.3	323	8	
2025-08-25T00:00	19400	64	-55.3	-84.2	329	8	
2025-08-25T00:00	19450	63	-55.1	-84.1	333	7	
2025-08-25T00:00	19500	63	-55.1	-84.1	333	5	
2025-08-25T00:00	19550	62	-55.0	-84.1	328	5	
2025-08-25T00:00	19600	62	-55.0	-84.2	319	4	
2025-08-25T00:00	19650	61	-54.8	-84.0	303	4	
2025-08-25T00:00	19700	61	-54.5	-83.9	273	4	
2025-08-25T00:00	19750	60	-54.4	-83.9	245	5	
2025-08-25T00:00	19800	60	-54.5	-83.9	232	6	
2025-08-25T00:00	19850	59	-54.3	-83.7	226	6	
2025-08-25T00:00	19900	59	-54.4	-83.7	226	6	
2025-08-25T00:00	19950	58	-54.8	-83.7	231	6	
2025-08-25T00:00	20000	58	-55.2	-83.9	244	5	
2025-08-25T00:00	20050	57	-55.5		263	4	
2025-08-25T00:00	20100	57	-55.5		278	4	
2025-08-25T00:00	20150	57	-55.5		279	4	
2025-08-25T00:00	20200	56	-55.3		277	5	
2025-08-25T00:00	20250	56	-55.4		279	6	
2025-08-25T00:00	20300	55	-55.4		282	7	
2025-08-25T00:00	20350	55	-55.6		284	7	
2025-08-25T00:00	20400	54	-55.6		286	6	
2025-08-25T00:00	20450	54	-55.6		283	5	
2025-08-25T00:00	20500	53	-55.2		279	4	
2025-08-25T00:00	20550	53	-55.1		282	5	
2025-08-25T00:00	20600	53	-55.1		291	6	
2025-08-25T00:00	20650	52	-54.9		298	7	
2025-08-25T00:00	20700	52	-55.1		303	9	
2025-08-25T00:00	20750	51	-54.9		309	10	
2025-08-25T00:00	20800	51	-55.0		316	10	
2025-08-25T00:00	20850	51	-54.6		321	9	
2025-08-25T00:00	20900	50	-54.3		325	8	
2025-08-25T00:00	20950	50	-54.1		327	8	
2025-08-25T00:00	21000	49	-54.2		327	7	
2025-08-25T00:00	21050	49	-54.3		326	6	
2025-08-25T00:00	21100	49	-54.1		325	6	
2025-08-25T00:00	21150	48	-54.0		325	6	
2025-08-25T00:00	21200	48	-53.7		322	6	
2025-08-25T00:00	21250	48	-53.2		320	6	
2025-08-25T00:00	21300	47	-53.1		321	6	
2025-08-25T00:00	21350	47	-53.1		326	7	
2025-08-25T00:00	21400	46	-52.9		331	8	
2025-08-25T00:00	21450	46	-52.9		337	8	
2025-08-25T00:00	21500	46	-52.9		345	7	
2025-08-25T00:00	21550	45	-52.6		353	7	
2025-08-25T00:00	21600	45	-52.6		1	7	
2025-08-25T00:00	21650	45	-52.3		7	6	
2025-08-25T00:00	21700	44	-52.5		13	5	
2025-08-25T00:00	21750	44	-52.9		19	5	
2025-08-25T00:00	21800	44	-53.3		26	4	
2025-08-25T00:00	21850	43	-53.5		36	3	
2025-08-25T00:00	21900	43	-53.9		44	2	
2025-08-25T00:00	21950	43	-54.3		53	1	
2025-08-25T00:00	22000	42	-54.6		241	1	
2025-08-25T00:00	22050	42	-54.9		253	1	
2025-08-25T00:00	22100	42	-54.4		270	1	
2025-08-25T00:00	22150	41	-53.4		68	1	
2025-08-25T00:00	22200	41	-53.2		82	2	
2025-08-25T00:00	22250	41	-52.3		93	2	
2025-08-25T00:00	22300	40	-51.5		104	2	
2025-08-25T00:00	22350	40	-51.4		101	1	
2025-08-25T00:00	22400	40	-51.0		96	1	
2025-08-25T00:00	22450	40	-51.0		146	0	
2025-08-25T00:00	22500	39	-50.8		193	1	
2025-08-25T00:00	22550	39	-50.9		207	2	
2025-08-25T00:00	22600	39	-50.9		206	3	
2025-08-25T00:00	22650	38	-50.7		201	4	
2025-08-25T00:00	22700	38	-51.0		199	6	
2025-08-25T00:00	22750	38	-51.4		200	7	
2025-08-25T00:00	22800	37	-51.6		202	8	
2025-08-25T00:00	22850	37	-51.7		204	8	
2025-08-25T00:00	22900	37	-51.7		206	7	
2025-08-25T00:00	22950	37	-51.6		209	6	
2025-08-25T00:00	23000	36	-51.3		210	5	
2025-08-25T00:00	23050	36	-51.5		209	4	
2025-08-25T00:00	23100	36	-51.7		215	3	
2025-08-25T00:00	23150	35	-51.9		232	2	
2025-08-25T00:00	23200	35	-52.2		250	2	
2025-08-25T00:00	23250	35	-52.4		253	2	
2025-08-25T00:00	23300	35	-52.5		251	2	
2025-08-25T00:00	23350	34	-52.5		253	2	
2025-08-25T00:00	23400	34	-52.3		235	1	
2025-08-25T00:00	23450	34	-51.9		140	1	
2025-08-25T00:00	23500	34	-51.3		123	2	
2025-08-25T00:00	23550	33	-50.9		112	2	
2025-08-25T00:00	23600	33	-50.7		104	3	
2025-08-25T00:00	23650	33	-50.2		107	3	
2025-08-25T00:00	23700	33	-50.1		120	4	
2025-08-25T00:00	23750	32	-49.8		136	4	
2025-08-25T00:00	23800	32	-49.3		145	4	
2025-08-25T00:00	23850	32	-48.8		142	4	
2025-08-25T00:00	23900	32	-48.6		137	4	
2025-08-25T00:00	23950	31	-48.8		141	4	
2025-08-25T00:00	24000	31	-49.1		152	3	
2025-08-25T00:00	24050	31	-49.5		165	3	
2025-08-25T00:00	24100	31	-49.8		183	3	
2025-08-25T00:00	24150	30	-49.8		206	3	
2025-08-25T00:00	24200	30	-49.9		220	2	
2025-08-25T00:00	24250	30	-50.2		215	2	
2025-08-25T00:00	24300	30	-50.1		155	1	
2025-08-25T00:00	24350	29	-49.8		110	2	
2025-08-25T00:00	24400	29	-49.8		102	2	
2025-08-25T00:00	24450	29	-49.9		107	3	
2025-08-25T00:00	24500	29	-49.6		113	4	
2025-08-25T00:00	24550	29	-49.7		117	4	
2025-08-25T00:00	24600	28	-49.8		118	4	
2025-08-25T00:00	24650	28	-49.9		125	3	
2025-08-25T00:00	24700	28	-49.9		139	2	
2025-08-25T00:00	24750	28	-49.9		144	2	
2025-08-25T00:00	24800	28	-49.4		111	1	
2025-08-25T00:00	24850	27	-49.1		74	2	
2025-08-25T00:00	24900	27	-49.1		68	4	
2025-08-25T00:00	24950	27	-48.9		74	6	
2025-08-25T00:00	25000	27	-48.2		83	7	
2025-08-25T00:00	25050	27	-48.2		92	8	
2025-08-25T00:00	25100	26	-48.2		101	9	
2025-08-25T00:00	25150	26	-48.3		108	9	
2025-08-25T00:00	25200	26	-48.3		113	9	
2025-08-25T00:00	25250	26	-48.5		116	9	
2025-08-25T00:00	25300	26	-48.8		121	8	
2025-08-25T00:00	25350	25	-49.1		126	7	
2025-08-25T00:00	25400	25	-49.2		129	6	
2025-08-25T00:00	25450	25	-49.5		129	6	
2025-08-25T00:00	25500	25	-49.5		127	5	
2025-08-25T00:00	25550	25	-49.2		123	5	
2025-08-25T00:00	25600	24	-49.2		123	4	
2025-08-25T00:00	25650	24	-49.3		128	4	
2025-08-25T00:00	25700	24	-49.4		139	4	
2025-08-25T00:00	25750	24	-49.3		148	5	
2025-08-25T00:00	25800	24	-49.2		153	5	
2025-08-25T00:00	25850	23	-49.3		153	5	
2025-08-25T00:00	25900	23	-49.6		144	5	
2025-08-25T00:00	25950	23	-49.3		126	4	
2025-08-25T00:00	26000	23	-49.3		106	4	
2025-08-25T00:00	26050	23	-49.0		89	3	
2025-08-25T00:00	26100	23	-48.6		70	2	
2025-08-25T00:00	26150	22	-48.3		23	1	
2025-08-25T00:00	26200	22	-48.2		317	2	
2025-08-25T00:00	26250	22	-48.2		299	3	
2025-08-25T00:00	26300	22	-48.3		296	4	
2025-08-25T00:00	26350	22	-48.5		301	4	
2025-08-25T00:00	26400	22	-48.3		315	4	
2025-08-25T00:00	26450	21	-48.0		340	3	
2025-08-25T00:00	26500	21	-47.8		6	4	
2025-08-25T00:00	26550	21	-47.6		26	4	
2025-08-25T00:00	26600	21	-47.4		42	4	
2025-08-25T00:00	26650	21	-47.2		53	4	
2025-08-25T00:00	26700	21	-47.2		56	3	
2025-08-25T00:00	26750	20	-47.0		38	2	
2025-08-25T00:00	26800	20	-46.7		7	2	
2025-08-25T00:00	26850	20	-46.6		354	3	
2025-08-25T00:00	26900	20	-46.6		350	4	
2025-08-25T00:00	26950	20	-46.5		348	5	
2025-08-25T00:00	27000	20	-46.3		349	5	
2025-08-25T00:00	27050	20	-45.9		352	6	
2025-08-25T00:00	27100	19	-45.7		359	6	
2025-08-25T00:00	27150	19	-45.6		6	7	
2025-08-25T00:00	27200	19	-45.3		13	8	
2025-08-25T00:00	27250	19	-45.1		18	9	
2025-08-25T00:00	27300	19	-45.1		24	9	
2025-08-25T00:00	27350	19	-45.3		32	9	
2025-08-25T00:00	27400	19	-45.4		44	9	
2025-08-25T00:00	27450	18	-45.1		56	9	
2025-08-25T00:00	27500	18	-45.0		68	9	
2025-08-25T00:00	27550	18	-45.2		78	9	
2025-08-25T00:00	27600	18	-45.6		86	10	
2025-08-25T00:00	27650	18	-45.7		89	10	
2025-08-25T00:00	27700	18	-45.2		90	10	
2025-08-25T00:00	27750	18	-45.0		93	10	
2025-08-25T00:00	27800	17	-44.8		99	11	
2025-08-25T00:00	27850	17	-45.1		105	11	
2025-08-25T00:00	27900	17	-45.3		110	11	
2025-08-25T00:00	27950	17	-45.4		114	10	
2025-08-25T00:00	28000	17	-45.5		118	9	
2025-08-25T00:00	28050	17	-45.6		124	8	
2025-08-25T00:00	28100	17	-45.9		127	7	
2025-08-25T00:00	28150	17	-46.0		122	6	
2025-08-25T00:00	28200	16	-45.7		106	4	
2025-08-25T00:00	28250	16	-45.5		83	4	
2025-08-25T00:00	28300	16	-45.1		64	4	
2025-08-25T00:00	28350	16	-44.8		56	5	
2025-08-25T00:00	28400	16	-44.5		55	5	
2025-08-25T00:00	28450	16	-44.3		60	6	
2025-08-25T00:00	28500	16	-44.0		69	7	
2025-08-25T00:00	28550	16	-43.8		77	8	
2025-08-25T00:00	28600	16	-43.6		84	8	
2025-08-25T00:00	28650	15	-43.6		90	7	
2025-08-25T00:00	28700	15	-43.6		95	7	
2025-08-25T00:00	28750	15	-43.4		98	6	
2025-08-25T00:00	28800	15	-43.3		95	6	
2025-08-25T00:00	28850	15	-43.3		86	6	
2025-08-25T00:00	28900	15	-43.6		79	7	
2025-08-25T00:00	28950	15	-43.8		79	7	
2025-08-25T00:00	29000	15	-43.9		86	7	
2025-08-25T00:00	29050	14	-43.9		94	6	
2025-08-25T00:00	29100	14	-44.1		99	6	
2025-08-25T00:00	29150	14	-44.4		100	7	
2025-08-25T00:00	29200	14	-44.4		99	7	
2025-08-25T00:00	29250	14	-44.1		97	8	
2025-08-25T00:00	29300	14	-44.0		98	9	
2025-08-25T00:00	29350	14	-44.1		102	10	
2025-08-25T00:00	29400	14	-44.2		107	10	
2025-08-25T00:00	29450	14	-44.3		111	10	
2025-08-25T00:00	29500	14	-44.6		113	10	
2025-08-25T00:00	29550	13	-44.5		112	10	
2025-08-25T00:00	29600	13	-44.6		110	9	
2025-08-25T00:00	29650	13	-44.8		108	8	
2025-08-25T00:00	29700	13	-45.1		106	7	
2025-08-25T00:00	29750	13	-45.2		101	6	
2025-08-25T00:00	29800	13	-45.2		91	5	
2025-08-25T00:00	29850	13	-45.1		82	5	
2025-08-25T00:00	29900	13	-44.8		79	6	
2025-08-25T00:00	29950	13	-44.5		84	7	
2025-08-25T00:00	30000	13	-44.2		90	7	
2025-08-25T00:00	30050	12	-44.3		92	8	
2025-08-25T00:00	30100	12	-44.1		92	8	
2025-08-25T00:00	30150	12	-43.6		93	8	
2025-08-25T00:00	30200	12	-43.4		98	9	
2025-08-25T00:00	30250	12	-43.1		105	9	
2025-08-25T00:00	30300	12	-43.2		110	9	
2025-08-25T00:00	30350	12	-42.9		112	9	
2025-08-25T00:00	30400	12	-42.8		110	9	
2025-08-25T00:00	30450	12	-42.7		105	8	
2025-08-25T00:00	30500	12	-42.4		95	7	
2025-08-25T00:00	30550	12	-42.4		80	6	
2025-08-25T00:00	30600	12	-42.2		69	6	
2025-08-25T00:00	30650	11	-41.9		67	7	
2025-08-25T00:00	30700	11	-41.7		72	8	
2025-08-25T00:00	30750	11	-41.5		76	9	
2025-08-25T00:00	30800	11	-41.4		77	10	
2025-08-25T00:00	30850	11	-41.6		76	10	
2025-08-25T00:00	30900	11	-41.8		78	11	
2025-08-25T00:00	30950	11	-41.9		80	11	
2025-08-25T00:00	31000	11	-41.8		84	11	
2025-08-25T00:00	31050	11	-42.1		89	10	
2025-08-25T00:00	31100	11	-42.3		94	10	
2025-08-25T00:00	31150	11	-42.4		98	9	
2025-08-25T00:00	31200	11	-42.4		100	9	
2025-08-25T00:00	31250	10	-42.4		98	9	
2025-08-25T00:00	31300	10	-42.3		95	9	
2025-08-25T00:00	31350	10	-42.1		89	10	
2025-08-25T00:00	31400	10	-42.1		83	10	
2025-08-25T00:00	31450	10	-42.0		79	10	
2025-08-25T00:00	31500	10	-41.5		77	10	
2025-08-25T00:00	31550	10	-40.8		79	9	
2025-08-25T00:00	31600	10	-41.0		81	8	
2025-08-25T00:00	31650	10	-41.3		80	7	
2025-08-25T00:00	31700	10	-41.7		74	6	
2025-08-25T00:00	31750	10	-41.8		67	6	
2025-08-25T00:00	31800	10	-42.0		61	6	
2025-08-25T00:00	31850	10	-42.2		57	7	
2025-08-25T00:00	31900	9	-42.4		54	8	
2025-08-25T00:00	31950	9	-42.6		53	9	
2025-08-25T00:00	32000	9	-42.2		54	10	
2025-08-25T00:00	32050	9	-42.1		56	11	
2025-08-25T00:00	32100	9	-42.0		58	12	
2025-08-25T00:00	32150	9	-41.7		61	13	
2025-08-25T00:00	32200	9	-41.5		66	13	
2025-08-25T00:00	32250	9	-41.4		71	13	
2025-08-25T00:00	32300	9	-41.3		76	13	
2025-08-25T00:00	32350	9	-41.3		81	13	
2025-08-25T00:00	32400	9	-41.3		84	13	
2025-08-25T00:00	32450	9	-41.1		84	13	
2025-08-25T00:00	32500	9	-41.0		81	12	
2025-08-25T00:00	32550	9	-40.8		75	13	
2025-08-25T00:00	32600	9	-40.2		71	15	
2025-08-25T00:00	32650	9	-39.6		70	16	
2025-08-25T00:00	32700	8	-39.2		71	16	
2025-08-25T00:00	32750	8	-39.1		74	16	
2025-08-25T00:00	32800	8	-39.0		75	15	
2025-08-25T00:00	32850	8	-39.0		77	14	
2025-08-25T00:00	32900	8	-39.1		78	14	
2025-08-25T00:00	32950	8	-39.1		78	14	
2025-08-25T00:00	33000	8	-39.1		79	13	
2025-08-25T00:00	33050	8	-39.0		80	13	
2025-08-25T00:00	33100	8	-39.0		81	12	
2025-08-25T00:00	33150	8	-38.9		80	11	
2025-08-25T00:00	33200	8	-38.7		77	9	
2025-08-25T00:00	33250	8	-38.5		74	8	
2025-08-25T00:00	33300	8	-38.4		73	8	
2025-08-25T00:00	33350	8	-38.0		74	9	
2025-08-25T00:00	33400	8	-37.2		77	10	
2025-08-25T00:00	33450	8	-36.7		79	11	
2025-08-25T00:00	33500	8	-36.4		82	12	
2025-08-25T00:00	33550	7	-36.2		85	13	
2025-08-25T00:00	33600	7	-36.0		89	13	
2025-08-25T00:00	33650	7	-35.7		91	13	
2025-08-25T00:00	33700	7	-35.6		93	13	
2025-08-25T00:00	33750	7	-35.6		95	13	
2025-08-25T00:00	33800	7	-35.5		97	13	
2025-08-25T00:00	33850	7	-35.5		98	12	
2025-08-25T00:00	33900	7	-35.4		102	11	
2025-08-25T00:00	33950	7	-35.1		107	11	
2025-08-25T00:00	34000	7	-34.6		111	11	
2025-08-25T00:00	34050	7	-34.0		115	10	
2025-08-25T00:00	34100	7	-33.7		121	9	
2025-08-25T00:00	34150	7	-33.6		131	8	
2025-08-25T00:00	34200	7	-33.5		142	7	
2025-08-25T00:00	34250	7	-33.4		148	6	
2025-08-25T00:00	34300	7	-33.3		148	5	
2025-08-25T00:00	34350	7	-33.0		136	4	
2025-08-25T00:00	34400	7	-32.6		106	3	
2025-08-25T00:00	34450	7	-32.4		78	3	
2025-08-25T00:00	34500	7	-32.0		70	4	
2025-08-25T00:00	34550	6	-31.9		72	5	
2025-08-25T00:00	34600	6	-31.8		75	7	
2025-08-25T00:00	34650	6	-32.0		77	8	
2025-08-25T00:00	34700	6	-31.7		78	9	
2025-08-25T00:00	34750	6	-31.3		81	9	
2025-08-25T00:00	34800	6	-30.8		86	8	
2025-08-25T00:00	34850	6	-30.7		90	8	
2025-08-25T00:00	34900	6	-30.3		91	8	
2025-08-25T00:00	34950	6	-29.6		90	8	
2025-08-25T00:00	35000	6	-29.5		90	8	
2025-08-25T00:00	35050	6	-29.4		87	7	
2025-08-25T00:00	35100	6	-29.5		81	6	
2025-08-25T00:00	35150	6	-29.4		69	5	
2025-08-25T00:00	35200	6	-28.8		55	5	
2025-08-25T00:00	35250	6	-28.5		50	6	
2025-08-25T00:00	35300	6	-28.4		53	6	
2025-08-25T00:00	35350	6	-28.1		62	7	
2025-08-25T00:00	35400	6	-28.0		69	7	
2025-08-25T00:00	35450	6	-28.1		71	7	
2025-08-25T00:00	35500	6	-28.2		72	8	
2025-08-25T00:00	35550	6	-28.4		74	9	
2025-08-25T00:00	35600	6	-28.6		77	9	
2025-08-25T00:00	35650	6	-28.8		79	9	
2025-08-25T00:00	35700	6	-28.7		80	8	
2025-08-25T00:00	35750	5	-28.8		84	8	
2025-08-25T00:00	35800	5	-28.8		90	8	
2025-08-25T00:00	35850	5	-28.7		93	8	
2025-08-25T00:00	35900	5	-28.6		92	8	
2025-08-25T08:00	491	962	16.0	10.3	329	1	
2025-08-25T08:00	501	961	15.2	10.5	8	1	
2025-08-25T08:00	520	959	14.8	10.2	11	1	
2025-08-25T08:00	540	957	14.6	10.1	6	1	
2025-08-25T08:00	560	955	14.5	10.0	1	1	
2025-08-25T08:00	580	952	14.2	10.0	356	1	
2025-08-25T08:00	600	950	14.0	9.9	351	1	
2025-08-25T08:00	620	947	13.7	9.8	347	1	
2025-08-25T08:00	640	945	13.6	9.7	346	1	
2025-08-25T08:00	660	943	13.4	9.7	349	1	
2025-08-25T08:00	680	941	13.2	9.7	356	1	
2025-08-25T08:00	700	939	13.0	9.7	3	1	
2025-08-25T08:00	720	937	12.8	9.6	11	1	
2025-08-25T08:00	740	934	12.8	8.9	15	1	
2025-08-25T08:00	760	932	13.0	8.2	18	1	
2025-08-25T08:00	780	930	13.1	7.9	18	2	
2025-08-25T08:00	800	928	13.2	7.9	18	1	
2025-08-25T08:00	820	925	13.2	8.1	16	1	
2025-08-25T08:00	840	923	13.1	8.0	14	1	
2025-08-25T08:00	860	921	12.9	7.8	9	1	
2025-08-25T08:00	880	919	12.8	7.8	1	1	
2025-08-25T08:00	900	917	12.8	7.7	349	1	
2025-08-25T08:00	920	915	12.7	7.9	313	0	
2025-08-25T08:00	940	912	12.7	8.0	258	0	
2025-08-25T08:00	960	910	12.8	9.1	237	1	
2025-08-25T08:00	980	908	12.8	9.8	229	1	
2025-08-25T08:00	1000	906	12.8	9.9	225	1	
2025-08-25T08:00	1020	904	12.8	9.6	224	2	
2025-08-25T08:00	1040	902	12.7	9.5	225	2	
2025-08-25T08:00	1060	900	12.6	9.4	225	3	
2025-08-25T08:00	1080	897	12.5	9.0	227	3	
2025-08-25T08:00	1100	895	12.4	8.8	228	4	
2025-08-25T08:00	1120	893	12.4	8.5	228	4	
2025-08-25T08:00	1140	891	12.4	8.8	229	5	
2025-08-25T08:00	1160	889	12.7	9.4	228	5	
2025-08-25T08:00	1180	886	12.7	9.0	228	5	
2025-08-25T08:00	1200	884	12.6	8.2	227	6	
2025-08-25T08:00	1220	882	12.5	8.0	226	6	
2025-08-25T08:00	1240	880	12.7	7.7	225	5	
2025-08-25T08:00	1260	878	12.6	7.6	224	5	
2025-08-25T08:00	1280	876	12.5	7.6	223	5	
2025-08-25T08:00	1300	874	12.5	7.5	222	5	
2025-08-25T08:00	1320	872	12.5	7.5	221	5	
2025-08-25T08:00	1340	870	12.4	7.4	220	5	
2025-08-25T08:00	1360	868	12.3	7.2	221	5	
2025-08-25T08:00	1380	866	12.3	7.1	222	6	
2025-08-25T08:00	1400	864	12.2	7.0	223	6	
2025-08-25T08:00	1420	862	12.3	7.0	224	6	
2025-08-25T08:00	1440	860	12.3	7.0	225	7	
2025-08-25T08:00	1460	858	12.2	7.1	226	7	
2025-08-25T08:00	1480	856	12.0	7.2	227	7	
2025-08-25T08:00	1500	853	11.8	7.2	228	7	
2025-08-25T08:00	1520	851	11.7	6.9	228	8	
2025-08-25T08:00	1540	850	11.6	6.7	228	8	
2025-08-25T08:00	1560	847	11.4	6.6	228	8	
2025-08-25T08:00	1580	845	11.3	6.3	228	8	
2025-08-25T08:00	1600	843	11.2	6.3	228	8	
2025-08-25T08:00	1620	841	11.1	6.7	228	9	
2025-08-25T08:00	1640	839	11.0	6.8	228	9	
2025-08-25T08:00	1660	837	10.9	6.6	228	9	
2025-08-25T08:00	1680	835	10.7	5.9	228	9	
2025-08-25T08:00	1700	833	10.7	4.8	228	9	
2025-08-25T08:00	1720	831	10.6	4.5	228	9	
2025-08-25T08:00	1740	829	10.5	4.3	228	9	
2025-08-25T08:00	1760	827	10.5	1.2	228	9	
2025-08-25T08:00	1780	825	10.6	-1.1	228	9	
2025-08-25T08:00	1800	823	10.5	-1.4	227	9	
2025-08-25T08:00	1820	821	10.5	-2.6	227	9	
2025-08-25T08:00	1840	819	10.5	-3.8	227	9	
2025-08-25T08:00	1860	817	10.6	-5.3	227	9	
2025-08-25T08:00	1880	815	10.8	-6.9	227	9	
2025-08-25T08:00	1900	814	10.8	-7.8	227	9	
2025-08-25T08:00	1920	812	10.7	-8.4	228	9	
2025-08-25T08:00	1940	810	10.8	-8.9	228	9	
2025-08-25T08:00	1960	808	10.9	-9.0	228	9	
2025-08-25T08:00	1980	806	10.9	-8.7	228	9	
2025-08-25T08:00	2000	804	10.8	-8.7	228	9	
2025-08-25T08:00	2020	802	10.7	-8.9	228	9	
2025-08-25T08:00	2040	800	10.7	-9.7	228	9	
2025-08-25T08:00	2060	798	10.7	-9.3	228	9	
2025-08-25T08:00	2080	796	10.8	-9.0	228	9	
2025-08-25T08:00	2100	794	10.6	-8.9	227	9	
2025-08-25T08:00	2120	792	10.5	-8.8	228	9	
2025-08-25T08:00	2140	790	10.3	-8.6	228	9	
2025-08-25T08:00	2160	788	10.2	-8.8	229	8	
2025-08-25T08:00	2180	786	10.1	-9.2	229	8	
2025-08-25T08:00	2200	785	10.1	-11.9	230	8	
2025-08-25T08:00	2220	783	10.3	-16.0	232	8	
2025-08-25T08:00	2240	781	10.4	-17.7	233	8	
2025-08-25T08:00	2260	779	10.3	-18.4	236	8	
2025-08-25T08:00	2280	777	10.1	-18.7	238	7	
2025-08-25T08:00	2300	775	10.2	-20.5	241	7	
2025-08-25T08:00	2320	773	10.1	-21.1	244	7	
2025-08-25T08:00	2340	772	10.1	-21.5	247	7	
2025-08-25T08:00	2360	770	10.0	-21.6	250	6	
2025-08-25T08:00	2380	768	9.8	-21.7	253	6	
2025-08-25T08:00	2400	766	9.7	-21.7	255	6	
2025-08-25T08:00	2420	764	9.5	-21.3	257	7	
2025-08-25T08:00	2440	762	9.3	-20.7	257	7	
2025-08-25T08:00	2460	760	9.1	-17.0	257	7	
2025-08-25T08:00	2480	759	9.0	-11.7	256	7	
2025-08-25T08:00	2500	757	8.9	-11.0	255	7	
2025-08-25T08:00	2520	755	8.9	-11.2	254	8	
2025-08-25T08:00	2540	753	8.8	-11.8	252	8	
2025-08-25T08:00	2560	751	8.7	-11.9	251	8	
2025-08-25T08:00	2580	750	8.6	-10.5	250	8	
2025-08-25T08:00	2600	748	8.5	-9.2	249	8	
2025-08-25T08:00	2620	746	8.4	-9.5	248	8	
2025-08-25T08:00	2640	744	8.2	-9.2	248	8	
2025-08-25T08:00	2660	742	8.1	-9.5	248	7	
2025-08-25T08:00	2680	740	7.9	-10.7	249	7	
2025-08-25T08:00	2700	738	7.9	-13.7	249	7	
2025-08-25T08:00	2720	737	7.7	-14.3	249	7	
2025-08-25T08:00	2740	735	7.5	-14.6	250	6	
2025-08-25T08:00	2760	733	7.5	-16.4	250	6	
2025-08-25T08:00	2780	732	7.3	-17.4	251	6	
2025-08-25T08:00	2800	730	7.2	-17.0	253	6	
2025-08-25T08:00	2820	728	7.0	-16.4	255	5	
2025-08-25T08:00	2840	726	6.9	-15.8	257	5	
2025-08-25T08:00	2860	725	6.7	-15.7	259	5	
2025-08-25T08:00	2880	723	6.6	-17.1	262	5	
2025-08-25T08:00	2900	721	6.6	-18.5	264	5	
2025-08-25T08:00	2920	719	6.6	-16.9	266	5	
2025-08-25T08:00	2940	717	6.5	-17.9	268	6	
2025-08-25T08:00	2960	716	6.4	-17.8	269	6	
2025-08-25T08:00	2980	714	6.2	-17.3	270	6	
2025-08-25T08:00	3000	712	6.1	-14.5	271	6	
2025-08-25T08:00	3020	710	5.9	-13.2	272	6	
2025-08-25T08:00	3040	709	5.8	-15.2	273	6	
2025-08-25T08:00	3060	707	5.7	-15.3	273	6	
2025-08-25T08:00	3080	705	5.5	-15.2	273	6	
2025-08-25T08:00	3100	703	5.3	-14.2	273	6	
2025-08-25T08:00	3120	702	5.1	-12.2	272	7	
2025-08-25T08:00	3140	700	5.0	-11.7	271	6	
2025-08-25T08:00	3160	698	4.7	-11.5	270	6	
2025-08-25T08:00	3180	696	4.6	-11.5	269	6	
2025-08-25T08:00	3200	695	4.4	-11.5	268	7	
2025-08-25T08:00	3220	693	4.3	-11.4	267	7	
2025-08-25T08:00	3240	692	4.1	-11.1	267	7	
2025-08-25T08:00	3260	690	3.9	-11.0	267	7	
2025-08-25T08:00	3280	688	3.7	-11.5	267	7	
2025-08-25T08:00	3300	686	3.5	-11.3	268	7	
2025-08-25T08:00	3320	685	3.4	-11.2	269	7	
2025-08-25T08:00	3340	683	3.1	-10.7	270	7	
2025-08-25T08:00	3360	681	3.0	-11.1	271	6	
2025-08-25T08:00	3380	680	2.9	-12.6	273	6	
2025-08-25T08:00	3400	678	2.8	-13.2	274	6	
2025-08-25T08:00	3420	676	2.7	-13.6	276	6	
2025-08-25T08:00	3440	674	2.5	-13.4	278	6	
2025-08-25T08:00	3460	673	2.3	-13.3	278	6	
2025-08-25T08:00	3480	671	2.2	-13.6	279	6	
2025-08-25T08:00	3500	670	2.0	-14.0	280	6	
2025-08-25T08:00	3520	668	1.8	-14.6	281	6	
2025-08-25T08:00	3540	667	1.7	-14.4	283	6	
2025-08-25T08:00	3560	665	1.6	-14.7	284	6	
2025-08-25T08:00	3580	663	1.4	-16.9	285	6	
2025-08-25T08:00	3600	662	1.3	-16.7	286	6	
2025-08-25T08:00	3620	660	1.1	-17.1	287	6	
2025-08-25T08:00	3640	658	1.1	-18.7	288	6	
2025-08-25T08:00	3660	656	1.0	-19.0	289	6	
2025-08-25T08:00	3680	655	1.0	-21.5	289	6	
2025-08-25T08:00	3700	653	0.9	-21.8	289	6	
2025-08-25T08:00	3720	652	0.8	-20.6	289	6	
2025-08-25T08:00	3740	650	0.6	-20.2	290	6	
2025-08-25T08:00	3760	648	0.5	-19.5	290	6	
2025-08-25T08:00	3780	647	0.5	-19.4	290	6	
2025-08-25T08:00	3800	645	0.5	-19.3	290	6	
2025-08-25T08:00	3820	644	0.4	-19.4	290	6	
2025-08-25T08:00	3840	642	0.3	-20.4	290	6	
2025-08-25T08:00	3860	640	0.3	-25.3	290	7	
2025-08-25T08:00	3880	639	0.5	-29.5	291	7	
2025-08-25T08:00	3900	637	0.4	-29.7	291	7	
2025-08-25T08:00	3920	636	0.3	-29.6	291	7	
2025-08-25T08:00	3940	634	0.3	-29.6	291	7	
2025-08-25T08:00	3960	633	0.2	-29.8	291	7	
2025-08-25T08:00	3980	631	0.1	-30.0	292	8	
2025-08-25T08:00	4000	629	0.0	-30.4	292	8	
2025-08-25T08:00	4020	628	-0.1	-30.5	292	8	
2025-08-25T08:00	4040	626	-0.2	-30.3	292	8	
2025-08-25T08:00	4060	625	-0.3	-30.3	293	8	
2025-08-25T08:00	4080	623	-0.4	-30.5	293	8	
2025-08-25T08:00	4100	621	-0.5	-30.9	294	8	
2025-08-25T08:00	4120	620	-0.6	-31.0	294	8	
2025-08-25T08:00	4140	618	-0.8	-31.0	294	8	
2025-08-25T08:00	4160	617	-0.9	-30.7	295	8	
2025-08-25T08:00	4180	615	-1.0	-28.8	295	8	
2025-08-25T08:00	4200	613	-1.0	-31.2	295	8	
2025-08-25T08:00	4220	612	-1.1	-30.4	295	8	
2025-08-25T08:00	4240	610	-1.2	-30.1	295	8	
2025-08-25T08:00	4260	609	-1.3	-30.1	295	8	
2025-08-25T08:00	4280	607	-1.4	-28.6	295	8	
2025-08-25T08:00	4300	606	-1.6	-26.1	295	8	
2025-08-25T08:00	4320	604	-1.7	-24.5	295	8	
2025-08-25T08:00	4340	603	-1.9	-22.4	295	8	
2025-08-25T08:00	4360	601	-2.1	-20.1	296	8	
2025-08-25T08:00	4380	600	-2.2	-19.9	296	8	
2025-08-25T08:00	4400	598	-2.3	-21.1	297	8	
2025-08-25T08:00	4420	597	-2.5	-23.1	298	8	
2025-08-25T08:00	4440	595	-2.7	-24.3	299	8	
2025-08-25T08:00	4460	594	-2.8	-25.0	300	8	
2025-08-25T08:00	4480	592	-2.9	-26.7	301	8	
2025-08-25T08:00	4500	591	-3.1	-28.6	302	8	
2025-08-25T08:00	4520	589	-3.2	-29.4	303	8	
2025-08-25T08:00	4540	588	-3.4	-29.7	304	8	
2025-08-25T08:00	4560	586	-3.6	-29.9	304	9	
2025-08-25T08:00	4580	585	-3.7	-30.1	304	9	
2025-08-25T08:00	4600	584	-3.8	-31.6	303	9	
2025-08-25T08:00	4620	582	-3.9	-27.7	303	9	
2025-08-25T08:00	4640	581	-4.1	-17.8	302	9	
2025-08-25T08:00	4660	579	-4.3	-16.6	300	9	
2025-08-25T08:00	4680	577	-4.5	-16.4	298	9	
2025-08-25T08:00	4700	576	-4.7	-16.8	297	9	
2025-08-25T08:00	4720	575	-4.8	-17.4	295	9	
2025-08-25T08:00	4740	573	-4.9	-17.7	294	9	
2025-08-25T08:00	4760	572	-5.1	-17.4	293	9	
2025-08-25T08:00	4780	570	-5.2	-16.6	292	9	
2025-08-25T08:00	4800	569	-5.4	-16.2	291	9	
2025-08-25T08:00	4820	567	-5.5	-17.3	291	9	
2025-08-25T08:00	4840	566	-5.5	-19.3	291	9	
2025-08-25T08:00	4860	565	-5.5	-20.6	291	9	
2025-08-25T08:00	4880	563	-5.7	-21.0	292	9	
2025-08-25T08:00	4900	562	-5.8	-21.4	292	9	
2025-08-25T08:00	4920	560	-5.9	-22.9	293	9	
2025-08-25T08:00	4940	559	-6.1	-24.1	293	9	
2025-08-25T08:00	4960	557	-6.2	-24.4	294	9	
2025-08-25T08:00	4980	556	-6.4	-24.6	294	9	
2025-08-25T08:00	5000	554	-6.6	-23.9	295	9	
2025-08-25T08:00	5020	553	-6.8	-23.9	296	9	
2025-08-25T08:00	5040	551	-7.0	-23.9	296	9	
2025-08-25T08:00	5060	550	-7.2	-23.6	297	9	
2025-08-25T08:00	5080	549	-7.3	-23.5	297	9	
2025-08-25T08:00	5100	547	-7.4	-24.0	298	9	
2025-08-25T08:00	5120	546	-7.7	-24.3	298	9	
2025-08-25T08:00	5140	544	-7.8	-24.4	299	9	
2025-08-25T08:00	5160	543	-8.0	-24.3	299	10	
2025-08-25T08:00	5180	542	-8.0	-24.2	299	10	
2025-08-25T08:00	5200	540	-8.1	-24.9	299	10	
2025-08-25T08:00	5220	539	-8.2	-26.0	298	10	
2025-08-25T08:00	5240	538	-8.3	-27.6	298	10	
2025-08-25T08:00	5260	536	-8.4	-28.7	297	10	
2025-08-25T08:00	5280	535	-8.6	-29.6	296	10	
2025-08-25T08:00	5300	533	-8.7	-29.6	295	10	
2025-08-25T08:00	5320	532	-8.8	-28.8	294	10	
2025-08-25T08:00	5340	531	-8.9	-29.0	293	10	
2025-08-25T08:00	5360	529	-9.0	-29.1	293	10	
2025-08-25T08:00	5380	528	-9.1	-29.1	292	10	
2025-08-25T08:00	5400	527	-9.2	-29.3	291	9	
2025-08-25T08:00	5420	525	-9.4	-29.5	291	9	
2025-08-25T08:00	5440	524	-9.5	-30.4	291	9	
2025-08-25T08:00	5460	522	-9.5	-31.2	291	9	
2025-08-25T08:00	5480	521	-9.5	-30.3	290	9	
2025-08-25T08:00	5500	520	-9.6	-29.9	290	9	
2025-08-25T08:00	5520	518	-9.7	-30.2	291	9	
2025-08-25T08:00	5540	517	-9.8	-30.4	291	9	
2025-08-25T08:00	5560	516	-10.0	-29.9	291	9	
2025-08-25T08:00	5580	514	-10.1	-28.5	291	9	
2025-08-25T08:00	5600	513	-10.3	-27.9	292	10	
2025-08-25T08:00	5620	512	-10.4	-28.1	292	10	
2025-08-25T08:00	5640	510	-10.6	-28.2	292	10	
2025-08-25T08:00	5660	509	-10.8	-28.3	292	10	
2025-08-25T08:00	5680	508	-10.9	-27.6	292	10	
2025-08-25T08:00	5700	507	-11.1	-27.0	292	10	
2025-08-25T08:00	5720	505	-11.2	-27.0	291	10	
2025-08-25T08:00	5740	504	-11.3	-27.2	291	10	
2025-08-25T08:00	5760	503	-11.5	-27.4	290	10	
2025-08-25T08:00	5780	501	-11.7	-27.7	290	10	
2025-08-25T08:00	5800	500	-11.8	-27.9	290	10	
2025-08-25T08:00	5820	499	-12.0	-28.1	289	10	
2025-08-25T08:00	5840	497	-12.2	-28.2	289	10	
2025-08-25T08:00	5860	496	-12.3	-28.4	289	10	
2025-08-25T08:00	5880	495	-12.4	-28.4	289	10	
2025-08-25T08:00	5900	494	-12.6	-28.2	289	10	
2025-08-25T08:00	5920	492	-12.8	-28.1	289	10	
2025-08-25T08:00	5940	491	-12.9	-28.3	289	10	
2025-08-25T08:00	5960	490	-13.0	-29.0	289	10	
2025-08-25T08:00	5980	488	-13.1	-29.6	289	10	
2025-08-25T08:00	6000	487	-13.3	-29.1	289	10	
2025-08-25T08:00	6020	486	-13.4	-28.9	289	10	
2025-08-25T08:00	6040	485	-13.5	-28.9	289	10	
2025-08-25T08:00	6060	483	-13.6	-29.4	288	10	
2025-08-25T08:00	6080	482	-13.8	-29.6	288	10	
2025-08-25T08:00	6100	481	-13.9	-29.9	288	10	
2025-08-25T08:00	6120	479	-13.9	-30.3	288	10	
2025-08-25T08:00	6140	478	-14.0	-30.5	288	10	
2025-08-25T08:00	6160	477	-14.2	-30.5	288	10	
2025-08-25T08:00	6180	476	-14.4	-30.6	289	10	
2025-08-25T08:00	6200	474	-14.6	-30.9	290	10	
2025-08-25T08:00	6220	473	-14.7	-31.3	292	10	
2025-08-25T08:00	6240	472	-14.8	-31.9	293	10	
2025-08-25T08:00	6260	471	-14.9	-32.4	294	10	
2025-08-25T08:00	6280	469	-14.9	-34.4	295	10	
2025-08-25T08:00	6300	468	-15.0	-36.5	295	10	
2025-08-25T08:00	6320	467	-15.2	-36.8	296	10	
2025-08-25T08:00	6340	466	-15.4	-36.9	296	10	
2025-08-25T08:00	6360	464	-15.5	-36.2	295	10	
2025-08-25T08:00	6380	463	-15.6	-35.9	295	10	
2025-08-25T08:00	6400	462	-15.8	-35.8	295	10	
2025-08-25T08:00	6420	461	-15.9	-35.5	294	10	
2025-08-25T08:00	6440	460	-16.0	-35.3	294	10	
2025-08-25T08:00	6460	458	-16.2	-35.7	293	11	
2025-08-25T08:00	6480	457	-16.2	-37.9	293	11	
2025-08-25T08:00	6500	456	-16.2	-36.9	293	11	
2025-08-25T08:00	6520	455	-16.2	-32.2	292	11	
2025-08-25T08:00	6540	454	-16.3	-30.9	292	11	
2025-08-25T08:00	6560	452	-16.5	-30.6	292	11	
2025-08-25T08:00	6580	451	-16.7	-30.6	291	11	
2025-08-25T08:00	6600	450	-16.9	-31.3	291	11	
2025-08-25T08:00	6620	449	-17.1	-32.3	291	11	
2025-08-25T08:00	6640	447	-17.3	-32.8	291	11	
2025-08-25T08:00	6660	446	-17.4	-32.9	291	11	
2025-08-25T08:00	6680	445	-17.5	-32.1	291	11	
2025-08-25T08:00	6700	444	-17.7	-31.8	291	11	
2025-08-25T08:00	6720	443	-17.9	-31.9	291	11	
2025-08-25T08:00	6740	441	-18.0	-32.2	291	11	
2025-08-25T08:00	6760	440	-18.2	-33.1	291	11	
2025-08-25T08:00	6780	439	-18.3	-35.1	291	10	
2025-08-25T08:00	6800	438	-18.4	-35.6	291	10	
2025-08-25T08:00	6820	437	-18.6	-35.3	290	10	
2025-08-25T08:00	6840	436	-18.8	-35.3	290	10	
2025-08-25T08:00	6860	434	-19.0	-35.1	289	10	
2025-08-25T08:00	6880	433	-19.1	-34.9	289	10	
2025-08-25T08:00	6900	432	-19.3	-34.7	289	10	
2025-08-25T08:00	6920	431	-19.5	-34.7	289	9	
2025-08-25T08:00	6940	430	-19.6	-35.4	289	9	
2025-08-25T08:00	6960	429	-19.8	-35.8	289	9	
2025-08-25T08:00	6980	428	-20.0	-36.2	289	9	
2025-08-25T08:00	7000	426	-20.1	-37.1	290	9	
2025-08-25T08:00	7020	425	-20.2	-38.0	290	9	
2025-08-25T08:00	7040	424	-20.4	-38.4	291	9	
2025-08-25T08:00	7060	423	-20.6	-38.2	291	10	
2025-08-25T08:00	7080	422	-20.7	-37.7	292	10	
2025-08-25T08:00	7100	421	-20.8	-37.1	292	10	
2025-08-25T08:00	7120	420	-21.0	-36.2	292	10	
2025-08-25T08:00	7140	418	-21.0	-36.4	293	10	
2025-08-25T08:00	7160	417	-21.1	-37.2	293	10	
2025-08-25T08:00	7180	416	-21.2	-38.0	293	10	
2025-08-25T08:00	7200	415	-21.4	-38.4	293	10	
2025-08-25T08:00	7220	414	-21.5	-38.6	293	10	
2025-08-25T08:00	7240	413	-21.6	-39.2	292	10	
2025-08-25T08:00	7260	412	-21.7	-39.3	291	10	
2025-08-25T08:00	7280	410	-21.9	-39.0	291	10	
2025-08-25T08:00	7300	409	-22.1	-38.9	290	10	
2025-08-25T08:00	7320	408	-22.2	-39.0	290	10	
2025-08-25T08:00	7340	407	-22.4	-38.9	289	10	
2025-08-25T08:00	7360	406	-22.5	-38.8	289	10	
2025-08-25T08:00	7380	405	-22.6	-38.7	289	10	
2025-08-25T08:00	7400	404	-22.8	-38.8	290	10	
2025-08-25T08:00	7420	403	-23.0	-38.9	290	10	
2025-08-25T08:00	7440	402	-23.2	-39.2	290	10	
2025-08-25T08:00	7460	400	-23.3	-41.1	290	11	
2025-08-25T08:00	7480	399	-23.4	-42.8	290	11	
2025-08-25T08:00	7500	398	-23.6	-43.2	290	11	
2025-08-25T08:00	7520	397	-23.7	-43.6	290	11	
2025-08-25T08:00	7540	396	-23.8	-43.5	290	11	
2025-08-25T08:00	7560	395	-24.0	-43.4	289	12	
2025-08-25T08:00	7580	394	-24.2	-43.2	288	12	
2025-08-25T08:00	7600	393	-24.3	-43.2	288	12	
2025-08-25T08:00	7620	392	-24.5	-44.0	287	12	
2025-08-25T08:00	7640	391	-24.6	-44.6	286	12	
2025-08-25T08:00	7660	390	-24.7	-45.0	286	11	
2025-08-25T08:00	7680	389	-24.9	-45.4	285	11	
2025-08-25T08:00	7700	387	-25.0	-45.4	284	11	
2025-08-25T08:00	7720	386	-25.1	-45.1	284	11	
2025-08-25T08:00	7740	385	-25.3	-45.1	284	11	
2025-08-25T08:00	7760	384	-25.4	-46.0	283	11	
2025-08-25T08:00	7780	383	-25.5	-46.1	283	10	
2025-08-25T08:00	7800	382	-25.6	-45.9	283	10	
2025-08-25T08:00	7820	381	-25.8	-45.9	283	10	
2025-08-25T08:00	7840	380	-26.1	-45.9	283	10	
2025-08-25T08:00	7860	379	-26.3	-45.9	283	10	
2025-08-25T08:00	7880	378	-26.4	-46.2	283	10	
2025-08-25T08:00	7900	377	-26.5	-46.6	283	11	
2025-08-25T08:00	7920	376	-26.6	-46.8	284	11	
2025-08-25T08:00	7940	375	-26.8	-46.9	284	11	
2025-08-25T08:00	7960	374	-27.0	-47.0	284	11	
2025-08-25T08:00	7980	373	-27.1	-47.3	284	11	
2025-08-25T08:00	8000	372	-27.2	-47.0	285	11	
2025-08-25T08:00	8020	371	-27.3	-47.0	285	11	
2025-08-25T08:00	8040	370	-27.4	-47.9	286	11	
2025-08-25T08:00	8060	369	-27.5	-48.2	286	12	
2025-08-25T08:00	8080	368	-27.6	-48.4	287	12	
2025-08-25T08:00	8100	367	-27.8	-48.5	287	12	
2025-08-25T08:00	8120	366	-28.0	-48.6	288	12	
2025-08-25T08:00	8140	365	-28.1	-49.0	288	12	
2025-08-25T08:00	8160	364	-28.3	-49.1	288	12	
2025-08-25T08:00	8180	363	-28.5	-48.8	287	12	
2025-08-25T08:00	8200	362	-28.6	-48.6	287	12	
2025-08-25T08:00	8220	361	-28.8	-48.6	287	12	
2025-08-25T08:00	8240	360	-29.0	-48.5	286	12	
2025-08-25T08:00	8260	358	-29.1	-48.5	286	12	
2025-08-25T08:00	8280	358	-29.2	-48.3	285	12	
2025-08-25T08:00	8300	357	-29.4	-48.3	285	12	
2025-08-25T08:00	8320	356	-29.5	-48.5	285	12	
2025-08-25T08:00	8340	355	-29.6	-48.6	285	12	
2025-08-25T08:00	8360	354	-29.8	-48.6	284	12	
2025-08-25T08:00	8380	353	-30.0	-48.5	284	12	
2025-08-25T08:00	8400	352	-30.1	-48.5	284	12	
2025-08-25T08:00	8420	351	-30.2	-49.2	283	12	
2025-08-25T08:00	8440	350	-30.3	-49.9	282	12	
2025-08-25T08:00	8460	349	-30.4	-50.7	281	11	
2025-08-25T08:00	8480	348	-30.4	-51.3	280	11	
2025-08-25T08:00	8500	347	-30.5	-51.6	279	11	
2025-08-25T08:00	8520	346	-30.5	-51.7	278	11	
2025-08-25T08:00	8540	345	-30.7	-51.9	277	11	
2025-08-25T08:00	8560	344	-30.8	-52.0	277	10	
2025-08-25T08:00	8580	343	-30.9	-52.2	276	10	
2025-08-25T08:00	8600	342	-31.0	-52.4	276	10	
2025-08-25T08:00	8620	341	-31.2	-52.7	276	10	
2025-08-25T08:00	8640	340	-31.3	-53.2	276	9	
2025-08-25T08:00	8660	339	-31.4	-53.9	277	9	
2025-08-25T08:00	8680	338	-31.5	-54.6	278	9	
2025-08-25T08:00	8700	337	-31.6	-54.9	279	9	
2025-08-25T08:00	8720	336	-31.8	-55.1	280	9	
2025-08-25T08:00	8740	335	-31.9	-55.4	282	9	
2025-08-25T08:00	8760	334	-32.1	-55.6	283	9	
2025-08-25T08:00	8780	333	-32.2	-55.3	284	9	
2025-08-25T08:00	8800	332	-32.4	-55.0	285	9	
2025-08-25T08:00	8820	331	-32.5	-55.0	285	10	
2025-08-25T08:00	8840	330	-32.7	-55.0	286	10	
2025-08-25T08:00	8860	330	-33.0	-55.0	286	10	
2025-08-25T08:00	8880	329	-33.1	-55.0	285	10	
2025-08-25T08:00	8900	328	-33.3	-55.0	285	10	
2025-08-25T08:00	8920	327	-33.4	-54.8	284	10	
2025-08-25T08:00	8940	326	-33.5	-54.5	283	10	
2025-08-25T08:00	8960	325	-33.6	-54.1	282	10	
2025-08-25T08:00	8980	324	-33.8	-54.0	280	10	
2025-08-25T08:00	9000	323	-33.9	-54.0	279	10	
2025-08-25T08:00	9020	322	-34.2	-53.9	277	11	
2025-08-25T08:00	9040	321	-34.4	-53.8	276	11	
2025-08-25T08:00	9060	320	-34.6	-53.7	275	11	
2025-08-25T08:00	9080	319	-34.8	-53.3	274	11	
2025-08-25T08:00	9100	318	-34.9	-53.0	273	11	
2025-08-25T08:00	9120	317	-35.1	-52.5	272	11	
2025-08-25T08:00	9140	317	-35.2	-52.0	271	11	
2025-08-25T08:00	9160	316	-35.4	-51.5	271	12	
2025-08-25T08:00	9180	315	-35.7	-51.2	270	11	
2025-08-25T08:00	9200	314	-35.8	-51.0	270	12	
2025-08-25T08:00	9220	313	-36.0	-50.6	269	11	
2025-08-25T08:00	9240	312	-36.2	-49.6	269	11	
2025-08-25T08:00	9260	311	-36.4	-48.7	268	11	
2025-08-25T08:00	9280	310	-36.5	-50.3	268	11	
2025-08-25T08:00	9300	309	-36.7	-53.8	267	11	
2025-08-25T08:00	9320	309	-36.8	-54.3	266	11	
2025-08-25T08:00	9340	308	-37.0	-54.6	266	11	
2025-08-25T08:00	9360	307	-37.2	-54.5	265	11	
2025-08-25T08:00	9380	306	-37.3	-53.9	264	11	
2025-08-25T08:00	9400	305	-37.5	-53.4	263	11	
2025-08-25T08:00	9420	304	-37.6	-53.1	262	11	
2025-08-25T08:00	9440	303	-37.8	-52.9	262	12	
2025-08-25T08:00	9460	302	-38.0	-52.9	261	12	
2025-08-25T08:00	9480	301	-38.2	-52.9	260	12	
2025-08-25T08:00	9500	300	-38.4	-53.2	259	12	
2025-08-25T08:00	9520	300	-38.5	-53.5	259	12	
2025-08-25T08:00	9540	299	-38.7	-53.8	258	13	
2025-08-25T08:00	9560	298	-38.9	-53.8	257	13	
2025-08-25T08:00	9580	297	-39.2	-53.2	257	13	
2025-08-25T08:00	9600	296	-39.3	-51.7	256	13	
2025-08-25T08:00	9620	295	-39.5	-50.3	256	13	
2025-08-25T08:00	9640	294	-39.7	-49.9	256	13	
2025-08-25T08:00	9660	294	-39.9	-49.5	256	13	
2025-08-25T08:00	9680	293	-40.1	-48.3	256	13	
2025-08-25T08:00	9700	292	-40.3	-48.1	255	13	
2025-08-25T08:00	9720	291	-40.5	-47.8	255	13	
2025-08-25T08:00	9740	290	-40.7	-47.5	255	13	
2025-08-25T08:00	9760	289	-40.9	-48.2	255	13	
2025-08-25T08:00	9780	288	-41.1	-48.4	255	13	
2025-08-25T08:00	9800	288	-41.3	-45.5	255	13	
2025-08-25T08:00	9820	287	-41.4	-44.5	255	13	
2025-08-25T08:00	9840	286	-41.6	-45.2	256	14	
2025-08-25T08:00	9860	285	-41.8	-45.6	256	14	
2025-08-25T08:00	9880	284	-42.0	-45.9	256	14	
2025-08-25T08:00	9900	283	-42.2	-46.2	257	14	
2025-08-25T08:00	9920	283	-42.3	-46.5	257	14	
2025-08-25T08:00	9940	282	-42.5	-46.8	257	14	
2025-08-25T08:00	9960	281	-42.7	-46.8	257	14	
2025-08-25T08:00	9980	280	-42.9	-46.7	257	14	
2025-08-25T08:00	10000	279	-43.1	-46.7	256	14	
2025-08-25T08:00	10018	278	-43.3	-46.7	256	14	
2025-08-25T08:00	10050	277	-43.6	-46.7	255	14	
2025-08-25T08:00	10100	275	-44.0	-46.9	255	14	
2025-08-25T08:00	10150	273	-44.4	-47.0	255	15	
2025-08-25T08:00	10200	271	-44.9	-47.2	256	14	
2025-08-25T08:00	10250	269	-45.3	-47.7	257	14	
2025-08-25T08:00	10300	267	-45.6	-48.4	257	14	
2025-08-25T08:00	10350	265	-46.0	-48.1	257	14	
2025-08-25T08:00	10400	263	-46.4	-48.1	256	14	
2025-08-25T08:00	10450	261	-46.8	-48.9	255	14	
2025-08-25T08:00	10500	259	-47.2	-49.4	255	14	
2025-08-25T08:00	10550	257	-47.7	-49.5	256	14	
2025-08-25T08:00	10600	255	-48.2	-49.8	257	13	
2025-08-25T08:00	10650	253	-48.7	-50.1	258	13	
2025-08-25T08:00	10700	251	-49.1	-50.5	259	13	
2025-08-25T08:00	10750	249	-49.6	-51.0	260	13	
2025-08-25T08:00	10800	247	-49.9	-52.6	260	12	
2025-08-25T08:00	10850	246	-50.1	-54.7	258	12	
2025-08-25T08:00	10900	244	-50.4	-55.1	256	12	
2025-08-25T08:00	10950	242	-50.6	-55.4	255	12	
2025-08-25T08:00	11000	240	-50.9	-55.2	253	11	
2025-08-25T08:00	11050	238	-51.4	-55.2	252	11	
2025-08-25T08:00	11100	236	-51.8	-55.5	251	10	
2025-08-25T08:00	11150	235	-52.2	-56.0	251	10	
2025-08-25T08:00	11200	233	-52.6	-56.7	252	10	
2025-08-25T08:00	11250	231	-53.0	-57.4	253	10	
2025-08-25T08:00	11300	229	-53.4	-57.7	255	9	
2025-08-25T08:00	11350	227	-53.9	-58.0	256	9	
2025-08-25T08:00	11400	226	-54.3	-58.5	256	9	
2025-08-25T08:00	11450	224	-54.7	-58.9	256	9	
2025-08-25T08:00	11500	222	-55.1	-59.5	256	9	
2025-08-25T08:00	11550	220	-55.4	-59.9	257	10	
2025-08-25T08:00	11600	219	-55.7	-59.8	259	10	
2025-08-25T08:00	11650	217	-56.1	-60.1	260	11	
2025-08-25T08:00	11700	215	-56.4	-61.2	261	11	
2025-08-25T08:00	11750	214	-56.6	-62.2	261	11	
2025-08-25T08:00	11800	212	-56.9	-62.5	260	11	
2025-08-25T08:00	11850	210	-57.3	-62.5	258	12	
2025-08-25T08:00	11900	209	-57.7	-62.9	257	12	
2025-08-25T08:00	11950	207	-58.0	-63.9	257	12	
2025-08-25T08:00	12000	205	-58.1	-64.8	257	12	
2025-08-25T08:00	12050	204	-58.5	-65.2	256	12	
2025-08-25T08:00	12100	202	-58.9	-65.5	254	13	
2025-08-25T08:00	12150	200	-59.3	-65.6	252	13	
2025-08-25T08:00	12200	199	-59.7	-65.7	252	13	
2025-08-25T08:00	12250	197	-60.1	-65.7	254	12	
2025-08-25T08:00	12300	196	-60.4	-65.9	259	11	
2025-08-25T08:00	12350	194	-60.6	-66.1	266	11	
2025-08-25T08:00	12400	193	-60.8	-66.4	272	10	
2025-08-25T08:00	12450	191	-60.9	-66.7	278	10	
2025-08-25T08:00	12500	189	-61.2	-67.0	280	10	
2025-08-25T08:00	12550	188	-61.5	-67.0	280	11	
2025-08-25T08:00	12600	186	-62.0	-67.6	280	11	
2025-08-25T08:00	12650	185	-61.4	-68.1	282	11	
2025-08-25T08:00	12700	183	-60.9	-69.0	285	12	
2025-08-25T08:00	12750	182	-60.9	-71.2	288	13	
2025-08-25T08:00	12800	180	-60.1	-73.5	291	13	
2025-08-25T08:00	12850	179	-59.3	-77.0	292	14	
2025-08-25T08:00	12900	178	-58.4	-81.2	292	15	
2025-08-25T08:00	12950	176	-58.2	-82.7	293	14	
2025-08-25T08:00	13000	175	-58.4	-81.1	293	14	
2025-08-25T08:00	13050	173	-58.2	-80.4	294	14	
2025-08-25T08:00	13100	172	-58.3	-81.0	294	13	
2025-08-25T08:00	13150	171	-58.0	-81.0	295	13	
2025-08-25T08:00	13200	169	-57.7	-80.6	298	13	
2025-08-25T08:00	13250	168	-57.9	-80.2	299	13	
2025-08-25T08:00	13300	167	-57.7	-80.3	300	14	
2025-08-25T08:00	13350	165	-57.1	-80.8	299	15	
2025-08-25T08:00	13400	164	-56.9	-80.7	299	16	
2025-08-25T08:00	13450	163	-56.7	-80.5	302	17	
2025-08-25T08:00	13500	162	-56.6	-80.6	304	17	
2025-08-25T08:00	13550	160	-56.7	-80.6	305	16	
2025-08-25T08:00	13600	159	-57.0	-80.7	305	15	
2025-08-25T08:00	13650	158	-57.0	-80.6	304	15	
2025-08-25T08:00	13700	156	-56.9	-80.6	302	16	
2025-08-25T08:00	13750	155	-56.8	-80.3	300	18	
2025-08-25T08:00	13800	154	-56.8	-79.9	300	18	
2025-08-25T08:00	13850	153	-57.0	-79.7	301	18	
2025-08-25T08:00	13900	152	-56.8	-79.8	303	18	
2025-08-25T08:00	13950	150	-56.5	-80.2	304	17	
2025-08-25T08:00	14000	149	-56.3	-80.5	302	16	
2025-08-25T08:00	14050	148	-56.5	-80.6	300	14	
2025-08-25T08:00	14100	147	-56.6	-80.8	300	14	
2025-08-25T08:00	14150	146	-56.4	-80.9	299	14	
2025-08-25T08:00	14200	145	-56.2	-81.0	299	15	
2025-08-25T08:00	14250	143	-55.9	-81.0	301	15	
2025-08-25T08:00	14300	142	-56.0	-81.0	306	15	
2025-08-25T08:00	14350	141	-55.9	-80.9	309	16	
2025-08-25T08:00	14400	140	-56.1	-80.9	311	16	
2025-08-25T08:00	14450	139	-56.3	-81.0	312	16	
2025-08-25T08:00	14500	138	-56.4	-81.1	314	15	
2025-08-25T08:00	14550	137	-56.4	-81.2	315	14	
2025-08-25T08:00	14600	136	-56.7	-81.3	314	13	
2025-08-25T08:00	14650	135	-57.1	-81.3	312	12	
2025-08-25T08:00	14700	134	-57.5	-81.3	310	11	
2025-08-25T08:00	14750	133	-57.5	-81.4	307	11	
2025-08-25T08:00	14800	132	-57.3	-81.4	302	11	
2025-08-25T08:00	14850	131	-57.2	-81.5	296	11	
2025-08-25T08:00	14900	129	-56.9	-81.3	291	12	
2025-08-25T08:00	14950	129	-56.8	-81.4	289	13	
2025-08-25T08:00	15000	128	-56.8	-81.6	290	14	
2025-08-25T08:00	15050	126	-56.8	-81.6	295	15	
2025-08-25T08:00	15100	125	-57.0	-81.7	301	16	
2025-08-25T08:00	15150	124	-57.1	-81.7	306	18	
2025-08-25T08:00	15200	124	-57.0	-81.8	311	19	
2025-08-25T08:00	15250	123	-57.1	-82.1	314	19	
2025-08-25T08:00	15300	122	-57.0	-82.2	315	19	
2025-08-25T08:00	15350	121	-57.1	-82.3	316	19	
2025-08-25T08:00	15400	120	-57.4	-82.4	316	18	
2025-08-25T08:00	15450	119	-57.7	-82.4	317	17	
2025-08-25T08:00	15500	118	-57.8	-82.4	317	15	
2025-08-25T08:00	15550	117	-58.0	-82.4	315	14	
2025-08-25T08:00	15600	116	-58.2	-82.4	313	14	
2025-08-25T08:00	15650	115	-58.5	-82.5	311	14	
2025-08-25T08:00	15700	114	-58.7	-82.7	308	15	
2025-08-25T08:00	15750	113	-58.6	-82.9	308	15	
2025-08-25T08:00	15800	112	-58.3	-82.9	309	16	
2025-08-25T08:00	15850	111	-58.1	-82.9	311	16	
2025-08-25T08:00	15900	111	-58.3	-83.1	313	16	
2025-08-25T08:00	15950	110	-58.4	-83.3	313	16	
2025-08-25T08:00	16000	109	-58.3	-83.2	313	17	
2025-08-25T08:00	16050	108	-58.5	-83.3	313	17	
2025-08-25T08:00	16100	107	-58.7	-83.4	314	17	
2025-08-25T08:00	16150	106	-58.5	-83.4	316	16	
2025-08-25T08:00	16200	105	-58.5	-83.5	317	16	
2025-08-25T08:00	16250	105	-58.5	-83.5	319	15	
2025-08-25T08:00	16300	104	-58.7	-83.6	320	15	
2025-08-25T08:00	16350	103	-58.8	-83.7	323	14	
2025-08-25T08:00	16400	102	-58.6	-83.7	325	14	
2025-08-25T08:00	16450	101	-58.6	-83.7	325	13	
2025-08-25T08:00	16500	100	-58.4	-83.6	324	13	
2025-08-25T08:00	16550	100	-58.4	-83.6	325	13	
2025-08-25T08:00	16600	99	-58.4	-83.6	325	12	
2025-08-25T08:00	16650	98	-58.6	-83.7	325	11	
2025-08-25T08:00	16700	97	-58.6	-83.8	325	11	
2025-08-25T08:00	16750	97	-58.2	-83.9	327	11	
2025-08-25T08:00	16800	96	-57.9	-83.9	327	10	
2025-08-25T08:00	16850	95	-57.8	-83.8	325	10	
2025-08-25T08:00	16900	94	-57.8	-83.8	325	10	
2025-08-25T08:00	16950	94	-57.5	-83.7	325	10	
2025-08-25T08:00	17000	93	-57.4	-83.7	328	10	
2025-08-25T08:00	17050	92	-57.5	-83.7	330	10	
2025-08-25T08:00	17100	91	-57.6	-83.8	330	10	
2025-08-25T08:00	17150	91	-57.8	-83.9	325	10	
2025-08-25T08:00	17200	90	-58.0	-83.9	319	10	
2025-08-25T08:00	17250	89	-58.1	-83.9	316	9	
2025-08-25T08:00	17300	88	-58.2	-83.9	318	9	
2025-08-25T08:00	17350	88	-58.3	-84.1	321	9	
2025-08-25T08:00	17400	87	-58.4	-84.2	322	9	
2025-08-25T08:00	17450	86	-58.5	-84.3	317	8	
2025-08-25T08:00	17500	86	-58.4	-84.3	310	7	
2025-08-25T08:00	17550	85	-58.3	-84.2	304	8	
2025-08-25T08:00	17600	84	-58.4	-84.2	303	8	
2025-08-25T08:00	17650	84	-58.3	-84.2	305	9	
2025-08-25T08:00	17700	83	-58.1	-84.2	308	9	
2025-08-25T08:00	17750	82	-58.0	-84.2	312	8	
2025-08-25T08:00	17800	82	-58.0	-84.2	312	8	
2025-08-25T08:00	17850	81	-58.3	-84.3	311	8	
2025-08-25T08:00	17900	80	-58.4	-84.3	309	8	
2025-08-25T08:00	17950	80	-57.9	-84.2	308	9	
2025-08-25T08:00	18000	79	-57.9	-84.4	305	10	
2025-08-25T08:00	18050	79	-57.8	-84.4	306	10	
2025-08-25T08:00	18100	78	-57.5	-84.3	311	10	
2025-08-25T08:00	18150	77	-57.3	-84.2	317	9	
2025-08-25T08:00	18200	77	-57.0	-84.0	319	8	
2025-08-25T08:00	18250	76	-56.7	-83.8	318	8	
2025-08-25T08:00	18300	75	-56.6	-83.8	317	8	
2025-08-25T08:00	18350	75	-56.4	-83.8	318	8	
2025-08-25T08:00	18400	74	-56.4	-83.7	319	8	
2025-08-25T08:00	18450	74	-56.7	-83.8	318	8	
2025-08-25T08:00	18500	73	-56.6	-83.8	314	8	
2025-08-25T08:00	18550	73	-56.6	-83.8	311	8	
2025-08-25T08:00	18600	72	-56.6	-83.8	309	8	
2025-08-25T08:00	18650	71	-56.6	-83.8	310	8	
2025-08-25T08:00	18700	71	-56.9	-83.9	312	8	
2025-08-25T08:00	18750	70	-56.9	-83.9	310	7	
2025-08-25T08:00	18800	70	-56.6	-83.8	307	7	
2025-08-25T08:00	18850	69	-56.6	-83.8	304	7	
2025-08-25T08:00	18900	69	-56.9	-84.0	305	8	
2025-08-25T08:00	18950	68	-57.0	-84.0	308	9	
2025-08-25T08:00	19000	68	-57.0	-84.0	311	9	
2025-08-25T08:00	19050	67	-57.1	-84.1	313	9	
2025-08-25T08:00	19100	67	-57.0	-84.0	315	8	
2025-08-25T08:00	19150	66	-57.0	-84.1	319	7	
2025-08-25T08:00	19200	65	-56.9	-84.1	323	7	
2025-08-25T08:00	19250	65	-56.7	-84.1	324	6	
2025-08-25T08:00	19300	64	-56.7	-84.0	320	6	
2025-08-25T08:00	19350	64	-56.7	-84.0	310	6	
2025-08-25T08:00	19400	63	-56.7	-84.1	302	7	
2025-08-25T08:00	19450	63	-56.6	-84.1	296	8	
2025-08-25T08:00	19500	62	-56.3	-84.0	295	8	
2025-08-25T08:00	19550	62	-56.3	-83.9	299	8	
2025-08-25T08:00	19600	62	-56.5	-83.9	306	7	
2025-08-25T08:00	19650	61	-56.7	-84.0	312	7	
2025-08-25T08:00	19700	61	-56.5	-83.9	316	7	
2025-08-25T08:00	19750	60	-56.4	-83.9	318	7	
2025-08-25T08:00	19800	60	-56.5	-84.1	320	7	
2025-08-25T08:00	19850	59	-56.2	-83.9	323	6	
2025-08-25T08:00	19900	59	-56.3	-83.9	329	5	
2025-08-25T08:00	19950	58	-56.3	-83.8	334	5	
2025-08-25T08:00	20000	58	-56.4	-83.8	337	5	
2025-08-25T08:00	20050	57	-56.8		337	4	
2025-08-25T08:00	20100	57	-56.9		331	4	
2025-08-25T08:00	20150	56	-56.8		324	4	
2025-08-25T08:00	20200	56	-56.7		322	4	
2025-08-25T08:00	20250	55	-56.6		323	4	
2025-08-25T08:00	20300	55	-56.6		322	4	
2025-08-25T08:00	20350	55	-56.4		321	5	
2025-08-25T08:00	20400	54	-55.8		324	6	
2025-08-25T08:00	20450	54	-55.2		331	6	
2025-08-25T08:00	20500	53	-54.5		341	4	
2025-08-25T08:00	20550	53	-54.1		356	3	
2025-08-25T08:00	20600	53	-54.1		27	2	
2025-08-25T08:00	20650	52	-54.3		79	1	
2025-08-25T08:00	20700	52	-54.0		106	1	
2025-08-25T08:00	20750	51	-54.3		82	1	
2025-08-25T08:00	20800	51	-54.7		14	1	
2025-08-25T08:00	20850	51	-54.9		354	2	
2025-08-25T08:00	20900	50	-54.6		354	3	
2025-08-25T08:00	20950	50	-54.3		2	3	
2025-08-25T08:00	21000	49	-53.9		13	3	
2025-08-25T08:00	21050	49	-53.3		23	2	
2025-08-25T08:00	21100	49	-53.0		40	1	
2025-08-25T08:00	21150	48	-53.2		87	1	
2025-08-25T08:00	21200	48	-53.5		137	1	
2025-08-25T08:00	21250	47	-54.1		160	1	
2025-08-25T08:00	21300	47	-54.7		181	1	
2025-08-25T08:00	21350	47	-55.1		217	2	
2025-08-25T08:00	21400	46	-55.3		252	2	
2025-08-25T08:00	21450	46	-55.1		275	3	
2025-08-25T08:00	21500	46	-54.2		291	4	
2025-08-25T08:00	21550	45	-54.0		302	4	
2025-08-25T08:00	21600	45	-54.0		308	4	
2025-08-25T08:00	21650	45	-53.5		306	4	
2025-08-25T08:00	21700	44	-53.6		303	5	
2025-08-25T08:00	21750	44	-53.6		307	6	
2025-08-25T08:00	21800	44	-53.2		315	7	
2025-08-25T08:00	21850	43	-52.8		324	7	
2025-08-25T08:00	21900	43	-52.6		334	7	
2025-08-25T08:00	21950	43	-52.3		341	6	
2025-08-25T08:00	22000	42	-51.8		345	6	
2025-08-25T08:00	22050	42	-51.6		349	5	
2025-08-25T08:00	22100	42	-51.6		354	5	
2025-08-25T08:00	22150	41	-51.6		359	3	
2025-08-25T08:00	22200	41	-51.6		357	3	
2025-08-25T08:00	22250	41	-51.7		356	2	
2025-08-25T08:00	22300	40	-51.7		7	2	
2025-08-25T08:00	22350	40	-52.1		30	2	
2025-08-25T08:00	22400	40	-52.3		45	2	
2025-08-25T08:00	22450	39	-52.2		52	1	
2025-08-25T08:00	22500	39	-52.2		55	1	
2025-08-25T08:00	22550	39	-52.2		58	1	
2025-08-25T08:00	22600	38	-51.7		51	1	
2025-08-25T08:00	22650	38	-51.5		34	2	
2025-08-25T08:00	22700	38	-51.5		21	2	
2025-08-25T08:00	22750	38	-51.5		20	3	
2025-08-25T08:00	22800	37	-51.7		30	3	
2025-08-25T08:00	22850	37	-51.7		43	2	
2025-08-25T08:00	22900	37	-51.5		48	2	
2025-08-25T08:00	22950	36	-51.6		44	1	
2025-08-25T08:00	23000	36	-51.8		33	1	
2025-08-25T08:00	23050	36	-52.0		28	1	
2025-08-25T08:00	23100	36	-52.1		47	0	
2025-08-25T08:00	23150	35	-52.2		91	0	
2025-08-25T08:00	23200	35	-51.7		85	0	
2025-08-25T08:00	23250	35	-51.4		60	1	
2025-08-25T08:00	23300	35	-51.2		59	2	
2025-08-25T08:00	23350	34	-50.9		70	2	
2025-08-25T08:00	23400	34	-50.8		97	1	
2025-08-25T08:00	23450	34	-51.2		141	1	
2025-08-25T08:00	23500	34	-51.4		208	1	
2025-08-25T08:00	23550	33	-51.2		262	2	
2025-08-25T08:00	23600	33	-50.9		286	3	
2025-08-25T08:00	23650	33	-51.0		304	3	
2025-08-25T08:00	23700	33	-50.8		321	3	
2025-08-25T08:00	23750	32	-50.5		334	4	
2025-08-25T08:00	23800	32	-50.3		340	5	
2025-08-25T08:00	23850	32	-50.2		344	5	
2025-08-25T08:00	23900	32	-49.9		351	4	
2025-08-25T08:00	23950	31	-49.5		12	3	
2025-08-25T08:00	24000	31	-49.1		53	3	
2025-08-25T08:00	24050	31	-49.0		73	4	
2025-08-25T08:00	24100	31	-48.7		75	5	
2025-08-25T08:00	24150	30	-48.4		73	5	
2025-08-25T08:00	24200	30	-48.1		75	6	
2025-08-25T08:00	24250	30	-48.2		81	6	
2025-08-25T08:00	24300	30	-48.2		89	5	
2025-08-25T08:00	24350	29	-48.3		95	5	
2025-08-25T08:00	24400	29	-48.5		102	4	
2025-08-25T08:00	24450	29	-48.7		108	4	
2025-08-25T08:00	24500	29	-49.1		110	4	
2025-08-25T08:00	24550	29	-49.0		107	5	
2025-08-25T08:00	24600	28	-48.9		104	6	
2025-08-25T08:00	24650	28	-48.9		104	6	
2025-08-25T08:00	24700	28	-48.7		108	5	
2025-08-25T08:00	24750	28	-48.7		116	4	
2025-08-25T08:00	24800	27	-48.9		124	3	
2025-08-25T08:00	24850	27	-49.2		130	1	
2025-08-25T08:00	24900	27	-49.5		54	0	
2025-08-25T08:00	24950	27	-49.4		0	1	
2025-08-25T08:00	25000	27	-48.7		10	3	
2025-08-25T08:00	25050	26	-48.0		21	4	
2025-08-25T08:00	25100	26	-47.8		30	5	
2025-08-25T08:00	25150	26	-47.5		38	6	
2025-08-25T08:00	25200	26	-47.2		43	7	
2025-08-25T08:00	25250	26	-47.1		45	8	
2025-08-25T08:00	25300	25	-47.1		46	8	
2025-08-25T08:00	25350	25	-47.0		50	8	
2025-08-25T08:00	25400	25	-47.0		57	8	
2025-08-25T08:00	25450	25	-46.9		63	9	
2025-08-25T08:00	25500	25	-46.7		65	9	
2025-08-25T08:00	25550	25	-46.5		64	9	
2025-08-25T08:00	25600	24	-46.6		64	9	
2025-08-25T08:00	25650	24	-46.5		64	8	
2025-08-25T08:00	25700	24	-46.4		67	8	
2025-08-25T08:00	25750	24	-46.4		72	8	
2025-08-25T08:00	25800	24	-46.2		81	8	
2025-08-25T08:00	25850	23	-46.1		89	9	
2025-08-25T08:00	25900	23	-46.2		93	10	
2025-08-25T08:00	25950	23	-46.4		95	11	
2025-08-25T08:00	26000	23	-46.4		95	11	
2025-08-25T08:00	26050	23	-46.2		97	11	
2025-08-25T08:00	26100	23	-46.0		99	11	
2025-08-25T08:00	26150	22	-45.9		100	10	
2025-08-25T08:00	26200	22	-45.8		102	10	
2025-08-25T08:00	26250	22	-45.7		104	9	
2025-08-25T08:00	26300	22	-45.8		107	8	
2025-08-25T08:00	26350	22	-46.0		108	8	
2025-08-25T08:00	26400	22	-46.1		108	8	
2025-08-25T08:00	26450	21	-46.0		110	8	
2025-08-25T08:00	26500	21	-45.9		113	8	
2025-08-25T08:00	26550	21	-46.0		116	9	
2025-08-25T08:00	26600	21	-46.3		116	8	
2025-08-25T08:00	26650	21	-46.5		115	8	
2025-08-25T08:00	26700	21	-46.4		114	7	
2025-08-25T08:00	26750	20	-46.6		115	7	
2025-08-25T08:00	26800	20	-46.6		116	7	
2025-08-25T08:00	26850	20	-46.5		118	8	
2025-08-25T08:00	26900	20	-46.4		119	8	
2025-08-25T08:00	26950	20	-46.4		120	8	
2025-08-25T08:00	27000	20	-46.4		121	8	
2025-08-25T08:00	27050	20	-46.5		123	8	
2025-08-25T08:00	27100	19	-46.5		125	8	
2025-08-25T08:00	27150	19	-46.5		127	7	
2025-08-25T08:00	27200	19	-46.4		127	6	
2025-08-25T08:00	27250	19	-46.3		123	5	
2025-08-25T08:00	27300	19	-46.4		115	4	
2025-08-25T08:00	27350	19	-46.3		98	3	
2025-08-25T08:00	27400	19	-46.1		76	3	
2025-08-25T08:00	27450	18	-45.9		63	3	
2025-08-25T08:00	27500	18	-45.8		62	3	
2025-08-25T08:00	27550	18	-45.6		68	3	
2025-08-25T08:00	27600	18	-45.3		80	2	
2025-08-25T08:00	27650	18	-45.0		90	2	
2025-08-25T08:00	27700	18	-44.9		91	3	
2025-08-25T08:00	27750	18	-44.6		89	4	
2025-08-25T08:00	27800	17	-44.5		88	6	
2025-08-25T08:00	27850	17	-44.6		91	7	
2025-08-25T08:00	27900	17	-44.5		94	7	
2025-08-25T08:00	27950	17	-44.4		99	8	
2025-08-25T08:00	28000	17	-44.2		103	8	
2025-08-25T08:00	28050	17	-44.3		107	8	
2025-08-25T08:00	28100	17	-44.4		114	8	
2025-08-25T08:00	28150	17	-44.6		121	8	
2025-08-25T08:00	28200	16	-44.9		128	9	
2025-08-25T08:00	28250	16	-45.1		133	10	
2025-08-25T08:00	28300	16	-45.4		136	10	
2025-08-25T08:00	28350	16	-45.7		138	10	
2025-08-25T08:00	28400	16	-45.7		138	9	
2025-08-25T08:00	28450	16	-45.8		137	7	
2025-08-25T08:00	28500	16	-45.7		134	5	
2025-08-25T08:00	28550	16	-45.8		125	3	
2025-08-25T08:00	28600	16	-45.9		108	2	
2025-08-25T08:00	28650	15	-45.7		100	3	
2025-08-25T08:00	28700	15	-45.6		102	4	
2025-08-25T08:00	28750	15	-45.4		104	5	
2025-08-25T08:00	28800	15	-44.9		103	5	
2025-08-25T08:00	28850	15	-44.6		102	6	
2025-08-25T08:00	28900	15	-44.7		105	6	
2025-08-25T08:00	28950	15	-44.8		112	7	
2025-08-25T08:00	29000	15	-44.6		118	8	
2025-08-25T08:00	29050	14	-44.4		122	8	
2025-08-25T08:00	29100	14	-44.3		122	8	
2025-08-25T08:00	29150	14	-44.2		118	7	
2025-08-25T08:00	29200	14	-44.2		110	6	
2025-08-25T08:00	29250	14	-44.1		99	5	
2025-08-25T08:00	29300	14	-44.1		90	5	
2025-08-25T08:00	29350	14	-44.2		82	5	
2025-08-25T08:00	29400	14	-44.3		81	5	
2025-08-25T08:00	29450	14	-44.2		88	6	
2025-08-25T08:00	29500	14	-44.1		99	8	
2025-08-25T08:00	29550	13	-43.9		107	9	
2025-08-25T08:00	29600	13	-43.3		112	11	
2025-08-25T08:00	29650	13	-42.9		116	11	
2025-08-25T08:00	29700	13	-42.9		119	11	
2025-08-25T08:00	29750	13	-42.9		121	10	
2025-08-25T08:00	29800	13	-43.0		122	9	
2025-08-25T08:00	29850	13	-43.1		122	8	
2025-08-25T08:00	29900	13	-43.2		121	8	
2025-08-25T08:00	29950	13	-43.2		118	7	
2025-08-25T08:00	30000	13	-43.2		113	8	
2025-08-25T08:00	30050	12	-42.9		109	8	
2025-08-25T08:00	30100	12	-42.8		104	8	
2025-08-25T08:00	30150	12	-42.7		99	8	
2025-08-25T08:00	30200	12	-42.7		95	9	
2025-08-25T08:00	30250	12	-42.2		96	9	
2025-08-25T08:00	30300	12	-41.8		99	9	
2025-08-25T08:00	30350	12	-41.7		104	9	
2025-08-25T08:00	30400	12	-41.9		111	9	
2025-08-25T08:00	30450	12	-42.1		116	9	
2025-08-25T08:00	30500	12	-42.1		118	9	
2025-08-25T08:00	30550	12	-41.9		117	9	
2025-08-25T12:00	491	961	22.3	11.7	329	1	3.5
2025-08-25T12:00	501	960	21.2	11.6	335	2	3.6
2025-08-25T12:00	520	958	20.6	11.3	334	2	3.8
2025-08-25T12:00	540	956	20.4	11.1	332	2	3.9
2025-08-25T12:00	560	954	20.3	11.1	329	2	4.0
2025-08-25T12:00	580	952	20.0	11.0	321	2	4.1
2025-08-25T12:00	600	949	19.9	11.0	309	1	4.2
2025-08-25T12:00	620	947	19.8	11.0	297	1	4.3
2025-08-25T12:00	640	945	19.8	11.0	289	1	4.4
2025-08-25T12:00	660	943	19.6	10.9	284	1	4.4
2025-08-25T12:00	680	941	19.7	10.9	285	1	4.4
2025-08-25T12:00	700	938	19.4	11.0	295	1	4.4
2025-08-25T12:00	720	936	19.2	10.9	310	1	4.4
2025-08-25T12:00	740	934	19.0	10.9	327	1	4.4
2025-08-25T12:00	760	932	18.8	10.8	341	1	4.4
2025-08-25T12:00	780	930	18.7	10.9	349	1	4.4
2025-08-25T12:00	800	928	18.4	10.9	350	1	4.4
2025-08-25T12:00	820	925	18.1	10.9	348	1	4.4
2025-08-25T12:00	840	924	17.9	10.7	343	1	4.4
2025-08-25T12:00	860	921	17.6	10.6	336	1	4.4
2025-08-25T12:00	880	919	17.2	10.4	325	1	4.4
2025-08-25T12:00	900	917	17.1	10.4	314	2	4.4
2025-08-25T12:00	920	914	16.9	10.4	304	2	4.4
2025-08-25T12:00	940	912	16.9	10.4	296	2	4.4
2025-08-25T12:00	960	910	16.6	10.4	288	2	4.4
2025-08-25T12:00	980	908	16.3	10.4	282	2	4.4
2025-08-25T12:00	1000	906	16.3	10.4	275	3	4.5
2025-08-25T12:00	1020	904	16.1	10.5	269	3	4.5
2025-08-25T12:00	1040	902	15.9	10.4	263	3	4.5
2025-08-25T12:00	1060	900	15.8	10.2	258	3	4.4
2025-08-25T12:00	1080	898	15.5	10.1	252	4	4.4
2025-08-25T12:00	1100	896	15.4	10.0	246	4	4.4
2025-08-25T12:00	1120	893	15.2	10.1	242	5	4.5
2025-08-25T12:00	1140	891	15.0	10.1	238	5	4.5
2025-08-25T12:00	1160	889	14.9	10.0	236	6	4.5
2025-08-25T12:00	1180	887	14.7	9.8	235	6	4.4
2025-08-25T12:00	1200	885	14.5	9.4	234	7	4.5
2025-08-25T12:00	1220	883	14.4	9.4	234	7	4.4
2025-08-25T12:00	1240	881	14.2	8.9	234	8	4.4
2025-08-25T12:00	1260	879	14.2	8.6	234	8	4.4
2025-08-25T12:00	1280	877	14.1	8.3	234	8	4.4
2025-08-25T12:00	1300	875	14.1	7.9	234	9	4.4
2025-08-25T12:00	1320	873	14.1	7.4	234	9	4.4
2025-08-25T12:00	1340	870	14.0	6.9	234	9	4.5
2025-08-25T12:00	1360	869	14.0	6.5	234	10	4.4
2025-08-25T12:00	1380	867	14.0	6.1	235	10	4.4
2025-08-25T12:00	1400	865	14.0	5.1	236	10	4.5
2025-08-25T12:00	1420	862	14.1	3.6	236	11	4.6
2025-08-25T12:00	1440	860	14.2	2.6	237	11	4.6
2025-08-25T12:00	1460	858	14.3	1.3	238	11	4.6
2025-08-25T12:00	1480	856	14.7	-1.7	238	11	4.4
2025-08-25T12:00	1500	854	14.8	-2.5	239	11	4.5
2025-08-25T12:00	1520	852	14.8	-2.9	239	11	4.5
2025-08-25T12:00	1540	850	14.6	-2.8	239	10	4.6
2025-08-25T12:00	1560	848	14.4	-2.9	239	10	4.5
2025-08-25T12:00	1580	846	14.3	-2.9	239	10	4.5
2025-08-25T12:00	1600	844	14.1	-2.9	238	9	4.6
2025-08-25T12:00	1620	842	14.0	-2.9	237	9	4.5
2025-08-25T12:00	1640	840	13.8	-2.7	236	9	4.5
2025-08-25T12:00	1660	838	13.7	-2.7	236	9	4.5
2025-08-25T12:00	1680	836	13.5	-2.5	236	9	4.5
2025-08-25T12:00	1700	834	13.4	-2.3	237	9	4.5
2025-08-25T12:00	1720	832	13.3	-2.2	239	9	4.5
2025-08-25T12:00	1740	830	13.1	-2.2	241	9	4.5
2025-08-25T12:00	1760	828	12.9	-2.3	243	9	4.5
2025-08-25T12:00	1780	826	12.7	-2.3	246	9	4.7
2025-08-25T12:00	1800	824	12.6	-3.3	247	9	4.7
2025-08-25T12:00	1820	822	12.5	-4.3	247	9	4.5
2025-08-25T12:00	1840	820	12.6	-5.3	247	9	4.4
2025-08-25T12:00	1860	818	12.7	-6.9	245	9	4.3
2025-08-25T12:00	1880	816	12.9	-8.9	244	9	4.4
2025-08-25T12:00	1900	814	12.8	-8.8	242	9	4.4
2025-08-25T12:00	1920	813	12.7	-8.8	241	9	4.3
2025-08-25T12:00	1940	811	12.5	-9.0	240	9	4.3
2025-08-25T12:00	1960	809	12.4	-9.4	239	9	4.2
2025-08-25T12:00	1980	807	12.2	-9.4	239	9	4.2
2025-08-25T12:00	2000	805	12.0	-9.7	238	9	4.3
2025-08-25T12:00	2020	803	11.9	-9.9	238	9	4.2
2025-08-25T12:00	2040	801	11.6	-9.9	236	9	4.2
2025-08-25T12:00	2060	799	11.5	-10.1	235	9	4.2
2025-08-25T12:00	2080	797	11.4	-10.2	234	9	4.2
2025-08-25T12:00	2100	795	11.2	-10.4	233	9	4.2
2025-08-25T12:00	2120	793	11.2	-10.8	232	9	4.1
2025-08-25T12:00	2140	792	11.1	-10.8	232	9	4.1
2025-08-25T12:00	2160	790	10.9	-11.0	233	9	4.1
2025-08-25T12:00	2180	788	10.8	-12.0	234	9	4.1
2025-08-25T12:00	2200	786	10.6	-12.2	235	8	4.1
2025-08-25T12:00	2220	784	10.4	-12.4	237	8	4.1
2025-08-25T12:00	2240	782	10.3	-12.3	237	8	4.0
2025-08-25T12:00	2260	780	10.1	-11.9	238	8	4.0
2025-08-25T12:00	2280	778	10.0	-12.0	238	8	3.9
2025-08-25T12:00	2300	776	9.8	-12.1	239	8	3.9
2025-08-25T12:00	2320	774	9.6	-12.2	240	8	3.9
2025-08-25T12:00	2340	772	9.4	-12.2	241	8	3.9
2025-08-25T12:00	2360	771	9.3	-12.2	242	8	3.9
2025-08-25T12:00	2380	769	9.1	-12.3	242	8	3.9
2025-08-25T12:00	2400	767	8.9	-12.2	244	9	3.9
2025-08-25T12:00	2420	765	8.7	-12.2	244	9	3.8
2025-08-25T12:00	2440	763	8.6	-12.2	245	9	3.9
2025-08-25T12:00	2460	761	8.4	-12.1	245	9	3.9
2025-08-25T12:00	2480	760	8.2	-12.2	246	9	3.8
2025-08-25T12:00	2500	758	8.1	-12.1	245	9	3.8
2025-08-25T12:00	2520	756	7.9	-12.2	245	9	3.8
2025-08-25T12:00	2540	754	7.8	-12.8	245	9	3.8
2025-08-25T12:00	2560	752	7.7	-13.1	245	9	3.8
2025-08-25T12:00	2580	750	7.5	-13.4	245	9	3.8
2025-08-25T12:00	2600	749	7.4	-13.6	245	9	3.7
2025-08-25T12:00	2620	747	7.3	-14.8	245	9	3.7
2025-08-25T12:00	2640	745	7.2	-15.2	245	9	3.7
2025-08-25T12:00	2660	743	7.1	-14.6	245	9	3.7
2025-08-25T12:00	2680	741	7.1	-16.0	244	8	3.7
2025-08-25T12:00	2700	739	7.0	-16.3	243	8	3.8
2025-08-25T12:00	2720	738	6.9	-16.1	243	8	3.8
2025-08-25T12:00	2740	736	6.8	-16.0	242	8	3.8
2025-08-25T12:00	2760	734	6.7	-15.3	241	8	3.8
2025-08-25T12:00	2780	732	6.6	-15.2	241	8	3.9
2025-08-25T12:00	2800	731	6.4	-15.1	242	7	3.9
2025-08-25T12:00	2820	729	6.3	-15.2	244	7	4.0
2025-08-25T12:00	2840	727	6.1	-15.3	247	7	4.0
2025-08-25T12:00	2860	725	5.9	-15.5	250	7	3.9
2025-08-25T12:00	2880	724	5.8	-15.7	253	7	4.0
2025-08-25T12:00	2900	722	5.7	-16.2	255	7	4.0
2025-08-25T12:00	2920	720	5.7	-17.0	258	7	4.0
2025-08-25T12:00	2940	718	5.8	-17.4	259	7	4.1
2025-08-25T12:00	2960	716	5.7	-17.3	261	7	4.1
2025-08-25T12:00	2980	715	5.6	-17.4	261	7	4.2
2025-08-25T12:00	3000	713	5.4	-17.6	262	7	4.2
2025-08-25T12:00	3020	711	5.4	-17.7	263	7	4.2
2025-08-25T12:00	3040	709	5.1	-17.6	264	7	4.2
2025-08-25T12:00	3060	708	5.0	-17.5	264	7	4.2
2025-08-25T12:00	3080	706	4.8	-17.3	265	7	4.2
2025-08-25T12:00	3100	704	4.6	-17.4	265	7	4.2
2025-08-25T12:00	3120	703	4.5	-17.6	265	7	4.2
2025-08-25T12:00	3140	701	4.3	-17.6	264	7	4.2
2025-08-25T12:00	3160	699	4.2	-17.6	264	7	4.2
2025-08-25T12:00	3180	697	4.1	-17.2	263	7	4.1
2025-08-25T12:00	3200	696	4.0	-17.2	263	7	4.2
2025-08-25T12:00	3220	694	3.8	-16.8	263	7	4.2
2025-08-25T12:00	3240	692	3.7	-14.8	263	7	4.1
2025-08-25T12:00	3260	690	3.5	-15.1	264	6	4.1
2025-08-25T12:00	3280	689	3.3	-15.3	264	6	4.0
2025-08-25T12:00	3300	687	3.2	-14.9	265	6	4.0
2025-08-25T12:00	3320	685	3.0	-14.4	266	6	4.0
2025-08-25T12:00	3340	684	2.8	-14.8	267	6	4.0
2025-08-25T12:00	3360	682	2.7	-15.6	268	6	3.9
2025-08-25T12:00	3380	680	2.6	-16.6	268	7	3.9
2025-08-25T12:00	3400	679	2.4	-16.8	268	7	3.9
2025-08-25T12:00	3420	677	2.3	-15.7	268	7	3.9
2025-08-25T12:00	3440	675	2.2	-15.9	268	7	4.0
2025-08-25T12:00	3460	674	2.1	-16.8	267	7	4.0
2025-08-25T12:00	3480	672	2.0	-17.0	266	7	3.9
2025-08-25T12:00	3500	670	1.8	-15.3	266	7	3.9
2025-08-25T12:00	3520	669	1.8	-15.2	265	7	3.8
2025-08-25T12:00	3540	667	1.6	-15.7	265	7	3.8
2025-08-25T12:00	3560	665	1.4	-15.4	265	7	3.8
2025-08-25T12:00	3580	664	1.3	-14.8	265	7	3.7
2025-08-25T12:00	3600	662	1.1	-14.9	265	7	3.6
2025-08-25T12:00	3620	660	1.0	-14.7	266	7	3.7
2025-08-25T12:00	3640	659	0.9	-14.7	267	8	3.7
2025-08-25T12:00	3660	657	0.7	-14.7	268	8	3.7
2025-08-25T12:00	3680	655	0.6	-14.8	269	8	3.7
2025-08-25T12:00	3700	654	0.4	-14.7	270	8	3.7
2025-08-25T12:00	3720	652	0.3	-14.7	271	8	3.7
2025-08-25T12:00	3740	651	0.1	-14.7	272	8	3.7
2025-08-25T12:00	3760	649	0.0	-14.9	274	8	3.7
2025-08-25T12:00	3780	647	0.0	-15.7	275	8	3.7
2025-08-25T12:00	3800	646	-0.1	-15.2	277	8	3.7
2025-08-25T12:00	3820	644	-0.1	-12.6	279	8	3.6
2025-08-25T12:00	3840	643	-0.1	-12.4	281	8	3.6
2025-08-25T12:00	3860	641	-0.3	-12.4	283	8	3.5
2025-08-25T12:00	3880	639	-0.4	-12.8	285	8	3.4
2025-08-25T12:00	3900	638	-0.5	-14.5	287	8	3.4
2025-08-25T12:00	3920	636	-0.6	-14.4	288	8	3.4
2025-08-25T12:00	3940	635	-0.5	-14.7	289	8	3.5
2025-08-25T12:00	3960	633	-0.3	-17.5	290	8	3.6
2025-08-25T12:00	3980	631	-0.4	-17.7	291	8	3.7
2025-08-25T12:00	4000	630	-0.5	-17.6	291	8	3.7
2025-08-25T12:00	4020	628	-0.6	-18.1	292	8	3.7
2025-08-25T12:00	4040	626	-0.8	-19.4	292	8	3.6
2025-08-25T12:00	4060	625	-0.8	-20.1	293	8	3.6
2025-08-25T12:00	4080	623	-0.7	-21.1	293	7	3.5
2025-08-25T12:00	4100	622	-0.8	-20.8	294	7	3.6
2025-08-25T12:00	4120	620	-0.9	-18.6	294	7	3.6
2025-08-25T12:00	4140	619	-0.9	-17.6	294	7	3.6
2025-08-25T12:00	4160	617	-1.1	-17.7	294	7	3.5
2025-08-25T12:00	4180	616	-1.3	-17.8	294	7	3.3
2025-08-25T12:00	4200	614	-1.4	-18.8	294	7	3.2
2025-08-25T12:00	4220	613	-1.5	-19.2	294	7	3.2
2025-08-25T12:00	4240	611	-1.5	-18.6	294	6	3.2
2025-08-25T12:00	4260	610	-1.7	-18.7	295	6	3.1
2025-08-25T12:00	4280	608	-1.8	-19.0	296	6	3.0
2025-08-25T12:00	4300	607	-1.8	-19.7	297	6	3.1
2025-08-25T12:00	4320	605	-2.0	-20.1	298	6	3.1
2025-08-25T12:00	4340	603	-2.2	-20.5	298	6	3.1
2025-08-25T12:00	4360	602	-2.3	-20.7	299	6	3.1
2025-08-25T12:00	4380	600	-2.5	-20.7	299	6	3.2
2025-08-25T12:00	4400	599	-2.7	-20.3	299	6	3.4
2025-08-25T12:00	4420	597	-2.8	-20.4	299	6	3.4
2025-08-25T12:00	4440	596	-3.0	-20.7	298	6	3.3
2025-08-25T12:00	4460	594	-3.2	-20.5	297	7	3.3
2025-08-25T12:00	4480	593	-3.4	-19.8	296	7	3.3
2025-08-25T12:00	4500	591	-3.6	-19.2	295	7	3.2
2025-08-25T12:00	4520	590	-3.7	-18.7	294	8	3.1
2025-08-25T12:00	4540	588	-3.8	-18.9	293	8	3.0
2025-08-25T12:00	4560	587	-4.0	-18.9	292	8	2.9
2025-08-25T12:00	4580	585	-4.2	-18.8	292	8	2.8
2025-08-25T12:00	4600	584	-4.4	-18.7	292	8	2.7
2025-08-25T12:00	4620	582	-4.6	-18.8	292	7	2.7
2025-08-25T12:00	4640	581	-4.7	-19.0	291	7	2.6
2025-08-25T12:00	4660	580	-4.9	-19.1	291	8	2.6
2025-08-25T12:00	4680	578	-5.1	-19.1	290	8	2.6
2025-08-25T12:00	4700	577	-5.2	-19.1	289	8	2.6
2025-08-25T12:00	4720	575	-5.3	-19.4	289	8	2.5
2025-08-25T12:00	4740	574	-5.5	-19.9	289	8	2.6
2025-08-25T12:00	4760	572	-5.6	-20.5	288	8	2.6
2025-08-25T12:00	4780	571	-5.7	-20.6	289	8	2.7
2025-08-25T12:00	4800	569	-5.9	-20.6	289	8	2.7
2025-08-25T12:00	4820	568	-6.1	-20.5	289	7	2.7
2025-08-25T12:00	4840	566	-6.2	-20.8	290	7	2.8
2025-08-25T12:00	4860	565	-6.3	-21.0	290	7	2.8
2025-08-25T12:00	4880	563	-6.5	-20.9	291	7	2.9
2025-08-25T12:00	4900	562	-6.7	-20.9	291	7	2.9
2025-08-25T12:00	4920	561	-6.9	-21.0	292	7	2.9
2025-08-25T12:00	4940	559	-7.1	-21.0	292	7	2.9
2025-08-25T12:00	4960	558	-7.2	-21.1	293	7	2.9
2025-08-25T12:00	4980	556	-7.4	-21.0	294	7	3.0
2025-08-25T12:00	5000	555	-7.6	-21.2	295	7	3.0
2025-08-25T12:00	5020	554	-7.8	-21.4	296	7	3.0
2025-08-25T12:00	5040	552	-7.8	-21.6	297	7	3.0
2025-08-25T12:00	5060	551	-7.9	-21.7	297	7	3.0
2025-08-25T12:00	5080	549	-8.1	-22.3	298	7	3.0
2025-08-25T12:00	5100	548	-8.2	-23.0	298	8	3.0
2025-08-25T12:00	5120	546	-8.4	-23.3	297	8	3.1
2025-08-25T12:00	5140	545	-8.3	-24.1	296	8	3.1
2025-08-25T12:00	5160	544	-8.4	-24.3	294	8	3.2
2025-08-25T12:00	5180	542	-8.5	-23.8	292	9	3.3
2025-08-25T12:00	5200	541	-8.4	-26.8	291	9	3.4
2025-08-25T12:00	5220	539	-8.3	-29.0	289	9	3.3
2025-08-25T12:00	5240	538	-8.2	-28.1	288	9	3.1
2025-08-25T12:00	5260	537	-8.3	-27.7	287	9	3.1
2025-08-25T12:00	5280	535	-8.6	-27.8	285	9	3.1
2025-08-25T12:00	5300	534	-8.6	-27.6	285	9	3.2
2025-08-25T12:00	5320	532	-8.8	-25.9	284	9	3.2
2025-08-25T12:00	5340	531	-9.0	-25.2	283	9	3.1
2025-08-25T12:00	5360	530	-9.2	-24.8	283	8	3.0
2025-08-25T12:00	5380	528	-9.3	-25.7	283	8	3.0
2025-08-25T12:00	5400	527	-9.3	-26.5	283	8	3.0
2025-08-25T12:00	5420	526	-9.4	-26.7	283	8	3.0
2025-08-25T12:00	5440	524	-9.6	-26.6	283	8	3.0
2025-08-25T12:00	5460	523	-9.9	-26.5	283	8	3.0
2025-08-25T12:00	5480	522	-10.0	-26.7	283	8	3.1
2025-08-25T12:00	5500	520	-10.1	-27.0	283	8	3.1
2025-08-25T12:00	5520	519	-10.3	-27.4	282	8	3.1
2025-08-25T12:00	5540	517	-10.5	-27.8	282	8	3.2
2025-08-25T12:00	5560	516	-10.6	-28.0	282	8	3.2
2025-08-25T12:00	5580	515	-10.8	-28.5	281	8	3.2
2025-08-25T12:00	5600	513	-10.8	-29.7	281	8	3.2
2025-08-25T12:00	5620	512	-10.9	-30.5	281	8	3.3
2025-08-25T12:00	5640	511	-11.0	-30.9	281	8	3.4
2025-08-25T12:00	5660	509	-11.1	-31.2	281	7	3.4
2025-08-25T12:00	5680	508	-11.3	-31.3	280	7	3.5
2025-08-25T12:00	5700	507	-11.4	-31.3	280	7	3.5
2025-08-25T12:00	5720	506	-11.5	-30.2	279	7	3.5
2025-08-25T12:00	5740	504	-11.7	-27.8	278	7	3.5
2025-08-25T12:00	5760	503	-11.8	-27.7	277	7	3.5
2025-08-25T12:00	5780	502	-12.0	-28.3	276	7	3.4
2025-08-25T12:00	5800	500	-12.2	-28.1	275	7	3.3
2025-08-25T12:00	5820	499	-12.4	-28.6	274	7	3.3
2025-08-25T12:00	5840	498	-12.5	-28.2	273	7	3.3
2025-08-25T12:00	5860	497	-12.7	-27.9	273	7	3.3
2025-08-25T12:00	5880	495	-12.8	-28.3	272	8	3.3
2025-08-25T12:00	5900	494	-13.0	-28.5	272	8	3.2
2025-08-25T12:00	5920	492	-13.3	-28.6	272	8	3.1
2025-08-25T12:00	5940	491	-13.4	-29.3	272	9	3.1
2025-08-25T12:00	5960	490	-13.4	-30.1	272	9	3.1
2025-08-25T12:00	5980	488	-13.6	-30.6	273	9	3.1
2025-08-25T12:00	6000	487	-13.7	-30.9	274	9	3.0
2025-08-25T12:00	6020	486	-13.9	-31.1	276	9	3.0
2025-08-25T12:00	6040	485	-14.1	-31.4	277	9	3.1
2025-08-25T12:00	6060	484	-14.2	-31.7	278	9	3.1
2025-08-25T12:00	6080	482	-14.4	-31.8	280	10	3.1
2025-08-25T12:00	6100	481	-14.6	-32.0	281	10	3.1
2025-08-25T12:00	6120	480	-14.8	-32.1	281	10	3.1
2025-08-25T12:00	6140	478	-14.9	-32.2	281	10	3.1
2025-08-25T12:00	6160	477	-15.1	-32.3	281	10	3.1
2025-08-25T12:00	6180	476	-15.2	-32.4	281	9	3.1
2025-08-25T12:00	6200	475	-15.4	-32.6	280	9	3.1
2025-08-25T12:00	6220	473	-15.4	-33.8	280	9	3.1
2025-08-25T12:00	6240	472	-15.3	-35.4	279	9	3.1
2025-08-25T12:00	6260	471	-15.4	-35.8	278	9	3.1
2025-08-25T12:00	6280	470	-15.5	-35.3	278	9	3.2
2025-08-25T12:00	6300	468	-15.5	-35.2	277	9	3.2
2025-08-25T12:00	6320	467	-15.7	-35.2	277	9	3.2
2025-08-25T12:00	6340	466	-15.8	-35.3	277	9	3.2
2025-08-25T12:00	6360	465	-15.9	-35.7	276	9	3.2
2025-08-25T12:00	6380	463	-16.1	-35.5	276	9	3.3
2025-08-25T12:00	6400	462	-16.2	-35.2	276	9	3.3
2025-08-25T12:00	6420	461	-16.3	-35.4	275	9	3.2
2025-08-25T12:00	6440	460	-16.4	-35.9	275	9	3.2
2025-08-25T12:00	6460	458	-16.5	-36.2	275	9	3.3
2025-08-25T12:00	6480	457	-16.6	-35.6	275	9	3.3
2025-08-25T12:00	6500	456	-16.7	-35.6	274	9	3.3
2025-08-25T12:00	6520	455	-16.8	-35.8	274	9	3.3
2025-08-25T12:00	6540	454	-16.8	-36.0	274	9	3.3
2025-08-25T12:00	6560	452	-16.9	-35.9	273	9	3.3
2025-08-25T12:00	6580	451	-17.1	-36.0	273	9	3.4
2025-08-25T12:00	6600	450	-17.3	-36.1	273	9	3.4
2025-08-25T12:00	6620	449	-17.4	-36.3	273	9	3.3
2025-08-25T12:00	6640	448	-17.4	-36.6	273	9	3.4
2025-08-25T12:00	6660	447	-17.6	-36.8	273	9	3.3
2025-08-25T12:00	6680	445	-17.7	-36.9	273	9	3.2
2025-08-25T12:00	6700	444	-17.9	-37.0	273	9	3.1
2025-08-25T12:00	6720	443	-18.1	-37.0	273	9	3.1
2025-08-25T12:00	6740	442	-18.3	-37.2	274	9	3.1
2025-08-25T12:00	6760	440	-18.4	-37.6	274	9	3.1
2025-08-25T12:00	6780	439	-18.4	-38.1	274	9	3.1
2025-08-25T12:00	6800	438	-18.5	-38.2	274	9	3.1
2025-08-25T12:00	6820	437	-18.6	-38.0	275	9	3.1
2025-08-25T12:00	6840	436	-18.8	-37.8	275	9	3.1
2025-08-25T12:00	6860	435	-19.0	-37.7	275	9	3.1
2025-08-25T12:00	6880	433	-19.2	-38.1	275	9	3.1
2025-08-25T12:00	6900	432	-19.3	-38.2	275	9	3.1
2025-08-25T12:00	6920	431	-19.5	-38.3	275	9	3.1
2025-08-25T12:00	6940	430	-19.5	-39.1	275	9	3.1
2025-08-25T12:00	6960	429	-19.6	-40.1	276	9	3.1
2025-08-25T12:00	6980	428	-19.7	-40.7	276	9	3.1
2025-08-25T12:00	7000	426	-19.7	-41.2	277	9	3.1
2025-08-25T12:00	7020	425	-19.7	-41.6	277	9	3.1
2025-08-25T12:00	7040	424	-19.7	-41.9	277	9	3.1
2025-08-25T12:00	7060	423	-19.7	-42.2	277	9	3.2
2025-08-25T12:00	7080	422	-19.7	-41.5	277	9	3.3
2025-08-25T12:00	7100	421	-19.7	-41.0	276	9	3.3
2025-08-25T12:00	7120	420	-19.9	-40.9	276	9	3.3
2025-08-25T12:00	7140	418	-20.2	-40.2	276	9	3.4
2025-08-25T12:00	7160	417	-20.4	-39.9	275	9	3.4
2025-08-25T12:00	7180	416	-20.4	-40.2	275	9	3.4
2025-08-25T12:00	7200	415	-20.6	-40.3	275	10	3.4
2025-08-25T12:00	7220	414	-20.8	-40.1	275	10	3.4
2025-08-25T12:00	7240	413	-21.0	-39.8	274	10	3.4
2025-08-25T12:00	7260	412	-21.1	-39.9	274	10	3.4
2025-08-25T12:00	7280	411	-21.2	-40.2	273	10	3.4
2025-08-25T12:00	7300	410	-21.3	-41.0	272	10	3.3
2025-08-25T12:00	7320	409	-21.5	-40.9	271	10	3.3
2025-08-25T12:00	7340	407	-21.7	-40.9	271	10	3.3
2025-08-25T12:00	7360	406	-21.8	-41.0	270	10	3.3
2025-08-25T12:00	7380	405	-22.0	-41.4	270	10	3.3
2025-08-25T12:00	7400	404	-22.2	-41.6	270	10	3.2
2025-08-25T12:00	7420	403	-22.3	-41.6	270	10	3.1
2025-08-25T12:00	7440	402	-22.4	-41.5	270	10	3.1
2025-08-25T12:00	7460	401	-22.6	-41.5	270	10	3.0
2025-08-25T12:00	7480	400	-22.8	-41.5	270	10	2.9
2025-08-25T12:00	7500	398	-23.0	-41.7	270	10	2.8
2025-08-25T12:00	7520	397	-23.1	-42.0	269	10	2.8
2025-08-25T12:00	7540	396	-23.2	-42.0	269	10	2.8
2025-08-25T12:00	7560	395	-23.5	-42.1	269	10	2.8
2025-08-25T12:00	7580	394	-23.6	-42.1	269	11	2.7
2025-08-25T12:00	7600	393	-23.8	-42.3	269	11	2.7
2025-08-25T12:00	7620	392	-24.0	-42.3	269	11	2.7
2025-08-25T12:00	7640	391	-24.1	-42.4	269	11	2.7
2025-08-25T12:00	7660	390	-24.3	-42.5	269	11	2.7
2025-08-25T12:00	7680	389	-24.5	-42.2	269	11	2.8
2025-08-25T12:00	7700	388	-24.7	-41.6	269	11	2.8
2025-08-25T12:00	7720	387	-24.9	-41.6	269	11	2.7
2025-08-25T12:00	7740	386	-25.1	-41.1	269	11	2.7
2025-08-25T12:00	7760	385	-25.2	-40.8	268	12	2.7
2025-08-25T12:00	7780	384	-25.4	-40.9	268	12	2.6
2025-08-25T12:00	7800	382	-25.6	-40.7	268	12	2.5
2025-08-25T12:00	7820	381	-25.8	-40.8	267	12	2.5
2025-08-25T12:00	7840	380	-26.0	-40.8	267	12	2.5
2025-08-25T12:00	7860	379	-26.2	-40.7	267	12	2.4
2025-08-25T12:00	7880	378	-26.4	-40.9	266	12	2.4
2025-08-25T12:00	7900	377	-26.5	-41.4	266	12	2.4
2025-08-25T12:00	7920	376	-26.7	-41.5	266	12	2.3
2025-08-25T12:00	7940	375	-26.9	-41.4	266	13	2.3
2025-08-25T12:00	7960	374	-27.0	-41.5	266	13	2.3
2025-08-25T12:00	7980	373	-27.2	-41.4	267	13	2.3
2025-08-25T12:00	8000	372	-27.4	-41.4	267	13	2.3
2025-08-25T12:00	8020	371	-27.7	-41.6	267	13	2.3
2025-08-25T12:00	8040	370	-27.8	-43.8	268	13	2.3
2025-08-25T12:00	8060	369	-28.0	-45.8	269	12	2.3
2025-08-25T12:00	8080	368	-28.0	-44.5	269	12	2.3
2025-08-25T12:00	8100	367	-28.2	-43.6	269	12	2.4
2025-08-25T12:00	8120	366	-28.4	-42.5	270	12	2.4
2025-08-25T12:00	8140	365	-28.6	-42.6	270	12	2.4
2025-08-25T12:00	8160	364	-28.8	-42.7	270	12	2.4
2025-08-25T12:00	8180	363	-29.0	-42.6	270	11	2.4
2025-08-25T12:00	8200	362	-29.2	-42.5	271	11	2.4
2025-08-25T12:00	8220	361	-29.4	-42.6	271	11	2.4
2025-08-25T12:00	8240	360	-29.6	-42.7	271	11	2.3
2025-08-25T12:00	8260	359	-29.7	-42.8	272	11	2.3
2025-08-25T12:00	8280	358	-29.9	-42.7	272	11	2.3
2025-08-25T12:00	8300	357	-30.1	-42.7	272	11	2.3
2025-08-25T12:00	8320	356	-30.3	-42.8	273	11	2.3
2025-08-25T12:00	8340	355	-30.5	-42.9	273	11	2.3
2025-08-25T12:00	8360	354	-30.6	-43.0	273	11	2.3
2025-08-25T12:00	8380	353	-30.9	-42.9	273	11	2.3
2025-08-25T12:00	8400	352	-31.1	-43.0	274	11	2.2
2025-08-25T12:00	8420	351	-31.2	-43.0	274	11	2.2
2025-08-25T12:00	8440	350	-31.4	-43.0	274	11	2.2
2025-08-25T12:00	8460	349	-31.7	-43.0	274	11	2.2
2025-08-25T12:00	8480	348	-31.9	-43.1	274	11	2.2
2025-08-25T12:00	8500	347	-32.0	-43.3	274	11	2.2
2025-08-25T12:00	8520	346	-32.2	-43.2	274	11	2.2
2025-08-25T12:00	8540	345	-32.5	-43.1	274	11	2.2
2025-08-25T12:00	8560	344	-32.7	-43.2	275	11	2.2
2025-08-25T12:00	8580	343	-32.8	-43.5	275	11	2.2
2025-08-25T12:00	8600	342	-33.0	-43.5	275	11	2.2
2025-08-25T12:00	8620	341	-33.2	-43.6	276	11	2.2
2025-08-25T12:00	8640	340	-33.4	-43.6	276	11	2.1
2025-08-25T12:00	8660	339	-33.6	-43.6	276	11	2.1
2025-08-25T12:00	8680	338	-33.9	-43.4	277	11	2.1
2025-08-25T12:00	8700	337	-34.0	-43.7	277	12	2.1
2025-08-25T12:00	8720	336	-34.2	-44.0	277	12	2.1
2025-08-25T12:00	8740	335	-34.3	-44.1	278	12	2.1
2025-08-25T12:00	8760	334	-34.5	-44.0	278	12	2.1
2025-08-25T12:00	8780	333	-34.7	-43.8	278	12	2.1
2025-08-25T12:00	8800	332	-34.9	-43.9	278	12	2.1
2025-08-25T12:00	8820	331	-35.2	-43.9	277	12	2.1
2025-08-25T12:00	8840	330	-35.3	-44.1	277	12	2.1
2025-08-25T12:00	8860	329	-35.5	-44.3	277	12	2.1
2025-08-25T12:00	8880	329	-35.7	-44.1	277	12	2.1
2025-08-25T12:00	8900	328	-35.9	-44.0	277	12	2.1
2025-08-25T12:00	8920	327	-36.1	-44.1	277	12	2.1
2025-08-25T12:00	8940	326	-36.3	-44.1	277	12	2.1
2025-08-25T12:00	8960	325	-36.4	-44.3	277	12	2.1
2025-08-25T12:00	8980	324	-36.7	-44.1	277	12	2.1
2025-08-25T12:00	9000	323	-36.9	-44.1	277	12	2.1
2025-08-25T12:00	9020	322	-37.0	-44.2	278	12	2.1
2025-08-25T12:00	9040	321	-37.2	-44.5	278	12	2.1
2025-08-25T12:00	9060	320	-37.4	-45.0	278	12	2.1
2025-08-25T12:00	9080	319	-37.7	-44.8	278	12	2.1
2025-08-25T12:00	9100	318	-37.9	-44.6	278	12	2.1
2025-08-25T12:00	9120	317	-38.1	-44.8	278	12	2.1
2025-08-25T12:00	9140	316	-38.3	-45.1	278	12	2.1
2025-08-25T12:00	9160	315	-38.4	-45.2	278	12	2.1
2025-08-25T12:00	9180	315	-38.6	-45.3	278	12	2.1
2025-08-25T12:00	9200	314	-38.8	-45.0	278	12	2.1
2025-08-25T12:00	9220	313	-38.9	-45.0	278	12	2.1
2025-08-25T12:00	9240	312	-39.1	-45.5	278	12	2.1
2025-08-25T12:00	9260	311	-39.2	-46.7	277	12	2.1
2025-08-25T12:00	9280	310	-39.4	-48.5	277	11	2.1
2025-08-25T12:00	9300	309	-39.5	-50.4	276	11	2.1
2025-08-25T12:00	9320	308	-39.5	-50.8	275	11	2.1
2025-08-25T12:00	9340	307	-39.6	-50.0	274	11	2.1
2025-08-25T12:00	9360	306	-39.7	-49.5	273	10	2.2
2025-08-25T12:00	9380	306	-39.8	-49.7	272	10	2.2
2025-08-25T12:00	9400	305	-40.0	-49.6	271	10	2.2
2025-08-25T12:00	9420	304	-40.2	-49.7	270	10	2.2
2025-08-25T12:00	9440	303	-40.4	-49.8	269	10	2.3
2025-08-25T12:00	9460	302	-40.5	-50.0	268	10	2.4
2025-08-25T12:00	9480	301	-40.7	-50.2	267	10	2.4
2025-08-25T12:00	9500	300	-41.0	-50.1	267	10	2.4
2025-08-25T12:00	9520	299	-41.1	-50.1	266	10	2.4
2025-08-25T12:00	9540	298	-41.3	-50.3	265	10	2.4
2025-08-25T12:00	9560	298	-41.5	-51.0	264	10	2.4
2025-08-25T12:00	9580	297	-41.6	-51.6	264	10	2.4
2025-08-25T12:00	9600	296	-41.7	-52.1	263	10	2.5
2025-08-25T12:00	9620	295	-41.9	-52.8	263	10	2.5
2025-08-25T12:00	9640	294	-42.0	-53.0	262	11	2.5
2025-08-25T12:00	9660	293	-42.2	-53.6	262	11	2.5
2025-08-25T12:00	9680	292	-42.3	-54.6	262	11	2.5
2025-08-25T12:00	9700	291	-42.4	-54.8	263	11	2.5
2025-08-25T12:00	9720	291	-42.4	-54.5	263	11	2.5
2025-08-25T12:00	9740	290	-42.6	-54.1	264	11	2.6
2025-08-25T12:00	9760	289	-42.7	-53.2	264	11	2.5
2025-08-25T12:00	9780	288	-42.9	-52.5	264	11	2.5
2025-08-25T12:00	9800	287	-43.1	-52.3	264	11	2.5
2025-08-25T12:00	9820	286	-43.3	-52.6	263	11	2.5
2025-08-25T12:00	9840	285	-43.5	-52.8	262	11	2.5
2025-08-25T12:00	9860	285	-43.6	-53.3	261	11	2.5
2025-08-25T12:00	9880	284	-43.7	-54.8	259	11	2.5
2025-08-25T12:00	9900	283	-43.6	-56.1	258	11	2.4
2025-08-25T12:00	9920	282	-43.7	-55.7	257	11	2.4
2025-08-25T12:00	9940	281	-43.8	-55.2	256	12	2.3
2025-08-25T12:00	9960	280	-43.8	-55.1	256	12	2.3
2025-08-25T12:00	9980	280	-43.9	-55.2	255	12	2.2
2025-08-25T12:00	10000	279	-44.2	-55.3	255	12	2.2
2025-08-25T12:00	10018	278	-44.3	-55.4	255	12	2.3
2025-08-25T12:00	10050	277	-44.5	-55.9	255	12	2.3
2025-08-25T12:00	10100	275	-44.8	-56.1	253	12	2.4
2025-08-25T12:00	10150	273	-45.2	-57.0	252	11	2.4
2025-08-25T12:00	10200	270	-45.6	-57.2	251	11	2.4
2025-08-25T12:00	10250	268	-46.0	-56.5	250	11	2.3
2025-08-25T12:00	10300	266	-46.5	-56.1	250	11	2.3
2025-08-25T12:00	10350	264	-46.8	-56.9	250	12	2.3
2025-08-25T12:00	10400	262	-47.2	-56.9	250	12	2.3
2025-08-25T12:00	10450	261	-47.7	-57.0	249	12	2.3
2025-08-25T12:00	10500	258	-48.1	-56.7	248	13	2.3
2025-08-25T12:00	10550	257	-48.5	-54.7	247	13	2.3
2025-08-25T12:00	10600	255	-48.9	-53.7	247	12	2.3
2025-08-25T12:00	10650	253	-49.3	-52.8	246	12	2.2
2025-08-25T12:00	10700	251	-49.8	-56.0	245	12	2.2
2025-08-25T12:00	10750	249	-50.0	-59.9	244	12	2.1
2025-08-25T12:00	10800	247	-50.4	-59.2	244	12	2.1
2025-08-25T12:00	10850	245	-50.8	-58.8	243	11	2.1
2025-08-25T12:00	10900	243	-51.1	-58.6	241	11	2.1
2025-08-25T12:00	10950	241	-51.5	-58.2	239	11	2.1
2025-08-25T12:00	11000	239	-52.0	-57.5	237	12	2.1
2025-08-25T12:00	11050	238	-52.4	-57.3	235	12	2.1
2025-08-25T12:00	11100	236	-52.7	-57.3	235	13	2.1
2025-08-25T12:00	11150	234	-53.1	-59.3	235	13	2.1
2025-08-25T12:00	11200	232	-53.4	-60.2	235	13	2.2
2025-08-25T12:00	11250	230	-53.9	-60.3	236	13	2.2
2025-08-25T12:00	11300	229	-54.1	-60.9	236	12	2.2
2025-08-25T12:00	11350	227	-54.6	-61.4	238	12	2.2
2025-08-25T12:00	11400	225	-54.7	-62.4	239	12	2.2
2025-08-25T12:00	11450	223	-55.1	-63.1	240	11	2.2
2025-08-25T12:00	11500	222	-55.3	-63.2	241	11	2.1
2025-08-25T12:00	11550	220	-55.5	-63.6	242	11	2.2
2025-08-25T12:00	11600	218	-55.7	-64.5	242	11	2.2
2025-08-25T12:00	11650	216	-55.4	-66.2	242	11	2.2
2025-08-25T12:00	11700	215	-55.3	-67.4	244	11	2.2
2025-08-25T12:00	11750	213	-55.5	-67.4	248	11	2.2
2025-08-25T12:00	11800	211	-55.8	-67.4	253	11	2.2
2025-08-25T12:00	11850	210	-56.0	-67.4	257	11	2.3
2025-08-25T12:00	11900	208	-56.0	-67.8	259	11	2.3
2025-08-25T12:00	11950	207	-56.2	-68.1	260	11	2.4
2025-08-25T12:00	12000	205	-56.3	-68.5	260	11	2.4
2025-08-25T12:00	12050	203	-56.4	-69.0	258	11	2.5
2025-08-25T12:00	12100	202	-56.7	-68.7	258	11	2.5
2025-08-25T12:00	12150	200	-57.0	-68.5	260	12	2.4
2025-08-25T12:00	12200	198	-57.2	-68.3	262	12	2.3
2025-08-25T12:00	12250	197	-57.2	-68.2	265	12	2.2
2025-08-25T12:00	12300	195	-57.5	-68.4	269	12	2.2
2025-08-25T12:00	12350	194	-57.9	-68.8	273	12	2.1
2025-08-25T12:00	12400	192	-57.9	-72.0	277	12	2.2
2025-08-25T12:00	12450	191	-56.8	-81.9	276	13	2.8
2025-08-25T12:00	12500	189	-56.3	-81.7	276	13	3.7
2025-08-25T12:00	12550	188	-55.8	-76.6	278	14	4.2
2025-08-25T12:00	12600	186	-55.4	-77.9	282	14	4.5
2025-08-25T12:00	12650	185	-55.2	-80.6	286	14	4.7
2025-08-25T12:00	12700	183	-55.5	-79.6	291	15	4.8
2025-08-25T12:00	12750	182	-55.6	-78.2	294	15	4.8
2025-08-25T12:00	12800	181	-55.8	-77.5	296	14	4.5
2025-08-25T12:00	12850	179	-55.9	-77.6	296	14	4.3
2025-08-25T12:00	12900	178	-56.1	-78.9	297	15	4.1
2025-08-25T12:00	12950	176	-56.0	-80.3	298	15	4.2
2025-08-25T12:00	13000	175	-55.8	-80.9	300	16	4.5
2025-08-25T12:00	13050	174	-55.6	-80.9	303	16	4.7
2025-08-25T12:00	13100	172	-55.8	-80.9	307	15	4.9
2025-08-25T12:00	13150	171	-56.1	-80.8	310	15	5.0
2025-08-25T12:00	13200	170	-56.3	-80.8	311	14	5.0
2025-08-25T12:00	13250	168	-56.3	-81.4	311	14	5.0
2025-08-25T12:00	13300	167	-55.9	-81.9	309	14	5.1
2025-08-25T12:00	13350	166	-55.9	-82.1	309	14	5.4
2025-08-25T12:00	13400	164	-55.8	-82.3	309	15	5.5
2025-08-25T12:00	13450	163	-55.8	-82.4	309	15	5.6
2025-08-25T12:00	13500	162	-55.7	-82.5	309	16	5.8
2025-08-25T12:00	13550	160	-55.6	-82.6	310	16	5.9
2025-08-25T12:00	13600	159	-55.5	-82.5	312	17	5.9
2025-08-25T12:00	13650	158	-55.5	-82.5	313	18	5.9
2025-08-25T12:00	13700	157	-55.4	-82.5	315	18	6.0
2025-08-25T12:00	13750	155	-55.6	-82.5	316	18	5.9
2025-08-25T12:00	13800	154	-55.9	-82.6	317	18	5.9
2025-08-25T12:00	13850	153	-55.9	-82.6	317	18	5.8
2025-08-25T12:00	13900	152	-55.9	-82.7	316	18	5.6
2025-08-25T12:00	13950	151	-56.1	-82.9	316	18	5.6
2025-08-25T12:00	14000	150	-56.4	-82.9	316	18	5.6
2025-08-25T12:00	14050	148	-56.7	-83.0	317	17	5.6
2025-08-25T12:00	14100	147	-57.0	-83.1	317	17	5.7
2025-08-25T12:00	14150	146	-57.0	-83.3	319	16	5.6
2025-08-25T12:00	14200	145	-57.2	-83.4	321	16	5.7
2025-08-25T12:00	14250	144	-57.4	-83.4	322	15	5.8
2025-08-25T12:00	14300	143	-57.2	-83.4	321	15	5.8
2025-08-25T12:00	14350	141	-57.0	-83.4	319	16	5.5
2025-08-25T12:00	14400	140	-56.9	-83.4	316	16	5.2
2025-08-25T12:00	14450	139	-56.9	-83.3	315	16	4.9
2025-08-25T12:00	14500	138	-57.0	-83.4	315	17	4.7
2025-08-25T12:00	14550	137	-57.2	-83.4	316	18	4.6
2025-08-25T12:00	14600	136	-57.3	-83.6	316	18	4.5
2025-08-25T12:00	14650	135	-57.3	-83.5	316	18	4.4
2025-08-25T12:00	14700	134	-57.4	-83.5	318	18	4.3
2025-08-25T12:00	14750	133	-57.5	-83.7	323	18	4.2
2025-08-25T12:00	14800	132	-57.4	-83.6	327	18	4.3
2025-08-25T12:00	14850	131	-57.6	-83.8	330	18	4.3
2025-08-25T12:00	14900	130	-57.7	-83.9	333	17	4.3
2025-08-25T12:00	14950	129	-57.6	-83.8	334	16	4.3
2025-08-25T12:00	15000	128	-57.6	-83.8	333	15	4.3
2025-08-25T12:00	15050	127	-57.6	-83.7	330	15	4.2
2025-08-25T12:00	15100	126	-57.7	-83.8	329	14	4.1
2025-08-25T12:00	15150	125	-57.6	-83.8	331	14	3.9
2025-08-25T12:00	15200	124	-57.5	-83.8	331	14	3.7
2025-08-25T12:00	15250	123	-57.5	-83.9	329	13	3.7
2025-08-25T12:00	15300	122	-57.4	-84.0	324	12	3.8
2025-08-25T12:00	15350	121	-57.5	-84.3	319	12	4.0
2025-08-25T12:00	15400	120	-57.3	-84.4	317	13	4.2
2025-08-25T12:00	15450	119	-57.0	-84.4	316	14	4.4
2025-08-25T12:00	15500	118	-57.1	-84.6	317	15	4.4
2025-08-25T12:00	15550	117	-57.1	-84.6	317	15	4.5
2025-08-25T12:00	15600	116	-57.0	-84.4	316	14	4.6
2025-08-25T12:00	15650	115	-57.2	-84.5	314	13	4.6
2025-08-25T12:00	15700	114	-56.9	-84.5	312	12	4.4
2025-08-25T12:00	15750	113	-56.9	-84.5	310	13	4.3
2025-08-25T12:00	15800	112	-57.0	-84.7	311	14	4.3
2025-08-25T12:00	15850	112	-57.1	-84.8	311	15	4.4
2025-08-25T12:00	15900	111	-57.0	-84.9	311	15	4.6
2025-08-25T12:00	15950	110	-57.2	-85.1	312	15	4.7
2025-08-25T12:00	16000	109	-56.9	-85.0	312	16	5.0
2025-08-25T12:00	16050	108	-56.9	-85.1	314	17	5.2
2025-08-25T12:00	16100	107	-57.1	-85.2	316	17	5.4
2025-08-25T12:00	16150	106	-57.4	-85.2	319	16	5.7
2025-08-25T12:00	16200	106	-57.7	-85.2	319	15	5.8
2025-08-25T12:00	16250	105	-57.9	-85.5	316	15	5.7
2025-08-25T12:00	16300	104	-58.1	-85.5	312	15	5.7
2025-08-25T12:00	16350	103	-58.2	-85.6	309	14	5.7
2025-08-25T12:00	16400	102	-58.5	-85.8	307	14	5.7
2025-08-25T12:00	16450	101	-58.5	-86.0	308	13	5.7
2025-08-25T12:00	16500	101	-58.2	-85.9	308	13	5.8
2025-08-25T12:00	16550	100	-58.4	-85.8	306	12	5.8
2025-08-25T12:00	16600	99	-58.5	-85.7	304	12	5.7
2025-08-25T12:00	16650	98	-58.6	-85.8	306	12	5.4
2025-08-25T12:00	16700	97	-58.6	-85.7	307	13	5.3
2025-08-25T12:00	16750	97	-58.6	-85.8	309	14	5.3
2025-08-25T12:00	16800	96	-58.5	-85.8	312	14	5.4
2025-08-25T12:00	16850	95	-58.5	-85.9	314	13	5.4
2025-08-25T12:00	16900	94	-58.5	-86.1	312	12	5.4
2025-08-25T12:00	16950	94	-58.6	-86.3	308	12	5.7
2025-08-25T12:00	17000	93	-58.7	-86.3	306	11	5.9
2025-08-25T12:00	17050	92	-58.8	-86.4	308	11	5.9
2025-08-25T12:00	17100	91	-58.8	-86.4	307	10	5.9
2025-08-25T12:00	17150	91	-58.9	-86.4	306	10	5.9
2025-08-25T12:00	17200	90	-59.0	-86.5	307	10	6.0
2025-08-25T12:00	17250	89	-59.0	-86.6	310	11	6.1
2025-08-25T12:00	17300	89	-58.8	-86.6	314	11	6.2
2025-08-25T12:00	17350	88	-58.9	-86.7	316	10	6.2
2025-08-25T12:00	17400	87	-59.0	-86.7	316	10	6.2
2025-08-25T12:00	17450	86	-59.2	-86.7	314	9	6.3
2025-08-25T12:00	17500	86	-59.4	-86.8	315	9	6.4
2025-08-25T12:00	17550	85	-59.3	-86.9	318	9	6.5
2025-08-25T12:00	17600	84	-59.0	-86.9	323	10	6.7
2025-08-25T12:00	17650	84	-58.9	-86.9	325	10	7.0
2025-08-25T12:00	17700	83	-58.8	-86.9	323	9	7.2
2025-08-25T12:00	17750	82	-58.8	-86.8	316	8	7.4
2025-08-25T12:00	17800	82	-58.9	-86.9	309	8	7.5
2025-08-25T12:00	17850	81	-58.8	-87.0	306	8	7.4
2025-08-25T12:00	17900	81	-58.7	-87.1	308	9	7.5
2025-08-25T12:00	17950	80	-58.3	-87.0	313	10	7.6
2025-08-25T12:00	18000	79	-58.1	-87.0	317	10	7.8
2025-08-25T12:00	18050	79	-58.1	-87.0	317	10	8.0
2025-08-25T12:00	18100	78	-58.1	-86.9	317	9	8.1
2025-08-25T12:00	18150	77	-58.1	-86.9	318	8	8.3
2025-08-25T12:00	18200	77	-58.0	-86.9	317	8	8.6
2025-08-25T12:00	18250	76	-57.8	-87.0	309	8	9.0
2025-08-25T12:00	18300	76	-57.8	-86.9	304	8	9.4
2025-08-25T12:00	18350	75	-57.8	-86.9	304	8	9.6
2025-08-25T12:00	18400	74	-57.6	-86.9	302	8	9.7
2025-08-25T12:00	18450	74	-57.5	-86.9	299	8	9.8
2025-08-25T12:00	18500	73	-57.5	-86.9	298	8	9.8
2025-08-25T12:00	18550	73	-57.3	-86.9	299	8	9.8
2025-08-25T12:00	18600	72	-57.4	-86.8	304	8	9.9
2025-08-25T12:00	18650	71	-57.5	-86.8	308	8	10.0
2025-08-25T12:00	18700	71	-57.4	-86.9	309	8	10.1
2025-08-25T12:00	18750	70	-57.3	-86.9	311	8	10.1
2025-08-25T12:00	18800	70	-57.3	-86.8	309	8	10.2
2025-08-25T12:00	18850	69	-57.5	-86.9	301	8	10.2
2025-08-25T12:00	18900	69	-57.6	-86.9	298	8	10.3
2025-08-25T12:00	18950	68	-57.8	-87.0	301	8	10.2
2025-08-25T12:00	19000	68	-58.0	-87.1	306	9	10.2
2025-08-25T12:00	19050	67	-57.7	-87.2	310	8	10.2
2025-08-25T12:00	19100	67	-57.3	-87.2	315	8	10.2
2025-08-25T12:00	19150	66	-56.9	-87.2	319	8	10.3
2025-08-25T12:00	19200	66	-56.6	-87.1	319	8	10.3
2025-08-25T12:00	19250	65	-56.7	-87.1	320	8	10.2
2025-08-25T12:00	19300	64	-56.8	-87.0	323	8	10.3
2025-08-25T12:00	19350	64	-56.7	-86.9	325	7	10.3
2025-08-25T12:00	19400	63	-56.8	-86.9	321	8	10.3
2025-08-25T12:00	19450	63	-56.9	-87.0	315	9	10.3
2025-08-25T12:00	19500	62	-56.9	-87.1	312	10	10.4
2025-08-25T12:00	19550	62	-56.7	-87.1	315	10	10.5
2025-08-25T12:00	19600	62	-56.7	-87.0	319	9	10.5
2025-08-25T12:00	19650	61	-56.8	-87.0	320	8	10.6
2025-08-25T12:00	19700	61	-56.9	-87.1	319	8	10.6
2025-08-25T12:00	19750	60	-56.8	-87.1	319	9	10.7
2025-08-25T12:00	19800	60	-56.8	-87.2	320	8	10.7
2025-08-25T12:00	19850	59	-56.4	-87.0	324	7	10.7
2025-08-25T12:00	19900	59	-56.4	-87.1	328	5	10.7
2025-08-25T12:00	19950	58	-56.1	-87.1	324	5	10.9
2025-08-25T12:00	20000	58	-55.7	-87.1	320	6	10.8
2025-08-25T12:00	20050	57	-55.3		321	5	10.9
2025-08-25T12:00	20100	57	-55.1		325	5	10.9
2025-08-25T12:00	20150	56	-54.9		332	5	11.0
2025-08-25T12:00	20200	56	-54.3		342	6	10.9
2025-08-25T12:00	20250	56	-53.9		353	6	11.0
2025-08-25T12:00	20300	55	-53.6		4	5	11.0
2025-08-25T12:00	20350	55	-53.3		12	4	11.1
2025-08-25T12:00	20400	54	-53.4		22	2	11.0
2025-08-25T12:00	20450	54	-53.5		79	1	10.9
2025-08-25T12:00	20500	53	-53.6		156	1	11.0
2025-08-25T12:00	20550	53	-53.5		169	2	10.9
2025-08-25T12:00	20600	53	-53.8		178	3	11.0
2025-08-25T12:00	20650	52	-54.2		189	3	10.9
2025-08-25T12:00	20700	52	-54.7		200	4	10.8
2025-08-25T12:00	20750	51	-55.1		210	4	10.7
2025-08-25T12:00	20800	51	-55.5		223	4	10.7
2025-08-25T12:00	20850	51	-55.5		244	2	10.7
2025-08-25T12:00	20900	50	-55.3		291	1	10.7
2025-08-25T12:00	20950	50	-55.3		344	1	10.6
2025-08-25T12:00	21000	49	-55.3		353	2	10.6
2025-08-25T12:00	21050	49	-55.1		339	2	10.5
2025-08-25T12:00	21100	49	-55.3		311	2	10.6
2025-08-25T12:00	21150	48	-55.6		300	3	10.6
2025-08-25T12:00	21200	48	-55.4		298	4	10.8
2025-08-25T12:00	21250	47	-54.3		301	5	11.4
2025-08-25T12:00	21300	47	-53.3		307	6	12.0
2025-08-25T12:00	21350	47	-52.7		306	4	12.5
2025-08-25T12:00	21400	46	-52.1		302	3	12.9
2025-08-25T12:00	21450	46	-52.0		309	3	13.0
2025-08-25T12:00	21500	46	-51.8		322	4	13.1
2025-08-25T12:00	21550	45	-52.0		339	4	13.2
2025-08-25T12:00	21600	45	-52.1		354	4	13.2
2025-08-25T12:00	21650	45	-52.0		3	4	13.1
2025-08-25T12:00	21700	44	-51.5		17	3	13.0
2025-08-25T12:00	21750	44	-51.5		43	2	13.0
2025-08-25T12:00	21800	44	-51.4		53	3	12.9
2025-08-25T12:00	21850	43	-51.3		50	3	12.9
2025-08-25T12:00	21900	43	-51.3		46	3	12.9
2025-08-25T12:00	21950	43	-51.3		48	3	12.9
2025-08-25T12:00	22000	42	-51.3		69	2	12.7
2025-08-25T12:00	22050	42	-51.6		138	1	12.6
2025-08-25T12:00	22100	42	-51.6		171	2	12.5
2025-08-25T12:00	22150	41	-51.7		201	2	12.5
2025-08-25T12:00	22200	41	-51.8		219	2	12.5
2025-08-25T12:00	22250	41	-51.8		217	2	12.4
2025-08-25T12:00	22300	40	-51.4		212	2	12.4
2025-08-25T12:00	22350	40	-51.2		218	3	12.2
2025-08-25T12:00	22400	40	-50.9		224	3	11.8
2025-08-25T12:00	22450	39	-50.5		220	3	11.4
2025-08-25T12:00	22500	39	-50.5		205	3	11.1
2025-08-25T12:00	22550	39	-50.6		190	3	10.8
2025-08-25T12:00	22600	39	-50.5		182	4	10.7
2025-08-25T12:00	22650	38	-50.7		177	4	10.7
2025-08-25T12:00	22700	38	-50.7		174	4	10.7
2025-08-25T12:00	22750	38	-50.6		173	3	10.8
2025-08-25T12:00	22800	37	-50.7		183	2	10.9
2025-08-25T12:00	22850	37	-50.8		207	1	10.9
2025-08-25T12:00	22900	37	-50.7		216	1	11.0
2025-08-25T12:00	22950	37	-50.6		195	1	11.0
2025-08-25T12:00	23000	36	-50.5		180	2	11.1
2025-08-25T12:00	23050	36	-50.3		182	2	11.4
2025-08-25T12:00	23100	36	-50.1		189	2	11.6
2025-08-25T12:00	23150	35	-50.2		203	2	11.7
2025-08-25T12:00	23200	35	-50.0		235	1	11.8
2025-08-25T12:00	23250	35	-50.0		270	2	12.0
2025-08-25T12:00	23300	35	-50.2		287	2	12.2
2025-08-25T12:00	23350	34	-50.0		303	2	12.4
2025-08-25T12:00	23400	34	-49.8		319	3	12.6
2025-08-25T12:00	23450	34	-49.5		328	3	12.8
2025-08-25T12:00	23500	34	-49.3		335	2	13.0
2025-08-25T12:00	23550	33	-48.9		21	1	13.3
2025-08-25T12:00	23600	33	-48.4		76	2	13.5
2025-08-25T12:00	23650	33	-48.2		88	3	13.7
2025-08-25T12:00	23700	33	-48.2		105	3	14.0
2025-08-25T12:00	23750	32	-47.8		130	3	14.1
2025-08-25T12:00	23800	32	-47.8		152	4	14.3
2025-08-25T12:00	23850	32	-48.1		166	5	14.4
2025-08-25T12:00	23900	32	-48.4		174	6	14.5
2025-08-25T12:00	23950	31	-48.6		182	7	14.5
2025-08-25T12:00	24000	31	-48.8		186	7	14.5
2025-08-25T12:00	24050	31	-48.6		181	6	14.5
2025-08-25T12:00	24100	31	-48.1		175	6	14.5
2025-08-25T12:00	24150	30	-47.8		177	6	14.4
2025-08-25T12:00	24200	30	-48.0		183	6	14.5
2025-08-25T12:00	24250	30	-48.2		188	5	14.4
2025-08-25T12:00	24300	30	-48.4		192	5	14.3
2025-08-25T12:00	24350	30	-48.6		198	5	14.3
2025-08-25T12:00	24400	29	-48.8		209	4	14.1
2025-08-25T12:00	24450	29	-48.9		215	4	14.0
2025-08-25T12:00	24500	29	-48.9		209	4	14.0
2025-08-25T12:00	24550	29	-48.9		198	4	13.9
2025-08-25T12:00	24600	28	-49.0		190	5	13.9
2025-08-25T12:00	24650	28	-48.8		184	4	13.8
2025-08-25T12:00	24700	28	-48.6		175	4	13.7
2025-08-25T12:00	24750	28	-48.9		163	3	13.8
2025-08-25T12:00	24800	28	-49.1		147	2	13.7
2025-08-25T12:00	24850	27	-49.2		106	1	13.7
2025-08-25T12:00	24900	27	-49.3		64	2	13.7
2025-08-25T12:00	24950	27	-49.3		54	3	13.6
2025-08-25T12:00	25000	27	-49.3		56	4	13.5
2025-08-25T12:00	25050	27	-49.4		65	5	13.5
2025-08-25T12:00	25100	26	-49.0		75	7	13.5
2025-08-25T12:00	25150	26	-48.9		82	8	13.5
2025-08-25T12:00	25200	26	-49.0		88	9	13.4
2025-08-25T12:00	25250	26	-49.1		94	9	13.3
2025-08-25T12:00	25300	26	-49.2		101	10	13.4
2025-08-25T12:00	25350	25	-49.5		109	10	13.3
2025-08-25T12:00	25400	25	-49.9		116	9	13.3
2025-08-25T12:00	25450	25	-50.2		120	9	13.2
2025-08-25T12:00	25500	25	-50.3		122	8	13.1
2025-08-25T12:00	25550	25	-50.5		122	7	13.1
2025-08-25T12:00	25600	24	-50.5		121	7	13.1
2025-08-25T12:00	25650	24	-50.5		119	7	13.1
2025-08-25T12:00	25700	24	-50.4		117	7	13.1
2025-08-25T12:00	25750	24	-50.3		117	7	13.3
2025-08-25T12:00	25800	24	-50.1		117	8	13.3
2025-08-25T12:00	25850	23	-50.2		117	8	13.2
2025-08-25T12:00	25900	23	-49.9		121	8	13.1
2025-08-25T12:00	25950	23	-49.5		127	7	13.1
2025-08-25T12:00	26000	23	-49.6		134	7	13.1
2025-08-25T12:00	26050	23	-50.0		137	6	13.0
2025-08-25T12:00	26100	23	-50.3		141	6	12.9
2025-08-25T12:00	26150	22	-50.1		150	5	12.9
2025-08-25T12:00	26200	22	-49.7		159	6	13.0
2025-08-25T12:00	26250	22	-49.7		165	6	12.9
2025-08-25T12:00	26300	22	-50.0		168	6	12.9
2025-08-25T12:00	26350	22	-50.2		164	5	12.8
2025-08-25T12:00	26400	22	-49.8		153	4	12.8
2025-08-25T12:00	26450	21	-49.4		144	4	12.7
2025-08-25T12:00	26500	21	-49.3		145	4	12.6
2025-08-25T12:00	26550	21	-49.2		151	4	12.6
2025-08-25T12:00	26600	21	-49.3		158	3	12.5
2025-08-25T12:00	26650	21	-49.1		161	2	12.5
2025-08-25T12:00	26700	21	-48.7		152	2	12.3
2025-08-25T12:00	26750	20	-48.4		135	2	12.2
2025-08-25T12:00	26800	20	-48.0		123	2	12.2
2025-08-25T12:00	26850	20	-47.9		118	3	12.1
2025-08-25T12:00	26900	20	-47.8		117	4	12.2
2025-08-25T12:00	26950	20	-47.7		120	5	12.1
2025-08-25T12:00	27000	20	-47.6		123	5	12.1
2025-08-25T12:00	27050	20	-47.4		127	4	12.1
2025-08-25T12:00	27100	19	-47.3		129	3	12.0
2025-08-25T12:00	27150	19	-47.5		122	3	11.9
2025-08-25T12:00	27200	19	-47.6		107	3	11.9
2025-08-25T12:00	27250	19	-47.4		95	3	11.9
2025-08-25T12:00	27300	19	-47.1		87	4	11.8
2025-08-25T12:00	27350	19	-46.9		81	5	11.8
2025-08-25T12:00	27400	19	-46.8		75	6	11.8
2025-08-25T12:00	27450	18	-46.6		74	7	11.6
2025-08-25T12:00	27500	18	-46.4		76	7	11.6
2025-08-25T12:00	27550	18	-46.3		79	7	11.5
2025-08-25T12:00	27600	18	-46.3		78	6	11.5
2025-08-25T12:00	27650	18	-46.1		74	6	11.5
2025-08-25T12:00	27700	18	-46.0		71	6	11.5
2025-08-25T12:00	27750	18	-46.0		72	6	11.5
2025-08-25T12:00	27800	17	-46.1		74	6	11.4
2025-08-25T12:00	27850	17	-46.1		78	7	11.3
2025-08-25T12:00	27900	17	-46.1		80	8	11.3
2025-08-25T12:00	27950	17	-46.1		81	7	11.2
2025-08-25T12:00	28000	17	-45.8		82	7	11.2
2025-08-25T12:00	28050	17	-45.5		85	6	11.2
2025-08-25T12:00	28100	17	-45.4		92	5	11.3
2025-08-25T12:00	28150	17	-45.5		96	4	11.4
2025-08-25T12:00	28200	16	-45.7		92	3	11.4
2025-08-25T12:00	28250	16	-45.6		74	3	11.3
2025-08-25T12:00	28300	16	-45.2		59	5	11.3
2025-08-25T12:00	28350	16	-44.9		53	6	11.3
2025-08-25T12:00	28400	16	-44.5		50	8	11.3
2025-08-25T12:00	28450	16	-44.3		51	10	11.3
2025-08-25T12:00	28500	16	-44.3		56	10	11.3
2025-08-25T12:00	28550	16	-44.3		61	11	11.2
2025-08-25T12:00	28600	15	-44.1		65	10	11.2
2025-08-25T12:00	28650	15	-43.9		69	10	11.1
2025-08-25T12:00	28700	15	-43.9		74	10	11.1
2025-08-25T12:00	28750	15	-43.8		78	10	11.0
2025-08-25T12:00	28800	15	-43.7		79	10	10.9
2025-08-25T12:00	28850	15	-43.6		80	8	10.8
2025-08-25T12:00	28900	15	-43.7		85	7	10.7
2025-08-25T12:00	28950	15	-43.9		94	6	10.6
2025-08-25T12:00	29000	15	-44.0		96	6	10.5
2025-08-25T12:00	29050	14	-43.8		90	6	10.4
2025-08-25T12:00	29100	14	-43.7		83	7	10.3
2025-08-25T12:00	29150	14	-43.7		80	9	10.3
2025-08-25T12:00	29200	14	-43.7		79	10	10.2
2025-08-25T12:00	29250	14	-43.7		77	12	10.1
2025-08-25T12:00	29300	14	-43.7		77	12	10.0
2025-08-25T12:00	29350	14	-43.7		79	12	10.0
2025-08-25T12:00	29400	14	-43.7		84	12	10.0
2025-08-25T12:00	29450	14	-43.6		89	11	9.9
2025-08-25T12:00	29500	14	-43.7		95	10	9.8
2025-08-25T12:00	29550	13	-43.9		100	10	9.8
2025-08-25T12:00	29600	13	-43.8		104	9	9.7
2025-08-25T12:00	29650	13	-43.8		107	9	9.6
2025-08-25T12:00	29700	13	-43.8		106	8	9.6
2025-08-25T12:00	29750	13	-43.6		103	7	9.5
2025-08-25T12:00	29800	13	-43.4		98	7	9.4
2025-08-25T12:00	29850	13	-43.2		94	7	9.4
2025-08-25T12:00	29900	13	-43.2		90	7	9.3
2025-08-25T12:00	29950	13	-43.3		85	7	9.4
2025-08-25T12:00	30000	13	-43.3		81	7	9.2
2025-08-25T12:00	30050	12	-43.3		80	8	9.2
2025-08-25T12:00	30100	12	-43.2		81	8	9.2
2025-08-25T12:00	30150	12	-42.9		83	9	9.1
2025-08-25T12:00	30200	12	-42.6		85	10	9.0
2025-08-25T12:00	30250	12	-42.4		86	10	9.0
2025-08-25T12:00	30300	12	-42.5		88	9	8.9
2025-08-25T12:00	30350	12	-42.6		91	9	8.8
2025-08-25T12:00	30400	12	-42.8		92	8	8.7
2025-08-25T12:00	30450	12	-42.9		89	7	8.7
2025-08-25T12:00	30500	12	-42.6		80	6	8.7
2025-08-25T12:00	30550	12	-42.4		72	7	8.6
2025-08-25T12:00	30600	12	-42.0		69	8	8.6
2025-08-25T12:00	30650	11	-41.7		73	9	8.5
2025-08-25T12:00	30700	11	-40.9		78	10	8.4
2025-08-25T12:00	30750	11	-40.3		81	10	8.3
2025-08-25T12:00	30800	11	-40.3		85	11	8.3
2025-08-25T12:00	30850	11	-40.4		88	11	8.2
2025-08-25T12:00	30900	11	-40.1		87	11	8.2
2025-08-25T12:00	30950	11	-39.9		82	10	8.1
2025-08-25T12:00	31000	11	-40.0		76	10	8.0
2025-08-25T12:00	31050	11	-40.1		70	10	7.9
2025-08-25T12:00	31100	11	-40.3		67	10	7.9
2025-08-25T12:00	31150	11	-40.4		67	11	7.8
2025-08-25T12:00	31200	11	-40.4		71	11	7.7
2025-08-25T12:00	31250	10	-40.4		78	11	7.7
2025-08-25T12:00	31300	10	-40.3		85	12	7.6
2025-08-25T12:00	31350	10	-39.9		93	13	7.6
2025-08-25T12:00	31400	10	-39.7		101	13	7.5
2025-08-25T12:00	31450	10	-39.8		107	13	7.5
2025-08-25T12:00	31500	10	-39.7		110	13	7.4
2025-08-25T12:00	31550	10	-39.7		111	12	7.4
2025-08-25T12:00	31600	10	-39.7		108	10	7.3
2025-08-25T12:00	31650	10	-39.6		102	10	7.2
2025-08-25T12:00	31700	10	-39.4		94	9	7.2
2025-08-25T12:00	31750	10	-39.3		86	9	7.1
2025-08-25T12:00	31800	10	-39.3		79	9	7.1
2025-08-25T12:00	31850	10	-39.1		74	9	7.1
2025-08-25T12:00	31900	10	-39.0		73	10	7.0
2025-08-25T12:00	31950	9	-39.0		76	10	7.0
2025-08-25T12:00	32000	9	-39.1		79	10	6.9
2025-08-25T12:00	32050	9	-39.2		83	10	6.8
2025-08-25T12:00	32100	9	-39.1		89	10	6.7
2025-08-25T12:00	32150	9	-38.9		91	10	6.7
2025-08-25T12:00	32200	9	-38.8		88	10	6.7
2025-08-25T12:00	32250	9	-38.9		81	10	6.6
2025-08-25T12:00	32300	9	-38.8		73	9	6.5
2025-08-25T12:00	32350	9	-38.7		63	9	6.5
2025-08-25T12:00	32400	9	-38.6		56	9	6.4
2025-08-25T12:00	32450	9	-38.6		51	10	6.4
2025-08-25T12:00	32500	9	-38.6		51	11	6.3
2025-08-25T12:00	32550	9	-38.6		55	11	6.3
2025-08-25T12:00	32600	9	-38.5		63	11	6.2
2025-08-25T12:00	32650	9	-38.5		74	11	6.2
2025-08-25T12:00	32700	8	-38.3		85	11	6.2
2025-08-25T12:00	32750	8	-38.4		93	11	6.1
2025-08-25T12:00	32800	8	-38.5		100	11	6.1
2025-08-25T12:00	32850	8	-38.6		105	12	6.0
2025-08-25T12:00	32900	8	-38.7		107	12	6.0
2025-08-25T12:00	32950	8	-38.7		108	12	5.9
2025-08-25T12:00	33000	8	-38.8		109	12	5.9
2025-08-25T12:00	33050	8	-38.8		110	12	5.8
2025-08-25T12:00	33100	8	-38.9		113	11	5.8
2025-08-25T12:00	33150	8	-38.9		116	11	5.8
2025-08-25T12:00	33200	8	-39.0		117	11	5.7
2025-08-25T12:00	33250	8	-39.1		115	11	5.7
2025-08-25T12:00	33300	8	-39.1		113	10	5.7
2025-08-25T12:00	33350	8	-39.2		109	10	5.6
2025-08-25T12:00	33400	8	-39.3		105	10	5.6
2025-08-25T12:00	33450	8	-39.3		99	9	5.5
2025-08-25T12:00	33500	8	-39.1		92	9	5.5
2025-08-25T12:00	33550	7	-38.7		85	8	5.5
2025-08-25T12:00	33600	7	-38.4		79	8	5.4
2025-08-25T12:00	33650	7	-38.2		79	8	5.4
2025-08-25T12:00	33700	7	-37.9		85	9	5.3
2025-08-25T12:00	33750	7	-37.7		93	11	5.3
2025-08-25T12:00	33800	7	-37.6		98	12	5.2
2025-08-25T12:00	33850	7	-37.5		100	12	5.2
2025-08-25T12:00	33900	7	-37.5		102	13	5.1
2025-08-25T12:00	33950	7	-37.6		105	12	5.1
2025-08-25T12:00	34000	7	-37.7		108	12	5.1
2025-08-25T12:00	34050	7	-37.6		110	13	5.0
2025-08-25T12:00	34100	7	-37.4		108	13	5.0
2025-08-25T12:00	34150	7	-37.2		106	13	4.9
2025-08-25T12:00	34200	7	-37.0		109	13	4.9
2025-08-25T12:00	34250	7	-36.5		116	13	4.9
2025-08-25T12:00	34300	7	-36.2		124	14	4.8
2025-08-25T12:00	34350	7	-36.0		130	14	4.8
2025-08-25T12:00	34400	7	-35.8		137	14	4.8
2025-08-25T12:00	34450	7	-35.6		143	14	4.8
2025-08-25T12:00	34500	7	-35.1		146	14	4.8
2025-08-25T12:00	34550	6	-35.0		149	13	4.7
2025-08-25T12:00	34600	6	-34.9		151	12	4.6
2025-08-25T12:00	34650	6	-34.4		147	10	4.6
2025-08-25T12:00	34700	6	-34.0		137	8	4.6
2025-08-25T12:00	34750	6	-33.7		125	7	4.6
2025-08-25T12:00	34800	6	-33.5		109	7	4.6
2025-08-25T12:00	34850	6	-33.3		103	9	4.6
2025-08-25T12:00	34900	6	-33.0		106	9	4.5
2025-08-25T12:00	34950	6	-32.5		110	10	4.5
2025-08-25T12:00	35000	6	-32.1		114	10	4.4
2025-08-25T12:00	35050	6	-31.8		116	9	4.4
2025-08-25T12:00	35100	6	-31.6		118	9	4.3
2025-08-25T12:00	35150	6	-31.5		123	9	4.3
2025-08-25T12:00	35200	6	-31.5		132	9	4.2
2025-08-25T12:00	35250	6	-31.7		139	9	4.2
2025-08-25T12:00	35300	6	-31.8		145	9	4.1
2025-08-25T12:00	35350	6	-31.8		146	9	4.1
2025-08-25T12:00	35400	6	-31.9		139	8	4.1
2025-08-25T12:00	35450	6	-31.8		129	8	4.0
2025-08-25T12:00	35500	6	-31.3		123	8	4.0
2025-08-25T12:00	35550	6	-31.0		119	9	3.9
2025-08-25T12:00	35600	6	-30.8		115	9	3.8
2025-08-25T12:00	35650	6	-30.7		113	10	3.8
2025-08-25T12:00	35700	5	-30.6		110	11	3.8
2025-08-25T12:00	35750	5	-30.1		102	11	3.8
2025-08-25T12:00	35800	5	-29.6		95	11	3.7
2025-08-25T12:00	35850	5	-29.1		96	11	3.7
2025-08-25T12:00	35900	5	-28.6		100	11	3.7
2025-08-25T12:00	35950	5	-28.1		102	11	
2025-08-26T00:00	491	959	15.0	11.9	209	1	
2025-08-26T00:00	501	958	15.8	11.4	236	1	
2025-08-26T00:00	520	956	16.7	11.3	249	1	
2025-08-26T00:00	540	954	18.2	10.9	255	1	
2025-08-26T00:00	560	952	19.4	11.7	265	1	
2025-08-26T00:00	580	949	19.4	12.6	287	1	
2025-08-26T00:00	600	947	19.2	12.9	311	1	
2025-08-26T00:00	620	945	19.1	13.4	331	1	
2025-08-26T00:00	640	943	19.2	13.5	345	2	
2025-08-26T00:00	660	941	19.4	13.4	350	2	
2025-08-26T00:00	680	939	19.4	13.0	351	2	
2025-08-26T00:00	700	936	19.4	12.7	351	2	
2025-08-26T00:00	720	934	19.4	12.5	349	2	
2025-08-26T00:00	740	932	19.4	11.8	344	2	
2025-08-26T00:00	760	930	19.4	11.2	337	2	
2025-08-26T00:00	780	928	19.4	10.9	320	2	
2025-08-26T00:00	800	925	19.4	10.9	304	2	
2025-08-26T00:00	820	924	19.6	10.8	292	2	
2025-08-26T00:00	840	921	19.7	10.8	284	3	
2025-08-26T00:00	860	919	19.6	10.7	277	3	
2025-08-26T00:00	880	917	19.5	10.5	271	3	
2025-08-26T00:00	900	915	19.4	10.3	266	4	
2025-08-26T00:00	920	913	19.4	10.0	263	3	
2025-08-26T00:00	940	911	19.4	9.8	260	3	
2025-08-26T00:00	960	908	19.3	9.4	257	3	
2025-08-26T00:00	980	906	19.3	9.3	254	3	
2025-08-26T00:00	1000	904	19.2	9.1	251	3	
2025-08-26T00:00	1020	902	19.0	9.1	248	3	
2025-08-26T00:00	1040	900	18.8	9.0	244	3	
2025-08-26T00:00	1060	898	18.7	8.9	240	4	
2025-08-26T00:00	1080	896	18.5	8.7	237	4	
2025-08-26T00:00	1100	894	18.3	8.6	235	5	
2025-08-26T00:00	1120	892	18.1	8.5	233	5	
2025-08-26T00:00	1140	890	17.9	8.5	232	6	
2025-08-26T00:00	1160	888	17.8	8.5	231	6	
2025-08-26T00:00	1180	885	17.6	8.6	232	7	
2025-08-26T00:00	1200	883	17.6	8.5	232	7	
2025-08-26T00:00	1220	881	17.5	8.0	233	6	
2025-08-26T00:00	1240	879	17.6	6.5	234	6	
2025-08-26T00:00	1260	877	17.7	5.0	235	6	
2025-08-26T00:00	1280	875	17.5	4.9	236	6	
2025-08-26T00:00	1300	873	17.3	4.9	237	7	
2025-08-26T00:00	1320	871	17.1	4.8	239	7	
2025-08-26T00:00	1340	869	17.0	3.8	241	7	
2025-08-26T00:00	1360	867	17.1	2.3	244	7	
2025-08-26T00:00	1380	865	17.0	1.8	247	7	
2025-08-26T00:00	1400	863	16.8	1.6	250	7	
2025-08-26T00:00	1420	861	16.7	1.5	252	7	
2025-08-26T00:00	1440	859	16.5	1.2	253	7	
2025-08-26T00:00	1460	857	16.5	0.4	254	7	
2025-08-26T00:00	1480	855	16.3	0.3	254	8	
2025-08-26T00:00	1500	853	16.2	-0.2	253	8	
2025-08-26T00:00	1520	851	16.1	-0.6	252	8	
2025-08-26T00:00	1540	849	16.0	-0.7	251	8	
2025-08-26T00:00	1560	847	15.8	-0.7	250	8	
2025-08-26T00:00	1580	845	15.6	-0.7	250	8	
2025-08-26T00:00	1600	843	15.5	-0.6	248	8	
2025-08-26T00:00	1620	841	15.3	-0.4	247	8	
2025-08-26T00:00	1640	839	15.1	-0.9	246	8	
2025-08-26T00:00	1660	837	14.9	-1.1	244	8	
2025-08-26T00:00	1680	835	14.8	-1.2	242	9	
2025-08-26T00:00	1700	833	14.6	-1.4	241	9	
2025-08-26T00:00	1720	831	14.4	-1.4	240	10	
2025-08-26T00:00	1740	829	14.2	-1.1	239	10	
2025-08-26T00:00	1760	827	14.1	-1.1	240	10	
2025-08-26T00:00	1780	825	13.9	-1.3	240	9	
2025-08-26T00:00	1800	823	13.7	-1.4	241	9	
2025-08-26T00:00	1820	821	13.5	-1.4	243	9	
2025-08-26T00:00	1840	819	13.3	-1.5	243	8	
2025-08-26T00:00	1860	817	13.1	-1.5	243	8	
2025-08-26T00:00	1880	815	13.0	-1.6	240	8	
2025-08-26T00:00	1900	813	12.8	-1.8	236	8	
2025-08-26T00:00	1920	811	12.6	-2.0	233	8	
2025-08-26T00:00	1940	810	12.5	-2.4	230	8	
2025-08-26T00:00	1960	808	12.3	-2.5	229	8	
2025-08-26T00:00	1980	806	12.1	-2.6	231	8	
2025-08-26T00:00	2000	804	11.9	-2.6	234	8	
2025-08-26T00:00	2020	802	11.8	-2.7	237	8	
2025-08-26T00:00	2040	800	11.7	-3.1	239	8	
2025-08-26T00:00	2060	798	11.5	-3.4	242	8	
2025-08-26T00:00	2080	796	11.4	-3.8	244	8	
2025-08-26T00:00	2100	794	11.3	-4.2	245	8	
2025-08-26T00:00	2120	792	11.1	-4.8	246	8	
2025-08-26T00:00	2140	790	10.9	-5.0	247	8	
2025-08-26T00:00	2160	788	10.8	-5.1	248	8	
2025-08-26T00:00	2180	787	10.6	-5.2	250	8	
2025-08-26T00:00	2200	785	10.4	-5.5	250	8	
2025-08-26T00:00	2220	783	10.3	-5.8	250	8	
2025-08-26T00:00	2240	781	10.1	-5.9	250	8	
2025-08-26T00:00	2260	779	10.0	-6.5	250	8	
2025-08-26T00:00	2280	777	10.1	-7.9	251	8	
2025-08-26T00:00	2300	775	10.0	-8.3	252	9	
2025-08-26T00:00	2320	773	9.9	-8.8	253	9	
2025-08-26T00:00	2340	772	9.8	-8.7	253	9	
2025-08-26T00:00	2360	770	9.6	-8.7	253	9	
2025-08-26T00:00	2380	768	9.5	-8.9	253	9	
2025-08-26T00:00	2400	766	9.3	-9.1	252	9	
2025-08-26T00:00	2420	764	9.2	-9.1	252	9	
2025-08-26T00:00	2440	762	9.0	-9.2	252	9	
2025-08-26T00:00	2460	760	8.9	-8.8	252	9	
2025-08-26T00:00	2480	759	8.7	-8.3	253	9	
2025-08-26T00:00	2500	757	8.5	-8.3	253	9	
2025-08-26T00:00	2520	755	8.3	-8.2	254	9	
2025-08-26T00:00	2540	753	8.1	-8.7	254	9	
2025-08-26T00:00	2560	751	8.0	-9.0	255	9	
2025-08-26T00:00	2580	749	7.9	-9.6	257	8	
2025-08-26T00:00	2600	748	7.9	-10.5	260	8	
2025-08-26T00:00	2620	746	7.7	-10.7	263	8	
2025-08-26T00:00	2640	744	7.5	-10.7	267	8	
2025-08-26T00:00	2660	742	7.4	-10.9	269	8	
2025-08-26T00:00	2680	741	7.2	-11.0	271	8	
2025-08-26T00:00	2700	739	7.1	-11.2	271	8	
2025-08-26T00:00	2720	737	6.9	-11.2	270	8	
2025-08-26T00:00	2740	735	6.8	-11.1	268	8	
2025-08-26T00:00	2760	733	6.7	-11.0	266	8	
2025-08-26T00:00	2780	731	6.6	-10.9	265	8	
2025-08-26T00:00	2800	730	6.4	-11.0	263	7	
2025-08-26T00:00	2820	728	6.3	-10.9	260	7	
2025-08-26T00:00	2840	726	6.2	-10.8	258	7	
2025-08-26T00:00	2860	724	6.0	-10.9	256	7	
2025-08-26T00:00	2880	723	5.8	-10.8	255	8	
2025-08-26T00:00	2900	721	5.6	-10.8	255	8	
2025-08-26T00:00	2920	719	5.4	-10.8	255	8	
2025-08-26T00:00	2940	717	5.3	-10.9	256	8	
2025-08-26T00:00	2960	716	5.1	-11.0	258	8	
2025-08-26T00:00	2980	714	5.0	-11.4	261	8	
2025-08-26T00:00	3000	712	4.9	-12.0	265	7	
2025-08-26T00:00	3020	710	4.8	-12.4	267	7	
2025-08-26T00:00	3040	709	4.7	-12.9	269	7	
2025-08-26T00:00	3060	707	4.5	-13.0	270	7	
2025-08-26T00:00	3080	705	4.4	-13.1	268	7	
2025-08-26T00:00	3100	703	4.3	-13.6	267	7	
2025-08-26T00:00	3120	702	4.3	-13.6	265	7	
2025-08-26T00:00	3140	700	4.3	-14.8	265	7	
2025-08-26T00:00	3160	698	4.4	-14.9	265	7	
2025-08-26T00:00	3180	697	4.2	-14.1	268	7	
2025-08-26T00:00	3200	695	4.0	-13.2	271	7	
2025-08-26T00:00	3220	693	3.9	-12.8	276	7	
2025-08-26T00:00	3240	691	3.8	-13.7	279	7	
2025-08-26T00:00	3260	690	3.7	-14.2	282	7	
2025-08-26T00:00	3280	688	3.6	-13.9	283	7	
2025-08-26T00:00	3300	686	3.6	-13.0	284	7	
2025-08-26T00:00	3320	685	3.4	-12.7	284	7	
2025-08-26T00:00	3340	683	3.2	-12.5	283	7	
2025-08-26T00:00	3360	681	3.1	-12.4	281	7	
2025-08-26T00:00	3380	679	2.9	-12.5	280	7	
2025-08-26T00:00	3400	678	2.7	-11.8	279	7	
2025-08-26T00:00	3420	676	2.6	-12.8	278	7	
2025-08-26T00:00	3440	675	2.5	-14.1	277	7	
2025-08-26T00:00	3460	673	2.4	-14.3	278	7	
2025-08-26T00:00	3480	671	2.2	-14.2	278	7	
2025-08-26T00:00	3500	669	2.1	-13.8	279	8	
2025-08-26T00:00	3520	668	1.9	-13.9	279	8	
2025-08-26T00:00	3540	666	1.7	-13.9	280	8	
2025-08-26T00:00	3560	665	1.6	-15.1	280	8	
2025-08-26T00:00	3580	663	1.5	-15.5	279	8	
2025-08-26T00:00	3600	661	1.3	-16.3	278	8	
2025-08-26T00:00	3620	660	1.2	-16.2	276	8	
2025-08-26T00:00	3640	658	1.1	-15.8	275	7	
2025-08-26T00:00	3660	656	0.9	-14.7	274	7	
2025-08-26T00:00	3680	655	0.9	-14.8	274	7	
2025-08-26T00:00	3700	653	0.8	-16.5	275	7	
2025-08-26T00:00	3720	651	0.7	-17.5	277	7	
2025-08-26T00:00	3740	650	0.5	-17.8	279	7	
2025-08-26T00:00	3760	648	0.3	-16.1	281	7	
2025-08-26T00:00	3780	647	0.1	-15.1	285	7	
2025-08-26T00:00	3800	645	-0.1	-14.8	287	7	
2025-08-26T00:00	3820	643	-0.3	-13.6	290	7	
2025-08-26T00:00	3840	642	-0.4	-13.2	291	8	
2025-08-26T00:00	3860	640	-0.5	-14.2	290	8	
2025-08-26T00:00	3880	639	-0.6	-15.5	289	8	
2025-08-26T00:00	3900	637	-0.7	-17.0	287	8	
2025-08-26T00:00	3920	635	-0.8	-17.6	285	9	
2025-08-26T00:00	3940	634	-0.9	-18.6	285	9	
2025-08-26T00:00	3960	632	-1.0	-18.1	285	9	
2025-08-26T00:00	3980	631	-1.0	-19.5	287	9	
2025-08-26T00:00	4000	629	-1.1	-19.9	290	8	
2025-08-26T00:00	4020	627	-1.1	-21.0	293	8	
2025-08-26T00:00	4040	626	-1.2	-21.6	297	8	
2025-08-26T00:00	4060	624	-1.3	-20.9	299	8	
2025-08-26T00:00	4080	623	-1.5	-20.1	300	8	
2025-08-26T00:00	4100	621	-1.7	-20.2	302	8	
2025-08-26T00:00	4120	620	-1.8	-20.3	303	8	
2025-08-26T00:00	4140	618	-1.9	-20.5	304	8	
2025-08-26T00:00	4160	617	-2.0	-20.4	305	9	
2025-08-26T00:00	4180	615	-2.1	-20.9	307	9	
2025-08-26T00:00	4200	613	-2.3	-20.8	309	9	
2025-08-26T00:00	4220	612	-2.4	-20.2	311	9	
2025-08-26T00:00	4240	610	-2.5	-19.9	313	9	
2025-08-26T00:00	4260	609	-2.6	-19.8	314	8	
2025-08-26T00:00	4280	607	-2.8	-19.6	314	8	
2025-08-26T00:00	4300	606	-3.0	-18.1	312	8	
2025-08-26T00:00	4320	604	-3.2	-16.7	311	8	
2025-08-26T00:00	4340	603	-3.3	-16.6	310	8	
2025-08-26T00:00	4360	601	-3.5	-17.7	309	8	
2025-08-26T00:00	4380	600	-3.5	-20.5	309	8	
2025-08-26T00:00	4400	598	-3.7	-19.6	308	7	
2025-08-26T00:00	4420	597	-3.8	-18.7	307	7	
2025-08-26T00:00	4440	595	-4.0	-17.7	306	7	
2025-08-26T00:00	4460	594	-4.2	-18.1	305	7	
2025-08-26T00:00	4480	592	-4.3	-18.1	303	7	
2025-08-26T00:00	4500	591	-4.5	-18.3	301	7	
2025-08-26T00:00	4520	589	-4.7	-18.7	299	6	
2025-08-26T00:00	4540	588	-4.8	-20.0	296	6	
2025-08-26T00:00	4560	586	-4.9	-22.2	295	6	
2025-08-26T00:00	4580	584	-4.9	-24.8	295	6	
2025-08-26T00:00	4600	583	-4.9	-28.8	295	6	
2025-08-26T00:00	4620	582	-4.9	-30.5	295	6	
2025-08-26T00:00	4640	580	-5.0	-29.0	296	6	
2025-08-26T00:00	4660	579	-5.1	-28.4	297	6	
2025-08-26T00:00	4680	577	-5.2	-27.3	298	5	
2025-08-26T00:00	4700	576	-5.4	-26.0	299	5	
2025-08-26T00:00	4720	574	-5.6	-23.5	300	5	
2025-08-26T00:00	4740	573	-5.9	-22.0	301	5	
2025-08-26T00:00	4760	571	-6.0	-21.8	300	5	
2025-08-26T00:00	4780	570	-6.2	-21.6	298	5	
2025-08-26T00:00	4800	568	-6.4	-22.1	295	5	
2025-08-26T00:00	4820	567	-6.5	-22.4	292	6	
2025-08-26T00:00	4840	566	-6.7	-21.4	290	6	
2025-08-26T00:00	4860	564	-6.9	-21.2	289	6	
2025-08-26T00:00	4880	563	-7.1	-21.1	289	6	
2025-08-26T00:00	4900	561	-7.3	-21.1	290	6	
2025-08-26T00:00	4920	560	-7.4	-21.3	291	6	
2025-08-26T00:00	4940	558	-7.5	-21.7	293	6	
2025-08-26T00:00	4960	557	-7.7	-21.9	296	6	
2025-08-26T00:00	4980	555	-7.8	-22.7	298	5	
2025-08-26T00:00	5000	554	-7.9	-24.7	302	5	
2025-08-26T00:00	5020	553	-7.9	-25.6	305	5	
2025-08-26T00:00	5040	551	-8.0	-25.9	306	5	
2025-08-26T00:00	5060	550	-8.2	-25.1	305	5	
2025-08-26T00:00	5080	548	-8.3	-25.0	303	5	
2025-08-26T00:00	5100	547	-8.5	-24.9	301	5	
2025-08-26T00:00	5120	545	-8.6	-24.7	300	6	
2025-08-26T00:00	5140	544	-8.8	-24.9	298	6	
2025-08-26T00:00	5160	543	-8.9	-24.8	297	6	
2025-08-26T00:00	5180	541	-9.1	-24.9	296	6	
2025-08-26T00:00	5200	540	-9.2	-24.9	295	6	
2025-08-26T00:00	5220	538	-9.3	-25.0	294	5	
2025-08-26T00:00	5240	537	-9.5	-24.9	292	5	
2025-08-26T00:00	5260	536	-9.7	-25.1	291	5	
2025-08-26T00:00	5280	534	-9.8	-26.7	290	5	
2025-08-26T00:00	5300	533	-10.0	-26.5	291	5	
2025-08-26T00:00	5320	532	-10.1	-26.0	292	5	
2025-08-26T00:00	5340	530	-10.3	-25.1	294	5	
2025-08-26T00:00	5360	529	-10.4	-24.9	297	6	
2025-08-26T00:00	5380	527	-10.5	-25.4	300	6	
2025-08-26T00:00	5400	526	-10.6	-26.4	302	6	
2025-08-26T00:00	5420	525	-10.7	-27.0	303	6	
2025-08-26T00:00	5440	523	-10.8	-27.3	305	6	
2025-08-26T00:00	5460	522	-11.0	-27.1	308	5	
2025-08-26T00:00	5480	521	-11.1	-26.2	309	5	
2025-08-26T00:00	5500	519	-11.3	-26.3	309	5	
2025-08-26T00:00	5520	518	-11.4	-26.6	308	4	
2025-08-26T00:00	5540	516	-11.6	-26.6	307	4	
2025-08-26T00:00	5560	515	-11.7	-26.5	305	4	
2025-08-26T00:00	5580	514	-11.9	-26.7	302	4	
2025-08-26T00:00	5600	513	-12.0	-27.3	299	4	
2025-08-26T00:00	5620	511	-12.1	-28.2	298	4	
2025-08-26T00:00	5640	510	-12.3	-28.6	299	4	
2025-08-26T00:00	5660	509	-12.4	-28.9	300	5	
2025-08-26T00:00	5680	507	-12.5	-29.3	300	5	
2025-08-26T00:00	5700	506	-12.6	-29.5	300	5	
2025-08-26T00:00	5720	505	-12.7	-29.6	299	6	
2025-08-26T00:00	5740	503	-12.9	-29.1	298	6	
2025-08-26T00:00	5760	502	-13.0	-28.8	298	6	
2025-08-26T00:00	5780	501	-13.2	-28.3	297	6	
2025-08-26T00:00	5800	499	-13.3	-28.2	296	6	
2025-08-26T00:00	5820	498	-13.5	-28.4	294	6	
2025-08-26T00:00	5840	497	-13.6	-28.7	292	6	
2025-08-26T00:00	5860	495	-13.7	-29.6	290	6	
2025-08-26T00:00	5880	494	-13.9	-30.3	289	6	
2025-08-26T00:00	5900	493	-14.0	-30.7	288	6	
2025-08-26T00:00	5920	491	-14.1	-31.3	287	6	
2025-08-26T00:00	5940	490	-14.3	-31.5	286	6	
2025-08-26T00:00	5960	489	-14.4	-31.3	285	6	
2025-08-26T00:00	5980	488	-14.4	-31.6	284	6	
2025-08-26T00:00	6000	486	-14.4	-31.8	284	7	
2025-08-26T00:00	6020	485	-14.4	-31.1	283	7	
2025-08-26T00:00	6040	484	-14.5	-28.9	283	7	
2025-08-26T00:00	6060	482	-14.5	-27.4	284	7	
2025-08-26T00:00	6080	481	-14.6	-28.1	285	7	
2025-08-26T00:00	6100	480	-14.7	-28.7	286	7	
2025-08-26T00:00	6120	479	-14.8	-27.5	288	7	
2025-08-26T00:00	6140	477	-15.0	-26.8	290	6	
2025-08-26T00:00	6160	476	-15.2	-26.6	291	6	
2025-08-26T00:00	6180	475	-15.3	-26.4	292	6	
2025-08-26T00:00	6200	474	-15.5	-26.2	294	6	
2025-08-26T00:00	6220	472	-15.7	-26.0	295	5	
2025-08-26T00:00	6240	471	-15.8	-25.8	297	5	
2025-08-26T00:00	6260	470	-16.0	-26.3	298	5	
2025-08-26T00:00	6280	468	-16.1	-26.0	299	5	
2025-08-26T00:00	6300	467	-16.3	-26.4	299	4	
2025-08-26T00:00	6320	466	-16.5	-26.8	299	4	
2025-08-26T00:00	6340	465	-16.7	-26.4	296	4	
2025-08-26T00:00	6360	464	-16.8	-25.5	292	4	
2025-08-26T00:00	6380	462	-16.9	-28.0	289	4	
2025-08-26T00:00	6400	461	-17.0	-28.5	287	4	
2025-08-26T00:00	6420	460	-17.2	-27.9	288	4	
2025-08-26T00:00	6440	459	-17.4	-28.2	289	4	
2025-08-26T00:00	6460	458	-17.6	-28.2	291	5	
2025-08-26T00:00	6480	456	-17.8	-28.3	293	5	
2025-08-26T00:00	6500	455	-18.0	-28.5	295	5	
2025-08-26T00:00	6520	454	-18.2	-28.7	296	5	
2025-08-26T00:00	6540	453	-18.4	-28.4	297	5	
2025-08-26T00:00	6560	451	-18.6	-27.9	295	6	
2025-08-26T00:00	6580	450	-18.8	-26.9	293	6	
2025-08-26T00:00	6600	449	-18.9	-27.7	292	6	
2025-08-26T00:00	6620	448	-19.0	-28.5	291	7	
2025-08-26T00:00	6640	447	-19.0	-30.1	292	7	
2025-08-26T00:00	6660	445	-19.1	-29.8	293	7	
2025-08-26T00:00	6680	444	-19.2	-29.3	293	7	
2025-08-26T00:00	6700	443	-19.4	-28.6	294	7	
2025-08-26T00:00	6720	442	-19.6	-28.0	294	7	
2025-08-26T00:00	6740	441	-19.8	-27.8	294	7	
2025-08-26T00:00	6760	439	-19.9	-27.4	292	6	
2025-08-26T00:00	6780	438	-20.1	-27.0	289	6	
2025-08-26T00:00	6800	437	-20.3	-26.8	284	5	
2025-08-26T00:00	6820	436	-20.4	-26.5	281	5	
2025-08-26T00:00	6840	435	-20.4	-26.1	276	5	
2025-08-26T00:00	6860	434	-20.4	-26.2	270	4	
2025-08-26T00:00	6880	432	-20.4	-26.8	265	4	
2025-08-26T00:00	6900	431	-20.5	-27.1	261	4	
2025-08-26T00:00	6920	430	-20.6	-27.0	260	4	
2025-08-26T00:00	6940	429	-20.7	-27.1	261	4	
2025-08-26T00:00	6960	428	-20.8	-27.8	264	4	
2025-08-26T00:00	6980	427	-20.8	-27.7	269	4	
2025-08-26T00:00	7000	425	-20.8	-28.1	273	5	
2025-08-26T00:00	7020	424	-20.6	-28.9	276	6	
2025-08-26T00:00	7040	423	-20.7	-28.8	281	6	
2025-08-26T00:00	7060	422	-20.9	-28.7	285	7	
2025-08-26T00:00	7080	421	-21.0	-28.8	289	7	
2025-08-26T00:00	7100	420	-21.0	-29.4	293	7	
2025-08-26T00:00	7120	418	-21.0	-29.8	296	8	
2025-08-26T00:00	7140	417	-21.0	-30.1	298	8	
2025-08-26T00:00	7160	416	-21.0	-30.3	300	8	
2025-08-26T00:00	7180	415	-21.1	-30.4	302	8	
2025-08-26T00:00	7200	414	-21.2	-30.4	303	8	
2025-08-26T00:00	7220	413	-21.4	-30.5	304	8	
2025-08-26T00:00	7240	412	-21.6	-30.6	306	8	
2025-08-26T00:00	7260	411	-21.7	-30.6	308	9	
2025-08-26T00:00	7280	410	-21.9	-30.8	311	9	
2025-08-26T00:00	7300	408	-22.0	-31.1	314	10	
2025-08-26T00:00	7320	407	-22.0	-31.7	316	10	
2025-08-26T00:00	7340	406	-22.1	-31.8	318	11	
2025-08-26T00:00	7360	405	-22.2	-32.2	320	11	
2025-08-26T00:00	7380	404	-22.2	-32.6	322	12	
2025-08-26T00:00	7400	403	-22.4	-32.7	322	12	
2025-08-26T00:00	7420	402	-22.5	-33.1	322	12	
2025-08-26T00:00	7440	401	-22.7	-33.5	323	12	
2025-08-26T00:00	7460	400	-22.8	-33.6	323	11	
2025-08-26T00:00	7480	399	-23.0	-33.7	323	11	
2025-08-26T00:00	7500	397	-23.1	-33.9	324	10	
2025-08-26T00:00	7520	396	-23.3	-34.3	324	10	
2025-08-26T00:00	7540	395	-23.4	-34.4	325	10	
2025-08-26T00:00	7560	394	-23.5	-34.5	326	10	
2025-08-26T00:00	7580	393	-23.7	-34.6	326	10	
2025-08-26T00:00	7600	392	-23.9	-34.7	326	10	
2025-08-26T00:00	7620	391	-24.0	-35.1	326	10	
2025-08-26T00:00	7640	390	-24.1	-35.4	326	10	
2025-08-26T00:00	7660	389	-24.3	-35.5	326	10	
2025-08-26T00:00	7680	388	-24.5	-35.4	326	10	
2025-08-26T00:00	7700	387	-24.7	-35.6	326	10	
2025-08-26T00:00	7720	386	-24.9	-35.7	327	10	
2025-08-26T00:00	7740	385	-25.1	-35.6	328	9	
2025-08-26T00:00	7760	384	-25.2	-35.6	330	9	
2025-08-26T00:00	7780	382	-25.4	-35.7	332	9	
2025-08-26T00:00	7800	381	-25.6	-35.9	334	9	
2025-08-26T00:00	7820	380	-25.8	-36.1	335	9	
2025-08-26T00:00	7840	379	-26.0	-36.3	335	9	
2025-08-26T00:00	7860	378	-26.1	-36.7	335	9	
2025-08-26T00:00	7880	377	-26.2	-37.1	334	9	
2025-08-26T00:00	7900	376	-26.4	-37.3	331	9	
2025-08-26T00:00	7920	375	-26.5	-37.7	329	9	
2025-08-26T00:00	7940	374	-26.6	-37.9	327	9	
2025-08-26T00:00	7960	373	-26.6	-38.4	325	9	
2025-08-26T00:00	7980	372	-26.7	-39.3	324	10	
2025-08-26T00:00	8000	371	-26.8	-39.8	323	10	
2025-08-26T00:00	8020	370	-26.9	-40.2	323	10	
2025-08-26T00:00	8040	369	-26.9	-40.6	323	10	
2025-08-26T00:00	8060	368	-27.0	-40.3	323	10	
2025-08-26T00:00	8080	367	-27.1	-41.1	323	10	
2025-08-26T00:00	8100	366	-27.2	-41.3	324	10	
2025-08-26T00:00	8120	365	-27.3	-41.6	324	10	
2025-08-26T00:00	8140	364	-27.5	-41.3	324	10	
2025-08-26T00:00	8160	363	-27.6	-41.7	325	10	
2025-08-26T00:00	8180	362	-27.8	-42.4	326	10	
2025-08-26T00:00	8200	361	-27.9	-42.4	326	11	
2025-08-26T00:00	8220	360	-28.1	-42.1	327	11	
2025-08-26T00:00	8240	359	-28.2	-41.6	328	11	
2025-08-26T00:00	8260	358	-28.4	-41.6	328	11	
2025-08-26T00:00	8280	357	-28.6	-41.7	328	11	
2025-08-26T00:00	8300	356	-28.7	-41.9	329	11	
2025-08-26T00:00	8320	355	-28.9	-42.4	329	11	
2025-08-26T00:00	8340	354	-29.0	-42.8	329	11	
2025-08-26T00:00	8360	353	-29.2	-43.0	330	11	
2025-08-26T00:00	8380	352	-29.4	-43.3	331	11	
2025-08-26T00:00	8400	351	-29.4	-43.6	331	11	
2025-08-26T00:00	8420	350	-29.6	-43.7	331	11	
2025-08-26T00:00	8440	349	-29.8	-43.6	332	11	
2025-08-26T00:00	8460	348	-30.0	-43.5	331	10	
2025-08-26T00:00	8480	347	-30.2	-43.5	331	10	
2025-08-26T00:00	8500	346	-30.3	-43.7	330	10	
2025-08-26T00:00	8520	345	-30.5	-43.9	329	10	
2025-08-26T00:00	8540	344	-30.7	-44.2	329	10	
2025-08-26T00:00	8560	343	-30.9	-44.4	328	10	
2025-08-26T00:00	8580	342	-31.1	-45.0	328	10	
2025-08-26T00:00	8600	341	-31.3	-45.4	328	11	
2025-08-26T00:00	8620	340	-31.4	-45.0	328	11	
2025-08-26T00:00	8640	339	-31.7	-45.2	328	11	
2025-08-26T00:00	8660	338	-31.9	-45.5	328	11	
2025-08-26T00:00	8680	337	-32.0	-45.4	328	11	
2025-08-26T00:00	8700	336	-32.2	-45.5	328	12	
2025-08-26T00:00	8720	335	-32.4	-45.8	329	12	
2025-08-26T00:00	8740	334	-32.6	-45.9	330	12	
2025-08-26T00:00	8760	334	-32.7	-46.0	331	11	
2025-08-26T00:00	8780	333	-32.9	-46.4	332	11	
2025-08-26T00:00	8800	332	-33.0	-46.5	333	11	
2025-08-26T00:00	8820	331	-33.2	-47.1	334	11	
2025-08-26T00:00	8840	330	-33.2	-47.1	334	11	
2025-08-26T00:00	8860	329	-33.4	-46.3	334	11	
2025-08-26T00:00	8880	328	-33.6	-46.0	333	11	
2025-08-26T00:00	8900	327	-33.8	-46.0	333	11	
2025-08-26T00:00	8920	326	-34.0	-46.0	333	11	
2025-08-26T00:00	8940	325	-34.1	-45.9	334	11	
2025-08-26T00:00	8960	324	-34.3	-45.7	334	11	
2025-08-26T00:00	8980	323	-34.5	-45.9	335	11	
2025-08-26T00:00	9000	322	-34.7	-46.2	336	12	
2025-08-26T00:00	9020	321	-34.8	-47.3	336	12	
2025-08-26T00:00	9040	320	-34.8	-49.0	336	12	
2025-08-26T00:00	9060	320	-34.9	-49.9	336	13	
2025-08-26T00:00	9080	319	-35.0	-50.0	336	13	
2025-08-26T00:00	9100	318	-35.2	-49.6	336	13	
2025-08-26T00:00	9120	317	-35.3	-49.9	336	13	
2025-08-26T00:00	9140	316	-35.4	-50.2	336	14	
2025-08-26T00:00	9160	315	-35.6	-50.2	337	14	
2025-08-26T00:00	9180	314	-35.7	-50.3	337	14	
2025-08-26T00:00	9200	313	-35.9	-50.2	338	14	
2025-08-26T00:00	9220	312	-36.0	-50.6	338	14	
2025-08-26T00:00	9240	311	-36.1	-52.6	339	14	
2025-08-26T00:00	9260	311	-36.2	-55.3	340	14	
2025-08-26T00:00	9280	310	-36.2	-56.8	340	14	
2025-08-26T00:00	9300	309	-36.4	-57.3	341	15	
2025-08-26T00:00	9320	308	-36.5	-58.6	341	15	
2025-08-26T00:00	9340	307	-36.6	-57.9	342	15	
2025-08-26T00:00	9360	306	-36.7	-57.3	342	15	
2025-08-26T00:00	9380	305	-36.8	-58.1	342	15	
2025-08-26T00:00	9400	304	-36.8	-58.5	342	15	
2025-08-26T00:00	9420	303	-36.8	-57.7	342	16	
2025-08-26T00:00	9440	303	-36.7	-55.1	342	16	
2025-08-26T00:00	9460	302	-36.6	-53.8	342	17	
2025-08-26T00:00	9480	301	-36.6	-52.6	342	18	
2025-08-26T00:00	9500	300	-36.8	-52.9	342	18	
2025-08-26T00:00	9520	299	-36.8	-53.0	343	19	
2025-08-26T00:00	9540	298	-36.9	-53.0	343	20	
2025-08-26T00:00	9560	297	-36.9	-53.3	344	21	
2025-08-26T00:00	9580	296	-36.8	-53.9	345	21	
2025-08-26T00:00	9600	296	-36.7	-54.3	345	22	
2025-08-26T00:00	9620	295	-36.7	-54.7	347	23	
2025-08-26T00:00	9640	294	-36.6	-55.5	347	23	
2025-08-26T00:00	9660	293	-36.5	-56.5	348	24	
2025-08-26T00:00	9680	292	-36.3	-57.9	349	24	
2025-08-26T00:00	9700	291	-36.2	-59.0	350	24	
2025-08-26T00:00	9720	291	-36.1	-59.4	350	25	
2025-08-26T00:00	9740	290	-36.2	-59.2	351	25	
2025-08-26T00:00	9760	289	-36.3	-59.1	351	25	
2025-08-26T00:00	9780	288	-36.4	-59.2	351	25	
2025-08-26T00:00	9800	287	-36.5	-58.7	351	25	
2025-08-26T00:00	9820	286	-36.7	-58.2	351	26	
2025-08-26T00:00	9840	286	-36.9	-57.7	351	26	
2025-08-26T00:00	9860	285	-37.1	-57.4	350	26	
2025-08-26T00:00	9880	284	-37.3	-57.1	349	27	
2025-08-26T00:00	9900	283	-37.5	-57.2	349	27	
2025-08-26T00:00	9920	282	-37.6	-57.3	348	27	
2025-08-26T00:00	9940	281	-37.8	-57.3	348	27	
2025-08-26T00:00	9960	281	-38.0	-57.1	347	28	
2025-08-26T00:00	9980	280	-38.2	-56.8	347	28	
2025-08-26T00:00	10000	279	-38.4	-56.8	347	28	
2025-08-26T00:00	10018	278	-38.5	-56.9	347	28	
2025-08-26T00:00	10050	277	-38.8	-57.0	347	28	
2025-08-26T00:00	10100	275	-39.3	-56.9	347	28	
2025-08-26T00:00	10150	273	-39.7	-57.1	346	28	
2025-08-26T00:00	10200	271	-40.2	-57.2	345	28	
2025-08-26T00:00	10250	269	-40.5	-56.4	344	27	
2025-08-26T00:00	10300	267	-40.8	-56.6	342	27	
2025-08-26T00:00	10350	265	-41.1	-56.6	341	27	
2025-08-26T00:00	10400	263	-41.6	-56.7	340	27	
2025-08-26T00:00	10450	261	-42.0	-57.7	340	27	
2025-08-26T00:00	10500	259	-42.4	-57.5	341	27	
2025-08-26T00:00	10550	257	-42.8	-57.1	341	28	
2025-08-26T00:00	10600	255	-43.2	-57.1	341	28	
2025-08-26T00:00	10650	254	-43.7	-57.0	341	27	
2025-08-26T00:00	10700	252	-44.2	-57.0	341	27	
2025-08-26T00:00	10750	250	-44.7	-57.0	340	28	
2025-08-26T00:00	10800	248	-45.1	-56.5	338	28	
2025-08-26T00:00	10850	246	-45.5	-55.1	336	29	
2025-08-26T00:00	10900	244	-45.5	-56.7	335	30	
2025-08-26T00:00	10950	242	-45.6	-58.8	334	31	
2025-08-26T00:00	11000	241	-45.3	-61.5	334	32	
2025-08-26T00:00	11050	239	-45.1	-62.4	335	33	
2025-08-26T00:00	11100	237	-45.3	-60.6	336	33	
2025-08-26T00:00	11150	235	-45.7	-60.9	337	33	
2025-08-26T00:00	11200	233	-46.2	-61.1	336	33	
2025-08-26T00:00	11250	232	-46.5	-61.6	336	33	
2025-08-26T00:00	11300	230	-46.9	-61.7	336	34	
2025-08-26T00:00	11350	228	-47.4	-61.7	335	34	
2025-08-26T00:00	11400	227	-47.9	-61.8	335	34	
2025-08-26T00:00	11450	225	-48.3	-61.9	335	34	
2025-08-26T00:00	11500	223	-48.7	-62.2	335	34	
2025-08-26T00:00	11550	222	-49.0	-63.3	335	33	
2025-08-26T00:00	11600	220	-48.0	-70.5	335	33	
2025-08-26T00:00	11650	218	-47.8	-72.0	334	32	
2025-08-26T00:00	11700	216	-48.1	-71.0	333	32	
2025-08-26T00:00	11750	215	-48.5	-71.2	331	33	
2025-08-26T00:00	11800	213	-48.6	-72.0	330	33	
2025-08-26T00:00	11850	212	-48.9	-71.7	329	33	
2025-08-26T00:00	11900	210	-49.0	-72.3	329	33	
2025-08-26T00:00	11950	208	-49.3	-72.9	328	32	
2025-08-26T00:00	12000	207	-49.6	-73.1	328	33	
2025-08-26T00:00	12050	205	-49.4	-73.5	328	32	
2025-08-26T00:00	12100	204	-49.5	-73.3	329	32	
2025-08-26T00:00	12150	202	-49.5	-71.7	330	31	
2025-08-26T00:00	12200	201	-49.5	-71.5	331	31	
2025-08-26T00:00	12250	199	-49.8	-71.7	332	31	
2025-08-26T00:00	12300	198	-50.1	-71.9	332	31	
2025-08-26T00:00	12350	196	-50.3	-72.1	332	31	
2025-08-26T00:00	12400	195	-50.5	-72.2	333	31	
2025-08-26T00:00	12450	193	-50.6	-72.3	333	30	
2025-08-26T00:00	12500	192	-50.8	-72.6	333	30	
2025-08-26T00:00	12550	190	-51.0	-72.8	333	30	
2025-08-26T00:00	12600	189	-51.2	-73.0	332	30	
2025-08-26T00:00	12650	187	-51.4	-73.1	332	30	
2025-08-26T00:00	12700	186	-51.6	-73.3	332	30	
2025-08-26T00:00	12750	184	-51.9	-73.5	333	29	
2025-08-26T00:00	12800	183	-52.2	-73.6	333	29	
2025-08-26T00:00	12850	181	-52.6	-73.8	333	29	
2025-08-26T00:00	12900	180	-53.0	-73.9	333	29	
2025-08-26T00:00	12950	179	-53.5	-74.0	332	29	
2025-08-26T00:00	13000	177	-53.9	-74.2	331	29	
2025-08-26T00:00	13050	176	-54.3	-74.4	330	29	
2025-08-26T00:00	13100	175	-54.7	-74.5	329	30	
2025-08-26T00:00	13150	173	-55.1	-74.7	329	30	
2025-08-26T00:00	13200	172	-55.5	-74.8	328	30	
2025-08-26T00:00	13250	171	-55.9	-74.9	328	31	
2025-08-26T00:00	13300	169	-56.3	-75.0	327	31	
2025-08-26T00:00	13350	168	-56.7	-75.1	327	32	
2025-08-26T00:00	13400	167	-57.1	-75.2	327	32	
2025-08-26T00:00	13450	165	-57.4	-75.4	326	33	
2025-08-26T00:00	13500	164	-57.8	-75.6	325	33	
2025-08-26T00:00	13550	163	-58.1	-75.8	325	34	
2025-08-26T00:00	13600	161	-57.9	-76.4	325	34	
2025-08-26T00:00	13650	160	-58.0	-76.2	327	34	
2025-08-26T00:00	13700	159	-57.7	-73.8	328	33	
2025-08-26T00:00	13750	158	-57.8	-72.9	330	32	
2025-08-26T00:00	13800	156	-57.9	-72.7	331	31	
2025-08-26T00:00	13850	155	-58.3	-72.7	333	32	
2025-08-26T00:00	13900	154	-58.7	-72.7	334	32	
2025-08-26T00:00	13950	153	-59.2	-72.8	335	32	
2025-08-26T00:00	14000	151	-59.7	-72.8	337	31	
2025-08-26T00:00	14050	150	-60.1	-73.0	339	30	
2025-08-26T00:00	14100	149	-60.3	-73.8	340	29	
2025-08-26T00:00	14150	148	-60.6	-75.5	341	28	
2025-08-26T00:00	14200	147	-60.7	-77.7	339	29	
2025-08-26T00:00	14250	145	-60.8	-78.1	337	29	
2025-08-26T00:00	14300	144	-61.0	-77.8	335	30	
2025-08-26T00:00	14350	143	-61.4	-78.3	335	30	
2025-08-26T00:00	14400	142	-61.8	-78.6	334	30	
2025-08-26T00:00	14450	141	-62.2	-78.4	332	30	
2025-08-26T00:00	14500	140	-62.4	-79.0	330	30	
2025-08-26T00:00	14550	139	-62.7	-79.8	328	31	
2025-08-26T00:00	14600	137	-62.6	-80.4	328	31	
2025-08-26T00:00	14650	136	-62.3	-80.9	330	31	
2025-08-26T00:00	14700	135	-62.0	-81.2	333	30	
2025-08-26T00:00	14750	134	-61.9	-81.5	336	28	
2025-08-26T00:00	14800	133	-61.2	-81.5	339	27	
2025-08-26T00:00	14850	132	-61.2	-81.8	340	26	
2025-08-26T00:00	14900	131	-61.5	-81.8	341	26	
2025-08-26T00:00	14950	130	-61.9	-81.8	341	26	
2025-08-26T00:00	15000	129	-62.3	-81.8	341	26	
2025-08-26T00:00	15050	128	-62.8	-81.9	341	25	
2025-08-26T00:00	15100	127	-63.1	-82.0	340	25	
2025-08-26T00:00	15150	126	-63.5	-82.1	338	24	
2025-08-26T00:00	15200	125	-63.9	-82.3	336	23	
2025-08-26T00:00	15250	124	-64.2	-82.5	333	23	
2025-08-26T00:00	15300	123	-64.4	-82.9	330	23	
2025-08-26T00:00	15350	122	-64.6	-83.3	326	23	
2025-08-26T00:00	15400	121	-64.6	-83.8	325	24	
2025-08-26T00:00	15450	120	-64.3	-84.3	327	24	
2025-08-26T00:00	15500	119	-63.8	-84.7	331	24	
2025-08-26T00:00	15550	118	-63.0	-85.0	334	24	
2025-08-26T00:00	15600	117	-62.2	-85.0	335	23	
2025-08-26T00:00	15650	116	-61.8	-84.8	335	21	
2025-08-26T00:00	15700	115	-61.9	-84.5	335	20	
2025-08-26T00:00	15750	114	-61.9	-84.2	336	20	
2025-08-26T00:00	15800	113	-62.0	-84.1	335	19	
2025-08-26T00:00	15850	112	-62.2	-84.3	333	18	
2025-08-26T00:00	15900	111	-62.0	-84.3	329	17	
2025-08-26T00:00	15950	110	-62.0	-84.4	325	16	
2025-08-26T00:00	16000	109	-62.0	-84.7	325	16	
2025-08-26T00:00	16050	109	-61.6	-84.9	330	16	
2025-08-26T00:00	16100	108	-60.9	-84.8	334	15	
2025-08-26T00:00	16150	107	-60.7	-85.0	334	14	
2025-08-26T00:00	16200	106	-60.7	-84.9	329	13	
2025-08-26T00:00	16250	105	-61.0	-84.8	324	13	
2025-08-26T00:00	16300	104	-61.3	-84.8	320	14	
2025-08-26T00:00	16350	103	-61.6	-84.9	318	15	
2025-08-26T00:00	16400	103	-61.7	-85.0	322	15	
2025-08-26T00:00	16450	102	-61.5	-84.9	327	16	
2025-08-26T00:00	16500	101	-61.2	-84.9	330	16	
2025-08-26T00:00	16550	100	-61.1	-85.1	332	16	
2025-08-26T00:00	16600	99	-60.9	-85.2	334	15	
2025-08-26T00:00	16650	99	-60.8	-85.2	336	15	
2025-08-26T00:00	16700	98	-60.5	-85.1	338	15	
2025-08-26T00:00	16750	97	-60.5	-85.2	337	14	
2025-08-26T00:00	16800	96	-60.7	-85.2	334	13	
2025-08-26T00:00	16850	95	-61.0	-85.2	331	12	
2025-08-26T00:00	16900	95	-61.1	-85.4	329	12	
2025-08-26T00:00	16950	94	-60.9	-85.5	332	11	
2025-08-26T00:00	17000	93	-60.5	-85.6	333	11	
2025-08-26T00:00	17050	92	-60.1	-85.6	330	11	
2025-08-26T00:00	17100	92	-59.6	-85.5	330	11	
2025-08-26T00:00	17150	91	-59.5	-85.4	333	11	
2025-08-26T00:00	17200	90	-59.5	-85.3	337	10	
2025-08-26T00:00	17250	90	-59.6	-85.3	335	9	
2025-08-26T00:00	17300	89	-59.8	-85.4	331	9	
2025-08-26T00:00	17350	88	-59.7	-85.5	329	10	
2025-08-26T00:00	17400	87	-59.6	-85.5	328	10	
2025-08-26T00:00	17450	87	-59.5	-85.6	324	10	
2025-08-26T00:00	17500	86	-59.4	-85.6	322	9	
2025-08-26T00:00	17550	85	-59.1	-85.5	324	9	
2025-08-26T00:00	17600	85	-58.7	-85.5	329	8	
2025-08-26T00:00	17650	84	-58.6	-85.4	331	8	
2025-08-26T00:00	17700	83	-58.5	-85.3	334	8	
2025-08-26T00:00	17750	83	-58.6	-85.3	334	8	
2025-08-26T00:00	17800	82	-58.7	-85.3	331	7	
2025-08-26T00:00	17850	81	-58.8	-85.3	325	6	
2025-08-26T00:00	17900	81	-59.0	-85.5	319	5	
2025-08-26T00:00	17950	80	-58.9	-85.4	312	5	
2025-08-26T00:00	18000	79	-59.0	-85.6	306	5	
2025-08-26T00:00	18050	79	-58.4	-85.6	300	5	
2025-08-26T00:00	18100	78	-58.1	-85.5	292	5	
2025-08-26T00:00	18150	78	-58.1	-85.5	288	6	
2025-08-26T00:00	18200	77	-58.1	-85.4	292	7	
2025-08-26T00:00	18250	76	-58.1	-85.3	297	8	
2025-08-26T00:00	18300	76	-58.2	-85.3	300	8	
2025-08-26T00:00	18350	75	-58.0	-85.3	298	7	
2025-08-26T00:00	18400	75	-57.8	-85.3	290	6	
2025-08-26T00:00	18450	74	-57.9	-85.5	285	7	
2025-08-26T00:00	18500	73	-57.4	-85.2	288	7	
2025-08-26T00:00	18550	73	-57.4	-85.2	293	8	
2025-08-26T00:00	18600	72	-57.2	-85.2	296	9	
2025-08-26T00:00	18650	72	-57.2	-85.2	299	8	
2025-08-26T00:00	18700	71	-57.1	-85.1	303	8	
2025-08-26T00:00	18750	71	-56.9	-85.1	303	8	
2025-08-26T00:00	18800	70	-56.8	-85.1	299	8	
2025-08-26T00:00	18850	69	-56.8	-85.0	291	8	
2025-08-26T00:00	18900	69	-56.9	-85.0	285	8	
2025-08-26T00:00	18950	68	-56.9	-85.0	286	8	
2025-08-26T00:00	19000	68	-56.9	-85.0	289	8	
2025-08-26T00:00	19050	67	-56.9	-85.0	290	8	
2025-08-26T00:00	19100	67	-56.9	-85.0	291	8	
2025-08-26T00:00	19150	66	-57.0	-85.1	290	8	
2025-08-26T00:00	19200	66	-57.2	-85.1	287	8	
2025-08-26T00:00	19250	65	-57.3	-85.3	287	8	
2025-08-26T00:00	19300	65	-57.2	-85.2	289	9	
2025-08-26T00:00	19350	64	-57.2	-85.2	291	9	
2025-08-26T00:00	19400	64	-57.2	-85.2	290	9	
2025-08-26T00:00	19450	63	-57.5	-85.3	288	9	
2025-08-26T00:00	19500	63	-57.7	-85.4	287	8	
2025-08-26T00:00	19550	62	-57.8	-85.6	288	9	
2025-08-26T00:00	19600	62	-57.6	-85.5	289	9	
2025-08-26T00:00	19650	61	-57.4	-85.5	291	9	
2025-08-26T00:00	19700	61	-57.3	-85.4	297	8	
2025-08-26T00:00	19750	60	-57.3	-85.5	306	8	
2025-08-26T00:00	19800	60	-57.1	-85.4	313	7	
2025-08-26T00:00	19850	59	-57.0	-85.3	316	7	
2025-08-26T00:00	19900	59	-57.0	-85.3	315	7	
2025-08-26T00:00	19950	58	-57.2	-85.3	313	7	
2025-08-26T00:00	20000	58	-57.3	-85.3	312	7	
2025-08-26T00:00	20050	57	-57.3		313	7	
2025-08-26T00:00	20100	57	-57.3		313	8	
2025-08-26T00:00	20150	57	-57.4		310	8	
2025-08-26T00:00	20200	56	-57.5		308	8	
2025-08-26T00:00	20250	56	-57.0		305	8	
2025-08-26T00:00	20300	55	-56.8		304	8	
2025-08-26T00:00	20350	55	-56.7		305	8	
2025-08-26T00:00	20400	54	-56.4		308	9	
2025-08-26T00:00	20450	54	-55.7		318	9	
2025-08-26T00:00	20500	53	-55.2		330	9	
2025-08-26T00:00	20550	53	-54.6		342	9	
2025-08-26T00:00	20600	53	-54.5		351	8	
2025-08-26T00:00	20650	52	-54.8		357	7	
2025-08-26T00:00	20700	52	-55.0		358	6	
2025-08-26T00:00	20750	51	-55.2		355	5	
2025-08-26T00:00	20800	51	-55.0		351	5	
2025-08-26T00:00	20850	51	-54.9		348	5	
2025-08-26T00:00	20900	50	-54.8		346	5	
2025-08-26T00:00	20950	50	-54.6		347	5	
2025-08-26T00:00	21000	49	-54.6		349	5	
2025-08-26T00:00	21050	49	-54.4		352	4	
2025-08-26T00:00	21100	49	-54.4		2	3	
2025-08-26T00:00	21150	48	-54.5		17	2	
2025-08-26T00:00	21200	48	-54.6		21	2	
2025-08-26T00:00	21250	48	-55.0		351	1	
2025-08-26T00:00	21300	47	-55.2		303	2	
2025-08-26T00:00	21350	47	-55.0		289	3	
2025-08-26T00:00	21400	46	-55.1		284	3	
2025-08-26T00:00	21450	46	-55.2		266	3	
2025-08-26T00:00	21500	46	-55.0		242	3	
2025-08-26T00:00	21550	45	-54.8		234	3	
2025-08-26T00:00	21600	45	-54.9		244	3	
2025-08-26T00:00	21650	45	-54.8		267	3	
2025-08-26T00:00	21700	44	-54.7		297	3	
2025-08-26T00:00	21750	44	-54.0		315	4	
2025-08-26T00:00	21800	44	-53.8		323	4	
2025-08-26T00:00	21850	43	-53.8		331	5	
2025-08-26T00:00	21900	43	-54.0		346	5	
2025-08-26T00:00	21950	43	-53.9		358	5	
2025-08-26T00:00	22000	42	-53.3		4	4	
2025-08-26T00:00	22050	42	-52.8		8	3	
2025-08-26T00:00	22100	42	-52.8		12	3	
2025-08-26T00:00	22150	41	-52.8		10	2	
2025-08-26T00:00	22200	41	-52.5		9	1	
2025-08-26T00:00	22250	41	-52.3		26	1	
2025-08-26T00:00	22300	40	-52.2		39	1	
2025-08-26T00:00	22350	40	-52.4		35	1	
2025-08-26T00:00	22400	40	-52.2		35	1	
2025-08-26T00:00	22450	39	-52.2		76	0	
2025-08-26T00:00	22500	39	-52.1		180	1	
2025-08-26T00:00	22550	39	-51.8		181	1	
2025-08-26T00:00	22600	39	-51.8		175	1	
2025-08-26T00:00	22650	38	-52.2		141	1	
2025-08-26T00:00	22700	38	-52.5		53	1	
2025-08-26T00:00	22750	38	-52.2		49	2	
2025-08-26T00:00	22800	37	-51.6		62	3	
2025-08-26T00:00	22850	37	-51.7		74	3	
2025-08-26T00:00	22900	37	-51.5		80	3	
2025-08-26T00:00	22950	37	-51.2		87	3	
2025-08-26T00:00	23000	36	-51.1		95	3	
2025-08-26T00:00	23050	36	-51.3		95	3	
2025-08-26T00:00	23100	36	-51.3		82	4	
2025-08-26T00:00	23150	35	-50.8		72	4	
2025-08-26T00:00	23200	35	-50.9		76	4	
2025-08-26T00:00	23250	35	-51.0		92	4	
2025-08-26T00:00	23300	35	-51.0		110	4	
2025-08-26T00:00	23350	34	-51.2		126	4	
2025-08-26T00:00	23400	34	-51.5		135	3	
2025-08-26T00:00	23450	34	-51.9		134	3	
2025-08-26T00:00	23500	34	-51.6		131	3	
2025-08-26T00:00	23550	33	-51.4		134	3	
2025-08-26T00:00	23600	33	-51.3		143	3	
2025-08-26T00:00	23650	33	-51.3		152	3	
2025-08-26T00:00	23700	33	-50.9		159	2	
2025-08-26T00:00	23750	32	-50.6		165	1	
2025-08-26T00:00	23800	32	-50.9		154	1	
2025-08-26T00:00	23850	32	-50.9		112	1	
2025-08-26T00:00	23900	32	-50.4		108	3	
2025-08-26T00:00	23950	31	-50.2		116	5	
2025-08-26T00:00	24000	31	-49.9		124	6	
2025-08-26T00:00	24050	31	-49.6		128	7	
2025-08-26T00:00	24100	31	-49.1		122	6	
2025-08-26T00:00	24150	30	-49.1		112	6	
2025-08-26T00:00	24200	30	-49.3		108	6	
2025-08-26T00:00	24250	30	-49.0		115	6	
2025-08-26T00:00	24300	30	-49.0		128	6	
2025-08-26T00:00	24350	29	-49.2		139	6	
2025-08-26T00:00	24400	29	-49.4		147	5	
2025-08-26T00:00	24450	29	-49.3		149	5	
2025-08-26T00:00	24500	29	-49.0		148	4	
2025-08-26T00:00	24550	29	-48.5		146	4	
2025-08-26T00:00	24600	28	-48.7		140	3	
2025-08-26T00:00	24650	28	-48.9		125	2	
2025-08-26T00:00	24700	28	-49.1		95	2	
2025-08-26T00:00	24750	28	-49.1		70	2	
2025-08-26T00:00	24800	28	-49.0		62	3	
2025-08-26T00:00	24850	27	-49.0		61	4	
2025-08-26T00:00	24900	27	-48.7		68	4	
2025-08-26T00:00	24950	27	-48.3		81	4	
2025-08-26T00:00	25000	27	-48.0		96	5	
2025-08-26T00:00	25050	26	-47.8		106	5	
2025-08-26T00:00	25100	26	-47.4		108	5	
2025-08-26T00:00	25150	26	-47.3		102	5	
2025-08-26T00:00	25200	26	-47.5		98	5	
2025-08-26T00:00	25250	26	-47.9		96	5	
2025-08-26T00:00	25300	26	-48.2		97	5	
2025-08-26T00:00	25350	25	-48.2		102	4	
2025-08-26T00:00	25400	25	-48.4		111	4	
2025-08-26T00:00	25450	25	-48.4		124	3	
2025-08-26T00:00	25500	25	-48.4		134	2	
2025-08-26T00:00	25550	25	-48.3		117	2	
2025-08-26T00:00	25600	24	-48.0		95	3	
2025-08-26T00:00	25650	24	-48.0		90	5	
2025-08-26T00:00	25700	24	-48.1		90	7	
2025-08-26T00:00	25750	24	-47.8		95	8	
2025-08-26T00:00	25800	24	-47.8		103	8	
2025-08-26T00:00	25850	23	-47.6		109	9	
2025-08-26T00:00	25900	23	-47.3		112	10	
2025-08-26T00:00	25950	23	-47.3		112	11	
2025-08-26T00:00	26000	23	-47.6		112	11	
2025-08-26T00:00	26050	23	-47.7		113	10	
2025-08-26T00:00	26100	23	-47.6		114	9	
2025-08-26T00:00	26150	22	-47.6		115	9	
2025-08-26T00:00	26200	22	-47.6		118	8	
2025-08-26T00:00	26250	22	-47.8		121	8	
2025-08-26T00:00	26300	22	-47.8		125	8	
2025-08-26T00:00	26350	22	-47.8		127	8	
2025-08-26T00:00	26400	22	-47.7		129	7	
2025-08-26T00:00	26450	21	-47.4		130	6	
2025-08-26T00:00	26500	21	-47.1		131	6	
2025-08-26T00:00	26550	21	-47.1		133	6	
2025-08-26T00:00	26600	21	-47.2		133	6	
2025-08-26T00:00	26650	21	-47.2		132	7	
2025-08-26T00:00	26700	21	-47.3		132	8	
2025-08-26T00:00	26750	20	-47.4		133	7	
2025-08-26T00:00	26800	20	-47.2		133	6	
2025-08-26T00:00	26850	20	-46.8		135	5	
2025-08-26T00:00	26900	20	-46.5		138	5	
2025-08-26T00:00	26950	20	-46.4		140	6	
2025-08-26T00:00	27000	20	-46.3		138	6	
2025-08-26T00:00	27050	20	-46.2		133	5	
2025-08-26T00:00	27100	19	-46.1		125	5	
2025-08-26T00:00	27150	19	-46.3		114	4	
2025-08-26T00:00	27200	19	-46.3		104	4	
2025-08-26T00:00	27250	19	-46.2		102	4	
2025-08-26T00:00	27300	19	-46.0		111	4	
2025-08-26T00:00	27350	19	-45.9		124	5	
2025-08-26T00:00	27400	19	-46.0		131	5	
2025-08-26T00:00	27450	18	-45.8		131	4	
2025-08-26T00:00	27500	18	-45.6		127	3	
2025-08-26T00:00	27550	18	-45.5		120	3	
2025-08-26T00:00	27600	18	-45.7		115	3	
2025-08-26T00:00	27650	18	-45.8		108	3	
2025-08-26T00:00	27700	18	-45.8		95	3	
2025-08-26T00:00	27750	18	-45.9		79	4	
2025-08-26T00:00	27800	17	-45.9		71	4	
2025-08-26T00:00	27850	17	-45.9		76	5	
2025-08-26T00:00	27900	17	-45.6		89	5	
2025-08-26T00:00	27950	17	-45.7		102	5	
2025-08-26T00:00	28000	17	-45.7		113	5	
2025-08-26T00:00	28050	17	-45.7		117	4	
2025-08-26T00:00	28100	17	-45.7		108	3	
2025-08-26T00:00	28150	17	-45.7		82	2	
2025-08-26T00:00	28200	16	-45.6		60	2	
2025-08-26T00:00	28250	16	-45.5		44	2	
2025-08-26T00:00	28300	16	-45.1		31	3	
2025-08-26T00:00	28350	16	-44.4		25	5	
2025-08-26T00:00	28400	16	-44.2		25	7	
2025-08-26T00:00	28450	16	-44.0		30	8	
2025-08-26T00:00	28500	16	-43.9		39	9	
2025-08-26T00:00	28550	16	-43.6		48	10	
2025-08-26T00:00	28600	15	-43.5		54	11	
2025-08-26T00:00	28650	15	-43.5		59	11	
2025-08-26T00:00	28700	15	-43.6		66	11	
2025-08-26T00:00	28750	15	-43.7		74	11	
2025-08-26T00:00	28800	15	-43.6		79	11	
2025-08-26T00:00	28850	15	-43.4		81	11	
2025-08-26T00:00	28900	15	-43.4		83	11	
2025-08-26T00:00	28950	15	-43.6		84	10	
2025-08-26T00:00	29000	15	-43.8		82	10	
2025-08-26T00:00	29050	14	-44.0		79	9	
2025-08-26T00:00	29100	14	-44.2		77	8	
2025-08-26T00:00	29150	14	-44.5		76	8	
2025-08-26T00:00	29200	14	-44.8		71	7	
2025-08-26T00:00	29250	14	-45.2		61	6	
2025-08-26T00:00	29300	14	-45.1		52	6	
2025-08-26T00:00	29350	14	-45.0		50	6	
2025-08-26T00:00	29400	14	-44.9		57	6	
2025-08-26T00:00	29450	14	-44.9		69	6	
2025-08-26T00:00	29500	14	-45.0		77	7	
2025-08-26T00:00	29550	13	-44.9		79	8	
2025-08-26T00:00	29600	13	-44.9		78	8	
2025-08-26T00:00	29650	13	-44.9		78	9	
2025-08-26T00:00	29700	13	-44.8		78	9	
2025-08-26T00:00	29750	13	-44.7		79	9	
2025-08-26T00:00	29800	13	-44.5		82	9	
2025-08-26T00:00	29850	13	-44.4		85	9	
2025-08-26T00:00	29900	13	-44.5		84	8	
2025-08-26T00:00	29950	13	-44.3		77	7	
2025-08-26T00:00	30000	13	-44.3		69	6	
2025-08-26T00:00	30050	12	-44.5		63	5	
2025-08-26T00:00	30100	12	-44.2		58	5	
2025-08-26T00:00	30150	12	-44.5		54	4	
2025-08-26T00:00	30200	12	-44.9		50	4	
2025-08-26T00:00	30250	12	-45.0		47	4	
2025-08-26T00:00	30300	12	-44.9		46	4	
2025-08-26T00:00	30350	12	-44.7		48	4	
2025-08-26T00:00	30400	12	-44.7		53	5	
2025-08-26T00:00	30450	12	-44.3		56	7	
2025-08-26T00:00	30500	12	-43.9		56	8	
2025-08-26T00:00	30550	12	-43.3		56	10	
2025-08-26T00:00	30600	12	-43.0		57	11	
2025-08-26T00:00	30650	11	-42.8		57	12	
2025-08-26T00:00	30700	11	-42.5		58	13	
2025-08-26T00:00	30750	11	-42.0		60	13	
2025-08-26T00:00	30800	11	-41.8		63	12	
2025-08-26T00:00	30850	11	-42.0		65	11	
2025-08-26T00:00	30900	11	-42.3		66	10	
2025-08-26T00:00	30950	11	-42.2		67	10	
2025-08-26T00:00	31000	11	-42.2		66	9	
2025-08-26T00:00	31050	11	-42.3		62	7	
2025-08-26T00:00	31100	11	-42.6		57	6	
2025-08-26T00:00	31150	11	-42.9		53	6	
2025-08-26T00:00	31200	11	-42.8		55	8	
2025-08-26T00:00	31250	10	-42.5		59	9	
2025-08-26T00:00	31300	10	-42.4		64	11	
2025-08-26T00:00	31350	10	-42.4		68	12	
2025-08-26T00:00	31400	10	-42.1		70	13	
2025-08-26T00:00	31450	10	-42.0		72	14	
2025-08-26T00:00	31500	10	-41.9		72	14	
2025-08-26T00:00	31550	10	-41.8		74	15	
2025-08-26T00:00	31600	10	-41.5		77	14	
2025-08-26T00:00	31650	10	-41.4		81	14	
2025-08-26T00:00	31700	10	-41.8		84	13	
2025-08-26T00:00	31750	10	-42.1		86	13	
2025-08-26T00:00	31800	10	-42.2		87	12	
2025-08-26T00:00	31850	10	-42.1		86	11	
2025-08-26T00:00	31900	9	-42.2		85	11	
2025-08-26T00:00	31950	9	-42.3		87	10	
2025-08-26T00:00	32000	9	-42.1		89	10	
2025-08-26T00:00	32050	9	-41.9		88	11	
2025-08-26T00:00	32100	9	-41.4		86	12	
2025-08-26T00:00	32150	9	-41.0		86	12	
2025-08-26T00:00	32200	9	-40.3		90	11	
2025-08-26T00:00	32250	9	-40.2		95	10	
2025-08-26T00:00	32300	9	-40.1		97	10	
2025-08-26T00:00	32350	9	-39.9		93	9	
2025-08-26T00:00	32400	9	-39.8		85	10	
2025-08-26T00:00	32450	9	-39.7		79	11	
2025-08-26T00:00	32500	9	-39.7		77	12	
2025-08-26T00:00	32550	9	-39.4		78	13	
2025-08-26T00:00	32600	9	-39.2		80	14	
2025-08-26T00:00	32650	9	-39.1		84	15	
2025-08-26T00:00	32700	8	-38.8		90	16	
2025-08-26T00:00	32750	8	-38.8		96	17	
2025-08-26T00:00	32800	8	-38.8		100	18	
2025-08-26T00:00	32850	8	-38.6		102	17	
2025-08-26T00:00	32900	8	-38.3		102	16	
2025-08-26T00:00	32950	8	-38.0		103	15	
2025-08-26T00:00	33000	8	-38.0		106	14	
2025-08-26T00:00	33050	8	-38.2		109	14	
2025-08-26T00:00	33100	8	-38.2		112	13	
2025-08-26T00:00	33150	8	-38.3		116	12	
2025-08-26T00:00	33200	8	-38.3		119	10	
2025-08-26T00:00	33250	8	-38.5		120	9	
2025-08-26T00:00	33300	8	-38.4		119	8	
2025-08-26T00:00	33350	8	-38.1		114	8	
2025-08-26T00:00	33400	8	-37.8		109	8	
2025-08-26T00:00	33450	8	-37.3		104	9	
2025-08-26T00:00	33500	8	-36.9		99	9	
2025-08-26T00:00	33550	7	-36.3		94	9	
2025-08-26T00:00	33600	7	-36.2		89	9	
2025-08-26T00:00	33650	7	-36.3		85	10	
2025-08-26T00:00	33700	7	-36.4		83	11	
2025-08-26T00:00	33750	7	-36.5		82	11	
2025-08-26T00:00	33800	7	-36.6		84	11	
2025-08-26T00:00	33850	7	-36.7		88	10	
2025-08-26T00:00	33900	7	-36.9		91	9	
2025-08-26T00:00	33950	7	-37.1		91	8	
2025-08-26T00:00	34000	7	-36.6		84	8	
2025-08-26T00:00	34050	7	-36.3		75	8	
2025-08-26T00:00	34100	7	-36.2		70	9	
2025-08-26T00:00	34150	7	-36.1		69	10	
2025-08-26T00:00	34200	7	-36.0		71	11	
2025-08-26T00:00	34250	7	-35.7		76	11	
2025-08-26T00:00	34300	7	-35.4		82	11	
2025-08-26T00:00	34350	7	-35.5		89	11	
2025-08-26T00:00	34400	7	-35.7		96	11	
2025-08-26T00:00	34450	7	-35.9		103	12	
2025-08-26T00:00	34500	7	-36.0		109	12	
2025-08-26T00:00	34550	6	-36.0		115	12	
2025-08-26T00:00	34600	6	-36.0		118	11	
2025-08-26T00:00	34650	6	-35.8		119	10	
2025-08-26T00:00	34700	6	-35.7		119	8	
2025-08-26T00:00	34750	6	-35.4		114	6	
2025-08-26T00:00	34800	6	-35.1		102	5	
2025-08-26T00:00	34850	6	-34.9		85	5	
2025-08-26T00:00	34900	6	-34.4		75	6	
2025-08-26T00:00	34950	6	-34.0		75	8	
2025-08-26T00:00	35000	6	-33.7		78	9	
2025-08-26T00:00	35050	6	-33.7		83	10	
2025-08-26T00:00	35100	6	-33.6		89	11	
2025-08-26T00:00	35150	6	-33.7		95	11	
2025-08-26T00:00	35200	6	-33.7		101	12	
2025-08-26T00:00	35250	6	-33.7		105	12	
2025-08-26T00:00	35300	6	-33.7		107	12	
2025-08-26T00:00	35350	6	-33.3		106	12	
2025-08-26T00:00	35400	6	-33.1		103	11	
2025-08-26T00:00	35450	6	-33.1		99	10	
2025-08-26T00:00	35500	6	-33.3		94	9	
2025-08-26T00:00	35550	6	-33.2		91	9	
2025-08-26T00:00	35600	6	-33.1		91	8	
2025-08-26T00:00	35650	6	-32.9		86	7	
2025-08-26T00:00	35700	5	-32.6		75	6	
2025-08-26T00:00	35750	5	-32.4		64	7	
2025-08-26T00:00	35800	5	-32.3		59	7	
2025-08-26T00:00	35850	5	-32.2		55	8	
2025-08-26T00:00	35900	5	-32.1		51	8	
2025-08-26T00:00	35950	5	-32.1		50	9	
2025-08-26T00:00	36000	5	-32.1		54	9	
2025-08-26T00:00	36050	5	-32.0		60	10	
2025-08-26T00:00	36100	5	-32.1		66	10	
2025-08-26T00:00	36150	5	-32.2		69	11	
2025-08-26T00:00	36200	5	-32.4		71	11	
2025-08-26T00:00	36250	5	-32.5		72	11	
2025-08-26T00:00	36300	5	-32.5		74	11	
2025-08-26T00:00	36350	5	-32.6		78	11	
2025-08-26T00:00	36400	5	-32.7		80	12	
2025-08-26T00:00	36450	5	-32.7		83	12	
2025-08-26T00:00	36500	5	-32.6		88	12	
2025-08-26T00:00	36550	5	-32.5		94	12	
2025-08-26T00:00	36600	5	-32.5		100	12	
2025-08-26T00:00	36650	5	-32.4		106	12	
2025-08-26T00:00	36700	5	-32.0		111	12	
2025-08-26T00:00	36750	5	-31.9		113	12	
2025-08-26T00:00	36800	5	-31.9		112	12	
2025-08-26T12:00	491	958	25.3	13.5	16	1	
2025-08-26T12:00	501	957	24.7	13.4	32	1	
2025-08-26T12:00	520	955	24.1	13.1	32	1	
2025-08-26T12:00	540	953	23.9	12.5	26	1	
2025-08-26T12:00	560	951	23.7	12.4	18	1	
2025-08-26T12:00	580	948	23.4	12.5	9	1	
2025-08-26T12:00	600	946	23.2	12.4	2	1	
2025-08-26T12:00	620	944	23.1	12.3	357	1	
2025-08-26T12:00	640	942	23.0	12.4	352	1	
2025-08-26T12:00	660	940	22.8	12.4	346	1	
2025-08-26T12:00	680	937	22.6	12.4	327	0	
2025-08-26T12:00	700	935	22.5	12.1	239	0	
2025-08-26T12:00	720	933	22.3	12.2	213	1	
2025-08-26T12:00	740	931	22.1	12.1	208	1	
2025-08-26T12:00	760	929	22.1	11.6	209	1	
2025-08-26T12:00	780	927	21.9	11.5	214	2	
2025-08-26T12:00	800	925	21.7	11.7	217	2	
2025-08-26T12:00	820	923	21.4	11.9	220	2	
2025-08-26T12:00	840	920	21.2	11.7	220	2	
2025-08-26T12:00	860	918	21.1	11.4	218	3	
2025-08-26T12:00	880	916	21.2	10.9	217	3	
2025-08-26T12:00	900	914	21.1	10.5	216	4	
2025-08-26T12:00	920	912	21.1	10.2	216	5	
2025-08-26T12:00	940	910	21.2	9.4	217	5	
2025-08-26T12:00	960	908	21.2	8.9	218	6	
2025-08-26T12:00	980	906	21.0	9.1	219	6	
2025-08-26T12:00	1000	904	20.9	8.9	220	6	
2025-08-26T12:00	1020	901	20.7	8.9	221	6	
2025-08-26T12:00	1040	899	20.5	8.8	222	6	
2025-08-26T12:00	1060	897	20.4	8.5	223	7	
2025-08-26T12:00	1080	895	20.2	8.2	224	7	
2025-08-26T12:00	1100	893	20.1	7.9	225	7	
2025-08-26T12:00	1120	891	19.9	8.3	226	7	
2025-08-26T12:00	1140	889	19.7	8.0	227	7	
2025-08-26T12:00	1160	887	19.6	7.3	227	7	
2025-08-26T12:00	1180	885	19.5	7.0	227	7	
2025-08-26T12:00	1200	883	19.4	6.6	227	8	
2025-08-26T12:00	1220	881	19.2	6.6	227	8	
2025-08-26T12:00	1240	878	19.1	6.3	227	8	
2025-08-26T12:00	1260	877	18.9	6.4	226	8	
2025-08-26T12:00	1280	875	18.7	6.1	226	8	
2025-08-26T12:00	1300	873	18.6	5.7	226	8	
2025-08-26T12:00	1320	871	18.4	5.5	225	9	
2025-08-26T12:00	1340	869	18.4	4.5	225	9	
2025-08-26T12:00	1360	866	18.3	4.1	225	9	
2025-08-26T12:00	1380	864	18.1	4.2	225	10	
2025-08-26T12:00	1400	863	17.9	3.9	225	10	
2025-08-26T12:00	1420	860	17.7	3.7	225	10	
2025-08-26T12:00	1440	858	17.6	3.3	225	10	
2025-08-26T12:00	1460	856	17.5	2.4	225	11	
2025-08-26T12:00	1480	854	17.4	1.8	225	11	
2025-08-26T12:00	1500	852	17.3	1.1	225	11	
2025-08-26T12:00	1520	850	17.5	-2.2	226	11	
2025-08-26T12:00	1540	848	17.4	-2.1	226	11	
2025-08-26T12:00	1560	846	17.3	-2.2	227	11	
2025-08-26T12:00	1580	844	17.2	-3.2	228	11	
2025-08-26T12:00	1600	842	17.1	-3.6	228	10	
2025-08-26T12:00	1620	840	16.9	-3.5	229	10	
2025-08-26T12:00	1640	838	16.7	-3.4	229	10	
2025-08-26T12:00	1660	836	16.5	-2.5	230	9	
2025-08-26T12:00	1680	835	16.4	-1.9	231	9	
2025-08-26T12:00	1700	833	16.2	-0.5	232	9	
2025-08-26T12:00	1720	831	16.0	1.2	233	8	
2025-08-26T12:00	1740	829	16.0	1.0	234	8	
2025-08-26T12:00	1760	827	15.9	1.5	236	8	
2025-08-26T12:00	1780	825	15.7	1.4	238	8	
2025-08-26T12:00	1800	823	15.5	1.6	240	7	
2025-08-26T12:00	1820	821	15.3	1.6	243	7	
2025-08-26T12:00	1840	819	15.1	1.5	246	7	
2025-08-26T12:00	1860	817	15.0	1.5	249	7	
2025-08-26T12:00	1880	815	14.8	1.8	253	7	
2025-08-26T12:00	1900	813	14.6	2.6	255	7	
2025-08-26T12:00	1920	811	14.4	3.0	258	7	
2025-08-26T12:00	1940	809	14.2	3.0	260	7	
2025-08-26T12:00	1960	807	14.0	3.3	261	7	
2025-08-26T12:00	1980	806	13.8	3.4	262	7	
2025-08-26T12:00	2000	804	13.7	3.5	262	7	
2025-08-26T12:00	2020	802	13.5	3.5	262	8	
2025-08-26T12:00	2040	800	13.3	3.3	263	8	
2025-08-26T12:00	2060	798	13.2	3.2	263	8	
2025-08-26T12:00	2080	796	13.0	3.3	264	8	
2025-08-26T12:00	2100	794	12.8	3.8	264	8	
2025-08-26T12:00	2120	792	12.6	3.7	265	8	
2025-08-26T12:00	2140	790	12.5	3.6	265	8	
2025-08-26T12:00	2160	789	12.3	3.5	266	8	
2025-08-26T12:00	2180	787	12.1	3.4	267	8	
2025-08-26T12:00	2200	785	12.0	3.4	267	9	
2025-08-26T12:00	2220	783	11.8	3.4	268	9	
2025-08-26T12:00	2240	781	11.6	3.3	269	9	
2025-08-26T12:00	2260	779	11.5	3.1	270	9	
2025-08-26T12:00	2280	777	11.4	2.8	272	9	
2025-08-26T12:00	2300	775	11.2	2.8	273	9	
2025-08-26T12:00	2320	774	11.0	2.9	273	9	
2025-08-26T12:00	2340	772	10.9	2.8	273	9	
2025-08-26T12:00	2360	770	10.7	2.6	273	9	
2025-08-26T12:00	2380	768	10.6	2.6	272	9	
2025-08-26T12:00	2400	766	10.4	2.4	271	9	
2025-08-26T12:00	2420	764	10.3	1.9	270	9	
2025-08-26T12:00	2440	763	10.2	1.2	270	9	
2025-08-26T12:00	2460	761	10.1	0.4	270	8	
2025-08-26T12:00	2480	759	9.9	0.2	271	8	
2025-08-26T12:00	2500	757	9.8	0.2	273	8	
2025-08-26T12:00	2520	755	9.6	0.7	275	8	
2025-08-26T12:00	2540	754	9.4	1.4	277	8	
2025-08-26T12:00	2560	751	9.2	2.0	279	7	
2025-08-26T12:00	2580	750	9.0	2.4	281	7	
2025-08-26T12:00	2600	748	8.8	2.5	281	7	
2025-08-26T12:00	2620	746	8.7	2.5	280	7	
2025-08-26T12:00	2640	744	8.5	2.5	280	7	
2025-08-26T12:00	2660	743	8.3	2.4	278	7	
2025-08-26T12:00	2680	741	8.1	2.3	277	6	
2025-08-26T12:00	2700	739	7.9	2.2	276	6	
2025-08-26T12:00	2720	737	7.7	2.2	276	6	
2025-08-26T12:00	2740	735	7.5	2.1	276	6	
2025-08-26T12:00	2760	733	7.3	2.1	276	6	
2025-08-26T12:00	2780	732	7.1	2.1	276	6	
2025-08-26T12:00	2800	730	6.9	2.0	276	6	
2025-08-26T12:00	2820	728	6.7	2.0	277	6	
2025-08-26T12:00	2840	727	6.6	2.0	277	6	
2025-08-26T12:00	2860	725	6.4	1.9	276	6	
2025-08-26T12:00	2880	723	6.2	1.8	276	7	
2025-08-26T12:00	2900	721	6.0	1.8	276	7	
2025-08-26T12:00	2920	719	5.8	1.7	276	7	
2025-08-26T12:00	2940	718	5.7	1.6	275	7	
2025-08-26T12:00	2960	716	5.5	1.6	275	7	
2025-08-26T12:00	2980	714	5.3	1.4	275	7	
2025-08-26T12:00	3000	713	5.1	1.3	275	7	
2025-08-26T12:00	3020	711	5.0	1.3	275	7	
2025-08-26T12:00	3040	709	4.8	1.2	276	7	
2025-08-26T12:00	3060	707	4.6	1.1	276	7	
2025-08-26T12:00	3080	705	4.4	0.8	277	7	
2025-08-26T12:00	3100	704	4.2	0.7	277	7	
2025-08-26T12:00	3120	702	4.0	0.6	277	7	
2025-08-26T12:00	3140	700	3.8	0.5	277	7	
2025-08-26T12:00	3160	699	3.7	0.3	276	6	
2025-08-26T12:00	3180	697	3.5	0.1	274	6	
2025-08-26T12:00	3200	695	3.3	-0.2	272	6	
2025-08-26T12:00	3220	693	3.1	-0.6	270	6	
2025-08-26T12:00	3240	692	3.0	-1.0	268	6	
2025-08-26T12:00	3260	690	2.8	-1.3	267	6	
2025-08-26T12:00	3280	688	2.6	-1.3	267	6	
2025-08-26T12:00	3300	687	2.4	-1.2	268	6	
2025-08-26T12:00	3320	685	2.2	-1.1	269	7	
2025-08-26T12:00	3340	683	2.0	-1.0	270	7	
2025-08-26T12:00	3360	682	1.8	-0.9	271	7	
2025-08-26T12:00	3380	680	1.6	-0.9	271	7	
2025-08-26T12:00	3400	678	1.5	-0.9	270	7	
2025-08-26T12:00	3420	677	1.3	-0.9	269	7	
2025-08-26T12:00	3440	675	1.1	-1.1	268	7	
2025-08-26T12:00	3460	673	0.9	-1.2	265	7	
2025-08-26T12:00	3480	671	0.7	-1.4	263	8	
2025-08-26T12:00	3500	670	0.5	-1.5	261	8	
2025-08-26T12:00	3520	668	0.4	-1.5	260	8	
2025-08-26T12:00	3540	667	0.2	-1.6	259	8	
2025-08-26T12:00	3560	665	0.0	-1.6	259	8	
2025-08-26T12:00	3580	663	-0.2	-1.6	260	8	
2025-08-26T12:00	3600	662	-0.3	-1.9	261	8	
2025-08-26T12:00	3620	660	-0.3	-3.4	264	8	
2025-08-26T12:00	3640	658	-0.3	-4.4	267	8	
2025-08-26T12:00	3660	657	-0.5	-4.9	270	8	
2025-08-26T12:00	3680	655	-0.6	-5.7	273	8	
2025-08-26T12:00	3700	654	-0.6	-6.5	275	8	
2025-08-26T12:00	3720	652	-0.6	-8.6	278	8	
2025-08-26T12:00	3740	650	-0.5	-12.7	279	8	
2025-08-26T12:00	3760	648	-0.4	-17.3	281	8	
2025-08-26T12:00	3780	647	-0.2	-24.9	282	8	
2025-08-26T12:00	3800	645	-0.1	-29.7	283	8	
2025-08-26T12:00	3820	644	-0.2	-30.4	284	8	
2025-08-26T12:00	3840	642	-0.2	-30.3	286	8	
2025-08-26T12:00	3860	641	-0.3	-29.7	287	8	
2025-08-26T12:00	3880	639	-0.4	-29.0	288	8	
2025-08-26T12:00	3900	637	-0.5	-28.5	289	9	
2025-08-26T12:00	3920	636	-0.7	-27.9	290	9	
2025-08-26T12:00	3940	634	-0.8	-27.9	290	9	
2025-08-26T12:00	3960	633	-0.9	-28.1	291	10	
2025-08-26T12:00	3980	631	-0.9	-29.1	293	10	
2025-08-26T12:00	4000	629	-0.9	-30.3	296	10	
2025-08-26T12:00	4020	628	-1.0	-30.3	299	11	
2025-08-26T12:00	4040	626	-1.0	-28.8	300	11	
2025-08-26T12:00	4060	625	-1.1	-26.5	303	11	
2025-08-26T12:00	4080	623	-1.2	-22.0	305	11	
2025-08-26T12:00	4100	621	-1.2	-18.0	307	11	
2025-08-26T12:00	4120	620	-1.3	-15.5	309	11	
2025-08-26T12:00	4140	618	-1.4	-13.6	310	11	
2025-08-26T12:00	4160	617	-1.5	-11.0	311	10	
2025-08-26T12:00	4180	615	-1.6	-9.8	311	10	
2025-08-26T12:00	4200	614	-1.5	-12.6	310	10	
2025-08-26T12:00	4220	612	-1.5	-16.5	309	10	
2025-08-26T12:00	4240	611	-1.5	-20.7	307	9	
2025-08-26T12:00	4260	609	-1.6	-22.2	305	9	
2025-08-26T12:00	4280	608	-1.8	-24.0	302	9	
2025-08-26T12:00	4300	606	-1.9	-26.6	299	9	
2025-08-26T12:00	4320	605	-2.1	-27.7	296	9	
2025-08-26T12:00	4340	603	-2.2	-30.7	295	9	
2025-08-26T12:00	4360	601	-2.3	-33.0	294	10	
2025-08-26T12:00	4380	600	-2.4	-32.7	294	10	
2025-08-26T12:00	4400	598	-2.4	-31.4	294	10	
2025-08-26T12:00	4420	597	-2.5	-29.2	294	10	
2025-08-26T12:00	4440	595	-2.5	-27.5	295	11	
2025-08-26T12:00	4460	594	-2.7	-26.1	295	11	
2025-08-26T12:00	4480	592	-2.8	-25.6	296	11	
2025-08-26T12:00	4500	591	-2.9	-23.0	297	11	
2025-08-26T12:00	4520	589	-3.1	-20.5	298	12	
2025-08-26T12:00	4540	588	-3.2	-20.9	300	12	
2025-08-26T12:00	4560	586	-3.4	-22.0	302	12	
2025-08-26T12:00	4580	585	-3.5	-20.9	305	12	
2025-08-26T12:00	4600	584	-3.7	-20.2	307	12	
2025-08-26T12:00	4620	582	-3.8	-20.4	309	12	
2025-08-26T12:00	4640	580	-3.8	-20.8	311	12	
2025-08-26T12:00	4660	579	-3.9	-20.4	311	12	
2025-08-26T12:00	4680	578	-4.0	-21.2	312	11	
2025-08-26T12:00	4700	576	-4.1	-22.5	312	11	
2025-08-26T12:00	4720	575	-4.3	-22.1	312	11	
2025-08-26T12:00	4740	573	-4.4	-20.6	313	11	
2025-08-26T12:00	4760	572	-4.5	-19.6	314	11	
2025-08-26T12:00	4780	570	-4.6	-19.0	314	11	
2025-08-26T12:00	4800	569	-4.7	-18.3	315	11	
2025-08-26T12:00	4820	567	-4.8	-18.1	316	11	
2025-08-26T12:00	4840	566	-4.9	-17.3	315	11	
2025-08-26T12:00	4860	565	-5.0	-16.8	314	11	
2025-08-26T12:00	4880	563	-5.1	-16.4	313	11	
2025-08-26T12:00	4900	562	-5.3	-16.2	312	11	
2025-08-26T12:00	4920	560	-5.4	-16.1	310	11	
2025-08-26T12:00	4940	559	-5.6	-16.0	309	11	
2025-08-26T12:00	4960	557	-5.7	-16.1	309	11	
2025-08-26T12:00	4980	556	-5.9	-15.8	309	11	
2025-08-26T12:00	5000	555	-6.0	-15.3	310	11	
2025-08-26T12:00	5020	553	-6.1	-15.2	310	11	
2025-08-26T12:00	5040	552	-6.3	-15.3	311	11	
2025-08-26T12:00	5060	550	-6.4	-15.5	313	10	
2025-08-26T12:00	5080	549	-6.5	-15.5	314	10	
2025-08-26T12:00	5100	547	-6.7	-14.9	315	10	
2025-08-26T12:00	5120	546	-6.8	-13.7	316	10	
2025-08-26T12:00	5140	545	-7.0	-13.3	315	10	
2025-08-26T12:00	5160	543	-7.2	-13.1	315	10	
2025-08-26T12:00	5180	542	-7.4	-13.2	314	10	
2025-08-26T12:00	5200	540	-7.6	-13.2	313	10	
2025-08-26T12:00	5220	539	-7.8	-13.1	312	10	
2025-08-26T12:00	5240	538	-8.0	-13.2	312	10	
2025-08-26T12:00	5260	536	-8.1	-13.2	312	11	
2025-08-26T12:00	5280	535	-8.4	-13.2	312	11	
2025-08-26T12:00	5300	534	-8.5	-13.3	311	11	
2025-08-26T12:00	5320	532	-8.7	-13.8	310	11	
2025-08-26T12:00	5340	531	-8.8	-15.2	308	11	
2025-08-26T12:00	5360	530	-8.9	-17.2	306	11	
2025-08-26T12:00	5380	528	-9.0	-18.5	303	11	
2025-08-26T12:00	5400	527	-9.1	-19.4	300	11	
2025-08-26T12:00	5420	525	-9.2	-19.6	298	10	
2025-08-26T12:00	5440	524	-9.2	-19.9	296	10	
2025-08-26T12:00	5460	523	-9.3	-20.2	296	9	
2025-08-26T12:00	5480	521	-9.3	-21.7	298	9	
2025-08-26T12:00	5500	520	-9.3	-22.7	300	9	
2025-08-26T12:00	5520	519	-9.4	-23.2	303	9	
2025-08-26T12:00	5540	517	-9.5	-23.4	304	9	
2025-08-26T12:00	5560	516	-9.7	-23.5	305	9	
2025-08-26T12:00	5580	515	-9.9	-23.8	305	10	
2025-08-26T12:00	5600	513	-10.0	-24.8	304	10	
2025-08-26T12:00	5620	512	-10.0	-26.0	303	10	
2025-08-26T12:00	5640	511	-10.0	-27.6	302	11	
2025-08-26T12:00	5660	509	-9.8	-31.2	301	11	
2025-08-26T12:00	5680	508	-9.8	-31.6	300	11	
2025-08-26T12:00	5700	507	-9.9	-31.9	299	10	
2025-08-26T12:00	5720	505	-10.1	-31.7	299	10	
2025-08-26T12:00	5740	504	-10.2	-32.1	299	9	
2025-08-26T12:00	5760	503	-10.1	-34.3	300	8	
2025-08-26T12:00	5780	501	-10.0	-36.9	302	7	
2025-08-26T12:00	5800	500	-10.1	-38.4	305	6	
2025-08-26T12:00	5820	499	-10.1	-39.4	307	6	
2025-08-26T12:00	5840	498	-10.2	-38.9	309	5	
2025-08-26T12:00	5860	496	-10.3	-36.7	311	5	
2025-08-26T12:00	5880	495	-10.4	-35.4	313	5	
2025-08-26T12:00	5900	494	-10.6	-35.1	314	5	
2025-08-26T12:00	5920	492	-10.8	-34.8	315	5	
2025-08-26T12:00	5940	491	-10.9	-34.2	316	6	
2025-08-26T12:00	5960	490	-11.0	-33.5	316	6	
2025-08-26T12:00	5980	489	-11.1	-33.2	317	6	
2025-08-26T12:00	6000	487	-11.2	-34.8	318	6	
2025-08-26T12:00	6020	486	-11.3	-36.7	318	7	
2025-08-26T12:00	6040	485	-11.3	-38.0	318	7	
2025-08-26T12:00	6060	484	-11.4	-39.4	318	7	
2025-08-26T12:00	6080	482	-11.5	-37.8	318	7	
2025-08-26T12:00	6100	481	-11.7	-34.6	317	7	
2025-08-26T12:00	6120	480	-11.8	-34.1	316	7	
2025-08-26T12:00	6140	478	-11.9	-34.2	314	7	
2025-08-26T12:00	6160	477	-12.0	-34.0	313	8	
2025-08-26T12:00	6180	476	-12.2	-34.3	310	8	
2025-08-26T12:00	6200	475	-12.3	-34.9	309	8	
2025-08-26T12:00	6220	473	-12.5	-35.1	307	9	
2025-08-26T12:00	6240	472	-12.6	-34.9	305	9	
2025-08-26T12:00	6260	471	-12.7	-34.5	303	9	
2025-08-26T12:00	6280	470	-12.8	-34.4	302	9	
2025-08-26T12:00	6300	469	-12.9	-34.5	301	9	
2025-08-26T12:00	6320	467	-13.0	-34.6	299	10	
2025-08-26T12:00	6340	466	-13.1	-34.8	298	10	
2025-08-26T12:00	6360	465	-13.3	-34.9	297	10	
2025-08-26T12:00	6380	464	-13.4	-35.2	297	10	
2025-08-26T12:00	6400	462	-13.5	-35.4	296	11	
2025-08-26T12:00	6420	461	-13.7	-35.6	296	11	
2025-08-26T12:00	6440	460	-13.8	-35.8	296	11	
2025-08-26T12:00	6460	459	-13.9	-36.3	296	11	
2025-08-26T12:00	6480	458	-14.0	-36.9	295	12	
2025-08-26T12:00	6500	456	-14.1	-37.0	294	12	
2025-08-26T12:00	6520	455	-14.2	-37.0	293	12	
2025-08-26T12:00	6540	454	-14.4	-36.9	292	13	
2025-08-26T12:00	6560	453	-14.6	-36.9	291	13	
2025-08-26T12:00	6580	452	-14.7	-37.0	289	13	
2025-08-26T12:00	6600	450	-14.9	-37.0	289	14	
2025-08-26T12:00	6620	449	-15.1	-37.0	288	14	
2025-08-26T12:00	6640	448	-15.3	-37.1	288	14	
2025-08-26T12:00	6660	447	-15.4	-37.0	288	14	
2025-08-26T12:00	6680	446	-15.6	-37.0	289	14	
2025-08-26T12:00	6700	445	-15.7	-37.0	289	14	
2025-08-26T12:00	6720	443	-15.9	-37.1	290	14	
2025-08-26T12:00	6740	442	-16.0	-37.2	291	14	
2025-08-26T12:00	6760	441	-16.2	-37.3	292	14	
2025-08-26T12:00	6780	440	-16.3	-37.9	293	14	
2025-08-26T12:00	6800	439	-16.4	-38.1	294	14	
2025-08-26T12:00	6820	437	-16.6	-38.1	295	14	
2025-08-26T12:00	6840	436	-16.7	-38.2	295	13	
2025-08-26T12:00	6860	435	-16.9	-38.1	294	13	
2025-08-26T12:00	6880	434	-17.1	-38.2	294	13	
2025-08-26T12:00	6900	433	-17.3	-38.4	294	13	
2025-08-26T12:00	6920	432	-17.4	-38.2	294	13	
2025-08-26T12:00	6940	430	-17.6	-38.2	293	13	
2025-08-26T12:00	6960	429	-17.7	-38.6	293	13	
2025-08-26T12:00	6980	428	-17.8	-38.9	292	13	
2025-08-26T12:00	7000	427	-18.0	-39.0	291	13	
2025-08-26T12:00	7020	426	-18.2	-39.0	291	14	
2025-08-26T12:00	7040	425	-18.3	-39.1	290	14	
2025-08-26T12:00	7060	423	-18.5	-39.2	289	14	
2025-08-26T12:00	7080	422	-18.7	-39.2	288	14	
2025-08-26T12:00	7100	421	-18.9	-39.2	288	14	
2025-08-26T12:00	7120	420	-19.1	-39.3	289	15	
2025-08-26T12:00	7140	419	-19.2	-39.3	289	15	
2025-08-26T12:00	7160	418	-19.3	-39.4	289	15	
2025-08-26T12:00	7180	417	-19.4	-39.6	290	15	
2025-08-26T12:00	7200	416	-19.6	-39.6	290	15	
2025-08-26T12:00	7220	415	-19.8	-39.7	291	15	
2025-08-26T12:00	7240	413	-19.9	-39.9	291	15	
2025-08-26T12:00	7260	412	-20.0	-40.0	291	15	
2025-08-26T12:00	7280	411	-20.2	-39.9	291	15	
2025-08-26T12:00	7300	410	-20.3	-39.9	290	15	
2025-08-26T12:00	7320	409	-20.4	-40.4	289	15	
2025-08-26T12:00	7340	408	-20.4	-41.1	289	16	
2025-08-26T12:00	7360	407	-20.5	-41.1	289	16	
2025-08-26T12:00	7380	406	-20.6	-41.5	289	16	
2025-08-26T12:00	7400	405	-20.7	-41.9	290	16	
2025-08-26T12:00	7420	404	-20.7	-42.4	290	16	
2025-08-26T12:00	7440	402	-20.9	-42.5	290	16	
2025-08-26T12:00	7460	401	-21.0	-42.7	290	15	
2025-08-26T12:00	7480	400	-21.2	-42.9	289	15	
2025-08-26T12:00	7500	399	-21.3	-43.1	289	15	
2025-08-26T12:00	7520	398	-21.4	-43.7	288	15	
2025-08-26T12:00	7540	397	-21.5	-44.2	287	15	
2025-08-26T12:00	7560	396	-21.6	-44.7	286	15	
2025-08-26T12:00	7580	395	-21.6	-45.9	286	15	
2025-08-26T12:00	7600	394	-21.7	-46.8	287	15	
2025-08-26T12:00	7620	393	-21.8	-46.9	287	15	
2025-08-26T12:00	7640	392	-21.9	-46.7	287	15	
2025-08-26T12:00	7660	391	-22.0	-46.6	286	15	
2025-08-26T12:00	7680	390	-22.1	-46.7	285	14	
2025-08-26T12:00	7700	389	-22.2	-47.1	284	14	
2025-08-26T12:00	7720	387	-22.3	-47.4	283	14	
2025-08-26T12:00	7740	386	-22.5	-46.1	281	14	
2025-08-26T12:00	7760	385	-22.6	-42.5	280	14	
2025-08-26T12:00	7780	384	-22.7	-39.2	279	14	
2025-08-26T12:00	7800	383	-22.8	-41.1	278	14	
2025-08-26T12:00	7820	382	-22.9	-38.3	278	14	
2025-08-26T12:00	7840	381	-23.1	-34.6	278	13	
2025-08-26T12:00	7860	380	-23.2	-32.0	278	13	
2025-08-26T12:00	7880	379	-23.4	-31.8	278	13	
2025-08-26T12:00	7900	378	-23.5	-31.1	278	13	
2025-08-26T12:00	7920	377	-23.7	-30.3	277	13	
2025-08-26T12:00	7940	376	-23.8	-29.8	277	13	
2025-08-26T12:00	7960	375	-23.9	-30.3	277	13	
2025-08-26T12:00	7980	374	-24.1	-30.7	277	13	
2025-08-26T12:00	8000	373	-24.3	-31.0	277	13	
2025-08-26T12:00	8020	372	-24.5	-31.3	277	13	
2025-08-26T12:00	8040	371	-24.7	-31.7	276	13	
2025-08-26T12:00	8060	370	-24.9	-31.8	276	13	
2025-08-26T12:00	8080	369	-25.1	-32.0	276	13	
2025-08-26T12:00	8100	368	-25.3	-31.9	275	12	
2025-08-26T12:00	8120	367	-25.5	-32.0	275	12	
2025-08-26T12:00	8140	366	-25.6	-32.7	275	12	
2025-08-26T12:00	8160	365	-25.8	-33.0	274	12	
2025-08-26T12:00	8180	364	-26.0	-32.5	275	12	
2025-08-26T12:00	8200	363	-26.2	-32.3	275	12	
2025-08-26T12:00	8220	362	-26.4	-32.4	275	12	
2025-08-26T12:00	8240	361	-26.6	-32.4	275	13	
2025-08-26T12:00	8260	360	-26.8	-32.1	276	13	
2025-08-26T12:00	8280	359	-27.0	-32.1	277	13	
2025-08-26T12:00	8300	358	-27.2	-32.3	277	14	
2025-08-26T12:00	8320	357	-27.3	-32.0	278	14	
2025-08-26T12:00	8340	356	-27.5	-32.0	278	14	
2025-08-26T12:00	8360	355	-27.7	-31.4	279	14	
2025-08-26T12:00	8380	354	-27.9	-30.8	280	15	
2025-08-26T12:00	8400	353	-28.0	-30.8	280	15	
2025-08-26T12:00	8420	352	-28.2	-30.9	280	15	
2025-08-26T12:00	8440	351	-28.4	-31.0	280	15	
2025-08-26T12:00	8460	350	-28.5	-31.2	280	15	
2025-08-26T12:00	8480	349	-28.6	-31.0	279	15	
2025-08-26T12:00	8500	348	-28.8	-31.0	279	15	
2025-08-26T12:00	8520	347	-29.0	-31.1	279	15	
2025-08-26T12:00	8540	346	-29.1	-31.1	279	15	
2025-08-26T12:00	8560	345	-29.3	-31.2	279	15	
2025-08-26T12:00	8580	344	-29.5	-31.3	279	16	
2025-08-26T12:00	8600	343	-29.7	-31.4	279	16	
2025-08-26T12:00	8620	342	-29.9	-31.5	279	16	
2025-08-26T12:00	8640	341	-30.1	-31.6	279	16	
2025-08-26T12:00	8660	340	-30.3	-31.7	279	16	
2025-08-26T12:00	8680	339	-30.5	-31.9	279	16	
2025-08-26T12:00	8700	338	-30.7	-32.1	280	16	
2025-08-26T12:00	8720	337	-30.8	-32.2	280	16	
2025-08-26T12:00	8740	336	-30.9	-32.8	281	16	
2025-08-26T12:00	8760	336	-31.1	-33.1	281	16	
2025-08-26T12:00	8780	334	-31.3	-33.0	282	16	
2025-08-26T12:00	8800	334	-31.5	-33.3	282	17	
2025-08-26T12:00	8820	333	-31.7	-33.7	283	17	
2025-08-26T12:00	8840	332	-31.8	-34.2	284	17	
2025-08-26T12:00	8860	331	-32.0	-34.5	284	18	
2025-08-26T12:00	8880	330	-32.2	-34.9	285	18	
2025-08-26T12:00	8900	329	-32.3	-35.9	285	18	
2025-08-26T12:00	8920	328	-32.3	-35.5	286	19	
2025-08-26T12:00	8940	327	-32.4	-34.7	286	19	
2025-08-26T12:00	8960	326	-32.5	-34.0	287	19	
2025-08-26T12:00	8980	325	-32.7	-34.0	287	19	
2025-08-26T12:00	9000	324	-32.9	-34.2	288	20	
2025-08-26T12:00	9020	323	-33.1	-34.4	288	20	
2025-08-26T12:00	9040	322	-33.3	-34.5	289	20	
2025-08-26T12:00	9060	321	-33.5	-34.5	290	20	
2025-08-26T12:00	9080	321	-33.6	-34.7	290	20	
2025-08-26T12:00	9100	320	-33.7	-35.1	291	21	
2025-08-26T12:00	9120	319	-33.9	-35.5	291	21	
2025-08-26T12:00	9140	318	-34.0	-35.7	292	21	
2025-08-26T12:00	9160	317	-34.2	-36.2	292	21	
2025-08-26T12:00	9180	316	-34.3	-36.4	293	22	
2025-08-26T12:00	9200	315	-34.5	-36.3	293	22	
2025-08-26T12:00	9220	314	-34.6	-36.5	293	22	
2025-08-26T12:00	9240	313	-34.8	-37.1	293	22	
2025-08-26T12:00	9260	313	-34.9	-37.4	292	23	
2025-08-26T12:00	9280	312	-35.0	-37.5	292	23	
2025-08-26T12:00	9300	311	-35.2	-38.0	291	23	
2025-08-26T12:00	9320	310	-35.3	-38.5	291	23	
2025-08-26T12:00	9340	309	-35.4	-39.3	290	23	
2025-08-26T12:00	9360	308	-35.5	-40.6	289	23	
2025-08-26T12:00	9380	307	-35.4	-46.6	288	23	
2025-08-26T12:00	9400	306	-35.2	-51.0	288	23	
2025-08-26T12:00	9420	305	-35.2	-48.1	287	23	
2025-08-26T12:00	9440	305	-35.3	-46.8	286	23	
2025-08-26T12:00	9460	304	-35.3	-46.5	286	23	
2025-08-26T12:00	9480	303	-35.5	-46.3	286	23	
2025-08-26T12:00	9500	302	-35.6	-46.4	286	23	
2025-08-26T12:00	9520	301	-35.7	-46.3	286	23	
2025-08-26T12:00	9540	300	-35.8	-46.1	286	24	
2025-08-26T12:00	9560	299	-36.0	-46.1	286	24	
2025-08-26T12:00	9580	298	-36.1	-46.0	286	24	
2025-08-26T12:00	9600	297	-36.2	-45.8	286	24	
2025-08-26T12:00	9620	297	-36.4	-45.7	287	24	
2025-08-26T12:00	9640	296	-36.5	-45.6	287	25	
2025-08-26T12:00	9660	295	-36.7	-45.4	288	25	
2025-08-26T12:00	9680	294	-36.8	-44.7	289	25	
2025-08-26T12:00	9700	293	-37.0	-43.5	289	25	
2025-08-26T12:00	9720	292	-37.1	-43.4	289	25	
2025-08-26T12:00	9740	292	-37.3	-43.7	289	26	
2025-08-26T12:00	9760	291	-37.4	-43.8	289	26	
2025-08-26T12:00	9780	290	-37.6	-44.9	289	26	
2025-08-26T12:00	9800	289	-37.7	-44.8	288	27	
2025-08-26T12:00	9820	288	-37.9	-44.7	288	27	
2025-08-26T12:00	9840	287	-38.0	-45.0	288	27	
2025-08-26T12:00	9860	287	-38.1	-45.2	288	27	
2025-08-26T12:00	9880	286	-38.2	-45.5	288	27	
2025-08-26T12:00	9900	285	-38.4	-45.1	287	27	
2025-08-26T12:00	9920	284	-38.5	-44.8	287	27	
2025-08-26T12:00	9940	283	-38.7	-45.1	287	27	
2025-08-26T12:00	9960	282	-38.9	-44.2	287	27	
2025-08-26T12:00	9980	282	-39.1	-43.7	287	27	
2025-08-26T12:00	10000	281	-39.3	-44.0	287	27	
2025-08-26T12:00	10018	280	-39.5	-44.4	287	27	
2025-08-26T12:00	10050	279	-39.7	-44.4	287	27	
2025-08-26T12:00	10100	277	-40.1	-44.1	287	28	
2025-08-26T12:00	10150	275	-40.5	-45.0	286	28	
2025-08-26T12:00	10200	273	-40.9	-44.7	286	28	
2025-08-26T12:00	10250	271	-41.3	-44.8	285	28	
2025-08-26T12:00	10300	269	-41.7	-45.1	286	28	
2025-08-26T12:00	10350	267	-42.0	-45.5	286	28	
2025-08-26T12:00	10400	265	-42.4	-45.9	287	28	
2025-08-26T12:00	10450	263	-42.8	-46.4	288	28	
2025-08-26T12:00	10500	261	-43.1	-46.9	288	29	
2025-08-26T12:00	10550	259	-43.5	-46.8	288	29	
2025-08-26T12:00	10600	257	-43.8	-46.1	288	30	
2025-08-26T12:00	10650	255	-43.9	-46.3	287	30	
2025-08-26T12:00	10700	253	-44.2	-47.1	288	30	
2025-08-26T12:00	10750	251	-44.7	-46.8	288	31	
2025-08-26T12:00	10800	250	-45.0	-48.6	287	31	
2025-08-26T12:00	10850	248	-45.3	-49.5	287	31	
2025-08-26T12:00	10900	246	-45.6	-49.9	286	32	
2025-08-26T12:00	10950	244	-46.0	-50.7	286	32	
2025-08-26T12:00	11000	242	-46.3	-51.4	286	33	
2025-08-26T12:00	11050	240	-46.6	-50.8	286	33	
2025-08-26T12:00	11100	238	-46.9	-49.2	287	34	
2025-08-26T12:00	11150	237	-47.1	-50.6	287	34	
2025-08-26T12:00	11200	235	-47.1	-57.2	288	35	
2025-08-26T12:00	11250	233	-47.2	-53.3	289	35	
2025-08-26T12:00	11300	231	-47.5	-52.6	290	36	
2025-08-26T12:00	11350	230	-47.6	-56.4	290	37	
2025-08-26T12:00	11400	228	-47.7	-54.7	291	37	
2025-08-26T12:00	11450	226	-48.0	-53.3	290	38	
2025-08-26T12:00	11500	224	-48.2	-52.2	290	38	
2025-08-26T12:00	11550	223	-48.5	-52.7	290	38	
2025-08-26T12:00	11600	221	-48.9	-53.1	290	38	
2025-08-26T12:00	11650	219	-49.2	-53.9	289	38	
2025-08-26T12:00	11700	218	-49.6	-54.7	290	38	
2025-08-26T12:00	11750	216	-50.0	-55.0	291	37	
2025-08-26T12:00	11800	214	-50.3	-55.3	291	37	
2025-08-26T12:00	11850	213	-50.7	-55.7	292	37	
2025-08-26T12:00	11900	211	-51.1	-55.8	292	37	
2025-08-26T12:00	11950	210	-51.5	-56.9	292	36	
2025-08-26T12:00	12000	208	-51.9	-57.7	292	36	
2025-08-26T12:00	12050	206	-52.3	-58.0	291	35	
2025-08-26T12:00	12100	205	-52.7	-58.2	291	35	
2025-08-26T12:00	12150	203	-53.1	-58.5	290	35	
2025-08-26T12:00	12200	202	-53.3	-59.5	289	35	
2025-08-26T12:00	12250	200	-53.4	-61.8	288	35	
2025-08-26T12:00	12300	198	-53.5	-64.8	287	35	
2025-08-26T12:00	12350	197	-53.4	-65.8	286	35	
2025-08-26T12:00	12400	195	-53.5	-66.3	285	34	
2025-08-26T12:00	12450	194	-53.3	-67.7	286	34	
2025-08-26T12:00	12500	192	-53.5	-68.2	286	34	
2025-08-26T12:00	12550	191	-53.9	-68.2	286	34	
2025-08-26T12:00	12600	189	-54.1	-68.5	286	33	
2025-08-26T12:00	12650	188	-54.4	-69.1	286	32	
2025-08-26T12:00	12700	186	-54.7	-69.8	285	32	
2025-08-26T12:00	12750	185	-54.9	-70.4	285	31	
2025-08-26T12:00	12800	184	-55.2	-70.8	285	31	
2025-08-26T12:00	12850	182	-55.4	-71.2	285	32	
2025-08-26T12:00	12900	181	-55.7	-71.1	286	33	
2025-08-26T12:00	12950	179	-56.0	-71.2	286	33	
2025-08-26T12:00	13000	178	-56.3	-71.1	286	32	
2025-08-26T12:00	13050	176	-56.5	-71.6	286	31	
2025-08-26T12:00	13100	175	-56.7	-72.1	286	30	
2025-08-26T12:00	13150	174	-56.7	-73.3	286	30	
2025-08-26T12:00	13200	172	-56.7	-74.2	287	30	
2025-08-26T12:00	13250	171	-56.9	-74.6	286	29	
2025-08-26T12:00	13300	170	-57.2	-74.7	284	29	
2025-08-26T12:00	13350	168	-57.6	-74.8	283	29	
2025-08-26T12:00	13400	167	-57.7	-74.7	282	29	
2025-08-26T12:00	13450	166	-58.0	-74.1	281	30	
2025-08-26T12:00	13500	164	-58.4	-73.8	281	31	
2025-08-26T12:00	13550	163	-58.8	-73.7	281	31	
2025-08-26T12:00	13600	162	-59.2	-73.9	282	31	
2025-08-26T12:00	13650	160	-59.6	-74.1	283	31	
2025-08-26T12:00	13700	159	-60.0	-74.3	284	31	
2025-08-26T12:00	13750	158	-60.2	-74.6	285	31	
2025-08-26T12:00	13800	157	-60.5	-74.8	286	31	
2025-08-26T12:00	13850	155	-60.9	-75.1	287	31	
2025-08-26T12:00	13900	154	-61.1	-75.4	288	31	
2025-08-26T12:00	13950	153	-61.4	-75.7	289	31	
2025-08-26T12:00	14000	152	-61.6	-76.0	291	30	
2025-08-26T12:00	14050	150	-61.7	-76.5	292	30	
2025-08-26T12:00	14100	149	-61.7	-76.9	294	28	
2025-08-26T12:00	14150	148	-61.7	-77.4	296	27	
2025-08-26T12:00	14200	147	-61.7	-77.8	297	25	
2025-08-26T12:00	14250	146	-61.9	-78.1	299	23	
2025-08-26T12:00	14300	145	-61.8	-78.2	298	21	
2025-08-26T12:00	14350	143	-61.8	-78.5	296	18	
2025-08-26T12:00	14400	142	-62.1	-78.7	293	17	
2025-08-26T12:00	14450	141	-62.3	-78.9	290	15	
2025-08-26T12:00	14500	140	-62.4	-79.0	286	15	
2025-08-26T12:00	14550	139	-62.7	-79.2	281	15	
2025-08-26T12:00	14600	138	-63.0	-79.3	276	17	
2025-08-26T12:00	14650	137	-63.0	-79.4	274	18	
2025-08-26T12:00	14700	135	-63.2	-79.5	272	19	
2025-08-26T12:00	14750	134	-63.4	-79.6	270	20	
2025-08-26T12:00	14800	133	-63.7	-79.6	268	20	
2025-08-26T12:00	14850	132	-64.1	-79.5	266	20	
2025-08-26T12:00	14900	131	-64.5	-79.5	266	21	
2025-08-26T12:00	14950	130	-64.8	-79.5	267	22	
2025-08-26T12:00	15000	129	-65.1	-79.6	267	23	
2025-08-26T12:00	15050	128	-65.4	-79.5	268	24	
2025-08-26T12:00	15100	127	-65.6	-79.4	269	26	
2025-08-26T12:00	15150	126	-65.4	-79.6	272	26	
2025-08-26T12:00	15200	125	-64.5	-80.2	277	26	
2025-08-26T12:00	15250	124	-63.4	-81.0	283	24	
2025-08-26T12:00	15300	123	-63.1	-81.9	288	23	
2025-08-26T12:00	15350	122	-63.3	-82.3	290	21	
2025-08-26T12:00	15400	121	-63.4	-82.4	292	20	
2025-08-26T12:00	15450	120	-63.2	-82.3	294	20	
2025-08-26T12:00	15500	119	-63.4	-82.3	295	20	
2025-08-26T12:00	15550	118	-63.7	-82.3	294	22	
2025-08-26T12:00	15600	117	-64.1	-82.3	295	23	
2025-08-26T12:00	15650	116	-64.4	-82.3	296	23	
2025-08-26T12:00	15700	115	-64.7	-82.3	298	24	
2025-08-26T12:00	15750	114	-65.0	-82.4	300	23	
2025-08-26T12:00	15800	113	-65.0	-82.6	301	22	
2025-08-26T12:00	15850	112	-64.9	-82.7	302	21	
2025-08-26T12:00	15900	111	-65.1	-82.9	301	20	
2025-08-26T12:00	15950	110	-65.4	-83.2	299	20	
2025-08-26T12:00	16000	109	-65.6	-83.4	295	19	
2025-08-26T12:00	16050	109	-65.6	-83.9	293	18	
2025-08-26T12:00	16100	108	-64.8	-84.4	292	17	
2025-08-26T12:00	16150	107	-64.0	-84.9	292	14	
2025-08-26T12:00	16200	106	-63.8	-85.7	291	14	
2025-08-26T12:00	16250	105	-63.0	-85.9	292	14	
2025-08-26T12:00	16300	104	-62.8	-86.1	294	13	
2025-08-26T12:00	16350	103	-62.5	-86.0	295	13	
2025-08-26T12:00	16400	103	-62.4	-85.9	298	13	
2025-08-26T12:00	16450	102	-62.5	-85.9	301	12	
2025-08-26T12:00	16500	101	-62.3	-85.9	303	10	
2025-08-26T12:00	16550	100	-62.0	-85.8	303	8	
2025-08-26T12:00	16600	99	-61.9	-85.8	300	7	
2025-08-26T12:00	16650	99	-62.0	-85.8	296	7	
2025-08-26T12:00	16700	98	-62.1	-85.9	292	8	
2025-08-26T12:00	16750	97	-62.3	-86.0	293	9	
2025-08-26T12:00	16800	96	-62.3	-86.1	297	10	
2025-08-26T12:00	16850	95	-62.1	-86.3	301	9	
2025-08-26T12:00	16900	95	-62.0	-86.4	304	8	
2025-08-26T12:00	16950	94	-61.7	-86.5	309	8	
2025-08-26T12:00	17000	93	-61.4	-86.5	314	8	
2025-08-26T12:00	17050	92	-61.3	-86.6	316	7	
2025-08-26T12:00	17100	92	-61.0	-86.4	313	6	
2025-08-26T12:00	17150	91	-61.1	-86.5	307	6	
2025-08-26T12:00	17200	90	-61.3	-86.5	305	7	
2025-08-26T12:00	17250	89	-61.3	-86.6	308	8	
2025-08-26T12:00	17300	89	-61.1	-86.7	311	8	
2025-08-26T12:00	17350	88	-60.8	-86.7	311	7	
2025-08-26T12:00	17400	87	-60.9	-86.7	308	6	
2025-08-26T12:00	17450	87	-61.3	-86.9	305	6	
2025-08-26T12:00	17500	86	-61.4	-86.9	301	5	
2025-08-26T12:00	17550	85	-61.2	-86.8	295	6	
2025-08-26T12:00	17600	84	-61.3	-86.9	290	7	
2025-08-26T12:00	17650	84	-61.5	-87.1	290	7	
2025-08-26T12:00	17700	83	-61.4	-87.2	293	8	
2025-08-26T12:00	17750	82	-61.1	-87.2	295	9	
2025-08-26T12:00	17800	82	-60.8	-87.3	296	9	
2025-08-26T12:00	17850	81	-60.4	-87.2	293	8	
2025-08-26T12:00	17900	80	-60.1	-87.3	291	8	
2025-08-26T12:00	17950	80	-59.6	-87.2	291	8	
2025-08-26T12:00	18000	79	-59.3	-87.3	295	7	
2025-08-26T12:00	18050	79	-58.6	-87.2	296	6	
2025-08-26T12:00	18100	78	-58.0	-87.0	295	6	
2025-08-26T12:00	18150	77	-57.8	-86.9	295	5	
2025-08-26T12:00	18200	77	-57.7	-86.7	293	4	
2025-08-26T12:00	18250	76	-57.8	-86.6	287	3	
2025-08-26T12:00	18300	76	-58.1	-86.6	279	3	
2025-08-26T12:00	18350	75	-58.5	-86.7	275	4	
2025-08-26T12:00	18400	74	-58.8	-86.9	276	5	
2025-08-26T12:00	18450	74	-58.7	-86.9	276	5	
2025-08-26T12:00	18500	73	-58.8	-86.9	275	5	
2025-08-26T12:00	18550	73	-59.0	-87.0	273	5	
2025-08-26T12:00	18600	72	-59.0	-87.2	274	6	
2025-08-26T12:00	18650	71	-58.5	-87.1	274	6	
2025-08-26T12:00	18700	71	-58.0	-87.1	272	6	
2025-08-26T12:00	18750	70	-57.9	-87.0	274	6	
2025-08-26T12:00	18800	70	-58.0	-87.0	283	5	
2025-08-26T12:00	18850	69	-57.9	-87.0	289	5	
2025-08-26T12:00	18900	69	-57.8	-87.0	283	5	
2025-08-26T12:00	18950	68	-57.8	-86.9	275	5	
2025-08-26T12:00	19000	68	-58.0	-86.9	272	6	
2025-08-26T12:00	19050	67	-58.1	-87.0	272	5	
2025-08-26T12:00	19100	67	-58.1	-87.0	271	5	
2025-08-26T12:00	19150	66	-58.3	-87.1	273	6	
2025-08-26T12:00	19200	65	-58.3	-87.1	279	6	
2025-08-26T12:00	19250	65	-58.3	-87.2	284	6	
2025-08-26T12:00	19300	64	-58.0	-87.2	284	5	
2025-08-26T12:00	19350	64	-57.9	-87.1	280	4	
2025-08-26T12:00	19400	63	-58.0	-87.2	278	3	
2025-08-26T12:00	19450	63	-57.9	-87.2	288	3	
2025-08-26T12:00	19500	62	-57.9	-87.2	292	3	
2025-08-26T12:00	19550	62	-57.8	-87.3	275	2	
2025-08-26T12:00	19600	61	-57.6	-87.3	240	2	
2025-08-26T12:00	19650	61	-57.0	-87.1	219	3	
2025-08-26T12:00	19700	60	-57.0	-87.0	217	3	
2025-08-26T12:00	19750	60	-57.2	-87.0	231	3	
2025-08-26T12:00	19800	60	-57.5	-87.0	241	3	
2025-08-26T12:00	19850	59	-57.6	-87.1	241	3	
2025-08-26T12:00	19900	59	-57.7	-87.2	248	2	
2025-08-26T12:00	19950	58	-57.7	-87.3	272	2	
2025-08-26T12:00	20000	58	-57.5	-87.3	297	1	
2025-08-26T12:00	20050	57	-57.1		300	1	
2025-08-26T12:00	20100	57	-56.9		279	1	
2025-08-26T12:00	20150	56	-56.8		274	2	
2025-08-26T12:00	20200	56	-56.8		286	3	
2025-08-26T12:00	20250	55	-56.9		297	4	
2025-08-26T12:00	20300	55	-56.1		300	4	
2025-08-26T12:00	20350	55	-55.6		297	4	
2025-08-26T12:00	20400	54	-55.1		297	4	
2025-08-26T12:00	20450	54	-55.0		307	4	
2025-08-26T12:00	20500	53	-54.8		326	4	
2025-08-26T12:00	20550	53	-54.5		344	4	
2025-08-26T12:00	20600	52	-54.5		357	4	
2025-08-26T12:00	20650	52	-54.3		4	4	
2025-08-26T12:00	20700	52	-54.3		0	2	
2025-08-26T12:00	20750	51	-54.2		324	1	
2025-08-26T12:00	20800	51	-54.2		275	2	
2025-08-26T12:00	20850	50	-54.0		262	1	
2025-08-26T12:00	20900	50	-53.7		291	1	
2025-08-26T12:00	20950	50	-53.8		11	1	
2025-08-26T12:00	21000	49	-53.8		28	2	
2025-08-26T12:00	21050	49	-53.5		45	2	
2025-08-26T12:00	21100	49	-53.6		72	2	
2025-08-26T12:00	21150	48	-53.3		92	3	
2025-08-26T12:00	21200	48	-53.0		99	3	
2025-08-26T12:00	21250	47	-53.0		105	3	
2025-08-26T12:00	21300	47	-52.8		117	3	
2025-08-26T12:00	21350	47	-52.9		140	3	
2025-08-26T12:00	21400	46	-52.7		185	2	
2025-08-26T12:00	21450	46	-52.5		224	3	
2025-08-26T12:00	21500	46	-52.2		243	4	
2025-08-26T12:00	21550	45	-51.7		254	4	
2025-08-26T12:00	21600	45	-51.7		261	4	
2025-08-26T12:00	21650	45	-51.5		263	5	
2025-08-26T12:00	21700	44	-51.2		262	5	
2025-08-26T12:00	21750	44	-51.3		257	4	
2025-08-26T12:00	21800	44	-51.5		250	4	
2025-08-26T12:00	21850	43	-51.6		242	4	
2025-08-26T12:00	21900	43	-51.6		232	3	
2025-08-26T12:00	21950	43	-51.5		215	3	
2025-08-26T12:00	22000	42	-51.6		199	4	
2025-08-26T12:00	22050	42	-51.7		194	4	
2025-08-26T12:00	22100	42	-51.7		199	4	
2025-08-26T12:00	22150	41	-51.4		211	4	
2025-08-26T12:00	22200	41	-51.2		221	5	
2025-08-26T12:00	22250	41	-51.1		225	4	
2025-08-26T12:00	22300	40	-50.9		218	4	
2025-08-26T12:00	22350	40	-50.8		204	3	
2025-08-26T12:00	22400	40	-51.1		206	3	
2025-08-26T12:00	22450	39	-50.9		220	4	
2025-08-26T12:00	22500	39	-50.8		228	5	
2025-08-26T12:00	22550	39	-50.8		230	6	
2025-08-26T12:00	22600	39	-50.6		233	6	
2025-08-26T12:00	22650	38	-50.7		235	6	
2025-08-26T12:00	22700	38	-50.8		234	6	
2025-08-26T12:00	22750	38	-50.8		227	5	
2025-08-26T12:00	22800	37	-50.8		215	5	
2025-08-26T12:00	22850	37	-50.7		201	4	
2025-08-26T12:00	22900	37	-50.6		188	4	
2025-08-26T12:00	22950	36	-50.7		180	4	
2025-08-26T12:00	23000	36	-50.8		180	4	
2025-08-26T12:00	23050	36	-50.8		184	5	
2025-08-26T12:00	23100	36	-51.0		186	5	
2025-08-26T12:00	23150	35	-51.0		185	5	
2025-08-26T12:00	23200	35	-51.1		182	6	
2025-08-26T12:00	23250	35	-51.2		181	6	
2025-08-26T12:00	23300	35	-50.9		179	7	
2025-08-26T12:00	23350	34	-51.0		174	6	
2025-08-26T12:00	23400	34	-51.0		160	6	
2025-08-26T12:00	23450	34	-51.0		144	6	
2025-08-26T12:00	23500	34	-50.9		140	7	
2025-08-26T12:00	23550	33	-50.7		144	8	
2025-08-26T12:00	23600	33	-50.7		151	9	
2025-08-26T12:00	23650	33	-50.7		156	9	
2025-08-26T12:00	23700	33	-50.9		160	10	
2025-08-26T12:00	23750	32	-51.1		164	9	
2025-08-26T12:00	23800	32	-51.3		172	8	
2025-08-26T12:00	23850	32	-51.5		181	6	
2025-08-26T12:00	23900	32	-51.4		193	5	
2025-08-26T12:00	23950	31	-51.4		205	4	
2025-08-26T12:00	24000	31	-51.3		216	2	
2025-08-26T12:00	24050	31	-51.3		213	1	
2025-08-26T12:00	24100	31	-51.4		170	1	
2025-08-26T12:00	24150	30	-51.5		88	1	
2025-08-26T12:00	24200	30	-51.5		43	1	
2025-08-26T12:00	24250	30	-51.5		39	1	
2025-08-26T12:00	24300	30	-51.6		55	1	
2025-08-26T12:00	24350	29	-51.4		77	1	
2025-08-26T12:00	24400	29	-51.3		92	2	
2025-08-26T12:00	24450	29	-51.1		99	2	
2025-08-26T12:00	24500	29	-50.6		105	3	
2025-08-26T12:00	24550	29	-50.1		116	4	
2025-08-26T12:00	24600	28	-50.0		127	4	
2025-08-26T12:00	24650	28	-49.6		127	3	
2025-08-26T12:00	24700	28	-49.3		90	1	
2025-08-26T12:00	24750	28	-48.5		28	2	
2025-08-26T12:00	24800	27	-47.9		31	3	
2025-08-26T12:00	24850	27	-47.9		46	3	
2025-08-26T12:00	24900	27	-48.1		64	5	
2025-08-26T12:00	24950	27	-47.8		83	6	
2025-08-26T12:00	25000	27	-47.6		100	7	
2025-08-26T12:00	25050	26	-47.6		114	8	
2025-08-26T12:00	25100	26	-47.0		124	8	
2025-08-26T12:00	25150	26	-46.9		134	8	
2025-08-26T12:00	25200	26	-47.1		141	6	
2025-08-26T12:00	25250	26	-47.3		145	5	
2025-08-26T12:00	25300	25	-47.2		141	3	
2025-08-26T12:00	25350	25	-46.9		134	3	
2025-08-26T12:00	25400	25	-46.6		135	2	
2025-08-26T12:00	25450	25	-46.5		131	2	
2025-08-26T12:00	25500	25	-46.3		113	2	
2025-08-26T12:00	25550	25	-46.2		96	3	
2025-08-26T12:00	25600	24	-45.9		89	4	
2025-08-26T12:00	25650	24	-45.9		89	5	
2025-08-26T12:00	25700	24	-46.0		93	5	
2025-08-26T12:00	25750	24	-46.1		99	5	
2025-08-26T12:00	25800	24	-46.4		102	5	
2025-08-26T12:00	25850	23	-46.7		100	5	
2025-08-26T12:00	25900	23	-46.9		96	6	
2025-08-26T12:00	25950	23	-47.1		93	6	
2025-08-26T12:00	26000	23	-47.3		91	6	
2025-08-26T12:00	26050	23	-47.4		92	6	
2025-08-26T12:00	26100	23	-47.6		95	7	
2025-08-26T12:00	26150	22	-47.8		99	7	
2025-08-26T12:00	26200	22	-48.0		104	7	
2025-08-26T12:00	26250	22	-48.1		110	8	
2025-08-26T12:00	26300	22	-48.1		116	8	
2025-08-26T12:00	26350	22	-48.1		124	9	
2025-08-26T12:00	26400	22	-48.3		131	9	
2025-08-26T12:00	26450	21	-48.3		137	9	
2025-08-26T12:00	26500	21	-48.0		138	8	
2025-08-26T12:00	26550	21	-47.7		137	7	
2025-08-26T12:00	26600	21	-47.3		134	6	
2025-08-26T12:00	26650	21	-46.8		128	6	
2025-08-26T12:00	26700	21	-46.6		122	6	
2025-08-26T12:00	26750	20	-46.4		120	6	
2025-08-26T12:00	26800	20	-46.1		121	7	
2025-08-26T12:00	26850	20	-45.9		122	7	
2025-08-26T12:00	26900	20	-45.9		121	7	
2025-08-26T12:00	26950	20	-45.9		121	7	
2025-08-26T12:00	27000	20	-45.7		126	7	
2025-08-26T12:00	27050	20	-45.5		135	7	
2025-08-26T12:00	27100	19	-45.4		144	8	
2025-08-26T12:00	27150	19	-45.4		151	8	
2025-08-26T12:00	27200	19	-45.6		151	7	
2025-08-26T12:00	27250	19	-45.5		146	7	
2025-08-26T12:00	27300	19	-45.6		138	6	
2025-08-26T12:00	27350	19	-45.4		132	5	
2025-08-26T12:00	27400	19	-45.1		132	4	
2025-08-26T12:00	27450	18	-44.8		132	4	
2025-08-26T12:00	27500	18	-44.5		123	3	
2025-08-26T12:00	27550	18	-44.4		97	3	
2025-08-26T12:00	27600	18	-44.5		82	4	
2025-08-26T12:00	27650	18	-44.6		82	4	
2025-08-26T12:00	27700	18	-44.7		92	4	
2025-08-26T12:00	27750	18	-44.8		107	4	
2025-08-26T12:00	27800	17	-44.9		122	4	
2025-08-26T12:00	27850	17	-45.2		138	3	
2025-08-26T12:00	27900	17	-45.2		151	3	
2025-08-26T12:00	27950	17	-45.3		156	2	
2025-08-26T12:00	28000	17	-45.2		136	2	
2025-08-26T12:00	28050	17	-45.0		111	2	
2025-08-26T12:00	28100	17	-44.7		101	3	
2025-08-26T12:00	28150	17	-44.5		96	3	
2025-08-26T12:00	28200	16	-44.4		90	3	
2025-08-26T12:00	28250	16	-44.3		83	3	
2025-08-26T12:00	28300	16	-44.1		77	2	
2025-08-26T12:00	28350	16	-44.1		69	3	
2025-08-26T12:00	28400	16	-44.0		61	3	
2025-08-26T12:00	28450	16	-43.9		56	5	
2025-08-26T12:00	28500	16	-43.8		57	5	
2025-08-26T12:00	28550	16	-43.6		64	6	
2025-08-26T12:00	28600	15	-43.4		73	7	
2025-08-26T12:00	28650	15	-43.3		79	8	
2025-08-26T12:00	28700	15	-43.2		85	8	
2025-08-26T12:00	28750	15	-43.3		91	7	
2025-08-26T12:00	28800	15	-43.6		100	7	
2025-08-26T12:00	28850	15	-43.9		110	6	
2025-08-26T12:00	28900	15	-44.2		117	6	
2025-08-26T12:00	28950	15	-44.2		119	5	
2025-08-26T12:00	29000	15	-44.2		112	4	
2025-08-26T12:00	29050	14	-44.4		98	4	
2025-08-26T12:00	29100	14	-44.6		88	4	
2025-08-26T12:00	29150	14	-44.7		84	5	
2025-08-26T12:00	29200	14	-44.7		86	6	
2025-08-26T12:00	29250	14	-44.5		88	7	
2025-08-26T12:00	29300	14	-44.4		90	8	
2025-08-26T12:00	29350	14	-44.3		94	9	
2025-08-26T12:00	29400	14	-44.3		98	10	
2025-08-26T12:00	29450	14	-44.3		102	11	
2025-08-26T12:00	29500	14	-44.3		105	10	
2025-08-26T12:00	29550	13	-44.4		107	10	
2025-08-26T12:00	29600	13	-44.3		107	8	
2025-08-26T12:00	29650	13	-44.4		104	7	
2025-08-26T12:00	29700	13	-44.5		104	6	
2025-08-26T12:00	29750	13	-44.7		108	6	
2025-08-26T12:00	29800	13	-44.7		114	7	
2025-08-26T12:00	29850	13	-44.8		118	8	
2025-08-26T12:00	29900	13	-44.9		121	9	
2025-08-26T12:00	29950	13	-45.1		123	10	
2025-08-26T12:00	30000	13	-45.1		127	11	
2025-08-26T12:00	30050	12	-45.1		131	11	
2025-08-26T12:00	30100	12	-45.1		137	11	
2025-08-26T12:00	30150	12	-45.3		141	10	
2025-08-26T12:00	30200	12	-45.2		143	9	
2025-08-26T12:00	30250	12	-44.9		140	7	
2025-08-26T12:00	30300	12	-44.4		134	5	
2025-08-26T12:00	30350	12	-44.0		130	3	
2025-08-26T12:00	30400	12	-43.8		121	2	
2025-08-26T12:00	30450	12	-43.8		72	1	
2025-08-26T12:00	30500	12	-43.6		25	1	
2025-08-26T12:00	30550	12	-43.4		25	2	
2025-08-26T12:00	30600	12	-43.4		53	2	
2025-08-26T12:00	30650	11	-43.3		97	2	
2025-08-26T12:00	30700	11	-43.3		118	4	
2025-08-26T12:00	30750	11	-43.2		124	5	
2025-08-26T12:00	30800	11	-42.8		125	6	
2025-08-26T12:00	30850	11	-42.4		125	7	
2025-08-26T12:00	30900	11	-41.9		122	6	
2025-08-26T12:00	30950	11	-41.4		112	4	
2025-08-26T12:00	31000	11	-40.9		94	4	
2025-08-26T12:00	31050	11	-40.8		77	4	
2025-08-26T12:00	31100	11	-40.7		70	5	
2025-08-26T12:00	31150	11	-40.7		69	7	
2025-08-26T12:00	31200	11	-40.8		70	8	
2025-08-26T12:00	31250	10	-41.1		72	9	
2025-08-26T12:00	31300	10	-41.1		76	9	
2025-08-26T12:00	31350	10	-41.0		80	9	
2025-08-26T12:00	31400	10	-41.0		86	9	
2025-08-26T12:00	31450	10	-41.1		93	10	
2025-08-26T12:00	31500	10	-40.9		98	10	
2025-08-26T12:00	31550	10	-40.7		101	11	
2025-08-26T12:00	31600	10	-40.6		100	12	
2025-08-26T12:00	31650	10	-40.6		97	12	
2025-08-26T12:00	31700	10	-40.6		94	12	
2025-08-26T12:00	31750	10	-40.7		91	12	
2025-08-26T12:00	31800	10	-40.8		89	12	
2025-08-26T12:00	31850	10	-40.6		87	11	
2025-08-26T12:00	31900	9	-40.4		87	10	
2025-08-26T12:00	31950	9	-40.4		90	9	
2025-08-26T12:00	32000	9	-40.2		94	9	
2025-08-26T12:00	32050	9	-40.0		99	9	
2025-08-26T12:00	32100	9	-39.8		103	9	
2025-08-26T12:00	32150	9	-39.7		106	10	
2025-08-26T12:00	32200	9	-39.6		108	11	
2025-08-26T12:00	32250	9	-39.7		109	12	
2025-08-26T12:00	32300	9	-39.8		109	12	
2025-08-26T12:00	32350	9	-39.8		109	12	
2025-08-26T12:00	32400	9	-39.8		109	11	
2025-08-26T12:00	32450	9	-40.0		107	10	
2025-08-26T12:00	32500	9	-40.2		102	8	
2025-08-26T12:00	32550	9	-40.2		92	7	
2025-08-26T12:00	32600	9	-40.1		82	7	
2025-08-26T12:00	32650	9	-39.9		73	7	
2025-08-26T12:00	32700	8	-39.8		69	8	
2025-08-26T12:00	32750	8	-39.7		71	8	
2025-08-26T12:00	32800	8	-39.7		76	9	
2025-08-26T12:00	32850	8	-39.7		83	9	
2025-08-26T12:00	32900	8	-39.7		91	10	
2025-08-26T12:00	32950	8	-39.8		98	10	
2025-08-26T12:00	33000	8	-39.8		105	11	
2025-08-26T12:00	33050	8	-39.8		110	11	
2025-08-26T12:00	33100	8	-39.9		114	12	
2025-08-26T12:00	33150	8	-39.9		118	12	
2025-08-26T12:00	33200	8	-39.7		122	11	
2025-08-26T12:00	33250	8	-39.6		128	11	
2025-08-26T12:00	33300	8	-39.6		135	11	
2025-08-26T12:00	33350	8	-39.5		139	11	
2025-08-26T12:00	33400	8	-39.5		141	11	
2025-08-26T12:00	33450	8	-39.5		140	10	
2025-08-26T12:00	33500	8	-39.2		137	8	
2025-08-26T12:00	33550	7	-38.7		130	6	
2025-08-26T12:00	33600	7	-38.2		119	5	
2025-08-26T12:00	33650	7	-37.8		106	5	
2025-08-26T12:00	33700	7	-37.7		97	5	
2025-08-26T12:00	33750	7	-37.4		93	5	
2025-08-26T12:00	33800	7	-37.3		97	4	
2025-08-26T12:00	33850	7	-37.4		106	4	
2025-08-26T12:00	33900	7	-37.6		118	4	
2025-08-26T12:00	33950	7	-37.6		124	5	
2025-08-26T12:00	34000	7	-37.4		122	5	
2025-08-26T12:00	34050	7	-37.0		110	5	
2025-08-26T12:00	34100	7	-36.7		91	5	
2025-08-26T12:00	34150	7	-36.6		74	5	
2025-08-26T12:00	34200	7	-36.5		64	6	
2025-08-26T12:00	34250	7	-36.4		60	7	
2025-08-26T12:00	34300	7	-36.2		62	9	
2025-08-26T12:00	34350	7	-35.9		67	9	
2025-08-26T12:00	34400	7	-35.6		74	10	
2025-08-26T12:00	34450	7	-35.4		82	10	
2025-08-26T12:00	34500	7	-35.3		92	9	
2025-08-26T12:00	34550	6	-35.2		103	9	
2025-08-26T12:00	34600	6	-35.2		115	9	
2025-08-26T12:00	34650	6	-35.3		126	9	
2025-08-26T12:00	34700	6	-35.5		135	9	
2025-08-26T12:00	34750	6	-35.7		143	10	
2025-08-26T12:00	34800	6	-35.7		148	10	
2025-08-26T12:00	34850	6	-35.7		149	9	
2025-08-26T12:00	34900	6	-35.8		148	8	
2025-08-26T12:00	34950	6	-36.0		146	7	
2025-08-26T12:00	35000	6	-36.3		146	6	
2025-08-26T12:00	35050	6	-36.4		143	5	
2025-08-26T12:00	35100	6	-36.2		132	5	
2025-08-26T12:00	35150	6	-35.9		116	5	
2025-08-26T12:00	35200	6	-35.6		107	7	
2025-08-26T12:00	35250	6	-35.5		103	8	
2025-08-26T12:00	35300	6	-35.2		102	9	
2025-08-26T12:00	35350	6	-34.8		104	10	
2025-08-26T12:00	35400	6	-34.4		107	11	
2025-08-26T12:00	35450	6	-34.2		112	11	
2025-08-26T12:00	35500	6	-34.3		117	10	
2025-08-26T12:00	35550	6	-34.2		122	10	
2025-08-26T12:00	35600	6	-34.0		128	9	
2025-08-26T12:00	35650	6	-33.8		132	8	
2025-08-26T12:00	35700	5	-33.4		135	8	
2025-08-26T12:00	35750	5	-33.2		138	7	
2025-08-26T12:00	35800	5	-33.0		140	6	
2025-08-26T12:00	35850	5	-32.9		139	6	
2025-08-26T12:00	35900	5	-32.8		134	5	
2025-08-26T12:00	35950	5	-32.8		125	5	
2025-08-26T12:00	36000	5	-32.7		120	6	
2025-08-27T00:00	491	958	17.8	17.3	35	1	
2025-08-27T00:00	501	957	18.1	17.5	316	0	
2025-08-27T00:00	520	955	18.0	17.0	278	1	
2025-08-27T00:00	540	953	18.3	16.3	275	1	
2025-08-27T00:00	560	951	18.5	15.7	271	1	
2025-08-27T00:00	580	949	18.6	15.6	268	2	
2025-08-27T00:00	600	946	18.5	15.5	266	2	
2025-08-27T00:00	620	945	18.4	15.4	264	2	
2025-08-27T00:00	640	942	18.4	15.3	263	2	
2025-08-27T00:00	660	940	18.2	15.3	261	2	
2025-08-27T00:00	680	938	18.0	15.2	259	3	
2025-08-27T00:00	700	936	17.9	15.2	257	3	
2025-08-27T00:00	720	934	17.7	15.1	254	3	
2025-08-27T00:00	740	931	17.6	15.0	249	3	
2025-08-27T00:00	760	929	17.5	14.9	243	3	
2025-08-27T00:00	780	927	17.2	14.9	235	3	
2025-08-27T00:00	800	925	17.0	15.0	227	3	
2025-08-27T00:00	820	922	16.8	14.9	220	3	
2025-08-27T00:00	840	920	16.6	14.8	214	3	
2025-08-27T00:00	860	918	16.5	14.8	210	4	
2025-08-27T00:00	880	916	16.2	14.8	205	4	
2025-08-27T00:00	900	914	16.0	14.7	201	4	
2025-08-27T00:00	920	912	15.9	14.6	196	4	
2025-08-27T00:00	940	910	16.1	14.1	191	5	
2025-08-27T00:00	960	908	17.1	13.2	186	5	
2025-08-27T00:00	980	905	17.5	12.9	181	6	
2025-08-27T00:00	1000	903	17.2	13.1	177	7	
2025-08-27T00:00	1020	901	17.0	13.1	174	8	
2025-08-27T00:00	1040	899	16.9	12.8	172	8	
2025-08-27T00:00	1060	897	17.6	11.9	172	9	
2025-08-27T00:00	1080	895	18.0	11.5	173	9	
2025-08-27T00:00	1100	892	18.2	11.3	174	10	
2025-08-27T00:00	1120	891	18.2	11.2	175	10	
2025-08-27T00:00	1140	889	18.1	11.2	177	10	
2025-08-27T00:00	1160	886	18.0	11.1	179	10	
2025-08-27T00:00	1180	884	17.8	11.1	181	10	
2025-08-27T00:00	1200	882	17.7	11.0	182	10	
2025-08-27T00:00	1220	880	17.5	11.0	184	10	
2025-08-27T00:00	1240	878	17.4	10.9	185	10	
2025-08-27T00:00	1260	876	17.4	10.8	186	9	
2025-08-27T00:00	1280	874	17.1	10.8	188	9	
2025-08-27T00:00	1300	872	16.9	10.8	189	9	
2025-08-27T00:00	1320	870	16.8	10.6	190	9	
2025-08-27T00:00	1340	868	16.8	10.6	192	9	
2025-08-27T00:00	1360	866	16.6	10.5	193	9	
2025-08-27T00:00	1380	864	16.4	10.5	194	9	
2025-08-27T00:00	1400	862	16.2	10.5	195	9	
2025-08-27T00:00	1420	860	16.0	10.4	197	8	
2025-08-27T00:00	1440	858	15.8	10.3	197	8	
2025-08-27T00:00	1460	856	15.6	10.3	198	8	
2025-08-27T00:00	1480	854	15.4	10.3	198	8	
2025-08-27T00:00	1500	852	15.2	10.3	197	8	
2025-08-27T00:00	1520	850	15.0	10.2	197	8	
2025-08-27T00:00	1540	848	14.8	10.2	196	8	
2025-08-27T00:00	1560	846	14.6	10.1	196	8	
2025-08-27T00:00	1580	844	14.5	10.2	196	8	
2025-08-27T00:00	1600	842	14.3	10.1	196	8	
2025-08-27T00:00	1620	840	14.1	10.0	196	8	
2025-08-27T00:00	1640	838	13.9	10.0	196	9	
2025-08-27T00:00	1660	836	13.9	9.9	195	9	
2025-08-27T00:00	1680	834	13.7	9.9	194	9	
2025-08-27T00:00	1700	832	13.6	9.9	192	9	
2025-08-27T00:00	1720	830	13.4	9.8	190	9	
2025-08-27T00:00	1740	828	13.4	9.7	189	9	
2025-08-27T00:00	1760	826	13.2	9.6	187	9	
2025-08-27T00:00	1780	824	13.1	9.5	186	9	
2025-08-27T00:00	1800	822	13.0	9.5	185	9	
2025-08-27T00:00	1820	820	12.8	9.5	185	9	
2025-08-27T00:00	1840	818	12.6	9.4	185	9	
2025-08-27T00:00	1860	816	12.4	9.4	186	9	
2025-08-27T00:00	1880	814	12.2	9.3	188	9	
2025-08-27T00:00	1900	812	12.1	9.3	190	9	
2025-08-27T00:00	1920	811	11.9	9.2	191	9	
2025-08-27T00:00	1940	809	11.9	9.1	193	9	
2025-08-27T00:00	1960	807	11.8	9.0	195	9	
2025-08-27T00:00	1980	805	11.7	8.9	196	9	
2025-08-27T00:00	2000	803	11.5	8.9	198	9	
2025-08-27T00:00	2020	801	11.4	8.7	200	9	
2025-08-27T00:00	2040	799	11.4	8.6	202	9	
2025-08-27T00:00	2060	797	11.2	8.5	204	9	
2025-08-27T00:00	2080	795	11.1	8.2	205	10	
2025-08-27T00:00	2100	793	11.1	7.9	207	10	
2025-08-27T00:00	2120	791	10.9	7.8	208	11	
2025-08-27T00:00	2140	789	10.7	7.9	208	11	
2025-08-27T00:00	2160	788	10.4	7.9	209	12	
2025-08-27T00:00	2180	786	10.4	7.4	209	12	
2025-08-27T00:00	2200	784	10.3	7.1	209	12	
2025-08-27T00:00	2220	782	10.1	7.1	209	12	
2025-08-27T00:00	2240	780	9.9	7.1	209	12	
2025-08-27T00:00	2260	778	9.7	7.0	209	12	
2025-08-27T00:00	2280	776	9.5	7.0	209	12	
2025-08-27T00:00	2300	774	9.3	6.9	209	12	
2025-08-27T00:00	2320	773	9.1	7.0	210	12	
2025-08-27T00:00	2340	771	9.0	7.0	212	13	
2025-08-27T00:00	2360	769	8.8	6.9	214	13	
2025-08-27T00:00	2380	767	8.7	7.0	216	13	
2025-08-27T00:00	2400	765	8.5	6.8	219	13	
2025-08-27T00:00	2420	764	8.3	6.7	222	14	
2025-08-27T00:00	2440	761	8.3	6.8	226	14	
2025-08-27T00:00	2460	760	8.3	6.8	228	15	
2025-08-27T00:00	2480	758	8.3	6.7	231	16	
2025-08-27T00:00	2500	756	8.2	6.7	232	16	
2025-08-27T00:00	2520	754	8.2	6.4	232	17	
2025-08-27T00:00	2540	752	8.5	6.1	232	17	
2025-08-27T00:00	2560	751	8.5	6.0	232	17	
2025-08-27T00:00	2580	749	8.3	5.8	232	17	
2025-08-27T00:00	2600	747	8.2	5.7	232	17	
2025-08-27T00:00	2620	745	8.0	5.5	233	17	
2025-08-27T00:00	2640	743	7.9	5.2	233	16	
2025-08-27T00:00	2660	742	8.0	4.3	234	16	
2025-08-27T00:00	2680	740	8.1	4.0	236	16	
2025-08-27T00:00	2700	738	8.1	4.0	237	16	
2025-08-27T00:00	2720	736	7.9	4.0	238	16	
2025-08-27T00:00	2740	734	7.9	4.1	238	15	
2025-08-27T00:00	2760	733	7.8	4.4	238	15	
2025-08-27T00:00	2780	731	7.7	4.4	238	15	
2025-08-27T00:00	2800	729	7.5	4.4	238	14	
2025-08-27T00:00	2820	727	7.3	4.3	238	14	
2025-08-27T00:00	2840	725	7.1	4.2	238	14	
2025-08-27T00:00	2860	724	7.0	4.1	239	13	
2025-08-27T00:00	2880	722	6.8	4.1	240	13	
2025-08-27T00:00	2900	720	6.6	4.0	242	13	
2025-08-27T00:00	2920	719	6.5	4.0	244	13	
2025-08-27T00:00	2940	717	6.3	3.9	246	13	
2025-08-27T00:00	2960	715	6.4	3.6	248	13	
2025-08-27T00:00	2980	713	6.3	3.5	249	13	
2025-08-27T00:00	3000	712	6.1	3.6	251	13	
2025-08-27T00:00	3020	710	5.9	3.5	252	13	
2025-08-27T00:00	3040	708	5.7	3.4	253	13	
2025-08-27T00:00	3060	706	5.6	3.4	254	13	
2025-08-27T00:00	3080	705	5.4	3.5	254	13	
2025-08-27T00:00	3100	703	5.3	3.4	254	12	
2025-08-27T00:00	3120	701	5.1	3.3	255	12	
2025-08-27T00:00	3140	700	4.9	3.3	255	12	
2025-08-27T00:00	3160	698	4.7	3.2	256	12	
2025-08-27T00:00	3180	696	4.5	3.2	256	12	
2025-08-27T00:00	3200	694	4.4	3.2	256	12	
2025-08-27T00:00	3220	693	4.2	3.0	256	12	
2025-08-27T00:00	3240	691	4.0	3.0	255	12	
2025-08-27T00:00	3260	689	3.8	2.9	254	12	
2025-08-27T00:00	3280	688	3.6	2.9	253	12	
2025-08-27T00:00	3300	686	3.4	2.8	252	12	
2025-08-27T00:00	3320	684	3.2	2.6	253	11	
2025-08-27T00:00	3340	682	3.0	2.5	254	11	
2025-08-27T00:00	3360	681	2.9	2.5	257	11	
2025-08-27T00:00	3380	679	2.9	2.6	260	12	
2025-08-27T00:00	3400	678	2.7	2.5	263	12	
2025-08-27T00:00	3420	676	2.6	2.5	266	12	
2025-08-27T00:00	3440	674	2.4	2.4	267	13	
2025-08-27T00:00	3460	672	2.3	2.3	268	13	
2025-08-27T00:00	3480	671	2.2	2.2	268	13	
2025-08-27T00:00	3500	669	2.2	2.1	267	14	
2025-08-27T00:00	3520	668	2.0	2.0	266	14	
2025-08-27T00:00	3540	666	1.9	1.9	265	14	
2025-08-27T00:00	3560	664	1.8	1.8	264	14	
2025-08-27T00:00	3580	663	1.7	1.7	263	14	
2025-08-27T00:00	3600	661	1.5	1.5	262	14	
2025-08-27T00:00	3620	659	1.4	1.3	261	14	
2025-08-27T00:00	3640	658	1.2	0.8	260	14	
2025-08-27T00:00	3660	656	1.0	0.7	260	13	
2025-08-27T00:00	3680	654	0.9	0.4	260	13	
2025-08-27T00:00	3700	653	0.8	0.3	260	13	
2025-08-27T00:00	3720	651	0.7	0.2	261	13	
2025-08-27T00:00	3740	650	0.6	0.1	261	13	
2025-08-27T00:00	3760	648	0.4	0.1	262	13	
2025-08-27T00:00	3780	646	0.3	0.0	262	13	
2025-08-27T00:00	3800	645	0.2	-0.5	263	13	
2025-08-27T00:00	3820	643	0.2	-1.0	263	12	
2025-08-27T00:00	3840	641	0.1	-1.1	263	12	
2025-08-27T00:00	3860	640	-0.1	-1.1	263	12	
2025-08-27T00:00	3880	638	-0.3	-1.2	263	12	
2025-08-27T00:00	3900	637	-0.4	-1.1	263	13	
2025-08-27T00:00	3920	635	-0.4	-0.9	264	12	
2025-08-27T00:00	3940	634	-0.5	-1.2	264	12	
2025-08-27T00:00	3960	632	-0.6	-1.3	265	12	
2025-08-27T00:00	3980	630	-0.6	-1.6	266	12	
2025-08-27T00:00	4000	629	-0.6	-2.0	267	12	
2025-08-27T00:00	4020	627	-0.6	-2.4	268	12	
2025-08-27T00:00	4040	626	-0.8	-2.4	268	12	
2025-08-27T00:00	4060	624	-0.9	-2.8	269	12	
2025-08-27T00:00	4080	623	-1.0	-3.2	268	12	
2025-08-27T00:00	4100	621	-1.2	-3.3	267	13	
2025-08-27T00:00	4120	620	-1.3	-3.3	266	13	
2025-08-27T00:00	4140	618	-1.6	-3.3	264	13	
2025-08-27T00:00	4160	616	-1.7	-3.5	262	13	
2025-08-27T00:00	4180	615	-1.8	-4.0	260	14	
2025-08-27T00:00	4200	613	-2.0	-4.5	258	14	
2025-08-27T00:00	4220	612	-2.0	-4.6	258	14	
2025-08-27T00:00	4240	610	-2.2	-4.5	257	14	
2025-08-27T00:00	4260	609	-2.4	-4.1	258	14	
2025-08-27T00:00	4280	607	-2.6	-4.2	258	14	
2025-08-27T00:00	4300	606	-2.7	-4.0	259	14	
2025-08-27T00:00	4320	604	-2.9	-3.8	260	14	
2025-08-27T00:00	4340	603	-3.0	-3.4	260	14	
2025-08-27T00:00	4360	601	-3.1	-3.4	260	14	
2025-08-27T00:00	4380	600	-3.2	-3.3	260	14	
2025-08-27T00:00	4400	598	-3.4	-3.4	259	13	
2025-08-27T00:00	4420	596	-3.5	-3.5	257	13	
2025-08-27T00:00	4440	595	-3.5	-3.5	256	13	
2025-08-27T00:00	4460	593	-3.5	-3.8	256	13	
2025-08-27T00:00	4480	592	-3.5	-3.9	256	13	
2025-08-27T00:00	4500	591	-3.7	-3.9	256	13	
2025-08-27T00:00	4520	589	-3.9	-3.9	257	13	
2025-08-27T00:00	4540	587	-4.0	-4.0	258	14	
2025-08-27T00:00	4560	586	-4.1	-4.1	259	14	
2025-08-27T00:00	4580	585	-4.2	-4.2	260	14	
2025-08-27T00:00	4600	583	-4.3	-4.3	260	14	
2025-08-27T00:00	4620	581	-4.4	-4.6	260	15	
2025-08-27T00:00	4640	580	-4.5	-4.7	259	15	
2025-08-27T00:00	4660	579	-4.6	-4.8	259	15	
2025-08-27T00:00	4680	577	-4.8	-4.8	258	15	
2025-08-27T00:00	4700	576	-4.9	-4.9	258	15	
2025-08-27T00:00	4720	574	-5.0	-5.1	258	16	
2025-08-27T00:00	4740	573	-5.2	-5.2	258	16	
2025-08-27T00:00	4760	571	-5.3	-5.3	258	16	
2025-08-27T00:00	4780	570	-5.5	-5.5	259	16	
2025-08-27T00:00	4800	568	-5.5	-5.5	259	16	
2025-08-27T00:00	4820	567	-5.6	-5.6	260	16	
2025-08-27T00:00	4840	566	-5.8	-5.8	260	16	
2025-08-27T00:00	4860	564	-5.9	-6.1	261	16	
2025-08-27T00:00	4880	563	-6.0	-6.7	262	16	
2025-08-27T00:00	4900	561	-6.1	-7.4	262	16	
2025-08-27T00:00	4920	560	-6.1	-7.7	263	16	
2025-08-27T00:00	4940	559	-6.1	-8.1	264	17	
2025-08-27T00:00	4960	557	-6.1	-8.5	264	17	
2025-08-27T00:00	4980	555	-6.2	-8.3	264	17	
2025-08-27T00:00	5000	554	-6.1	-8.8	264	17	
2025-08-27T00:00	5020	553	-5.9	-9.0	263	17	
2025-08-27T00:00	5040	551	-5.9	-9.1	263	16	
2025-08-27T00:00	5060	550	-6.1	-9.1	262	16	
2025-08-27T00:00	5080	548	-6.2	-9.1	262	16	
2025-08-27T00:00	5100	547	-6.3	-9.1	262	16	
2025-08-27T00:00	5120	546	-6.4	-9.2	262	16	
2025-08-27T00:00	5140	544	-6.6	-9.2	263	16	
2025-08-27T00:00	5160	543	-6.8	-9.3	264	16	
2025-08-27T00:00	5180	542	-6.9	-9.4	264	16	
2025-08-27T00:00	5200	540	-7.0	-9.6	265	16	
2025-08-27T00:00	5220	539	-7.1	-9.8	265	16	
2025-08-27T00:00	5240	537	-7.2	-10.2	265	16	
2025-08-27T00:00	5260	536	-7.4	-10.3	264	16	
2025-08-27T00:00	5280	535	-7.5	-11.2	263	16	
2025-08-27T00:00	5300	533	-7.6	-11.5	263	17	
2025-08-27T00:00	5320	532	-7.7	-11.9	262	17	
2025-08-27T00:00	5340	530	-7.8	-12.7	261	17	
2025-08-27T00:00	5360	529	-7.9	-13.0	261	18	
2025-08-27T00:00	5380	528	-8.1	-13.3	261	18	
2025-08-27T00:00	5400	527	-8.2	-13.2	261	18	
2025-08-27T00:00	5420	525	-8.4	-13.0	261	18	
2025-08-27T00:00	5440	524	-8.6	-13.3	261	18	
2025-08-27T00:00	5460	523	-8.7	-13.4	261	18	
2025-08-27T00:00	5480	521	-8.9	-13.5	261	17	
2025-08-27T00:00	5500	520	-9.1	-14.0	262	17	
2025-08-27T00:00	5520	518	-9.3	-14.5	262	17	
2025-08-27T00:00	5540	517	-9.4	-14.0	262	16	
2025-08-27T00:00	5560	516	-9.6	-14.7	262	16	
2025-08-27T00:00	5580	514	-9.8	-15.3	262	16	
2025-08-27T00:00	5600	513	-9.9	-15.3	262	16	
2025-08-27T00:00	5620	512	-10.1	-16.0	262	16	
2025-08-27T00:00	5640	510	-10.1	-17.2	262	16	
2025-08-27T00:00	5660	509	-10.3	-17.2	263	16	
2025-08-27T00:00	5680	508	-10.4	-17.6	263	16	
2025-08-27T00:00	5700	506	-10.6	-17.4	264	16	
2025-08-27T00:00	5720	505	-10.8	-17.0	265	16	
2025-08-27T00:00	5740	504	-10.9	-17.3	266	16	
2025-08-27T00:00	5760	503	-11.0	-17.8	266	16	
2025-08-27T00:00	5780	501	-11.2	-18.5	266	16	
2025-08-27T00:00	5800	500	-11.3	-19.1	266	17	
2025-08-27T00:00	5820	499	-11.4	-19.2	266	17	
2025-08-27T00:00	5840	497	-11.6	-19.2	265	17	
2025-08-27T00:00	5860	496	-11.7	-19.3	265	18	
2025-08-27T00:00	5880	495	-11.8	-19.3	265	18	
2025-08-27T00:00	5900	493	-11.9	-19.5	265	19	
2025-08-27T00:00	5920	492	-11.9	-20.2	265	19	
2025-08-27T00:00	5940	491	-12.1	-20.3	266	19	
2025-08-27T00:00	5960	489	-12.2	-19.8	267	19	
2025-08-27T00:00	5980	488	-12.3	-20.4	267	19	
2025-08-27T00:00	6000	487	-12.4	-19.5	268	19	
2025-08-27T00:00	6020	486	-12.6	-19.1	269	19	
2025-08-27T00:00	6040	484	-12.9	-18.8	269	18	
2025-08-27T00:00	6060	483	-13.1	-18.3	269	18	
2025-08-27T00:00	6080	482	-13.2	-17.9	269	18	
2025-08-27T00:00	6100	481	-13.4	-17.9	268	18	
2025-08-27T00:00	6120	479	-13.6	-18.2	267	18	
2025-08-27T00:00	6140	478	-13.8	-18.3	266	19	
2025-08-27T00:00	6160	477	-13.9	-18.3	265	19	
2025-08-27T00:00	6180	476	-14.1	-18.1	265	19	
2025-08-27T00:00	6200	474	-14.2	-18.0	264	19	
2025-08-27T00:00	6220	473	-14.4	-18.2	264	19	
2025-08-27T00:00	6240	472	-14.6	-18.2	264	19	
2025-08-27T00:00	6260	471	-14.6	-18.1	264	19	
2025-08-27T00:00	6280	469	-14.7	-18.1	263	19	
2025-08-27T00:00	6300	468	-14.9	-18.2	263	19	
2025-08-27T00:00	6320	467	-15.0	-18.2	262	19	
2025-08-27T00:00	6340	466	-15.1	-18.1	261	18	
2025-08-27T00:00	6360	464	-15.3	-18.1	259	18	
2025-08-27T00:00	6380	463	-15.5	-18.1	258	18	
2025-08-27T00:00	6400	462	-15.6	-18.2	257	18	
2025-08-27T00:00	6420	461	-15.8	-17.8	256	18	
2025-08-27T00:00	6440	459	-15.9	-17.7	255	17	
2025-08-27T00:00	6460	458	-16.1	-17.4	254	17	
2025-08-27T00:00	6480	457	-16.2	-16.8	254	17	
2025-08-27T00:00	6500	456	-16.3	-16.5	254	17	
2025-08-27T00:00	6520	455	-16.5	-16.9	255	17	
2025-08-27T00:00	6540	453	-16.6	-17.1	256	17	
2025-08-27T00:00	6560	452	-16.7	-17.4	256	17	
2025-08-27T00:00	6580	451	-16.8	-17.5	257	17	
2025-08-27T00:00	6600	450	-17.0	-17.6	257	17	
2025-08-27T00:00	6620	449	-17.1	-17.9	257	18	
2025-08-27T00:00	6640	447	-17.3	-18.1	257	18	
2025-08-27T00:00	6660	446	-17.4	-18.3	257	18	
2025-08-27T00:00	6680	445	-17.6	-18.3	256	18	
2025-08-27T00:00	6700	444	-17.8	-18.4	256	18	
2025-08-27T00:00	6720	443	-17.9	-18.6	256	18	
2025-08-27T00:00	6740	441	-18.0	-18.6	256	18	
2025-08-27T00:00	6760	440	-18.1	-18.7	256	18	
2025-08-27T00:00	6780	439	-18.2	-18.8	255	18	
2025-08-27T00:00	6800	438	-18.3	-19.0	255	18	
2025-08-27T00:00	6820	437	-18.4	-19.0	254	18	
2025-08-27T00:00	6840	436	-18.6	-19.1	254	18	
2025-08-27T00:00	6860	434	-18.8	-18.9	253	18	
2025-08-27T00:00	6880	433	-18.9	-19.0	252	18	
2025-08-27T00:00	6900	432	-19.0	-19.3	252	17	
2025-08-27T00:00	6920	431	-19.1	-19.2	251	17	
2025-08-27T00:00	6940	430	-19.2	-19.4	251	17	
2025-08-27T00:00	6960	429	-19.3	-19.5	250	17	
2025-08-27T00:00	6980	428	-19.5	-19.8	250	16	
2025-08-27T00:00	7000	427	-19.6	-20.1	249	16	
2025-08-27T00:00	7020	425	-19.7	-20.6	249	16	
2025-08-27T00:00	7040	424	-19.9	-20.9	248	16	
2025-08-27T00:00	7060	423	-20.1	-22.3	247	16	
2025-08-27T00:00	7080	422	-20.3	-23.0	247	15	
2025-08-27T00:00	7100	421	-20.4	-23.0	247	15	
2025-08-27T00:00	7120	420	-20.6	-23.2	246	16	
2025-08-27T00:00	7140	418	-20.7	-23.4	246	16	
2025-08-27T00:00	7160	417	-20.8	-23.7	246	16	
2025-08-27T00:00	7180	416	-21.0	-23.7	246	16	
2025-08-27T00:00	7200	415	-21.2	-23.9	246	16	
2025-08-27T00:00	7220	414	-21.3	-24.2	245	16	
2025-08-27T00:00	7240	413	-21.4	-24.0	244	16	
2025-08-27T00:00	7260	412	-21.4	-23.7	244	16	
2025-08-27T00:00	7280	410	-21.3	-23.1	243	16	
2025-08-27T00:00	7300	409	-21.3	-23.1	243	16	
2025-08-27T00:00	7320	408	-21.4	-23.1	243	16	
2025-08-27T00:00	7340	407	-21.5	-23.2	243	16	
2025-08-27T00:00	7360	406	-21.6	-23.4	243	16	
2025-08-27T00:00	7380	405	-21.8	-23.4	243	17	
2025-08-27T00:00	7400	404	-22.0	-23.7	243	17	
2025-08-27T00:00	7420	403	-22.1	-23.8	243	17	
2025-08-27T00:00	7440	402	-22.3	-23.9	242	17	
2025-08-27T00:00	7460	401	-22.5	-24.0	242	17	
2025-08-27T00:00	7480	400	-22.6	-24.1	241	18	
2025-08-27T00:00	7500	399	-22.7	-24.2	239	18	
2025-08-27T00:00	7520	398	-22.9	-24.4	239	18	
2025-08-27T00:00	7540	396	-23.0	-24.7	238	18	
2025-08-27T00:00	7560	395	-23.1	-24.9	237	18	
2025-08-27T00:00	7580	394	-23.3	-25.1	236	18	
2025-08-27T00:00	7600	393	-23.5	-25.4	235	18	
2025-08-27T00:00	7620	392	-23.6	-25.4	234	18	
2025-08-27T00:00	7640	391	-23.8	-25.6	234	18	
2025-08-27T00:00	7660	390	-23.9	-25.8	234	18	
2025-08-27T00:00	7680	389	-24.1	-25.9	234	19	
2025-08-27T00:00	7700	388	-24.2	-26.1	235	19	
2025-08-27T00:00	7720	387	-24.4	-26.2	236	19	
2025-08-27T00:00	7740	386	-24.5	-26.2	236	19	
2025-08-27T00:00	7760	385	-24.7	-26.3	237	20	
2025-08-27T00:00	7780	384	-24.8	-26.3	237	20	
2025-08-27T00:00	7800	382	-25.0	-26.4	237	20	
2025-08-27T00:00	7820	381	-25.2	-26.3	237	20	
2025-08-27T00:00	7840	380	-25.3	-26.6	237	21	
2025-08-27T00:00	7860	379	-25.5	-26.9	236	21	
2025-08-27T00:00	7880	378	-25.6	-26.8	236	21	
2025-08-27T00:00	7900	377	-25.7	-27.2	236	21	
2025-08-27T00:00	7920	376	-25.9	-27.3	236	21	
2025-08-27T00:00	7940	375	-26.0	-27.4	236	21	
2025-08-27T00:00	7960	374	-26.2	-27.5	237	21	
2025-08-27T00:00	7980	373	-26.3	-27.6	237	21	
2025-08-27T00:00	8000	372	-26.5	-27.6	238	21	
2025-08-27T00:00	8020	371	-26.7	-27.7	238	21	
2025-08-27T00:00	8040	370	-26.8	-27.9	238	21	
2025-08-27T00:00	8060	369	-27.0	-28.4	238	20	
2025-08-27T00:00	8080	368	-27.1	-28.6	239	20	
2025-08-27T00:00	8100	367	-27.3	-28.6	239	20	
2025-08-27T00:00	8120	366	-27.4	-28.7	239	20	
2025-08-27T00:00	8140	365	-27.6	-28.9	239	20	
2025-08-27T00:00	8160	364	-27.7	-29.3	239	20	
2025-08-27T00:00	8180	363	-27.8	-29.6	239	20	
2025-08-27T00:00	8200	362	-28.0	-29.6	240	20	
2025-08-27T00:00	8220	361	-28.2	-30.3	240	21	
2025-08-27T00:00	8240	360	-28.3	-31.7	241	21	
2025-08-27T00:00	8260	359	-28.6	-33.1	242	21	
2025-08-27T00:00	8280	358	-28.7	-33.3	243	21	
2025-08-27T00:00	8300	357	-28.9	-32.8	244	21	
2025-08-27T00:00	8320	356	-29.0	-32.5	244	21	
2025-08-27T00:00	8340	355	-29.2	-32.8	244	21	
2025-08-27T00:00	8360	354	-29.4	-32.8	244	21	
2025-08-27T00:00	8380	353	-29.5	-32.9	244	21	
2025-08-27T00:00	8400	352	-29.7	-33.1	244	21	
2025-08-27T00:00	8420	351	-29.9	-33.8	244	20	
2025-08-27T00:00	8440	350	-30.1	-33.4	244	20	
2025-08-27T00:00	8460	349	-30.3	-33.5	244	20	
2025-08-27T00:00	8480	348	-30.5	-33.7	244	20	
2025-08-27T00:00	8500	347	-30.6	-33.3	244	20	
2025-08-27T00:00	8520	346	-30.8	-32.4	244	20	
2025-08-27T00:00	8540	345	-31.0	-33.0	244	20	
2025-08-27T00:00	8560	344	-31.2	-34.5	244	20	
2025-08-27T00:00	8580	343	-31.4	-34.0	245	20	
2025-08-27T00:00	8600	342	-31.5	-32.9	245	21	
2025-08-27T00:00	8620	341	-31.7	-33.8	246	21	
2025-08-27T00:00	8640	340	-31.9	-34.4	246	21	
2025-08-27T00:00	8660	339	-32.1	-34.3	246	21	
2025-08-27T00:00	8680	338	-32.3	-34.3	247	21	
2025-08-27T00:00	8700	337	-32.5	-35.2	248	21	
2025-08-27T00:00	8720	336	-32.7	-35.6	248	21	
2025-08-27T00:00	8740	335	-32.9	-36.6	249	21	
2025-08-27T00:00	8760	334	-33.1	-37.8	249	21	
2025-08-27T00:00	8780	333	-33.3	-37.6	249	21	
2025-08-27T00:00	8800	333	-33.5	-37.6	249	22	
2025-08-27T00:00	8820	332	-33.7	-37.8	249	22	
2025-08-27T00:00	8840	331	-33.8	-37.8	249	22	
2025-08-27T00:00	8860	330	-34.0	-37.9	249	22	
2025-08-27T00:00	8880	329	-34.2	-37.9	249	22	
2025-08-27T00:00	8900	328	-34.4	-38.0	249	22	
2025-08-27T00:00	8920	327	-34.6	-38.2	249	22	
2025-08-27T00:00	8940	326	-34.8	-38.4	250	22	
2025-08-27T00:00	8960	325	-34.9	-38.4	250	22	
2025-08-27T00:00	8980	324	-35.1	-38.7	250	22	
2025-08-27T00:00	9000	323	-35.3	-39.3	250	22	
2025-08-27T00:00	9020	322	-35.5	-39.7	250	22	
2025-08-27T00:00	9040	321	-35.6	-40.0	250	22	
2025-08-27T00:00	9060	320	-35.8	-40.5	250	23	
2025-08-27T00:00	9080	319	-36.0	-40.5	250	23	
2025-08-27T00:00	9100	318	-36.2	-40.5	250	23	
2025-08-27T00:00	9120	318	-36.3	-40.8	250	23	
2025-08-27T00:00	9140	317	-36.5	-41.4	251	23	
2025-08-27T00:00	9160	316	-36.7	-42.5	251	23	
2025-08-27T00:00	9180	315	-36.8	-43.2	252	24	
2025-08-27T00:00	9200	314	-36.8	-44.5	252	24	
2025-08-27T00:00	9220	313	-36.8	-46.7	253	25	
2025-08-27T00:00	9240	312	-36.9	-47.9	253	25	
2025-08-27T00:00	9260	311	-37.0	-49.3	254	25	
2025-08-27T00:00	9280	310	-37.1	-52.3	254	26	
2025-08-27T00:00	9300	309	-37.2	-56.0	254	26	
2025-08-27T00:00	9320	309	-37.2	-59.7	254	27	
2025-08-27T00:00	9340	308	-37.3	-60.1	254	27	
2025-08-27T00:00	9360	307	-37.4	-59.8	254	27	
2025-08-27T00:00	9380	306	-37.5	-60.5	254	27	
2025-08-27T00:00	9400	305	-37.5	-60.5	253	27	
2025-08-27T00:00	9420	304	-37.5	-60.1	253	27	
2025-08-27T00:00	9440	303	-37.7	-60.1	253	27	
2025-08-27T00:00	9460	302	-37.8	-60.2	254	27	
2025-08-27T00:00	9480	301	-37.9	-60.2	254	27	
2025-08-27T00:00	9500	301	-38.1	-60.3	254	26	
2025-08-27T00:00	9520	300	-38.2	-60.4	254	26	
2025-08-27T00:00	9540	299	-38.1	-59.9	254	26	
2025-08-27T00:00	9560	298	-38.2	-59.4	254	26	
2025-08-27T00:00	9580	297	-38.3	-59.3	254	26	
2025-08-27T00:00	9600	296	-38.4	-59.4	254	26	
2025-08-27T00:00	9620	295	-38.6	-59.4	254	26	
2025-08-27T00:00	9640	295	-38.8	-59.5	255	26	
2025-08-27T00:00	9660	294	-38.9	-60.0	255	27	
2025-08-27T00:00	9680	293	-38.9	-60.2	255	27	
2025-08-27T00:00	9700	292	-39.0	-60.2	255	27	
2025-08-27T00:00	9720	291	-39.1	-60.4	256	27	
2025-08-27T00:00	9740	290	-39.2	-60.2	256	27	
2025-08-27T00:00	9760	289	-39.4	-60.2	257	28	
2025-08-27T00:00	9780	289	-39.4	-59.8	258	28	
2025-08-27T00:00	9800	288	-39.6	-59.7	258	28	
2025-08-27T00:00	9820	287	-39.7	-59.7	258	28	
2025-08-27T00:00	9840	286	-39.8	-60.1	259	28	
2025-08-27T00:00	9860	285	-39.9	-60.4	259	28	
2025-08-27T00:00	9880	284	-40.0	-60.6	259	28	
2025-08-27T00:00	9900	284	-40.2	-60.6	259	28	
2025-08-27T00:00	9920	283	-40.4	-60.7	259	28	
2025-08-27T00:00	9940	282	-40.6	-60.8	259	28	
2025-08-27T00:00	9960	281	-40.7	-60.9	259	28	
2025-08-27T00:00	9980	280	-40.9	-60.9	260	29	
2025-08-27T00:00	10000	279	-41.1	-61.0	260	29	
2025-08-27T00:00	10018	279	-41.3	-61.1	260	29	
2025-08-27T00:00	10050	277	-41.5	-61.1	261	30	
2025-08-27T00:00	10100	275	-41.9	-61.5	262	30	
2025-08-27T00:00	10150	273	-42.2	-62.3	262	30	
2025-08-27T00:00	10200	271	-42.5	-62.6	263	30	
2025-08-27T00:00	10250	269	-42.8	-62.8	264	31	
2025-08-27T00:00	10300	267	-43.2	-63.0	264	32	
2025-08-27T00:00	10350	265	-43.5	-63.4	262	32	
2025-08-27T00:00	10400	263	-43.9	-63.5	261	32	
2025-08-27T00:00	10450	261	-44.2	-63.8	260	32	
2025-08-27T00:00	10500	259	-44.5	-63.9	259	32	
2025-08-27T00:00	10550	258	-44.8	-64.0	258	33	
2025-08-27T00:00	10600	256	-45.1	-64.1	257	34	
2025-08-27T00:00	10650	254	-45.4	-64.1	258	35	
2025-08-27T00:00	10700	252	-45.8	-64.1	259	35	
2025-08-27T00:00	10750	250	-46.2	-64.4	260	36	
2025-08-27T00:00	10800	248	-46.6	-64.4	261	37	
2025-08-27T00:00	10850	246	-46.9	-64.8	261	37	
2025-08-27T00:00	10900	244	-47.3	-64.8	261	37	
2025-08-27T00:00	10950	243	-47.6	-64.8	261	37	
2025-08-27T00:00	11000	241	-47.8	-64.6	261	38	
2025-08-27T00:00	11050	239	-48.2	-64.7	261	38	
2025-08-27T00:00	11100	237	-48.6	-65.0	262	37	
2025-08-27T00:00	11150	235	-48.9	-65.4	262	37	
2025-08-27T00:00	11200	233	-49.1	-65.9	261	37	
2025-08-27T00:00	11250	232	-49.4	-65.9	261	37	
2025-08-27T00:00	11300	230	-49.8	-65.7	261	37	
2025-08-27T00:00	11350	228	-50.0	-65.7	261	37	
2025-08-27T00:00	11400	226	-50.1	-65.9	261	37	
2025-08-27T00:00	11450	225	-50.3	-66.3	261	38	
2025-08-27T00:00	11500	223	-50.6	-66.7	261	38	
2025-08-27T00:00	11550	221	-50.9	-67.0	260	37	
2025-08-27T00:00	11600	220	-51.3	-67.0	260	36	
2025-08-27T00:00	11650	218	-51.6	-67.2	259	36	
2025-08-27T00:00	11700	216	-51.9	-67.8	258	35	
2025-08-27T00:00	11750	214	-52.1	-68.6	257	35	
2025-08-27T00:00	11800	213	-52.3	-69.2	256	36	
2025-08-27T00:00	11850	211	-52.5	-70.3	255	36	
2025-08-27T00:00	11900	210	-52.2	-71.5	256	37	
2025-08-27T00:00	11950	208	-52.2	-72.2	256	37	
2025-08-27T00:00	12000	206	-52.2	-72.6	255	37	
2025-08-27T00:00	12050	205	-52.3	-72.6	255	37	
2025-08-27T00:00	12100	203	-52.4	-72.8	254	37	
2025-08-27T00:00	12150	202	-52.5	-73.2	253	37	
2025-08-27T00:00	12200	200	-52.5	-73.3	251	38	
2025-08-27T00:00	12250	199	-52.9	-73.1	250	38	
2025-08-27T00:00	12300	197	-53.3	-72.8	250	39	
2025-08-27T00:00	12350	196	-53.6	-72.6	252	39	
2025-08-27T00:00	12400	194	-53.8	-73.4	255	39	
2025-08-27T00:00	12450	192	-54.0	-74.1	257	39	
2025-08-27T00:00	12500	191	-54.4	-74.1	258	38	
2025-08-27T00:00	12550	189	-54.9	-74.1	259	39	
2025-08-27T00:00	12600	188	-55.2	-74.3	261	39	
2025-08-27T00:00	12650	187	-55.3	-74.5	263	39	
2025-08-27T00:00	12700	185	-55.0	-74.8	262	39	
2025-08-27T00:00	12750	184	-55.0	-75.3	260	38	
2025-08-27T00:00	12800	182	-55.1	-75.8	259	38	
2025-08-27T00:00	12850	181	-55.3	-76.1	259	37	
2025-08-27T00:00	12900	179	-55.6	-76.1	259	37	
2025-08-27T00:00	12950	178	-55.8	-76.3	259	37	
2025-08-27T00:00	13000	177	-56.1	-76.4	258	37	
2025-08-27T00:00	13050	175	-56.6	-76.5	257	37	
2025-08-27T00:00	13100	174	-57.1	-76.4	257	38	
2025-08-27T00:00	13150	172	-57.5	-76.4	257	38	
2025-08-27T00:00	13200	171	-57.7	-76.3	258	38	
2025-08-27T00:00	13250	170	-57.7	-76.4	259	38	
2025-08-27T00:00	13300	168	-58.0	-76.7	259	38	
2025-08-27T00:00	13350	167	-58.1	-77.2	259	37	
2025-08-27T00:00	13400	166	-58.2	-77.4	260	37	
2025-08-27T00:00	13450	164	-58.3	-77.8	261	37	
2025-08-27T00:00	13500	163	-58.4	-78.1	261	37	
2025-08-27T00:00	13550	162	-58.6	-78.2	260	37	
2025-08-27T00:00	13600	161	-58.9	-78.3	259	37	
2025-08-27T00:00	13650	159	-59.1	-78.4	258	37	
2025-08-27T00:00	13700	158	-59.4	-78.4	258	38	
2025-08-27T00:00	13750	157	-59.8	-78.4	258	38	
2025-08-27T00:00	13800	156	-59.9	-78.1	260	38	
2025-08-27T00:00	13850	154	-59.8	-77.9	263	37	
2025-08-27T00:00	13900	153	-60.0	-78.4	265	37	
2025-08-27T00:00	13950	152	-60.2	-79.1	267	35	
2025-08-27T00:00	14000	151	-60.1	-79.7	269	34	
2025-08-27T00:00	14050	149	-60.0	-79.9	270	33	
2025-08-27T00:00	14100	148	-60.2	-80.0	272	32	
2025-08-27T00:00	14150	147	-60.2	-80.1	274	30	
2025-08-27T00:00	14200	146	-59.9	-80.1	274	29	
2025-08-27T00:00	14250	145	-59.7	-80.1	272	28	
2025-08-27T00:00	14300	144	-59.9	-79.9	269	28	
2025-08-27T00:00	14350	142	-59.9	-79.6	266	28	
2025-08-27T00:00	14400	141	-59.7	-79.4	263	28	
2025-08-27T00:00	14450	140	-59.9	-79.8	261	29	
2025-08-27T00:00	14500	139	-60.2	-80.1	261	30	
2025-08-27T00:00	14550	138	-60.3	-80.1	263	31	
2025-08-27T00:00	14600	137	-60.2	-80.1	266	31	
2025-08-27T00:00	14650	136	-60.1	-80.4	269	31	
2025-08-27T00:00	14700	135	-59.8	-80.9	272	31	
2025-08-27T00:00	14750	133	-59.5	-81.4	274	30	
2025-08-27T00:00	14800	133	-59.3	-81.6	275	28	
2025-08-27T00:00	14850	131	-59.0	-81.5	275	26	
2025-08-27T00:00	14900	130	-58.8	-81.5	275	24	
2025-08-27T00:00	14950	129	-58.8	-81.5	275	23	
2025-08-27T00:00	15000	128	-59.1	-81.6	275	22	
2025-08-27T00:00	15050	127	-59.6	-81.6	274	21	
2025-08-27T00:00	15100	126	-59.8	-81.7	270	19	
2025-08-27T00:00	15150	125	-60.0	-82.0	267	17	
2025-08-27T00:00	15200	124	-59.7	-82.1	263	15	
2025-08-27T00:00	15250	123	-59.3	-82.3	259	14	
2025-08-27T00:00	15300	122	-59.4	-82.5	255	14	
2025-08-27T00:00	15350	121	-59.7	-82.7	250	14	
2025-08-27T00:00	15400	120	-60.1	-82.9	247	14	
2025-08-27T00:00	15450	119	-60.4	-83.0	245	15	
2025-08-27T00:00	15500	118	-60.8	-83.1	245	16	
2025-08-27T00:00	15550	117	-61.1	-83.2	246	17	
2025-08-27T00:00	15600	117	-61.4	-83.3	247	18	
2025-08-27T00:00	15650	116	-61.7	-83.4	247	18	
2025-08-27T00:00	15700	115	-62.1	-83.5	246	19	
2025-08-27T00:00	15750	114	-62.5	-83.5	245	20	
2025-08-27T00:00	15800	113	-62.9	-83.7	248	21	
2025-08-27T00:00	15850	112	-62.8	-84.1	253	21	
2025-08-27T00:00	15900	111	-62.0	-84.3	257	20	
2025-08-27T00:00	15950	110	-61.8	-85.0	261	20	
2025-08-27T00:00	16000	109	-61.0	-85.3	266	20	
2025-08-27T00:00	16050	108	-60.4	-85.6	270	19	
2025-08-27T00:00	16100	108	-60.2	-85.7	274	19	
2025-08-27T00:00	16150	107	-60.0	-85.7	277	19	
2025-08-27T00:00	16200	106	-59.6	-85.4	278	20	
2025-08-27T00:00	16250	105	-59.6	-85.4	280	20	
2025-08-27T00:00	16300	104	-59.7	-85.2	281	20	
2025-08-27T00:00	16350	103	-60.1	-85.3	282	19	
2025-08-27T00:00	16400	102	-60.2	-85.4	283	18	
2025-08-27T00:00	16450	102	-60.1	-85.3	284	17	
2025-08-27T00:00	16500	101	-60.3	-85.5	285	15	
2025-08-27T00:00	16550	100	-60.3	-85.5	285	14	
2025-08-27T00:00	16600	99	-60.5	-85.5	285	13	
2025-08-27T00:00	16650	98	-60.8	-85.5	284	12	
2025-08-27T00:00	16700	98	-61.1	-85.6	282	11	
2025-08-27T00:00	16750	97	-61.4	-85.8	277	9	
2025-08-27T00:00	16800	96	-61.6	-85.8	269	8	
2025-08-27T00:00	16850	95	-61.7	-86.0	265	8	
2025-08-27T00:00	16900	95	-61.6	-86.1	266	9	
2025-08-27T00:00	16950	94	-61.4	-86.2	265	9	
2025-08-27T00:00	17000	93	-61.0	-86.1	258	9	
2025-08-27T00:00	17050	92	-61.2	-86.2	251	10	
2025-08-27T00:00	17100	92	-61.5	-86.3	249	10	
2025-08-27T00:00	17150	91	-61.7	-86.6	253	10	
2025-08-27T00:00	17200	90	-60.8	-86.4	261	10	
2025-08-27T00:00	17250	89	-60.3	-86.5	267	9	
2025-08-27T00:00	17300	89	-59.9	-86.5	267	9	
2025-08-27T00:00	17350	88	-59.2	-86.3	264	10	
2025-08-27T00:00	17400	87	-59.2	-86.3	260	12	
2025-08-27T00:00	17450	87	-59.3	-86.1	257	13	
2025-08-27T00:00	17500	86	-59.3	-86.1	256	14	
2025-08-27T00:00	17550	85	-59.4	-86.3	258	14	
2025-08-27T00:00	17600	84	-59.0	-86.2	263	13	
2025-08-27T00:00	17650	84	-58.8	-86.2	272	11	
2025-08-27T00:00	17700	83	-58.6	-86.2	280	10	
2025-08-27T00:00	17750	83	-58.5	-86.1	289	8	
2025-08-27T00:00	17800	82	-58.3	-86.1	292	7	
2025-08-27T00:00	17850	81	-58.0	-86.1	285	6	
2025-08-27T00:00	17900	81	-57.9	-86.1	272	7	
2025-08-27T00:00	17950	80	-58.1	-86.0	266	8	
2025-08-27T00:00	18000	79	-58.0	-86.0	265	8	
2025-08-27T00:00	18050	79	-57.9	-86.1	265	8	
2025-08-27T00:00	18100	78	-57.9	-86.1	268	8	
2025-08-27T00:00	18150	77	-57.9	-86.2	272	7	
2025-08-27T00:00	18200	77	-57.8	-86.1	275	7	
2025-08-27T00:00	18250	76	-57.8	-86.1	276	6	
2025-08-27T00:00	18300	76	-58.0	-86.1	274	6	
2025-08-27T00:00	18350	75	-58.0	-86.2	270	6	
2025-08-27T00:00	18400	74	-58.0	-86.2	266	6	
2025-08-27T00:00	18450	74	-58.1	-86.2	264	6	
2025-08-27T00:00	18500	73	-58.3	-86.2	262	7	
2025-08-27T00:00	18550	73	-58.1	-86.2	262	8	
2025-08-27T00:00	18600	72	-58.3	-86.4	266	8	
2025-08-27T00:00	18650	72	-58.5	-86.5	271	9	
2025-08-27T00:00	18700	71	-58.3	-86.5	275	8	
2025-08-27T00:00	18750	70	-58.1	-86.4	278	8	
2025-08-27T00:00	18800	70	-57.9	-86.3	276	7	
2025-08-27T00:00	18850	69	-58.0	-86.3	270	7	
2025-08-27T00:00	18900	69	-58.3	-86.5	266	7	
2025-08-27T00:00	18950	68	-58.5	-86.6	268	7	
2025-08-27T00:00	19000	68	-58.3	-86.5	272	7	
2025-08-27T00:00	19050	67	-58.2	-86.5	275	7	
2025-08-27T00:00	19100	67	-58.0	-86.4	275	7	
2025-08-27T00:00	19150	66	-57.9	-86.4	276	7	
2025-08-27T00:00	19200	66	-58.1	-86.4	280	7	
2025-08-27T00:00	19250	65	-58.2	-86.6	283	7	
2025-08-27T00:00	19300	64	-58.2	-86.7	285	7	
2025-08-27T00:00	19350	64	-58.2	-86.8	286	6	
2025-08-27T00:00	19400	63	-57.7	-86.7	286	5	
2025-08-27T00:00	19450	63	-57.1	-86.6	283	4	
2025-08-27T00:00	19500	62	-57.2	-86.7	282	4	
2025-08-27T00:00	19550	62	-57.1	-86.5	284	4	
2025-08-27T00:00	19600	62	-57.0	-86.3	287	4	
2025-08-27T00:00	19650	61	-57.1	-86.5	282	4	
2025-08-27T00:00	19700	61	-56.9	-86.5	272	4	
2025-08-27T00:00	19750	60	-56.5	-86.6	268	4	
2025-08-27T00:00	19800	60	-56.1	-86.5	276	4	
2025-08-27T00:00	19850	59	-55.4	-86.2	290	3	
2025-08-27T00:00	19900	59	-55.3	-86.2	304	2	
2025-08-27T00:00	19950	58	-55.1	-86.1	301	1	
2025-08-27T00:00	20000	58	-54.8	-86.0	200	1	
2025-08-27T00:00	20050	57	-54.9		193	2	
2025-08-27T00:00	20100	57	-55.1		184	3	
2025-08-27T00:00	20150	56	-55.3		180	3	
2025-08-27T00:00	20200	56	-55.5		191	4	
2025-08-27T00:00	20250	56	-55.8		212	4	
2025-08-27T00:00	20300	55	-56.0		231	4	
2025-08-27T00:00	20350	55	-56.2		243	5	
2025-08-27T00:00	20400	54	-56.3		243	5	
2025-08-27T00:00	20450	54	-55.7		236	5	
2025-08-27T00:00	20500	53	-55.3		233	6	
2025-08-27T00:00	20550	53	-54.8		235	7	
2025-08-27T00:00	20600	53	-55.0		239	8	
2025-08-27T00:00	20650	52	-55.4		243	8	
2025-08-27T00:00	20700	52	-55.5		246	8	
2025-08-27T00:00	20750	51	-54.9		247	7	
2025-08-27T00:00	20800	51	-54.9		244	5	
2025-08-27T00:00	20850	51	-54.9		238	5	
2025-08-27T00:00	20900	50	-54.5		242	5	
2025-08-27T00:00	20950	50	-54.3		255	5	
2025-08-27T00:00	21000	49	-54.3		268	6	
2025-08-27T00:00	21050	49	-54.6		278	6	
2025-08-27T00:00	21100	49	-54.4		288	6	
2025-08-27T00:00	21150	48	-54.1		300	6	
2025-08-27T00:00	21200	48	-54.0		312	5	
2025-08-27T00:00	21250	47	-53.8		321	5	
2025-08-27T00:00	21300	47	-53.4		322	6	
2025-08-27T00:00	21350	47	-53.3		320	5	
2025-08-27T00:00	21400	46	-52.9		323	4	
2025-08-27T00:00	21450	46	-53.1		341	2	
2025-08-27T00:00	21500	46	-53.3		32	1	
2025-08-27T00:00	21550	45	-53.4		88	1	
2025-08-27T00:00	21600	45	-53.3		133	2	
2025-08-27T00:00	21650	45	-53.3		160	3	
2025-08-27T00:00	21700	44	-53.3		184	3	
2025-08-27T00:00	21750	44	-53.3		210	2	
2025-08-27T00:00	21800	44	-52.9		223	2	
2025-08-27T00:00	21850	43	-52.6		221	1	
2025-08-27T00:00	21900	43	-52.5		355	0	
2025-08-27T00:00	21950	43	-52.3		12	2	
2025-08-27T00:00	22000	42	-52.3		14	2	
2025-08-27T00:00	22050	42	-52.4		24	2	
2025-08-27T00:00	22100	42	-51.9		50	1	
2025-08-27T00:00	22150	41	-51.3		114	1	
2025-08-27T00:00	22200	41	-51.4		153	1	
2025-08-27T00:00	22250	41	-51.2		177	1	
2025-08-27T00:00	22300	40	-50.8		318	1	
2025-08-27T00:00	22350	40	-50.7		323	1	
2025-08-27T00:00	22400	40	-50.3		237	1	
2025-08-27T00:00	22450	39	-50.3		196	2	
2025-08-27T00:00	22500	39	-50.5		186	4	
2025-08-27T00:00	22550	39	-50.6		180	5	
2025-08-27T00:00	22600	39	-50.6		178	5	
2025-08-27T00:00	22650	38	-50.2		181	4	
2025-08-27T00:00	22700	38	-50.0		186	3	
2025-08-27T00:00	22750	38	-50.0		193	1	
2025-08-27T00:00	22800	37	-49.9		202	0	
2025-08-27T00:00	22850	37	-50.1		39	1	
2025-08-27T00:00	22900	37	-50.3		46	1	
2025-08-27T00:00	22950	37	-50.4		49	1	
2025-08-27T00:00	23000	36	-50.5		57	2	
2025-08-27T00:00	23050	36	-50.5		69	2	
2025-08-27T00:00	23100	36	-50.3		80	3	
2025-08-27T00:00	23150	35	-50.4		88	3	
2025-08-27T00:00	23200	35	-50.2		94	4	
2025-08-27T00:00	23250	35	-50.1		94	4	
2025-08-27T00:00	23300	35	-49.9		86	4	
2025-08-27T00:00	23350	34	-49.7		73	5	
2025-08-27T00:00	23400	34	-49.6		67	6	
2025-08-27T00:00	23450	34	-49.8		72	7	
2025-08-27T00:00	23500	34	-49.6		87	7	
2025-08-27T00:00	23550	33	-49.4		105	7	
2025-08-27T00:00	23600	33	-49.3		120	6	
2025-08-27T00:00	23650	33	-49.5		131	6	
2025-08-27T00:00	23700	33	-49.8		140	6	
2025-08-27T00:00	23750	32	-50.2		149	5	
2025-08-27T00:00	23800	32	-50.6		163	4	
2025-08-27T00:00	23850	32	-50.9		187	3	
2025-08-27T00:00	23900	32	-50.9		209	3	
2025-08-27T00:00	23950	31	-50.6		213	3	
2025-08-27T00:00	24000	31	-50.1		197	3	
2025-08-27T00:00	24050	31	-49.8		187	2	
2025-08-27T00:00	24100	31	-49.5		191	2	
2025-08-27T00:00	24150	30	-49.6		207	1	
2025-08-27T00:00	24200	30	-49.5		276	1	
2025-08-27T00:00	24250	30	-49.2		6	1	
2025-08-27T00:00	24300	30	-49.2		52	2	
2025-08-27T00:00	24350	29	-48.9		76	3	
2025-08-27T00:00	24400	29	-48.7		91	3	
2025-08-27T00:00	24450	29	-48.5		113	2	
2025-08-27T00:00	24500	29	-48.7		145	2	
2025-08-27T00:00	24550	29	-48.8		163	3	
2025-08-27T00:00	24600	28	-49.1		169	3	
2025-08-27T00:00	24650	28	-49.4		167	3	
2025-08-27T00:00	24700	28	-49.5		164	3	
2025-08-27T00:00	24750	28	-49.4		170	2	
2025-08-27T00:00	24800	28	-49.3		189	2	
2025-08-27T00:00	24850	27	-49.4		201	1	
2025-08-27T00:00	24900	27	-49.4		128	0	
2025-08-27T00:00	24950	27	-49.2		49	2	
2025-08-27T00:00	25000	27	-48.7		53	4	
2025-08-27T00:00	25050	26	-48.4		64	5	
2025-08-27T00:00	25100	26	-48.2		76	6	
2025-08-27T00:00	25150	26	-48.3		88	7	
2025-08-27T00:00	25200	26	-48.4		97	8	
2025-08-27T00:00	25250	26	-48.5		104	9	
2025-08-27T00:00	25300	26	-48.7		112	9	
2025-08-27T00:00	25350	25	-48.7		122	9	
2025-08-27T00:00	25400	25	-48.8		132	9	
2025-08-27T00:00	25450	25	-48.9		144	9	
2025-08-27T00:00	25500	25	-48.8		154	8	
2025-08-27T00:00	25550	25	-48.9		162	8	
2025-08-27T00:00	25600	24	-48.5		166	7	
2025-08-27T00:00	25650	24	-48.3		169	7	
2025-08-27T00:00	25700	24	-48.2		169	7	
2025-08-27T00:00	25750	24	-48.2		169	6	
2025-08-27T00:00	25800	24	-47.9		172	6	
2025-08-27T00:00	25850	23	-47.8		179	5	
2025-08-27T00:00	25900	23	-47.9		189	5	
2025-08-27T00:00	25950	23	-47.7		199	4	
2025-08-27T00:00	26000	23	-47.5		201	3	
2025-08-27T00:00	26050	23	-47.6		185	2	
2025-08-27T00:00	26100	23	-47.6		142	2	
2025-08-27T00:00	26150	22	-47.5		107	3	
2025-08-27T00:00	26200	22	-47.5		86	4	
2025-08-27T00:00	26250	22	-47.9		76	5	
2025-08-27T00:00	26300	22	-47.9		73	6	
2025-08-27T00:00	26350	22	-47.7		75	6	
2025-08-27T00:00	26400	22	-47.6		83	5	
2025-08-27T00:00	26450	21	-47.7		99	4	
2025-08-27T00:00	26500	21	-48.1		120	3	
2025-08-27T00:00	26550	21	-48.2		131	3	
2025-08-27T00:00	26600	21	-47.9		126	2	
2025-08-27T00:00	26650	21	-47.8		97	2	
2025-08-27T00:00	26700	21	-47.4		77	3	
2025-08-27T00:00	26750	20	-47.3		79	4	
2025-08-27T00:00	26800	20	-47.1		88	4	
2025-08-27T00:00	26850	20	-46.9		101	4	
2025-08-27T00:00	26900	20	-46.8		118	4	
2025-08-27T00:00	26950	20	-46.7		135	4	
2025-08-27T00:00	27000	20	-46.5		145	5	
2025-08-27T00:00	27050	20	-46.6		143	5	
2025-08-27T00:00	27100	19	-46.5		132	5	
2025-08-27T00:00	27150	19	-46.5		118	5	
2025-08-27T00:00	27200	19	-46.7		110	5	
2025-08-27T00:00	27250	19	-46.8		107	5	
2025-08-27T00:00	27300	19	-46.9		110	5	
2025-08-27T00:00	27350	19	-47.0		118	4	
2025-08-27T00:00	27400	19	-47.1		128	5	
2025-08-27T00:00	27450	18	-47.2		132	5	
2025-08-27T00:00	27500	18	-47.2		130	6	
2025-08-27T00:00	27550	18	-47.0		126	7	
2025-08-27T00:00	27600	18	-46.9		125	7	
2025-08-27T00:00	27650	18	-46.9		125	6	
2025-08-27T00:00	27700	18	-46.8		124	6	
2025-08-27T00:00	27750	18	-46.5		118	6	
2025-08-27T00:00	27800	17	-46.2		110	6	
2025-08-27T00:00	27850	17	-46.0		104	7	
2025-08-27T00:00	27900	17	-45.9		100	7	
2025-08-27T00:00	27950	17	-46.0		95	7	
2025-08-27T00:00	28000	17	-46.2		89	6	
2025-08-27T00:00	28050	17	-46.2		89	6	
2025-08-27T00:00	28100	17	-46.1		91	7	
2025-08-27T00:00	28150	17	-46.0		92	7	
2025-08-27T00:00	28200	16	-45.8		92	7	
2025-08-27T00:00	28250	16	-45.3		92	6	
2025-08-27T00:00	28300	16	-45.0		91	5	
2025-08-27T00:00	28350	16	-44.8		87	4	
2025-08-27T00:00	28400	16	-45.0		77	3	
2025-08-27T00:00	28450	16	-45.1		62	3	
2025-08-27T00:00	28500	16	-45.0		52	4	
2025-08-27T00:00	28550	16	-44.7		54	4	
2025-08-27T00:00	28600	15	-44.5		60	5	
2025-08-27T00:00	28650	15	-44.2		70	6	
2025-08-27T00:00	28700	15	-44.0		81	6	
2025-08-27T00:00	28750	15	-43.9		87	6	
2025-08-27T00:00	28800	15	-43.8		91	5	
2025-08-27T00:00	28850	15	-43.9		90	4	
2025-08-27T00:00	28900	15	-44.2		84	3	
2025-08-27T00:00	28950	15	-44.6		69	3	
2025-08-27T00:00	29000	15	-44.5		49	3	
2025-08-27T00:00	29050	14	-44.4		39	4	
2025-08-27T00:00	29100	14	-44.3		37	6	
2025-08-27T00:00	29150	14	-44.3		41	7	
2025-08-27T00:00	29200	14	-44.3		47	8	
2025-08-27T00:00	29250	14	-44.2		53	9	
2025-08-27T00:00	29300	14	-44.2		59	10	
2025-08-27T00:00	29350	14	-44.1		64	10	
2025-08-27T00:00	29400	14	-43.8		68	10	
2025-08-27T00:00	29450	14	-43.6		72	9	
2025-08-27T00:00	29500	14	-43.8		75	9	
2025-08-27T00:00	29550	13	-44.2		77	9	
2025-08-27T00:00	29600	13	-44.4		77	9	
2025-08-27T00:00	29650	13	-44.3		76	10	
2025-08-27T00:00	29700	13	-44.2		73	11	
2025-08-27T00:00	29750	13	-44.2		70	11	
2025-08-27T00:00	29800	13	-44.0		69	11	
2025-08-27T00:00	29850	13	-44.1		72	11	
2025-08-27T00:00	29900	13	-44.1		78	11	
2025-08-27T00:00	29950	13	-44.3		86	11	
2025-08-27T00:00	30000	13	-44.6		93	11	
2025-08-27T00:00	30050	12	-44.7		97	10	
2025-08-27T00:00	30100	12	-44.8		99	9	
2025-08-27T00:00	30150	12	-44.4		100	8	
2025-08-27T00:00	30200	12	-44.0		104	7	
2025-08-27T00:00	30250	12	-44.0		112	6	
2025-08-27T00:00	30300	12	-43.9		117	5	
2025-08-27T00:00	30350	12	-43.4		114	4	
2025-08-27T00:00	30400	12	-43.3		101	3	
2025-08-27T00:00	30450	12	-43.3		89	3	
2025-08-27T00:00	30500	12	-42.6		84	3	
2025-08-27T00:00	30550	12	-42.4		81	4	
2025-08-27T00:00	30600	12	-42.4		79	5	
2025-08-27T00:00	30650	11	-42.3		80	6	
2025-08-27T00:00	30700	11	-42.0		84	7	
2025-08-27T00:00	30750	11	-41.8		88	7	
2025-08-27T00:00	30800	11	-41.6		91	7	
2025-08-27T00:00	30850	11	-41.3		92	7	
2025-08-27T00:00	30900	11	-41.2		90	6	
2025-08-27T00:00	30950	11	-40.9		88	6	
2025-08-27T00:00	31000	11	-40.6		84	5	
2025-08-27T00:00	31050	11	-40.9		76	4	
2025-08-27T00:00	31100	11	-41.2		60	4	
2025-08-27T00:00	31150	11	-41.4		43	4	
2025-08-27T00:00	31200	11	-41.4		36	4	
2025-08-27T00:00	31250	10	-41.3		42	5	
2025-08-27T00:00	31300	10	-41.0		53	6	
2025-08-27T00:00	31350	10	-41.1		64	7	
2025-08-27T00:00	31400	10	-41.2		72	9	
2025-08-27T00:00	31450	10	-41.0		79	10	
2025-08-27T00:00	31500	10	-40.8		85	11	
2025-08-27T00:00	31550	10	-40.8		91	11	
2025-08-27T00:00	31600	10	-40.7		97	10	
2025-08-27T00:00	31650	10	-40.8		103	9	
2025-08-27T00:00	31700	10	-40.9		109	8	
2025-08-27T00:00	31750	10	-41.1		113	6	
2025-08-27T00:00	31800	10	-41.2		115	6	
2025-08-27T00:00	31850	10	-41.1		114	6	
2025-08-27T00:00	31900	9	-41.0		110	5	
2025-08-27T00:00	31950	9	-41.1		103	5	
2025-08-27T00:00	32000	9	-41.1		102	5	
2025-08-27T00:00	32050	9	-41.0		109	6	
2025-08-27T00:00	32100	9	-40.8		118	6	
2025-08-27T00:00	32150	9	-40.6		124	7	
2025-08-27T00:00	32200	9	-40.5		130	8	
2025-08-27T00:00	32250	9	-40.3		135	8	
2025-08-27T00:00	32300	9	-40.3		140	8	
2025-08-27T00:00	32350	9	-40.2		144	8	
2025-08-27T00:00	32400	9	-40.2		148	7	
2025-08-27T00:00	32450	9	-40.3		152	7	
2025-08-27T00:00	32500	9	-40.4		156	6	
2025-08-27T00:00	32550	9	-40.2		160	4	
2025-08-27T00:00	32600	9	-39.8		165	3	
2025-08-27T00:00	32650	9	-39.6		166	4	
2025-08-27T00:00	32700	8	-39.5		162	4	
2025-08-27T00:00	32750	8	-39.3		159	5	
2025-08-27T00:00	32800	8	-39.3		157	5	
2025-08-27T00:00	32850	8	-39.4		151	5	
2025-08-27T00:00	32900	8	-39.3		142	5	
2025-08-27T00:00	32950	8	-39.2		131	6	
2025-08-27T00:00	33000	8	-39.3		120	7	
2025-08-27T00:00	33050	8	-39.2		110	8	
2025-08-27T00:00	33100	8	-39.3		105	8	
2025-08-27T00:00	33150	8	-39.4		104	8	
2025-08-27T00:00	33200	8	-39.3		107	8	
2025-08-27T00:00	33250	8	-39.3		111	7	
2025-08-27T00:00	33300	8	-39.4		115	7	
2025-08-27T00:00	33350	8	-39.4		116	6	
2025-08-27T00:00	33400	8	-39.5		114	6	
2025-08-27T00:00	33450	8	-39.4		110	6	
2025-08-27T00:00	33500	8	-39.5		106	7	
2025-08-27T00:00	33550	7	-39.6		102	6	
2025-08-27T00:00	33600	7	-39.7		97	6	
2025-08-27T00:00	33650	7	-39.9		93	5	
2025-08-27T00:00	33700	7	-40.0		88	5	
2025-08-27T00:00	33750	7	-39.9		82	6	
2025-08-27T00:00	33800	7	-39.5		78	7	
2025-08-27T00:00	33850	7	-39.1		76	9	
2025-08-27T00:00	33900	7	-38.8		75	10	
2025-08-27T00:00	33950	7	-38.6		74	10	
2025-08-27T00:00	34000	7	-38.6		73	9	
2025-08-27T00:00	34050	7	-38.8		70	9	
2025-08-27T00:00	34100	7	-38.9		66	8	
2025-08-27T00:00	34150	7	-38.9		62	7	
2025-08-27T00:00	34200	7	-38.9		59	6	
2025-08-27T00:00	34250	7	-39.2		59	5	
2025-08-27T00:00	34300	7	-39.6		62	4	
2025-08-27T00:00	34350	7	-39.9		57	3	
2025-08-27T00:00	34400	7	-40.0		40	3	
2025-08-27T00:00	34450	7	-39.8		31	4	
2025-08-27T00:00	34500	6	-39.5		33	5	
2025-08-27T00:00	34550	6	-39.6		40	6	
2025-08-27T00:00	34600	6	-39.7		48	8	
2025-08-27T00:00	34650	6	-39.8		54	9	
2025-08-27T00:00	34700	6	-39.8		59	10	
2025-08-27T00:00	34750	6	-39.7		64	11	
2025-08-27T00:00	34800	6	-39.4		71	12	
2025-08-27T00:00	34850	6	-39.4		77	13	
2025-08-27T00:00	34900	6	-39.7		82	14	
2025-08-27T00:00	34950	6	-39.8		86	15	
2025-08-27T00:00	35000	6	-39.6		89	15	
2025-08-27T00:00	35050	6	-39.5		91	15	
2025-08-27T00:00	35100	6	-39.1		92	13	
2025-08-27T00:00	35150	6	-38.9		91	11	
2025-08-27T00:00	35200	6	-38.8		90	9	
2025-08-27T00:00	35250	6	-38.7		89	8	
2025-08-27T00:00	35300	6	-38.3		86	8	
2025-08-27T00:00	35350	6	-37.7		82	7	
2025-08-27T00:00	35400	6	-37.5		77	7	
2025-08-27T00:00	35450	6	-37.4		75	6	
2025-08-27T00:00	35500	6	-37.3		75	7	
2025-08-27T00:00	35550	6	-36.8		78	8	
2025-08-27T00:00	35600	6	-36.2		83	10	
2025-08-27T00:00	35650	5	-35.6		90	11	
2025-08-27T00:00	35700	5	-34.9		95	12	
2025-08-27T00:00	35750	5	-34.4		98	11	
2025-08-27T00:00	35800	5	-34.0		97	10	
2025-08-27T00:00	35850	5	-33.8		97	9	
2025-08-27T00:00	35900	5	-33.8		100	8	
2025-08-27T00:00	35950	5	-33.8		110	7	
2025-08-27T00:00	36000	5	-34.0		123	7	
2025-08-27T00:00	36050	5	-34.1		133	8	
2025-08-27T00:00	36100	5	-34.4		135	8	
2025-08-27T00:00	36150	5	-34.6		131	7	
2025-08-27T00:00	36200	5	-34.7		123	6	
2025-08-27T00:00	36250	5	-34.8		112	6	
2025-08-27T00:00	36300	5	-34.9		99	6	
2025-08-27T00:00	36350	5	-35.0		87	6	
2025-08-27T00:00	36400	5	-34.8		80	7	
2025-08-27T00:00	36450	5	-34.7		78	7	
2025-08-27T00:00	36500	5	-34.8		81	8	
2025-08-27T00:00	36550	5	-34.8		87	9	
2025-08-27T00:00	36600	5	-34.6		92	10	
2025-08-27T00:00	36650	5	-34.6		96	10	
2025-08-27T00:00	36700	5	-34.6		96	11	
2025-08-27T00:00	36750	5	-34.3		97	12	
2025-08-27T00:00	36800	5	-33.8		99	13	
2025-08-27T00:00	36850	5	-33.7		101	14	
2025-08-27T00:00	36900	5	-33.9		104	15	
2025-08-27T00:00	36950	5	-34.0		106	15	
2025-08-27T00:00	37000	5	-34.2		107	16	
2025-08-27T00:00	37050	4	-34.3		109	16	
2025-08-27T00:00	37100	4	-34.3		112	16	
2025-08-27T00:00	37150	4	-34.2		114	15	
2025-08-27T00:00	37200	4	-34.3		115	14	
2025-08-27T00:00	37250	4	-34.5		113	13	
2025-08-27T00:00	37300	4	-34.4		108	12	
2025-08-27T00:00	37350	4	-34.1		105	12	
2025-08-27T00:00	37400	4	-33.9		104	12	
2025-08-27T00:00	37450	4	-33.5		99	12	
2025-08-27T00:00	37500	4	-33.1		91	11	
2025-08-27T00:00	37550	4	-32.9		81	10	
2025-08-27T00:00	37600	4	-32.5		70	9	
2025-08-27T00:00	37650	4	-32.5		59	9	
2025-08-27T00:00	37700	4	-32.3		51	9	
2025-08-27T00:00	37750	4	-32.3		47	9	
2025-08-27T00:00	37800	4	-32.3		49	10	
2025-08-27T00:00	37850	4	-31.8		56	11	
2025-08-27T00:00	37900	4	-31.4		63	11	
2025-08-27T00:00	37950	4	-31.3		67	11	
2025-08-27T00:00	38000	4	-31.0		71	12	
2025-08-27T00:00	38050	4	-31.0		74	13	
2025-08-27T00:00	38100	4	-30.9		79	13	
2025-08-27T00:00	38150	4	-30.6		81	12	
2025-08-27T00:00	38200	4	-30.2		81	11	
2025-08-27T00:00	38250	4	-30.2		81	10	
2025-08-27T00:00	38300	4	-30.5		81	9	
2025-08-27T00:00	38350	4	-30.6		74	8	
2025-08-27T00:00	38400	4	-30.7		64	7	
2025-08-27T00:00	38450	4	-30.7		56	7	
2025-08-27T00:00	38500	4	-30.6		44	7	
2025-08-27T00:00	38550	4	-30.4		38	9	
2025-08-27T00:00	38600	4	-30.2		35	11	
2025-08-27T00:00	38650	4	-30.0		29	12	
2025-08-27T00:00	38700	4	-30.1		27	14	
2025-08-27T00:00	38750	4	-29.5		30	16	
2025-08-27T00:00	38800	4	-28.9		33	17	
2025-08-27T00:00	38850	3	-28.3		35	18	
2025-08-27T00:00	38900	3	-28.1		35	19	
2025-08-27T12:00	491	956	22.6	17.7	179	1	3.6
2025-08-27T12:00	501	955	22.2	17.3	256	3	3.7
2025-08-27T12:00	520	953	21.8	17.0	257	3	3.8
2025-08-27T12:00	540	951	21.7	16.8	255	4	3.9
2025-08-27T12:00	560	949	21.4	16.7	253	4	4.0
2025-08-27T12:00	580	946	21.1	16.5	248	3	4.0
2025-08-27T12:00	600	945	20.9	16.3	243	3	4.1
2025-08-27T12:00	620	942	20.7	16.2	236	3	4.2
2025-08-27T12:00	640	940	20.5	16.3	229	3	4.3
2025-08-27T12:00	660	938	20.3	16.4	223	3	4.4
2025-08-27T12:00	680	936	20.2	16.6	220	3	4.4
2025-08-27T12:00	700	934	20.0	16.5	219	3	4.4
2025-08-27T12:00	720	931	19.8	16.6	220	3	4.5
2025-08-27T12:00	740	929	19.6	16.5	222	3	4.5
2025-08-27T12:00	760	927	19.5	16.5	225	4	4.4
2025-08-27T12:00	780	925	19.2	16.5	228	4	4.4
2025-08-27T12:00	800	923	19.0	16.5	230	5	4.4
2025-08-27T12:00	820	921	18.8	16.2	232	6	4.3
2025-08-27T12:00	840	919	18.6	15.7	232	6	4.3
2025-08-27T12:00	860	917	18.4	15.6	232	6	4.4
2025-08-27T12:00	880	914	18.2	15.6	232	7	4.5
2025-08-27T12:00	900	912	18.0	15.3	232	7	4.5
2025-08-27T12:00	920	910	18.0	15.3	232	7	4.5
2025-08-27T12:00	940	908	17.8	15.3	233	7	4.5
2025-08-27T12:00	960	906	17.7	15.2	234	8	4.5
2025-08-27T12:00	980	904	17.5	15.1	235	8	4.5
2025-08-27T12:00	1000	902	17.3	15.1	237	8	4.6
2025-08-27T12:00	1020	900	17.1	15.1	237	9	4.5
2025-08-27T12:00	1040	898	16.9	15.0	238	9	4.5
2025-08-27T12:00	1060	895	16.7	15.0	238	9	4.5
2025-08-27T12:00	1080	893	16.5	15.0	238	9	4.5
2025-08-27T12:00	1100	891	16.4	14.8	237	10	4.5
2025-08-27T12:00	1120	889	16.3	14.8	236	10	4.6
2025-08-27T12:00	1140	887	16.1	14.7	235	10	4.5
2025-08-27T12:00	1160	885	16.0	14.6	235	10	4.5
2025-08-27T12:00	1180	883	15.9	14.4	234	11	4.6
2025-08-27T12:00	1200	881	15.8	14.3	234	11	4.6
2025-08-27T12:00	1220	879	15.7	14.2	234	11	4.6
2025-08-27T12:00	1240	877	15.6	14.1	233	12	4.6
2025-08-27T12:00	1260	875	15.5	14.1	233	12	4.5
2025-08-27T12:00	1280	873	15.5	14.0	231	12	4.5
2025-08-27T12:00	1300	870	15.4	13.8	230	13	4.5
2025-08-27T12:00	1320	869	15.3	13.8	228	13	4.5
2025-08-27T12:00	1340	867	15.2	13.8	226	13	4.5
2025-08-27T12:00	1360	864	15.0	13.6	224	14	4.5
2025-08-27T12:00	1380	862	15.0	13.3	222	14	4.4
2025-08-27T12:00	1400	860	15.1	12.9	220	14	4.5
2025-08-27T12:00	1420	858	15.4	12.2	218	14	4.5
2025-08-27T12:00	1440	857	15.5	12.1	217	14	4.5
2025-08-27T12:00	1460	855	15.6	11.8	216	14	4.5
2025-08-27T12:00	1480	852	15.5	11.6	215	14	4.5
2025-08-27T12:00	1500	850	15.3	11.6	215	14	4.6
2025-08-27T12:00	1520	848	15.2	11.5	215	15	4.6
2025-08-27T12:00	1540	846	15.0	11.4	214	15	4.6
2025-08-27T12:00	1560	844	14.8	11.4	214	15	4.6
2025-08-27T12:00	1580	842	14.7	11.3	214	15	4.6
2025-08-27T12:00	1600	841	14.6	11.2	214	16	4.5
2025-08-27T12:00	1620	838	14.4	11.0	214	16	4.5
2025-08-27T12:00	1640	836	14.3	11.0	214	16	4.5
2025-08-27T12:00	1660	834	14.1	10.8	214	16	4.5
2025-08-27T12:00	1680	832	14.0	10.6	215	16	4.5
2025-08-27T12:00	1700	831	13.9	10.4	215	16	4.5
2025-08-27T12:00	1720	829	13.8	10.4	215	16	4.5
2025-08-27T12:00	1740	827	13.6	10.3	216	16	4.5
2025-08-27T12:00	1760	825	13.4	10.0	217	16	4.6
2025-08-27T12:00	1780	823	13.4	9.7	218	15	4.6
2025-08-27T12:00	1800	821	13.2	9.6	218	15	4.5
2025-08-27T12:00	1820	819	13.2	9.4	218	15	4.5
2025-08-27T12:00	1840	817	13.3	9.1	218	15	4.6
2025-08-27T12:00	1860	815	13.3	8.9	218	15	4.6
2025-08-27T12:00	1880	813	13.3	8.6	217	15	4.6
2025-08-27T12:00	1900	811	13.3	8.3	217	15	4.6
2025-08-27T12:00	1920	809	13.3	8.2	216	15	4.5
2025-08-27T12:00	1940	807	13.3	8.3	215	15	4.5
2025-08-27T12:00	1960	805	13.2	8.4	215	15	4.5
2025-08-27T12:00	1980	803	13.0	8.3	215	15	4.4
2025-08-27T12:00	2000	802	13.0	8.2	215	15	4.4
2025-08-27T12:00	2020	800	12.9	8.0	215	15	4.4
2025-08-27T12:00	2040	798	12.8	8.0	216	15	4.5
2025-08-27T12:00	2060	796	12.7	8.1	216	15	4.5
2025-08-27T12:00	2080	794	12.6	8.0	216	15	4.5
2025-08-27T12:00	2100	792	12.5	7.8	217	14	4.4
2025-08-27T12:00	2120	790	12.4	7.6	217	14	4.4
2025-08-27T12:00	2140	788	12.3	7.4	217	14	4.4
2025-08-27T12:00	2160	786	12.1	7.2	217	14	4.4
2025-08-27T12:00	2180	784	12.0	7.2	216	13	4.3
2025-08-27T12:00	2200	783	11.8	7.2	216	13	4.3
2025-08-27T12:00	2220	781	11.6	7.1	216	13	4.3
2025-08-27T12:00	2240	779	11.4	7.0	216	13	4.3
2025-08-27T12:00	2260	777	11.2	6.8	216	13	4.3
2025-08-27T12:00	2280	775	11.1	6.5	216	13	4.4
2025-08-27T12:00	2300	773	11.0	6.4	216	13	4.4
2025-08-27T12:00	2320	771	10.8	6.4	216	13	4.4
2025-08-27T12:00	2340	770	10.6	6.3	217	13	4.3
2025-08-27T12:00	2360	768	10.6	6.0	218	13	4.3
2025-08-27T12:00	2380	766	10.4	6.0	219	12	4.3
2025-08-27T12:00	2400	764	10.2	5.9	220	12	4.3
2025-08-27T12:00	2420	762	10.1	5.9	222	12	4.3
2025-08-27T12:00	2440	761	9.9	5.8	223	12	4.3
2025-08-27T12:00	2460	759	9.8	5.6	224	12	4.3
2025-08-27T12:00	2480	757	9.8	5.1	224	12	4.2
2025-08-27T12:00	2500	755	9.7	4.8	225	12	4.2
2025-08-27T12:00	2520	753	9.6	4.7	224	12	4.2
2025-08-27T12:00	2540	751	9.4	4.7	224	12	4.2
2025-08-27T12:00	2560	749	9.3	4.7	223	12	4.2
2025-08-27T12:00	2580	747	9.1	4.6	223	12	4.3
2025-08-27T12:00	2600	746	9.0	4.5	222	12	4.4
2025-08-27T12:00	2620	744	8.8	4.5	222	12	4.5
2025-08-27T12:00	2640	742	8.7	4.5	222	12	4.4
2025-08-27T12:00	2660	741	8.5	4.4	223	12	4.3
2025-08-27T12:00	2680	739	8.3	4.3	224	12	4.3
2025-08-27T12:00	2700	737	8.1	4.3	224	12	4.3
2025-08-27T12:00	2720	735	7.9	4.2	225	12	4.3
2025-08-27T12:00	2740	733	7.8	4.1	226	12	4.2
2025-08-27T12:00	2760	732	7.7	4.0	227	12	4.2
2025-08-27T12:00	2780	730	7.5	4.0	227	12	4.1
2025-08-27T12:00	2800	728	7.4	4.0	227	12	4.1
2025-08-27T12:00	2820	726	7.2	4.0	226	12	4.1
2025-08-27T12:00	2840	725	7.1	4.0	226	12	4.1
2025-08-27T12:00	2860	723	6.9	4.0	225	11	4.1
2025-08-27T12:00	2880	721	6.7	4.0	224	12	4.1
2025-08-27T12:00	2900	719	6.5	3.8	223	12	4.1
2025-08-27T12:00	2920	717	6.3	3.7	223	12	4.1
2025-08-27T12:00	2940	716	6.1	3.6	223	12	4.1
2025-08-27T12:00	2960	714	5.9	3.6	223	12	4.1
2025-08-27T12:00	2980	712	5.8	3.5	223	12	4.1
2025-08-27T12:00	3000	711	5.6	3.6	224	12	4.1
2025-08-27T12:00	3020	709	5.5	3.6	224	12	4.1
2025-08-27T12:00	3040	707	5.5	3.4	224	12	4.1
2025-08-27T12:00	3060	706	5.3	3.5	224	12	4.1
2025-08-27T12:00	3080	704	5.2	3.2	223	13	4.1
2025-08-27T12:00	3100	702	5.1	2.9	222	13	4.1
2025-08-27T12:00	3120	700	4.9	2.8	220	13	4.1
2025-08-27T12:00	3140	699	4.8	2.9	218	13	4.1
2025-08-27T12:00	3160	697	4.6	2.5	217	13	4.1
2025-08-27T12:00	3180	695	4.6	2.1	215	13	4.0
2025-08-27T12:00	3200	694	4.4	2.2	214	13	4.0
2025-08-27T12:00	3220	692	4.3	2.1	214	13	4.0
2025-08-27T12:00	3240	690	4.2	1.8	213	12	4.0
2025-08-27T12:00	3260	688	4.2	1.6	213	12	4.0
2025-08-27T12:00	3280	687	4.0	1.4	213	12	4.0
2025-08-27T12:00	3300	685	3.9	1.4	213	12	4.0
2025-08-27T12:00	3320	683	3.8	1.3	213	12	4.0
2025-08-27T12:00	3340	682	3.6	1.4	213	12	4.0
2025-08-27T12:00	3360	680	3.5	1.3	212	11	4.0
2025-08-27T12:00	3380	678	3.3	1.3	212	11	4.0
2025-08-27T12:00	3400	677	3.2	1.5	212	11	4.0
2025-08-27T12:00	3420	675	3.0	1.6	213	11	3.9
2025-08-27T12:00	3440	673	2.8	1.8	214	11	3.9
2025-08-27T12:00	3460	672	2.7	1.6	215	11	3.9
2025-08-27T12:00	3480	670	2.6	0.9	216	10	3.9
2025-08-27T12:00	3500	668	2.5	0.9	218	10	3.9
2025-08-27T12:00	3520	667	2.3	0.9	220	10	3.9
2025-08-27T12:00	3540	665	2.2	0.6	221	10	3.9
2025-08-27T12:00	3560	664	2.1	0.6	223	10	3.9
2025-08-27T12:00	3580	662	2.0	0.5	224	10	3.9
2025-08-27T12:00	3600	660	1.8	0.2	225	10	3.9
2025-08-27T12:00	3620	659	1.7	0.1	225	9	3.9
2025-08-27T12:00	3640	657	1.5	0.1	226	9	3.9
2025-08-27T12:00	3660	655	1.3	-0.2	228	9	3.9
2025-08-27T12:00	3680	654	1.3	-0.5	230	9	3.9
2025-08-27T12:00	3700	652	1.2	-0.8	231	9	3.9
2025-08-27T12:00	3720	650	1.1	-1.1	232	9	3.9
2025-08-27T12:00	3740	649	1.0	-1.2	233	9	3.9
2025-08-27T12:00	3760	647	0.8	-1.2	235	9	3.9
2025-08-27T12:00	3780	646	0.7	-1.1	236	9	3.8
2025-08-27T12:00	3800	644	0.5	-1.0	236	9	3.8
2025-08-27T12:00	3820	642	0.3	-1.1	237	9	3.8
2025-08-27T12:00	3840	641	0.2	-1.2	237	9	3.8
2025-08-27T12:00	3860	639	0.0	-1.2	238	9	3.8
2025-08-27T12:00	3880	637	-0.2	-1.3	239	9	3.8
2025-08-27T12:00	3900	636	-0.3	-1.6	240	9	3.8
2025-08-27T12:00	3920	634	-0.4	-1.8	241	9	3.9
2025-08-27T12:00	3940	633	-0.5	-2.1	242	9	3.8
2025-08-27T12:00	3960	631	-0.6	-2.4	243	9	3.8
2025-08-27T12:00	3980	630	-0.6	-2.7	243	9	3.8
2025-08-27T12:00	4000	628	-0.7	-2.8	243	9	3.8
2025-08-27T12:00	4020	626	-0.8	-2.9	243	9	3.8
2025-08-27T12:00	4040	625	-0.9	-3.1	243	9	3.7
2025-08-27T12:00	4060	623	-1.1	-3.1	243	9	3.7
2025-08-27T12:00	4080	622	-1.3	-3.1	243	9	3.7
2025-08-27T12:00	4100	620	-1.5	-3.2	244	9	3.7
2025-08-27T12:00	4120	619	-1.6	-3.2	246	9	3.7
2025-08-27T12:00	4140	617	-1.9	-3.3	247	9	3.7
2025-08-27T12:00	4160	615	-2.0	-3.5	248	9	3.8
2025-08-27T12:00	4180	614	-2.1	-3.6	249	9	3.8
2025-08-27T12:00	4200	613	-2.3	-3.7	250	10	3.7
2025-08-27T12:00	4220	611	-2.4	-3.8	250	10	3.7
2025-08-27T12:00	4240	609	-2.5	-3.9	251	10	3.7
2025-08-27T12:00	4260	608	-2.7	-3.9	251	10	3.6
2025-08-27T12:00	4280	606	-2.9	-4.0	251	10	3.7
2025-08-27T12:00	4300	605	-3.1	-4.0	251	10	3.7
2025-08-27T12:00	4320	603	-3.1	-4.2	251	10	3.6
2025-08-27T12:00	4340	602	-3.2	-4.3	250	10	3.6
2025-08-27T12:00	4360	600	-3.3	-4.7	250	10	3.6
2025-08-27T12:00	4380	599	-3.3	-4.9	249	10	3.6
2025-08-27T12:00	4400	597	-3.4	-4.9	248	10	3.6
2025-08-27T12:00	4420	596	-3.6	-5.0	248	10	3.6
2025-08-27T12:00	4440	594	-3.8	-5.0	247	10	3.6
2025-08-27T12:00	4460	593	-3.9	-5.1	247	10	3.6
2025-08-27T12:00	4480	591	-4.1	-5.2	247	10	3.6
2025-08-27T12:00	4500	590	-4.2	-5.3	246	10	3.6
2025-08-27T12:00	4520	588	-4.3	-5.4	246	10	3.6
2025-08-27T12:00	4540	587	-4.4	-5.7	245	10	3.6
2025-08-27T12:00	4560	585	-4.5	-6.1	245	11	3.5
2025-08-27T12:00	4580	584	-4.6	-6.3	244	11	3.5
2025-08-27T12:00	4600	582	-4.8	-6.5	243	11	3.5
2025-08-27T12:00	4620	581	-5.0	-6.6	242	11	3.5
2025-08-27T12:00	4640	579	-5.1	-6.7	241	11	3.5
2025-08-27T12:00	4660	578	-5.2	-6.6	239	11	3.5
2025-08-27T12:00	4680	576	-5.4	-6.7	239	11	3.5
2025-08-27T12:00	4700	575	-5.5	-6.7	238	11	3.5
2025-08-27T12:00	4720	574	-5.6	-6.8	237	11	3.5
2025-08-27T12:00	4740	572	-5.7	-6.8	237	11	3.5
2025-08-27T12:00	4760	571	-5.9	-6.9	237	11	3.5
2025-08-27T12:00	4780	569	-6.1	-6.9	237	11	3.5
2025-08-27T12:00	4800	568	-6.3	-6.8	237	11	3.5
2025-08-27T12:00	4820	566	-6.4	-6.9	237	11	3.5
2025-08-27T12:00	4840	565	-6.6	-6.8	236	11	3.5
2025-08-27T12:00	4860	563	-6.8	-6.8	236	11	3.5
2025-08-27T12:00	4880	562	-6.9	-7.0	236	11	3.4
2025-08-27T12:00	4900	561	-7.0	-7.3	235	11	3.5
2025-08-27T12:00	4920	559	-7.1	-7.3	234	11	3.5
2025-08-27T12:00	4940	558	-7.2	-7.4	234	11	3.4
2025-08-27T12:00	4960	556	-7.4	-7.6	234	11	3.4
2025-08-27T12:00	4980	555	-7.6	-8.1	234	11	3.5
2025-08-27T12:00	5000	553	-7.7	-8.2	233	11	3.5
2025-08-27T12:00	5020	552	-7.9	-8.3	233	12	3.5
2025-08-27T12:00	5040	550	-8.1	-8.3	233	12	3.5
2025-08-27T12:00	5060	549	-8.2	-8.2	233	12	3.5
2025-08-27T12:00	5080	548	-8.4	-8.4	233	12	3.5
2025-08-27T12:00	5100	546	-8.4	-8.4	233	13	3.5
2025-08-27T12:00	5120	545	-8.5	-8.5	233	13	3.5
2025-08-27T12:00	5140	543	-8.6	-8.6	233	13	3.4
2025-08-27T12:00	5160	542	-8.6	-8.6	233	13	3.4
2025-08-27T12:00	5180	541	-8.6	-8.6	234	14	3.4
2025-08-27T12:00	5200	539	-8.6	-8.6	234	14	3.3
2025-08-27T12:00	5220	538	-8.7	-8.7	234	14	3.3
2025-08-27T12:00	5240	536	-8.8	-8.8	234	14	3.3
2025-08-27T12:00	5260	535	-9.0	-9.0	234	14	3.3
2025-08-27T12:00	5280	534	-9.1	-9.1	233	14	3.2
2025-08-27T12:00	5300	532	-9.2	-9.2	232	13	3.2
2025-08-27T12:00	5320	531	-9.3	-9.3	231	13	3.3
2025-08-27T12:00	5340	530	-9.7	-9.7	230	13	3.3
2025-08-27T12:00	5360	528	-10.0	-10.0	228	13	3.3
2025-08-27T12:00	5380	527	-10.1	-10.1	227	14	3.2
2025-08-27T12:00	5400	525	-10.1	-10.1	227	14	3.2
2025-08-27T12:00	5420	524	-10.2	-10.2	227	14	3.2
2025-08-27T12:00	5440	523	-10.2	-10.2	227	14	3.2
2025-08-27T12:00	5460	521	-10.2	-10.2	228	14	3.2
2025-08-27T12:00	5480	520	-10.3	-10.4	229	14	3.2
2025-08-27T12:00	5500	519	-10.6	-10.6	230	14	3.2
2025-08-27T12:00	5520	517	-10.8	-10.8	231	14	3.2
2025-08-27T12:00	5540	516	-11.1	-11.4	233	14	3.1
2025-08-27T12:00	5560	515	-11.4	-12.5	234	13	3.1
2025-08-27T12:00	5580	514	-11.6	-14.5	235	13	3.1
2025-08-27T12:00	5600	512	-11.8	-20.1	236	13	3.1
2025-08-27T12:00	5620	511	-12.1	-19.9	237	13	3.1
2025-08-27T12:00	5640	509	-12.3	-20.2	237	13	3.1
2025-08-27T12:00	5660	508	-12.6	-21.0	237	13	3.2
2025-08-27T12:00	5680	507	-12.8	-22.2	237	13	3.2
2025-08-27T12:00	5700	505	-13.0	-22.7	238	14	3.2
2025-08-27T12:00	5720	504	-13.3	-28.7	238	14	3.2
2025-08-27T12:00	5740	503	-13.5	-35.6	238	14	3.2
2025-08-27T12:00	5760	501	-13.7	-38.0	238	14	3.2
2025-08-27T12:00	5780	500	-13.4	-40.9	238	14	3.2
2025-08-27T12:00	5800	499	-12.8	-41.9	238	14	3.2
2025-08-27T12:00	5820	497	-12.3	-40.7	237	14	3.2
2025-08-27T12:00	5840	496	-12.1	-37.4	237	14	3.2
2025-08-27T12:00	5860	495	-12.1	-32.8	237	14	3.3
2025-08-27T12:00	5880	493	-12.1	-24.3	237	13	3.3
2025-08-27T12:00	5900	492	-12.3	-17.3	237	13	3.3
2025-08-27T12:00	5920	491	-12.4	-17.1	237	13	3.3
2025-08-27T12:00	5940	490	-12.5	-17.1	236	13	3.2
2025-08-27T12:00	5960	488	-12.7	-17.9	236	13	3.1
2025-08-27T12:00	5980	487	-12.8	-19.4	235	13	3.1
2025-08-27T12:00	6000	486	-13.0	-21.5	234	13	3.1
2025-08-27T12:00	6020	484	-13.0	-23.8	233	13	3.1
2025-08-27T12:00	6040	483	-13.2	-19.9	232	13	3.1
2025-08-27T12:00	6060	482	-13.4	-16.3	232	13	3.1
2025-08-27T12:00	6080	481	-13.6	-16.4	231	13	3.1
2025-08-27T12:00	6100	479	-13.8	-17.2	231	13	3.1
2025-08-27T12:00	6120	478	-13.8	-17.6	231	13	3.1
2025-08-27T12:00	6140	477	-13.9	-18.1	232	13	3.0
2025-08-27T12:00	6160	476	-14.1	-18.4	233	13	3.0
2025-08-27T12:00	6180	474	-14.3	-19.5	235	13	3.1
2025-08-27T12:00	6200	473	-14.4	-20.6	236	13	3.0
2025-08-27T12:00	6220	472	-14.6	-21.8	238	13	3.1
2025-08-27T12:00	6240	471	-14.7	-24.6	239	14	3.1
2025-08-27T12:00	6260	470	-14.9	-24.4	241	14	3.1
2025-08-27T12:00	6280	468	-15.1	-23.8	242	15	3.1
2025-08-27T12:00	6300	467	-15.2	-23.6	242	15	3.2
2025-08-27T12:00	6320	466	-15.4	-22.4	242	15	3.2
2025-08-27T12:00	6340	465	-15.4	-23.1	242	15	3.1
2025-08-27T12:00	6360	463	-15.2	-28.0	242	15	3.2
2025-08-27T12:00	6380	462	-15.2	-31.3	242	15	3.2
2025-08-27T12:00	6400	461	-15.2	-31.3	241	15	3.2
2025-08-27T12:00	6420	460	-15.3	-31.2	241	15	3.3
2025-08-27T12:00	6440	458	-15.6	-30.4	241	15	3.3
2025-08-27T12:00	6460	457	-15.7	-30.1	241	15	3.3
2025-08-27T12:00	6480	456	-15.8	-30.1	242	16	3.3
2025-08-27T12:00	6500	455	-15.9	-30.2	242	16	3.3
2025-08-27T12:00	6520	454	-16.0	-29.2	243	16	3.3
2025-08-27T12:00	6540	452	-16.2	-29.5	243	16	3.2
2025-08-27T12:00	6560	451	-16.4	-30.6	243	16	3.2
2025-08-27T12:00	6580	450	-16.6	-30.8	242	17	3.2
2025-08-27T12:00	6600	449	-16.7	-30.9	242	17	3.2
2025-08-27T12:00	6620	448	-16.9	-31.6	242	17	3.2
2025-08-27T12:00	6640	447	-17.1	-31.5	242	17	3.2
2025-08-27T12:00	6660	445	-17.2	-31.4	242	18	3.2
2025-08-27T12:00	6680	444	-17.4	-31.4	242	18	3.2
2025-08-27T12:00	6700	443	-17.6	-31.8	243	17	3.2
2025-08-27T12:00	6720	442	-17.8	-32.5	243	17	3.2
2025-08-27T12:00	6740	440	-17.9	-33.4	244	17	3.2
2025-08-27T12:00	6760	439	-18.1	-33.8	244	17	3.1
2025-08-27T12:00	6780	438	-18.2	-34.6	245	17	3.1
2025-08-27T12:00	6800	437	-18.3	-35.8	246	17	3.1
2025-08-27T12:00	6820	436	-18.4	-34.2	246	16	3.1
2025-08-27T12:00	6840	435	-18.6	-35.0	247	16	3.1
2025-08-27T12:00	6860	433	-18.8	-35.7	247	16	3.1
2025-08-27T12:00	6880	432	-18.9	-36.0	247	16	3.2
2025-08-27T12:00	6900	431	-19.1	-37.0	247	17	3.2
2025-08-27T12:00	6920	430	-19.2	-37.8	246	17	3.2
2025-08-27T12:00	6940	429	-19.3	-40.2	245	17	3.3
2025-08-27T12:00	6960	428	-19.4	-41.4	244	17	3.3
2025-08-27T12:00	6980	427	-19.5	-41.2	243	17	3.4
2025-08-27T12:00	7000	425	-19.8	-41.2	242	18	3.4
2025-08-27T12:00	7020	424	-19.9	-40.7	242	18	3.4
2025-08-27T12:00	7040	423	-20.1	-39.9	242	18	3.4
2025-08-27T12:00	7060	422	-20.3	-39.8	241	19	3.4
2025-08-27T12:00	7080	421	-20.4	-40.2	241	19	3.4
2025-08-27T12:00	7100	420	-20.5	-40.8	241	19	3.4
2025-08-27T12:00	7120	418	-20.7	-41.4	241	19	3.3
2025-08-27T12:00	7140	417	-20.7	-40.7	242	19	3.3
2025-08-27T12:00	7160	416	-20.8	-37.0	242	19	3.3
2025-08-27T12:00	7180	415	-21.0	-36.7	242	19	3.3
2025-08-27T12:00	7200	414	-21.2	-36.6	242	19	3.3
2025-08-27T12:00	7220	413	-21.4	-36.7	242	19	3.2
2025-08-27T12:00	7240	412	-21.5	-36.6	242	19	3.2
2025-08-27T12:00	7260	411	-21.7	-36.0	242	18	3.2
2025-08-27T12:00	7280	409	-21.9	-35.6	242	18	3.2
2025-08-27T12:00	7300	408	-22.0	-35.4	242	18	3.2
2025-08-27T12:00	7320	407	-22.2	-35.2	241	18	3.2
2025-08-27T12:00	7340	406	-22.4	-35.0	241	18	3.1
2025-08-27T12:00	7360	405	-22.6	-34.6	240	18	3.1
2025-08-27T12:00	7380	404	-22.8	-34.1	240	18	3.1
2025-08-27T12:00	7400	403	-23.0	-33.7	240	18	3.1
2025-08-27T12:00	7420	402	-23.1	-34.0	239	18	3.1
2025-08-27T12:00	7440	401	-23.3	-34.0	239	18	3.0
2025-08-27T12:00	7460	400	-23.5	-33.9	239	18	3.0
2025-08-27T12:00	7480	398	-23.7	-33.9	238	19	3.0
2025-08-27T12:00	7500	397	-24.0	-34.1	238	19	3.0
2025-08-27T12:00	7520	396	-24.1	-34.5	238	19	3.0
2025-08-27T12:00	7540	395	-24.2	-36.8	237	19	3.0
2025-08-27T12:00	7560	394	-24.4	-39.7	237	19	3.0
2025-08-27T12:00	7580	393	-24.5	-39.8	237	19	3.0
2025-08-27T12:00	7600	392	-24.7	-39.0	237	19	2.9
2025-08-27T12:00	7620	391	-24.8	-38.3	237	19	2.9
2025-08-27T12:00	7640	390	-25.0	-37.2	237	19	3.0
2025-08-27T12:00	7660	389	-25.2	-36.1	237	19	3.0
2025-08-27T12:00	7680	388	-25.4	-34.5	237	19	2.9
2025-08-27T12:00	7700	387	-25.6	-34.2	237	19	2.9
2025-08-27T12:00	7720	386	-25.8	-34.0	238	19	2.9
2025-08-27T12:00	7740	385	-26.0	-33.8	238	19	2.9
2025-08-27T12:00	7760	384	-26.2	-33.9	238	19	2.9
2025-08-27T12:00	7780	382	-26.4	-34.0	239	19	2.8
2025-08-27T12:00	7800	381	-26.6	-33.8	239	19	2.8
2025-08-27T12:00	7820	380	-26.8	-33.8	239	19	2.8
2025-08-27T12:00	7840	379	-26.9	-33.7	240	18	2.8
2025-08-27T12:00	7860	378	-27.2	-33.8	240	18	2.8
2025-08-27T12:00	7880	377	-27.3	-34.4	241	18	2.8
2025-08-27T12:00	7900	376	-27.5	-37.2	241	18	2.8
2025-08-27T12:00	7920	375	-27.5	-42.8	242	18	2.8
2025-08-27T12:00	7940	374	-27.5	-45.4	242	18	2.8
2025-08-27T12:00	7960	373	-27.6	-45.3	242	18	2.9
2025-08-27T12:00	7980	372	-27.8	-44.3	243	18	2.9
2025-08-27T12:00	8000	371	-28.0	-43.3	243	18	3.0
2025-08-27T12:00	8020	370	-28.1	-42.7	243	18	3.0
2025-08-27T12:00	8040	369	-28.3	-42.3	243	18	3.0
2025-08-27T12:00	8060	368	-28.5	-42.0	243	18	3.0
2025-08-27T12:00	8080	367	-28.7	-41.4	243	18	3.0
2025-08-27T12:00	8100	366	-28.9	-43.2	244	18	3.0
2025-08-27T12:00	8120	365	-29.1	-43.6	244	18	3.0
2025-08-27T12:00	8140	364	-29.2	-43.1	244	18	3.0
2025-08-27T12:00	8160	363	-29.4	-44.3	245	18	3.0
2025-08-27T12:00	8180	362	-29.6	-45.3	245	18	3.0
2025-08-27T12:00	8200	361	-29.8	-45.2	245	18	3.0
2025-08-27T12:00	8220	360	-29.9	-45.1	246	18	3.0
2025-08-27T12:00	8240	359	-30.1	-44.7	246	18	3.0
2025-08-27T12:00	8260	358	-30.2	-44.8	246	18	3.0
2025-08-27T12:00	8280	357	-30.4	-45.5	246	18	3.0
2025-08-27T12:00	8300	356	-30.5	-47.4	245	18	3.0
2025-08-27T12:00	8320	355	-30.6	-47.7	245	18	3.0
2025-08-27T12:00	8340	354	-30.7	-47.7	244	18	3.1
2025-08-27T12:00	8360	353	-30.8	-48.0	243	18	3.1
2025-08-27T12:00	8380	352	-31.0	-48.4	242	19	3.1
2025-08-27T12:00	8400	351	-31.2	-48.4	242	19	3.0
2025-08-27T12:00	8420	350	-31.4	-48.4	241	19	3.0
2025-08-27T12:00	8440	349	-31.5	-49.0	241	19	3.0
2025-08-27T12:00	8460	348	-31.7	-49.3	241	19	3.0
2025-08-27T12:00	8480	347	-31.8	-49.4	241	19	3.0
2025-08-27T12:00	8500	346	-32.1	-49.5	241	19	3.0
2025-08-27T12:00	8520	345	-32.3	-49.7	241	19	3.0
2025-08-27T12:00	8540	344	-32.4	-50.5	241	19	3.0
2025-08-27T12:00	8560	343	-32.5	-51.4	241	19	3.0
2025-08-27T12:00	8580	342	-32.5	-52.3	242	19	2.9
2025-08-27T12:00	8600	341	-32.5	-53.7	242	19	2.9
2025-08-27T12:00	8620	340	-32.6	-53.8	243	19	2.9
2025-08-27T12:00	8640	339	-32.8	-53.7	243	19	2.8
2025-08-27T12:00	8660	338	-33.0	-53.6	243	19	2.8
2025-08-27T12:00	8680	337	-33.2	-53.5	244	19	2.8
2025-08-27T12:00	8700	336	-33.5	-53.5	245	20	2.8
2025-08-27T12:00	8720	335	-33.6	-53.5	245	20	2.7
2025-08-27T12:00	8740	334	-33.8	-53.7	246	20	2.7
2025-08-27T12:00	8760	333	-33.9	-54.1	246	20	2.7
2025-08-27T12:00	8780	332	-34.0	-54.4	247	20	2.7
2025-08-27T12:00	8800	331	-34.2	-54.6	247	20	2.6
2025-08-27T12:00	8820	330	-34.4	-54.8	247	20	2.6
2025-08-27T12:00	8840	329	-34.5	-55.2	247	20	2.6
2025-08-27T12:00	8860	328	-34.7	-55.3	247	20	2.6
2025-08-27T12:00	8880	328	-34.8	-55.5	247	20	2.6
2025-08-27T12:00	8900	327	-35.0	-55.8	247	20	2.6
2025-08-27T12:00	8920	326	-35.1	-55.9	247	20	2.6
2025-08-27T12:00	8940	325	-35.3	-55.9	247	20	2.6
2025-08-27T12:00	8960	324	-35.5	-55.8	247	20	2.6
2025-08-27T12:00	8980	323	-35.6	-55.8	246	19	2.6
2025-08-27T12:00	9000	322	-35.8	-55.7	246	19	2.6
2025-08-27T12:00	9020	321	-35.9	-55.9	246	19	2.6
2025-08-27T12:00	9040	320	-36.1	-56.0	246	19	2.6
2025-08-27T12:00	9060	319	-36.3	-56.2	247	19	2.6
2025-08-27T12:00	9080	318	-36.4	-56.8	247	19	2.6
2025-08-27T12:00	9100	317	-36.5	-56.9	247	19	2.6
2025-08-27T12:00	9120	316	-36.7	-56.9	247	19	2.6
2025-08-27T12:00	9140	315	-37.0	-56.4	247	19	2.6
2025-08-27T12:00	9160	315	-37.1	-55.5	247	19	2.6
2025-08-27T12:00	9180	314	-37.3	-55.0	246	19	2.6
2025-08-27T12:00	9200	313	-37.4	-54.9	245	19	2.6
2025-08-27T12:00	9220	312	-37.5	-55.0	245	19	2.7
2025-08-27T12:00	9240	311	-37.7	-54.8	244	20	2.7
2025-08-27T12:00	9260	310	-38.0	-54.7	243	20	2.7
2025-08-27T12:00	9280	309	-38.2	-54.7	243	20	2.7
2025-08-27T12:00	9300	308	-38.3	-54.5	243	20	2.7
2025-08-27T12:00	9320	307	-38.5	-54.5	242	20	2.7
2025-08-27T12:00	9340	307	-38.7	-54.3	242	20	2.8
2025-08-27T12:00	9360	306	-38.9	-54.2	243	20	2.8
2025-08-27T12:00	9380	305	-39.1	-54.2	243	20	2.7
2025-08-27T12:00	9400	304	-39.3	-54.0	243	20	2.7
2025-08-27T12:00	9420	303	-39.4	-53.7	244	21	2.7
2025-08-27T12:00	9440	302	-39.5	-53.3	244	21	2.7
2025-08-27T12:00	9460	301	-39.7	-53.4	245	21	2.7
2025-08-27T12:00	9480	300	-39.9	-53.8	245	21	2.7
2025-08-27T12:00	9500	299	-40.0	-54.3	246	21	2.7
2025-08-27T12:00	9520	299	-40.1	-55.3	246	22	2.7
2025-08-27T12:00	9540	298	-40.2	-55.6	247	22	2.7
2025-08-27T12:00	9560	297	-40.4	-55.4	247	22	2.7
2025-08-27T12:00	9580	296	-40.6	-55.4	247	22	2.7
2025-08-27T12:00	9600	295	-40.8	-55.8	248	22	2.7
2025-08-27T12:00	9620	294	-40.8	-56.3	248	23	2.7
2025-08-27T12:00	9640	293	-40.9	-56.4	248	23	2.7
2025-08-27T12:00	9660	292	-41.1	-56.8	248	23	2.7
2025-08-27T12:00	9680	292	-41.2	-57.2	249	23	2.7
2025-08-27T12:00	9700	291	-41.3	-57.4	249	23	2.7
2025-08-27T12:00	9720	290	-41.4	-57.7	249	23	2.7
2025-08-27T12:00	9740	289	-41.6	-57.6	250	23	2.7
2025-08-27T12:00	9760	288	-41.8	-57.5	250	23	2.7
2025-08-27T12:00	9780	287	-42.0	-57.5	250	23	2.8
2025-08-27T12:00	9800	286	-42.1	-57.7	250	24	2.8
2025-08-27T12:00	9820	286	-42.2	-57.8	250	24	2.8
2025-08-27T12:00	9840	285	-42.4	-57.7	250	24	2.8
2025-08-27T12:00	9860	284	-42.5	-57.6	250	24	2.8
2025-08-27T12:00	9880	283	-42.5	-57.2	250	24	2.8
2025-08-27T12:00	9900	282	-42.6	-56.5	249	25	2.8
2025-08-27T12:00	9920	281	-42.8	-55.9	249	25	2.8
2025-08-27T12:00	9940	281	-42.9	-55.1	249	25	2.8
2025-08-27T12:00	9960	280	-43.1	-54.7	249	25	2.8
2025-08-27T12:00	9980	279	-43.2	-54.5	249	25	2.8
2025-08-27T12:00	10000	278	-43.4	-54.1	249	26	2.8
2025-08-27T12:00	10018	277	-43.6	-54.0	249	26	2.8
2025-08-27T12:00	10050	276	-43.9	-53.9	249	26	2.8
2025-08-27T12:00	10100	274	-44.3	-53.5	249	26	2.8
2025-08-27T12:00	10150	272	-44.8	-53.2	249	27	2.8
2025-08-27T12:00	10200	270	-45.3	-53.2	249	27	2.8
2025-08-27T12:00	10250	268	-45.7	-50.9	249	27	2.7
2025-08-27T12:00	10300	266	-46.0	-53.2	249	28	2.7
2025-08-27T12:00	10350	264	-46.5	-59.0	250	28	2.7
2025-08-27T12:00	10400	262	-46.9	-60.1	250	28	2.8
2025-08-27T12:00	10450	260	-47.2	-57.6	249	28	2.9
2025-08-27T12:00	10500	258	-47.5	-53.3	248	28	2.9
2025-08-27T12:00	10550	256	-47.9	-52.4	249	29	2.9
2025-08-27T12:00	10600	254	-48.3	-54.7	249	29	2.8
2025-08-27T12:00	10650	252	-48.4	-57.6	250	29	2.7
2025-08-27T12:00	10700	250	-48.4	-61.7	251	30	2.8
2025-08-27T12:00	10750	248	-48.3	-66.6	251	30	3.0
2025-08-27T12:00	10800	247	-48.3	-66.5	251	30	3.1
2025-08-27T12:00	10850	245	-48.6	-65.7	252	29	3.2
2025-08-27T12:00	10900	243	-48.8	-65.8	252	29	3.3
2025-08-27T12:00	10950	241	-48.8	-65.9	252	29	3.3
2025-08-27T12:00	11000	239	-49.1	-66.0	251	29	3.3
2025-08-27T12:00	11050	237	-49.4	-66.4	251	30	3.2
2025-08-27T12:00	11100	236	-49.5	-66.1	251	30	3.2
2025-08-27T12:00	11150	234	-50.0	-66.8	251	31	3.2
2025-08-27T12:00	11200	232	-50.3	-67.0	251	31	3.1
2025-08-27T12:00	11250	230	-50.6	-67.4	251	31	3.1
2025-08-27T12:00	11300	228	-50.9	-67.8	250	31	3.1
2025-08-27T12:00	11350	227	-51.0	-68.5	250	31	3.1
2025-08-27T12:00	11400	225	-51.1	-69.1	249	31	3.1
2025-08-27T12:00	11450	223	-51.3	-69.3	248	31	3.1
2025-08-27T12:00	11500	222	-51.6	-69.2	247	32	3.1
2025-08-27T12:00	11550	220	-51.7	-69.5	246	32	3.0
2025-08-27T12:00	11600	218	-51.8	-69.8	246	32	3.0
2025-08-27T12:00	11650	216	-52.2	-70.1	245	32	3.0
2025-08-27T12:00	11700	215	-52.2	-70.7	246	31	2.9
2025-08-27T12:00	11750	213	-52.2	-71.4	246	30	2.9
2025-08-27T12:00	11800	211	-52.3	-71.8	248	30	2.8
2025-08-27T12:00	11850	210	-52.6	-72.0	249	30	2.8
2025-08-27T12:00	11900	208	-52.6	-72.1	250	30	2.7
2025-08-27T12:00	11950	207	-52.7	-72.2	250	30	2.7
2025-08-27T12:00	12000	205	-53.0	-72.4	249	31	2.6
2025-08-27T12:00	12050	203	-52.9	-72.5	248	31	2.6
2025-08-27T12:00	12100	202	-52.9	-72.7	248	31	2.6
2025-08-27T12:00	12150	200	-53.1	-72.8	247	31	2.6
2025-08-27T12:00	12200	199	-53.4	-72.9	247	31	2.5
2025-08-27T12:00	12250	197	-53.7	-73.1	247	32	2.5
2025-08-27T12:00	12300	196	-53.9	-73.2	247	32	2.5
2025-08-27T12:00	12350	194	-54.2	-73.4	248	33	2.5
2025-08-27T12:00	12400	193	-54.3	-73.6	250	33	2.5
2025-08-27T12:00	12450	191	-54.5	-73.8	251	34	2.5
2025-08-27T12:00	12500	190	-54.7	-73.8	252	34	2.5
2025-08-27T12:00	12550	188	-54.9	-74.1	252	34	2.5
2025-08-27T12:00	12600	187	-55.1	-74.3	253	33	2.4
2025-08-27T12:00	12650	185	-55.0	-74.6	253	32	2.4
2025-08-27T12:00	12700	184	-54.9	-75.1	254	32	2.4
2025-08-27T12:00	12750	182	-55.0	-75.3	254	31	2.4
2025-08-27T12:00	12800	181	-55.2	-75.6	254	31	2.5
2025-08-27T12:00	12850	180	-55.3	-75.7	254	30	2.5
2025-08-27T12:00	12900	178	-55.4	-76.0	253	30	2.5
2025-08-27T12:00	12950	177	-55.7	-76.3	252	29	2.5
2025-08-27T12:00	13000	175	-55.8	-76.6	251	29	2.5
2025-08-27T12:00	13050	174	-55.6	-76.9	250	30	2.6
2025-08-27T12:00	13100	173	-55.8	-77.2	249	30	2.6
2025-08-27T12:00	13150	171	-56.1	-77.4	249	30	2.7
2025-08-27T12:00	13200	170	-56.0	-77.6	250	30	2.7
2025-08-27T12:00	13250	169	-55.7	-77.9	250	30	2.8
2025-08-27T12:00	13300	167	-55.8	-78.0	250	30	2.8
2025-08-27T12:00	13350	166	-56.1	-78.2	250	30	2.9
2025-08-27T12:00	13400	165	-56.2	-78.4	251	29	2.9
2025-08-27T12:00	13450	163	-56.2	-78.6	252	28	2.9
2025-08-27T12:00	13500	162	-56.0	-78.7	253	27	3.0
2025-08-27T12:00	13550	161	-56.0	-78.9	253	26	3.0
2025-08-27T12:00	13600	160	-56.3	-79.0	254	25	3.0
2025-08-27T12:00	13650	158	-56.6	-79.1	256	25	3.1
2025-08-27T12:00	13700	157	-56.9	-79.1	257	24	3.0
2025-08-27T12:00	13750	156	-57.2	-79.3	258	24	3.1
2025-08-27T12:00	13800	155	-57.2	-79.4	258	23	3.1
2025-08-27T12:00	13850	153	-57.4	-79.6	256	23	3.1
2025-08-27T12:00	13900	152	-57.6	-79.6	255	23	3.1
2025-08-27T12:00	13950	151	-57.8	-79.7	253	23	3.1
2025-08-27T12:00	14000	150	-58.1	-79.8	251	23	3.1
2025-08-27T12:00	14050	148	-58.5	-79.9	249	23	3.0
2025-08-27T12:00	14100	147	-58.9	-80.0	246	23	3.1
2025-08-27T12:00	14150	146	-59.3	-80.2	245	24	3.0
2025-08-27T12:00	14200	145	-59.6	-80.1	244	24	3.0
2025-08-27T12:00	14250	144	-60.1	-80.4	244	24	3.0
2025-08-27T12:00	14300	143	-60.2	-80.4	245	25	3.0
2025-08-27T12:00	14350	142	-60.5	-80.6	246	26	3.0
2025-08-27T12:00	14400	140	-60.6	-80.7	248	26	3.0
2025-08-27T12:00	14450	139	-61.0	-80.9	249	27	3.0
2025-08-27T12:00	14500	138	-61.2	-81.1	251	27	3.0
2025-08-27T12:00	14550	137	-61.5	-81.4	252	26	3.0
2025-08-27T12:00	14600	136	-61.3	-81.4	252	24	3.0
2025-08-27T12:00	14650	135	-61.3	-81.7	252	23	3.0
2025-08-27T12:00	14700	134	-61.1	-81.9	251	22	3.2
2025-08-27T12:00	14750	133	-60.9	-81.9	249	21	3.3
2025-08-27T12:00	14800	132	-61.1	-82.1	247	22	3.3
2025-08-27T12:00	14850	131	-61.0	-82.1	245	22	3.4
2025-08-27T12:00	14900	130	-60.9	-81.9	242	23	3.4
2025-08-27T12:00	14950	129	-61.1	-81.8	242	24	3.3
2025-08-27T12:00	15000	127	-60.9	-81.2	243	26	3.3
2025-08-27T12:00	15050	126	-60.9	-81.1	245	27	3.3
2025-08-27T12:00	15100	125	-60.9	-81.1	247	28	3.3
2025-08-27T12:00	15150	125	-61.0	-81.2	249	30	3.3
2025-08-27T12:00	15200	123	-61.2	-81.4	250	30	3.2
2025-08-27T12:00	15250	122	-60.6	-81.3	252	30	3.3
2025-08-27T12:00	15300	121	-60.5	-81.8	253	29	3.3
2025-08-27T12:00	15350	121	-60.2	-82.1	254	27	3.3
2025-08-27T12:00	15400	120	-60.2	-82.3	254	26	3.2
2025-08-27T12:00	15450	119	-60.5	-82.4	253	25	3.1
2025-08-27T12:00	15500	118	-60.5	-82.3	255	25	3.1
2025-08-27T12:00	15550	117	-60.5	-82.3	257	24	3.2
2025-08-27T12:00	15600	116	-60.2	-82.6	258	23	3.3
2025-08-27T12:00	15650	115	-59.6	-83.0	258	21	3.3
2025-08-27T12:00	15700	114	-59.1	-83.1	256	21	3.4
2025-08-27T12:00	15750	113	-58.3	-83.0	253	20	3.5
2025-08-27T12:00	15800	112	-58.0	-83.2	248	19	3.8
2025-08-27T12:00	15850	111	-57.7	-83.3	241	18	4.2
2025-08-27T12:00	15900	110	-57.6	-83.1	236	17	4.3
2025-08-27T12:00	15950	110	-57.8	-83.2	232	17	4.4
2025-08-27T12:00	16000	109	-57.6	-83.2	230	18	4.5
2025-08-27T12:00	16050	108	-57.8	-83.4	229	19	4.9
2025-08-27T12:00	16100	107	-58.1	-83.6	229	19	5.2
2025-08-27T12:00	16150	106	-58.0	-83.6	231	20	5.5
2025-08-27T12:00	16200	105	-57.9	-83.7	233	20	5.8
2025-08-27T12:00	16250	104	-57.9	-83.7	235	21	6.0
2025-08-27T12:00	16300	104	-58.1	-83.9	238	20	6.0
2025-08-27T12:00	16350	103	-58.2	-83.8	243	18	6.0
2025-08-27T12:00	16400	102	-58.4	-83.9	245	17	6.0
2025-08-27T12:00	16450	101	-58.3	-84.0	248	16	6.0
2025-08-27T12:00	16500	100	-58.3	-84.1	252	15	6.0
2025-08-27T12:00	16550	100	-58.2	-84.1	254	15	6.0
2025-08-27T12:00	16600	99	-58.4	-84.0	255	14	6.0
2025-08-27T12:00	16650	98	-58.7	-84.1	254	15	6.0
2025-08-27T12:00	16700	97	-59.0	-84.3	254	16	5.9
2025-08-27T12:00	16750	96	-58.8	-84.3	254	16	5.9
2025-08-27T12:00	16800	96	-58.7	-84.4	253	17	6.0
2025-08-27T12:00	16850	95	-58.8	-84.5	253	17	6.2
2025-08-27T12:00	16900	94	-58.7	-84.5	254	17	6.3
2025-08-27T12:00	16950	93	-58.6	-84.4	256	17	6.3
2025-08-27T12:00	17000	93	-58.8	-84.5	258	17	6.3
2025-08-27T12:00	17050	92	-59.1	-84.7	261	16	6.2
2025-08-27T12:00	17100	91	-59.0	-84.7	264	15	6.1
2025-08-27T12:00	17150	91	-58.6	-84.7	265	14	6.1
2025-08-27T12:00	17200	90	-58.3	-84.7	264	12	6.2
2025-08-27T12:00	17250	89	-58.0	-84.6	265	10	6.5
2025-08-27T12:00	17300	88	-57.6	-84.4	265	10	6.8
2025-08-27T12:00	17350	88	-57.8	-84.5	264	10	6.9
2025-08-27T12:00	17400	87	-57.9	-84.4	267	10	7.0
2025-08-27T12:00	17450	86	-57.7	-84.5	272	10	7.0
2025-08-27T12:00	17500	86	-57.0	-84.2	274	9	6.6
2025-08-27T12:00	17550	85	-57.1	-84.3	274	7	6.4
2025-08-27T12:00	17600	84	-56.8	-84.2	271	5	6.3
2025-08-27T12:00	17650	84	-56.7	-84.1	258	4	6.3
2025-08-27T12:00	17700	83	-57.0	-84.1	238	4	6.2
2025-08-27T12:00	17750	82	-57.3	-84.3	236	5	6.2
2025-08-27T12:00	17800	82	-57.3	-84.3	242	5	6.2
2025-08-27T12:00	17850	81	-57.4	-84.4	244	5	6.2
2025-08-27T12:00	17900	80	-57.9	-84.5	247	6	6.2
2025-08-27T12:00	17950	80	-58.2	-84.6	251	7	6.2
2025-08-27T12:00	18000	79	-58.2	-84.8	254	8	6.2
2025-08-27T12:00	18050	78	-58.0	-84.8	256	8	6.3
2025-08-27T12:00	18100	78	-57.9	-84.9	253	7	6.3
2025-08-27T12:00	18150	77	-57.5	-84.8	238	6	6.5
2025-08-27T12:00	18200	77	-57.5	-84.7	220	5	6.6
2025-08-27T12:00	18250	76	-57.6	-84.7	212	6	6.8
2025-08-27T12:00	18300	75	-57.9	-84.7	211	7	6.9
2025-08-27T12:00	18350	75	-58.3	-84.8	211	8	7.0
2025-08-27T12:00	18400	74	-58.7	-85.0	214	9	7.0
2025-08-27T12:00	18450	74	-59.1	-85.2	220	10	7.2
2025-08-27T12:00	18500	73	-59.0	-85.3	229	10	7.4
2025-08-27T12:00	18550	72	-58.9	-85.4	238	10	7.6
2025-08-27T12:00	18600	72	-58.6	-85.4	242	9	7.7
2025-08-27T12:00	18650	71	-58.2	-85.3	239	9	7.5
2025-08-27T12:00	18700	71	-58.0	-85.2	238	9	7.3
2025-08-27T12:00	18750	70	-57.7	-85.1	240	10	7.2
2025-08-27T12:00	18800	70	-57.4	-85.0	239	9	7.2
2025-08-27T12:00	18850	69	-57.2	-85.0	240	8	7.3
2025-08-27T12:00	18900	69	-56.7	-84.9	248	9	7.6
2025-08-27T12:00	18950	68	-56.4	-84.7	256	9	8.1
2025-08-27T12:00	19000	67	-56.3	-84.6	260	8	8.6
2025-08-27T12:00	19050	67	-56.0	-84.5	259	8	9.0
2025-08-27T12:00	19100	66	-56.1	-84.4	261	8	9.3
2025-08-27T12:00	19150	66	-56.1	-84.4	265	9	9.6
2025-08-27T12:00	19200	65	-56.3	-84.5	269	9	9.7
2025-08-27T12:00	19250	65	-56.3	-84.5	270	8	9.9
2025-08-27T12:00	19300	64	-56.2	-84.5	266	6	10.0
2025-08-27T12:00	19350	64	-56.4	-84.5	260	6	10.1
2025-08-27T12:00	19400	63	-56.6	-84.6	259	6	10.2
2025-08-27T12:00	19450	63	-56.7	-84.7	259	6	10.2
2025-08-27T12:00	19500	62	-56.4	-84.7	255	6	10.3
2025-08-27T12:00	19550	62	-56.2	-84.7	252	6	10.4
2025-08-27T12:00	19600	61	-55.9	-84.6	254	6	10.5
2025-08-27T12:00	19650	61	-55.6	-84.5	263	5	10.7
2025-08-27T12:00	19700	60	-55.5	-84.5	274	4	10.7
2025-08-27T12:00	19750	60	-54.5	-84.2	283	4	10.9
2025-08-27T12:00	19800	60	-54.3	-84.1	290	3	11.0
2025-08-27T12:00	19850	59	-54.2	-83.8	283	3	11.1
2025-08-27T12:00	19900	59	-54.6	-83.8	270	4	11.1
2025-08-27T12:00	19950	58	-54.7	-83.9	272	5	11.2
2025-08-27T12:00	20000	58	-54.4	-83.9	277	5	11.1
2025-08-27T12:00	20050	57	-54.2		271	5	11.1
2025-08-27T12:00	20100	57	-54.0		256	4	11.2
2025-08-27T12:00	20150	56	-54.1		233	3	11.1
2025-08-27T12:00	20200	56	-54.4		220	3	11.1
2025-08-27T12:00	20250	55	-54.5		234	4	11.1
2025-08-27T12:00	20300	55	-54.4		255	3	11.1
2025-08-27T12:00	20350	55	-54.2		277	2	11.2
2025-08-27T12:00	20400	54	-54.1		288	0	11.1
2025-08-27T12:00	20450	54	-54.1		167	1	11.2
2025-08-27T12:00	20500	53	-54.3		176	3	11.1
2025-08-27T12:00	20550	53	-54.2		181	4	11.1
2025-08-27T12:00	20600	53	-54.4		179	6	11.1
2025-08-27T12:00	20650	52	-54.2		177	6	11.0
2025-08-27T12:00	20700	52	-53.8		179	6	11.0
2025-08-27T12:00	20750	51	-53.7		187	5	10.8
2025-08-27T12:00	20800	51	-53.7		193	6	10.7
2025-08-27T12:00	20850	51	-53.5		194	7	10.7
2025-08-27T12:00	20900	50	-53.3		199	7	10.6
2025-08-27T12:00	20950	50	-53.3		206	7	10.6
2025-08-27T12:00	21000	49	-53.6		214	7	10.6
2025-08-27T12:00	21050	49	-53.6		224	6	10.7
2025-08-27T12:00	21100	49	-53.3		231	5	10.9
2025-08-27T12:00	21150	48	-53.0		231	4	11.1
2025-08-27T12:00	21200	48	-52.6		229	4	11.5
2025-08-27T12:00	21250	47	-52.1		232	4	12.1
2025-08-27T12:00	21300	47	-52.1		240	4	12.6
2025-08-27T12:00	21350	47	-52.4		255	4	12.9
2025-08-27T12:00	21400	46	-52.3		278	4	13.0
2025-08-27T12:00	21450	46	-52.2		299	4	13.0
2025-08-27T12:00	21500	46	-52.0		313	4	13.2
2025-08-27T12:00	21550	45	-51.9		324	3	13.2
2025-08-27T12:00	21600	45	-52.0		337	2	13.3
2025-08-27T12:00	21650	45	-52.1		18	1	13.3
2025-08-27T12:00	21700	44	-52.3		96	1	13.2
2025-08-27T12:00	21750	44	-52.4		126	2	13.1
2025-08-27T12:00	21800	44	-52.4		124	3	13.1
2025-08-27T12:00	21850	43	-52.3		113	2	12.9
2025-08-27T12:00	21900	43	-52.2		114	2	12.9
2025-08-27T12:00	21950	43	-52.5		147	1	12.9
2025-08-27T12:00	22000	42	-52.4		268	0	12.7
2025-08-27T12:00	22050	42	-52.0		356	1	12.6
2025-08-27T12:00	22100	42	-51.6		77	1	12.5
2025-08-27T12:00	22150	41	-51.2		106	3	12.6
2025-08-27T12:00	22200	41	-51.2		130	3	12.6
2025-08-27T12:00	22250	41	-51.0		161	3	12.5
2025-08-27T12:00	22300	40	-50.9		180	4	12.4
2025-08-27T12:00	22350	40	-51.1		181	5	12.1
2025-08-27T12:00	22400	40	-51.1		173	6	11.7
2025-08-27T12:00	22450	39	-50.8		163	7	11.6
2025-08-27T12:00	22500	39	-50.7		153	7	11.6
2025-08-27T12:00	22550	39	-50.7		146	7	11.7
2025-08-27T12:00	22600	39	-50.8		144	7	11.6
2025-08-27T12:00	22650	38	-50.8		150	7	11.7
2025-08-27T12:00	22700	38	-50.4		160	7	11.7
2025-08-27T12:00	22750	38	-50.1		169	7	11.9
2025-08-27T12:00	22800	37	-50.1		170	7	12.0
2025-08-27T12:00	22850	37	-50.0		165	7	12.4
2025-08-27T12:00	22900	37	-50.0		162	6	12.5
2025-08-27T12:00	22950	37	-49.9		170	6	12.6
2025-08-27T12:00	23000	36	-49.7		185	5	12.8
2025-08-27T12:00	23050	36	-49.5		197	5	13.2
2025-08-27T12:00	23100	36	-49.6		206	4	13.7
2025-08-27T12:00	23150	35	-49.7		218	4	13.9
2025-08-27T12:00	23200	35	-49.7		226	4	14.1
2025-08-27T12:00	23250	35	-49.6		230	4	14.2
2025-08-27T12:00	23300	35	-50.0		236	4	14.3
2025-08-27T12:00	23350	34	-50.2		250	3	14.3
2025-08-27T12:00	23400	34	-50.2		299	1	14.3
2025-08-27T12:00	23450	34	-50.1		357	1	14.4
2025-08-27T12:00	23500	34	-50.0		68	1	14.4
2025-08-27T12:00	23550	33	-50.1		116	2	14.3
2025-08-27T12:00	23600	33	-50.2		132	3	14.3
2025-08-27T12:00	23650	33	-50.3		138	5	14.3
2025-08-27T12:00	23700	33	-50.2		145	7	14.2
2025-08-27T12:00	23750	32	-50.2		155	8	13.9
2025-08-27T12:00	23800	32	-50.0		165	8	14.1
2025-08-27T12:00	23850	32	-49.9		172	8	14.3
2025-08-27T12:00	23900	32	-50.1		176	7	14.2
2025-08-27T12:00	23950	31	-50.3		174	6	14.1
2025-08-27T12:00	24000	31	-50.2		165	6	14.1
2025-08-27T12:00	24050	31	-50.2		160	6	14.0
2025-08-27T12:00	24100	31	-50.0		168	5	14.0
2025-08-27T12:00	24150	30	-49.8		185	5	13.9
2025-08-27T12:00	24200	30	-49.8		203	4	14.0
2025-08-27T12:00	24250	30	-49.8		215	4	14.1
2025-08-27T12:00	24300	30	-49.7		210	3	13.9
2025-08-27T12:00	24350	29	-49.5		167	2	13.6
2025-08-27T12:00	24400	29	-49.5		124	3	13.8
2025-08-27T12:00	24450	29	-49.4		116	4	14.1
2025-08-27T12:00	24500	29	-49.1		116	4	14.0
2025-08-27T12:00	24550	29	-48.8		119	4	14.0
2025-08-27T12:00	24600	28	-48.7		121	4	13.8
2025-08-27T12:00	24650	28	-48.7		120	4	13.9
2025-08-27T12:00	24700	28	-48.7		118	4	13.9
2025-08-27T12:00	24750	28	-48.7		118	5	13.8
2025-08-27T12:00	24800	28	-48.6		117	5	13.9
2025-08-27T12:00	24850	27	-48.5		119	4	13.9
2025-08-27T12:00	24900	27	-48.4		125	3	13.7
2025-08-27T12:00	24950	27	-48.4		130	3	13.6
2025-08-27T12:00	25000	27	-48.2		113	2	13.6
2025-08-27T12:00	25050	26	-47.9		87	2	13.8
2025-08-27T12:00	25100	26	-47.8		81	4	13.7
2025-08-27T12:00	25150	26	-47.7		80	5	13.6
2025-08-27T12:00	25200	26	-47.7		82	6	13.6
2025-08-27T12:00	25250	26	-47.8		86	7	13.6
2025-08-27T12:00	25300	26	-48.0		91	7	13.5
2025-08-27T12:00	25350	25	-48.2		98	7	13.4
2025-08-27T12:00	25400	25	-48.1		104	7	13.6
2025-08-27T12:00	25450	25	-48.0		105	7	13.3
2025-08-27T12:00	25500	25	-47.8		107	7	13.3
2025-08-27T12:00	25550	25	-47.8		111	7	13.3
2025-08-27T12:00	25600	24	-47.6		116	7	13.4
2025-08-27T12:00	25650	24	-47.3		123	7	13.3
2025-08-27T12:00	25700	24	-47.0		132	7	13.2
2025-08-27T12:00	25750	24	-46.9		143	7	13.1
2025-08-27T12:00	25800	24	-47.1		154	7	13.1
2025-08-27T12:00	25850	23	-47.3		164	8	13.2
2025-08-27T12:00	25900	23	-47.5		172	8	13.1
2025-08-27T12:00	25950	23	-47.7		179	8	13.0
2025-08-27T12:00	26000	23	-47.8		186	7	12.9
2025-08-27T12:00	26050	23	-47.7		192	6	12.9
2025-08-27T12:00	26100	23	-47.7		194	4	12.9
2025-08-27T12:00	26150	22	-47.4		190	3	12.9
2025-08-27T12:00	26200	22	-47.4		175	1	12.9
2025-08-27T12:00	26250	22	-47.4		154	1	12.8
2025-08-27T12:00	26300	22	-47.5		161	3	12.8
2025-08-27T12:00	26350	22	-47.5		170	4	12.8
2025-08-27T12:00	26400	22	-47.6		177	4	12.8
2025-08-27T12:00	26450	21	-47.6		183	4	12.7
2025-08-27T12:00	26500	21	-47.5		189	5	12.8
2025-08-27T12:00	26550	21	-47.6		195	6	12.8
2025-08-27T12:00	26600	21	-47.7		203	7	12.8
2025-08-27T12:00	26650	21	-47.6		211	6	12.8
2025-08-27T12:00	26700	21	-47.8		218	6	12.8
2025-08-27T12:00	26750	20	-48.1		227	5	12.7
2025-08-27T12:00	26800	20	-48.2		243	4	12.6
2025-08-27T12:00	26850	20	-47.8		260	3	12.4
2025-08-27T12:00	26900	20	-47.7		276	3	12.4
2025-08-27T12:00	26950	20	-47.8		304	2	12.4
2025-08-27T12:00	27000	20	-47.8		339	2	12.3
2025-08-27T12:00	27050	20	-47.7		25	2	12.3
2025-08-27T12:00	27100	19	-47.6		71	2	12.2
2025-08-27T12:00	27150	19	-47.6		100	3	12.1
2025-08-27T12:00	27200	19	-47.7		120	4	12.1
2025-08-27T12:00	27250	19	-47.7		135	4	12.0
2025-08-27T12:00	27300	19	-47.7		143	3	12.0
2025-08-27T12:00	27350	19	-47.6		132	2	11.9
2025-08-27T12:00	27400	19	-47.3		88	2	11.9
2025-08-27T12:00	27450	18	-47.0		75	3	11.8
2025-08-27T12:00	27500	18	-47.1		78	4	11.8
2025-08-27T12:00	27550	18	-47.3		84	5	11.8
2025-08-27T12:00	27600	18	-46.9		90	6	11.7
2025-08-27T12:00	27650	18	-46.8		96	6	11.6
2025-08-27T12:00	27700	18	-46.9		98	6	11.6
2025-08-27T12:00	27750	18	-46.9		95	6	11.6
2025-08-27T12:00	27800	17	-46.8		92	6	11.5
2025-08-27T12:00	27850	17	-46.6		93	6	11.4
2025-08-27T12:00	27900	17	-46.4		96	6	11.4
2025-08-27T12:00	27950	17	-46.2		97	6	11.4
2025-08-27T12:00	28000	17	-46.2		97	6	11.4
2025-08-27T12:00	28050	17	-46.3		97	5	11.4
2025-08-27T12:00	28100	17	-46.4		99	5	11.3
2025-08-27T12:00	28150	17	-46.5		104	5	11.2
2025-08-27T12:00	28200	16	-46.5		110	6	11.2
2025-08-27T12:00	28250	16	-46.6		111	7	11.1
2025-08-27T12:00	28300	16	-46.7		108	9	11.1
2025-08-27T12:00	28350	16	-46.7		107	10	11.0
2025-08-27T12:00	28400	16	-46.7		110	11	11.0
2025-08-27T12:00	28450	16	-46.6		116	11	10.8
2025-08-27T12:00	28500	16	-46.6		123	11	10.8
2025-08-27T12:00	28550	16	-46.7		128	10	10.8
2025-08-27T12:00	28600	15	-46.5		128	10	10.8
2025-08-27T12:00	28650	15	-46.1		124	9	10.7
2025-08-27T12:00	28700	15	-45.8		120	9	10.7
2025-08-27T12:00	28750	15	-45.4		122	9	10.6
2025-08-27T12:00	28800	15	-45.2		125	10	10.6
2025-08-27T12:00	28850	15	-44.9		130	9	10.5
2025-08-27T12:00	28900	15	-44.7		137	8	10.4
2025-08-27T12:00	28950	15	-44.7		144	7	10.4
2025-08-27T12:00	29000	15	-45.0		152	7	10.4
2025-08-27T12:00	29050	14	-45.3		162	6	10.3
2025-08-27T12:00	29100	14	-45.6		175	5	10.2
2025-08-27T12:00	29150	14	-45.6		188	3	10.1
2025-08-27T12:00	29200	14	-45.5		190	2	10.0
2025-08-27T12:00	29250	14	-45.4		155	1	9.9
2025-08-27T12:00	29300	14	-45.3		111	2	9.9
2025-08-27T12:00	29350	14	-44.9		103	4	9.8
2025-08-27T12:00	29400	14	-44.3		101	5	9.8
2025-08-27T12:00	29450	14	-43.8		100	6	9.6
2025-08-27T12:00	29500	14	-43.5		97	6	9.7
2025-08-27T12:00	29550	13	-43.5		93	7	9.7
2025-08-27T12:00	29600	13	-43.6		86	7	9.5
2025-08-27T12:00	29650	13	-43.7		78	7	9.5
2025-08-27T12:00	29700	13	-43.7		75	7	9.5
2025-08-27T12:00	29750	13	-43.8		77	6	9.4
2025-08-27T12:00	29800	13	-44.0		79	6	9.3
2025-08-27T12:00	29850	13	-44.1		78	6	9.3
2025-08-27T12:00	29900	13	-44.2		75	7	9.3
2025-08-27T12:00	29950	13	-44.3		73	7	9.2
2025-08-27T12:00	30000	13	-44.3		75	8	9.2
2025-08-27T12:00	30050	12	-44.2		79	9	9.1
2025-08-27T12:00	30100	12	-44.2		83	9	9.1
2025-08-27T12:00	30150	12	-44.3		87	9	9.1
2025-08-27T12:00	30200	12	-44.5		93	8	9.0
2025-08-27T12:00	30250	12	-44.6		99	8	8.9
2025-08-27T12:00	30300	12	-44.7		105	8	8.8
2025-08-27T12:00	30350	12	-44.7		110	9	8.8
2025-08-27T12:00	30400	12	-44.7		114	9	8.7
2025-08-27T12:00	30450	12	-44.7		117	8	8.6
2025-08-27T12:00	30500	12	-44.8		120	8	8.5
2025-08-27T12:00	30550	12	-44.9		122	7	8.5
2025-08-27T12:00	30600	11	-44.8		123	6	8.4
2025-08-27T12:00	30650	11	-44.8		123	5	8.3
2025-08-27T12:00	30700	11	-44.8		122	5	8.2
2025-08-27T12:00	30750	11	-44.8		116	4	8.2
2025-08-27T12:00	30800	11	-44.7		105	4	8.1
2025-08-27T12:00	30850	11	-44.6		86	4	8.1
2025-08-27T12:00	30900	11	-44.5		66	4	8.0
2025-08-27T12:00	30950	11	-44.3		56	4	7.9
2025-08-27T12:00	31000	11	-44.1		53	5	7.9
2025-08-27T12:00	31050	11	-44.0		57	5	7.8
2025-08-27T12:00	31100	11	-44.0		67	5	7.7
2025-08-27T12:00	31150	11	-44.1		81	5	7.6
2025-08-27T12:00	31200	11	-44.2		93	5	7.6
2025-08-27T12:00	31250	10	-44.3		94	4	7.6
2025-08-27T12:00	31300	10	-43.9		80	4	7.5
2025-08-27T12:00	31350	10	-43.7		53	4	7.4
2025-08-27T12:00	31400	10	-43.6		29	5	7.3
2025-08-27T12:00	31450	10	-43.3		19	7	7.3
2025-08-27T12:00	31500	10	-43.1		18	9	7.2
2025-08-27T12:00	31550	10	-42.7		22	10	7.2
2025-08-27T12:00	31600	10	-42.2		28	11	7.1
2025-08-27T12:00	31650	10	-42.0		36	11	7.1
2025-08-27T12:00	31700	10	-42.1		44	11	7.1
2025-08-27T12:00	31750	10	-42.2		53	11	7.0
2025-08-27T12:00	31800	10	-42.1		59	10	6.9
2025-08-27T12:00	31850	10	-42.0		60	9	6.8
2025-08-27T12:00	31900	9	-41.9		60	8	6.7
2025-08-27T12:00	31950	9	-41.8		68	8	6.7
2025-08-27T12:00	32000	9	-41.7		77	8	6.7
2025-08-27T12:00	32050	9	-41.6		77	7	6.6
2025-08-27T12:00	32100	9	-41.4		74	7	6.5
2025-08-27T12:00	32150	9	-41.2		78	7	6.5
2025-08-27T12:00	32200	9	-41.0		83	7	6.5
2025-08-27T12:00	32250	9	-40.9		86	8	6.4
2025-08-27T12:00	32300	9	-40.6		90	7	6.4
2025-08-27T12:00	32350	9	-40.4		101	7	6.3
2025-08-27T12:00	32400	9	-40.4		114	8	6.2
2025-08-27T12:00	32450	9	-40.5		119	8	6.1
2025-08-27T12:00	32500	9	-40.6		114	7	6.1
2025-08-27T12:00	32550	9	-40.5		105	6	6.1
2025-08-27T12:00	32600	9	-40.4		94	5	6.0
2025-08-27T12:00	32650	8	-40.2		81	4	6.0
2025-08-27T12:00	32700	8	-40.0		64	4	5.9
2025-08-27T12:00	32750	8	-39.7		54	4	5.9
2025-08-27T12:00	32800	8	-39.4		50	5	5.9
2025-08-27T12:00	32850	8	-39.2		47	7	5.8
2025-08-27T12:00	32900	8	-39.0		44	7	5.8
2025-08-27T12:00	32950	8	-38.6		46	7	5.8
2025-08-27T12:00	33000	8	-38.3		55	6	5.7
2025-08-27T12:00	33050	8	-38.3		68	5	5.7
2025-08-27T12:00	33100	8	-38.5		80	5	5.6
2025-08-27T12:00	33150	8	-38.7		85	6	5.6
2025-08-27T12:00	33200	8	-38.8		78	6	5.5
2025-08-27T12:00	33250	8	-38.9		68	7	5.5
2025-08-27T12:00	33300	8	-39.0		61	7	5.4
2025-08-27T12:00	33350	8	-38.8		58	8	5.4
2025-08-27T12:00	33400	8	-38.8		59	8	5.3
2025-08-27T12:00	33450	8	-38.9		63	9	5.3
2025-08-27T12:00	33500	7	-38.9		71	9	5.3
2025-08-27T12:00	33550	7	-38.9		80	8	5.2
2025-08-27T12:00	33600	7	-38.8		85	8	5.2
2025-08-27T12:00	33650	7	-38.7		84	7	5.1
2025-08-27T12:00	33700	7	-38.9		82	7	5.1
2025-08-27T12:00	33750	7	-39.0		82	7	5.0
2025-08-27T12:00	33800	7	-38.8		84	7	5.0
2025-08-27T12:00	33850	7	-38.4		87	8	5.0
2025-08-27T12:00	33900	7	-38.0		91	9	4.9
2025-08-27T12:00	33950	7	-37.5		97	10	4.9
2025-08-27T12:00	34000	7	-37.5		102	11	4.8
2025-08-27T12:00	34050	7	-37.7		106	12	4.8
2025-08-27T12:00	34100	7	-37.7		111	13	4.7
2025-08-27T12:00	34150	7	-37.5		115	13	4.7
2025-08-27T12:00	34200	7	-37.2		118	13	4.7
2025-08-27T12:00	34250	7	-37.1		118	13	4.6
2025-08-27T12:00	34300	7	-36.9		117	13	4.6
2025-08-27T12:00	34350	7	-36.9		114	12	4.6
2025-08-27T12:00	34400	7	-36.9		109	11	4.5
2025-08-27T12:00	34450	7	-37.0		102	10	4.5
2025-08-27T12:00	34500	6	-37.3		94	9	4.5
2025-08-27T12:00	34550	6	-37.4		85	9	4.5
2025-08-27T12:00	34600	6	-37.4		77	8	4.4
2025-08-27T12:00	34650	6	-37.3		74	8	4.4
2025-08-27T12:00	34700	6	-37.0		78	9	4.4
2025-08-27T12:00	34750	6	-36.9		84	9	4.3
2025-08-27T12:00	34800	6	-37.0		92	10	4.3
2025-08-27T12:00	34850	6	-37.1		102	10	4.3
2025-08-27T12:00	34900	6	-37.0		110	11	4.3
2025-08-27T12:00	34950	6	-36.8		115	13	4.2
2025-08-27T12:00	35000	6	-36.6		119	13	4.2
2025-08-27T12:00	35050	6	-36.4		121	13	4.1
2025-08-27T12:00	35100	6	-36.2		120	13	4.0
2025-08-27T12:00	35150	6	-36.0		120	12	4.0
2025-08-27T12:00	35200	6	-36.1		118	11	4.0
2025-08-27T12:00	35250	6	-36.1		116	11	3.9
2025-08-27T12:00	35300	6	-35.9		118	11	3.9
2025-08-27T12:00	35350	6	-35.7		120	11	3.9
2025-08-27T12:00	35400	6	-35.5		121	10	3.8
2025-08-27T12:00	35450	6	-35.2		119	9	3.8
2025-08-27T12:00	35500	6	-34.9		116	9	3.8
2025-08-27T12:00	35550	6	-34.6		112	9	3.8
2025-08-27T12:00	35600	6	-34.3		109	10	3.7
2025-08-28T00:00	491	952	19.4	17.4	241	1	
2025-08-28T00:00	501	951	19.5	17.2	256	2	
2025-08-28T00:00	520	949	19.7	17.0	259	3	
2025-08-28T00:00	540	947	19.8	16.8	257	4	
2025-08-28T00:00	560	945	19.9	16.9	256	4	
2025-08-28T00:00	580	943	20.1	17.1	253	4	
2025-08-28T00:00	600	941	20.0	17.2	249	4	
2025-08-28T00:00	620	938	19.9	17.3	244	4	
2025-08-28T00:00	640	936	19.7	17.4	238	3	
2025-08-28T00:00	660	934	19.6	17.3	233	3	
2025-08-28T00:00	680	932	19.7	16.9	230	3	
2025-08-28T00:00	700	930	19.5	16.9	230	3	
2025-08-28T00:00	720	928	19.4	16.8	231	3	
2025-08-28T00:00	740	925	19.3	16.4	230	4	
2025-08-28T00:00	760	923	19.4	15.6	229	4	
2025-08-28T00:00	780	921	19.4	14.8	226	4	
2025-08-28T00:00	800	919	19.7	14.0	224	5	
2025-08-28T00:00	820	917	19.7	13.9	222	5	
2025-08-28T00:00	840	915	19.6	13.8	222	5	
2025-08-28T00:00	860	913	19.4	13.7	222	5	
2025-08-28T00:00	880	911	19.3	13.7	224	5	
2025-08-28T00:00	900	908	19.1	13.6	228	5	
2025-08-28T00:00	920	906	18.9	13.5	233	5	
2025-08-28T00:00	940	904	18.8	13.5	237	5	
2025-08-28T00:00	960	902	18.7	13.6	237	5	
2025-08-28T00:00	980	900	18.5	13.6	234	5	
2025-08-28T00:00	1000	898	18.3	13.6	232	5	
2025-08-28T00:00	1020	896	18.1	13.4	231	6	
2025-08-28T00:00	1040	894	17.9	13.4	232	6	
2025-08-28T00:00	1060	892	17.9	13.6	237	6	
2025-08-28T00:00	1080	889	17.8	13.5	246	7	
2025-08-28T00:00	1100	887	17.8	13.3	252	8	
2025-08-28T00:00	1120	885	17.8	13.2	254	8	
2025-08-28T00:00	1140	883	17.8	12.9	252	7	
2025-08-28T00:00	1160	881	17.6	12.8	247	7	
2025-08-28T00:00	1180	879	17.5	12.8	241	6	
2025-08-28T00:00	1200	877	17.3	12.7	231	5	
2025-08-28T00:00	1220	875	17.1	12.6	220	5	
2025-08-28T00:00	1240	873	16.9	12.6	216	6	
2025-08-28T00:00	1260	871	16.7	12.6	216	7	
2025-08-28T00:00	1280	869	16.5	12.5	218	8	
2025-08-28T00:00	1300	867	16.4	12.6	220	9	
2025-08-28T00:00	1320	865	16.3	12.7	221	10	
2025-08-28T00:00	1340	863	16.3	12.8	221	10	
2025-08-28T00:00	1360	861	16.3	12.9	221	10	
2025-08-28T00:00	1380	859	16.1	12.8	222	11	
2025-08-28T00:00	1400	857	16.0	12.8	224	11	
2025-08-28T00:00	1420	855	15.8	12.7	228	12	
2025-08-28T00:00	1440	853	15.7	12.7	231	12	
2025-08-28T00:00	1460	851	15.6	12.7	235	12	
2025-08-28T00:00	1480	849	15.5	12.7	236	12	
2025-08-28T00:00	1500	847	15.4	12.6	235	12	
2025-08-28T00:00	1520	845	15.3	12.6	233	11	
2025-08-28T00:00	1540	843	15.1	12.5	230	11	
2025-08-28T00:00	1560	841	15.0	12.3	228	11	
2025-08-28T00:00	1580	839	15.0	12.1	228	11	
2025-08-28T00:00	1600	837	15.0	11.8	229	11	
2025-08-28T00:00	1620	835	15.0	11.6	229	12	
2025-08-28T00:00	1640	833	14.9	11.5	228	12	
2025-08-28T00:00	1660	831	14.7	11.5	226	12	
2025-08-28T00:00	1680	829	14.5	11.5	225	12	
2025-08-28T00:00	1700	827	14.4	11.3	224	12	
2025-08-28T00:00	1720	825	14.2	11.1	224	11	
2025-08-28T00:00	1740	823	14.1	10.9	224	11	
2025-08-28T00:00	1760	821	14.0	10.7	224	10	
2025-08-28T00:00	1780	819	13.9	10.2	222	9	
2025-08-28T00:00	1800	817	13.8	9.9	219	9	
2025-08-28T00:00	1820	816	13.7	10.2	215	8	
2025-08-28T00:00	1840	813	13.6	10.2	211	8	
2025-08-28T00:00	1860	812	13.4	10.4	209	8	
2025-08-28T00:00	1880	810	13.2	10.3	208	8	
2025-08-28T00:00	1900	808	13.2	10.0	208	8	
2025-08-28T00:00	1920	806	13.2	10.0	208	9	
2025-08-28T00:00	1940	804	13.0	10.0	208	9	
2025-08-28T00:00	1960	802	12.9	9.7	208	9	
2025-08-28T00:00	1980	800	12.8	9.4	208	9	
2025-08-28T00:00	2000	798	12.6	9.4	207	9	
2025-08-28T00:00	2020	796	12.5	9.4	207	9	
2025-08-28T00:00	2040	794	12.3	9.3	209	9	
2025-08-28T00:00	2060	793	12.2	9.1	213	9	
2025-08-28T00:00	2080	791	12.0	9.1	216	9	
2025-08-28T00:00	2100	789	11.8	9.1	220	10	
2025-08-28T00:00	2120	787	11.6	9.0	223	10	
2025-08-28T00:00	2140	785	11.4	8.9	225	11	
2025-08-28T00:00	2160	783	11.3	8.9	226	11	
2025-08-28T00:00	2180	781	11.1	8.8	228	11	
2025-08-28T00:00	2200	779	11.0	8.7	230	10	
2025-08-28T00:00	2220	778	10.8	8.6	232	10	
2025-08-28T00:00	2240	776	10.6	8.6	232	10	
2025-08-28T00:00	2260	774	10.4	8.5	231	10	
2025-08-28T00:00	2280	772	10.2	8.5	228	11	
2025-08-28T00:00	2300	770	10.1	8.5	225	11	
2025-08-28T00:00	2320	768	9.9	8.4	223	12	
2025-08-28T00:00	2340	767	9.7	8.4	221	12	
2025-08-28T00:00	2360	765	9.5	8.2	219	13	
2025-08-28T00:00	2380	763	9.4	8.0	216	13	
2025-08-28T00:00	2400	761	9.2	7.7	214	12	
2025-08-28T00:00	2420	759	9.1	7.7	211	12	
2025-08-28T00:00	2440	757	8.9	7.7	210	12	
2025-08-28T00:00	2460	756	8.7	7.6	210	12	
2025-08-28T00:00	2480	754	8.5	7.4	210	12	
2025-08-28T00:00	2500	752	8.3	7.3	210	12	
2025-08-28T00:00	2520	750	8.2	7.1	211	12	
2025-08-28T00:00	2540	748	8.1	6.9	212	12	
2025-08-28T00:00	2560	746	8.0	6.8	212	13	
2025-08-28T00:00	2580	745	7.8	6.8	213	13	
2025-08-28T00:00	2600	743	7.6	6.8	213	14	
2025-08-28T00:00	2620	741	7.4	6.8	214	14	
2025-08-28T00:00	2640	739	7.2	6.7	214	15	
2025-08-28T00:00	2660	738	7.2	6.4	215	15	
2025-08-28T00:00	2680	736	7.2	6.3	215	16	
2025-08-28T00:00	2700	734	7.0	6.4	216	16	
2025-08-28T00:00	2720	732	6.8	6.3	216	17	
2025-08-28T00:00	2740	730	6.7	6.3	216	17	
2025-08-28T00:00	2760	729	6.7	6.2	216	17	
2025-08-28T00:00	2780	727	6.6	6.0	216	17	
2025-08-28T00:00	2800	725	6.5	6.0	216	18	
2025-08-28T00:00	2820	723	6.5	5.8	215	18	
2025-08-28T00:00	2840	722	6.3	5.7	214	18	
2025-08-28T00:00	2860	720	6.2	5.6	214	18	
2025-08-28T00:00	2880	718	6.1	5.5	213	18	
2025-08-28T00:00	2900	716	6.0	5.3	213	18	
2025-08-28T00:00	2920	714	5.9	5.3	213	18	
2025-08-28T00:00	2940	713	5.7	5.2	213	18	
2025-08-28T00:00	2960	711	5.5	5.1	214	19	
2025-08-28T00:00	2980	709	5.4	5.1	214	19	
2025-08-28T00:00	3000	708	5.2	5.1	214	19	
2025-08-28T00:00	3020	706	5.1	4.9	215	20	
2025-08-28T00:00	3040	704	5.0	4.9	214	20	
2025-08-28T00:00	3060	702	4.9	4.9	214	20	
2025-08-28T00:00	3080	701	4.8	4.8	214	20	
2025-08-28T00:00	3100	699	4.7	4.7	213	21	
2025-08-28T00:00	3120	697	4.6	4.6	213	21	
2025-08-28T00:00	3140	695	4.5	4.5	213	21	
2025-08-28T00:00	3160	694	4.4	4.4	212	21	
2025-08-28T00:00	3180	692	4.4	4.4	212	21	
2025-08-28T00:00	3200	691	4.2	4.2	213	21	
2025-08-28T00:00	3220	689	4.1	4.1	213	22	
2025-08-28T00:00	3240	687	4.0	4.0	214	22	
2025-08-28T00:00	3260	685	3.9	3.9	214	22	
2025-08-28T00:00	3280	684	3.8	3.8	215	22	
2025-08-28T00:00	3300	682	3.7	3.7	216	22	
2025-08-28T00:00	3320	680	3.6	3.6	216	22	
2025-08-28T00:00	3340	679	3.5	3.5	216	21	
2025-08-28T00:00	3360	677	3.3	3.3	217	21	
2025-08-28T00:00	3380	676	3.2	3.2	218	21	
2025-08-28T00:00	3400	674	3.1	3.1	220	21	
2025-08-28T00:00	3420	672	2.9	2.9	222	21	
2025-08-28T00:00	3440	670	2.7	2.7	224	21	
2025-08-28T00:00	3460	669	2.6	2.5	226	20	
2025-08-28T00:00	3480	667	2.4	2.3	227	20	
2025-08-28T00:00	3500	665	2.3	2.2	226	19	
2025-08-28T00:00	3520	664	2.2	2.1	226	19	
2025-08-28T00:00	3540	662	2.0	1.8	225	19	
2025-08-28T00:00	3560	661	1.9	1.8	225	19	
2025-08-28T00:00	3580	659	1.8	1.8	226	19	
2025-08-28T00:00	3600	657	1.7	1.7	226	19	
2025-08-28T00:00	3620	656	1.6	1.3	227	19	
2025-08-28T00:00	3640	654	1.6	1.2	226	19	
2025-08-28T00:00	3660	653	1.5	1.1	225	19	
2025-08-28T00:00	3680	651	1.3	1.0	222	19	
2025-08-28T00:00	3700	649	1.1	0.9	219	19	
2025-08-28T00:00	3720	648	1.0	1.0	217	20	
2025-08-28T00:00	3740	646	0.9	0.9	215	20	
2025-08-28T00:00	3760	644	0.8	0.8	215	21	
2025-08-28T00:00	3780	643	0.7	0.7	215	22	
2025-08-28T00:00	3800	641	0.6	0.6	216	22	
2025-08-28T00:00	3820	640	0.5	0.5	218	23	
2025-08-28T00:00	3840	638	0.5	0.5	221	23	
2025-08-28T00:00	3860	636	0.3	0.3	224	22	
2025-08-28T00:00	3880	635	0.2	0.2	227	22	
2025-08-28T00:00	3900	633	0.1	0.1	227	21	
2025-08-28T00:00	3920	632	0.0	0.0	227	20	
2025-08-28T00:00	3940	630	-0.2	-0.2	226	19	
2025-08-28T00:00	3960	628	-0.3	-0.3	224	19	
2025-08-28T00:00	3980	627	-0.4	-0.4	221	18	
2025-08-28T00:00	4000	625	-0.5	-0.5	219	18	
2025-08-28T00:00	4020	624	-0.6	-0.6	218	18	
2025-08-28T00:00	4040	622	-0.7	-0.7	218	17	
2025-08-28T00:00	4060	621	-0.8	-0.8	219	17	
2025-08-28T00:00	4080	619	-0.9	-0.9	222	16	
2025-08-28T00:00	4100	618	-1.1	-1.1	224	16	
2025-08-28T00:00	4120	616	-1.1	-1.1	227	16	
2025-08-28T00:00	4140	615	-1.2	-1.2	229	17	
2025-08-28T00:00	4160	613	-1.3	-1.3	230	18	
2025-08-28T00:00	4180	611	-1.4	-1.4	231	18	
2025-08-28T00:00	4200	610	-1.5	-1.5	231	18	
2025-08-28T00:00	4220	608	-1.6	-1.6	229	18	
2025-08-28T00:00	4240	607	-1.7	-1.7	227	18	
2025-08-28T00:00	4260	605	-1.8	-1.8	223	18	
2025-08-28T00:00	4280	604	-1.9	-1.9	220	18	
2025-08-28T00:00	4300	602	-2.0	-2.0	218	18	
2025-08-28T00:00	4320	601	-2.1	-2.1	218	19	
2025-08-28T00:00	4340	599	-2.2	-2.2	219	20	
2025-08-28T00:00	4360	598	-2.3	-2.3	220	21	
2025-08-28T00:00	4380	596	-2.4	-2.4	222	21	
2025-08-28T00:00	4400	595	-2.5	-2.5	224	22	
2025-08-28T00:00	4420	593	-2.6	-2.6	225	22	
2025-08-28T00:00	4440	592	-2.7	-2.7	224	22	
2025-08-28T00:00	4460	590	-2.7	-2.8	223	22	
2025-08-28T00:00	4480	589	-2.8	-2.9	222	22	
2025-08-28T00:00	4500	587	-2.9	-3.0	220	21	
2025-08-28T00:00	4520	586	-3.1	-3.1	218	21	
2025-08-28T00:00	4540	584	-3.2	-3.2	217	20	
2025-08-28T00:00	4560	583	-3.3	-3.3	217	20	
2025-08-28T00:00	4580	581	-3.4	-3.4	218	20	
2025-08-28T00:00	4600	580	-3.5	-3.5	219	21	
2025-08-28T00:00	4620	578	-3.5	-3.6	221	21	
2025-08-28T00:00	4640	577	-3.6	-3.7	224	21	
2025-08-28T00:00	4660	576	-3.7	-3.8	225	21	
2025-08-28T00:00	4680	574	-3.9	-3.9	228	21	
2025-08-28T00:00	4700	573	-4.0	-4.0	229	21	
2025-08-28T00:00	4720	571	-4.1	-4.1	230	21	
2025-08-28T00:00	4740	570	-4.2	-4.2	231	20	
2025-08-28T00:00	4760	568	-4.3	-4.3	231	20	
2025-08-28T00:00	4780	567	-4.4	-4.4	230	20	
2025-08-28T00:00	4800	566	-4.5	-4.5	228	20	
2025-08-28T00:00	4820	564	-4.6	-4.6	226	21	
2025-08-28T00:00	4840	563	-4.7	-4.8	224	21	
2025-08-28T00:00	4860	561	-4.8	-4.9	222	21	
2025-08-28T00:00	4880	560	-4.8	-4.9	221	21	
2025-08-28T00:00	4900	558	-4.9	-5.0	220	21	
2025-08-28T00:00	4920	557	-5.0	-5.1	219	21	
2025-08-28T00:00	4940	556	-5.2	-5.2	220	22	
2025-08-28T00:00	4960	554	-5.3	-5.3	220	21	
2025-08-28T00:00	4980	553	-5.4	-5.4	221	21	
2025-08-28T00:00	5000	551	-5.5	-5.5	221	21	
2025-08-28T00:00	5020	550	-5.5	-5.6	220	21	
2025-08-28T00:00	5040	549	-5.6	-5.6	219	20	
2025-08-28T00:00	5060	547	-5.6	-5.8	218	20	
2025-08-28T00:00	5080	546	-5.7	-5.8	216	20	
2025-08-28T00:00	5100	544	-5.8	-6.0	216	19	
2025-08-28T00:00	5120	543	-5.8	-6.1	215	19	
2025-08-28T00:00	5140	542	-5.9	-6.3	215	19	
2025-08-28T00:00	5160	540	-6.0	-6.3	216	18	
2025-08-28T00:00	5180	539	-6.2	-6.3	218	18	
2025-08-28T00:00	5200	537	-6.2	-6.4	219	18	
2025-08-28T00:00	5220	536	-6.4	-6.6	221	18	
2025-08-28T00:00	5240	535	-6.6	-6.8	223	18	
2025-08-28T00:00	5260	533	-6.7	-6.8	226	18	
2025-08-28T00:00	5280	532	-6.8	-7.0	227	18	
2025-08-28T00:00	5300	531	-7.0	-7.2	227	18	
2025-08-28T00:00	5320	529	-7.2	-7.4	227	18	
2025-08-28T00:00	5340	528	-7.2	-7.5	227	18	
2025-08-28T00:00	5360	527	-7.2	-7.5	227	18	
2025-08-28T00:00	5380	525	-7.4	-7.7	228	18	
2025-08-28T00:00	5400	524	-7.6	-8.0	228	17	
2025-08-28T00:00	5420	523	-7.9	-9.3	229	17	
2025-08-28T00:00	5440	521	-8.2	-9.3	230	17	
2025-08-28T00:00	5460	520	-8.4	-9.4	231	17	
2025-08-28T00:00	5480	519	-8.7	-9.7	232	17	
2025-08-28T00:00	5500	517	-8.9	-9.9	233	17	
2025-08-28T00:00	5520	516	-9.2	-10.0	235	17	
2025-08-28T00:00	5540	514	-9.5	-10.3	236	18	
2025-08-28T00:00	5560	513	-9.6	-10.4	238	18	
2025-08-28T00:00	5580	512	-9.8	-10.4	238	18	
2025-08-28T00:00	5600	511	-9.9	-10.4	238	18	
2025-08-28T00:00	5620	509	-10.3	-11.3	238	18	
2025-08-28T00:00	5640	508	-10.6	-12.0	237	18	
2025-08-28T00:00	5660	507	-10.7	-12.1	237	18	
2025-08-28T00:00	5680	505	-10.9	-12.4	238	18	
2025-08-28T00:00	5700	504	-11.0	-12.9	239	18	
2025-08-28T00:00	5720	502	-11.2	-13.1	240	18	
2025-08-28T00:00	5740	501	-11.3	-13.0	241	18	
2025-08-28T00:00	5760	500	-11.5	-13.3	242	18	
2025-08-28T00:00	5780	499	-11.6	-14.2	243	18	
2025-08-28T00:00	5800	497	-11.8	-14.6	243	18	
2025-08-28T00:00	5820	496	-12.0	-15.0	243	18	
2025-08-28T00:00	5840	495	-12.3	-16.1	243	18	
2025-08-28T00:00	5860	494	-12.4	-16.3	243	18	
2025-08-28T00:00	5880	492	-12.6	-16.3	243	19	
2025-08-28T00:00	5900	491	-12.7	-16.4	242	19	
2025-08-28T00:00	5920	490	-12.8	-16.3	243	19	
2025-08-28T00:00	5940	488	-12.8	-16.3	244	18	
2025-08-28T00:00	5960	487	-12.8	-15.9	244	18	
2025-08-28T00:00	5980	486	-12.9	-16.4	245	18	
2025-08-28T00:00	6000	485	-13.2	-17.4	245	18	
2025-08-28T00:00	6020	483	-13.4	-18.1	246	17	
2025-08-28T00:00	6040	482	-13.7	-19.0	247	17	
2025-08-28T00:00	6060	481	-13.9	-20.1	249	17	
2025-08-28T00:00	6080	479	-14.2	-20.7	250	17	
2025-08-28T00:00	6100	478	-13.8	-19.1	250	17	
2025-08-28T00:00	6120	477	-13.9	-19.7	250	17	
2025-08-28T00:00	6140	476	-14.1	-20.1	250	17	
2025-08-28T00:00	6160	474	-14.2	-20.6	250	17	
2025-08-28T00:00	6180	473	-14.4	-21.0	250	17	
2025-08-28T00:00	6200	472	-14.6	-21.5	249	17	
2025-08-28T00:00	6220	471	-14.7	-21.9	249	17	
2025-08-28T00:00	6240	469	-14.8	-21.8	248	17	
2025-08-28T00:00	6260	468	-14.9	-21.9	248	18	
2025-08-28T00:00	6280	467	-15.1	-22.7	247	18	
2025-08-28T00:00	6300	466	-15.4	-25.0	247	18	
2025-08-28T00:00	6320	464	-15.6	-26.7	247	19	
2025-08-28T00:00	6340	463	-15.8	-27.8	247	19	
2025-08-28T00:00	6360	462	-16.0	-27.9	248	19	
2025-08-28T00:00	6380	461	-16.0	-28.0	248	19	
2025-08-28T00:00	6400	460	-16.1	-27.5	247	20	
2025-08-28T00:00	6420	458	-16.0	-27.2	247	20	
2025-08-28T00:00	6440	457	-15.9	-24.9	246	20	
2025-08-28T00:00	6460	456	-15.8	-23.0	245	20	
2025-08-28T00:00	6480	455	-15.9	-22.5	245	20	
2025-08-28T00:00	6500	454	-15.9	-22.8	245	20	
2025-08-28T00:00	6520	452	-16.2	-22.8	244	19	
2025-08-28T00:00	6540	451	-16.2	-22.7	244	19	
2025-08-28T00:00	6560	450	-16.4	-22.7	243	19	
2025-08-28T00:00	6580	449	-16.5	-22.4	242	19	
2025-08-28T00:00	6600	448	-16.7	-22.5	240	18	
2025-08-28T00:00	6620	446	-16.9	-22.6	238	18	
2025-08-28T00:00	6640	445	-17.0	-22.7	236	18	
2025-08-28T00:00	6660	444	-17.1	-22.9	235	19	
2025-08-28T00:00	6680	443	-17.3	-22.9	234	19	
2025-08-28T00:00	6700	442	-17.5	-22.9	234	19	
2025-08-28T00:00	6720	440	-17.7	-23.4	234	20	
2025-08-28T00:00	6740	439	-18.0	-24.2	235	20	
2025-08-28T00:00	6760	438	-18.2	-24.2	235	20	
2025-08-28T00:00	6780	437	-18.3	-24.3	236	21	
2025-08-28T00:00	6800	436	-18.5	-24.6	236	21	
2025-08-28T00:00	6820	435	-18.6	-24.8	236	21	
2025-08-28T00:00	6840	434	-18.8	-24.9	235	21	
2025-08-28T00:00	6860	432	-18.9	-25.3	235	21	
2025-08-28T00:00	6880	431	-19.0	-25.5	234	21	
2025-08-28T00:00	6900	430	-19.1	-26.8	234	20	
2025-08-28T00:00	6920	429	-19.4	-29.8	233	20	
2025-08-28T00:00	6940	428	-19.5	-30.3	233	20	
2025-08-28T00:00	6960	427	-19.7	-30.5	233	20	
2025-08-28T00:00	6980	425	-19.8	-29.9	234	20	
2025-08-28T00:00	7000	424	-19.8	-29.1	235	19	
2025-08-28T00:00	7020	423	-19.7	-28.7	235	19	
2025-08-28T00:00	7040	422	-19.8	-28.0	236	19	
2025-08-28T00:00	7060	421	-19.7	-25.2	237	19	
2025-08-28T00:00	7080	420	-19.8	-24.7	238	19	
2025-08-28T00:00	7100	419	-19.9	-23.9	239	19	
2025-08-28T00:00	7120	417	-20.0	-23.4	241	19	
2025-08-28T00:00	7140	416	-19.9	-22.1	241	19	
2025-08-28T00:00	7160	415	-19.9	-21.2	242	19	
2025-08-28T00:00	7180	414	-20.0	-21.2	242	19	
2025-08-28T00:00	7200	413	-20.2	-21.4	242	19	
2025-08-28T00:00	7220	412	-20.3	-21.5	242	19	
2025-08-28T00:00	7240	411	-20.5	-21.7	242	19	
2025-08-28T00:00	7260	410	-20.7	-21.9	243	19	
2025-08-28T00:00	7280	408	-20.8	-21.8	245	19	
2025-08-28T00:00	7300	407	-21.0	-21.9	246	19	
2025-08-28T00:00	7320	406	-21.1	-22.1	246	19	
2025-08-28T00:00	7340	405	-21.3	-22.6	245	19	
2025-08-28T00:00	7360	404	-21.5	-23.4	244	19	
2025-08-28T00:00	7380	403	-21.7	-23.7	243	19	
2025-08-28T00:00	7400	402	-21.9	-23.7	243	19	
2025-08-28T00:00	7420	401	-21.9	-23.4	243	19	
2025-08-28T00:00	7440	400	-22.1	-24.7	244	19	
2025-08-28T00:00	7460	399	-22.5	-27.5	245	19	
2025-08-28T00:00	7480	398	-22.6	-29.0	246	19	
2025-08-28T00:00	7500	396	-22.9	-32.7	246	19	
2025-08-28T00:00	7520	395	-23.0	-34.1	246	19	
2025-08-28T00:00	7540	394	-23.2	-37.3	247	19	
2025-08-28T00:00	7560	393	-23.4	-40.5	247	19	
2025-08-28T00:00	7580	392	-23.6	-40.2	249	18	
2025-08-28T00:00	7600	391	-23.6	-40.4	251	18	
2025-08-28T00:00	7620	390	-23.7	-38.6	253	18	
2025-08-28T00:00	7640	389	-23.7	-34.1	254	18	
2025-08-28T00:00	7660	388	-23.6	-34.7	255	18	
2025-08-28T00:00	7680	387	-23.7	-36.8	256	18	
2025-08-28T00:00	7700	386	-23.8	-38.0	256	18	
2025-08-28T00:00	7720	385	-24.0	-37.6	255	18	
2025-08-28T00:00	7740	384	-24.2	-38.0	255	17	
2025-08-28T00:00	7760	383	-24.2	-39.3	256	16	
2025-08-28T00:00	7780	382	-24.3	-37.6	257	16	
2025-08-28T00:00	7800	380	-24.1	-34.5	258	16	
2025-08-28T00:00	7820	379	-24.2	-34.8	259	15	
2025-08-28T00:00	7840	378	-24.4	-34.8	259	15	
2025-08-28T00:00	7860	377	-24.6	-35.1	259	15	
2025-08-28T00:00	7880	376	-24.8	-35.1	258	15	
2025-08-28T00:00	7900	375	-25.0	-35.2	257	15	
2025-08-28T00:00	7920	374	-25.1	-34.7	256	16	
2025-08-28T00:00	7940	373	-25.2	-34.8	255	16	
2025-08-28T00:00	7960	372	-25.4	-35.3	255	16	
2025-08-28T00:00	7980	371	-25.5	-35.4	254	16	
2025-08-28T00:00	8000	370	-25.7	-35.6	254	16	
2025-08-28T00:00	8020	369	-25.9	-35.3	254	16	
2025-08-28T00:00	8040	368	-26.0	-35.5	253	16	
2025-08-28T00:00	8060	367	-26.2	-35.4	252	16	
2025-08-28T00:00	8080	366	-26.4	-35.6	251	16	
2025-08-28T00:00	8100	365	-26.5	-35.6	250	16	
2025-08-28T00:00	8120	364	-26.7	-35.9	248	16	
2025-08-28T00:00	8140	363	-26.9	-35.6	247	16	
2025-08-28T00:00	8160	362	-26.9	-35.4	247	16	
2025-08-28T00:00	8180	361	-27.1	-35.6	246	16	
2025-08-28T00:00	8200	360	-27.3	-36.0	246	17	
2025-08-28T00:00	8220	359	-27.5	-35.8	245	17	
2025-08-28T00:00	8240	358	-27.6	-35.7	245	17	
2025-08-28T00:00	8260	357	-27.8	-35.6	244	17	
2025-08-28T00:00	8280	356	-27.9	-35.5	244	17	
2025-08-28T00:00	8300	355	-28.1	-35.7	243	18	
2025-08-28T00:00	8320	354	-28.2	-35.4	242	18	
2025-08-28T00:00	8340	353	-28.4	-35.6	241	19	
2025-08-28T00:00	8360	352	-28.6	-35.3	239	19	
2025-08-28T00:00	8380	351	-28.7	-34.9	238	19	
2025-08-28T00:00	8400	350	-28.9	-35.1	238	20	
2025-08-28T00:00	8420	349	-29.0	-35.1	238	20	
2025-08-28T00:00	8440	348	-29.0	-35.9	237	20	
2025-08-28T00:00	8460	347	-29.0	-36.7	238	20	
2025-08-28T00:00	8480	346	-29.1	-38.4	238	20	
2025-08-28T00:00	8500	345	-29.2	-36.5	238	21	
2025-08-28T00:00	8520	344	-29.3	-34.3	238	21	
2025-08-28T00:00	8540	343	-29.4	-34.6	237	21	
2025-08-28T00:00	8560	342	-29.6	-35.3	238	21	
2025-08-28T00:00	8580	341	-29.6	-34.5	238	21	
2025-08-28T00:00	8600	340	-29.8	-34.4	238	21	
2025-08-28T00:00	8620	340	-29.9	-34.9	238	21	
2025-08-28T00:00	8640	339	-30.1	-35.0	238	21	
2025-08-28T00:00	8660	338	-30.3	-35.3	238	21	
2025-08-28T00:00	8680	337	-30.5	-36.1	237	22	
2025-08-28T00:00	8700	336	-30.7	-36.3	237	22	
2025-08-28T00:00	8720	335	-30.8	-36.0	236	22	
2025-08-28T00:00	8740	334	-30.9	-35.6	235	22	
2025-08-28T00:00	8760	333	-31.1	-35.6	235	22	
2025-08-28T00:00	8780	332	-31.2	-35.5	235	22	
2025-08-28T00:00	8800	331	-31.3	-35.5	235	22	
2025-08-28T00:00	8820	330	-31.5	-35.6	235	22	
2025-08-28T00:00	8840	329	-31.7	-35.7	235	22	
2025-08-28T00:00	8860	328	-31.9	-35.7	235	22	
2025-08-28T00:00	8880	327	-32.0	-35.8	235	22	
2025-08-28T00:00	8900	326	-32.2	-36.0	235	22	
2025-08-28T00:00	8920	325	-32.4	-36.0	235	23	
2025-08-28T00:00	8940	324	-32.5	-36.2	236	23	
2025-08-28T00:00	8960	324	-32.7	-36.4	236	23	
2025-08-28T00:00	8980	323	-32.8	-36.4	236	23	
2025-08-28T00:00	9000	322	-33.0	-36.6	236	24	
2025-08-28T00:00	9020	321	-33.1	-36.7	235	24	
2025-08-28T00:00	9040	320	-33.2	-36.8	235	24	
2025-08-28T00:00	9060	319	-33.4	-36.9	234	24	
2025-08-28T00:00	9080	318	-33.6	-37.3	234	24	
2025-08-28T00:00	9100	317	-33.7	-37.4	235	24	
2025-08-28T00:00	9120	316	-33.8	-37.4	235	24	
2025-08-28T00:00	9140	315	-33.9	-37.4	236	24	
2025-08-28T00:00	9160	315	-34.0	-37.6	236	24	
2025-08-28T00:00	9180	314	-34.2	-37.5	237	24	
2025-08-28T00:00	9200	313	-34.3	-37.8	237	24	
2025-08-28T00:00	9220	312	-34.4	-37.9	237	24	
2025-08-28T00:00	9240	311	-34.6	-38.0	238	24	
2025-08-28T00:00	9260	310	-34.7	-38.1	239	24	
2025-08-28T00:00	9280	309	-34.9	-38.2	239	24	
2025-08-28T00:00	9300	308	-35.1	-38.4	240	24	
2025-08-28T00:00	9320	307	-35.3	-38.6	241	24	
2025-08-28T00:00	9340	307	-35.4	-38.7	241	24	
2025-08-28T00:00	9360	306	-35.6	-38.7	240	24	
2025-08-28T00:00	9380	305	-35.8	-38.9	240	24	
2025-08-28T00:00	9400	304	-36.0	-39.1	239	24	
2025-08-28T00:00	9420	303	-36.2	-39.2	238	24	
2025-08-28T00:00	9440	302	-36.3	-39.3	238	24	
2025-08-28T00:00	9460	301	-36.5	-39.5	238	24	
2025-08-28T00:00	9480	300	-36.7	-39.6	239	24	
2025-08-28T00:00	9500	300	-36.9	-39.8	239	24	
2025-08-28T00:00	9520	299	-37.0	-40.0	239	23	
2025-08-28T00:00	9540	298	-37.2	-40.0	240	23	
2025-08-28T00:00	9560	297	-37.4	-40.2	240	23	
2025-08-28T00:00	9580	296	-37.6	-40.4	241	23	
2025-08-28T00:00	9600	295	-37.8	-40.5	241	23	
2025-08-28T00:00	9620	294	-38.0	-40.6	241	23	
2025-08-28T00:00	9640	294	-38.1	-40.7	242	23	
2025-08-28T00:00	9660	293	-38.3	-40.8	242	23	
2025-08-28T00:00	9680	292	-38.5	-41.0	242	23	
2025-08-28T00:00	9700	291	-38.7	-41.3	242	23	
2025-08-28T00:00	9720	290	-38.9	-41.8	242	24	
2025-08-28T00:00	9740	289	-39.1	-41.7	242	24	
2025-08-28T00:00	9760	288	-39.2	-41.9	242	23	
2025-08-28T00:00	9780	288	-39.4	-41.8	242	23	
2025-08-28T00:00	9800	287	-39.6	-42.0	242	23	
2025-08-28T00:00	9820	286	-39.8	-42.1	242	23	
2025-08-28T00:00	9840	285	-40.0	-42.2	241	23	
2025-08-28T00:00	9860	284	-40.2	-42.3	241	23	
2025-08-28T00:00	9880	283	-40.4	-42.5	241	23	
2025-08-28T00:00	9900	283	-40.6	-42.7	241	23	
2025-08-28T00:00	9920	282	-40.7	-42.8	241	23	
2025-08-28T00:00	9940	281	-40.9	-42.8	241	23	
2025-08-28T00:00	9960	280	-41.1	-42.9	241	23	
2025-08-28T00:00	9980	279	-41.3	-43.1	241	23	
2025-08-28T00:00	10000	278	-41.5	-43.5	241	23	
2025-08-28T00:00	10018	278	-41.6	-43.8	241	23	
2025-08-28T00:00	10050	276	-42.0	-44.1	241	24	
2025-08-28T00:00	10100	274	-42.4	-44.6	241	24	
2025-08-28T00:00	10150	272	-42.9	-44.6	241	24	
2025-08-28T00:00	10200	270	-43.3	-45.2	241	24	
2025-08-28T00:00	10250	268	-43.8	-45.7	240	24	
2025-08-28T00:00	10300	266	-44.3	-45.7	240	24	
2025-08-28T00:00	10350	264	-44.7	-46.1	239	24	
2025-08-28T00:00	10400	262	-45.2	-46.5	238	24	
2025-08-28T00:00	10450	260	-45.7	-47.2	238	25	
2025-08-28T00:00	10500	259	-46.1	-47.9	238	25	
2025-08-28T00:00	10550	257	-46.6	-48.2	238	25	
2025-08-28T00:00	10600	255	-47.1	-48.8	237	26	
2025-08-28T00:00	10650	253	-47.7	-50.3	237	26	
2025-08-28T00:00	10700	251	-48.2	-50.3	237	25	
2025-08-28T00:00	10750	249	-48.7	-51.2	238	25	
2025-08-28T00:00	10800	247	-49.2	-52.4	237	25	
2025-08-28T00:00	10850	245	-49.6	-52.7	237	25	
2025-08-28T00:00	10900	243	-50.0	-52.7	237	25	
2025-08-28T00:00	10950	241	-50.5	-53.0	239	25	
2025-08-28T00:00	11000	240	-51.0	-53.8	241	25	
2025-08-28T00:00	11050	238	-51.6	-54.6	242	25	
2025-08-28T00:00	11100	236	-52.1	-54.8	243	26	
2025-08-28T00:00	11150	234	-52.4	-55.0	244	28	
2025-08-28T00:00	11200	232	-52.7	-57.0	246	30	
2025-08-28T00:00	11250	230	-52.9	-57.5	247	31	
2025-08-28T00:00	11300	229	-53.2	-57.6	247	33	
2025-08-28T00:00	11350	227	-53.2	-58.0	245	35	
2025-08-28T00:00	11400	225	-53.5	-57.8	245	35	
2025-08-28T00:00	11450	223	-53.9	-58.3	245	35	
2025-08-28T00:00	11500	222	-53.9	-59.3	245	34	
2025-08-28T00:00	11550	220	-53.6	-59.7	244	33	
2025-08-28T00:00	11600	218	-53.9	-59.6	244	32	
2025-08-28T00:00	11650	217	-54.4	-59.5	244	32	
2025-08-28T00:00	11700	215	-54.8	-59.7	244	31	
2025-08-28T00:00	11750	213	-55.2	-59.9	242	31	
2025-08-28T00:00	11800	212	-55.7	-59.9	240	30	
2025-08-28T00:00	11850	210	-56.0	-60.1	239	30	
2025-08-28T00:00	11900	208	-56.5	-60.3	238	30	
2025-08-28T00:00	11950	207	-56.8	-60.3	236	30	
2025-08-28T00:00	12000	205	-57.1	-60.5	235	29	
2025-08-28T00:00	12050	203	-57.5	-60.8	235	29	
2025-08-28T00:00	12100	202	-57.9	-61.4	236	29	
2025-08-28T00:00	12150	200	-58.1	-62.5	238	29	
2025-08-28T00:00	12200	199	-58.3	-63.1	240	30	
2025-08-28T00:00	12250	197	-58.4	-64.1	242	30	
2025-08-28T00:00	12300	195	-58.0	-67.3	244	31	
2025-08-28T00:00	12350	194	-58.0	-68.2	247	32	
2025-08-28T00:00	12400	192	-58.0	-69.0	248	33	
2025-08-28T00:00	12450	191	-57.7	-70.9	250	33	
2025-08-28T00:00	12500	189	-56.9	-71.3	252	34	
2025-08-28T00:00	12550	188	-56.7	-70.9	251	34	
2025-08-28T00:00	12600	186	-56.7	-71.2	250	33	
2025-08-28T00:00	12650	185	-56.4	-71.4	248	33	
2025-08-28T00:00	12700	183	-56.4	-71.0	246	32	
2025-08-28T00:00	12750	182	-56.2	-71.4	245	33	
2025-08-28T00:00	12800	181	-55.5	-71.3	245	34	
2025-08-28T00:00	12850	179	-55.3	-71.2	246	35	
2025-08-28T00:00	12900	178	-55.5	-71.6	247	35	
2025-08-28T00:00	12950	176	-55.7	-71.5	248	35	
2025-08-28T00:00	13000	175	-55.9	-71.6	248	35	
2025-08-28T00:00	13050	174	-56.0	-72.9	249	34	
2025-08-28T00:00	13100	172	-56.0	-72.7	249	33	
2025-08-28T00:00	13150	171	-56.0	-72.3	248	33	
2025-08-28T00:00	13200	170	-56.0	-72.7	246	33	
2025-08-28T00:00	13250	168	-56.1	-73.3	245	33	
2025-08-28T00:00	13300	167	-56.4	-73.7	244	33	
2025-08-28T00:00	13350	166	-56.8	-73.8	243	33	
2025-08-28T00:00	13400	164	-57.1	-73.6	243	34	
2025-08-28T00:00	13450	163	-57.4	-73.7	243	34	
2025-08-28T00:00	13500	162	-57.6	-73.9	243	34	
2025-08-28T00:00	13550	160	-57.5	-74.3	243	33	
2025-08-28T00:00	13600	159	-57.4	-74.5	243	32	
2025-08-28T00:00	13650	158	-57.8	-74.2	242	31	
2025-08-28T00:00	13700	157	-58.3	-73.9	242	31	
2025-08-28T00:00	13750	155	-58.7	-74.0	242	31	
2025-08-28T00:00	13800	154	-59.2	-74.4	243	32	
2025-08-28T00:00	13850	153	-59.3	-74.8	244	33	
2025-08-28T00:00	13900	152	-59.0	-75.2	245	33	
2025-08-28T00:00	13950	151	-57.7	-74.7	248	33	
2025-08-28T00:00	14000	149	-57.1	-73.9	252	31	
2025-08-28T00:00	14050	148	-56.0	-73.5	255	28	
2025-08-28T00:00	14100	147	-55.4	-74.0	259	26	
2025-08-28T00:00	14150	146	-55.3	-73.8	263	25	
2025-08-28T00:00	14200	145	-55.4	-73.4	263	24	
2025-08-28T00:00	14250	144	-55.7	-73.5	262	23	
2025-08-28T00:00	14300	143	-56.0	-73.5	259	21	
2025-08-28T00:00	14350	141	-56.3	-74.1	257	20	
2025-08-28T00:00	14400	140	-56.6	-74.9	257	19	
2025-08-28T00:00	14450	139	-57.0	-74.6	256	18	
2025-08-28T00:00	14500	138	-57.4	-74.7	255	18	
2025-08-28T00:00	14550	137	-57.8	-75.7	252	17	
2025-08-28T00:00	14600	136	-58.3	-76.0	248	18	
2025-08-28T00:00	14650	135	-58.7	-75.9	243	18	
2025-08-28T00:00	14700	134	-59.0	-75.8	239	19	
2025-08-28T00:00	14750	133	-59.4	-76.0	237	20	
2025-08-28T00:00	14800	132	-59.7	-76.4	235	21	
2025-08-28T00:00	14850	131	-60.0	-76.7	233	22	
2025-08-28T00:00	14900	130	-60.3	-77.0	233	23	
2025-08-28T00:00	14950	129	-60.2	-76.7	236	24	
2025-08-28T00:00	15000	127	-60.2	-76.6	238	24	
2025-08-28T00:00	15050	126	-60.4	-76.8	239	24	
2025-08-28T00:00	15100	125	-60.4	-77.0	241	24	
2025-08-28T00:00	15150	124	-60.5	-77.0	243	24	
2025-08-28T00:00	15200	123	-60.0	-76.8	243	22	
2025-08-28T00:00	15250	122	-59.0	-76.4	242	21	
2025-08-28T00:00	15300	122	-58.7	-76.7	244	21	
2025-08-28T00:00	15350	121	-58.0	-76.4	247	20	
2025-08-28T00:00	15400	120	-57.5	-75.9	251	19	
2025-08-28T00:00	15450	119	-57.7	-75.8	255	18	
2025-08-28T00:00	15500	118	-57.9	-75.9	257	16	
2025-08-28T00:00	15550	117	-58.1	-76.0	254	14	
2025-08-28T00:00	15600	116	-58.3	-76.0	250	14	
2025-08-28T00:00	15650	115	-58.6	-76.3	247	14	
2025-08-28T00:00	15700	114	-58.9	-76.6	245	15	
2025-08-28T00:00	15750	113	-59.0	-76.6	243	17	
2025-08-28T00:00	15800	112	-58.2	-76.2	243	18	
2025-08-28T00:00	15850	111	-58.1	-76.5	246	18	
2025-08-28T00:00	15900	110	-58.3	-76.6	249	17	
2025-08-28T00:00	15950	110	-58.1	-75.8	254	16	
2025-08-28T00:00	16000	109	-57.7	-75.4	256	16	
2025-08-28T00:00	16050	108	-57.2	-75.7	251	15	
2025-08-28T00:00	16100	107	-57.2	-75.8	245	14	
2025-08-28T00:00	16150	106	-56.8	-75.3	240	13	
2025-08-28T00:00	16200	105	-57.1	-75.1	235	13	
2025-08-28T00:00	16250	104	-57.3	-74.9	229	13	
2025-08-28T00:00	16300	104	-57.4	-75.0	225	14	
2025-08-28T00:00	16350	103	-57.6	-76.2	221	15	
2025-08-28T00:00	16400	102	-57.7	-78.0	220	16	
2025-08-28T00:00	16450	101	-57.4	-78.8	221	17	
2025-08-28T00:00	16500	100	-57.3	-77.1	226	17	
2025-08-28T00:00	16550	100	-57.1	-75.5	231	15	
2025-08-28T00:00	16600	99	-56.3	-75.6	232	13	
2025-08-28T00:00	16650	98	-56.1	-75.9	233	10	
2025-08-28T00:00	16700	97	-56.0	-75.6	236	9	
2025-08-28T00:00	16750	97	-56.2	-75.4	236	8	
2025-08-28T00:00	16800	96	-56.5	-75.6	233	8	
2025-08-28T00:00	16850	95	-56.8	-76.1	230	7	
2025-08-28T00:00	16900	94	-57.2	-75.7	228	7	
2025-08-28T00:00	16950	94	-57.1	-74.5	226	7	
2025-08-28T00:00	17000	93	-57.2	-74.3	227	8	
2025-08-28T00:00	17050	92	-57.3	-75.4	232	10	
2025-08-28T00:00	17100	91	-57.6	-76.7	237	10	
2025-08-28T00:00	17150	91	-58.0	-76.9	240	11	
2025-08-28T00:00	17200	90	-58.3	-76.4	242	11	
2025-08-28T00:00	17250	89	-58.6	-76.4	244	12	
2025-08-28T00:00	17300	88	-58.8	-76.4	248	13	
2025-08-28T00:00	17350	88	-58.9	-76.4	251	13	
2025-08-28T00:00	17400	87	-58.8	-76.9	253	12	
2025-08-28T00:00	17450	86	-59.0	-77.1	255	11	
2025-08-28T00:00	17500	86	-58.8	-76.6	259	11	
2025-08-28T00:00	17550	85	-59.1	-76.6	263	10	
2025-08-28T00:00	17600	84	-59.5	-76.9	263	9	
2025-08-28T00:00	17650	84	-59.6	-76.4	257	10	
2025-08-28T00:00	17700	83	-59.4	-76.6	249	10	
2025-08-28T00:00	17750	82	-59.2	-77.8	245	11	
2025-08-28T00:00	17800	82	-59.3	-78.2	244	11	
2025-08-28T00:00	17850	81	-59.3	-77.2	242	10	
2025-08-28T00:00	17900	80	-58.7	-76.2	241	9	
2025-08-28T00:00	17950	80	-58.8	-77.1	241	8	
2025-08-28T00:00	18000	79	-58.9	-77.4	242	7	
2025-08-28T00:00	18050	79	-58.9	-77.0	240	7	
2025-08-28T00:00	18100	78	-58.7	-77.2	235	7	
2025-08-28T00:00	18150	77	-58.7	-78.3	232	7	
2025-08-28T00:00	18200	77	-59.1	-79.5	227	8	
2025-08-28T00:00	18250	76	-59.2	-78.7	222	8	
2025-08-28T00:00	18300	75	-58.9	-77.6	218	7	
2025-08-28T00:00	18350	75	-58.8	-77.6	219	7	
2025-08-28T00:00	18400	74	-59.0	-77.8	227	7	
2025-08-28T00:00	18450	74	-59.2	-78.1	234	8	
2025-08-28T00:00	18500	73	-59.1	-79.5	232	9	
2025-08-28T00:00	18550	73	-58.4	-79.5	224	9	
2025-08-28T00:00	18600	72	-58.1	-77.7	220	9	
2025-08-28T00:00	18650	71	-57.9	-76.8	222	9	
2025-08-28T00:00	18700	71	-57.9	-77.2	228	9	
2025-08-28T00:00	18750	70	-58.0	-78.3	235	9	
2025-08-28T00:00	18800	70	-57.6	-77.5	235	8	
2025-08-28T00:00	18850	69	-56.8	-76.3	232	7	
2025-08-28T00:00	18900	69	-56.5	-77.3	228	8	
2025-08-28T00:00	18950	68	-56.4	-75.8	230	8	
2025-08-28T00:00	19000	68	-56.0	-74.2	231	7	
2025-08-28T00:00	19050	67	-55.9	-75.0	229	7	
2025-08-28T00:00	19100	66	-56.2	-77.1	234	7	
2025-08-28T00:00	19150	66	-56.5	-77.0	234	8	
2025-08-28T00:00	19200	65	-56.6	-76.5	232	9	
2025-08-28T00:00	19250	65	-56.2	-75.9	230	9	
2025-08-28T00:00	19300	64	-55.9	-75.5	227	9	
2025-08-28T00:00	19350	64	-56.0	-75.8	224	8	
2025-08-28T00:00	19400	63	-56.2	-75.7	226	8	
2025-08-28T00:00	19450	63	-55.9	-75.1	233	8	
2025-08-28T00:00	19500	62	-55.5	-75.1	241	8	
2025-08-28T00:00	19550	62	-55.3	-76.2	242	8	
2025-08-28T00:00	19600	61	-55.3	-77.6	235	8	
2025-08-28T00:00	19650	61	-54.9	-76.6	232	8	
2025-08-28T00:00	19700	60	-54.4	-75.4	235	9	
2025-08-28T00:00	19750	60	-54.0	-74.7	239	9	
2025-08-28T00:00	19800	60	-53.9	-74.5	244	8	
2025-08-28T00:00	19850	59	-53.7	-74.5	245	7	
2025-08-28T00:00	19900	59	-53.4	-74.5	241	6	
2025-08-28T00:00	19950	58	-53.4	-74.2	236	6	
2025-08-28T00:00	20000	58	-53.5	-73.6	230	7	
2025-08-28T00:00	20050	57	-53.5		230	8	
2025-08-28T00:00	20100	57	-53.7		234	8	
2025-08-28T00:00	20150	56	-53.8		236	9	
2025-08-28T00:00	20200	56	-53.7		235	9	
2025-08-28T00:00	20250	56	-53.7		241	7	
2025-08-28T00:00	20300	55	-53.5		251	6	
2025-08-28T00:00	20350	55	-53.1		258	4	
2025-08-28T00:00	20400	54	-53.1		264	2	
2025-08-28T00:00	20450	54	-53.0		282	1	
2025-08-28T00:00	20500	53	-53.2		217	0	
2025-08-28T00:00	20550	53	-53.4		194	2	
2025-08-28T00:00	20600	53	-53.5		191	4	
2025-08-28T00:00	20650	52	-53.8		187	5	
2025-08-28T00:00	20700	52	-54.1		189	6	
2025-08-28T00:00	20750	51	-54.3		198	6	
2025-08-28T00:00	20800	51	-54.1		206	6	
2025-08-28T00:00	20850	51	-54.0		212	6	
2025-08-28T00:00	20900	50	-54.3		220	5	
2025-08-28T00:00	20950	50	-54.2		225	4	
2025-08-28T00:00	21000	49	-54.4		227	2	
2025-08-28T00:00	21050	49	-54.4		240	1	
2025-08-28T00:00	21100	49	-54.5		241	1	
2025-08-28T00:00	21150	48	-54.2		206	1	
2025-08-28T00:00	21200	48	-54.1		149	1	
2025-08-28T00:00	21250	48	-54.1		147	2	
2025-08-28T00:00	21300	47	-53.8		179	2	
2025-08-28T00:00	21350	47	-53.7		223	3	
2025-08-28T00:00	21400	46	-53.8		236	4	
2025-08-28T00:00	21450	46	-54.0		246	5	
2025-08-28T00:00	21500	46	-53.9		257	6	
2025-08-28T00:00	21550	45	-53.9		270	6	
2025-08-28T00:00	21600	45	-53.7		283	6	
2025-08-28T00:00	21650	45	-53.2		295	6	
2025-08-28T00:00	21700	44	-53.0		310	5	
2025-08-28T00:00	21750	44	-52.6		326	6	
2025-08-28T00:00	21800	44	-52.5		335	5	
2025-08-28T00:00	21850	43	-52.1		335	4	
2025-08-28T00:00	21900	43	-51.9		322	2	
2025-08-28T00:00	21950	43	-52.1		294	1	
2025-08-28T00:00	22000	42	-52.1		293	1	
2025-08-28T00:00	22050	42	-52.0		317	1	
2025-08-28T00:00	22100	42	-51.9		345	1	
2025-08-28T00:00	22150	41	-51.9		63	1	
2025-08-28T00:00	22200	41	-52.0		89	2	
2025-08-28T00:00	22250	41	-52.1		114	2	
2025-08-28T00:00	22300	40	-52.0		137	3	
2025-08-28T00:00	22350	40	-52.0		143	2	
2025-08-28T00:00	22400	40	-52.1		139	3	
2025-08-28T00:00	22450	39	-52.0		135	3	
2025-08-28T00:00	22500	39	-51.8		116	2	
2025-08-28T00:00	22550	39	-51.7		90	3	
2025-08-28T00:00	22600	39	-51.9		81	4	
2025-08-28T00:00	22650	38	-52.1		68	5	
2025-08-28T00:00	22700	38	-52.2		64	5	
2025-08-28T00:00	22750	38	-52.1		74	4	
2025-08-28T00:00	22800	37	-52.0		103	4	
2025-08-28T00:00	22850	37	-51.8		124	5	
2025-08-28T00:00	22900	37	-51.9		129	5	
2025-08-28T00:00	22950	37	-51.8		124	4	
2025-08-28T00:00	23000	36	-51.8		113	3	
2025-08-28T00:00	23050	36	-51.7		109	3	
2025-08-28T00:00	23100	36	-51.7		123	3	
2025-08-28T00:00	23150	35	-51.3		139	4	
2025-08-28T00:00	23200	35	-51.2		152	5	
2025-08-28T00:00	23250	35	-51.0		163	5	
2025-08-28T00:00	23300	35	-50.8		177	5	
2025-08-28T00:00	23350	34	-50.8		195	4	
2025-08-28T00:00	23400	34	-51.1		213	3	
2025-08-28T00:00	23450	34	-51.0		219	2	
2025-08-28T00:00	23500	34	-51.0		148	0	
2025-08-28T00:00	23550	33	-50.9		72	1	
2025-08-28T00:00	23600	33	-50.9		70	3	
2025-08-28T00:00	23650	33	-51.0		77	4	
2025-08-28T00:00	23700	33	-51.1		92	5	
2025-08-28T00:00	23750	32	-50.8		114	5	
2025-08-28T00:00	23800	32	-50.6		128	6	
2025-08-28T00:00	23850	32	-50.9		139	7	
2025-08-28T00:00	23900	32	-51.2		151	6	
2025-08-28T00:00	23950	31	-51.4		162	4	
2025-08-28T00:00	24000	31	-51.2		164	3	
2025-08-28T00:00	24050	31	-51.1		125	2	
2025-08-28T00:00	24100	31	-50.6		90	2	
2025-08-28T00:00	24150	30	-50.5		104	4	
2025-08-28T00:00	24200	30	-50.3		121	4	
2025-08-28T00:00	24250	30	-50.2		134	4	
2025-08-28T00:00	24300	30	-49.9		148	3	
2025-08-28T00:00	24350	29	-50.0		147	3	
2025-08-28T00:00	24400	29	-50.0		129	2	
2025-08-28T00:00	24450	29	-50.0		105	2	
2025-08-28T00:00	24500	29	-50.1		105	2	
2025-08-28T00:00	24550	29	-50.2		112	4	
2025-08-28T00:00	24600	28	-50.3		123	4	
2025-08-28T00:00	24650	28	-50.5		133	5	
2025-08-28T00:00	24700	28	-50.7		141	4	
2025-08-28T00:00	24750	28	-50.8		149	3	
2025-08-28T00:00	24800	27	-50.7		157	2	
2025-08-28T00:00	24850	27	-50.6		160	3	
2025-08-28T00:00	24900	27	-50.4		163	3	
2025-08-28T00:00	24950	27	-50.4		176	4	
2025-08-28T00:00	25000	27	-50.4		182	4	
2025-08-28T00:00	25050	26	-50.5		172	3	
2025-08-28T00:00	25100	26	-50.2		160	3	
2025-08-28T00:00	25150	26	-50.1		151	3	
2025-08-28T00:00	25200	26	-50.0		130	3	
2025-08-28T00:00	25250	26	-49.5		110	3	
2025-08-28T00:00	25300	25	-49.5		111	5	
2025-08-28T00:00	25350	25	-49.4		123	6	
2025-08-28T00:00	25400	25	-49.6		133	6	
2025-08-28T00:00	25450	25	-49.8		135	7	
2025-08-28T00:00	25500	25	-50.0		131	6	
2025-08-28T00:00	25550	24	-50.4		126	6	
2025-08-28T00:00	25600	24	-50.5		118	7	
2025-08-28T00:00	25650	24	-50.3		113	7	
2025-08-28T00:00	25700	24	-49.9		115	6	
2025-08-28T00:00	25750	24	-49.6		122	6	
2025-08-28T00:00	25800	24	-49.8		128	6	
2025-08-28T00:00	25850	23	-50.1		135	6	
2025-08-28T00:00	25900	23	-50.3		140	6	
2025-08-28T00:00	25950	23	-50.6		142	7	
2025-08-28T00:00	26000	23	-50.6		142	8	
2025-08-28T00:00	26050	23	-50.4		143	8	
2025-08-28T00:00	26100	23	-50.2		147	8	
2025-08-28T00:00	26150	22	-50.4		153	8	
2025-08-28T00:00	26200	22	-50.5		160	7	
2025-08-28T00:00	26250	22	-50.5		168	7	
2025-08-28T00:00	26300	22	-50.5		173	7	
2025-08-28T00:00	26350	22	-50.4		171	6	
2025-08-28T00:00	26400	22	-50.2		166	5	
2025-08-28T00:00	26450	21	-49.9		166	5	
2025-08-28T00:00	26500	21	-49.7		165	5	
2025-08-28T00:00	26550	21	-49.4		158	6	
2025-08-28T00:00	26600	21	-49.4		152	6	
2025-08-28T00:00	26650	21	-49.3		151	6	
2025-08-28T00:00	26700	21	-49.2		159	6	
2025-08-28T00:00	26750	20	-49.2		171	6	
2025-08-28T00:00	26800	20	-49.3		180	6	
2025-08-28T00:00	26850	20	-49.3		195	5	
2025-08-28T00:00	26900	20	-49.3		216	4	
2025-08-28T00:00	26950	20	-49.4		241	3	
2025-08-28T00:00	27000	20	-49.1		275	2	
2025-08-28T00:00	27050	19	-48.8		321	2	
2025-08-28T00:00	27100	19	-48.6		6	2	
2025-08-28T00:00	27150	19	-48.4		38	3	
2025-08-28T00:00	27200	19	-48.5		59	4	
2025-08-28T00:00	27250	19	-48.6		74	5	
2025-08-28T00:00	27300	19	-48.4		79	5	
2025-08-28T00:00	27350	19	-48.2		69	4	
2025-08-28T00:00	27400	18	-48.0		45	3	
2025-08-28T00:00	27450	18	-48.0		39	3	
2025-08-28T00:00	27500	18	-47.8		47	4	
2025-08-28T00:00	27550	18	-47.9		55	4	
2025-08-28T00:00	27600	18	-47.9		65	4	
2025-08-28T00:00	27650	18	-47.8		72	6	
2025-08-28T00:00	27700	18	-47.8		76	7	
2025-08-28T00:00	27750	18	-47.9		80	7	
2025-08-28T00:00	27800	17	-47.8		84	8	
2025-08-28T00:00	27850	17	-47.8		86	8	
2025-08-28T00:00	27900	17	-47.7		88	7	
2025-08-28T00:00	27950	17	-47.7		90	7	
2025-08-28T00:00	28000	17	-47.4		90	6	
2025-08-28T00:00	28050	17	-47.2		86	6	
2025-08-28T00:00	28100	17	-47.3		75	6	
2025-08-28T00:00	28150	16	-47.2		69	7	
2025-08-28T00:00	28200	16	-47.0		71	9	
2025-08-28T00:00	28250	16	-46.9		75	10	
2025-08-28T00:00	28300	16	-46.9		80	12	
2025-08-28T00:00	28350	16	-47.0		86	13	
2025-08-28T00:00	28400	16	-47.1		92	13	
2025-08-28T00:00	28450	16	-46.8		96	12	
2025-08-28T00:00	28500	16	-46.5		98	11	
2025-08-28T00:00	28550	16	-46.5		101	10	
2025-08-28T00:00	28600	15	-46.6		104	9	
2025-08-28T00:00	28650	15	-46.5		108	7	
2025-08-28T00:00	28700	15	-46.8		110	6	
2025-08-28T00:00	28750	15	-46.9		108	5	
2025-08-28T00:00	28800	15	-47.0		106	5	
2025-08-28T00:00	28850	15	-46.8		106	5	
2025-08-28T00:00	28900	15	-46.9		107	4	
2025-08-28T00:00	28950	15	-46.7		106	4	
2025-08-28T00:00	29000	14	-46.6		101	5	
2025-08-28T00:00	29050	14	-46.6		97	5	
2025-08-28T00:00	29100	14	-46.7		97	4	
2025-08-28T00:00	29150	14	-46.5		103	3	
2025-08-28T00:00	29200	14	-46.4		107	3	
2025-08-28T00:00	29250	14	-46.3		88	3	
2025-08-28T00:00	29300	14	-45.9		49	3	
2025-08-28T00:00	29350	14	-45.3		31	5	
2025-08-28T00:00	29400	14	-45.1		34	6	
2025-08-28T00:00	29450	14	-44.6		47	7	
2025-08-28T00:00	29500	13	-44.5		60	7	
2025-08-28T00:00	29550	13	-44.4		63	8	
2025-08-28T00:00	29600	13	-44.3		60	8	
2025-08-28T00:00	29650	13	-44.1		56	8	
2025-08-28T00:00	29700	13	-44.1		51	8	
2025-08-28T00:00	29750	13	-44.1		47	9	
2025-08-28T00:00	29800	13	-44.1		47	9	
2025-08-28T00:00	29850	13	-44.0		52	9	
2025-08-28T00:00	29900	13	-44.0		61	8	
2025-08-28T00:00	29950	13	-44.1		73	8	
2025-08-28T00:00	30000	12	-44.2		81	8	
2025-08-28T00:00	30050	12	-44.4		84	8	
2025-08-28T00:00	30100	12	-44.4		88	8	
2025-08-28T00:00	30150	12	-44.4		93	8	
2025-08-28T00:00	30200	12	-44.5		96	7	
2025-08-28T00:00	30250	12	-44.3		97	8	
2025-08-28T00:00	30300	12	-44.3		99	9	
2025-08-28T00:00	30350	12	-44.2		102	9	
2025-08-28T00:00	30400	12	-44.1		104	9	
2025-08-28T00:00	30450	12	-44.2		107	8	
2025-08-28T00:00	30500	12	-44.5		109	8	
2025-08-28T00:00	30550	12	-44.6		108	7	
2025-08-28T00:00	30600	11	-44.5		101	7	
2025-08-28T00:00	30650	11	-44.2		95	7	
2025-08-28T00:00	30700	11	-43.9		95	7	
2025-08-28T00:00	30750	11	-43.9		96	7	
2025-08-28T00:00	30800	11	-43.6		88	8	
2025-08-28T00:00	30850	11	-43.3		76	8	
2025-08-28T00:00	30900	11	-43.2		70	9	
2025-08-28T00:00	30950	11	-43.0		71	9	
2025-08-28T00:00	31000	11	-42.6		76	8	
2025-08-28T00:00	31050	11	-42.6		80	6	
2025-08-28T00:00	31100	11	-42.8		85	5	
2025-08-28T00:00	31150	11	-42.9		94	4	
2025-08-28T00:00	31200	10	-43.0		108	3	
2025-08-28T00:00	31250	10	-43.0		123	3	
2025-08-28T00:00	31300	10	-43.2		125	2	
2025-08-28T00:00	31350	10	-43.4		82	2	
2025-08-28T00:00	31400	10	-43.2		48	3	
2025-08-28T00:00	31450	10	-43.0		41	5	
2025-08-28T00:00	31500	10	-43.1		40	6	
2025-08-28T00:00	31550	10	-42.8		40	8	
2025-08-28T00:00	31600	10	-42.7		40	9	
2025-08-28T00:00	31650	10	-42.6		44	10	
2025-08-28T00:00	31700	10	-42.2		53	11	
2025-08-28T00:00	31750	10	-42.0		63	11	
2025-08-28T00:00	31800	10	-42.2		69	11	
2025-08-28T00:00	31850	9	-41.9		72	11	
2025-08-28T00:00	31900	9	-42.0		76	11	
2025-08-28T00:00	31950	9	-42.2		80	11	
2025-08-28T00:00	32000	9	-42.3		82	10	
2025-08-28T00:00	32050	9	-42.4		83	9	
2025-08-28T00:00	32100	9	-42.4		82	9	
2025-08-28T00:00	32150	9	-41.9		80	10	
2025-08-28T00:00	32200	9	-41.6		80	11	
2025-08-28T00:00	32250	9	-41.5		80	12	
2025-08-28T00:00	32300	9	-41.5		79	11	
2025-08-28T12:00	491	953	17.5	14.9	208	3	
2025-08-28T12:00	501	952	17.3	14.9	219	2	
2025-08-28T12:00	520	950	16.9	14.5	219	3	
2025-08-28T12:00	540	948	16.8	14.4	217	3	
2025-08-28T12:00	560	946	16.6	14.1	214	3	
2025-08-28T12:00	580	943	16.4	13.8	210	4	
2025-08-28T12:00	600	941	16.2	13.4	206	4	
2025-08-28T12:00	620	939	16.0	13.0	203	4	
2025-08-28T12:00	640	937	15.8	13.1	200	3	
2025-08-28T12:00	660	935	15.6	13.2	197	3	
2025-08-28T12:00	680	932	15.5	13.4	196	3	
2025-08-28T12:00	700	930	15.4	13.1	198	3	
2025-08-28T12:00	720	928	15.4	12.2	203	3	
2025-08-28T12:00	740	926	15.2	11.8	210	3	
2025-08-28T12:00	760	924	15.1	11.8	215	3	
2025-08-28T12:00	780	921	14.9	11.6	215	3	
2025-08-28T12:00	800	919	14.7	11.3	214	4	
2025-08-28T12:00	820	917	14.6	11.1	213	4	
2025-08-28T12:00	840	915	14.4	10.9	212	4	
2025-08-28T12:00	860	913	14.2	11.0	211	4	
2025-08-28T12:00	880	911	14.0	11.1	212	4	
2025-08-28T12:00	900	908	13.8	11.3	213	3	
2025-08-28T12:00	920	907	13.7	11.4	214	3	
2025-08-28T12:00	940	904	13.6	11.5	215	3	
2025-08-28T12:00	960	902	13.4	11.7	214	3	
2025-08-28T12:00	980	900	13.3	11.8	213	4	
2025-08-28T12:00	1000	898	13.3	10.8	211	4	
2025-08-28T12:00	1020	896	13.3	10.4	209	4	
2025-08-28T12:00	1040	893	13.2	10.7	207	5	
2025-08-28T12:00	1060	891	13.1	11.0	206	5	
2025-08-28T12:00	1080	889	13.0	10.9	206	6	
2025-08-28T12:00	1100	887	13.2	10.4	205	6	
2025-08-28T12:00	1120	885	13.2	10.7	204	7	
2025-08-28T12:00	1140	883	13.1	11.1	203	7	
2025-08-28T12:00	1160	881	12.9	11.2	202	7	
2025-08-28T12:00	1180	879	12.8	11.3	201	7	
2025-08-28T12:00	1200	877	12.6	11.2	201	8	
2025-08-28T12:00	1220	875	12.5	11.2	201	8	
2025-08-28T12:00	1240	873	12.4	11.2	203	8	
2025-08-28T12:00	1260	871	12.3	11.2	205	7	
2025-08-28T12:00	1280	869	12.2	10.9	208	7	
2025-08-28T12:00	1300	866	12.2	10.7	212	7	
2025-08-28T12:00	1320	864	12.1	10.6	218	6	
2025-08-28T12:00	1340	862	12.0	10.4	223	6	
2025-08-28T12:00	1360	860	11.9	10.0	229	5	
2025-08-28T12:00	1380	858	12.0	9.1	234	5	
2025-08-28T12:00	1400	856	12.0	8.8	240	5	
2025-08-28T12:00	1420	854	11.9	8.8	245	6	
2025-08-28T12:00	1440	852	11.8	8.9	248	6	
2025-08-28T12:00	1460	850	11.7	9.0	248	6	
2025-08-28T12:00	1480	848	11.5	9.2	246	7	
2025-08-28T12:00	1500	846	11.3	9.2	243	7	
2025-08-28T12:00	1520	844	11.2	9.1	241	7	
2025-08-28T12:00	1540	842	11.0	9.2	239	7	
2025-08-28T12:00	1560	840	10.9	9.2	239	7	
2025-08-28T12:00	1580	838	10.7	9.2	241	7	
2025-08-28T12:00	1600	836	10.5	9.2	243	7	
2025-08-28T12:00	1620	834	10.4	9.2	245	7	
2025-08-28T12:00	1640	832	10.4	9.0	246	7	
2025-08-28T12:00	1660	830	10.4	8.7	247	7	
2025-08-28T12:00	1680	828	10.3	8.5	246	6	
2025-08-28T12:00	1700	826	10.2	8.3	244	6	
2025-08-28T12:00	1720	824	10.1	8.3	242	6	
2025-08-28T12:00	1740	822	10.0	8.3	241	6	
2025-08-28T12:00	1760	820	9.8	8.1	241	5	
2025-08-28T12:00	1780	818	9.9	7.7	241	5	
2025-08-28T12:00	1800	816	10.0	7.5	242	5	
2025-08-28T12:00	1820	814	9.9	7.5	243	5	
2025-08-28T12:00	1840	812	9.7	7.4	243	5	
2025-08-28T12:00	1860	810	9.6	7.4	244	5	
2025-08-28T12:00	1880	808	9.6	7.1	245	5	
2025-08-28T12:00	1900	806	9.6	6.8	247	5	
2025-08-28T12:00	1920	804	9.6	6.6	248	6	
2025-08-28T12:00	1940	803	9.4	6.3	250	6	
2025-08-28T12:00	1960	801	9.4	6.0	252	6	
2025-08-28T12:00	1980	799	9.3	5.9	254	7	
2025-08-28T12:00	2000	797	9.1	5.7	255	7	
2025-08-28T12:00	2020	795	9.0	5.5	257	6	
2025-08-28T12:00	2040	793	8.9	5.5	258	6	
2025-08-28T12:00	2060	791	8.7	5.4	257	6	
2025-08-28T12:00	2080	789	8.6	5.4	255	6	
2025-08-28T12:00	2100	787	8.4	5.4	253	6	
2025-08-28T12:00	2120	785	8.2	5.4	251	6	
2025-08-28T12:00	2140	783	8.0	5.3	250	6	
2025-08-28T12:00	2160	782	7.8	5.3	250	6	
2025-08-28T12:00	2180	780	7.7	5.6	251	6	
2025-08-28T12:00	2200	778	7.5	5.6	253	7	
2025-08-28T12:00	2220	776	7.4	5.5	254	7	
2025-08-28T12:00	2240	774	7.2	5.5	256	7	
2025-08-28T12:00	2260	772	7.2	4.7	258	7	
2025-08-28T12:00	2280	770	7.2	4.3	260	7	
2025-08-28T12:00	2300	768	7.0	4.2	262	7	
2025-08-28T12:00	2320	766	6.8	4.4	263	7	
2025-08-28T12:00	2340	764	6.7	4.3	263	6	
2025-08-28T12:00	2360	763	6.6	4.1	262	6	
2025-08-28T12:00	2380	761	6.4	4.0	259	6	
2025-08-28T12:00	2400	759	6.3	4.0	254	6	
2025-08-28T12:00	2420	757	6.1	3.9	249	6	
2025-08-28T12:00	2440	755	6.0	4.0	246	6	
2025-08-28T12:00	2460	754	5.9	3.8	243	6	
2025-08-28T12:00	2480	752	5.9	3.6	241	6	
2025-08-28T12:00	2500	750	5.9	3.3	239	7	
2025-08-28T12:00	2520	748	5.9	3.2	239	8	
2025-08-28T12:00	2540	746	5.7	3.1	239	9	
2025-08-28T12:00	2560	744	5.6	3.0	240	9	
2025-08-28T12:00	2580	742	5.5	3.0	240	9	
2025-08-28T12:00	2600	741	5.4	2.9	241	10	
2025-08-28T12:00	2620	739	5.2	2.9	242	10	
2025-08-28T12:00	2640	737	5.2	2.6	244	9	
2025-08-28T12:00	2660	735	5.0	2.4	246	9	
2025-08-28T12:00	2680	734	4.9	2.3	247	9	
2025-08-28T12:00	2700	732	4.7	2.2	248	9	
2025-08-28T12:00	2720	730	4.5	1.9	249	9	
2025-08-28T12:00	2740	728	4.3	1.7	248	9	
2025-08-28T12:00	2760	726	4.2	1.6	248	10	
2025-08-28T12:00	2780	725	4.1	1.2	247	10	
2025-08-28T12:00	2800	723	3.9	1.2	246	10	
2025-08-28T12:00	2820	721	3.8	1.2	244	11	
2025-08-28T12:00	2840	719	3.6	1.1	243	11	
2025-08-28T12:00	2860	717	3.4	1.1	242	11	
2025-08-28T12:00	2880	716	3.3	1.3	242	12	
2025-08-28T12:00	2900	714	3.1	1.4	243	12	
2025-08-28T12:00	2920	712	2.9	1.3	243	13	
2025-08-28T12:00	2940	710	2.7	1.2	243	13	
2025-08-28T12:00	2960	709	2.5	1.1	244	14	
2025-08-28T12:00	2980	707	2.3	1.1	244	14	
2025-08-28T12:00	3000	705	2.1	1.2	244	14	
2025-08-28T12:00	3020	703	2.0	1.2	243	14	
2025-08-28T12:00	3040	702	1.8	1.2	242	14	
2025-08-28T12:00	3060	700	1.7	1.2	240	14	
2025-08-28T12:00	3080	698	1.6	1.3	239	15	
2025-08-28T12:00	3100	697	1.6	1.3	237	15	
2025-08-28T12:00	3120	695	1.5	1.2	236	16	
2025-08-28T12:00	3140	693	1.4	1.1	236	16	
2025-08-28T12:00	3160	691	1.4	0.8	236	17	
2025-08-28T12:00	3180	690	1.5	0.7	236	17	
2025-08-28T12:00	3200	688	1.4	0.6	237	18	
2025-08-28T12:00	3220	686	1.2	0.6	237	18	
2025-08-28T12:00	3240	684	1.3	0.5	237	18	
2025-08-28T12:00	3260	683	1.4	0.2	237	18	
2025-08-28T12:00	3280	681	1.3	0.3	237	18	
2025-08-28T12:00	3300	680	1.2	0.4	236	17	
2025-08-28T12:00	3320	678	1.2	0.4	236	18	
2025-08-28T12:00	3340	676	1.1	0.2	236	18	
2025-08-28T12:00	3360	674	0.9	0.3	236	18	
2025-08-28T12:00	3380	673	0.7	0.3	236	18	
2025-08-28T12:00	3400	671	0.6	0.3	236	18	
2025-08-28T12:00	3420	670	0.5	0.3	236	18	
2025-08-28T12:00	3440	668	0.4	0.2	236	18	
2025-08-28T12:00	3460	666	0.4	-0.1	237	19	
2025-08-28T12:00	3480	665	0.3	-0.2	237	19	
2025-08-28T12:00	3500	663	0.3	-0.4	237	19	
2025-08-28T12:00	3520	661	0.2	-0.4	236	20	
2025-08-28T12:00	3540	659	0.1	-0.6	235	20	
2025-08-28T12:00	3560	658	0.0	-0.7	233	20	
2025-08-28T12:00	3580	656	-0.1	-0.8	232	20	
2025-08-28T12:00	3600	655	-0.3	-0.9	231	20	
2025-08-28T12:00	3620	653	-0.5	-1.0	229	20	
2025-08-28T12:00	3640	651	-0.6	-1.0	227	20	
2025-08-28T12:00	3660	650	-0.8	-1.1	225	20	
2025-08-28T12:00	3680	648	-0.9	-1.1	223	20	
2025-08-28T12:00	3700	646	-0.9	-1.2	222	20	
2025-08-28T12:00	3720	645	-0.9	-1.2	222	20	
2025-08-28T12:00	3740	643	-1.1	-1.3	222	20	
2025-08-28T12:00	3760	642	-1.2	-1.3	223	20	
2025-08-28T12:00	3780	640	-1.4	-1.4	223	20	
2025-08-28T12:00	3800	638	-1.5	-1.5	223	19	
2025-08-28T12:00	3820	637	-1.6	-1.6	221	19	
2025-08-28T12:00	3840	635	-1.7	-1.7	220	19	
2025-08-28T12:00	3860	634	-1.7	-1.7	219	18	
2025-08-28T12:00	3880	632	-1.6	-1.6	216	18	
2025-08-28T12:00	3900	630	-1.7	-1.7	214	18	
2025-08-28T12:00	3920	629	-1.8	-1.8	213	19	
2025-08-28T12:00	3940	627	-1.8	-1.8	213	19	
2025-08-28T12:00	3960	626	-1.9	-1.9	212	19	
2025-08-28T12:00	3980	624	-2.0	-2.0	212	19	
2025-08-28T12:00	4000	623	-2.1	-2.1	212	19	
2025-08-28T12:00	4020	621	-2.2	-2.2	212	19	
2025-08-28T12:00	4040	620	-2.4	-2.4	212	18	
2025-08-28T12:00	4060	618	-2.5	-2.5	212	18	
2025-08-28T12:00	4080	616	-2.6	-2.6	212	18	
2025-08-28T12:00	4100	615	-2.8	-2.8	212	18	
2025-08-28T12:00	4120	613	-2.9	-2.9	212	18	
2025-08-28T12:00	4140	612	-3.0	-3.0	212	18	
2025-08-28T12:00	4160	610	-3.1	-3.1	212	18	
2025-08-28T12:00	4180	609	-3.2	-3.2	212	18	
2025-08-28T12:00	4200	607	-3.3	-3.3	213	18	
2025-08-28T12:00	4220	605	-3.4	-3.4	213	18	
2025-08-28T12:00	4240	604	-3.5	-3.5	214	18	
2025-08-28T12:00	4260	603	-3.6	-3.6	214	18	
2025-08-28T12:00	4280	601	-3.7	-3.7	214	18	
2025-08-28T12:00	4300	600	-3.8	-3.8	214	18	
2025-08-28T12:00	4320	598	-4.0	-4.0	214	18	
2025-08-28T12:00	4340	596	-4.1	-4.1	214	18	
2025-08-28T12:00	4360	595	-4.2	-4.2	214	18	
2025-08-28T12:00	4380	593	-4.3	-4.3	214	18	
2025-08-28T12:00	4400	592	-4.3	-4.3	214	19	
2025-08-28T12:00	4420	591	-4.1	-4.3	215	19	
2025-08-28T12:00	4440	589	-4.0	-5.0	216	20	
2025-08-28T12:00	4460	587	-4.1	-5.1	216	20	
2025-08-28T12:00	4480	586	-4.3	-5.4	217	20	
2025-08-28T12:00	4500	584	-4.5	-6.1	217	20	
2025-08-28T12:00	4520	583	-4.7	-6.3	218	20	
2025-08-28T12:00	4540	581	-4.9	-6.4	218	20	
2025-08-28T12:00	4560	580	-5.1	-6.9	218	20	
2025-08-28T12:00	4580	578	-5.3	-7.0	218	20	
2025-08-28T12:00	4600	577	-5.5	-7.1	218	20	
2025-08-28T12:00	4620	576	-5.6	-7.5	218	20	
2025-08-28T12:00	4640	574	-5.7	-7.7	219	19	
2025-08-28T12:00	4660	573	-5.8	-7.9	219	19	
2025-08-28T12:00	4680	571	-6.0	-8.1	219	19	
2025-08-28T12:00	4700	570	-6.1	-8.2	219	19	
2025-08-28T12:00	4720	568	-6.3	-8.2	219	19	
2025-08-28T12:00	4740	567	-6.5	-8.3	219	19	
2025-08-28T12:00	4760	565	-6.6	-8.4	219	20	
2025-08-28T12:00	4780	564	-6.8	-8.8	219	20	
2025-08-28T12:00	4800	562	-6.9	-9.0	219	20	
2025-08-28T12:00	4820	561	-7.0	-9.1	218	20	
2025-08-28T12:00	4840	560	-7.2	-9.4	218	20	
2025-08-28T12:00	4860	558	-7.2	-9.8	217	20	
2025-08-28T12:00	4880	557	-7.4	-9.9	216	20	
2025-08-28T12:00	4900	555	-7.5	-10.0	215	20	
2025-08-28T12:00	4920	554	-7.6	-10.2	215	20	
2025-08-28T12:00	4940	553	-7.8	-10.5	215	20	
2025-08-28T12:00	4960	551	-7.9	-10.8	216	20	
2025-08-28T12:00	4980	550	-7.9	-11.3	217	20	
2025-08-28T12:00	5000	548	-8.0	-12.1	218	20	
2025-08-28T12:00	5020	547	-8.1	-12.3	219	20	
2025-08-28T12:00	5040	545	-8.3	-12.1	219	21	
2025-08-28T12:00	5060	544	-8.6	-11.9	219	21	
2025-08-28T12:00	5080	543	-8.8	-12.1	219	22	
2025-08-28T12:00	5100	541	-8.9	-12.2	218	22	
2025-08-28T12:00	5120	540	-9.1	-12.4	218	22	
2025-08-28T12:00	5140	539	-9.2	-12.7	218	22	
2025-08-28T12:00	5160	537	-9.4	-12.6	219	21	
2025-08-28T12:00	5180	536	-9.6	-12.8	219	21	
2025-08-28T12:00	5200	534	-9.8	-12.9	220	21	
2025-08-28T12:00	5220	533	-10.0	-12.9	220	21	
2025-08-28T12:00	5240	532	-10.2	-13.1	220	21	
2025-08-28T12:00	5260	530	-10.3	-13.2	220	21	
2025-08-28T12:00	5280	529	-10.5	-13.2	219	22	
2025-08-28T12:00	5300	527	-10.6	-13.4	219	22	
2025-08-28T12:00	5320	526	-10.8	-13.6	218	23	
2025-08-28T12:00	5340	525	-10.9	-13.6	218	23	
2025-08-28T12:00	5360	523	-11.1	-13.6	219	23	
2025-08-28T12:00	5380	522	-11.3	-13.7	219	24	
2025-08-28T12:00	5400	521	-11.4	-13.8	219	24	
2025-08-28T12:00	5420	519	-11.5	-14.0	220	24	
2025-08-28T12:00	5440	518	-11.6	-14.1	221	25	
2025-08-28T12:00	5460	516	-11.8	-14.2	221	25	
2025-08-28T12:00	5480	515	-11.9	-14.5	222	26	
2025-08-28T12:00	5500	514	-12.0	-14.6	222	26	
2025-08-28T12:00	5520	512	-12.1	-14.8	222	27	
2025-08-28T12:00	5540	511	-12.2	-14.7	222	27	
2025-08-28T12:00	5560	510	-12.2	-14.7	221	27	
2025-08-28T12:00	5580	508	-11.9	-14.4	220	27	
2025-08-28T12:00	5600	507	-12.1	-14.6	219	27	
2025-08-28T12:00	5620	506	-12.2	-14.8	219	27	
2025-08-28T12:00	5640	505	-12.3	-14.9	218	27	
2025-08-28T12:00	5660	503	-12.5	-14.9	219	27	
2025-08-28T12:00	5680	502	-12.6	-14.8	219	27	
2025-08-28T12:00	5700	501	-12.6	-14.9	219	27	
2025-08-28T12:00	5720	499	-12.6	-14.8	220	27	
2025-08-28T12:00	5740	498	-12.6	-14.7	220	27	
2025-08-28T12:00	5760	497	-12.7	-14.6	220	26	
2025-08-28T12:00	5780	495	-12.9	-14.7	220	26	
2025-08-28T12:00	5800	494	-13.1	-14.8	220	26	
2025-08-28T12:00	5820	493	-13.2	-14.9	220	26	
2025-08-28T12:00	5840	491	-13.3	-14.9	220	26	
2025-08-28T12:00	5860	490	-13.5	-14.9	220	26	
2025-08-28T12:00	5880	489	-13.6	-15.0	219	26	
2025-08-28T12:00	5900	488	-13.8	-15.3	219	26	
2025-08-28T12:00	5920	486	-13.9	-15.5	218	26	
2025-08-28T12:00	5940	485	-14.0	-15.4	218	26	
2025-08-28T12:00	5960	484	-14.1	-15.4	218	26	
2025-08-28T12:00	5980	483	-14.2	-15.5	218	26	
2025-08-28T12:00	6000	481	-14.3	-15.7	218	26	
2025-08-28T12:00	6020	480	-14.4	-15.9	219	26	
2025-08-28T12:00	6040	479	-14.6	-15.9	220	26	
2025-08-28T12:00	6060	478	-14.8	-15.9	222	26	
2025-08-28T12:00	6080	476	-14.9	-15.8	222	26	
2025-08-28T12:00	6100	475	-15.0	-15.9	223	26	
2025-08-28T12:00	6120	474	-15.1	-16.0	223	26	
2025-08-28T12:00	6140	473	-15.2	-16.0	222	26	
2025-08-28T12:00	6160	471	-15.4	-16.1	222	26	
2025-08-28T12:00	6180	470	-15.6	-16.1	221	26	
2025-08-28T12:00	6200	469	-15.7	-16.1	221	26	
2025-08-28T12:00	6220	468	-15.9	-16.2	220	26	
2025-08-28T12:00	6240	466	-16.0	-16.3	220	26	
2025-08-28T12:00	6260	465	-16.1	-16.4	220	26	
2025-08-28T12:00	6280	464	-16.2	-16.7	220	26	
2025-08-28T12:00	6300	463	-16.2	-16.8	220	27	
2025-08-28T12:00	6320	461	-16.4	-16.9	220	27	
2025-08-28T12:00	6340	460	-16.5	-17.0	221	27	
2025-08-28T12:00	6360	459	-16.6	-17.1	221	28	
2025-08-28T12:00	6380	458	-16.7	-17.3	221	28	
2025-08-28T12:00	6400	456	-16.9	-17.5	221	28	
2025-08-28T12:00	6420	455	-17.0	-17.5	221	28	
2025-08-28T12:00	6440	454	-17.2	-17.7	221	28	
2025-08-28T12:00	6460	453	-17.0	-18.6	221	28	
2025-08-28T12:00	6480	452	-16.6	-19.3	222	28	
2025-08-28T12:00	6500	450	-16.7	-19.4	222	28	
2025-08-28T12:00	6520	449	-16.8	-19.5	223	28	
2025-08-28T12:00	6540	448	-17.0	-19.9	223	28	
2025-08-28T12:00	6560	447	-17.2	-20.0	224	29	
2025-08-28T12:00	6580	445	-17.4	-20.2	224	29	
2025-08-28T12:00	6600	444	-17.5	-20.3	224	29	
2025-08-28T12:00	6620	443	-17.7	-20.5	223	29	
2025-08-28T12:00	6640	442	-17.8	-20.6	222	30	
2025-08-28T12:00	6660	441	-17.8	-20.5	221	30	
2025-08-28T12:00	6680	440	-17.9	-20.5	221	30	
2025-08-28T12:00	6700	438	-18.1	-20.6	220	30	
2025-08-28T12:00	6720	437	-18.1	-20.6	220	30	
2025-08-28T12:00	6740	436	-18.3	-20.5	220	30	
2025-08-28T12:00	6760	435	-18.5	-20.7	220	30	
2025-08-28T12:00	6780	434	-18.5	-20.9	220	30	
2025-08-28T12:00	6800	433	-18.6	-21.0	220	30	
2025-08-28T12:00	6820	431	-18.7	-21.1	221	30	
2025-08-28T12:00	6840	430	-18.9	-21.1	220	30	
2025-08-28T12:00	6860	429	-19.1	-21.2	220	30	
2025-08-28T12:00	6880	428	-19.3	-21.2	220	31	
2025-08-28T12:00	6900	427	-19.4	-21.5	219	32	
2025-08-28T12:00	6920	426	-19.4	-21.9	219	32	
2025-08-28T12:00	6940	425	-19.5	-22.0	218	33	
2025-08-28T12:00	6960	423	-19.7	-21.9	217	34	
2025-08-28T12:00	6980	422	-19.8	-22.1	216	34	
2025-08-28T12:00	7000	421	-19.8	-22.4	216	34	
2025-08-28T12:00	7020	420	-19.9	-22.5	215	34	
2025-08-28T12:00	7040	419	-20.0	-22.8	214	34	
2025-08-28T12:00	7060	418	-20.1	-23.0	213	34	
2025-08-28T12:00	7080	417	-20.2	-23.1	211	34	
2025-08-28T12:00	7100	416	-20.1	-23.0	210	34	
2025-08-28T12:00	7120	415	-20.1	-22.8	208	34	
2025-08-28T12:00	7140	413	-20.0	-22.7	207	34	
2025-08-28T12:00	7160	412	-19.9	-22.9	206	35	
2025-08-28T12:00	7180	411	-20.0	-23.0	205	35	
2025-08-28T12:00	7200	410	-20.1	-23.1	205	35	
2025-08-28T12:00	7220	409	-20.2	-23.1	205	35	
2025-08-28T12:00	7240	408	-20.3	-23.6	204	35	
2025-08-28T12:00	7260	407	-20.4	-23.7	204	34	
2025-08-28T12:00	7280	406	-20.5	-23.7	205	34	
2025-08-28T12:00	7300	404	-20.7	-23.8	205	33	
2025-08-28T12:00	7320	403	-20.9	-24.0	205	33	
2025-08-28T12:00	7340	402	-21.0	-24.0	205	33	
2025-08-28T12:00	7360	401	-21.1	-24.2	205	33	
2025-08-28T12:00	7380	400	-21.2	-24.4	205	33	
2025-08-28T12:00	7400	399	-21.3	-24.6	204	33	
2025-08-28T12:00	7420	398	-21.4	-24.7	203	33	
2025-08-28T12:00	7440	397	-21.6	-24.8	202	33	
2025-08-28T12:00	7460	396	-21.8	-24.9	201	33	
2025-08-28T12:00	7480	395	-21.9	-25.0	201	33	
2025-08-28T12:00	7500	394	-22.0	-25.1	201	33	
2025-08-28T12:00	7520	393	-22.2	-25.2	201	34	
2025-08-28T12:00	7540	392	-22.4	-25.3	201	34	
2025-08-28T12:00	7560	390	-22.5	-25.4	202	34	
2025-08-28T12:00	7580	389	-22.7	-25.5	201	34	
2025-08-28T12:00	7600	388	-22.9	-25.5	201	34	
2025-08-28T12:00	7620	387	-23.0	-25.6	201	34	
2025-08-28T12:00	7640	386	-23.2	-25.6	200	34	
2025-08-28T12:00	7660	385	-23.4	-25.6	199	34	
2025-08-28T12:00	7680	384	-23.6	-25.8	199	34	
2025-08-28T12:00	7700	383	-23.8	-25.8	198	34	
2025-08-28T12:00	7720	382	-24.0	-25.8	198	34	
2025-08-28T12:00	7740	381	-24.2	-25.9	198	34	
2025-08-28T12:00	7760	380	-24.3	-26.0	198	34	
2025-08-28T12:00	7780	379	-24.3	-26.3	199	34	
2025-08-28T12:00	7800	378	-24.4	-26.7	199	34	
2025-08-28T12:00	7820	377	-24.6	-26.8	200	34	
2025-08-28T12:00	7840	376	-24.8	-26.7	201	34	
2025-08-28T12:00	7860	375	-25.0	-26.8	201	34	
2025-08-28T12:00	7880	374	-25.1	-27.0	201	34	
2025-08-28T12:00	7900	373	-25.3	-27.1	201	34	
2025-08-28T12:00	7920	372	-25.4	-27.3	201	34	
2025-08-28T12:00	7940	371	-25.6	-27.6	201	34	
2025-08-28T12:00	7960	370	-25.7	-27.6	201	34	
2025-08-28T12:00	7980	369	-25.8	-27.8	201	33	
2025-08-28T12:00	8000	368	-26.0	-27.8	200	33	
2025-08-28T12:00	8020	366	-26.1	-27.9	200	33	
2025-08-28T12:00	8040	366	-26.2	-28.1	200	33	
2025-08-28T12:00	8060	365	-26.4	-28.2	199	32	
2025-08-28T12:00	8080	364	-26.6	-28.4	198	32	
2025-08-28T12:00	8100	363	-26.7	-28.5	198	32	
2025-08-28T12:00	8120	362	-26.8	-28.5	198	32	
2025-08-28T12:00	8140	361	-26.9	-28.6	197	33	
2025-08-28T12:00	8160	359	-27.1	-28.7	197	33	
2025-08-28T12:00	8180	358	-27.2	-28.8	197	33	
2025-08-28T12:00	8200	357	-27.3	-29.0	196	33	
2025-08-28T12:00	8220	357	-27.3	-29.2	196	33	
2025-08-28T12:00	8240	356	-27.5	-29.3	196	33	
2025-08-28T12:00	8260	355	-27.6	-29.4	196	33	
2025-08-28T12:00	8280	354	-27.8	-29.5	196	33	
2025-08-28T12:00	8300	353	-27.9	-29.6	195	33	
2025-08-28T12:00	8320	352	-28.1	-29.7	195	33	
2025-08-28T12:00	8340	351	-28.3	-29.7	195	33	
2025-08-28T12:00	8360	350	-28.5	-29.8	195	33	
2025-08-28T12:00	8380	349	-28.6	-29.9	195	33	
2025-08-28T12:00	8400	348	-28.8	-30.1	195	33	
2025-08-28T12:00	8420	347	-28.9	-30.2	196	33	
2025-08-28T12:00	8440	346	-29.1	-30.4	196	33	
2025-08-28T12:00	8460	345	-29.3	-30.5	196	33	
2025-08-28T12:00	8480	344	-29.4	-30.6	196	33	
2025-08-28T12:00	8500	343	-29.6	-30.8	197	33	
2025-08-28T12:00	8520	342	-29.7	-31.3	197	33	
2025-08-28T12:00	8540	341	-29.8	-31.6	198	33	
2025-08-28T12:00	8560	340	-30.0	-31.8	198	33	
2025-08-28T12:00	8580	339	-30.1	-31.8	199	33	
2025-08-28T12:00	8600	338	-30.3	-32.0	199	32	
2025-08-28T12:00	8620	337	-30.5	-32.4	199	32	
2025-08-28T12:00	8640	336	-30.6	-32.4	200	32	
2025-08-28T12:00	8660	335	-30.8	-32.3	200	32	
2025-08-28T12:00	8680	334	-31.0	-32.5	200	32	
2025-08-28T12:00	8700	333	-31.1	-32.9	200	32	
2025-08-28T12:00	8720	333	-31.3	-33.0	199	32	
2025-08-28T12:00	8740	332	-31.5	-33.2	199	33	
2025-08-28T12:00	8760	331	-31.7	-33.5	199	33	
2025-08-28T12:00	8780	330	-31.9	-33.3	198	33	
2025-08-28T12:00	8800	329	-32.1	-33.6	198	33	
2025-08-28T12:00	8820	328	-32.2	-33.8	198	33	
2025-08-28T12:00	8840	327	-32.4	-34.0	198	33	
2025-08-28T12:00	8860	326	-32.6	-34.1	198	33	
2025-08-28T12:00	8880	325	-32.7	-34.3	199	33	
2025-08-28T12:00	8900	324	-32.9	-34.6	199	33	
2025-08-28T12:00	8920	323	-33.1	-34.5	200	33	
2025-08-28T12:00	8940	322	-33.3	-34.6	201	33	
2025-08-28T12:00	8960	321	-33.5	-34.6	202	34	
2025-08-28T12:00	8980	320	-33.6	-34.5	203	34	
2025-08-28T12:00	9000	320	-33.8	-34.9	204	34	
2025-08-28T12:00	9020	319	-34.0	-35.3	205	35	
2025-08-28T12:00	9040	318	-34.2	-35.5	205	35	
2025-08-28T12:00	9060	317	-34.3	-35.7	206	36	
2025-08-28T12:00	9080	316	-34.5	-35.8	206	36	
2025-08-28T12:00	9100	315	-34.7	-35.7	206	36	
2025-08-28T12:00	9120	314	-34.9	-35.7	205	36	
2025-08-28T12:00	9140	313	-35.1	-35.8	205	36	
2025-08-28T12:00	9160	312	-35.2	-36.0	205	36	
2025-08-28T12:00	9180	311	-35.4	-35.9	205	36	
2025-08-28T12:00	9200	311	-35.5	-36.0	205	36	
2025-08-28T12:00	9220	310	-35.7	-36.3	205	36	
2025-08-28T12:00	9240	309	-35.9	-36.7	205	37	
2025-08-28T12:00	9260	308	-36.1	-36.7	206	37	
2025-08-28T12:00	9280	307	-36.2	-36.9	206	37	
2025-08-28T12:00	9300	306	-36.4	-36.9	207	38	
2025-08-28T12:00	9320	305	-36.6	-37.1	208	38	
2025-08-28T12:00	9340	304	-36.8	-37.4	208	38	
2025-08-28T12:00	9360	303	-36.9	-38.0	209	38	
2025-08-28T12:00	9380	302	-37.1	-38.7	209	38	
2025-08-28T12:00	9400	302	-37.3	-39.7	209	38	
2025-08-28T12:00	9420	301	-37.4	-40.1	210	38	
2025-08-28T12:00	9440	300	-37.5	-40.2	210	38	
2025-08-28T12:00	9460	299	-37.7	-40.3	210	39	
2025-08-28T12:00	9480	298	-37.9	-41.0	209	39	
2025-08-28T12:00	9500	297	-38.0	-40.9	209	39	
2025-08-28T12:00	9520	297	-38.3	-40.3	209	39	
2025-08-28T12:00	9540	296	-38.5	-40.4	209	39	
2025-08-28T12:00	9560	295	-38.7	-41.4	209	39	
2025-08-28T12:00	9580	294	-38.8	-42.3	209	39	
2025-08-28T12:00	9600	293	-39.0	-42.2	209	39	
2025-08-28T12:00	9620	292	-39.2	-42.1	209	39	
2025-08-28T12:00	9640	291	-39.3	-42.4	209	39	
2025-08-28T12:00	9660	290	-39.5	-42.6	209	39	
2025-08-28T12:00	9680	290	-39.7	-42.8	209	39	
2025-08-28T12:00	9700	289	-39.9	-43.2	210	40	
2025-08-28T12:00	9720	288	-40.1	-43.2	210	40	
2025-08-28T12:00	9740	287	-40.3	-43.3	210	41	
2025-08-28T12:00	9760	286	-40.5	-43.8	211	41	
2025-08-28T12:00	9780	285	-40.7	-43.9	211	42	
2025-08-28T12:00	9800	285	-40.8	-43.9	211	42	
2025-08-28T12:00	9820	284	-41.0	-44.1	211	43	
2025-08-28T12:00	9840	283	-41.2	-44.2	210	44	
2025-08-28T12:00	9860	282	-41.5	-44.6	210	44	
2025-08-28T12:00	9880	281	-41.7	-45.2	209	44	
2025-08-28T12:00	9900	280	-42.0	-45.4	208	44	
2025-08-28T12:00	9920	280	-42.1	-45.1	207	44	
2025-08-28T12:00	9940	279	-42.3	-44.6	206	44	
2025-08-28T12:00	9960	278	-42.5	-45.3	206	44	
2025-08-28T12:00	9980	277	-42.6	-45.0	205	44	
2025-08-28T12:00	10000	276	-42.6	-44.5	205	44	
2025-08-28T12:00	10018	276	-42.7	-44.7	205	45	
2025-08-28T12:00	10050	274	-42.9	-44.8	205	45	
2025-08-28T12:00	10100	272	-43.3	-44.8	205	46	
2025-08-28T12:00	10150	270	-43.7	-46.2	205	47	
2025-08-28T12:00	10200	268	-44.1	-46.8	206	48	
2025-08-28T12:00	10250	266	-44.5	-47.8	206	49	
2025-08-28T12:00	10300	264	-44.9	-48.4	206	48	
2025-08-28T12:00	10350	262	-45.3	-48.9	206	48	
2025-08-28T12:00	10400	260	-45.8	-49.4	206	48	
2025-08-28T12:00	10450	258	-46.2	-49.8	206	48	
2025-08-28T12:00	10500	256	-46.7	-49.9	206	48	
2025-08-28T12:00	10550	254	-47.1	-50.3	206	48	
2025-08-28T12:00	10600	253	-47.5	-50.8	206	48	
2025-08-28T12:00	10650	251	-48.1	-51.3	205	47	
2025-08-28T12:00	10700	249	-48.4	-51.9	204	47	
2025-08-28T12:00	10750	247	-48.9	-51.8	204	47	
2025-08-28T12:00	10800	245	-49.4	-51.8	205	47	
2025-08-28T12:00	10850	243	-50.0	-52.3	206	48	
2025-08-28T12:00	10900	241	-50.4	-52.9	206	48	
2025-08-28T12:00	10950	239	-50.8	-53.6	206	49	
2025-08-28T12:00	11000	238	-50.8	-54.3	206	49	
2025-08-28T12:00	11050	236	-51.1	-54.7	206	48	
2025-08-28T12:00	11100	234	-51.6	-55.5	205	48	
2025-08-28T12:00	11150	232	-51.9	-56.3	205	48	
2025-08-28T12:00	11200	230	-52.4	-56.6	205	49	
2025-08-28T12:00	11250	229	-52.8	-56.9	205	49	
2025-08-28T12:00	11300	227	-53.2	-56.6	206	49	
2025-08-28T12:00	11350	225	-53.6	-56.0	206	49	
2025-08-28T12:00	11400	223	-53.8	-56.3	206	49	
2025-08-28T12:00	11450	222	-54.3	-57.1	206	50	
2025-08-28T12:00	11500	220	-54.7	-57.5	207	51	
2025-08-28T12:00	11550	218	-54.7	-57.6	207	52	
2025-08-28T12:00	11600	216	-55.0	-57.9	208	52	
2025-08-28T12:00	11650	215	-55.2	-59.2	210	52	
2025-08-28T12:00	11700	213	-55.0	-60.4	211	53	
2025-08-28T12:00	11750	211	-54.9	-58.7	212	53	
2025-08-28T12:00	11800	210	-55.0	-58.0	212	54	
2025-08-28T12:00	11850	208	-55.2	-61.9	213	53	
2025-08-28T12:00	11900	207	-55.4	-66.1	215	52	
2025-08-28T12:00	11950	205	-55.0	-71.0	216	51	
2025-08-28T12:00	12000	203	-53.9	-72.8	218	51	
2025-08-28T12:00	12050	202	-53.3	-73.3	220	49	
2025-08-28T12:00	12100	200	-53.3	-72.8	220	48	
2025-08-28T12:00	12150	199	-53.1	-73.1	221	47	
2025-08-28T12:00	12200	197	-52.9	-73.3	222	47	
2025-08-28T12:00	12250	196	-53.1	-73.3	222	46	
2025-08-28T12:00	12300	194	-53.3	-73.6	223	46	
2025-08-28T12:00	12350	193	-53.1	-74.0	224	45	
2025-08-28T12:00	12400	191	-52.5	-74.9	224	43	
2025-08-28T12:00	12450	190	-51.8	-75.4	224	42	
2025-08-28T12:00	12500	188	-51.7	-75.5	223	41	
2025-08-28T12:00	12550	187	-51.6	-75.9	223	40	
2025-08-28T12:00	12600	185	-51.5	-76.1	224	39	
2025-08-28T12:00	12650	184	-51.8	-76.2	225	38	
2025-08-28T12:00	12700	182	-52.1	-76.4	226	38	
2025-08-28T12:00	12750	181	-52.4	-76.5	226	37	
2025-08-28T12:00	12800	180	-52.6	-76.6	225	36	
2025-08-28T12:00	12850	178	-52.4	-77.0	225	36	
2025-08-28T12:00	12900	177	-52.0	-77.4	224	36	
2025-08-28T12:00	12950	176	-52.0	-77.6	224	37	
2025-08-28T12:00	13000	174	-52.4	-77.6	224	37	
2025-08-28T12:00	13050	173	-52.6	-77.5	224	38	
2025-08-28T12:00	13100	171	-53.0	-77.6	224	39	
2025-08-28T12:00	13150	170	-53.4	-77.8	225	39	
2025-08-28T12:00	13200	169	-53.4	-78.1	226	38	
2025-08-28T12:00	13250	168	-53.1	-78.3	226	39	
2025-08-28T12:00	13300	166	-53.1	-78.5	226	39	
2025-08-28T12:00	13350	165	-53.3	-78.7	227	38	
2025-08-28T12:00	13400	164	-53.4	-78.8	228	36	
2025-08-28T12:00	13450	162	-53.5	-79.0	227	35	
2025-08-28T12:00	13500	161	-53.5	-79.1	225	34	
2025-08-28T12:00	13550	160	-53.6	-79.2	224	32	
2025-08-28T12:00	13600	159	-53.8	-79.5	222	31	
2025-08-28T12:00	13650	157	-53.8	-79.6	220	31	
2025-08-28T12:00	13700	156	-54.0	-79.8	219	31	
2025-08-28T12:00	13750	155	-54.2	-79.8	220	31	
2025-08-28T12:00	13800	154	-54.3	-79.8	221	31	
2025-08-28T12:00	13850	153	-54.6	-80.0	222	30	
2025-08-28T12:00	13900	151	-54.7	-80.1	222	30	
2025-08-28T12:00	13950	150	-55.0	-80.2	222	29	
2025-08-28T12:00	14000	149	-55.3	-80.3	223	28	
2025-08-28T12:00	14050	148	-55.7	-80.3	224	28	
2025-08-28T12:00	14100	147	-56.1	-80.6	226	28	
2025-08-28T12:00	14150	146	-56.3	-80.7	228	28	
2025-08-28T12:00	14200	144	-56.5	-80.9	229	28	
2025-08-28T12:00	14250	143	-56.9	-81.0	230	28	
2025-08-28T12:00	14300	142	-57.0	-81.2	231	28	
2025-08-28T12:00	14350	141	-57.2	-81.3	233	28	
2025-08-28T12:00	14400	140	-57.4	-81.4	233	28	
2025-08-28T12:00	14450	139	-57.6	-81.5	233	26	
2025-08-28T12:00	14500	138	-57.7	-81.8	231	25	
2025-08-28T12:00	14550	137	-57.7	-82.0	227	23	
2025-08-28T12:00	14600	136	-57.7	-82.1	224	23	
2025-08-28T12:00	14650	134	-57.8	-82.2	219	22	
2025-08-28T12:00	14700	133	-58.0	-82.3	215	22	
2025-08-28T12:00	14750	132	-58.2	-82.3	212	22	
2025-08-28T12:00	14800	131	-58.4	-82.6	209	23	
2025-08-28T12:00	14850	130	-58.6	-82.6	208	23	
2025-08-28T12:00	14900	129	-58.5	-82.8	208	24	
2025-08-28T12:00	14950	128	-58.1	-83.0	211	25	
2025-08-28T12:00	15000	127	-57.7	-83.2	215	26	
2025-08-28T12:00	15050	126	-57.3	-83.2	218	27	
2025-08-28T12:00	15100	125	-56.8	-83.0	219	27	
2025-08-28T12:00	15150	124	-57.0	-83.3	220	26	
2025-08-28T12:00	15200	123	-56.6	-83.4	221	25	
2025-08-28T12:00	15250	122	-55.7	-83.1	222	24	
2025-08-28T12:00	15300	121	-55.6	-83.1	223	23	
2025-08-28T12:00	15350	120	-55.6	-83.0	227	22	
2025-08-28T12:00	15400	119	-55.5	-83.0	230	20	
2025-08-28T12:00	15450	118	-55.5	-83.0	232	19	
2025-08-28T12:00	15500	118	-55.3	-83.0	228	19	
2025-08-28T12:00	15550	117	-55.1	-82.9	225	20	
2025-08-28T12:00	15600	116	-55.4	-82.9	223	21	
2025-08-28T12:00	15650	115	-55.6	-82.9	223	21	
2025-08-28T12:00	15700	114	-55.9	-82.9	225	21	
2025-08-28T12:00	15750	113	-56.2	-82.9	226	21	
2025-08-28T12:00	15800	112	-56.6	-83.1	228	21	
2025-08-28T12:00	15850	111	-57.0	-83.3	231	20	
2025-08-28T12:00	15900	110	-57.1	-83.5	237	19	
2025-08-28T12:00	15950	110	-56.8	-83.5	242	17	
2025-08-28T12:00	16000	109	-56.6	-83.6	243	15	
2025-08-28T12:00	16050	108	-56.6	-83.4	241	14	
2025-08-28T12:00	16100	107	-56.9	-83.4	238	13	
2025-08-28T12:00	16150	106	-57.1	-83.6	235	13	
2025-08-28T12:00	16200	105	-57.0	-83.8	231	14	
2025-08-28T12:00	16250	104	-56.9	-83.8	230	14	
2025-08-28T12:00	16300	104	-56.8	-83.8	228	13	
2025-08-28T12:00	16350	103	-56.4	-83.9	223	12	
2025-08-28T12:00	16400	102	-56.2	-84.0	219	12	
2025-08-28T12:00	16450	101	-56.1	-83.9	220	13	
2025-08-28T12:00	16500	100	-56.1	-84.0	224	13	
2025-08-28T12:00	16550	100	-56.1	-84.0	227	12	
2025-08-28T12:00	16600	99	-55.9	-84.0	231	12	
2025-08-28T12:00	16650	98	-55.6	-84.1	234	11	
2025-08-28T12:00	16700	97	-55.4	-84.1	236	11	
2025-08-28T12:00	16750	97	-55.2	-84.0	235	10	
2025-08-28T12:00	16800	96	-55.1	-84.0	234	9	
2025-08-28T12:00	16850	95	-55.2	-83.9	235	9	
2025-08-28T12:00	16900	94	-55.5	-84.0	234	8	
2025-08-28T12:00	16950	94	-55.4	-84.0	228	8	
2025-08-28T12:00	17000	93	-55.7	-84.0	223	8	
2025-08-28T12:00	17050	92	-55.9	-84.1	220	9	
2025-08-28T12:00	17100	91	-56.3	-84.2	216	9	
2025-08-28T12:00	17150	91	-56.7	-84.4	211	10	
2025-08-28T12:00	17200	90	-57.0	-84.6	210	10	
2025-08-28T12:00	17250	89	-57.0	-84.6	212	10	
2025-08-28T12:00	17300	89	-56.9	-84.7	216	11	
2025-08-28T12:00	17350	88	-57.2	-84.7	219	12	
2025-08-28T12:00	17400	87	-57.6	-84.7	222	12	
2025-08-28T12:00	17450	86	-57.9	-84.9	223	13	
2025-08-28T12:00	17500	86	-58.3	-85.1	226	13	
2025-08-28T12:00	17550	85	-58.4	-85.3	231	13	
2025-08-28T12:00	17600	84	-57.8	-85.4	237	12	
2025-08-28T12:00	17650	84	-57.1	-85.3	242	11	
2025-08-28T12:00	17700	83	-56.8	-85.2	246	11	
2025-08-28T12:00	17750	82	-56.5	-85.1	248	10	
2025-08-28T12:00	17800	82	-56.3	-84.9	250	10	
2025-08-28T12:00	17850	81	-56.4	-85.0	252	9	
2025-08-28T12:00	17900	81	-56.1	-85.0	249	7	
2025-08-28T12:00	17950	80	-55.6	-85.0	239	6	
2025-08-28T12:00	18000	79	-55.1	-84.7	228	5	
2025-08-28T12:00	18050	79	-55.3	-84.7	218	5	
2025-08-28T12:00	18100	78	-55.7	-84.7	209	6	
2025-08-28T12:00	18150	77	-55.7	-84.6	203	6	
2025-08-28T12:00	18200	77	-55.9	-84.7	201	7	
2025-08-28T12:00	18250	76	-56.1	-84.9	204	8	
2025-08-28T12:00	18300	76	-55.9	-84.9	207	8	
2025-08-28T12:00	18350	75	-55.8	-84.9	208	8	
2025-08-28T12:00	18400	74	-55.8	-84.9	208	7	
2025-08-28T12:00	18450	74	-55.8	-84.9	206	6	
2025-08-28T12:00	18500	73	-55.8	-85.0	208	6	
2025-08-28T12:00	18550	73	-55.5	-85.0	210	7	
2025-08-28T12:00	18600	72	-55.0	-84.9	211	8	
2025-08-28T12:00	18650	72	-55.1	-84.7	211	8	
2025-08-28T12:00	18700	71	-55.5	-84.7	210	9	
2025-08-28T12:00	18750	70	-55.9	-84.7	210	10	
2025-08-28T12:00	18800	70	-56.3	-85.0	211	10	
2025-08-28T12:00	18850	69	-56.4	-85.3	212	9	
2025-08-28T12:00	18900	69	-55.6	-85.1	210	9	
2025-08-28T12:00	18950	68	-55.2	-85.0	209	8	
2025-08-28T12:00	19000	68	-55.4	-85.1	211	8	
2025-08-28T12:00	19050	67	-55.1	-85.0	215	7	
2025-08-28T12:00	19100	67	-54.6	-84.8	221	6	
2025-08-28T12:00	19150	66	-54.8	-84.9	222	5	
2025-08-28T12:00	19200	66	-54.5	-84.8	213	5	
2025-08-28T12:00	19250	65	-54.4	-84.7	204	5	
2025-08-28T12:00	19300	65	-54.6	-84.5	201	4	
2025-08-28T12:00	19350	64	-54.9	-84.6	198	4	
2025-08-28T12:00	19400	64	-55.3	-84.7	188	4	
2025-08-28T12:00	19450	63	-55.6	-84.8	176	5	
2025-08-28T12:00	19500	63	-55.7	-84.9	171	7	
2025-08-28T12:00	19550	62	-55.8	-85.0	171	7	
2025-08-28T12:00	19600	62	-56.2	-85.1	175	8	
2025-08-28T12:00	19650	61	-56.3	-85.2	183	7	
2025-08-28T12:00	19700	61	-55.9	-85.2	194	7	
2025-08-28T12:00	19750	60	-55.4	-85.1	204	7	
2025-08-28T12:00	19800	60	-55.2	-85.0	211	8	
2025-08-28T12:00	19850	59	-55.2	-84.9	218	8	
2025-08-28T12:00	19900	59	-55.0	-85.0	223	7	
2025-08-28T12:00	19950	58	-54.4	-85.0	221	6	
2025-08-28T12:00	20000	58	-53.6	-84.7	208	6	
2025-08-28T12:00	20050	57	-53.4		198	6	
2025-08-28T12:00	20100	57	-53.5		195	7	
2025-08-28T12:00	20150	57	-53.7		192	7	
2025-08-28T12:00	20200	56	-54.0		189	8	
2025-08-28T12:00	20250	56	-54.2		187	9	
2025-08-28T12:00	20300	55	-53.9		191	9	
2025-08-28T12:00	20350	55	-53.7		199	9	
2025-08-28T12:00	20400	54	-53.7		209	9	
2025-08-28T12:00	20450	54	-53.6		217	9	
2025-08-28T12:00	20500	54	-53.4		225	10	
2025-08-28T12:00	20550	53	-53.3		232	10	
2025-08-28T12:00	20600	53	-53.4		238	9	
2025-08-28T12:00	20650	52	-53.7		243	8	
2025-08-28T12:00	20700	52	-53.4		246	7	
2025-08-28T12:00	20750	52	-53.4		253	5	
2025-08-28T12:00	20800	51	-53.3		260	5	
2025-08-28T12:00	20850	51	-53.2		260	5	
2025-08-28T12:00	20900	50	-53.1		260	5	
2025-08-28T12:00	20950	50	-53.4		268	5	
2025-08-28T12:00	21000	50	-53.4		282	5	
2025-08-28T12:00	21050	49	-53.2		302	4	
2025-08-28T12:00	21100	49	-52.9		321	4	
2025-08-28T12:00	21150	48	-52.0		336	3	
2025-08-28T12:00	21200	48	-51.6		358	1	
2025-08-28T12:00	21250	48	-51.5		127	1	
2025-08-28T12:00	21300	47	-51.5		143	2	
2025-08-28T12:00	21350	47	-51.6		149	3	
2025-08-28T12:00	21400	47	-51.8		157	3	
2025-08-28T12:00	21450	46	-52.1		168	3	
2025-08-28T12:00	21500	46	-52.2		182	3	
2025-08-28T12:00	21550	46	-52.2		195	3	
2025-08-28T12:00	21600	45	-52.1		201	3	
2025-08-28T12:00	21650	45	-52.0		198	4	
2025-08-28T12:00	21700	44	-51.6		191	5	
2025-08-28T12:00	21750	44	-51.4		188	6	
2025-08-28T12:00	21800	44	-51.2		188	6	
2025-08-28T12:00	21850	43	-50.7		191	6	
2025-08-28T12:00	21900	43	-50.8		197	7	
2025-08-28T12:00	21950	43	-51.0		203	7	
2025-08-28T12:00	22000	42	-51.1		207	7	
2025-08-28T12:00	22050	42	-51.2		207	7	
2025-08-28T12:00	22100	42	-51.2		204	6	
2025-08-28T12:00	22150	42	-50.9		199	5	
2025-08-28T12:00	22200	41	-51.1		191	4	
2025-08-28T12:00	22250	41	-51.2		177	3	
2025-08-28T12:00	22300	41	-51.1		166	3	
2025-08-28T12:00	22350	40	-50.9		170	4	
2025-08-28T12:00	22400	40	-50.5		181	5	
2025-08-28T12:00	22450	40	-50.3		188	6	
2025-08-28T12:00	22500	39	-50.3		188	6	
2025-08-28T12:00	22550	39	-50.3		185	6	
2025-08-28T12:00	22600	39	-50.3		183	5	
2025-08-28T12:00	22650	38	-49.9		181	5	
2025-08-28T12:00	22700	38	-50.0		178	6	
2025-08-28T12:00	22750	38	-50.0		177	7	
2025-08-28T12:00	22800	38	-50.3		180	8	
2025-08-28T12:00	22850	37	-50.5		185	7	
2025-08-28T12:00	22900	37	-50.6		192	6	
2025-08-28T12:00	22950	37	-50.4		198	5	
2025-08-28T12:00	23000	36	-50.3		196	4	
2025-08-28T12:00	23050	36	-50.5		182	4	
2025-08-28T12:00	23100	36	-50.4		166	5	
2025-08-28T12:00	23150	36	-50.2		163	6	
2025-08-28T12:00	23200	35	-50.3		165	7	
2025-08-28T12:00	23250	35	-50.4		166	8	
2025-08-28T12:00	23300	35	-50.4		167	9	
2025-08-28T12:00	23350	35	-50.8		172	9	
2025-08-28T12:00	23400	34	-51.2		180	9	
2025-08-28T12:00	23450	34	-51.4		185	8	
2025-08-28T12:00	23500	34	-51.4		190	6	
2025-08-28T12:00	23550	33	-51.2		196	5	
2025-08-28T12:00	23600	33	-50.8		200	4	
2025-08-28T12:00	23650	33	-50.8		197	2	
2025-08-28T12:00	23700	33	-50.8		177	2	
2025-08-28T12:00	23750	32	-50.6		160	2	
2025-08-28T12:00	23800	32	-50.4		164	3	
2025-08-28T12:00	23850	32	-50.3		173	3	
2025-08-28T12:00	23900	32	-50.6		181	3	
2025-08-28T12:00	23950	32	-50.5		196	3	
2025-08-28T12:00	24000	31	-50.5		219	2	
2025-08-28T12:00	24050	31	-50.5		251	1	
2025-08-28T12:00	24100	31	-50.4		44	1	
2025-08-28T12:00	24150	31	-50.0		86	2	
2025-08-28T12:00	24200	30	-49.8		110	3	
2025-08-28T12:00	24250	30	-49.5		129	3	
2025-08-28T12:00	24300	30	-49.7		142	4	
2025-08-28T12:00	24350	30	-50.1		149	5	
2025-08-28T12:00	24400	29	-50.4		154	6	
2025-08-28T12:00	24450	29	-50.5		158	6	
2025-08-28T12:00	24500	29	-50.5		162	6	
2025-08-28T12:00	24550	29	-50.5		167	6	
2025-08-28T12:00	24600	29	-50.6		173	6	
2025-08-28T12:00	24650	28	-50.7		180	6	
2025-08-28T12:00	24700	28	-51.1		186	6	
2025-08-28T12:00	24750	28	-51.3		190	5	
2025-08-28T12:00	24800	28	-51.2		190	4	
2025-08-28T12:00	24850	27	-51.1		182	4	
2025-08-28T12:00	24900	27	-51.1		174	4	
2025-08-28T12:00	24950	27	-51.1		172	4	
2025-08-28T12:00	25000	27	-51.0		172	4	
2025-08-28T12:00	25050	27	-50.9		172	3	
2025-08-28T12:00	25100	26	-50.7		171	3	
2025-08-28T12:00	25150	26	-50.9		168	3	
2025-08-28T12:00	25200	26	-51.0		161	2	
2025-08-28T12:00	25250	26	-50.9		149	2	
2025-08-28T12:00	25300	26	-50.7		137	3	
2025-08-28T12:00	25350	25	-50.7		132	3	
2025-08-28T12:00	25400	25	-50.6		129	4	
2025-08-28T12:00	25450	25	-50.5		123	5	
2025-08-28T12:00	25500	25	-50.6		114	5	
2025-08-28T12:00	25550	25	-50.5		106	4	
2025-08-28T12:00	25600	24	-50.4		106	4	
2025-08-28T12:00	25650	24	-50.3		118	5	
2025-08-28T12:00	25700	24	-50.2		129	6	
2025-08-28T12:00	25750	24	-50.2		133	6	
2025-08-28T12:00	25800	24	-50.2		132	7	
2025-08-28T12:00	25850	24	-50.3		128	7	
2025-08-28T12:00	25900	23	-50.5		124	7	
2025-08-28T12:00	25950	23	-50.5		121	7	
2025-08-28T12:00	26000	23	-50.5		118	7	
2025-08-28T12:00	26050	23	-50.4		118	8	
2025-08-28T12:00	26100	23	-50.0		121	8	
2025-08-28T12:00	26150	22	-50.1		127	8	
2025-08-28T12:00	26200	22	-50.3		135	7	
2025-08-28T12:00	26250	22	-50.2		142	7	
2025-08-28T12:00	26300	22	-49.9		144	6	
2025-08-28T12:00	26350	22	-49.7		141	5	
2025-08-28T12:00	26400	22	-49.8		138	5	
2025-08-28T12:00	26450	21	-49.9		138	5	
2025-08-28T12:00	26500	21	-49.7		140	5	
2025-08-28T12:00	26550	21	-49.6		139	6	
2025-08-28T12:00	26600	21	-49.5		137	6	
2025-08-28T12:00	26650	21	-49.3		133	6	
2025-08-28T12:00	26700	21	-48.9		129	6	
2025-08-28T12:00	26750	21	-49.0		130	7	
2025-08-28T12:00	26800	20	-49.0		136	7	
2025-08-28T12:00	26850	20	-49.1		147	7	
2025-08-28T12:00	26900	20	-49.2		161	7	
2025-08-28T12:00	26950	20	-49.1		173	6	
2025-08-28T12:00	27000	20	-48.8		184	4	
2025-08-28T12:00	27050	20	-48.3		194	3	
2025-08-28T12:00	27100	19	-47.7		200	1	
2025-08-28T12:00	27150	19	-47.4		158	1	
2025-08-28T12:00	27200	19	-47.0		119	1	
2025-08-28T12:00	27250	19	-46.6		115	2	
2025-08-28T12:00	27300	19	-46.3		113	3	
2025-08-28T12:00	27350	19	-46.1		112	3	
2025-08-28T12:00	27400	19	-46.2		105	3	
2025-08-28T12:00	27450	18	-46.3		87	3	
2025-08-28T12:00	27500	18	-46.3		66	4	
2025-08-28T12:00	27550	18	-46.4		55	4	
2025-08-28T12:00	27600	18	-46.5		54	5	
2025-08-28T12:00	27650	18	-46.5		58	6	
2025-08-28T12:00	27700	18	-46.8		65	6	
2025-08-28T12:00	27750	18	-46.9		70	6	
2025-08-28T12:00	27800	17	-47.0		73	6	
2025-08-28T12:00	27850	17	-47.2		77	6	
2025-08-28T12:00	27900	17	-47.1		83	5	
2025-08-28T12:00	27950	17	-47.0		90	5	
2025-08-28T12:00	28000	17	-47.0		93	4	
2025-08-28T12:00	28050	17	-47.2		88	4	
2025-08-28T12:00	28100	17	-47.1		72	3	
2025-08-28T12:00	28150	17	-47.0		54	3	
2025-08-28T12:00	28200	16	-46.9		46	3	
2025-08-28T12:00	28250	16	-46.7		46	4	
2025-08-28T12:00	28300	16	-46.9		47	5	
2025-08-28T12:00	28350	16	-47.1		46	6	
2025-08-28T12:00	28400	16	-47.2		47	7	
2025-08-28T12:00	28450	16	-47.3		52	8	
2025-08-28T12:00	28500	16	-47.0		62	8	
2025-08-28T12:00	28550	16	-46.9		74	8	
2025-08-28T12:00	28600	16	-47.0		85	8	
2025-08-28T12:00	28650	15	-47.1		95	8	
2025-08-28T12:00	28700	15	-47.1		103	8	
2025-08-28T12:00	28750	15	-46.9		108	8	
2025-08-28T12:00	28800	15	-46.9		111	6	
2025-08-28T12:00	28850	15	-47.1		114	5	
2025-08-28T12:00	28900	15	-47.2		114	4	
2025-08-28T12:00	28950	15	-47.1		111	4	
2025-08-28T12:00	29000	15	-46.9		108	4	
2025-08-28T12:00	29050	14	-46.8		103	4	
2025-08-28T12:00	29100	14	-46.7		97	4	
2025-08-28T12:00	29150	14	-46.7		97	4	
2025-08-28T12:00	29200	14	-46.7		103	3	
2025-08-28T12:00	29250	14	-46.9		107	3	
2025-08-28T12:00	29300	14	-46.8		101	2	
2025-08-28T12:00	29350	14	-46.8		89	2	
2025-08-28T12:00	29400	14	-46.9		67	1	
2025-08-28T12:00	29450	14	-46.8		25	1	
2025-08-28T12:00	29500	14	-46.8		7	2	
2025-08-28T12:00	29550	13	-46.8		9	2	
2025-08-28T12:00	29600	13	-46.6		19	2	
2025-08-28T12:00	29650	13	-46.4		36	2	
2025-08-28T12:00	29700	13	-46.2		55	2	
2025-08-28T12:00	29750	13	-46.3		63	3	
2025-08-28T12:00	29800	13	-46.5		59	3	
2025-08-28T12:00	29850	13	-46.5		50	3	
2025-08-28T12:00	29900	13	-46.3		41	4	
2025-08-28T12:00	29950	13	-46.1		33	4	
2025-08-28T12:00	30000	13	-46.1		27	4	
2025-08-28T12:00	30050	12	-46.1		27	4	
2025-08-28T12:00	30100	12	-46.0		35	5	
2025-08-28T12:00	30150	12	-46.1		43	6	
2025-08-28T12:00	30200	12	-46.0		47	7	
2025-08-28T12:00	30250	12	-45.9		49	8	
2025-08-28T12:00	30300	12	-45.8		52	8	
2025-08-28T12:00	30350	12	-45.8		55	8	
2025-08-28T12:00	30400	12	-45.4		61	8	
2025-08-28T12:00	30450	12	-45.0		66	8	
2025-08-28T12:00	30500	12	-44.8		71	8	
2025-08-28T12:00	30550	12	-44.8		73	8	
2025-08-28T12:00	30600	11	-44.5		72	7	
2025-08-28T12:00	30650	11	-44.5		68	6	
2025-08-28T12:00	30700	11	-44.6		66	6	
2025-08-28T12:00	30750	11	-44.8		71	5	
2025-08-28T12:00	30800	11	-45.0		76	5	
2025-08-28T12:00	30850	11	-44.9		79	6	
2025-08-28T12:00	30900	11	-44.8		79	6	
2025-08-28T12:00	30950	11	-44.5		79	6	
2025-08-28T12:00	31000	11	-44.3		80	5	
2025-08-28T12:00	31050	11	-44.3		86	6	
2025-08-28T12:00	31100	11	-43.9		92	6	
2025-08-28T12:00	31150	11	-43.6		98	7	
2025-08-28T12:00	31200	10	-43.6		104	6	
2025-08-28T12:00	31250	10	-43.5		114	6	
2025-08-28T12:00	31300	10	-43.6		124	6	
2025-08-28T12:00	31350	10	-44.2		135	6	
2025-08-28T12:00	31400	10	-44.6		143	7	
2025-08-28T12:00	31450	10	-44.8		149	7	
2025-08-28T12:00	31500	10	-44.8		152	6	
2025-08-28T12:00	31550	10	-44.8		151	5	
2025-08-28T12:00	31600	10	-44.5		140	4	
2025-08-28T12:00	31650	10	-44.2		121	3	
2025-08-28T12:00	31700	10	-44.0		97	3	
2025-08-28T12:00	31750	10	-44.1		72	3	
2025-08-28T12:00	31800	10	-44.2		52	3	
2025-08-28T12:00	31850	10	-44.3		40	4	
2025-08-28T12:00	31900	9	-44.4		33	5	
2025-08-28T12:00	31950	9	-44.2		34	6	
2025-08-28T12:00	32000	9	-43.7		42	8	
2025-08-28T12:00	32050	9	-43.2		54	8	
2025-08-28T12:00	32100	9	-43.1		67	8	
2025-08-28T12:00	32150	9	-43.0		80	8	
2025-08-28T12:00	32200	9	-43.1		87	8	
2025-08-28T12:00	32250	9	-42.9		87	9	
2025-08-28T12:00	32300	9	-42.7		84	9	
2025-08-28T12:00	32350	9	-42.7		83	9	
2025-08-28T12:00	32400	9	-42.6		86	9	
2025-08-28T12:00	32450	9	-42.8		89	10	
2025-08-28T12:00	32500	9	-42.9		91	10	
2025-08-28T12:00	32550	9	-43.0		96	10	
2025-08-28T12:00	32600	9	-43.1		102	10	
2025-08-28T12:00	32650	8	-43.0		108	10	
2025-08-28T12:00	32700	8	-42.9		116	9	
2025-08-28T12:00	32750	8	-42.4		126	8	
2025-08-28T12:00	32800	8	-42.0		137	8	
2025-08-28T12:00	32850	8	-41.6		146	8	
2025-08-28T12:00	32900	8	-41.3		151	7	
2025-08-28T12:00	32950	8	-41.1		151	5	
2025-08-28T12:00	33000	8	-40.8		140	4	
2025-08-28T12:00	33050	8	-40.3		115	4	
2025-08-28T12:00	33100	8	-40.0		96	5	
2025-08-28T12:00	33150	8	-39.8		91	6	
2025-08-28T12:00	33200	8	-39.7		90	6	
2025-08-28T12:00	33250	8	-39.6		85	7	
2025-08-28T12:00	33300	8	-39.6		80	8	
2025-08-28T12:00	33350	8	-39.8		77	9	
2025-08-28T12:00	33400	8	-40.0		74	10	
2025-08-28T12:00	33450	8	-39.9		71	11	
2025-08-28T12:00	33500	7	-39.7		70	12	
2025-08-28T12:00	33550	7	-39.3		71	13	
2025-08-28T12:00	33600	7	-38.7		74	13	
2025-08-28T12:00	33650	7	-38.4		76	13	
2025-08-28T12:00	33700	7	-38.1		79	12	
2025-08-28T12:00	33750	7	-37.9		82	11	
2025-08-28T12:00	33800	7	-38.0		85	10	
2025-08-28T12:00	33850	7	-38.2		88	9	
2025-08-28T12:00	33900	7	-38.2		87	8	
2025-08-28T12:00	33950	7	-38.1		81	8	
2025-08-28T12:00	34000	7	-37.8		74	8	
2025-08-28T12:00	34050	7	-37.9		69	9	
2025-08-28T12:00	34100	7	-38.1		66	10	
2025-08-28T12:00	34150	7	-38.1		64	11	
2025-08-28T12:00	34200	7	-38.3		63	13	
2025-08-28T12:00	34250	7	-38.6		66	14	
2025-08-28T12:00	34300	7	-38.7		69	15	
2025-08-28T12:00	34350	7	-38.4		73	15	
2025-08-29T00:00	491	953	14.8	13.5	187	3	
2025-08-29T00:00	501	952	14.9	13.0	205	3	
2025-08-29T00:00	520	950	15.0	12.9	217	3	
2025-08-29T00:00	540	948	14.9	12.7	216	3	
2025-08-29T00:00	560	945	14.8	12.4	216	4	
2025-08-29T00:00	580	943	14.8	12.0	216	5	
2025-08-29T00:00	600	941	14.9	11.7	217	5	
2025-08-29T00:00	620	939	14.7	11.5	218	5	
2025-08-29T00:00	640	937	14.6	11.3	222	5	
2025-08-29T00:00	660	934	14.4	11.0	227	4	
2025-08-29T00:00	680	932	14.4	10.5	236	4	
2025-08-29T00:00	700	930	14.4	9.4	244	4	
2025-08-29T00:00	720	928	14.6	8.3	249	4	
2025-08-29T00:00	740	926	14.6	7.9	253	4	
2025-08-29T00:00	760	924	14.4	7.9	258	4	
2025-08-29T00:00	780	922	14.2	7.9	261	4	
2025-08-29T00:00	800	919	14.0	7.8	263	4	
2025-08-29T00:00	820	917	13.8	7.8	265	4	
2025-08-29T00:00	840	915	13.7	7.5	266	4	
2025-08-29T00:00	860	913	13.6	7.3	268	4	
2025-08-29T00:00	880	911	13.5	7.2	269	4	
2025-08-29T00:00	900	908	13.3	7.1	272	4	
2025-08-29T00:00	920	906	13.1	7.1	278	4	
2025-08-29T00:00	940	904	13.0	7.0	287	4	
2025-08-29T00:00	960	902	12.7	6.9	300	4	
2025-08-29T00:00	980	900	12.6	6.8	312	4	
2025-08-29T00:00	1000	898	12.4	6.6	320	5	
2025-08-29T00:00	1020	895	12.3	6.5	324	6	
2025-08-29T00:00	1040	893	12.2	6.1	325	6	
2025-08-29T00:00	1060	891	12.2	5.3	324	6	
2025-08-29T00:00	1080	889	12.1	5.3	323	6	
2025-08-29T00:00	1100	887	11.9	5.1	325	7	
2025-08-29T00:00	1120	885	11.7	5.0	330	7	
2025-08-29T00:00	1140	883	11.6	4.8	334	7	
2025-08-29T00:00	1160	881	11.5	4.7	335	7	
2025-08-29T00:00	1180	879	11.3	4.7	331	7	
2025-08-29T00:00	1200	876	11.1	4.7	324	7	
2025-08-29T00:00	1220	874	10.9	4.6	318	7	
2025-08-29T00:00	1240	872	10.8	4.6	313	7	
2025-08-29T00:00	1260	870	10.7	4.6	309	7	
2025-08-29T00:00	1280	868	10.6	4.5	306	7	
2025-08-29T00:00	1300	866	10.4	4.6	306	8	
2025-08-29T00:00	1320	864	10.2	4.5	305	8	
2025-08-29T00:00	1340	862	10.1	4.3	305	8	
2025-08-29T00:00	1360	860	10.0	4.1	305	9	
2025-08-29T00:00	1380	858	9.9	3.9	305	9	
2025-08-29T00:00	1400	856	9.8	3.5	305	10	
2025-08-29T00:00	1420	853	9.7	3.1	305	10	
2025-08-29T00:00	1440	851	9.5	3.0	305	10	
2025-08-29T00:00	1460	850	9.4	2.8	305	10	
2025-08-29T00:00	1480	847	9.3	2.6	305	10	
2025-08-29T00:00	1500	845	9.1	2.2	305	10	
2025-08-29T00:00	1520	843	9.0	1.8	305	10	
2025-08-29T00:00	1540	841	8.8	1.7	306	10	
2025-08-29T00:00	1560	839	8.6	1.6	306	10	
2025-08-29T00:00	1580	837	8.4	1.6	307	10	
2025-08-29T00:00	1600	835	8.2	1.5	307	10	
2025-08-29T00:00	1620	833	8.1	1.4	308	10	
2025-08-29T00:00	1640	831	7.9	1.1	307	10	
2025-08-29T00:00	1660	829	7.7	0.9	306	9	
2025-08-29T00:00	1680	827	7.7	0.9	304	9	
2025-08-29T00:00	1700	825	7.5	0.9	302	9	
2025-08-29T00:00	1720	823	7.3	1.0	300	9	
2025-08-29T00:00	1740	821	7.1	1.2	297	9	
2025-08-29T00:00	1760	819	7.0	1.1	294	9	
2025-08-29T00:00	1780	817	6.8	1.0	291	9	
2025-08-29T00:00	1800	815	6.7	0.9	289	9	
2025-08-29T00:00	1820	813	6.5	0.9	288	9	
2025-08-29T00:00	1840	811	6.3	0.9	286	9	
2025-08-29T00:00	1860	809	6.2	0.9	284	9	
2025-08-29T00:00	1880	807	6.0	0.8	283	9	
2025-08-29T00:00	1900	805	5.8	0.8	281	9	
2025-08-29T00:00	1920	803	5.6	0.7	279	9	
2025-08-29T00:00	1940	801	5.5	0.9	278	9	
2025-08-29T00:00	1960	800	5.4	1.0	277	9	
2025-08-29T00:00	1980	798	5.3	1.3	276	9	
2025-08-29T00:00	2000	796	5.2	1.6	276	9	
2025-08-29T00:00	2020	794	5.1	1.9	275	9	
2025-08-29T00:00	2040	792	4.9	2.0	273	9	
2025-08-29T00:00	2060	790	4.8	2.0	270	9	
2025-08-29T00:00	2080	788	4.7	1.8	268	9	
2025-08-29T00:00	2100	786	4.7	1.8	266	9	
2025-08-29T00:00	2120	784	4.6	1.8	266	10	
2025-08-29T00:00	2140	782	4.4	2.0	267	9	
2025-08-29T00:00	2160	780	4.4	2.3	268	9	
2025-08-29T00:00	2180	778	4.4	2.9	268	8	
2025-08-29T00:00	2200	776	4.3	2.9	268	8	
2025-08-29T00:00	2220	774	4.2	3.0	265	7	
2025-08-29T00:00	2240	772	4.0	3.0	260	7	
2025-08-29T00:00	2260	771	3.8	2.9	257	8	
2025-08-29T00:00	2280	769	3.7	2.9	253	8	
2025-08-29T00:00	2300	767	3.5	2.8	252	9	
2025-08-29T00:00	2320	765	3.5	2.5	253	10	
2025-08-29T00:00	2340	763	3.5	2.4	255	11	
2025-08-29T00:00	2360	761	3.3	2.0	256	10	
2025-08-29T00:00	2380	759	3.2	1.9	256	10	
2025-08-29T00:00	2400	758	3.2	1.9	254	9	
2025-08-29T00:00	2420	755	3.0	1.7	252	9	
2025-08-29T00:00	2440	754	2.8	1.6	250	9	
2025-08-29T00:00	2460	752	2.7	1.5	250	9	
2025-08-29T00:00	2480	750	2.7	1.4	249	10	
2025-08-29T00:00	2500	748	2.6	1.4	249	10	
2025-08-29T00:00	2520	746	2.4	1.3	249	10	
2025-08-29T00:00	2540	745	2.3	1.2	249	10	
2025-08-29T00:00	2560	743	2.2	1.0	249	10	
2025-08-29T00:00	2580	741	2.1	0.9	249	10	
2025-08-29T00:00	2600	739	1.9	0.8	249	10	
2025-08-29T00:00	2620	737	1.7	0.7	250	10	
2025-08-29T00:00	2640	735	1.6	0.6	250	11	
2025-08-29T00:00	2660	733	1.5	0.5	249	11	
2025-08-29T00:00	2680	732	1.3	0.5	249	11	
2025-08-29T00:00	2700	730	1.2	0.4	248	11	
2025-08-29T00:00	2720	728	1.1	0.4	247	12	
2025-08-29T00:00	2740	726	1.1	0.3	247	12	
2025-08-29T00:00	2760	724	0.9	0.3	247	12	
2025-08-29T00:00	2780	723	0.9	0.2	248	12	
2025-08-29T00:00	2800	721	0.9	0.2	249	11	
2025-08-29T00:00	2820	719	0.8	0.2	250	11	
2025-08-29T00:00	2840	717	0.7	0.2	250	11	
2025-08-29T00:00	2860	715	0.6	0.1	250	11	
2025-08-29T00:00	2880	714	0.6	0.1	250	11	
2025-08-29T00:00	2900	712	0.6	0.1	250	12	
2025-08-29T00:00	2920	710	0.5	0.1	250	12	
2025-08-29T00:00	2940	708	0.5	0.0	249	12	
2025-08-29T00:00	2960	706	0.4	-0.2	249	12	
2025-08-29T00:00	2980	705	0.3	-0.2	248	11	
2025-08-29T00:00	3000	703	0.3	-0.4	247	11	
2025-08-29T00:00	3020	701	0.2	-0.4	246	11	
2025-08-29T00:00	3040	700	0.3	-0.5	245	11	
2025-08-29T00:00	3060	698	0.2	-0.5	244	11	
2025-08-29T00:00	3080	696	0.0	-0.5	243	10	
2025-08-29T00:00	3100	694	-0.1	-0.6	242	10	
2025-08-29T00:00	3120	693	-0.2	-0.7	241	10	
2025-08-29T00:00	3140	691	-0.3	-0.8	240	9	
2025-08-29T00:00	3160	689	-0.4	-0.9	240	9	
2025-08-29T00:00	3180	688	-0.6	-1.0	241	9	
2025-08-29T00:00	3200	686	-0.7	-1.0	242	9	
2025-08-29T00:00	3220	684	-0.9	-1.1	243	10	
2025-08-29T00:00	3240	682	-1.0	-1.2	244	10	
2025-08-29T00:00	3260	681	-1.1	-1.3	245	11	
2025-08-29T00:00	3280	679	-1.2	-1.4	246	11	
2025-08-29T00:00	3300	677	-1.4	-1.5	248	11	
2025-08-29T00:00	3320	675	-1.4	-1.7	251	10	
2025-08-29T00:00	3340	674	-1.5	-1.8	253	9	
2025-08-29T00:00	3360	672	-1.6	-2.0	253	8	
2025-08-29T00:00	3380	670	-1.7	-2.1	251	8	
2025-08-29T00:00	3400	669	-1.9	-2.2	249	8	
2025-08-29T00:00	3420	667	-2.0	-2.3	247	8	
2025-08-29T00:00	3440	665	-2.0	-2.3	248	9	
2025-08-29T00:00	3460	664	-2.1	-2.5	249	10	
2025-08-29T00:00	3480	662	-2.2	-2.6	251	11	
2025-08-29T00:00	3500	660	-2.3	-2.6	252	11	
2025-08-29T00:00	3520	659	-2.4	-2.7	251	11	
2025-08-29T00:00	3540	657	-2.5	-2.8	250	11	
2025-08-29T00:00	3560	655	-2.5	-3.0	248	11	
2025-08-29T00:00	3580	654	-2.6	-3.1	246	10	
2025-08-29T00:00	3600	652	-2.7	-3.2	245	10	
2025-08-29T00:00	3620	650	-2.7	-3.3	244	10	
2025-08-29T00:00	3640	649	-2.8	-3.3	242	10	
2025-08-29T00:00	3660	647	-3.0	-3.4	240	9	
2025-08-29T00:00	3680	646	-3.1	-3.5	238	10	
2025-08-29T00:00	3700	644	-3.1	-3.6	236	10	
2025-08-29T00:00	3720	642	-3.3	-3.8	234	10	
2025-08-29T00:00	3740	641	-3.4	-3.8	233	10	
2025-08-29T00:00	3760	639	-3.5	-3.9	233	10	
2025-08-29T00:00	3780	637	-3.6	-4.0	233	10	
2025-08-29T00:00	3800	636	-3.7	-4.1	234	10	
2025-08-29T00:00	3820	634	-3.8	-4.2	236	9	
2025-08-29T00:00	3840	633	-3.9	-4.3	237	9	
2025-08-29T00:00	3860	631	-4.1	-4.4	238	9	
2025-08-29T00:00	3880	630	-4.2	-4.5	239	9	
2025-08-29T00:00	3900	628	-4.4	-4.6	240	9	
2025-08-29T00:00	3920	626	-4.5	-4.7	240	9	
2025-08-29T00:00	3940	625	-4.6	-4.8	239	9	
2025-08-29T00:00	3960	623	-4.7	-4.9	239	10	
2025-08-29T00:00	3980	622	-4.8	-4.9	238	10	
2025-08-29T00:00	4000	620	-4.8	-5.0	236	10	
2025-08-29T00:00	4020	618	-4.8	-5.0	235	11	
2025-08-29T00:00	4040	617	-4.9	-5.2	234	11	
2025-08-29T00:00	4060	615	-5.0	-5.3	234	11	
2025-08-29T00:00	4080	614	-5.1	-5.4	234	11	
2025-08-29T00:00	4100	612	-5.3	-5.6	235	11	
2025-08-29T00:00	4120	611	-5.4	-5.7	236	11	
2025-08-29T00:00	4140	609	-5.5	-5.8	237	11	
2025-08-29T00:00	4160	608	-5.6	-6.0	237	11	
2025-08-29T00:00	4180	606	-5.6	-6.2	237	11	
2025-08-29T00:00	4200	604	-5.8	-6.3	236	11	
2025-08-29T00:00	4220	603	-5.9	-6.3	235	11	
2025-08-29T00:00	4240	601	-6.0	-6.4	235	11	
2025-08-29T00:00	4260	600	-6.1	-6.6	234	11	
2025-08-29T00:00	4280	598	-6.2	-6.6	233	11	
2025-08-29T00:00	4300	597	-6.4	-6.7	233	11	
2025-08-29T00:00	4320	595	-6.5	-6.9	232	12	
2025-08-29T00:00	4340	594	-6.5	-7.0	231	12	
2025-08-29T00:00	4360	592	-6.7	-7.1	231	12	
2025-08-29T00:00	4380	591	-6.8	-7.2	230	12	
2025-08-29T00:00	4400	589	-6.9	-7.4	228	12	
2025-08-29T00:00	4420	588	-7.0	-7.6	227	11	
2025-08-29T00:00	4440	586	-7.1	-7.6	225	11	
2025-08-29T00:00	4460	585	-7.2	-7.6	223	11	
2025-08-29T00:00	4480	583	-7.3	-7.8	221	11	
2025-08-29T00:00	4500	582	-7.4	-7.9	221	11	
2025-08-29T00:00	4520	580	-7.5	-8.0	220	12	
2025-08-29T00:00	4540	579	-7.6	-8.1	220	12	
2025-08-29T00:00	4560	577	-7.7	-8.1	220	12	
2025-08-29T00:00	4580	576	-7.9	-8.2	220	12	
2025-08-29T00:00	4600	574	-7.9	-8.2	220	12	
2025-08-29T00:00	4620	573	-8.0	-8.3	220	12	
2025-08-29T00:00	4640	572	-8.0	-8.5	220	12	
2025-08-29T00:00	4660	570	-8.1	-8.9	219	12	
2025-08-29T00:00	4680	568	-8.2	-9.1	218	12	
2025-08-29T00:00	4700	567	-8.3	-9.4	218	13	
2025-08-29T00:00	4720	565	-8.4	-9.4	217	13	
2025-08-29T00:00	4740	564	-8.5	-9.6	217	14	
2025-08-29T00:00	4760	563	-8.6	-9.8	217	14	
2025-08-29T00:00	4780	561	-8.7	-10.1	218	15	
2025-08-29T00:00	4800	560	-8.9	-10.5	220	15	
2025-08-29T00:00	4820	558	-9.0	-10.7	223	15	
2025-08-29T00:00	4840	557	-9.2	-11.1	225	15	
2025-08-29T00:00	4860	555	-9.3	-11.2	227	16	
2025-08-29T00:00	4880	554	-9.4	-11.4	227	16	
2025-08-29T00:00	4900	552	-9.6	-11.4	226	16	
2025-08-29T00:00	4920	551	-9.7	-11.8	226	15	
2025-08-29T00:00	4940	550	-9.9	-11.6	226	15	
2025-08-29T00:00	4960	548	-10.1	-11.9	228	15	
2025-08-29T00:00	4980	547	-10.2	-12.0	229	16	
2025-08-29T00:00	5000	545	-10.4	-12.1	229	17	
2025-08-29T00:00	5020	544	-10.6	-12.2	228	17	
2025-08-29T00:00	5040	543	-10.7	-12.2	227	18	
2025-08-29T00:00	5060	541	-10.9	-12.7	226	18	
2025-08-29T00:00	5080	540	-11.0	-13.1	224	18	
2025-08-29T00:00	5100	538	-11.1	-13.1	223	18	
2025-08-29T00:00	5120	537	-11.2	-13.3	221	18	
2025-08-29T00:00	5140	535	-11.1	-13.8	219	18	
2025-08-29T00:00	5160	534	-11.0	-14.0	218	18	
2025-08-29T00:00	5180	533	-11.1	-14.1	216	17	
2025-08-29T00:00	5200	531	-11.1	-14.3	216	17	
2025-08-29T00:00	5220	530	-11.2	-14.4	215	17	
2025-08-29T00:00	5240	529	-11.4	-14.5	216	17	
2025-08-29T00:00	5260	527	-11.6	-14.5	216	17	
2025-08-29T00:00	5280	526	-11.8	-14.6	216	17	
2025-08-29T00:00	5300	525	-11.8	-14.6	215	17	
2025-08-29T00:00	5320	523	-11.9	-14.6	214	17	
2025-08-29T00:00	5340	522	-11.9	-14.8	213	17	
2025-08-29T00:00	5360	520	-12.0	-14.9	211	17	
2025-08-29T00:00	5380	519	-12.1	-15.0	210	17	
2025-08-29T00:00	5400	518	-12.2	-15.1	209	17	
2025-08-29T00:00	5420	516	-12.3	-15.2	208	17	
2025-08-29T00:00	5440	515	-12.2	-15.4	207	17	
2025-08-29T00:00	5460	514	-12.2	-15.5	207	17	
2025-08-29T00:00	5480	512	-12.3	-15.6	206	17	
2025-08-29T00:00	5500	511	-12.4	-15.9	206	17	
2025-08-29T00:00	5520	510	-12.6	-16.0	205	17	
2025-08-29T00:00	5540	508	-12.7	-16.0	204	17	
2025-08-29T00:00	5560	507	-12.9	-16.1	203	17	
2025-08-29T00:00	5580	506	-13.1	-16.1	202	17	
2025-08-29T00:00	5600	504	-13.3	-16.3	201	17	
2025-08-29T00:00	5620	503	-13.4	-16.3	200	17	
2025-08-29T00:00	5640	502	-13.6	-16.4	199	17	
2025-08-29T00:00	5660	500	-13.8	-16.5	198	16	
2025-08-29T00:00	5680	499	-13.9	-16.5	197	16	
2025-08-29T00:00	5700	498	-14.1	-16.6	196	16	
2025-08-29T00:00	5720	496	-14.3	-16.7	196	16	
2025-08-29T00:00	5740	495	-14.5	-16.7	195	16	
2025-08-29T00:00	5760	494	-14.6	-16.8	193	16	
2025-08-29T00:00	5780	492	-14.8	-16.8	192	16	
2025-08-29T00:00	5800	491	-15.0	-16.9	190	15	
2025-08-29T00:00	5820	490	-15.1	-16.9	188	15	
2025-08-29T00:00	5840	489	-15.3	-16.9	186	15	
2025-08-29T00:00	5860	487	-15.4	-16.9	184	14	
2025-08-29T00:00	5880	486	-15.5	-16.9	182	14	
2025-08-29T00:00	5900	485	-15.7	-16.8	182	13	
2025-08-29T00:00	5920	483	-15.9	-17.0	181	13	
2025-08-29T00:00	5940	482	-16.0	-17.1	181	13	
2025-08-29T00:00	5960	481	-16.2	-17.1	181	14	
2025-08-29T00:00	5980	480	-16.4	-17.2	180	14	
2025-08-29T00:00	6000	478	-16.4	-17.3	180	15	
2025-08-29T00:00	6020	477	-16.5	-17.3	179	15	
2025-08-29T00:00	6040	476	-16.6	-17.6	179	15	
2025-08-29T00:00	6060	474	-16.8	-17.7	180	15	
2025-08-29T00:00	6080	473	-16.9	-17.9	181	15	
2025-08-29T00:00	6100	472	-17.0	-18.0	182	15	
2025-08-29T00:00	6120	471	-17.1	-18.1	183	15	
2025-08-29T00:00	6140	469	-17.2	-18.3	183	16	
2025-08-29T00:00	6160	468	-17.4	-18.5	181	16	
2025-08-29T00:00	6180	467	-17.5	-18.6	180	16	
2025-08-29T00:00	6200	466	-17.6	-18.8	178	16	
2025-08-29T00:00	6220	465	-17.7	-18.8	177	16	
2025-08-29T00:00	6240	463	-17.9	-19.0	177	16	
2025-08-29T00:00	6260	462	-18.0	-19.1	177	16	
2025-08-29T00:00	6280	461	-18.2	-19.2	179	16	
2025-08-29T00:00	6300	460	-18.3	-19.4	180	16	
2025-08-29T00:00	6320	458	-18.4	-19.6	182	16	
2025-08-29T00:00	6340	457	-18.5	-19.7	183	16	
2025-08-29T00:00	6360	456	-18.7	-19.8	183	16	
2025-08-29T00:00	6380	455	-18.9	-19.8	183	16	
2025-08-29T00:00	6400	453	-19.0	-20.0	182	16	
2025-08-29T00:00	6420	452	-19.1	-20.1	181	16	
2025-08-29T00:00	6440	451	-19.3	-20.2	181	16	
2025-08-29T00:00	6460	450	-19.3	-20.3	181	15	
2025-08-29T00:00	6480	449	-19.5	-20.5	181	15	
2025-08-29T00:00	6500	447	-19.6	-20.7	181	15	
2025-08-29T00:00	6520	446	-19.7	-20.9	182	15	
2025-08-29T00:00	6540	445	-19.8	-20.9	182	15	
2025-08-29T00:00	6560	444	-20.0	-21.2	182	15	
2025-08-29T00:00	6580	443	-20.1	-21.4	182	15	
2025-08-29T00:00	6600	441	-20.3	-21.6	182	15	
2025-08-29T00:00	6620	440	-20.4	-21.7	182	15	
2025-08-29T00:00	6640	439	-20.6	-21.9	182	15	
2025-08-29T00:00	6660	438	-20.7	-22.0	182	15	
2025-08-29T00:00	6680	437	-20.9	-22.2	181	15	
2025-08-29T00:00	6700	435	-21.0	-22.4	179	15	
2025-08-29T00:00	6720	434	-21.1	-22.6	178	15	
2025-08-29T00:00	6740	433	-21.2	-22.6	177	15	
2025-08-29T00:00	6760	432	-21.3	-22.6	176	15	
2025-08-29T00:00	6780	431	-21.3	-22.7	176	15	
2025-08-29T00:00	6800	430	-21.5	-23.0	175	15	
2025-08-29T00:00	6820	428	-21.6	-23.0	174	15	
2025-08-29T00:00	6840	427	-21.7	-23.3	174	15	
2025-08-29T00:00	6860	426	-21.8	-23.5	174	15	
2025-08-29T00:00	6880	425	-21.9	-23.7	173	15	
2025-08-29T00:00	6900	424	-22.0	-24.0	173	15	
2025-08-29T00:00	6920	423	-22.2	-24.0	173	14	
2025-08-29T00:00	6940	422	-22.3	-24.2	173	14	
2025-08-29T00:00	6960	420	-22.5	-24.5	172	14	
2025-08-29T00:00	6980	419	-22.6	-24.7	172	14	
2025-08-29T00:00	7000	418	-22.8	-24.9	171	14	
2025-08-29T00:00	7020	417	-23.0	-25.1	170	14	
2025-08-29T00:00	7040	416	-23.1	-25.3	169	14	
2025-08-29T00:00	7060	415	-23.3	-25.5	169	14	
2025-08-29T00:00	7080	414	-23.4	-25.7	168	14	
2025-08-29T00:00	7100	412	-23.6	-26.0	168	14	
2025-08-29T00:00	7120	411	-23.7	-26.1	168	14	
2025-08-29T00:00	7140	410	-23.9	-26.3	169	14	
2025-08-29T00:00	7160	409	-24.1	-26.5	169	14	
2025-08-29T00:00	7180	408	-24.2	-26.7	170	15	
2025-08-29T00:00	7200	407	-24.3	-26.9	170	15	
2025-08-29T00:00	7220	406	-24.5	-27.0	170	15	
2025-08-29T00:00	7240	405	-24.6	-27.0	171	16	
2025-08-29T00:00	7260	403	-24.8	-27.2	171	16	
2025-08-29T00:00	7280	402	-24.9	-27.2	172	16	
2025-08-29T00:00	7300	401	-25.0	-27.2	173	16	
2025-08-29T00:00	7320	400	-25.1	-27.4	173	17	
2025-08-29T00:00	7340	399	-25.2	-27.5	174	17	
2025-08-29T00:00	7360	398	-25.3	-27.6	174	17	
2025-08-29T00:00	7380	397	-25.5	-27.8	173	17	
2025-08-29T00:00	7400	396	-25.6	-27.9	173	16	
2025-08-29T00:00	7420	395	-25.8	-28.1	172	16	
2025-08-29T00:00	7440	394	-26.0	-28.2	171	16	
2025-08-29T00:00	7460	392	-26.2	-28.3	170	16	
2025-08-29T00:00	7480	391	-26.3	-28.5	169	16	
2025-08-29T00:00	7500	390	-26.5	-28.6	168	16	
2025-08-29T00:00	7520	389	-26.6	-28.7	167	16	
2025-08-29T00:00	7540	388	-26.8	-28.8	166	16	
2025-08-29T00:00	7560	387	-27.0	-29.0	166	16	
2025-08-29T00:00	7580	386	-27.2	-29.0	167	16	
2025-08-29T00:00	7600	385	-27.3	-29.0	167	16	
2025-08-29T00:00	7620	384	-27.5	-29.3	168	16	
2025-08-29T00:00	7640	383	-27.6	-29.6	168	16	
2025-08-29T00:00	7660	382	-27.8	-29.6	168	16	
2025-08-29T00:00	7680	381	-27.9	-29.7	168	16	
2025-08-29T00:00	7700	380	-28.1	-30.1	168	16	
2025-08-29T00:00	7720	379	-28.3	-30.4	167	17	
2025-08-29T00:00	7740	377	-28.5	-30.6	167	17	
2025-08-29T00:00	7760	377	-28.6	-30.8	166	17	
2025-08-29T00:00	7780	375	-28.8	-31.1	165	16	
2025-08-29T00:00	7800	374	-28.9	-31.3	163	16	
2025-08-29T00:00	7820	373	-29.1	-31.6	163	16	
2025-08-29T00:00	7840	372	-29.2	-31.7	163	15	
2025-08-29T00:00	7860	371	-29.3	-31.9	165	15	
2025-08-29T00:00	7880	370	-29.5	-31.9	169	16	
2025-08-29T00:00	7900	369	-29.5	-32.5	173	17	
2025-08-29T00:00	7920	368	-29.3	-33.3	178	18	
2025-08-29T00:00	7940	367	-29.3	-33.4	182	19	
2025-08-29T00:00	7960	366	-29.4	-33.6	184	20	
2025-08-29T00:00	7980	365	-29.6	-33.8	185	20	
2025-08-29T00:00	8000	364	-29.7	-35.6	186	20	
2025-08-29T00:00	8020	363	-29.7	-36.3	186	20	
2025-08-29T00:00	8040	362	-29.9	-35.9	186	20	
2025-08-29T00:00	8060	361	-30.1	-36.1	187	20	
2025-08-29T00:00	8080	360	-30.2	-36.4	188	20	
2025-08-29T00:00	8100	359	-30.4	-36.3	187	20	
2025-08-29T00:00	8120	358	-30.5	-36.3	186	21	
2025-08-29T00:00	8140	357	-30.7	-36.3	186	22	
2025-08-29T00:00	8160	356	-30.9	-36.4	187	22	
2025-08-29T00:00	8180	355	-31.1	-36.8	188	23	
2025-08-29T00:00	8200	354	-31.2	-37.9	188	24	
2025-08-29T00:00	8220	353	-31.4	-37.6	187	24	
2025-08-29T00:00	8240	352	-31.5	-37.5	185	24	
2025-08-29T00:00	8260	351	-31.8	-37.5	184	23	
2025-08-29T00:00	8280	350	-32.0	-37.7	184	23	
2025-08-29T00:00	8300	349	-32.2	-37.7	187	23	
2025-08-29T00:00	8320	348	-32.4	-37.7	190	24	
2025-08-29T00:00	8340	347	-32.6	-38.0	191	25	
2025-08-29T00:00	8360	346	-32.7	-38.6	192	25	
2025-08-29T00:00	8380	345	-32.9	-38.5	192	25	
2025-08-29T00:00	8400	344	-33.1	-37.8	192	25	
2025-08-29T00:00	8420	343	-33.2	-39.3	192	25	
2025-08-29T00:00	8440	342	-33.4	-39.7	192	25	
2025-08-29T00:00	8460	341	-33.6	-39.6	192	25	
2025-08-29T00:00	8480	340	-33.8	-39.8	192	25	
2025-08-29T00:00	8500	339	-34.0	-39.7	192	25	
2025-08-29T00:00	8520	338	-34.2	-39.8	192	25	
2025-08-29T00:00	8540	337	-34.3	-39.8	192	25	
2025-08-29T00:00	8560	336	-34.5	-40.0	192	25	
2025-08-29T00:00	8580	335	-34.7	-40.0	192	25	
2025-08-29T00:00	8600	334	-35.0	-40.0	192	26	
2025-08-29T00:00	8620	333	-35.1	-40.3	192	26	
2025-08-29T00:00	8640	332	-35.3	-40.8	192	26	
2025-08-29T00:00	8660	332	-35.4	-40.8	192	26	
2025-08-29T00:00	8680	331	-35.6	-40.7	193	26	
2025-08-29T00:00	8700	330	-35.8	-40.9	193	26	
2025-08-29T00:00	8720	329	-36.0	-41.1	192	26	
2025-08-29T00:00	8740	328	-36.2	-41.2	192	26	
2025-08-29T00:00	8760	327	-36.4	-41.3	192	27	
2025-08-29T00:00	8780	326	-36.6	-41.1	191	27	
2025-08-29T00:00	8800	325	-36.8	-40.6	190	27	
2025-08-29T00:00	8820	324	-37.0	-40.5	190	27	
2025-08-29T00:00	8840	323	-37.2	-40.6	189	27	
2025-08-29T00:00	8860	322	-37.4	-40.9	189	27	
2025-08-29T00:00	8880	321	-37.6	-40.9	189	26	
2025-08-29T00:00	8900	320	-37.7	-40.9	189	26	
2025-08-29T00:00	8920	319	-37.9	-41.1	189	26	
2025-08-29T00:00	8940	318	-38.1	-41.3	190	26	
2025-08-29T00:00	8960	318	-38.3	-41.7	191	26	
2025-08-29T00:00	8980	317	-38.5	-41.8	191	26	
2025-08-29T00:00	9000	316	-38.7	-41.8	191	26	
2025-08-29T00:00	9020	315	-38.9	-41.8	191	26	
2025-08-29T00:00	9040	314	-39.1	-42.0	191	26	
2025-08-29T00:00	9060	313	-39.2	-42.3	190	27	
2025-08-29T00:00	9080	312	-39.4	-42.4	189	27	
2025-08-29T00:00	9100	311	-39.6	-42.6	188	27	
2025-08-29T00:00	9120	310	-39.8	-42.7	187	27	
2025-08-29T00:00	9140	309	-39.9	-42.8	187	27	
2025-08-29T00:00	9160	308	-40.1	-42.9	186	27	
2025-08-29T00:00	9180	307	-40.3	-43.2	186	27	
2025-08-29T00:00	9200	306	-40.4	-43.6	186	27	
2025-08-29T00:00	9220	306	-40.5	-43.8	186	27	
2025-08-29T00:00	9240	305	-40.6	-44.0	187	27	
2025-08-29T00:00	9260	304	-40.8	-43.9	187	28	
2025-08-29T00:00	9280	303	-40.9	-44.1	187	28	
2025-08-29T00:00	9300	302	-41.1	-44.3	187	28	
2025-08-29T00:00	9320	301	-41.2	-44.5	187	28	
2025-08-29T00:00	9340	300	-41.4	-44.8	188	28	
2025-08-29T00:00	9360	299	-41.5	-44.8	189	28	
2025-08-29T00:00	9380	298	-41.6	-44.7	190	28	
2025-08-29T00:00	9400	298	-41.7	-44.7	191	29	
2025-08-29T00:00	9420	297	-41.9	-44.7	192	29	
2025-08-29T00:00	9440	296	-41.9	-44.7	193	30	
2025-08-29T00:00	9460	295	-41.8	-44.6	193	30	
2025-08-29T00:00	9480	294	-41.9	-45.0	193	31	
2025-08-29T00:00	9500	293	-41.9	-46.1	192	32	
2025-08-29T00:00	9520	292	-41.7	-47.5	192	33	
2025-08-29T00:00	9540	291	-41.0	-49.1	190	35	
2025-08-29T00:00	9560	291	-40.6	-50.2	188	37	
2025-08-29T00:00	9580	290	-40.5	-50.2	186	37	
2025-08-29T00:00	9600	289	-40.7	-50.4	185	37	
2025-08-29T00:00	9620	288	-40.6	-51.4	184	36	
2025-08-29T00:00	9640	287	-40.6	-51.3	183	36	
2025-08-29T00:00	9660	286	-40.7	-51.4	182	38	
2025-08-29T00:00	9680	286	-40.4	-51.8	181	39	
2025-08-29T00:00	9700	285	-40.2	-51.5	181	41	
2025-08-29T00:00	9720	284	-40.3	-51.4	180	42	
2025-08-29T00:00	9740	283	-40.3	-51.4	179	43	
2025-08-29T00:00	9760	282	-40.3	-51.5	179	44	
2025-08-29T00:00	9780	281	-40.5	-52.1	178	44	
2025-08-29T00:00	9800	281	-40.4	-52.5	178	45	
2025-08-29T00:00	9820	280	-40.3	-50.8	178	45	
2025-08-29T00:00	9840	279	-40.0	-47.3	177	46	
2025-08-29T00:00	9860	278	-40.0	-46.8	177	46	
2025-08-29T00:00	9880	277	-39.9	-46.3	176	46	
2025-08-29T00:00	9900	276	-40.1	-46.2	176	47	
2025-08-29T00:00	9920	276	-40.2	-46.3	176	47	
2025-08-29T00:00	9940	275	-40.4	-46.4	176	47	
2025-08-29T00:00	9960	274	-40.6	-45.9	175	46	
2025-08-29T00:00	9980	273	-40.7	-45.1	175	46	
2025-08-29T00:00	10000	272	-40.9	-45.2	175	46	
2025-08-29T00:00	10018	272	-41.1	-45.3	174	45	
2025-08-29T00:00	10050	270	-41.4	-45.5	174	45	
2025-08-29T00:00	10100	268	-41.9	-46.3	174	45	
2025-08-29T00:00	10150	266	-42.2	-46.4	172	47	
2025-08-29T00:00	10200	265	-42.5	-46.5	171	49	
2025-08-29T00:00	10250	263	-43.0	-46.6	170	50	
2025-08-29T00:00	10300	261	-43.3	-47.0	169	50	
2025-08-29T00:00	10350	259	-43.7	-47.1	169	51	
2025-08-29T00:00	10400	257	-44.1	-47.3	169	51	
2025-08-29T00:00	10450	255	-44.5	-47.9	168	52	
2025-08-29T00:00	10500	253	-44.8	-48.2	167	53	
2025-08-29T00:00	10550	251	-45.0	-48.4	166	53	
2025-08-29T00:00	10600	249	-45.2	-48.6	166	54	
2025-08-29T00:00	10650	247	-45.3	-48.8	168	55	
2025-08-29T00:00	10700	246	-45.3	-49.2	169	55	
2025-08-29T00:00	10750	244	-45.7	-49.9	170	54	
2025-08-29T00:00	10800	242	-46.1	-50.7	170	54	
2025-08-29T00:00	10850	240	-46.5	-50.9	172	53	
2025-08-29T00:00	10900	238	-46.9	-51.6	173	53	
2025-08-29T00:00	10950	236	-47.3	-52.9	174	53	
2025-08-29T00:00	11000	235	-47.8	-52.9	174	53	
2025-08-29T00:00	11050	233	-48.3	-53.9	175	52	
2025-08-29T00:00	11100	231	-48.7	-58.3	175	52	
2025-08-29T00:00	11150	229	-49.2	-57.6	175	51	
2025-08-29T00:00	11200	228	-49.6	-57.7	175	50	
2025-08-29T00:00	11250	226	-50.1	-58.1	175	50	
2025-08-29T00:00	11300	224	-50.5	-59.3	175	50	
2025-08-29T00:00	11350	222	-50.9	-60.2	175	49	
2025-08-29T00:00	11400	221	-51.2	-61.4	176	48	
2025-08-29T00:00	11450	219	-51.3	-65.9	178	48	
2025-08-29T00:00	11500	217	-51.3	-71.3	180	47	
2025-08-29T00:00	11550	216	-51.0	-71.4	183	48	
2025-08-29T00:00	11600	214	-50.8	-71.0	185	48	
2025-08-29T00:00	11650	212	-51.2	-70.9	187	48	
2025-08-29T00:00	11700	211	-51.2	-71.1	190	47	
2025-08-29T00:00	11750	209	-51.1	-71.5	192	47	
2025-08-29T00:00	11800	208	-51.0	-72.5	194	46	
2025-08-29T00:00	11850	206	-50.7	-73.8	196	45	
2025-08-29T00:00	11900	204	-51.1	-74.0	198	45	
2025-08-29T00:00	11950	203	-51.3	-74.2	200	44	
2025-08-29T00:00	12000	201	-51.2	-74.6	202	44	
2025-08-29T00:00	12050	200	-51.2	-75.0	203	44	
2025-08-29T00:00	12100	198	-51.2	-75.4	203	43	
2025-08-29T00:00	12150	197	-51.3	-75.4	204	43	
2025-08-29T00:00	12200	195	-51.6	-75.7	205	42	
2025-08-29T00:00	12250	194	-51.8	-75.9	206	42	
2025-08-29T00:00	12300	192	-51.8	-76.3	207	42	
2025-08-29T00:00	12350	191	-52.0	-76.4	208	42	
2025-08-29T00:00	12400	189	-52.1	-76.6	208	41	
2025-08-29T00:00	12450	188	-52.0	-76.8	209	40	
2025-08-29T00:00	12500	186	-52.0	-77.0	209	39	
2025-08-29T00:00	12550	185	-52.1	-77.1	210	37	
2025-08-29T00:00	12600	183	-52.5	-77.2	210	36	
2025-08-29T00:00	12650	182	-52.7	-77.3	210	35	
2025-08-29T00:00	12700	181	-52.9	-77.7	211	34	
2025-08-29T00:00	12750	179	-52.4	-78.3	212	34	
2025-08-29T00:00	12800	178	-52.0	-78.9	213	34	
2025-08-29T00:00	12850	177	-52.1	-79.2	213	33	
2025-08-29T00:00	12900	175	-51.7	-79.4	212	33	
2025-08-29T00:00	12950	174	-51.7	-79.6	211	32	
2025-08-29T00:00	13000	172	-52.0	-79.7	211	32	
2025-08-29T00:00	13050	171	-52.1	-79.6	210	32	
2025-08-29T00:00	13100	170	-52.3	-79.8	210	32	
2025-08-29T00:00	13150	169	-52.2	-80.1	213	33	
2025-08-29T00:00	13200	167	-51.4	-80.1	214	33	
2025-08-29T00:00	13250	166	-51.2	-80.1	214	32	
2025-08-29T00:00	13300	165	-51.4	-80.1	212	31	
2025-08-29T00:00	13350	163	-51.6	-80.1	211	31	
2025-08-29T00:00	13400	162	-51.8	-80.3	211	29	
2025-08-29T00:00	13450	161	-52.1	-80.4	212	28	
2025-08-29T00:00	13500	160	-52.1	-80.3	212	28	
2025-08-29T00:00	13550	158	-52.2	-80.4	210	28	
2025-08-29T00:00	13600	157	-52.3	-80.5	209	28	
2025-08-29T00:00	13650	156	-52.6	-80.6	207	28	
2025-08-29T00:00	13700	155	-52.9	-80.6	205	28	
2025-08-29T00:00	13750	154	-53.2	-80.7	205	28	
2025-08-29T00:00	13800	152	-53.4	-81.1	206	28	
2025-08-29T00:00	13850	151	-53.0	-81.1	208	29	
2025-08-29T00:00	13900	150	-52.9	-81.1	210	30	
2025-08-29T00:00	13950	149	-52.3	-81.1	212	31	
2025-08-29T00:00	14000	148	-51.3	-80.9	214	31	
2025-08-29T00:00	14050	147	-50.8	-80.8	214	31	
2025-08-29T00:00	14100	146	-50.9	-80.7	215	31	
2025-08-29T00:00	14150	144	-51.2	-81.0	217	30	
2025-08-29T00:00	14200	143	-51.0	-80.8	219	31	
2025-08-29T00:00	14250	142	-51.2	-81.0	221	30	
2025-08-29T00:00	14300	141	-50.9	-80.9	224	29	
2025-08-29T00:00	14350	140	-50.3	-80.8	227	27	
2025-08-29T00:00	14400	139	-50.1	-80.8	230	26	
2025-08-29T00:00	14450	138	-49.3	-80.5	233	26	
2025-08-29T00:00	14500	137	-49.5	-80.5	233	26	
2025-08-29T00:00	14550	136	-49.9	-80.5	235	27	
2025-08-29T00:00	14600	135	-50.2	-80.6	237	26	
2025-08-29T00:00	14650	134	-50.3	-80.7	239	26	
2025-08-29T00:00	14700	133	-50.5	-80.7	240	25	
2025-08-29T00:00	14750	132	-50.4	-80.8	240	24	
2025-08-29T00:00	14800	131	-50.2	-80.8	241	22	
2025-08-29T00:00	14850	130	-50.7	-81.0	243	21	
2025-08-29T00:00	14900	129	-50.8	-81.0	244	20	
2025-08-29T00:00	14950	128	-50.8	-81.0	245	18	
2025-08-29T00:00	15000	127	-50.8	-81.2	243	17	
2025-08-29T00:00	15050	126	-50.7	-81.1	242	16	
2025-08-29T00:00	15100	125	-50.8	-81.1	239	14	
2025-08-29T00:00	15150	124	-51.1	-81.2	233	13	
2025-08-29T00:00	15200	123	-51.3	-81.2	227	13	
2025-08-29T00:00	15250	122	-51.4	-81.2	220	13	
2025-08-29T00:00	15300	121	-51.8	-81.3	216	13	
2025-08-29T00:00	15350	120	-52.1	-81.4	211	13	
2025-08-29T00:00	15400	119	-52.5	-81.5	204	13	
2025-08-29T00:00	15450	118	-52.9	-81.6	198	13	
2025-08-29T00:00	15500	117	-53.3	-81.6	195	14	
2025-08-29T00:00	15550	116	-53.8	-81.9	194	15	
2025-08-29T00:00	15600	116	-54.0	-82.2	196	17	
2025-08-29T00:00	15650	115	-53.6	-82.0	200	17	
2025-08-29T00:00	15700	114	-53.8	-82.2	203	17	
2025-08-29T00:00	15750	113	-53.9	-82.2	207	16	
2025-08-29T00:00	15800	112	-53.8	-82.3	212	15	
2025-08-29T00:00	15850	111	-53.8	-82.4	216	15	
2025-08-29T00:00	15900	110	-53.5	-82.5	218	15	
2025-08-29T00:00	15950	109	-53.1	-82.3	214	15	
2025-08-29T00:00	16000	109	-53.3	-82.3	209	15	
2025-08-29T00:00	16050	108	-53.5	-82.4	204	15	
2025-08-29T00:00	16100	107	-53.6	-82.4	202	16	
2025-08-29T00:00	16150	106	-53.6	-82.4	202	17	
2025-08-29T00:00	16200	105	-53.9	-82.4	205	17	
2025-08-29T00:00	16250	104	-54.1	-82.5	209	17	
2025-08-29T00:00	16300	104	-54.2	-82.5	212	16	
2025-08-29T00:00	16350	103	-54.1	-82.5	214	15	
2025-08-29T00:00	16400	102	-54.5	-82.7	216	15	
2025-08-29T00:00	16450	101	-54.7	-82.9	220	15	
2025-08-29T00:00	16500	100	-54.6	-82.8	222	16	
2025-08-29T00:00	16550	100	-55.0	-82.9	224	16	
2025-08-29T00:00	16600	99	-55.5	-83.3	225	16	
2025-08-29T00:00	16650	98	-54.9	-83.2	229	15	
2025-08-29T00:00	16700	97	-54.2	-83.2	233	14	
2025-08-29T00:00	16750	97	-54.0	-83.1	235	13	
2025-08-29T00:00	16800	96	-54.1	-83.1	236	12	
2025-08-29T00:00	16850	95	-54.0	-83.0	234	10	
2025-08-29T00:00	16900	94	-54.0	-83.1	230	9	
2025-08-29T00:00	16950	94	-53.9	-83.2	219	7	
2025-08-29T00:00	17000	93	-53.9	-83.1	202	7	
2025-08-29T00:00	17050	92	-53.7	-83.1	190	7	
2025-08-29T00:00	17100	91	-53.7	-83.1	185	8	
2025-08-29T00:00	17150	91	-53.8	-83.0	184	9	
2025-08-29T00:00	17200	90	-54.2	-83.2	186	9	
2025-08-29T00:00	17250	89	-54.6	-83.3	188	10	
2025-08-29T00:00	17300	89	-54.9	-83.3	191	10	
2025-08-29T00:00	17350	88	-55.3	-83.3	194	10	
2025-08-29T00:00	17400	87	-55.6	-83.6	197	11	
2025-08-29T00:00	17450	87	-56.0	-84.0	200	11	
2025-08-29T00:00	17500	86	-56.3	-84.1	205	11	
2025-08-29T00:00	17550	85	-56.4	-84.3	210	11	
2025-08-29T00:00	17600	85	-55.9	-84.2	216	11	
2025-08-29T00:00	17650	84	-55.5	-84.1	221	11	
2025-08-29T00:00	17700	83	-55.9	-84.2	224	11	
2025-08-29T00:00	17750	83	-56.3	-84.3	224	11	
2025-08-29T00:00	17800	82	-56.5	-84.2	223	11	
2025-08-29T00:00	17850	81	-56.8	-84.4	224	11	
2025-08-29T00:00	17900	81	-56.7	-84.7	227	11	
2025-08-29T00:00	17950	80	-56.2	-84.8	226	10	
2025-08-29T00:00	18000	79	-55.1	-84.4	221	8	
2025-08-29T00:00	18050	79	-55.0	-84.4	208	7	
2025-08-29T00:00	18100	78	-54.6	-84.1	190	6	
2025-08-29T00:00	18150	78	-54.2	-84.0	179	7	
2025-08-29T00:00	18200	77	-54.1	-84.0	178	8	
2025-08-29T00:00	18250	76	-54.4	-84.0	181	9	
2025-08-29T00:00	18300	76	-54.7	-84.0	184	9	
2025-08-29T00:00	18350	75	-55.2	-84.1	185	10	
2025-08-29T00:00	18400	75	-55.6	-84.1	185	10	
2025-08-29T00:00	18450	74	-56.1	-84.4	186	11	
2025-08-29T00:00	18500	73	-56.5	-84.6	189	11	
2025-08-29T00:00	18550	73	-56.9	-84.7	191	11	
2025-08-29T00:00	18600	72	-57.3	-84.8	194	11	
2025-08-29T00:00	18650	72	-57.7	-84.9	196	11	
2025-08-29T00:00	18700	71	-58.0	-85.2	200	11	
2025-08-29T00:00	18750	71	-58.0	-85.3	204	11	
2025-08-29T00:00	18800	70	-58.3	-85.4	209	11	
2025-08-29T00:00	18850	69	-58.3	-85.3	216	10	
2025-08-29T00:00	18900	69	-58.4	-85.8	224	9	
2025-08-29T00:00	18950	68	-57.4	-85.8	231	8	
2025-08-29T00:00	19000	68	-56.4	-85.6	232	7	
2025-08-29T00:00	19050	67	-56.2	-85.6	233	5	
2025-08-29T00:00	19100	67	-55.6	-85.2	233	5	
2025-08-29T00:00	19150	66	-55.1	-84.9	230	6	
2025-08-29T00:00	19200	66	-55.2	-84.9	227	8	
2025-08-29T00:00	19250	65	-54.7	-84.7	229	8	
2025-08-29T00:00	19300	65	-54.2	-84.4	238	8	
2025-08-29T00:00	19350	64	-54.4	-84.4	248	9	
2025-08-29T00:00	19400	64	-54.6	-84.4	253	9	
2025-08-29T00:00	19450	63	-54.4	-84.3	252	9	
2025-08-29T00:00	19500	63	-54.2	-84.2	248	8	
2025-08-29T00:00	19550	62	-54.4	-84.3	246	7	
2025-08-29T00:00	19600	62	-54.5	-84.3	246	5	
2025-08-29T00:00	19650	61	-54.6	-84.3	239	5	
2025-08-29T00:00	19700	61	-54.8	-84.3	224	5	
2025-08-29T00:00	19750	60	-54.6	-83.8	214	5	
2025-08-29T00:00	19800	60	-54.2	-83.5	211	5	
2025-08-29T00:00	19850	59	-54.2	-83.9	213	4	
2025-08-29T00:00	19900	59	-54.3	-84.2	217	3	
2025-08-29T00:00	19950	58	-54.5	-84.2	208	3	
2025-08-29T00:00	20000	58	-54.7	-84.2	186	3	
2025-08-29T00:00	20050	58	-54.9		178	3	
2025-08-29T00:00	20100	57	-55.0		181	4	
2025-08-29T00:00	20150	57	-55.3		184	4	
2025-08-29T00:00	20200	56	-55.7		190	5	
2025-08-29T00:00	20250	56	-55.9		195	6	
2025-08-29T00:00	20300	55	-55.5		196	6	
2025-08-29T00:00	20350	55	-54.9		193	7	
2025-08-29T00:00	20400	54	-54.1		193	8	
2025-08-29T00:00	20450	54	-54.0		197	9	
2025-08-29T00:00	20500	54	-54.3		204	10	
2025-08-29T00:00	20550	53	-54.2		210	12	
2025-08-29T00:00	20600	53	-53.8		215	13	
2025-08-29T00:00	20650	52	-53.7		217	14	
2025-08-29T00:00	20700	52	-53.6		220	14	
2025-08-29T00:00	20750	52	-53.4		227	14	
2025-08-29T00:00	20800	51	-53.2		235	13	
2025-08-29T00:00	20850	51	-52.6		241	12	
2025-08-29T00:00	20900	50	-52.1		245	11	
2025-08-29T00:00	20950	50	-52.0		249	9	
2025-08-29T00:00	21000	50	-51.8		256	8	
2025-08-29T00:00	21050	49	-51.8		267	7	
2025-08-29T00:00	21100	49	-51.2		272	7	
2025-08-29T00:00	21150	48	-51.0		274	6	
2025-08-29T00:00	21200	48	-50.9		275	5	
2025-08-29T00:00	21250	48	-50.9		277	3	
2025-08-29T00:00	21300	47	-50.9		278	2	
2025-08-29T00:00	21350	47	-50.9		264	2	
2025-08-29T00:00	21400	47	-50.9		242	2	
2025-08-29T00:00	21450	46	-50.8		208	1	
2025-08-29T00:00	21500	46	-50.6		107	1	
2025-08-29T00:00	21550	46	-50.6		94	3	
2025-08-29T00:00	21600	45	-50.6		99	4	
2025-08-29T00:00	21650	45	-50.7		107	6	
2025-08-29T00:00	21700	45	-50.9		115	6	
2025-08-29T00:00	21750	44	-51.1		121	7	
2025-08-29T00:00	21800	44	-51.6		126	8	
2025-08-29T00:00	21850	44	-51.7		128	8	
2025-08-29T00:00	21900	43	-51.7		132	8	
2025-08-29T00:00	21950	43	-52.0		138	9	
2025-08-29T00:00	22000	43	-52.2		145	9	
2025-08-29T00:00	22050	42	-52.4		150	9	
2025-08-29T00:00	22100	42	-52.6		155	10	
2025-08-29T00:00	22150	42	-52.9		159	9	
2025-08-29T00:00	22200	41	-53.1		164	8	
2025-08-29T00:00	22250	41	-53.4		170	7	
2025-08-29T00:00	22300	41	-53.6		178	6	
2025-08-29T00:00	22350	40	-53.9		187	5	
2025-08-29T00:00	22400	40	-54.2		199	5	
2025-08-29T00:00	22450	40	-54.6		212	5	
2025-08-29T00:00	22500	39	-54.6		224	5	
2025-08-29T00:00	22550	39	-54.3		233	4	
2025-08-29T00:00	22600	39	-54.3		233	2	
2025-08-29T00:00	22650	38	-53.9		189	1	
2025-08-29T00:00	22700	38	-53.7		144	3	
2025-08-29T00:00	22750	38	-53.8		138	4	
2025-08-29T00:00	22800	38	-53.8		138	5	
2025-08-29T00:00	22850	37	-53.5		138	4	
2025-08-29T00:00	22900	37	-53.4		135	4	
2025-08-29T00:00	22950	37	-53.2		135	5	
2025-08-29T00:00	23000	36	-52.7		140	6	
2025-08-29T00:00	23050	36	-52.6		146	6	
2025-08-29T00:00	23100	36	-52.6		147	5	
2025-08-29T00:00	23150	36	-52.2		146	4	
2025-08-29T00:00	23200	35	-52.0		148	4	
2025-08-29T00:00	23250	35	-52.0		153	5	
2025-08-29T00:00	23300	35	-52.3		161	5	
2025-08-29T00:00	23350	35	-52.5		170	5	
2025-08-29T00:00	23400	34	-52.7		178	5	
2025-08-29T00:00	23450	34	-52.6		186	4	
2025-08-29T00:00	23500	34	-52.6		197	3	
2025-08-29T00:00	23550	33	-52.5		210	2	
2025-08-29T00:00	23600	33	-52.4		215	2	
2025-08-29T00:00	23650	33	-52.4		207	2	
2025-08-29T00:00	23700	33	-52.4		177	1	
2025-08-29T00:00	23750	32	-52.1		104	1	
2025-08-29T00:00	23800	32	-51.8		94	2	
2025-08-29T00:00	23850	32	-51.5		128	2	
2025-08-29T00:00	23900	32	-50.8		158	2	
2025-08-29T00:00	23950	31	-50.4		170	2	
2025-08-29T00:00	24000	31	-50.1		164	1	
2025-08-29T00:00	24050	31	-49.6		134	1	
2025-08-29T00:00	24100	31	-49.5		99	2	
2025-08-29T00:00	24150	31	-49.6		84	3	
2025-08-29T00:00	24200	30	-49.5		78	4	
2025-08-29T00:00	24250	30	-49.5		77	4	
2025-08-29T00:00	24300	30	-49.6		85	5	
2025-08-29T00:00	24350	30	-49.6		97	5	
2025-08-29T00:00	24400	29	-49.8		111	6	
2025-08-29T00:00	24450	29	-49.8		123	7	
2025-08-29T00:00	24500	29	-49.9		133	7	
2025-08-29T00:00	24550	29	-50.1		141	7	
2025-08-29T00:00	24600	28	-50.2		146	6	
2025-08-29T00:00	24650	28	-50.3		151	6	
2025-08-29T00:00	24700	28	-50.4		157	5	
2025-08-29T00:00	24750	28	-50.6		162	5	
2025-08-29T00:00	24800	28	-50.5		165	5	
2025-08-29T00:00	24850	27	-50.4		163	4	
2025-08-29T00:00	24900	27	-50.5		154	3	
2025-08-29T00:00	24950	27	-50.5		140	2	
2025-08-29T00:00	25000	27	-50.3		115	2	
2025-08-29T00:00	25050	27	-50.0		88	3	
2025-08-29T00:00	25100	26	-49.6		74	4	
2025-08-29T00:00	25150	26	-49.4		72	4	
2025-08-29T00:00	25200	26	-49.0		77	5	
2025-08-29T00:00	25250	26	-48.7		85	5	
2025-08-29T00:00	25300	26	-48.4		94	6	
2025-08-29T00:00	25350	25	-48.1		101	8	
2025-08-29T00:00	25400	25	-48.1		106	9	
2025-08-29T00:00	25450	25	-48.1		109	9	
2025-08-29T00:00	25500	25	-47.8		109	8	
2025-08-29T00:00	25550	25	-47.8		106	7	
2025-08-29T00:00	25600	24	-48.0		100	7	
2025-08-29T00:00	25650	24	-48.1		93	7	
2025-08-29T00:00	25700	24	-48.0		88	7	
2025-08-29T00:00	25750	24	-47.9		86	8	
2025-08-29T00:00	25800	24	-47.9		88	10	
2025-08-29T00:00	25850	24	-47.9		94	11	
2025-08-29T00:00	25900	23	-47.9		102	12	
2025-08-29T00:00	25950	23	-47.8		108	12	
2025-08-29T00:00	26000	23	-47.8		112	12	
2025-08-29T00:00	26050	23	-47.9		116	12	
2025-08-29T00:00	26100	23	-48.1		122	11	
2025-08-29T00:00	26150	22	-48.2		129	11	
2025-08-29T00:00	26200	22	-48.4		133	11	
2025-08-29T00:00	26250	22	-48.4		135	10	
2025-08-29T00:00	26300	22	-48.5		132	9	
2025-08-29T00:00	26350	22	-48.6		129	8	
2025-08-29T00:00	26400	22	-48.8		127	8	
2025-08-29T00:00	26450	21	-49.1		129	7	
2025-08-29T00:00	26500	21	-49.3		133	7	
2025-08-29T00:00	26550	21	-49.5		138	7	
2025-08-29T00:00	26600	21	-49.7		142	7	
2025-08-29T00:00	26650	21	-49.9		144	7	
2025-08-29T00:00	26700	21	-50.0		145	7	
2025-08-29T00:00	26750	21	-50.1		144	7	
2025-08-29T00:00	26800	20	-49.9		143	6	
2025-08-29T00:00	26850	20	-49.8		141	6	
2025-08-29T00:00	26900	20	-49.6		141	6	
2025-08-29T00:00	26950	20	-49.6		145	6	
2025-08-29T00:00	27000	20	-49.5		153	6	
2025-08-29T00:00	27050	20	-49.6		160	5	
2025-08-29T00:00	27100	19	-49.8		166	4	
2025-08-29T00:00	27150	19	-49.9		175	4	
2025-08-29T00:00	27200	19	-50.1		190	3	
2025-08-29T00:00	27250	19	-50.3		221	1	
2025-08-29T00:00	27300	19	-50.1		310	1	
2025-08-29T00:00	27350	19	-50.0		343	2	
2025-08-29T00:00	27400	19	-49.8		0	3	
2025-08-29T00:00	27450	18	-49.6		11	3	
2025-08-29T00:00	27500	18	-49.5		20	2	
2025-08-29T00:00	27550	18	-49.2		37	2	
2025-08-29T00:00	27600	18	-48.9		49	2	
2025-08-29T00:00	27650	18	-48.8		47	2	
2025-08-29T00:00	27700	18	-49.0		29	1	
2025-08-29T00:00	27750	18	-49.3		355	1	
2025-08-29T00:00	27800	17	-49.5		344	1	
2025-08-29T00:00	27850	17	-49.8		9	2	
2025-08-29T00:00	27900	17	-49.7		34	3	
2025-08-29T00:00	27950	17	-49.5		49	5	
2025-08-29T00:00	28000	17	-49.6		61	6	
2025-08-29T00:00	28050	17	-49.4		67	7	
2025-08-29T00:00	28100	17	-49.1		71	7	
2025-08-29T00:00	28150	17	-49.1		78	7	
2025-08-29T00:00	28200	16	-48.8		87	7	
2025-08-29T00:00	28250	16	-48.6		93	7	
2025-08-29T00:00	28300	16	-48.4		93	7	
2025-08-29T00:00	28350	16	-48.4		90	6	
2025-08-29T00:00	28400	16	-48.4		82	6	
2025-08-29T00:00	28450	16	-48.4		72	6	
2025-08-29T00:00	28500	16	-48.2		64	6	
2025-08-29T00:00	28550	16	-48.4		62	6	
2025-08-29T00:00	28600	15	-48.5		66	7	
2025-08-29T00:00	28650	15	-48.4		73	8	
2025-08-29T00:00	28700	15	-48.4		82	9	
2025-08-29T00:00	28750	15	-48.4		91	9	
2025-08-29T00:00	28800	15	-48.4		104	9	
2025-08-29T00:00	28850	15	-47.9		120	8	
2025-08-29T00:00	28900	15	-47.9		129	8	
2025-08-29T00:00	28950	15	-48.0		127	7	
2025-08-29T00:00	29000	15	-47.7		121	6	
2025-08-29T00:00	29050	14	-47.0		119	5	
2025-08-29T00:00	29100	14	-46.7		127	5	
2025-08-29T00:00	29150	14	-46.7		142	5	
2025-08-29T00:00	29200	14	-46.8		157	5	
2025-08-29T00:00	29250	14	-46.5		171	6	
2025-08-29T00:00	29300	14	-46.1		183	6	
2025-08-29T00:00	29350	14	-46.2		192	7	
2025-08-29T00:00	29400	14	-46.4		198	7	
2025-08-29T00:00	29450	14	-46.5		203	7	
2025-08-29T00:00	29500	13	-46.8		205	6	
2025-08-29T00:00	29550	13	-46.8		207	4	
2025-08-29T00:00	29600	13	-46.9		209	3	
2025-08-29T00:00	29650	13	-46.8		216	1	
2025-08-29T00:00	29700	13	-46.9		306	0	
2025-08-29T00:00	29750	13	-46.9		10	1	
2025-08-29T00:00	29800	13	-46.8		18	2	
2025-08-29T00:00	29850	13	-46.8		17	2	
2025-08-29T00:00	29900	13	-46.6		9	3	
2025-08-29T00:00	29950	13	-46.4		351	3	
2025-08-29T00:00	30000	13	-46.4		331	3	
2025-08-29T00:00	30050	12	-46.6		320	4	
2025-08-29T00:00	30100	12	-46.8		319	5	
2025-08-29T00:00	30150	12	-46.9		321	6	
2025-08-29T00:00	30200	12	-47.0		324	7	
2025-08-29T00:00	30250	12	-46.8		331	7	
2025-08-29T00:00	30300	12	-46.7		344	7	
2025-08-29T00:00	30350	12	-46.6		0	7	
2025-08-29T00:00	30400	12	-46.6		17	7	
2025-08-29T00:00	30450	12	-46.5		31	8	
2025-08-29T00:00	30500	12	-46.4		40	8	
2025-08-29T00:00	30550	12	-46.4		47	7	
2025-08-29T00:00	30600	11	-46.4		52	7	
2025-08-29T00:00	30650	11	-46.3		57	7	
2025-08-29T00:00	30700	11	-46.2		63	6	
2025-08-29T00:00	30750	11	-46.0		67	6	
2025-08-29T00:00	30800	11	-45.7		63	5	
2025-08-29T00:00	30850	11	-45.6		50	5	
2025-08-29T00:00	30900	11	-45.5		41	5	
2025-08-29T00:00	30950	11	-45.5		40	4	
2025-08-29T00:00	31000	11	-45.6		45	4	
2025-08-29T00:00	31050	11	-45.8		51	4	
2025-08-29T00:00	31100	11	-45.7		51	5	
2025-08-29T00:00	31150	11	-45.5		48	5	
2025-08-29T00:00	31200	10	-45.3		49	6	
2025-08-29T00:00	31250	10	-45.4		57	6	
2025-08-29T00:00	31300	10	-45.3		64	6	
2025-08-29T00:00	31350	10	-44.9		71	6	
2025-08-29T00:00	31400	10	-44.6		80	6	
2025-08-29T00:00	31450	10	-44.4		86	5	
2025-08-29T00:00	31500	10	-44.5		84	4	
2025-08-29T00:00	31550	10	-44.1		71	4	
2025-08-29T00:00	31600	10	-43.9		51	3	
2025-08-29T00:00	31650	10	-44.0		28	3	
2025-08-29T00:00	31700	10	-44.2		13	4	
2025-08-29T00:00	31750	10	-44.2		8	5	
2025-08-29T00:00	31800	10	-44.2		11	5	
2025-08-29T00:00	31850	9	-44.1		16	6	
2025-08-29T00:00	31900	9	-44.0		21	6	
2025-08-29T00:00	31950	9	-43.8		28	6	
2025-08-29T00:00	32000	9	-43.8		39	6	
2025-08-29T00:00	32050	9	-43.6		52	6	
2025-08-29T00:00	32100	9	-43.6		57	6	
2025-08-29T00:00	32150	9	-43.8		55	7	
2025-08-29T00:00	32200	9	-43.6		54	8	
2025-08-29T00:00	32250	9	-43.3		54	8	
2025-08-29T00:00	32300	9	-43.0		51	7	
2025-08-29T00:00	32350	9	-42.9		47	7	
2025-08-29T00:00	32400	9	-42.7		45	8	
2025-08-29T00:00	32450	9	-42.6		44	8	
2025-08-29T00:00	32500	9	-42.6		46	8	
2025-08-29T00:00	32550	9	-42.7		50	8	
2025-08-29T00:00	32600	8	-42.6		55	7	
2025-08-29T00:00	32650	8	-42.3		59	7	
2025-08-29T00:00	32700	8	-42.0		61	8	
2025-08-29T00:00	32750	8	-41.9		65	8	
2025-08-29T00:00	32800	8	-41.8		68	9	
2025-08-29T00:00	32850	8	-42.0		71	8	
2025-08-29T00:00	32900	8	-42.1		74	8	
2025-08-29T00:00	32950	8	-42.0		77	7	
2025-08-29T00:00	33000	8	-42.0		79	6	
2025-08-29T00:00	33050	8	-42.2		79	6	
2025-08-29T00:00	33100	8	-42.2		76	6	
2025-08-29T00:00	33150	8	-42.2		72	6	
2025-08-29T00:00	33200	8	-42.4		68	6	
2025-08-29T00:00	33250	8	-42.6		63	5	
2025-08-29T00:00	33300	8	-42.8		60	5	
2025-08-29T00:00	33350	8	-42.8		55	6	
2025-08-29T00:00	33400	8	-43.1		51	7	
2025-08-29T00:00	33450	7	-43.2		49	8	
2025-08-29T00:00	33500	7	-43.2		49	10	
2025-08-29T00:00	33550	7	-43.4		51	12	
2025-08-29T00:00	33600	7	-43.4		51	12	
2025-08-29T00:00	33650	7	-43.3		49	11	
2025-08-29T00:00	33700	7	-43.4		46	11	
2025-08-29T00:00	33750	7	-43.5		44	11	
2025-08-29T00:00	33800	7	-43.5		45	11	
2025-08-29T00:00	33850	7	-43.1		48	12	
2025-08-29T00:00	33900	7	-43.0		51	12	
2025-08-29T00:00	33950	7	-43.0		52	12	
2025-08-29T00:00	34000	7	-43.2		52	13	
2025-08-29T00:00	34050	7	-43.3		52	13	
2025-08-29T00:00	34100	7	-43.2		54	13	
2025-08-29T00:00	34150	7	-43.1		58	13	
2025-08-29T00:00	34200	7	-42.9		62	12	
2025-08-29T00:00	34250	7	-42.6		63	12	
2025-08-29T00:00	34300	7	-42.4		62	11	
2025-08-29T00:00	34350	7	-42.4		58	11	
2025-08-29T00:00	34400	6	-42.4		52	11	
2025-08-29T00:00	34450	6	-42.2		48	11	
2025-08-29T00:00	34500	6	-41.9		47	12	
2025-08-29T00:00	34550	6	-41.6		49	14	
2025-08-29T00:00	34600	6	-41.5		52	15	
2025-08-29T00:00	34650	6	-41.5		57	15	
2025-08-29T00:00	34700	6	-41.6		64	16	
2025-08-29T00:00	34750	6	-41.7		70	16	
2025-08-29T00:00	34800	6	-41.8		74	16	
2025-08-29T00:00	34850	6	-41.3		77	15	
2025-08-29T00:00	34900	6	-40.9		80	15	
2025-08-29T00:00	34950	6	-40.1		81	15	
2025-08-29T00:00	35000	6	-39.6		83	15	
2025-08-29T00:00	35050	6	-39.2		85	15	
2025-08-29T00:00	35100	6	-38.4		89	15	
2025-08-29T00:00	35150	6	-38.2		93	14	
2025-08-29T00:00	35200	6	-38.1		96	14	
2025-08-29T00:00	35250	6	-38.0		96	14	
2025-08-29T00:00	35300	6	-37.7		96	12	
2025-08-29T00:00	35350	6	-37.8		94	11	
2025-08-29T00:00	35400	6	-37.9		90	11	
2025-08-29T00:00	35450	6	-37.8		85	11	
2025-08-29T00:00	35500	6	-37.3		80	11	
2025-08-29T00:00	35550	5	-37.2		77	11	
2025-08-29T00:00	35600	5	-36.8		76	11	
2025-08-29T00:00	35650	5	-36.4		76	11	
2025-08-29T00:00	35700	5	-36.1		74	11	
2025-08-29T00:00	35750	5	-36.1		74	12	
2025-08-29T00:00	35800	5	-35.9		76	12	
2025-08-29T00:00	35850	5	-35.9		80	13	
2025-08-29T00:00	35900	5	-35.7		83	13	
2025-08-29T00:00	35950	5	-35.4		86	13	
2025-08-29T00:00	36000	5	-35.2		89	13	
2025-08-29T00:00	36050	5	-34.9		94	14	
2025-08-29T00:00	36100	5	-34.2		100	14	
2025-08-29T00:00	36150	5	-33.7		105	15	
2025-08-29T00:00	36200	5	-33.2		109	16	
2025-08-29T00:00	36250	5	-33.3		108	15	
2025-08-29T00:00	36300	5	-33.2		108	13	
2025-08-29T00:00	36350	5	-33.2		109	12	
2025-08-29T00:00	36400	5	-33.2		115	10	
2025-08-29T00:00	36450	5	-33.1		122	10	
2025-08-29T00:00	36500	5	-32.9		126	11	
2025-08-29T00:00	36550	5	-33.1		128	12	
2025-08-29T00:00	36600	5	-33.4		130	12	
2025-08-29T00:00	36650	5	-33.4		132	12	
2025-08-29T00:00	36700	5	-33.4		134	11	
2025-08-29T00:00	36750	5	-33.4		134	11	
2025-08-29T00:00	36800	5	-33.6		133	10	
2025-08-29T00:00	36850	5	-33.7		132	8	
2025-08-29T00:00	36900	5	-33.9		130	6	
2025-08-29T00:00	36950	4	-33.3		125	5	
2025-08-29T00:00	37000	4	-32.8		116	4	
2025-08-29T00:00	37050	4	-32.7		102	4	
2025-08-29T00:00	37100	4	-32.5		86	4	
2025-08-29T00:00	37150	4	-32.2		75	6	
2025-08-29T00:00	37200	4	-31.8		66	7	
2025-08-29T00:00	37250	4	-31.5		63	8	
2025-08-29T00:00	37300	4	-31.2		70	10	
2025-08-29T00:00	37350	4	-30.9		75	11	
2025-08-29T00:00	37400	4	-30.4		75	13	
2025-08-29T00:00	37450	4	-29.9		75	13	
2025-08-29T00:00	37500	4	-29.8		78	11	
2025-08-29T00:00	37550	4	-29.9		78	10	
2025-08-29T00:00	37600	4	-29.8		75	8	
2025-08-29T00:00	37650	4	-29.6		73	6	
2025-08-29T00:00	37700	4	-29.6		69	5	
2025-08-29T00:00	37750	4	-29.3		64	5	
2025-08-29T00:00	37800	4	-28.8		54	6	
2025-08-29T00:00	37850	4	-28.5		49	6	
2025-08-29T00:00	37900	4	-28.2		59	7	
2025-08-29T00:00	37950	4	-28.0		64	8	
2025-08-29T00:00	38000	4	-27.8		54	9	
2025-08-29T00:00	38050	4	-27.6		45	10	
2025-08-29T00:00	38100	4	-27.7		41	12	
2025-08-29T00:00	38150	4	-27.9		39	13	
2025-08-29T00:00	38200	4	-28.0		42	14	
2025-08-29T00:00	38250	4	-28.0		47	14	
2025-08-29T00:00	38300	4	-27.9		52	14	
2025-08-29T00:00	38350	4	-27.8		56	14	
2025-08-29T00:00	38400	4	-27.7		60	13	
2025-08-29T00:00	38450	4	-27.8		64	13	
2025-08-29T00:00	38500	4	-27.9		68	13	
2025-08-29T00:00	38550	4	-28.1		70	14	
2025-08-29T00:00	38600	4	-28.2		71	14	
2025-08-29T00:00	38650	4	-28.2		71	14	
2025-08-29T00:00	38700	4	-28.2		68	14	
2025-08-29T12:00	491	949	19.9	11.1	178	4	2.7
2025-08-29T12:00	501	948	19.5	10.9	216	4	2.7
2025-08-29T12:00	520	947	19.0	10.6	220	4	2.8
2025-08-29T12:00	540	944	18.7	10.3	220	5	2.9
2025-08-29T12:00	560	942	18.2	9.9	219	6	3.0
2025-08-29T12:00	580	940	18.0	10.0	219	6	3.1
2025-08-29T12:00	600	938	17.8	9.8	217	6	3.2
2025-08-29T12:00	620	935	17.6	9.9	215	7	3.3
2025-08-29T12:00	640	933	17.6	10.0	213	7	3.3
2025-08-29T12:00	660	931	17.4	10.0	211	7	3.4
2025-08-29T12:00	680	929	17.1	9.9	210	7	3.4
2025-08-29T12:00	700	927	16.9	9.8	208	7	3.4
2025-08-29T12:00	720	925	16.7	9.6	207	8	3.4
2025-08-29T12:00	740	922	16.5	9.7	207	8	3.5
2025-08-29T12:00	760	920	16.3	9.7	207	8	3.5
2025-08-29T12:00	780	918	16.0	9.6	207	8	3.5
2025-08-29T12:00	800	916	15.9	9.5	208	8	3.5
2025-08-29T12:00	820	914	15.7	9.4	209	8	3.5
2025-08-29T12:00	840	911	15.4	9.3	211	7	3.5
2025-08-29T12:00	860	909	15.1	9.1	212	7	3.5
2025-08-29T12:00	880	907	14.8	9.0	213	7	3.5
2025-08-29T12:00	900	905	14.6	9.1	214	6	3.6
2025-08-29T12:00	920	903	14.5	8.9	214	6	3.6
2025-08-29T12:00	940	901	14.3	9.2	216	6	3.5
2025-08-29T12:00	960	899	14.1	9.3	220	6	3.6
2025-08-29T12:00	980	897	13.9	9.1	223	6	3.6
2025-08-29T12:00	1000	895	13.7	9.1	226	7	3.6
2025-08-29T12:00	1020	892	13.5	9.0	228	7	3.6
2025-08-29T12:00	1040	890	13.4	9.0	230	7	3.6
2025-08-29T12:00	1060	888	13.1	9.0	230	7	3.6
2025-08-29T12:00	1080	886	12.9	8.9	229	7	3.6
2025-08-29T12:00	1100	884	12.7	8.9	228	7	3.6
2025-08-29T12:00	1120	882	12.5	8.8	227	7	3.6
2025-08-29T12:00	1140	880	12.3	8.8	226	7	3.5
2025-08-29T12:00	1160	878	12.3	8.8	225	7	3.5
2025-08-29T12:00	1180	875	12.0	8.6	225	7	3.5
2025-08-29T12:00	1200	873	11.8	8.7	226	7	3.5
2025-08-29T12:00	1220	871	11.6	8.7	228	7	3.5
2025-08-29T12:00	1240	869	11.4	8.7	229	7	3.5
2025-08-29T12:00	1260	867	11.3	8.5	230	8	3.5
2025-08-29T12:00	1280	865	11.2	8.2	231	8	3.5
2025-08-29T12:00	1300	863	11.0	8.2	231	8	3.5
2025-08-29T12:00	1320	861	10.9	8.1	231	9	3.5
2025-08-29T12:00	1340	859	10.6	8.1	230	9	3.5
2025-08-29T12:00	1360	857	10.4	7.8	230	9	3.5
2025-08-29T12:00	1380	855	10.3	7.4	230	10	3.5
2025-08-29T12:00	1400	853	10.1	7.0	230	10	3.5
2025-08-29T12:00	1420	850	10.0	6.8	230	10	3.5
2025-08-29T12:00	1440	849	9.9	6.6	230	11	3.5
2025-08-29T12:00	1460	847	9.9	5.8	230	11	3.5
2025-08-29T12:00	1480	845	10.0	3.6	230	12	3.5
2025-08-29T12:00	1500	843	10.2	1.7	230	12	3.6
2025-08-29T12:00	1520	841	10.1	1.5	230	12	3.6
2025-08-29T12:00	1540	839	10.0	1.3	229	12	3.6
2025-08-29T12:00	1560	836	9.8	1.1	229	12	3.7
2025-08-29T12:00	1580	835	9.7	0.9	229	12	3.7
2025-08-29T12:00	1600	833	9.6	0.6	229	12	3.7
2025-08-29T12:00	1620	830	9.4	0.2	229	12	3.7
2025-08-29T12:00	1640	828	9.3	-0.1	229	12	3.8
2025-08-29T12:00	1660	826	9.1	-0.2	229	12	3.8
2025-08-29T12:00	1680	824	9.1	-0.1	229	12	3.8
2025-08-29T12:00	1700	822	8.9	-0.1	228	12	3.8
2025-08-29T12:00	1720	821	8.5	-0.1	228	12	3.8
2025-08-29T12:00	1740	819	8.4	-0.4	227	12	3.8
2025-08-29T12:00	1760	817	8.3	-1.0	227	12	3.8
2025-08-29T12:00	1780	814	8.3	-1.4	226	12	3.8
2025-08-29T12:00	1800	812	8.2	-1.4	226	12	3.8
2025-08-29T12:00	1820	810	8.1	-1.5	226	13	3.8
2025-08-29T12:00	1840	809	8.0	-1.5	225	13	3.8
2025-08-29T12:00	1860	807	7.8	-1.3	225	13	3.9
2025-08-29T12:00	1880	805	7.6	-1.4	224	13	3.9
2025-08-29T12:00	1900	803	7.4	-1.5	223	13	3.9
2025-08-29T12:00	1920	801	7.2	-0.8	221	13	3.8
2025-08-29T12:00	1940	799	7.1	-0.5	220	13	3.8
2025-08-29T12:00	1960	797	6.9	-0.4	218	13	3.8
2025-08-29T12:00	1980	795	6.6	-0.1	216	13	3.8
2025-08-29T12:00	2000	793	6.4	-0.4	215	13	3.8
2025-08-29T12:00	2020	791	6.3	-0.2	215	13	3.7
2025-08-29T12:00	2040	789	6.1	0.8	214	13	3.6
2025-08-29T12:00	2060	787	6.0	1.2	214	13	3.6
2025-08-29T12:00	2080	785	5.8	1.3	215	14	3.6
2025-08-29T12:00	2100	784	5.6	0.8	216	14	3.6
2025-08-29T12:00	2120	782	5.4	0.0	217	14	3.6
2025-08-29T12:00	2140	780	5.4	-0.8	218	14	3.6
2025-08-29T12:00	2160	778	5.3	-0.9	219	14	3.5
2025-08-29T12:00	2180	776	5.2	-0.9	221	14	3.5
2025-08-29T12:00	2200	774	5.0	-1.4	222	14	3.5
2025-08-29T12:00	2220	772	4.9	-2.0	223	14	3.5
2025-08-29T12:00	2240	770	4.9	-3.1	224	14	3.5
2025-08-29T12:00	2260	768	4.8	-3.3	225	14	3.5
2025-08-29T12:00	2280	766	4.6	-3.3	227	14	3.5
2025-08-29T12:00	2300	764	4.3	-3.5	228	14	3.5
2025-08-29T12:00	2320	763	4.1	-4.2	228	14	3.5
2025-08-29T12:00	2340	761	4.2	-5.2	228	14	3.5
2025-08-29T12:00	2360	759	4.2	-6.6	228	14	3.5
2025-08-29T12:00	2380	757	4.1	-7.1	227	14	3.5
2025-08-29T12:00	2400	755	3.9	-7.4	226	14	3.5
2025-08-29T12:00	2420	753	4.0	-8.0	225	14	3.5
2025-08-29T12:00	2440	751	4.0	-8.3	224	14	3.5
2025-08-29T12:00	2460	750	3.8	-8.4	223	14	3.4
2025-08-29T12:00	2480	748	3.6	-8.4	223	15	3.4
2025-08-29T12:00	2500	746	3.4	-8.5	222	15	3.4
2025-08-29T12:00	2520	744	3.3	-8.6	221	15	3.4
2025-08-29T12:00	2540	742	3.2	-8.8	220	16	3.4
2025-08-29T12:00	2560	741	3.1	-8.9	218	16	3.4
2025-08-29T12:00	2580	739	3.1	-8.9	217	16	3.4
2025-08-29T12:00	2600	737	3.0	-9.1	215	16	3.4
2025-08-29T12:00	2620	735	3.0	-11.0	214	16	3.4
2025-08-29T12:00	2640	733	3.3	-13.5	214	17	3.4
2025-08-29T12:00	2660	731	3.5	-13.8	214	17	3.4
2025-08-29T12:00	2680	729	3.5	-14.1	214	17	3.4
2025-08-29T12:00	2700	728	3.4	-14.0	214	17	3.4
2025-08-29T12:00	2720	726	3.2	-13.9	215	17	3.4
2025-08-29T12:00	2740	724	2.9	-13.9	216	17	3.4
2025-08-29T12:00	2760	722	2.8	-14.1	217	17	3.3
2025-08-29T12:00	2780	721	2.6	-13.9	218	17	3.3
2025-08-29T12:00	2800	719	2.4	-13.6	218	17	3.3
2025-08-29T12:00	2820	717	2.2	-13.2	218	17	3.3
2025-08-29T12:00	2840	715	2.1	-11.7	218	16	3.3
2025-08-29T12:00	2860	714	2.0	-11.4	217	16	3.2
2025-08-29T12:00	2880	712	2.0	-11.4	216	16	3.2
2025-08-29T12:00	2900	710	1.8	-11.8	216	16	3.2
2025-08-29T12:00	2920	708	1.6	-11.8	215	16	3.1
2025-08-29T12:00	2940	706	1.5	-12.0	214	16	3.1
2025-08-29T12:00	2960	705	1.4	-12.1	214	16	3.1
2025-08-29T12:00	2980	703	1.1	-12.2	213	16	3.1
2025-08-29T12:00	3000	701	0.9	-12.4	212	16	3.1
2025-08-29T12:00	3020	700	0.8	-12.4	212	17	3.1
2025-08-29T12:00	3040	698	0.7	-12.9	211	17	3.1
2025-08-29T12:00	3060	696	0.6	-13.3	211	17	3.1
2025-08-29T12:00	3080	694	0.4	-13.4	210	17	3.1
2025-08-29T12:00	3100	693	0.2	-14.0	210	17	3.1
2025-08-29T12:00	3120	691	0.2	-14.3	209	17	3.1
2025-08-29T12:00	3140	689	0.1	-14.4	208	17	3.1
2025-08-29T12:00	3160	688	-0.1	-14.6	207	17	3.1
2025-08-29T12:00	3180	686	-0.3	-14.8	207	17	3.1
2025-08-29T12:00	3200	684	-0.3	-14.1	207	17	3.1
2025-08-29T12:00	3220	682	-0.4	-14.0	207	17	3.1
2025-08-29T12:00	3240	680	-0.6	-15.3	209	17	3.1
2025-08-29T12:00	3260	679	-0.6	-15.8	210	16	3.1
2025-08-29T12:00	3280	677	-0.6	-16.0	211	16	3.1
2025-08-29T12:00	3300	675	-0.7	-15.9	212	16	3.1
2025-08-29T12:00	3320	674	-0.9	-16.0	213	16	3.2
2025-08-29T12:00	3340	672	-1.1	-16.0	214	16	3.2
2025-08-29T12:00	3360	670	-1.2	-16.1	215	16	3.2
2025-08-29T12:00	3380	669	-1.3	-16.2	216	15	3.3
2025-08-29T12:00	3400	667	-1.4	-16.7	216	15	3.3
2025-08-29T12:00	3420	665	-1.6	-17.7	217	15	3.3
2025-08-29T12:00	3440	664	-1.6	-21.9	218	14	3.3
2025-08-29T12:00	3460	662	-1.6	-24.3	218	14	3.3
2025-08-29T12:00	3480	660	-1.7	-29.2	219	14	3.4
2025-08-29T12:00	3500	659	-1.8	-33.0	220	14	3.5
2025-08-29T12:00	3520	657	-1.7	-33.3	220	14	3.6
2025-08-29T12:00	3540	655	-1.7	-31.4	220	14	3.7
2025-08-29T12:00	3560	654	-1.8	-30.5	220	14	3.7
2025-08-29T12:00	3580	652	-1.9	-29.1	219	15	3.7
2025-08-29T12:00	3600	650	-1.9	-25.3	219	15	3.7
2025-08-29T12:00	3620	649	-1.9	-16.6	218	15	3.7
2025-08-29T12:00	3640	647	-2.1	-13.2	218	15	3.7
2025-08-29T12:00	3660	646	-2.3	-12.3	217	15	3.6
2025-08-29T12:00	3680	644	-2.5	-11.7	217	15	3.5
2025-08-29T12:00	3700	642	-2.6	-10.9	217	15	3.4
2025-08-29T12:00	3720	641	-2.8	-10.5	217	15	3.2
2025-08-29T12:00	3740	639	-2.9	-10.4	216	14	3.2
2025-08-29T12:00	3760	637	-3.2	-10.1	216	14	3.1
2025-08-29T12:00	3780	636	-3.5	-9.8	216	14	3.0
2025-08-29T12:00	3800	634	-3.7	-9.3	217	13	3.0
2025-08-29T12:00	3820	633	-3.8	-9.2	217	13	2.9
2025-08-29T12:00	3840	631	-3.9	-9.1	218	13	2.9
2025-08-29T12:00	3860	629	-4.1	-9.1	219	12	2.8
2025-08-29T12:00	3880	628	-4.3	-9.1	220	13	2.7
2025-08-29T12:00	3900	626	-4.5	-9.1	220	13	2.7
2025-08-29T12:00	3920	625	-4.5	-9.3	221	13	2.7
2025-08-29T12:00	3940	623	-4.7	-9.4	221	13	2.7
2025-08-29T12:00	3960	621	-4.9	-9.5	222	14	2.6
2025-08-29T12:00	3980	620	-5.0	-9.8	223	14	2.6
2025-08-29T12:00	4000	618	-5.1	-9.9	224	14	2.6
2025-08-29T12:00	4020	617	-5.3	-10.3	226	14	2.6
2025-08-29T12:00	4040	615	-5.5	-10.7	227	14	2.6
2025-08-29T12:00	4060	614	-5.4	-11.7	229	14	2.5
2025-08-29T12:00	4080	612	-5.5	-12.1	230	15	2.5
2025-08-29T12:00	4100	611	-5.5	-12.5	230	15	2.5
2025-08-29T12:00	4120	609	-5.5	-12.4	230	15	2.5
2025-08-29T12:00	4140	607	-5.6	-12.0	230	15	2.5
2025-08-29T12:00	4160	606	-5.7	-12.0	229	15	2.5
2025-08-29T12:00	4180	604	-5.8	-11.1	229	15	2.5
2025-08-29T12:00	4200	603	-5.9	-10.8	228	15	2.5
2025-08-29T12:00	4220	601	-6.1	-10.8	227	15	2.5
2025-08-29T12:00	4240	600	-6.3	-10.7	227	15	2.5
2025-08-29T12:00	4260	598	-6.5	-10.8	226	15	2.5
2025-08-29T12:00	4280	597	-6.7	-10.9	226	15	2.5
2025-08-29T12:00	4300	595	-6.9	-11.0	227	15	2.5
2025-08-29T12:00	4320	594	-7.0	-11.0	227	14	2.5
2025-08-29T12:00	4340	592	-7.2	-11.0	227	14	2.4
2025-08-29T12:00	4360	590	-7.4	-11.0	227	14	2.4
2025-08-29T12:00	4380	589	-7.6	-11.1	227	14	2.5
2025-08-29T12:00	4400	587	-7.7	-11.2	226	14	2.4
2025-08-29T12:00	4420	586	-7.8	-11.4	226	14	2.4
2025-08-29T12:00	4440	585	-7.9	-11.7	225	14	2.4
2025-08-29T12:00	4460	583	-8.1	-12.2	224	14	2.5
2025-08-29T12:00	4480	582	-8.2	-12.4	224	14	2.5
2025-08-29T12:00	4500	580	-8.5	-12.4	223	14	2.5
2025-08-29T12:00	4520	579	-8.8	-12.5	223	14	2.5
2025-08-29T12:00	4540	577	-8.9	-12.6	222	13	2.6
2025-08-29T12:00	4560	575	-9.1	-12.6	222	13	2.6
2025-08-29T12:00	4580	574	-9.3	-12.6	221	13	2.5
2025-08-29T12:00	4600	572	-9.5	-12.9	220	14	2.5
2025-08-29T12:00	4620	571	-9.4	-14.5	220	14	2.5
2025-08-29T12:00	4640	570	-9.5	-15.5	219	14	2.5
2025-08-29T12:00	4660	568	-9.7	-15.8	218	14	2.5
2025-08-29T12:00	4680	567	-9.9	-16.1	217	14	2.6
2025-08-29T12:00	4700	565	-9.9	-16.2	217	14	2.6
2025-08-29T12:00	4720	564	-10.0	-16.4	216	14	2.6
2025-08-29T12:00	4740	562	-10.2	-16.4	216	14	2.6
2025-08-29T12:00	4760	561	-10.6	-16.3	215	14	2.6
2025-08-29T12:00	4780	559	-10.7	-16.4	215	14	2.6
2025-08-29T12:00	4800	558	-10.8	-16.4	214	14	2.6
2025-08-29T12:00	4820	556	-11.0	-16.4	214	14	2.6
2025-08-29T12:00	4840	555	-11.4	-16.3	213	14	2.6
2025-08-29T12:00	4860	553	-11.6	-16.4	213	14	2.6
2025-08-29T12:00	4880	552	-11.6	-16.7	213	14	2.6
2025-08-29T12:00	4900	551	-11.7	-16.8	213	14	2.6
2025-08-29T12:00	4920	549	-12.0	-16.9	213	14	2.6
2025-08-29T12:00	4940	548	-12.1	-16.9	213	14	2.6
2025-08-29T12:00	4960	547	-12.2	-16.9	213	13	2.6
2025-08-29T12:00	4980	545	-12.4	-17.0	215	13	2.6
2025-08-29T12:00	5000	543	-12.7	-17.4	216	13	2.7
2025-08-29T12:00	5020	542	-12.7	-18.1	216	13	2.7
2025-08-29T12:00	5040	541	-12.8	-18.4	218	13	2.7
2025-08-29T12:00	5060	539	-12.9	-18.6	218	13	2.7
2025-08-29T12:00	5080	538	-13.0	-18.9	219	13	2.7
2025-08-29T12:00	5100	536	-13.1	-19.5	219	13	2.7
2025-08-29T12:00	5120	535	-13.1	-19.9	219	13	2.7
2025-08-29T12:00	5140	534	-13.2	-20.0	218	13	2.7
2025-08-29T12:00	5160	532	-13.3	-20.2	217	13	2.7
2025-08-29T12:00	5180	531	-13.2	-21.0	215	13	2.7
2025-08-29T12:00	5200	530	-13.4	-21.4	214	13	2.7
2025-08-29T12:00	5220	528	-13.6	-21.8	211	14	2.7
2025-08-29T12:00	5240	527	-13.5	-23.3	209	14	2.7
2025-08-29T12:00	5260	525	-13.2	-25.7	208	14	2.7
2025-08-29T12:00	5280	524	-13.0	-27.5	207	14	2.7
2025-08-29T12:00	5300	523	-13.1	-27.9	206	14	2.7
2025-08-29T12:00	5320	521	-13.2	-27.9	205	14	2.7
2025-08-29T12:00	5340	520	-13.5	-28.0	205	14	2.8
2025-08-29T12:00	5360	518	-13.7	-28.1	205	14	2.8
2025-08-29T12:00	5380	517	-13.9	-28.2	206	14	2.8
2025-08-29T12:00	5400	516	-14.1	-28.3	206	14	2.8
2025-08-29T12:00	5420	514	-14.1	-28.5	208	14	2.8
2025-08-29T12:00	5440	513	-14.3	-28.5	208	14	2.8
2025-08-29T12:00	5460	512	-14.5	-28.6	209	14	2.8
2025-08-29T12:00	5480	510	-14.5	-28.8	210	14	2.8
2025-08-29T12:00	5500	509	-14.8	-28.9	210	14	2.8
2025-08-29T12:00	5520	508	-15.0	-28.9	211	13	2.8
2025-08-29T12:00	5540	506	-15.2	-29.1	211	13	2.8
2025-08-29T12:00	5560	505	-15.3	-29.4	211	13	2.8
2025-08-29T12:00	5580	504	-15.4	-29.4	212	13	2.8
2025-08-29T12:00	5600	502	-15.6	-29.5	212	13	2.8
2025-08-29T12:00	5620	501	-15.9	-29.4	213	12	2.8
2025-08-29T12:00	5640	500	-16.0	-29.5	213	12	2.8
2025-08-29T12:00	5660	498	-16.2	-29.9	214	12	2.8
2025-08-29T12:00	5680	497	-16.4	-30.1	215	12	2.8
2025-08-29T12:00	5700	496	-16.5	-30.5	216	12	2.8
2025-08-29T12:00	5720	494	-16.7	-30.8	216	12	2.8
2025-08-29T12:00	5740	493	-16.9	-30.9	217	12	2.8
2025-08-29T12:00	5760	492	-17.0	-31.0	217	12	2.8
2025-08-29T12:00	5780	490	-17.2	-31.0	217	12	2.9
2025-08-29T12:00	5800	489	-17.4	-31.0	217	12	2.9
2025-08-29T12:00	5820	488	-17.5	-31.4	217	12	2.9
2025-08-29T12:00	5840	487	-17.6	-31.8	216	12	2.9
2025-08-29T12:00	5860	485	-17.8	-32.2	216	12	2.8
2025-08-29T12:00	5880	484	-17.9	-32.5	216	12	2.8
2025-08-29T12:00	5900	483	-18.1	-32.9	216	12	2.8
2025-08-29T12:00	5920	481	-18.3	-33.2	217	12	2.8
2025-08-29T12:00	5940	480	-18.4	-33.6	217	12	2.8
2025-08-29T12:00	5960	479	-18.4	-34.3	218	12	2.8
2025-08-29T12:00	5980	477	-18.5	-34.2	218	12	2.8
2025-08-29T12:00	6000	476	-18.6	-34.0	219	12	2.8
2025-08-29T12:00	6020	475	-18.6	-35.7	220	12	2.8
2025-08-29T12:00	6040	474	-18.6	-36.0	221	12	2.8
2025-08-29T12:00	6060	472	-18.7	-34.0	222	12	2.7
2025-08-29T12:00	6080	471	-18.8	-34.1	222	12	2.7
2025-08-29T12:00	6100	470	-19.0	-34.8	223	12	2.7
2025-08-29T12:00	6120	469	-19.0	-34.2	224	12	2.7
2025-08-29T12:00	6140	467	-19.1	-33.0	225	12	2.7
2025-08-29T12:00	6160	466	-19.3	-31.4	225	12	2.7
2025-08-29T12:00	6180	465	-19.5	-31.0	226	12	2.7
2025-08-29T12:00	6200	464	-19.7	-30.9	226	12	2.7
2025-08-29T12:00	6220	462	-19.9	-30.5	226	12	2.7
2025-08-29T12:00	6240	461	-20.0	-31.1	226	12	2.7
2025-08-29T12:00	6260	460	-20.3	-32.5	226	12	2.7
2025-08-29T12:00	6280	459	-20.4	-34.2	225	12	2.7
2025-08-29T12:00	6300	457	-20.5	-35.6	224	12	2.7
2025-08-29T12:00	6320	456	-20.6	-36.1	223	12	2.7
2025-08-29T12:00	6340	455	-20.8	-36.3	222	12	2.7
2025-08-29T12:00	6360	454	-21.0	-36.5	221	12	2.7
2025-08-29T12:00	6380	452	-21.0	-36.8	219	12	2.7
2025-08-29T12:00	6400	451	-21.1	-37.5	218	12	2.7
2025-08-29T12:00	6420	450	-21.2	-37.1	216	12	2.6
2025-08-29T12:00	6440	449	-21.1	-35.6	215	12	2.6
2025-08-29T12:00	6460	448	-21.2	-35.6	214	12	2.6
2025-08-29T12:00	6480	446	-21.4	-35.8	214	12	2.7
2025-08-29T12:00	6500	445	-21.7	-36.0	214	12	2.7
2025-08-29T12:00	6520	444	-21.7	-36.2	214	12	2.7
2025-08-29T12:00	6540	443	-21.8	-36.4	215	12	2.7
2025-08-29T12:00	6560	442	-22.0	-36.4	216	12	2.7
2025-08-29T12:00	6580	440	-22.4	-36.1	217	12	2.7
2025-08-29T12:00	6600	439	-22.6	-36.4	218	12	2.7
2025-08-29T12:00	6620	438	-22.9	-36.2	218	12	2.7
2025-08-29T12:00	6640	437	-23.1	-36.2	219	13	2.7
2025-08-29T12:00	6660	435	-23.2	-36.4	219	13	2.6
2025-08-29T12:00	6680	434	-23.4	-36.5	220	14	2.6
2025-08-29T12:00	6700	433	-23.6	-36.7	220	14	2.6
2025-08-29T12:00	6720	432	-23.8	-36.4	221	15	2.6
2025-08-29T12:00	6740	431	-23.9	-35.6	221	15	2.6
2025-08-29T12:00	6760	430	-24.1	-35.9	222	16	2.6
2025-08-29T12:00	6780	428	-24.3	-35.9	222	16	2.6
2025-08-29T12:00	6800	427	-24.6	-35.9	222	17	2.6
2025-08-29T12:00	6820	426	-24.7	-36.8	223	17	2.6
2025-08-29T12:00	6840	425	-24.6	-37.7	224	17	2.6
2025-08-29T12:00	6860	424	-24.7	-38.2	225	18	2.6
2025-08-29T12:00	6880	423	-24.8	-38.1	225	18	2.6
2025-08-29T12:00	6900	421	-25.0	-38.1	226	18	2.6
2025-08-29T12:00	6920	420	-25.2	-38.3	228	18	2.6
2025-08-29T12:00	6940	419	-25.4	-38.3	229	18	2.6
2025-08-29T12:00	6960	418	-25.6	-38.3	229	18	2.6
2025-08-29T12:00	6980	417	-25.8	-38.3	230	17	2.6
2025-08-29T12:00	7000	416	-25.8	-38.2	230	17	2.6
2025-08-29T12:00	7020	415	-26.0	-37.8	230	17	2.6
2025-08-29T12:00	7040	413	-26.0	-37.0	229	17	2.6
2025-08-29T12:00	7060	412	-26.1	-36.8	229	17	2.6
2025-08-29T12:00	7080	411	-26.4	-36.7	229	17	2.6
2025-08-29T12:00	7100	410	-26.5	-36.5	228	17	2.6
2025-08-29T12:00	7120	409	-26.6	-36.5	228	17	2.6
2025-08-29T12:00	7140	408	-26.7	-36.7	227	17	2.6
2025-08-29T12:00	7160	407	-26.9	-36.7	227	16	2.6
2025-08-29T12:00	7180	405	-27.1	-37.2	226	16	2.6
2025-08-29T12:00	7200	404	-27.3	-37.8	226	16	2.6
2025-08-29T12:00	7220	403	-27.5	-37.5	225	16	2.6
2025-08-29T12:00	7240	402	-27.6	-37.8	225	16	2.6
2025-08-29T12:00	7260	401	-27.7	-38.1	224	16	2.6
2025-08-29T12:00	7280	400	-28.0	-38.0	223	15	2.6
2025-08-29T12:00	7300	399	-28.2	-37.9	222	15	2.6
2025-08-29T12:00	7320	398	-28.4	-37.9	221	15	2.6
2025-08-29T12:00	7340	396	-28.6	-38.2	220	15	2.6
2025-08-29T12:00	7360	395	-28.7	-38.6	218	15	2.6
2025-08-29T12:00	7380	394	-29.0	-38.4	217	15	2.6
2025-08-29T12:00	7400	393	-29.3	-38.4	216	14	2.6
2025-08-29T12:00	7420	392	-29.3	-38.7	215	14	2.6
2025-08-29T12:00	7440	391	-29.4	-39.0	214	14	2.6
2025-08-29T12:00	7460	390	-29.8	-38.8	214	15	2.6
2025-08-29T12:00	7480	389	-30.0	-38.9	214	15	2.6
2025-08-29T12:00	7500	388	-30.2	-39.4	214	15	2.6
2025-08-29T12:00	7520	387	-30.2	-39.8	214	15	2.6
2025-08-29T12:00	7540	386	-30.3	-40.0	214	15	2.6
2025-08-29T12:00	7560	384	-30.5	-39.9	214	15	2.6
2025-08-29T12:00	7580	383	-30.8	-39.7	214	15	2.6
2025-08-29T12:00	7600	382	-30.8	-40.0	214	16	2.6
2025-08-29T12:00	7620	381	-31.0	-40.8	214	15	2.6
2025-08-29T12:00	7640	380	-31.2	-40.5	215	15	2.6
2025-08-29T12:00	7660	379	-31.4	-40.7	215	15	2.5
2025-08-29T12:00	7680	378	-31.6	-41.0	215	15	2.5
2025-08-29T12:00	7700	377	-31.6	-41.4	214	15	2.5
2025-08-29T12:00	7720	376	-31.8	-41.5	214	15	2.5
2025-08-29T12:00	7740	375	-32.0	-41.0	214	15	2.5
2025-08-29T12:00	7760	374	-32.2	-40.8	214	15	2.5
2025-08-29T12:00	7780	373	-32.3	-40.9	214	15	2.6
2025-08-29T12:00	7800	371	-32.4	-40.6	213	15	2.6
2025-08-29T12:00	7820	370	-32.5	-40.2	213	15	2.6
2025-08-29T12:00	7840	369	-32.8	-40.1	213	15	2.6
2025-08-29T12:00	7860	368	-32.8	-39.9	213	15	2.6
2025-08-29T12:00	7880	367	-33.0	-40.1	213	16	2.7
2025-08-29T12:00	7900	366	-33.2	-40.2	213	16	2.7
2025-08-29T12:00	7920	365	-33.4	-40.5	213	16	2.8
2025-08-29T12:00	7940	364	-33.5	-40.6	213	16	2.8
2025-08-29T12:00	7960	363	-33.8	-40.1	212	16	2.8
2025-08-29T12:00	7980	362	-34.0	-39.9	211	16	2.8
2025-08-29T12:00	8000	361	-34.0	-40.6	210	16	2.8
2025-08-29T12:00	8020	360	-34.2	-40.7	208	15	2.9
2025-08-29T12:00	8040	359	-34.5	-40.3	207	15	2.9
2025-08-29T12:00	8060	358	-34.6	-40.4	205	15	2.9
2025-08-29T12:00	8080	357	-34.8	-40.4	205	15	2.9
2025-08-29T12:00	8100	356	-35.0	-40.3	204	15	2.9
2025-08-29T12:00	8120	355	-35.0	-40.4	204	16	2.9
2025-08-29T12:00	8140	354	-35.1	-40.5	204	16	2.9
2025-08-29T12:00	8160	353	-35.3	-40.5	205	16	2.9
2025-08-29T12:00	8180	352	-35.6	-40.5	205	16	2.9
2025-08-29T12:00	8200	351	-35.7	-40.7	205	17	2.9
2025-08-29T12:00	8220	350	-35.8	-41.0	206	17	2.9
2025-08-29T12:00	8240	349	-36.0	-41.3	206	17	2.9
2025-08-29T12:00	8260	348	-36.3	-41.2	206	17	2.8
2025-08-29T12:00	8280	347	-36.5	-41.2	207	17	2.8
2025-08-29T12:00	8300	346	-36.6	-41.3	207	17	2.9
2025-08-29T12:00	8320	345	-36.7	-41.8	207	17	2.9
2025-08-29T12:00	8340	344	-36.9	-42.1	207	17	2.8
2025-08-29T12:00	8360	343	-37.2	-42.0	207	17	2.8
2025-08-29T12:00	8380	342	-37.5	-42.1	207	17	2.8
2025-08-29T12:00	8400	341	-37.5	-42.5	208	17	2.8
2025-08-29T12:00	8420	340	-37.7	-42.3	208	17	2.8
2025-08-29T12:00	8440	339	-37.8	-42.2	209	17	2.8
2025-08-29T12:00	8460	338	-37.8	-42.9	209	17	2.8
2025-08-29T12:00	8480	337	-38.1	-43.0	209	17	2.8
2025-08-29T12:00	8500	336	-38.4	-42.9	209	17	2.8
2025-08-29T12:00	8520	335	-38.4	-43.2	210	17	2.8
2025-08-29T12:00	8540	334	-38.6	-43.4	210	18	2.8
2025-08-29T12:00	8560	333	-38.9	-43.1	210	17	2.8
2025-08-29T12:00	8580	332	-39.2	-42.9	211	18	2.8
2025-08-29T12:00	8600	331	-39.3	-43.3	212	17	2.8
2025-08-29T12:00	8620	330	-39.4	-43.8	213	17	2.8
2025-08-29T12:00	8640	329	-39.7	-43.8	214	17	2.8
2025-08-29T12:00	8660	328	-40.0	-43.5	215	17	2.8
2025-08-29T12:00	8680	327	-40.2	-43.5	215	17	2.7
2025-08-29T12:00	8700	326	-40.3	-44.0	216	17	2.7
2025-08-29T12:00	8720	325	-40.5	-44.3	216	17	2.7
2025-08-29T12:00	8740	324	-40.7	-44.6	217	17	2.7
2025-08-29T12:00	8760	323	-40.8	-45.4	217	16	2.7
2025-08-29T12:00	8780	323	-40.8	-46.0	217	16	2.7
2025-08-29T12:00	8800	322	-40.8	-46.7	218	16	2.7
2025-08-29T12:00	8820	321	-41.0	-46.8	218	16	2.7
2025-08-29T12:00	8840	320	-41.3	-46.6	218	16	2.6
2025-08-29T12:00	8860	319	-41.5	-46.9	218	16	2.6
2025-08-29T12:00	8880	318	-41.7	-47.3	218	16	2.6
2025-08-29T12:00	8900	317	-41.8	-47.6	218	16	2.6
2025-08-29T12:00	8920	316	-42.1	-47.6	217	16	2.6
2025-08-29T12:00	8940	315	-42.2	-47.6	216	16	2.6
2025-08-29T12:00	8960	314	-42.2	-48.1	216	16	2.5
2025-08-29T12:00	8980	313	-42.3	-48.7	215	16	2.5
2025-08-29T12:00	9000	312	-42.6	-48.9	214	16	2.5
2025-08-29T12:00	9020	311	-42.8	-48.7	213	16	2.5
2025-08-29T12:00	9040	310	-42.9	-48.7	213	16	2.5
2025-08-29T12:00	9060	309	-43.1	-48.9	212	16	2.5
2025-08-29T12:00	9080	308	-43.3	-49.1	211	16	2.5
2025-08-29T12:00	9100	308	-43.6	-49.1	210	16	2.5
2025-08-29T12:00	9120	307	-43.8	-48.8	209	16	2.5
2025-08-29T12:00	9140	306	-44.0	-48.7	209	16	2.5
2025-08-29T12:00	9160	305	-44.1	-48.8	208	16	2.5
2025-08-29T12:00	9180	304	-44.2	-49.0	208	16	2.5
2025-08-29T12:00	9200	303	-44.5	-49.0	208	16	2.5
2025-08-29T12:00	9220	302	-44.7	-48.7	208	16	2.5
2025-08-29T12:00	9240	301	-44.8	-48.6	207	16	2.5
2025-08-29T12:00	9260	300	-45.1	-48.7	207	16	2.5
2025-08-29T12:00	9280	300	-45.2	-48.8	206	16	2.4
2025-08-29T12:00	9300	299	-45.3	-49.1	206	16	2.4
2025-08-29T12:00	9320	298	-45.6	-49.1	205	16	2.4
2025-08-29T12:00	9340	297	-45.8	-49.2	204	16	2.4
2025-08-29T12:00	9360	296	-45.8	-49.9	203	15	2.4
2025-08-29T12:00	9380	295	-45.9	-50.5	203	15	2.4
2025-08-29T12:00	9400	294	-46.2	-50.7	202	15	2.4
2025-08-29T12:00	9420	293	-46.5	-50.7	202	15	2.4
2025-08-29T12:00	9440	292	-46.6	-51.3	202	14	2.4
2025-08-29T12:00	9460	292	-46.7	-51.7	203	14	2.4
2025-08-29T12:00	9480	291	-46.9	-52.1	203	15	2.5
2025-08-29T12:00	9500	290	-46.9	-53.5	203	15	2.5
2025-08-29T12:00	9520	289	-46.9	-55.8	203	15	2.5
2025-08-29T12:00	9540	288	-47.0	-57.0	204	15	2.5
2025-08-29T12:00	9560	287	-47.1	-57.4	204	15	2.5
2025-08-29T12:00	9580	286	-47.2	-58.1	205	15	2.6
2025-08-29T12:00	9600	285	-47.3	-58.9	205	16	2.6
2025-08-29T12:00	9620	285	-47.4	-59.2	206	16	2.6
2025-08-29T12:00	9640	284	-47.6	-58.9	207	16	2.6
2025-08-29T12:00	9660	283	-47.7	-58.5	208	16	2.7
2025-08-29T12:00	9680	282	-47.8	-58.5	209	17	2.7
2025-08-29T12:00	9700	281	-48.0	-58.6	210	17	2.7
2025-08-29T12:00	9720	280	-48.1	-58.8	210	17	2.7
2025-08-29T12:00	9740	279	-48.1	-58.9	211	17	2.7
2025-08-29T12:00	9760	279	-48.2	-59.2	211	17	2.8
2025-08-29T12:00	9780	278	-48.5	-59.0	212	17	2.8
2025-08-29T12:00	9800	277	-48.7	-58.8	212	17	2.8
2025-08-29T12:00	9820	276	-48.8	-58.9	212	17	2.9
2025-08-29T12:00	9840	275	-48.9	-59.1	213	17	2.9
2025-08-29T12:00	9860	274	-49.0	-59.2	213	18	2.9
2025-08-29T12:00	9880	274	-49.2	-59.2	213	18	3.0
2025-08-29T12:00	9900	273	-49.3	-59.3	214	18	3.0
2025-08-29T12:00	9920	272	-49.4	-59.6	214	19	3.1
2025-08-29T12:00	9940	271	-49.4	-59.9	214	19	3.1
2025-08-29T12:00	9960	270	-49.4	-60.4	213	20	3.2
2025-08-29T12:00	9980	269	-49.4	-60.8	213	20	3.2
2025-08-29T12:00	10000	269	-49.5	-60.9	213	20	3.3
2025-08-29T12:00	10018	268	-49.5	-61.0	213	20	3.4
2025-08-29T12:00	10050	266	-49.4	-61.9	213	21	3.5
2025-08-29T12:00	10100	265	-49.7	-62.0	213	21	3.7
2025-08-29T12:00	10150	262	-50.0	-62.0	212	20	3.8
2025-08-29T12:00	10200	261	-50.2	-62.4	210	20	3.9
2025-08-29T12:00	10250	259	-50.5	-62.6	208	20	4.0
2025-08-29T12:00	10300	257	-50.8	-63.1	204	19	4.1
2025-08-29T12:00	10350	254	-50.6	-65.9	201	19	4.3
2025-08-29T12:00	10400	252	-49.6	-69.0	199	19	4.6
2025-08-29T12:00	10450	250	-49.4	-69.2	200	20	5.0
2025-08-29T12:00	10500	249	-49.4	-68.8	201	20	5.4
2025-08-29T12:00	10550	247	-49.3	-68.3	203	21	5.6
2025-08-29T12:00	10600	245	-49.6	-67.8	206	21	5.7
2025-08-29T12:00	10650	243	-50.0	-67.9	208	21	5.7
2025-08-29T12:00	10700	241	-50.0	-68.1	210	21	5.7
2025-08-29T12:00	10750	239	-50.2	-68.6	213	21	5.6
2025-08-29T12:00	10800	238	-49.9	-69.8	216	22	5.6
2025-08-29T12:00	10850	236	-50.0	-69.3	218	22	5.6
2025-08-29T12:00	10900	234	-50.3	-69.3	217	22	5.6
2025-08-29T12:00	10950	232	-49.7	-70.5	216	22	5.4
2025-08-29T12:00	11000	231	-48.9	-71.7	216	21	5.4
2025-08-29T12:00	11050	229	-47.5	-74.8	215	22	5.5
2025-08-29T12:00	11100	227	-45.9	-76.2	213	22	5.9
2025-08-29T12:00	11150	225	-45.3	-76.8	213	22	6.2
2025-08-29T12:00	11200	224	-44.6	-77.0	214	22	6.4
2025-08-29T12:00	11250	222	-43.7	-76.5	216	22	6.6
2025-08-29T12:00	11300	220	-43.3	-76.3	218	22	6.8
2025-08-29T12:00	11350	219	-43.3	-76.2	218	21	6.8
2025-08-29T12:00	11400	217	-43.4	-76.1	217	20	6.7
2025-08-29T12:00	11450	215	-43.6	-76.4	217	18	6.6
2025-08-29T12:00	11500	214	-43.5	-76.6	216	18	6.6
2025-08-29T12:00	11550	212	-43.3	-76.5	213	17	6.6
2025-08-29T12:00	11600	211	-43.6	-76.4	211	17	6.6
2025-08-29T12:00	11650	209	-43.7	-75.9	209	18	6.4
2025-08-29T12:00	11700	208	-43.9	-75.9	207	18	6.1
2025-08-29T12:00	11750	206	-44.3	-75.7	206	19	5.8
2025-08-29T12:00	11800	204	-44.4	-75.6	206	19	5.5
2025-08-29T12:00	11850	203	-44.8	-75.7	205	20	5.2
2025-08-29T12:00	11900	201	-44.9	-75.6	203	21	5.0
2025-08-29T12:00	11950	200	-45.3	-75.7	202	22	4.8
2025-08-29T12:00	12000	198	-45.5	-75.8	202	23	4.7
2025-08-29T12:00	12050	197	-45.2	-76.2	202	23	4.6
2025-08-29T12:00	12100	195	-45.1	-76.3	203	24	4.4
2025-08-29T12:00	12150	194	-45.2	-76.6	204	24	4.3
2025-08-29T12:00	12200	193	-45.2	-76.9	207	23	4.1
2025-08-29T12:00	12250	191	-44.9	-77.2	209	23	4.0
2025-08-29T12:00	12300	190	-45.0	-77.3	211	23	3.8
2025-08-29T12:00	12350	188	-45.1	-77.5	213	22	3.6
2025-08-29T12:00	12400	187	-45.0	-77.6	214	22	3.5
2025-08-29T12:00	12450	186	-45.0	-77.9	213	21	3.4
2025-08-29T12:00	12500	184	-44.8	-77.6	212	21	3.3
2025-08-29T12:00	12550	183	-45.1	-77.8	212	22	3.1
2025-08-29T12:00	12600	181	-45.4	-77.7	212	23	3.0
2025-08-29T12:00	12650	180	-45.4	-78.0	213	24	2.9
2025-08-29T12:00	12700	179	-45.1	-78.1	213	24	3.0
2025-08-29T12:00	12750	177	-45.2	-78.3	213	24	3.4
2025-08-29T12:00	12800	176	-45.4	-78.3	212	24	3.6
2025-08-29T12:00	12850	175	-45.5	-78.5	213	23	3.9
2025-08-29T12:00	12900	173	-45.5	-78.5	215	23	4.1
2025-08-29T12:00	12950	172	-45.2	-78.6	218	22	4.2
2025-08-29T12:00	13000	171	-45.0	-78.7	221	22	4.3
2025-08-29T12:00	13050	170	-44.9	-78.5	224	21	4.3
2025-08-29T12:00	13100	168	-45.3	-78.6	225	21	4.4
2025-08-29T12:00	13150	167	-45.6	-78.8	226	21	4.5
2025-08-29T12:00	13200	166	-45.9	-78.9	227	20	4.6
2025-08-29T12:00	13250	165	-45.8	-79.0	226	19	4.7
2025-08-29T12:00	13300	163	-45.7	-79.2	224	17	4.7
2025-08-29T12:00	13350	162	-45.6	-79.3	220	16	4.7
2025-08-29T12:00	13400	161	-45.5	-79.1	216	16	4.5
2025-08-29T12:00	13450	160	-45.8	-79.0	211	16	4.3
2025-08-29T12:00	13500	159	-46.4	-79.2	207	16	4.1
2025-08-29T12:00	13550	157	-46.8	-79.3	203	16	3.9
2025-08-29T12:00	13600	156	-47.2	-79.4	199	16	3.7
2025-08-29T12:00	13650	155	-47.6	-79.5	196	17	3.5
2025-08-29T12:00	13700	154	-47.9	-79.4	194	18	3.3
2025-08-29T12:00	13750	153	-48.3	-79.4	193	19	3.1
2025-08-29T12:00	13800	151	-48.5	-79.5	195	19	3.0
2025-08-29T12:00	13850	150	-48.5	-79.7	197	19	2.9
2025-08-29T12:00	13900	149	-48.5	-79.8	198	18	2.9
2025-08-29T12:00	13950	148	-48.6	-80.2	198	17	3.0
2025-08-29T12:00	14000	147	-48.7	-80.2	198	17	3.2
2025-08-29T12:00	14050	146	-49.1	-80.3	200	17	3.2
2025-08-29T12:00	14100	145	-49.4	-80.5	201	17	3.3
2025-08-29T12:00	14150	144	-49.8	-80.5	203	17	3.3
2025-08-29T12:00	14200	142	-50.3	-80.7	204	17	3.3
2025-08-29T12:00	14250	141	-50.7	-80.9	205	17	3.3
2025-08-29T12:00	14300	140	-51.2	-81.0	206	17	3.3
2025-08-29T12:00	14350	139	-51.6	-81.2	208	17	3.3
2025-08-29T12:00	14400	138	-52.0	-81.4	210	17	3.4
2025-08-29T12:00	14450	137	-52.3	-81.8	215	18	3.4
2025-08-29T12:00	14500	136	-52.0	-82.0	219	18	3.9
2025-08-29T12:00	14550	135	-52.0	-82.1	221	17	4.5
2025-08-29T12:00	14600	134	-52.0	-82.1	223	17	5.0
2025-08-29T12:00	14650	133	-52.0	-82.3	223	16	5.2
2025-08-29T12:00	14700	132	-51.8	-82.3	221	15	5.4
2025-08-29T12:00	14750	131	-51.7	-82.2	218	15	5.3
2025-08-29T12:00	14800	130	-51.7	-82.2	214	15	5.1
2025-08-29T12:00	14850	129	-51.9	-82.3	213	15	5.0
2025-08-29T12:00	14900	128	-51.9	-82.3	213	15	5.1
2025-08-29T12:00	14950	127	-52.0	-82.4	210	16	5.2
2025-08-29T12:00	15000	126	-52.1	-82.4	207	17	5.3
2025-08-29T12:00	15050	125	-52.5	-82.5	206	17	5.4
2025-08-29T12:00	15100	124	-52.7	-82.8	208	18	5.6
2025-08-29T12:00	15150	123	-52.6	-82.9	212	18	5.8
2025-08-29T12:00	15200	122	-52.5	-82.9	215	18	6.0
2025-08-29T12:00	15250	121	-52.2	-82.9	218	17	6.1
2025-08-29T12:00	15300	120	-52.1	-82.9	222	16	6.2
2025-08-29T12:00	15350	119	-52.0	-82.9	226	16	6.4
2025-08-29T12:00	15400	118	-51.8	-83.1	226	16	6.5
2025-08-29T12:00	15450	117	-51.3	-82.9	222	16	6.7
2025-08-29T12:00	15500	117	-51.5	-82.9	218	17	6.9
2025-08-29T12:00	15550	116	-51.6	-82.9	214	17	7.1
2025-08-29T12:00	15600	115	-51.7	-82.9	212	18	7.2
2025-08-29T12:00	15650	114	-51.8	-83.0	211	19	7.2
2025-08-29T12:00	15700	113	-52.1	-83.0	211	21	7.2
2025-08-29T12:00	15750	112	-52.4	-83.2	212	22	7.2
2025-08-29T12:00	15800	111	-52.3	-83.3	214	22	7.1
2025-08-29T12:00	15850	110	-51.9	-83.2	217	22	7.0
2025-08-29T12:00	15900	110	-52.0	-83.3	219	22	7.0
2025-08-29T12:00	15950	109	-51.9	-83.1	220	23	6.9
2025-08-29T12:00	16000	108	-52.2	-83.2	221	23	6.9
2025-08-29T12:00	16050	107	-52.4	-83.2	222	23	6.8
2025-08-29T12:00	16100	106	-52.8	-83.3	223	24	6.8
2025-08-29T12:00	16150	105	-52.9	-83.5	225	24	6.7
2025-08-29T12:00	16200	105	-52.7	-83.5	228	25	6.6
2025-08-29T12:00	16250	104	-52.4	-83.5	231	25	6.6
2025-08-29T12:00	16300	103	-52.0	-83.4	234	25	6.4
2025-08-29T12:00	16350	102	-52.1	-83.5	236	23	6.3
2025-08-29T12:00	16400	101	-51.9	-83.5	239	21	6.5
2025-08-29T12:00	16450	101	-51.6	-83.4	242	20	6.7
2025-08-29T12:00	16500	100	-51.7	-83.4	244	18	6.8
2025-08-29T12:00	16550	99	-51.7	-83.3	245	17	6.9
2025-08-29T12:00	16600	98	-51.8	-83.4	243	16	7.0
2025-08-29T12:00	16650	98	-51.7	-83.4	241	16	7.0
2025-08-29T12:00	16700	97	-51.6	-83.4	238	15	6.9
2025-08-29T12:00	16750	96	-51.7	-83.3	236	14	6.8
2025-08-29T12:00	16800	95	-52.1	-83.4	235	14	6.7
2025-08-29T12:00	16850	95	-52.3	-83.5	234	14	6.7
2025-08-29T12:00	16900	94	-52.3	-83.5	232	14	6.6
2025-08-29T12:00	16950	93	-52.4	-83.6	229	12	6.6
2025-08-29T12:00	17000	92	-52.4	-83.7	224	11	6.5
2025-08-29T12:00	17050	92	-52.4	-83.7	219	10	6.5
2025-08-29T12:00	17100	91	-52.4	-83.7	214	10	6.5
2025-08-29T12:00	17150	90	-52.6	-83.7	213	11	6.6
2025-08-29T12:00	17200	90	-52.9	-83.7	211	11	6.6
2025-08-29T12:00	17250	89	-53.4	-83.8	211	12	6.5
2025-08-29T12:00	17300	88	-53.8	-84.0	211	12	6.5
2025-08-29T12:00	17350	88	-54.3	-84.1	212	13	6.5
2025-08-29T12:00	17400	87	-54.7	-84.4	214	13	6.4
2025-08-29T12:00	17450	86	-54.3	-84.4	217	14	6.4
2025-08-29T12:00	17500	86	-54.4	-84.5	219	14	6.6
2025-08-29T12:00	17550	85	-54.6	-84.6	221	13	6.6
2025-08-29T12:00	17600	84	-54.7	-84.6	223	13	6.7
2025-08-29T12:00	17650	84	-54.8	-84.8	226	12	6.8
2025-08-29T12:00	17700	83	-54.6	-84.8	228	12	6.9
2025-08-29T12:00	17750	82	-54.2	-84.7	224	13	7.1
2025-08-29T12:00	17800	82	-53.7	-84.4	218	13	7.3
2025-08-29T12:00	17850	81	-54.3	-84.6	212	13	7.4
2025-08-29T12:00	17900	80	-54.8	-84.8	209	14	7.5
2025-08-29T12:00	17950	80	-55.3	-84.8	206	14	7.5
2025-08-29T12:00	18000	79	-55.6	-84.7	203	14	7.5
2025-08-29T12:00	18050	78	-55.9	-84.9	205	14	7.5
2025-08-29T12:00	18100	78	-56.1	-85.2	210	13	7.5
2025-08-29T12:00	18150	77	-56.0	-85.3	218	13	7.5
2025-08-29T12:00	18200	77	-55.8	-85.4	222	12	7.5
2025-08-29T12:00	18250	76	-55.7	-85.4	218	12	7.5
2025-08-29T12:00	18300	75	-55.4	-85.2	213	13	7.4
2025-08-29T12:00	18350	75	-55.6	-85.2	211	14	7.2
2025-08-29T12:00	18400	74	-56.1	-85.2	212	15	7.0
2025-08-29T12:00	18450	74	-56.6	-85.4	212	16	6.9
2025-08-29T12:00	18500	73	-56.9	-85.4	214	17	6.7
2025-08-29T12:00	18550	73	-57.1	-85.6	217	16	6.6
2025-08-29T12:00	18600	72	-56.9	-85.8	220	15	6.5
2025-08-29T12:00	18650	71	-56.6	-85.9	222	13	6.5
2025-08-29T12:00	18700	71	-56.4	-85.8	224	11	6.5
2025-08-29T12:00	18750	70	-56.2	-85.9	229	10	6.6
2025-08-29T12:00	18800	70	-55.8	-85.9	234	10	6.8
2025-08-29T12:00	18850	69	-55.0	-85.7	234	8	7.0
2025-08-29T12:00	18900	69	-54.4	-85.6	229	7	7.2
2025-08-29T12:00	18950	68	-53.8	-85.2	224	6	7.5
2025-08-29T12:00	19000	68	-53.9	-85.2	225	5	7.8
2025-08-29T12:00	19050	67	-54.0	-85.0	230	4	8.0
2025-08-29T12:00	19100	67	-54.0	-84.8	236	3	8.2
2025-08-29T12:00	19150	66	-54.2	-84.9	234	2	8.4
2025-08-29T12:00	19200	66	-54.5	-85.1	221	3	8.5
2025-08-29T12:00	19250	65	-54.1	-85.0	203	3	8.6
2025-08-29T12:00	19300	64	-54.3	-85.1	191	4	8.8
2025-08-29T12:00	19350	64	-54.5	-85.1	182	5	8.8
2025-08-29T12:00	19400	64	-54.6	-85.1	182	6	8.9
2025-08-29T12:00	19450	63	-54.8	-85.3	192	6	8.9
2025-08-29T12:00	19500	63	-54.4	-85.3	207	7	8.9
2025-08-29T12:00	19550	62	-54.2	-85.2	219	7	9.1
2025-08-29T12:00	19600	62	-54.5	-85.2	226	6	9.2
2025-08-29T12:00	19650	61	-54.8	-85.2	232	6	9.3
2025-08-29T12:00	19700	61	-55.1	-85.3	239	5	9.4
2025-08-29T12:00	19750	60	-55.2	-85.4	242	5	9.5
2025-08-29T12:00	19800	60	-55.3	-85.6	239	5	9.6
2025-08-29T12:00	19850	59	-54.6	-85.4	227	4	9.7
2025-08-29T12:00	19900	59	-54.5	-85.5	210	4	10.0
2025-08-29T12:00	19950	58	-54.4	-85.3	192	3	10.3
2025-08-29T12:00	20000	58	-54.4	-85.2	174	3	10.6
2025-08-29T12:00	20050	57	-54.5		152	2	10.9
2025-08-29T12:00	20100	57	-54.5		140	2	11.1
2025-08-29T12:00	20150	56	-54.2		161	2	11.3
2025-08-29T12:00	20200	56	-53.9		172	3	11.4
2025-08-29T12:00	20250	56	-54.1		167	5	11.6
2025-08-29T12:00	20300	55	-54.2		162	6	11.7
2025-08-29T12:00	20350	55	-54.4		161	7	11.8
2025-08-29T12:00	20400	54	-54.4		163	8	11.8
2025-08-29T12:00	20450	54	-53.8		169	8	11.9
2025-08-29T12:00	20500	53	-53.6		177	8	12.1
2025-08-29T12:00	20550	53	-53.7		184	7	12.3
2025-08-29T12:00	20600	53	-53.8		185	7	12.3
2025-08-29T12:00	20650	52	-53.7		178	6	12.4
2025-08-29T12:00	20700	52	-53.9		168	6	12.5
2025-08-29T12:00	20750	51	-54.1		168	6	12.5
2025-08-29T12:00	20800	51	-54.1		176	6	12.6
2025-08-29T12:00	20850	51	-54.1		182	6	12.7
2025-08-29T12:00	20900	50	-54.1		182	6	12.7
2025-08-29T12:00	20950	50	-53.8		180	7	12.8
2025-08-29T12:00	21000	49	-53.3		182	8	12.7
2025-08-29T12:00	21050	49	-53.1		189	8	12.7
2025-08-29T12:00	21100	49	-53.3		196	8	12.6
2025-08-29T12:00	21150	48	-53.5		204	8	12.5
2025-08-29T12:00	21200	48	-53.7		216	8	12.4
2025-08-29T12:00	21250	48	-52.9		231	7	12.4
2025-08-29T12:00	21300	47	-52.5		248	7	12.4
2025-08-29T12:00	21350	47	-52.7		260	7	12.5
2025-08-29T12:00	21400	46	-52.8		269	7	12.5
2025-08-29T12:00	21450	46	-53.0		277	6	12.5
2025-08-29T12:00	21500	46	-53.3		288	5	12.4
2025-08-29T12:00	21550	45	-53.2		301	4	12.3
2025-08-29T12:00	21600	45	-52.4		313	4	12.3
2025-08-29T12:00	21650	45	-52.3		328	3	12.5
2025-08-29T12:00	21700	44	-52.0		359	3	12.7
2025-08-29T12:00	21750	44	-51.5		48	3	12.9
2025-08-29T12:00	21800	44	-50.8		78	4	13.1
2025-08-29T12:00	21850	43	-50.8		93	6	13.2
2025-08-29T12:00	21900	43	-51.0		104	7	13.3
2025-08-29T12:00	21950	43	-51.2		116	7	13.3
2025-08-29T12:00	22000	42	-51.2		130	7	13.4
2025-08-29T12:00	22050	42	-51.0		143	6	13.5
2025-08-29T12:00	22100	42	-50.6		156	6	13.6
2025-08-29T12:00	22150	41	-50.7		166	6	13.7
2025-08-29T12:00	22200	41	-51.0		170	7	13.7
2025-08-29T12:00	22250	41	-51.1		172	6	13.7
2025-08-29T12:00	22300	40	-51.0		178	4	13.7
2025-08-29T12:00	22350	40	-51.1		181	3	13.8
2025-08-29T12:00	22400	40	-51.0		154	2	13.8
2025-08-29T12:00	22450	40	-50.9		99	2	13.8
2025-08-29T12:00	22500	39	-50.7		84	3	14.0
2025-08-29T12:00	22550	39	-50.6		85	5	14.0
2025-08-29T12:00	22600	39	-50.6		92	6	14.1
2025-08-29T12:00	22650	38	-50.5		100	7	14.2
2025-08-29T12:00	22700	38	-50.4		107	7	14.3
2025-08-29T12:00	22750	38	-50.7		115	6	14.2
2025-08-29T12:00	22800	37	-51.0		120	5	14.2
2025-08-29T12:00	22850	37	-50.8		120	5	14.2
2025-08-29T12:00	22900	37	-50.8		115	6	14.2
2025-08-29T12:00	22950	37	-50.9		111	7	14.3
2025-08-29T12:00	23000	36	-50.9		111	8	14.2
2025-08-29T12:00	23050	36	-51.0		115	9	14.2
2025-08-29T12:00	23100	36	-51.2		121	10	14.3
2025-08-29T12:00	23150	36	-51.3		127	10	14.2
2025-08-29T12:00	23200	35	-51.5		132	11	14.1
2025-08-29T12:00	23250	35	-51.8		136	12	14.1
2025-08-29T12:00	23300	35	-52.0		141	12	14.0
2025-08-29T12:00	23350	34	-51.8		147	12	14.1
2025-08-29T12:00	23400	34	-51.8		153	11	14.1
2025-08-29T12:00	23450	34	-52.0		158	10	14.1
2025-08-29T12:00	23500	34	-52.3		165	9	14.0
2025-08-29T12:00	23550	33	-52.5		173	9	13.9
2025-08-29T12:00	23600	33	-52.9		182	8	13.7
2025-08-29T12:00	23650	33	-53.1		193	7	13.5
2025-08-29T12:00	23700	33	-52.9		199	6	13.5
2025-08-29T12:00	23750	32	-52.3		194	4	13.3
2025-08-29T12:00	23800	32	-52.0		182	3	13.3
2025-08-29T12:00	23850	32	-51.9		192	3	13.2
2025-08-29T12:00	23900	32	-51.9		222	2	13.0
2025-08-29T12:00	23950	31	-51.6		240	2	13.1
2025-08-29T12:00	24000	31	-51.4		230	1	13.1
2025-08-29T12:00	24050	31	-51.3		163	2	13.1
2025-08-29T12:00	24100	31	-51.3		144	3	13.1
2025-08-29T12:00	24150	30	-50.9		141	4	13.1
2025-08-29T12:00	24200	30	-50.8		139	3	13.0
2025-08-29T12:00	24250	30	-50.7		134	2	13.0
2025-08-29T12:00	24300	30	-50.6		103	1	13.0
2025-08-29T12:00	24350	30	-50.6		49	1	13.1
2025-08-29T12:00	24400	29	-50.6		49	2	13.2
2025-08-29T12:00	24450	29	-50.7		67	3	13.3
2025-08-29T12:00	24500	29	-50.7		84	4	13.2
2025-08-29T12:00	24550	29	-50.6		97	5	13.2
2025-08-29T12:00	24600	28	-50.6		107	6	13.2
2025-08-29T12:00	24650	28	-50.7		117	6	13.2
2025-08-29T12:00	24700	28	-50.9		125	7	13.2
2025-08-29T12:00	24750	28	-51.1		133	8	13.3
2025-08-29T12:00	24800	28	-51.2		140	9	13.4
2025-08-29T12:00	24850	27	-50.8		145	8	13.3
2025-08-29T12:00	24900	27	-50.8		149	7	13.2
2025-08-29T12:00	24950	27	-50.8		151	5	13.2
2025-08-29T12:00	25000	27	-50.8		147	2	13.3
2025-08-29T12:00	25050	27	-50.6		109	1	13.3
2025-08-29T12:00	25100	26	-50.2		70	2	13.3
2025-08-29T12:00	25150	26	-50.0		60	3	13.3
2025-08-29T12:00	25200	26	-49.9		58	4	13.3
2025-08-29T12:00	25250	26	-49.6		65	3	13.4
2025-08-29T12:00	25300	26	-49.6		77	3	13.3
2025-08-29T12:00	25350	25	-49.5		76	3	13.3
2025-08-29T12:00	25400	25	-49.6		62	3	13.1
2025-08-29T12:00	25450	25	-49.7		54	5	13.1
2025-08-29T12:00	25500	25	-49.9		53	6	13.2
2025-08-29T12:00	25550	25	-50.2		58	7	13.1
2025-08-29T12:00	25600	24	-50.2		65	7	13.0
2025-08-29T12:00	25650	24	-50.4		76	7	13.0
2025-08-29T12:00	25700	24	-50.4		89	7	13.1
2025-08-29T12:00	25750	24	-50.5		104	6	12.9
2025-08-29T12:00	25800	24	-50.8		119	6	12.9
2025-08-29T12:00	25850	23	-51.0		129	6	12.9
2025-08-29T12:00	25900	23	-50.9		137	6	13.0
2025-08-29T12:00	25950	23	-50.8		140	5	13.0
2025-08-29T12:00	26000	23	-50.7		130	4	13.0
2025-08-29T12:00	26050	23	-50.7		103	4	13.0
2025-08-29T12:00	26100	23	-50.8		79	5	13.0
2025-08-29T12:00	26150	22	-50.8		70	6	12.9
2025-08-29T12:00	26200	22	-50.6		72	7	12.8
2025-08-29T12:00	26250	22	-50.3		81	8	12.9
2025-08-29T12:00	26300	22	-50.0		91	8	12.8
2025-08-29T12:00	26350	22	-50.2		101	9	12.8
2025-08-29T12:00	26400	22	-50.4		111	9	12.7
2025-08-29T12:00	26450	21	-50.6		122	9	12.6
2025-08-29T12:00	26500	21	-50.6		134	9	12.4
2025-08-29T12:00	26550	21	-50.7		142	9	12.4
2025-08-29T12:00	26600	21	-51.1		150	9	12.3
2025-08-29T12:00	26650	21	-50.9		157	9	12.4
2025-08-29T12:00	26700	21	-50.8		162	9	12.3
2025-08-29T12:00	26750	20	-50.6		164	7	12.0
2025-08-29T12:00	26800	20	-50.6		164	6	12.2
2025-08-29T12:00	26850	20	-50.6		161	5	12.2
2025-08-29T12:00	26900	20	-50.6		152	4	12.2
2025-08-29T12:00	26950	20	-50.3		138	4	11.9
2025-08-29T12:00	27000	20	-49.9		128	4	11.9
2025-08-29T12:00	27050	20	-49.7		134	3	11.8
2025-08-29T12:00	27100	19	-49.6		157	3	11.8
2025-08-29T12:00	27150	19	-49.1		183	2	11.8
2025-08-29T12:00	27200	19	-48.6		195	2	11.8
2025-08-29T12:00	27250	19	-48.2		185	1	11.7
2025-08-29T12:00	27300	19	-48.0		93	1	11.7
2025-08-29T12:00	27350	19	-47.8		69	3	11.6
2025-08-29T12:00	27400	18	-47.1		71	4	11.6
2025-08-29T12:00	27450	18	-46.7		76	6	11.6
2025-08-29T12:00	27500	18	-46.8		81	6	11.7
2025-08-29T12:00	27550	18	-46.7		84	6	11.7
2025-08-29T12:00	27600	18	-46.5		84	6	11.6
2025-08-29T12:00	27650	18	-46.3		85	6	11.6
2025-08-29T12:00	27700	18	-46.3		83	6	11.5
2025-08-29T12:00	27750	18	-46.2		78	6	11.5
2025-08-29T12:00	27800	17	-46.2		73	6	11.5
2025-08-29T12:00	27850	17	-46.4		68	6	11.5
2025-08-29T12:00	27900	17	-46.7		65	6	11.4
2025-08-29T12:00	27950	17	-47.1		64	7	11.4
2025-08-29T12:00	28000	17	-47.2		69	8	11.3
2025-08-29T12:00	28050	17	-47.1		79	9	11.2
2025-08-29T12:00	28100	17	-46.6		88	9	11.2
2025-08-29T12:00	28150	17	-46.1		96	8	11.1
2025-08-29T12:00	28200	16	-46.3		100	8	11.1
2025-08-29T12:00	28250	16	-46.2		99	7	11.1
2025-08-29T12:00	28300	16	-45.8		95	8	11.0
2025-08-29T12:00	28350	16	-45.8		91	8	11.0
2025-08-29T12:00	28400	16	-45.9		88	9	10.9
2025-08-29T12:00	28450	16	-46.0		84	9	10.9
2025-08-29T12:00	28500	16	-46.2		81	9	10.8
2025-08-29T12:00	28550	16	-46.5		79	10	10.8
2025-08-29T12:00	28600	15	-46.7		81	10	10.6
2025-08-29T12:00	28650	15	-46.8		83	10	10.6
2025-08-29T12:00	28700	15	-47.0		85	10	10.6
2025-08-29T12:00	28750	15	-47.3		89	10	10.5
2025-08-29T12:00	28800	15	-47.7		95	10	10.4
2025-08-29T12:00	28850	15	-47.8		103	10	10.3
2025-08-29T12:00	28900	15	-48.0		110	10	10.2
2025-08-29T12:00	28950	15	-48.3		115	11	10.0
2025-08-29T12:00	29000	15	-48.5		119	11	9.8
2025-08-29T12:00	29050	14	-48.6		121	10	9.9
2025-08-29T12:00	29100	14	-48.2		119	9	9.9
2025-08-29T12:00	29150	14	-47.9		114	7	9.9
2025-08-29T12:00	29200	14	-47.8		104	6	9.7
2025-08-29T12:00	29250	14	-47.9		96	6	9.7
2025-08-29T12:00	29300	14	-47.9		96	6	9.7
2025-08-29T12:00	29350	14	-48.0		98	7	9.6
2025-08-29T12:00	29400	14	-48.2		99	7	9.3
2025-08-29T12:00	29450	14	-48.1		98	8	9.4
2025-08-29T12:00	29500	13	-47.9		97	8	9.4
2025-08-29T12:00	29550	13	-47.7		97	9	9.2
2025-08-29T12:00	29600	13	-47.6		98	9	9.3
2025-08-29T12:00	29650	13	-47.6		103	9	9.2
2025-08-29T12:00	29700	13	-47.6		107	8	9.1
2025-08-29T12:00	29750	13	-47.4		108	6	9.0
2025-08-29T12:00	29800	13	-47.5		106	5	8.9
2025-08-29T12:00	29850	13	-47.4		101	5	8.9
2025-08-29T12:00	29900	13	-47.3		95	5	8.9
2025-08-29T12:00	29950	13	-47.3		90	5	8.8
2025-08-29T12:00	30000	12	-47.3		89	5	8.7
2025-08-29T12:00	30050	12	-47.2		94	5	8.7
2025-08-29T12:00	30100	12	-47.0		103	6	8.8
2025-08-29T12:00	30150	12	-46.7		111	6	8.6
2025-08-29T12:00	30200	12	-46.3		115	6	8.6
2025-08-29T12:00	30250	12	-46.0		115	6	8.5
2025-08-29T12:00	30300	12	-46.0		112	5	8.4
2025-08-29T12:00	30350	12	-46.1		110	6	8.4
2025-08-29T12:00	30400	12	-46.2		108	7	8.3
2025-08-29T12:00	30450	12	-46.3		107	7	8.3
2025-08-29T12:00	30500	12	-46.0		109	7	8.1
2025-08-29T12:00	30550	11	-45.9		116	6	8.1
2025-08-29T12:00	30600	11	-45.8		124	5	8.1
2025-08-29T12:00	30650	11	-45.6		127	4	8.1
2025-08-29T12:00	30700	11	-45.3		117	3	8.0
2025-08-29T12:00	30750	11	-45.0		93	3	8.0
2025-08-29T12:00	30800	11	-44.5		75	4	8.0
2025-08-29T12:00	30850	11	-44.4		69	5	7.8
2025-08-29T12:00	30900	11	-44.0		69	6	7.8
2025-08-29T12:00	30950	11	-44.1		71	7	7.8
2025-08-29T12:00	31000	11	-44.4		75	8	7.7
2025-08-29T12:00	31050	11	-44.7		80	7	7.6
2025-08-29T12:00	31100	11	-45.0		87	7	7.7
2025-08-29T12:00	31150	11	-45.0		94	7	7.6
2025-08-29T12:00	31200	10	-45.0		100	7	7.6
2025-08-29T12:00	31250	10	-45.1		106	7	7.4
2025-08-29T12:00	31300	10	-45.1		112	8	7.5
2025-08-29T12:00	31350	10	-45.1		117	7	7.4
2025-08-29T12:00	31400	10	-45.2		117	7	7.3
2025-08-29T12:00	31450	10	-45.2		114	6	7.3
2025-08-29T12:00	31500	10	-45.3		115	6	7.2
2025-08-29T12:00	31550	10	-45.2		121	6	7.1
2025-08-29T12:00	31600	10	-45.0		132	6	7.1
2025-08-29T12:00	31650	10	-44.7		141	5	6.9
2025-08-29T12:00	31700	10	-44.4		141	4	6.8
2025-08-29T12:00	31750	10	-44.1		123	2	6.8
2025-08-29T12:00	31800	10	-44.0		89	2	6.9
2025-08-29T12:00	31850	9	-44.3		69	2	6.7
2025-08-29T12:00	31900	9	-43.7		72	3	6.5
2025-08-29T12:00	31950	9	-43.5		84	3	6.6
2025-08-29T12:00	32000	9	-43.5		86	3	6.6
2025-08-29T12:00	32050	9	-43.4		75	3	6.5
2025-08-29T12:00	32100	9	-43.2		58	4	6.4
2025-08-29T12:00	32150	9	-43.2		49	4	6.4
2025-08-29T12:00	32200	9	-43.3		51	5	6.4
2025-08-29T12:00	32250	9	-43.3		58	5	6.3
2025-08-29T12:00	32300	9	-43.4		65	7	6.2
2025-08-29T12:00	32350	9	-43.6		71	7	6.2
2025-08-29T12:00	32400	9	-43.8		74	7	6.1
2025-08-29T12:00	32450	9	-44.0		78	7	6.1
2025-08-29T12:00	32500	9	-44.1		84	6	5.9
2025-08-29T12:00	32550	9	-44.3		92	6	6.0
2025-08-29T12:00	32600	8	-44.5		101	6	5.9
2025-08-29T12:00	32650	8	-44.6		108	5	5.8
2025-08-29T12:00	32700	8	-44.5		113	4	5.8
2025-08-29T12:00	32750	8	-44.3		115	3	5.8
2025-08-29T12:00	32800	8	-44.1		111	2	5.7
2025-08-29T12:00	32850	8	-44.1		93	2	5.7
2025-08-29T12:00	32900	8	-44.2		68	2	5.6
2025-08-29T12:00	32950	8	-44.3		53	3	5.6
2025-08-29T12:00	33000	8	-44.3		46	4	5.6
2025-08-29T12:00	33050	8	-44.3		41	5	5.5
2025-08-29T12:00	33100	8	-44.3		37	6	5.4
2025-08-29T12:00	33150	8	-44.2		37	7	5.3
2025-08-29T12:00	33200	8	-44.2		39	8	5.4
2025-08-29T12:00	33250	8	-44.2		41	9	5.3
2025-08-29T12:00	33300	8	-44.3		41	9	5.3
2025-08-29T12:00	33350	8	-44.3		42	8	5.2
2025-08-29T12:00	33400	8	-44.2		44	8	5.3
2025-08-29T12:00	33450	7	-44.2		49	8	5.2
2025-08-29T12:00	33500	7	-44.1		58	8	5.2
2025-08-29T12:00	33550	7	-44.0		63	8	5.2
2025-08-29T12:00	33600	7	-43.7		59	8	5.1
2025-08-29T12:00	33650	7	-43.5		49	8	5.1
2025-08-29T12:00	33700	7	-43.4		45	8	5.0
2025-08-29T12:00	33750	7	-43.5		44	8	4.9
2025-08-29T12:00	33800	7	-44.0		41	9	4.9
2025-08-29T12:00	33850	7	-44.2		37	9	4.8
2025-08-29T12:00	33900	7	-44.0		34	10	4.8
2025-08-29T12:00	33950	7	-43.5		33	10	4.7
2025-08-29T12:00	34000	7	-43.1		36	10	4.6
2025-08-29T12:00	34050	7	-42.6		38	10	4.6
2025-08-29T12:00	34100	7	-42.0		37	11	4.6
2025-08-29T12:00	34150	7	-41.4		36	11	4.5
2025-08-29T12:00	34200	7	-40.9		40	11	4.5
2025-08-29T12:00	34250	7	-40.4		54	9	4.5
2025-08-29T12:00	34300	7	-39.8		63	9	4.4
2025-08-29T12:00	34350	7	-39.4		62	10	4.4
2025-08-29T12:00	34400	6	-38.9		60	11	4.4
2025-08-29T12:00	34450	6	-38.0		58	13	4.4
2025-08-29T12:00	34500	6	-37.9		60	15	4.3
2025-08-29T12:00	34550	6	-37.0		66	15	4.3
2025-08-29T12:00	34600	6	-36.3		68	14	4.2
2025-08-30T00:00	491	953	13.3	11.4	214	3	
2025-08-30T00:00	520	949	13.5	11.3	210	4	
2025-08-30T00:00	540	947	13.4	11.1	211	5	
2025-08-30T00:00	560	945	13.7	10.9	213	6	
2025-08-30T00:00	580	943	13.8	10.9	213	7	
2025-08-30T00:00	600	940	13.8	10.9	214	8	
2025-08-30T00:00	620	938	13.8	10.8	215	9	
2025-08-30T00:00	640	936	13.8	10.8	216	9	
2025-08-30T00:00	660	934	13.8	10.8	217	10	
2025-08-30T00:00	680	932	13.7	10.9	218	10	
2025-08-30T00:00	700	929	13.6	10.8	220	11	
2025-08-30T00:00	720	927	13.6	10.5	222	12	
2025-08-30T00:00	740	925	13.6	10.0	223	12	
2025-08-30T00:00	760	923	13.5	10.0	225	13	
2025-08-30T00:00	780	921	13.3	9.9	227	13	
2025-08-30T00:00	800	918	13.2	9.7	228	13	
2025-08-30T00:00	820	916	13.0	9.6	229	13	
2025-08-30T00:00	840	914	12.8	9.4	230	13	
2025-08-30T00:00	860	912	12.7	9.1	232	13	
2025-08-30T00:00	880	910	12.6	8.6	233	13	
2025-08-30T00:00	900	907	12.6	8.1	233	13	
2025-08-30T00:00	920	905	12.5	7.8	234	12	
2025-08-30T00:00	940	903	12.4	7.5	234	12	
2025-08-30T00:00	960	901	12.2	7.3	235	12	
2025-08-30T00:00	980	899	12.1	7.3	236	12	
2025-08-30T00:00	1000	897	11.9	7.2	237	12	
2025-08-30T00:00	1020	895	11.7	7.1	237	12	
2025-08-30T00:00	1040	892	11.5	7.1	237	12	
2025-08-30T00:00	1060	890	11.4	7.0	237	12	
2025-08-30T00:00	1080	888	11.2	6.9	237	12	
2025-08-30T00:00	1100	886	11.0	6.9	237	12	
2025-08-30T00:00	1120	884	10.8	6.8	237	12	
2025-08-30T00:00	1140	882	10.6	6.7	238	12	
2025-08-30T00:00	1160	880	10.5	6.5	239	12	
2025-08-30T00:00	1180	878	10.3	6.6	240	12	
2025-08-30T00:00	1200	876	10.1	6.4	241	12	
2025-08-30T00:00	1220	873	9.9	6.2	243	12	
2025-08-30T00:00	1240	871	9.7	6.2	244	12	
2025-08-30T00:00	1260	869	9.6	6.1	245	12	
2025-08-30T00:00	1280	867	9.4	5.8	246	12	
2025-08-30T00:00	1300	865	9.3	5.7	247	12	
2025-08-30T00:00	1320	863	9.1	5.6	247	12	
2025-08-30T00:00	1340	861	8.9	5.6	249	12	
2025-08-30T00:00	1360	859	8.7	5.6	249	11	
2025-08-30T00:00	1380	857	8.5	5.6	250	11	
2025-08-30T00:00	1400	855	8.3	5.5	251	10	
2025-08-30T00:00	1420	853	8.2	5.4	251	10	
2025-08-30T00:00	1440	850	7.9	5.5	252	10	
2025-08-30T00:00	1460	848	7.8	5.4	253	9	
2025-08-30T00:00	1480	847	7.6	5.4	256	9	
2025-08-30T00:00	1500	844	7.4	5.3	259	10	
2025-08-30T00:00	1520	842	7.2	5.2	262	10	
2025-08-30T00:00	1540	840	7.1	5.2	265	10	
2025-08-30T00:00	1560	838	7.0	4.8	267	11	
2025-08-30T00:00	1580	836	7.2	4.5	270	11	
2025-08-30T00:00	1600	834	7.1	4.4	272	11	
2025-08-30T00:00	1620	832	7.1	3.9	275	11	
2025-08-30T00:00	1640	830	7.1	3.8	276	11	
2025-08-30T00:00	1660	828	6.9	3.6	277	11	
2025-08-30T00:00	1680	826	6.8	3.5	277	11	
2025-08-30T00:00	1700	824	6.6	3.3	276	11	
2025-08-30T00:00	1720	822	6.6	3.2	275	12	
2025-08-30T00:00	1740	820	6.6	3.8	275	13	
2025-08-30T00:00	1760	818	6.5	3.8	276	13	
2025-08-30T00:00	1780	816	6.3	3.8	277	14	
2025-08-30T00:00	1800	814	6.1	3.8	277	14	
2025-08-30T00:00	1820	812	5.9	3.8	277	13	
2025-08-30T00:00	1840	810	5.9	3.6	276	13	
2025-08-30T00:00	1860	808	5.9	2.7	275	13	
2025-08-30T00:00	1880	806	5.7	2.3	274	12	
2025-08-30T00:00	1900	804	5.6	1.8	272	12	
2025-08-30T00:00	1920	802	5.5	0.9	270	13	
2025-08-30T00:00	1940	800	5.4	1.1	268	13	
2025-08-30T00:00	1960	798	5.3	1.2	267	13	
2025-08-30T00:00	1980	797	5.1	1.4	266	14	
2025-08-30T00:00	2000	795	5.0	1.6	266	14	
2025-08-30T00:00	2020	793	4.8	1.8	266	14	
2025-08-30T00:00	2040	791	4.7	1.7	267	14	
2025-08-30T00:00	2060	789	4.6	1.5	268	14	
2025-08-30T00:00	2080	787	4.4	1.3	269	13	
2025-08-30T00:00	2100	785	4.2	1.1	270	13	
2025-08-30T00:00	2120	783	4.1	0.9	270	12	
2025-08-30T00:00	2140	781	4.0	0.9	270	12	
2025-08-30T00:00	2160	779	3.9	1.1	270	12	
2025-08-30T00:00	2180	777	3.8	1.2	269	12	
2025-08-30T00:00	2200	775	3.7	0.5	267	12	
2025-08-30T00:00	2220	773	3.7	0.2	266	12	
2025-08-30T00:00	2240	771	3.6	0.1	265	12	
2025-08-30T00:00	2260	769	3.5	-0.2	265	12	
2025-08-30T00:00	2280	768	3.4	-0.3	265	12	
2025-08-30T00:00	2300	766	3.2	-0.4	266	12	
2025-08-30T00:00	2320	764	3.1	-0.6	266	12	
2025-08-30T00:00	2340	762	2.9	-0.7	266	12	
2025-08-30T00:00	2360	760	2.8	-0.7	266	12	
2025-08-30T00:00	2380	758	2.6	-0.7	266	11	
2025-08-30T00:00	2400	756	2.4	-0.8	266	11	
2025-08-30T00:00	2420	755	2.2	-0.8	266	10	
2025-08-30T00:00	2440	753	2.1	-0.9	267	10	
2025-08-30T00:00	2460	751	1.9	-1.0	268	10	
2025-08-30T00:00	2480	749	1.7	-1.1	268	10	
2025-08-30T00:00	2500	747	1.5	-1.2	269	10	
2025-08-30T00:00	2520	745	1.4	-1.3	269	10	
2025-08-30T00:00	2540	743	1.2	-1.3	269	10	
2025-08-30T00:00	2560	741	1.0	-1.5	270	11	
2025-08-30T00:00	2580	740	0.9	-1.6	270	11	
2025-08-30T00:00	2600	738	0.7	-1.6	271	11	
2025-08-30T00:00	2620	736	0.5	-1.7	272	10	
2025-08-30T00:00	2640	734	0.3	-1.7	273	10	
2025-08-30T00:00	2660	733	0.2	-1.8	273	10	
2025-08-30T00:00	2680	730	0.0	-1.9	274	10	
2025-08-30T00:00	2700	729	-0.2	-1.9	273	10	
2025-08-30T00:00	2720	727	-0.3	-1.9	273	9	
2025-08-30T00:00	2740	725	-0.3	-2.1	272	9	
2025-08-30T00:00	2760	723	-0.3	-2.2	271	9	
2025-08-30T00:00	2780	721	-0.3	-2.4	269	9	
2025-08-30T00:00	2800	720	-0.2	-2.5	267	9	
2025-08-30T00:00	2820	718	-0.3	-2.6	265	9	
2025-08-30T00:00	2840	716	-0.5	-2.7	264	9	
2025-08-30T00:00	2860	714	-0.6	-3.1	262	9	
2025-08-30T00:00	2880	712	-0.7	-3.3	260	9	
2025-08-30T00:00	2900	711	-0.8	-3.4	259	9	
2025-08-30T00:00	2920	709	-1.0	-3.4	257	9	
2025-08-30T00:00	2940	707	-1.3	-3.3	256	9	
2025-08-30T00:00	2960	705	-1.5	-3.4	255	9	
2025-08-30T00:00	2980	704	-1.7	-3.4	254	9	
2025-08-30T00:00	3000	702	-1.9	-3.4	253	9	
2025-08-30T00:00	3020	700	-2.1	-3.5	252	9	
2025-08-30T00:00	3040	698	-2.3	-3.6	251	10	
2025-08-30T00:00	3060	697	-2.4	-3.7	250	10	
2025-08-30T00:00	3080	695	-2.4	-4.3	249	10	
2025-08-30T00:00	3100	693	-2.5	-4.5	249	10	
2025-08-30T00:00	3120	691	-2.7	-4.7	248	10	
2025-08-30T00:00	3140	690	-2.8	-4.8	248	10	
2025-08-30T00:00	3160	688	-2.9	-4.8	248	10	
2025-08-30T00:00	3180	686	-3.1	-4.8	248	10	
2025-08-30T00:00	3200	684	-3.3	-4.8	248	10	
2025-08-30T00:00	3220	683	-3.5	-4.9	249	10	
2025-08-30T00:00	3240	681	-3.6	-5.0	249	10	
2025-08-30T00:00	3260	679	-3.6	-5.4	249	10	
2025-08-30T00:00	3280	677	-3.8	-5.5	250	11	
2025-08-30T00:00	3300	676	-3.9	-5.6	251	11	
2025-08-30T00:00	3320	674	-4.1	-5.8	252	11	
2025-08-30T00:00	3340	672	-4.1	-5.8	252	11	
2025-08-30T00:00	3360	671	-4.1	-6.0	252	11	
2025-08-30T00:00	3380	669	-4.2	-6.2	252	11	
2025-08-30T00:00	3400	667	-4.3	-6.4	252	11	
2025-08-30T00:00	3420	666	-4.5	-6.4	251	11	
2025-08-30T00:00	3440	664	-4.6	-6.5	251	12	
2025-08-30T00:00	3460	662	-4.8	-6.6	251	12	
2025-08-30T00:00	3480	660	-4.9	-6.8	251	12	
2025-08-30T00:00	3500	659	-5.0	-6.8	250	13	
2025-08-30T00:00	3520	657	-5.0	-6.7	251	13	
2025-08-30T00:00	3540	656	-5.1	-6.7	251	13	
2025-08-30T00:00	3560	654	-5.2	-6.6	252	13	
2025-08-30T00:00	3580	652	-5.3	-6.8	254	13	
2025-08-30T00:00	3600	651	-5.3	-7.0	256	13	
2025-08-30T00:00	3620	649	-5.3	-7.4	259	13	
2025-08-30T00:00	3640	647	-5.3	-7.8	262	13	
2025-08-30T00:00	3660	646	-5.3	-8.3	264	13	
2025-08-30T00:00	3680	644	-5.4	-8.6	265	12	
2025-08-30T00:00	3700	642	-5.6	-8.9	267	12	
2025-08-30T00:00	3720	640	-5.7	-9.2	267	11	
2025-08-30T00:00	3740	639	-5.8	-9.4	268	11	
2025-08-30T00:00	3760	637	-6.0	-9.5	268	11	
2025-08-30T00:00	3780	636	-6.2	-9.6	268	11	
2025-08-30T00:00	3800	634	-6.3	-9.6	268	11	
2025-08-30T00:00	3820	633	-6.5	-9.6	268	11	
2025-08-30T00:00	3840	631	-6.5	-9.8	267	11	
2025-08-30T00:00	3860	629	-6.4	-9.6	266	12	
2025-08-30T00:00	3880	628	-6.5	-9.3	265	12	
2025-08-30T00:00	3900	626	-6.6	-9.1	263	12	
2025-08-30T00:00	3920	624	-6.6	-9.6	262	13	
2025-08-30T00:00	3940	623	-6.8	-9.8	262	13	
2025-08-30T00:00	3960	621	-6.9	-9.7	262	13	
2025-08-30T00:00	3980	620	-7.1	-10.0	262	13	
2025-08-30T00:00	4000	618	-7.2	-10.2	261	13	
2025-08-30T00:00	4020	617	-7.4	-10.2	260	13	
2025-08-30T00:00	4040	615	-7.4	-10.7	258	13	
2025-08-30T00:00	4060	613	-7.4	-11.0	254	12	
2025-08-30T00:00	4080	612	-7.4	-11.3	251	12	
2025-08-30T00:00	4100	610	-7.4	-12.3	248	12	
2025-08-30T00:00	4120	609	-7.2	-13.6	244	11	
2025-08-30T00:00	4140	607	-7.3	-14.4	241	11	
2025-08-30T00:00	4160	606	-7.3	-15.2	240	11	
2025-08-30T00:00	4180	604	-7.4	-15.9	239	11	
2025-08-30T00:00	4200	603	-7.4	-16.7	239	11	
2025-08-30T00:00	4220	601	-7.4	-17.4	239	11	
2025-08-30T00:00	4240	599	-7.5	-17.9	239	10	
2025-08-30T00:00	4260	598	-7.7	-18.3	238	10	
2025-08-30T00:00	4280	596	-7.8	-18.4	236	9	
2025-08-30T00:00	4300	595	-7.9	-18.0	234	9	
2025-08-30T00:00	4320	593	-8.1	-17.5	231	9	
2025-08-30T00:00	4340	592	-8.2	-15.9	229	8	
2025-08-30T00:00	4360	590	-8.4	-14.5	227	8	
2025-08-30T00:00	4380	589	-8.5	-14.1	224	8	
2025-08-30T00:00	4400	587	-8.7	-13.8	221	8	
2025-08-30T00:00	4420	586	-8.9	-13.7	219	8	
2025-08-30T00:00	4440	584	-9.1	-13.3	218	8	
2025-08-30T00:00	4460	583	-9.3	-13.0	216	8	
2025-08-30T00:00	4480	581	-9.5	-13.0	215	8	
2025-08-30T00:00	4500	580	-9.7	-13.0	215	9	
2025-08-30T00:00	4520	578	-9.8	-12.9	215	9	
2025-08-30T00:00	4540	577	-9.9	-12.9	217	9	
2025-08-30T00:00	4560	575	-10.0	-13.0	220	9	
2025-08-30T00:00	4580	574	-10.0	-13.7	224	9	
2025-08-30T00:00	4600	572	-10.2	-13.8	228	9	
2025-08-30T00:00	4620	571	-10.4	-13.5	231	9	
2025-08-30T00:00	4640	569	-10.5	-13.2	234	9	
2025-08-30T00:00	4660	568	-10.6	-13.2	235	9	
2025-08-30T00:00	4680	566	-10.5	-14.2	236	9	
2025-08-30T00:00	4700	565	-10.5	-16.1	236	9	
2025-08-30T00:00	4720	563	-10.5	-16.9	237	9	
2025-08-30T00:00	4740	562	-10.5	-17.1	237	9	
2025-08-30T00:00	4760	560	-10.6	-17.3	237	9	
2025-08-30T00:00	4780	559	-10.7	-17.4	238	9	
2025-08-30T00:00	4800	557	-10.8	-17.7	238	9	
2025-08-30T00:00	4820	556	-10.9	-17.8	238	9	
2025-08-30T00:00	4840	554	-11.0	-17.6	238	10	
2025-08-30T00:00	4860	553	-11.2	-17.5	238	10	
2025-08-30T00:00	4880	552	-11.4	-16.8	237	10	
2025-08-30T00:00	4900	550	-11.4	-16.2	237	10	
2025-08-30T00:00	4920	549	-11.4	-16.2	237	10	
2025-08-30T00:00	4940	547	-11.6	-16.2	237	10	
2025-08-30T00:00	4960	546	-11.8	-16.3	237	10	
2025-08-30T00:00	4980	545	-11.9	-16.3	237	10	
2025-08-30T00:00	5000	543	-12.1	-16.3	237	10	
2025-08-30T00:00	5020	542	-12.3	-16.5	236	10	
2025-08-30T00:00	5040	540	-12.5	-16.5	235	10	
2025-08-30T00:00	5060	539	-12.7	-16.6	235	10	
2025-08-30T00:00	5080	537	-12.8	-16.5	234	11	
2025-08-30T00:00	5100	536	-13.0	-16.6	234	11	
2025-08-30T00:00	5120	535	-13.2	-16.7	233	11	
2025-08-30T00:00	5140	533	-13.3	-16.8	232	11	
2025-08-30T00:00	5160	532	-13.5	-17.0	232	11	
2025-08-30T00:00	5180	530	-13.7	-17.2	231	12	
2025-08-30T00:00	5200	529	-13.8	-17.2	231	11	
2025-08-30T00:00	5220	528	-14.0	-17.3	232	11	
2025-08-30T00:00	5240	526	-14.2	-17.5	233	11	
2025-08-30T00:00	5260	525	-14.3	-17.6	235	11	
2025-08-30T00:00	5280	524	-14.5	-17.6	237	11	
2025-08-30T00:00	5300	522	-14.6	-17.8	239	12	
2025-08-30T00:00	5320	521	-14.8	-17.9	240	12	
2025-08-30T00:00	5340	519	-15.0	-18.0	241	12	
2025-08-30T00:00	5360	518	-15.1	-18.1	242	12	
2025-08-30T00:00	5380	517	-15.3	-18.2	243	13	
2025-08-30T00:00	5400	515	-15.5	-18.2	244	13	
2025-08-30T00:00	5420	514	-15.7	-18.3	244	12	
2025-08-30T00:00	5440	513	-15.8	-18.3	245	12	
2025-08-30T00:00	5460	511	-16.0	-18.2	244	12	
2025-08-30T00:00	5480	510	-16.2	-18.5	243	11	
2025-08-30T00:00	5500	509	-16.4	-18.5	242	11	
2025-08-30T00:00	5520	507	-16.6	-18.7	241	11	
2025-08-30T00:00	5540	506	-16.7	-18.9	240	11	
2025-08-30T00:00	5560	504	-16.8	-19.1	240	11	
2025-08-30T00:00	5580	503	-16.8	-19.4	240	11	
2025-08-30T00:00	5600	502	-16.9	-19.7	239	11	
2025-08-30T00:00	5620	500	-17.1	-20.0	239	11	
2025-08-30T00:00	5640	499	-17.2	-20.0	239	11	
2025-08-30T00:00	5660	498	-17.4	-19.8	239	11	
2025-08-30T00:00	5680	497	-17.6	-19.6	240	11	
2025-08-30T00:00	5700	495	-17.7	-19.9	240	10	
2025-08-30T00:00	5720	494	-17.9	-20.0	241	10	
2025-08-30T00:00	5740	492	-18.1	-20.2	241	10	
2025-08-30T00:00	5760	491	-18.2	-20.2	242	10	
2025-08-30T00:00	5780	490	-18.3	-20.3	242	10	
2025-08-30T00:00	5800	489	-18.5	-20.4	243	10	
2025-08-30T00:00	5820	487	-18.7	-20.5	244	9	
2025-08-30T00:00	5840	486	-18.8	-20.4	244	9	
2025-08-30T00:00	5860	485	-19.0	-20.4	243	9	
2025-08-30T00:00	5880	483	-19.2	-20.5	242	10	
2025-08-30T00:00	5900	482	-19.3	-20.9	241	10	
2025-08-30T00:00	5920	481	-19.4	-21.3	241	10	
2025-08-30T00:00	5940	479	-19.5	-21.3	241	10	
2025-08-30T00:00	5960	478	-19.6	-21.8	241	10	
2025-08-30T00:00	5980	477	-19.6	-22.4	242	10	
2025-08-30T00:00	6000	476	-19.6	-23.1	242	10	
2025-08-30T00:00	6020	474	-19.6	-23.3	242	10	
2025-08-30T00:00	6040	473	-19.7	-23.5	242	10	
2025-08-30T00:00	6060	472	-19.9	-23.5	242	10	
2025-08-30T00:00	6080	471	-20.0	-23.5	242	10	
2025-08-30T00:00	6100	469	-20.2	-23.7	243	10	
2025-08-30T00:00	6120	468	-20.3	-24.1	243	10	
2025-08-30T00:00	6140	467	-20.4	-24.1	244	10	
2025-08-30T00:00	6160	465	-20.6	-24.0	246	10	
2025-08-30T00:00	6180	464	-20.8	-24.1	248	10	
2025-08-30T00:00	6200	463	-20.9	-24.4	250	9	
2025-08-30T00:00	6220	462	-21.0	-24.5	251	9	
2025-08-30T00:00	6240	460	-21.2	-24.8	251	9	
2025-08-30T00:00	6260	459	-21.3	-24.8	250	9	
2025-08-30T00:00	6280	458	-21.5	-24.8	250	9	
2025-08-30T00:00	6300	457	-21.7	-24.9	248	9	
2025-08-30T00:00	6320	455	-21.9	-25.0	247	9	
2025-08-30T00:00	6340	454	-22.1	-25.2	246	9	
2025-08-30T00:00	6360	453	-22.2	-25.2	245	9	
2025-08-30T00:00	6380	452	-22.4	-25.1	242	9	
2025-08-30T00:00	6400	451	-22.6	-25.2	241	10	
2025-08-30T00:00	6420	449	-22.8	-25.4	239	10	
2025-08-30T00:00	6440	448	-23.0	-25.6	238	10	
2025-08-30T00:00	6460	447	-23.2	-25.7	237	9	
2025-08-30T00:00	6480	446	-23.4	-25.8	237	9	
2025-08-30T00:00	6500	444	-23.6	-25.8	238	9	
2025-08-30T00:00	6520	443	-23.7	-25.8	239	9	
2025-08-30T00:00	6540	442	-23.9	-26.5	241	9	
2025-08-30T00:00	6560	441	-24.0	-28.1	242	9	
2025-08-30T00:00	6580	439	-24.2	-28.6	243	9	
2025-08-30T00:00	6600	438	-24.4	-28.7	243	9	
2025-08-30T00:00	6620	437	-24.6	-28.7	244	9	
2025-08-30T00:00	6640	436	-24.7	-29.2	245	8	
2025-08-30T00:00	6660	435	-24.9	-29.3	246	8	
2025-08-30T00:00	6680	434	-25.1	-29.0	246	8	
2025-08-30T00:00	6700	432	-25.2	-29.3	246	8	
2025-08-30T00:00	6720	431	-25.4	-29.8	244	8	
2025-08-30T00:00	6740	430	-25.6	-29.7	242	7	
2025-08-30T00:00	6760	429	-25.7	-30.0	239	7	
2025-08-30T00:00	6780	428	-25.8	-30.6	237	8	
2025-08-30T00:00	6800	426	-26.0	-30.9	234	8	
2025-08-30T00:00	6820	425	-26.0	-31.1	232	8	
2025-08-30T00:00	6840	424	-26.1	-31.2	230	8	
2025-08-30T00:00	6860	423	-26.3	-31.1	230	9	
2025-08-30T00:00	6880	422	-26.5	-31.2	229	9	
2025-08-30T00:00	6900	421	-26.7	-31.3	229	9	
2025-08-30T00:00	6920	419	-26.9	-31.3	229	9	
2025-08-30T00:00	6940	418	-27.1	-31.5	229	9	
2025-08-30T00:00	6960	417	-27.2	-31.5	229	9	
2025-08-30T00:00	6980	416	-27.4	-31.5	229	10	
2025-08-30T00:00	7000	415	-27.6	-31.6	228	10	
2025-08-30T00:00	7020	414	-27.8	-31.8	228	11	
2025-08-30T00:00	7040	412	-27.9	-32.0	227	11	
2025-08-30T00:00	7060	411	-28.1	-32.2	226	12	
2025-08-30T00:00	7080	410	-28.2	-32.3	224	12	
2025-08-30T00:00	7100	409	-28.3	-32.4	222	12	
2025-08-30T00:00	7120	408	-28.5	-32.4	219	12	
2025-08-30T00:00	7140	407	-28.7	-32.2	216	12	
2025-08-30T00:00	7160	406	-28.8	-31.9	214	12	
2025-08-30T00:00	7180	405	-28.9	-32.1	213	12	
2025-08-30T00:00	7200	403	-29.1	-32.5	211	12	
2025-08-30T00:00	7220	402	-29.2	-32.8	210	11	
2025-08-30T00:00	7240	401	-29.4	-33.2	209	11	
2025-08-30T00:00	7260	400	-29.6	-33.4	208	11	
2025-08-30T00:00	7280	399	-29.7	-33.5	207	11	
2025-08-30T00:00	7300	398	-29.9	-33.8	206	11	
2025-08-30T00:00	7320	397	-30.0	-34.4	205	11	
2025-08-30T00:00	7340	396	-30.1	-35.0	204	11	
2025-08-30T00:00	7360	394	-30.1	-35.8	202	12	
2025-08-30T00:00	7380	393	-30.3	-36.0	201	12	
2025-08-30T00:00	7400	392	-30.4	-36.1	200	12	
2025-08-30T00:00	7420	391	-30.6	-36.6	199	12	
2025-08-30T00:00	7440	390	-30.7	-36.9	199	12	
2025-08-30T00:00	7460	389	-30.9	-37.0	198	12	
2025-08-30T00:00	7480	388	-31.1	-37.1	198	12	
2025-08-30T00:00	7500	387	-31.3	-37.6	199	12	
2025-08-30T00:00	7520	386	-31.4	-37.4	200	12	
2025-08-30T00:00	7540	385	-31.6	-37.5	201	13	
2025-08-30T00:00	7560	383	-31.8	-37.8	201	13	
2025-08-30T00:00	7580	382	-31.9	-38.4	202	13	
2025-08-30T00:00	7600	381	-32.0	-38.4	202	14	
2025-08-30T00:00	7620	380	-32.2	-38.6	202	14	
2025-08-30T00:00	7640	379	-32.3	-38.7	202	14	
2025-08-30T00:00	7660	378	-32.5	-39.0	202	14	
2025-08-30T00:00	7680	377	-32.5	-39.9	201	14	
2025-08-30T00:00	7700	376	-32.6	-40.1	200	14	
2025-08-30T00:00	7720	375	-32.8	-40.0	199	14	
2025-08-30T00:00	7740	374	-33.0	-39.9	198	15	
2025-08-30T00:00	7760	373	-33.2	-40.0	197	15	
2025-08-30T00:00	7780	372	-33.4	-40.1	197	15	
2025-08-30T00:00	7800	371	-33.6	-40.2	196	15	
2025-08-30T00:00	7820	370	-33.8	-40.2	196	16	
2025-08-30T00:00	7840	369	-33.9	-40.4	197	16	
2025-08-30T00:00	7860	367	-34.0	-40.4	197	17	
2025-08-30T00:00	7880	366	-34.2	-40.6	198	17	
2025-08-30T00:00	7900	365	-34.4	-40.4	198	17	
2025-08-30T00:00	7920	364	-34.6	-40.3	199	17	
2025-08-30T00:00	7940	363	-34.8	-40.5	199	18	
2025-08-30T00:00	7960	362	-35.0	-40.7	199	18	
2025-08-30T00:00	7980	361	-35.2	-40.5	199	18	
2025-08-30T00:00	8000	360	-35.3	-40.3	198	18	
2025-08-30T00:00	8020	359	-35.5	-40.3	197	18	
2025-08-30T00:00	8040	358	-35.7	-40.1	196	19	
2025-08-30T00:00	8060	357	-35.7	-39.9	195	19	
2025-08-30T00:00	8080	356	-35.9	-40.1	193	20	
2025-08-30T00:00	8100	355	-36.1	-40.2	192	20	
2025-08-30T00:00	8120	354	-36.3	-40.2	191	21	
2025-08-30T00:00	8140	353	-36.4	-40.4	190	21	
2025-08-30T00:00	8160	352	-36.6	-40.9	190	21	
2025-08-30T00:00	8180	351	-36.6	-41.3	189	21	
2025-08-30T00:00	8200	350	-36.8	-41.6	188	22	
2025-08-30T00:00	8220	349	-36.7	-44.3	188	22	
2025-08-30T00:00	8240	348	-36.5	-47.0	187	22	
2025-08-30T00:00	8260	347	-36.7	-46.2	187	22	
2025-08-30T00:00	8280	346	-36.7	-46.3	187	22	
2025-08-30T00:00	8300	345	-36.8	-47.0	187	22	
2025-08-30T00:00	8320	344	-36.9	-47.3	187	22	
2025-08-30T00:00	8340	343	-37.1	-47.6	187	23	
2025-08-30T00:00	8360	342	-37.2	-46.5	187	23	
2025-08-30T00:00	8380	341	-37.2	-45.5	187	23	
2025-08-30T00:00	8400	340	-37.4	-46.2	186	23	
2025-08-30T00:00	8420	339	-37.5	-46.8	186	24	
2025-08-30T00:00	8440	338	-37.4	-48.6	185	24	
2025-08-30T00:00	8460	337	-37.2	-48.7	184	24	
2025-08-30T00:00	8480	336	-37.3	-47.7	184	24	
2025-08-30T00:00	8500	335	-37.5	-47.8	184	25	
2025-08-30T00:00	8520	334	-37.6	-48.1	183	25	
2025-08-30T00:00	8540	333	-37.7	-49.2	183	25	
2025-08-30T00:00	8560	332	-37.7	-50.6	182	25	
2025-08-30T00:00	8580	331	-37.8	-51.4	181	25	
2025-08-30T00:00	8600	330	-38.0	-51.3	180	26	
2025-08-30T00:00	8620	329	-38.2	-51.3	178	26	
2025-08-30T00:00	8640	328	-38.3	-51.4	177	27	
2025-08-30T00:00	8660	327	-38.5	-52.2	176	28	
2025-08-30T00:00	8680	326	-38.6	-53.5	175	28	
2025-08-30T00:00	8700	325	-38.7	-54.8	175	29	
2025-08-30T00:00	8720	325	-38.8	-55.4	175	29	
2025-08-30T00:00	8740	324	-38.9	-55.6	175	29	
2025-08-30T00:00	8760	323	-39.1	-55.6	175	29	
2025-08-30T00:00	8780	322	-39.3	-55.5	175	29	
2025-08-30T00:00	8800	321	-39.5	-55.8	175	30	
2025-08-30T00:00	8820	320	-39.6	-56.9	175	30	
2025-08-30T00:00	8840	319	-39.7	-57.3	175	30	
2025-08-30T00:00	8860	318	-39.9	-57.1	174	30	
2025-08-30T00:00	8880	317	-40.1	-57.0	174	30	
2025-08-30T00:00	8900	316	-40.3	-57.4	173	30	
2025-08-30T00:00	8920	315	-40.4	-56.5	173	30	
2025-08-30T00:00	8940	314	-40.5	-55.0	173	30	
2025-08-30T00:00	8960	313	-40.6	-54.4	173	30	
2025-08-30T00:00	8980	312	-40.8	-55.0	172	30	
2025-08-30T00:00	9000	311	-41.0	-55.3	172	30	
2025-08-30T00:00	9020	311	-41.2	-53.8	171	30	
2025-08-30T00:00	9040	310	-41.3	-49.4	171	30	
2025-08-30T00:00	9060	309	-41.5	-48.5	170	30	
2025-08-30T00:00	9080	308	-41.7	-47.8	170	30	
2025-08-30T00:00	9100	307	-41.8	-47.5	170	30	
2025-08-30T00:00	9120	306	-42.0	-47.2	170	30	
2025-08-30T00:00	9140	305	-42.2	-47.8	170	30	
2025-08-30T00:00	9160	304	-42.2	-50.2	170	31	
2025-08-30T00:00	9180	303	-42.4	-52.9	170	31	
2025-08-30T00:00	9200	302	-42.5	-53.8	170	31	
2025-08-30T00:00	9220	302	-42.7	-53.5	170	31	
2025-08-30T00:00	9240	301	-42.9	-53.8	170	31	
2025-08-30T00:00	9260	300	-43.1	-54.3	171	31	
2025-08-30T00:00	9280	299	-43.3	-54.6	171	31	
2025-08-30T00:00	9300	298	-43.5	-54.9	172	31	
2025-08-30T00:00	9320	297	-43.6	-55.8	172	31	
2025-08-30T00:00	9340	296	-43.8	-56.2	173	31	
2025-08-30T00:00	9360	295	-44.0	-56.7	173	31	
2025-08-30T00:00	9380	294	-44.1	-57.2	174	31	
2025-08-30T00:00	9400	293	-44.3	-57.5	174	31	
2025-08-30T00:00	9420	293	-44.5	-57.4	174	31	
2025-08-30T00:00	9440	292	-44.7	-57.4	174	31	
2025-08-30T00:00	9460	291	-44.9	-57.4	174	30	
2025-08-30T00:00	9480	290	-45.1	-57.3	173	30	
2025-08-30T00:00	9500	289	-45.2	-57.3	173	30	
2025-08-30T00:00	9520	288	-45.4	-57.6	173	30	
2025-08-30T00:00	9540	287	-45.6	-57.5	173	29	
2025-08-30T00:00	9560	287	-45.8	-57.4	173	29	
2025-08-30T00:00	9580	286	-46.0	-57.6	173	29	
2025-08-30T00:00	9600	285	-46.1	-57.6	174	28	
2025-08-30T00:00	9620	284	-46.3	-57.6	174	28	
2025-08-30T00:00	9640	283	-46.5	-57.7	175	28	
2025-08-30T00:00	9660	282	-46.7	-57.7	175	28	
2025-08-30T00:00	9680	281	-46.9	-57.8	176	28	
2025-08-30T00:00	9700	281	-47.1	-57.9	176	27	
2025-08-30T00:00	9720	280	-47.3	-57.9	177	27	
2025-08-30T00:00	9740	279	-47.5	-57.8	177	27	
2025-08-30T00:00	9760	278	-47.6	-57.8	177	26	
2025-08-30T00:00	9780	277	-47.9	-58.0	178	26	
2025-08-30T00:00	9800	276	-48.0	-58.2	178	26	
2025-08-30T00:00	9820	276	-48.2	-58.4	179	26	
2025-08-30T00:00	9840	275	-48.3	-58.7	180	26	
2025-08-30T00:00	9860	274	-48.4	-58.9	180	26	
2025-08-30T00:00	9880	273	-48.6	-59.0	181	26	
2025-08-30T00:00	9900	272	-48.8	-59.1	181	26	
2025-08-30T00:00	9920	271	-48.8	-59.1	181	26	
2025-08-30T00:00	9940	271	-48.8	-59.2	181	27	
2025-08-30T00:00	9960	270	-48.9	-59.0	182	27	
2025-08-30T00:00	9980	269	-49.1	-59.0	182	27	
2025-08-30T00:00	10000	268	-49.2	-59.1	182	28	
2025-08-30T00:00	10018	267	-49.3	-59.5	184	28	
2025-08-30T00:00	10050	266	-49.4	-60.3	185	28	
2025-08-30T00:00	10100	264	-49.3	-61.3	189	27	
2025-08-30T00:00	10150	262	-49.3	-62.3	193	26	
2025-08-30T00:00	10200	260	-49.6	-62.7	195	24	
2025-08-30T00:00	10250	258	-49.8	-62.2	196	22	
2025-08-30T00:00	10300	256	-49.9	-62.3	199	20	
2025-08-30T00:00	10350	254	-50.0	-63.2	203	19	
2025-08-30T00:00	10400	252	-50.4	-63.8	204	18	
2025-08-30T00:00	10450	250	-50.5	-65.2	205	16	
2025-08-30T00:00	10500	248	-50.1	-69.2	205	15	
2025-08-30T00:00	10550	247	-48.9	-71.9	205	16	
2025-08-30T00:00	10600	245	-48.6	-70.8	207	16	
2025-08-30T00:00	10650	243	-48.2	-72.2	213	16	
2025-08-30T00:00	10700	241	-47.7	-73.7	220	16	
2025-08-30T00:00	10750	239	-46.8	-75.0	229	15	
2025-08-30T00:00	10800	237	-46.2	-75.6	239	14	
2025-08-30T00:00	10850	236	-46.3	-75.4	246	13	
2025-08-30T00:00	10900	234	-46.3	-74.8	250	13	
2025-08-30T00:00	10950	232	-46.4	-75.0	252	12	
2025-08-30T00:00	11000	230	-46.5	-75.8	255	11	
2025-08-30T00:00	11050	229	-46.8	-76.1	259	11	
2025-08-30T00:00	11100	227	-46.5	-76.3	263	10	
2025-08-30T00:00	11150	225	-46.2	-76.5	268	10	
2025-08-30T00:00	11200	223	-45.7	-76.7	269	9	
2025-08-30T00:00	11250	222	-44.8	-76.7	268	9	
2025-08-30T00:00	11300	220	-44.9	-76.7	267	10	
2025-08-30T00:00	11350	219	-44.8	-76.8	264	10	
2025-08-30T00:00	11400	217	-44.3	-76.8	263	10	
2025-08-30T00:00	11450	215	-44.0	-76.8	263	10	
2025-08-30T00:00	11500	214	-44.0	-76.8	265	10	
2025-08-30T00:00	11550	212	-44.2	-76.8	268	11	
2025-08-30T00:00	11600	210	-44.2	-76.8	268	11	
2025-08-30T00:00	11650	209	-44.5	-77.1	267	12	
2025-08-30T00:00	11700	207	-44.8	-77.1	268	13	
2025-08-30T00:00	11750	206	-44.1	-77.2	273	14	
2025-08-30T00:00	11800	204	-44.0	-77.2	276	13	
2025-08-30T00:00	11850	203	-44.2	-77.2	280	12	
2025-08-30T00:00	11900	201	-44.4	-77.3	285	12	
2025-08-30T00:00	11950	200	-44.3	-77.4	289	13	
2025-08-30T00:00	12000	198	-44.1	-77.4	292	13	
2025-08-30T00:00	12050	197	-44.3	-77.3	292	12	
2025-08-30T00:00	12100	195	-44.4	-77.5	289	12	
2025-08-30T00:00	12150	194	-44.4	-77.7	285	11	
2025-08-30T00:00	12200	192	-44.9	-77.8	280	11	
2025-08-30T00:00	12250	191	-45.3	-77.8	276	11	
2025-08-30T00:00	12300	190	-45.6	-77.9	272	10	
2025-08-30T00:00	12350	188	-45.6	-78.1	268	9	
2025-08-30T00:00	12400	187	-45.4	-78.1	264	8	
2025-08-30T00:00	12450	185	-45.3	-78.2	261	8	
2025-08-30T00:00	12500	184	-45.3	-78.2	262	8	
2025-08-30T00:00	12550	183	-45.4	-78.3	264	9	
2025-08-30T00:00	12600	181	-45.6	-78.4	265	9	
2025-08-30T00:00	12650	180	-45.7	-78.4	264	10	
2025-08-30T00:00	12700	179	-46.0	-78.5	264	10	
2025-08-30T00:00	12750	177	-46.2	-78.7	267	10	
2025-08-30T00:00	12800	176	-46.2	-78.7	269	10	
2025-08-30T00:00	12850	175	-46.3	-78.8	270	10	
2025-08-30T00:00	12900	173	-46.3	-78.8	266	9	
2025-08-30T00:00	12950	172	-46.3	-78.9	260	9	
2025-08-30T00:00	13000	171	-46.3	-78.9	254	9	
2025-08-30T00:00	13050	169	-46.3	-78.8	249	8	
2025-08-30T00:00	13100	168	-46.4	-78.9	246	8	
2025-08-30T00:00	13150	167	-46.7	-78.9	247	8	
2025-08-30T00:00	13200	166	-47.0	-79.0	251	8	
2025-08-30T00:00	13250	164	-47.4	-79.2	256	7	
2025-08-30T00:00	13300	163	-47.7	-79.4	262	7	
2025-08-30T00:00	13350	162	-48.0	-79.6	267	7	
2025-08-30T00:00	13400	161	-48.0	-79.7	269	7	
2025-08-30T00:00	13450	159	-47.8	-80.0	266	7	
2025-08-30T00:00	13500	158	-46.7	-79.9	262	8	
2025-08-30T00:00	13550	157	-46.5	-79.8	258	10	
2025-08-30T00:00	13600	156	-46.7	-79.7	255	11	
2025-08-30T00:00	13650	155	-47.0	-79.7	251	12	
2025-08-30T00:00	13700	154	-47.4	-79.8	249	12	
2025-08-30T00:00	13750	152	-47.7	-79.8	250	13	
2025-08-30T00:00	13800	151	-48.0	-80.1	255	14	
2025-08-30T00:00	13850	150	-48.0	-80.2	262	14	
2025-08-30T00:00	13900	149	-48.1	-80.4	267	15	
2025-08-30T00:00	13950	148	-47.9	-80.3	268	14	
2025-08-30T00:00	14000	147	-47.7	-80.3	267	13	
2025-08-30T00:00	14050	146	-48.0	-80.3	263	12	
2025-08-30T00:00	14100	145	-48.2	-80.3	257	11	
2025-08-30T00:00	14150	143	-48.4	-80.3	252	11	
2025-08-30T00:00	14200	142	-48.7	-80.3	249	10	
2025-08-30T00:00	14250	141	-48.9	-80.5	247	10	
2025-08-30T00:00	14300	140	-49.2	-80.6	242	9	
2025-08-30T00:00	14350	139	-49.2	-80.8	237	9	
2025-08-30T00:00	14400	138	-48.8	-80.8	236	10	
2025-08-30T00:00	14450	137	-49.0	-80.9	237	12	
2025-08-30T00:00	14500	136	-49.0	-80.8	238	13	
2025-08-30T00:00	14550	135	-48.7	-80.9	242	13	
2025-08-30T00:00	14600	134	-48.3	-80.8	246	14	
2025-08-30T00:00	14650	133	-48.2	-80.8	249	14	
2025-08-30T00:00	14700	132	-48.4	-80.7	252	14	
2025-08-30T00:00	14750	131	-48.7	-80.8	256	14	
2025-08-30T00:00	14800	130	-49.0	-80.8	259	14	
2025-08-30T00:00	14850	129	-49.4	-81.0	261	14	
2025-08-30T00:00	14900	128	-49.9	-81.1	263	14	
2025-08-30T00:00	14950	127	-50.4	-81.2	266	14	
2025-08-30T00:00	15000	126	-50.8	-81.4	270	14	
2025-08-30T00:00	15050	125	-51.1	-81.7	273	14	
2025-08-30T00:00	15100	124	-51.0	-81.7	276	12	
2025-08-30T00:00	15150	123	-51.0	-81.8	277	11	
2025-08-30T00:00	15200	122	-51.1	-81.7	276	10	
2025-08-30T00:00	15250	121	-51.4	-81.9	270	9	
2025-08-30T00:00	15300	120	-51.6	-81.9	263	8	
2025-08-30T00:00	15350	119	-51.7	-81.8	257	8	
2025-08-30T00:00	15400	118	-51.9	-81.9	253	9	
2025-08-30T00:00	15450	118	-51.8	-81.9	252	8	
2025-08-30T00:00	15500	117	-52.0	-81.9	251	8	
2025-08-30T00:00	15550	116	-52.3	-82.0	246	7	
2025-08-30T00:00	15600	115	-51.8	-82.1	237	8	
2025-08-30T00:00	15650	114	-51.6	-82.1	234	9	
2025-08-30T00:00	15700	113	-51.3	-82.3	236	9	
2025-08-30T00:00	15750	112	-50.1	-82.0	235	8	
2025-08-30T00:00	15800	111	-49.8	-81.9	228	8	
2025-08-30T00:00	15850	111	-50.0	-81.8	222	9	
2025-08-30T00:00	15900	110	-50.0	-81.8	218	10	
2025-08-30T00:00	15950	109	-50.1	-81.7	220	10	
2025-08-30T00:00	16000	108	-50.3	-81.9	224	10	
2025-08-30T00:00	16050	107	-50.5	-82.0	226	10	
2025-08-30T00:00	16100	106	-50.8	-82.0	226	11	
2025-08-30T00:00	16150	106	-51.1	-82.2	227	11	
2025-08-30T00:00	16200	105	-51.1	-82.3	230	10	
2025-08-30T00:00	16250	104	-51.3	-82.3	234	10	
2025-08-30T00:00	16300	103	-51.5	-82.5	235	10	
2025-08-30T00:00	16350	102	-51.6	-82.5	231	10	
2025-08-30T00:00	16400	102	-51.7	-82.6	225	10	
2025-08-30T00:00	16450	101	-51.7	-82.6	222	11	
2025-08-30T00:00	16500	100	-51.9	-82.7	220	12	
2025-08-30T00:00	16550	99	-51.9	-82.9	222	12	
2025-08-30T00:00	16600	98	-51.8	-83.0	226	11	
2025-08-30T00:00	16650	98	-51.4	-82.8	229	10	
2025-08-30T00:00	16700	97	-51.6	-82.8	230	8	
2025-08-30T00:00	16750	96	-51.8	-82.8	232	7	
2025-08-30T00:00	16800	95	-52.0	-82.8	236	6	
2025-08-30T00:00	16850	95	-52.3	-82.9	243	6	
2025-08-30T00:00	16900	94	-52.7	-83.0	254	6	
2025-08-30T00:00	16950	93	-53.0	-83.3	265	5	
2025-08-30T00:00	17000	93	-52.9	-83.3	272	5	
2025-08-30T00:00	17050	92	-52.9	-83.3	270	4	
2025-08-30T00:00	17100	91	-53.2	-83.4	256	3	
2025-08-30T00:00	17150	90	-53.4	-83.5	244	4	
2025-08-30T00:00	17200	90	-53.6	-83.6	241	5	
2025-08-30T00:00	17250	89	-53.6	-83.7	239	7	
2025-08-30T00:00	17300	88	-53.6	-83.8	236	8	
2025-08-30T00:00	17350	88	-53.7	-83.9	234	10	
2025-08-30T00:00	17400	87	-53.2	-83.7	234	11	
2025-08-30T00:00	17450	86	-53.2	-83.8	234	12	
2025-08-30T00:00	17500	86	-53.2	-83.9	235	11	
2025-08-30T00:00	17550	85	-52.5	-83.8	233	10	
2025-08-30T00:00	17600	84	-51.9	-83.6	228	9	
2025-08-30T00:00	17650	84	-51.5	-83.4	219	8	
2025-08-30T00:00	17700	83	-51.5	-83.3	209	7	
2025-08-30T00:00	17750	82	-51.6	-83.2	201	7	
2025-08-30T00:00	17800	82	-52.0	-83.2	193	7	
2025-08-30T00:00	17850	81	-52.5	-83.2	186	7	
2025-08-30T00:00	17900	81	-52.8	-83.3	182	8	
2025-08-30T00:00	17950	80	-53.2	-83.5	182	8	
2025-08-30T00:00	18000	79	-53.5	-83.6	185	8	
2025-08-30T00:00	18050	79	-53.7	-83.8	192	8	
2025-08-30T00:00	18100	78	-54.0	-83.9	199	8	
2025-08-30T00:00	18150	77	-54.2	-84.0	203	8	
2025-08-30T00:00	18200	77	-54.4	-84.0	206	8	
2025-08-30T00:00	18250	76	-54.7	-84.2	208	8	
2025-08-30T00:00	18300	76	-55.0	-84.3	210	9	
2025-08-30T00:00	18350	75	-55.3	-84.5	211	9	
2025-08-30T00:00	18400	74	-55.5	-84.5	214	10	
2025-08-30T00:00	18450	74	-55.7	-84.6	218	10	
2025-08-30T00:00	18500	73	-55.9	-84.9	220	10	
2025-08-30T00:00	18550	73	-55.2	-84.9	219	9	
2025-08-30T00:00	18600	72	-54.6	-84.9	217	8	
2025-08-30T00:00	18650	72	-54.3	-84.7	216	7	
2025-08-30T00:00	18700	71	-54.2	-84.6	216	7	
2025-08-30T00:00	18750	71	-54.2	-84.8	208	6	
2025-08-30T00:00	18800	70	-53.0	-84.5	188	5	
2025-08-30T00:00	18850	69	-52.0	-84.0	172	5	
2025-08-30T00:00	18900	69	-52.1	-83.8	171	4	
2025-08-30T00:00	18950	68	-52.4	-83.8	177	3	
2025-08-30T00:00	19000	68	-52.3	-83.7	184	2	
2025-08-30T00:00	19050	67	-52.3	-83.6	190	2	
2025-08-30T00:00	19100	67	-52.6	-83.7	213	2	
2025-08-30T00:00	19150	66	-52.9	-83.7	246	2	
2025-08-30T00:00	19200	66	-53.1	-83.8	276	2	
2025-08-30T00:00	19250	65	-53.4	-84.1	323	1	
2025-08-30T00:00	19300	65	-52.9	-84.0	24	1	
2025-08-30T00:00	19350	64	-52.8	-84.0	44	2	
2025-08-30T00:00	19400	64	-53.0	-83.9	57	2	
2025-08-30T00:00	19450	63	-53.4	-83.9	72	3	
2025-08-30T00:00	19500	63	-53.7	-84.0	91	2	
2025-08-30T00:00	19550	62	-54.1	-84.2	132	2	
2025-08-30T00:00	19600	62	-54.2	-84.3	175	2	
2025-08-30T00:00	19650	61	-54.5	-84.4	193	3	
2025-08-30T00:00	19700	61	-54.8	-84.5	201	4	
2025-08-30T00:00	19750	60	-55.0	-84.8	201	5	
2025-08-30T00:00	19800	60	-54.4	-84.7	198	5	
2025-08-30T00:00	19850	59	-54.3	-84.6	198	4	
2025-08-30T00:00	19900	59	-54.6	-84.7	205	4	
2025-08-30T00:00	19950	58	-54.8	-84.7	217	4	
2025-08-30T00:00	20000	58	-54.7	-84.7	230	3	
2025-08-30T00:00	20050	58	-54.7		239	2	
2025-08-30T00:00	20100	57	-54.6		219	1	
2025-08-30T00:00	20150	57	-54.4		116	1	
2025-08-30T00:00	20200	56	-54.4		109	2	
2025-08-30T00:00	20250	56	-54.3		117	4	
2025-08-30T00:00	20300	55	-53.8		127	6	
2025-08-30T00:00	20350	55	-53.3		133	8	
2025-08-30T00:00	20400	55	-53.1		137	9	
2025-08-30T00:00	20450	54	-53.4		142	10	
2025-08-30T00:00	20500	54	-53.3		147	10	
2025-08-30T00:00	20550	53	-53.4		152	9	
2025-08-30T00:00	20600	53	-53.7		158	8	
2025-08-30T00:00	20650	52	-53.9		165	8	
2025-08-30T00:00	20700	52	-54.0		174	7	
2025-08-30T00:00	20750	52	-53.9		179	7	
2025-08-30T00:00	20800	51	-54.0		182	6	
2025-08-30T00:00	20850	51	-53.7		181	6	
2025-08-30T00:00	20900	50	-53.8		177	5	
2025-08-30T00:00	20950	50	-53.8		169	4	
2025-08-30T00:00	21000	50	-53.8		159	3	
2025-08-30T00:00	21050	49	-54.0		159	2	
2025-08-30T00:00	21100	49	-54.2		170	2	
2025-08-30T00:00	21150	49	-54.5		180	3	
2025-08-30T00:00	21200	48	-54.9		188	4	
2025-08-30T00:00	21250	48	-55.1		195	4	
2025-08-30T00:00	21300	47	-55.1		207	4	
2025-08-30T00:00	21350	47	-55.1		229	4	
2025-08-30T00:00	21400	47	-54.9		251	4	
2025-08-30T00:00	21450	46	-54.8		261	4	
2025-08-30T00:00	21500	46	-54.8		268	4	
2025-08-30T00:00	21550	46	-54.3		283	4	
2025-08-30T00:00	21600	45	-53.3		310	3	
2025-08-30T00:00	21650	45	-52.5		335	4	
2025-08-30T00:00	21700	45	-52.0		354	3	
2025-08-30T00:00	21750	44	-51.1		13	3	
2025-08-30T00:00	21800	44	-51.3		33	3	
2025-08-30T00:00	21850	44	-51.4		53	4	
2025-08-30T00:00	21900	43	-51.5		71	4	
2025-08-30T00:00	21950	43	-51.6		84	4	
2025-08-30T00:00	22000	43	-51.8		91	5	
2025-08-30T00:00	22050	42	-51.9		94	5	
2025-08-30T00:00	22100	42	-52.2		98	6	
2025-08-30T00:00	22150	42	-52.4		103	6	
2025-08-30T00:00	22200	41	-52.5		110	7	
2025-08-30T00:00	22250	41	-52.3		119	7	
2025-08-30T00:00	22300	41	-52.5		128	8	
2025-08-30T00:00	22350	40	-52.8		136	7	
2025-08-30T00:00	22400	40	-53.1		145	6	
2025-08-30T00:00	22450	40	-53.4		153	5	
2025-08-30T00:00	22500	39	-53.1		153	4	
2025-08-30T00:00	22550	39	-52.7		146	4	
2025-08-30T00:00	22600	39	-52.5		143	5	
2025-08-30T00:00	22650	38	-52.3		146	6	
2025-08-30T00:00	22700	38	-52.4		149	6	
2025-08-30T00:00	22750	38	-52.4		152	5	
2025-08-30T00:00	22800	38	-52.6		156	4	
2025-08-30T00:00	22850	37	-52.6		162	3	
2025-08-30T00:00	22900	37	-52.7		166	2	
2025-08-30T00:00	22950	37	-52.8		172	2	
2025-08-30T00:00	23000	36	-53.0		182	1	
2025-08-30T00:00	23050	36	-53.2		177	0	
2025-08-30T00:00	23100	36	-53.4		47	1	
2025-08-30T00:00	23150	36	-53.2		45	2	
2025-08-30T00:00	23200	35	-53.4		53	2	
2025-08-30T00:00	23250	35	-53.1		69	3	
2025-08-30T00:00	23300	35	-52.8		89	4	
2025-08-30T00:00	23350	34	-52.4		106	4	
2025-08-30T00:00	23400	34	-52.4		118	5	
2025-08-30T00:00	23450	34	-52.6		126	5	
2025-08-30T00:00	23500	34	-52.8		132	5	
2025-08-30T00:00	23550	33	-53.1		140	5	
2025-08-30T00:00	23600	33	-53.3		151	5	
2025-08-30T00:00	23650	33	-53.3		159	4	
2025-08-30T00:00	23700	33	-53.1		163	2	
2025-08-30T00:00	23750	32	-52.9		163	2	
2025-08-30T00:00	23800	32	-52.6		167	1	
2025-08-30T00:00	23850	32	-52.3		180	2	
2025-08-30T00:00	23900	32	-52.1		194	2	
2025-08-30T00:00	23950	31	-51.8		192	1	
2025-08-30T00:00	24000	31	-51.3		126	1	
2025-08-30T00:00	24050	31	-51.0		82	1	
2025-08-30T00:00	24100	31	-50.7		76	2	
2025-08-30T00:00	24150	30	-50.4		76	3	
2025-08-30T00:00	24200	30	-50.6		80	3	
2025-08-30T00:00	24250	30	-50.8		89	3	
2025-08-30T00:00	24300	30	-50.8		97	3	
2025-08-30T00:00	24350	30	-50.8		99	4	
2025-08-30T00:00	24400	29	-50.7		95	4	
2025-08-30T00:00	24450	29	-50.8		88	4	
2025-08-30T00:00	24500	29	-51.0		82	5	
2025-08-30T00:00	24550	29	-51.1		75	5	
2025-08-30T00:00	24600	28	-51.4		68	5	
2025-08-30T00:00	24650	28	-51.7		64	6	
2025-08-30T00:00	24700	28	-51.8		65	6	
2025-08-30T00:00	24750	28	-51.8		70	7	
2025-08-30T00:00	24800	28	-51.9		78	7	
2025-08-30T00:00	24850	27	-51.6		88	7	
2025-08-30T00:00	24900	27	-51.6		96	7	
2025-08-30T00:00	24950	27	-51.8		103	6	
2025-08-30T00:00	25000	27	-51.9		106	5	
2025-08-30T00:00	25050	27	-52.0		103	5	
2025-08-30T00:00	25100	26	-51.9		96	5	
2025-08-30T00:00	25150	26	-51.6		88	5	
2025-08-30T00:00	25200	26	-51.2		83	6	
2025-08-30T00:00	25250	26	-50.8		80	7	
2025-08-30T00:00	25300	26	-50.5		83	8	
2025-08-30T00:00	25350	25	-50.4		88	7	
2025-08-30T00:00	25400	25	-50.5		93	7	
2025-08-30T00:00	25450	25	-50.6		93	7	
2025-08-30T00:00	25500	25	-50.5		90	8	
2025-08-30T00:00	25550	25	-50.4		85	9	
2025-08-30T00:00	25600	24	-50.6		82	9	
2025-08-30T00:00	25650	24	-50.6		83	10	
2025-08-30T00:00	25700	24	-50.5		86	11	
2025-08-30T00:00	25750	24	-50.7		92	11	
2025-08-30T00:00	25800	24	-50.9		97	11	
2025-08-30T00:00	25850	23	-50.9		101	10	
2025-08-30T00:00	25900	23	-50.8		103	9	
2025-08-30T00:00	25950	23	-50.7		102	8	
2025-08-30T00:00	26000	23	-50.7		97	7	
2025-08-30T00:00	26050	23	-50.7		91	6	
2025-08-30T00:00	26100	23	-50.7		85	6	
2025-08-30T00:00	26150	22	-50.6		81	6	
2025-08-30T00:00	26200	22	-50.5		81	7	
2025-08-30T00:00	26250	22	-50.6		83	7	
2025-08-30T00:00	26300	22	-50.5		85	8	
2025-08-30T00:00	26350	22	-50.5		85	9	
2025-08-30T00:00	26400	22	-50.5		86	10	
2025-08-30T00:00	26450	21	-50.7		92	10	
2025-08-30T00:00	26500	21	-50.6		99	10	
2025-08-30T00:00	26550	21	-50.7		106	10	
2025-08-30T00:00	26600	21	-50.9		111	10	
2025-08-30T00:00	26650	21	-50.5		118	9	
2025-08-30T00:00	26700	21	-50.4		125	9	
2025-08-30T00:00	26750	20	-50.3		130	8	
2025-08-30T00:00	26800	20	-50.4		133	8	
2025-08-30T00:00	26850	20	-50.6		136	7	
2025-08-30T00:00	26900	20	-50.7		140	6	
2025-08-30T00:00	26950	20	-50.9		141	5	
2025-08-30T00:00	27000	20	-50.7		133	3	
2025-08-30T00:00	27050	20	-50.3		104	2	
2025-08-30T00:00	27100	19	-50.1		86	3	
2025-08-30T00:00	27150	19	-50.0		87	5	
2025-08-30T00:00	27200	19	-49.9		92	6	
2025-08-30T00:00	27250	19	-49.7		99	6	
2025-08-30T00:00	27300	19	-49.7		104	6	
2025-08-30T00:00	27350	19	-49.6		104	5	
2025-08-30T00:00	27400	18	-49.6		97	4	
2025-08-30T00:00	27450	18	-49.6		82	4	
2025-08-30T00:00	27500	18	-49.7		67	4	
2025-08-30T00:00	27550	18	-49.8		55	6	
2025-08-30T00:00	27600	18	-49.7		50	7	
2025-08-30T00:00	27650	18	-49.3		51	9	
2025-08-30T00:00	27700	18	-48.8		56	11	
2025-08-30T00:00	27750	18	-48.2		62	11	
2025-08-30T00:00	27800	17	-48.0		67	11	
2025-08-30T00:00	27850	17	-48.2		72	11	
2025-08-30T00:00	27900	17	-48.3		77	11	
2025-08-30T00:00	27950	17	-48.5		81	10	
2025-08-30T00:00	28000	17	-48.7		86	9	
2025-08-30T00:00	28050	17	-48.8		89	8	
2025-08-30T00:00	28100	17	-48.8		91	8	
2025-08-30T00:00	28150	17	-48.9		94	7	
2025-08-30T00:00	28200	16	-48.9		99	7	
2025-08-30T00:00	28250	16	-49.0		104	7	
2025-08-30T00:00	28300	16	-48.8		108	6	
2025-08-30T00:00	28350	16	-48.6		111	5	
2025-08-30T00:00	28400	16	-48.2		110	4	
2025-08-30T00:00	28450	16	-48.1		100	3	
2025-08-30T00:00	28500	16	-48.1		74	2	
2025-08-30T00:00	28550	16	-48.3		49	3	
2025-08-30T00:00	28600	15	-48.4		34	3	
2025-08-30T00:00	28650	15	-48.5		29	4	
2025-08-30T00:00	28700	15	-48.5		31	5	
2025-08-30T00:00	28750	15	-48.5		38	6	
2025-08-30T00:00	28800	15	-48.4		47	8	
2025-08-30T00:00	28850	15	-48.2		58	9	
2025-08-30T00:00	28900	15	-48.1		67	10	
2025-08-30T00:00	28950	15	-48.1		72	10	
2025-08-30T00:00	29000	15	-48.0		72	9	
2025-08-30T00:00	29050	14	-47.9		71	8	
2025-08-30T00:00	29100	14	-47.8		74	7	
2025-08-30T00:00	29150	14	-47.6		76	6	
2025-08-30T00:00	29200	14	-47.6		71	6	
2025-08-30T00:00	29250	14	-47.7		62	5	
2025-08-30T00:00	29300	14	-47.7		52	6	
2025-08-30T00:00	29350	14	-47.6		45	6	
2025-08-30T00:00	29400	14	-47.4		42	7	
2025-08-30T00:00	29450	14	-47.0		43	8	
2025-08-30T00:00	29500	13	-47.0		47	9	
2025-08-30T00:00	29550	13	-47.1		54	10	
2025-08-30T00:00	29600	13	-47.2		63	10	
2025-08-30T00:00	29650	13	-47.3		73	10	
2025-08-30T00:00	29700	13	-47.4		81	9	
2025-08-30T00:00	29750	13	-47.0		86	8	
2025-08-30T00:00	29800	13	-47.1		87	7	
2025-08-30T00:00	29850	13	-47.0		81	6	
2025-08-30T00:00	29900	13	-46.5		72	6	
2025-08-30T00:00	29950	13	-46.3		65	7	
2025-08-30T00:00	30000	12	-46.4		62	9	
2025-08-30T00:00	30050	12	-46.3		63	10	
2025-08-30T00:00	30100	12	-46.1		66	12	
2025-08-30T00:00	30150	12	-46.1		71	12	
2025-08-30T00:00	30200	12	-46.0		76	12	
2025-08-30T00:00	30250	12	-46.1		82	12	
2025-08-30T00:00	30300	12	-46.2		88	10	
2025-08-30T00:00	30350	12	-46.5		95	9	
2025-08-30T00:00	30400	12	-46.7		102	8	
2025-08-30T00:00	30450	12	-46.7		110	7	
2025-08-30T00:00	30500	12	-46.7		115	5	
2025-08-30T00:00	30550	11	-46.5		112	4	
2025-08-30T00:00	30600	11	-46.3		100	4	
2025-08-30T00:00	30650	11	-46.2		81	3	
2025-08-30T00:00	30700	11	-46.1		61	4	
2025-08-30T00:00	30750	11	-45.9		44	4	
2025-08-30T00:00	30800	11	-46.1		34	5	
2025-08-30T00:00	30850	11	-46.2		29	5	
2025-08-30T00:00	30900	11	-46.2		26	6	
2025-08-30T00:00	30950	11	-45.9		26	6	
2025-08-30T00:00	31000	11	-45.3		29	7	
2025-08-30T00:00	31050	11	-44.9		36	8	
2025-08-30T00:00	31100	11	-44.5		43	8	
2025-08-30T00:00	31150	10	-44.4		50	8	
2025-08-30T00:00	31200	10	-44.2		57	8	
2025-08-30T00:00	31250	10	-43.9		66	8	
2025-08-30T00:00	31300	10	-43.7		74	8	
2025-08-30T00:00	31350	10	-43.4		79	8	
2025-08-30T00:00	31400	10	-43.4		81	8	
2025-08-30T00:00	31450	10	-43.6		84	8	
2025-08-30T00:00	31500	10	-43.4		86	7	
2025-08-30T00:00	31550	10	-43.3		84	7	
2025-08-30T00:00	31600	10	-43.2		77	7	
2025-08-30T00:00	31650	10	-43.1		68	8	
2025-08-30T00:00	31700	10	-42.8		60	8	
2025-08-30T00:00	31750	10	-42.5		57	9	
2025-08-30T00:00	31800	10	-42.4		58	10	
2025-08-30T00:00	31850	9	-42.5		61	10	
2025-08-30T00:00	31900	9	-42.3		64	11	
2025-08-30T00:00	31950	9	-42.4		69	11	
2025-08-30T00:00	32000	9	-42.4		76	11	
2025-08-30T00:00	32050	9	-42.3		85	11	
2025-08-30T00:00	32100	9	-42.4		95	10	
2025-08-30T00:00	32150	9	-42.5		102	10	
2025-08-30T00:00	32200	9	-42.7		108	10	
2025-08-30T00:00	32250	9	-43.0		111	10	
2025-08-30T00:00	32300	9	-43.3		113	9	
2025-08-30T00:00	32350	9	-43.4		114	7	
2025-08-30T00:00	32400	9	-43.6		118	6	
2025-08-30T00:00	32450	9	-43.6		125	6	
2025-08-30T00:00	32500	9	-43.6		133	7	
2025-08-30T00:00	32550	9	-43.9		140	7	
2025-08-30T00:00	32600	8	-44.1		148	8	
2025-08-30T00:00	32650	8	-44.3		155	8	
2025-08-30T00:00	32700	8	-44.2		163	8	
2025-08-30T00:00	32750	8	-44.2		172	7	
2025-08-30T00:00	32800	8	-44.3		182	6	
2025-08-30T00:00	32850	8	-43.9		195	4	
2025-08-30T00:00	32900	8	-43.7		219	3	
2025-08-30T00:00	32950	8	-43.6		260	3	
2025-08-30T00:00	33000	8	-43.1		294	3	
2025-08-30T00:00	33050	8	-42.7		324	3	
2025-08-30T00:00	33100	8	-42.6		355	3	
2025-08-30T00:00	33150	8	-42.7		23	3	
2025-08-30T00:00	33200	8	-42.7		40	4	
2025-08-30T00:00	33250	8	-42.7		46	5	
2025-08-30T00:00	33300	8	-42.6		45	5	
2025-08-30T00:00	33350	8	-42.5		40	5	
2025-08-30T00:00	33400	8	-42.6		32	4	
2025-08-30T00:00	33450	7	-42.5		23	4	
2025-08-30T00:00	33500	7	-42.4		13	4	
2025-08-30T00:00	33550	7	-42.6		2	4	
2025-08-30T00:00	33600	7	-42.8		352	5	
2025-08-30T00:00	33650	7	-42.7		346	5	
2025-08-30T00:00	33700	7	-42.7		342	6	
2025-08-30T00:00	33750	7	-42.5		343	7	
2025-08-30T00:00	33800	7	-42.2		347	7	
2025-08-30T00:00	33850	7	-42.1		352	8	
2025-08-30T00:00	33900	7	-42.1		355	8	
2025-08-30T00:00	33950	7	-42.1		356	9	
2025-08-30T00:00	34000	7	-41.8		357	9	
2025-08-30T00:00	34050	7	-41.4		1	10	
2025-08-30T00:00	34100	7	-40.9		7	11	
2025-08-30T00:00	34150	7	-40.1		15	12	
2025-08-30T00:00	34200	7	-39.8		21	12	
2025-08-30T00:00	34250	7	-39.7		24	12	
2025-08-30T00:00	34300	7	-39.2		22	11	
2025-08-30T00:00	34350	7	-38.3		22	11	
2025-08-30T00:00	34400	6	-37.7		25	11	
2025-08-30T00:00	34450	6	-37.1		31	11	
2025-08-30T00:00	34500	6	-37.2		38	11	
2025-08-30T00:00	34550	6	-37.0		44	11	
2025-08-30T00:00	34600	6	-36.9		46	11	
2025-08-30T00:00	34650	6	-36.5		41	11	
2025-08-30T00:00	34700	6	-36.3		34	10	
2025-08-30T00:00	34750	6	-36.1		31	11	
2025-08-30T00:00	34800	6	-35.6		34	11	
2025-08-30T00:00	34850	6	-35.1		40	12	
2025-08-30T00:00	34900	6	-34.8		48	13	
2025-08-30T00:00	34950	6	-34.5		56	14	
2025-08-30T00:00	35000	6	-34.4		62	14	
2025-08-30T00:00	35050	6	-34.1		67	13	
2025-08-30T00:00	35100	6	-34.0		70	12	
2025-08-30T00:00	35150	6	-33.8		70	11	
2025-08-30T00:00	35200	6	-33.7		68	10	
2025-08-30T00:00	35250	6	-33.7		67	9	
2025-08-30T00:00	35300	6	-33.7		65	9	
2025-08-30T12:00	491	956	18.3	12.1	213	3	
2025-08-30T12:00	501	955	17.6	11.7	222	3	
2025-08-30T12:00	520	953	17.2	11.4	223	3	
2025-08-30T12:00	540	951	17.0	11.2	220	4	
2025-08-30T12:00	560	949	16.8	11.1	218	4	
2025-08-30T12:00	580	947	16.6	11.1	217	4	
2025-08-30T12:00	600	944	16.4	11.1	214	4	
2025-08-30T12:00	620	942	16.1	10.8	212	4	
2025-08-30T12:00	640	940	15.9	10.8	210	4	
2025-08-30T12:00	660	938	15.7	10.7	208	4	
2025-08-30T12:00	680	936	15.5	10.7	206	5	
2025-08-30T12:00	700	933	15.0	10.5	203	5	
2025-08-30T12:00	720	931	14.7	10.5	201	5	
2025-08-30T12:00	740	929	14.5	10.4	201	5	
2025-08-30T12:00	760	927	14.3	10.3	202	5	
2025-08-30T12:00	780	925	14.1	10.3	203	5	
2025-08-30T12:00	800	922	13.9	10.4	205	5	
2025-08-30T12:00	820	920	13.8	10.4	207	5	
2025-08-30T12:00	840	918	13.6	10.3	209	5	
2025-08-30T12:00	860	916	13.4	10.2	211	5	
2025-08-30T12:00	880	914	13.2	10.2	212	5	
2025-08-30T12:00	900	912	13.0	10.2	213	5	
2025-08-30T12:00	920	909	12.8	10.1	214	5	
2025-08-30T12:00	940	907	12.7	10.0	215	5	
2025-08-30T12:00	960	905	12.5	9.9	216	5	
2025-08-30T12:00	980	903	12.2	9.9	217	5	
2025-08-30T12:00	1000	901	12.0	9.9	218	5	
2025-08-30T12:00	1020	898	11.8	9.9	219	5	
2025-08-30T12:00	1040	896	11.6	9.5	220	5	
2025-08-30T12:00	1060	894	11.5	9.4	220	6	
2025-08-30T12:00	1080	892	11.3	9.5	220	6	
2025-08-30T12:00	1100	890	11.1	9.6	221	6	
2025-08-30T12:00	1120	888	10.9	9.5	221	6	
2025-08-30T12:00	1140	886	10.7	9.3	222	6	
2025-08-30T12:00	1160	884	10.5	9.4	223	6	
2025-08-30T12:00	1180	881	10.3	9.2	225	6	
2025-08-30T12:00	1200	879	10.1	9.3	226	6	
2025-08-30T12:00	1220	877	9.9	9.2	227	5	
2025-08-30T12:00	1240	875	9.8	8.5	227	5	
2025-08-30T12:00	1260	873	9.6	9.1	227	5	
2025-08-30T12:00	1280	871	9.4	9.3	227	4	
2025-08-30T12:00	1300	869	9.2	9.2	226	4	
2025-08-30T12:00	1320	867	9.1	9.0	226	5	
2025-08-30T12:00	1340	865	8.8	8.6	226	5	
2025-08-30T12:00	1360	863	8.7	8.7	226	5	
2025-08-30T12:00	1380	861	8.5	8.5	227	6	
2025-08-30T12:00	1400	859	8.4	8.3	229	6	
2025-08-30T12:00	1420	856	8.1	7.5	231	7	
2025-08-30T12:00	1440	854	8.1	6.9	233	7	
2025-08-30T12:00	1460	852	8.1	6.6	235	7	
2025-08-30T12:00	1480	850	7.9	6.6	237	7	
2025-08-30T12:00	1500	848	7.7	7.0	239	7	
2025-08-30T12:00	1520	846	7.6	7.0	240	7	
2025-08-30T12:00	1540	844	7.4	6.6	241	7	
2025-08-30T12:00	1560	842	7.3	6.7	242	7	
2025-08-30T12:00	1580	840	7.2	6.4	242	7	
2025-08-30T12:00	1600	838	7.0	6.1	243	7	
2025-08-30T12:00	1620	836	7.0	5.7	243	7	
2025-08-30T12:00	1640	834	6.9	5.4	243	6	
2025-08-30T12:00	1660	832	6.8	5.3	244	6	
2025-08-30T12:00	1680	830	6.6	5.5	244	6	
2025-08-30T12:00	1700	828	6.3	5.9	244	6	
2025-08-30T12:00	1720	826	6.1	5.9	243	5	
2025-08-30T12:00	1740	824	5.9	5.7	242	5	
2025-08-30T12:00	1760	822	5.8	5.7	242	5	
2025-08-30T12:00	1780	820	5.7	5.7	241	5	
2025-08-30T12:00	1800	818	5.8	5.8	239	5	
2025-08-30T12:00	1820	816	5.8	5.8	238	5	
2025-08-30T12:00	1840	814	5.5	5.5	237	5	
2025-08-30T12:00	1860	812	5.3	4.8	237	6	
2025-08-30T12:00	1880	810	5.2	4.6	236	6	
2025-08-30T12:00	1900	808	5.1	4.4	234	6	
2025-08-30T12:00	1920	806	5.0	4.1	231	5	
2025-08-30T12:00	1940	804	4.9	3.7	229	5	
2025-08-30T12:00	1960	802	4.8	3.5	227	5	
2025-08-30T12:00	1980	800	4.8	3.4	227	5	
2025-08-30T12:00	2000	798	4.7	3.3	229	5	
2025-08-30T12:00	2020	796	4.6	3.3	232	5	
2025-08-30T12:00	2040	794	4.5	3.2	236	5	
2025-08-30T12:00	2060	792	4.3	3.2	239	6	
2025-08-30T12:00	2080	790	4.1	3.1	241	6	
2025-08-30T12:00	2100	788	4.0	3.0	242	6	
2025-08-30T12:00	2120	786	3.8	3.0	242	6	
2025-08-30T12:00	2140	784	3.6	2.9	241	6	
2025-08-30T12:00	2160	783	3.5	2.9	240	6	
2025-08-30T12:00	2180	781	3.3	2.8	239	6	
2025-08-30T12:00	2200	779	3.1	2.7	238	5	
2025-08-30T12:00	2220	777	2.9	2.7	240	5	
2025-08-30T12:00	2240	775	2.8	2.6	244	4	
2025-08-30T12:00	2260	773	2.7	2.5	250	4	
2025-08-30T12:00	2280	771	2.6	2.4	253	5	
2025-08-30T12:00	2300	769	2.5	2.3	254	5	
2025-08-30T12:00	2320	767	2.3	2.2	254	5	
2025-08-30T12:00	2340	766	2.2	2.2	252	5	
2025-08-30T12:00	2360	764	2.0	2.0	250	5	
2025-08-30T12:00	2380	761	1.9	1.9	248	5	
2025-08-30T12:00	2400	760	1.8	1.8	246	5	
2025-08-30T12:00	2420	758	1.7	1.7	246	5	
2025-08-30T12:00	2440	756	1.6	1.6	247	4	
2025-08-30T12:00	2460	754	1.5	1.5	248	4	
2025-08-30T12:00	2480	752	1.4	1.4	251	4	
2025-08-30T12:00	2500	750	1.3	1.3	253	4	
2025-08-30T12:00	2520	748	1.2	1.2	254	4	
2025-08-30T12:00	2540	747	1.1	1.1	253	4	
2025-08-30T12:00	2560	745	0.9	0.9	252	3	
2025-08-30T12:00	2580	743	0.8	0.5	249	3	
2025-08-30T12:00	2600	741	0.7	-0.1	246	3	
2025-08-30T12:00	2620	739	0.6	-0.2	244	3	
2025-08-30T12:00	2640	737	0.4	-0.2	244	3	
2025-08-30T12:00	2660	735	0.3	-0.4	246	3	
2025-08-30T12:00	2680	734	0.2	-0.7	251	3	
2025-08-30T12:00	2700	732	0.1	-0.9	254	3	
2025-08-30T12:00	2720	730	0.0	-1.0	256	4	
2025-08-30T12:00	2740	728	-0.2	-1.1	256	4	
2025-08-30T12:00	2760	726	-0.3	-1.1	254	4	
2025-08-30T12:00	2780	725	-0.4	-1.1	253	4	
2025-08-30T12:00	2800	723	-0.5	-1.3	252	4	
2025-08-30T12:00	2820	721	-0.6	-1.5	251	4	
2025-08-30T12:00	2840	719	-0.8	-1.5	250	4	
2025-08-30T12:00	2860	717	-0.9	-1.5	250	5	
2025-08-30T12:00	2880	716	-1.0	-1.0	250	5	
2025-08-30T12:00	2900	714	-1.1	-1.1	250	5	
2025-08-30T12:00	2920	712	-1.1	-1.1	249	5	
2025-08-30T12:00	2940	710	-1.2	-1.2	248	5	
2025-08-30T12:00	2960	708	-1.2	-1.2	247	6	
2025-08-30T12:00	2980	707	-1.3	-1.4	245	6	
2025-08-30T12:00	3000	705	-1.4	-1.4	244	6	
2025-08-30T12:00	3020	703	-1.5	-1.5	243	6	
2025-08-30T12:00	3040	702	-1.6	-1.6	243	6	
2025-08-30T12:00	3060	700	-1.7	-1.7	243	6	
2025-08-30T12:00	3080	698	-1.8	-1.8	244	6	
2025-08-30T12:00	3100	696	-1.8	-1.9	247	6	
2025-08-30T12:00	3120	694	-2.0	-2.0	250	6	
2025-08-30T12:00	3140	693	-2.1	-2.2	254	6	
2025-08-30T12:00	3160	691	-2.2	-2.3	259	6	
2025-08-30T12:00	3180	689	-2.3	-2.4	263	6	
2025-08-30T12:00	3200	688	-2.4	-2.5	266	6	
2025-08-30T12:00	3220	686	-2.5	-2.6	269	6	
2025-08-30T12:00	3240	684	-2.6	-2.7	270	6	
2025-08-30T12:00	3260	682	-2.7	-2.9	271	6	
2025-08-30T12:00	3280	681	-2.9	-3.0	272	7	
2025-08-30T12:00	3300	679	-3.0	-3.0	274	7	
2025-08-30T12:00	3320	677	-3.0	-3.2	276	7	
2025-08-30T12:00	3340	675	-3.2	-3.3	279	7	
2025-08-30T12:00	3360	674	-3.3	-3.4	282	7	
2025-08-30T12:00	3380	672	-3.3	-3.5	286	7	
2025-08-30T12:00	3400	670	-3.5	-3.6	290	7	
2025-08-30T12:00	3420	669	-3.7	-3.7	294	7	
2025-08-30T12:00	3440	667	-3.8	-3.9	296	6	
2025-08-30T12:00	3460	665	-3.9	-3.9	295	6	
2025-08-30T12:00	3480	664	-4.0	-4.1	293	6	
2025-08-30T12:00	3500	662	-4.2	-4.8	290	6	
2025-08-30T12:00	3520	660	-4.3	-4.9	286	6	
2025-08-30T12:00	3540	659	-4.4	-4.8	283	7	
2025-08-30T12:00	3560	657	-4.4	-5.4	281	7	
2025-08-30T12:00	3580	655	-4.4	-6.3	279	7	
2025-08-30T12:00	3600	653	-4.4	-7.1	278	8	
2025-08-30T12:00	3620	652	-4.6	-7.6	278	8	
2025-08-30T12:00	3640	650	-4.7	-8.1	278	8	
2025-08-30T12:00	3660	649	-4.7	-9.3	278	9	
2025-08-30T12:00	3680	647	-4.8	-10.1	277	9	
2025-08-30T12:00	3700	645	-4.9	-10.8	277	9	
2025-08-30T12:00	3720	644	-5.0	-11.2	277	9	
2025-08-30T12:00	3740	642	-5.2	-11.7	276	9	
2025-08-30T12:00	3760	640	-5.3	-11.9	276	8	
2025-08-30T12:00	3780	639	-5.4	-11.9	276	8	
2025-08-30T12:00	3800	637	-5.6	-12.3	276	8	
2025-08-30T12:00	3820	636	-5.7	-12.5	278	8	
2025-08-30T12:00	3840	634	-5.9	-12.6	279	8	
2025-08-30T12:00	3860	632	-6.0	-13.6	281	9	
2025-08-30T12:00	3880	631	-6.2	-14.3	283	9	
2025-08-30T12:00	3900	629	-6.3	-14.8	284	9	
2025-08-30T12:00	3920	628	-6.4	-14.8	285	9	
2025-08-30T12:00	3940	626	-6.6	-14.9	286	9	
2025-08-30T12:00	3960	624	-6.8	-15.0	286	9	
2025-08-30T12:00	3980	623	-6.9	-15.1	286	9	
2025-08-30T12:00	4000	621	-7.0	-13.8	287	9	
2025-08-30T12:00	4020	620	-7.1	-13.8	287	9	
2025-08-30T12:00	4040	618	-7.3	-15.4	287	9	
2025-08-30T12:00	4060	616	-7.5	-15.6	288	9	
2025-08-30T12:00	4080	615	-7.6	-15.6	289	9	
2025-08-30T12:00	4100	613	-7.8	-15.4	290	8	
2025-08-30T12:00	4120	612	-7.9	-14.7	291	8	
2025-08-30T12:00	4140	610	-7.9	-14.2	292	8	
2025-08-30T12:00	4160	608	-8.0	-14.5	293	8	
2025-08-30T12:00	4180	607	-8.2	-14.7	295	8	
2025-08-30T12:00	4200	605	-8.2	-15.9	296	9	
2025-08-30T12:00	4220	604	-8.5	-14.7	297	9	
2025-08-30T12:00	4240	602	-8.7	-14.8	299	10	
2025-08-30T12:00	4260	600	-8.6	-16.9	300	10	
2025-08-30T12:00	4280	599	-8.5	-19.5	301	11	
2025-08-30T12:00	4300	598	-8.6	-18.6	302	11	
2025-08-30T12:00	4320	596	-8.7	-18.7	303	11	
2025-08-30T12:00	4340	594	-8.7	-19.9	304	12	
2025-08-30T12:00	4360	593	-8.7	-20.7	305	12	
2025-08-30T12:00	4380	591	-8.7	-21.6	307	13	
2025-08-30T12:00	4400	590	-8.4	-25.8	308	13	
2025-08-30T12:00	4420	588	-8.2	-28.0	308	13	
2025-08-30T12:00	4440	587	-8.0	-29.7	308	12	
2025-08-30T12:00	4460	585	-8.1	-29.7	308	12	
2025-08-30T12:00	4480	584	-8.3	-30.0	308	12	
2025-08-30T12:00	4500	582	-8.4	-30.4	308	12	
2025-08-30T12:00	4520	581	-8.5	-30.0	308	12	
2025-08-30T12:00	4540	579	-8.6	-29.9	309	12	
2025-08-30T12:00	4560	578	-8.7	-31.0	309	12	
2025-08-30T12:00	4580	576	-8.7	-33.0	308	12	
2025-08-30T12:00	4600	575	-8.7	-34.9	307	11	
2025-08-30T12:00	4620	574	-8.8	-35.4	306	11	
2025-08-30T12:00	4640	572	-8.9	-35.4	305	11	
2025-08-30T12:00	4660	570	-9.0	-35.1	304	11	
2025-08-30T12:00	4680	569	-9.0	-36.7	304	11	
2025-08-30T12:00	4700	568	-9.0	-37.4	305	11	
2025-08-30T12:00	4720	566	-9.0	-37.9	307	11	
2025-08-30T12:00	4740	565	-9.1	-37.6	308	11	
2025-08-30T12:00	4760	563	-9.3	-37.4	308	11	
2025-08-30T12:00	4780	562	-9.5	-37.3	309	11	
2025-08-30T12:00	4800	560	-9.6	-37.3	309	12	
2025-08-30T12:00	4820	559	-9.7	-37.3	309	12	
2025-08-30T12:00	4840	557	-9.9	-37.6	309	12	
2025-08-30T12:00	4860	556	-9.9	-38.4	310	12	
2025-08-30T12:00	4880	554	-9.7	-39.1	310	11	
2025-08-30T12:00	4900	553	-9.7	-39.8	310	11	
2025-08-30T12:00	4920	552	-9.8	-39.8	310	11	
2025-08-30T12:00	4940	550	-9.9	-40.4	310	11	
2025-08-30T12:00	4960	549	-10.0	-41.0	311	11	
2025-08-30T12:00	4980	547	-10.1	-41.1	312	11	
2025-08-30T12:00	5000	546	-10.2	-41.5	313	11	
2025-08-30T12:00	5020	544	-10.3	-41.9	314	11	
2025-08-30T12:00	5040	543	-10.5	-42.5	315	11	
2025-08-30T12:00	5060	542	-10.6	-42.8	316	11	
2025-08-30T12:00	5080	540	-10.7	-43.1	319	12	
2025-08-30T12:00	5100	539	-10.9	-43.5	321	12	
2025-08-30T12:00	5120	537	-11.0	-43.9	323	12	
2025-08-30T12:00	5140	536	-11.2	-44.6	325	12	
2025-08-30T12:00	5160	535	-11.3	-45.4	326	13	
2025-08-30T12:00	5180	533	-11.4	-45.7	326	13	
2025-08-30T12:00	5200	532	-11.5	-46.1	325	14	
2025-08-30T12:00	5220	530	-11.6	-45.6	323	14	
2025-08-30T12:00	5240	529	-11.7	-44.7	323	14	
2025-08-30T12:00	5260	528	-11.8	-44.2	322	14	
2025-08-30T12:00	5280	526	-12.0	-44.1	322	14	
2025-08-30T12:00	5300	525	-12.2	-43.7	323	14	
2025-08-30T12:00	5320	524	-12.3	-43.7	324	14	
2025-08-30T12:00	5340	522	-12.5	-43.8	325	14	
2025-08-30T12:00	5360	521	-12.7	-44.1	326	15	
2025-08-30T12:00	5380	519	-12.9	-44.6	326	15	
2025-08-30T12:00	5400	518	-13.1	-44.9	326	15	
2025-08-30T12:00	5420	517	-13.2	-45.0	326	15	
2025-08-30T12:00	5440	515	-13.3	-45.3	326	15	
2025-08-30T12:00	5460	514	-13.4	-45.1	325	15	
2025-08-30T12:00	5480	513	-13.6	-44.6	324	15	
2025-08-30T12:00	5500	511	-13.8	-44.3	323	15	
2025-08-30T12:00	5520	510	-14.0	-44.3	322	15	
2025-08-30T12:00	5540	509	-14.1	-44.4	320	15	
2025-08-30T12:00	5560	507	-14.3	-44.7	319	15	
2025-08-30T12:00	5580	506	-14.4	-45.3	318	16	
2025-08-30T12:00	5600	505	-14.5	-45.5	316	16	
2025-08-30T12:00	5620	503	-14.6	-47.0	315	16	
2025-08-30T12:00	5640	502	-14.7	-47.7	314	17	
2025-08-30T12:00	5660	500	-14.8	-48.3	313	17	
2025-08-30T12:00	5680	499	-14.9	-49.0	312	17	
2025-08-30T12:00	5700	498	-14.9	-49.6	312	17	
2025-08-30T12:00	5720	497	-15.0	-50.2	311	17	
2025-08-30T12:00	5740	495	-15.0	-50.4	311	17	
2025-08-30T12:00	5760	494	-14.9	-50.4	311	17	
2025-08-30T12:00	5780	493	-14.9	-50.4	312	17	
2025-08-30T12:00	5800	492	-15.0	-50.5	313	17	
2025-08-30T12:00	5820	490	-15.2	-50.6	313	17	
2025-08-30T12:00	5840	489	-15.3	-50.6	314	17	
2025-08-30T12:00	5860	488	-15.3	-50.6	315	17	
2025-08-30T12:00	5880	486	-15.4	-50.6	316	17	
2025-08-30T12:00	5900	485	-15.6	-50.6	317	17	
2025-08-30T12:00	5920	484	-15.6	-50.4	318	17	
2025-08-30T12:00	5940	482	-15.7	-50.0	319	17	
2025-08-30T12:00	5960	481	-15.8	-50.0	320	17	
2025-08-30T12:00	5980	480	-15.9	-49.7	321	17	
2025-08-30T12:00	6000	479	-16.0	-49.2	322	17	
2025-08-30T12:00	6020	477	-16.1	-48.9	323	17	
2025-08-30T12:00	6040	476	-16.2	-49.0	324	18	
2025-08-30T12:00	6060	475	-16.4	-48.8	325	18	
2025-08-30T12:00	6080	473	-16.5	-48.9	327	18	
2025-08-30T12:00	6100	472	-16.6	-49.0	329	19	
2025-08-30T12:00	6120	471	-16.7	-48.9	330	19	
2025-08-30T12:00	6140	470	-16.7	-48.4	331	19	
2025-08-30T12:00	6160	468	-16.7	-48.4	332	20	
2025-08-30T12:00	6180	467	-16.8	-48.4	332	20	
2025-08-30T12:00	6200	466	-16.9	-48.3	333	21	
2025-08-30T12:00	6220	465	-16.9	-48.2	333	21	
2025-08-30T12:00	6240	464	-17.0	-48.0	333	22	
2025-08-30T12:00	6260	462	-17.1	-47.9	333	23	
2025-08-30T12:00	6280	461	-17.2	-48.0	333	23	
2025-08-30T12:00	6300	460	-17.4	-48.1	333	24	
2025-08-30T12:00	6320	459	-17.5	-48.3	333	25	
2025-08-30T12:00	6340	458	-17.6	-48.6	333	25	
2025-08-30T12:00	6360	456	-17.7	-48.7	332	26	
2025-08-30T12:00	6380	455	-17.7	-48.5	332	26	
2025-08-30T12:00	6400	454	-17.7	-48.4	332	27	
2025-08-30T12:00	6420	453	-17.8	-48.2	332	28	
2025-08-30T12:00	6440	451	-17.9	-48.1	332	28	
2025-08-30T12:00	6460	450	-18.1	-48.2	332	29	
2025-08-30T12:00	6480	449	-18.3	-48.1	332	30	
2025-08-30T12:00	6500	448	-18.4	-48.1	331	30	
2025-08-30T12:00	6520	447	-18.2	-47.3	331	31	
2025-08-30T12:00	6540	445	-18.3	-47.1	332	32	
2025-08-30T12:00	6560	444	-18.5	-47.1	332	32	
2025-08-30T12:00	6580	443	-18.6	-46.7	332	32	
2025-08-30T12:00	6600	442	-18.6	-46.2	331	33	
2025-08-30T12:00	6620	441	-18.8	-46.2	331	33	
2025-08-30T12:00	6640	439	-19.0	-46.0	331	33	
2025-08-30T12:00	6660	438	-19.2	-46.3	331	33	
2025-08-30T12:00	6680	437	-19.4	-46.4	331	34	
2025-08-30T12:00	6700	436	-19.4	-45.1	331	34	
2025-08-30T12:00	6720	435	-19.5	-44.2	331	34	
2025-08-30T12:00	6740	434	-19.6	-43.8	331	35	
2025-08-30T12:00	6760	432	-19.5	-41.8	330	35	
2025-08-30T12:00	6780	431	-19.7	-42.2	330	36	
2025-08-30T12:00	6800	430	-19.9	-42.3	329	36	
2025-08-30T12:00	6820	429	-19.9	-42.9	328	37	
2025-08-30T12:00	6840	428	-19.7	-43.9	327	37	
2025-08-30T12:00	6860	427	-19.7	-43.8	326	38	
2025-08-30T12:00	6880	425	-19.8	-43.7	325	38	
2025-08-30T12:00	6900	424	-19.8	-43.7	325	38	
2025-08-30T12:00	6920	423	-19.8	-42.8	324	38	
2025-08-30T12:00	6940	422	-19.9	-41.1	324	38	
2025-08-30T12:00	6960	421	-20.1	-41.0	324	38	
2025-08-30T12:00	6980	420	-20.3	-40.9	324	38	
2025-08-30T12:00	7000	419	-20.5	-40.7	324	38	
2025-08-30T12:00	7020	417	-20.7	-40.1	324	39	
2025-08-30T12:00	7040	416	-20.9	-40.2	324	39	
2025-08-30T12:00	7060	415	-21.1	-40.3	324	39	
2025-08-30T12:00	7080	414	-21.3	-39.9	324	39	
2025-08-30T12:00	7100	413	-21.5	-39.4	323	39	
2025-08-30T12:00	7120	412	-21.7	-39.2	323	39	
2025-08-30T12:00	7140	411	-21.8	-38.7	323	39	
2025-08-30T12:00	7160	410	-22.0	-37.9	323	39	
2025-08-30T12:00	7180	408	-22.2	-37.3	322	39	
2025-08-30T12:00	7200	407	-22.3	-37.4	322	39	
2025-08-30T12:00	7220	406	-22.5	-37.7	322	39	
2025-08-30T12:00	7240	405	-22.6	-38.1	322	39	
2025-08-30T12:00	7260	404	-22.8	-38.5	322	39	
2025-08-30T12:00	7280	403	-22.9	-39.0	323	39	
2025-08-30T12:00	7300	402	-23.0	-38.7	323	39	
2025-08-30T12:00	7320	401	-23.2	-38.6	324	39	
2025-08-30T12:00	7340	400	-23.4	-38.5	324	39	
2025-08-30T12:00	7360	398	-23.6	-38.3	324	38	
2025-08-30T12:00	7380	397	-23.8	-38.4	325	38	
2025-08-30T12:00	7400	396	-23.9	-38.3	325	38	
2025-08-30T12:00	7420	395	-24.1	-39.8	325	38	
2025-08-30T12:00	7440	394	-24.2	-42.8	325	38	
2025-08-30T12:00	7460	393	-24.3	-45.9	325	38	
2025-08-30T12:00	7480	392	-24.4	-46.5	326	38	
2025-08-30T12:00	7500	391	-24.5	-45.7	326	38	
2025-08-30T12:00	7520	390	-24.6	-45.4	326	38	
2025-08-30T12:00	7540	389	-24.8	-45.0	326	38	
2025-08-30T12:00	7560	388	-24.9	-44.7	327	38	
2025-08-30T12:00	7580	387	-25.1	-44.4	327	38	
2025-08-30T12:00	7600	385	-25.3	-44.3	327	38	
2025-08-30T12:00	7620	384	-25.4	-44.3	327	38	
2025-08-30T12:00	7640	383	-25.6	-44.3	328	38	
2025-08-30T12:00	7660	382	-25.8	-43.8	328	38	
2025-08-30T12:00	7680	381	-25.9	-43.6	329	38	
2025-08-30T12:00	7700	380	-26.1	-43.3	329	38	
2025-08-30T12:00	7720	379	-26.3	-42.8	330	38	
2025-08-30T12:00	7740	378	-26.4	-42.2	330	38	
2025-08-30T12:00	7760	377	-26.6	-42.1	331	38	
2025-08-30T12:00	7780	376	-26.7	-41.9	331	38	
2025-08-30T12:00	7800	375	-26.9	-41.8	331	39	
2025-08-30T12:00	7820	374	-27.1	-41.7	331	39	
2025-08-30T12:00	7840	373	-27.2	-41.3	332	39	
2025-08-30T12:00	7860	372	-27.4	-40.3	332	39	
2025-08-30T12:00	7880	371	-27.6	-39.7	332	40	
2025-08-30T12:00	7900	370	-27.7	-39.3	332	40	
2025-08-30T12:00	7920	369	-27.9	-38.7	333	40	
2025-08-30T12:00	7940	368	-28.0	-39.1	333	40	
2025-08-30T12:00	7960	367	-28.1	-40.1	333	40	
2025-08-30T12:00	7980	366	-28.2	-40.6	333	40	
2025-08-30T12:00	8000	365	-28.4	-40.4	334	41	
2025-08-30T12:00	8020	364	-28.6	-40.5	334	41	
2025-08-30T12:00	8040	363	-28.7	-41.1	335	41	
2025-08-30T12:00	8060	362	-28.8	-42.8	335	41	
2025-08-30T12:00	8080	361	-28.9	-44.5	336	41	
2025-08-30T12:00	8100	360	-28.8	-45.7	336	41	
2025-08-30T12:00	8120	359	-28.9	-44.9	336	41	
2025-08-30T12:00	8140	358	-29.1	-44.1	336	42	
2025-08-30T12:00	8160	357	-29.2	-45.2	337	42	
2025-08-30T12:00	8180	356	-29.4	-46.3	337	42	
2025-08-30T12:00	8200	355	-29.5	-47.2	337	42	
2025-08-30T12:00	8220	354	-29.7	-48.3	338	43	
2025-08-30T12:00	8240	353	-29.7	-48.9	338	43	
2025-08-30T12:00	8260	352	-29.6	-48.8	339	44	
2025-08-30T12:00	8280	351	-29.6	-49.2	340	44	
2025-08-30T12:00	8300	350	-29.5	-49.5	340	45	
2025-08-30T12:00	8320	349	-29.6	-49.6	341	46	
2025-08-30T12:00	8340	348	-29.7	-49.6	341	46	
2025-08-30T12:00	8360	347	-29.9	-49.5	342	47	
2025-08-30T12:00	8380	346	-30.0	-49.5	341	47	
2025-08-30T12:00	8400	345	-30.1	-49.3	341	48	
2025-08-30T12:00	8420	344	-30.2	-48.9	341	48	
2025-08-30T12:00	8440	343	-30.3	-48.4	340	48	
2025-08-30T12:00	8460	342	-30.5	-48.3	340	48	
2025-08-30T12:00	8480	341	-30.6	-47.7	339	48	
2025-08-30T12:00	8500	340	-30.7	-46.3	339	48	
2025-08-30T12:00	8520	339	-30.9	-45.8	339	48	
2025-08-30T12:00	8540	338	-31.0	-45.8	338	47	
2025-08-30T12:00	8560	337	-31.2	-45.2	338	47	
2025-08-30T12:00	8580	336	-31.4	-44.3	339	47	
2025-08-30T12:00	8600	335	-31.5	-43.8	339	47	
2025-08-30T12:00	8620	334	-31.7	-43.6	339	48	
2025-08-30T12:00	8640	333	-31.9	-43.8	339	48	
2025-08-30T12:00	8660	333	-32.1	-43.9	339	48	
2025-08-30T12:00	8680	332	-32.3	-43.9	339	49	
2025-08-30T12:00	8700	331	-32.5	-43.8	339	49	
2025-08-30T12:00	8720	330	-32.7	-43.7	338	49	
2025-08-30T12:00	8740	329	-32.9	-43.6	338	50	
2025-08-30T12:00	8760	328	-33.1	-43.5	338	50	
2025-08-30T12:00	8780	327	-33.2	-43.5	338	50	
2025-08-30T12:00	8800	326	-33.5	-43.5	338	50	
2025-08-30T12:00	8820	325	-33.6	-43.5	337	49	
2025-08-30T12:00	8840	324	-33.8	-43.5	337	49	
2025-08-30T12:00	8860	323	-34.0	-43.4	336	49	
2025-08-30T12:00	8880	322	-34.2	-43.4	336	49	
2025-08-30T12:00	8900	321	-34.4	-43.7	336	49	
2025-08-30T12:00	8920	320	-34.6	-43.5	335	49	
2025-08-30T12:00	8940	320	-34.7	-43.3	335	49	
2025-08-30T12:00	8960	319	-34.9	-43.2	335	49	
2025-08-30T12:00	8980	318	-35.1	-43.2	335	49	
2025-08-30T12:00	9000	317	-35.2	-43.3	335	49	
2025-08-30T12:00	9020	316	-35.4	-43.6	336	49	
2025-08-30T12:00	9040	315	-35.5	-43.7	336	49	
2025-08-30T12:00	9060	314	-35.7	-43.8	336	49	
2025-08-30T12:00	9080	313	-35.8	-44.0	336	49	
2025-08-30T12:00	9100	312	-36.0	-44.4	336	49	
2025-08-30T12:00	9120	311	-36.1	-45.7	336	49	
2025-08-30T12:00	9140	310	-36.2	-47.0	337	49	
2025-08-30T12:00	9160	309	-36.2	-47.7	337	49	
2025-08-30T12:00	9180	309	-36.2	-48.9	337	49	
2025-08-30T12:00	9200	308	-36.2	-49.7	337	49	
2025-08-30T12:00	9220	307	-36.3	-50.1	337	49	
2025-08-30T12:00	9240	306	-36.4	-50.4	338	49	
2025-08-30T12:00	9260	305	-36.6	-50.4	338	49	
2025-08-30T12:00	9280	304	-36.8	-50.4	338	49	
2025-08-30T12:00	9300	303	-37.0	-50.4	338	49	
2025-08-30T12:00	9320	302	-37.2	-50.4	338	49	
2025-08-30T12:00	9340	302	-37.3	-50.6	338	49	
2025-08-30T12:00	9360	301	-37.5	-51.0	338	49	
2025-08-30T12:00	9380	300	-37.7	-51.1	339	49	
2025-08-30T12:00	9400	299	-37.9	-51.2	339	49	
2025-08-30T12:00	9420	298	-38.1	-51.6	340	49	
2025-08-30T12:00	9440	297	-38.3	-51.5	340	49	
2025-08-30T12:00	9460	296	-38.5	-51.3	341	49	
2025-08-30T12:00	9480	296	-38.7	-51.2	341	49	
2025-08-30T12:00	9500	295	-38.9	-51.4	341	48	
2025-08-30T12:00	9520	294	-39.1	-51.7	341	48	
2025-08-30T12:00	9540	293	-39.3	-51.5	340	49	
2025-08-30T12:00	9560	292	-39.5	-51.5	340	49	
2025-08-30T12:00	9580	291	-39.7	-51.7	340	49	
2025-08-30T12:00	9600	290	-39.9	-52.0	339	49	
2025-08-30T12:00	9620	289	-40.1	-51.9	339	49	
2025-08-30T12:00	9640	289	-40.3	-51.8	340	49	
2025-08-30T12:00	9660	288	-40.5	-51.9	340	49	
2025-08-30T12:00	9680	287	-40.7	-51.9	340	50	
2025-08-30T12:00	9700	286	-40.9	-51.8	341	50	
2025-08-30T12:00	9720	285	-41.1	-52.0	341	50	
2025-08-30T12:00	9740	284	-41.2	-52.3	341	50	
2025-08-30T12:00	9760	284	-41.4	-52.5	341	50	
2025-08-30T12:00	9780	283	-41.6	-52.3	341	49	
2025-08-30T12:00	9800	282	-41.8	-52.4	341	49	
2025-08-30T12:00	9820	281	-42.0	-52.5	341	49	
2025-08-30T12:00	9840	280	-42.1	-52.5	341	49	
2025-08-30T12:00	9860	279	-42.4	-52.3	341	49	
2025-08-30T12:00	9880	279	-42.6	-52.0	341	48	
2025-08-30T12:00	9900	278	-42.7	-52.2	341	48	
2025-08-30T12:00	9920	277	-42.9	-52.5	341	48	
2025-08-30T12:00	9940	276	-43.1	-52.5	341	48	
2025-08-30T12:00	9960	275	-43.3	-52.8	341	47	
2025-08-30T12:00	9980	275	-43.4	-53.7	341	47	
2025-08-30T12:00	10000	274	-43.5	-55.0	341	47	
2025-08-30T12:00	10018	273	-43.5	-56.5	341	46	
2025-08-30T12:00	10050	272	-43.6	-58.4	340	46	
2025-08-30T12:00	10100	270	-43.7	-59.5	337	46	
2025-08-30T12:00	10150	268	-43.9	-59.6	335	46	
2025-08-30T12:00	10200	266	-44.1	-60.1	333	46	
2025-08-30T12:00	10250	264	-44.2	-59.0	331	46	
2025-08-30T12:00	10300	262	-43.9	-62.0	330	46	
2025-08-30T12:00	10350	260	-44.0	-61.7	329	47	
2025-08-30T12:00	10400	258	-44.5	-61.5	329	47	
2025-08-30T12:00	10450	256	-45.0	-61.4	328	47	
2025-08-30T12:00	10500	254	-45.4	-61.8	327	47	
2025-08-30T12:00	10550	252	-45.8	-61.9	327	48	
2025-08-30T12:00	10600	250	-46.3	-61.9	327	48	
2025-08-30T12:00	10650	248	-46.7	-62.1	327	50	
2025-08-30T12:00	10700	246	-47.0	-62.8	328	51	
2025-08-30T12:00	10750	245	-46.9	-64.1	329	52	
2025-08-30T12:00	10800	243	-47.0	-63.3	330	53	
2025-08-30T12:00	10850	241	-47.3	-61.6	330	53	
2025-08-30T12:00	10900	239	-47.4	-60.8	331	53	
2025-08-30T12:00	10950	237	-47.7	-62.3	331	53	
2025-08-30T12:00	11000	236	-47.8	-63.9	331	52	
2025-08-30T12:00	11050	234	-47.7	-66.4	331	52	
2025-08-30T12:00	11100	232	-47.8	-66.6	331	52	
2025-08-30T12:00	11150	230	-48.2	-66.3	331	52	
2025-08-30T12:00	11200	229	-48.4	-66.6	332	52	
2025-08-30T12:00	11250	227	-48.5	-67.0	332	51	
2025-08-30T12:00	11300	225	-48.5	-67.3	332	50	
2025-08-30T12:00	11350	223	-48.6	-68.0	333	49	
2025-08-30T12:00	11400	222	-48.4	-68.7	333	49	
2025-08-30T12:00	11450	220	-48.6	-69.2	333	48	
2025-08-30T12:00	11500	218	-48.2	-70.5	333	47	
2025-08-30T12:00	11550	217	-47.8	-71.8	333	45	
2025-08-30T12:00	11600	215	-47.4	-72.7	333	44	
2025-08-30T12:00	11650	214	-47.3	-72.9	333	42	
2025-08-30T12:00	11700	212	-47.3	-73.2	333	41	
2025-08-30T12:00	11750	210	-47.6	-73.3	332	41	
2025-08-30T12:00	11800	209	-48.1	-73.4	331	41	
2025-08-30T12:00	11850	207	-48.4	-73.7	330	40	
2025-08-30T12:00	11900	205	-48.7	-74.0	328	39	
2025-08-30T12:00	11950	204	-48.8	-74.4	326	38	
2025-08-30T12:00	12000	202	-49.0	-74.9	323	37	
2025-08-30T12:00	12050	201	-49.1	-75.2	322	36	
2025-08-30T12:00	12100	199	-48.9	-75.4	322	37	
2025-08-30T12:00	12150	198	-48.5	-75.4	324	37	
2025-08-30T12:00	12200	196	-48.3	-75.2	326	37	
2025-08-30T12:00	12250	195	-48.4	-74.6	328	36	
2025-08-30T12:00	12300	193	-48.4	-74.6	330	34	
2025-08-30T12:00	12350	192	-48.3	-75.3	333	33	
2025-08-30T12:00	12400	190	-48.4	-75.6	334	33	
2025-08-30T12:00	12450	189	-48.7	-75.9	336	32	
2025-08-30T12:00	12500	188	-49.2	-76.0	337	31	
2025-08-30T12:00	12550	186	-49.7	-76.1	337	30	
2025-08-30T12:00	12600	185	-49.9	-76.8	336	30	
2025-08-30T12:00	12650	183	-50.1	-77.1	334	29	
2025-08-30T12:00	12700	182	-50.1	-77.4	331	28	
2025-08-30T12:00	12750	181	-50.0	-77.7	328	27	
2025-08-30T12:00	12800	179	-50.3	-77.9	325	27	
2025-08-30T12:00	12850	178	-50.8	-77.9	323	27	
2025-08-30T12:00	12900	176	-51.1	-78.1	321	27	
2025-08-30T12:00	12950	175	-50.9	-78.7	322	27	
2025-08-30T12:00	13000	174	-50.6	-79.0	326	26	
2025-08-30T12:00	13050	172	-50.9	-78.9	329	25	
2025-08-30T12:00	13100	171	-51.2	-79.3	330	24	
2025-08-30T12:00	13150	170	-51.3	-79.3	329	25	
2025-08-30T12:00	13200	168	-51.7	-79.2	329	25	
2025-08-30T12:00	13250	167	-52.0	-79.5	328	25	
2025-08-30T12:00	13300	166	-52.3	-79.7	327	25	
2025-08-30T12:00	13350	165	-52.3	-80.0	327	25	
2025-08-30T12:00	13400	163	-52.3	-80.2	327	24	
2025-08-30T12:00	13450	162	-52.7	-80.3	327	23	
2025-08-30T12:00	13500	161	-53.1	-80.5	327	23	
2025-08-30T12:00	13550	160	-53.3	-80.5	326	22	
2025-08-30T12:00	13600	158	-53.6	-80.6	324	22	
2025-08-30T12:00	13650	157	-53.9	-80.8	323	22	
2025-08-30T12:00	13700	156	-53.9	-80.9	323	21	
2025-08-30T12:00	13750	155	-54.1	-80.9	322	21	
2025-08-30T12:00	13800	154	-54.4	-80.4	321	21	
2025-08-30T12:00	13850	152	-54.6	-80.4	320	21	
2025-08-30T12:00	13900	151	-54.7	-80.6	319	21	
2025-08-30T12:00	13950	150	-54.8	-80.9	317	21	
2025-08-30T12:00	14000	149	-55.1	-81.3	317	20	
2025-08-30T12:00	14050	148	-54.9	-81.7	317	19	
2025-08-30T12:00	14100	147	-55.0	-82.1	317	19	
2025-08-30T12:00	14150	145	-55.3	-82.3	318	19	
2025-08-30T12:00	14200	144	-55.4	-82.3	318	19	
2025-08-30T12:00	14250	143	-55.3	-82.4	316	19	
2025-08-30T12:00	14300	142	-55.6	-82.6	313	19	
2025-08-30T12:00	14350	141	-55.6	-82.9	314	19	
2025-08-30T12:00	14400	140	-55.3	-82.9	317	18	
2025-08-30T12:00	14450	139	-55.2	-82.9	317	17	
2025-08-30T12:00	14500	138	-54.7	-82.9	317	16	
2025-08-30T12:00	14550	136	-53.6	-82.9	318	15	
2025-08-30T12:00	14600	135	-53.0	-82.9	319	14	
2025-08-30T12:00	14650	134	-52.9	-82.6	319	13	
2025-08-30T12:00	14700	133	-53.3	-82.6	318	12	
2025-08-30T12:00	14750	132	-53.6	-82.6	313	12	
2025-08-30T12:00	14800	131	-53.7	-82.9	307	13	
2025-08-30T12:00	14850	130	-53.4	-82.9	304	13	
2025-08-30T12:00	14900	129	-53.5	-82.8	302	14	
2025-08-30T12:00	14950	128	-53.8	-82.9	300	14	
2025-08-30T12:00	15000	127	-54.0	-83.0	298	15	
2025-08-30T12:00	15050	126	-53.9	-82.9	297	14	
2025-08-30T12:00	15100	125	-54.1	-83.1	299	13	
2025-08-30T12:00	15150	124	-53.7	-83.1	299	11	
2025-08-30T12:00	15200	123	-53.5	-83.1	297	10	
2025-08-30T12:00	15250	122	-53.5	-83.0	294	10	
2025-08-30T12:00	15300	121	-53.9	-83.0	292	10	
2025-08-30T12:00	15350	121	-54.3	-83.2	293	9	
2025-08-30T12:00	15400	120	-54.3	-83.3	293	9	
2025-08-30T12:00	15450	119	-54.3	-83.3	291	9	
2025-08-30T12:00	15500	118	-54.3	-83.3	286	8	
2025-08-30T12:00	15550	117	-54.4	-83.4	285	8	
2025-08-30T12:00	15600	116	-54.5	-83.5	290	8	
2025-08-30T12:00	15650	115	-54.5	-83.4	294	8	
2025-08-30T12:00	15700	114	-54.4	-83.5	291	7	
2025-08-30T12:00	15750	113	-54.5	-83.6	286	6	
2025-08-30T12:00	15800	112	-54.7	-83.6	281	5	
2025-08-30T12:00	15850	111	-55.0	-83.5	276	4	
2025-08-30T12:00	15900	111	-55.4	-83.9	272	4	
2025-08-30T12:00	15950	110	-55.0	-83.7	273	3	
2025-08-30T12:00	16000	109	-55.2	-83.7	280	3	
2025-08-30T12:00	16050	108	-55.4	-83.8	283	2	
2025-08-30T12:00	16100	107	-55.6	-83.8	281	3	
2025-08-30T12:00	16150	106	-55.9	-83.9	280	3	
2025-08-30T12:00	16200	105	-56.2	-84.0	280	4	
2025-08-30T12:00	16250	105	-56.5	-84.1	281	4	
2025-08-30T12:00	16300	104	-56.6	-84.2	285	4	
2025-08-30T12:00	16350	103	-56.4	-84.2	291	5	
2025-08-30T12:00	16400	102	-56.3	-84.2	294	6	
2025-08-30T12:00	16450	101	-56.4	-84.4	292	6	
2025-08-30T12:00	16500	101	-55.8	-84.4	284	6	
2025-08-30T12:00	16550	100	-55.4	-84.3	272	7	
2025-08-30T12:00	16600	99	-55.4	-84.2	262	8	
2025-08-30T12:00	16650	98	-55.1	-84.2	258	9	
2025-08-30T12:00	16700	98	-55.2	-84.1	260	10	
2025-08-30T12:00	16750	97	-55.4	-84.3	263	11	
2025-08-30T12:00	16800	96	-54.8	-84.2	268	10	
2025-08-30T12:00	16850	95	-54.8	-84.2	271	10	
2025-08-30T12:00	16900	95	-55.0	-84.3	270	10	
2025-08-30T12:00	16950	94	-54.8	-84.3	270	10	
2025-08-30T12:00	17000	93	-54.6	-84.4	272	9	
2025-08-30T12:00	17050	92	-54.3	-84.3	278	9	
2025-08-30T12:00	17100	92	-54.2	-84.3	284	8	
2025-08-30T12:00	17150	91	-54.3	-84.3	286	8	
2025-08-30T12:00	17200	90	-54.2	-84.2	287	8	
2025-08-30T12:00	17250	89	-54.3	-84.2	286	8	
2025-08-30T12:00	17300	89	-54.4	-84.2	282	8	
2025-08-30T12:00	17350	88	-54.3	-84.2	276	7	
2025-08-30T12:00	17400	87	-54.6	-84.3	267	6	
2025-08-30T12:00	17450	87	-54.8	-84.4	256	5	
2025-08-30T12:00	17500	86	-54.8	-84.3	239	4	
2025-08-30T12:00	17550	85	-55.1	-84.4	224	4	
2025-08-30T12:00	17600	85	-55.5	-84.5	224	4	
2025-08-30T12:00	17650	84	-55.7	-84.7	229	5	
2025-08-30T12:00	17700	83	-55.5	-84.7	235	6	
2025-08-30T12:00	17750	83	-55.8	-84.7	238	6	
2025-08-30T12:00	17800	82	-56.1	-84.9	243	7	
2025-08-30T12:00	17850	81	-56.1	-84.9	249	7	
2025-08-30T12:00	17900	81	-56.2	-85.1	252	7	
2025-08-30T12:00	17950	80	-55.9	-85.0	250	6	
2025-08-30T12:00	18000	80	-55.9	-85.0	240	5	
2025-08-30T12:00	18050	79	-56.2	-85.0	223	4	
2025-08-30T12:00	18100	78	-56.3	-84.9	211	5	
2025-08-30T12:00	18150	78	-56.5	-85.1	208	6	
2025-08-30T12:00	18200	77	-56.4	-85.1	212	7	
2025-08-30T12:00	18250	76	-56.6	-85.2	217	8	
2025-08-30T12:00	18300	76	-56.6	-85.3	224	8	
2025-08-30T12:00	18350	75	-56.7	-85.5	233	7	
2025-08-30T12:00	18400	75	-56.0	-85.5	241	5	
2025-08-30T12:00	18450	74	-55.0	-85.3	244	3	
2025-08-30T12:00	18500	74	-54.6	-85.2	244	2	
2025-08-30T12:00	18550	73	-54.3	-84.8	253	2	
2025-08-30T12:00	18600	72	-54.6	-84.7	266	2	
2025-08-30T12:00	18650	72	-55.1	-84.7	277	3	
2025-08-30T12:00	18700	71	-55.3	-84.7	287	3	
2025-08-30T12:00	18750	71	-55.5	-84.8	295	3	
2025-08-30T12:00	18800	70	-55.7	-84.9	302	3	
2025-08-30T12:00	18850	70	-55.8	-85.1	306	4	
2025-08-30T12:00	18900	69	-55.6	-85.0	310	4	
2025-08-30T12:00	18950	69	-55.6	-85.1	316	3	
2025-08-30T12:00	19000	68	-55.9	-85.1	320	2	
2025-08-30T12:00	19050	67	-56.1	-85.2	321	2	
2025-08-30T12:00	19100	67	-56.3	-85.3	326	2	
2025-08-30T12:00	19150	66	-56.1	-85.3	331	3	
2025-08-30T12:00	19200	66	-56.1	-85.3	330	3	
2025-08-30T12:00	19250	65	-56.2	-85.4	322	3	
2025-08-30T12:00	19300	65	-56.1	-85.3	296	2	
2025-08-30T12:00	19350	64	-56.2	-85.4	240	2	
2025-08-30T12:00	19400	64	-56.3	-85.4	210	3	
2025-08-30T12:00	19450	63	-56.5	-85.4	200	6	
2025-08-30T12:00	19500	63	-56.8	-85.5	195	8	
2025-08-30T12:00	19550	62	-56.8	-85.7	193	9	
2025-08-30T12:00	19600	62	-56.5	-85.7	194	10	
2025-08-30T12:00	19650	61	-56.1	-85.8	198	9	
2025-08-30T12:00	19700	61	-55.4	-85.7	206	8	
2025-08-30T12:00	19750	60	-54.9	-85.5	212	7	
2025-08-30T12:00	19800	60	-54.5	-85.3	215	6	
2025-08-30T12:00	19850	59	-54.3	-85.1	217	4	
2025-08-30T12:00	19900	59	-54.3	-85.0	221	3	
2025-08-30T12:00	19950	59	-54.2	-84.8	227	1	
2025-08-30T12:00	20000	58	-54.3	-84.8	60	0	
2025-08-30T12:00	20050	58	-54.2		56	2	
2025-08-30T12:00	20100	57	-54.3		54	3	
2025-08-30T12:00	20150	57	-54.2		52	4	
2025-08-30T12:00	20200	56	-54.0		57	5	
2025-08-30T12:00	20250	56	-53.8		69	5	
2025-08-30T12:00	20300	55	-53.5		82	6	
2025-08-30T12:00	20350	55	-53.7		94	7	
2025-08-30T12:00	20400	55	-53.8		103	7	
2025-08-30T12:00	20450	54	-54.1		113	7	
2025-08-30T12:00	20500	54	-54.5		123	7	
2025-08-30T12:00	20550	53	-54.8		132	7	
2025-08-30T12:00	20600	53	-55.2		143	6	
2025-08-30T12:00	20650	52	-55.5		157	6	
2025-08-30T12:00	20700	52	-55.8		169	7	
2025-08-30T12:00	20750	52	-56.1		178	8	
2025-08-30T12:00	20800	51	-56.2		180	7	
2025-08-30T12:00	20850	51	-55.7		175	6	
2025-08-30T12:00	20900	50	-55.4		160	4	
2025-08-30T12:00	20950	50	-55.3		135	4	
2025-08-30T12:00	21000	50	-55.1		115	4	
2025-08-30T12:00	21050	49	-54.8		107	4	
2025-08-30T12:00	21100	49	-54.9		106	3	
2025-08-30T12:00	21150	49	-54.8		108	2	
2025-08-30T12:00	21200	48	-54.5		111	3	
2025-08-30T12:00	21250	48	-54.4		116	3	
2025-08-30T12:00	21300	47	-54.3		124	4	
2025-08-30T12:00	21350	47	-54.3		134	4	
2025-08-30T12:00	21400	47	-54.5		146	4	
2025-08-30T12:00	21450	46	-54.6		155	4	
2025-08-30T12:00	21500	46	-54.6		160	5	
2025-08-30T12:00	21550	46	-54.4		163	5	
2025-08-30T12:00	21600	45	-54.1		162	4	
2025-08-30T12:00	21650	45	-53.4		159	3	
2025-08-30T12:00	21700	45	-53.0		160	3	
2025-08-30T12:00	21750	44	-52.9		162	3	
2025-08-30T12:00	21800	44	-52.9		161	2	
2025-08-30T12:00	21850	44	-53.2		153	2	
2025-08-30T12:00	21900	43	-53.3		139	2	
2025-08-30T12:00	21950	43	-53.4		122	3	
2025-08-30T12:00	22000	43	-53.6		109	4	
2025-08-30T12:00	22050	42	-53.7		101	5	
2025-08-30T12:00	22100	42	-53.7		99	5	
2025-08-30T12:00	22150	42	-53.6		102	6	
2025-08-30T12:00	22200	41	-53.8		111	7	
2025-08-30T12:00	22250	41	-53.9		122	7	
2025-08-30T12:00	22300	41	-53.9		134	8	
2025-08-30T12:00	22350	40	-53.9		144	8	
2025-08-30T12:00	22400	40	-53.7		150	7	
2025-08-30T12:00	22450	40	-53.6		152	6	
2025-08-30T12:00	22500	39	-53.6		146	4	
2025-08-30T12:00	22550	39	-53.5		125	3	
2025-08-30T12:00	22600	39	-53.3		107	3	
2025-08-30T12:00	22650	38	-52.9		108	3	
2025-08-30T12:00	22700	38	-52.8		125	3	
2025-08-30T12:00	22750	38	-52.8		149	3	
2025-08-30T12:00	22800	38	-52.8		164	3	
2025-08-30T12:00	22850	37	-53.0		168	3	
2025-08-30T12:00	22900	37	-52.9		162	2	
2025-08-30T12:00	22950	37	-52.8		139	1	
2025-08-30T12:00	23000	36	-52.7		112	1	
2025-08-30T12:00	23050	36	-52.5		104	2	
2025-08-30T12:00	23100	36	-52.2		107	3	
2025-08-30T12:00	23150	36	-52.1		113	4	
2025-08-30T12:00	23200	35	-52.3		118	5	
2025-08-30T12:00	23250	35	-52.4		122	7	
2025-08-30T12:00	23300	35	-52.4		127	8	
2025-08-30T12:00	23350	34	-52.2		134	8	
2025-08-30T12:00	23400	34	-52.0		144	8	
2025-08-30T12:00	23450	34	-52.0		154	7	
2025-08-30T12:00	23500	34	-52.3		166	7	
2025-08-30T12:00	23550	33	-52.6		179	6	
2025-08-30T12:00	23600	33	-52.8		192	6	
2025-08-30T12:00	23650	33	-52.8		198	5	
2025-08-30T12:00	23700	33	-52.4		190	4	
2025-08-30T12:00	23750	32	-52.3		162	3	
2025-08-30T12:00	23800	32	-52.5		137	4	
2025-08-30T12:00	23850	32	-52.6		131	5	
2025-08-30T12:00	23900	32	-52.6		137	5	
2025-08-30T12:00	23950	31	-52.4		147	4	
2025-08-30T12:00	24000	31	-52.4		162	4	
2025-08-30T12:00	24050	31	-52.5		179	4	
2025-08-30T12:00	24100	31	-52.4		192	3	
2025-08-30T12:00	24150	30	-52.2		193	3	
2025-08-30T12:00	24200	30	-52.1		183	3	
2025-08-30T12:00	24250	30	-52.0		159	2	
2025-08-30T12:00	24300	30	-52.0		135	2	
2025-08-30T12:00	24350	30	-51.8		125	3	
2025-08-30T12:00	24400	29	-51.8		127	3	
2025-08-30T12:00	24450	29	-51.7		133	4	
2025-08-30T12:00	24500	29	-51.8		142	4	
2025-08-30T12:00	24550	29	-51.8		148	4	
2025-08-30T12:00	24600	28	-51.7		149	4	
2025-08-30T12:00	24650	28	-51.7		143	4	
2025-08-30T12:00	24700	28	-51.6		138	4	
2025-08-30T12:00	24750	28	-51.7		136	5	
2025-08-30T12:00	24800	28	-51.6		135	5	
2025-08-30T12:00	24850	27	-51.7		135	5	
2025-08-30T12:00	24900	27	-51.7		136	5	
2025-08-30T12:00	24950	27	-51.7		139	4	
2025-08-30T12:00	25000	27	-51.7		136	4	
2025-08-30T12:00	25050	27	-51.6		123	3	
2025-08-30T12:00	25100	26	-51.5		98	3	
2025-08-30T12:00	25150	26	-51.4		77	4	
2025-08-30T12:00	25200	26	-51.0		69	5	
2025-08-30T12:00	25250	26	-50.6		70	6	
2025-08-30T12:00	25300	26	-50.7		77	7	
2025-08-30T12:00	25350	25	-50.9		88	7	
2025-08-30T12:00	25400	25	-51.1		99	8	
2025-08-30T12:00	25450	25	-51.2		106	9	
2025-08-30T12:00	25500	25	-51.2		107	9	
2025-08-30T12:00	25550	25	-51.2		104	9	
2025-08-30T12:00	25600	24	-51.3		101	8	
2025-08-30T12:00	25650	24	-51.5		101	7	
2025-08-30T12:00	25700	24	-51.7		98	7	
2025-08-30T12:00	25750	24	-51.7		93	6	
2025-08-30T12:00	25800	24	-51.6		92	7	
2025-08-30T12:00	25850	23	-51.4		94	9	
2025-08-30T12:00	25900	23	-51.3		99	10	
2025-08-30T12:00	25950	23	-51.3		104	10	
2025-08-30T12:00	26000	23	-51.5		108	10	
2025-08-30T12:00	26050	23	-51.6		109	10	
2025-08-30T12:00	26100	23	-51.5		110	9	
2025-08-30T12:00	26150	22	-51.5		111	8	
2025-08-30T12:00	26200	22	-51.5		107	7	
2025-08-30T12:00	26250	22	-51.4		97	6	
2025-08-30T12:00	26300	22	-51.4		82	5	
2025-08-30T12:00	26350	22	-51.6		68	5	
2025-08-30T12:00	26400	22	-51.6		60	6	
2025-08-30T12:00	26450	21	-51.6		59	6	
2025-08-30T12:00	26500	21	-51.5		64	7	
2025-08-30T12:00	26550	21	-51.4		71	8	
2025-08-30T12:00	26600	21	-51.1		77	9	
2025-08-30T12:00	26650	21	-51.1		82	10	
2025-08-30T12:00	26700	21	-51.1		87	10	
2025-08-30T12:00	26750	20	-51.3		93	11	
2025-08-30T12:00	26800	20	-51.4		99	11	
2025-08-30T12:00	26850	20	-51.5		105	11	
2025-08-30T12:00	26900	20	-51.6		108	11	
2025-08-30T12:00	26950	20	-51.3		109	9	
2025-08-30T12:00	27000	20	-51.1		106	7	
2025-08-30T12:00	27050	19	-51.1		100	6	
2025-08-30T12:00	27100	19	-51.1		90	5	
2025-08-30T12:00	27150	19	-50.9		81	5	
2025-08-30T12:00	27200	19	-50.5		79	6	
2025-08-30T12:00	27250	19	-49.9		82	7	
2025-08-30T12:00	27300	19	-49.6		84	7	
2025-08-30T12:00	27350	19	-49.6		81	7	
2025-08-30T12:00	27400	18	-49.5		72	7	
2025-08-30T12:00	27450	18	-49.3		60	7	
2025-08-30T12:00	27500	18	-49.0		49	7	
2025-08-30T12:00	27550	18	-48.7		44	8	
2025-08-30T12:00	27600	18	-48.4		45	9	
2025-08-30T12:00	27650	18	-48.1		51	10	
2025-08-30T12:00	27700	18	-48.0		59	11	
2025-08-30T12:00	27750	18	-47.7		69	11	
2025-08-30T12:00	27800	17	-47.6		78	12	
2025-08-30T12:00	27850	17	-47.5		86	12	
2025-08-30T12:00	27900	17	-47.7		93	13	
2025-08-30T12:00	27950	17	-47.9		99	13	
2025-08-30T12:00	28000	17	-48.1		103	13	
2025-08-30T12:00	28050	17	-48.3		107	12	
2025-08-30T12:00	28100	17	-48.5		109	11	
2025-08-30T12:00	28150	16	-48.6		110	10	
2025-08-30T12:00	28200	16	-48.7		111	10	
2025-08-30T12:00	28250	16	-48.7		112	10	
2025-08-30T12:00	28300	16	-48.7		113	10	
2025-08-30T12:00	28350	16	-48.5		113	10	
2025-08-30T12:00	28400	16	-48.5		114	9	
2025-08-30T12:00	28450	16	-48.4		116	7	
2025-08-30T12:00	28500	16	-48.3		120	6	
2025-08-30T12:00	28550	16	-48.2		121	6	
2025-08-30T12:00	28600	15	-48.1		117	5	
2025-08-30T12:00	28650	15	-48.0		109	5	
2025-08-30T12:00	28700	15	-47.9		97	5	
2025-08-30T12:00	28750	15	-47.8		84	6	
2025-08-30T12:00	28800	15	-47.8		75	6	
2025-08-30T12:00	28850	15	-47.9		70	7	
2025-08-30T12:00	28900	15	-48.0		69	7	
2025-08-30T12:00	28950	15	-48.1		75	7	
2025-08-30T12:00	29000	14	-48.1		85	6	
2025-08-30T12:00	29050	14	-48.2		96	6	
2025-08-30T12:00	29100	14	-48.0		105	5	
2025-08-30T12:00	29150	14	-47.4		108	5	
2025-08-30T12:00	29200	14	-47.1		105	4	
2025-08-30T12:00	29250	14	-47.1		89	3	
2025-08-30T12:00	29300	14	-46.9		65	4	
2025-08-30T12:00	29350	14	-46.7		51	5	
2025-08-30T12:00	29400	14	-46.6		46	6	
2025-08-30T12:00	29450	14	-46.5		46	8	
2025-08-30T12:00	29500	13	-46.5		49	9	
2025-08-30T12:00	29550	13	-46.6		51	10	
2025-08-30T12:00	29600	13	-46.8		53	11	
2025-08-30T12:00	29650	13	-47.0		53	11	
2025-08-30T12:00	29700	13	-47.1		55	10	
2025-08-30T12:00	29750	13	-47.0		58	10	
2025-08-30T12:00	29800	13	-46.9		64	10	
2025-08-30T12:00	29850	13	-47.0		69	10	
2025-08-30T12:00	29900	13	-47.1		74	9	
2025-08-30T12:00	29950	13	-47.2		78	9	
2025-08-30T12:00	30000	12	-47.2		81	8	
2025-08-30T12:00	30050	12	-47.2		84	7	
2025-08-30T12:00	30100	12	-47.2		83	6	
2025-08-30T12:00	30150	12	-47.1		79	6	
2025-08-30T12:00	30200	12	-47.0		75	6	
2025-08-30T12:00	30250	12	-47.0		76	7	
2025-08-30T12:00	30300	12	-47.2		80	8	
2025-08-30T12:00	30350	12	-47.5		83	9	
2025-08-30T12:00	30400	12	-47.6		87	10	
2025-08-30T12:00	30450	12	-47.7		91	10	
2025-08-30T12:00	30500	12	-47.9		97	10	
2025-08-30T12:00	30550	11	-47.9		103	10	
2025-08-30T12:00	30600	11	-47.8		109	10	
2025-08-30T12:00	30650	11	-47.7		115	9	
2025-08-30T12:00	30700	11	-47.5		118	8	
2025-08-30T12:00	30750	11	-47.3		116	6	
2025-08-30T12:00	30800	11	-47.1		106	5	
2025-08-30T12:00	30850	11	-46.9		95	5	
2025-08-30T12:00	30900	11	-46.7		92	5	
2025-08-30T12:00	30950	11	-46.4		97	6	
2025-08-30T12:00	31000	11	-46.0		103	6	
2025-08-30T12:00	31050	11	-45.8		106	6	
2025-08-30T12:00	31100	11	-45.4		104	5	
2025-08-30T12:00	31150	10	-45.0		95	5	
2025-08-30T12:00	31200	10	-44.9		84	5	
2025-08-30T12:00	31250	10	-44.8		78	6	
2025-08-30T12:00	31300	10	-44.7		78	8	
2025-08-30T12:00	31350	10	-44.6		80	9	
2025-08-30T12:00	31400	10	-44.4		83	10	
2025-08-30T12:00	31450	10	-44.1		86	11	
2025-08-30T12:00	31500	10	-44.1		89	11	
2025-08-30T12:00	31550	10	-44.2		95	11	
2025-08-30T12:00	31600	10	-44.2		103	11	
2025-08-30T12:00	31650	10	-44.0		109	11	
2025-08-30T12:00	31700	10	-44.0		116	11	
2025-08-30T12:00	31750	10	-44.1		121	10	
2025-08-30T12:00	31800	10	-44.2		126	10	
2025-08-30T12:00	31850	9	-44.2		130	10	
2025-08-30T12:00	31900	9	-44.2		133	10	
2025-08-30T12:00	31950	9	-44.1		134	9	
2025-08-30T12:00	32000	9	-43.9		132	9	
2025-08-30T12:00	32050	9	-43.6		125	8	
2025-08-30T12:00	32100	9	-43.3		115	9	
2025-08-30T12:00	32150	9	-42.9		108	9	
2025-08-30T12:00	32200	9	-42.6		106	10	
2025-08-30T12:00	32250	9	-42.4		110	10	
2025-08-30T12:00	32300	9	-42.0		117	10	
2025-08-30T12:00	32350	9	-41.7		125	10	
2025-08-30T12:00	32400	9	-41.6		134	10	
2025-08-30T12:00	32450	9	-41.6		141	10	
2025-08-30T12:00	32500	9	-41.5		145	9	
2025-08-30T12:00	32550	8	-41.3		148	9	
2025-08-30T12:00	32600	8	-41.1		150	8	
2025-08-30T12:00	32650	8	-40.9		152	7	
2025-08-30T12:00	32700	8	-40.6		154	6	
2025-08-30T12:00	32750	8	-40.3		153	4	
2025-08-30T12:00	32800	8	-39.9		145	3	
2025-08-30T12:00	32850	8	-39.7		131	3	
2025-08-30T12:00	32900	8	-39.5		116	3	
2025-08-30T12:00	32950	8	-39.3		103	4	
2025-08-30T12:00	33000	8	-39.2		92	4	
2025-08-30T12:00	33050	8	-39.1		84	5	
2025-08-30T12:00	33100	8	-39.2		80	5	
2025-08-30T12:00	33150	8	-39.3		78	6	
2025-08-30T12:00	33200	8	-39.5		82	6	
2025-08-30T12:00	33250	8	-39.6		89	6	
2025-08-30T12:00	33300	8	-39.6		102	6	
2025-08-30T12:00	33350	8	-39.7		115	6	
2025-08-30T12:00	33400	8	-39.8		127	6	
2025-08-30T12:00	33450	7	-39.8		136	6	
2025-08-30T12:00	33500	7	-39.8		139	6	
2025-08-30T12:00	33550	7	-39.6		136	5	
2025-08-30T12:00	33600	7	-39.6		125	5	
2025-08-30T12:00	33650	7	-39.7		110	5	
2025-08-30T12:00	33700	7	-39.8		103	5	
2025-08-30T12:00	33750	7	-39.8		108	5	
2025-08-30T12:00	33800	7	-39.8		122	4	
2025-08-30T12:00	33850	7	-39.7		140	4	
2025-08-30T12:00	33900	7	-39.9		157	4	
2025-08-30T12:00	33950	7	-40.1		173	4	
2025-08-30T12:00	34000	7	-40.4		193	3	
2025-08-30T12:00	34050	7	-40.5		218	3	
2025-08-30T12:00	34100	7	-40.4		244	3	
2025-08-30T12:00	34150	7	-40.3		263	2	
2025-08-30T12:00	34200	7	-40.0		288	1	
2025-08-30T12:00	34250	7	-39.7		82	1	
2025-08-30T12:00	34300	7	-39.3		94	3	
2025-08-30T12:00	34350	7	-39.0		99	4	
2025-08-30T12:00	34400	6	-38.7		99	4	
2025-08-30T12:00	34450	6	-38.5		82	2	
2025-08-30T12:00	34500	6	-38.3		28	2	
2025-08-30T12:00	34550	6	-38.2		356	3	
2025-08-30T12:00	34600	6	-38.0		347	4	
2025-08-30T12:00	34650	6	-37.5		348	4	
2025-08-30T12:00	34700	6	-37.3		0	4	
2025-08-30T12:00	34750	6	-37.4		18	3	
2025-08-30T12:00	34800	6	-37.5		26	3	
2025-08-30T12:00	34850	6	-37.3		18	3	
2025-08-30T12:00	34900	6	-37.1		7	4	
2025-08-30T12:00	34950	6	-37.1		0	5	
2025-08-30T12:00	35000	6	-37.0		358	6	
2025-08-30T12:00	35050	6	-36.7		359	7	
2025-08-30T12:00	35100	6	-36.5		4	8	
2025-08-30T12:00	35150	6	-36.0		9	8	
2025-08-30T12:00	35200	6	-35.6		13	8	
2025-08-30T12:00	35250	6	-35.4		14	8	
2025-08-31T00:00	491	958	11.4	10.5	313	0	
2025-08-31T00:00	501	956	12.4	10.6	197	0	
2025-08-31T00:00	520	955	12.7	10.6	183	1	
2025-08-31T00:00	540	953	13.9	9.9	192	1	
2025-08-31T00:00	560	950	14.8	9.7	203	1	
2025-08-31T00:00	580	948	14.6	9.9	213	1	
2025-08-31T00:00	600	946	14.6	9.9	221	1	
2025-08-31T00:00	620	944	15.0	9.8	226	2	
2025-08-31T00:00	640	941	15.1	9.7	231	2	
2025-08-31T00:00	660	939	15.0	9.7	234	2	
2025-08-31T00:00	680	937	15.0	9.7	238	2	
2025-08-31T00:00	700	935	14.9	9.6	240	2	
2025-08-31T00:00	720	933	14.9	9.6	242	2	
2025-08-31T00:00	740	930	14.7	9.7	240	2	
2025-08-31T00:00	760	928	14.5	9.7	237	2	
2025-08-31T00:00	780	926	14.4	9.6	231	2	
2025-08-31T00:00	800	924	14.3	9.5	225	3	
2025-08-31T00:00	820	922	14.3	9.5	222	3	
2025-08-31T00:00	840	920	14.4	9.3	219	3	
2025-08-31T00:00	860	917	14.5	9.3	219	4	
2025-08-31T00:00	880	915	14.5	9.3	219	5	
2025-08-31T00:00	900	913	14.7	9.1	221	5	
2025-08-31T00:00	920	910	14.6	8.8	223	6	
2025-08-31T00:00	940	909	14.6	8.6	226	6	
2025-08-31T00:00	960	907	14.4	8.8	229	7	
2025-08-31T00:00	980	904	14.3	9.0	231	7	
2025-08-31T00:00	1000	902	14.1	8.9	235	6	
2025-08-31T00:00	1020	900	13.9	8.8	237	6	
2025-08-31T00:00	1040	898	13.7	8.9	240	6	
2025-08-31T00:00	1060	896	13.5	9.0	241	5	
2025-08-31T00:00	1080	894	13.3	9.2	242	5	
2025-08-31T00:00	1100	892	13.1	9.2	242	5	
2025-08-31T00:00	1120	889	12.9	9.1	241	5	
2025-08-31T00:00	1140	887	12.8	9.0	239	5	
2025-08-31T00:00	1160	885	12.7	8.9	237	6	
2025-08-31T00:00	1180	883	12.5	8.8	235	6	
2025-08-31T00:00	1200	881	12.4	8.6	233	6	
2025-08-31T00:00	1220	879	12.2	8.6	231	6	
2025-08-31T00:00	1240	877	12.0	8.5	229	7	
2025-08-31T00:00	1260	875	11.9	8.3	229	7	
2025-08-31T00:00	1280	873	11.7	8.2	228	7	
2025-08-31T00:00	1300	870	11.5	8.2	228	7	
2025-08-31T00:00	1320	869	11.4	8.2	228	7	
2025-08-31T00:00	1340	867	11.2	8.1	228	7	
2025-08-31T00:00	1360	864	11.0	8.0	228	7	
2025-08-31T00:00	1380	862	10.9	7.7	228	7	
2025-08-31T00:00	1400	860	10.7	7.4	228	7	
2025-08-31T00:00	1420	858	10.6	7.3	227	7	
2025-08-31T00:00	1440	856	10.4	7.2	227	7	
2025-08-31T00:00	1460	854	10.3	7.1	227	7	
2025-08-31T00:00	1480	852	10.1	7.1	227	7	
2025-08-31T00:00	1500	850	9.9	7.3	226	7	
2025-08-31T00:00	1520	848	9.7	7.4	226	7	
2025-08-31T00:00	1540	846	9.5	7.4	227	7	
2025-08-31T00:00	1560	844	9.4	7.2	227	7	
2025-08-31T00:00	1580	842	9.2	6.8	229	7	
2025-08-31T00:00	1600	840	9.1	6.4	230	7	
2025-08-31T00:00	1620	838	9.0	6.0	232	7	
2025-08-31T00:00	1640	836	8.8	5.7	235	7	
2025-08-31T00:00	1660	834	8.6	5.5	237	7	
2025-08-31T00:00	1680	831	8.4	5.4	237	7	
2025-08-31T00:00	1700	830	8.3	5.1	237	7	
2025-08-31T00:00	1720	828	8.1	4.9	237	7	
2025-08-31T00:00	1740	826	8.0	4.9	236	7	
2025-08-31T00:00	1760	824	7.8	4.9	235	8	
2025-08-31T00:00	1780	822	7.6	4.9	234	8	
2025-08-31T00:00	1800	820	7.4	4.8	234	8	
2025-08-31T00:00	1820	818	7.3	4.5	234	8	
2025-08-31T00:00	1840	816	7.1	4.4	234	8	
2025-08-31T00:00	1860	814	7.0	4.1	235	8	
2025-08-31T00:00	1880	812	6.9	3.9	235	8	
2025-08-31T00:00	1900	810	6.8	3.9	235	8	
2025-08-31T00:00	1920	808	6.6	3.7	236	8	
2025-08-31T00:00	1940	806	6.5	3.5	236	8	
2025-08-31T00:00	1960	804	6.4	3.3	237	8	
2025-08-31T00:00	1980	802	6.3	3.2	237	8	
2025-08-31T00:00	2000	800	6.1	3.2	237	8	
2025-08-31T00:00	2020	798	5.9	3.2	238	8	
2025-08-31T00:00	2040	796	5.8	3.0	238	8	
2025-08-31T00:00	2060	794	5.7	2.8	237	8	
2025-08-31T00:00	2080	792	5.6	2.6	237	8	
2025-08-31T00:00	2100	790	5.4	2.6	237	8	
2025-08-31T00:00	2120	788	5.3	2.4	237	8	
2025-08-31T00:00	2140	786	5.1	2.3	236	8	
2025-08-31T00:00	2160	785	5.0	2.1	236	8	
2025-08-31T00:00	2180	783	4.9	2.0	235	8	
2025-08-31T00:00	2200	781	4.7	1.7	234	8	
2025-08-31T00:00	2220	779	4.6	1.5	233	8	
2025-08-31T00:00	2240	777	4.5	1.4	232	9	
2025-08-31T00:00	2260	775	4.3	1.3	230	9	
2025-08-31T00:00	2280	773	4.2	1.1	229	9	
2025-08-31T00:00	2300	771	4.1	0.7	227	9	
2025-08-31T00:00	2320	769	3.9	0.5	226	10	
2025-08-31T00:00	2340	767	3.9	-0.1	225	10	
2025-08-31T00:00	2360	766	3.8	-0.6	225	10	
2025-08-31T00:00	2380	764	4.0	-1.7	225	10	
2025-08-31T00:00	2400	762	4.1	-2.3	226	10	
2025-08-31T00:00	2420	760	4.1	-2.9	228	10	
2025-08-31T00:00	2440	758	4.0	-3.2	230	9	
2025-08-31T00:00	2460	756	4.2	-3.7	232	9	
2025-08-31T00:00	2480	754	4.3	-4.6	236	8	
2025-08-31T00:00	2500	753	4.5	-5.5	239	8	
2025-08-31T00:00	2520	751	4.4	-6.1	244	7	
2025-08-31T00:00	2540	749	4.9	-9.1	249	6	
2025-08-31T00:00	2560	747	5.3	-11.2	254	6	
2025-08-31T00:00	2580	745	5.5	-12.5	260	5	
2025-08-31T00:00	2600	743	5.6	-13.8	265	5	
2025-08-31T00:00	2620	742	5.7	-14.5	267	5	
2025-08-31T00:00	2640	740	5.6	-14.8	266	6	
2025-08-31T00:00	2660	738	5.5	-15.1	265	6	
2025-08-31T00:00	2680	736	5.5	-15.5	266	6	
2025-08-31T00:00	2700	734	5.5	-14.7	270	6	
2025-08-31T00:00	2720	733	5.5	-13.7	276	7	
2025-08-31T00:00	2740	731	5.6	-16.8	282	7	
2025-08-31T00:00	2760	729	5.6	-18.2	287	8	
2025-08-31T00:00	2780	727	5.6	-19.5	293	8	
2025-08-31T00:00	2800	725	5.5	-19.7	298	9	
2025-08-31T00:00	2820	724	5.5	-20.4	300	9	
2025-08-31T00:00	2840	722	5.7	-21.8	303	9	
2025-08-31T00:00	2860	720	5.9	-21.4	305	9	
2025-08-31T00:00	2880	718	6.0	-17.7	306	9	
2025-08-31T00:00	2900	716	6.0	-17.8	307	9	
2025-08-31T00:00	2920	715	5.9	-19.4	308	9	
2025-08-31T00:00	2940	713	5.9	-23.4	307	9	
2025-08-31T00:00	2960	711	5.9	-26.4	306	9	
2025-08-31T00:00	2980	709	5.8	-26.5	305	9	
2025-08-31T00:00	3000	708	5.7	-27.1	303	8	
2025-08-31T00:00	3020	706	5.6	-25.2	302	8	
2025-08-31T00:00	3040	704	5.5	-25.1	302	8	
2025-08-31T00:00	3060	703	5.4	-26.7	303	9	
2025-08-31T00:00	3080	701	5.3	-25.9	303	9	
2025-08-31T00:00	3100	699	5.3	-25.7	303	9	
2025-08-31T00:00	3120	697	5.2	-25.7	303	9	
2025-08-31T00:00	3140	696	5.0	-25.8	303	9	
2025-08-31T00:00	3160	694	4.9	-26.0	302	9	
2025-08-31T00:00	3180	692	4.8	-26.2	302	9	
2025-08-31T00:00	3200	691	4.7	-26.5	302	9	
2025-08-31T00:00	3220	689	4.6	-27.3	303	9	
2025-08-31T00:00	3240	687	4.5	-28.2	304	10	
2025-08-31T00:00	3260	686	4.4	-28.8	306	10	
2025-08-31T00:00	3280	684	4.2	-28.9	307	11	
2025-08-31T00:00	3300	682	4.1	-29.0	309	11	
2025-08-31T00:00	3320	681	3.9	-28.9	310	11	
2025-08-31T00:00	3340	679	3.8	-28.8	312	11	
2025-08-31T00:00	3360	677	3.6	-28.6	314	11	
2025-08-31T00:00	3380	675	3.5	-24.3	314	10	
2025-08-31T00:00	3400	674	3.4	-22.7	314	10	
2025-08-31T00:00	3420	672	3.4	-24.5	312	9	
2025-08-31T00:00	3440	670	3.3	-28.2	309	9	
2025-08-31T00:00	3460	669	3.2	-30.6	305	9	
2025-08-31T00:00	3480	667	3.3	-30.7	301	8	
2025-08-31T00:00	3500	666	3.3	-26.9	298	8	
2025-08-31T00:00	3520	664	3.2	-22.3	296	8	
2025-08-31T00:00	3540	662	3.0	-23.1	297	7	
2025-08-31T00:00	3560	661	2.9	-24.3	298	7	
2025-08-31T00:00	3580	659	2.8	-25.5	300	7	
2025-08-31T00:00	3600	658	2.7	-26.5	304	7	
2025-08-31T00:00	3620	656	2.7	-21.4	309	7	
2025-08-31T00:00	3640	654	2.6	-12.6	315	7	
2025-08-31T00:00	3660	652	2.4	-7.9	320	7	
2025-08-31T00:00	3680	651	2.3	-5.0	324	7	
2025-08-31T00:00	3700	649	2.1	-3.8	326	7	
2025-08-31T00:00	3720	648	1.9	-3.4	326	7	
2025-08-31T00:00	3740	646	1.7	-3.2	326	7	
2025-08-31T00:00	3760	644	1.5	-3.1	325	7	
2025-08-31T00:00	3780	643	1.4	-3.4	325	7	
2025-08-31T00:00	3800	641	1.3	-3.5	324	7	
2025-08-31T00:00	3820	640	1.1	-3.5	324	7	
2025-08-31T00:00	3840	638	0.9	-3.5	324	7	
2025-08-31T00:00	3860	636	0.7	-3.6	324	7	
2025-08-31T00:00	3880	635	0.5	-3.6	324	7	
2025-08-31T00:00	3900	633	0.4	-3.5	323	8	
2025-08-31T00:00	3920	632	0.2	-3.6	321	8	
2025-08-31T00:00	3940	630	0.0	-3.6	319	8	
2025-08-31T00:00	3960	629	-0.2	-3.6	317	8	
2025-08-31T00:00	3980	627	-0.3	-3.7	314	8	
2025-08-31T00:00	4000	626	-0.5	-3.8	313	8	
2025-08-31T00:00	4020	624	-0.7	-3.8	312	8	
2025-08-31T00:00	4040	622	-0.9	-3.9	312	8	
2025-08-31T00:00	4060	621	-1.0	-4.0	313	8	
2025-08-31T00:00	4080	619	-1.2	-4.1	314	8	
2025-08-31T00:00	4100	618	-1.4	-4.0	314	9	
2025-08-31T00:00	4120	616	-1.5	-4.2	314	9	
2025-08-31T00:00	4140	615	-1.6	-4.2	314	10	
2025-08-31T00:00	4160	613	-1.8	-4.3	314	10	
2025-08-31T00:00	4180	612	-1.9	-4.3	313	11	
2025-08-31T00:00	4200	610	-2.0	-4.3	311	12	
2025-08-31T00:00	4220	608	-2.2	-4.3	310	12	
2025-08-31T00:00	4240	607	-2.3	-4.4	309	12	
2025-08-31T00:00	4260	605	-2.5	-4.4	308	13	
2025-08-31T00:00	4280	604	-2.6	-4.5	307	13	
2025-08-31T00:00	4300	602	-2.6	-4.8	307	13	
2025-08-31T00:00	4320	601	-2.7	-4.9	308	13	
2025-08-31T00:00	4340	600	-2.8	-4.9	308	13	
2025-08-31T00:00	4360	598	-2.9	-5.1	309	13	
2025-08-31T00:00	4380	596	-3.1	-5.3	310	13	
2025-08-31T00:00	4400	595	-3.2	-5.4	312	13	
2025-08-31T00:00	4420	593	-3.3	-5.6	313	13	
2025-08-31T00:00	4440	592	-3.4	-5.6	314	12	
2025-08-31T00:00	4460	590	-3.4	-5.7	314	12	
2025-08-31T00:00	4480	589	-3.1	-6.1	314	12	
2025-08-31T00:00	4500	587	-2.8	-6.4	314	11	
2025-08-31T00:00	4520	586	-2.8	-6.5	313	11	
2025-08-31T00:00	4540	584	-2.9	-6.7	311	11	
2025-08-31T00:00	4560	583	-3.0	-6.8	309	10	
2025-08-31T00:00	4580	581	-3.1	-7.1	307	10	
2025-08-31T00:00	4600	580	-3.0	-7.7	306	10	
2025-08-31T00:00	4620	579	-3.0	-8.1	305	10	
2025-08-31T00:00	4640	577	-3.0	-8.4	305	9	
2025-08-31T00:00	4660	576	-3.1	-8.5	305	9	
2025-08-31T00:00	4680	574	-3.1	-8.7	305	9	
2025-08-31T00:00	4700	573	-3.2	-8.7	305	9	
2025-08-31T00:00	4720	571	-3.3	-8.7	305	9	
2025-08-31T00:00	4740	570	-3.5	-8.7	305	9	
2025-08-31T00:00	4760	568	-3.6	-8.7	305	9	
2025-08-31T00:00	4780	567	-3.7	-8.6	306	9	
2025-08-31T00:00	4800	565	-3.9	-8.7	307	9	
2025-08-31T00:00	4820	564	-4.0	-8.8	308	9	
2025-08-31T00:00	4840	563	-4.1	-9.0	309	9	
2025-08-31T00:00	4860	561	-4.2	-9.1	311	9	
2025-08-31T00:00	4880	560	-4.3	-9.2	311	8	
2025-08-31T00:00	4900	558	-4.3	-9.5	311	9	
2025-08-31T00:00	4920	557	-4.5	-9.7	311	9	
2025-08-31T00:00	4940	556	-4.6	-9.7	310	9	
2025-08-31T00:00	4960	554	-4.8	-9.7	309	9	
2025-08-31T00:00	4980	553	-5.0	-9.8	310	9	
2025-08-31T00:00	5000	551	-5.1	-9.9	310	9	
2025-08-31T00:00	5020	550	-5.3	-10.0	311	9	
2025-08-31T00:00	5040	549	-5.5	-10.0	313	9	
2025-08-31T00:00	5060	547	-5.6	-10.1	315	10	
2025-08-31T00:00	5080	546	-5.7	-10.2	317	10	
2025-08-31T00:00	5100	544	-5.9	-10.4	319	10	
2025-08-31T00:00	5120	543	-6.0	-10.5	320	10	
2025-08-31T00:00	5140	542	-6.1	-10.6	321	10	
2025-08-31T00:00	5160	540	-6.2	-10.7	321	10	
2025-08-31T00:00	5180	539	-6.2	-11.1	320	10	
2025-08-31T00:00	5200	538	-6.3	-11.3	319	11	
2025-08-31T00:00	5220	536	-6.4	-12.3	317	11	
2025-08-31T00:00	5240	535	-6.6	-13.4	315	11	
2025-08-31T00:00	5260	533	-6.6	-13.9	313	11	
2025-08-31T00:00	5280	532	-6.8	-13.3	311	11	
2025-08-31T00:00	5300	531	-6.9	-14.0	309	11	
2025-08-31T00:00	5320	529	-6.8	-16.4	308	11	
2025-08-31T00:00	5340	528	-6.8	-15.5	307	12	
2025-08-31T00:00	5360	527	-6.9	-15.2	306	11	
2025-08-31T00:00	5380	525	-7.0	-15.7	306	11	
2025-08-31T00:00	5400	524	-7.1	-16.0	306	11	
2025-08-31T00:00	5420	523	-7.2	-16.8	306	11	
2025-08-31T00:00	5440	521	-7.4	-17.4	306	11	
2025-08-31T00:00	5460	520	-7.5	-17.7	306	10	
2025-08-31T00:00	5480	519	-7.6	-18.0	307	10	
2025-08-31T00:00	5500	517	-7.8	-18.0	307	10	
2025-08-31T00:00	5520	516	-7.9	-17.9	308	10	
2025-08-31T00:00	5540	514	-8.1	-18.0	308	11	
2025-08-31T00:00	5560	513	-8.2	-18.0	308	11	
2025-08-31T00:00	5580	512	-8.4	-17.6	307	11	
2025-08-31T00:00	5600	511	-8.6	-17.8	306	11	
2025-08-31T00:00	5620	509	-8.7	-18.2	306	12	
2025-08-31T00:00	5640	508	-8.8	-18.9	305	12	
2025-08-31T00:00	5660	507	-9.0	-18.8	304	12	
2025-08-31T00:00	5680	505	-9.2	-18.5	304	12	
2025-08-31T00:00	5700	504	-9.3	-18.4	302	12	
2025-08-31T00:00	5720	503	-9.5	-18.2	301	12	
2025-08-31T00:00	5740	501	-9.6	-18.0	299	11	
2025-08-31T00:00	5760	500	-9.7	-18.2	298	11	
2025-08-31T00:00	5780	499	-9.9	-18.5	296	11	
2025-08-31T00:00	5800	497	-10.1	-19.0	295	11	
2025-08-31T00:00	5820	496	-10.2	-19.1	294	11	
2025-08-31T00:00	5840	495	-10.4	-18.2	294	11	
2025-08-31T00:00	5860	494	-10.6	-18.0	294	12	
2025-08-31T00:00	5880	492	-10.7	-18.1	295	12	
2025-08-31T00:00	5900	491	-10.8	-18.4	295	12	
2025-08-31T00:00	5920	490	-11.0	-17.8	296	13	
2025-08-31T00:00	5940	489	-11.1	-17.5	297	13	
2025-08-31T00:00	5960	487	-11.3	-17.3	297	13	
2025-08-31T00:00	5980	486	-11.5	-17.0	297	14	
2025-08-31T00:00	6000	485	-11.6	-17.1	297	14	
2025-08-31T00:00	6020	484	-11.8	-16.9	297	14	
2025-08-31T00:00	6040	482	-11.9	-17.1	297	14	
2025-08-31T00:00	6060	481	-12.1	-17.2	297	15	
2025-08-31T00:00	6080	480	-12.2	-17.4	297	15	
2025-08-31T00:00	6100	478	-12.4	-17.5	297	15	
2025-08-31T00:00	6120	477	-12.5	-17.8	297	15	
2025-08-31T00:00	6140	476	-12.7	-17.7	297	15	
2025-08-31T00:00	6160	475	-12.9	-17.6	297	16	
2025-08-31T00:00	6180	473	-13.1	-17.7	298	16	
2025-08-31T00:00	6200	472	-13.3	-17.8	298	16	
2025-08-31T00:00	6220	471	-13.5	-18.0	299	16	
2025-08-31T00:00	6240	470	-13.6	-18.3	299	16	
2025-08-31T00:00	6260	469	-13.8	-18.6	300	16	
2025-08-31T00:00	6280	467	-14.0	-18.8	300	16	
2025-08-31T00:00	6300	466	-14.1	-19.1	301	16	
2025-08-31T00:00	6320	465	-14.3	-18.9	301	15	
2025-08-31T00:00	6340	464	-14.4	-19.0	301	14	
2025-08-31T00:00	6360	462	-14.4	-20.8	301	14	
2025-08-31T00:00	6380	461	-14.4	-22.3	300	13	
2025-08-31T00:00	6400	460	-14.4	-23.0	299	12	
2025-08-31T00:00	6420	459	-14.5	-23.2	297	12	
2025-08-31T00:00	6440	458	-14.6	-23.3	295	11	
2025-08-31T00:00	6460	456	-14.7	-23.6	294	11	
2025-08-31T00:00	6480	455	-14.6	-24.0	292	11	
2025-08-31T00:00	6500	454	-14.6	-24.4	289	11	
2025-08-31T00:00	6520	453	-14.6	-24.6	288	11	
2025-08-31T00:00	6540	452	-14.7	-24.8	286	11	
2025-08-31T00:00	6560	450	-14.6	-26.0	284	11	
2025-08-31T00:00	6580	449	-14.4	-27.8	283	11	
2025-08-31T00:00	6600	448	-14.2	-30.1	282	11	
2025-08-31T00:00	6620	447	-14.0	-31.2	280	10	
2025-08-31T00:00	6640	446	-14.0	-31.8	279	10	
2025-08-31T00:00	6660	444	-13.9	-34.1	279	10	
2025-08-31T00:00	6680	443	-13.9	-35.0	280	10	
2025-08-31T00:00	6700	442	-14.0	-33.5	281	9	
2025-08-31T00:00	6720	441	-14.1	-30.1	282	10	
2025-08-31T00:00	6740	440	-14.3	-27.8	282	9	
2025-08-31T00:00	6760	439	-14.5	-26.1	283	10	
2025-08-31T00:00	6780	437	-14.6	-25.7	283	10	
2025-08-31T00:00	6800	436	-14.8	-25.9	283	10	
2025-08-31T00:00	6820	435	-15.0	-26.1	282	10	
2025-08-31T00:00	6840	434	-15.2	-26.2	283	10	
2025-08-31T00:00	6860	433	-15.4	-26.3	283	10	
2025-08-31T00:00	6880	432	-15.6	-26.4	283	10	
2025-08-31T00:00	6900	431	-15.8	-26.6	284	10	
2025-08-31T00:00	6920	430	-15.9	-26.7	284	10	
2025-08-31T00:00	6940	428	-16.1	-26.8	284	10	
2025-08-31T00:00	6960	427	-16.3	-26.3	284	9	
2025-08-31T00:00	6980	426	-16.5	-25.4	284	9	
2025-08-31T00:00	7000	425	-16.6	-25.5	284	9	
2025-08-31T00:00	7020	424	-16.8	-25.5	283	9	
2025-08-31T00:00	7040	423	-17.0	-25.4	283	9	
2025-08-31T00:00	7060	422	-17.1	-25.6	283	10	
2025-08-31T00:00	7080	420	-17.2	-26.4	284	10	
2025-08-31T00:00	7100	419	-17.3	-26.9	284	10	
2025-08-31T00:00	7120	418	-17.4	-27.1	285	10	
2025-08-31T00:00	7140	417	-17.5	-27.6	286	9	
2025-08-31T00:00	7160	416	-17.6	-27.7	286	9	
2025-08-31T00:00	7180	415	-17.8	-27.9	287	9	
2025-08-31T00:00	7200	414	-18.0	-28.2	287	9	
2025-08-31T00:00	7220	412	-18.2	-28.2	287	9	
2025-08-31T00:00	7240	411	-18.3	-28.0	286	9	
2025-08-31T00:00	7260	410	-18.5	-28.0	286	9	
2025-08-31T00:00	7280	409	-18.7	-28.1	285	9	
2025-08-31T00:00	7300	408	-18.9	-28.0	284	9	
2025-08-31T00:00	7320	407	-19.0	-28.0	283	9	
2025-08-31T00:00	7340	406	-19.2	-28.1	283	9	
2025-08-31T00:00	7360	405	-19.4	-28.1	283	9	
2025-08-31T00:00	7380	404	-19.6	-28.2	284	9	
2025-08-31T00:00	7400	403	-19.8	-28.6	284	9	
2025-08-31T00:00	7420	402	-19.9	-28.9	284	9	
2025-08-31T00:00	7440	401	-20.1	-28.8	284	9	
2025-08-31T00:00	7460	399	-20.3	-29.0	284	9	
2025-08-31T00:00	7480	398	-20.5	-29.5	284	9	
2025-08-31T00:00	7500	397	-20.6	-30.1	284	10	
2025-08-31T00:00	7520	396	-20.7	-30.8	283	10	
2025-08-31T00:00	7540	395	-20.7	-31.5	283	10	
2025-08-31T00:00	7560	394	-20.8	-31.7	283	10	
2025-08-31T00:00	7580	393	-21.0	-31.8	282	10	
2025-08-31T00:00	7600	392	-21.1	-33.8	282	10	
2025-08-31T00:00	7620	391	-21.0	-38.2	282	10	
2025-08-31T00:00	7640	390	-21.1	-39.4	283	10	
2025-08-31T00:00	7660	389	-21.3	-38.8	283	10	
2025-08-31T00:00	7680	388	-21.5	-39.0	283	10	
2025-08-31T00:00	7700	387	-21.6	-39.4	283	10	
2025-08-31T00:00	7720	386	-21.8	-39.7	284	10	
2025-08-31T00:00	7740	385	-21.9	-39.8	284	10	
2025-08-31T00:00	7760	384	-22.0	-39.9	285	9	
2025-08-31T00:00	7780	383	-22.2	-40.0	286	9	
2025-08-31T00:00	7800	381	-22.4	-39.9	287	9	
2025-08-31T00:00	7820	380	-22.6	-40.0	287	9	
2025-08-31T00:00	7840	379	-22.8	-40.1	287	9	
2025-08-31T00:00	7860	378	-23.0	-40.1	287	10	
2025-08-31T00:00	7880	377	-23.2	-40.4	287	10	
2025-08-31T00:00	7900	376	-23.4	-40.9	287	10	
2025-08-31T00:00	7920	375	-23.5	-40.6	286	10	
2025-08-31T00:00	7940	374	-23.7	-40.8	286	10	
2025-08-31T00:00	7960	373	-23.8	-41.1	286	10	
2025-08-31T00:00	7980	372	-24.0	-41.3	286	10	
2025-08-31T00:00	8000	371	-24.2	-40.9	287	10	
2025-08-31T00:00	8020	370	-24.4	-40.8	287	10	
2025-08-31T00:00	8040	369	-24.5	-40.9	288	11	
2025-08-31T00:00	8060	368	-24.7	-41.2	289	11	
2025-08-31T00:00	8080	367	-24.8	-41.6	290	11	
2025-08-31T00:00	8100	366	-24.9	-41.9	291	11	
2025-08-31T00:00	8120	365	-25.0	-42.4	292	11	
2025-08-31T00:00	8140	364	-25.1	-42.6	293	10	
2025-08-31T00:00	8160	363	-25.3	-43.0	294	10	
2025-08-31T00:00	8180	362	-25.4	-43.8	294	10	
2025-08-31T00:00	8200	361	-25.5	-43.9	294	10	
2025-08-31T00:00	8220	360	-25.7	-43.9	294	10	
2025-08-31T00:00	8240	359	-25.8	-44.1	293	10	
2025-08-31T00:00	8260	358	-26.0	-44.2	292	10	
2025-08-31T00:00	8280	357	-26.1	-44.2	292	10	
2025-08-31T00:00	8300	356	-26.2	-44.6	292	10	
2025-08-31T00:00	8320	355	-26.3	-44.7	292	10	
2025-08-31T00:00	8340	354	-26.5	-44.7	292	10	
2025-08-31T00:00	8360	353	-26.6	-44.8	292	10	
2025-08-31T00:00	8380	352	-26.8	-45.1	292	10	
2025-08-31T00:00	8400	351	-26.9	-45.2	292	10	
2025-08-31T00:00	8420	350	-27.1	-45.3	292	10	
2025-08-31T00:00	8440	349	-27.2	-45.4	291	10	
2025-08-31T00:00	8460	348	-27.4	-45.5	290	10	
2025-08-31T00:00	8480	347	-27.5	-45.7	289	10	
2025-08-31T00:00	8500	346	-27.7	-45.8	287	10	
2025-08-31T00:00	8520	345	-27.8	-45.6	285	10	
2025-08-31T00:00	8540	344	-28.0	-45.3	283	10	
2025-08-31T00:00	8560	343	-28.1	-44.7	282	10	
2025-08-31T00:00	8580	342	-28.3	-43.8	281	10	
2025-08-31T00:00	8600	342	-28.4	-43.4	281	10	
2025-08-31T00:00	8620	341	-28.6	-43.0	280	10	
2025-08-31T00:00	8640	340	-28.7	-42.5	280	10	
2025-08-31T00:00	8660	339	-28.8	-42.4	281	10	
2025-08-31T00:00	8680	338	-28.9	-43.2	281	10	
2025-08-31T00:00	8700	337	-29.0	-43.9	282	10	
2025-08-31T00:00	8720	336	-29.1	-43.9	283	11	
2025-08-31T00:00	8740	335	-29.1	-46.3	284	11	
2025-08-31T00:00	8760	334	-29.0	-49.6	284	11	
2025-08-31T00:00	8780	333	-28.9	-49.0	285	11	
2025-08-31T00:00	8800	332	-29.1	-47.0	284	11	
2025-08-31T00:00	8820	331	-29.2	-46.2	284	12	
2025-08-31T00:00	8840	330	-29.4	-45.9	284	12	
2025-08-31T00:00	8860	329	-29.5	-46.1	284	12	
2025-08-31T00:00	8880	328	-29.7	-46.2	284	12	
2025-08-31T00:00	8900	328	-29.8	-46.2	284	12	
2025-08-31T00:00	8920	327	-30.0	-46.2	283	12	
2025-08-31T00:00	8940	326	-30.2	-46.4	283	12	
2025-08-31T00:00	8960	325	-30.3	-46.6	283	12	
2025-08-31T00:00	8980	324	-30.4	-46.7	282	12	
2025-08-31T00:00	9000	323	-30.5	-47.0	282	12	
2025-08-31T00:00	9020	322	-30.6	-47.1	281	12	
2025-08-31T00:00	9040	321	-30.8	-47.3	281	12	
2025-08-31T00:00	9060	320	-30.9	-47.6	280	13	
2025-08-31T00:00	9080	319	-31.0	-47.8	280	13	
2025-08-31T00:00	9100	319	-31.2	-48.0	280	13	
2025-08-31T00:00	9120	318	-31.3	-48.0	279	13	
2025-08-31T00:00	9140	317	-31.5	-48.1	279	13	
2025-08-31T00:00	9160	316	-31.6	-48.5	279	13	
2025-08-31T00:00	9180	315	-31.7	-48.7	279	14	
2025-08-31T00:00	9200	314	-31.9	-48.9	279	14	
2025-08-31T00:00	9220	313	-32.0	-49.2	279	14	
2025-08-31T00:00	9240	312	-32.1	-49.3	280	14	
2025-08-31T00:00	9260	311	-32.3	-49.4	280	14	
2025-08-31T00:00	9280	310	-32.5	-49.6	280	15	
2025-08-31T00:00	9300	310	-32.6	-49.8	281	15	
2025-08-31T00:00	9320	309	-32.8	-49.9	281	15	
2025-08-31T00:00	9340	308	-33.0	-50.1	282	15	
2025-08-31T00:00	9360	307	-33.1	-50.1	282	15	
2025-08-31T00:00	9380	306	-33.3	-50.3	283	14	
2025-08-31T00:00	9400	305	-33.4	-50.5	283	14	
2025-08-31T00:00	9420	304	-33.5	-50.5	284	14	
2025-08-31T00:00	9440	304	-33.7	-50.7	284	14	
2025-08-31T00:00	9460	303	-33.9	-51.0	285	14	
2025-08-31T00:00	9480	302	-34.1	-51.2	286	14	
2025-08-31T00:00	9500	301	-34.2	-51.5	286	14	
2025-08-31T00:00	9520	300	-34.4	-51.7	287	14	
2025-08-31T00:00	9540	299	-34.5	-51.8	287	14	
2025-08-31T00:00	9560	298	-34.7	-51.6	287	14	
2025-08-31T00:00	9580	297	-34.9	-51.6	288	14	
2025-08-31T00:00	9600	297	-35.1	-51.7	288	14	
2025-08-31T00:00	9620	296	-35.3	-51.8	288	15	
2025-08-31T00:00	9640	295	-35.4	-51.9	287	15	
2025-08-31T00:00	9660	294	-35.6	-52.0	287	15	
2025-08-31T00:00	9680	293	-35.7	-52.2	288	16	
2025-08-31T00:00	9700	292	-35.9	-52.3	288	16	
2025-08-31T00:00	9720	292	-36.0	-52.3	288	16	
2025-08-31T00:00	9740	291	-36.2	-52.5	289	17	
2025-08-31T00:00	9760	290	-36.3	-52.7	289	17	
2025-08-31T00:00	9780	289	-36.5	-53.0	289	17	
2025-08-31T00:00	9800	288	-36.6	-53.2	290	17	
2025-08-31T00:00	9820	287	-36.7	-53.5	290	16	
2025-08-31T00:00	9840	286	-36.9	-53.8	290	16	
2025-08-31T00:00	9860	286	-37.0	-54.0	291	16	
2025-08-31T00:00	9880	285	-37.2	-54.1	291	16	
2025-08-31T00:00	9900	284	-37.3	-54.2	291	16	
2025-08-31T00:00	9920	283	-37.4	-54.6	290	16	
2025-08-31T00:00	9940	282	-37.5	-55.0	290	16	
2025-08-31T00:00	9960	282	-37.6	-55.5	290	16	
2025-08-31T00:00	9980	281	-37.7	-55.4	289	16	
2025-08-31T00:00	10000	280	-37.8	-54.4	289	17	
2025-08-31T00:00	10018	279	-38.0	-53.9	289	17	
2025-08-31T00:00	10050	278	-38.3	-54.3	289	17	
2025-08-31T00:00	10100	276	-38.7	-54.9	290	17	
2025-08-31T00:00	10150	274	-39.0	-55.8	292	17	
2025-08-31T00:00	10200	272	-39.4	-55.9	292	17	
2025-08-31T00:00	10250	270	-39.8	-56.0	291	17	
2025-08-31T00:00	10300	268	-40.3	-56.3	291	18	
2025-08-31T00:00	10350	266	-40.6	-56.3	290	18	
2025-08-31T00:00	10400	264	-41.1	-56.0	290	18	
2025-08-31T00:00	10450	262	-41.6	-56.2	290	19	
2025-08-31T00:00	10500	260	-42.0	-56.2	290	19	
2025-08-31T00:00	10550	258	-42.5	-56.3	290	19	
2025-08-31T00:00	10600	256	-43.0	-56.4	290	19	
2025-08-31T00:00	10650	255	-43.4	-56.7	290	19	
2025-08-31T00:00	10700	253	-43.8	-56.7	291	18	
2025-08-31T00:00	10750	251	-44.3	-56.8	290	17	
2025-08-31T00:00	10800	249	-44.7	-57.3	290	17	
2025-08-31T00:00	10850	247	-45.1	-57.3	290	17	
2025-08-31T00:00	10900	245	-45.6	-57.0	290	17	
2025-08-31T00:00	10950	243	-46.0	-57.0	289	17	
2025-08-31T00:00	11000	242	-46.5	-57.1	288	18	
2025-08-31T00:00	11050	240	-46.8	-57.7	285	18	
2025-08-31T00:00	11100	238	-47.2	-58.2	283	19	
2025-08-31T00:00	11150	236	-47.6	-58.6	281	20	
2025-08-31T00:00	11200	234	-47.9	-58.8	280	20	
2025-08-31T00:00	11250	233	-48.3	-58.3	279	20	
2025-08-31T00:00	11300	231	-48.7	-58.8	279	20	
2025-08-31T00:00	11350	229	-49.1	-59.1	279	20	
2025-08-31T00:00	11400	227	-49.5	-59.5	279	20	
2025-08-31T00:00	11450	226	-49.9	-60.1	280	20	
2025-08-31T00:00	11500	224	-50.3	-60.2	280	20	
2025-08-31T00:00	11550	222	-50.7	-60.4	281	20	
2025-08-31T00:00	11600	221	-50.9	-61.1	284	20	
2025-08-31T00:00	11650	219	-51.0	-62.4	289	19	
2025-08-31T00:00	11700	217	-50.7	-63.8	293	19	
2025-08-31T00:00	11750	215	-51.0	-63.8	295	18	
2025-08-31T00:00	11800	214	-51.4	-64.2	298	18	
2025-08-31T00:00	11850	212	-51.7	-65.0	300	17	
2025-08-31T00:00	11900	210	-51.9	-65.3	301	16	
2025-08-31T00:00	11950	209	-52.3	-65.3	302	15	
2025-08-31T00:00	12000	207	-52.7	-65.3	302	15	
2025-08-31T00:00	12050	206	-53.2	-65.3	302	15	
2025-08-31T00:00	12100	204	-53.6	-65.6	301	14	
2025-08-31T00:00	12150	202	-54.0	-66.0	300	15	
2025-08-31T00:00	12200	201	-54.4	-66.0	299	15	
2025-08-31T00:00	12250	199	-54.8	-66.1	298	15	
2025-08-31T00:00	12300	198	-55.2	-65.9	298	16	
2025-08-31T00:00	12350	196	-55.7	-65.8	299	16	
2025-08-31T00:00	12400	195	-56.0	-65.9	301	15	
2025-08-31T00:00	12450	193	-56.4	-66.3	302	15	
2025-08-31T00:00	12500	192	-56.7	-66.9	303	15	
2025-08-31T00:00	12550	190	-57.1	-67.7	303	14	
2025-08-31T00:00	12600	189	-57.3	-69.0	301	14	
2025-08-31T00:00	12650	187	-57.2	-70.2	300	15	
2025-08-31T00:00	12700	186	-57.5	-70.5	300	16	
2025-08-31T00:00	12750	184	-57.9	-70.3	301	16	
2025-08-31T00:00	12800	183	-58.3	-70.3	302	17	
2025-08-31T00:00	12850	181	-58.6	-70.5	301	17	
2025-08-31T00:00	12900	180	-58.8	-70.8	300	16	
2025-08-31T00:00	12950	178	-59.0	-71.6	300	17	
2025-08-31T00:00	13000	177	-58.8	-73.1	300	17	
2025-08-31T00:00	13050	176	-58.1	-75.1	302	17	
2025-08-31T00:00	13100	174	-57.8	-76.3	304	16	
2025-08-31T00:00	13150	173	-57.7	-76.5	304	16	
2025-08-31T00:00	13200	171	-57.8	-76.3	302	15	
2025-08-31T00:00	13250	170	-58.0	-75.7	300	15	
2025-08-31T00:00	13300	169	-57.7	-75.2	298	15	
2025-08-31T00:00	13350	167	-57.3	-75.6	298	15	
2025-08-31T00:00	13400	166	-57.0	-76.3	297	15	
2025-08-31T00:00	13450	165	-56.9	-76.7	297	15	
2025-08-31T00:00	13500	164	-57.2	-77.1	297	15	
2025-08-31T00:00	13550	162	-57.5	-77.6	297	15	
2025-08-31T00:00	13600	161	-57.6	-78.1	296	15	
2025-08-31T00:00	13650	160	-57.8	-78.4	295	15	
2025-08-31T00:00	13700	158	-58.0	-78.5	295	15	
2025-08-31T00:00	13750	157	-58.1	-78.6	295	14	
2025-08-31T00:00	13800	156	-58.3	-78.8	297	14	
2025-08-31T00:00	13850	155	-58.0	-79.0	299	13	
2025-08-31T00:00	13900	153	-57.6	-79.5	301	12	
2025-08-31T00:00	13950	152	-57.5	-79.9	303	11	
2025-08-31T00:00	14000	151	-57.6	-80.0	304	10	
2025-08-31T00:00	14050	150	-57.8	-79.9	305	10	
2025-08-31T00:00	14100	149	-58.1	-79.9	306	10	
2025-08-31T00:00	14150	147	-58.6	-80.0	307	10	
2025-08-31T00:00	14200	146	-59.0	-80.1	308	11	
2025-08-31T00:00	14250	145	-59.5	-80.1	309	11	
2025-08-31T00:00	14300	144	-59.9	-80.1	310	11	
2025-08-31T00:00	14350	143	-60.1	-80.2	309	11	
2025-08-31T00:00	14400	142	-60.2	-80.2	304	11	
2025-08-31T00:00	14450	141	-60.4	-80.2	298	11	
2025-08-31T00:00	14500	139	-60.6	-80.1	292	12	
2025-08-31T00:00	14550	138	-60.8	-80.1	290	14	
2025-08-31T00:00	14600	137	-60.6	-80.0	293	15	
2025-08-31T00:00	14650	136	-60.6	-79.9	297	15	
2025-08-31T00:00	14700	135	-60.9	-80.0	300	15	
2025-08-31T00:00	14750	134	-61.0	-79.9	304	14	
2025-08-31T00:00	14800	133	-60.8	-79.9	307	13	
2025-08-31T00:00	14850	132	-60.5	-80.3	311	11	
2025-08-31T00:00	14900	131	-59.5	-80.6	314	10	
2025-08-31T00:00	14950	130	-59.1	-81.4	310	8	
2025-08-31T00:00	15000	129	-59.0	-82.3	299	7	
2025-08-31T00:00	15050	128	-58.4	-82.7	287	8	
2025-08-31T00:00	15100	127	-58.3	-82.8	282	9	
2025-08-31T00:00	15150	126	-58.1	-82.8	283	10	
2025-08-31T00:00	15200	125	-58.0	-82.7	288	11	
2025-08-31T00:00	15250	124	-58.1	-82.7	293	11	
2025-08-31T00:00	15300	123	-57.9	-82.6	298	11	
2025-08-31T00:00	15350	122	-57.9	-82.6	299	9	
2025-08-31T00:00	15400	121	-58.2	-82.8	296	8	
2025-08-31T00:00	15450	120	-58.5	-83.0	289	8	
2025-08-31T00:00	15500	119	-58.6	-83.2	286	8	
2025-08-31T00:00	15550	118	-58.8	-83.4	288	9	
2025-08-31T00:00	15600	117	-58.8	-83.6	291	9	
2025-08-31T00:00	15650	116	-58.5	-83.8	295	9	
2025-08-31T00:00	15700	115	-58.2	-83.8	296	8	
2025-08-31T00:00	15750	114	-58.3	-83.9	293	7	
2025-08-31T00:00	15800	113	-58.3	-84.0	288	6	
2025-08-31T00:00	15850	112	-58.3	-84.2	283	6	
2025-08-31T00:00	15900	112	-57.8	-84.2	277	5	
2025-08-31T00:00	15950	111	-57.1	-84.0	272	4	
2025-08-31T00:00	16000	110	-57.2	-84.0	271	4	
2025-08-31T00:00	16050	109	-57.7	-84.0	272	3	
2025-08-31T00:00	16100	108	-58.0	-84.1	266	3	
2025-08-31T00:00	16150	107	-58.0	-84.1	256	3	
2025-08-31T00:00	16200	106	-58.0	-84.1	253	3	
2025-08-31T00:00	16250	106	-58.1	-84.3	261	3	
2025-08-31T00:00	16300	105	-58.2	-84.4	273	3	
2025-08-31T00:00	16350	104	-58.3	-84.4	275	2	
2025-08-31T00:00	16400	103	-58.2	-84.4	238	2	
2025-08-31T00:00	16450	102	-58.2	-84.4	206	2	
2025-08-31T00:00	16500	101	-58.3	-84.3	211	3	
2025-08-31T00:00	16550	101	-58.6	-84.3	229	4	
2025-08-31T00:00	16600	100	-58.7	-84.4	237	5	
2025-08-31T00:00	16650	99	-58.9	-84.4	237	5	
2025-08-31T00:00	16700	98	-59.2	-84.5	238	5	
2025-08-31T00:00	16750	97	-59.2	-84.7	236	5	
2025-08-31T00:00	16800	97	-58.9	-84.6	230	6	
2025-08-31T00:00	16850	96	-58.7	-84.7	227	6	
2025-08-31T00:00	16900	95	-58.9	-85.0	226	7	
2025-08-31T00:00	16950	94	-58.2	-84.7	223	7	
2025-08-31T00:00	17000	94	-58.4	-84.9	223	8	
2025-08-31T00:00	17050	93	-58.5	-84.9	225	9	
2025-08-31T00:00	17100	92	-58.2	-84.7	227	10	
2025-08-31T00:00	17150	91	-58.3	-84.8	227	11	
2025-08-31T00:00	17200	91	-58.5	-84.9	228	12	
2025-08-31T00:00	17250	90	-58.6	-84.9	233	12	
2025-08-31T00:00	17300	89	-58.7	-85.1	238	12	
2025-08-31T00:00	17350	89	-58.6	-85.1	242	12	
2025-08-31T00:00	17400	88	-58.4	-85.1	244	11	
2025-08-31T00:00	17450	87	-58.1	-85.0	245	10	
2025-08-31T00:00	17500	86	-58.2	-85.1	247	10	
2025-08-31T00:00	17550	86	-58.4	-85.1	249	9	
2025-08-31T00:00	17600	85	-58.5	-85.1	249	10	
2025-08-31T00:00	17650	84	-58.6	-85.1	250	10	
2025-08-31T00:00	17700	84	-58.9	-85.3	253	10	
2025-08-31T00:00	17750	83	-59.1	-85.3	258	10	
2025-08-31T00:00	17800	82	-59.2	-85.4	263	9	
2025-08-31T00:00	17850	82	-59.5	-85.6	267	9	
2025-08-31T00:00	17900	81	-59.2	-85.7	270	9	
2025-08-31T00:00	17950	80	-58.3	-85.5	272	7	
2025-08-31T00:00	18000	80	-58.2	-85.6	272	6	
2025-08-31T00:00	18050	79	-58.3	-85.7	273	5	
2025-08-31T00:00	18100	79	-57.9	-85.3	279	5	
2025-08-31T00:00	18150	78	-58.0	-85.4	282	6	
2025-08-31T00:00	18200	77	-58.3	-85.6	274	5	
2025-08-31T00:00	18250	77	-58.0	-85.4	253	4	
2025-08-31T00:00	18300	76	-58.0	-85.5	237	4	
2025-08-31T00:00	18350	76	-57.9	-85.3	239	4	
2025-08-31T00:00	18400	75	-58.0	-85.5	265	3	
2025-08-31T00:00	18450	74	-57.7	-85.6	300	3	
2025-08-31T00:00	18500	74	-57.0	-85.4	304	2	
2025-08-31T00:00	18550	73	-56.4	-85.1	280	1	
2025-08-31T00:00	18600	73	-56.6	-85.1	232	1	
2025-08-31T00:00	18650	72	-56.7	-85.0	165	1	
2025-08-31T00:00	18700	71	-56.7	-85.0	144	2	
2025-08-31T00:00	18750	71	-56.8	-85.0	148	3	
2025-08-31T00:00	18800	70	-57.1	-85.1	159	3	
2025-08-31T00:00	18850	70	-57.0	-85.3	169	4	
2025-08-31T00:00	18900	69	-56.3	-85.1	178	5	
2025-08-31T00:00	18950	69	-56.1	-85.1	184	7	
2025-08-31T00:00	19000	68	-56.1	-84.9	190	8	
2025-08-31T00:00	19050	68	-56.4	-85.0	194	8	
2025-08-31T00:00	19100	67	-56.4	-84.9	192	7	
2025-08-31T00:00	19150	67	-56.4	-85.1	186	6	
2025-08-31T00:00	19200	66	-56.0	-85.1	182	5	
2025-08-31T00:00	19250	66	-55.6	-85.0	177	5	
2025-08-31T00:00	19300	65	-55.3	-84.8	166	4	
2025-08-31T00:00	19350	65	-55.2	-84.6	145	3	
2025-08-31T00:00	19400	64	-55.4	-84.6	115	3	
2025-08-31T00:00	19450	64	-55.6	-84.6	93	3	
2025-08-31T00:00	19500	63	-55.7	-84.7	83	4	
2025-08-31T00:00	19550	63	-55.9	-84.9	83	5	
2025-08-31T00:00	19600	62	-55.7	-85.0	95	4	
2025-08-31T00:00	19650	62	-55.1	-84.8	123	3	
2025-08-31T00:00	19700	61	-54.8	-84.7	155	3	
2025-08-31T00:00	19750	61	-54.6	-84.5	177	4	
2025-08-31T00:00	19800	60	-54.5	-84.3	191	4	
2025-08-31T00:00	19850	60	-54.8	-84.4	203	5	
2025-08-31T00:00	19900	59	-54.9	-84.4	218	5	
2025-08-31T00:00	19950	59	-54.8	-84.4	231	6	
2025-08-31T00:00	20000	58	-54.8	-84.6	243	6	
2025-08-31T00:00	20050	58	-54.5		260	5	
2025-08-31T00:00	20100	57	-54.2		277	5	
2025-08-31T00:00	20150	57	-54.2		289	5	
2025-08-31T00:00	20200	56	-53.9		297	3	
2025-08-31T00:00	20250	56	-53.9		315	2	
2025-08-31T00:00	20300	56	-54.1		54	1	
2025-08-31T00:00	20350	55	-54.2		89	3	
2025-08-31T00:00	20400	55	-54.0		98	5	
2025-08-31T00:00	20450	54	-54.0		103	6	
2025-08-31T00:00	20500	54	-54.2		106	7	
2025-08-31T00:00	20550	53	-54.6		109	8	
2025-08-31T00:00	20600	53	-55.0		113	10	
2025-08-31T00:00	20650	53	-55.3		118	10	
2025-08-31T00:00	20700	52	-54.9		121	10	
2025-08-31T00:00	20750	52	-54.4		122	9	
2025-08-31T00:00	20800	51	-54.6		125	7	
2025-08-31T00:00	20850	51	-54.9		135	6	
2025-08-31T00:00	20900	51	-55.0		151	5	
2025-08-31T00:00	20950	50	-54.9		164	4	
2025-08-31T00:00	21000	50	-55.0		175	4	
2025-08-31T00:00	21050	49	-54.9		184	4	
2025-08-31T00:00	21100	49	-55.0		188	4	
2025-08-31T00:00	21150	49	-55.0		180	4	
2025-08-31T00:00	21200	48	-54.8		163	4	
2025-08-31T00:00	21250	48	-54.8		155	4	
2025-08-31T00:00	21300	48	-54.5		153	5	
2025-08-31T00:00	21350	47	-54.2		152	6	
2025-08-31T00:00	21400	47	-54.2		151	7	
2025-08-31T00:00	21450	46	-54.3		152	7	
2025-08-31T00:00	21500	46	-54.3		154	7	
2025-08-31T00:00	21550	46	-54.5		154	7	
2025-08-31T00:00	21600	45	-54.2		152	7	
2025-08-31T00:00	21650	45	-53.9		147	6	
2025-08-31T00:00	21700	45	-53.7		142	5	
2025-08-31T00:00	21750	44	-53.4		144	4	
2025-08-31T00:00	21800	44	-53.4		151	4	
2025-08-31T00:00	21850	44	-53.3		151	3	
2025-08-31T00:00	21900	43	-53.1		132	2	
2025-08-31T00:00	21950	43	-52.9		72	2	
2025-08-31T00:00	22000	43	-52.8		58	3	
2025-08-31T00:00	22050	42	-52.7		67	4	
2025-08-31T00:00	22100	42	-52.7		80	5	
2025-08-31T00:00	22150	42	-52.7		89	7	
2025-08-31T00:00	22200	41	-52.6		95	8	
2025-08-31T00:00	22250	41	-52.5		98	8	
2025-08-31T00:00	22300	41	-52.5		102	8	
2025-08-31T00:00	22350	40	-52.6		108	7	
2025-08-31T00:00	22400	40	-52.6		116	7	
2025-08-31T00:00	22450	40	-52.9		122	7	
2025-08-31T00:00	22500	39	-53.4		131	7	
2025-08-31T00:00	22550	39	-53.8		138	8	
2025-08-31T00:00	22600	39	-54.0		140	8	
2025-08-31T00:00	22650	39	-53.6		135	7	
2025-08-31T00:00	22700	38	-54.0		126	7	
2025-08-31T00:00	22750	38	-54.1		117	7	
2025-08-31T00:00	22800	38	-54.4		110	7	
2025-08-31T00:00	22850	37	-54.5		110	7	
2025-08-31T00:00	22900	37	-54.4		116	7	
2025-08-31T00:00	22950	37	-54.6		120	7	
2025-08-31T00:00	23000	37	-54.8		116	7	
2025-08-31T00:00	23050	36	-54.7		109	8	
2025-08-31T00:00	23100	36	-54.8		106	8	
2025-08-31T00:00	23150	36	-54.7		103	7	
2025-08-31T00:00	23200	35	-54.3		99	6	
2025-08-31T00:00	23250	35	-54.4		91	5	
2025-08-31T00:00	23300	35	-54.7		76	4	
2025-08-31T00:00	23350	35	-54.8		61	4	
2025-08-31T00:00	23400	34	-54.6		61	5	
2025-08-31T00:00	23450	34	-54.1		72	5	
2025-08-31T00:00	23500	34	-54.2		88	6	
2025-08-31T00:00	23550	33	-54.2		108	5	
2025-08-31T00:00	23600	33	-54.4		124	5	
2025-08-31T00:00	23650	33	-54.2		133	5	
2025-08-31T00:00	23700	33	-53.3		134	4	
2025-08-31T00:00	23750	32	-53.0		132	3	
2025-08-31T00:00	23800	32	-52.9		131	3	
2025-08-31T00:00	23850	32	-52.9		132	3	
2025-08-31T00:00	23900	32	-53.0		132	4	
2025-08-31T00:00	23950	31	-53.2		128	4	
2025-08-31T00:00	24000	31	-53.3		120	5	
2025-08-31T00:00	24050	31	-53.3		114	6	
2025-08-31T00:00	24100	31	-53.1		113	6	
2025-08-31T00:00	24150	31	-52.9		115	6	
2025-08-31T00:00	24200	30	-52.7		117	6	
2025-08-31T00:00	24250	30	-52.8		117	6	
2025-08-31T00:00	24300	30	-52.9		116	5	
2025-08-31T00:00	24350	30	-52.8		110	4	
2025-08-31T00:00	24400	29	-52.8		100	4	
2025-08-31T00:00	24450	29	-53.1		98	5	
2025-08-31T00:00	24500	29	-53.0		108	5	
2025-08-31T00:00	24550	29	-53.1		120	6	
2025-08-31T00:00	24600	28	-53.0		128	7	
2025-08-31T00:00	24650	28	-53.0		131	6	
2025-08-31T00:00	24700	28	-52.6		130	5	
2025-08-31T00:00	24750	28	-52.0		127	4	
2025-08-31T00:00	24800	28	-52.0		123	3	
2025-08-31T00:00	24850	27	-51.8		123	4	
2025-08-31T00:00	24900	27	-51.8		121	5	
2025-08-31T00:00	24950	27	-51.7		118	5	
2025-08-31T00:00	25000	27	-51.6		113	4	
2025-08-31T00:00	25050	27	-51.5		104	4	
2025-08-31T00:00	25100	26	-51.5		87	4	
2025-08-31T00:00	25150	26	-51.7		69	4	
2025-08-31T00:00	25200	26	-51.7		61	6	
2025-08-31T00:00	25250	26	-51.6		63	7	
2025-08-31T00:00	25300	26	-51.6		70	7	
2025-08-31T00:00	25350	25	-51.5		77	7	
2025-08-31T00:00	25400	25	-51.6		79	7	
2025-08-31T00:00	25450	25	-51.6		76	8	
2025-08-31T00:00	25500	25	-51.7		74	8	
2025-08-31T00:00	25550	25	-51.6		76	8	
2025-08-31T00:00	25600	24	-51.6		81	8	
2025-08-31T00:00	25650	24	-51.5		84	9	
2025-08-31T00:00	25700	24	-51.6		83	9	
2025-08-31T00:00	25750	24	-51.4		82	10	
2025-08-31T00:00	25800	24	-51.1		82	11	
2025-08-31T00:00	25850	23	-51.1		80	12	
2025-08-31T00:00	25900	23	-51.1		79	12	
2025-08-31T00:00	25950	23	-51.2		80	12	
2025-08-31T00:00	26000	23	-51.1		85	11	
2025-08-31T00:00	26050	23	-51.1		93	10	
2025-08-31T00:00	26100	23	-51.3		102	10	
2025-08-31T00:00	26150	22	-51.4		112	9	
2025-08-31T00:00	26200	22	-51.5		120	8	
2025-08-31T00:00	26250	22	-51.4		123	7	
2025-08-31T00:00	26300	22	-51.1		118	7	
2025-08-31T00:00	26350	22	-50.9		112	7	
2025-08-31T00:00	26400	22	-50.8		108	8	
2025-08-31T00:00	26450	21	-50.9		105	8	
2025-08-31T00:00	26500	21	-51.0		100	8	
2025-08-31T00:00	26550	21	-51.2		96	8	
2025-08-31T00:00	26600	21	-51.4		94	8	
2025-08-31T00:00	26650	21	-51.6		94	9	
2025-08-31T00:00	26700	21	-51.8		91	9	
2025-08-31T00:00	26750	20	-51.9		89	9	
2025-08-31T00:00	26800	20	-52.0		88	9	
2025-08-31T00:00	26850	20	-52.1		89	8	
2025-08-31T00:00	26900	20	-52.2		93	7	
2025-08-31T00:00	26950	20	-52.4		100	6	
2025-08-31T00:00	27000	20	-52.5		108	5	
2025-08-31T00:00	27050	20	-52.5		115	4	
2025-08-31T00:00	27100	19	-52.0		114	4	
2025-08-31T00:00	27150	19	-51.6		104	4	
2025-08-31T00:00	27200	19	-51.2		94	4	
2025-08-31T00:00	27250	19	-51.1		87	5	
2025-08-31T00:00	27300	19	-51.0		83	5	
2025-08-31T00:00	27350	19	-51.0		79	5	
2025-08-31T00:00	27400	18	-51.0		78	5	
2025-08-31T00:00	27450	18	-51.1		79	7	
2025-08-31T00:00	27500	18	-51.1		83	8	
2025-08-31T00:00	27550	18	-51.1		86	10	
2025-08-31T00:00	27600	18	-51.2		87	10	
2025-08-31T00:00	27650	18	-51.2		86	10	
2025-08-31T00:00	27700	18	-51.3		84	8	
2025-08-31T00:00	27750	18	-51.4		83	7	
2025-08-31T00:00	27800	17	-51.4		85	6	
2025-08-31T00:00	27850	17	-51.3		87	6	
2025-08-31T00:00	27900	17	-51.2		86	7	
2025-08-31T00:00	27950	17	-51.3		86	8	
2025-08-31T00:00	28000	17	-51.5		90	8	
2025-08-31T00:00	28050	17	-51.5		96	8	
2025-08-31T00:00	28100	17	-51.3		102	8	
2025-08-31T00:00	28150	16	-51.2		108	8	
2025-08-31T00:00	28200	16	-51.1		114	7	
2025-08-31T00:00	28250	16	-50.6		119	7	
2025-08-31T00:00	28300	16	-50.6		122	7	
2025-08-31T00:00	28350	16	-50.2		121	6	
2025-08-31T00:00	28400	16	-49.7		115	5	
2025-08-31T00:00	28450	16	-49.1		102	5	
2025-08-31T00:00	28500	16	-49.1		90	5	
2025-08-31T00:00	28550	15	-48.8		84	6	
2025-08-31T00:00	28600	15	-48.4		82	6	
2025-08-31T00:00	28650	15	-48.2		82	6	
2025-08-31T00:00	28700	15	-48.0		82	7	
2025-08-31T00:00	28750	15	-47.9		84	7	
2025-08-31T00:00	28800	15	-47.8		86	7	
2025-08-31T00:00	28850	15	-47.6		89	6	
2025-08-31T00:00	28900	15	-47.1		89	5	
2025-08-31T00:00	28950	15	-46.9		84	5	
2025-08-31T00:00	29000	14	-46.6		73	5	
2025-08-31T00:00	29050	14	-46.4		65	5	
2025-08-31T00:00	29100	14	-46.4		63	6	
2025-08-31T00:00	29150	14	-46.2		67	6	
2025-08-31T00:00	29200	14	-45.9		73	6	
2025-08-31T00:00	29250	14	-45.9		80	7	
2025-08-31T00:00	29300	14	-46.2		86	8	
2025-08-31T00:00	29350	14	-46.4		91	8	
2025-08-31T00:00	29400	14	-46.7		93	8	
2025-08-31T00:00	29450	14	-46.9		93	8	
2025-08-31T00:00	29500	13	-47.1		92	7	
2025-08-31T00:00	29550	13	-47.3		90	5	
2025-08-31T00:00	29600	13	-47.2		86	5	
2025-08-31T00:00	29650	13	-47.1		76	4	
2025-08-31T00:00	29700	13	-47.0		60	4	
2025-08-31T00:00	29750	13	-47.1		46	5	
2025-08-31T00:00	29800	13	-47.3		40	6	
2025-08-31T00:00	29850	13	-47.2		40	6	
2025-08-31T00:00	29900	13	-47.3		43	7	
2025-08-31T00:00	29950	13	-47.5		48	7	
2025-08-31T00:00	30000	12	-47.7		52	7	
2025-08-31T00:00	30050	12	-47.8		56	6	
2025-08-31T00:00	30100	12	-47.9		57	5	
2025-08-31T00:00	30150	12	-48.0		58	4	
2025-08-31T00:00	30200	12	-47.8		59	4	
2025-08-31T00:00	30250	12	-47.9		58	4	
2025-08-31T00:00	30300	12	-48.0		55	4	
2025-08-31T00:00	30350	12	-48.2		50	5	
2025-08-31T00:00	30400	12	-48.3		46	5	
2025-08-31T00:00	30450	12	-48.4		44	6	
2025-08-31T00:00	30500	12	-48.4		44	8	
2025-08-31T00:00	30550	11	-48.5		47	9	
2025-08-31T00:00	30600	11	-48.6		51	9	
2025-08-31T00:00	30650	11	-48.5		55	9	
2025-08-31T00:00	30700	11	-48.4		60	9	
2025-08-31T00:00	30750	11	-48.5		65	9	
2025-08-31T00:00	30800	11	-48.6		70	9	
2025-08-31T00:00	30850	11	-48.6		74	9	
2025-08-31T00:00	30900	11	-48.7		79	8	
2025-08-31T00:00	30950	11	-48.7		83	8	
2025-08-31T00:00	31000	11	-48.6		84	7	
2025-08-31T00:00	31050	11	-48.3		80	6	
2025-08-31T00:00	31100	11	-48.0		70	6	
2025-08-31T00:00	31150	10	-47.9		56	5	
2025-08-31T00:00	31200	10	-47.7		45	5	
2025-08-31T00:00	31250	10	-47.6		39	6	
2025-08-31T00:00	31300	10	-47.4		39	7	
2025-08-31T00:00	31350	10	-47.2		42	8	
2025-08-31T00:00	31400	10	-47.0		48	9	
2025-08-31T00:00	31450	10	-46.9		54	10	
2025-08-31T00:00	31500	10	-46.6		62	12	
2025-08-31T00:00	31550	10	-46.3		69	13	
2025-08-31T00:00	31600	10	-45.7		75	14	
2025-08-31T00:00	31650	10	-45.4		80	14	
2025-08-31T00:00	31700	10	-45.2		82	14	
2025-08-31T00:00	31750	10	-45.2		82	12	
2025-08-31T00:00	31800	9	-45.1		80	11	
2025-08-31T00:00	31850	9	-44.8		74	9	
2025-08-31T00:00	31900	9	-44.7		66	9	
2025-08-31T00:00	31950	9	-44.3		56	8	
2025-08-31T00:00	32000	9	-44.1		48	9	
2025-08-31T00:00	32050	9	-43.8		44	9	
2025-08-31T00:00	32100	9	-43.8		44	10	
2025-08-31T00:00	32150	9	-43.7		49	11	
2025-08-31T00:00	32200	9	-43.7		55	12	
2025-08-31T00:00	32250	9	-43.7		60	14	
2025-08-31T00:00	32300	9	-43.8		63	14	
2025-08-31T00:00	32350	9	-44.0		67	15	
2025-08-31T00:00	32400	9	-44.0		71	16	
2025-08-31T00:00	32450	9	-44.2		76	16	
2025-08-31T00:00	32500	9	-44.3		80	16	
2025-08-31T00:00	32550	8	-44.3		83	15	
2025-08-31T00:00	32600	8	-43.7		84	14	
2025-08-31T00:00	32650	8	-43.2		85	13	
2025-08-31T00:00	32700	8	-42.9		85	12	
2025-08-31T00:00	32750	8	-42.8		84	11	
2025-08-31T00:00	32800	8	-42.5		80	10	
2025-08-31T00:00	32850	8	-42.1		73	10	
2025-08-31T00:00	32900	8	-41.8		66	10	
2025-08-31T00:00	32950	8	-41.6		57	9	
2025-08-31T00:00	33000	8	-41.4		48	9	
2025-08-31T00:00	33050	8	-41.1		43	10	
2025-08-31T00:00	33100	8	-40.8		45	11	
2025-08-31T00:00	33150	8	-40.3		52	12	
2025-08-31T00:00	33200	8	-40.1		57	13	
2025-08-31T00:00	33250	8	-39.6		62	13	
2025-08-31T00:00	33300	8	-39.0		67	13	
2025-08-31T00:00	33350	8	-38.4		74	12	
2025-08-31T00:00	33400	7	-38.4		81	12	
2025-08-31T00:00	33450	7	-38.4		88	12	
2025-08-31T00:00	33500	7	-38.2		96	11	
2025-08-31T00:00	33550	7	-38.1		104	11	
2025-08-31T00:00	33600	7	-38.3		110	11	
2025-08-31T00:00	33650	7	-37.9		113	10	
2025-08-31T00:00	33700	7	-37.3		115	9	
2025-08-31T00:00	33750	7	-37.3		116	8	
2025-08-31T00:00	33800	7	-37.2		116	6	
2025-08-31T00:00	33850	7	-36.9		115	5	
2025-08-31T00:00	33900	7	-36.5		115	4	
2025-08-31T00:00	33950	7	-35.9		124	3	
2025-08-31T00:00	34000	7	-35.4		138	3	
2025-08-31T00:00	34050	7	-34.8		149	3	
2025-08-31T00:00	34100	7	-34.4		153	4	
2025-08-31T00:00	34150	7	-34.4		157	4	
2025-08-31T00:00	34200	7	-34.3		165	4	
2025-08-31T00:00	34250	7	-34.2		175	4	
2025-08-31T00:00	34300	7	-34.2		183	4	
2025-08-31T00:00	34350	7	-34.3		187	4	
2025-08-31T00:00	34400	6	-34.2		190	3	
2025-08-31T00:00	34450	6	-34.2		194	3	
2025-08-31T00:00	34500	6	-34.2		202	3	
2025-08-31T00:00	34550	6	-34.2		212	3	
2025-08-31T00:00	34600	6	-34.2		223	3	
2025-08-31T00:00	34650	6	-34.3		243	2	
2025-08-31T00:00	34700	6	-34.4		286	2	
2025-08-31T00:00	34750	6	-34.3		332	2	
2025-08-31T00:00	34800	6	-33.8		356	4	
2025-08-31T00:00	34850	6	-33.5		10	6	
2025-08-31T00:00	34900	6	-33.1		21	7	
2025-08-31T00:00	34950	6	-33.1		29	8	
2025-08-31T00:00	35000	6	-33.2		36	8	
2025-08-31T00:00	35050	6	-33.5		43	9	
2025-08-31T00:00	35100	6	-33.8		47	10	
2025-08-31T00:00	35150	6	-33.9		52	12	
2025-08-31T00:00	35200	6	-34.0		58	13	
2025-08-31T00:00	35250	6	-34.0		64	13	
2025-08-31T00:00	35300	6	-33.8		70	13	
2025-08-31T00:00	35350	6	-33.8		76	13	
2025-08-31T00:00	35400	6	-33.9		82	12	
2025-08-31T00:00	35450	6	-34.0		88	12	
2025-08-31T00:00	35500	6	-34.1		96	11	
2025-08-31T00:00	35550	5	-34.2		103	11	
2025-08-31T00:00	35600	5	-34.4		109	11	
2025-08-31T00:00	35650	5	-34.4		110	10	
2025-08-31T00:00	35700	5	-34.1		108	9	
2025-08-31T00:00	35750	5	-33.7		102	8	
2025-08-31T00:00	35800	5	-33.2		96	8	
2025-08-31T00:00	35850	5	-32.8		88	8	
2025-08-31T00:00	35900	5	-32.6		80	8	
2025-08-31T00:00	35950	5	-32.4		71	8	
2025-08-31T00:00	36000	5	-32.4		63	8	
2025-08-31T00:00	36050	5	-32.4		58	8	
2025-08-31T00:00	36100	5	-32.4		55	9	
2025-08-31T00:00	36150	5	-32.4		54	9	
2025-08-31T00:00	36200	5	-32.7		52	9	
2025-08-31T00:00	36250	5	-32.9		49	9	
2025-08-31T00:00	36300	5	-33.0		46	9	
2025-08-31T00:00	36350	5	-32.9		44	9	
2025-08-31T00:00	36400	5	-33.0		43	9	
2025-08-31T00:00	36450	5	-33.3		44	9	
2025-08-31T00:00	36500	5	-33.5		45	9	
2025-08-31T00:00	36550	5	-33.6		45	10	
2025-08-31T00:00	36600	5	-33.7		44	11	
2025-08-31T00:00	36650	5	-33.8		43	12	
2025-08-31T00:00	36700	5	-33.8		42	14	
2025-08-31T00:00	36750	5	-33.5		42	15	
2025-08-31T00:00	36800	5	-33.2		42	16	
2025-08-31T00:00	36850	5	-32.8		44	17	
2025-08-31T00:00	36900	5	-32.4		47	17	
2025-08-31T00:00	36950	4	-32.2		48	17	
2025-08-31T00:00	37000	4	-32.4		45	17	
2025-08-31T12:00	491	956	20.6	12.6	2	3	
2025-08-31T12:00	501	955	20.2	11.9	3	2	
2025-08-31T12:00	520	953	19.0	11.5	2	2	
2025-08-31T12:00	540	951	18.9	11.2	4	2	
2025-08-31T12:00	560	949	18.7	11.1	6	2	
2025-08-31T12:00	580	947	18.5	11.1	12	2	
2025-08-31T12:00	600	944	18.3	11.1	20	2	
2025-08-31T12:00	620	942	18.1	11.0	28	2	
2025-08-31T12:00	640	940	17.9	11.0	35	2	
2025-08-31T12:00	660	938	17.7	11.0	39	2	
2025-08-31T12:00	680	936	17.5	10.9	43	2	
2025-08-31T12:00	700	933	17.4	10.9	44	2	
2025-08-31T12:00	720	931	17.2	10.9	44	2	
2025-08-31T12:00	740	929	17.0	11.0	44	2	
2025-08-31T12:00	760	927	16.8	10.9	45	3	
2025-08-31T12:00	780	925	16.5	10.8	46	3	
2025-08-31T12:00	800	922	16.4	10.8	48	3	
2025-08-31T12:00	820	920	16.3	10.9	50	3	
2025-08-31T12:00	840	918	16.0	10.8	52	3	
2025-08-31T12:00	860	916	15.9	10.7	56	3	
2025-08-31T12:00	880	914	15.6	10.7	59	3	
2025-08-31T12:00	900	912	15.5	10.8	62	3	
2025-08-31T12:00	920	910	15.4	10.7	66	3	
2025-08-31T12:00	940	907	15.2	10.7	74	2	
2025-08-31T12:00	960	905	15.1	10.4	83	2	
2025-08-31T12:00	980	903	14.9	10.4	103	1	
2025-08-31T12:00	1000	901	14.7	10.3	153	1	
2025-08-31T12:00	1020	899	14.5	10.2	188	1	
2025-08-31T12:00	1040	897	14.5	9.9	198	1	
2025-08-31T12:00	1060	895	14.4	9.8	200	2	
2025-08-31T12:00	1080	893	14.5	8.8	201	2	
2025-08-31T12:00	1100	890	14.8	8.2	203	2	
2025-08-31T12:00	1120	888	14.8	8.3	207	2	
2025-08-31T12:00	1140	886	14.6	8.5	214	1	
2025-08-31T12:00	1160	884	14.5	8.8	224	1	
2025-08-31T12:00	1180	882	14.4	8.7	231	1	
2025-08-31T12:00	1200	880	14.3	8.7	234	1	
2025-08-31T12:00	1220	878	14.2	8.6	233	1	
2025-08-31T12:00	1240	876	14.1	8.6	227	0	
2025-08-31T12:00	1260	874	13.9	8.5	217	0	
2025-08-31T12:00	1280	872	13.7	8.5	214	1	
2025-08-31T12:00	1300	869	13.6	8.5	218	1	
2025-08-31T12:00	1320	868	13.6	8.4	221	1	
2025-08-31T12:00	1340	866	13.6	8.3	225	1	
2025-08-31T12:00	1360	863	13.5	8.3	228	2	
2025-08-31T12:00	1380	861	13.3	8.3	230	2	
2025-08-31T12:00	1400	859	13.2	8.2	231	2	
2025-08-31T12:00	1420	857	13.0	8.1	230	2	
2025-08-31T12:00	1440	855	12.9	8.1	229	3	
2025-08-31T12:00	1460	853	12.7	8.1	227	3	
2025-08-31T12:00	1480	851	12.5	8.1	224	3	
2025-08-31T12:00	1500	849	12.4	8.0	221	3	
2025-08-31T12:00	1520	847	12.3	8.0	217	4	
2025-08-31T12:00	1540	845	12.1	7.8	211	4	
2025-08-31T12:00	1560	843	11.9	7.8	206	4	
2025-08-31T12:00	1580	841	11.8	7.5	200	4	
2025-08-31T12:00	1600	839	11.7	7.0	196	4	
2025-08-31T12:00	1620	837	11.5	6.9	194	4	
2025-08-31T12:00	1640	835	11.6	6.4	193	5	
2025-08-31T12:00	1660	833	11.8	6.3	194	5	
2025-08-31T12:00	1680	831	11.6	6.1	196	5	
2025-08-31T12:00	1700	829	11.5	6.3	197	5	
2025-08-31T12:00	1720	827	11.5	6.6	199	5	
2025-08-31T12:00	1740	825	11.4	6.4	200	5	
2025-08-31T12:00	1760	823	11.5	5.4	202	5	
2025-08-31T12:00	1780	821	11.8	4.7	205	5	
2025-08-31T12:00	1800	819	11.7	5.7	208	5	
2025-08-31T12:00	1820	817	11.5	6.0	211	5	
2025-08-31T12:00	1840	815	11.3	5.9	215	5	
2025-08-31T12:00	1860	814	11.4	4.7	217	5	
2025-08-31T12:00	1880	812	11.6	3.4	217	5	
2025-08-31T12:00	1900	810	11.6	3.1	215	5	
2025-08-31T12:00	1920	808	11.6	3.5	212	5	
2025-08-31T12:00	1940	806	11.4	5.8	207	5	
2025-08-31T12:00	1960	804	11.2	6.3	199	4	
2025-08-31T12:00	1980	802	11.1	6.4	191	3	
2025-08-31T12:00	2000	800	10.9	6.6	184	3	
2025-08-31T12:00	2020	798	10.8	6.3	181	3	
2025-08-31T12:00	2040	796	10.7	6.2	183	3	
2025-08-31T12:00	2060	794	10.6	6.1	187	3	
2025-08-31T12:00	2080	793	10.6	6.1	191	4	
2025-08-31T12:00	2100	790	10.5	5.9	196	4	
2025-08-31T12:00	2120	789	10.4	5.7	201	5	
2025-08-31T12:00	2140	787	10.2	5.7	206	5	
2025-08-31T12:00	2160	785	10.1	5.6	211	6	
2025-08-31T12:00	2180	783	10.0	5.8	215	6	
2025-08-31T12:00	2200	781	10.0	5.9	218	6	
2025-08-31T12:00	2220	779	9.9	5.9	220	7	
2025-08-31T12:00	2240	777	9.7	5.8	222	7	
2025-08-31T12:00	2260	775	9.5	5.7	223	7	
2025-08-31T12:00	2280	774	9.4	5.6	223	7	
2025-08-31T12:00	2300	772	9.3	5.4	224	7	
2025-08-31T12:00	2320	770	9.1	5.4	225	7	
2025-08-31T12:00	2340	768	8.9	5.3	226	7	
2025-08-31T12:00	2360	766	8.8	5.2	227	7	
2025-08-31T12:00	2380	765	8.6	5.2	227	7	
2025-08-31T12:00	2400	763	8.5	5.0	228	7	
2025-08-31T12:00	2420	761	8.3	4.9	228	8	
2025-08-31T12:00	2440	759	8.1	4.9	228	8	
2025-08-31T12:00	2460	757	8.0	4.9	226	8	
2025-08-31T12:00	2480	755	7.8	4.9	225	8	
2025-08-31T12:00	2500	753	7.7	4.8	224	8	
2025-08-31T12:00	2520	752	7.6	4.7	223	8	
2025-08-31T12:00	2540	750	7.5	4.6	222	8	
2025-08-31T12:00	2560	748	7.5	4.5	221	8	
2025-08-31T12:00	2580	746	7.5	4.3	221	7	
2025-08-31T12:00	2600	744	7.6	4.1	221	7	
2025-08-31T12:00	2620	742	7.5	3.9	221	7	
2025-08-31T12:00	2640	741	7.4	3.5	223	7	
2025-08-31T12:00	2660	739	7.3	2.5	225	7	
2025-08-31T12:00	2680	737	7.3	-0.2	227	7	
2025-08-31T12:00	2700	735	7.1	-0.7	230	7	
2025-08-31T12:00	2720	733	7.0	-1.0	232	7	
2025-08-31T12:00	2740	732	6.9	-1.6	234	6	
2025-08-31T12:00	2760	730	6.8	-2.4	235	6	
2025-08-31T12:00	2780	728	6.7	-2.8	235	6	
2025-08-31T12:00	2800	726	6.6	-3.0	234	6	
2025-08-31T12:00	2820	725	6.5	-3.3	231	6	
2025-08-31T12:00	2840	723	6.4	-3.3	229	6	
2025-08-31T12:00	2860	721	6.3	-2.5	226	6	
2025-08-31T12:00	2880	719	6.2	-2.3	225	6	
2025-08-31T12:00	2900	718	6.2	-2.4	225	6	
2025-08-31T12:00	2920	716	6.0	-2.3	225	6	
2025-08-31T12:00	2940	714	6.0	-2.7	227	6	
2025-08-31T12:00	2960	712	5.9	-2.4	228	6	
2025-08-31T12:00	2980	711	5.7	-2.6	229	6	
2025-08-31T12:00	3000	709	5.6	-3.3	230	6	
2025-08-31T12:00	3020	707	5.5	-3.5	230	6	
2025-08-31T12:00	3040	705	5.4	-3.6	229	7	
2025-08-31T12:00	3060	704	5.4	-3.8	228	8	
2025-08-31T12:00	3080	702	5.4	-4.8	227	8	
2025-08-31T12:00	3100	700	5.4	-6.4	227	9	
2025-08-31T12:00	3120	699	5.3	-7.0	227	9	
2025-08-31T12:00	3140	697	5.2	-7.8	227	9	
2025-08-31T12:00	3160	695	5.1	-7.7	228	9	
2025-08-31T12:00	3180	693	4.9	-7.4	228	9	
2025-08-31T12:00	3200	692	4.8	-7.2	228	9	
2025-08-31T12:00	3220	690	4.6	-7.7	228	9	
2025-08-31T12:00	3240	688	4.5	-7.9	227	9	
2025-08-31T12:00	3260	687	4.3	-6.3	226	10	
2025-08-31T12:00	3280	685	4.1	-6.3	226	10	
2025-08-31T12:00	3300	683	4.0	-7.4	225	9	
2025-08-31T12:00	3320	682	3.9	-6.9	225	9	
2025-08-31T12:00	3340	680	3.8	-7.2	225	9	
2025-08-31T12:00	3360	678	3.6	-6.7	224	8	
2025-08-31T12:00	3380	676	3.5	-7.6	223	8	
2025-08-31T12:00	3400	675	3.4	-8.1	222	8	
2025-08-31T12:00	3420	673	3.2	-8.4	221	8	
2025-08-31T12:00	3440	672	3.0	-7.4	220	8	
2025-08-31T12:00	3460	670	2.8	-6.0	220	8	
2025-08-31T12:00	3480	668	2.7	-6.0	219	9	
2025-08-31T12:00	3500	667	2.6	-5.6	219	9	
2025-08-31T12:00	3520	665	2.4	-5.6	220	9	
2025-08-31T12:00	3540	663	2.2	-5.5	221	10	
2025-08-31T12:00	3560	662	2.0	-5.2	222	10	
2025-08-31T12:00	3580	660	1.9	-5.2	224	10	
2025-08-31T12:00	3600	658	1.8	-5.0	226	10	
2025-08-31T12:00	3620	657	1.6	-5.1	229	9	
2025-08-31T12:00	3640	655	1.5	-5.1	230	9	
2025-08-31T12:00	3660	654	1.4	-5.1	232	8	
2025-08-31T12:00	3680	652	1.3	-5.0	234	8	
2025-08-31T12:00	3700	650	1.1	-5.0	235	7	
2025-08-31T12:00	3720	649	0.9	-5.1	236	7	
2025-08-31T12:00	3740	647	0.8	-5.2	236	7	
2025-08-31T12:00	3760	645	0.6	-5.3	237	7	
2025-08-31T12:00	3780	644	0.4	-5.4	239	7	
2025-08-31T12:00	3800	642	0.2	-5.6	242	7	
2025-08-31T12:00	3820	641	0.2	-6.3	243	7	
2025-08-31T12:00	3840	639	0.1	-6.5	245	7	
2025-08-31T12:00	3860	637	0.0	-6.7	248	7	
2025-08-31T12:00	3880	636	-0.1	-6.7	251	7	
2025-08-31T12:00	3900	634	-0.1	-7.1	253	6	
2025-08-31T12:00	3920	633	-0.2	-6.8	256	6	
2025-08-31T12:00	3940	631	-0.4	-5.8	258	6	
2025-08-31T12:00	3960	629	-0.5	-5.1	260	6	
2025-08-31T12:00	3980	628	-0.6	-3.4	260	7	
2025-08-31T12:00	4000	626	-0.6	-2.1	259	7	
2025-08-31T12:00	4020	625	-0.7	-2.0	259	8	
2025-08-31T12:00	4040	623	-0.6	-2.5	260	8	
2025-08-31T12:00	4060	622	-0.7	-3.0	262	9	
2025-08-31T12:00	4080	620	-0.9	-3.3	265	9	
2025-08-31T12:00	4100	619	-1.0	-3.4	268	9	
2025-08-31T12:00	4120	617	-1.2	-3.6	270	9	
2025-08-31T12:00	4140	616	-1.3	-3.7	271	9	
2025-08-31T12:00	4160	614	-1.5	-3.8	272	9	
2025-08-31T12:00	4180	613	-1.7	-3.9	272	9	
2025-08-31T12:00	4200	611	-1.9	-3.9	270	8	
2025-08-31T12:00	4220	609	-2.0	-4.0	269	8	
2025-08-31T12:00	4240	608	-2.1	-4.1	268	8	
2025-08-31T12:00	4260	606	-2.2	-4.2	266	8	
2025-08-31T12:00	4280	605	-2.3	-4.4	264	8	
2025-08-31T12:00	4300	603	-2.4	-4.3	262	8	
2025-08-31T12:00	4320	602	-2.4	-4.4	261	8	
2025-08-31T12:00	4340	600	-2.2	-4.4	260	9	
2025-08-31T12:00	4360	599	-2.2	-4.5	260	9	
2025-08-31T12:00	4380	597	-2.0	-5.6	261	9	
2025-08-31T12:00	4400	596	-2.0	-5.9	261	9	
2025-08-31T12:00	4420	594	-2.1	-5.3	261	9	
2025-08-31T12:00	4440	593	-2.1	-5.3	260	9	
2025-08-31T12:00	4460	591	-2.2	-4.7	259	9	
2025-08-31T12:00	4480	590	-2.4	-4.8	257	9	
2025-08-31T12:00	4500	588	-2.5	-5.0	254	9	
2025-08-31T12:00	4520	587	-2.5	-5.6	253	10	
2025-08-31T12:00	4540	585	-2.5	-6.9	252	10	
2025-08-31T12:00	4560	584	-2.5	-9.5	252	10	
2025-08-31T12:00	4580	582	-2.6	-9.8	254	10	
2025-08-31T12:00	4600	581	-2.7	-8.8	255	10	
2025-08-31T12:00	4620	580	-2.9	-7.7	257	10	
2025-08-31T12:00	4640	578	-3.0	-8.4	258	10	
2025-08-31T12:00	4660	577	-3.1	-11.4	260	10	
2025-08-31T12:00	4680	575	-3.2	-12.8	262	9	
2025-08-31T12:00	4700	574	-3.3	-13.5	262	10	
2025-08-31T12:00	4720	572	-3.4	-14.7	262	10	
2025-08-31T12:00	4740	571	-3.6	-15.2	261	10	
2025-08-31T12:00	4760	569	-3.7	-15.9	259	10	
2025-08-31T12:00	4780	568	-3.8	-16.5	257	10	
2025-08-31T12:00	4800	566	-3.9	-16.6	255	10	
2025-08-31T12:00	4820	565	-4.0	-16.5	253	10	
2025-08-31T12:00	4840	564	-4.2	-16.6	251	10	
2025-08-31T12:00	4860	562	-4.4	-17.1	249	10	
2025-08-31T12:00	4880	561	-4.6	-17.0	248	9	
2025-08-31T12:00	4900	559	-4.8	-17.2	247	9	
2025-08-31T12:00	4920	558	-4.9	-17.2	246	9	
2025-08-31T12:00	4940	557	-5.1	-17.2	246	9	
2025-08-31T12:00	4960	555	-5.2	-17.7	246	9	
2025-08-31T12:00	4980	554	-5.3	-18.2	247	9	
2025-08-31T12:00	5000	552	-5.5	-18.1	247	9	
2025-08-31T12:00	5020	551	-5.5	-18.5	246	8	
2025-08-31T12:00	5040	549	-5.6	-18.7	245	8	
2025-08-31T12:00	5060	548	-5.7	-18.7	244	8	
2025-08-31T12:00	5080	547	-5.8	-17.9	243	8	
2025-08-31T12:00	5100	545	-6.0	-15.4	242	8	
2025-08-31T12:00	5120	544	-6.1	-11.2	241	7	
2025-08-31T12:00	5140	542	-6.2	-11.4	241	7	
2025-08-31T12:00	5160	541	-6.2	-13.5	241	8	
2025-08-31T12:00	5180	540	-6.3	-12.1	241	8	
2025-08-31T12:00	5200	538	-6.4	-10.7	241	8	
2025-08-31T12:00	5220	537	-6.4	-10.8	241	8	
2025-08-31T12:00	5240	536	-6.6	-11.0	240	9	
2025-08-31T12:00	5260	534	-6.7	-11.4	240	9	
2025-08-31T12:00	5280	533	-6.8	-11.5	239	9	
2025-08-31T12:00	5300	531	-6.9	-12.9	239	9	
2025-08-31T12:00	5320	530	-7.0	-14.5	238	9	
2025-08-31T12:00	5340	529	-7.1	-14.5	238	9	
2025-08-31T12:00	5360	527	-7.3	-13.9	239	9	
2025-08-31T12:00	5380	526	-7.5	-13.5	239	9	
2025-08-31T12:00	5400	525	-7.6	-13.2	241	9	
2025-08-31T12:00	5420	523	-7.8	-13.1	242	9	
2025-08-31T12:00	5440	522	-8.0	-12.7	243	9	
2025-08-31T12:00	5460	521	-8.1	-12.7	242	9	
2025-08-31T12:00	5480	519	-8.3	-13.0	242	9	
2025-08-31T12:00	5500	518	-8.3	-13.8	239	9	
2025-08-31T12:00	5520	517	-8.3	-15.1	236	9	
2025-08-31T12:00	5540	515	-8.4	-15.6	234	9	
2025-08-31T12:00	5560	514	-8.5	-16.1	233	9	
2025-08-31T12:00	5580	513	-8.5	-18.1	232	9	
2025-08-31T12:00	5600	511	-8.6	-19.1	232	9	
2025-08-31T12:00	5620	510	-8.8	-19.3	233	10	
2025-08-31T12:00	5640	509	-8.9	-19.5	234	10	
2025-08-31T12:00	5660	507	-9.1	-19.7	235	9	
2025-08-31T12:00	5680	506	-9.2	-20.5	236	9	
2025-08-31T12:00	5700	505	-9.3	-20.8	236	9	
2025-08-31T12:00	5720	504	-9.4	-21.3	237	9	
2025-08-31T12:00	5740	502	-9.5	-21.6	238	9	
2025-08-31T12:00	5760	501	-9.7	-21.4	239	10	
2025-08-31T12:00	5780	500	-9.8	-20.9	240	10	
2025-08-31T12:00	5800	498	-10.0	-20.4	241	10	
2025-08-31T12:00	5820	497	-10.2	-20.1	241	10	
2025-08-31T12:00	5840	496	-10.3	-20.2	242	10	
2025-08-31T12:00	5860	494	-10.6	-20.1	243	10	
2025-08-31T12:00	5880	493	-10.7	-20.0	243	10	
2025-08-31T12:00	5900	492	-10.9	-19.8	244	10	
2025-08-31T12:00	5920	491	-11.1	-19.5	246	10	
2025-08-31T12:00	5940	489	-11.3	-19.4	247	10	
2025-08-31T12:00	5960	488	-11.5	-18.8	249	10	
2025-08-31T12:00	5980	487	-11.6	-18.4	250	10	
2025-08-31T12:00	6000	486	-11.8	-18.0	251	10	
2025-08-31T12:00	6020	484	-12.0	-18.0	253	10	
2025-08-31T12:00	6040	483	-12.2	-17.9	253	10	
2025-08-31T12:00	6060	482	-12.4	-17.7	254	9	
2025-08-31T12:00	6080	480	-12.6	-17.7	254	9	
2025-08-31T12:00	6100	479	-12.8	-17.2	254	9	
2025-08-31T12:00	6120	478	-12.9	-16.7	254	9	
2025-08-31T12:00	6140	477	-13.1	-15.9	253	9	
2025-08-31T12:00	6160	476	-13.2	-16.4	252	9	
2025-08-31T12:00	6180	474	-13.2	-17.7	250	9	
2025-08-31T12:00	6200	473	-13.3	-17.6	248	9	
2025-08-31T12:00	6220	472	-13.5	-17.4	246	9	
2025-08-31T12:00	6240	470	-13.7	-16.8	244	8	
2025-08-31T12:00	6260	469	-13.9	-16.4	242	8	
2025-08-31T12:00	6280	468	-14.0	-17.4	241	8	
2025-08-31T12:00	6300	467	-14.1	-20.0	240	8	
2025-08-31T12:00	6320	465	-14.2	-20.4	239	8	
2025-08-31T12:00	6340	464	-14.3	-19.6	239	8	
2025-08-31T12:00	6360	463	-14.5	-18.6	240	8	
2025-08-31T12:00	6380	462	-14.6	-18.1	240	8	
2025-08-31T12:00	6400	461	-14.7	-18.7	241	8	
2025-08-31T12:00	6420	459	-14.8	-19.3	242	8	
2025-08-31T12:00	6440	458	-14.9	-19.7	243	9	
2025-08-31T12:00	6460	457	-15.0	-20.0	243	9	
2025-08-31T12:00	6480	456	-15.2	-20.5	244	9	
2025-08-31T12:00	6500	455	-15.3	-21.0	244	10	
2025-08-31T12:00	6520	453	-15.5	-21.1	244	10	
2025-08-31T12:00	6540	452	-15.6	-22.0	244	10	
2025-08-31T12:00	6560	451	-15.7	-22.4	244	10	
2025-08-31T12:00	6580	450	-15.8	-22.9	244	10	
2025-08-31T12:00	6600	449	-15.9	-25.2	243	10	
2025-08-31T12:00	6620	447	-16.0	-26.4	243	10	
2025-08-31T12:00	6640	446	-16.1	-27.8	244	10	
2025-08-31T12:00	6660	445	-16.2	-28.6	244	10	
2025-08-31T12:00	6680	444	-16.3	-27.9	246	10	
2025-08-31T12:00	6700	443	-16.5	-28.6	247	10	
2025-08-31T12:00	6720	442	-16.6	-29.7	248	10	
2025-08-31T12:00	6740	440	-16.7	-31.0	249	10	
2025-08-31T12:00	6760	439	-16.6	-31.8	250	10	
2025-08-31T12:00	6780	438	-16.6	-30.7	250	11	
2025-08-31T12:00	6800	437	-16.7	-30.1	251	11	
2025-08-31T12:00	6820	436	-16.8	-30.0	252	12	
2025-08-31T12:00	6840	434	-16.9	-29.6	253	12	
2025-08-31T12:00	6860	433	-17.1	-29.8	254	13	
2025-08-31T12:00	6880	432	-17.3	-29.8	254	13	
2025-08-31T12:00	6900	431	-17.5	-29.7	254	13	
2025-08-31T12:00	6920	430	-17.6	-29.1	254	13	
2025-08-31T12:00	6940	429	-17.8	-29.4	253	13	
2025-08-31T12:00	6960	428	-17.9	-28.9	252	13	
2025-08-31T12:00	6980	426	-18.1	-28.1	251	13	
2025-08-31T12:00	7000	425	-18.3	-27.9	250	13	
2025-08-31T12:00	7020	424	-18.5	-28.0	250	13	
2025-08-31T12:00	7040	423	-18.6	-28.7	250	13	
2025-08-31T12:00	7060	422	-18.8	-30.3	250	13	
2025-08-31T12:00	7080	421	-18.9	-31.9	251	13	
2025-08-31T12:00	7100	420	-19.1	-30.9	251	12	
2025-08-31T12:00	7120	419	-19.2	-31.6	251	12	
2025-08-31T12:00	7140	417	-19.4	-29.1	252	12	
2025-08-31T12:00	7160	416	-19.6	-28.7	252	12	
2025-08-31T12:00	7180	415	-19.7	-29.0	251	12	
2025-08-31T12:00	7200	414	-19.9	-29.3	251	12	
2025-08-31T12:00	7220	413	-20.0	-29.4	250	12	
2025-08-31T12:00	7240	412	-20.2	-30.0	249	12	
2025-08-31T12:00	7260	411	-20.4	-29.7	248	12	
2025-08-31T12:00	7280	409	-20.6	-29.2	248	12	
2025-08-31T12:00	7300	408	-20.8	-29.1	248	12	
2025-08-31T12:00	7320	407	-20.9	-29.3	248	12	
2025-08-31T12:00	7340	406	-21.1	-30.4	248	12	
2025-08-31T12:00	7360	405	-21.3	-31.3	248	12	
2025-08-31T12:00	7380	404	-21.4	-30.6	248	11	
2025-08-31T12:00	7400	403	-21.6	-29.0	248	11	
2025-08-31T12:00	7420	402	-21.8	-27.6	249	11	
2025-08-31T12:00	7440	401	-22.0	-26.7	249	10	
2025-08-31T12:00	7460	400	-22.1	-26.9	250	10	
2025-08-31T12:00	7480	399	-22.3	-27.1	250	10	
2025-08-31T12:00	7500	398	-22.5	-27.5	251	10	
2025-08-31T12:00	7520	396	-22.7	-27.7	251	10	
2025-08-31T12:00	7540	395	-22.8	-28.6	251	10	
2025-08-31T12:00	7560	394	-23.0	-29.2	251	10	
2025-08-31T12:00	7580	393	-23.2	-29.8	250	10	
2025-08-31T12:00	7600	392	-23.4	-31.5	250	10	
2025-08-31T12:00	7620	391	-23.5	-31.9	249	10	
2025-08-31T12:00	7640	390	-23.7	-31.8	249	10	
2025-08-31T12:00	7660	389	-23.9	-31.8	247	9	
2025-08-31T12:00	7680	388	-24.0	-32.5	246	9	
2025-08-31T12:00	7700	387	-24.1	-33.3	245	9	
2025-08-31T12:00	7720	386	-24.2	-32.9	244	9	
2025-08-31T12:00	7740	385	-24.3	-32.7	244	9	
2025-08-31T12:00	7760	384	-24.5	-32.8	244	9	
2025-08-31T12:00	7780	383	-24.7	-32.9	244	10	
2025-08-31T12:00	7800	381	-24.9	-33.0	245	10	
2025-08-31T12:00	7820	380	-25.1	-32.9	245	10	
2025-08-31T12:00	7840	379	-25.3	-32.9	246	11	
2025-08-31T12:00	7860	378	-25.5	-33.0	246	11	
2025-08-31T12:00	7880	377	-25.7	-33.3	246	11	
2025-08-31T12:00	7900	376	-25.8	-33.4	246	11	
2025-08-31T12:00	7920	375	-26.0	-33.6	245	11	
2025-08-31T12:00	7940	374	-26.1	-33.9	244	11	
2025-08-31T12:00	7960	373	-26.2	-34.6	243	10	
2025-08-31T12:00	7980	372	-26.3	-35.1	242	10	
2025-08-31T12:00	8000	371	-26.3	-35.4	242	10	
2025-08-31T12:00	8020	370	-26.5	-35.5	243	10	
2025-08-31T12:00	8040	369	-26.7	-35.6	245	10	
2025-08-31T12:00	8060	368	-26.8	-36.3	246	10	
2025-08-31T12:00	8080	367	-26.9	-37.2	247	10	
2025-08-31T12:00	8100	366	-27.0	-37.9	248	10	
2025-08-31T12:00	8120	365	-27.1	-38.3	248	10	
2025-08-31T12:00	8140	364	-27.3	-38.2	247	11	
2025-08-31T12:00	8160	363	-27.5	-38.3	246	11	
2025-08-31T12:00	8180	362	-27.6	-38.9	244	12	
2025-08-31T12:00	8200	361	-27.7	-40.4	243	12	
2025-08-31T12:00	8220	360	-27.8	-40.4	243	12	
2025-08-31T12:00	8240	359	-27.9	-38.5	242	12	
2025-08-31T12:00	8260	358	-28.0	-37.9	242	12	
2025-08-31T12:00	8280	357	-28.1	-38.0	241	12	
2025-08-31T12:00	8300	356	-28.2	-38.8	240	12	
2025-08-31T12:00	8320	355	-28.3	-39.5	239	12	
2025-08-31T12:00	8340	354	-28.4	-39.7	238	12	
2025-08-31T12:00	8360	353	-28.5	-39.8	237	12	
2025-08-31T12:00	8380	352	-28.7	-39.9	236	12	
2025-08-31T12:00	8400	351	-28.8	-40.1	236	12	
2025-08-31T12:00	8420	350	-29.0	-40.6	236	12	
2025-08-31T12:00	8440	349	-29.1	-41.0	237	12	
2025-08-31T12:00	8460	348	-29.0	-42.0	238	12	
2025-08-31T12:00	8480	347	-29.1	-41.8	239	12	
2025-08-31T12:00	8500	346	-29.2	-41.5	240	12	
2025-08-31T12:00	8520	345	-29.4	-41.3	240	12	
2025-08-31T12:00	8540	344	-29.6	-41.2	240	12	
2025-08-31T12:00	8560	343	-29.7	-41.1	238	12	
2025-08-31T12:00	8580	342	-29.9	-40.9	236	12	
2025-08-31T12:00	8600	341	-30.0	-39.5	232	12	
2025-08-31T12:00	8620	340	-30.2	-38.8	230	12	
2025-08-31T12:00	8640	339	-30.3	-39.8	227	12	
2025-08-31T12:00	8660	339	-30.3	-40.5	226	12	
2025-08-31T12:00	8680	338	-30.4	-39.9	225	12	
2025-08-31T12:00	8700	337	-30.5	-39.2	225	12	
2025-08-31T12:00	8720	336	-30.7	-38.7	225	12	
2025-08-31T12:00	8740	335	-30.9	-38.6	226	12	
2025-08-31T12:00	8760	334	-31.1	-38.7	226	11	
2025-08-31T12:00	8780	333	-31.3	-38.8	226	11	
2025-08-31T12:00	8800	332	-31.4	-39.0	225	11	
2025-08-31T12:00	8820	331	-31.6	-39.0	224	11	
2025-08-31T12:00	8840	330	-31.8	-39.1	224	11	
2025-08-31T12:00	8860	329	-31.9	-39.2	223	11	
2025-08-31T12:00	8880	328	-32.1	-39.6	223	11	
2025-08-31T12:00	8900	327	-32.2	-40.1	223	12	
2025-08-31T12:00	8920	326	-32.4	-40.8	224	12	
2025-08-31T12:00	8940	325	-32.5	-40.9	225	12	
2025-08-31T12:00	8960	324	-32.7	-40.9	225	12	
2025-08-31T12:00	8980	324	-32.9	-40.9	226	12	
2025-08-31T12:00	9000	323	-33.0	-41.5	227	12	
2025-08-31T12:00	9020	322	-33.0	-42.0	227	12	
2025-08-31T12:00	9040	321	-33.2	-42.3	228	12	
2025-08-31T12:00	9060	320	-33.3	-42.6	229	12	
2025-08-31T12:00	9080	319	-33.5	-42.7	230	12	
2025-08-31T12:00	9100	318	-33.7	-42.7	231	12	
2025-08-31T12:00	9120	317	-33.8	-42.8	232	12	
2025-08-31T12:00	9140	316	-34.0	-42.9	233	13	
2025-08-31T12:00	9160	315	-34.2	-42.9	234	13	
2025-08-31T12:00	9180	314	-34.3	-43.3	234	13	
2025-08-31T12:00	9200	314	-34.5	-43.5	234	13	
2025-08-31T12:00	9220	313	-34.7	-43.7	235	13	
2025-08-31T12:00	9240	312	-34.8	-43.9	235	13	
2025-08-31T12:00	9260	311	-35.0	-44.5	235	13	
2025-08-31T12:00	9280	310	-35.2	-45.1	236	13	
2025-08-31T12:00	9300	309	-35.3	-45.3	236	13	
2025-08-31T12:00	9320	308	-35.4	-45.7	236	13	
2025-08-31T12:00	9340	307	-35.6	-45.7	237	13	
2025-08-31T12:00	9360	306	-35.7	-45.5	237	14	
2025-08-31T12:00	9380	306	-35.8	-45.1	237	14	
2025-08-31T12:00	9400	305	-36.0	-45.4	237	14	
2025-08-31T12:00	9420	304	-36.1	-45.7	237	14	
2025-08-31T12:00	9440	303	-36.3	-45.8	237	14	
2025-08-31T12:00	9460	302	-36.5	-45.9	238	13	
2025-08-31T12:00	9480	301	-36.6	-46.2	238	13	
2025-08-31T12:00	9500	300	-36.8	-46.4	238	14	
2025-08-31T12:00	9520	299	-36.9	-46.7	238	14	
2025-08-31T12:00	9540	299	-37.1	-46.8	238	14	
2025-08-31T12:00	9560	298	-37.3	-47.2	237	14	
2025-08-31T12:00	9580	297	-37.4	-47.9	237	14	
2025-08-31T12:00	9600	296	-37.6	-48.5	237	14	
2025-08-31T12:00	9620	295	-37.6	-48.8	237	14	
2025-08-31T12:00	9640	294	-37.8	-49.4	237	14	
2025-08-31T12:00	9660	293	-37.9	-50.2	237	13	
2025-08-31T12:00	9680	292	-38.0	-50.8	238	13	
2025-08-31T12:00	9700	292	-38.1	-50.8	239	13	
2025-08-31T12:00	9720	291	-38.3	-50.7	239	14	
2025-08-31T12:00	9740	290	-38.5	-50.7	239	14	
2025-08-31T12:00	9760	289	-38.7	-50.7	238	14	
2025-08-31T12:00	9780	288	-38.9	-50.6	238	14	
2025-08-31T12:00	9800	287	-39.1	-50.7	238	14	
2025-08-31T12:00	9820	287	-39.2	-51.2	238	14	
2025-08-31T12:00	9840	286	-39.2	-51.2	238	14	
2025-08-31T12:00	9860	285	-39.3	-51.0	238	15	
2025-08-31T12:00	9880	284	-39.4	-51.2	239	15	
2025-08-31T12:00	9900	283	-39.6	-51.1	240	15	
2025-08-31T12:00	9920	283	-39.8	-51.4	241	15	
2025-08-31T12:00	9940	282	-40.0	-51.6	241	15	
2025-08-31T12:00	9960	281	-40.1	-52.1	241	15	
2025-08-31T12:00	9980	280	-40.2	-52.6	242	15	
2025-08-31T12:00	10000	279	-40.4	-53.1	242	15	
2025-08-31T12:00	10018	278	-40.5	-53.4	242	15	
2025-08-31T12:00	10050	277	-40.6	-53.9	242	15	
2025-08-31T12:00	10100	275	-41.0	-54.5	243	15	
2025-08-31T12:00	10150	273	-41.3	-54.3	244	16	
2025-08-31T12:00	10200	271	-41.7	-54.6	244	16	
2025-08-31T12:00	10250	269	-42.1	-54.6	243	16	
2025-08-31T12:00	10300	267	-42.5	-54.8	241	16	
2025-08-31T12:00	10350	265	-43.0	-55.1	240	16	
2025-08-31T12:00	10400	263	-43.4	-56.2	241	15	
2025-08-31T12:00	10450	261	-43.7	-56.2	240	15	
2025-08-31T12:00	10500	259	-44.1	-56.4	239	16	
2025-08-31T12:00	10550	257	-44.5	-56.5	237	16	
2025-08-31T12:00	10600	255	-44.9	-56.7	237	16	
2025-08-31T12:00	10650	254	-45.4	-56.5	237	16	
2025-08-31T12:00	10700	252	-45.8	-57.1	237	17	
2025-08-31T12:00	10750	250	-46.1	-57.9	236	17	
2025-08-31T12:00	10800	248	-46.4	-58.4	236	18	
2025-08-31T12:00	10850	246	-46.4	-60.4	235	19	
2025-08-31T12:00	10900	244	-46.5	-61.4	234	19	
2025-08-31T12:00	10950	242	-46.8	-61.2	233	19	
2025-08-31T12:00	11000	241	-47.2	-61.2	232	18	
2025-08-31T12:00	11050	239	-47.6	-61.3	230	19	
2025-08-31T12:00	11100	237	-48.0	-61.2	229	19	
2025-08-31T12:00	11150	235	-48.3	-61.7	230	20	
2025-08-31T12:00	11200	233	-48.7	-61.0	231	20	
2025-08-31T12:00	11250	232	-48.8	-61.7	231	20	
2025-08-31T12:00	11300	230	-48.9	-61.7	230	19	
2025-08-31T12:00	11350	228	-49.2	-62.3	230	19	
2025-08-31T12:00	11400	226	-49.2	-64.3	229	20	
2025-08-31T12:00	11450	225	-49.5	-64.4	228	20	
2025-08-31T12:00	11500	223	-49.8	-64.0	228	20	
2025-08-31T12:00	11550	221	-49.8	-64.3	227	21	
2025-08-31T12:00	11600	219	-49.7	-65.1	225	21	
2025-08-31T12:00	11650	218	-50.1	-65.0	225	21	
2025-08-31T12:00	11700	216	-50.2	-65.7	225	21	
2025-08-31T12:00	11750	214	-50.3	-66.3	225	20	
2025-08-31T12:00	11800	213	-50.4	-67.1	223	20	
2025-08-31T12:00	11850	211	-50.6	-67.6	222	19	
2025-08-31T12:00	11900	210	-50.9	-68.0	220	19	
2025-08-31T12:00	11950	208	-51.2	-68.9	217	19	
2025-08-31T12:00	12000	206	-51.2	-69.1	216	20	
2025-08-31T12:00	12050	205	-51.5	-69.5	217	20	
2025-08-31T12:00	12100	203	-51.8	-69.7	218	21	
2025-08-31T12:00	12150	202	-52.1	-69.8	220	21	
2025-08-31T12:00	12200	200	-52.4	-69.9	222	21	
2025-08-31T12:00	12250	199	-52.8	-70.0	223	21	
2025-08-31T12:00	12300	197	-53.1	-70.5	224	21	
2025-08-31T12:00	12350	196	-53.6	-70.6	222	21	
2025-08-31T12:00	12400	194	-53.8	-70.8	220	21	
2025-08-31T12:00	12450	193	-54.0	-71.1	219	21	
2025-08-31T12:00	12500	191	-54.3	-71.1	218	21	
2025-08-31T12:00	12550	190	-54.7	-70.9	217	20	
2025-08-31T12:00	12600	188	-55.0	-71.2	217	20	
2025-08-31T12:00	12650	187	-55.3	-71.3	217	20	
2025-08-31T12:00	12700	185	-55.5	-71.4	215	20	
2025-08-31T12:00	12750	184	-55.7	-71.9	214	20	
2025-08-31T12:00	12800	182	-56.1	-72.1	214	20	
2025-08-31T12:00	12850	181	-56.6	-72.2	215	20	
2025-08-31T12:00	12900	179	-56.8	-72.8	216	20	
2025-08-31T12:00	12950	178	-57.2	-73.3	218	20	
2025-08-31T12:00	13000	177	-57.2	-74.8	220	19	
2025-08-31T12:00	13050	175	-57.1	-76.0	223	18	
2025-08-31T12:00	13100	174	-57.1	-76.2	225	18	
2025-08-31T12:00	13150	172	-56.9	-76.1	225	18	
2025-08-31T12:00	13200	171	-57.0	-76.2	225	17	
2025-08-31T12:00	13250	170	-56.8	-76.1	226	17	
2025-08-31T12:00	13300	168	-56.8	-76.2	227	17	
2025-08-31T12:00	13350	167	-57.0	-76.3	227	18	
2025-08-31T12:00	13400	166	-57.3	-76.4	227	19	
2025-08-31T12:00	13450	164	-57.5	-76.7	229	20	
2025-08-31T12:00	13500	163	-57.5	-77.3	231	20	
2025-08-31T12:00	13550	162	-57.1	-77.7	235	19	
2025-08-31T12:00	13600	161	-56.9	-77.9	237	17	
2025-08-31T12:00	13650	159	-56.5	-77.9	237	16	
2025-08-31T12:00	13700	158	-56.5	-78.1	235	15	
2025-08-31T12:00	13750	157	-56.9	-78.3	233	14	
2025-08-31T12:00	13800	156	-57.2	-78.6	230	13	
2025-08-31T12:00	13850	154	-57.5	-78.8	225	12	
2025-08-31T12:00	13900	153	-57.6	-79.1	218	12	
2025-08-31T12:00	13950	152	-57.6	-79.7	211	13	
2025-08-31T12:00	14000	151	-57.4	-80.1	208	13	
2025-08-31T12:00	14050	150	-57.5	-80.2	211	14	
2025-08-31T12:00	14100	148	-57.2	-80.1	216	15	
2025-08-31T12:00	14150	147	-57.0	-80.0	218	17	
2025-08-31T12:00	14200	146	-57.2	-80.1	219	17	
2025-08-31T12:00	14250	145	-57.4	-80.2	220	18	
2025-08-31T12:00	14300	144	-57.6	-80.3	220	19	
2025-08-31T12:00	14350	143	-57.6	-80.2	220	18	
2025-08-31T12:00	14400	142	-57.9	-80.3	222	18	
2025-08-31T12:00	14450	140	-58.4	-80.3	225	18	
2025-08-31T12:00	14500	139	-58.8	-80.4	228	18	
2025-08-31T12:00	14550	138	-59.1	-80.4	231	18	
2025-08-31T12:00	14600	137	-59.3	-80.5	232	17	
2025-08-31T12:00	14650	136	-59.1	-80.5	232	16	
2025-08-31T12:00	14700	135	-59.4	-80.7	230	14	
2025-08-31T12:00	14750	134	-59.5	-80.9	230	13	
2025-08-31T12:00	14800	133	-59.4	-81.2	232	12	
2025-08-31T12:00	14850	132	-59.3	-81.4	235	11	
2025-08-31T12:00	14900	131	-59.1	-81.5	239	11	
2025-08-31T12:00	14950	130	-58.8	-81.6	241	11	
2025-08-31T12:00	15000	129	-58.9	-81.7	243	11	
2025-08-31T12:00	15050	128	-58.8	-82.0	246	11	
2025-08-31T12:00	15100	127	-58.2	-82.4	245	10	
2025-08-31T12:00	15150	126	-57.8	-82.6	239	9	
2025-08-31T12:00	15200	125	-58.1	-82.7	230	8	
2025-08-31T12:00	15250	124	-58.5	-82.7	222	7	
2025-08-31T12:00	15300	123	-58.8	-82.8	216	7	
2025-08-31T12:00	15350	122	-59.1	-82.9	210	7	
2025-08-31T12:00	15400	121	-59.2	-83.0	205	6	
2025-08-31T12:00	15450	120	-59.3	-83.0	203	7	
2025-08-31T12:00	15500	119	-59.4	-83.0	201	7	
2025-08-31T12:00	15550	118	-59.6	-83.1	201	8	
2025-08-31T12:00	15600	117	-59.9	-83.1	200	8	
2025-08-31T12:00	15650	116	-60.2	-83.3	200	9	
2025-08-31T12:00	15700	115	-60.6	-83.4	203	9	
2025-08-31T12:00	15750	114	-61.0	-83.4	207	9	
2025-08-31T12:00	15800	113	-61.3	-83.6	210	8	
2025-08-31T12:00	15850	112	-61.5	-83.7	214	9	
2025-08-31T12:00	15900	111	-61.3	-83.9	220	10	
2025-08-31T12:00	15950	110	-60.8	-83.9	225	11	
2025-08-31T12:00	16000	110	-60.6	-84.0	226	11	
2025-08-31T12:00	16050	109	-60.3	-84.0	220	11	
2025-08-31T12:00	16100	108	-60.2	-84.1	215	12	
2025-08-31T12:00	16150	107	-60.1	-84.2	215	13	
2025-08-31T12:00	16200	106	-60.2	-84.4	219	13	
2025-08-31T12:00	16250	105	-60.2	-84.6	221	13	
2025-08-31T12:00	16300	104	-60.0	-84.8	221	13	
2025-08-31T12:00	16350	104	-60.1	-85.0	221	13	
2025-08-31T12:00	16400	103	-60.1	-85.2	224	12	
2025-08-31T12:00	16450	102	-59.5	-85.2	227	11	
2025-08-31T12:00	16500	101	-59.0	-85.1	225	10	
2025-08-31T12:00	16550	100	-58.8	-85.0	216	9	
2025-08-31T12:00	16600	100	-58.8	-85.0	209	8	
2025-08-31T12:00	16650	99	-58.2	-84.8	210	8	
2025-08-31T12:00	16700	98	-58.2	-84.8	212	7	
2025-08-31T12:00	16750	97	-58.0	-84.8	211	6	
2025-08-31T12:00	16800	96	-57.9	-84.7	208	6	
2025-08-31T12:00	16850	96	-57.9	-84.6	202	6	
2025-08-31T12:00	16900	95	-57.9	-84.6	195	4	
2025-08-31T12:00	16950	94	-58.0	-84.7	188	3	
2025-08-31T12:00	17000	93	-58.1	-84.8	176	3	
2025-08-31T12:00	17050	93	-58.0	-84.9	160	3	
2025-08-31T12:00	17100	92	-57.5	-84.9	150	5	
2025-08-31T12:00	17150	91	-57.1	-84.8	148	6	
2025-08-31T12:00	17200	90	-57.0	-84.7	152	6	
2025-08-31T12:00	17250	90	-57.2	-84.7	160	7	
2025-08-31T12:00	17300	89	-57.4	-84.8	168	9	
2025-08-31T12:00	17350	88	-57.5	-84.8	173	10	
2025-08-31T12:00	17400	88	-57.5	-84.8	175	10	
2025-08-31T12:00	17450	87	-57.4	-84.8	176	10	
2025-08-31T12:00	17500	86	-57.6	-84.8	179	10	
2025-08-31T12:00	17550	86	-58.0	-84.9	184	10	
2025-08-31T12:00	17600	85	-58.3	-85.1	191	9	
2025-08-31T12:00	17650	84	-58.4	-85.3	200	9	
2025-08-31T12:00	17700	84	-57.8	-85.2	210	8	
2025-08-31T12:00	17750	83	-57.6	-85.2	217	7	
2025-08-31T12:00	17800	82	-57.8	-85.2	218	7	
2025-08-31T12:00	17850	82	-58.0	-85.2	216	7	
2025-08-31T12:00	17900	81	-57.9	-85.2	215	6	
2025-08-31T12:00	17950	80	-57.8	-85.2	218	5	
2025-08-31T12:00	18000	80	-58.1	-85.2	223	5	
2025-08-31T12:00	18050	79	-58.3	-85.3	227	4	
2025-08-31T12:00	18100	78	-58.4	-85.4	223	4	
2025-08-31T12:00	18150	78	-58.5	-85.5	208	4	
2025-08-31T12:00	18200	77	-58.2	-85.5	187	4	
2025-08-31T12:00	18250	77	-58.1	-85.4	179	5	
2025-08-31T12:00	18300	76	-58.2	-85.5	181	7	
2025-08-31T12:00	18350	75	-58.2	-85.4	186	8	
2025-08-31T12:00	18400	75	-58.4	-85.5	192	9	
2025-08-31T12:00	18450	74	-58.4	-85.6	193	8	
2025-08-31T12:00	18500	74	-58.2	-85.8	189	9	
2025-08-31T12:00	18550	73	-57.3	-85.5	187	10	
2025-08-31T12:00	18600	72	-57.1	-85.4	187	11	
2025-08-31T12:00	18650	72	-57.2	-85.3	188	12	
2025-08-31T12:00	18700	71	-57.4	-85.5	192	12	
2025-08-31T12:00	18750	71	-56.5	-85.2	196	12	
2025-08-31T12:00	18800	70	-56.5	-85.2	199	10	
2025-08-31T12:00	18850	70	-56.6	-85.1	202	9	
2025-08-31T12:00	18900	69	-56.8	-85.0	203	8	
2025-08-31T12:00	18950	69	-57.1	-85.1	203	7	
2025-08-31T12:00	19000	68	-57.1	-85.2	200	6	
2025-08-31T12:00	19050	67	-57.2	-85.3	193	6	
2025-08-31T12:00	19100	67	-57.3	-85.5	181	5	
2025-08-31T12:00	19150	66	-56.7	-85.5	168	5	
2025-08-31T12:00	19200	66	-55.6	-85.2	166	5	
2025-08-31T12:00	19250	65	-55.3	-85.1	172	5	
2025-08-31T12:00	19300	65	-55.4	-85.2	173	4	
2025-08-31T12:00	19350	64	-54.4	-84.8	163	4	
2025-08-31T12:00	19400	64	-53.5	-84.4	151	5	
2025-08-31T12:00	19450	63	-53.7	-84.3	149	7	
2025-08-31T12:00	19500	63	-53.6	-84.0	152	8	
2025-08-31T12:00	19550	62	-53.7	-83.9	156	9	
2025-08-31T12:00	19600	62	-54.0	-84.0	160	9	
2025-08-31T12:00	19650	61	-54.1	-84.1	163	9	
2025-08-31T12:00	19700	61	-53.9	-84.1	166	8	
2025-08-31T12:00	19750	60	-53.9	-84.2	165	7	
2025-08-31T12:00	19800	60	-54.0	-84.3	158	8	
2025-08-31T12:00	19850	60	-53.4	-84.1	154	8	
2025-08-31T12:00	19900	59	-53.1	-83.9	156	8	
2025-08-31T12:00	19950	59	-53.2	-83.9	162	7	
2025-08-31T12:00	20000	58	-53.4	-83.8	169	6	
2025-08-31T12:00	20050	58	-53.6		175	5	
2025-08-31T12:00	20100	57	-53.8		178	4	
2025-08-31T12:00	20150	57	-53.8		173	3	
2025-08-31T12:00	20200	56	-53.8		156	2	
2025-08-31T12:00	20250	56	-53.7		126	2	
2025-08-31T12:00	20300	56	-53.8		96	2	
2025-08-31T12:00	20350	55	-53.9		83	3	
2025-08-31T12:00	20400	55	-53.9		84	4	
2025-08-31T12:00	20450	54	-54.0		87	5	
2025-08-31T12:00	20500	54	-54.2		91	6	
2025-08-31T12:00	20550	53	-54.2		95	7	
2025-08-31T12:00	20600	53	-54.3		102	8	
2025-08-31T12:00	20650	53	-54.6		111	9	
2025-08-31T12:00	20700	52	-54.6		120	10	
2025-08-31T12:00	20750	52	-54.7		129	10	
2025-08-31T12:00	20800	51	-54.7		138	11	
2025-08-31T12:00	20850	51	-54.6		147	11	
2025-08-31T12:00	20900	51	-54.6		155	11	
2025-08-31T12:00	20950	50	-54.1		158	10	
2025-08-31T12:00	21000	50	-53.7		156	9	
2025-08-31T12:00	21050	49	-53.7		146	8	
2025-08-31T12:00	21100	49	-53.4		142	8	
2025-08-31T12:00	21150	49	-53.3		153	8	
2025-08-31T12:00	21200	48	-53.0		165	9	
2025-08-31T12:00	21250	48	-53.1		173	10	
2025-08-31T12:00	21300	48	-53.3		180	10	
2025-08-31T12:00	21350	47	-53.6		189	10	
2025-08-31T12:00	21400	47	-53.5		196	10	
2025-08-31T12:00	21450	46	-53.6		201	9	
2025-08-31T12:00	21500	46	-53.8		206	8	
2025-08-31T12:00	21550	46	-53.8		213	7	
2025-08-31T12:00	21600	45	-53.7		218	6	
2025-08-31T12:00	21650	45	-53.5		216	5	
2025-08-31T12:00	21700	45	-53.5		204	4	
2025-08-31T12:00	21750	44	-53.5		190	4	
2025-08-31T12:00	21800	44	-53.5		183	4	
2025-08-31T12:00	21850	44	-53.5		181	4	
2025-08-31T12:00	21900	43	-53.4		176	3	
2025-08-31T12:00	21950	43	-53.3		164	3	
2025-08-31T12:00	22000	43	-53.2		152	3	
2025-08-31T12:00	22050	42	-53.0		139	4	
2025-08-31T12:00	22100	42	-53.0		126	6	
2025-08-31T12:00	22150	42	-52.8		118	7	
2025-08-31T12:00	22200	41	-52.6		117	8	
2025-08-31T12:00	22250	41	-52.5		119	9	
2025-08-31T12:00	22300	41	-52.6		122	10	
2025-08-31T12:00	22350	40	-52.6		128	9	
2025-08-31T12:00	22400	40	-52.4		135	8	
2025-08-31T12:00	22450	40	-52.5		141	8	
2025-08-31T12:00	22500	39	-52.7		146	8	
2025-08-31T12:00	22550	39	-52.9		150	7	
2025-08-31T12:00	22600	39	-53.0		152	6	
2025-08-31T12:00	22650	39	-52.8		145	4	
2025-08-31T12:00	22700	38	-52.8		127	4	
2025-08-31T12:00	22750	38	-52.9		111	4	
2025-08-31T12:00	22800	38	-52.8		108	4	
2025-08-31T12:00	22850	37	-52.4		118	4	
2025-08-31T12:00	22900	37	-52.5		134	4	
2025-08-31T12:00	22950	37	-52.8		147	3	
2025-08-31T12:00	23000	36	-53.1		160	3	
2025-08-31T12:00	23050	36	-53.3		176	3	
2025-08-31T12:00	23100	36	-53.2		185	2	
2025-08-31T12:00	23150	36	-53.0		189	1	
2025-08-31T12:00	23200	35	-53.0		181	1	
2025-08-31T12:00	23250	35	-53.1		82	1	
2025-08-31T12:00	23300	35	-53.0		69	1	
2025-08-31T12:00	23350	35	-53.0		74	2	
2025-08-31T12:00	23400	34	-53.3		86	3	
2025-08-31T12:00	23450	34	-53.6		99	4	
2025-08-31T12:00	23500	34	-53.6		111	5	
2025-08-31T12:00	23550	34	-53.7		119	6	
2025-08-31T12:00	23600	33	-53.8		125	7	
2025-08-31T12:00	23650	33	-53.7		130	7	
2025-08-31T12:00	23700	33	-53.7		133	6	
2025-08-31T12:00	23750	32	-53.5		134	6	
2025-08-31T12:00	23800	32	-52.9		129	5	
2025-08-31T12:00	23850	32	-52.8		117	5	
2025-08-31T12:00	23900	32	-52.8		105	5	
2025-08-31T12:00	23950	31	-52.6		103	7	
2025-08-31T12:00	24000	31	-52.6		106	8	
2025-08-31T12:00	24050	31	-52.7		110	9	
2025-08-31T12:00	24100	31	-52.8		113	9	
2025-08-31T12:00	24150	31	-52.8		116	9	
2025-08-31T12:00	24200	30	-53.0		118	8	
2025-08-31T12:00	24250	30	-53.2		120	8	
2025-08-31T12:00	24300	30	-53.3		120	8	
2025-08-31T12:00	24350	30	-53.5		118	8	
2025-08-31T12:00	24400	29	-53.6		114	8	
2025-08-31T12:00	24450	29	-53.4		109	7	
2025-08-31T12:00	24500	29	-53.2		101	6	
2025-08-31T12:00	24550	29	-53.1		94	6	
2025-08-31T12:00	24600	28	-53.1		93	7	
2025-08-31T12:00	24650	28	-53.0		95	7	
2025-08-31T12:00	24700	28	-53.0		97	8	
2025-08-31T12:00	24750	28	-53.0		99	8	
2025-08-31T12:00	24800	28	-52.9		103	8	
2025-08-31T12:00	24850	27	-52.9		109	7	
2025-08-31T12:00	24900	27	-52.9		116	7	
2025-08-31T12:00	24950	27	-52.7		122	8	
2025-08-31T12:00	25000	27	-52.6		125	8	
2025-08-31T12:00	25050	27	-52.7		125	8	
2025-08-31T12:00	25100	26	-52.7		121	7	
2025-08-31T12:00	25150	26	-52.7		114	6	
2025-08-31T12:00	25200	26	-52.7		102	5	
2025-08-31T12:00	25250	26	-52.9		84	4	
2025-08-31T12:00	25300	26	-52.7		69	5	
2025-08-31T12:00	25350	25	-52.4		66	5	
2025-08-31T12:00	25400	25	-52.3		72	6	
2025-08-31T12:00	25450	25	-52.2		78	6	
2025-08-31T12:00	25500	25	-52.2		80	7	
2025-08-31T12:00	25550	25	-52.0		81	8	
2025-08-31T12:00	25600	24	-51.8		83	8	
2025-08-31T12:00	25650	24	-51.9		86	8	
2025-08-31T12:00	25700	24	-52.0		86	9	
2025-08-31T12:00	25750	24	-52.0		84	9	
2025-08-31T12:00	25800	24	-52.0		82	10	
2025-08-31T12:00	25850	23	-52.0		82	10	
2025-08-31T12:00	25900	23	-51.9		85	10	
2025-08-31T12:00	25950	23	-51.8		90	10	
2025-08-31T12:00	26000	23	-51.5		95	11	
2025-08-31T12:00	26050	23	-51.5		97	11	
2025-08-31T12:00	26100	23	-51.5		99	10	
2025-08-31T12:00	26150	22	-51.3		101	10	
2025-08-31T12:00	26200	22	-51.2		101	9	
2025-08-31T12:00	26250	22	-51.3		101	9	
2025-08-31T12:00	26300	22	-51.4		101	9	
2025-08-31T12:00	26350	22	-51.6		100	9	
2025-08-31T12:00	26400	22	-51.6		98	9	
2025-08-31T12:00	26450	21	-51.5		97	10	
2025-08-31T12:00	26500	21	-51.4		97	10	
2025-08-31T12:00	26550	21	-51.2		97	11	
2025-08-31T12:00	26600	21	-51.0		99	12	
2025-08-31T12:00	26650	21	-50.8		102	11	
2025-08-31T12:00	26700	21	-50.9		106	11	
2025-08-31T12:00	26750	20	-51.0		112	10	
2025-08-31T12:00	26800	20	-51.1		118	10	
2025-08-31T12:00	26850	20	-51.3		123	9	
2025-08-31T12:00	26900	20	-51.5		127	8	
2025-08-31T12:00	26950	20	-51.5		130	8	
2025-08-31T12:00	27000	20	-51.6		130	7	
2025-08-31T12:00	27050	20	-51.7		123	6	
2025-08-31T12:00	27100	19	-51.6		109	6	
2025-08-31T12:00	27150	19	-51.7		98	6	
2025-08-31T12:00	27200	19	-51.6		96	7	
2025-08-31T12:00	27250	19	-51.5		97	7	
2025-08-31T12:00	27300	19	-51.5		98	7	
2025-08-31T12:00	27350	19	-51.5		99	7	
2025-08-31T12:00	27400	18	-51.6		101	7	
2025-08-31T12:00	27450	18	-51.8		100	7	
2025-08-31T12:00	27500	18	-51.9		98	7	
2025-08-31T12:00	27550	18	-51.9		95	7	
2025-08-31T12:00	27600	18	-51.8		89	6	
2025-08-31T12:00	27650	18	-51.8		82	6	
2025-08-31T12:00	27700	18	-51.9		77	6	
2025-08-31T12:00	27750	18	-52.0		76	7	
2025-08-31T12:00	27800	17	-52.0		79	8	
2025-08-31T12:00	27850	17	-52.0		83	9	
2025-08-31T12:00	27900	17	-52.1		86	10	
2025-08-31T12:00	27950	17	-52.1		89	10	
2025-08-31T12:00	28000	17	-51.9		92	11	
2025-08-31T12:00	28050	17	-51.7		97	11	
2025-08-31T12:00	28100	17	-51.6		103	11	
2025-08-31T12:00	28150	16	-51.5		109	12	
2025-08-31T12:00	28200	16	-51.4		112	12	
2025-08-31T12:00	28250	16	-51.2		111	12	
2025-08-31T12:00	28300	16	-51.2		110	11	
2025-08-31T12:00	28350	16	-51.1		110	10	
2025-08-31T12:00	28400	16	-51.0		110	9	
2025-08-31T12:00	28450	16	-50.6		108	9	
2025-08-31T12:00	28500	16	-50.1		103	8	
2025-08-31T12:00	28550	15	-49.8		98	8	
2025-08-31T12:00	28600	15	-49.7		97	8	
2025-08-31T12:00	28650	15	-49.6		99	8	
2025-08-31T12:00	28700	15	-49.4		103	8	
2025-08-31T12:00	28750	15	-49.3		105	8	
2025-08-31T12:00	28800	15	-49.2		106	8	
2025-08-31T12:00	28850	15	-49.1		107	7	
2025-08-31T12:00	28900	15	-49.1		107	6	
2025-08-31T12:00	28950	15	-49.0		103	5	
2025-08-31T12:00	29000	14	-48.7		90	4	
2025-08-31T12:00	29050	14	-48.4		69	4	
2025-08-31T12:00	29100	14	-48.2		50	4	
2025-08-31T12:00	29150	14	-48.0		43	5	
2025-08-31T12:00	29200	14	-48.0		44	6	
2025-08-31T12:00	29250	14	-47.9		50	7	
2025-08-31T12:00	29300	14	-47.8		56	8	
2025-08-31T12:00	29350	14	-47.7		61	8	
2025-08-31T12:00	29400	14	-47.6		68	8	
2025-08-31T12:00	29450	13	-47.5		76	7	
2025-08-31T12:00	29500	13	-47.5		86	7	
2025-08-31T12:00	29550	13	-47.5		93	7	
2025-08-31T12:00	29600	13	-47.5		96	7	
2025-08-31T12:00	29650	13	-47.2		96	7	
2025-08-31T12:00	29700	13	-46.9		97	6	
2025-08-31T12:00	29750	13	-46.8		101	6	
2025-08-31T12:00	29800	13	-46.8		106	7	
2025-08-31T12:00	29850	13	-46.9		111	7	
2025-08-31T12:00	29900	13	-46.8		114	7	
2025-08-31T12:00	29950	13	-46.8		117	8	
2025-08-31T12:00	30000	12	-46.8		121	8	
2025-08-31T12:00	30050	12	-46.7		123	7	
2025-08-31T12:00	30100	12	-46.7		122	7	
2025-08-31T12:00	30150	12	-46.8		119	7	
2025-08-31T12:00	30200	12	-46.8		112	7	
2025-08-31T12:00	30250	12	-46.8		104	7	
2025-08-31T12:00	30300	12	-46.7		98	7	
2025-08-31T12:00	30350	12	-46.6		92	7	
2025-08-31T12:00	30400	12	-46.6		89	7	
2025-08-31T12:00	30450	12	-46.6		88	8	
2025-08-31T12:00	30500	12	-46.7		87	9	
2025-08-31T12:00	30550	11	-46.7		89	10	
2025-08-31T12:00	30600	11	-46.7		92	10	
2025-08-31T12:00	30650	11	-46.6		98	10	
2025-08-31T12:00	30700	11	-46.4		103	10	
2025-08-31T12:00	30750	11	-46.3		109	10	
2025-08-31T12:00	30800	11	-46.1		115	9	
2025-08-31T12:00	30850	11	-45.6		119	8	
2025-08-31T12:00	30900	11	-45.0		119	7	
2025-08-31T12:00	30950	11	-44.3		114	6	
2025-08-31T12:00	31000	11	-43.9		103	5	
2025-08-31T12:00	31050	11	-43.6		88	5	
2025-08-31T12:00	31100	11	-43.4		70	5	
2025-08-31T12:00	31150	10	-43.1		57	5	
2025-08-31T12:00	31200	10	-42.9		51	6	
2025-08-31T12:00	31250	10	-42.6		51	7	
2025-08-31T12:00	31300	10	-42.5		54	7	
2025-08-31T12:00	31350	10	-42.4		58	7	
2025-08-31T12:00	31400	10	-42.5		65	7	
2025-08-31T12:00	31450	10	-42.6		74	7	
2025-08-31T12:00	31500	10	-42.7		85	6	
2025-08-31T12:00	31550	10	-42.5		94	6	
2025-08-31T12:00	31600	10	-42.3		102	5	
2025-08-31T12:00	31650	10	-42.2		107	4	
2025-08-31T12:00	31700	10	-42.1		107	3	
2025-08-31T12:00	31750	10	-42.0		99	3	
2025-08-31T12:00	31800	9	-42.1		87	4	
2025-08-31T12:00	31850	9	-42.2		77	4	
2025-08-31T12:00	31900	9	-42.3		68	5	
2025-08-31T12:00	31950	9	-42.0		60	6	
2025-08-31T12:00	32000	9	-41.7		52	6	
2025-08-31T12:00	32050	9	-41.6		47	7	
2025-08-31T12:00	32100	9	-41.6		43	8	
2025-08-31T12:00	32150	9	-41.5		44	8	
2025-08-31T12:00	32200	9	-40.9		45	8	
2025-08-31T12:00	32250	9	-40.5		43	9	
2025-08-31T12:00	32300	9	-40.2		41	9	
2025-08-31T12:00	32350	9	-40.0		39	8	
2025-08-31T12:00	32400	9	-39.9		37	7	
2025-08-31T12:00	32450	9	-39.6		34	6	
2025-08-31T12:00	32500	9	-39.4		33	4	
2025-08-31T12:00	32550	8	-39.3		40	2	
2025-08-31T12:00	32600	8	-39.3		116	1	
2025-08-31T12:00	32650	8	-39.3		194	2	
2025-08-31T12:00	32700	8	-39.2		208	2	
2025-08-31T12:00	32750	8	-39.2		216	3	
2025-08-31T12:00	32800	8	-39.1		225	3	
2025-08-31T12:00	32850	8	-39.1		235	2	
2025-08-31T12:00	32900	8	-39.1		247	2	
2025-08-31T12:00	32950	8	-39.1		268	2	
2025-08-31T12:00	33000	8	-39.0		305	1	
2025-08-31T12:00	33050	8	-39.1		347	1	
2025-08-31T12:00	33100	8	-39.3		17	2	
2025-08-31T12:00	33150	8	-39.4		31	3	
2025-08-31T12:00	33200	8	-39.4		36	3	
2025-08-31T12:00	33250	8	-39.5		39	3	
2025-08-31T12:00	33300	8	-39.7		47	3	
2025-08-31T12:00	33350	8	-39.7		60	4	
2025-08-31T12:00	33400	8	-39.8		72	5	
2025-08-31T12:00	33450	7	-39.9		79	6	
2025-08-31T12:00	33500	7	-39.9		81	7	
2025-08-31T12:00	33550	7	-40.0		82	8	
2025-08-31T12:00	33600	7	-40.2		85	9	
2025-08-31T12:00	33650	7	-40.4		90	10	
2025-08-31T12:00	33700	7	-40.3		95	11	
2025-08-31T12:00	33750	7	-40.1		101	11	
2025-08-31T12:00	33800	7	-40.1		108	11	
2025-08-31T12:00	33850	7	-40.2		115	10	
2025-08-31T12:00	33900	7	-40.3		124	10	
2025-08-31T12:00	33950	7	-40.3		135	9	
2025-08-31T12:00	34000	7	-40.2		147	9	
2025-08-31T12:00	34050	7	-39.8		158	9	
2025-08-31T12:00	34100	7	-39.3		168	10	
2025-08-31T12:00	34150	7	-39.0		176	10	
2025-08-31T12:00	34200	7	-39.0		182	10	
2025-08-31T12:00	34250	7	-38.8		186	10	
2025-08-31T12:00	34300	7	-38.7		190	10	
2025-08-31T12:00	34350	7	-38.5		191	9	
2025-08-31T12:00	34400	6	-38.3		189	9	
2025-08-31T12:00	34450	6	-38.3		184	8	
2025-08-31T12:00	34500	6	-38.3		173	7	
2025-08-31T12:00	34550	6	-38.3		161	7	
2025-08-31T12:00	34600	6	-38.4		154	7	
2025-08-31T12:00	34650	6	-38.3		154	8	
2025-08-31T12:00	34700	6	-38.1		159	8	
2025-08-31T12:00	34750	6	-37.8		167	8	
2025-08-31T12:00	34800	6	-37.6		174	7	
2025-08-31T12:00	34850	6	-37.5		181	7	
2025-08-31T12:00	34900	6	-37.4		187	6	
2025-08-31T12:00	34950	6	-37.1		194	6	
2025-08-31T12:00	35000	6	-36.8		206	6	
2025-08-31T12:00	35050	6	-36.5		219	5	
2025-08-31T12:00	35100	6	-36.0		234	5	
2025-08-31T12:00	35150	6	-35.6		250	4	
2025-08-31T12:00	35200	6	-35.4		270	3	
2025-08-31T12:00	35250	6	-35.3		306	2	
2025-08-31T12:00	35300	6	-35.3		13	1	
2025-08-31T12:00	35350	6	-35.1		57	2	
2025-08-31T12:00	35400	6	-34.8		73	4	
2025-08-31T12:00	35450	6	-34.7		82	5	
2025-08-31T12:00	35500	6	-34.7		89	6	
2025-08-31T12:00	35550	5	-34.7		96	7	
2025-08-31T12:00	35600	5	-34.8		102	9	
2025-08-31T12:00	35650	5	-34.9		105	10	
2025-08-31T12:00	35700	5	-34.8		111	10	
2025-08-31T12:00	35750	5	-34.5		117	11	
2025-08-31T12:00	35800	5	-34.2		123	10	
2025-08-31T12:00	35850	5	-33.9		127	9	
2025-08-31T12:00	35900	5	-33.5		130	7	
2025-08-31T12:00	35950	5	-32.6		132	5	
2025-08-31T12:00	36000	5	-31.7		136	4	
2025-08-31T12:00	36050	5	-31.0		142	3	
2025-08-31T12:00	36100	5	-30.3		142	3	
2025-08-31T12:00	36150	5	-29.5		133	4	
2025-08-31T12:00	36200	5	-29.0		124	5	
2025-08-31T12:00	36250	5	-28.8		118	5	
2025-08-31T12:00	36300	5	-28.7		114	5	
2025-08-31T12:00	36350	5	-29.0		112	4	
2025-08-31T12:00	36400	5	-29.3		117	3	
2025-08-31T12:00	36450	5	-29.5		142	2	
2025-08-31T12:00	36500	5	-29.6		192	2	
2025-08-31T12:00	36550	5	-29.6		229	2	
2025-08-31T12:00	36600	5	-29.6		251	3	
2025-08-31T12:00	36650	5	-29.6		263	4	
2025-08-31T12:00	36700	5	-29.7		267	4	
2025-08-31T12:00	36750	5	-29.7		267	4	
2025-08-31T12:00	36800	5	-29.8		268	3	
2025-08-31T12:00	36850	5	-30.0		285	1	
2025-08-31T12:00	36900	5	-30.0		348	1	
2025-08-31T12:00	36950	5	-30.1		31	2	
2025-08-31T12:00	37000	4	-30.2		57	3	
2025-08-31T12:00	37050	4	-30.2		72	3	
2025-08-31T12:00	37100	4	-30.0		76	3	
